<?xml version="1.0" encoding="UTF-8" standalone="no" ?>
<gpx xmlns="http://www.topografix.com/GPX/1/1" xmlns:xsi="http://www.w3.org/2001/XMLSchema-instance" xsi:schemaLocation="http://www.topografix.com/GPX/1/1 http://www.topografix.com/GPX/1/1/gpx.xsd" version="1.1" creator="VisuGPX - https://www.visugpx.com">
  <metadata>
    <name>Lyon Cyclisme sur route</name>
    <desc><![CDATA[

]]></desc>
  </metadata>
  <trk>
    <name><![CDATA[Lyon Cyclisme sur route]]></name>
    <extensions>
      <line xmlns="http://www.topografix.com/GPX/gpx_style/0/2">
        <color>FFFF00</color>
        <width>4</width>
      </line>
    </extensions>
    <trkseg>
      <trkpt lat="45.73664" lon="4.8754">
        <ele>176.19999694824</ele>
        <time>2024-05-21T05:09:25.000Z</time>
      </trkpt>
      <trkpt lat="45.73664" lon="4.8754">
        <ele>176.19999694824</ele>
        <time>2024-05-21T05:09:26.000Z</time>
      </trkpt>
      <trkpt lat="45.73663" lon="4.8754">
        <ele>176.19999694824</ele>
        <time>2024-05-21T05:09:37.000Z</time>
      </trkpt>
      <trkpt lat="45.73661" lon="4.8754">
        <ele>176.19999694824</ele>
        <time>2024-05-21T05:09:38.000Z</time>
      </trkpt>
      <trkpt lat="45.73659" lon="4.8754">
        <ele>176.19999694824</ele>
        <time>2024-05-21T05:09:39.000Z</time>
      </trkpt>
      <trkpt lat="45.73658" lon="4.87539">
        <ele>176.19999694824</ele>
        <time>2024-05-21T05:09:40.000Z</time>
      </trkpt>
      <trkpt lat="45.73656" lon="4.87538">
        <ele>176.19999694824</ele>
        <time>2024-05-21T05:09:41.000Z</time>
      </trkpt>
      <trkpt lat="45.73654" lon="4.87537">
        <ele>176.19999694824</ele>
        <time>2024-05-21T05:09:42.000Z</time>
      </trkpt>
      <trkpt lat="45.73651" lon="4.87537">
        <ele>176.19999694824</ele>
        <time>2024-05-21T05:09:43.000Z</time>
      </trkpt>
      <trkpt lat="45.73648" lon="4.87536">
        <ele>176.19999694824</ele>
        <time>2024-05-21T05:09:44.000Z</time>
      </trkpt>
      <trkpt lat="45.73645" lon="4.87536">
        <ele>176.19999694824</ele>
        <time>2024-05-21T05:09:45.000Z</time>
      </trkpt>
      <trkpt lat="45.73642" lon="4.87537">
        <ele>176.19999694824</ele>
        <time>2024-05-21T05:09:46.000Z</time>
      </trkpt>
      <trkpt lat="45.73639" lon="4.87537">
        <ele>176.19999694824</ele>
        <time>2024-05-21T05:09:47.000Z</time>
      </trkpt>
      <trkpt lat="45.73635" lon="4.87537">
        <ele>176.19999694824</ele>
        <time>2024-05-21T05:09:48.000Z</time>
      </trkpt>
      <trkpt lat="45.73632" lon="4.87537">
        <ele>176.19999694824</ele>
        <time>2024-05-21T05:09:49.000Z</time>
      </trkpt>
      <trkpt lat="45.73629" lon="4.87536">
        <ele>176.39999389648</ele>
        <time>2024-05-21T05:09:50.000Z</time>
      </trkpt>
      <trkpt lat="45.73625" lon="4.87536">
        <ele>176.39999389648</ele>
        <time>2024-05-21T05:09:51.000Z</time>
      </trkpt>
      <trkpt lat="45.73622" lon="4.87535">
        <ele>176.39999389648</ele>
        <time>2024-05-21T05:09:52.000Z</time>
      </trkpt>
      <trkpt lat="45.73617" lon="4.87535">
        <ele>176.39999389648</ele>
        <time>2024-05-21T05:09:53.000Z</time>
      </trkpt>
      <trkpt lat="45.73614" lon="4.87534">
        <ele>176.60000610352</ele>
        <time>2024-05-21T05:09:54.000Z</time>
      </trkpt>
      <trkpt lat="45.73611" lon="4.87534">
        <ele>176.60000610352</ele>
        <time>2024-05-21T05:09:55.000Z</time>
      </trkpt>
      <trkpt lat="45.73607" lon="4.87534">
        <ele>176.60000610352</ele>
        <time>2024-05-21T05:09:56.000Z</time>
      </trkpt>
      <trkpt lat="45.73603" lon="4.87533">
        <ele>176.60000610352</ele>
        <time>2024-05-21T05:09:57.000Z</time>
      </trkpt>
      <trkpt lat="45.73599" lon="4.87533">
        <ele>176.80000305176</ele>
        <time>2024-05-21T05:09:58.000Z</time>
      </trkpt>
      <trkpt lat="45.73595" lon="4.87533">
        <ele>176.80000305176</ele>
        <time>2024-05-21T05:09:59.000Z</time>
      </trkpt>
      <trkpt lat="45.73592" lon="4.87533">
        <ele>176.80000305176</ele>
        <time>2024-05-21T05:10:00.000Z</time>
      </trkpt>
      <trkpt lat="45.73588" lon="4.87532">
        <ele>176.80000305176</ele>
        <time>2024-05-21T05:10:01.000Z</time>
      </trkpt>
      <trkpt lat="45.73584" lon="4.87532">
        <ele>176.80000305176</ele>
        <time>2024-05-21T05:10:02.000Z</time>
      </trkpt>
      <trkpt lat="45.7358" lon="4.87532">
        <ele>176.80000305176</ele>
        <time>2024-05-21T05:10:03.000Z</time>
      </trkpt>
      <trkpt lat="45.73575" lon="4.87531">
        <ele>176.80000305176</ele>
        <time>2024-05-21T05:10:04.000Z</time>
      </trkpt>
      <trkpt lat="45.73571" lon="4.87531">
        <ele>176.80000305176</ele>
        <time>2024-05-21T05:10:05.000Z</time>
      </trkpt>
      <trkpt lat="45.73567" lon="4.87531">
        <ele>176.80000305176</ele>
        <time>2024-05-21T05:10:06.000Z</time>
      </trkpt>
      <trkpt lat="45.73562" lon="4.87531">
        <ele>176.80000305176</ele>
        <time>2024-05-21T05:10:07.000Z</time>
      </trkpt>
      <trkpt lat="45.73558" lon="4.8753">
        <ele>176.80000305176</ele>
        <time>2024-05-21T05:10:08.000Z</time>
      </trkpt>
      <trkpt lat="45.73553" lon="4.8753">
        <ele>176.80000305176</ele>
        <time>2024-05-21T05:10:09.000Z</time>
      </trkpt>
      <trkpt lat="45.73548" lon="4.87529">
        <ele>176.80000305176</ele>
        <time>2024-05-21T05:10:10.000Z</time>
      </trkpt>
      <trkpt lat="45.73544" lon="4.87529">
        <ele>176.80000305176</ele>
        <time>2024-05-21T05:10:11.000Z</time>
      </trkpt>
      <trkpt lat="45.73539" lon="4.87529">
        <ele>176.80000305176</ele>
        <time>2024-05-21T05:10:12.000Z</time>
      </trkpt>
      <trkpt lat="45.73534" lon="4.87529">
        <ele>176.80000305176</ele>
        <time>2024-05-21T05:10:13.000Z</time>
      </trkpt>
      <trkpt lat="45.73529" lon="4.87529">
        <ele>176.80000305176</ele>
        <time>2024-05-21T05:10:14.000Z</time>
      </trkpt>
      <trkpt lat="45.73524" lon="4.87528">
        <ele>176.80000305176</ele>
        <time>2024-05-21T05:10:15.000Z</time>
      </trkpt>
      <trkpt lat="45.73519" lon="4.87528">
        <ele>176.80000305176</ele>
        <time>2024-05-21T05:10:16.000Z</time>
      </trkpt>
      <trkpt lat="45.73514" lon="4.87528">
        <ele>176.80000305176</ele>
        <time>2024-05-21T05:10:17.000Z</time>
      </trkpt>
      <trkpt lat="45.73509" lon="4.87528">
        <ele>176.80000305176</ele>
        <time>2024-05-21T05:10:18.000Z</time>
      </trkpt>
      <trkpt lat="45.73505" lon="4.87528">
        <ele>176.80000305176</ele>
        <time>2024-05-21T05:10:19.000Z</time>
      </trkpt>
      <trkpt lat="45.73501" lon="4.87528">
        <ele>176.80000305176</ele>
        <time>2024-05-21T05:10:20.000Z</time>
      </trkpt>
      <trkpt lat="45.73497" lon="4.87528">
        <ele>177</ele>
        <time>2024-05-21T05:10:21.000Z</time>
      </trkpt>
      <trkpt lat="45.73493" lon="4.87527">
        <ele>177</ele>
        <time>2024-05-21T05:10:22.000Z</time>
      </trkpt>
      <trkpt lat="45.73489" lon="4.87527">
        <ele>177</ele>
        <time>2024-05-21T05:10:23.000Z</time>
      </trkpt>
      <trkpt lat="45.73486" lon="4.87527">
        <ele>177.19999694824</ele>
        <time>2024-05-21T05:10:24.000Z</time>
      </trkpt>
      <trkpt lat="45.73483" lon="4.87527">
        <ele>177.19999694824</ele>
        <time>2024-05-21T05:10:25.000Z</time>
      </trkpt>
      <trkpt lat="45.7348" lon="4.87528">
        <ele>177.19999694824</ele>
        <time>2024-05-21T05:10:26.000Z</time>
      </trkpt>
      <trkpt lat="45.73478" lon="4.87528">
        <ele>177.39999389648</ele>
        <time>2024-05-21T05:10:27.000Z</time>
      </trkpt>
      <trkpt lat="45.73476" lon="4.87528">
        <ele>177.39999389648</ele>
        <time>2024-05-21T05:10:28.000Z</time>
      </trkpt>
      <trkpt lat="45.73475" lon="4.87528">
        <ele>177.39999389648</ele>
        <time>2024-05-21T05:10:29.000Z</time>
      </trkpt>
      <trkpt lat="45.73474" lon="4.87527">
        <ele>177.60000610352</ele>
        <time>2024-05-21T05:10:30.000Z</time>
      </trkpt>
      <trkpt lat="45.73473" lon="4.87526">
        <ele>177.60000610352</ele>
        <time>2024-05-21T05:10:31.000Z</time>
      </trkpt>
      <trkpt lat="45.73473" lon="4.87525">
        <ele>177.60000610352</ele>
        <time>2024-05-21T05:10:32.000Z</time>
      </trkpt>
      <trkpt lat="45.73472" lon="4.87525">
        <ele>177.80000305176</ele>
        <time>2024-05-21T05:10:33.000Z</time>
      </trkpt>
      <trkpt lat="45.73465" lon="4.87524">
        <ele>177.80000305176</ele>
        <time>2024-05-21T05:11:03.000Z</time>
      </trkpt>
      <trkpt lat="45.73463" lon="4.87524">
        <ele>177.80000305176</ele>
        <time>2024-05-21T05:11:04.000Z</time>
      </trkpt>
      <trkpt lat="45.73461" lon="4.87524">
        <ele>177.80000305176</ele>
        <time>2024-05-21T05:11:05.000Z</time>
      </trkpt>
      <trkpt lat="45.73459" lon="4.87524">
        <ele>177.80000305176</ele>
        <time>2024-05-21T05:11:06.000Z</time>
      </trkpt>
      <trkpt lat="45.73457" lon="4.87525">
        <ele>178</ele>
        <time>2024-05-21T05:11:07.000Z</time>
      </trkpt>
      <trkpt lat="45.73454" lon="4.87525">
        <ele>178</ele>
        <time>2024-05-21T05:11:08.000Z</time>
      </trkpt>
      <trkpt lat="45.73451" lon="4.87526">
        <ele>178</ele>
        <time>2024-05-21T05:11:09.000Z</time>
      </trkpt>
      <trkpt lat="45.73449" lon="4.87527">
        <ele>178</ele>
        <time>2024-05-21T05:11:10.000Z</time>
      </trkpt>
      <trkpt lat="45.73446" lon="4.87529">
        <ele>178</ele>
        <time>2024-05-21T05:11:11.000Z</time>
      </trkpt>
      <trkpt lat="45.73443" lon="4.87533">
        <ele>178</ele>
        <time>2024-05-21T05:11:12.000Z</time>
      </trkpt>
      <trkpt lat="45.73441" lon="4.87538">
        <ele>177.80000305176</ele>
        <time>2024-05-21T05:11:13.000Z</time>
      </trkpt>
      <trkpt lat="45.73439" lon="4.87543">
        <ele>177.80000305176</ele>
        <time>2024-05-21T05:11:14.000Z</time>
      </trkpt>
      <trkpt lat="45.73437" lon="4.87548">
        <ele>177.80000305176</ele>
        <time>2024-05-21T05:11:15.000Z</time>
      </trkpt>
      <trkpt lat="45.73436" lon="4.87553">
        <ele>177.80000305176</ele>
        <time>2024-05-21T05:11:16.000Z</time>
      </trkpt>
      <trkpt lat="45.73434" lon="4.87559">
        <ele>177.80000305176</ele>
        <time>2024-05-21T05:11:17.000Z</time>
      </trkpt>
      <trkpt lat="45.73433" lon="4.87564">
        <ele>177.80000305176</ele>
        <time>2024-05-21T05:11:18.000Z</time>
      </trkpt>
      <trkpt lat="45.73431" lon="4.8757">
        <ele>177.80000305176</ele>
        <time>2024-05-21T05:11:19.000Z</time>
      </trkpt>
      <trkpt lat="45.7343" lon="4.87576">
        <ele>177.80000305176</ele>
        <time>2024-05-21T05:11:20.000Z</time>
      </trkpt>
      <trkpt lat="45.73428" lon="4.87582">
        <ele>178</ele>
        <time>2024-05-21T05:11:21.000Z</time>
      </trkpt>
      <trkpt lat="45.73426" lon="4.87588">
        <ele>178</ele>
        <time>2024-05-21T05:11:22.000Z</time>
      </trkpt>
      <trkpt lat="45.73425" lon="4.87593">
        <ele>178</ele>
        <time>2024-05-21T05:11:23.000Z</time>
      </trkpt>
      <trkpt lat="45.73424" lon="4.87599">
        <ele>178</ele>
        <time>2024-05-21T05:11:24.000Z</time>
      </trkpt>
      <trkpt lat="45.73422" lon="4.87605">
        <ele>178</ele>
        <time>2024-05-21T05:11:25.000Z</time>
      </trkpt>
      <trkpt lat="45.7342" lon="4.87611">
        <ele>178.19999694824</ele>
        <time>2024-05-21T05:11:26.000Z</time>
      </trkpt>
      <trkpt lat="45.73418" lon="4.87616">
        <ele>178.19999694824</ele>
        <time>2024-05-21T05:11:27.000Z</time>
      </trkpt>
      <trkpt lat="45.73417" lon="4.87622">
        <ele>178.19999694824</ele>
        <time>2024-05-21T05:11:28.000Z</time>
      </trkpt>
      <trkpt lat="45.73415" lon="4.87627">
        <ele>178.19999694824</ele>
        <time>2024-05-21T05:11:29.000Z</time>
      </trkpt>
      <trkpt lat="45.73413" lon="4.87632">
        <ele>178.19999694824</ele>
        <time>2024-05-21T05:11:30.000Z</time>
      </trkpt>
      <trkpt lat="45.73411" lon="4.87638">
        <ele>178.19999694824</ele>
        <time>2024-05-21T05:11:31.000Z</time>
      </trkpt>
      <trkpt lat="45.73409" lon="4.87643">
        <ele>178.19999694824</ele>
        <time>2024-05-21T05:11:32.000Z</time>
      </trkpt>
      <trkpt lat="45.73407" lon="4.87649">
        <ele>178.19999694824</ele>
        <time>2024-05-21T05:11:33.000Z</time>
      </trkpt>
      <trkpt lat="45.73406" lon="4.87654">
        <ele>178.19999694824</ele>
        <time>2024-05-21T05:11:34.000Z</time>
      </trkpt>
      <trkpt lat="45.73406" lon="4.8766">
        <ele>178.19999694824</ele>
        <time>2024-05-21T05:11:35.000Z</time>
      </trkpt>
      <trkpt lat="45.73404" lon="4.87666">
        <ele>178.19999694824</ele>
        <time>2024-05-21T05:11:36.000Z</time>
      </trkpt>
      <trkpt lat="45.73403" lon="4.87672">
        <ele>178.19999694824</ele>
        <time>2024-05-21T05:11:37.000Z</time>
      </trkpt>
      <trkpt lat="45.73401" lon="4.87678">
        <ele>178.19999694824</ele>
        <time>2024-05-21T05:11:38.000Z</time>
      </trkpt>
      <trkpt lat="45.73399" lon="4.87684">
        <ele>178</ele>
        <time>2024-05-21T05:11:39.000Z</time>
      </trkpt>
      <trkpt lat="45.73397" lon="4.8769">
        <ele>178</ele>
        <time>2024-05-21T05:11:40.000Z</time>
      </trkpt>
      <trkpt lat="45.73395" lon="4.87696">
        <ele>178.19999694824</ele>
        <time>2024-05-21T05:11:41.000Z</time>
      </trkpt>
      <trkpt lat="45.73393" lon="4.87701">
        <ele>178.19999694824</ele>
        <time>2024-05-21T05:11:42.000Z</time>
      </trkpt>
      <trkpt lat="45.73392" lon="4.87706">
        <ele>178.19999694824</ele>
        <time>2024-05-21T05:11:43.000Z</time>
      </trkpt>
      <trkpt lat="45.7339" lon="4.87711">
        <ele>178.19999694824</ele>
        <time>2024-05-21T05:11:44.000Z</time>
      </trkpt>
      <trkpt lat="45.73387" lon="4.87717">
        <ele>178.19999694824</ele>
        <time>2024-05-21T05:11:45.000Z</time>
      </trkpt>
      <trkpt lat="45.73385" lon="4.87722">
        <ele>178.39999389648</ele>
        <time>2024-05-21T05:11:46.000Z</time>
      </trkpt>
      <trkpt lat="45.73383" lon="4.87728">
        <ele>178.60000610352</ele>
        <time>2024-05-21T05:11:47.000Z</time>
      </trkpt>
      <trkpt lat="45.73381" lon="4.87733">
        <ele>178.60000610352</ele>
        <time>2024-05-21T05:11:48.000Z</time>
      </trkpt>
      <trkpt lat="45.7338" lon="4.87739">
        <ele>178.60000610352</ele>
        <time>2024-05-21T05:11:49.000Z</time>
      </trkpt>
      <trkpt lat="45.73378" lon="4.87744">
        <ele>178.60000610352</ele>
        <time>2024-05-21T05:11:50.000Z</time>
      </trkpt>
      <trkpt lat="45.73377" lon="4.8775">
        <ele>178.60000610352</ele>
        <time>2024-05-21T05:11:51.000Z</time>
      </trkpt>
      <trkpt lat="45.73375" lon="4.87757">
        <ele>178.60000610352</ele>
        <time>2024-05-21T05:11:52.000Z</time>
      </trkpt>
      <trkpt lat="45.73374" lon="4.87763">
        <ele>178.60000610352</ele>
        <time>2024-05-21T05:11:53.000Z</time>
      </trkpt>
      <trkpt lat="45.73372" lon="4.87769">
        <ele>178.39999389648</ele>
        <time>2024-05-21T05:11:54.000Z</time>
      </trkpt>
      <trkpt lat="45.7337" lon="4.87775">
        <ele>178.39999389648</ele>
        <time>2024-05-21T05:11:55.000Z</time>
      </trkpt>
      <trkpt lat="45.73368" lon="4.87781">
        <ele>178.39999389648</ele>
        <time>2024-05-21T05:11:56.000Z</time>
      </trkpt>
      <trkpt lat="45.73366" lon="4.87787">
        <ele>178.39999389648</ele>
        <time>2024-05-21T05:11:57.000Z</time>
      </trkpt>
      <trkpt lat="45.73365" lon="4.87793">
        <ele>178.39999389648</ele>
        <time>2024-05-21T05:11:58.000Z</time>
      </trkpt>
      <trkpt lat="45.73363" lon="4.878">
        <ele>178.39999389648</ele>
        <time>2024-05-21T05:11:59.000Z</time>
      </trkpt>
      <trkpt lat="45.73362" lon="4.87806">
        <ele>178.60000610352</ele>
        <time>2024-05-21T05:12:00.000Z</time>
      </trkpt>
      <trkpt lat="45.7336" lon="4.87812">
        <ele>178.60000610352</ele>
        <time>2024-05-21T05:12:01.000Z</time>
      </trkpt>
      <trkpt lat="45.73359" lon="4.87818">
        <ele>178.60000610352</ele>
        <time>2024-05-21T05:12:02.000Z</time>
      </trkpt>
      <trkpt lat="45.73357" lon="4.87824">
        <ele>178.80000305176</ele>
        <time>2024-05-21T05:12:03.000Z</time>
      </trkpt>
      <trkpt lat="45.73355" lon="4.8783">
        <ele>178.80000305176</ele>
        <time>2024-05-21T05:12:04.000Z</time>
      </trkpt>
      <trkpt lat="45.73353" lon="4.87836">
        <ele>179</ele>
        <time>2024-05-21T05:12:05.000Z</time>
      </trkpt>
      <trkpt lat="45.73351" lon="4.87842">
        <ele>179.19999694824</ele>
        <time>2024-05-21T05:12:06.000Z</time>
      </trkpt>
      <trkpt lat="45.73349" lon="4.87848">
        <ele>179.19999694824</ele>
        <time>2024-05-21T05:12:07.000Z</time>
      </trkpt>
      <trkpt lat="45.73347" lon="4.87854">
        <ele>179.19999694824</ele>
        <time>2024-05-21T05:12:08.000Z</time>
      </trkpt>
      <trkpt lat="45.73344" lon="4.87859">
        <ele>179.19999694824</ele>
        <time>2024-05-21T05:12:09.000Z</time>
      </trkpt>
      <trkpt lat="45.73341" lon="4.87864">
        <ele>179.19999694824</ele>
        <time>2024-05-21T05:12:10.000Z</time>
      </trkpt>
      <trkpt lat="45.73338" lon="4.87867">
        <ele>179.39999389648</ele>
        <time>2024-05-21T05:12:11.000Z</time>
      </trkpt>
      <trkpt lat="45.73334" lon="4.87868">
        <ele>179.39999389648</ele>
        <time>2024-05-21T05:12:12.000Z</time>
      </trkpt>
      <trkpt lat="45.7333" lon="4.87867">
        <ele>179.60000610352</ele>
        <time>2024-05-21T05:12:13.000Z</time>
      </trkpt>
      <trkpt lat="45.73327" lon="4.87864">
        <ele>179.80000305176</ele>
        <time>2024-05-21T05:12:14.000Z</time>
      </trkpt>
      <trkpt lat="45.73324" lon="4.8786">
        <ele>179.80000305176</ele>
        <time>2024-05-21T05:12:15.000Z</time>
      </trkpt>
      <trkpt lat="45.73322" lon="4.87855">
        <ele>179.80000305176</ele>
        <time>2024-05-21T05:12:16.000Z</time>
      </trkpt>
      <trkpt lat="45.7332" lon="4.87849">
        <ele>179.80000305176</ele>
        <time>2024-05-21T05:12:17.000Z</time>
      </trkpt>
      <trkpt lat="45.73318" lon="4.87843">
        <ele>179.80000305176</ele>
        <time>2024-05-21T05:12:18.000Z</time>
      </trkpt>
      <trkpt lat="45.73316" lon="4.87837">
        <ele>179.80000305176</ele>
        <time>2024-05-21T05:12:19.000Z</time>
      </trkpt>
      <trkpt lat="45.73314" lon="4.87831">
        <ele>179.80000305176</ele>
        <time>2024-05-21T05:12:20.000Z</time>
      </trkpt>
      <trkpt lat="45.73312" lon="4.87825">
        <ele>179.80000305176</ele>
        <time>2024-05-21T05:12:21.000Z</time>
      </trkpt>
      <trkpt lat="45.7331" lon="4.87819">
        <ele>179.80000305176</ele>
        <time>2024-05-21T05:12:22.000Z</time>
      </trkpt>
      <trkpt lat="45.73307" lon="4.87813">
        <ele>179.80000305176</ele>
        <time>2024-05-21T05:12:23.000Z</time>
      </trkpt>
      <trkpt lat="45.73305" lon="4.87808">
        <ele>179.80000305176</ele>
        <time>2024-05-21T05:12:24.000Z</time>
      </trkpt>
      <trkpt lat="45.73303" lon="4.87802">
        <ele>179.80000305176</ele>
        <time>2024-05-21T05:12:25.000Z</time>
      </trkpt>
      <trkpt lat="45.73301" lon="4.87796">
        <ele>179.80000305176</ele>
        <time>2024-05-21T05:12:26.000Z</time>
      </trkpt>
      <trkpt lat="45.73298" lon="4.8779">
        <ele>179.80000305176</ele>
        <time>2024-05-21T05:12:27.000Z</time>
      </trkpt>
      <trkpt lat="45.73296" lon="4.87785">
        <ele>179.80000305176</ele>
        <time>2024-05-21T05:12:28.000Z</time>
      </trkpt>
      <trkpt lat="45.73294" lon="4.8778">
        <ele>180</ele>
        <time>2024-05-21T05:12:29.000Z</time>
      </trkpt>
      <trkpt lat="45.73292" lon="4.87774">
        <ele>180</ele>
        <time>2024-05-21T05:12:30.000Z</time>
      </trkpt>
      <trkpt lat="45.7329" lon="4.87769">
        <ele>180</ele>
        <time>2024-05-21T05:12:31.000Z</time>
      </trkpt>
      <trkpt lat="45.73288" lon="4.87763">
        <ele>179.80000305176</ele>
        <time>2024-05-21T05:12:32.000Z</time>
      </trkpt>
      <trkpt lat="45.73286" lon="4.87758">
        <ele>179.80000305176</ele>
        <time>2024-05-21T05:12:33.000Z</time>
      </trkpt>
      <trkpt lat="45.73283" lon="4.87752">
        <ele>179.80000305176</ele>
        <time>2024-05-21T05:12:34.000Z</time>
      </trkpt>
      <trkpt lat="45.73281" lon="4.87746">
        <ele>179.80000305176</ele>
        <time>2024-05-21T05:12:35.000Z</time>
      </trkpt>
      <trkpt lat="45.73279" lon="4.8774">
        <ele>179.60000610352</ele>
        <time>2024-05-21T05:12:36.000Z</time>
      </trkpt>
      <trkpt lat="45.73277" lon="4.87734">
        <ele>179.60000610352</ele>
        <time>2024-05-21T05:12:37.000Z</time>
      </trkpt>
      <trkpt lat="45.73274" lon="4.87728">
        <ele>179.60000610352</ele>
        <time>2024-05-21T05:12:38.000Z</time>
      </trkpt>
      <trkpt lat="45.73272" lon="4.87723">
        <ele>179.60000610352</ele>
        <time>2024-05-21T05:12:39.000Z</time>
      </trkpt>
      <trkpt lat="45.7327" lon="4.87718">
        <ele>179.60000610352</ele>
        <time>2024-05-21T05:12:40.000Z</time>
      </trkpt>
      <trkpt lat="45.73267" lon="4.87713">
        <ele>179.60000610352</ele>
        <time>2024-05-21T05:12:41.000Z</time>
      </trkpt>
      <trkpt lat="45.73266" lon="4.87706">
        <ele>179.39999389648</ele>
        <time>2024-05-21T05:12:42.000Z</time>
      </trkpt>
      <trkpt lat="45.73263" lon="4.877">
        <ele>179.39999389648</ele>
        <time>2024-05-21T05:12:43.000Z</time>
      </trkpt>
      <trkpt lat="45.73261" lon="4.87693">
        <ele>179.39999389648</ele>
        <time>2024-05-21T05:12:44.000Z</time>
      </trkpt>
      <trkpt lat="45.7326" lon="4.87687">
        <ele>179.39999389648</ele>
        <time>2024-05-21T05:12:45.000Z</time>
      </trkpt>
      <trkpt lat="45.73258" lon="4.87681">
        <ele>179.60000610352</ele>
        <time>2024-05-21T05:12:46.000Z</time>
      </trkpt>
      <trkpt lat="45.73256" lon="4.87675">
        <ele>179.60000610352</ele>
        <time>2024-05-21T05:12:47.000Z</time>
      </trkpt>
      <trkpt lat="45.73255" lon="4.87668">
        <ele>179.60000610352</ele>
        <time>2024-05-21T05:12:48.000Z</time>
      </trkpt>
      <trkpt lat="45.73253" lon="4.87661">
        <ele>179.60000610352</ele>
        <time>2024-05-21T05:12:49.000Z</time>
      </trkpt>
      <trkpt lat="45.73251" lon="4.87655">
        <ele>179.80000305176</ele>
        <time>2024-05-21T05:12:50.000Z</time>
      </trkpt>
      <trkpt lat="45.73249" lon="4.87648">
        <ele>179.80000305176</ele>
        <time>2024-05-21T05:12:51.000Z</time>
      </trkpt>
      <trkpt lat="45.73247" lon="4.87642">
        <ele>179.80000305176</ele>
        <time>2024-05-21T05:12:52.000Z</time>
      </trkpt>
      <trkpt lat="45.73245" lon="4.87635">
        <ele>179.60000610352</ele>
        <time>2024-05-21T05:12:53.000Z</time>
      </trkpt>
      <trkpt lat="45.73243" lon="4.87629">
        <ele>179.60000610352</ele>
        <time>2024-05-21T05:12:54.000Z</time>
      </trkpt>
      <trkpt lat="45.73242" lon="4.87623">
        <ele>179.60000610352</ele>
        <time>2024-05-21T05:12:55.000Z</time>
      </trkpt>
      <trkpt lat="45.7324" lon="4.87617">
        <ele>179.60000610352</ele>
        <time>2024-05-21T05:12:56.000Z</time>
      </trkpt>
      <trkpt lat="45.73237" lon="4.87612">
        <ele>179.60000610352</ele>
        <time>2024-05-21T05:12:57.000Z</time>
      </trkpt>
      <trkpt lat="45.73235" lon="4.87606">
        <ele>179.60000610352</ele>
        <time>2024-05-21T05:12:58.000Z</time>
      </trkpt>
      <trkpt lat="45.73232" lon="4.87602">
        <ele>179.39999389648</ele>
        <time>2024-05-21T05:12:59.000Z</time>
      </trkpt>
      <trkpt lat="45.73231" lon="4.87596">
        <ele>179.60000610352</ele>
        <time>2024-05-21T05:13:00.000Z</time>
      </trkpt>
      <trkpt lat="45.7323" lon="4.8759">
        <ele>179.39999389648</ele>
        <time>2024-05-21T05:13:01.000Z</time>
      </trkpt>
      <trkpt lat="45.73228" lon="4.87584">
        <ele>179.19999694824</ele>
        <time>2024-05-21T05:13:02.000Z</time>
      </trkpt>
      <trkpt lat="45.73226" lon="4.87577">
        <ele>179.19999694824</ele>
        <time>2024-05-21T05:13:03.000Z</time>
      </trkpt>
      <trkpt lat="45.73224" lon="4.87571">
        <ele>179.19999694824</ele>
        <time>2024-05-21T05:13:04.000Z</time>
      </trkpt>
      <trkpt lat="45.73222" lon="4.87564">
        <ele>179.19999694824</ele>
        <time>2024-05-21T05:13:05.000Z</time>
      </trkpt>
      <trkpt lat="45.73219" lon="4.87557">
        <ele>179</ele>
        <time>2024-05-21T05:13:06.000Z</time>
      </trkpt>
      <trkpt lat="45.73217" lon="4.8755">
        <ele>179</ele>
        <time>2024-05-21T05:13:07.000Z</time>
      </trkpt>
      <trkpt lat="45.73214" lon="4.87544">
        <ele>179</ele>
        <time>2024-05-21T05:13:08.000Z</time>
      </trkpt>
      <trkpt lat="45.73212" lon="4.87537">
        <ele>179</ele>
        <time>2024-05-21T05:13:09.000Z</time>
      </trkpt>
      <trkpt lat="45.73209" lon="4.87531">
        <ele>179</ele>
        <time>2024-05-21T05:13:10.000Z</time>
      </trkpt>
      <trkpt lat="45.73206" lon="4.87524">
        <ele>178.80000305176</ele>
        <time>2024-05-21T05:13:11.000Z</time>
      </trkpt>
      <trkpt lat="45.73203" lon="4.87517">
        <ele>178.80000305176</ele>
        <time>2024-05-21T05:13:12.000Z</time>
      </trkpt>
      <trkpt lat="45.73201" lon="4.87511">
        <ele>178.80000305176</ele>
        <time>2024-05-21T05:13:13.000Z</time>
      </trkpt>
      <trkpt lat="45.73198" lon="4.87504">
        <ele>178.60000610352</ele>
        <time>2024-05-21T05:13:14.000Z</time>
      </trkpt>
      <trkpt lat="45.73196" lon="4.87498">
        <ele>178.60000610352</ele>
        <time>2024-05-21T05:13:15.000Z</time>
      </trkpt>
      <trkpt lat="45.73194" lon="4.87491">
        <ele>178.60000610352</ele>
        <time>2024-05-21T05:13:16.000Z</time>
      </trkpt>
      <trkpt lat="45.73192" lon="4.87485">
        <ele>178.39999389648</ele>
        <time>2024-05-21T05:13:17.000Z</time>
      </trkpt>
      <trkpt lat="45.7319" lon="4.87478">
        <ele>178.39999389648</ele>
        <time>2024-05-21T05:13:18.000Z</time>
      </trkpt>
      <trkpt lat="45.73188" lon="4.87472">
        <ele>178.39999389648</ele>
        <time>2024-05-21T05:13:19.000Z</time>
      </trkpt>
      <trkpt lat="45.73185" lon="4.87466">
        <ele>178.39999389648</ele>
        <time>2024-05-21T05:13:20.000Z</time>
      </trkpt>
      <trkpt lat="45.73183" lon="4.8746">
        <ele>178.19999694824</ele>
        <time>2024-05-21T05:13:21.000Z</time>
      </trkpt>
      <trkpt lat="45.73181" lon="4.87454">
        <ele>178.19999694824</ele>
        <time>2024-05-21T05:13:22.000Z</time>
      </trkpt>
      <trkpt lat="45.73179" lon="4.87448">
        <ele>178.19999694824</ele>
        <time>2024-05-21T05:13:23.000Z</time>
      </trkpt>
      <trkpt lat="45.73177" lon="4.87442">
        <ele>178.19999694824</ele>
        <time>2024-05-21T05:13:24.000Z</time>
      </trkpt>
      <trkpt lat="45.73176" lon="4.87436">
        <ele>178.19999694824</ele>
        <time>2024-05-21T05:13:25.000Z</time>
      </trkpt>
      <trkpt lat="45.73174" lon="4.8743">
        <ele>178.19999694824</ele>
        <time>2024-05-21T05:13:26.000Z</time>
      </trkpt>
      <trkpt lat="45.73173" lon="4.87425">
        <ele>178.19999694824</ele>
        <time>2024-05-21T05:13:27.000Z</time>
      </trkpt>
      <trkpt lat="45.73172" lon="4.87421">
        <ele>178.19999694824</ele>
        <time>2024-05-21T05:13:28.000Z</time>
      </trkpt>
      <trkpt lat="45.73171" lon="4.87417">
        <ele>178.19999694824</ele>
        <time>2024-05-21T05:13:29.000Z</time>
      </trkpt>
      <trkpt lat="45.7317" lon="4.87413">
        <ele>178.19999694824</ele>
        <time>2024-05-21T05:13:30.000Z</time>
      </trkpt>
      <trkpt lat="45.73169" lon="4.8741">
        <ele>178.39999389648</ele>
        <time>2024-05-21T05:13:31.000Z</time>
      </trkpt>
      <trkpt lat="45.73169" lon="4.87409">
        <ele>178.39999389648</ele>
        <time>2024-05-21T05:13:32.000Z</time>
      </trkpt>
      <trkpt lat="45.73169" lon="4.87409">
        <ele>178.39999389648</ele>
        <time>2024-05-21T05:13:33.000Z</time>
      </trkpt>
      <trkpt lat="45.73168" lon="4.87404">
        <ele>178.60000610352</ele>
        <time>2024-05-21T05:13:46.000Z</time>
      </trkpt>
      <trkpt lat="45.73167" lon="4.87401">
        <ele>178.60000610352</ele>
        <time>2024-05-21T05:13:47.000Z</time>
      </trkpt>
      <trkpt lat="45.73166" lon="4.87398">
        <ele>178.60000610352</ele>
        <time>2024-05-21T05:13:48.000Z</time>
      </trkpt>
      <trkpt lat="45.73165" lon="4.87394">
        <ele>178.60000610352</ele>
        <time>2024-05-21T05:13:49.000Z</time>
      </trkpt>
      <trkpt lat="45.73164" lon="4.8739">
        <ele>178.60000610352</ele>
        <time>2024-05-21T05:13:50.000Z</time>
      </trkpt>
      <trkpt lat="45.73162" lon="4.87386">
        <ele>178.39999389648</ele>
        <time>2024-05-21T05:13:51.000Z</time>
      </trkpt>
      <trkpt lat="45.7316" lon="4.87381">
        <ele>178.39999389648</ele>
        <time>2024-05-21T05:13:52.000Z</time>
      </trkpt>
      <trkpt lat="45.73159" lon="4.87375">
        <ele>178.39999389648</ele>
        <time>2024-05-21T05:13:53.000Z</time>
      </trkpt>
      <trkpt lat="45.73157" lon="4.8737">
        <ele>178.39999389648</ele>
        <time>2024-05-21T05:13:54.000Z</time>
      </trkpt>
      <trkpt lat="45.73155" lon="4.87365">
        <ele>178.39999389648</ele>
        <time>2024-05-21T05:13:55.000Z</time>
      </trkpt>
      <trkpt lat="45.73153" lon="4.87359">
        <ele>178.19999694824</ele>
        <time>2024-05-21T05:13:56.000Z</time>
      </trkpt>
      <trkpt lat="45.73151" lon="4.87353">
        <ele>178.19999694824</ele>
        <time>2024-05-21T05:13:57.000Z</time>
      </trkpt>
      <trkpt lat="45.73149" lon="4.87347">
        <ele>178.19999694824</ele>
        <time>2024-05-21T05:13:58.000Z</time>
      </trkpt>
      <trkpt lat="45.73147" lon="4.87341">
        <ele>178.19999694824</ele>
        <time>2024-05-21T05:13:59.000Z</time>
      </trkpt>
      <trkpt lat="45.73145" lon="4.87336">
        <ele>178.19999694824</ele>
        <time>2024-05-21T05:14:00.000Z</time>
      </trkpt>
      <trkpt lat="45.73143" lon="4.8733">
        <ele>178.19999694824</ele>
        <time>2024-05-21T05:14:01.000Z</time>
      </trkpt>
      <trkpt lat="45.73141" lon="4.87324">
        <ele>178.19999694824</ele>
        <time>2024-05-21T05:14:02.000Z</time>
      </trkpt>
      <trkpt lat="45.73139" lon="4.87317">
        <ele>178.19999694824</ele>
        <time>2024-05-21T05:14:03.000Z</time>
      </trkpt>
      <trkpt lat="45.73136" lon="4.87311">
        <ele>178.19999694824</ele>
        <time>2024-05-21T05:14:04.000Z</time>
      </trkpt>
      <trkpt lat="45.73134" lon="4.87305">
        <ele>178.19999694824</ele>
        <time>2024-05-21T05:14:05.000Z</time>
      </trkpt>
      <trkpt lat="45.73131" lon="4.87299">
        <ele>178.19999694824</ele>
        <time>2024-05-21T05:14:06.000Z</time>
      </trkpt>
      <trkpt lat="45.73128" lon="4.87293">
        <ele>178.39999389648</ele>
        <time>2024-05-21T05:14:07.000Z</time>
      </trkpt>
      <trkpt lat="45.73125" lon="4.87286">
        <ele>178.39999389648</ele>
        <time>2024-05-21T05:14:08.000Z</time>
      </trkpt>
      <trkpt lat="45.73122" lon="4.8728">
        <ele>178.39999389648</ele>
        <time>2024-05-21T05:14:09.000Z</time>
      </trkpt>
      <trkpt lat="45.7312" lon="4.87273">
        <ele>178.39999389648</ele>
        <time>2024-05-21T05:14:10.000Z</time>
      </trkpt>
      <trkpt lat="45.73117" lon="4.87266">
        <ele>178.39999389648</ele>
        <time>2024-05-21T05:14:11.000Z</time>
      </trkpt>
      <trkpt lat="45.73115" lon="4.8726">
        <ele>178.39999389648</ele>
        <time>2024-05-21T05:14:12.000Z</time>
      </trkpt>
      <trkpt lat="45.73112" lon="4.87253">
        <ele>178.39999389648</ele>
        <time>2024-05-21T05:14:13.000Z</time>
      </trkpt>
      <trkpt lat="45.7311" lon="4.87246">
        <ele>178.39999389648</ele>
        <time>2024-05-21T05:14:14.000Z</time>
      </trkpt>
      <trkpt lat="45.73108" lon="4.8724">
        <ele>178.39999389648</ele>
        <time>2024-05-21T05:14:15.000Z</time>
      </trkpt>
      <trkpt lat="45.73106" lon="4.87233">
        <ele>178.39999389648</ele>
        <time>2024-05-21T05:14:16.000Z</time>
      </trkpt>
      <trkpt lat="45.73103" lon="4.87227">
        <ele>178.39999389648</ele>
        <time>2024-05-21T05:14:17.000Z</time>
      </trkpt>
      <trkpt lat="45.73101" lon="4.87221">
        <ele>178.60000610352</ele>
        <time>2024-05-21T05:14:18.000Z</time>
      </trkpt>
      <trkpt lat="45.73099" lon="4.87215">
        <ele>178.60000610352</ele>
        <time>2024-05-21T05:14:19.000Z</time>
      </trkpt>
      <trkpt lat="45.73097" lon="4.87209">
        <ele>178.60000610352</ele>
        <time>2024-05-21T05:14:20.000Z</time>
      </trkpt>
      <trkpt lat="45.73094" lon="4.87203">
        <ele>178.60000610352</ele>
        <time>2024-05-21T05:14:21.000Z</time>
      </trkpt>
      <trkpt lat="45.73092" lon="4.87197">
        <ele>178.60000610352</ele>
        <time>2024-05-21T05:14:22.000Z</time>
      </trkpt>
      <trkpt lat="45.7309" lon="4.8719">
        <ele>178.60000610352</ele>
        <time>2024-05-21T05:14:23.000Z</time>
      </trkpt>
      <trkpt lat="45.73088" lon="4.87184">
        <ele>178.60000610352</ele>
        <time>2024-05-21T05:14:24.000Z</time>
      </trkpt>
      <trkpt lat="45.73086" lon="4.87177">
        <ele>178.60000610352</ele>
        <time>2024-05-21T05:14:25.000Z</time>
      </trkpt>
      <trkpt lat="45.73084" lon="4.87171">
        <ele>178.60000610352</ele>
        <time>2024-05-21T05:14:26.000Z</time>
      </trkpt>
      <trkpt lat="45.73082" lon="4.87164">
        <ele>178.60000610352</ele>
        <time>2024-05-21T05:14:27.000Z</time>
      </trkpt>
      <trkpt lat="45.73079" lon="4.87157">
        <ele>178.60000610352</ele>
        <time>2024-05-21T05:14:28.000Z</time>
      </trkpt>
      <trkpt lat="45.73077" lon="4.8715">
        <ele>178.39999389648</ele>
        <time>2024-05-21T05:14:29.000Z</time>
      </trkpt>
      <trkpt lat="45.73075" lon="4.87143">
        <ele>178.39999389648</ele>
        <time>2024-05-21T05:14:30.000Z</time>
      </trkpt>
      <trkpt lat="45.73072" lon="4.87137">
        <ele>178.19999694824</ele>
        <time>2024-05-21T05:14:31.000Z</time>
      </trkpt>
      <trkpt lat="45.7307" lon="4.8713">
        <ele>178.19999694824</ele>
        <time>2024-05-21T05:14:32.000Z</time>
      </trkpt>
      <trkpt lat="45.73068" lon="4.87123">
        <ele>178</ele>
        <time>2024-05-21T05:14:33.000Z</time>
      </trkpt>
      <trkpt lat="45.73066" lon="4.87116">
        <ele>178</ele>
        <time>2024-05-21T05:14:34.000Z</time>
      </trkpt>
      <trkpt lat="45.73063" lon="4.87109">
        <ele>178</ele>
        <time>2024-05-21T05:14:35.000Z</time>
      </trkpt>
      <trkpt lat="45.7306" lon="4.87102">
        <ele>178</ele>
        <time>2024-05-21T05:14:36.000Z</time>
      </trkpt>
      <trkpt lat="45.73057" lon="4.87095">
        <ele>178</ele>
        <time>2024-05-21T05:14:37.000Z</time>
      </trkpt>
      <trkpt lat="45.73055" lon="4.87088">
        <ele>178</ele>
        <time>2024-05-21T05:14:38.000Z</time>
      </trkpt>
      <trkpt lat="45.73053" lon="4.8708">
        <ele>178</ele>
        <time>2024-05-21T05:14:39.000Z</time>
      </trkpt>
      <trkpt lat="45.73051" lon="4.87073">
        <ele>177.80000305176</ele>
        <time>2024-05-21T05:14:40.000Z</time>
      </trkpt>
      <trkpt lat="45.73048" lon="4.87065">
        <ele>177.60000610352</ele>
        <time>2024-05-21T05:14:41.000Z</time>
      </trkpt>
      <trkpt lat="45.73046" lon="4.87058">
        <ele>177.60000610352</ele>
        <time>2024-05-21T05:14:42.000Z</time>
      </trkpt>
      <trkpt lat="45.73044" lon="4.87051">
        <ele>177.60000610352</ele>
        <time>2024-05-21T05:14:43.000Z</time>
      </trkpt>
      <trkpt lat="45.73041" lon="4.87043">
        <ele>177.60000610352</ele>
        <time>2024-05-21T05:14:44.000Z</time>
      </trkpt>
      <trkpt lat="45.73039" lon="4.87036">
        <ele>177.60000610352</ele>
        <time>2024-05-21T05:14:45.000Z</time>
      </trkpt>
      <trkpt lat="45.73037" lon="4.87029">
        <ele>177.60000610352</ele>
        <time>2024-05-21T05:14:46.000Z</time>
      </trkpt>
      <trkpt lat="45.73034" lon="4.87022">
        <ele>177.60000610352</ele>
        <time>2024-05-21T05:14:47.000Z</time>
      </trkpt>
      <trkpt lat="45.73032" lon="4.87015">
        <ele>177.60000610352</ele>
        <time>2024-05-21T05:14:48.000Z</time>
      </trkpt>
      <trkpt lat="45.73029" lon="4.87008">
        <ele>177.60000610352</ele>
        <time>2024-05-21T05:14:49.000Z</time>
      </trkpt>
      <trkpt lat="45.73027" lon="4.87">
        <ele>177.60000610352</ele>
        <time>2024-05-21T05:14:50.000Z</time>
      </trkpt>
      <trkpt lat="45.73024" lon="4.86993">
        <ele>177.60000610352</ele>
        <time>2024-05-21T05:14:51.000Z</time>
      </trkpt>
      <trkpt lat="45.73021" lon="4.86986">
        <ele>177.60000610352</ele>
        <time>2024-05-21T05:14:52.000Z</time>
      </trkpt>
      <trkpt lat="45.73019" lon="4.86978">
        <ele>177.60000610352</ele>
        <time>2024-05-21T05:14:53.000Z</time>
      </trkpt>
      <trkpt lat="45.73016" lon="4.86971">
        <ele>177.60000610352</ele>
        <time>2024-05-21T05:14:54.000Z</time>
      </trkpt>
      <trkpt lat="45.73014" lon="4.86963">
        <ele>177.60000610352</ele>
        <time>2024-05-21T05:14:55.000Z</time>
      </trkpt>
      <trkpt lat="45.73012" lon="4.86956">
        <ele>177.39999389648</ele>
        <time>2024-05-21T05:14:56.000Z</time>
      </trkpt>
      <trkpt lat="45.7301" lon="4.86948">
        <ele>177.39999389648</ele>
        <time>2024-05-21T05:14:57.000Z</time>
      </trkpt>
      <trkpt lat="45.73008" lon="4.8694">
        <ele>177.39999389648</ele>
        <time>2024-05-21T05:14:58.000Z</time>
      </trkpt>
      <trkpt lat="45.73006" lon="4.86933">
        <ele>177.19999694824</ele>
        <time>2024-05-21T05:14:59.000Z</time>
      </trkpt>
      <trkpt lat="45.73003" lon="4.86926">
        <ele>177.19999694824</ele>
        <time>2024-05-21T05:15:00.000Z</time>
      </trkpt>
      <trkpt lat="45.73" lon="4.8692">
        <ele>177.19999694824</ele>
        <time>2024-05-21T05:15:01.000Z</time>
      </trkpt>
      <trkpt lat="45.72997" lon="4.86913">
        <ele>177.19999694824</ele>
        <time>2024-05-21T05:15:02.000Z</time>
      </trkpt>
      <trkpt lat="45.72995" lon="4.86906">
        <ele>177.19999694824</ele>
        <time>2024-05-21T05:15:03.000Z</time>
      </trkpt>
      <trkpt lat="45.72993" lon="4.869">
        <ele>177.19999694824</ele>
        <time>2024-05-21T05:15:04.000Z</time>
      </trkpt>
      <trkpt lat="45.7299" lon="4.86893">
        <ele>177.19999694824</ele>
        <time>2024-05-21T05:15:05.000Z</time>
      </trkpt>
      <trkpt lat="45.72988" lon="4.86885">
        <ele>177.19999694824</ele>
        <time>2024-05-21T05:15:06.000Z</time>
      </trkpt>
      <trkpt lat="45.72987" lon="4.86878">
        <ele>177.19999694824</ele>
        <time>2024-05-21T05:15:07.000Z</time>
      </trkpt>
      <trkpt lat="45.72984" lon="4.86871">
        <ele>177.19999694824</ele>
        <time>2024-05-21T05:15:08.000Z</time>
      </trkpt>
      <trkpt lat="45.72982" lon="4.86865">
        <ele>177.39999389648</ele>
        <time>2024-05-21T05:15:09.000Z</time>
      </trkpt>
      <trkpt lat="45.7298" lon="4.86858">
        <ele>177.39999389648</ele>
        <time>2024-05-21T05:15:10.000Z</time>
      </trkpt>
      <trkpt lat="45.72977" lon="4.86852">
        <ele>177.39999389648</ele>
        <time>2024-05-21T05:15:11.000Z</time>
      </trkpt>
      <trkpt lat="45.72974" lon="4.86846">
        <ele>177.60000610352</ele>
        <time>2024-05-21T05:15:12.000Z</time>
      </trkpt>
      <trkpt lat="45.72972" lon="4.8684">
        <ele>177.60000610352</ele>
        <time>2024-05-21T05:15:13.000Z</time>
      </trkpt>
      <trkpt lat="45.72969" lon="4.86833">
        <ele>177.60000610352</ele>
        <time>2024-05-21T05:15:14.000Z</time>
      </trkpt>
      <trkpt lat="45.72967" lon="4.86826">
        <ele>177.60000610352</ele>
        <time>2024-05-21T05:15:15.000Z</time>
      </trkpt>
      <trkpt lat="45.72964" lon="4.86819">
        <ele>177.60000610352</ele>
        <time>2024-05-21T05:15:16.000Z</time>
      </trkpt>
      <trkpt lat="45.72962" lon="4.86813">
        <ele>177.60000610352</ele>
        <time>2024-05-21T05:15:17.000Z</time>
      </trkpt>
      <trkpt lat="45.7296" lon="4.86806">
        <ele>177.60000610352</ele>
        <time>2024-05-21T05:15:18.000Z</time>
      </trkpt>
      <trkpt lat="45.72958" lon="4.868">
        <ele>177.60000610352</ele>
        <time>2024-05-21T05:15:19.000Z</time>
      </trkpt>
      <trkpt lat="45.72957" lon="4.86794">
        <ele>177.60000610352</ele>
        <time>2024-05-21T05:15:20.000Z</time>
      </trkpt>
      <trkpt lat="45.72955" lon="4.86789">
        <ele>177.60000610352</ele>
        <time>2024-05-21T05:15:21.000Z</time>
      </trkpt>
      <trkpt lat="45.72954" lon="4.86784">
        <ele>177.60000610352</ele>
        <time>2024-05-21T05:15:22.000Z</time>
      </trkpt>
      <trkpt lat="45.72953" lon="4.86781">
        <ele>177.60000610352</ele>
        <time>2024-05-21T05:15:23.000Z</time>
      </trkpt>
      <trkpt lat="45.72953" lon="4.86779">
        <ele>177.60000610352</ele>
        <time>2024-05-21T05:15:24.000Z</time>
      </trkpt>
      <trkpt lat="45.72953" lon="4.86779">
        <ele>177.80000305176</ele>
        <time>2024-05-21T05:15:25.000Z</time>
      </trkpt>
      <trkpt lat="45.72953" lon="4.86779">
        <ele>177.80000305176</ele>
        <time>2024-05-21T05:15:26.000Z</time>
      </trkpt>
      <trkpt lat="45.72952" lon="4.86775">
        <ele>177.80000305176</ele>
        <time>2024-05-21T05:17:07.000Z</time>
      </trkpt>
      <trkpt lat="45.72951" lon="4.86773">
        <ele>177.80000305176</ele>
        <time>2024-05-21T05:17:08.000Z</time>
      </trkpt>
      <trkpt lat="45.72949" lon="4.86771">
        <ele>177.80000305176</ele>
        <time>2024-05-21T05:17:09.000Z</time>
      </trkpt>
      <trkpt lat="45.72948" lon="4.86768">
        <ele>177.80000305176</ele>
        <time>2024-05-21T05:17:10.000Z</time>
      </trkpt>
      <trkpt lat="45.72947" lon="4.86765">
        <ele>177.80000305176</ele>
        <time>2024-05-21T05:17:11.000Z</time>
      </trkpt>
      <trkpt lat="45.72945" lon="4.86761">
        <ele>177.80000305176</ele>
        <time>2024-05-21T05:17:12.000Z</time>
      </trkpt>
      <trkpt lat="45.72943" lon="4.86758">
        <ele>177.80000305176</ele>
        <time>2024-05-21T05:17:13.000Z</time>
      </trkpt>
      <trkpt lat="45.72942" lon="4.86754">
        <ele>177.80000305176</ele>
        <time>2024-05-21T05:17:14.000Z</time>
      </trkpt>
      <trkpt lat="45.7294" lon="4.86751">
        <ele>177.80000305176</ele>
        <time>2024-05-21T05:17:15.000Z</time>
      </trkpt>
      <trkpt lat="45.72937" lon="4.86749">
        <ele>177.60000610352</ele>
        <time>2024-05-21T05:17:16.000Z</time>
      </trkpt>
      <trkpt lat="45.72935" lon="4.86748">
        <ele>177.60000610352</ele>
        <time>2024-05-21T05:17:17.000Z</time>
      </trkpt>
      <trkpt lat="45.72933" lon="4.86747">
        <ele>177.60000610352</ele>
        <time>2024-05-21T05:17:18.000Z</time>
      </trkpt>
      <trkpt lat="45.72931" lon="4.86747">
        <ele>177.60000610352</ele>
        <time>2024-05-21T05:17:19.000Z</time>
      </trkpt>
      <trkpt lat="45.72929" lon="4.86747">
        <ele>177.60000610352</ele>
        <time>2024-05-21T05:17:20.000Z</time>
      </trkpt>
      <trkpt lat="45.72926" lon="4.86749">
        <ele>177.60000610352</ele>
        <time>2024-05-21T05:17:21.000Z</time>
      </trkpt>
      <trkpt lat="45.72924" lon="4.86752">
        <ele>177.60000610352</ele>
        <time>2024-05-21T05:17:22.000Z</time>
      </trkpt>
      <trkpt lat="45.72922" lon="4.86755">
        <ele>177.60000610352</ele>
        <time>2024-05-21T05:17:23.000Z</time>
      </trkpt>
      <trkpt lat="45.7292" lon="4.8676">
        <ele>177.39999389648</ele>
        <time>2024-05-21T05:17:24.000Z</time>
      </trkpt>
      <trkpt lat="45.72918" lon="4.86764">
        <ele>177.39999389648</ele>
        <time>2024-05-21T05:17:25.000Z</time>
      </trkpt>
      <trkpt lat="45.72915" lon="4.86768">
        <ele>177.19999694824</ele>
        <time>2024-05-21T05:17:26.000Z</time>
      </trkpt>
      <trkpt lat="45.72912" lon="4.86771">
        <ele>177.19999694824</ele>
        <time>2024-05-21T05:17:27.000Z</time>
      </trkpt>
      <trkpt lat="45.72908" lon="4.86774">
        <ele>177.19999694824</ele>
        <time>2024-05-21T05:17:28.000Z</time>
      </trkpt>
      <trkpt lat="45.72904" lon="4.86777">
        <ele>177.19999694824</ele>
        <time>2024-05-21T05:17:29.000Z</time>
      </trkpt>
      <trkpt lat="45.72899" lon="4.86781">
        <ele>177.19999694824</ele>
        <time>2024-05-21T05:17:30.000Z</time>
      </trkpt>
      <trkpt lat="45.72895" lon="4.86784">
        <ele>177.19999694824</ele>
        <time>2024-05-21T05:17:31.000Z</time>
      </trkpt>
      <trkpt lat="45.72891" lon="4.86787">
        <ele>177.19999694824</ele>
        <time>2024-05-21T05:17:32.000Z</time>
      </trkpt>
      <trkpt lat="45.72887" lon="4.8679">
        <ele>177.39999389648</ele>
        <time>2024-05-21T05:17:33.000Z</time>
      </trkpt>
      <trkpt lat="45.72882" lon="4.86794">
        <ele>177.39999389648</ele>
        <time>2024-05-21T05:17:34.000Z</time>
      </trkpt>
      <trkpt lat="45.72878" lon="4.86797">
        <ele>177.39999389648</ele>
        <time>2024-05-21T05:17:35.000Z</time>
      </trkpt>
      <trkpt lat="45.72874" lon="4.868">
        <ele>177.39999389648</ele>
        <time>2024-05-21T05:17:36.000Z</time>
      </trkpt>
      <trkpt lat="45.7287" lon="4.86803">
        <ele>177.39999389648</ele>
        <time>2024-05-21T05:17:37.000Z</time>
      </trkpt>
      <trkpt lat="45.72866" lon="4.86806">
        <ele>177.39999389648</ele>
        <time>2024-05-21T05:17:38.000Z</time>
      </trkpt>
      <trkpt lat="45.72861" lon="4.86809">
        <ele>177.39999389648</ele>
        <time>2024-05-21T05:17:39.000Z</time>
      </trkpt>
      <trkpt lat="45.72857" lon="4.86813">
        <ele>177.39999389648</ele>
        <time>2024-05-21T05:17:40.000Z</time>
      </trkpt>
      <trkpt lat="45.72853" lon="4.86816">
        <ele>177.39999389648</ele>
        <time>2024-05-21T05:17:41.000Z</time>
      </trkpt>
      <trkpt lat="45.72849" lon="4.86819">
        <ele>177.39999389648</ele>
        <time>2024-05-21T05:17:42.000Z</time>
      </trkpt>
      <trkpt lat="45.72845" lon="4.86822">
        <ele>177.39999389648</ele>
        <time>2024-05-21T05:17:43.000Z</time>
      </trkpt>
      <trkpt lat="45.7284" lon="4.86826">
        <ele>177.60000610352</ele>
        <time>2024-05-21T05:17:44.000Z</time>
      </trkpt>
      <trkpt lat="45.72836" lon="4.86829">
        <ele>177.60000610352</ele>
        <time>2024-05-21T05:17:45.000Z</time>
      </trkpt>
      <trkpt lat="45.72832" lon="4.86832">
        <ele>177.80000305176</ele>
        <time>2024-05-21T05:17:46.000Z</time>
      </trkpt>
      <trkpt lat="45.72828" lon="4.86835">
        <ele>177.80000305176</ele>
        <time>2024-05-21T05:17:47.000Z</time>
      </trkpt>
      <trkpt lat="45.72824" lon="4.86838">
        <ele>177.80000305176</ele>
        <time>2024-05-21T05:17:48.000Z</time>
      </trkpt>
      <trkpt lat="45.7282" lon="4.86842">
        <ele>178</ele>
        <time>2024-05-21T05:17:49.000Z</time>
      </trkpt>
      <trkpt lat="45.72816" lon="4.86845">
        <ele>178.19999694824</ele>
        <time>2024-05-21T05:17:50.000Z</time>
      </trkpt>
      <trkpt lat="45.72811" lon="4.86848">
        <ele>178.19999694824</ele>
        <time>2024-05-21T05:17:51.000Z</time>
      </trkpt>
      <trkpt lat="45.72807" lon="4.86852">
        <ele>178.19999694824</ele>
        <time>2024-05-21T05:17:52.000Z</time>
      </trkpt>
      <trkpt lat="45.72803" lon="4.86855">
        <ele>178.19999694824</ele>
        <time>2024-05-21T05:17:53.000Z</time>
      </trkpt>
      <trkpt lat="45.72798" lon="4.86859">
        <ele>178.19999694824</ele>
        <time>2024-05-21T05:17:54.000Z</time>
      </trkpt>
      <trkpt lat="45.72794" lon="4.86862">
        <ele>178.19999694824</ele>
        <time>2024-05-21T05:17:55.000Z</time>
      </trkpt>
      <trkpt lat="45.72789" lon="4.86866">
        <ele>178.19999694824</ele>
        <time>2024-05-21T05:17:56.000Z</time>
      </trkpt>
      <trkpt lat="45.72785" lon="4.86869">
        <ele>178.19999694824</ele>
        <time>2024-05-21T05:17:57.000Z</time>
      </trkpt>
      <trkpt lat="45.72781" lon="4.86873">
        <ele>178.19999694824</ele>
        <time>2024-05-21T05:17:58.000Z</time>
      </trkpt>
      <trkpt lat="45.72776" lon="4.86876">
        <ele>178.39999389648</ele>
        <time>2024-05-21T05:17:59.000Z</time>
      </trkpt>
      <trkpt lat="45.72772" lon="4.8688">
        <ele>178.39999389648</ele>
        <time>2024-05-21T05:18:00.000Z</time>
      </trkpt>
      <trkpt lat="45.72768" lon="4.86883">
        <ele>178.39999389648</ele>
        <time>2024-05-21T05:18:01.000Z</time>
      </trkpt>
      <trkpt lat="45.72763" lon="4.86887">
        <ele>178.39999389648</ele>
        <time>2024-05-21T05:18:02.000Z</time>
      </trkpt>
      <trkpt lat="45.72759" lon="4.8689">
        <ele>178.39999389648</ele>
        <time>2024-05-21T05:18:03.000Z</time>
      </trkpt>
      <trkpt lat="45.72754" lon="4.86893">
        <ele>178.39999389648</ele>
        <time>2024-05-21T05:18:04.000Z</time>
      </trkpt>
      <trkpt lat="45.7275" lon="4.86896">
        <ele>178.19999694824</ele>
        <time>2024-05-21T05:18:05.000Z</time>
      </trkpt>
      <trkpt lat="45.72746" lon="4.869">
        <ele>178.19999694824</ele>
        <time>2024-05-21T05:18:06.000Z</time>
      </trkpt>
      <trkpt lat="45.72742" lon="4.86903">
        <ele>178.19999694824</ele>
        <time>2024-05-21T05:18:07.000Z</time>
      </trkpt>
      <trkpt lat="45.72737" lon="4.86907">
        <ele>178.19999694824</ele>
        <time>2024-05-21T05:18:08.000Z</time>
      </trkpt>
      <trkpt lat="45.72733" lon="4.8691">
        <ele>178.19999694824</ele>
        <time>2024-05-21T05:18:09.000Z</time>
      </trkpt>
      <trkpt lat="45.72729" lon="4.86913">
        <ele>178.19999694824</ele>
        <time>2024-05-21T05:18:10.000Z</time>
      </trkpt>
      <trkpt lat="45.72724" lon="4.86917">
        <ele>178.39999389648</ele>
        <time>2024-05-21T05:18:11.000Z</time>
      </trkpt>
      <trkpt lat="45.7272" lon="4.8692">
        <ele>178.39999389648</ele>
        <time>2024-05-21T05:18:12.000Z</time>
      </trkpt>
      <trkpt lat="45.72716" lon="4.86923">
        <ele>178.39999389648</ele>
        <time>2024-05-21T05:18:13.000Z</time>
      </trkpt>
      <trkpt lat="45.72712" lon="4.86926">
        <ele>178.39999389648</ele>
        <time>2024-05-21T05:18:14.000Z</time>
      </trkpt>
      <trkpt lat="45.72708" lon="4.86929">
        <ele>178.60000610352</ele>
        <time>2024-05-21T05:18:15.000Z</time>
      </trkpt>
      <trkpt lat="45.72704" lon="4.86932">
        <ele>178.60000610352</ele>
        <time>2024-05-21T05:18:16.000Z</time>
      </trkpt>
      <trkpt lat="45.727" lon="4.86936">
        <ele>178.60000610352</ele>
        <time>2024-05-21T05:18:17.000Z</time>
      </trkpt>
      <trkpt lat="45.72695" lon="4.86939">
        <ele>178.60000610352</ele>
        <time>2024-05-21T05:18:18.000Z</time>
      </trkpt>
      <trkpt lat="45.72691" lon="4.86942">
        <ele>178.39999389648</ele>
        <time>2024-05-21T05:18:19.000Z</time>
      </trkpt>
      <trkpt lat="45.72687" lon="4.86945">
        <ele>178.39999389648</ele>
        <time>2024-05-21T05:18:20.000Z</time>
      </trkpt>
      <trkpt lat="45.72683" lon="4.86949">
        <ele>178.39999389648</ele>
        <time>2024-05-21T05:18:21.000Z</time>
      </trkpt>
      <trkpt lat="45.72678" lon="4.86952">
        <ele>178.39999389648</ele>
        <time>2024-05-21T05:18:22.000Z</time>
      </trkpt>
      <trkpt lat="45.72674" lon="4.86956">
        <ele>178.39999389648</ele>
        <time>2024-05-21T05:18:23.000Z</time>
      </trkpt>
      <trkpt lat="45.7267" lon="4.86959">
        <ele>178.39999389648</ele>
        <time>2024-05-21T05:18:24.000Z</time>
      </trkpt>
      <trkpt lat="45.72665" lon="4.86963">
        <ele>178.39999389648</ele>
        <time>2024-05-21T05:18:25.000Z</time>
      </trkpt>
      <trkpt lat="45.72661" lon="4.86967">
        <ele>178.60000610352</ele>
        <time>2024-05-21T05:18:26.000Z</time>
      </trkpt>
      <trkpt lat="45.72656" lon="4.8697">
        <ele>178.80000305176</ele>
        <time>2024-05-21T05:18:27.000Z</time>
      </trkpt>
      <trkpt lat="45.72652" lon="4.86973">
        <ele>178.80000305176</ele>
        <time>2024-05-21T05:18:28.000Z</time>
      </trkpt>
      <trkpt lat="45.72647" lon="4.86977">
        <ele>178.80000305176</ele>
        <time>2024-05-21T05:18:29.000Z</time>
      </trkpt>
      <trkpt lat="45.72643" lon="4.8698">
        <ele>178.80000305176</ele>
        <time>2024-05-21T05:18:30.000Z</time>
      </trkpt>
      <trkpt lat="45.72639" lon="4.86984">
        <ele>178.80000305176</ele>
        <time>2024-05-21T05:18:31.000Z</time>
      </trkpt>
      <trkpt lat="45.72634" lon="4.86987">
        <ele>178.80000305176</ele>
        <time>2024-05-21T05:18:32.000Z</time>
      </trkpt>
      <trkpt lat="45.7263" lon="4.8699">
        <ele>178.80000305176</ele>
        <time>2024-05-21T05:18:33.000Z</time>
      </trkpt>
      <trkpt lat="45.72625" lon="4.86994">
        <ele>179</ele>
        <time>2024-05-21T05:18:34.000Z</time>
      </trkpt>
      <trkpt lat="45.72621" lon="4.86997">
        <ele>179</ele>
        <time>2024-05-21T05:18:35.000Z</time>
      </trkpt>
      <trkpt lat="45.72617" lon="4.87001">
        <ele>179</ele>
        <time>2024-05-21T05:18:36.000Z</time>
      </trkpt>
      <trkpt lat="45.72612" lon="4.87004">
        <ele>179</ele>
        <time>2024-05-21T05:18:37.000Z</time>
      </trkpt>
      <trkpt lat="45.72608" lon="4.87007">
        <ele>179</ele>
        <time>2024-05-21T05:18:38.000Z</time>
      </trkpt>
      <trkpt lat="45.72603" lon="4.87011">
        <ele>179</ele>
        <time>2024-05-21T05:18:39.000Z</time>
      </trkpt>
      <trkpt lat="45.72598" lon="4.87014">
        <ele>179</ele>
        <time>2024-05-21T05:18:40.000Z</time>
      </trkpt>
      <trkpt lat="45.72594" lon="4.87017">
        <ele>179</ele>
        <time>2024-05-21T05:18:41.000Z</time>
      </trkpt>
      <trkpt lat="45.72589" lon="4.87021">
        <ele>179</ele>
        <time>2024-05-21T05:18:42.000Z</time>
      </trkpt>
      <trkpt lat="45.72585" lon="4.87024">
        <ele>179</ele>
        <time>2024-05-21T05:18:43.000Z</time>
      </trkpt>
      <trkpt lat="45.72581" lon="4.87028">
        <ele>179.19999694824</ele>
        <time>2024-05-21T05:18:44.000Z</time>
      </trkpt>
      <trkpt lat="45.72576" lon="4.87032">
        <ele>179.19999694824</ele>
        <time>2024-05-21T05:18:45.000Z</time>
      </trkpt>
      <trkpt lat="45.72572" lon="4.87036">
        <ele>179.19999694824</ele>
        <time>2024-05-21T05:18:46.000Z</time>
      </trkpt>
      <trkpt lat="45.72567" lon="4.87039">
        <ele>179.19999694824</ele>
        <time>2024-05-21T05:18:47.000Z</time>
      </trkpt>
      <trkpt lat="45.72563" lon="4.87043">
        <ele>179.19999694824</ele>
        <time>2024-05-21T05:18:48.000Z</time>
      </trkpt>
      <trkpt lat="45.72558" lon="4.87046">
        <ele>179.19999694824</ele>
        <time>2024-05-21T05:18:49.000Z</time>
      </trkpt>
      <trkpt lat="45.72553" lon="4.87049">
        <ele>179.19999694824</ele>
        <time>2024-05-21T05:18:50.000Z</time>
      </trkpt>
      <trkpt lat="45.72549" lon="4.87052">
        <ele>179</ele>
        <time>2024-05-21T05:18:51.000Z</time>
      </trkpt>
      <trkpt lat="45.72544" lon="4.87056">
        <ele>179</ele>
        <time>2024-05-21T05:18:52.000Z</time>
      </trkpt>
      <trkpt lat="45.7254" lon="4.87059">
        <ele>179</ele>
        <time>2024-05-21T05:18:53.000Z</time>
      </trkpt>
      <trkpt lat="45.72535" lon="4.87063">
        <ele>179</ele>
        <time>2024-05-21T05:18:54.000Z</time>
      </trkpt>
      <trkpt lat="45.7253" lon="4.87066">
        <ele>179</ele>
        <time>2024-05-21T05:18:55.000Z</time>
      </trkpt>
      <trkpt lat="45.72525" lon="4.87069">
        <ele>179</ele>
        <time>2024-05-21T05:18:56.000Z</time>
      </trkpt>
      <trkpt lat="45.72521" lon="4.87073">
        <ele>179</ele>
        <time>2024-05-21T05:18:57.000Z</time>
      </trkpt>
      <trkpt lat="45.72517" lon="4.87076">
        <ele>179</ele>
        <time>2024-05-21T05:18:58.000Z</time>
      </trkpt>
      <trkpt lat="45.72513" lon="4.87079">
        <ele>179</ele>
        <time>2024-05-21T05:18:59.000Z</time>
      </trkpt>
      <trkpt lat="45.72508" lon="4.87081">
        <ele>179</ele>
        <time>2024-05-21T05:19:00.000Z</time>
      </trkpt>
      <trkpt lat="45.72503" lon="4.87083">
        <ele>179</ele>
        <time>2024-05-21T05:19:01.000Z</time>
      </trkpt>
      <trkpt lat="45.72499" lon="4.87086">
        <ele>179.19999694824</ele>
        <time>2024-05-21T05:19:02.000Z</time>
      </trkpt>
      <trkpt lat="45.72494" lon="4.87089">
        <ele>179.19999694824</ele>
        <time>2024-05-21T05:19:03.000Z</time>
      </trkpt>
      <trkpt lat="45.7249" lon="4.87092">
        <ele>179.19999694824</ele>
        <time>2024-05-21T05:19:04.000Z</time>
      </trkpt>
      <trkpt lat="45.72485" lon="4.87095">
        <ele>179.19999694824</ele>
        <time>2024-05-21T05:19:05.000Z</time>
      </trkpt>
      <trkpt lat="45.72481" lon="4.87098">
        <ele>179.19999694824</ele>
        <time>2024-05-21T05:19:06.000Z</time>
      </trkpt>
      <trkpt lat="45.72476" lon="4.87101">
        <ele>179.19999694824</ele>
        <time>2024-05-21T05:19:07.000Z</time>
      </trkpt>
      <trkpt lat="45.72472" lon="4.87103">
        <ele>179.19999694824</ele>
        <time>2024-05-21T05:19:08.000Z</time>
      </trkpt>
      <trkpt lat="45.72469" lon="4.87105">
        <ele>179.19999694824</ele>
        <time>2024-05-21T05:19:09.000Z</time>
      </trkpt>
      <trkpt lat="45.72467" lon="4.87107">
        <ele>179.39999389648</ele>
        <time>2024-05-21T05:19:10.000Z</time>
      </trkpt>
      <trkpt lat="45.72465" lon="4.87109">
        <ele>179.39999389648</ele>
        <time>2024-05-21T05:19:11.000Z</time>
      </trkpt>
      <trkpt lat="45.72464" lon="4.87109">
        <ele>179.60000610352</ele>
        <time>2024-05-21T05:19:12.000Z</time>
      </trkpt>
      <trkpt lat="45.72464" lon="4.8711">
        <ele>179.80000305176</ele>
        <time>2024-05-21T05:19:13.000Z</time>
      </trkpt>
      <trkpt lat="45.72464" lon="4.8711">
        <ele>180</ele>
        <time>2024-05-21T05:19:14.000Z</time>
      </trkpt>
      <trkpt lat="45.72461" lon="4.87113">
        <ele>180.19999694824</ele>
        <time>2024-05-21T05:19:41.000Z</time>
      </trkpt>
      <trkpt lat="45.72459" lon="4.87114">
        <ele>180.19999694824</ele>
        <time>2024-05-21T05:19:42.000Z</time>
      </trkpt>
      <trkpt lat="45.72457" lon="4.87115">
        <ele>180.19999694824</ele>
        <time>2024-05-21T05:19:43.000Z</time>
      </trkpt>
      <trkpt lat="45.72456" lon="4.87116">
        <ele>180.19999694824</ele>
        <time>2024-05-21T05:19:44.000Z</time>
      </trkpt>
      <trkpt lat="45.72454" lon="4.87118">
        <ele>180.19999694824</ele>
        <time>2024-05-21T05:19:45.000Z</time>
      </trkpt>
      <trkpt lat="45.72451" lon="4.8712">
        <ele>180.19999694824</ele>
        <time>2024-05-21T05:19:46.000Z</time>
      </trkpt>
      <trkpt lat="45.72448" lon="4.87121">
        <ele>180.19999694824</ele>
        <time>2024-05-21T05:19:47.000Z</time>
      </trkpt>
      <trkpt lat="45.72445" lon="4.87123">
        <ele>180.19999694824</ele>
        <time>2024-05-21T05:19:48.000Z</time>
      </trkpt>
      <trkpt lat="45.72442" lon="4.87125">
        <ele>180.19999694824</ele>
        <time>2024-05-21T05:19:49.000Z</time>
      </trkpt>
      <trkpt lat="45.72439" lon="4.87127">
        <ele>180.19999694824</ele>
        <time>2024-05-21T05:19:50.000Z</time>
      </trkpt>
      <trkpt lat="45.72435" lon="4.8713">
        <ele>180</ele>
        <time>2024-05-21T05:19:51.000Z</time>
      </trkpt>
      <trkpt lat="45.72432" lon="4.87133">
        <ele>180</ele>
        <time>2024-05-21T05:19:52.000Z</time>
      </trkpt>
      <trkpt lat="45.72428" lon="4.87135">
        <ele>180</ele>
        <time>2024-05-21T05:19:53.000Z</time>
      </trkpt>
      <trkpt lat="45.72424" lon="4.87138">
        <ele>180</ele>
        <time>2024-05-21T05:19:54.000Z</time>
      </trkpt>
      <trkpt lat="45.7242" lon="4.87141">
        <ele>180</ele>
        <time>2024-05-21T05:19:55.000Z</time>
      </trkpt>
      <trkpt lat="45.72417" lon="4.87144">
        <ele>180</ele>
        <time>2024-05-21T05:19:56.000Z</time>
      </trkpt>
      <trkpt lat="45.72412" lon="4.87147">
        <ele>180</ele>
        <time>2024-05-21T05:19:57.000Z</time>
      </trkpt>
      <trkpt lat="45.72408" lon="4.87149">
        <ele>180</ele>
        <time>2024-05-21T05:19:58.000Z</time>
      </trkpt>
      <trkpt lat="45.72404" lon="4.87151">
        <ele>180</ele>
        <time>2024-05-21T05:19:59.000Z</time>
      </trkpt>
      <trkpt lat="45.724" lon="4.87154">
        <ele>179.80000305176</ele>
        <time>2024-05-21T05:20:00.000Z</time>
      </trkpt>
      <trkpt lat="45.72396" lon="4.87157">
        <ele>179.80000305176</ele>
        <time>2024-05-21T05:20:01.000Z</time>
      </trkpt>
      <trkpt lat="45.72393" lon="4.8716">
        <ele>179.80000305176</ele>
        <time>2024-05-21T05:20:02.000Z</time>
      </trkpt>
      <trkpt lat="45.72389" lon="4.87164">
        <ele>179.80000305176</ele>
        <time>2024-05-21T05:20:03.000Z</time>
      </trkpt>
      <trkpt lat="45.72385" lon="4.87167">
        <ele>179.80000305176</ele>
        <time>2024-05-21T05:20:04.000Z</time>
      </trkpt>
      <trkpt lat="45.7238" lon="4.8717">
        <ele>179.80000305176</ele>
        <time>2024-05-21T05:20:05.000Z</time>
      </trkpt>
      <trkpt lat="45.72376" lon="4.87173">
        <ele>179.80000305176</ele>
        <time>2024-05-21T05:20:06.000Z</time>
      </trkpt>
      <trkpt lat="45.72372" lon="4.87176">
        <ele>179.80000305176</ele>
        <time>2024-05-21T05:20:07.000Z</time>
      </trkpt>
      <trkpt lat="45.72368" lon="4.87179">
        <ele>179.80000305176</ele>
        <time>2024-05-21T05:20:08.000Z</time>
      </trkpt>
      <trkpt lat="45.72364" lon="4.87183">
        <ele>179.80000305176</ele>
        <time>2024-05-21T05:20:09.000Z</time>
      </trkpt>
      <trkpt lat="45.7236" lon="4.87186">
        <ele>179.80000305176</ele>
        <time>2024-05-21T05:20:10.000Z</time>
      </trkpt>
      <trkpt lat="45.72356" lon="4.87188">
        <ele>179.80000305176</ele>
        <time>2024-05-21T05:20:11.000Z</time>
      </trkpt>
      <trkpt lat="45.72352" lon="4.87191">
        <ele>180</ele>
        <time>2024-05-21T05:20:12.000Z</time>
      </trkpt>
      <trkpt lat="45.72348" lon="4.87194">
        <ele>180</ele>
        <time>2024-05-21T05:20:13.000Z</time>
      </trkpt>
      <trkpt lat="45.72345" lon="4.87197">
        <ele>180</ele>
        <time>2024-05-21T05:20:14.000Z</time>
      </trkpt>
      <trkpt lat="45.72341" lon="4.872">
        <ele>180</ele>
        <time>2024-05-21T05:20:15.000Z</time>
      </trkpt>
      <trkpt lat="45.72337" lon="4.87202">
        <ele>180</ele>
        <time>2024-05-21T05:20:16.000Z</time>
      </trkpt>
      <trkpt lat="45.72333" lon="4.87206">
        <ele>180.19999694824</ele>
        <time>2024-05-21T05:20:17.000Z</time>
      </trkpt>
      <trkpt lat="45.72329" lon="4.87209">
        <ele>180.19999694824</ele>
        <time>2024-05-21T05:20:18.000Z</time>
      </trkpt>
      <trkpt lat="45.72325" lon="4.87212">
        <ele>180.19999694824</ele>
        <time>2024-05-21T05:20:19.000Z</time>
      </trkpt>
      <trkpt lat="45.72321" lon="4.87215">
        <ele>180.19999694824</ele>
        <time>2024-05-21T05:20:20.000Z</time>
      </trkpt>
      <trkpt lat="45.72317" lon="4.87218">
        <ele>180.19999694824</ele>
        <time>2024-05-21T05:20:21.000Z</time>
      </trkpt>
      <trkpt lat="45.72313" lon="4.87221">
        <ele>180.39999389648</ele>
        <time>2024-05-21T05:20:22.000Z</time>
      </trkpt>
      <trkpt lat="45.7231" lon="4.87224">
        <ele>180.39999389648</ele>
        <time>2024-05-21T05:20:23.000Z</time>
      </trkpt>
      <trkpt lat="45.72306" lon="4.87228">
        <ele>180.39999389648</ele>
        <time>2024-05-21T05:20:24.000Z</time>
      </trkpt>
      <trkpt lat="45.72302" lon="4.87231">
        <ele>180.60000610352</ele>
        <time>2024-05-21T05:20:25.000Z</time>
      </trkpt>
      <trkpt lat="45.72298" lon="4.87234">
        <ele>180.60000610352</ele>
        <time>2024-05-21T05:20:26.000Z</time>
      </trkpt>
      <trkpt lat="45.72295" lon="4.87236">
        <ele>180.60000610352</ele>
        <time>2024-05-21T05:20:27.000Z</time>
      </trkpt>
      <trkpt lat="45.7229" lon="4.8724">
        <ele>180.60000610352</ele>
        <time>2024-05-21T05:20:28.000Z</time>
      </trkpt>
      <trkpt lat="45.72286" lon="4.87243">
        <ele>180.60000610352</ele>
        <time>2024-05-21T05:20:29.000Z</time>
      </trkpt>
      <trkpt lat="45.72282" lon="4.87247">
        <ele>180.60000610352</ele>
        <time>2024-05-21T05:20:30.000Z</time>
      </trkpt>
      <trkpt lat="45.72278" lon="4.8725">
        <ele>180.60000610352</ele>
        <time>2024-05-21T05:20:31.000Z</time>
      </trkpt>
      <trkpt lat="45.72275" lon="4.87253">
        <ele>180.60000610352</ele>
        <time>2024-05-21T05:20:32.000Z</time>
      </trkpt>
      <trkpt lat="45.72271" lon="4.87256">
        <ele>180.60000610352</ele>
        <time>2024-05-21T05:20:33.000Z</time>
      </trkpt>
      <trkpt lat="45.72267" lon="4.87259">
        <ele>180.80000305176</ele>
        <time>2024-05-21T05:20:34.000Z</time>
      </trkpt>
      <trkpt lat="45.72263" lon="4.87263">
        <ele>180.80000305176</ele>
        <time>2024-05-21T05:20:35.000Z</time>
      </trkpt>
      <trkpt lat="45.72259" lon="4.87266">
        <ele>180.80000305176</ele>
        <time>2024-05-21T05:20:36.000Z</time>
      </trkpt>
      <trkpt lat="45.72255" lon="4.87269">
        <ele>180.80000305176</ele>
        <time>2024-05-21T05:20:37.000Z</time>
      </trkpt>
      <trkpt lat="45.72251" lon="4.87272">
        <ele>180.80000305176</ele>
        <time>2024-05-21T05:20:38.000Z</time>
      </trkpt>
      <trkpt lat="45.72247" lon="4.87275">
        <ele>180.80000305176</ele>
        <time>2024-05-21T05:20:39.000Z</time>
      </trkpt>
      <trkpt lat="45.72243" lon="4.87278">
        <ele>180.80000305176</ele>
        <time>2024-05-21T05:20:40.000Z</time>
      </trkpt>
      <trkpt lat="45.72239" lon="4.8728">
        <ele>180.80000305176</ele>
        <time>2024-05-21T05:20:41.000Z</time>
      </trkpt>
      <trkpt lat="45.72235" lon="4.87283">
        <ele>180.80000305176</ele>
        <time>2024-05-21T05:20:42.000Z</time>
      </trkpt>
      <trkpt lat="45.72232" lon="4.87287">
        <ele>180.80000305176</ele>
        <time>2024-05-21T05:20:43.000Z</time>
      </trkpt>
      <trkpt lat="45.72228" lon="4.8729">
        <ele>180.80000305176</ele>
        <time>2024-05-21T05:20:44.000Z</time>
      </trkpt>
      <trkpt lat="45.72224" lon="4.87293">
        <ele>180.80000305176</ele>
        <time>2024-05-21T05:20:45.000Z</time>
      </trkpt>
      <trkpt lat="45.7222" lon="4.87296">
        <ele>181</ele>
        <time>2024-05-21T05:20:46.000Z</time>
      </trkpt>
      <trkpt lat="45.72216" lon="4.87299">
        <ele>181</ele>
        <time>2024-05-21T05:20:47.000Z</time>
      </trkpt>
      <trkpt lat="45.72212" lon="4.87302">
        <ele>181</ele>
        <time>2024-05-21T05:20:48.000Z</time>
      </trkpt>
      <trkpt lat="45.72208" lon="4.87305">
        <ele>181</ele>
        <time>2024-05-21T05:20:49.000Z</time>
      </trkpt>
      <trkpt lat="45.72204" lon="4.87308">
        <ele>181</ele>
        <time>2024-05-21T05:20:50.000Z</time>
      </trkpt>
      <trkpt lat="45.722" lon="4.87311">
        <ele>181</ele>
        <time>2024-05-21T05:20:51.000Z</time>
      </trkpt>
      <trkpt lat="45.72196" lon="4.87313">
        <ele>181</ele>
        <time>2024-05-21T05:20:52.000Z</time>
      </trkpt>
      <trkpt lat="45.72192" lon="4.87316">
        <ele>181</ele>
        <time>2024-05-21T05:20:53.000Z</time>
      </trkpt>
      <trkpt lat="45.72189" lon="4.87319">
        <ele>181.19999694824</ele>
        <time>2024-05-21T05:20:54.000Z</time>
      </trkpt>
      <trkpt lat="45.72186" lon="4.87321">
        <ele>181.19999694824</ele>
        <time>2024-05-21T05:20:55.000Z</time>
      </trkpt>
      <trkpt lat="45.72184" lon="4.87322">
        <ele>181.39999389648</ele>
        <time>2024-05-21T05:20:56.000Z</time>
      </trkpt>
      <trkpt lat="45.72182" lon="4.87324">
        <ele>181.39999389648</ele>
        <time>2024-05-21T05:20:57.000Z</time>
      </trkpt>
      <trkpt lat="45.7218" lon="4.87326">
        <ele>181.60000610352</ele>
        <time>2024-05-21T05:20:58.000Z</time>
      </trkpt>
      <trkpt lat="45.72177" lon="4.87329">
        <ele>181.60000610352</ele>
        <time>2024-05-21T05:20:59.000Z</time>
      </trkpt>
      <trkpt lat="45.72174" lon="4.87331">
        <ele>181.60000610352</ele>
        <time>2024-05-21T05:21:00.000Z</time>
      </trkpt>
      <trkpt lat="45.7217" lon="4.87333">
        <ele>181.60000610352</ele>
        <time>2024-05-21T05:21:01.000Z</time>
      </trkpt>
      <trkpt lat="45.72167" lon="4.87336">
        <ele>181.60000610352</ele>
        <time>2024-05-21T05:21:02.000Z</time>
      </trkpt>
      <trkpt lat="45.72164" lon="4.87339">
        <ele>181.60000610352</ele>
        <time>2024-05-21T05:21:03.000Z</time>
      </trkpt>
      <trkpt lat="45.72161" lon="4.87341">
        <ele>181.60000610352</ele>
        <time>2024-05-21T05:21:04.000Z</time>
      </trkpt>
      <trkpt lat="45.72157" lon="4.87344">
        <ele>181.60000610352</ele>
        <time>2024-05-21T05:21:05.000Z</time>
      </trkpt>
      <trkpt lat="45.72153" lon="4.87347">
        <ele>181.60000610352</ele>
        <time>2024-05-21T05:21:06.000Z</time>
      </trkpt>
      <trkpt lat="45.72149" lon="4.8735">
        <ele>181.60000610352</ele>
        <time>2024-05-21T05:21:07.000Z</time>
      </trkpt>
      <trkpt lat="45.72146" lon="4.87352">
        <ele>181.60000610352</ele>
        <time>2024-05-21T05:21:08.000Z</time>
      </trkpt>
      <trkpt lat="45.72142" lon="4.87355">
        <ele>181.60000610352</ele>
        <time>2024-05-21T05:21:09.000Z</time>
      </trkpt>
      <trkpt lat="45.72138" lon="4.87358">
        <ele>181.60000610352</ele>
        <time>2024-05-21T05:21:10.000Z</time>
      </trkpt>
      <trkpt lat="45.72135" lon="4.87361">
        <ele>181.39999389648</ele>
        <time>2024-05-21T05:21:11.000Z</time>
      </trkpt>
      <trkpt lat="45.72131" lon="4.87364">
        <ele>181.39999389648</ele>
        <time>2024-05-21T05:21:12.000Z</time>
      </trkpt>
      <trkpt lat="45.72127" lon="4.87366">
        <ele>181.39999389648</ele>
        <time>2024-05-21T05:21:13.000Z</time>
      </trkpt>
      <trkpt lat="45.72124" lon="4.87369">
        <ele>181.39999389648</ele>
        <time>2024-05-21T05:21:14.000Z</time>
      </trkpt>
      <trkpt lat="45.7212" lon="4.87372">
        <ele>181.39999389648</ele>
        <time>2024-05-21T05:21:15.000Z</time>
      </trkpt>
      <trkpt lat="45.72117" lon="4.87375">
        <ele>181.39999389648</ele>
        <time>2024-05-21T05:21:16.000Z</time>
      </trkpt>
      <trkpt lat="45.72113" lon="4.87377">
        <ele>181.39999389648</ele>
        <time>2024-05-21T05:21:17.000Z</time>
      </trkpt>
      <trkpt lat="45.72109" lon="4.8738">
        <ele>181.39999389648</ele>
        <time>2024-05-21T05:21:18.000Z</time>
      </trkpt>
      <trkpt lat="45.72106" lon="4.87381">
        <ele>181.39999389648</ele>
        <time>2024-05-21T05:21:19.000Z</time>
      </trkpt>
      <trkpt lat="45.72102" lon="4.87382">
        <ele>181.39999389648</ele>
        <time>2024-05-21T05:21:20.000Z</time>
      </trkpt>
      <trkpt lat="45.72099" lon="4.87382">
        <ele>181.60000610352</ele>
        <time>2024-05-21T05:21:21.000Z</time>
      </trkpt>
      <trkpt lat="45.72096" lon="4.87382">
        <ele>181.60000610352</ele>
        <time>2024-05-21T05:21:22.000Z</time>
      </trkpt>
      <trkpt lat="45.72094" lon="4.87384">
        <ele>181.60000610352</ele>
        <time>2024-05-21T05:21:23.000Z</time>
      </trkpt>
      <trkpt lat="45.72091" lon="4.87386">
        <ele>181.60000610352</ele>
        <time>2024-05-21T05:21:24.000Z</time>
      </trkpt>
      <trkpt lat="45.72089" lon="4.8739">
        <ele>181.80000305176</ele>
        <time>2024-05-21T05:21:25.000Z</time>
      </trkpt>
      <trkpt lat="45.72087" lon="4.87393">
        <ele>181.80000305176</ele>
        <time>2024-05-21T05:21:26.000Z</time>
      </trkpt>
      <trkpt lat="45.72085" lon="4.87397">
        <ele>181.80000305176</ele>
        <time>2024-05-21T05:21:27.000Z</time>
      </trkpt>
      <trkpt lat="45.72083" lon="4.87401">
        <ele>181.80000305176</ele>
        <time>2024-05-21T05:21:28.000Z</time>
      </trkpt>
      <trkpt lat="45.72082" lon="4.87405">
        <ele>181.80000305176</ele>
        <time>2024-05-21T05:21:29.000Z</time>
      </trkpt>
      <trkpt lat="45.72079" lon="4.87409">
        <ele>181.80000305176</ele>
        <time>2024-05-21T05:21:30.000Z</time>
      </trkpt>
      <trkpt lat="45.72076" lon="4.87412">
        <ele>181.80000305176</ele>
        <time>2024-05-21T05:21:31.000Z</time>
      </trkpt>
      <trkpt lat="45.72072" lon="4.87415">
        <ele>181.80000305176</ele>
        <time>2024-05-21T05:21:32.000Z</time>
      </trkpt>
      <trkpt lat="45.72069" lon="4.87417">
        <ele>181.80000305176</ele>
        <time>2024-05-21T05:21:33.000Z</time>
      </trkpt>
      <trkpt lat="45.72065" lon="4.8742">
        <ele>181.80000305176</ele>
        <time>2024-05-21T05:21:34.000Z</time>
      </trkpt>
      <trkpt lat="45.72062" lon="4.87422">
        <ele>181.80000305176</ele>
        <time>2024-05-21T05:21:35.000Z</time>
      </trkpt>
      <trkpt lat="45.72058" lon="4.87424">
        <ele>181.60000610352</ele>
        <time>2024-05-21T05:21:36.000Z</time>
      </trkpt>
      <trkpt lat="45.72055" lon="4.87426">
        <ele>181.60000610352</ele>
        <time>2024-05-21T05:21:37.000Z</time>
      </trkpt>
      <trkpt lat="45.72051" lon="4.87428">
        <ele>181.60000610352</ele>
        <time>2024-05-21T05:21:38.000Z</time>
      </trkpt>
      <trkpt lat="45.72048" lon="4.8743">
        <ele>181.80000305176</ele>
        <time>2024-05-21T05:21:39.000Z</time>
      </trkpt>
      <trkpt lat="45.72045" lon="4.87431">
        <ele>181.80000305176</ele>
        <time>2024-05-21T05:21:40.000Z</time>
      </trkpt>
      <trkpt lat="45.72042" lon="4.87431">
        <ele>181.80000305176</ele>
        <time>2024-05-21T05:21:41.000Z</time>
      </trkpt>
      <trkpt lat="45.7204" lon="4.87433">
        <ele>181.80000305176</ele>
        <time>2024-05-21T05:21:42.000Z</time>
      </trkpt>
      <trkpt lat="45.72038" lon="4.87435">
        <ele>181.80000305176</ele>
        <time>2024-05-21T05:21:43.000Z</time>
      </trkpt>
      <trkpt lat="45.72036" lon="4.87438">
        <ele>181.80000305176</ele>
        <time>2024-05-21T05:21:44.000Z</time>
      </trkpt>
      <trkpt lat="45.72034" lon="4.87442">
        <ele>181.60000610352</ele>
        <time>2024-05-21T05:21:45.000Z</time>
      </trkpt>
      <trkpt lat="45.72031" lon="4.87446">
        <ele>181.60000610352</ele>
        <time>2024-05-21T05:21:46.000Z</time>
      </trkpt>
      <trkpt lat="45.72028" lon="4.87449">
        <ele>181.60000610352</ele>
        <time>2024-05-21T05:21:47.000Z</time>
      </trkpt>
      <trkpt lat="45.72025" lon="4.87452">
        <ele>181.39999389648</ele>
        <time>2024-05-21T05:21:48.000Z</time>
      </trkpt>
      <trkpt lat="45.72021" lon="4.87455">
        <ele>181.39999389648</ele>
        <time>2024-05-21T05:21:49.000Z</time>
      </trkpt>
      <trkpt lat="45.72017" lon="4.87458">
        <ele>181.19999694824</ele>
        <time>2024-05-21T05:21:50.000Z</time>
      </trkpt>
      <trkpt lat="45.72013" lon="4.87461">
        <ele>181.19999694824</ele>
        <time>2024-05-21T05:21:51.000Z</time>
      </trkpt>
      <trkpt lat="45.72009" lon="4.87465">
        <ele>181</ele>
        <time>2024-05-21T05:21:52.000Z</time>
      </trkpt>
      <trkpt lat="45.72004" lon="4.87468">
        <ele>181</ele>
        <time>2024-05-21T05:21:53.000Z</time>
      </trkpt>
      <trkpt lat="45.72" lon="4.87472">
        <ele>180.80000305176</ele>
        <time>2024-05-21T05:21:54.000Z</time>
      </trkpt>
      <trkpt lat="45.71996" lon="4.87476">
        <ele>180.60000610352</ele>
        <time>2024-05-21T05:21:55.000Z</time>
      </trkpt>
      <trkpt lat="45.71992" lon="4.87479">
        <ele>180.60000610352</ele>
        <time>2024-05-21T05:21:56.000Z</time>
      </trkpt>
      <trkpt lat="45.71987" lon="4.87482">
        <ele>180.39999389648</ele>
        <time>2024-05-21T05:21:57.000Z</time>
      </trkpt>
      <trkpt lat="45.71983" lon="4.87486">
        <ele>180.19999694824</ele>
        <time>2024-05-21T05:21:58.000Z</time>
      </trkpt>
      <trkpt lat="45.71979" lon="4.87489">
        <ele>180</ele>
        <time>2024-05-21T05:21:59.000Z</time>
      </trkpt>
      <trkpt lat="45.71975" lon="4.87492">
        <ele>180</ele>
        <time>2024-05-21T05:22:00.000Z</time>
      </trkpt>
      <trkpt lat="45.71972" lon="4.87495">
        <ele>180</ele>
        <time>2024-05-21T05:22:01.000Z</time>
      </trkpt>
      <trkpt lat="45.7197" lon="4.87497">
        <ele>179.60000610352</ele>
        <time>2024-05-21T05:22:02.000Z</time>
      </trkpt>
      <trkpt lat="45.71968" lon="4.87499">
        <ele>179.60000610352</ele>
        <time>2024-05-21T05:22:03.000Z</time>
      </trkpt>
      <trkpt lat="45.71967" lon="4.875">
        <ele>179.39999389648</ele>
        <time>2024-05-21T05:22:04.000Z</time>
      </trkpt>
      <trkpt lat="45.71965" lon="4.87501">
        <ele>179.39999389648</ele>
        <time>2024-05-21T05:22:05.000Z</time>
      </trkpt>
      <trkpt lat="45.71964" lon="4.87501">
        <ele>179.39999389648</ele>
        <time>2024-05-21T05:22:06.000Z</time>
      </trkpt>
      <trkpt lat="45.71964" lon="4.87501">
        <ele>179.39999389648</ele>
        <time>2024-05-21T05:22:07.000Z</time>
      </trkpt>
      <trkpt lat="45.71963" lon="4.87501">
        <ele>179.39999389648</ele>
        <time>2024-05-21T05:22:08.000Z</time>
      </trkpt>
      <trkpt lat="45.71961" lon="4.875">
        <ele>179.39999389648</ele>
        <time>2024-05-21T05:22:09.000Z</time>
      </trkpt>
      <trkpt lat="45.71958" lon="4.87499">
        <ele>179.39999389648</ele>
        <time>2024-05-21T05:22:10.000Z</time>
      </trkpt>
      <trkpt lat="45.71955" lon="4.87499">
        <ele>179.19999694824</ele>
        <time>2024-05-21T05:22:11.000Z</time>
      </trkpt>
      <trkpt lat="45.71951" lon="4.875">
        <ele>179</ele>
        <time>2024-05-21T05:22:12.000Z</time>
      </trkpt>
      <trkpt lat="45.71947" lon="4.87502">
        <ele>178.60000610352</ele>
        <time>2024-05-21T05:22:13.000Z</time>
      </trkpt>
      <trkpt lat="45.71944" lon="4.87505">
        <ele>178.60000610352</ele>
        <time>2024-05-21T05:22:14.000Z</time>
      </trkpt>
      <trkpt lat="45.71941" lon="4.87508">
        <ele>178.39999389648</ele>
        <time>2024-05-21T05:22:15.000Z</time>
      </trkpt>
      <trkpt lat="45.71937" lon="4.87512">
        <ele>178.19999694824</ele>
        <time>2024-05-21T05:22:16.000Z</time>
      </trkpt>
      <trkpt lat="45.71933" lon="4.87515">
        <ele>178.19999694824</ele>
        <time>2024-05-21T05:22:17.000Z</time>
      </trkpt>
      <trkpt lat="45.71929" lon="4.87519">
        <ele>178</ele>
        <time>2024-05-21T05:22:18.000Z</time>
      </trkpt>
      <trkpt lat="45.71925" lon="4.87522">
        <ele>177.80000305176</ele>
        <time>2024-05-21T05:22:19.000Z</time>
      </trkpt>
      <trkpt lat="45.71921" lon="4.87526">
        <ele>177.80000305176</ele>
        <time>2024-05-21T05:22:20.000Z</time>
      </trkpt>
      <trkpt lat="45.71917" lon="4.8753">
        <ele>177.60000610352</ele>
        <time>2024-05-21T05:22:21.000Z</time>
      </trkpt>
      <trkpt lat="45.71914" lon="4.87533">
        <ele>177.39999389648</ele>
        <time>2024-05-21T05:22:22.000Z</time>
      </trkpt>
      <trkpt lat="45.7191" lon="4.87537">
        <ele>177.39999389648</ele>
        <time>2024-05-21T05:22:23.000Z</time>
      </trkpt>
      <trkpt lat="45.71906" lon="4.8754">
        <ele>177.39999389648</ele>
        <time>2024-05-21T05:22:24.000Z</time>
      </trkpt>
      <trkpt lat="45.71901" lon="4.87543">
        <ele>177.39999389648</ele>
        <time>2024-05-21T05:22:25.000Z</time>
      </trkpt>
      <trkpt lat="45.71897" lon="4.87546">
        <ele>177.19999694824</ele>
        <time>2024-05-21T05:22:26.000Z</time>
      </trkpt>
      <trkpt lat="45.71892" lon="4.87549">
        <ele>177</ele>
        <time>2024-05-21T05:22:27.000Z</time>
      </trkpt>
      <trkpt lat="45.71887" lon="4.87552">
        <ele>177</ele>
        <time>2024-05-21T05:22:28.000Z</time>
      </trkpt>
      <trkpt lat="45.71883" lon="4.87554">
        <ele>176.80000305176</ele>
        <time>2024-05-21T05:22:29.000Z</time>
      </trkpt>
      <trkpt lat="45.7188" lon="4.87556">
        <ele>176.80000305176</ele>
        <time>2024-05-21T05:22:30.000Z</time>
      </trkpt>
      <trkpt lat="45.71876" lon="4.87559">
        <ele>176.80000305176</ele>
        <time>2024-05-21T05:22:31.000Z</time>
      </trkpt>
      <trkpt lat="45.71873" lon="4.87562">
        <ele>176.80000305176</ele>
        <time>2024-05-21T05:22:32.000Z</time>
      </trkpt>
      <trkpt lat="45.7187" lon="4.87565">
        <ele>176.80000305176</ele>
        <time>2024-05-21T05:22:33.000Z</time>
      </trkpt>
      <trkpt lat="45.71866" lon="4.87567">
        <ele>176.80000305176</ele>
        <time>2024-05-21T05:22:34.000Z</time>
      </trkpt>
      <trkpt lat="45.71862" lon="4.8757">
        <ele>176.80000305176</ele>
        <time>2024-05-21T05:22:35.000Z</time>
      </trkpt>
      <trkpt lat="45.71858" lon="4.87573">
        <ele>177</ele>
        <time>2024-05-21T05:22:36.000Z</time>
      </trkpt>
      <trkpt lat="45.71854" lon="4.87576">
        <ele>177</ele>
        <time>2024-05-21T05:22:37.000Z</time>
      </trkpt>
      <trkpt lat="45.71851" lon="4.87578">
        <ele>177</ele>
        <time>2024-05-21T05:22:38.000Z</time>
      </trkpt>
      <trkpt lat="45.71847" lon="4.87579">
        <ele>177.39999389648</ele>
        <time>2024-05-21T05:22:39.000Z</time>
      </trkpt>
      <trkpt lat="45.71844" lon="4.87581">
        <ele>177.39999389648</ele>
        <time>2024-05-21T05:22:40.000Z</time>
      </trkpt>
      <trkpt lat="45.71842" lon="4.87581">
        <ele>177.39999389648</ele>
        <time>2024-05-21T05:22:41.000Z</time>
      </trkpt>
      <trkpt lat="45.71839" lon="4.87582">
        <ele>177.60000610352</ele>
        <time>2024-05-21T05:22:42.000Z</time>
      </trkpt>
      <trkpt lat="45.71837" lon="4.87584">
        <ele>177.60000610352</ele>
        <time>2024-05-21T05:22:43.000Z</time>
      </trkpt>
      <trkpt lat="45.71834" lon="4.87587">
        <ele>177.60000610352</ele>
        <time>2024-05-21T05:22:44.000Z</time>
      </trkpt>
      <trkpt lat="45.71832" lon="4.87589">
        <ele>177.60000610352</ele>
        <time>2024-05-21T05:22:45.000Z</time>
      </trkpt>
      <trkpt lat="45.71829" lon="4.87593">
        <ele>177.60000610352</ele>
        <time>2024-05-21T05:22:46.000Z</time>
      </trkpt>
      <trkpt lat="45.71826" lon="4.87596">
        <ele>177.60000610352</ele>
        <time>2024-05-21T05:22:47.000Z</time>
      </trkpt>
      <trkpt lat="45.71823" lon="4.876">
        <ele>177.60000610352</ele>
        <time>2024-05-21T05:22:48.000Z</time>
      </trkpt>
      <trkpt lat="45.7182" lon="4.87604">
        <ele>177.60000610352</ele>
        <time>2024-05-21T05:22:49.000Z</time>
      </trkpt>
      <trkpt lat="45.71818" lon="4.87607">
        <ele>177.80000305176</ele>
        <time>2024-05-21T05:22:50.000Z</time>
      </trkpt>
      <trkpt lat="45.71815" lon="4.87611">
        <ele>178</ele>
        <time>2024-05-21T05:22:51.000Z</time>
      </trkpt>
      <trkpt lat="45.71811" lon="4.87614">
        <ele>178.19999694824</ele>
        <time>2024-05-21T05:22:52.000Z</time>
      </trkpt>
      <trkpt lat="45.71807" lon="4.87617">
        <ele>178.60000610352</ele>
        <time>2024-05-21T05:22:53.000Z</time>
      </trkpt>
      <trkpt lat="45.71805" lon="4.87619">
        <ele>178.80000305176</ele>
        <time>2024-05-21T05:22:54.000Z</time>
      </trkpt>
      <trkpt lat="45.71801" lon="4.87622">
        <ele>178.80000305176</ele>
        <time>2024-05-21T05:22:55.000Z</time>
      </trkpt>
      <trkpt lat="45.71799" lon="4.87623">
        <ele>179</ele>
        <time>2024-05-21T05:22:56.000Z</time>
      </trkpt>
      <trkpt lat="45.71796" lon="4.87626">
        <ele>179.19999694824</ele>
        <time>2024-05-21T05:22:57.000Z</time>
      </trkpt>
      <trkpt lat="45.71794" lon="4.87629">
        <ele>179.39999389648</ele>
        <time>2024-05-21T05:22:58.000Z</time>
      </trkpt>
      <trkpt lat="45.71791" lon="4.87633">
        <ele>179.60000610352</ele>
        <time>2024-05-21T05:22:59.000Z</time>
      </trkpt>
      <trkpt lat="45.71789" lon="4.87637">
        <ele>179.60000610352</ele>
        <time>2024-05-21T05:23:00.000Z</time>
      </trkpt>
      <trkpt lat="45.71786" lon="4.8764">
        <ele>179.60000610352</ele>
        <time>2024-05-21T05:23:01.000Z</time>
      </trkpt>
      <trkpt lat="45.71782" lon="4.87643">
        <ele>179.80000305176</ele>
        <time>2024-05-21T05:23:02.000Z</time>
      </trkpt>
      <trkpt lat="45.71779" lon="4.87646">
        <ele>180</ele>
        <time>2024-05-21T05:23:03.000Z</time>
      </trkpt>
      <trkpt lat="45.71776" lon="4.87649">
        <ele>180</ele>
        <time>2024-05-21T05:23:04.000Z</time>
      </trkpt>
      <trkpt lat="45.71772" lon="4.87651">
        <ele>180.19999694824</ele>
        <time>2024-05-21T05:23:05.000Z</time>
      </trkpt>
      <trkpt lat="45.71769" lon="4.87653">
        <ele>180.60000610352</ele>
        <time>2024-05-21T05:23:06.000Z</time>
      </trkpt>
      <trkpt lat="45.71766" lon="4.87656">
        <ele>180.80000305176</ele>
        <time>2024-05-21T05:23:07.000Z</time>
      </trkpt>
      <trkpt lat="45.71763" lon="4.87659">
        <ele>181</ele>
        <time>2024-05-21T05:23:08.000Z</time>
      </trkpt>
      <trkpt lat="45.71759" lon="4.87661">
        <ele>181.19999694824</ele>
        <time>2024-05-21T05:23:09.000Z</time>
      </trkpt>
      <trkpt lat="45.71756" lon="4.87663">
        <ele>181.39999389648</ele>
        <time>2024-05-21T05:23:10.000Z</time>
      </trkpt>
      <trkpt lat="45.71753" lon="4.87666">
        <ele>181.60000610352</ele>
        <time>2024-05-21T05:23:11.000Z</time>
      </trkpt>
      <trkpt lat="45.71749" lon="4.87668">
        <ele>181.80000305176</ele>
        <time>2024-05-21T05:23:12.000Z</time>
      </trkpt>
      <trkpt lat="45.71746" lon="4.87671">
        <ele>182</ele>
        <time>2024-05-21T05:23:13.000Z</time>
      </trkpt>
      <trkpt lat="45.71743" lon="4.87673">
        <ele>182.19999694824</ele>
        <time>2024-05-21T05:23:14.000Z</time>
      </trkpt>
      <trkpt lat="45.7174" lon="4.87676">
        <ele>182.19999694824</ele>
        <time>2024-05-21T05:23:15.000Z</time>
      </trkpt>
      <trkpt lat="45.71737" lon="4.87678">
        <ele>182.19999694824</ele>
        <time>2024-05-21T05:23:16.000Z</time>
      </trkpt>
      <trkpt lat="45.71734" lon="4.8768">
        <ele>182.39999389648</ele>
        <time>2024-05-21T05:23:17.000Z</time>
      </trkpt>
      <trkpt lat="45.71732" lon="4.87682">
        <ele>182.60000610352</ele>
        <time>2024-05-21T05:23:18.000Z</time>
      </trkpt>
      <trkpt lat="45.71729" lon="4.87683">
        <ele>182.80000305176</ele>
        <time>2024-05-21T05:23:19.000Z</time>
      </trkpt>
      <trkpt lat="45.71727" lon="4.87684">
        <ele>182.80000305176</ele>
        <time>2024-05-21T05:23:20.000Z</time>
      </trkpt>
      <trkpt lat="45.71724" lon="4.87684">
        <ele>182.80000305176</ele>
        <time>2024-05-21T05:23:21.000Z</time>
      </trkpt>
      <trkpt lat="45.71721" lon="4.87684">
        <ele>182.80000305176</ele>
        <time>2024-05-21T05:23:22.000Z</time>
      </trkpt>
      <trkpt lat="45.71718" lon="4.87684">
        <ele>182.80000305176</ele>
        <time>2024-05-21T05:23:23.000Z</time>
      </trkpt>
      <trkpt lat="45.71715" lon="4.87687">
        <ele>182.80000305176</ele>
        <time>2024-05-21T05:23:24.000Z</time>
      </trkpt>
      <trkpt lat="45.71712" lon="4.8769">
        <ele>182.80000305176</ele>
        <time>2024-05-21T05:23:25.000Z</time>
      </trkpt>
      <trkpt lat="45.71709" lon="4.87693">
        <ele>182.80000305176</ele>
        <time>2024-05-21T05:23:26.000Z</time>
      </trkpt>
      <trkpt lat="45.71706" lon="4.87695">
        <ele>182.80000305176</ele>
        <time>2024-05-21T05:23:27.000Z</time>
      </trkpt>
      <trkpt lat="45.71703" lon="4.87698">
        <ele>182.80000305176</ele>
        <time>2024-05-21T05:23:28.000Z</time>
      </trkpt>
      <trkpt lat="45.717" lon="4.877">
        <ele>182.80000305176</ele>
        <time>2024-05-21T05:23:29.000Z</time>
      </trkpt>
      <trkpt lat="45.71697" lon="4.87702">
        <ele>183</ele>
        <time>2024-05-21T05:23:30.000Z</time>
      </trkpt>
      <trkpt lat="45.71695" lon="4.87704">
        <ele>183.19999694824</ele>
        <time>2024-05-21T05:23:31.000Z</time>
      </trkpt>
      <trkpt lat="45.71692" lon="4.87706">
        <ele>183.19999694824</ele>
        <time>2024-05-21T05:23:32.000Z</time>
      </trkpt>
      <trkpt lat="45.71689" lon="4.87708">
        <ele>183.39999389648</ele>
        <time>2024-05-21T05:23:33.000Z</time>
      </trkpt>
      <trkpt lat="45.71686" lon="4.87711">
        <ele>183.39999389648</ele>
        <time>2024-05-21T05:23:34.000Z</time>
      </trkpt>
      <trkpt lat="45.71683" lon="4.87713">
        <ele>183.39999389648</ele>
        <time>2024-05-21T05:23:35.000Z</time>
      </trkpt>
      <trkpt lat="45.7168" lon="4.87715">
        <ele>183.39999389648</ele>
        <time>2024-05-21T05:23:36.000Z</time>
      </trkpt>
      <trkpt lat="45.71677" lon="4.87718">
        <ele>183.60000610352</ele>
        <time>2024-05-21T05:23:37.000Z</time>
      </trkpt>
      <trkpt lat="45.71674" lon="4.8772">
        <ele>183.60000610352</ele>
        <time>2024-05-21T05:23:38.000Z</time>
      </trkpt>
      <trkpt lat="45.71671" lon="4.87722">
        <ele>183.60000610352</ele>
        <time>2024-05-21T05:23:39.000Z</time>
      </trkpt>
      <trkpt lat="45.71667" lon="4.87725">
        <ele>183.80000305176</ele>
        <time>2024-05-21T05:23:40.000Z</time>
      </trkpt>
      <trkpt lat="45.71664" lon="4.87728">
        <ele>183.80000305176</ele>
        <time>2024-05-21T05:23:41.000Z</time>
      </trkpt>
      <trkpt lat="45.71661" lon="4.8773">
        <ele>183.80000305176</ele>
        <time>2024-05-21T05:23:42.000Z</time>
      </trkpt>
      <trkpt lat="45.71657" lon="4.87733">
        <ele>183.80000305176</ele>
        <time>2024-05-21T05:23:43.000Z</time>
      </trkpt>
      <trkpt lat="45.71654" lon="4.87735">
        <ele>183.80000305176</ele>
        <time>2024-05-21T05:23:44.000Z</time>
      </trkpt>
      <trkpt lat="45.7165" lon="4.87737">
        <ele>183.80000305176</ele>
        <time>2024-05-21T05:23:45.000Z</time>
      </trkpt>
      <trkpt lat="45.71646" lon="4.87739">
        <ele>183.80000305176</ele>
        <time>2024-05-21T05:23:46.000Z</time>
      </trkpt>
      <trkpt lat="45.71643" lon="4.87741">
        <ele>183.80000305176</ele>
        <time>2024-05-21T05:23:47.000Z</time>
      </trkpt>
      <trkpt lat="45.71639" lon="4.87744">
        <ele>183.80000305176</ele>
        <time>2024-05-21T05:23:48.000Z</time>
      </trkpt>
      <trkpt lat="45.71635" lon="4.87746">
        <ele>183.80000305176</ele>
        <time>2024-05-21T05:23:49.000Z</time>
      </trkpt>
      <trkpt lat="45.71632" lon="4.87748">
        <ele>183.80000305176</ele>
        <time>2024-05-21T05:23:50.000Z</time>
      </trkpt>
      <trkpt lat="45.71628" lon="4.87751">
        <ele>183.80000305176</ele>
        <time>2024-05-21T05:23:51.000Z</time>
      </trkpt>
      <trkpt lat="45.71625" lon="4.87754">
        <ele>183.80000305176</ele>
        <time>2024-05-21T05:23:52.000Z</time>
      </trkpt>
      <trkpt lat="45.71621" lon="4.87756">
        <ele>183.80000305176</ele>
        <time>2024-05-21T05:23:53.000Z</time>
      </trkpt>
      <trkpt lat="45.71617" lon="4.87759">
        <ele>184</ele>
        <time>2024-05-21T05:23:54.000Z</time>
      </trkpt>
      <trkpt lat="45.71614" lon="4.87762">
        <ele>184</ele>
        <time>2024-05-21T05:23:55.000Z</time>
      </trkpt>
      <trkpt lat="45.7161" lon="4.87765">
        <ele>184</ele>
        <time>2024-05-21T05:23:56.000Z</time>
      </trkpt>
      <trkpt lat="45.71606" lon="4.87768">
        <ele>184</ele>
        <time>2024-05-21T05:23:57.000Z</time>
      </trkpt>
      <trkpt lat="45.71603" lon="4.8777">
        <ele>184</ele>
        <time>2024-05-21T05:23:58.000Z</time>
      </trkpt>
      <trkpt lat="45.71599" lon="4.87773">
        <ele>184</ele>
        <time>2024-05-21T05:23:59.000Z</time>
      </trkpt>
      <trkpt lat="45.71596" lon="4.87776">
        <ele>184.19999694824</ele>
        <time>2024-05-21T05:24:00.000Z</time>
      </trkpt>
      <trkpt lat="45.71592" lon="4.87779">
        <ele>184.19999694824</ele>
        <time>2024-05-21T05:24:01.000Z</time>
      </trkpt>
      <trkpt lat="45.71588" lon="4.87782">
        <ele>184.19999694824</ele>
        <time>2024-05-21T05:24:02.000Z</time>
      </trkpt>
      <trkpt lat="45.71585" lon="4.87786">
        <ele>184.39999389648</ele>
        <time>2024-05-21T05:24:03.000Z</time>
      </trkpt>
      <trkpt lat="45.71581" lon="4.87789">
        <ele>184.39999389648</ele>
        <time>2024-05-21T05:24:04.000Z</time>
      </trkpt>
      <trkpt lat="45.71578" lon="4.87792">
        <ele>184.39999389648</ele>
        <time>2024-05-21T05:24:05.000Z</time>
      </trkpt>
      <trkpt lat="45.71575" lon="4.87796">
        <ele>184.39999389648</ele>
        <time>2024-05-21T05:24:06.000Z</time>
      </trkpt>
      <trkpt lat="45.71572" lon="4.87799">
        <ele>184.39999389648</ele>
        <time>2024-05-21T05:24:07.000Z</time>
      </trkpt>
      <trkpt lat="45.71569" lon="4.87802">
        <ele>184.60000610352</ele>
        <time>2024-05-21T05:24:08.000Z</time>
      </trkpt>
      <trkpt lat="45.71566" lon="4.87805">
        <ele>184.60000610352</ele>
        <time>2024-05-21T05:24:09.000Z</time>
      </trkpt>
      <trkpt lat="45.71562" lon="4.87808">
        <ele>184.60000610352</ele>
        <time>2024-05-21T05:24:10.000Z</time>
      </trkpt>
      <trkpt lat="45.71559" lon="4.87811">
        <ele>184.60000610352</ele>
        <time>2024-05-21T05:24:11.000Z</time>
      </trkpt>
      <trkpt lat="45.71555" lon="4.87814">
        <ele>184.80000305176</ele>
        <time>2024-05-21T05:24:12.000Z</time>
      </trkpt>
      <trkpt lat="45.71552" lon="4.87817">
        <ele>184.80000305176</ele>
        <time>2024-05-21T05:24:13.000Z</time>
      </trkpt>
      <trkpt lat="45.71548" lon="4.87819">
        <ele>184.80000305176</ele>
        <time>2024-05-21T05:24:14.000Z</time>
      </trkpt>
      <trkpt lat="45.71545" lon="4.87822">
        <ele>184.80000305176</ele>
        <time>2024-05-21T05:24:15.000Z</time>
      </trkpt>
      <trkpt lat="45.71542" lon="4.87824">
        <ele>184.80000305176</ele>
        <time>2024-05-21T05:24:16.000Z</time>
      </trkpt>
      <trkpt lat="45.71538" lon="4.87827">
        <ele>184.80000305176</ele>
        <time>2024-05-21T05:24:17.000Z</time>
      </trkpt>
      <trkpt lat="45.71535" lon="4.87829">
        <ele>184.80000305176</ele>
        <time>2024-05-21T05:24:18.000Z</time>
      </trkpt>
      <trkpt lat="45.71531" lon="4.87832">
        <ele>184.80000305176</ele>
        <time>2024-05-21T05:24:19.000Z</time>
      </trkpt>
      <trkpt lat="45.71528" lon="4.87834">
        <ele>184.80000305176</ele>
        <time>2024-05-21T05:24:20.000Z</time>
      </trkpt>
      <trkpt lat="45.71524" lon="4.87836">
        <ele>184.80000305176</ele>
        <time>2024-05-21T05:24:21.000Z</time>
      </trkpt>
      <trkpt lat="45.71521" lon="4.87839">
        <ele>184.80000305176</ele>
        <time>2024-05-21T05:24:22.000Z</time>
      </trkpt>
      <trkpt lat="45.71518" lon="4.87841">
        <ele>184.80000305176</ele>
        <time>2024-05-21T05:24:23.000Z</time>
      </trkpt>
      <trkpt lat="45.71515" lon="4.87843">
        <ele>184.80000305176</ele>
        <time>2024-05-21T05:24:24.000Z</time>
      </trkpt>
      <trkpt lat="45.71512" lon="4.87845">
        <ele>184.80000305176</ele>
        <time>2024-05-21T05:24:25.000Z</time>
      </trkpt>
      <trkpt lat="45.71509" lon="4.87848">
        <ele>185</ele>
        <time>2024-05-21T05:24:26.000Z</time>
      </trkpt>
      <trkpt lat="45.71506" lon="4.87851">
        <ele>185</ele>
        <time>2024-05-21T05:24:27.000Z</time>
      </trkpt>
      <trkpt lat="45.71502" lon="4.87853">
        <ele>185</ele>
        <time>2024-05-21T05:24:28.000Z</time>
      </trkpt>
      <trkpt lat="45.71499" lon="4.87856">
        <ele>185</ele>
        <time>2024-05-21T05:24:29.000Z</time>
      </trkpt>
      <trkpt lat="45.71496" lon="4.87858">
        <ele>185</ele>
        <time>2024-05-21T05:24:30.000Z</time>
      </trkpt>
      <trkpt lat="45.71493" lon="4.87861">
        <ele>185</ele>
        <time>2024-05-21T05:24:31.000Z</time>
      </trkpt>
      <trkpt lat="45.71489" lon="4.87863">
        <ele>185</ele>
        <time>2024-05-21T05:24:32.000Z</time>
      </trkpt>
      <trkpt lat="45.71486" lon="4.87866">
        <ele>185.19999694824</ele>
        <time>2024-05-21T05:24:33.000Z</time>
      </trkpt>
      <trkpt lat="45.71482" lon="4.87869">
        <ele>185.19999694824</ele>
        <time>2024-05-21T05:24:34.000Z</time>
      </trkpt>
      <trkpt lat="45.71478" lon="4.87872">
        <ele>185.19999694824</ele>
        <time>2024-05-21T05:24:35.000Z</time>
      </trkpt>
      <trkpt lat="45.71475" lon="4.87875">
        <ele>185.19999694824</ele>
        <time>2024-05-21T05:24:36.000Z</time>
      </trkpt>
      <trkpt lat="45.71471" lon="4.87877">
        <ele>185.19999694824</ele>
        <time>2024-05-21T05:24:37.000Z</time>
      </trkpt>
      <trkpt lat="45.71467" lon="4.8788">
        <ele>185.39999389648</ele>
        <time>2024-05-21T05:24:38.000Z</time>
      </trkpt>
      <trkpt lat="45.71464" lon="4.87883">
        <ele>185.39999389648</ele>
        <time>2024-05-21T05:24:39.000Z</time>
      </trkpt>
      <trkpt lat="45.7146" lon="4.87886">
        <ele>185.39999389648</ele>
        <time>2024-05-21T05:24:40.000Z</time>
      </trkpt>
      <trkpt lat="45.71456" lon="4.87889">
        <ele>185.39999389648</ele>
        <time>2024-05-21T05:24:41.000Z</time>
      </trkpt>
      <trkpt lat="45.71453" lon="4.87891">
        <ele>185.39999389648</ele>
        <time>2024-05-21T05:24:42.000Z</time>
      </trkpt>
      <trkpt lat="45.71449" lon="4.87894">
        <ele>185.39999389648</ele>
        <time>2024-05-21T05:24:43.000Z</time>
      </trkpt>
      <trkpt lat="45.71445" lon="4.87896">
        <ele>185.39999389648</ele>
        <time>2024-05-21T05:24:44.000Z</time>
      </trkpt>
      <trkpt lat="45.71442" lon="4.87898">
        <ele>185.39999389648</ele>
        <time>2024-05-21T05:24:45.000Z</time>
      </trkpt>
      <trkpt lat="45.71438" lon="4.87901">
        <ele>185.39999389648</ele>
        <time>2024-05-21T05:24:46.000Z</time>
      </trkpt>
      <trkpt lat="45.71435" lon="4.87902">
        <ele>185.39999389648</ele>
        <time>2024-05-21T05:24:47.000Z</time>
      </trkpt>
      <trkpt lat="45.71432" lon="4.87903">
        <ele>185.39999389648</ele>
        <time>2024-05-21T05:24:48.000Z</time>
      </trkpt>
      <trkpt lat="45.71429" lon="4.87904">
        <ele>185.39999389648</ele>
        <time>2024-05-21T05:24:49.000Z</time>
      </trkpt>
      <trkpt lat="45.71426" lon="4.87906">
        <ele>185.39999389648</ele>
        <time>2024-05-21T05:24:50.000Z</time>
      </trkpt>
      <trkpt lat="45.71424" lon="4.87908">
        <ele>185.19999694824</ele>
        <time>2024-05-21T05:24:51.000Z</time>
      </trkpt>
      <trkpt lat="45.71422" lon="4.87911">
        <ele>185.19999694824</ele>
        <time>2024-05-21T05:24:52.000Z</time>
      </trkpt>
      <trkpt lat="45.71419" lon="4.87914">
        <ele>185.19999694824</ele>
        <time>2024-05-21T05:24:53.000Z</time>
      </trkpt>
      <trkpt lat="45.71417" lon="4.87918">
        <ele>185.19999694824</ele>
        <time>2024-05-21T05:24:54.000Z</time>
      </trkpt>
      <trkpt lat="45.71415" lon="4.87922">
        <ele>185.19999694824</ele>
        <time>2024-05-21T05:24:55.000Z</time>
      </trkpt>
      <trkpt lat="45.71412" lon="4.87927">
        <ele>185.19999694824</ele>
        <time>2024-05-21T05:24:56.000Z</time>
      </trkpt>
      <trkpt lat="45.71409" lon="4.8793">
        <ele>185.19999694824</ele>
        <time>2024-05-21T05:24:57.000Z</time>
      </trkpt>
      <trkpt lat="45.71406" lon="4.87934">
        <ele>185</ele>
        <time>2024-05-21T05:24:58.000Z</time>
      </trkpt>
      <trkpt lat="45.71402" lon="4.87937">
        <ele>185</ele>
        <time>2024-05-21T05:24:59.000Z</time>
      </trkpt>
      <trkpt lat="45.71397" lon="4.8794">
        <ele>185</ele>
        <time>2024-05-21T05:25:00.000Z</time>
      </trkpt>
      <trkpt lat="45.71393" lon="4.87943">
        <ele>185.19999694824</ele>
        <time>2024-05-21T05:25:01.000Z</time>
      </trkpt>
      <trkpt lat="45.71389" lon="4.87947">
        <ele>185.19999694824</ele>
        <time>2024-05-21T05:25:02.000Z</time>
      </trkpt>
      <trkpt lat="45.71385" lon="4.8795">
        <ele>185.19999694824</ele>
        <time>2024-05-21T05:25:03.000Z</time>
      </trkpt>
      <trkpt lat="45.7138" lon="4.87954">
        <ele>185.19999694824</ele>
        <time>2024-05-21T05:25:04.000Z</time>
      </trkpt>
      <trkpt lat="45.71376" lon="4.87957">
        <ele>185.19999694824</ele>
        <time>2024-05-21T05:25:05.000Z</time>
      </trkpt>
      <trkpt lat="45.71372" lon="4.8796">
        <ele>185.39999389648</ele>
        <time>2024-05-21T05:25:06.000Z</time>
      </trkpt>
      <trkpt lat="45.71367" lon="4.87963">
        <ele>185.60000610352</ele>
        <time>2024-05-21T05:25:07.000Z</time>
      </trkpt>
      <trkpt lat="45.71363" lon="4.87967">
        <ele>185.60000610352</ele>
        <time>2024-05-21T05:25:08.000Z</time>
      </trkpt>
      <trkpt lat="45.71359" lon="4.8797">
        <ele>185.60000610352</ele>
        <time>2024-05-21T05:25:09.000Z</time>
      </trkpt>
      <trkpt lat="45.71354" lon="4.87974">
        <ele>185.60000610352</ele>
        <time>2024-05-21T05:25:10.000Z</time>
      </trkpt>
      <trkpt lat="45.7135" lon="4.87977">
        <ele>185.80000305176</ele>
        <time>2024-05-21T05:25:11.000Z</time>
      </trkpt>
      <trkpt lat="45.71346" lon="4.87981">
        <ele>185.80000305176</ele>
        <time>2024-05-21T05:25:12.000Z</time>
      </trkpt>
      <trkpt lat="45.71341" lon="4.87984">
        <ele>185.80000305176</ele>
        <time>2024-05-21T05:25:13.000Z</time>
      </trkpt>
      <trkpt lat="45.71337" lon="4.87987">
        <ele>185.80000305176</ele>
        <time>2024-05-21T05:25:14.000Z</time>
      </trkpt>
      <trkpt lat="45.71333" lon="4.8799">
        <ele>185.80000305176</ele>
        <time>2024-05-21T05:25:15.000Z</time>
      </trkpt>
      <trkpt lat="45.71329" lon="4.87993">
        <ele>185.80000305176</ele>
        <time>2024-05-21T05:25:16.000Z</time>
      </trkpt>
      <trkpt lat="45.71324" lon="4.87997">
        <ele>185.60000610352</ele>
        <time>2024-05-21T05:25:17.000Z</time>
      </trkpt>
      <trkpt lat="45.7132" lon="4.88">
        <ele>185.60000610352</ele>
        <time>2024-05-21T05:25:18.000Z</time>
      </trkpt>
      <trkpt lat="45.71316" lon="4.88003">
        <ele>185.60000610352</ele>
        <time>2024-05-21T05:25:19.000Z</time>
      </trkpt>
      <trkpt lat="45.71311" lon="4.88005">
        <ele>185.60000610352</ele>
        <time>2024-05-21T05:25:20.000Z</time>
      </trkpt>
      <trkpt lat="45.71307" lon="4.88007">
        <ele>185.60000610352</ele>
        <time>2024-05-21T05:25:21.000Z</time>
      </trkpt>
      <trkpt lat="45.71302" lon="4.8801">
        <ele>185.60000610352</ele>
        <time>2024-05-21T05:25:22.000Z</time>
      </trkpt>
      <trkpt lat="45.71298" lon="4.88012">
        <ele>185.80000305176</ele>
        <time>2024-05-21T05:25:23.000Z</time>
      </trkpt>
      <trkpt lat="45.71294" lon="4.88015">
        <ele>185.80000305176</ele>
        <time>2024-05-21T05:25:24.000Z</time>
      </trkpt>
      <trkpt lat="45.7129" lon="4.88018">
        <ele>185.80000305176</ele>
        <time>2024-05-21T05:25:25.000Z</time>
      </trkpt>
      <trkpt lat="45.71286" lon="4.88022">
        <ele>186</ele>
        <time>2024-05-21T05:25:26.000Z</time>
      </trkpt>
      <trkpt lat="45.71282" lon="4.88025">
        <ele>186</ele>
        <time>2024-05-21T05:25:27.000Z</time>
      </trkpt>
      <trkpt lat="45.71278" lon="4.88028">
        <ele>186</ele>
        <time>2024-05-21T05:25:28.000Z</time>
      </trkpt>
      <trkpt lat="45.71273" lon="4.88031">
        <ele>186.19999694824</ele>
        <time>2024-05-21T05:25:29.000Z</time>
      </trkpt>
      <trkpt lat="45.71269" lon="4.88034">
        <ele>186.19999694824</ele>
        <time>2024-05-21T05:25:30.000Z</time>
      </trkpt>
      <trkpt lat="45.71265" lon="4.88037">
        <ele>186.19999694824</ele>
        <time>2024-05-21T05:25:31.000Z</time>
      </trkpt>
      <trkpt lat="45.71261" lon="4.8804">
        <ele>186.19999694824</ele>
        <time>2024-05-21T05:25:32.000Z</time>
      </trkpt>
      <trkpt lat="45.71257" lon="4.88043">
        <ele>186.19999694824</ele>
        <time>2024-05-21T05:25:33.000Z</time>
      </trkpt>
      <trkpt lat="45.71253" lon="4.88046">
        <ele>186.19999694824</ele>
        <time>2024-05-21T05:25:34.000Z</time>
      </trkpt>
      <trkpt lat="45.71249" lon="4.8805">
        <ele>186</ele>
        <time>2024-05-21T05:25:35.000Z</time>
      </trkpt>
      <trkpt lat="45.71245" lon="4.88054">
        <ele>186</ele>
        <time>2024-05-21T05:25:36.000Z</time>
      </trkpt>
      <trkpt lat="45.71242" lon="4.88058">
        <ele>186</ele>
        <time>2024-05-21T05:25:37.000Z</time>
      </trkpt>
      <trkpt lat="45.71238" lon="4.88063">
        <ele>186</ele>
        <time>2024-05-21T05:25:38.000Z</time>
      </trkpt>
      <trkpt lat="45.71234" lon="4.88067">
        <ele>186</ele>
        <time>2024-05-21T05:25:39.000Z</time>
      </trkpt>
      <trkpt lat="45.71229" lon="4.88071">
        <ele>186</ele>
        <time>2024-05-21T05:25:40.000Z</time>
      </trkpt>
      <trkpt lat="45.71226" lon="4.88073">
        <ele>186</ele>
        <time>2024-05-21T05:25:41.000Z</time>
      </trkpt>
      <trkpt lat="45.71222" lon="4.88076">
        <ele>186</ele>
        <time>2024-05-21T05:25:42.000Z</time>
      </trkpt>
      <trkpt lat="45.71217" lon="4.8808">
        <ele>186</ele>
        <time>2024-05-21T05:25:43.000Z</time>
      </trkpt>
      <trkpt lat="45.71213" lon="4.88083">
        <ele>186</ele>
        <time>2024-05-21T05:25:44.000Z</time>
      </trkpt>
      <trkpt lat="45.71209" lon="4.88086">
        <ele>185.80000305176</ele>
        <time>2024-05-21T05:25:45.000Z</time>
      </trkpt>
      <trkpt lat="45.71205" lon="4.88089">
        <ele>185.80000305176</ele>
        <time>2024-05-21T05:25:46.000Z</time>
      </trkpt>
      <trkpt lat="45.71201" lon="4.88092">
        <ele>185.80000305176</ele>
        <time>2024-05-21T05:25:47.000Z</time>
      </trkpt>
      <trkpt lat="45.71197" lon="4.88096">
        <ele>185.80000305176</ele>
        <time>2024-05-21T05:25:48.000Z</time>
      </trkpt>
      <trkpt lat="45.71193" lon="4.88099">
        <ele>186</ele>
        <time>2024-05-21T05:25:49.000Z</time>
      </trkpt>
      <trkpt lat="45.71189" lon="4.88102">
        <ele>186</ele>
        <time>2024-05-21T05:25:50.000Z</time>
      </trkpt>
      <trkpt lat="45.71185" lon="4.88105">
        <ele>186</ele>
        <time>2024-05-21T05:25:51.000Z</time>
      </trkpt>
      <trkpt lat="45.71181" lon="4.88109">
        <ele>186</ele>
        <time>2024-05-21T05:25:52.000Z</time>
      </trkpt>
      <trkpt lat="45.71177" lon="4.88112">
        <ele>186</ele>
        <time>2024-05-21T05:25:53.000Z</time>
      </trkpt>
      <trkpt lat="45.71173" lon="4.88115">
        <ele>186</ele>
        <time>2024-05-21T05:25:54.000Z</time>
      </trkpt>
      <trkpt lat="45.71169" lon="4.88119">
        <ele>186.19999694824</ele>
        <time>2024-05-21T05:25:55.000Z</time>
      </trkpt>
      <trkpt lat="45.71165" lon="4.88122">
        <ele>186.19999694824</ele>
        <time>2024-05-21T05:25:56.000Z</time>
      </trkpt>
      <trkpt lat="45.71162" lon="4.88126">
        <ele>186.19999694824</ele>
        <time>2024-05-21T05:25:57.000Z</time>
      </trkpt>
      <trkpt lat="45.71158" lon="4.88131">
        <ele>186.19999694824</ele>
        <time>2024-05-21T05:25:58.000Z</time>
      </trkpt>
      <trkpt lat="45.71154" lon="4.88135">
        <ele>186.19999694824</ele>
        <time>2024-05-21T05:25:59.000Z</time>
      </trkpt>
      <trkpt lat="45.7115" lon="4.88139">
        <ele>186.19999694824</ele>
        <time>2024-05-21T05:26:00.000Z</time>
      </trkpt>
      <trkpt lat="45.71147" lon="4.88143">
        <ele>186.19999694824</ele>
        <time>2024-05-21T05:26:01.000Z</time>
      </trkpt>
      <trkpt lat="45.71144" lon="4.88147">
        <ele>186.19999694824</ele>
        <time>2024-05-21T05:26:02.000Z</time>
      </trkpt>
      <trkpt lat="45.7114" lon="4.88151">
        <ele>186.39999389648</ele>
        <time>2024-05-21T05:26:03.000Z</time>
      </trkpt>
      <trkpt lat="45.71137" lon="4.88156">
        <ele>186.39999389648</ele>
        <time>2024-05-21T05:26:04.000Z</time>
      </trkpt>
      <trkpt lat="45.71134" lon="4.8816">
        <ele>186.39999389648</ele>
        <time>2024-05-21T05:26:05.000Z</time>
      </trkpt>
      <trkpt lat="45.7113" lon="4.88165">
        <ele>186.39999389648</ele>
        <time>2024-05-21T05:26:06.000Z</time>
      </trkpt>
      <trkpt lat="45.71127" lon="4.8817">
        <ele>186.39999389648</ele>
        <time>2024-05-21T05:26:07.000Z</time>
      </trkpt>
      <trkpt lat="45.71124" lon="4.88175">
        <ele>186.39999389648</ele>
        <time>2024-05-21T05:26:08.000Z</time>
      </trkpt>
      <trkpt lat="45.71121" lon="4.8818">
        <ele>186.60000610352</ele>
        <time>2024-05-21T05:26:09.000Z</time>
      </trkpt>
      <trkpt lat="45.71118" lon="4.88185">
        <ele>186.39999389648</ele>
        <time>2024-05-21T05:26:10.000Z</time>
      </trkpt>
      <trkpt lat="45.71115" lon="4.88189">
        <ele>186.39999389648</ele>
        <time>2024-05-21T05:26:11.000Z</time>
      </trkpt>
      <trkpt lat="45.71112" lon="4.88195">
        <ele>186.39999389648</ele>
        <time>2024-05-21T05:26:12.000Z</time>
      </trkpt>
      <trkpt lat="45.71109" lon="4.882">
        <ele>186.39999389648</ele>
        <time>2024-05-21T05:26:13.000Z</time>
      </trkpt>
      <trkpt lat="45.71106" lon="4.88205">
        <ele>186.39999389648</ele>
        <time>2024-05-21T05:26:14.000Z</time>
      </trkpt>
      <trkpt lat="45.71103" lon="4.8821">
        <ele>186.39999389648</ele>
        <time>2024-05-21T05:26:15.000Z</time>
      </trkpt>
      <trkpt lat="45.711" lon="4.88215">
        <ele>186.39999389648</ele>
        <time>2024-05-21T05:26:16.000Z</time>
      </trkpt>
      <trkpt lat="45.71097" lon="4.8822">
        <ele>186.39999389648</ele>
        <time>2024-05-21T05:26:17.000Z</time>
      </trkpt>
      <trkpt lat="45.71094" lon="4.88224">
        <ele>186.39999389648</ele>
        <time>2024-05-21T05:26:18.000Z</time>
      </trkpt>
      <trkpt lat="45.71091" lon="4.88228">
        <ele>186.39999389648</ele>
        <time>2024-05-21T05:26:19.000Z</time>
      </trkpt>
      <trkpt lat="45.71089" lon="4.88233">
        <ele>186.60000610352</ele>
        <time>2024-05-21T05:26:20.000Z</time>
      </trkpt>
      <trkpt lat="45.71086" lon="4.88237">
        <ele>186.80000305176</ele>
        <time>2024-05-21T05:26:21.000Z</time>
      </trkpt>
      <trkpt lat="45.71083" lon="4.88241">
        <ele>186.80000305176</ele>
        <time>2024-05-21T05:26:22.000Z</time>
      </trkpt>
      <trkpt lat="45.7108" lon="4.88245">
        <ele>186.80000305176</ele>
        <time>2024-05-21T05:26:23.000Z</time>
      </trkpt>
      <trkpt lat="45.71077" lon="4.8825">
        <ele>186.80000305176</ele>
        <time>2024-05-21T05:26:24.000Z</time>
      </trkpt>
      <trkpt lat="45.71074" lon="4.88255">
        <ele>186.80000305176</ele>
        <time>2024-05-21T05:26:25.000Z</time>
      </trkpt>
      <trkpt lat="45.71072" lon="4.88259">
        <ele>186.80000305176</ele>
        <time>2024-05-21T05:26:26.000Z</time>
      </trkpt>
      <trkpt lat="45.71069" lon="4.88263">
        <ele>186.80000305176</ele>
        <time>2024-05-21T05:26:27.000Z</time>
      </trkpt>
      <trkpt lat="45.71067" lon="4.88267">
        <ele>186.80000305176</ele>
        <time>2024-05-21T05:26:28.000Z</time>
      </trkpt>
      <trkpt lat="45.71064" lon="4.88272">
        <ele>186.80000305176</ele>
        <time>2024-05-21T05:26:29.000Z</time>
      </trkpt>
      <trkpt lat="45.71061" lon="4.88277">
        <ele>186.80000305176</ele>
        <time>2024-05-21T05:26:30.000Z</time>
      </trkpt>
      <trkpt lat="45.71059" lon="4.88282">
        <ele>186.80000305176</ele>
        <time>2024-05-21T05:26:31.000Z</time>
      </trkpt>
      <trkpt lat="45.71056" lon="4.88286">
        <ele>186.80000305176</ele>
        <time>2024-05-21T05:26:32.000Z</time>
      </trkpt>
      <trkpt lat="45.71053" lon="4.88291">
        <ele>186.80000305176</ele>
        <time>2024-05-21T05:26:33.000Z</time>
      </trkpt>
      <trkpt lat="45.7105" lon="4.88297">
        <ele>186.80000305176</ele>
        <time>2024-05-21T05:26:34.000Z</time>
      </trkpt>
      <trkpt lat="45.71047" lon="4.88301">
        <ele>186.80000305176</ele>
        <time>2024-05-21T05:26:35.000Z</time>
      </trkpt>
      <trkpt lat="45.71044" lon="4.88306">
        <ele>186.80000305176</ele>
        <time>2024-05-21T05:26:36.000Z</time>
      </trkpt>
      <trkpt lat="45.71041" lon="4.88311">
        <ele>186.80000305176</ele>
        <time>2024-05-21T05:26:37.000Z</time>
      </trkpt>
      <trkpt lat="45.71038" lon="4.88315">
        <ele>186.80000305176</ele>
        <time>2024-05-21T05:26:38.000Z</time>
      </trkpt>
      <trkpt lat="45.71036" lon="4.88319">
        <ele>186.80000305176</ele>
        <time>2024-05-21T05:26:39.000Z</time>
      </trkpt>
      <trkpt lat="45.71033" lon="4.88324">
        <ele>186.80000305176</ele>
        <time>2024-05-21T05:26:40.000Z</time>
      </trkpt>
      <trkpt lat="45.71029" lon="4.8833">
        <ele>186.80000305176</ele>
        <time>2024-05-21T05:26:41.000Z</time>
      </trkpt>
      <trkpt lat="45.71026" lon="4.88335">
        <ele>186.80000305176</ele>
        <time>2024-05-21T05:26:42.000Z</time>
      </trkpt>
      <trkpt lat="45.71024" lon="4.8834">
        <ele>187</ele>
        <time>2024-05-21T05:26:43.000Z</time>
      </trkpt>
      <trkpt lat="45.7102" lon="4.88346">
        <ele>187</ele>
        <time>2024-05-21T05:26:44.000Z</time>
      </trkpt>
      <trkpt lat="45.71017" lon="4.88351">
        <ele>187</ele>
        <time>2024-05-21T05:26:45.000Z</time>
      </trkpt>
      <trkpt lat="45.71015" lon="4.88355">
        <ele>187</ele>
        <time>2024-05-21T05:26:46.000Z</time>
      </trkpt>
      <trkpt lat="45.71011" lon="4.8836">
        <ele>187</ele>
        <time>2024-05-21T05:26:47.000Z</time>
      </trkpt>
      <trkpt lat="45.71008" lon="4.88365">
        <ele>187</ele>
        <time>2024-05-21T05:26:48.000Z</time>
      </trkpt>
      <trkpt lat="45.71005" lon="4.88369">
        <ele>187.19999694824</ele>
        <time>2024-05-21T05:26:49.000Z</time>
      </trkpt>
      <trkpt lat="45.71002" lon="4.88373">
        <ele>187.19999694824</ele>
        <time>2024-05-21T05:26:50.000Z</time>
      </trkpt>
      <trkpt lat="45.70999" lon="4.88378">
        <ele>187.19999694824</ele>
        <time>2024-05-21T05:26:51.000Z</time>
      </trkpt>
      <trkpt lat="45.70997" lon="4.88383">
        <ele>187.19999694824</ele>
        <time>2024-05-21T05:26:52.000Z</time>
      </trkpt>
      <trkpt lat="45.70994" lon="4.88388">
        <ele>187.39999389648</ele>
        <time>2024-05-21T05:26:53.000Z</time>
      </trkpt>
      <trkpt lat="45.70991" lon="4.88393">
        <ele>187.39999389648</ele>
        <time>2024-05-21T05:26:54.000Z</time>
      </trkpt>
      <trkpt lat="45.70988" lon="4.88398">
        <ele>187.39999389648</ele>
        <time>2024-05-21T05:26:55.000Z</time>
      </trkpt>
      <trkpt lat="45.70984" lon="4.88404">
        <ele>187.39999389648</ele>
        <time>2024-05-21T05:26:56.000Z</time>
      </trkpt>
      <trkpt lat="45.70982" lon="4.88407">
        <ele>187.39999389648</ele>
        <time>2024-05-21T05:26:57.000Z</time>
      </trkpt>
      <trkpt lat="45.70979" lon="4.88412">
        <ele>187.60000610352</ele>
        <time>2024-05-21T05:26:58.000Z</time>
      </trkpt>
      <trkpt lat="45.70976" lon="4.88417">
        <ele>187.60000610352</ele>
        <time>2024-05-21T05:26:59.000Z</time>
      </trkpt>
      <trkpt lat="45.70972" lon="4.88424">
        <ele>187.60000610352</ele>
        <time>2024-05-21T05:27:00.000Z</time>
      </trkpt>
      <trkpt lat="45.70969" lon="4.88428">
        <ele>187.60000610352</ele>
        <time>2024-05-21T05:27:01.000Z</time>
      </trkpt>
      <trkpt lat="45.70966" lon="4.88432">
        <ele>187.60000610352</ele>
        <time>2024-05-21T05:27:02.000Z</time>
      </trkpt>
      <trkpt lat="45.70963" lon="4.88437">
        <ele>187.60000610352</ele>
        <time>2024-05-21T05:27:03.000Z</time>
      </trkpt>
      <trkpt lat="45.7096" lon="4.88441">
        <ele>187.60000610352</ele>
        <time>2024-05-21T05:27:04.000Z</time>
      </trkpt>
      <trkpt lat="45.70957" lon="4.88446">
        <ele>187.60000610352</ele>
        <time>2024-05-21T05:27:05.000Z</time>
      </trkpt>
      <trkpt lat="45.70954" lon="4.88451">
        <ele>187.60000610352</ele>
        <time>2024-05-21T05:27:06.000Z</time>
      </trkpt>
      <trkpt lat="45.70951" lon="4.88456">
        <ele>187.80000305176</ele>
        <time>2024-05-21T05:27:07.000Z</time>
      </trkpt>
      <trkpt lat="45.70947" lon="4.88461">
        <ele>187.80000305176</ele>
        <time>2024-05-21T05:27:08.000Z</time>
      </trkpt>
      <trkpt lat="45.70944" lon="4.88466">
        <ele>187.80000305176</ele>
        <time>2024-05-21T05:27:09.000Z</time>
      </trkpt>
      <trkpt lat="45.70942" lon="4.88472">
        <ele>187.80000305176</ele>
        <time>2024-05-21T05:27:10.000Z</time>
      </trkpt>
      <trkpt lat="45.70939" lon="4.88477">
        <ele>188</ele>
        <time>2024-05-21T05:27:11.000Z</time>
      </trkpt>
      <trkpt lat="45.70937" lon="4.88482">
        <ele>188</ele>
        <time>2024-05-21T05:27:12.000Z</time>
      </trkpt>
      <trkpt lat="45.70933" lon="4.88487">
        <ele>188</ele>
        <time>2024-05-21T05:27:13.000Z</time>
      </trkpt>
      <trkpt lat="45.7093" lon="4.88492">
        <ele>188</ele>
        <time>2024-05-21T05:27:14.000Z</time>
      </trkpt>
      <trkpt lat="45.70926" lon="4.88497">
        <ele>188</ele>
        <time>2024-05-21T05:27:15.000Z</time>
      </trkpt>
      <trkpt lat="45.70923" lon="4.88502">
        <ele>188</ele>
        <time>2024-05-21T05:27:16.000Z</time>
      </trkpt>
      <trkpt lat="45.7092" lon="4.88508">
        <ele>188.19999694824</ele>
        <time>2024-05-21T05:27:17.000Z</time>
      </trkpt>
      <trkpt lat="45.70916" lon="4.88514">
        <ele>188.19999694824</ele>
        <time>2024-05-21T05:27:18.000Z</time>
      </trkpt>
      <trkpt lat="45.70913" lon="4.88518">
        <ele>188.19999694824</ele>
        <time>2024-05-21T05:27:19.000Z</time>
      </trkpt>
      <trkpt lat="45.7091" lon="4.88524">
        <ele>188.39999389648</ele>
        <time>2024-05-21T05:27:20.000Z</time>
      </trkpt>
      <trkpt lat="45.70906" lon="4.8853">
        <ele>188.39999389648</ele>
        <time>2024-05-21T05:27:21.000Z</time>
      </trkpt>
      <trkpt lat="45.70903" lon="4.88535">
        <ele>188.39999389648</ele>
        <time>2024-05-21T05:27:22.000Z</time>
      </trkpt>
      <trkpt lat="45.709" lon="4.88539">
        <ele>188.39999389648</ele>
        <time>2024-05-21T05:27:23.000Z</time>
      </trkpt>
      <trkpt lat="45.70897" lon="4.88544">
        <ele>188.60000610352</ele>
        <time>2024-05-21T05:27:24.000Z</time>
      </trkpt>
      <trkpt lat="45.70894" lon="4.88548">
        <ele>188.60000610352</ele>
        <time>2024-05-21T05:27:25.000Z</time>
      </trkpt>
      <trkpt lat="45.70891" lon="4.88554">
        <ele>188.60000610352</ele>
        <time>2024-05-21T05:27:26.000Z</time>
      </trkpt>
      <trkpt lat="45.70888" lon="4.88559">
        <ele>188.60000610352</ele>
        <time>2024-05-21T05:27:27.000Z</time>
      </trkpt>
      <trkpt lat="45.70886" lon="4.88563">
        <ele>188.60000610352</ele>
        <time>2024-05-21T05:27:28.000Z</time>
      </trkpt>
      <trkpt lat="45.70882" lon="4.88569">
        <ele>188.60000610352</ele>
        <time>2024-05-21T05:27:29.000Z</time>
      </trkpt>
      <trkpt lat="45.70879" lon="4.88574">
        <ele>188.80000305176</ele>
        <time>2024-05-21T05:27:30.000Z</time>
      </trkpt>
      <trkpt lat="45.70877" lon="4.88578">
        <ele>188.80000305176</ele>
        <time>2024-05-21T05:27:31.000Z</time>
      </trkpt>
      <trkpt lat="45.70874" lon="4.88582">
        <ele>189</ele>
        <time>2024-05-21T05:27:32.000Z</time>
      </trkpt>
      <trkpt lat="45.70871" lon="4.88587">
        <ele>189</ele>
        <time>2024-05-21T05:27:33.000Z</time>
      </trkpt>
      <trkpt lat="45.70868" lon="4.88591">
        <ele>189</ele>
        <time>2024-05-21T05:27:34.000Z</time>
      </trkpt>
      <trkpt lat="45.70865" lon="4.88597">
        <ele>189</ele>
        <time>2024-05-21T05:27:35.000Z</time>
      </trkpt>
      <trkpt lat="45.70863" lon="4.88601">
        <ele>189</ele>
        <time>2024-05-21T05:27:36.000Z</time>
      </trkpt>
      <trkpt lat="45.7086" lon="4.88605">
        <ele>189</ele>
        <time>2024-05-21T05:27:37.000Z</time>
      </trkpt>
      <trkpt lat="45.70857" lon="4.8861">
        <ele>189</ele>
        <time>2024-05-21T05:27:38.000Z</time>
      </trkpt>
      <trkpt lat="45.70854" lon="4.88615">
        <ele>189</ele>
        <time>2024-05-21T05:27:39.000Z</time>
      </trkpt>
      <trkpt lat="45.70851" lon="4.88619">
        <ele>189</ele>
        <time>2024-05-21T05:27:40.000Z</time>
      </trkpt>
      <trkpt lat="45.70848" lon="4.88623">
        <ele>189</ele>
        <time>2024-05-21T05:27:41.000Z</time>
      </trkpt>
      <trkpt lat="45.70844" lon="4.88627">
        <ele>189</ele>
        <time>2024-05-21T05:27:42.000Z</time>
      </trkpt>
      <trkpt lat="45.70842" lon="4.8863">
        <ele>189.39999389648</ele>
        <time>2024-05-21T05:27:43.000Z</time>
      </trkpt>
      <trkpt lat="45.70838" lon="4.88635">
        <ele>189.39999389648</ele>
        <time>2024-05-21T05:27:44.000Z</time>
      </trkpt>
      <trkpt lat="45.70836" lon="4.88639">
        <ele>189.39999389648</ele>
        <time>2024-05-21T05:27:45.000Z</time>
      </trkpt>
      <trkpt lat="45.70833" lon="4.88642">
        <ele>189.39999389648</ele>
        <time>2024-05-21T05:27:46.000Z</time>
      </trkpt>
      <trkpt lat="45.7083" lon="4.88648">
        <ele>189.39999389648</ele>
        <time>2024-05-21T05:27:47.000Z</time>
      </trkpt>
      <trkpt lat="45.70828" lon="4.88651">
        <ele>189.39999389648</ele>
        <time>2024-05-21T05:27:48.000Z</time>
      </trkpt>
      <trkpt lat="45.70825" lon="4.88656">
        <ele>189.39999389648</ele>
        <time>2024-05-21T05:27:49.000Z</time>
      </trkpt>
      <trkpt lat="45.70822" lon="4.88662">
        <ele>189.39999389648</ele>
        <time>2024-05-21T05:27:50.000Z</time>
      </trkpt>
      <trkpt lat="45.7082" lon="4.88666">
        <ele>189.39999389648</ele>
        <time>2024-05-21T05:27:51.000Z</time>
      </trkpt>
      <trkpt lat="45.70818" lon="4.8867">
        <ele>189.39999389648</ele>
        <time>2024-05-21T05:27:52.000Z</time>
      </trkpt>
      <trkpt lat="45.70815" lon="4.88675">
        <ele>189.60000610352</ele>
        <time>2024-05-21T05:27:53.000Z</time>
      </trkpt>
      <trkpt lat="45.70812" lon="4.88679">
        <ele>189.60000610352</ele>
        <time>2024-05-21T05:27:54.000Z</time>
      </trkpt>
      <trkpt lat="45.7081" lon="4.88683">
        <ele>189.60000610352</ele>
        <time>2024-05-21T05:27:55.000Z</time>
      </trkpt>
      <trkpt lat="45.70806" lon="4.88687">
        <ele>189.60000610352</ele>
        <time>2024-05-21T05:27:56.000Z</time>
      </trkpt>
      <trkpt lat="45.70803" lon="4.88689">
        <ele>189.60000610352</ele>
        <time>2024-05-21T05:27:57.000Z</time>
      </trkpt>
      <trkpt lat="45.708" lon="4.88691">
        <ele>189.60000610352</ele>
        <time>2024-05-21T05:27:58.000Z</time>
      </trkpt>
      <trkpt lat="45.70797" lon="4.88694">
        <ele>189.60000610352</ele>
        <time>2024-05-21T05:27:59.000Z</time>
      </trkpt>
      <trkpt lat="45.70793" lon="4.88696">
        <ele>189.60000610352</ele>
        <time>2024-05-21T05:28:00.000Z</time>
      </trkpt>
      <trkpt lat="45.7079" lon="4.88698">
        <ele>189.60000610352</ele>
        <time>2024-05-21T05:28:01.000Z</time>
      </trkpt>
      <trkpt lat="45.70786" lon="4.88701">
        <ele>189.60000610352</ele>
        <time>2024-05-21T05:28:02.000Z</time>
      </trkpt>
      <trkpt lat="45.70783" lon="4.88703">
        <ele>189.60000610352</ele>
        <time>2024-05-21T05:28:03.000Z</time>
      </trkpt>
      <trkpt lat="45.7078" lon="4.88706">
        <ele>189.60000610352</ele>
        <time>2024-05-21T05:28:04.000Z</time>
      </trkpt>
      <trkpt lat="45.70776" lon="4.88708">
        <ele>189.60000610352</ele>
        <time>2024-05-21T05:28:05.000Z</time>
      </trkpt>
      <trkpt lat="45.70774" lon="4.88709">
        <ele>189.60000610352</ele>
        <time>2024-05-21T05:28:06.000Z</time>
      </trkpt>
      <trkpt lat="45.70771" lon="4.8871">
        <ele>189.80000305176</ele>
        <time>2024-05-21T05:28:07.000Z</time>
      </trkpt>
      <trkpt lat="45.70768" lon="4.88712">
        <ele>189.80000305176</ele>
        <time>2024-05-21T05:28:08.000Z</time>
      </trkpt>
      <trkpt lat="45.70765" lon="4.88714">
        <ele>189.80000305176</ele>
        <time>2024-05-21T05:28:09.000Z</time>
      </trkpt>
      <trkpt lat="45.70761" lon="4.88715">
        <ele>190</ele>
        <time>2024-05-21T05:28:10.000Z</time>
      </trkpt>
      <trkpt lat="45.70758" lon="4.88717">
        <ele>190</ele>
        <time>2024-05-21T05:28:11.000Z</time>
      </trkpt>
      <trkpt lat="45.70754" lon="4.88719">
        <ele>190.19999694824</ele>
        <time>2024-05-21T05:28:12.000Z</time>
      </trkpt>
      <trkpt lat="45.7075" lon="4.88721">
        <ele>190.19999694824</ele>
        <time>2024-05-21T05:28:13.000Z</time>
      </trkpt>
      <trkpt lat="45.70746" lon="4.88723">
        <ele>190.39999389648</ele>
        <time>2024-05-21T05:28:14.000Z</time>
      </trkpt>
      <trkpt lat="45.70742" lon="4.88725">
        <ele>190.39999389648</ele>
        <time>2024-05-21T05:28:15.000Z</time>
      </trkpt>
      <trkpt lat="45.70737" lon="4.88728">
        <ele>190.39999389648</ele>
        <time>2024-05-21T05:28:16.000Z</time>
      </trkpt>
      <trkpt lat="45.70733" lon="4.88729">
        <ele>190.60000610352</ele>
        <time>2024-05-21T05:28:17.000Z</time>
      </trkpt>
      <trkpt lat="45.7073" lon="4.8873">
        <ele>190.80000305176</ele>
        <time>2024-05-21T05:28:18.000Z</time>
      </trkpt>
      <trkpt lat="45.70726" lon="4.88732">
        <ele>191</ele>
        <time>2024-05-21T05:28:19.000Z</time>
      </trkpt>
      <trkpt lat="45.70722" lon="4.88733">
        <ele>191.19999694824</ele>
        <time>2024-05-21T05:28:20.000Z</time>
      </trkpt>
      <trkpt lat="45.70717" lon="4.88734">
        <ele>191.19999694824</ele>
        <time>2024-05-21T05:28:21.000Z</time>
      </trkpt>
      <trkpt lat="45.70713" lon="4.88735">
        <ele>191.39999389648</ele>
        <time>2024-05-21T05:28:22.000Z</time>
      </trkpt>
      <trkpt lat="45.70709" lon="4.88736">
        <ele>191.39999389648</ele>
        <time>2024-05-21T05:28:23.000Z</time>
      </trkpt>
      <trkpt lat="45.70706" lon="4.88736">
        <ele>191.60000610352</ele>
        <time>2024-05-21T05:28:24.000Z</time>
      </trkpt>
      <trkpt lat="45.70701" lon="4.88737">
        <ele>191.60000610352</ele>
        <time>2024-05-21T05:28:25.000Z</time>
      </trkpt>
      <trkpt lat="45.70698" lon="4.88738">
        <ele>191.80000305176</ele>
        <time>2024-05-21T05:28:26.000Z</time>
      </trkpt>
      <trkpt lat="45.70695" lon="4.88738">
        <ele>191.80000305176</ele>
        <time>2024-05-21T05:28:27.000Z</time>
      </trkpt>
      <trkpt lat="45.70691" lon="4.88737">
        <ele>192</ele>
        <time>2024-05-21T05:28:28.000Z</time>
      </trkpt>
      <trkpt lat="45.70687" lon="4.88737">
        <ele>192.19999694824</ele>
        <time>2024-05-21T05:28:29.000Z</time>
      </trkpt>
      <trkpt lat="45.70683" lon="4.88736">
        <ele>192.19999694824</ele>
        <time>2024-05-21T05:28:30.000Z</time>
      </trkpt>
      <trkpt lat="45.70679" lon="4.88736">
        <ele>192.39999389648</ele>
        <time>2024-05-21T05:28:31.000Z</time>
      </trkpt>
      <trkpt lat="45.70675" lon="4.88736">
        <ele>192.39999389648</ele>
        <time>2024-05-21T05:28:32.000Z</time>
      </trkpt>
      <trkpt lat="45.70672" lon="4.88736">
        <ele>192.60000610352</ele>
        <time>2024-05-21T05:28:33.000Z</time>
      </trkpt>
      <trkpt lat="45.70668" lon="4.88736">
        <ele>192.60000610352</ele>
        <time>2024-05-21T05:28:34.000Z</time>
      </trkpt>
      <trkpt lat="45.70664" lon="4.88736">
        <ele>192.80000305176</ele>
        <time>2024-05-21T05:28:35.000Z</time>
      </trkpt>
      <trkpt lat="45.70659" lon="4.88736">
        <ele>193</ele>
        <time>2024-05-21T05:28:36.000Z</time>
      </trkpt>
      <trkpt lat="45.70655" lon="4.88736">
        <ele>193.19999694824</ele>
        <time>2024-05-21T05:28:37.000Z</time>
      </trkpt>
      <trkpt lat="45.70652" lon="4.88736">
        <ele>193.19999694824</ele>
        <time>2024-05-21T05:28:38.000Z</time>
      </trkpt>
      <trkpt lat="45.70649" lon="4.88736">
        <ele>193.39999389648</ele>
        <time>2024-05-21T05:28:39.000Z</time>
      </trkpt>
      <trkpt lat="45.70645" lon="4.88736">
        <ele>193.39999389648</ele>
        <time>2024-05-21T05:28:40.000Z</time>
      </trkpt>
      <trkpt lat="45.70642" lon="4.88736">
        <ele>193.60000610352</ele>
        <time>2024-05-21T05:28:41.000Z</time>
      </trkpt>
      <trkpt lat="45.70638" lon="4.88736">
        <ele>193.80000305176</ele>
        <time>2024-05-21T05:28:42.000Z</time>
      </trkpt>
      <trkpt lat="45.70634" lon="4.88737">
        <ele>194</ele>
        <time>2024-05-21T05:28:43.000Z</time>
      </trkpt>
      <trkpt lat="45.7063" lon="4.88737">
        <ele>194.19999694824</ele>
        <time>2024-05-21T05:28:44.000Z</time>
      </trkpt>
      <trkpt lat="45.70627" lon="4.88737">
        <ele>194.19999694824</ele>
        <time>2024-05-21T05:28:45.000Z</time>
      </trkpt>
      <trkpt lat="45.70624" lon="4.88737">
        <ele>194.19999694824</ele>
        <time>2024-05-21T05:28:46.000Z</time>
      </trkpt>
      <trkpt lat="45.70619" lon="4.88737">
        <ele>194.39999389648</ele>
        <time>2024-05-21T05:28:47.000Z</time>
      </trkpt>
      <trkpt lat="45.70616" lon="4.88737">
        <ele>194.39999389648</ele>
        <time>2024-05-21T05:28:48.000Z</time>
      </trkpt>
      <trkpt lat="45.70612" lon="4.88737">
        <ele>194.39999389648</ele>
        <time>2024-05-21T05:28:49.000Z</time>
      </trkpt>
      <trkpt lat="45.70609" lon="4.88737">
        <ele>194.60000610352</ele>
        <time>2024-05-21T05:28:50.000Z</time>
      </trkpt>
      <trkpt lat="45.70605" lon="4.88737">
        <ele>194.60000610352</ele>
        <time>2024-05-21T05:28:51.000Z</time>
      </trkpt>
      <trkpt lat="45.706" lon="4.88737">
        <ele>194.60000610352</ele>
        <time>2024-05-21T05:28:52.000Z</time>
      </trkpt>
      <trkpt lat="45.70596" lon="4.88737">
        <ele>194.80000305176</ele>
        <time>2024-05-21T05:28:53.000Z</time>
      </trkpt>
      <trkpt lat="45.70593" lon="4.88738">
        <ele>194.80000305176</ele>
        <time>2024-05-21T05:28:54.000Z</time>
      </trkpt>
      <trkpt lat="45.70589" lon="4.88738">
        <ele>194.80000305176</ele>
        <time>2024-05-21T05:28:55.000Z</time>
      </trkpt>
      <trkpt lat="45.70585" lon="4.88738">
        <ele>195</ele>
        <time>2024-05-21T05:28:56.000Z</time>
      </trkpt>
      <trkpt lat="45.70582" lon="4.88738">
        <ele>195.19999694824</ele>
        <time>2024-05-21T05:28:57.000Z</time>
      </trkpt>
      <trkpt lat="45.70578" lon="4.88738">
        <ele>195.19999694824</ele>
        <time>2024-05-21T05:28:58.000Z</time>
      </trkpt>
      <trkpt lat="45.70573" lon="4.88738">
        <ele>195.19999694824</ele>
        <time>2024-05-21T05:28:59.000Z</time>
      </trkpt>
      <trkpt lat="45.7057" lon="4.88738">
        <ele>195.39999389648</ele>
        <time>2024-05-21T05:29:00.000Z</time>
      </trkpt>
      <trkpt lat="45.70566" lon="4.88738">
        <ele>195.60000610352</ele>
        <time>2024-05-21T05:29:01.000Z</time>
      </trkpt>
      <trkpt lat="45.70562" lon="4.88739">
        <ele>195.60000610352</ele>
        <time>2024-05-21T05:29:02.000Z</time>
      </trkpt>
      <trkpt lat="45.70558" lon="4.8874">
        <ele>195.60000610352</ele>
        <time>2024-05-21T05:29:03.000Z</time>
      </trkpt>
      <trkpt lat="45.70553" lon="4.88741">
        <ele>195.80000305176</ele>
        <time>2024-05-21T05:29:04.000Z</time>
      </trkpt>
      <trkpt lat="45.70548" lon="4.88741">
        <ele>195.80000305176</ele>
        <time>2024-05-21T05:29:05.000Z</time>
      </trkpt>
      <trkpt lat="45.70545" lon="4.88741">
        <ele>195.80000305176</ele>
        <time>2024-05-21T05:29:06.000Z</time>
      </trkpt>
      <trkpt lat="45.7054" lon="4.88741">
        <ele>196</ele>
        <time>2024-05-21T05:29:07.000Z</time>
      </trkpt>
      <trkpt lat="45.70536" lon="4.88741">
        <ele>196</ele>
        <time>2024-05-21T05:29:08.000Z</time>
      </trkpt>
      <trkpt lat="45.70532" lon="4.88741">
        <ele>196.19999694824</ele>
        <time>2024-05-21T05:29:09.000Z</time>
      </trkpt>
      <trkpt lat="45.70528" lon="4.88741">
        <ele>196.19999694824</ele>
        <time>2024-05-21T05:29:10.000Z</time>
      </trkpt>
      <trkpt lat="45.70524" lon="4.88741">
        <ele>196.19999694824</ele>
        <time>2024-05-21T05:29:11.000Z</time>
      </trkpt>
      <trkpt lat="45.7052" lon="4.88741">
        <ele>196.39999389648</ele>
        <time>2024-05-21T05:29:12.000Z</time>
      </trkpt>
      <trkpt lat="45.70516" lon="4.88741">
        <ele>196.39999389648</ele>
        <time>2024-05-21T05:29:13.000Z</time>
      </trkpt>
      <trkpt lat="45.70513" lon="4.8874">
        <ele>196.39999389648</ele>
        <time>2024-05-21T05:29:14.000Z</time>
      </trkpt>
      <trkpt lat="45.70509" lon="4.8874">
        <ele>196.39999389648</ele>
        <time>2024-05-21T05:29:15.000Z</time>
      </trkpt>
      <trkpt lat="45.70505" lon="4.8874">
        <ele>196.39999389648</ele>
        <time>2024-05-21T05:29:16.000Z</time>
      </trkpt>
      <trkpt lat="45.70501" lon="4.88739">
        <ele>196.19999694824</ele>
        <time>2024-05-21T05:29:17.000Z</time>
      </trkpt>
      <trkpt lat="45.70497" lon="4.88738">
        <ele>196.19999694824</ele>
        <time>2024-05-21T05:29:18.000Z</time>
      </trkpt>
      <trkpt lat="45.70492" lon="4.88738">
        <ele>196.19999694824</ele>
        <time>2024-05-21T05:29:19.000Z</time>
      </trkpt>
      <trkpt lat="45.70487" lon="4.88738">
        <ele>196</ele>
        <time>2024-05-21T05:29:20.000Z</time>
      </trkpt>
      <trkpt lat="45.70482" lon="4.88738">
        <ele>196</ele>
        <time>2024-05-21T05:29:21.000Z</time>
      </trkpt>
      <trkpt lat="45.70478" lon="4.88739">
        <ele>196</ele>
        <time>2024-05-21T05:29:22.000Z</time>
      </trkpt>
      <trkpt lat="45.70474" lon="4.88739">
        <ele>195.80000305176</ele>
        <time>2024-05-21T05:29:23.000Z</time>
      </trkpt>
      <trkpt lat="45.7047" lon="4.88739">
        <ele>195.80000305176</ele>
        <time>2024-05-21T05:29:24.000Z</time>
      </trkpt>
      <trkpt lat="45.70464" lon="4.8874">
        <ele>195.80000305176</ele>
        <time>2024-05-21T05:29:25.000Z</time>
      </trkpt>
      <trkpt lat="45.70461" lon="4.8874">
        <ele>195.60000610352</ele>
        <time>2024-05-21T05:29:26.000Z</time>
      </trkpt>
      <trkpt lat="45.70455" lon="4.8874">
        <ele>195.60000610352</ele>
        <time>2024-05-21T05:29:27.000Z</time>
      </trkpt>
      <trkpt lat="45.70451" lon="4.8874">
        <ele>195.60000610352</ele>
        <time>2024-05-21T05:29:28.000Z</time>
      </trkpt>
      <trkpt lat="45.70448" lon="4.8874">
        <ele>195.39999389648</ele>
        <time>2024-05-21T05:29:29.000Z</time>
      </trkpt>
      <trkpt lat="45.70442" lon="4.8874">
        <ele>195.19999694824</ele>
        <time>2024-05-21T05:29:30.000Z</time>
      </trkpt>
      <trkpt lat="45.70438" lon="4.8874">
        <ele>195.19999694824</ele>
        <time>2024-05-21T05:29:31.000Z</time>
      </trkpt>
      <trkpt lat="45.70434" lon="4.8874">
        <ele>195.19999694824</ele>
        <time>2024-05-21T05:29:32.000Z</time>
      </trkpt>
      <trkpt lat="45.7043" lon="4.8874">
        <ele>195.19999694824</ele>
        <time>2024-05-21T05:29:33.000Z</time>
      </trkpt>
      <trkpt lat="45.70424" lon="4.88741">
        <ele>195</ele>
        <time>2024-05-21T05:29:34.000Z</time>
      </trkpt>
      <trkpt lat="45.7042" lon="4.88741">
        <ele>194.80000305176</ele>
        <time>2024-05-21T05:29:35.000Z</time>
      </trkpt>
      <trkpt lat="45.70416" lon="4.88741">
        <ele>194.80000305176</ele>
        <time>2024-05-21T05:29:36.000Z</time>
      </trkpt>
      <trkpt lat="45.70411" lon="4.88741">
        <ele>194.80000305176</ele>
        <time>2024-05-21T05:29:37.000Z</time>
      </trkpt>
      <trkpt lat="45.70407" lon="4.8874">
        <ele>194.80000305176</ele>
        <time>2024-05-21T05:29:38.000Z</time>
      </trkpt>
      <trkpt lat="45.70404" lon="4.8874">
        <ele>194.80000305176</ele>
        <time>2024-05-21T05:29:39.000Z</time>
      </trkpt>
      <trkpt lat="45.70399" lon="4.8874">
        <ele>194.80000305176</ele>
        <time>2024-05-21T05:29:40.000Z</time>
      </trkpt>
      <trkpt lat="45.70397" lon="4.8874">
        <ele>194.80000305176</ele>
        <time>2024-05-21T05:29:41.000Z</time>
      </trkpt>
      <trkpt lat="45.70393" lon="4.88741">
        <ele>194.80000305176</ele>
        <time>2024-05-21T05:29:42.000Z</time>
      </trkpt>
      <trkpt lat="45.70391" lon="4.88742">
        <ele>194.80000305176</ele>
        <time>2024-05-21T05:29:43.000Z</time>
      </trkpt>
      <trkpt lat="45.70389" lon="4.88743">
        <ele>194.80000305176</ele>
        <time>2024-05-21T05:29:44.000Z</time>
      </trkpt>
      <trkpt lat="45.70387" lon="4.88744">
        <ele>194.80000305176</ele>
        <time>2024-05-21T05:29:45.000Z</time>
      </trkpt>
      <trkpt lat="45.70383" lon="4.88744">
        <ele>194.80000305176</ele>
        <time>2024-05-21T05:29:46.000Z</time>
      </trkpt>
      <trkpt lat="45.70381" lon="4.88744">
        <ele>194.80000305176</ele>
        <time>2024-05-21T05:29:47.000Z</time>
      </trkpt>
      <trkpt lat="45.70378" lon="4.88744">
        <ele>194.80000305176</ele>
        <time>2024-05-21T05:29:48.000Z</time>
      </trkpt>
      <trkpt lat="45.70374" lon="4.88743">
        <ele>194.80000305176</ele>
        <time>2024-05-21T05:29:49.000Z</time>
      </trkpt>
      <trkpt lat="45.70371" lon="4.88742">
        <ele>194.80000305176</ele>
        <time>2024-05-21T05:29:50.000Z</time>
      </trkpt>
      <trkpt lat="45.70368" lon="4.88742">
        <ele>194.80000305176</ele>
        <time>2024-05-21T05:29:51.000Z</time>
      </trkpt>
      <trkpt lat="45.70365" lon="4.88742">
        <ele>194.60000610352</ele>
        <time>2024-05-21T05:29:52.000Z</time>
      </trkpt>
      <trkpt lat="45.70361" lon="4.88742">
        <ele>194.60000610352</ele>
        <time>2024-05-21T05:29:53.000Z</time>
      </trkpt>
      <trkpt lat="45.70357" lon="4.88742">
        <ele>194.60000610352</ele>
        <time>2024-05-21T05:29:54.000Z</time>
      </trkpt>
      <trkpt lat="45.70353" lon="4.88741">
        <ele>194.39999389648</ele>
        <time>2024-05-21T05:29:55.000Z</time>
      </trkpt>
      <trkpt lat="45.70349" lon="4.88741">
        <ele>194.39999389648</ele>
        <time>2024-05-21T05:29:56.000Z</time>
      </trkpt>
      <trkpt lat="45.70346" lon="4.88741">
        <ele>194.39999389648</ele>
        <time>2024-05-21T05:29:57.000Z</time>
      </trkpt>
      <trkpt lat="45.70342" lon="4.88741">
        <ele>194.39999389648</ele>
        <time>2024-05-21T05:29:58.000Z</time>
      </trkpt>
      <trkpt lat="45.70339" lon="4.8874">
        <ele>194.39999389648</ele>
        <time>2024-05-21T05:29:59.000Z</time>
      </trkpt>
      <trkpt lat="45.70336" lon="4.88741">
        <ele>194.39999389648</ele>
        <time>2024-05-21T05:30:00.000Z</time>
      </trkpt>
      <trkpt lat="45.70334" lon="4.88741">
        <ele>194.39999389648</ele>
        <time>2024-05-21T05:30:01.000Z</time>
      </trkpt>
      <trkpt lat="45.70333" lon="4.88742">
        <ele>194.39999389648</ele>
        <time>2024-05-21T05:30:02.000Z</time>
      </trkpt>
      <trkpt lat="45.70332" lon="4.88743">
        <ele>194.39999389648</ele>
        <time>2024-05-21T05:30:03.000Z</time>
      </trkpt>
      <trkpt lat="45.70332" lon="4.88743">
        <ele>194.39999389648</ele>
        <time>2024-05-21T05:30:04.000Z</time>
      </trkpt>
      <trkpt lat="45.70328" lon="4.88743">
        <ele>194</ele>
        <time>2024-05-21T05:30:55.000Z</time>
      </trkpt>
      <trkpt lat="45.70326" lon="4.88742">
        <ele>193.80000305176</ele>
        <time>2024-05-21T05:30:56.000Z</time>
      </trkpt>
      <trkpt lat="45.70324" lon="4.88741">
        <ele>193.80000305176</ele>
        <time>2024-05-21T05:30:57.000Z</time>
      </trkpt>
      <trkpt lat="45.70322" lon="4.88741">
        <ele>193.80000305176</ele>
        <time>2024-05-21T05:30:58.000Z</time>
      </trkpt>
      <trkpt lat="45.70321" lon="4.88739">
        <ele>193.80000305176</ele>
        <time>2024-05-21T05:30:59.000Z</time>
      </trkpt>
      <trkpt lat="45.70319" lon="4.88738">
        <ele>193.80000305176</ele>
        <time>2024-05-21T05:31:00.000Z</time>
      </trkpt>
      <trkpt lat="45.70318" lon="4.88738">
        <ele>193.80000305176</ele>
        <time>2024-05-21T05:31:01.000Z</time>
      </trkpt>
      <trkpt lat="45.70318" lon="4.88738">
        <ele>193.80000305176</ele>
        <time>2024-05-21T05:31:02.000Z</time>
      </trkpt>
      <trkpt lat="45.70318" lon="4.88738">
        <ele>194</ele>
        <time>2024-05-21T05:31:03.000Z</time>
      </trkpt>
      <trkpt lat="45.70313" lon="4.88738">
        <ele>194</ele>
        <time>2024-05-21T05:31:31.000Z</time>
      </trkpt>
      <trkpt lat="45.70313" lon="4.88738">
        <ele>194</ele>
        <time>2024-05-21T05:31:32.000Z</time>
      </trkpt>
      <trkpt lat="45.7031" lon="4.88738">
        <ele>194</ele>
        <time>2024-05-21T05:31:33.000Z</time>
      </trkpt>
      <trkpt lat="45.70307" lon="4.88738">
        <ele>194</ele>
        <time>2024-05-21T05:31:34.000Z</time>
      </trkpt>
      <trkpt lat="45.70304" lon="4.88739">
        <ele>194</ele>
        <time>2024-05-21T05:31:35.000Z</time>
      </trkpt>
      <trkpt lat="45.703" lon="4.88739">
        <ele>193.80000305176</ele>
        <time>2024-05-21T05:31:36.000Z</time>
      </trkpt>
      <trkpt lat="45.70297" lon="4.88739">
        <ele>193.80000305176</ele>
        <time>2024-05-21T05:31:37.000Z</time>
      </trkpt>
      <trkpt lat="45.70293" lon="4.88739">
        <ele>193.80000305176</ele>
        <time>2024-05-21T05:31:38.000Z</time>
      </trkpt>
      <trkpt lat="45.70288" lon="4.88739">
        <ele>193.80000305176</ele>
        <time>2024-05-21T05:31:39.000Z</time>
      </trkpt>
      <trkpt lat="45.70284" lon="4.88739">
        <ele>194</ele>
        <time>2024-05-21T05:31:40.000Z</time>
      </trkpt>
      <trkpt lat="45.7028" lon="4.88739">
        <ele>194</ele>
        <time>2024-05-21T05:31:41.000Z</time>
      </trkpt>
      <trkpt lat="45.70275" lon="4.88738">
        <ele>194</ele>
        <time>2024-05-21T05:31:42.000Z</time>
      </trkpt>
      <trkpt lat="45.70272" lon="4.88738">
        <ele>194</ele>
        <time>2024-05-21T05:31:43.000Z</time>
      </trkpt>
      <trkpt lat="45.70266" lon="4.88739">
        <ele>194.19999694824</ele>
        <time>2024-05-21T05:31:44.000Z</time>
      </trkpt>
      <trkpt lat="45.70263" lon="4.88739">
        <ele>194.19999694824</ele>
        <time>2024-05-21T05:31:45.000Z</time>
      </trkpt>
      <trkpt lat="45.70258" lon="4.88739">
        <ele>194.19999694824</ele>
        <time>2024-05-21T05:31:46.000Z</time>
      </trkpt>
      <trkpt lat="45.70254" lon="4.88739">
        <ele>194.39999389648</ele>
        <time>2024-05-21T05:31:47.000Z</time>
      </trkpt>
      <trkpt lat="45.70248" lon="4.88739">
        <ele>194.39999389648</ele>
        <time>2024-05-21T05:31:48.000Z</time>
      </trkpt>
      <trkpt lat="45.70244" lon="4.88739">
        <ele>194.39999389648</ele>
        <time>2024-05-21T05:31:49.000Z</time>
      </trkpt>
      <trkpt lat="45.7024" lon="4.8874">
        <ele>194.39999389648</ele>
        <time>2024-05-21T05:31:50.000Z</time>
      </trkpt>
      <trkpt lat="45.70235" lon="4.88741">
        <ele>194.60000610352</ele>
        <time>2024-05-21T05:31:51.000Z</time>
      </trkpt>
      <trkpt lat="45.7023" lon="4.88742">
        <ele>194.80000305176</ele>
        <time>2024-05-21T05:31:52.000Z</time>
      </trkpt>
      <trkpt lat="45.70225" lon="4.88742">
        <ele>194.80000305176</ele>
        <time>2024-05-21T05:31:53.000Z</time>
      </trkpt>
      <trkpt lat="45.7022" lon="4.88743">
        <ele>194.80000305176</ele>
        <time>2024-05-21T05:31:54.000Z</time>
      </trkpt>
      <trkpt lat="45.70216" lon="4.88743">
        <ele>194.80000305176</ele>
        <time>2024-05-21T05:31:55.000Z</time>
      </trkpt>
      <trkpt lat="45.70211" lon="4.88743">
        <ele>195</ele>
        <time>2024-05-21T05:31:56.000Z</time>
      </trkpt>
      <trkpt lat="45.70205" lon="4.88743">
        <ele>195</ele>
        <time>2024-05-21T05:31:57.000Z</time>
      </trkpt>
      <trkpt lat="45.70202" lon="4.88743">
        <ele>195</ele>
        <time>2024-05-21T05:31:58.000Z</time>
      </trkpt>
      <trkpt lat="45.70197" lon="4.88743">
        <ele>195.19999694824</ele>
        <time>2024-05-21T05:31:59.000Z</time>
      </trkpt>
      <trkpt lat="45.70191" lon="4.88744">
        <ele>195.19999694824</ele>
        <time>2024-05-21T05:32:00.000Z</time>
      </trkpt>
      <trkpt lat="45.70187" lon="4.88745">
        <ele>195.19999694824</ele>
        <time>2024-05-21T05:32:01.000Z</time>
      </trkpt>
      <trkpt lat="45.70183" lon="4.88746">
        <ele>195.19999694824</ele>
        <time>2024-05-21T05:32:02.000Z</time>
      </trkpt>
      <trkpt lat="45.70178" lon="4.88746">
        <ele>195.19999694824</ele>
        <time>2024-05-21T05:32:03.000Z</time>
      </trkpt>
      <trkpt lat="45.70174" lon="4.88745">
        <ele>195.39999389648</ele>
        <time>2024-05-21T05:32:04.000Z</time>
      </trkpt>
      <trkpt lat="45.70171" lon="4.88743">
        <ele>195.39999389648</ele>
        <time>2024-05-21T05:32:05.000Z</time>
      </trkpt>
      <trkpt lat="45.70167" lon="4.88743">
        <ele>195.39999389648</ele>
        <time>2024-05-21T05:32:06.000Z</time>
      </trkpt>
      <trkpt lat="45.70163" lon="4.88743">
        <ele>195.39999389648</ele>
        <time>2024-05-21T05:32:07.000Z</time>
      </trkpt>
      <trkpt lat="45.70159" lon="4.88742">
        <ele>195.60000610352</ele>
        <time>2024-05-21T05:32:08.000Z</time>
      </trkpt>
      <trkpt lat="45.70154" lon="4.88741">
        <ele>195.80000305176</ele>
        <time>2024-05-21T05:32:09.000Z</time>
      </trkpt>
      <trkpt lat="45.70151" lon="4.88741">
        <ele>196</ele>
        <time>2024-05-21T05:32:10.000Z</time>
      </trkpt>
      <trkpt lat="45.70147" lon="4.8874">
        <ele>196</ele>
        <time>2024-05-21T05:32:11.000Z</time>
      </trkpt>
      <trkpt lat="45.70143" lon="4.8874">
        <ele>196</ele>
        <time>2024-05-21T05:32:12.000Z</time>
      </trkpt>
      <trkpt lat="45.70139" lon="4.8874">
        <ele>196</ele>
        <time>2024-05-21T05:32:13.000Z</time>
      </trkpt>
      <trkpt lat="45.70134" lon="4.8874">
        <ele>196.19999694824</ele>
        <time>2024-05-21T05:32:14.000Z</time>
      </trkpt>
      <trkpt lat="45.7013" lon="4.88741">
        <ele>196.19999694824</ele>
        <time>2024-05-21T05:32:15.000Z</time>
      </trkpt>
      <trkpt lat="45.70125" lon="4.88741">
        <ele>196.19999694824</ele>
        <time>2024-05-21T05:32:16.000Z</time>
      </trkpt>
      <trkpt lat="45.70121" lon="4.88743">
        <ele>196.19999694824</ele>
        <time>2024-05-21T05:32:17.000Z</time>
      </trkpt>
      <trkpt lat="45.70116" lon="4.88743">
        <ele>196.19999694824</ele>
        <time>2024-05-21T05:32:18.000Z</time>
      </trkpt>
      <trkpt lat="45.70111" lon="4.88743">
        <ele>196.19999694824</ele>
        <time>2024-05-21T05:32:19.000Z</time>
      </trkpt>
      <trkpt lat="45.70106" lon="4.88744">
        <ele>196.19999694824</ele>
        <time>2024-05-21T05:32:20.000Z</time>
      </trkpt>
      <trkpt lat="45.70102" lon="4.88744">
        <ele>196.39999389648</ele>
        <time>2024-05-21T05:32:21.000Z</time>
      </trkpt>
      <trkpt lat="45.70097" lon="4.88744">
        <ele>196.39999389648</ele>
        <time>2024-05-21T05:32:22.000Z</time>
      </trkpt>
      <trkpt lat="45.70092" lon="4.88744">
        <ele>196.39999389648</ele>
        <time>2024-05-21T05:32:23.000Z</time>
      </trkpt>
      <trkpt lat="45.70088" lon="4.88744">
        <ele>196.19999694824</ele>
        <time>2024-05-21T05:32:24.000Z</time>
      </trkpt>
      <trkpt lat="45.70085" lon="4.88743">
        <ele>196.19999694824</ele>
        <time>2024-05-21T05:32:25.000Z</time>
      </trkpt>
      <trkpt lat="45.70081" lon="4.88743">
        <ele>196.39999389648</ele>
        <time>2024-05-21T05:32:26.000Z</time>
      </trkpt>
      <trkpt lat="45.70076" lon="4.88742">
        <ele>196.39999389648</ele>
        <time>2024-05-21T05:32:27.000Z</time>
      </trkpt>
      <trkpt lat="45.70073" lon="4.88742">
        <ele>196.39999389648</ele>
        <time>2024-05-21T05:32:28.000Z</time>
      </trkpt>
      <trkpt lat="45.70069" lon="4.88742">
        <ele>196.39999389648</ele>
        <time>2024-05-21T05:32:29.000Z</time>
      </trkpt>
      <trkpt lat="45.70064" lon="4.88741">
        <ele>196.39999389648</ele>
        <time>2024-05-21T05:32:30.000Z</time>
      </trkpt>
      <trkpt lat="45.7006" lon="4.88741">
        <ele>196.39999389648</ele>
        <time>2024-05-21T05:32:31.000Z</time>
      </trkpt>
      <trkpt lat="45.70055" lon="4.88741">
        <ele>196.39999389648</ele>
        <time>2024-05-21T05:32:32.000Z</time>
      </trkpt>
      <trkpt lat="45.70052" lon="4.88742">
        <ele>196.39999389648</ele>
        <time>2024-05-21T05:32:33.000Z</time>
      </trkpt>
      <trkpt lat="45.70049" lon="4.88743">
        <ele>196.39999389648</ele>
        <time>2024-05-21T05:32:34.000Z</time>
      </trkpt>
      <trkpt lat="45.70045" lon="4.88743">
        <ele>196.39999389648</ele>
        <time>2024-05-21T05:32:35.000Z</time>
      </trkpt>
      <trkpt lat="45.70041" lon="4.88743">
        <ele>196.39999389648</ele>
        <time>2024-05-21T05:32:36.000Z</time>
      </trkpt>
      <trkpt lat="45.70037" lon="4.88743">
        <ele>196.39999389648</ele>
        <time>2024-05-21T05:32:37.000Z</time>
      </trkpt>
      <trkpt lat="45.70033" lon="4.88743">
        <ele>196.39999389648</ele>
        <time>2024-05-21T05:32:38.000Z</time>
      </trkpt>
      <trkpt lat="45.70029" lon="4.88743">
        <ele>196.39999389648</ele>
        <time>2024-05-21T05:32:39.000Z</time>
      </trkpt>
      <trkpt lat="45.70026" lon="4.88743">
        <ele>196.39999389648</ele>
        <time>2024-05-21T05:32:40.000Z</time>
      </trkpt>
      <trkpt lat="45.70023" lon="4.88743">
        <ele>196.39999389648</ele>
        <time>2024-05-21T05:32:41.000Z</time>
      </trkpt>
      <trkpt lat="45.70018" lon="4.88743">
        <ele>196.39999389648</ele>
        <time>2024-05-21T05:32:42.000Z</time>
      </trkpt>
      <trkpt lat="45.70014" lon="4.88743">
        <ele>196.39999389648</ele>
        <time>2024-05-21T05:32:43.000Z</time>
      </trkpt>
      <trkpt lat="45.7001" lon="4.88743">
        <ele>196.60000610352</ele>
        <time>2024-05-21T05:32:44.000Z</time>
      </trkpt>
      <trkpt lat="45.70004" lon="4.88743">
        <ele>196.39999389648</ele>
        <time>2024-05-21T05:32:45.000Z</time>
      </trkpt>
      <trkpt lat="45.70001" lon="4.88743">
        <ele>196.39999389648</ele>
        <time>2024-05-21T05:32:46.000Z</time>
      </trkpt>
      <trkpt lat="45.69996" lon="4.88742">
        <ele>196.39999389648</ele>
        <time>2024-05-21T05:32:47.000Z</time>
      </trkpt>
      <trkpt lat="45.6999" lon="4.88743">
        <ele>196.39999389648</ele>
        <time>2024-05-21T05:32:48.000Z</time>
      </trkpt>
      <trkpt lat="45.69987" lon="4.88743">
        <ele>196.39999389648</ele>
        <time>2024-05-21T05:32:49.000Z</time>
      </trkpt>
      <trkpt lat="45.69982" lon="4.88743">
        <ele>196.39999389648</ele>
        <time>2024-05-21T05:32:50.000Z</time>
      </trkpt>
      <trkpt lat="45.69977" lon="4.88743">
        <ele>196.39999389648</ele>
        <time>2024-05-21T05:32:51.000Z</time>
      </trkpt>
      <trkpt lat="45.69973" lon="4.88743">
        <ele>196.39999389648</ele>
        <time>2024-05-21T05:32:52.000Z</time>
      </trkpt>
      <trkpt lat="45.69967" lon="4.88743">
        <ele>196.39999389648</ele>
        <time>2024-05-21T05:32:53.000Z</time>
      </trkpt>
      <trkpt lat="45.69963" lon="4.88743">
        <ele>196.39999389648</ele>
        <time>2024-05-21T05:32:54.000Z</time>
      </trkpt>
      <trkpt lat="45.69958" lon="4.88743">
        <ele>196.39999389648</ele>
        <time>2024-05-21T05:32:55.000Z</time>
      </trkpt>
      <trkpt lat="45.69953" lon="4.88744">
        <ele>196.39999389648</ele>
        <time>2024-05-21T05:32:56.000Z</time>
      </trkpt>
      <trkpt lat="45.69948" lon="4.88744">
        <ele>196.39999389648</ele>
        <time>2024-05-21T05:32:57.000Z</time>
      </trkpt>
      <trkpt lat="45.69942" lon="4.88744">
        <ele>196.39999389648</ele>
        <time>2024-05-21T05:32:58.000Z</time>
      </trkpt>
      <trkpt lat="45.69937" lon="4.88744">
        <ele>196.39999389648</ele>
        <time>2024-05-21T05:32:59.000Z</time>
      </trkpt>
      <trkpt lat="45.69932" lon="4.88745">
        <ele>196.19999694824</ele>
        <time>2024-05-21T05:33:00.000Z</time>
      </trkpt>
      <trkpt lat="45.69927" lon="4.88745">
        <ele>196.19999694824</ele>
        <time>2024-05-21T05:33:01.000Z</time>
      </trkpt>
      <trkpt lat="45.6992" lon="4.88746">
        <ele>196.19999694824</ele>
        <time>2024-05-21T05:33:02.000Z</time>
      </trkpt>
      <trkpt lat="45.69916" lon="4.88746">
        <ele>196</ele>
        <time>2024-05-21T05:33:03.000Z</time>
      </trkpt>
      <trkpt lat="45.6991" lon="4.88747">
        <ele>196</ele>
        <time>2024-05-21T05:33:04.000Z</time>
      </trkpt>
      <trkpt lat="45.69906" lon="4.88747">
        <ele>196</ele>
        <time>2024-05-21T05:33:05.000Z</time>
      </trkpt>
      <trkpt lat="45.699" lon="4.88748">
        <ele>196</ele>
        <time>2024-05-21T05:33:06.000Z</time>
      </trkpt>
      <trkpt lat="45.69895" lon="4.88748">
        <ele>196</ele>
        <time>2024-05-21T05:33:07.000Z</time>
      </trkpt>
      <trkpt lat="45.6989" lon="4.88749">
        <ele>196</ele>
        <time>2024-05-21T05:33:08.000Z</time>
      </trkpt>
      <trkpt lat="45.69885" lon="4.88748">
        <ele>196</ele>
        <time>2024-05-21T05:33:09.000Z</time>
      </trkpt>
      <trkpt lat="45.69879" lon="4.88747">
        <ele>196</ele>
        <time>2024-05-21T05:33:10.000Z</time>
      </trkpt>
      <trkpt lat="45.69875" lon="4.88746">
        <ele>196</ele>
        <time>2024-05-21T05:33:11.000Z</time>
      </trkpt>
      <trkpt lat="45.69869" lon="4.88746">
        <ele>196</ele>
        <time>2024-05-21T05:33:12.000Z</time>
      </trkpt>
      <trkpt lat="45.69866" lon="4.88746">
        <ele>196</ele>
        <time>2024-05-21T05:33:13.000Z</time>
      </trkpt>
      <trkpt lat="45.69861" lon="4.88746">
        <ele>196</ele>
        <time>2024-05-21T05:33:14.000Z</time>
      </trkpt>
      <trkpt lat="45.69855" lon="4.88746">
        <ele>196</ele>
        <time>2024-05-21T05:33:15.000Z</time>
      </trkpt>
      <trkpt lat="45.6985" lon="4.88746">
        <ele>196</ele>
        <time>2024-05-21T05:33:16.000Z</time>
      </trkpt>
      <trkpt lat="45.69845" lon="4.88746">
        <ele>196</ele>
        <time>2024-05-21T05:33:17.000Z</time>
      </trkpt>
      <trkpt lat="45.69839" lon="4.88746">
        <ele>195.80000305176</ele>
        <time>2024-05-21T05:33:18.000Z</time>
      </trkpt>
      <trkpt lat="45.69835" lon="4.88746">
        <ele>195.80000305176</ele>
        <time>2024-05-21T05:33:19.000Z</time>
      </trkpt>
      <trkpt lat="45.69829" lon="4.88746">
        <ele>195.80000305176</ele>
        <time>2024-05-21T05:33:20.000Z</time>
      </trkpt>
      <trkpt lat="45.69823" lon="4.88746">
        <ele>195.80000305176</ele>
        <time>2024-05-21T05:33:21.000Z</time>
      </trkpt>
      <trkpt lat="45.69819" lon="4.88747">
        <ele>195.80000305176</ele>
        <time>2024-05-21T05:33:22.000Z</time>
      </trkpt>
      <trkpt lat="45.69813" lon="4.88747">
        <ele>195.80000305176</ele>
        <time>2024-05-21T05:33:23.000Z</time>
      </trkpt>
      <trkpt lat="45.69807" lon="4.88747">
        <ele>195.80000305176</ele>
        <time>2024-05-21T05:33:24.000Z</time>
      </trkpt>
      <trkpt lat="45.69803" lon="4.88747">
        <ele>195.80000305176</ele>
        <time>2024-05-21T05:33:25.000Z</time>
      </trkpt>
      <trkpt lat="45.69798" lon="4.88747">
        <ele>195.80000305176</ele>
        <time>2024-05-21T05:33:26.000Z</time>
      </trkpt>
      <trkpt lat="45.69792" lon="4.88747">
        <ele>195.80000305176</ele>
        <time>2024-05-21T05:33:27.000Z</time>
      </trkpt>
      <trkpt lat="45.69788" lon="4.88747">
        <ele>195.80000305176</ele>
        <time>2024-05-21T05:33:28.000Z</time>
      </trkpt>
      <trkpt lat="45.69783" lon="4.88747">
        <ele>195.80000305176</ele>
        <time>2024-05-21T05:33:29.000Z</time>
      </trkpt>
      <trkpt lat="45.69778" lon="4.88747">
        <ele>195.80000305176</ele>
        <time>2024-05-21T05:33:30.000Z</time>
      </trkpt>
      <trkpt lat="45.69774" lon="4.88747">
        <ele>195.80000305176</ele>
        <time>2024-05-21T05:33:31.000Z</time>
      </trkpt>
      <trkpt lat="45.6977" lon="4.88747">
        <ele>195.80000305176</ele>
        <time>2024-05-21T05:33:32.000Z</time>
      </trkpt>
      <trkpt lat="45.69765" lon="4.88747">
        <ele>195.80000305176</ele>
        <time>2024-05-21T05:33:33.000Z</time>
      </trkpt>
      <trkpt lat="45.69761" lon="4.88747">
        <ele>195.80000305176</ele>
        <time>2024-05-21T05:33:34.000Z</time>
      </trkpt>
      <trkpt lat="45.69757" lon="4.88746">
        <ele>195.80000305176</ele>
        <time>2024-05-21T05:33:35.000Z</time>
      </trkpt>
      <trkpt lat="45.69752" lon="4.88746">
        <ele>195.80000305176</ele>
        <time>2024-05-21T05:33:36.000Z</time>
      </trkpt>
      <trkpt lat="45.69748" lon="4.88746">
        <ele>195.80000305176</ele>
        <time>2024-05-21T05:33:37.000Z</time>
      </trkpt>
      <trkpt lat="45.69744" lon="4.88746">
        <ele>195.80000305176</ele>
        <time>2024-05-21T05:33:38.000Z</time>
      </trkpt>
      <trkpt lat="45.69739" lon="4.88746">
        <ele>195.80000305176</ele>
        <time>2024-05-21T05:33:39.000Z</time>
      </trkpt>
      <trkpt lat="45.69735" lon="4.88746">
        <ele>195.80000305176</ele>
        <time>2024-05-21T05:33:40.000Z</time>
      </trkpt>
      <trkpt lat="45.69731" lon="4.88746">
        <ele>195.80000305176</ele>
        <time>2024-05-21T05:33:41.000Z</time>
      </trkpt>
      <trkpt lat="45.69727" lon="4.88747">
        <ele>195.80000305176</ele>
        <time>2024-05-21T05:33:42.000Z</time>
      </trkpt>
      <trkpt lat="45.69723" lon="4.88747">
        <ele>195.80000305176</ele>
        <time>2024-05-21T05:33:43.000Z</time>
      </trkpt>
      <trkpt lat="45.69719" lon="4.88747">
        <ele>195.80000305176</ele>
        <time>2024-05-21T05:33:44.000Z</time>
      </trkpt>
      <trkpt lat="45.69716" lon="4.88747">
        <ele>195.80000305176</ele>
        <time>2024-05-21T05:33:45.000Z</time>
      </trkpt>
      <trkpt lat="45.69713" lon="4.88747">
        <ele>195.80000305176</ele>
        <time>2024-05-21T05:33:46.000Z</time>
      </trkpt>
      <trkpt lat="45.6971" lon="4.88747">
        <ele>195.80000305176</ele>
        <time>2024-05-21T05:33:47.000Z</time>
      </trkpt>
      <trkpt lat="45.69707" lon="4.88746">
        <ele>195.80000305176</ele>
        <time>2024-05-21T05:33:48.000Z</time>
      </trkpt>
      <trkpt lat="45.69706" lon="4.88744">
        <ele>195.80000305176</ele>
        <time>2024-05-21T05:33:49.000Z</time>
      </trkpt>
      <trkpt lat="45.69704" lon="4.88742">
        <ele>195.80000305176</ele>
        <time>2024-05-21T05:33:50.000Z</time>
      </trkpt>
      <trkpt lat="45.69703" lon="4.8874">
        <ele>195.80000305176</ele>
        <time>2024-05-21T05:33:51.000Z</time>
      </trkpt>
      <trkpt lat="45.69702" lon="4.88737">
        <ele>195.80000305176</ele>
        <time>2024-05-21T05:33:52.000Z</time>
      </trkpt>
      <trkpt lat="45.69701" lon="4.88735">
        <ele>195.60000610352</ele>
        <time>2024-05-21T05:33:53.000Z</time>
      </trkpt>
      <trkpt lat="45.69699" lon="4.88733">
        <ele>195.60000610352</ele>
        <time>2024-05-21T05:33:54.000Z</time>
      </trkpt>
      <trkpt lat="45.69698" lon="4.88733">
        <ele>195.39999389648</ele>
        <time>2024-05-21T05:33:55.000Z</time>
      </trkpt>
      <trkpt lat="45.69696" lon="4.88733">
        <ele>195.19999694824</ele>
        <time>2024-05-21T05:33:56.000Z</time>
      </trkpt>
      <trkpt lat="45.69694" lon="4.88733">
        <ele>195.19999694824</ele>
        <time>2024-05-21T05:33:57.000Z</time>
      </trkpt>
      <trkpt lat="45.69693" lon="4.88733">
        <ele>195</ele>
        <time>2024-05-21T05:33:58.000Z</time>
      </trkpt>
      <trkpt lat="45.69691" lon="4.88734">
        <ele>195</ele>
        <time>2024-05-21T05:33:59.000Z</time>
      </trkpt>
      <trkpt lat="45.6969" lon="4.88735">
        <ele>194.80000305176</ele>
        <time>2024-05-21T05:34:00.000Z</time>
      </trkpt>
      <trkpt lat="45.69688" lon="4.88736">
        <ele>194.80000305176</ele>
        <time>2024-05-21T05:34:01.000Z</time>
      </trkpt>
      <trkpt lat="45.69685" lon="4.88737">
        <ele>194.80000305176</ele>
        <time>2024-05-21T05:34:02.000Z</time>
      </trkpt>
      <trkpt lat="45.69683" lon="4.88738">
        <ele>195</ele>
        <time>2024-05-21T05:34:03.000Z</time>
      </trkpt>
      <trkpt lat="45.69681" lon="4.88739">
        <ele>195</ele>
        <time>2024-05-21T05:34:04.000Z</time>
      </trkpt>
      <trkpt lat="45.69678" lon="4.8874">
        <ele>195</ele>
        <time>2024-05-21T05:34:05.000Z</time>
      </trkpt>
      <trkpt lat="45.69676" lon="4.88743">
        <ele>195</ele>
        <time>2024-05-21T05:34:06.000Z</time>
      </trkpt>
      <trkpt lat="45.69675" lon="4.88745">
        <ele>195</ele>
        <time>2024-05-21T05:34:07.000Z</time>
      </trkpt>
      <trkpt lat="45.69675" lon="4.88747">
        <ele>195.19999694824</ele>
        <time>2024-05-21T05:34:08.000Z</time>
      </trkpt>
      <trkpt lat="45.69675" lon="4.88749">
        <ele>195.19999694824</ele>
        <time>2024-05-21T05:34:09.000Z</time>
      </trkpt>
      <trkpt lat="45.69674" lon="4.88751">
        <ele>195.39999389648</ele>
        <time>2024-05-21T05:34:10.000Z</time>
      </trkpt>
      <trkpt lat="45.69674" lon="4.88752">
        <ele>195.60000610352</ele>
        <time>2024-05-21T05:34:11.000Z</time>
      </trkpt>
      <trkpt lat="45.69674" lon="4.88752">
        <ele>195.60000610352</ele>
        <time>2024-05-21T05:34:12.000Z</time>
      </trkpt>
      <trkpt lat="45.69674" lon="4.88758">
        <ele>195.80000305176</ele>
        <time>2024-05-21T05:34:16.000Z</time>
      </trkpt>
      <trkpt lat="45.69674" lon="4.8876">
        <ele>195.80000305176</ele>
        <time>2024-05-21T05:34:17.000Z</time>
      </trkpt>
      <trkpt lat="45.69674" lon="4.88764">
        <ele>195.80000305176</ele>
        <time>2024-05-21T05:34:18.000Z</time>
      </trkpt>
      <trkpt lat="45.69674" lon="4.88767">
        <ele>196</ele>
        <time>2024-05-21T05:34:19.000Z</time>
      </trkpt>
      <trkpt lat="45.69674" lon="4.88771">
        <ele>196</ele>
        <time>2024-05-21T05:34:20.000Z</time>
      </trkpt>
      <trkpt lat="45.69674" lon="4.88775">
        <ele>196</ele>
        <time>2024-05-21T05:34:21.000Z</time>
      </trkpt>
      <trkpt lat="45.69674" lon="4.88778">
        <ele>196</ele>
        <time>2024-05-21T05:34:22.000Z</time>
      </trkpt>
      <trkpt lat="45.69674" lon="4.88782">
        <ele>196</ele>
        <time>2024-05-21T05:34:23.000Z</time>
      </trkpt>
      <trkpt lat="45.69675" lon="4.88785">
        <ele>196</ele>
        <time>2024-05-21T05:34:24.000Z</time>
      </trkpt>
      <trkpt lat="45.69677" lon="4.88786">
        <ele>196</ele>
        <time>2024-05-21T05:34:25.000Z</time>
      </trkpt>
      <trkpt lat="45.69679" lon="4.88787">
        <ele>196</ele>
        <time>2024-05-21T05:34:26.000Z</time>
      </trkpt>
      <trkpt lat="45.69682" lon="4.88787">
        <ele>196</ele>
        <time>2024-05-21T05:34:27.000Z</time>
      </trkpt>
      <trkpt lat="45.69685" lon="4.88787">
        <ele>196</ele>
        <time>2024-05-21T05:34:28.000Z</time>
      </trkpt>
      <trkpt lat="45.69687" lon="4.88788">
        <ele>196</ele>
        <time>2024-05-21T05:34:29.000Z</time>
      </trkpt>
      <trkpt lat="45.6969" lon="4.88789">
        <ele>196</ele>
        <time>2024-05-21T05:34:30.000Z</time>
      </trkpt>
      <trkpt lat="45.69692" lon="4.88791">
        <ele>196</ele>
        <time>2024-05-21T05:34:31.000Z</time>
      </trkpt>
      <trkpt lat="45.69693" lon="4.88793">
        <ele>196</ele>
        <time>2024-05-21T05:34:32.000Z</time>
      </trkpt>
      <trkpt lat="45.69694" lon="4.88796">
        <ele>196</ele>
        <time>2024-05-21T05:34:33.000Z</time>
      </trkpt>
      <trkpt lat="45.69695" lon="4.88801">
        <ele>195.80000305176</ele>
        <time>2024-05-21T05:34:34.000Z</time>
      </trkpt>
      <trkpt lat="45.69695" lon="4.88804">
        <ele>195.80000305176</ele>
        <time>2024-05-21T05:34:35.000Z</time>
      </trkpt>
      <trkpt lat="45.69695" lon="4.88808">
        <ele>195.60000610352</ele>
        <time>2024-05-21T05:34:36.000Z</time>
      </trkpt>
      <trkpt lat="45.69696" lon="4.88813">
        <ele>195.60000610352</ele>
        <time>2024-05-21T05:34:37.000Z</time>
      </trkpt>
      <trkpt lat="45.69696" lon="4.88817">
        <ele>195.60000610352</ele>
        <time>2024-05-21T05:34:38.000Z</time>
      </trkpt>
      <trkpt lat="45.69697" lon="4.88822">
        <ele>195.39999389648</ele>
        <time>2024-05-21T05:34:39.000Z</time>
      </trkpt>
      <trkpt lat="45.69697" lon="4.88829">
        <ele>195.19999694824</ele>
        <time>2024-05-21T05:34:40.000Z</time>
      </trkpt>
      <trkpt lat="45.69698" lon="4.88834">
        <ele>195.19999694824</ele>
        <time>2024-05-21T05:34:41.000Z</time>
      </trkpt>
      <trkpt lat="45.69698" lon="4.8884">
        <ele>195.19999694824</ele>
        <time>2024-05-21T05:34:42.000Z</time>
      </trkpt>
      <trkpt lat="45.69699" lon="4.88846">
        <ele>195</ele>
        <time>2024-05-21T05:34:43.000Z</time>
      </trkpt>
      <trkpt lat="45.697" lon="4.88852">
        <ele>195</ele>
        <time>2024-05-21T05:34:44.000Z</time>
      </trkpt>
      <trkpt lat="45.69701" lon="4.88859">
        <ele>194.80000305176</ele>
        <time>2024-05-21T05:34:45.000Z</time>
      </trkpt>
      <trkpt lat="45.69702" lon="4.88865">
        <ele>194.80000305176</ele>
        <time>2024-05-21T05:34:46.000Z</time>
      </trkpt>
      <trkpt lat="45.69703" lon="4.88871">
        <ele>194.60000610352</ele>
        <time>2024-05-21T05:34:47.000Z</time>
      </trkpt>
      <trkpt lat="45.69704" lon="4.88876">
        <ele>194.60000610352</ele>
        <time>2024-05-21T05:34:48.000Z</time>
      </trkpt>
      <trkpt lat="45.69704" lon="4.88881">
        <ele>194.60000610352</ele>
        <time>2024-05-21T05:34:49.000Z</time>
      </trkpt>
      <trkpt lat="45.69704" lon="4.88886">
        <ele>194.60000610352</ele>
        <time>2024-05-21T05:34:50.000Z</time>
      </trkpt>
      <trkpt lat="45.69703" lon="4.8889">
        <ele>194.60000610352</ele>
        <time>2024-05-21T05:34:51.000Z</time>
      </trkpt>
      <trkpt lat="45.69701" lon="4.88894">
        <ele>194.39999389648</ele>
        <time>2024-05-21T05:34:52.000Z</time>
      </trkpt>
      <trkpt lat="45.69698" lon="4.88897">
        <ele>194.39999389648</ele>
        <time>2024-05-21T05:34:53.000Z</time>
      </trkpt>
      <trkpt lat="45.69694" lon="4.88898">
        <ele>194.39999389648</ele>
        <time>2024-05-21T05:34:54.000Z</time>
      </trkpt>
      <trkpt lat="45.6969" lon="4.88899">
        <ele>194.39999389648</ele>
        <time>2024-05-21T05:34:55.000Z</time>
      </trkpt>
      <trkpt lat="45.69688" lon="4.889">
        <ele>194.39999389648</ele>
        <time>2024-05-21T05:34:56.000Z</time>
      </trkpt>
      <trkpt lat="45.69684" lon="4.88901">
        <ele>194.39999389648</ele>
        <time>2024-05-21T05:34:57.000Z</time>
      </trkpt>
      <trkpt lat="45.6968" lon="4.88903">
        <ele>194.39999389648</ele>
        <time>2024-05-21T05:34:58.000Z</time>
      </trkpt>
      <trkpt lat="45.69677" lon="4.88904">
        <ele>194.39999389648</ele>
        <time>2024-05-21T05:34:59.000Z</time>
      </trkpt>
      <trkpt lat="45.69674" lon="4.88905">
        <ele>194.60000610352</ele>
        <time>2024-05-21T05:35:00.000Z</time>
      </trkpt>
      <trkpt lat="45.69669" lon="4.88907">
        <ele>194.80000305176</ele>
        <time>2024-05-21T05:35:01.000Z</time>
      </trkpt>
      <trkpt lat="45.69666" lon="4.88908">
        <ele>194.80000305176</ele>
        <time>2024-05-21T05:35:02.000Z</time>
      </trkpt>
      <trkpt lat="45.69663" lon="4.88909">
        <ele>195</ele>
        <time>2024-05-21T05:35:03.000Z</time>
      </trkpt>
      <trkpt lat="45.69659" lon="4.8891">
        <ele>195.19999694824</ele>
        <time>2024-05-21T05:35:04.000Z</time>
      </trkpt>
      <trkpt lat="45.69656" lon="4.88912">
        <ele>195.19999694824</ele>
        <time>2024-05-21T05:35:05.000Z</time>
      </trkpt>
      <trkpt lat="45.69652" lon="4.88913">
        <ele>195.39999389648</ele>
        <time>2024-05-21T05:35:06.000Z</time>
      </trkpt>
      <trkpt lat="45.69649" lon="4.88915">
        <ele>195.39999389648</ele>
        <time>2024-05-21T05:35:07.000Z</time>
      </trkpt>
      <trkpt lat="45.69645" lon="4.88916">
        <ele>195.60000610352</ele>
        <time>2024-05-21T05:35:08.000Z</time>
      </trkpt>
      <trkpt lat="45.69641" lon="4.88917">
        <ele>195.60000610352</ele>
        <time>2024-05-21T05:35:09.000Z</time>
      </trkpt>
      <trkpt lat="45.69637" lon="4.88918">
        <ele>195.80000305176</ele>
        <time>2024-05-21T05:35:10.000Z</time>
      </trkpt>
      <trkpt lat="45.69633" lon="4.88919">
        <ele>195.80000305176</ele>
        <time>2024-05-21T05:35:11.000Z</time>
      </trkpt>
      <trkpt lat="45.6963" lon="4.8892">
        <ele>196</ele>
        <time>2024-05-21T05:35:12.000Z</time>
      </trkpt>
      <trkpt lat="45.69627" lon="4.88921">
        <ele>196</ele>
        <time>2024-05-21T05:35:13.000Z</time>
      </trkpt>
      <trkpt lat="45.69623" lon="4.88923">
        <ele>196.19999694824</ele>
        <time>2024-05-21T05:35:14.000Z</time>
      </trkpt>
      <trkpt lat="45.69619" lon="4.88924">
        <ele>196.19999694824</ele>
        <time>2024-05-21T05:35:15.000Z</time>
      </trkpt>
      <trkpt lat="45.69616" lon="4.88925">
        <ele>196.39999389648</ele>
        <time>2024-05-21T05:35:16.000Z</time>
      </trkpt>
      <trkpt lat="45.69612" lon="4.88926">
        <ele>196.39999389648</ele>
        <time>2024-05-21T05:35:17.000Z</time>
      </trkpt>
      <trkpt lat="45.69609" lon="4.88926">
        <ele>196.60000610352</ele>
        <time>2024-05-21T05:35:18.000Z</time>
      </trkpt>
      <trkpt lat="45.69606" lon="4.88927">
        <ele>196.80000305176</ele>
        <time>2024-05-21T05:35:19.000Z</time>
      </trkpt>
      <trkpt lat="45.69602" lon="4.88928">
        <ele>197</ele>
        <time>2024-05-21T05:35:20.000Z</time>
      </trkpt>
      <trkpt lat="45.69598" lon="4.88929">
        <ele>197.19999694824</ele>
        <time>2024-05-21T05:35:21.000Z</time>
      </trkpt>
      <trkpt lat="45.69595" lon="4.8893">
        <ele>197.39999389648</ele>
        <time>2024-05-21T05:35:22.000Z</time>
      </trkpt>
      <trkpt lat="45.69592" lon="4.88931">
        <ele>197.39999389648</ele>
        <time>2024-05-21T05:35:23.000Z</time>
      </trkpt>
      <trkpt lat="45.69588" lon="4.88932">
        <ele>197.60000610352</ele>
        <time>2024-05-21T05:35:24.000Z</time>
      </trkpt>
      <trkpt lat="45.69585" lon="4.88933">
        <ele>197.80000305176</ele>
        <time>2024-05-21T05:35:25.000Z</time>
      </trkpt>
      <trkpt lat="45.69582" lon="4.88933">
        <ele>197.80000305176</ele>
        <time>2024-05-21T05:35:26.000Z</time>
      </trkpt>
      <trkpt lat="45.69578" lon="4.88934">
        <ele>197.80000305176</ele>
        <time>2024-05-21T05:35:27.000Z</time>
      </trkpt>
      <trkpt lat="45.69575" lon="4.88936">
        <ele>198</ele>
        <time>2024-05-21T05:35:28.000Z</time>
      </trkpt>
      <trkpt lat="45.69572" lon="4.88937">
        <ele>198</ele>
        <time>2024-05-21T05:35:29.000Z</time>
      </trkpt>
      <trkpt lat="45.69568" lon="4.88939">
        <ele>198.39999389648</ele>
        <time>2024-05-21T05:35:30.000Z</time>
      </trkpt>
      <trkpt lat="45.69565" lon="4.88939">
        <ele>198.39999389648</ele>
        <time>2024-05-21T05:35:31.000Z</time>
      </trkpt>
      <trkpt lat="45.69562" lon="4.8894">
        <ele>198.60000610352</ele>
        <time>2024-05-21T05:35:32.000Z</time>
      </trkpt>
      <trkpt lat="45.69558" lon="4.88941">
        <ele>198.80000305176</ele>
        <time>2024-05-21T05:35:33.000Z</time>
      </trkpt>
      <trkpt lat="45.69556" lon="4.88942">
        <ele>199</ele>
        <time>2024-05-21T05:35:34.000Z</time>
      </trkpt>
      <trkpt lat="45.69553" lon="4.88942">
        <ele>199</ele>
        <time>2024-05-21T05:35:35.000Z</time>
      </trkpt>
      <trkpt lat="45.69549" lon="4.88943">
        <ele>199.19999694824</ele>
        <time>2024-05-21T05:35:36.000Z</time>
      </trkpt>
      <trkpt lat="45.69546" lon="4.88944">
        <ele>199.39999389648</ele>
        <time>2024-05-21T05:35:37.000Z</time>
      </trkpt>
      <trkpt lat="45.69543" lon="4.88945">
        <ele>199.39999389648</ele>
        <time>2024-05-21T05:35:38.000Z</time>
      </trkpt>
      <trkpt lat="45.69539" lon="4.88946">
        <ele>199.39999389648</ele>
        <time>2024-05-21T05:35:39.000Z</time>
      </trkpt>
      <trkpt lat="45.69536" lon="4.88946">
        <ele>199.39999389648</ele>
        <time>2024-05-21T05:35:40.000Z</time>
      </trkpt>
      <trkpt lat="45.69533" lon="4.88947">
        <ele>199.39999389648</ele>
        <time>2024-05-21T05:35:41.000Z</time>
      </trkpt>
      <trkpt lat="45.69529" lon="4.88948">
        <ele>199.60000610352</ele>
        <time>2024-05-21T05:35:42.000Z</time>
      </trkpt>
      <trkpt lat="45.69526" lon="4.88949">
        <ele>199.60000610352</ele>
        <time>2024-05-21T05:35:43.000Z</time>
      </trkpt>
      <trkpt lat="45.69522" lon="4.8895">
        <ele>199.80000305176</ele>
        <time>2024-05-21T05:35:44.000Z</time>
      </trkpt>
      <trkpt lat="45.69518" lon="4.8895">
        <ele>199.80000305176</ele>
        <time>2024-05-21T05:35:45.000Z</time>
      </trkpt>
      <trkpt lat="45.69514" lon="4.88951">
        <ele>200</ele>
        <time>2024-05-21T05:35:46.000Z</time>
      </trkpt>
      <trkpt lat="45.6951" lon="4.88953">
        <ele>200</ele>
        <time>2024-05-21T05:35:47.000Z</time>
      </trkpt>
      <trkpt lat="45.69506" lon="4.88953">
        <ele>200</ele>
        <time>2024-05-21T05:35:48.000Z</time>
      </trkpt>
      <trkpt lat="45.69503" lon="4.88955">
        <ele>200</ele>
        <time>2024-05-21T05:35:49.000Z</time>
      </trkpt>
      <trkpt lat="45.69499" lon="4.88956">
        <ele>199.80000305176</ele>
        <time>2024-05-21T05:35:50.000Z</time>
      </trkpt>
      <trkpt lat="45.69495" lon="4.88957">
        <ele>199.60000610352</ele>
        <time>2024-05-21T05:35:51.000Z</time>
      </trkpt>
      <trkpt lat="45.69492" lon="4.88958">
        <ele>199.39999389648</ele>
        <time>2024-05-21T05:35:52.000Z</time>
      </trkpt>
      <trkpt lat="45.69489" lon="4.88959">
        <ele>199.39999389648</ele>
        <time>2024-05-21T05:35:53.000Z</time>
      </trkpt>
      <trkpt lat="45.69487" lon="4.88959">
        <ele>199.39999389648</ele>
        <time>2024-05-21T05:35:54.000Z</time>
      </trkpt>
      <trkpt lat="45.69485" lon="4.8896">
        <ele>199.39999389648</ele>
        <time>2024-05-21T05:35:55.000Z</time>
      </trkpt>
      <trkpt lat="45.69483" lon="4.88961">
        <ele>199.39999389648</ele>
        <time>2024-05-21T05:35:56.000Z</time>
      </trkpt>
      <trkpt lat="45.69481" lon="4.88961">
        <ele>199.39999389648</ele>
        <time>2024-05-21T05:35:57.000Z</time>
      </trkpt>
      <trkpt lat="45.69478" lon="4.88961">
        <ele>199.39999389648</ele>
        <time>2024-05-21T05:35:58.000Z</time>
      </trkpt>
      <trkpt lat="45.69476" lon="4.88962">
        <ele>199.39999389648</ele>
        <time>2024-05-21T05:35:59.000Z</time>
      </trkpt>
      <trkpt lat="45.69473" lon="4.88962">
        <ele>199.39999389648</ele>
        <time>2024-05-21T05:36:00.000Z</time>
      </trkpt>
      <trkpt lat="45.69469" lon="4.88962">
        <ele>199.19999694824</ele>
        <time>2024-05-21T05:36:01.000Z</time>
      </trkpt>
      <trkpt lat="45.69466" lon="4.88963">
        <ele>199.19999694824</ele>
        <time>2024-05-21T05:36:02.000Z</time>
      </trkpt>
      <trkpt lat="45.69462" lon="4.88964">
        <ele>199.19999694824</ele>
        <time>2024-05-21T05:36:03.000Z</time>
      </trkpt>
      <trkpt lat="45.69459" lon="4.88965">
        <ele>199</ele>
        <time>2024-05-21T05:36:04.000Z</time>
      </trkpt>
      <trkpt lat="45.69455" lon="4.88966">
        <ele>199</ele>
        <time>2024-05-21T05:36:05.000Z</time>
      </trkpt>
      <trkpt lat="45.69451" lon="4.88967">
        <ele>199</ele>
        <time>2024-05-21T05:36:06.000Z</time>
      </trkpt>
      <trkpt lat="45.69447" lon="4.88969">
        <ele>199</ele>
        <time>2024-05-21T05:36:07.000Z</time>
      </trkpt>
      <trkpt lat="45.69443" lon="4.8897">
        <ele>199</ele>
        <time>2024-05-21T05:36:08.000Z</time>
      </trkpt>
      <trkpt lat="45.69439" lon="4.88971">
        <ele>199.19999694824</ele>
        <time>2024-05-21T05:36:09.000Z</time>
      </trkpt>
      <trkpt lat="45.69436" lon="4.88972">
        <ele>199.39999389648</ele>
        <time>2024-05-21T05:36:10.000Z</time>
      </trkpt>
      <trkpt lat="45.69432" lon="4.88974">
        <ele>199.39999389648</ele>
        <time>2024-05-21T05:36:11.000Z</time>
      </trkpt>
      <trkpt lat="45.69428" lon="4.88975">
        <ele>199.60000610352</ele>
        <time>2024-05-21T05:36:12.000Z</time>
      </trkpt>
      <trkpt lat="45.69424" lon="4.88977">
        <ele>199.60000610352</ele>
        <time>2024-05-21T05:36:13.000Z</time>
      </trkpt>
      <trkpt lat="45.69421" lon="4.88979">
        <ele>199.60000610352</ele>
        <time>2024-05-21T05:36:14.000Z</time>
      </trkpt>
      <trkpt lat="45.69417" lon="4.8898">
        <ele>199.80000305176</ele>
        <time>2024-05-21T05:36:15.000Z</time>
      </trkpt>
      <trkpt lat="45.69414" lon="4.88982">
        <ele>200</ele>
        <time>2024-05-21T05:36:16.000Z</time>
      </trkpt>
      <trkpt lat="45.6941" lon="4.88983">
        <ele>200</ele>
        <time>2024-05-21T05:36:17.000Z</time>
      </trkpt>
      <trkpt lat="45.69407" lon="4.88985">
        <ele>200.19999694824</ele>
        <time>2024-05-21T05:36:18.000Z</time>
      </trkpt>
      <trkpt lat="45.69403" lon="4.88986">
        <ele>200.19999694824</ele>
        <time>2024-05-21T05:36:19.000Z</time>
      </trkpt>
      <trkpt lat="45.694" lon="4.88987">
        <ele>200.60000610352</ele>
        <time>2024-05-21T05:36:20.000Z</time>
      </trkpt>
      <trkpt lat="45.69396" lon="4.88988">
        <ele>200.60000610352</ele>
        <time>2024-05-21T05:36:21.000Z</time>
      </trkpt>
      <trkpt lat="45.69392" lon="4.8899">
        <ele>200.80000305176</ele>
        <time>2024-05-21T05:36:22.000Z</time>
      </trkpt>
      <trkpt lat="45.69388" lon="4.88991">
        <ele>200.80000305176</ele>
        <time>2024-05-21T05:36:23.000Z</time>
      </trkpt>
      <trkpt lat="45.69384" lon="4.88992">
        <ele>200.80000305176</ele>
        <time>2024-05-21T05:36:24.000Z</time>
      </trkpt>
      <trkpt lat="45.6938" lon="4.88993">
        <ele>200.80000305176</ele>
        <time>2024-05-21T05:36:25.000Z</time>
      </trkpt>
      <trkpt lat="45.69376" lon="4.88994">
        <ele>200.80000305176</ele>
        <time>2024-05-21T05:36:26.000Z</time>
      </trkpt>
      <trkpt lat="45.69372" lon="4.88995">
        <ele>201</ele>
        <time>2024-05-21T05:36:27.000Z</time>
      </trkpt>
      <trkpt lat="45.69368" lon="4.88997">
        <ele>201</ele>
        <time>2024-05-21T05:36:28.000Z</time>
      </trkpt>
      <trkpt lat="45.69364" lon="4.88998">
        <ele>201</ele>
        <time>2024-05-21T05:36:29.000Z</time>
      </trkpt>
      <trkpt lat="45.6936" lon="4.88999">
        <ele>201.19999694824</ele>
        <time>2024-05-21T05:36:30.000Z</time>
      </trkpt>
      <trkpt lat="45.69356" lon="4.89">
        <ele>201.19999694824</ele>
        <time>2024-05-21T05:36:31.000Z</time>
      </trkpt>
      <trkpt lat="45.69352" lon="4.89001">
        <ele>201.19999694824</ele>
        <time>2024-05-21T05:36:32.000Z</time>
      </trkpt>
      <trkpt lat="45.69348" lon="4.89">
        <ele>201.19999694824</ele>
        <time>2024-05-21T05:36:33.000Z</time>
      </trkpt>
      <trkpt lat="45.69345" lon="4.88999">
        <ele>201.19999694824</ele>
        <time>2024-05-21T05:36:34.000Z</time>
      </trkpt>
      <trkpt lat="45.69341" lon="4.88999">
        <ele>201.19999694824</ele>
        <time>2024-05-21T05:36:35.000Z</time>
      </trkpt>
      <trkpt lat="45.69337" lon="4.89">
        <ele>201.39999389648</ele>
        <time>2024-05-21T05:36:36.000Z</time>
      </trkpt>
      <trkpt lat="45.69333" lon="4.89002">
        <ele>201.39999389648</ele>
        <time>2024-05-21T05:36:37.000Z</time>
      </trkpt>
      <trkpt lat="45.6933" lon="4.89004">
        <ele>201.39999389648</ele>
        <time>2024-05-21T05:36:38.000Z</time>
      </trkpt>
      <trkpt lat="45.69326" lon="4.89005">
        <ele>201.39999389648</ele>
        <time>2024-05-21T05:36:39.000Z</time>
      </trkpt>
      <trkpt lat="45.69321" lon="4.89006">
        <ele>201.60000610352</ele>
        <time>2024-05-21T05:36:40.000Z</time>
      </trkpt>
      <trkpt lat="45.69317" lon="4.89007">
        <ele>201.60000610352</ele>
        <time>2024-05-21T05:36:41.000Z</time>
      </trkpt>
      <trkpt lat="45.69313" lon="4.89008">
        <ele>201.60000610352</ele>
        <time>2024-05-21T05:36:42.000Z</time>
      </trkpt>
      <trkpt lat="45.69309" lon="4.89008">
        <ele>201.60000610352</ele>
        <time>2024-05-21T05:36:43.000Z</time>
      </trkpt>
      <trkpt lat="45.69305" lon="4.89009">
        <ele>201.60000610352</ele>
        <time>2024-05-21T05:36:44.000Z</time>
      </trkpt>
      <trkpt lat="45.69301" lon="4.89009">
        <ele>201.60000610352</ele>
        <time>2024-05-21T05:36:45.000Z</time>
      </trkpt>
      <trkpt lat="45.69296" lon="4.89009">
        <ele>201.60000610352</ele>
        <time>2024-05-21T05:36:46.000Z</time>
      </trkpt>
      <trkpt lat="45.69292" lon="4.89009">
        <ele>201.80000305176</ele>
        <time>2024-05-21T05:36:47.000Z</time>
      </trkpt>
      <trkpt lat="45.69288" lon="4.89009">
        <ele>201.80000305176</ele>
        <time>2024-05-21T05:36:48.000Z</time>
      </trkpt>
      <trkpt lat="45.69283" lon="4.89009">
        <ele>202</ele>
        <time>2024-05-21T05:36:49.000Z</time>
      </trkpt>
      <trkpt lat="45.69279" lon="4.89009">
        <ele>202</ele>
        <time>2024-05-21T05:36:50.000Z</time>
      </trkpt>
      <trkpt lat="45.69275" lon="4.89009">
        <ele>202</ele>
        <time>2024-05-21T05:36:51.000Z</time>
      </trkpt>
      <trkpt lat="45.69271" lon="4.89009">
        <ele>202</ele>
        <time>2024-05-21T05:36:52.000Z</time>
      </trkpt>
      <trkpt lat="45.69266" lon="4.8901">
        <ele>202</ele>
        <time>2024-05-21T05:36:53.000Z</time>
      </trkpt>
      <trkpt lat="45.69262" lon="4.8901">
        <ele>202</ele>
        <time>2024-05-21T05:36:54.000Z</time>
      </trkpt>
      <trkpt lat="45.69258" lon="4.8901">
        <ele>202.19999694824</ele>
        <time>2024-05-21T05:36:55.000Z</time>
      </trkpt>
      <trkpt lat="45.69252" lon="4.8901">
        <ele>202.19999694824</ele>
        <time>2024-05-21T05:36:56.000Z</time>
      </trkpt>
      <trkpt lat="45.69249" lon="4.8901">
        <ele>202.19999694824</ele>
        <time>2024-05-21T05:36:57.000Z</time>
      </trkpt>
      <trkpt lat="45.69244" lon="4.89011">
        <ele>202.39999389648</ele>
        <time>2024-05-21T05:36:58.000Z</time>
      </trkpt>
      <trkpt lat="45.69239" lon="4.89011">
        <ele>202.39999389648</ele>
        <time>2024-05-21T05:36:59.000Z</time>
      </trkpt>
      <trkpt lat="45.69236" lon="4.89011">
        <ele>202.39999389648</ele>
        <time>2024-05-21T05:37:00.000Z</time>
      </trkpt>
      <trkpt lat="45.69231" lon="4.89012">
        <ele>202.60000610352</ele>
        <time>2024-05-21T05:37:01.000Z</time>
      </trkpt>
      <trkpt lat="45.69226" lon="4.89012">
        <ele>202.60000610352</ele>
        <time>2024-05-21T05:37:02.000Z</time>
      </trkpt>
      <trkpt lat="45.69223" lon="4.89013">
        <ele>202.60000610352</ele>
        <time>2024-05-21T05:37:03.000Z</time>
      </trkpt>
      <trkpt lat="45.69217" lon="4.89013">
        <ele>202.60000610352</ele>
        <time>2024-05-21T05:37:04.000Z</time>
      </trkpt>
      <trkpt lat="45.69213" lon="4.89014">
        <ele>202.60000610352</ele>
        <time>2024-05-21T05:37:05.000Z</time>
      </trkpt>
      <trkpt lat="45.6921" lon="4.89014">
        <ele>202.60000610352</ele>
        <time>2024-05-21T05:37:06.000Z</time>
      </trkpt>
      <trkpt lat="45.69204" lon="4.89015">
        <ele>202.60000610352</ele>
        <time>2024-05-21T05:37:07.000Z</time>
      </trkpt>
      <trkpt lat="45.69201" lon="4.89015">
        <ele>202.60000610352</ele>
        <time>2024-05-21T05:37:08.000Z</time>
      </trkpt>
      <trkpt lat="45.69196" lon="4.89015">
        <ele>202.60000610352</ele>
        <time>2024-05-21T05:37:09.000Z</time>
      </trkpt>
      <trkpt lat="45.69191" lon="4.89016">
        <ele>202.60000610352</ele>
        <time>2024-05-21T05:37:10.000Z</time>
      </trkpt>
      <trkpt lat="45.69187" lon="4.89016">
        <ele>202.60000610352</ele>
        <time>2024-05-21T05:37:11.000Z</time>
      </trkpt>
      <trkpt lat="45.69183" lon="4.89017">
        <ele>202.60000610352</ele>
        <time>2024-05-21T05:37:12.000Z</time>
      </trkpt>
      <trkpt lat="45.69179" lon="4.89018">
        <ele>202.80000305176</ele>
        <time>2024-05-21T05:37:13.000Z</time>
      </trkpt>
      <trkpt lat="45.69174" lon="4.89019">
        <ele>202.80000305176</ele>
        <time>2024-05-21T05:37:14.000Z</time>
      </trkpt>
      <trkpt lat="45.6917" lon="4.8902">
        <ele>202.80000305176</ele>
        <time>2024-05-21T05:37:15.000Z</time>
      </trkpt>
      <trkpt lat="45.69167" lon="4.89021">
        <ele>202.80000305176</ele>
        <time>2024-05-21T05:37:16.000Z</time>
      </trkpt>
      <trkpt lat="45.69162" lon="4.89022">
        <ele>202.80000305176</ele>
        <time>2024-05-21T05:37:17.000Z</time>
      </trkpt>
      <trkpt lat="45.6916" lon="4.89023">
        <ele>202.80000305176</ele>
        <time>2024-05-21T05:37:18.000Z</time>
      </trkpt>
      <trkpt lat="45.69157" lon="4.89024">
        <ele>203</ele>
        <time>2024-05-21T05:37:19.000Z</time>
      </trkpt>
      <trkpt lat="45.69155" lon="4.89025">
        <ele>203.19999694824</ele>
        <time>2024-05-21T05:37:20.000Z</time>
      </trkpt>
      <trkpt lat="45.69154" lon="4.89025">
        <ele>203.39999389648</ele>
        <time>2024-05-21T05:37:21.000Z</time>
      </trkpt>
      <trkpt lat="45.69152" lon="4.89025">
        <ele>203.60000610352</ele>
        <time>2024-05-21T05:37:22.000Z</time>
      </trkpt>
      <trkpt lat="45.69151" lon="4.89026">
        <ele>203.80000305176</ele>
        <time>2024-05-21T05:37:23.000Z</time>
      </trkpt>
      <trkpt lat="45.6915" lon="4.89026">
        <ele>204</ele>
        <time>2024-05-21T05:37:24.000Z</time>
      </trkpt>
      <trkpt lat="45.69149" lon="4.89026">
        <ele>204</ele>
        <time>2024-05-21T05:37:25.000Z</time>
      </trkpt>
      <trkpt lat="45.69149" lon="4.89027">
        <ele>204</ele>
        <time>2024-05-21T05:37:26.000Z</time>
      </trkpt>
      <trkpt lat="45.69149" lon="4.89027">
        <ele>204.19999694824</ele>
        <time>2024-05-21T05:37:27.000Z</time>
      </trkpt>
      <trkpt lat="45.69143" lon="4.8903">
        <ele>204.19999694824</ele>
        <time>2024-05-21T05:37:33.000Z</time>
      </trkpt>
      <trkpt lat="45.69141" lon="4.89032">
        <ele>204</ele>
        <time>2024-05-21T05:37:34.000Z</time>
      </trkpt>
      <trkpt lat="45.69138" lon="4.89034">
        <ele>204</ele>
        <time>2024-05-21T05:37:35.000Z</time>
      </trkpt>
      <trkpt lat="45.69135" lon="4.89035">
        <ele>203.80000305176</ele>
        <time>2024-05-21T05:37:36.000Z</time>
      </trkpt>
      <trkpt lat="45.69131" lon="4.89038">
        <ele>203.80000305176</ele>
        <time>2024-05-21T05:37:37.000Z</time>
      </trkpt>
      <trkpt lat="45.69128" lon="4.8904">
        <ele>203.80000305176</ele>
        <time>2024-05-21T05:37:38.000Z</time>
      </trkpt>
      <trkpt lat="45.69125" lon="4.89042">
        <ele>203.80000305176</ele>
        <time>2024-05-21T05:37:39.000Z</time>
      </trkpt>
      <trkpt lat="45.69122" lon="4.89044">
        <ele>203.80000305176</ele>
        <time>2024-05-21T05:37:40.000Z</time>
      </trkpt>
      <trkpt lat="45.69118" lon="4.89047">
        <ele>203.80000305176</ele>
        <time>2024-05-21T05:37:41.000Z</time>
      </trkpt>
      <trkpt lat="45.69115" lon="4.89049">
        <ele>203.80000305176</ele>
        <time>2024-05-21T05:37:42.000Z</time>
      </trkpt>
      <trkpt lat="45.6911" lon="4.89052">
        <ele>203.80000305176</ele>
        <time>2024-05-21T05:37:43.000Z</time>
      </trkpt>
      <trkpt lat="45.69108" lon="4.89054">
        <ele>203.80000305176</ele>
        <time>2024-05-21T05:37:44.000Z</time>
      </trkpt>
      <trkpt lat="45.69104" lon="4.89056">
        <ele>203.80000305176</ele>
        <time>2024-05-21T05:37:45.000Z</time>
      </trkpt>
      <trkpt lat="45.69099" lon="4.89059">
        <ele>203.80000305176</ele>
        <time>2024-05-21T05:37:46.000Z</time>
      </trkpt>
      <trkpt lat="45.69095" lon="4.89061">
        <ele>203.80000305176</ele>
        <time>2024-05-21T05:37:47.000Z</time>
      </trkpt>
      <trkpt lat="45.69092" lon="4.89064">
        <ele>203.80000305176</ele>
        <time>2024-05-21T05:37:48.000Z</time>
      </trkpt>
      <trkpt lat="45.69088" lon="4.89067">
        <ele>203.80000305176</ele>
        <time>2024-05-21T05:37:49.000Z</time>
      </trkpt>
      <trkpt lat="45.69084" lon="4.8907">
        <ele>203.80000305176</ele>
        <time>2024-05-21T05:37:50.000Z</time>
      </trkpt>
      <trkpt lat="45.69081" lon="4.89072">
        <ele>203.80000305176</ele>
        <time>2024-05-21T05:37:51.000Z</time>
      </trkpt>
      <trkpt lat="45.69077" lon="4.89075">
        <ele>203.80000305176</ele>
        <time>2024-05-21T05:37:52.000Z</time>
      </trkpt>
      <trkpt lat="45.69072" lon="4.89078">
        <ele>204</ele>
        <time>2024-05-21T05:37:53.000Z</time>
      </trkpt>
      <trkpt lat="45.69069" lon="4.8908">
        <ele>204</ele>
        <time>2024-05-21T05:37:54.000Z</time>
      </trkpt>
      <trkpt lat="45.69065" lon="4.89082">
        <ele>204</ele>
        <time>2024-05-21T05:37:55.000Z</time>
      </trkpt>
      <trkpt lat="45.69061" lon="4.89084">
        <ele>204</ele>
        <time>2024-05-21T05:37:56.000Z</time>
      </trkpt>
      <trkpt lat="45.69057" lon="4.89086">
        <ele>204.19999694824</ele>
        <time>2024-05-21T05:37:57.000Z</time>
      </trkpt>
      <trkpt lat="45.69053" lon="4.89088">
        <ele>204.39999389648</ele>
        <time>2024-05-21T05:37:58.000Z</time>
      </trkpt>
      <trkpt lat="45.69048" lon="4.8909">
        <ele>204.39999389648</ele>
        <time>2024-05-21T05:37:59.000Z</time>
      </trkpt>
      <trkpt lat="45.69045" lon="4.89091">
        <ele>204.39999389648</ele>
        <time>2024-05-21T05:38:00.000Z</time>
      </trkpt>
      <trkpt lat="45.69041" lon="4.89092">
        <ele>204.39999389648</ele>
        <time>2024-05-21T05:38:01.000Z</time>
      </trkpt>
      <trkpt lat="45.69035" lon="4.89093">
        <ele>204.39999389648</ele>
        <time>2024-05-21T05:38:02.000Z</time>
      </trkpt>
      <trkpt lat="45.69031" lon="4.89094">
        <ele>204.60000610352</ele>
        <time>2024-05-21T05:38:03.000Z</time>
      </trkpt>
      <trkpt lat="45.69026" lon="4.89096">
        <ele>204.60000610352</ele>
        <time>2024-05-21T05:38:04.000Z</time>
      </trkpt>
      <trkpt lat="45.69022" lon="4.89096">
        <ele>204.60000610352</ele>
        <time>2024-05-21T05:38:05.000Z</time>
      </trkpt>
      <trkpt lat="45.69018" lon="4.89097">
        <ele>204.60000610352</ele>
        <time>2024-05-21T05:38:06.000Z</time>
      </trkpt>
      <trkpt lat="45.69013" lon="4.89098">
        <ele>204.60000610352</ele>
        <time>2024-05-21T05:38:07.000Z</time>
      </trkpt>
      <trkpt lat="45.69009" lon="4.89098">
        <ele>204.60000610352</ele>
        <time>2024-05-21T05:38:08.000Z</time>
      </trkpt>
      <trkpt lat="45.69005" lon="4.89099">
        <ele>204.60000610352</ele>
        <time>2024-05-21T05:38:09.000Z</time>
      </trkpt>
      <trkpt lat="45.69" lon="4.891">
        <ele>204.60000610352</ele>
        <time>2024-05-21T05:38:10.000Z</time>
      </trkpt>
      <trkpt lat="45.68995" lon="4.89101">
        <ele>204.60000610352</ele>
        <time>2024-05-21T05:38:11.000Z</time>
      </trkpt>
      <trkpt lat="45.68992" lon="4.89102">
        <ele>204.80000305176</ele>
        <time>2024-05-21T05:38:12.000Z</time>
      </trkpt>
      <trkpt lat="45.68986" lon="4.89103">
        <ele>204.80000305176</ele>
        <time>2024-05-21T05:38:13.000Z</time>
      </trkpt>
      <trkpt lat="45.68982" lon="4.89104">
        <ele>204.80000305176</ele>
        <time>2024-05-21T05:38:14.000Z</time>
      </trkpt>
      <trkpt lat="45.68979" lon="4.89105">
        <ele>205</ele>
        <time>2024-05-21T05:38:15.000Z</time>
      </trkpt>
      <trkpt lat="45.68974" lon="4.89106">
        <ele>205.19999694824</ele>
        <time>2024-05-21T05:38:16.000Z</time>
      </trkpt>
      <trkpt lat="45.6897" lon="4.89107">
        <ele>205.19999694824</ele>
        <time>2024-05-21T05:38:17.000Z</time>
      </trkpt>
      <trkpt lat="45.68966" lon="4.89108">
        <ele>205.39999389648</ele>
        <time>2024-05-21T05:38:18.000Z</time>
      </trkpt>
      <trkpt lat="45.68961" lon="4.89108">
        <ele>205.39999389648</ele>
        <time>2024-05-21T05:38:19.000Z</time>
      </trkpt>
      <trkpt lat="45.68957" lon="4.89109">
        <ele>205.39999389648</ele>
        <time>2024-05-21T05:38:20.000Z</time>
      </trkpt>
      <trkpt lat="45.68953" lon="4.8911">
        <ele>205.60000610352</ele>
        <time>2024-05-21T05:38:21.000Z</time>
      </trkpt>
      <trkpt lat="45.68948" lon="4.89111">
        <ele>205.60000610352</ele>
        <time>2024-05-21T05:38:22.000Z</time>
      </trkpt>
      <trkpt lat="45.68944" lon="4.89111">
        <ele>205.60000610352</ele>
        <time>2024-05-21T05:38:23.000Z</time>
      </trkpt>
      <trkpt lat="45.68941" lon="4.89112">
        <ele>205.80000305176</ele>
        <time>2024-05-21T05:38:24.000Z</time>
      </trkpt>
      <trkpt lat="45.68936" lon="4.89112">
        <ele>205.80000305176</ele>
        <time>2024-05-21T05:38:25.000Z</time>
      </trkpt>
      <trkpt lat="45.68932" lon="4.89113">
        <ele>205.80000305176</ele>
        <time>2024-05-21T05:38:26.000Z</time>
      </trkpt>
      <trkpt lat="45.68929" lon="4.89113">
        <ele>206</ele>
        <time>2024-05-21T05:38:27.000Z</time>
      </trkpt>
      <trkpt lat="45.68925" lon="4.89114">
        <ele>206</ele>
        <time>2024-05-21T05:38:28.000Z</time>
      </trkpt>
      <trkpt lat="45.6892" lon="4.89115">
        <ele>206.19999694824</ele>
        <time>2024-05-21T05:38:29.000Z</time>
      </trkpt>
      <trkpt lat="45.68917" lon="4.89115">
        <ele>206.39999389648</ele>
        <time>2024-05-21T05:38:30.000Z</time>
      </trkpt>
      <trkpt lat="45.68913" lon="4.89116">
        <ele>206.60000610352</ele>
        <time>2024-05-21T05:38:31.000Z</time>
      </trkpt>
      <trkpt lat="45.68908" lon="4.89117">
        <ele>206.80000305176</ele>
        <time>2024-05-21T05:38:32.000Z</time>
      </trkpt>
      <trkpt lat="45.68905" lon="4.89118">
        <ele>206.80000305176</ele>
        <time>2024-05-21T05:38:33.000Z</time>
      </trkpt>
      <trkpt lat="45.689" lon="4.89118">
        <ele>206.80000305176</ele>
        <time>2024-05-21T05:38:34.000Z</time>
      </trkpt>
      <trkpt lat="45.68896" lon="4.89119">
        <ele>207</ele>
        <time>2024-05-21T05:38:35.000Z</time>
      </trkpt>
      <trkpt lat="45.68893" lon="4.89119">
        <ele>207.19999694824</ele>
        <time>2024-05-21T05:38:36.000Z</time>
      </trkpt>
      <trkpt lat="45.68888" lon="4.8912">
        <ele>207.19999694824</ele>
        <time>2024-05-21T05:38:37.000Z</time>
      </trkpt>
      <trkpt lat="45.68884" lon="4.8912">
        <ele>207.39999389648</ele>
        <time>2024-05-21T05:38:38.000Z</time>
      </trkpt>
      <trkpt lat="45.6888" lon="4.8912">
        <ele>207.39999389648</ele>
        <time>2024-05-21T05:38:39.000Z</time>
      </trkpt>
      <trkpt lat="45.68877" lon="4.8912">
        <ele>207.39999389648</ele>
        <time>2024-05-21T05:38:40.000Z</time>
      </trkpt>
      <trkpt lat="45.68872" lon="4.8912">
        <ele>207.60000610352</ele>
        <time>2024-05-21T05:38:41.000Z</time>
      </trkpt>
      <trkpt lat="45.68869" lon="4.89121">
        <ele>207.60000610352</ele>
        <time>2024-05-21T05:38:42.000Z</time>
      </trkpt>
      <trkpt lat="45.68864" lon="4.89121">
        <ele>207.60000610352</ele>
        <time>2024-05-21T05:38:43.000Z</time>
      </trkpt>
      <trkpt lat="45.68861" lon="4.89121">
        <ele>207.80000305176</ele>
        <time>2024-05-21T05:38:44.000Z</time>
      </trkpt>
      <trkpt lat="45.68858" lon="4.8912">
        <ele>208</ele>
        <time>2024-05-21T05:38:45.000Z</time>
      </trkpt>
      <trkpt lat="45.68854" lon="4.89119">
        <ele>208.19999694824</ele>
        <time>2024-05-21T05:38:46.000Z</time>
      </trkpt>
      <trkpt lat="45.6885" lon="4.89118">
        <ele>208.39999389648</ele>
        <time>2024-05-21T05:38:47.000Z</time>
      </trkpt>
      <trkpt lat="45.68847" lon="4.89117">
        <ele>208.60000610352</ele>
        <time>2024-05-21T05:38:48.000Z</time>
      </trkpt>
      <trkpt lat="45.68843" lon="4.89115">
        <ele>208.60000610352</ele>
        <time>2024-05-21T05:38:49.000Z</time>
      </trkpt>
      <trkpt lat="45.68839" lon="4.89114">
        <ele>208.80000305176</ele>
        <time>2024-05-21T05:38:50.000Z</time>
      </trkpt>
      <trkpt lat="45.68836" lon="4.89113">
        <ele>208.80000305176</ele>
        <time>2024-05-21T05:38:51.000Z</time>
      </trkpt>
      <trkpt lat="45.68832" lon="4.89113">
        <ele>208.80000305176</ele>
        <time>2024-05-21T05:38:52.000Z</time>
      </trkpt>
      <trkpt lat="45.68827" lon="4.89115">
        <ele>208.80000305176</ele>
        <time>2024-05-21T05:38:53.000Z</time>
      </trkpt>
      <trkpt lat="45.68824" lon="4.89116">
        <ele>208.80000305176</ele>
        <time>2024-05-21T05:38:54.000Z</time>
      </trkpt>
      <trkpt lat="45.6882" lon="4.89119">
        <ele>208.80000305176</ele>
        <time>2024-05-21T05:38:55.000Z</time>
      </trkpt>
      <trkpt lat="45.68817" lon="4.89122">
        <ele>209</ele>
        <time>2024-05-21T05:38:56.000Z</time>
      </trkpt>
      <trkpt lat="45.68814" lon="4.89125">
        <ele>209</ele>
        <time>2024-05-21T05:38:57.000Z</time>
      </trkpt>
      <trkpt lat="45.6881" lon="4.89129">
        <ele>209.19999694824</ele>
        <time>2024-05-21T05:38:58.000Z</time>
      </trkpt>
      <trkpt lat="45.68806" lon="4.89131">
        <ele>209.39999389648</ele>
        <time>2024-05-21T05:38:59.000Z</time>
      </trkpt>
      <trkpt lat="45.68803" lon="4.89133">
        <ele>209.39999389648</ele>
        <time>2024-05-21T05:39:00.000Z</time>
      </trkpt>
      <trkpt lat="45.688" lon="4.89134">
        <ele>209.39999389648</ele>
        <time>2024-05-21T05:39:01.000Z</time>
      </trkpt>
      <trkpt lat="45.68796" lon="4.89135">
        <ele>209.60000610352</ele>
        <time>2024-05-21T05:39:02.000Z</time>
      </trkpt>
      <trkpt lat="45.68793" lon="4.89135">
        <ele>209.60000610352</ele>
        <time>2024-05-21T05:39:03.000Z</time>
      </trkpt>
      <trkpt lat="45.68789" lon="4.89136">
        <ele>209.80000305176</ele>
        <time>2024-05-21T05:39:04.000Z</time>
      </trkpt>
      <trkpt lat="45.68785" lon="4.89136">
        <ele>210</ele>
        <time>2024-05-21T05:39:05.000Z</time>
      </trkpt>
      <trkpt lat="45.68782" lon="4.89137">
        <ele>210.39999389648</ele>
        <time>2024-05-21T05:39:06.000Z</time>
      </trkpt>
      <trkpt lat="45.68778" lon="4.89137">
        <ele>210.60000610352</ele>
        <time>2024-05-21T05:39:07.000Z</time>
      </trkpt>
      <trkpt lat="45.68775" lon="4.89138">
        <ele>210.80000305176</ele>
        <time>2024-05-21T05:39:08.000Z</time>
      </trkpt>
      <trkpt lat="45.68772" lon="4.89139">
        <ele>211</ele>
        <time>2024-05-21T05:39:09.000Z</time>
      </trkpt>
      <trkpt lat="45.68768" lon="4.89139">
        <ele>211</ele>
        <time>2024-05-21T05:39:10.000Z</time>
      </trkpt>
      <trkpt lat="45.68765" lon="4.8914">
        <ele>211.19999694824</ele>
        <time>2024-05-21T05:39:11.000Z</time>
      </trkpt>
      <trkpt lat="45.68762" lon="4.89141">
        <ele>211.39999389648</ele>
        <time>2024-05-21T05:39:12.000Z</time>
      </trkpt>
      <trkpt lat="45.68758" lon="4.89142">
        <ele>211.39999389648</ele>
        <time>2024-05-21T05:39:13.000Z</time>
      </trkpt>
      <trkpt lat="45.68755" lon="4.89142">
        <ele>211.80000305176</ele>
        <time>2024-05-21T05:39:14.000Z</time>
      </trkpt>
      <trkpt lat="45.68752" lon="4.89143">
        <ele>212</ele>
        <time>2024-05-21T05:39:15.000Z</time>
      </trkpt>
      <trkpt lat="45.68749" lon="4.89144">
        <ele>212.19999694824</ele>
        <time>2024-05-21T05:39:16.000Z</time>
      </trkpt>
      <trkpt lat="45.68746" lon="4.89144">
        <ele>212.39999389648</ele>
        <time>2024-05-21T05:39:17.000Z</time>
      </trkpt>
      <trkpt lat="45.68743" lon="4.89145">
        <ele>212.39999389648</ele>
        <time>2024-05-21T05:39:18.000Z</time>
      </trkpt>
      <trkpt lat="45.68739" lon="4.89147">
        <ele>212.39999389648</ele>
        <time>2024-05-21T05:39:19.000Z</time>
      </trkpt>
      <trkpt lat="45.68736" lon="4.89148">
        <ele>212.80000305176</ele>
        <time>2024-05-21T05:39:20.000Z</time>
      </trkpt>
      <trkpt lat="45.68733" lon="4.89148">
        <ele>212.80000305176</ele>
        <time>2024-05-21T05:39:21.000Z</time>
      </trkpt>
      <trkpt lat="45.6873" lon="4.89149">
        <ele>213</ele>
        <time>2024-05-21T05:39:22.000Z</time>
      </trkpt>
      <trkpt lat="45.68727" lon="4.8915">
        <ele>213.19999694824</ele>
        <time>2024-05-21T05:39:23.000Z</time>
      </trkpt>
      <trkpt lat="45.68724" lon="4.89151">
        <ele>213.60000610352</ele>
        <time>2024-05-21T05:39:24.000Z</time>
      </trkpt>
      <trkpt lat="45.6872" lon="4.89152">
        <ele>213.80000305176</ele>
        <time>2024-05-21T05:39:25.000Z</time>
      </trkpt>
      <trkpt lat="45.68717" lon="4.89153">
        <ele>213.80000305176</ele>
        <time>2024-05-21T05:39:26.000Z</time>
      </trkpt>
      <trkpt lat="45.68714" lon="4.89154">
        <ele>213.80000305176</ele>
        <time>2024-05-21T05:39:27.000Z</time>
      </trkpt>
      <trkpt lat="45.68711" lon="4.89155">
        <ele>214</ele>
        <time>2024-05-21T05:39:28.000Z</time>
      </trkpt>
      <trkpt lat="45.68707" lon="4.89156">
        <ele>214.19999694824</ele>
        <time>2024-05-21T05:39:29.000Z</time>
      </trkpt>
      <trkpt lat="45.68704" lon="4.89157">
        <ele>214.39999389648</ele>
        <time>2024-05-21T05:39:30.000Z</time>
      </trkpt>
      <trkpt lat="45.687" lon="4.89158">
        <ele>214.60000610352</ele>
        <time>2024-05-21T05:39:31.000Z</time>
      </trkpt>
      <trkpt lat="45.68697" lon="4.89159">
        <ele>214.60000610352</ele>
        <time>2024-05-21T05:39:32.000Z</time>
      </trkpt>
      <trkpt lat="45.68694" lon="4.8916">
        <ele>214.60000610352</ele>
        <time>2024-05-21T05:39:33.000Z</time>
      </trkpt>
      <trkpt lat="45.6869" lon="4.89161">
        <ele>214.60000610352</ele>
        <time>2024-05-21T05:39:34.000Z</time>
      </trkpt>
      <trkpt lat="45.68687" lon="4.89162">
        <ele>214.80000305176</ele>
        <time>2024-05-21T05:39:35.000Z</time>
      </trkpt>
      <trkpt lat="45.68683" lon="4.89163">
        <ele>214.80000305176</ele>
        <time>2024-05-21T05:39:36.000Z</time>
      </trkpt>
      <trkpt lat="45.68679" lon="4.89164">
        <ele>215</ele>
        <time>2024-05-21T05:39:37.000Z</time>
      </trkpt>
      <trkpt lat="45.68676" lon="4.89165">
        <ele>215</ele>
        <time>2024-05-21T05:39:38.000Z</time>
      </trkpt>
      <trkpt lat="45.68673" lon="4.89166">
        <ele>215</ele>
        <time>2024-05-21T05:39:39.000Z</time>
      </trkpt>
      <trkpt lat="45.68669" lon="4.89167">
        <ele>215.19999694824</ele>
        <time>2024-05-21T05:39:40.000Z</time>
      </trkpt>
      <trkpt lat="45.68665" lon="4.89169">
        <ele>215.19999694824</ele>
        <time>2024-05-21T05:39:41.000Z</time>
      </trkpt>
      <trkpt lat="45.68662" lon="4.8917">
        <ele>215.19999694824</ele>
        <time>2024-05-21T05:39:42.000Z</time>
      </trkpt>
      <trkpt lat="45.68658" lon="4.89171">
        <ele>215.19999694824</ele>
        <time>2024-05-21T05:39:43.000Z</time>
      </trkpt>
      <trkpt lat="45.68654" lon="4.89172">
        <ele>215.19999694824</ele>
        <time>2024-05-21T05:39:44.000Z</time>
      </trkpt>
      <trkpt lat="45.68651" lon="4.89173">
        <ele>215.19999694824</ele>
        <time>2024-05-21T05:39:45.000Z</time>
      </trkpt>
      <trkpt lat="45.68646" lon="4.89175">
        <ele>215.19999694824</ele>
        <time>2024-05-21T05:39:46.000Z</time>
      </trkpt>
      <trkpt lat="45.68642" lon="4.89177">
        <ele>215.19999694824</ele>
        <time>2024-05-21T05:39:47.000Z</time>
      </trkpt>
      <trkpt lat="45.68639" lon="4.89179">
        <ele>215.19999694824</ele>
        <time>2024-05-21T05:39:48.000Z</time>
      </trkpt>
      <trkpt lat="45.68634" lon="4.89181">
        <ele>215</ele>
        <time>2024-05-21T05:39:49.000Z</time>
      </trkpt>
      <trkpt lat="45.6863" lon="4.89183">
        <ele>214.80000305176</ele>
        <time>2024-05-21T05:39:50.000Z</time>
      </trkpt>
      <trkpt lat="45.68627" lon="4.89185">
        <ele>214.39999389648</ele>
        <time>2024-05-21T05:39:51.000Z</time>
      </trkpt>
      <trkpt lat="45.68622" lon="4.89188">
        <ele>214.19999694824</ele>
        <time>2024-05-21T05:39:52.000Z</time>
      </trkpt>
      <trkpt lat="45.68617" lon="4.89192">
        <ele>214.19999694824</ele>
        <time>2024-05-21T05:39:53.000Z</time>
      </trkpt>
      <trkpt lat="45.68614" lon="4.89195">
        <ele>214</ele>
        <time>2024-05-21T05:39:54.000Z</time>
      </trkpt>
      <trkpt lat="45.68609" lon="4.892">
        <ele>213.80000305176</ele>
        <time>2024-05-21T05:39:55.000Z</time>
      </trkpt>
      <trkpt lat="45.68605" lon="4.89204">
        <ele>213.60000610352</ele>
        <time>2024-05-21T05:39:56.000Z</time>
      </trkpt>
      <trkpt lat="45.68601" lon="4.89207">
        <ele>213.60000610352</ele>
        <time>2024-05-21T05:39:57.000Z</time>
      </trkpt>
      <trkpt lat="45.68595" lon="4.89213">
        <ele>213.39999389648</ele>
        <time>2024-05-21T05:39:58.000Z</time>
      </trkpt>
      <trkpt lat="45.6859" lon="4.89217">
        <ele>212.80000305176</ele>
        <time>2024-05-21T05:39:59.000Z</time>
      </trkpt>
      <trkpt lat="45.68586" lon="4.89221">
        <ele>212.60000610352</ele>
        <time>2024-05-21T05:40:00.000Z</time>
      </trkpt>
      <trkpt lat="45.68579" lon="4.89227">
        <ele>212.19999694824</ele>
        <time>2024-05-21T05:40:01.000Z</time>
      </trkpt>
      <trkpt lat="45.68574" lon="4.89231">
        <ele>211.80000305176</ele>
        <time>2024-05-21T05:40:02.000Z</time>
      </trkpt>
      <trkpt lat="45.6857" lon="4.89235">
        <ele>211.80000305176</ele>
        <time>2024-05-21T05:40:03.000Z</time>
      </trkpt>
      <trkpt lat="45.68564" lon="4.8924">
        <ele>211.19999694824</ele>
        <time>2024-05-21T05:40:04.000Z</time>
      </trkpt>
      <trkpt lat="45.68559" lon="4.89245">
        <ele>210.80000305176</ele>
        <time>2024-05-21T05:40:05.000Z</time>
      </trkpt>
      <trkpt lat="45.68553" lon="4.89251">
        <ele>210.19999694824</ele>
        <time>2024-05-21T05:40:06.000Z</time>
      </trkpt>
      <trkpt lat="45.68547" lon="4.89259">
        <ele>210</ele>
        <time>2024-05-21T05:40:07.000Z</time>
      </trkpt>
      <trkpt lat="45.68542" lon="4.89264">
        <ele>210</ele>
        <time>2024-05-21T05:40:08.000Z</time>
      </trkpt>
      <trkpt lat="45.68537" lon="4.89271">
        <ele>209.60000610352</ele>
        <time>2024-05-21T05:40:09.000Z</time>
      </trkpt>
      <trkpt lat="45.6853" lon="4.89278">
        <ele>209.39999389648</ele>
        <time>2024-05-21T05:40:10.000Z</time>
      </trkpt>
      <trkpt lat="45.68525" lon="4.89283">
        <ele>209.19999694824</ele>
        <time>2024-05-21T05:40:11.000Z</time>
      </trkpt>
      <trkpt lat="45.68519" lon="4.8929">
        <ele>208.80000305176</ele>
        <time>2024-05-21T05:40:12.000Z</time>
      </trkpt>
      <trkpt lat="45.68513" lon="4.89297">
        <ele>208.80000305176</ele>
        <time>2024-05-21T05:40:13.000Z</time>
      </trkpt>
      <trkpt lat="45.68508" lon="4.89302">
        <ele>208.60000610352</ele>
        <time>2024-05-21T05:40:14.000Z</time>
      </trkpt>
      <trkpt lat="45.68502" lon="4.89307">
        <ele>208.39999389648</ele>
        <time>2024-05-21T05:40:15.000Z</time>
      </trkpt>
      <trkpt lat="45.68495" lon="4.89314">
        <ele>208</ele>
        <time>2024-05-21T05:40:16.000Z</time>
      </trkpt>
      <trkpt lat="45.6849" lon="4.89318">
        <ele>207.80000305176</ele>
        <time>2024-05-21T05:40:17.000Z</time>
      </trkpt>
      <trkpt lat="45.68485" lon="4.89322">
        <ele>207.80000305176</ele>
        <time>2024-05-21T05:40:18.000Z</time>
      </trkpt>
      <trkpt lat="45.68477" lon="4.89326">
        <ele>207.80000305176</ele>
        <time>2024-05-21T05:40:19.000Z</time>
      </trkpt>
      <trkpt lat="45.68472" lon="4.89329">
        <ele>207.60000610352</ele>
        <time>2024-05-21T05:40:20.000Z</time>
      </trkpt>
      <trkpt lat="45.68466" lon="4.89331">
        <ele>207.39999389648</ele>
        <time>2024-05-21T05:40:21.000Z</time>
      </trkpt>
      <trkpt lat="45.68458" lon="4.89333">
        <ele>207.39999389648</ele>
        <time>2024-05-21T05:40:22.000Z</time>
      </trkpt>
      <trkpt lat="45.68454" lon="4.89334">
        <ele>207</ele>
        <time>2024-05-21T05:40:23.000Z</time>
      </trkpt>
      <trkpt lat="45.68448" lon="4.89336">
        <ele>207</ele>
        <time>2024-05-21T05:40:24.000Z</time>
      </trkpt>
      <trkpt lat="45.68441" lon="4.89337">
        <ele>207</ele>
        <time>2024-05-21T05:40:25.000Z</time>
      </trkpt>
      <trkpt lat="45.68437" lon="4.89338">
        <ele>207</ele>
        <time>2024-05-21T05:40:26.000Z</time>
      </trkpt>
      <trkpt lat="45.68431" lon="4.89339">
        <ele>207</ele>
        <time>2024-05-21T05:40:27.000Z</time>
      </trkpt>
      <trkpt lat="45.68426" lon="4.8934">
        <ele>207</ele>
        <time>2024-05-21T05:40:28.000Z</time>
      </trkpt>
      <trkpt lat="45.6842" lon="4.89342">
        <ele>207.19999694824</ele>
        <time>2024-05-21T05:40:29.000Z</time>
      </trkpt>
      <trkpt lat="45.68416" lon="4.89343">
        <ele>207.19999694824</ele>
        <time>2024-05-21T05:40:30.000Z</time>
      </trkpt>
      <trkpt lat="45.6841" lon="4.89345">
        <ele>207.19999694824</ele>
        <time>2024-05-21T05:40:31.000Z</time>
      </trkpt>
      <trkpt lat="45.68406" lon="4.89346">
        <ele>207.19999694824</ele>
        <time>2024-05-21T05:40:32.000Z</time>
      </trkpt>
      <trkpt lat="45.68401" lon="4.89347">
        <ele>207.19999694824</ele>
        <time>2024-05-21T05:40:33.000Z</time>
      </trkpt>
      <trkpt lat="45.68394" lon="4.89349">
        <ele>207.19999694824</ele>
        <time>2024-05-21T05:40:34.000Z</time>
      </trkpt>
      <trkpt lat="45.6839" lon="4.8935">
        <ele>207.19999694824</ele>
        <time>2024-05-21T05:40:35.000Z</time>
      </trkpt>
      <trkpt lat="45.68385" lon="4.89351">
        <ele>207</ele>
        <time>2024-05-21T05:40:36.000Z</time>
      </trkpt>
      <trkpt lat="45.68379" lon="4.89352">
        <ele>207</ele>
        <time>2024-05-21T05:40:37.000Z</time>
      </trkpt>
      <trkpt lat="45.68374" lon="4.89354">
        <ele>207</ele>
        <time>2024-05-21T05:40:38.000Z</time>
      </trkpt>
      <trkpt lat="45.68368" lon="4.89355">
        <ele>207</ele>
        <time>2024-05-21T05:40:39.000Z</time>
      </trkpt>
      <trkpt lat="45.68363" lon="4.89356">
        <ele>206.80000305176</ele>
        <time>2024-05-21T05:40:40.000Z</time>
      </trkpt>
      <trkpt lat="45.68357" lon="4.89358">
        <ele>206.80000305176</ele>
        <time>2024-05-21T05:40:41.000Z</time>
      </trkpt>
      <trkpt lat="45.6835" lon="4.8936">
        <ele>206.60000610352</ele>
        <time>2024-05-21T05:40:42.000Z</time>
      </trkpt>
      <trkpt lat="45.68345" lon="4.89362">
        <ele>206.19999694824</ele>
        <time>2024-05-21T05:40:43.000Z</time>
      </trkpt>
      <trkpt lat="45.6834" lon="4.89363">
        <ele>206.19999694824</ele>
        <time>2024-05-21T05:40:44.000Z</time>
      </trkpt>
      <trkpt lat="45.68335" lon="4.89364">
        <ele>206.19999694824</ele>
        <time>2024-05-21T05:40:45.000Z</time>
      </trkpt>
      <trkpt lat="45.68328" lon="4.89366">
        <ele>206.19999694824</ele>
        <time>2024-05-21T05:40:46.000Z</time>
      </trkpt>
      <trkpt lat="45.68323" lon="4.89367">
        <ele>206.19999694824</ele>
        <time>2024-05-21T05:40:47.000Z</time>
      </trkpt>
      <trkpt lat="45.68317" lon="4.89369">
        <ele>206.19999694824</ele>
        <time>2024-05-21T05:40:48.000Z</time>
      </trkpt>
      <trkpt lat="45.68312" lon="4.8937">
        <ele>206</ele>
        <time>2024-05-21T05:40:49.000Z</time>
      </trkpt>
      <trkpt lat="45.68306" lon="4.89372">
        <ele>206</ele>
        <time>2024-05-21T05:40:50.000Z</time>
      </trkpt>
      <trkpt lat="45.683" lon="4.89373">
        <ele>206</ele>
        <time>2024-05-21T05:40:51.000Z</time>
      </trkpt>
      <trkpt lat="45.68295" lon="4.89375">
        <ele>206</ele>
        <time>2024-05-21T05:40:52.000Z</time>
      </trkpt>
      <trkpt lat="45.68289" lon="4.89376">
        <ele>206</ele>
        <time>2024-05-21T05:40:53.000Z</time>
      </trkpt>
      <trkpt lat="45.68283" lon="4.89378">
        <ele>206</ele>
        <time>2024-05-21T05:40:54.000Z</time>
      </trkpt>
      <trkpt lat="45.68276" lon="4.89379">
        <ele>206</ele>
        <time>2024-05-21T05:40:55.000Z</time>
      </trkpt>
      <trkpt lat="45.68272" lon="4.8938">
        <ele>205.80000305176</ele>
        <time>2024-05-21T05:40:56.000Z</time>
      </trkpt>
      <trkpt lat="45.68266" lon="4.89382">
        <ele>205.80000305176</ele>
        <time>2024-05-21T05:40:57.000Z</time>
      </trkpt>
      <trkpt lat="45.68261" lon="4.89383">
        <ele>205.80000305176</ele>
        <time>2024-05-21T05:40:58.000Z</time>
      </trkpt>
      <trkpt lat="45.68255" lon="4.89384">
        <ele>205.80000305176</ele>
        <time>2024-05-21T05:40:59.000Z</time>
      </trkpt>
      <trkpt lat="45.68248" lon="4.89386">
        <ele>205.80000305176</ele>
        <time>2024-05-21T05:41:00.000Z</time>
      </trkpt>
      <trkpt lat="45.68244" lon="4.89387">
        <ele>205.80000305176</ele>
        <time>2024-05-21T05:41:01.000Z</time>
      </trkpt>
      <trkpt lat="45.68238" lon="4.89389">
        <ele>205.80000305176</ele>
        <time>2024-05-21T05:41:02.000Z</time>
      </trkpt>
      <trkpt lat="45.68233" lon="4.8939">
        <ele>205.80000305176</ele>
        <time>2024-05-21T05:41:03.000Z</time>
      </trkpt>
      <trkpt lat="45.68226" lon="4.89392">
        <ele>205.80000305176</ele>
        <time>2024-05-21T05:41:04.000Z</time>
      </trkpt>
      <trkpt lat="45.68222" lon="4.89393">
        <ele>205.80000305176</ele>
        <time>2024-05-21T05:41:05.000Z</time>
      </trkpt>
      <trkpt lat="45.68217" lon="4.89394">
        <ele>205.80000305176</ele>
        <time>2024-05-21T05:41:06.000Z</time>
      </trkpt>
      <trkpt lat="45.6821" lon="4.89396">
        <ele>205.80000305176</ele>
        <time>2024-05-21T05:41:07.000Z</time>
      </trkpt>
      <trkpt lat="45.68206" lon="4.89397">
        <ele>205.80000305176</ele>
        <time>2024-05-21T05:41:08.000Z</time>
      </trkpt>
      <trkpt lat="45.68201" lon="4.89398">
        <ele>205.80000305176</ele>
        <time>2024-05-21T05:41:09.000Z</time>
      </trkpt>
      <trkpt lat="45.68195" lon="4.894">
        <ele>205.80000305176</ele>
        <time>2024-05-21T05:41:10.000Z</time>
      </trkpt>
      <trkpt lat="45.6819" lon="4.89401">
        <ele>205.60000610352</ele>
        <time>2024-05-21T05:41:11.000Z</time>
      </trkpt>
      <trkpt lat="45.68185" lon="4.89403">
        <ele>205.60000610352</ele>
        <time>2024-05-21T05:41:12.000Z</time>
      </trkpt>
      <trkpt lat="45.68178" lon="4.89404">
        <ele>205.60000610352</ele>
        <time>2024-05-21T05:41:13.000Z</time>
      </trkpt>
      <trkpt lat="45.68174" lon="4.89405">
        <ele>205.60000610352</ele>
        <time>2024-05-21T05:41:14.000Z</time>
      </trkpt>
      <trkpt lat="45.68169" lon="4.89407">
        <ele>205.60000610352</ele>
        <time>2024-05-21T05:41:15.000Z</time>
      </trkpt>
      <trkpt lat="45.68163" lon="4.89408">
        <ele>205.60000610352</ele>
        <time>2024-05-21T05:41:16.000Z</time>
      </trkpt>
      <trkpt lat="45.68158" lon="4.8941">
        <ele>205.60000610352</ele>
        <time>2024-05-21T05:41:17.000Z</time>
      </trkpt>
      <trkpt lat="45.68152" lon="4.89412">
        <ele>205.39999389648</ele>
        <time>2024-05-21T05:41:18.000Z</time>
      </trkpt>
      <trkpt lat="45.68146" lon="4.89414">
        <ele>205.39999389648</ele>
        <time>2024-05-21T05:41:19.000Z</time>
      </trkpt>
      <trkpt lat="45.68141" lon="4.89415">
        <ele>205.39999389648</ele>
        <time>2024-05-21T05:41:20.000Z</time>
      </trkpt>
      <trkpt lat="45.68136" lon="4.89416">
        <ele>205.39999389648</ele>
        <time>2024-05-21T05:41:21.000Z</time>
      </trkpt>
      <trkpt lat="45.68129" lon="4.89418">
        <ele>205.39999389648</ele>
        <time>2024-05-21T05:41:22.000Z</time>
      </trkpt>
      <trkpt lat="45.68125" lon="4.89419">
        <ele>205.39999389648</ele>
        <time>2024-05-21T05:41:23.000Z</time>
      </trkpt>
      <trkpt lat="45.6812" lon="4.89421">
        <ele>205.39999389648</ele>
        <time>2024-05-21T05:41:24.000Z</time>
      </trkpt>
      <trkpt lat="45.68115" lon="4.89422">
        <ele>205.39999389648</ele>
        <time>2024-05-21T05:41:25.000Z</time>
      </trkpt>
      <trkpt lat="45.68109" lon="4.89424">
        <ele>205.39999389648</ele>
        <time>2024-05-21T05:41:26.000Z</time>
      </trkpt>
      <trkpt lat="45.68104" lon="4.89426">
        <ele>205.39999389648</ele>
        <time>2024-05-21T05:41:27.000Z</time>
      </trkpt>
      <trkpt lat="45.68099" lon="4.89428">
        <ele>205.39999389648</ele>
        <time>2024-05-21T05:41:28.000Z</time>
      </trkpt>
      <trkpt lat="45.68094" lon="4.8943">
        <ele>205.39999389648</ele>
        <time>2024-05-21T05:41:29.000Z</time>
      </trkpt>
      <trkpt lat="45.68089" lon="4.89432">
        <ele>205.60000610352</ele>
        <time>2024-05-21T05:41:30.000Z</time>
      </trkpt>
      <trkpt lat="45.68084" lon="4.89433">
        <ele>205.60000610352</ele>
        <time>2024-05-21T05:41:31.000Z</time>
      </trkpt>
      <trkpt lat="45.68079" lon="4.89435">
        <ele>205.60000610352</ele>
        <time>2024-05-21T05:41:32.000Z</time>
      </trkpt>
      <trkpt lat="45.68072" lon="4.89437">
        <ele>205.60000610352</ele>
        <time>2024-05-21T05:41:33.000Z</time>
      </trkpt>
      <trkpt lat="45.68067" lon="4.89438">
        <ele>205.80000305176</ele>
        <time>2024-05-21T05:41:34.000Z</time>
      </trkpt>
      <trkpt lat="45.68063" lon="4.89439">
        <ele>205.80000305176</ele>
        <time>2024-05-21T05:41:35.000Z</time>
      </trkpt>
      <trkpt lat="45.68058" lon="4.8944">
        <ele>205.80000305176</ele>
        <time>2024-05-21T05:41:36.000Z</time>
      </trkpt>
      <trkpt lat="45.68051" lon="4.89441">
        <ele>205.80000305176</ele>
        <time>2024-05-21T05:41:37.000Z</time>
      </trkpt>
      <trkpt lat="45.68047" lon="4.89442">
        <ele>206</ele>
        <time>2024-05-21T05:41:38.000Z</time>
      </trkpt>
      <trkpt lat="45.68041" lon="4.89444">
        <ele>206</ele>
        <time>2024-05-21T05:41:39.000Z</time>
      </trkpt>
      <trkpt lat="45.68036" lon="4.89445">
        <ele>206</ele>
        <time>2024-05-21T05:41:40.000Z</time>
      </trkpt>
      <trkpt lat="45.68032" lon="4.89447">
        <ele>206.19999694824</ele>
        <time>2024-05-21T05:41:41.000Z</time>
      </trkpt>
      <trkpt lat="45.68028" lon="4.89448">
        <ele>206.19999694824</ele>
        <time>2024-05-21T05:41:42.000Z</time>
      </trkpt>
      <trkpt lat="45.68023" lon="4.8945">
        <ele>206.39999389648</ele>
        <time>2024-05-21T05:41:43.000Z</time>
      </trkpt>
      <trkpt lat="45.68019" lon="4.89451">
        <ele>206.39999389648</ele>
        <time>2024-05-21T05:41:44.000Z</time>
      </trkpt>
      <trkpt lat="45.68015" lon="4.89453">
        <ele>206.60000610352</ele>
        <time>2024-05-21T05:41:45.000Z</time>
      </trkpt>
      <trkpt lat="45.68011" lon="4.89455">
        <ele>206.80000305176</ele>
        <time>2024-05-21T05:41:46.000Z</time>
      </trkpt>
      <trkpt lat="45.68007" lon="4.89456">
        <ele>206.80000305176</ele>
        <time>2024-05-21T05:41:47.000Z</time>
      </trkpt>
      <trkpt lat="45.68002" lon="4.89458">
        <ele>206.80000305176</ele>
        <time>2024-05-21T05:41:48.000Z</time>
      </trkpt>
      <trkpt lat="45.67997" lon="4.8946">
        <ele>207</ele>
        <time>2024-05-21T05:41:49.000Z</time>
      </trkpt>
      <trkpt lat="45.67994" lon="4.89461">
        <ele>207</ele>
        <time>2024-05-21T05:41:50.000Z</time>
      </trkpt>
      <trkpt lat="45.6799" lon="4.89463">
        <ele>207.19999694824</ele>
        <time>2024-05-21T05:41:51.000Z</time>
      </trkpt>
      <trkpt lat="45.67985" lon="4.89464">
        <ele>207.19999694824</ele>
        <time>2024-05-21T05:41:52.000Z</time>
      </trkpt>
      <trkpt lat="45.67981" lon="4.89466">
        <ele>207.19999694824</ele>
        <time>2024-05-21T05:41:53.000Z</time>
      </trkpt>
      <trkpt lat="45.67976" lon="4.89467">
        <ele>207.19999694824</ele>
        <time>2024-05-21T05:41:54.000Z</time>
      </trkpt>
      <trkpt lat="45.67971" lon="4.8947">
        <ele>207.19999694824</ele>
        <time>2024-05-21T05:41:55.000Z</time>
      </trkpt>
      <trkpt lat="45.67967" lon="4.89471">
        <ele>207.19999694824</ele>
        <time>2024-05-21T05:41:56.000Z</time>
      </trkpt>
      <trkpt lat="45.67962" lon="4.89473">
        <ele>207</ele>
        <time>2024-05-21T05:41:57.000Z</time>
      </trkpt>
      <trkpt lat="45.67953" lon="4.89477">
        <ele>206.80000305176</ele>
        <time>2024-05-21T05:41:58.000Z</time>
      </trkpt>
      <trkpt lat="45.67953" lon="4.89477">
        <ele>206.60000610352</ele>
        <time>2024-05-21T05:41:59.000Z</time>
      </trkpt>
      <trkpt lat="45.67948" lon="4.89479">
        <ele>206.60000610352</ele>
        <time>2024-05-21T05:42:00.000Z</time>
      </trkpt>
      <trkpt lat="45.67943" lon="4.89481">
        <ele>206.39999389648</ele>
        <time>2024-05-21T05:42:01.000Z</time>
      </trkpt>
      <trkpt lat="45.67938" lon="4.89484">
        <ele>206.19999694824</ele>
        <time>2024-05-21T05:42:02.000Z</time>
      </trkpt>
      <trkpt lat="45.67933" lon="4.89486">
        <ele>206</ele>
        <time>2024-05-21T05:42:03.000Z</time>
      </trkpt>
      <trkpt lat="45.67927" lon="4.89489">
        <ele>206</ele>
        <time>2024-05-21T05:42:04.000Z</time>
      </trkpt>
      <trkpt lat="45.67923" lon="4.89491">
        <ele>205.80000305176</ele>
        <time>2024-05-21T05:42:05.000Z</time>
      </trkpt>
      <trkpt lat="45.67911" lon="4.89497">
        <ele>205.80000305176</ele>
        <time>2024-05-21T05:42:06.000Z</time>
      </trkpt>
      <trkpt lat="45.67911" lon="4.89497">
        <ele>205.80000305176</ele>
        <time>2024-05-21T05:42:07.000Z</time>
      </trkpt>
      <trkpt lat="45.67907" lon="4.89498">
        <ele>205.80000305176</ele>
        <time>2024-05-21T05:42:08.000Z</time>
      </trkpt>
      <trkpt lat="45.67902" lon="4.89501">
        <ele>205.80000305176</ele>
        <time>2024-05-21T05:42:09.000Z</time>
      </trkpt>
      <trkpt lat="45.67896" lon="4.89504">
        <ele>205.80000305176</ele>
        <time>2024-05-21T05:42:10.000Z</time>
      </trkpt>
      <trkpt lat="45.67892" lon="4.89506">
        <ele>205.80000305176</ele>
        <time>2024-05-21T05:42:11.000Z</time>
      </trkpt>
      <trkpt lat="45.67886" lon="4.89509">
        <ele>206.19999694824</ele>
        <time>2024-05-21T05:42:12.000Z</time>
      </trkpt>
      <trkpt lat="45.67882" lon="4.8951">
        <ele>206.19999694824</ele>
        <time>2024-05-21T05:42:13.000Z</time>
      </trkpt>
      <trkpt lat="45.67877" lon="4.89513">
        <ele>206.19999694824</ele>
        <time>2024-05-21T05:42:14.000Z</time>
      </trkpt>
      <trkpt lat="45.67873" lon="4.89515">
        <ele>206.19999694824</ele>
        <time>2024-05-21T05:42:15.000Z</time>
      </trkpt>
      <trkpt lat="45.67863" lon="4.89519">
        <ele>206.19999694824</ele>
        <time>2024-05-21T05:42:16.000Z</time>
      </trkpt>
      <trkpt lat="45.67863" lon="4.89519">
        <ele>206.19999694824</ele>
        <time>2024-05-21T05:42:17.000Z</time>
      </trkpt>
      <trkpt lat="45.67858" lon="4.89522">
        <ele>206.19999694824</ele>
        <time>2024-05-21T05:42:18.000Z</time>
      </trkpt>
      <trkpt lat="45.67852" lon="4.89525">
        <ele>206.19999694824</ele>
        <time>2024-05-21T05:42:19.000Z</time>
      </trkpt>
      <trkpt lat="45.67848" lon="4.89527">
        <ele>206.19999694824</ele>
        <time>2024-05-21T05:42:20.000Z</time>
      </trkpt>
      <trkpt lat="45.67843" lon="4.89529">
        <ele>206.19999694824</ele>
        <time>2024-05-21T05:42:21.000Z</time>
      </trkpt>
      <trkpt lat="45.67838" lon="4.89531">
        <ele>206.19999694824</ele>
        <time>2024-05-21T05:42:22.000Z</time>
      </trkpt>
      <trkpt lat="45.67833" lon="4.89533">
        <ele>206.19999694824</ele>
        <time>2024-05-21T05:42:23.000Z</time>
      </trkpt>
      <trkpt lat="45.67828" lon="4.89535">
        <ele>206.19999694824</ele>
        <time>2024-05-21T05:42:24.000Z</time>
      </trkpt>
      <trkpt lat="45.67821" lon="4.89538">
        <ele>206</ele>
        <time>2024-05-21T05:42:25.000Z</time>
      </trkpt>
      <trkpt lat="45.67817" lon="4.8954">
        <ele>205.80000305176</ele>
        <time>2024-05-21T05:42:26.000Z</time>
      </trkpt>
      <trkpt lat="45.67807" lon="4.89543">
        <ele>205.80000305176</ele>
        <time>2024-05-21T05:42:27.000Z</time>
      </trkpt>
      <trkpt lat="45.67807" lon="4.89543">
        <ele>205.80000305176</ele>
        <time>2024-05-21T05:42:28.000Z</time>
      </trkpt>
      <trkpt lat="45.67802" lon="4.89546">
        <ele>205.80000305176</ele>
        <time>2024-05-21T05:42:29.000Z</time>
      </trkpt>
      <trkpt lat="45.67797" lon="4.89548">
        <ele>205.80000305176</ele>
        <time>2024-05-21T05:42:30.000Z</time>
      </trkpt>
      <trkpt lat="45.67791" lon="4.8955">
        <ele>205.80000305176</ele>
        <time>2024-05-21T05:42:31.000Z</time>
      </trkpt>
      <trkpt lat="45.67787" lon="4.89552">
        <ele>205.80000305176</ele>
        <time>2024-05-21T05:42:32.000Z</time>
      </trkpt>
      <trkpt lat="45.67781" lon="4.89555">
        <ele>205.80000305176</ele>
        <time>2024-05-21T05:42:33.000Z</time>
      </trkpt>
      <trkpt lat="45.67777" lon="4.89557">
        <ele>205.80000305176</ele>
        <time>2024-05-21T05:42:34.000Z</time>
      </trkpt>
      <trkpt lat="45.67773" lon="4.89559">
        <ele>205.80000305176</ele>
        <time>2024-05-21T05:42:35.000Z</time>
      </trkpt>
      <trkpt lat="45.67768" lon="4.89561">
        <ele>205.80000305176</ele>
        <time>2024-05-21T05:42:36.000Z</time>
      </trkpt>
      <trkpt lat="45.67763" lon="4.89564">
        <ele>206</ele>
        <time>2024-05-21T05:42:37.000Z</time>
      </trkpt>
      <trkpt lat="45.67758" lon="4.89566">
        <ele>206.19999694824</ele>
        <time>2024-05-21T05:42:38.000Z</time>
      </trkpt>
      <trkpt lat="45.67753" lon="4.89568">
        <ele>206.19999694824</ele>
        <time>2024-05-21T05:42:39.000Z</time>
      </trkpt>
      <trkpt lat="45.67748" lon="4.8957">
        <ele>206.19999694824</ele>
        <time>2024-05-21T05:42:40.000Z</time>
      </trkpt>
      <trkpt lat="45.67744" lon="4.89572">
        <ele>206.39999389648</ele>
        <time>2024-05-21T05:42:41.000Z</time>
      </trkpt>
      <trkpt lat="45.67738" lon="4.89575">
        <ele>206.39999389648</ele>
        <time>2024-05-21T05:42:42.000Z</time>
      </trkpt>
      <trkpt lat="45.67734" lon="4.89576">
        <ele>206.39999389648</ele>
        <time>2024-05-21T05:42:43.000Z</time>
      </trkpt>
      <trkpt lat="45.67729" lon="4.89578">
        <ele>206.39999389648</ele>
        <time>2024-05-21T05:42:44.000Z</time>
      </trkpt>
      <trkpt lat="45.67724" lon="4.8958">
        <ele>206.39999389648</ele>
        <time>2024-05-21T05:42:45.000Z</time>
      </trkpt>
      <trkpt lat="45.67719" lon="4.89583">
        <ele>206.39999389648</ele>
        <time>2024-05-21T05:42:46.000Z</time>
      </trkpt>
      <trkpt lat="45.67711" lon="4.89587">
        <ele>206.39999389648</ele>
        <time>2024-05-21T05:42:47.000Z</time>
      </trkpt>
      <trkpt lat="45.67706" lon="4.89589">
        <ele>206.39999389648</ele>
        <time>2024-05-21T05:42:48.000Z</time>
      </trkpt>
      <trkpt lat="45.67703" lon="4.89591">
        <ele>206.60000610352</ele>
        <time>2024-05-21T05:42:49.000Z</time>
      </trkpt>
      <trkpt lat="45.67703" lon="4.89591">
        <ele>206.60000610352</ele>
        <time>2024-05-21T05:42:50.000Z</time>
      </trkpt>
      <trkpt lat="45.67694" lon="4.89595">
        <ele>206.60000610352</ele>
        <time>2024-05-21T05:42:51.000Z</time>
      </trkpt>
      <trkpt lat="45.67694" lon="4.89595">
        <ele>206.80000305176</ele>
        <time>2024-05-21T05:42:52.000Z</time>
      </trkpt>
      <trkpt lat="45.67691" lon="4.89596">
        <ele>207</ele>
        <time>2024-05-21T05:42:53.000Z</time>
      </trkpt>
      <trkpt lat="45.67688" lon="4.89598">
        <ele>207</ele>
        <time>2024-05-21T05:42:54.000Z</time>
      </trkpt>
      <trkpt lat="45.67685" lon="4.896">
        <ele>207.19999694824</ele>
        <time>2024-05-21T05:42:55.000Z</time>
      </trkpt>
      <trkpt lat="45.67683" lon="4.89601">
        <ele>207.19999694824</ele>
        <time>2024-05-21T05:42:56.000Z</time>
      </trkpt>
      <trkpt lat="45.67683" lon="4.89601">
        <ele>207.60000610352</ele>
        <time>2024-05-21T05:42:57.000Z</time>
      </trkpt>
      <trkpt lat="45.67681" lon="4.89602">
        <ele>207.60000610352</ele>
        <time>2024-05-21T05:42:58.000Z</time>
      </trkpt>
      <trkpt lat="45.67679" lon="4.89602">
        <ele>207.80000305176</ele>
        <time>2024-05-21T05:42:59.000Z</time>
      </trkpt>
      <trkpt lat="45.67679" lon="4.89602">
        <ele>207.80000305176</ele>
        <time>2024-05-21T05:43:00.000Z</time>
      </trkpt>
      <trkpt lat="45.67677" lon="4.89603">
        <ele>208</ele>
        <time>2024-05-21T05:43:01.000Z</time>
      </trkpt>
      <trkpt lat="45.67673" lon="4.89607">
        <ele>208</ele>
        <time>2024-05-21T05:43:02.000Z</time>
      </trkpt>
      <trkpt lat="45.67671" lon="4.89611">
        <ele>208</ele>
        <time>2024-05-21T05:43:03.000Z</time>
      </trkpt>
      <trkpt lat="45.67671" lon="4.89611">
        <ele>208</ele>
        <time>2024-05-21T05:43:04.000Z</time>
      </trkpt>
      <trkpt lat="45.6767" lon="4.89621">
        <ele>208</ele>
        <time>2024-05-21T05:43:05.000Z</time>
      </trkpt>
      <trkpt lat="45.67669" lon="4.89627">
        <ele>208</ele>
        <time>2024-05-21T05:43:06.000Z</time>
      </trkpt>
      <trkpt lat="45.67669" lon="4.89627">
        <ele>207.80000305176</ele>
        <time>2024-05-21T05:43:07.000Z</time>
      </trkpt>
      <trkpt lat="45.67669" lon="4.89631">
        <ele>207.80000305176</ele>
        <time>2024-05-21T05:43:08.000Z</time>
      </trkpt>
      <trkpt lat="45.67668" lon="4.89637">
        <ele>207.60000610352</ele>
        <time>2024-05-21T05:43:09.000Z</time>
      </trkpt>
      <trkpt lat="45.67668" lon="4.89643">
        <ele>207.60000610352</ele>
        <time>2024-05-21T05:43:10.000Z</time>
      </trkpt>
      <trkpt lat="45.67667" lon="4.89649">
        <ele>207.60000610352</ele>
        <time>2024-05-21T05:43:11.000Z</time>
      </trkpt>
      <trkpt lat="45.67666" lon="4.89656">
        <ele>207.60000610352</ele>
        <time>2024-05-21T05:43:12.000Z</time>
      </trkpt>
      <trkpt lat="45.67666" lon="4.89661">
        <ele>207.80000305176</ele>
        <time>2024-05-21T05:43:13.000Z</time>
      </trkpt>
      <trkpt lat="45.67665" lon="4.89667">
        <ele>207.80000305176</ele>
        <time>2024-05-21T05:43:14.000Z</time>
      </trkpt>
      <trkpt lat="45.67664" lon="4.89675">
        <ele>207.80000305176</ele>
        <time>2024-05-21T05:43:15.000Z</time>
      </trkpt>
      <trkpt lat="45.67663" lon="4.8968">
        <ele>208</ele>
        <time>2024-05-21T05:43:16.000Z</time>
      </trkpt>
      <trkpt lat="45.67663" lon="4.89686">
        <ele>208</ele>
        <time>2024-05-21T05:43:17.000Z</time>
      </trkpt>
      <trkpt lat="45.67662" lon="4.89692">
        <ele>208.19999694824</ele>
        <time>2024-05-21T05:43:18.000Z</time>
      </trkpt>
      <trkpt lat="45.67658" lon="4.89704">
        <ele>208.19999694824</ele>
        <time>2024-05-21T05:43:19.000Z</time>
      </trkpt>
      <trkpt lat="45.67658" lon="4.89704">
        <ele>208.39999389648</ele>
        <time>2024-05-21T05:43:20.000Z</time>
      </trkpt>
      <trkpt lat="45.67656" lon="4.89712">
        <ele>208.60000610352</ele>
        <time>2024-05-21T05:43:21.000Z</time>
      </trkpt>
      <trkpt lat="45.67651" lon="4.89722">
        <ele>208.60000610352</ele>
        <time>2024-05-21T05:43:22.000Z</time>
      </trkpt>
      <trkpt lat="45.67651" lon="4.89722">
        <ele>208.80000305176</ele>
        <time>2024-05-21T05:43:23.000Z</time>
      </trkpt>
      <trkpt lat="45.67648" lon="4.89729">
        <ele>208.80000305176</ele>
        <time>2024-05-21T05:43:24.000Z</time>
      </trkpt>
      <trkpt lat="45.67645" lon="4.89733">
        <ele>208.80000305176</ele>
        <time>2024-05-21T05:43:25.000Z</time>
      </trkpt>
      <trkpt lat="45.67643" lon="4.89737">
        <ele>208.80000305176</ele>
        <time>2024-05-21T05:43:26.000Z</time>
      </trkpt>
      <trkpt lat="45.67639" lon="4.89743">
        <ele>208.80000305176</ele>
        <time>2024-05-21T05:43:27.000Z</time>
      </trkpt>
      <trkpt lat="45.67636" lon="4.89747">
        <ele>208.80000305176</ele>
        <time>2024-05-21T05:43:28.000Z</time>
      </trkpt>
      <trkpt lat="45.67633" lon="4.89752">
        <ele>209</ele>
        <time>2024-05-21T05:43:29.000Z</time>
      </trkpt>
      <trkpt lat="45.6763" lon="4.89758">
        <ele>209</ele>
        <time>2024-05-21T05:43:30.000Z</time>
      </trkpt>
      <trkpt lat="45.67627" lon="4.89762">
        <ele>209</ele>
        <time>2024-05-21T05:43:31.000Z</time>
      </trkpt>
      <trkpt lat="45.67624" lon="4.89767">
        <ele>209</ele>
        <time>2024-05-21T05:43:32.000Z</time>
      </trkpt>
      <trkpt lat="45.67618" lon="4.89777">
        <ele>209.19999694824</ele>
        <time>2024-05-21T05:43:33.000Z</time>
      </trkpt>
      <trkpt lat="45.67618" lon="4.89777">
        <ele>209.19999694824</ele>
        <time>2024-05-21T05:43:34.000Z</time>
      </trkpt>
      <trkpt lat="45.67615" lon="4.89782">
        <ele>209.39999389648</ele>
        <time>2024-05-21T05:43:35.000Z</time>
      </trkpt>
      <trkpt lat="45.67611" lon="4.89787">
        <ele>209.39999389648</ele>
        <time>2024-05-21T05:43:36.000Z</time>
      </trkpt>
      <trkpt lat="45.67608" lon="4.89791">
        <ele>209.39999389648</ele>
        <time>2024-05-21T05:43:37.000Z</time>
      </trkpt>
      <trkpt lat="45.67605" lon="4.89797">
        <ele>209.39999389648</ele>
        <time>2024-05-21T05:43:38.000Z</time>
      </trkpt>
      <trkpt lat="45.67602" lon="4.89802">
        <ele>209.39999389648</ele>
        <time>2024-05-21T05:43:39.000Z</time>
      </trkpt>
      <trkpt lat="45.67599" lon="4.89807">
        <ele>209.39999389648</ele>
        <time>2024-05-21T05:43:40.000Z</time>
      </trkpt>
      <trkpt lat="45.67597" lon="4.89813">
        <ele>209.60000610352</ele>
        <time>2024-05-21T05:43:41.000Z</time>
      </trkpt>
      <trkpt lat="45.67594" lon="4.8982">
        <ele>209.80000305176</ele>
        <time>2024-05-21T05:43:42.000Z</time>
      </trkpt>
      <trkpt lat="45.67592" lon="4.89825">
        <ele>210</ele>
        <time>2024-05-21T05:43:43.000Z</time>
      </trkpt>
      <trkpt lat="45.6759" lon="4.89831">
        <ele>210</ele>
        <time>2024-05-21T05:43:44.000Z</time>
      </trkpt>
      <trkpt lat="45.67588" lon="4.89837">
        <ele>210</ele>
        <time>2024-05-21T05:43:45.000Z</time>
      </trkpt>
      <trkpt lat="45.67585" lon="4.8985">
        <ele>210</ele>
        <time>2024-05-21T05:43:46.000Z</time>
      </trkpt>
      <trkpt lat="45.67585" lon="4.8985">
        <ele>210</ele>
        <time>2024-05-21T05:43:47.000Z</time>
      </trkpt>
      <trkpt lat="45.67583" lon="4.89858">
        <ele>210</ele>
        <time>2024-05-21T05:43:48.000Z</time>
      </trkpt>
      <trkpt lat="45.67577" lon="4.89867">
        <ele>210</ele>
        <time>2024-05-21T05:43:49.000Z</time>
      </trkpt>
      <trkpt lat="45.67577" lon="4.89867">
        <ele>210</ele>
        <time>2024-05-21T05:43:50.000Z</time>
      </trkpt>
      <trkpt lat="45.67573" lon="4.89879">
        <ele>210</ele>
        <time>2024-05-21T05:43:51.000Z</time>
      </trkpt>
      <trkpt lat="45.67573" lon="4.89879">
        <ele>210</ele>
        <time>2024-05-21T05:43:52.000Z</time>
      </trkpt>
      <trkpt lat="45.6757" lon="4.89885">
        <ele>210</ele>
        <time>2024-05-21T05:43:53.000Z</time>
      </trkpt>
      <trkpt lat="45.67563" lon="4.89892">
        <ele>210.19999694824</ele>
        <time>2024-05-21T05:43:54.000Z</time>
      </trkpt>
      <trkpt lat="45.67563" lon="4.89892">
        <ele>210.19999694824</ele>
        <time>2024-05-21T05:43:55.000Z</time>
      </trkpt>
      <trkpt lat="45.67554" lon="4.89895">
        <ele>210.19999694824</ele>
        <time>2024-05-21T05:43:56.000Z</time>
      </trkpt>
      <trkpt lat="45.67554" lon="4.89895">
        <ele>210.19999694824</ele>
        <time>2024-05-21T05:43:57.000Z</time>
      </trkpt>
      <trkpt lat="45.6755" lon="4.89895">
        <ele>210.19999694824</ele>
        <time>2024-05-21T05:43:58.000Z</time>
      </trkpt>
      <trkpt lat="45.67546" lon="4.89895">
        <ele>210.19999694824</ele>
        <time>2024-05-21T05:43:59.000Z</time>
      </trkpt>
      <trkpt lat="45.67541" lon="4.89896">
        <ele>210.19999694824</ele>
        <time>2024-05-21T05:44:00.000Z</time>
      </trkpt>
      <trkpt lat="45.67532" lon="4.89896">
        <ele>210.19999694824</ele>
        <time>2024-05-21T05:44:01.000Z</time>
      </trkpt>
      <trkpt lat="45.67532" lon="4.89896">
        <ele>210.19999694824</ele>
        <time>2024-05-21T05:44:02.000Z</time>
      </trkpt>
      <trkpt lat="45.67528" lon="4.89896">
        <ele>210.19999694824</ele>
        <time>2024-05-21T05:44:03.000Z</time>
      </trkpt>
      <trkpt lat="45.67523" lon="4.89896">
        <ele>210.39999389648</ele>
        <time>2024-05-21T05:44:04.000Z</time>
      </trkpt>
      <trkpt lat="45.67515" lon="4.89894">
        <ele>210.60000610352</ele>
        <time>2024-05-21T05:44:05.000Z</time>
      </trkpt>
      <trkpt lat="45.67515" lon="4.89894">
        <ele>210.60000610352</ele>
        <time>2024-05-21T05:44:06.000Z</time>
      </trkpt>
      <trkpt lat="45.6751" lon="4.89893">
        <ele>210.60000610352</ele>
        <time>2024-05-21T05:44:07.000Z</time>
      </trkpt>
      <trkpt lat="45.67506" lon="4.89893">
        <ele>210.80000305176</ele>
        <time>2024-05-21T05:44:08.000Z</time>
      </trkpt>
      <trkpt lat="45.67501" lon="4.89892">
        <ele>211.19999694824</ele>
        <time>2024-05-21T05:44:09.000Z</time>
      </trkpt>
      <trkpt lat="45.67494" lon="4.89891">
        <ele>211.60000610352</ele>
        <time>2024-05-21T05:44:10.000Z</time>
      </trkpt>
      <trkpt lat="45.67494" lon="4.89891">
        <ele>211.80000305176</ele>
        <time>2024-05-21T05:44:11.000Z</time>
      </trkpt>
      <trkpt lat="45.67489" lon="4.89891">
        <ele>211.80000305176</ele>
        <time>2024-05-21T05:44:12.000Z</time>
      </trkpt>
      <trkpt lat="45.67486" lon="4.8989">
        <ele>211.80000305176</ele>
        <time>2024-05-21T05:44:13.000Z</time>
      </trkpt>
      <trkpt lat="45.67477" lon="4.89888">
        <ele>212</ele>
        <time>2024-05-21T05:44:14.000Z</time>
      </trkpt>
      <trkpt lat="45.67477" lon="4.89888">
        <ele>212.19999694824</ele>
        <time>2024-05-21T05:44:15.000Z</time>
      </trkpt>
      <trkpt lat="45.67473" lon="4.89887">
        <ele>212.39999389648</ele>
        <time>2024-05-21T05:44:16.000Z</time>
      </trkpt>
      <trkpt lat="45.67469" lon="4.89886">
        <ele>212.80000305176</ele>
        <time>2024-05-21T05:44:17.000Z</time>
      </trkpt>
      <trkpt lat="45.67465" lon="4.89886">
        <ele>212.80000305176</ele>
        <time>2024-05-21T05:44:18.000Z</time>
      </trkpt>
      <trkpt lat="45.67457" lon="4.89885">
        <ele>212.80000305176</ele>
        <time>2024-05-21T05:44:19.000Z</time>
      </trkpt>
      <trkpt lat="45.67457" lon="4.89885">
        <ele>213</ele>
        <time>2024-05-21T05:44:20.000Z</time>
      </trkpt>
      <trkpt lat="45.67452" lon="4.89884">
        <ele>213.19999694824</ele>
        <time>2024-05-21T05:44:21.000Z</time>
      </trkpt>
      <trkpt lat="45.67445" lon="4.89882">
        <ele>213.19999694824</ele>
        <time>2024-05-21T05:44:22.000Z</time>
      </trkpt>
      <trkpt lat="45.6744" lon="4.89881">
        <ele>213.39999389648</ele>
        <time>2024-05-21T05:44:23.000Z</time>
      </trkpt>
      <trkpt lat="45.6744" lon="4.89881">
        <ele>213.60000610352</ele>
        <time>2024-05-21T05:44:24.000Z</time>
      </trkpt>
      <trkpt lat="45.67437" lon="4.8988">
        <ele>213.60000610352</ele>
        <time>2024-05-21T05:44:25.000Z</time>
      </trkpt>
      <trkpt lat="45.67428" lon="4.89878">
        <ele>213.80000305176</ele>
        <time>2024-05-21T05:44:26.000Z</time>
      </trkpt>
      <trkpt lat="45.67428" lon="4.89878">
        <ele>213.80000305176</ele>
        <time>2024-05-21T05:44:27.000Z</time>
      </trkpt>
      <trkpt lat="45.67425" lon="4.89878">
        <ele>214</ele>
        <time>2024-05-21T05:44:28.000Z</time>
      </trkpt>
      <trkpt lat="45.67416" lon="4.89876">
        <ele>214.19999694824</ele>
        <time>2024-05-21T05:44:29.000Z</time>
      </trkpt>
      <trkpt lat="45.67416" lon="4.89876">
        <ele>214.39999389648</ele>
        <time>2024-05-21T05:44:30.000Z</time>
      </trkpt>
      <trkpt lat="45.67412" lon="4.89876">
        <ele>214.60000610352</ele>
        <time>2024-05-21T05:44:31.000Z</time>
      </trkpt>
      <trkpt lat="45.67408" lon="4.89875">
        <ele>214.80000305176</ele>
        <time>2024-05-21T05:44:32.000Z</time>
      </trkpt>
      <trkpt lat="45.67404" lon="4.89874">
        <ele>214.80000305176</ele>
        <time>2024-05-21T05:44:33.000Z</time>
      </trkpt>
      <trkpt lat="45.67397" lon="4.89872">
        <ele>215</ele>
        <time>2024-05-21T05:44:34.000Z</time>
      </trkpt>
      <trkpt lat="45.67397" lon="4.89872">
        <ele>215.19999694824</ele>
        <time>2024-05-21T05:44:35.000Z</time>
      </trkpt>
      <trkpt lat="45.67393" lon="4.8987">
        <ele>215.19999694824</ele>
        <time>2024-05-21T05:44:36.000Z</time>
      </trkpt>
      <trkpt lat="45.6739" lon="4.89868">
        <ele>215.39999389648</ele>
        <time>2024-05-21T05:44:37.000Z</time>
      </trkpt>
      <trkpt lat="45.67386" lon="4.89866">
        <ele>215.60000610352</ele>
        <time>2024-05-21T05:44:38.000Z</time>
      </trkpt>
      <trkpt lat="45.67382" lon="4.89863">
        <ele>215.60000610352</ele>
        <time>2024-05-21T05:44:39.000Z</time>
      </trkpt>
      <trkpt lat="45.67379" lon="4.89862">
        <ele>215.80000305176</ele>
        <time>2024-05-21T05:44:40.000Z</time>
      </trkpt>
      <trkpt lat="45.67375" lon="4.8986">
        <ele>216</ele>
        <time>2024-05-21T05:44:41.000Z</time>
      </trkpt>
      <trkpt lat="45.67371" lon="4.89857">
        <ele>216</ele>
        <time>2024-05-21T05:44:42.000Z</time>
      </trkpt>
      <trkpt lat="45.67365" lon="4.89854">
        <ele>216</ele>
        <time>2024-05-21T05:44:43.000Z</time>
      </trkpt>
      <trkpt lat="45.67365" lon="4.89854">
        <ele>216</ele>
        <time>2024-05-21T05:44:44.000Z</time>
      </trkpt>
      <trkpt lat="45.67361" lon="4.89853">
        <ele>216.19999694824</ele>
        <time>2024-05-21T05:44:45.000Z</time>
      </trkpt>
      <trkpt lat="45.67358" lon="4.89852">
        <ele>216.39999389648</ele>
        <time>2024-05-21T05:44:46.000Z</time>
      </trkpt>
      <trkpt lat="45.67354" lon="4.89851">
        <ele>216.39999389648</ele>
        <time>2024-05-21T05:44:47.000Z</time>
      </trkpt>
      <trkpt lat="45.67349" lon="4.89851">
        <ele>216.60000610352</ele>
        <time>2024-05-21T05:44:48.000Z</time>
      </trkpt>
      <trkpt lat="45.67342" lon="4.89853">
        <ele>216.60000610352</ele>
        <time>2024-05-21T05:44:49.000Z</time>
      </trkpt>
      <trkpt lat="45.67342" lon="4.89853">
        <ele>216.60000610352</ele>
        <time>2024-05-21T05:44:50.000Z</time>
      </trkpt>
      <trkpt lat="45.67336" lon="4.89854">
        <ele>216.39999389648</ele>
        <time>2024-05-21T05:44:51.000Z</time>
      </trkpt>
      <trkpt lat="45.67332" lon="4.89854">
        <ele>216.19999694824</ele>
        <time>2024-05-21T05:44:52.000Z</time>
      </trkpt>
      <trkpt lat="45.67328" lon="4.89854">
        <ele>216.19999694824</ele>
        <time>2024-05-21T05:44:53.000Z</time>
      </trkpt>
      <trkpt lat="45.67323" lon="4.89854">
        <ele>216.19999694824</ele>
        <time>2024-05-21T05:44:54.000Z</time>
      </trkpt>
      <trkpt lat="45.67318" lon="4.89854">
        <ele>216</ele>
        <time>2024-05-21T05:44:55.000Z</time>
      </trkpt>
      <trkpt lat="45.67314" lon="4.89854">
        <ele>216</ele>
        <time>2024-05-21T05:44:56.000Z</time>
      </trkpt>
      <trkpt lat="45.67303" lon="4.89854">
        <ele>216</ele>
        <time>2024-05-21T05:44:57.000Z</time>
      </trkpt>
      <trkpt lat="45.67303" lon="4.89854">
        <ele>215.80000305176</ele>
        <time>2024-05-21T05:44:58.000Z</time>
      </trkpt>
      <trkpt lat="45.67298" lon="4.89855">
        <ele>215.60000610352</ele>
        <time>2024-05-21T05:44:59.000Z</time>
      </trkpt>
      <trkpt lat="45.67291" lon="4.89855">
        <ele>215.39999389648</ele>
        <time>2024-05-21T05:45:00.000Z</time>
      </trkpt>
      <trkpt lat="45.67286" lon="4.89855">
        <ele>215.39999389648</ele>
        <time>2024-05-21T05:45:01.000Z</time>
      </trkpt>
      <trkpt lat="45.6728" lon="4.89855">
        <ele>215</ele>
        <time>2024-05-21T05:45:02.000Z</time>
      </trkpt>
      <trkpt lat="45.67271" lon="4.89856">
        <ele>214.60000610352</ele>
        <time>2024-05-21T05:45:03.000Z</time>
      </trkpt>
      <trkpt lat="45.67266" lon="4.89856">
        <ele>214</ele>
        <time>2024-05-21T05:45:04.000Z</time>
      </trkpt>
      <trkpt lat="45.6726" lon="4.89855">
        <ele>213.60000610352</ele>
        <time>2024-05-21T05:45:05.000Z</time>
      </trkpt>
      <trkpt lat="45.67253" lon="4.89855">
        <ele>213.19999694824</ele>
        <time>2024-05-21T05:45:06.000Z</time>
      </trkpt>
      <trkpt lat="45.67247" lon="4.89855">
        <ele>212.80000305176</ele>
        <time>2024-05-21T05:45:07.000Z</time>
      </trkpt>
      <trkpt lat="45.67239" lon="4.89855">
        <ele>212.39999389648</ele>
        <time>2024-05-21T05:45:08.000Z</time>
      </trkpt>
      <trkpt lat="45.67233" lon="4.89855">
        <ele>212.19999694824</ele>
        <time>2024-05-21T05:45:09.000Z</time>
      </trkpt>
      <trkpt lat="45.67228" lon="4.89855">
        <ele>212</ele>
        <time>2024-05-21T05:45:10.000Z</time>
      </trkpt>
      <trkpt lat="45.67221" lon="4.89855">
        <ele>212</ele>
        <time>2024-05-21T05:45:11.000Z</time>
      </trkpt>
      <trkpt lat="45.67217" lon="4.89855">
        <ele>211.80000305176</ele>
        <time>2024-05-21T05:45:12.000Z</time>
      </trkpt>
      <trkpt lat="45.67211" lon="4.89855">
        <ele>211.80000305176</ele>
        <time>2024-05-21T05:45:13.000Z</time>
      </trkpt>
      <trkpt lat="45.67205" lon="4.89855">
        <ele>211.60000610352</ele>
        <time>2024-05-21T05:45:14.000Z</time>
      </trkpt>
      <trkpt lat="45.67197" lon="4.89856">
        <ele>211.39999389648</ele>
        <time>2024-05-21T05:45:15.000Z</time>
      </trkpt>
      <trkpt lat="45.67192" lon="4.89856">
        <ele>211.19999694824</ele>
        <time>2024-05-21T05:45:16.000Z</time>
      </trkpt>
      <trkpt lat="45.67187" lon="4.89856">
        <ele>211.19999694824</ele>
        <time>2024-05-21T05:45:17.000Z</time>
      </trkpt>
      <trkpt lat="45.67182" lon="4.89857">
        <ele>211</ele>
        <time>2024-05-21T05:45:18.000Z</time>
      </trkpt>
      <trkpt lat="45.67178" lon="4.89857">
        <ele>211</ele>
        <time>2024-05-21T05:45:19.000Z</time>
      </trkpt>
      <trkpt lat="45.67174" lon="4.89858">
        <ele>211</ele>
        <time>2024-05-21T05:45:20.000Z</time>
      </trkpt>
      <trkpt lat="45.6717" lon="4.89858">
        <ele>211</ele>
        <time>2024-05-21T05:45:21.000Z</time>
      </trkpt>
      <trkpt lat="45.67167" lon="4.89858">
        <ele>211</ele>
        <time>2024-05-21T05:45:22.000Z</time>
      </trkpt>
      <trkpt lat="45.67164" lon="4.89858">
        <ele>211</ele>
        <time>2024-05-21T05:45:23.000Z</time>
      </trkpt>
      <trkpt lat="45.67159" lon="4.89859">
        <ele>211.19999694824</ele>
        <time>2024-05-21T05:45:24.000Z</time>
      </trkpt>
      <trkpt lat="45.67156" lon="4.89859">
        <ele>211.19999694824</ele>
        <time>2024-05-21T05:45:25.000Z</time>
      </trkpt>
      <trkpt lat="45.67152" lon="4.8986">
        <ele>211.19999694824</ele>
        <time>2024-05-21T05:45:26.000Z</time>
      </trkpt>
      <trkpt lat="45.67148" lon="4.8986">
        <ele>211.19999694824</ele>
        <time>2024-05-21T05:45:27.000Z</time>
      </trkpt>
      <trkpt lat="45.67143" lon="4.8986">
        <ele>211</ele>
        <time>2024-05-21T05:45:28.000Z</time>
      </trkpt>
      <trkpt lat="45.6714" lon="4.8986">
        <ele>210.80000305176</ele>
        <time>2024-05-21T05:45:29.000Z</time>
      </trkpt>
      <trkpt lat="45.67134" lon="4.8986">
        <ele>210.39999389648</ele>
        <time>2024-05-21T05:45:30.000Z</time>
      </trkpt>
      <trkpt lat="45.67131" lon="4.8986">
        <ele>210.19999694824</ele>
        <time>2024-05-21T05:45:31.000Z</time>
      </trkpt>
      <trkpt lat="45.67125" lon="4.89861">
        <ele>210</ele>
        <time>2024-05-21T05:45:32.000Z</time>
      </trkpt>
      <trkpt lat="45.6712" lon="4.89862">
        <ele>210</ele>
        <time>2024-05-21T05:45:33.000Z</time>
      </trkpt>
      <trkpt lat="45.67117" lon="4.89863">
        <ele>209.80000305176</ele>
        <time>2024-05-21T05:45:34.000Z</time>
      </trkpt>
      <trkpt lat="45.67112" lon="4.89865">
        <ele>209.60000610352</ele>
        <time>2024-05-21T05:45:35.000Z</time>
      </trkpt>
      <trkpt lat="45.67107" lon="4.89866">
        <ele>209.39999389648</ele>
        <time>2024-05-21T05:45:36.000Z</time>
      </trkpt>
      <trkpt lat="45.67107" lon="4.89866">
        <ele>209</ele>
        <time>2024-05-21T05:45:37.000Z</time>
      </trkpt>
      <trkpt lat="45.67105" lon="4.89864">
        <ele>209</ele>
        <time>2024-05-21T05:45:38.000Z</time>
      </trkpt>
      <trkpt lat="45.67104" lon="4.89862">
        <ele>209</ele>
        <time>2024-05-21T05:45:39.000Z</time>
      </trkpt>
      <trkpt lat="45.67104" lon="4.89862">
        <ele>209</ele>
        <time>2024-05-21T05:45:40.000Z</time>
      </trkpt>
      <trkpt lat="45.67101" lon="4.8986">
        <ele>209</ele>
        <time>2024-05-21T05:45:41.000Z</time>
      </trkpt>
      <trkpt lat="45.67098" lon="4.89859">
        <ele>209</ele>
        <time>2024-05-21T05:45:42.000Z</time>
      </trkpt>
      <trkpt lat="45.67091" lon="4.89855">
        <ele>208.80000305176</ele>
        <time>2024-05-21T05:45:43.000Z</time>
      </trkpt>
      <trkpt lat="45.67091" lon="4.89855">
        <ele>208.80000305176</ele>
        <time>2024-05-21T05:45:44.000Z</time>
      </trkpt>
      <trkpt lat="45.67088" lon="4.89853">
        <ele>208.39999389648</ele>
        <time>2024-05-21T05:45:45.000Z</time>
      </trkpt>
      <trkpt lat="45.67083" lon="4.89851">
        <ele>208.19999694824</ele>
        <time>2024-05-21T05:45:46.000Z</time>
      </trkpt>
      <trkpt lat="45.67079" lon="4.89849">
        <ele>207.60000610352</ele>
        <time>2024-05-21T05:45:47.000Z</time>
      </trkpt>
      <trkpt lat="45.67075" lon="4.89846">
        <ele>207.39999389648</ele>
        <time>2024-05-21T05:45:48.000Z</time>
      </trkpt>
      <trkpt lat="45.67065" lon="4.89842">
        <ele>207</ele>
        <time>2024-05-21T05:45:49.000Z</time>
      </trkpt>
      <trkpt lat="45.67065" lon="4.89842">
        <ele>206.80000305176</ele>
        <time>2024-05-21T05:45:50.000Z</time>
      </trkpt>
      <trkpt lat="45.67058" lon="4.8984">
        <ele>206.60000610352</ele>
        <time>2024-05-21T05:45:51.000Z</time>
      </trkpt>
      <trkpt lat="45.67054" lon="4.89838">
        <ele>206</ele>
        <time>2024-05-21T05:45:52.000Z</time>
      </trkpt>
      <trkpt lat="45.67049" lon="4.89836">
        <ele>205.80000305176</ele>
        <time>2024-05-21T05:45:53.000Z</time>
      </trkpt>
      <trkpt lat="45.67043" lon="4.89835">
        <ele>205.39999389648</ele>
        <time>2024-05-21T05:45:54.000Z</time>
      </trkpt>
      <trkpt lat="45.67037" lon="4.89835">
        <ele>205.19999694824</ele>
        <time>2024-05-21T05:45:55.000Z</time>
      </trkpt>
      <trkpt lat="45.6703" lon="4.89836">
        <ele>205</ele>
        <time>2024-05-21T05:45:56.000Z</time>
      </trkpt>
      <trkpt lat="45.6702" lon="4.89837">
        <ele>204.60000610352</ele>
        <time>2024-05-21T05:45:57.000Z</time>
      </trkpt>
      <trkpt lat="45.6702" lon="4.89837">
        <ele>204.19999694824</ele>
        <time>2024-05-21T05:45:58.000Z</time>
      </trkpt>
      <trkpt lat="45.67014" lon="4.89838">
        <ele>203.80000305176</ele>
        <time>2024-05-21T05:45:59.000Z</time>
      </trkpt>
      <trkpt lat="45.67006" lon="4.89839">
        <ele>203.39999389648</ele>
        <time>2024-05-21T05:46:00.000Z</time>
      </trkpt>
      <trkpt lat="45.67001" lon="4.89839">
        <ele>203.19999694824</ele>
        <time>2024-05-21T05:46:01.000Z</time>
      </trkpt>
      <trkpt lat="45.66996" lon="4.8984">
        <ele>202.80000305176</ele>
        <time>2024-05-21T05:46:02.000Z</time>
      </trkpt>
      <trkpt lat="45.66991" lon="4.8984">
        <ele>202.19999694824</ele>
        <time>2024-05-21T05:46:03.000Z</time>
      </trkpt>
      <trkpt lat="45.66989" lon="4.89841">
        <ele>202.19999694824</ele>
        <time>2024-05-21T05:46:04.000Z</time>
      </trkpt>
      <trkpt lat="45.66986" lon="4.89841">
        <ele>202</ele>
        <time>2024-05-21T05:46:05.000Z</time>
      </trkpt>
      <trkpt lat="45.66983" lon="4.89842">
        <ele>202</ele>
        <time>2024-05-21T05:46:06.000Z</time>
      </trkpt>
      <trkpt lat="45.6698" lon="4.89843">
        <ele>202</ele>
        <time>2024-05-21T05:46:07.000Z</time>
      </trkpt>
      <trkpt lat="45.66975" lon="4.89844">
        <ele>201.80000305176</ele>
        <time>2024-05-21T05:46:08.000Z</time>
      </trkpt>
      <trkpt lat="45.66971" lon="4.89845">
        <ele>201.60000610352</ele>
        <time>2024-05-21T05:46:09.000Z</time>
      </trkpt>
      <trkpt lat="45.66967" lon="4.89846">
        <ele>201.39999389648</ele>
        <time>2024-05-21T05:46:10.000Z</time>
      </trkpt>
      <trkpt lat="45.66962" lon="4.89847">
        <ele>200.80000305176</ele>
        <time>2024-05-21T05:46:11.000Z</time>
      </trkpt>
      <trkpt lat="45.66956" lon="4.89848">
        <ele>200.60000610352</ele>
        <time>2024-05-21T05:46:12.000Z</time>
      </trkpt>
      <trkpt lat="45.66952" lon="4.89848">
        <ele>200.39999389648</ele>
        <time>2024-05-21T05:46:13.000Z</time>
      </trkpt>
      <trkpt lat="45.66946" lon="4.89849">
        <ele>200</ele>
        <time>2024-05-21T05:46:14.000Z</time>
      </trkpt>
      <trkpt lat="45.66939" lon="4.8985">
        <ele>199.80000305176</ele>
        <time>2024-05-21T05:46:15.000Z</time>
      </trkpt>
      <trkpt lat="45.66934" lon="4.8985">
        <ele>199.39999389648</ele>
        <time>2024-05-21T05:46:16.000Z</time>
      </trkpt>
      <trkpt lat="45.66928" lon="4.89851">
        <ele>199.39999389648</ele>
        <time>2024-05-21T05:46:17.000Z</time>
      </trkpt>
      <trkpt lat="45.66916" lon="4.89853">
        <ele>198.60000610352</ele>
        <time>2024-05-21T05:46:18.000Z</time>
      </trkpt>
      <trkpt lat="45.66916" lon="4.89853">
        <ele>198.39999389648</ele>
        <time>2024-05-21T05:46:19.000Z</time>
      </trkpt>
      <trkpt lat="45.66909" lon="4.89854">
        <ele>198.19999694824</ele>
        <time>2024-05-21T05:46:20.000Z</time>
      </trkpt>
      <trkpt lat="45.66904" lon="4.89855">
        <ele>197.80000305176</ele>
        <time>2024-05-21T05:46:21.000Z</time>
      </trkpt>
      <trkpt lat="45.66898" lon="4.89856">
        <ele>197.80000305176</ele>
        <time>2024-05-21T05:46:22.000Z</time>
      </trkpt>
      <trkpt lat="45.66891" lon="4.89857">
        <ele>197.39999389648</ele>
        <time>2024-05-21T05:46:23.000Z</time>
      </trkpt>
      <trkpt lat="45.66885" lon="4.89858">
        <ele>197.19999694824</ele>
        <time>2024-05-21T05:46:24.000Z</time>
      </trkpt>
      <trkpt lat="45.6688" lon="4.89859">
        <ele>197.19999694824</ele>
        <time>2024-05-21T05:46:25.000Z</time>
      </trkpt>
      <trkpt lat="45.66874" lon="4.8986">
        <ele>197</ele>
        <time>2024-05-21T05:46:26.000Z</time>
      </trkpt>
      <trkpt lat="45.66868" lon="4.89862">
        <ele>197.19999694824</ele>
        <time>2024-05-21T05:46:27.000Z</time>
      </trkpt>
      <trkpt lat="45.66863" lon="4.89863">
        <ele>197.19999694824</ele>
        <time>2024-05-21T05:46:28.000Z</time>
      </trkpt>
      <trkpt lat="45.66857" lon="4.89864">
        <ele>197</ele>
        <time>2024-05-21T05:46:29.000Z</time>
      </trkpt>
      <trkpt lat="45.66851" lon="4.89866">
        <ele>197</ele>
        <time>2024-05-21T05:46:30.000Z</time>
      </trkpt>
      <trkpt lat="45.66844" lon="4.89867">
        <ele>197</ele>
        <time>2024-05-21T05:46:31.000Z</time>
      </trkpt>
      <trkpt lat="45.66838" lon="4.89868">
        <ele>197</ele>
        <time>2024-05-21T05:46:32.000Z</time>
      </trkpt>
      <trkpt lat="45.66831" lon="4.8987">
        <ele>197</ele>
        <time>2024-05-21T05:46:33.000Z</time>
      </trkpt>
      <trkpt lat="45.66826" lon="4.89871">
        <ele>196.80000305176</ele>
        <time>2024-05-21T05:46:34.000Z</time>
      </trkpt>
      <trkpt lat="45.66819" lon="4.89872">
        <ele>196.60000610352</ele>
        <time>2024-05-21T05:46:35.000Z</time>
      </trkpt>
      <trkpt lat="45.66812" lon="4.89873">
        <ele>196.60000610352</ele>
        <time>2024-05-21T05:46:36.000Z</time>
      </trkpt>
      <trkpt lat="45.66807" lon="4.89874">
        <ele>196.60000610352</ele>
        <time>2024-05-21T05:46:37.000Z</time>
      </trkpt>
      <trkpt lat="45.668" lon="4.89874">
        <ele>196.39999389648</ele>
        <time>2024-05-21T05:46:38.000Z</time>
      </trkpt>
      <trkpt lat="45.66794" lon="4.89874">
        <ele>196.39999389648</ele>
        <time>2024-05-21T05:46:39.000Z</time>
      </trkpt>
      <trkpt lat="45.66788" lon="4.89873">
        <ele>196.39999389648</ele>
        <time>2024-05-21T05:46:40.000Z</time>
      </trkpt>
      <trkpt lat="45.66783" lon="4.89873">
        <ele>196.39999389648</ele>
        <time>2024-05-21T05:46:41.000Z</time>
      </trkpt>
      <trkpt lat="45.66775" lon="4.89874">
        <ele>196.39999389648</ele>
        <time>2024-05-21T05:46:42.000Z</time>
      </trkpt>
      <trkpt lat="45.66764" lon="4.89876">
        <ele>196.60000610352</ele>
        <time>2024-05-21T05:46:43.000Z</time>
      </trkpt>
      <trkpt lat="45.66764" lon="4.89876">
        <ele>196.60000610352</ele>
        <time>2024-05-21T05:46:44.000Z</time>
      </trkpt>
      <trkpt lat="45.66754" lon="4.89877">
        <ele>196.60000610352</ele>
        <time>2024-05-21T05:46:45.000Z</time>
      </trkpt>
      <trkpt lat="45.66754" lon="4.89877">
        <ele>196.60000610352</ele>
        <time>2024-05-21T05:46:46.000Z</time>
      </trkpt>
      <trkpt lat="45.66747" lon="4.89879">
        <ele>196.60000610352</ele>
        <time>2024-05-21T05:46:47.000Z</time>
      </trkpt>
      <trkpt lat="45.66742" lon="4.8988">
        <ele>196.60000610352</ele>
        <time>2024-05-21T05:46:48.000Z</time>
      </trkpt>
      <trkpt lat="45.66737" lon="4.8988">
        <ele>196.39999389648</ele>
        <time>2024-05-21T05:46:49.000Z</time>
      </trkpt>
      <trkpt lat="45.66731" lon="4.89881">
        <ele>196.39999389648</ele>
        <time>2024-05-21T05:46:50.000Z</time>
      </trkpt>
      <trkpt lat="45.66721" lon="4.89882">
        <ele>196.39999389648</ele>
        <time>2024-05-21T05:46:51.000Z</time>
      </trkpt>
      <trkpt lat="45.66721" lon="4.89882">
        <ele>196.19999694824</ele>
        <time>2024-05-21T05:46:52.000Z</time>
      </trkpt>
      <trkpt lat="45.6671" lon="4.89884">
        <ele>196.19999694824</ele>
        <time>2024-05-21T05:46:53.000Z</time>
      </trkpt>
      <trkpt lat="45.66704" lon="4.89884">
        <ele>196.19999694824</ele>
        <time>2024-05-21T05:46:54.000Z</time>
      </trkpt>
      <trkpt lat="45.66704" lon="4.89884">
        <ele>196.19999694824</ele>
        <time>2024-05-21T05:46:55.000Z</time>
      </trkpt>
      <trkpt lat="45.66692" lon="4.89886">
        <ele>196</ele>
        <time>2024-05-21T05:46:56.000Z</time>
      </trkpt>
      <trkpt lat="45.66692" lon="4.89886">
        <ele>196</ele>
        <time>2024-05-21T05:46:57.000Z</time>
      </trkpt>
      <trkpt lat="45.6668" lon="4.89888">
        <ele>196</ele>
        <time>2024-05-21T05:46:58.000Z</time>
      </trkpt>
      <trkpt lat="45.66675" lon="4.89889">
        <ele>196</ele>
        <time>2024-05-21T05:46:59.000Z</time>
      </trkpt>
      <trkpt lat="45.66675" lon="4.89889">
        <ele>196</ele>
        <time>2024-05-21T05:47:00.000Z</time>
      </trkpt>
      <trkpt lat="45.66666" lon="4.89891">
        <ele>196</ele>
        <time>2024-05-21T05:47:01.000Z</time>
      </trkpt>
      <trkpt lat="45.66666" lon="4.89891">
        <ele>196</ele>
        <time>2024-05-21T05:47:02.000Z</time>
      </trkpt>
      <trkpt lat="45.66655" lon="4.89893">
        <ele>196</ele>
        <time>2024-05-21T05:47:03.000Z</time>
      </trkpt>
      <trkpt lat="45.6665" lon="4.89895">
        <ele>196</ele>
        <time>2024-05-21T05:47:04.000Z</time>
      </trkpt>
      <trkpt lat="45.6665" lon="4.89895">
        <ele>196</ele>
        <time>2024-05-21T05:47:05.000Z</time>
      </trkpt>
      <trkpt lat="45.66643" lon="4.89896">
        <ele>196</ele>
        <time>2024-05-21T05:47:06.000Z</time>
      </trkpt>
      <trkpt lat="45.66632" lon="4.89899">
        <ele>196</ele>
        <time>2024-05-21T05:47:07.000Z</time>
      </trkpt>
      <trkpt lat="45.66632" lon="4.89899">
        <ele>195.80000305176</ele>
        <time>2024-05-21T05:47:08.000Z</time>
      </trkpt>
      <trkpt lat="45.66626" lon="4.89901">
        <ele>195.80000305176</ele>
        <time>2024-05-21T05:47:09.000Z</time>
      </trkpt>
      <trkpt lat="45.66622" lon="4.89903">
        <ele>195.80000305176</ele>
        <time>2024-05-21T05:47:10.000Z</time>
      </trkpt>
      <trkpt lat="45.66615" lon="4.89905">
        <ele>195.80000305176</ele>
        <time>2024-05-21T05:47:11.000Z</time>
      </trkpt>
      <trkpt lat="45.66605" lon="4.89908">
        <ele>195.80000305176</ele>
        <time>2024-05-21T05:47:12.000Z</time>
      </trkpt>
      <trkpt lat="45.666" lon="4.89909">
        <ele>195.80000305176</ele>
        <time>2024-05-21T05:47:13.000Z</time>
      </trkpt>
      <trkpt lat="45.66594" lon="4.89911">
        <ele>195.60000610352</ele>
        <time>2024-05-21T05:47:14.000Z</time>
      </trkpt>
      <trkpt lat="45.66594" lon="4.89911">
        <ele>195.80000305176</ele>
        <time>2024-05-21T05:47:15.000Z</time>
      </trkpt>
      <trkpt lat="45.66584" lon="4.89915">
        <ele>195.80000305176</ele>
        <time>2024-05-21T05:47:16.000Z</time>
      </trkpt>
      <trkpt lat="45.66584" lon="4.89915">
        <ele>195.80000305176</ele>
        <time>2024-05-21T05:47:17.000Z</time>
      </trkpt>
      <trkpt lat="45.66578" lon="4.89917">
        <ele>195.80000305176</ele>
        <time>2024-05-21T05:47:18.000Z</time>
      </trkpt>
      <trkpt lat="45.66573" lon="4.89918">
        <ele>195.80000305176</ele>
        <time>2024-05-21T05:47:19.000Z</time>
      </trkpt>
      <trkpt lat="45.66562" lon="4.89922">
        <ele>196</ele>
        <time>2024-05-21T05:47:20.000Z</time>
      </trkpt>
      <trkpt lat="45.66558" lon="4.89924">
        <ele>196</ele>
        <time>2024-05-21T05:47:21.000Z</time>
      </trkpt>
      <trkpt lat="45.66552" lon="4.89927">
        <ele>196</ele>
        <time>2024-05-21T05:47:22.000Z</time>
      </trkpt>
      <trkpt lat="45.66547" lon="4.89929">
        <ele>196</ele>
        <time>2024-05-21T05:47:23.000Z</time>
      </trkpt>
      <trkpt lat="45.66547" lon="4.89929">
        <ele>195.80000305176</ele>
        <time>2024-05-21T05:47:24.000Z</time>
      </trkpt>
      <trkpt lat="45.66542" lon="4.89932">
        <ele>195.80000305176</ele>
        <time>2024-05-21T05:47:25.000Z</time>
      </trkpt>
      <trkpt lat="45.66537" lon="4.89934">
        <ele>195.80000305176</ele>
        <time>2024-05-21T05:47:26.000Z</time>
      </trkpt>
      <trkpt lat="45.66528" lon="4.89939">
        <ele>195.80000305176</ele>
        <time>2024-05-21T05:47:27.000Z</time>
      </trkpt>
      <trkpt lat="45.66523" lon="4.89942">
        <ele>195.80000305176</ele>
        <time>2024-05-21T05:47:28.000Z</time>
      </trkpt>
      <trkpt lat="45.66517" lon="4.89945">
        <ele>195.80000305176</ele>
        <time>2024-05-21T05:47:29.000Z</time>
      </trkpt>
      <trkpt lat="45.66517" lon="4.89945">
        <ele>195.80000305176</ele>
        <time>2024-05-21T05:47:30.000Z</time>
      </trkpt>
      <trkpt lat="45.66513" lon="4.89947">
        <ele>196</ele>
        <time>2024-05-21T05:47:31.000Z</time>
      </trkpt>
      <trkpt lat="45.66507" lon="4.89951">
        <ele>196.19999694824</ele>
        <time>2024-05-21T05:47:32.000Z</time>
      </trkpt>
      <trkpt lat="45.66502" lon="4.89954">
        <ele>196.19999694824</ele>
        <time>2024-05-21T05:47:33.000Z</time>
      </trkpt>
      <trkpt lat="45.66493" lon="4.89959">
        <ele>196.19999694824</ele>
        <time>2024-05-21T05:47:34.000Z</time>
      </trkpt>
      <trkpt lat="45.66493" lon="4.89959">
        <ele>196.19999694824</ele>
        <time>2024-05-21T05:47:35.000Z</time>
      </trkpt>
      <trkpt lat="45.66483" lon="4.89966">
        <ele>196.19999694824</ele>
        <time>2024-05-21T05:47:36.000Z</time>
      </trkpt>
      <trkpt lat="45.66483" lon="4.89966">
        <ele>196.19999694824</ele>
        <time>2024-05-21T05:47:37.000Z</time>
      </trkpt>
      <trkpt lat="45.66478" lon="4.89969">
        <ele>196</ele>
        <time>2024-05-21T05:47:38.000Z</time>
      </trkpt>
      <trkpt lat="45.66472" lon="4.89973">
        <ele>196</ele>
        <time>2024-05-21T05:47:39.000Z</time>
      </trkpt>
      <trkpt lat="45.66463" lon="4.89978">
        <ele>196</ele>
        <time>2024-05-21T05:47:40.000Z</time>
      </trkpt>
      <trkpt lat="45.66457" lon="4.89982">
        <ele>196</ele>
        <time>2024-05-21T05:47:41.000Z</time>
      </trkpt>
      <trkpt lat="45.66457" lon="4.89982">
        <ele>196</ele>
        <time>2024-05-21T05:47:42.000Z</time>
      </trkpt>
      <trkpt lat="45.66453" lon="4.89985">
        <ele>196</ele>
        <time>2024-05-21T05:47:43.000Z</time>
      </trkpt>
      <trkpt lat="45.66443" lon="4.89991">
        <ele>195.80000305176</ele>
        <time>2024-05-21T05:47:44.000Z</time>
      </trkpt>
      <trkpt lat="45.66438" lon="4.89993">
        <ele>195.80000305176</ele>
        <time>2024-05-21T05:47:45.000Z</time>
      </trkpt>
      <trkpt lat="45.66438" lon="4.89993">
        <ele>195.80000305176</ele>
        <time>2024-05-21T05:47:46.000Z</time>
      </trkpt>
      <trkpt lat="45.66426" lon="4.9">
        <ele>195.80000305176</ele>
        <time>2024-05-21T05:47:47.000Z</time>
      </trkpt>
      <trkpt lat="45.66422" lon="4.90001">
        <ele>195.80000305176</ele>
        <time>2024-05-21T05:47:48.000Z</time>
      </trkpt>
      <trkpt lat="45.66422" lon="4.90001">
        <ele>195.80000305176</ele>
        <time>2024-05-21T05:47:49.000Z</time>
      </trkpt>
      <trkpt lat="45.66416" lon="4.90004">
        <ele>195.80000305176</ele>
        <time>2024-05-21T05:47:50.000Z</time>
      </trkpt>
      <trkpt lat="45.66406" lon="4.90006">
        <ele>195.60000610352</ele>
        <time>2024-05-21T05:47:51.000Z</time>
      </trkpt>
      <trkpt lat="45.66406" lon="4.90006">
        <ele>195.60000610352</ele>
        <time>2024-05-21T05:47:52.000Z</time>
      </trkpt>
      <trkpt lat="45.66399" lon="4.90006">
        <ele>195.60000610352</ele>
        <time>2024-05-21T05:47:53.000Z</time>
      </trkpt>
      <trkpt lat="45.66395" lon="4.90007">
        <ele>195.60000610352</ele>
        <time>2024-05-21T05:47:54.000Z</time>
      </trkpt>
      <trkpt lat="45.66389" lon="4.90007">
        <ele>195.60000610352</ele>
        <time>2024-05-21T05:47:55.000Z</time>
      </trkpt>
      <trkpt lat="45.66384" lon="4.90008">
        <ele>195.60000610352</ele>
        <time>2024-05-21T05:47:56.000Z</time>
      </trkpt>
      <trkpt lat="45.66373" lon="4.90008">
        <ele>195.60000610352</ele>
        <time>2024-05-21T05:47:57.000Z</time>
      </trkpt>
      <trkpt lat="45.66373" lon="4.90008">
        <ele>195.39999389648</ele>
        <time>2024-05-21T05:47:58.000Z</time>
      </trkpt>
      <trkpt lat="45.66368" lon="4.90008">
        <ele>195.39999389648</ele>
        <time>2024-05-21T05:47:59.000Z</time>
      </trkpt>
      <trkpt lat="45.66363" lon="4.90007">
        <ele>195.39999389648</ele>
        <time>2024-05-21T05:48:00.000Z</time>
      </trkpt>
      <trkpt lat="45.66357" lon="4.90007">
        <ele>195.39999389648</ele>
        <time>2024-05-21T05:48:01.000Z</time>
      </trkpt>
      <trkpt lat="45.66352" lon="4.90006">
        <ele>195.39999389648</ele>
        <time>2024-05-21T05:48:02.000Z</time>
      </trkpt>
      <trkpt lat="45.66346" lon="4.90005">
        <ele>195.39999389648</ele>
        <time>2024-05-21T05:48:03.000Z</time>
      </trkpt>
      <trkpt lat="45.66341" lon="4.90004">
        <ele>195.39999389648</ele>
        <time>2024-05-21T05:48:04.000Z</time>
      </trkpt>
      <trkpt lat="45.66336" lon="4.90004">
        <ele>195.60000610352</ele>
        <time>2024-05-21T05:48:05.000Z</time>
      </trkpt>
      <trkpt lat="45.66325" lon="4.90003">
        <ele>195.60000610352</ele>
        <time>2024-05-21T05:48:06.000Z</time>
      </trkpt>
      <trkpt lat="45.66325" lon="4.90003">
        <ele>195.60000610352</ele>
        <time>2024-05-21T05:48:07.000Z</time>
      </trkpt>
      <trkpt lat="45.66313" lon="4.90002">
        <ele>195.60000610352</ele>
        <time>2024-05-21T05:48:08.000Z</time>
      </trkpt>
      <trkpt lat="45.66309" lon="4.90002">
        <ele>195.60000610352</ele>
        <time>2024-05-21T05:48:09.000Z</time>
      </trkpt>
      <trkpt lat="45.66304" lon="4.90002">
        <ele>195.60000610352</ele>
        <time>2024-05-21T05:48:10.000Z</time>
      </trkpt>
      <trkpt lat="45.66304" lon="4.90002">
        <ele>195.60000610352</ele>
        <time>2024-05-21T05:48:11.000Z</time>
      </trkpt>
      <trkpt lat="45.66298" lon="4.90002">
        <ele>195.60000610352</ele>
        <time>2024-05-21T05:48:12.000Z</time>
      </trkpt>
      <trkpt lat="45.66288" lon="4.90005">
        <ele>195.39999389648</ele>
        <time>2024-05-21T05:48:13.000Z</time>
      </trkpt>
      <trkpt lat="45.66288" lon="4.90005">
        <ele>195.39999389648</ele>
        <time>2024-05-21T05:48:14.000Z</time>
      </trkpt>
      <trkpt lat="45.66282" lon="4.90008">
        <ele>195.39999389648</ele>
        <time>2024-05-21T05:48:15.000Z</time>
      </trkpt>
      <trkpt lat="45.66278" lon="4.90009">
        <ele>195.39999389648</ele>
        <time>2024-05-21T05:48:16.000Z</time>
      </trkpt>
      <trkpt lat="45.66268" lon="4.9001">
        <ele>195.39999389648</ele>
        <time>2024-05-21T05:48:17.000Z</time>
      </trkpt>
      <trkpt lat="45.66268" lon="4.9001">
        <ele>195.39999389648</ele>
        <time>2024-05-21T05:48:18.000Z</time>
      </trkpt>
      <trkpt lat="45.66264" lon="4.90012">
        <ele>195.39999389648</ele>
        <time>2024-05-21T05:48:19.000Z</time>
      </trkpt>
      <trkpt lat="45.66255" lon="4.90018">
        <ele>195.39999389648</ele>
        <time>2024-05-21T05:48:20.000Z</time>
      </trkpt>
      <trkpt lat="45.66255" lon="4.90018">
        <ele>195.39999389648</ele>
        <time>2024-05-21T05:48:21.000Z</time>
      </trkpt>
      <trkpt lat="45.6625" lon="4.90021">
        <ele>195.39999389648</ele>
        <time>2024-05-21T05:48:22.000Z</time>
      </trkpt>
      <trkpt lat="45.6624" lon="4.90025">
        <ele>195.39999389648</ele>
        <time>2024-05-21T05:48:23.000Z</time>
      </trkpt>
      <trkpt lat="45.66235" lon="4.90027">
        <ele>195.39999389648</ele>
        <time>2024-05-21T05:48:24.000Z</time>
      </trkpt>
      <trkpt lat="45.66235" lon="4.90027">
        <ele>195.19999694824</ele>
        <time>2024-05-21T05:48:25.000Z</time>
      </trkpt>
      <trkpt lat="45.6623" lon="4.90029">
        <ele>195.19999694824</ele>
        <time>2024-05-21T05:48:26.000Z</time>
      </trkpt>
      <trkpt lat="45.66225" lon="4.90031">
        <ele>195.19999694824</ele>
        <time>2024-05-21T05:48:27.000Z</time>
      </trkpt>
      <trkpt lat="45.6622" lon="4.90033">
        <ele>195.19999694824</ele>
        <time>2024-05-21T05:48:28.000Z</time>
      </trkpt>
      <trkpt lat="45.66215" lon="4.90035">
        <ele>195.19999694824</ele>
        <time>2024-05-21T05:48:29.000Z</time>
      </trkpt>
      <trkpt lat="45.66206" lon="4.90038">
        <ele>195.19999694824</ele>
        <time>2024-05-21T05:48:30.000Z</time>
      </trkpt>
      <trkpt lat="45.66201" lon="4.9004">
        <ele>195.19999694824</ele>
        <time>2024-05-21T05:48:31.000Z</time>
      </trkpt>
      <trkpt lat="45.66196" lon="4.90042">
        <ele>195.39999389648</ele>
        <time>2024-05-21T05:48:32.000Z</time>
      </trkpt>
      <trkpt lat="45.66191" lon="4.90044">
        <ele>195.39999389648</ele>
        <time>2024-05-21T05:48:33.000Z</time>
      </trkpt>
      <trkpt lat="45.66186" lon="4.90045">
        <ele>195.60000610352</ele>
        <time>2024-05-21T05:48:34.000Z</time>
      </trkpt>
      <trkpt lat="45.66186" lon="4.90045">
        <ele>195.60000610352</ele>
        <time>2024-05-21T05:48:35.000Z</time>
      </trkpt>
      <trkpt lat="45.66176" lon="4.90048">
        <ele>195.60000610352</ele>
        <time>2024-05-21T05:48:36.000Z</time>
      </trkpt>
      <trkpt lat="45.66176" lon="4.90048">
        <ele>195.60000610352</ele>
        <time>2024-05-21T05:48:37.000Z</time>
      </trkpt>
      <trkpt lat="45.66171" lon="4.9005">
        <ele>195.60000610352</ele>
        <time>2024-05-21T05:48:38.000Z</time>
      </trkpt>
      <trkpt lat="45.66166" lon="4.90051">
        <ele>195.60000610352</ele>
        <time>2024-05-21T05:48:39.000Z</time>
      </trkpt>
      <trkpt lat="45.66155" lon="4.90054">
        <ele>195.60000610352</ele>
        <time>2024-05-21T05:48:40.000Z</time>
      </trkpt>
      <trkpt lat="45.6615" lon="4.90056">
        <ele>195.39999389648</ele>
        <time>2024-05-21T05:48:41.000Z</time>
      </trkpt>
      <trkpt lat="45.66145" lon="4.90057">
        <ele>195.19999694824</ele>
        <time>2024-05-21T05:48:42.000Z</time>
      </trkpt>
      <trkpt lat="45.66145" lon="4.90057">
        <ele>195.19999694824</ele>
        <time>2024-05-21T05:48:43.000Z</time>
      </trkpt>
      <trkpt lat="45.66133" lon="4.9006">
        <ele>195.19999694824</ele>
        <time>2024-05-21T05:48:44.000Z</time>
      </trkpt>
      <trkpt lat="45.66128" lon="4.90061">
        <ele>195.19999694824</ele>
        <time>2024-05-21T05:48:45.000Z</time>
      </trkpt>
      <trkpt lat="45.66128" lon="4.90061">
        <ele>195.19999694824</ele>
        <time>2024-05-21T05:48:46.000Z</time>
      </trkpt>
      <trkpt lat="45.66117" lon="4.90064">
        <ele>195.19999694824</ele>
        <time>2024-05-21T05:48:47.000Z</time>
      </trkpt>
      <trkpt lat="45.66117" lon="4.90064">
        <ele>195</ele>
        <time>2024-05-21T05:48:48.000Z</time>
      </trkpt>
      <trkpt lat="45.66107" lon="4.90065">
        <ele>195</ele>
        <time>2024-05-21T05:48:49.000Z</time>
      </trkpt>
      <trkpt lat="45.66107" lon="4.90065">
        <ele>195</ele>
        <time>2024-05-21T05:48:50.000Z</time>
      </trkpt>
      <trkpt lat="45.66101" lon="4.90066">
        <ele>195</ele>
        <time>2024-05-21T05:48:51.000Z</time>
      </trkpt>
      <trkpt lat="45.66096" lon="4.90066">
        <ele>195</ele>
        <time>2024-05-21T05:48:52.000Z</time>
      </trkpt>
      <trkpt lat="45.66085" lon="4.90065">
        <ele>195</ele>
        <time>2024-05-21T05:48:53.000Z</time>
      </trkpt>
      <trkpt lat="45.6608" lon="4.90065">
        <ele>195</ele>
        <time>2024-05-21T05:48:54.000Z</time>
      </trkpt>
      <trkpt lat="45.6608" lon="4.90065">
        <ele>195</ele>
        <time>2024-05-21T05:48:55.000Z</time>
      </trkpt>
      <trkpt lat="45.66068" lon="4.90064">
        <ele>194.80000305176</ele>
        <time>2024-05-21T05:48:56.000Z</time>
      </trkpt>
      <trkpt lat="45.66064" lon="4.90064">
        <ele>194.80000305176</ele>
        <time>2024-05-21T05:48:57.000Z</time>
      </trkpt>
      <trkpt lat="45.66059" lon="4.90064">
        <ele>194.80000305176</ele>
        <time>2024-05-21T05:48:58.000Z</time>
      </trkpt>
      <trkpt lat="45.66054" lon="4.90064">
        <ele>194.80000305176</ele>
        <time>2024-05-21T05:48:59.000Z</time>
      </trkpt>
      <trkpt lat="45.66054" lon="4.90064">
        <ele>194.80000305176</ele>
        <time>2024-05-21T05:49:00.000Z</time>
      </trkpt>
      <trkpt lat="45.66048" lon="4.90064">
        <ele>194.80000305176</ele>
        <time>2024-05-21T05:49:01.000Z</time>
      </trkpt>
      <trkpt lat="45.66038" lon="4.90063">
        <ele>194.80000305176</ele>
        <time>2024-05-21T05:49:02.000Z</time>
      </trkpt>
      <trkpt lat="45.66033" lon="4.90063">
        <ele>194.80000305176</ele>
        <time>2024-05-21T05:49:03.000Z</time>
      </trkpt>
      <trkpt lat="45.66028" lon="4.90063">
        <ele>194.80000305176</ele>
        <time>2024-05-21T05:49:04.000Z</time>
      </trkpt>
      <trkpt lat="45.66028" lon="4.90063">
        <ele>195</ele>
        <time>2024-05-21T05:49:05.000Z</time>
      </trkpt>
      <trkpt lat="45.66022" lon="4.90063">
        <ele>195</ele>
        <time>2024-05-21T05:49:06.000Z</time>
      </trkpt>
      <trkpt lat="45.66018" lon="4.90063">
        <ele>195</ele>
        <time>2024-05-21T05:49:07.000Z</time>
      </trkpt>
      <trkpt lat="45.66013" lon="4.90062">
        <ele>195</ele>
        <time>2024-05-21T05:49:08.000Z</time>
      </trkpt>
      <trkpt lat="45.66002" lon="4.90062">
        <ele>195</ele>
        <time>2024-05-21T05:49:09.000Z</time>
      </trkpt>
      <trkpt lat="45.66002" lon="4.90062">
        <ele>195.19999694824</ele>
        <time>2024-05-21T05:49:10.000Z</time>
      </trkpt>
      <trkpt lat="45.65997" lon="4.90062">
        <ele>195.19999694824</ele>
        <time>2024-05-21T05:49:11.000Z</time>
      </trkpt>
      <trkpt lat="45.65987" lon="4.90062">
        <ele>195.19999694824</ele>
        <time>2024-05-21T05:49:12.000Z</time>
      </trkpt>
      <trkpt lat="45.65987" lon="4.90062">
        <ele>195</ele>
        <time>2024-05-21T05:49:13.000Z</time>
      </trkpt>
      <trkpt lat="45.65977" lon="4.90061">
        <ele>195</ele>
        <time>2024-05-21T05:49:14.000Z</time>
      </trkpt>
      <trkpt lat="45.65977" lon="4.90061">
        <ele>195</ele>
        <time>2024-05-21T05:49:15.000Z</time>
      </trkpt>
      <trkpt lat="45.65972" lon="4.90061">
        <ele>194.80000305176</ele>
        <time>2024-05-21T05:49:16.000Z</time>
      </trkpt>
      <trkpt lat="45.65963" lon="4.90062">
        <ele>194.80000305176</ele>
        <time>2024-05-21T05:49:17.000Z</time>
      </trkpt>
      <trkpt lat="45.65958" lon="4.90062">
        <ele>194.80000305176</ele>
        <time>2024-05-21T05:49:18.000Z</time>
      </trkpt>
      <trkpt lat="45.65954" lon="4.90062">
        <ele>194.80000305176</ele>
        <time>2024-05-21T05:49:19.000Z</time>
      </trkpt>
      <trkpt lat="45.6595" lon="4.90063">
        <ele>195</ele>
        <time>2024-05-21T05:49:20.000Z</time>
      </trkpt>
      <trkpt lat="45.65947" lon="4.90062">
        <ele>195</ele>
        <time>2024-05-21T05:49:21.000Z</time>
      </trkpt>
      <trkpt lat="45.65944" lon="4.90061">
        <ele>195</ele>
        <time>2024-05-21T05:49:22.000Z</time>
      </trkpt>
      <trkpt lat="45.65943" lon="4.9006">
        <ele>195</ele>
        <time>2024-05-21T05:49:23.000Z</time>
      </trkpt>
      <trkpt lat="45.65942" lon="4.90059">
        <ele>195</ele>
        <time>2024-05-21T05:49:24.000Z</time>
      </trkpt>
      <trkpt lat="45.6594" lon="4.90057">
        <ele>195.19999694824</ele>
        <time>2024-05-21T05:49:25.000Z</time>
      </trkpt>
      <trkpt lat="45.65938" lon="4.90056">
        <ele>195.39999389648</ele>
        <time>2024-05-21T05:49:26.000Z</time>
      </trkpt>
      <trkpt lat="45.65935" lon="4.90056">
        <ele>195.39999389648</ele>
        <time>2024-05-21T05:49:27.000Z</time>
      </trkpt>
      <trkpt lat="45.65932" lon="4.90055">
        <ele>195.39999389648</ele>
        <time>2024-05-21T05:49:28.000Z</time>
      </trkpt>
      <trkpt lat="45.65929" lon="4.90054">
        <ele>195.39999389648</ele>
        <time>2024-05-21T05:49:29.000Z</time>
      </trkpt>
      <trkpt lat="45.65926" lon="4.90053">
        <ele>195.19999694824</ele>
        <time>2024-05-21T05:49:30.000Z</time>
      </trkpt>
      <trkpt lat="45.65926" lon="4.90053">
        <ele>195.19999694824</ele>
        <time>2024-05-21T05:49:31.000Z</time>
      </trkpt>
      <trkpt lat="45.65921" lon="4.90051">
        <ele>195.19999694824</ele>
        <time>2024-05-21T05:49:32.000Z</time>
      </trkpt>
      <trkpt lat="45.65919" lon="4.90051">
        <ele>195.19999694824</ele>
        <time>2024-05-21T05:49:33.000Z</time>
      </trkpt>
      <trkpt lat="45.65919" lon="4.90051">
        <ele>195.19999694824</ele>
        <time>2024-05-21T05:49:34.000Z</time>
      </trkpt>
      <trkpt lat="45.65918" lon="4.90051">
        <ele>195.39999389648</ele>
        <time>2024-05-21T05:49:35.000Z</time>
      </trkpt>
      <trkpt lat="45.65916" lon="4.90051">
        <ele>195.39999389648</ele>
        <time>2024-05-21T05:49:36.000Z</time>
      </trkpt>
      <trkpt lat="45.65914" lon="4.9005">
        <ele>195.39999389648</ele>
        <time>2024-05-21T05:49:37.000Z</time>
      </trkpt>
      <trkpt lat="45.65913" lon="4.9005">
        <ele>195.39999389648</ele>
        <time>2024-05-21T05:49:38.000Z</time>
      </trkpt>
      <trkpt lat="45.65913" lon="4.9005">
        <ele>195.39999389648</ele>
        <time>2024-05-21T05:49:39.000Z</time>
      </trkpt>
      <trkpt lat="45.65911" lon="4.90049">
        <ele>195.39999389648</ele>
        <time>2024-05-21T05:49:40.000Z</time>
      </trkpt>
      <trkpt lat="45.65911" lon="4.90049">
        <ele>195.39999389648</ele>
        <time>2024-05-21T05:49:41.000Z</time>
      </trkpt>
      <trkpt lat="45.65909" lon="4.90049">
        <ele>195.19999694824</ele>
        <time>2024-05-21T05:49:42.000Z</time>
      </trkpt>
      <trkpt lat="45.65907" lon="4.90049">
        <ele>195.19999694824</ele>
        <time>2024-05-21T05:49:43.000Z</time>
      </trkpt>
      <trkpt lat="45.65907" lon="4.90049">
        <ele>195.19999694824</ele>
        <time>2024-05-21T05:49:44.000Z</time>
      </trkpt>
      <trkpt lat="45.65903" lon="4.90048">
        <ele>195.19999694824</ele>
        <time>2024-05-21T05:49:45.000Z</time>
      </trkpt>
      <trkpt lat="45.659" lon="4.90047">
        <ele>195.19999694824</ele>
        <time>2024-05-21T05:49:46.000Z</time>
      </trkpt>
      <trkpt lat="45.65897" lon="4.90046">
        <ele>195.19999694824</ele>
        <time>2024-05-21T05:49:47.000Z</time>
      </trkpt>
      <trkpt lat="45.65894" lon="4.90045">
        <ele>195.19999694824</ele>
        <time>2024-05-21T05:49:48.000Z</time>
      </trkpt>
      <trkpt lat="45.6589" lon="4.90044">
        <ele>195</ele>
        <time>2024-05-21T05:49:49.000Z</time>
      </trkpt>
      <trkpt lat="45.65887" lon="4.90043">
        <ele>194.80000305176</ele>
        <time>2024-05-21T05:49:50.000Z</time>
      </trkpt>
      <trkpt lat="45.65883" lon="4.90042">
        <ele>194.80000305176</ele>
        <time>2024-05-21T05:49:51.000Z</time>
      </trkpt>
      <trkpt lat="45.65879" lon="4.90041">
        <ele>194.80000305176</ele>
        <time>2024-05-21T05:49:52.000Z</time>
      </trkpt>
      <trkpt lat="45.65875" lon="4.9004">
        <ele>194.60000610352</ele>
        <time>2024-05-21T05:49:53.000Z</time>
      </trkpt>
      <trkpt lat="45.65871" lon="4.90039">
        <ele>194.60000610352</ele>
        <time>2024-05-21T05:49:54.000Z</time>
      </trkpt>
      <trkpt lat="45.65867" lon="4.90038">
        <ele>194.60000610352</ele>
        <time>2024-05-21T05:49:55.000Z</time>
      </trkpt>
      <trkpt lat="45.65863" lon="4.90037">
        <ele>194.60000610352</ele>
        <time>2024-05-21T05:49:56.000Z</time>
      </trkpt>
      <trkpt lat="45.65859" lon="4.90036">
        <ele>194.60000610352</ele>
        <time>2024-05-21T05:49:57.000Z</time>
      </trkpt>
      <trkpt lat="45.65856" lon="4.90035">
        <ele>194.60000610352</ele>
        <time>2024-05-21T05:49:58.000Z</time>
      </trkpt>
      <trkpt lat="45.65852" lon="4.90034">
        <ele>194.60000610352</ele>
        <time>2024-05-21T05:49:59.000Z</time>
      </trkpt>
      <trkpt lat="45.65849" lon="4.90033">
        <ele>194.60000610352</ele>
        <time>2024-05-21T05:50:00.000Z</time>
      </trkpt>
      <trkpt lat="45.65846" lon="4.90032">
        <ele>194.60000610352</ele>
        <time>2024-05-21T05:50:01.000Z</time>
      </trkpt>
      <trkpt lat="45.65843" lon="4.90032">
        <ele>194.60000610352</ele>
        <time>2024-05-21T05:50:02.000Z</time>
      </trkpt>
      <trkpt lat="45.65843" lon="4.90032">
        <ele>194.80000305176</ele>
        <time>2024-05-21T05:50:03.000Z</time>
      </trkpt>
      <trkpt lat="45.65838" lon="4.90031">
        <ele>194.80000305176</ele>
        <time>2024-05-21T05:50:04.000Z</time>
      </trkpt>
      <trkpt lat="45.65838" lon="4.90031">
        <ele>194.80000305176</ele>
        <time>2024-05-21T05:50:05.000Z</time>
      </trkpt>
      <trkpt lat="45.65834" lon="4.9003">
        <ele>194.80000305176</ele>
        <time>2024-05-21T05:50:06.000Z</time>
      </trkpt>
      <trkpt lat="45.65832" lon="4.9003">
        <ele>195</ele>
        <time>2024-05-21T05:50:07.000Z</time>
      </trkpt>
      <trkpt lat="45.65832" lon="4.9003">
        <ele>195</ele>
        <time>2024-05-21T05:50:08.000Z</time>
      </trkpt>
      <trkpt lat="45.65829" lon="4.90029">
        <ele>195</ele>
        <time>2024-05-21T05:50:09.000Z</time>
      </trkpt>
      <trkpt lat="45.65828" lon="4.90029">
        <ele>195</ele>
        <time>2024-05-21T05:50:10.000Z</time>
      </trkpt>
      <trkpt lat="45.65826" lon="4.90029">
        <ele>195</ele>
        <time>2024-05-21T05:50:11.000Z</time>
      </trkpt>
      <trkpt lat="45.65825" lon="4.90028">
        <ele>195</ele>
        <time>2024-05-21T05:50:12.000Z</time>
      </trkpt>
      <trkpt lat="45.65823" lon="4.90028">
        <ele>195</ele>
        <time>2024-05-21T05:50:13.000Z</time>
      </trkpt>
      <trkpt lat="45.65822" lon="4.90027">
        <ele>195</ele>
        <time>2024-05-21T05:50:14.000Z</time>
      </trkpt>
      <trkpt lat="45.6582" lon="4.90027">
        <ele>195</ele>
        <time>2024-05-21T05:50:15.000Z</time>
      </trkpt>
      <trkpt lat="45.65817" lon="4.90026">
        <ele>195</ele>
        <time>2024-05-21T05:50:16.000Z</time>
      </trkpt>
      <trkpt lat="45.65814" lon="4.90026">
        <ele>195</ele>
        <time>2024-05-21T05:50:17.000Z</time>
      </trkpt>
      <trkpt lat="45.6581" lon="4.90025">
        <ele>194.80000305176</ele>
        <time>2024-05-21T05:50:18.000Z</time>
      </trkpt>
      <trkpt lat="45.65807" lon="4.90025">
        <ele>194.80000305176</ele>
        <time>2024-05-21T05:50:19.000Z</time>
      </trkpt>
      <trkpt lat="45.65803" lon="4.90025">
        <ele>194.60000610352</ele>
        <time>2024-05-21T05:50:20.000Z</time>
      </trkpt>
      <trkpt lat="45.658" lon="4.90024">
        <ele>194.60000610352</ele>
        <time>2024-05-21T05:50:21.000Z</time>
      </trkpt>
      <trkpt lat="45.65798" lon="4.90024">
        <ele>194.60000610352</ele>
        <time>2024-05-21T05:50:22.000Z</time>
      </trkpt>
      <trkpt lat="45.65796" lon="4.90023">
        <ele>194.60000610352</ele>
        <time>2024-05-21T05:50:23.000Z</time>
      </trkpt>
      <trkpt lat="45.65793" lon="4.90022">
        <ele>194.60000610352</ele>
        <time>2024-05-21T05:50:24.000Z</time>
      </trkpt>
      <trkpt lat="45.6579" lon="4.90021">
        <ele>194.60000610352</ele>
        <time>2024-05-21T05:50:25.000Z</time>
      </trkpt>
      <trkpt lat="45.65786" lon="4.90021">
        <ele>194.60000610352</ele>
        <time>2024-05-21T05:50:26.000Z</time>
      </trkpt>
      <trkpt lat="45.65782" lon="4.9002">
        <ele>194.39999389648</ele>
        <time>2024-05-21T05:50:27.000Z</time>
      </trkpt>
      <trkpt lat="45.65778" lon="4.9002">
        <ele>194.39999389648</ele>
        <time>2024-05-21T05:50:28.000Z</time>
      </trkpt>
      <trkpt lat="45.65774" lon="4.90019">
        <ele>194.19999694824</ele>
        <time>2024-05-21T05:50:29.000Z</time>
      </trkpt>
      <trkpt lat="45.65769" lon="4.90019">
        <ele>194</ele>
        <time>2024-05-21T05:50:30.000Z</time>
      </trkpt>
      <trkpt lat="45.65765" lon="4.90019">
        <ele>194</ele>
        <time>2024-05-21T05:50:31.000Z</time>
      </trkpt>
      <trkpt lat="45.6576" lon="4.90019">
        <ele>193.80000305176</ele>
        <time>2024-05-21T05:50:32.000Z</time>
      </trkpt>
      <trkpt lat="45.65755" lon="4.90019">
        <ele>193.80000305176</ele>
        <time>2024-05-21T05:50:33.000Z</time>
      </trkpt>
      <trkpt lat="45.65751" lon="4.90019">
        <ele>193.80000305176</ele>
        <time>2024-05-21T05:50:34.000Z</time>
      </trkpt>
      <trkpt lat="45.65746" lon="4.90019">
        <ele>193.80000305176</ele>
        <time>2024-05-21T05:50:35.000Z</time>
      </trkpt>
      <trkpt lat="45.65742" lon="4.90019">
        <ele>193.60000610352</ele>
        <time>2024-05-21T05:50:36.000Z</time>
      </trkpt>
      <trkpt lat="45.65737" lon="4.90019">
        <ele>193.60000610352</ele>
        <time>2024-05-21T05:50:37.000Z</time>
      </trkpt>
      <trkpt lat="45.65731" lon="4.9002">
        <ele>193.60000610352</ele>
        <time>2024-05-21T05:50:38.000Z</time>
      </trkpt>
      <trkpt lat="45.65726" lon="4.9002">
        <ele>193.60000610352</ele>
        <time>2024-05-21T05:50:39.000Z</time>
      </trkpt>
      <trkpt lat="45.65721" lon="4.9002">
        <ele>193.39999389648</ele>
        <time>2024-05-21T05:50:40.000Z</time>
      </trkpt>
      <trkpt lat="45.65716" lon="4.9002">
        <ele>193.39999389648</ele>
        <time>2024-05-21T05:50:41.000Z</time>
      </trkpt>
      <trkpt lat="45.65712" lon="4.9002">
        <ele>193.39999389648</ele>
        <time>2024-05-21T05:50:42.000Z</time>
      </trkpt>
      <trkpt lat="45.65712" lon="4.9002">
        <ele>193.19999694824</ele>
        <time>2024-05-21T05:50:43.000Z</time>
      </trkpt>
      <trkpt lat="45.65703" lon="4.9002">
        <ele>193.19999694824</ele>
        <time>2024-05-21T05:50:44.000Z</time>
      </trkpt>
      <trkpt lat="45.65698" lon="4.9002">
        <ele>193.19999694824</ele>
        <time>2024-05-21T05:50:45.000Z</time>
      </trkpt>
      <trkpt lat="45.65698" lon="4.9002">
        <ele>193.19999694824</ele>
        <time>2024-05-21T05:50:46.000Z</time>
      </trkpt>
      <trkpt lat="45.65689" lon="4.90021">
        <ele>193.19999694824</ele>
        <time>2024-05-21T05:50:47.000Z</time>
      </trkpt>
      <trkpt lat="45.65684" lon="4.90021">
        <ele>193.19999694824</ele>
        <time>2024-05-21T05:50:48.000Z</time>
      </trkpt>
      <trkpt lat="45.65678" lon="4.90021">
        <ele>193.19999694824</ele>
        <time>2024-05-21T05:50:49.000Z</time>
      </trkpt>
      <trkpt lat="45.65674" lon="4.90021">
        <ele>193.19999694824</ele>
        <time>2024-05-21T05:50:50.000Z</time>
      </trkpt>
      <trkpt lat="45.65674" lon="4.90021">
        <ele>193</ele>
        <time>2024-05-21T05:50:51.000Z</time>
      </trkpt>
      <trkpt lat="45.65664" lon="4.90022">
        <ele>193</ele>
        <time>2024-05-21T05:50:52.000Z</time>
      </trkpt>
      <trkpt lat="45.65659" lon="4.90022">
        <ele>193</ele>
        <time>2024-05-21T05:50:53.000Z</time>
      </trkpt>
      <trkpt lat="45.65654" lon="4.90023">
        <ele>192.80000305176</ele>
        <time>2024-05-21T05:50:54.000Z</time>
      </trkpt>
      <trkpt lat="45.65649" lon="4.90023">
        <ele>192.80000305176</ele>
        <time>2024-05-21T05:50:55.000Z</time>
      </trkpt>
      <trkpt lat="45.65644" lon="4.90023">
        <ele>192.80000305176</ele>
        <time>2024-05-21T05:50:56.000Z</time>
      </trkpt>
      <trkpt lat="45.65639" lon="4.90023">
        <ele>192.60000610352</ele>
        <time>2024-05-21T05:50:57.000Z</time>
      </trkpt>
      <trkpt lat="45.65634" lon="4.90024">
        <ele>192.60000610352</ele>
        <time>2024-05-21T05:50:58.000Z</time>
      </trkpt>
      <trkpt lat="45.65629" lon="4.90024">
        <ele>192.60000610352</ele>
        <time>2024-05-21T05:50:59.000Z</time>
      </trkpt>
      <trkpt lat="45.65624" lon="4.90024">
        <ele>192.60000610352</ele>
        <time>2024-05-21T05:51:00.000Z</time>
      </trkpt>
      <trkpt lat="45.65618" lon="4.90024">
        <ele>192.60000610352</ele>
        <time>2024-05-21T05:51:01.000Z</time>
      </trkpt>
      <trkpt lat="45.65613" lon="4.90024">
        <ele>192.60000610352</ele>
        <time>2024-05-21T05:51:02.000Z</time>
      </trkpt>
      <trkpt lat="45.65608" lon="4.90024">
        <ele>192.60000610352</ele>
        <time>2024-05-21T05:51:03.000Z</time>
      </trkpt>
      <trkpt lat="45.65603" lon="4.90025">
        <ele>192.60000610352</ele>
        <time>2024-05-21T05:51:04.000Z</time>
      </trkpt>
      <trkpt lat="45.65598" lon="4.90025">
        <ele>192.60000610352</ele>
        <time>2024-05-21T05:51:05.000Z</time>
      </trkpt>
      <trkpt lat="45.65593" lon="4.90025">
        <ele>192.60000610352</ele>
        <time>2024-05-21T05:51:06.000Z</time>
      </trkpt>
      <trkpt lat="45.65588" lon="4.90025">
        <ele>192.60000610352</ele>
        <time>2024-05-21T05:51:07.000Z</time>
      </trkpt>
      <trkpt lat="45.65583" lon="4.90025">
        <ele>192.60000610352</ele>
        <time>2024-05-21T05:51:08.000Z</time>
      </trkpt>
      <trkpt lat="45.65579" lon="4.90025">
        <ele>192.60000610352</ele>
        <time>2024-05-21T05:51:09.000Z</time>
      </trkpt>
      <trkpt lat="45.65574" lon="4.90025">
        <ele>192.60000610352</ele>
        <time>2024-05-21T05:51:10.000Z</time>
      </trkpt>
      <trkpt lat="45.65571" lon="4.90025">
        <ele>192.80000305176</ele>
        <time>2024-05-21T05:51:11.000Z</time>
      </trkpt>
      <trkpt lat="45.65568" lon="4.90025">
        <ele>192.80000305176</ele>
        <time>2024-05-21T05:51:12.000Z</time>
      </trkpt>
      <trkpt lat="45.65566" lon="4.90025">
        <ele>192.80000305176</ele>
        <time>2024-05-21T05:51:13.000Z</time>
      </trkpt>
      <trkpt lat="45.65565" lon="4.90025">
        <ele>193</ele>
        <time>2024-05-21T05:51:14.000Z</time>
      </trkpt>
      <trkpt lat="45.65563" lon="4.90024">
        <ele>193.19999694824</ele>
        <time>2024-05-21T05:51:15.000Z</time>
      </trkpt>
      <trkpt lat="45.65561" lon="4.90024">
        <ele>193.39999389648</ele>
        <time>2024-05-21T05:51:16.000Z</time>
      </trkpt>
      <trkpt lat="45.65558" lon="4.90024">
        <ele>193.60000610352</ele>
        <time>2024-05-21T05:51:17.000Z</time>
      </trkpt>
      <trkpt lat="45.65554" lon="4.90024">
        <ele>193.60000610352</ele>
        <time>2024-05-21T05:51:18.000Z</time>
      </trkpt>
      <trkpt lat="45.65551" lon="4.90025">
        <ele>193.60000610352</ele>
        <time>2024-05-21T05:51:19.000Z</time>
      </trkpt>
      <trkpt lat="45.65551" lon="4.90025">
        <ele>193.60000610352</ele>
        <time>2024-05-21T05:51:20.000Z</time>
      </trkpt>
      <trkpt lat="45.65543" lon="4.90025">
        <ele>193.60000610352</ele>
        <time>2024-05-21T05:51:21.000Z</time>
      </trkpt>
      <trkpt lat="45.6554" lon="4.90024">
        <ele>193.39999389648</ele>
        <time>2024-05-21T05:51:22.000Z</time>
      </trkpt>
      <trkpt lat="45.65536" lon="4.90025">
        <ele>193.39999389648</ele>
        <time>2024-05-21T05:51:23.000Z</time>
      </trkpt>
      <trkpt lat="45.65531" lon="4.90025">
        <ele>193.39999389648</ele>
        <time>2024-05-21T05:51:24.000Z</time>
      </trkpt>
      <trkpt lat="45.65527" lon="4.90025">
        <ele>193.39999389648</ele>
        <time>2024-05-21T05:51:25.000Z</time>
      </trkpt>
      <trkpt lat="45.65523" lon="4.90025">
        <ele>193.39999389648</ele>
        <time>2024-05-21T05:51:26.000Z</time>
      </trkpt>
      <trkpt lat="45.65519" lon="4.90025">
        <ele>193.39999389648</ele>
        <time>2024-05-21T05:51:27.000Z</time>
      </trkpt>
      <trkpt lat="45.65519" lon="4.90025">
        <ele>193.60000610352</ele>
        <time>2024-05-21T05:51:28.000Z</time>
      </trkpt>
      <trkpt lat="45.65514" lon="4.90025">
        <ele>193.60000610352</ele>
        <time>2024-05-21T05:51:29.000Z</time>
      </trkpt>
      <trkpt lat="45.65505" lon="4.90025">
        <ele>193.60000610352</ele>
        <time>2024-05-21T05:51:30.000Z</time>
      </trkpt>
      <trkpt lat="45.65501" lon="4.90026">
        <ele>193.60000610352</ele>
        <time>2024-05-21T05:51:31.000Z</time>
      </trkpt>
      <trkpt lat="45.65496" lon="4.90026">
        <ele>193.60000610352</ele>
        <time>2024-05-21T05:51:32.000Z</time>
      </trkpt>
      <trkpt lat="45.65491" lon="4.90027">
        <ele>193.60000610352</ele>
        <time>2024-05-21T05:51:33.000Z</time>
      </trkpt>
      <trkpt lat="45.65486" lon="4.90027">
        <ele>193.39999389648</ele>
        <time>2024-05-21T05:51:34.000Z</time>
      </trkpt>
      <trkpt lat="45.65482" lon="4.90027">
        <ele>193.39999389648</ele>
        <time>2024-05-21T05:51:35.000Z</time>
      </trkpt>
      <trkpt lat="45.65477" lon="4.90027">
        <ele>193.39999389648</ele>
        <time>2024-05-21T05:51:36.000Z</time>
      </trkpt>
      <trkpt lat="45.65472" lon="4.90027">
        <ele>193.39999389648</ele>
        <time>2024-05-21T05:51:37.000Z</time>
      </trkpt>
      <trkpt lat="45.65466" lon="4.90027">
        <ele>193.39999389648</ele>
        <time>2024-05-21T05:51:38.000Z</time>
      </trkpt>
      <trkpt lat="45.65461" lon="4.90027">
        <ele>193.39999389648</ele>
        <time>2024-05-21T05:51:39.000Z</time>
      </trkpt>
      <trkpt lat="45.65456" lon="4.90028">
        <ele>193.39999389648</ele>
        <time>2024-05-21T05:51:40.000Z</time>
      </trkpt>
      <trkpt lat="45.65451" lon="4.90028">
        <ele>193.39999389648</ele>
        <time>2024-05-21T05:51:41.000Z</time>
      </trkpt>
      <trkpt lat="45.65445" lon="4.90028">
        <ele>193.39999389648</ele>
        <time>2024-05-21T05:51:42.000Z</time>
      </trkpt>
      <trkpt lat="45.6544" lon="4.90028">
        <ele>193.19999694824</ele>
        <time>2024-05-21T05:51:43.000Z</time>
      </trkpt>
      <trkpt lat="45.65434" lon="4.90028">
        <ele>193.19999694824</ele>
        <time>2024-05-21T05:51:44.000Z</time>
      </trkpt>
      <trkpt lat="45.65429" lon="4.90028">
        <ele>193.19999694824</ele>
        <time>2024-05-21T05:51:45.000Z</time>
      </trkpt>
      <trkpt lat="45.65423" lon="4.90028">
        <ele>193.19999694824</ele>
        <time>2024-05-21T05:51:46.000Z</time>
      </trkpt>
      <trkpt lat="45.65418" lon="4.90028">
        <ele>193.19999694824</ele>
        <time>2024-05-21T05:51:47.000Z</time>
      </trkpt>
      <trkpt lat="45.65412" lon="4.90028">
        <ele>193.19999694824</ele>
        <time>2024-05-21T05:51:48.000Z</time>
      </trkpt>
      <trkpt lat="45.65406" lon="4.90028">
        <ele>193.19999694824</ele>
        <time>2024-05-21T05:51:49.000Z</time>
      </trkpt>
      <trkpt lat="45.65401" lon="4.90028">
        <ele>193.19999694824</ele>
        <time>2024-05-21T05:51:50.000Z</time>
      </trkpt>
      <trkpt lat="45.65395" lon="4.90028">
        <ele>193.19999694824</ele>
        <time>2024-05-21T05:51:51.000Z</time>
      </trkpt>
      <trkpt lat="45.65389" lon="4.90028">
        <ele>193.19999694824</ele>
        <time>2024-05-21T05:51:52.000Z</time>
      </trkpt>
      <trkpt lat="45.65383" lon="4.90029">
        <ele>193.19999694824</ele>
        <time>2024-05-21T05:51:53.000Z</time>
      </trkpt>
      <trkpt lat="45.65377" lon="4.90029">
        <ele>193.19999694824</ele>
        <time>2024-05-21T05:51:54.000Z</time>
      </trkpt>
      <trkpt lat="45.65372" lon="4.90029">
        <ele>193.19999694824</ele>
        <time>2024-05-21T05:51:55.000Z</time>
      </trkpt>
      <trkpt lat="45.65366" lon="4.90029">
        <ele>193.39999389648</ele>
        <time>2024-05-21T05:51:56.000Z</time>
      </trkpt>
      <trkpt lat="45.6536" lon="4.90029">
        <ele>193.39999389648</ele>
        <time>2024-05-21T05:51:57.000Z</time>
      </trkpt>
      <trkpt lat="45.65354" lon="4.90029">
        <ele>193.39999389648</ele>
        <time>2024-05-21T05:51:58.000Z</time>
      </trkpt>
      <trkpt lat="45.65348" lon="4.90029">
        <ele>193.39999389648</ele>
        <time>2024-05-21T05:51:59.000Z</time>
      </trkpt>
      <trkpt lat="45.65342" lon="4.90029">
        <ele>193.39999389648</ele>
        <time>2024-05-21T05:52:00.000Z</time>
      </trkpt>
      <trkpt lat="45.65337" lon="4.9003">
        <ele>193.39999389648</ele>
        <time>2024-05-21T05:52:01.000Z</time>
      </trkpt>
      <trkpt lat="45.65331" lon="4.9003">
        <ele>193.60000610352</ele>
        <time>2024-05-21T05:52:02.000Z</time>
      </trkpt>
      <trkpt lat="45.65325" lon="4.90031">
        <ele>193.60000610352</ele>
        <time>2024-05-21T05:52:03.000Z</time>
      </trkpt>
      <trkpt lat="45.6532" lon="4.90031">
        <ele>193.60000610352</ele>
        <time>2024-05-21T05:52:04.000Z</time>
      </trkpt>
      <trkpt lat="45.65314" lon="4.90031">
        <ele>193.60000610352</ele>
        <time>2024-05-21T05:52:05.000Z</time>
      </trkpt>
      <trkpt lat="45.65309" lon="4.90032">
        <ele>193.60000610352</ele>
        <time>2024-05-21T05:52:06.000Z</time>
      </trkpt>
      <trkpt lat="45.65303" lon="4.90033">
        <ele>193.80000305176</ele>
        <time>2024-05-21T05:52:07.000Z</time>
      </trkpt>
      <trkpt lat="45.65298" lon="4.90033">
        <ele>193.80000305176</ele>
        <time>2024-05-21T05:52:08.000Z</time>
      </trkpt>
      <trkpt lat="45.65292" lon="4.90033">
        <ele>193.80000305176</ele>
        <time>2024-05-21T05:52:09.000Z</time>
      </trkpt>
      <trkpt lat="45.65287" lon="4.90034">
        <ele>193.80000305176</ele>
        <time>2024-05-21T05:52:10.000Z</time>
      </trkpt>
      <trkpt lat="45.65281" lon="4.90034">
        <ele>193.80000305176</ele>
        <time>2024-05-21T05:52:11.000Z</time>
      </trkpt>
      <trkpt lat="45.65275" lon="4.90033">
        <ele>194</ele>
        <time>2024-05-21T05:52:12.000Z</time>
      </trkpt>
      <trkpt lat="45.65269" lon="4.90033">
        <ele>194</ele>
        <time>2024-05-21T05:52:13.000Z</time>
      </trkpt>
      <trkpt lat="45.65264" lon="4.90033">
        <ele>194</ele>
        <time>2024-05-21T05:52:14.000Z</time>
      </trkpt>
      <trkpt lat="45.65258" lon="4.90032">
        <ele>194</ele>
        <time>2024-05-21T05:52:15.000Z</time>
      </trkpt>
      <trkpt lat="45.65253" lon="4.90031">
        <ele>194</ele>
        <time>2024-05-21T05:52:16.000Z</time>
      </trkpt>
      <trkpt lat="45.65247" lon="4.9003">
        <ele>194.19999694824</ele>
        <time>2024-05-21T05:52:17.000Z</time>
      </trkpt>
      <trkpt lat="45.65242" lon="4.90029">
        <ele>194.19999694824</ele>
        <time>2024-05-21T05:52:18.000Z</time>
      </trkpt>
      <trkpt lat="45.65236" lon="4.90028">
        <ele>194.19999694824</ele>
        <time>2024-05-21T05:52:19.000Z</time>
      </trkpt>
      <trkpt lat="45.6523" lon="4.90027">
        <ele>194.19999694824</ele>
        <time>2024-05-21T05:52:20.000Z</time>
      </trkpt>
      <trkpt lat="45.65225" lon="4.90026">
        <ele>194.19999694824</ele>
        <time>2024-05-21T05:52:21.000Z</time>
      </trkpt>
      <trkpt lat="45.65219" lon="4.90025">
        <ele>194.19999694824</ele>
        <time>2024-05-21T05:52:22.000Z</time>
      </trkpt>
      <trkpt lat="45.65213" lon="4.90025">
        <ele>194.19999694824</ele>
        <time>2024-05-21T05:52:23.000Z</time>
      </trkpt>
      <trkpt lat="45.65207" lon="4.90024">
        <ele>194.19999694824</ele>
        <time>2024-05-21T05:52:24.000Z</time>
      </trkpt>
      <trkpt lat="45.65201" lon="4.90023">
        <ele>194</ele>
        <time>2024-05-21T05:52:25.000Z</time>
      </trkpt>
      <trkpt lat="45.65195" lon="4.90022">
        <ele>194</ele>
        <time>2024-05-21T05:52:26.000Z</time>
      </trkpt>
      <trkpt lat="45.65189" lon="4.90021">
        <ele>194</ele>
        <time>2024-05-21T05:52:27.000Z</time>
      </trkpt>
      <trkpt lat="45.65183" lon="4.90021">
        <ele>194</ele>
        <time>2024-05-21T05:52:28.000Z</time>
      </trkpt>
      <trkpt lat="45.65177" lon="4.90021">
        <ele>194</ele>
        <time>2024-05-21T05:52:29.000Z</time>
      </trkpt>
      <trkpt lat="45.65171" lon="4.90021">
        <ele>194</ele>
        <time>2024-05-21T05:52:30.000Z</time>
      </trkpt>
      <trkpt lat="45.65164" lon="4.90021">
        <ele>194</ele>
        <time>2024-05-21T05:52:31.000Z</time>
      </trkpt>
      <trkpt lat="45.65158" lon="4.90021">
        <ele>194</ele>
        <time>2024-05-21T05:52:32.000Z</time>
      </trkpt>
      <trkpt lat="45.65152" lon="4.90021">
        <ele>194</ele>
        <time>2024-05-21T05:52:33.000Z</time>
      </trkpt>
      <trkpt lat="45.65146" lon="4.90022">
        <ele>193.80000305176</ele>
        <time>2024-05-21T05:52:34.000Z</time>
      </trkpt>
      <trkpt lat="45.6514" lon="4.90022">
        <ele>193.80000305176</ele>
        <time>2024-05-21T05:52:35.000Z</time>
      </trkpt>
      <trkpt lat="45.65134" lon="4.90021">
        <ele>193.80000305176</ele>
        <time>2024-05-21T05:52:36.000Z</time>
      </trkpt>
      <trkpt lat="45.65127" lon="4.90022">
        <ele>193.80000305176</ele>
        <time>2024-05-21T05:52:37.000Z</time>
      </trkpt>
      <trkpt lat="45.65121" lon="4.90022">
        <ele>193.80000305176</ele>
        <time>2024-05-21T05:52:38.000Z</time>
      </trkpt>
      <trkpt lat="45.65115" lon="4.90022">
        <ele>193.80000305176</ele>
        <time>2024-05-21T05:52:39.000Z</time>
      </trkpt>
      <trkpt lat="45.65109" lon="4.90022">
        <ele>193.60000610352</ele>
        <time>2024-05-21T05:52:40.000Z</time>
      </trkpt>
      <trkpt lat="45.65103" lon="4.90022">
        <ele>193.60000610352</ele>
        <time>2024-05-21T05:52:41.000Z</time>
      </trkpt>
      <trkpt lat="45.65097" lon="4.90022">
        <ele>193.60000610352</ele>
        <time>2024-05-21T05:52:42.000Z</time>
      </trkpt>
      <trkpt lat="45.6509" lon="4.90022">
        <ele>193.60000610352</ele>
        <time>2024-05-21T05:52:43.000Z</time>
      </trkpt>
      <trkpt lat="45.65084" lon="4.90022">
        <ele>193.60000610352</ele>
        <time>2024-05-21T05:52:44.000Z</time>
      </trkpt>
      <trkpt lat="45.65078" lon="4.90022">
        <ele>193.60000610352</ele>
        <time>2024-05-21T05:52:45.000Z</time>
      </trkpt>
      <trkpt lat="45.65072" lon="4.90022">
        <ele>193.60000610352</ele>
        <time>2024-05-21T05:52:46.000Z</time>
      </trkpt>
      <trkpt lat="45.65066" lon="4.90023">
        <ele>193.60000610352</ele>
        <time>2024-05-21T05:52:47.000Z</time>
      </trkpt>
      <trkpt lat="45.6506" lon="4.90023">
        <ele>193.60000610352</ele>
        <time>2024-05-21T05:52:48.000Z</time>
      </trkpt>
      <trkpt lat="45.65054" lon="4.90023">
        <ele>193.60000610352</ele>
        <time>2024-05-21T05:52:49.000Z</time>
      </trkpt>
      <trkpt lat="45.65048" lon="4.90023">
        <ele>193.60000610352</ele>
        <time>2024-05-21T05:52:50.000Z</time>
      </trkpt>
      <trkpt lat="45.65042" lon="4.90023">
        <ele>193.60000610352</ele>
        <time>2024-05-21T05:52:51.000Z</time>
      </trkpt>
      <trkpt lat="45.65036" lon="4.90023">
        <ele>193.60000610352</ele>
        <time>2024-05-21T05:52:52.000Z</time>
      </trkpt>
      <trkpt lat="45.6503" lon="4.90023">
        <ele>193.60000610352</ele>
        <time>2024-05-21T05:52:53.000Z</time>
      </trkpt>
      <trkpt lat="45.65024" lon="4.90023">
        <ele>193.60000610352</ele>
        <time>2024-05-21T05:52:54.000Z</time>
      </trkpt>
      <trkpt lat="45.65018" lon="4.90023">
        <ele>193.60000610352</ele>
        <time>2024-05-21T05:52:55.000Z</time>
      </trkpt>
      <trkpt lat="45.65012" lon="4.90023">
        <ele>193.60000610352</ele>
        <time>2024-05-21T05:52:56.000Z</time>
      </trkpt>
      <trkpt lat="45.65006" lon="4.90023">
        <ele>193.80000305176</ele>
        <time>2024-05-21T05:52:57.000Z</time>
      </trkpt>
      <trkpt lat="45.65" lon="4.90023">
        <ele>193.80000305176</ele>
        <time>2024-05-21T05:52:58.000Z</time>
      </trkpt>
      <trkpt lat="45.64994" lon="4.90023">
        <ele>193.80000305176</ele>
        <time>2024-05-21T05:52:59.000Z</time>
      </trkpt>
      <trkpt lat="45.64988" lon="4.90023">
        <ele>193.80000305176</ele>
        <time>2024-05-21T05:53:00.000Z</time>
      </trkpt>
      <trkpt lat="45.64982" lon="4.90022">
        <ele>193.80000305176</ele>
        <time>2024-05-21T05:53:01.000Z</time>
      </trkpt>
      <trkpt lat="45.64976" lon="4.90022">
        <ele>193.60000610352</ele>
        <time>2024-05-21T05:53:02.000Z</time>
      </trkpt>
      <trkpt lat="45.6497" lon="4.90021">
        <ele>193.60000610352</ele>
        <time>2024-05-21T05:53:03.000Z</time>
      </trkpt>
      <trkpt lat="45.64964" lon="4.9002">
        <ele>193.60000610352</ele>
        <time>2024-05-21T05:53:04.000Z</time>
      </trkpt>
      <trkpt lat="45.64958" lon="4.90019">
        <ele>193.60000610352</ele>
        <time>2024-05-21T05:53:05.000Z</time>
      </trkpt>
      <trkpt lat="45.64952" lon="4.90019">
        <ele>193.60000610352</ele>
        <time>2024-05-21T05:53:06.000Z</time>
      </trkpt>
      <trkpt lat="45.64946" lon="4.90018">
        <ele>193.60000610352</ele>
        <time>2024-05-21T05:53:07.000Z</time>
      </trkpt>
      <trkpt lat="45.6494" lon="4.90017">
        <ele>193.60000610352</ele>
        <time>2024-05-21T05:53:08.000Z</time>
      </trkpt>
      <trkpt lat="45.64935" lon="4.90016">
        <ele>193.39999389648</ele>
        <time>2024-05-21T05:53:09.000Z</time>
      </trkpt>
      <trkpt lat="45.64929" lon="4.90016">
        <ele>193.39999389648</ele>
        <time>2024-05-21T05:53:10.000Z</time>
      </trkpt>
      <trkpt lat="45.64923" lon="4.90015">
        <ele>193.39999389648</ele>
        <time>2024-05-21T05:53:11.000Z</time>
      </trkpt>
      <trkpt lat="45.64917" lon="4.90014">
        <ele>193.39999389648</ele>
        <time>2024-05-21T05:53:12.000Z</time>
      </trkpt>
      <trkpt lat="45.64911" lon="4.90013">
        <ele>193.39999389648</ele>
        <time>2024-05-21T05:53:13.000Z</time>
      </trkpt>
      <trkpt lat="45.64905" lon="4.90013">
        <ele>193.60000610352</ele>
        <time>2024-05-21T05:53:14.000Z</time>
      </trkpt>
      <trkpt lat="45.64899" lon="4.90012">
        <ele>193.60000610352</ele>
        <time>2024-05-21T05:53:15.000Z</time>
      </trkpt>
      <trkpt lat="45.64893" lon="4.90011">
        <ele>193.60000610352</ele>
        <time>2024-05-21T05:53:16.000Z</time>
      </trkpt>
      <trkpt lat="45.64887" lon="4.90011">
        <ele>193.60000610352</ele>
        <time>2024-05-21T05:53:17.000Z</time>
      </trkpt>
      <trkpt lat="45.64882" lon="4.9001">
        <ele>193.60000610352</ele>
        <time>2024-05-21T05:53:18.000Z</time>
      </trkpt>
      <trkpt lat="45.64876" lon="4.9001">
        <ele>193.60000610352</ele>
        <time>2024-05-21T05:53:19.000Z</time>
      </trkpt>
      <trkpt lat="45.6487" lon="4.90009">
        <ele>193.60000610352</ele>
        <time>2024-05-21T05:53:20.000Z</time>
      </trkpt>
      <trkpt lat="45.64864" lon="4.90009">
        <ele>193.60000610352</ele>
        <time>2024-05-21T05:53:21.000Z</time>
      </trkpt>
      <trkpt lat="45.64858" lon="4.90008">
        <ele>193.60000610352</ele>
        <time>2024-05-21T05:53:22.000Z</time>
      </trkpt>
      <trkpt lat="45.64852" lon="4.90007">
        <ele>193.60000610352</ele>
        <time>2024-05-21T05:53:23.000Z</time>
      </trkpt>
      <trkpt lat="45.64846" lon="4.90007">
        <ele>193.60000610352</ele>
        <time>2024-05-21T05:53:24.000Z</time>
      </trkpt>
      <trkpt lat="45.6484" lon="4.90006">
        <ele>193.60000610352</ele>
        <time>2024-05-21T05:53:25.000Z</time>
      </trkpt>
      <trkpt lat="45.64835" lon="4.90005">
        <ele>193.60000610352</ele>
        <time>2024-05-21T05:53:26.000Z</time>
      </trkpt>
      <trkpt lat="45.64829" lon="4.90005">
        <ele>193.60000610352</ele>
        <time>2024-05-21T05:53:27.000Z</time>
      </trkpt>
      <trkpt lat="45.64823" lon="4.90004">
        <ele>193.60000610352</ele>
        <time>2024-05-21T05:53:28.000Z</time>
      </trkpt>
      <trkpt lat="45.64817" lon="4.90003">
        <ele>193.60000610352</ele>
        <time>2024-05-21T05:53:29.000Z</time>
      </trkpt>
      <trkpt lat="45.64811" lon="4.90002">
        <ele>193.39999389648</ele>
        <time>2024-05-21T05:53:30.000Z</time>
      </trkpt>
      <trkpt lat="45.64805" lon="4.90001">
        <ele>193.39999389648</ele>
        <time>2024-05-21T05:53:31.000Z</time>
      </trkpt>
      <trkpt lat="45.64799" lon="4.90001">
        <ele>193.39999389648</ele>
        <time>2024-05-21T05:53:32.000Z</time>
      </trkpt>
      <trkpt lat="45.64793" lon="4.9">
        <ele>193.39999389648</ele>
        <time>2024-05-21T05:53:33.000Z</time>
      </trkpt>
      <trkpt lat="45.64787" lon="4.89999">
        <ele>193.39999389648</ele>
        <time>2024-05-21T05:53:34.000Z</time>
      </trkpt>
      <trkpt lat="45.64782" lon="4.89998">
        <ele>193.39999389648</ele>
        <time>2024-05-21T05:53:35.000Z</time>
      </trkpt>
      <trkpt lat="45.64776" lon="4.89998">
        <ele>193.39999389648</ele>
        <time>2024-05-21T05:53:36.000Z</time>
      </trkpt>
      <trkpt lat="45.6477" lon="4.89997">
        <ele>193.39999389648</ele>
        <time>2024-05-21T05:53:37.000Z</time>
      </trkpt>
      <trkpt lat="45.64764" lon="4.89996">
        <ele>193.39999389648</ele>
        <time>2024-05-21T05:53:38.000Z</time>
      </trkpt>
      <trkpt lat="45.64758" lon="4.89996">
        <ele>193.39999389648</ele>
        <time>2024-05-21T05:53:39.000Z</time>
      </trkpt>
      <trkpt lat="45.64752" lon="4.89995">
        <ele>193.39999389648</ele>
        <time>2024-05-21T05:53:40.000Z</time>
      </trkpt>
      <trkpt lat="45.64746" lon="4.89995">
        <ele>193.39999389648</ele>
        <time>2024-05-21T05:53:41.000Z</time>
      </trkpt>
      <trkpt lat="45.6474" lon="4.89994">
        <ele>193.39999389648</ele>
        <time>2024-05-21T05:53:42.000Z</time>
      </trkpt>
      <trkpt lat="45.64734" lon="4.89994">
        <ele>193.19999694824</ele>
        <time>2024-05-21T05:53:43.000Z</time>
      </trkpt>
      <trkpt lat="45.64728" lon="4.89994">
        <ele>193.19999694824</ele>
        <time>2024-05-21T05:53:44.000Z</time>
      </trkpt>
      <trkpt lat="45.64723" lon="4.89993">
        <ele>193.19999694824</ele>
        <time>2024-05-21T05:53:45.000Z</time>
      </trkpt>
      <trkpt lat="45.64717" lon="4.89992">
        <ele>193.19999694824</ele>
        <time>2024-05-21T05:53:46.000Z</time>
      </trkpt>
      <trkpt lat="45.64711" lon="4.89991">
        <ele>193.19999694824</ele>
        <time>2024-05-21T05:53:47.000Z</time>
      </trkpt>
      <trkpt lat="45.64705" lon="4.89991">
        <ele>193.19999694824</ele>
        <time>2024-05-21T05:53:48.000Z</time>
      </trkpt>
      <trkpt lat="45.64699" lon="4.8999">
        <ele>193.19999694824</ele>
        <time>2024-05-21T05:53:49.000Z</time>
      </trkpt>
      <trkpt lat="45.64693" lon="4.89989">
        <ele>193.19999694824</ele>
        <time>2024-05-21T05:53:50.000Z</time>
      </trkpt>
      <trkpt lat="45.64687" lon="4.89989">
        <ele>193</ele>
        <time>2024-05-21T05:53:51.000Z</time>
      </trkpt>
      <trkpt lat="45.6468" lon="4.89988">
        <ele>193</ele>
        <time>2024-05-21T05:53:52.000Z</time>
      </trkpt>
      <trkpt lat="45.64674" lon="4.89987">
        <ele>193</ele>
        <time>2024-05-21T05:53:53.000Z</time>
      </trkpt>
      <trkpt lat="45.64669" lon="4.89987">
        <ele>192.80000305176</ele>
        <time>2024-05-21T05:53:54.000Z</time>
      </trkpt>
      <trkpt lat="45.64663" lon="4.89986">
        <ele>192.80000305176</ele>
        <time>2024-05-21T05:53:55.000Z</time>
      </trkpt>
      <trkpt lat="45.64657" lon="4.89986">
        <ele>192.80000305176</ele>
        <time>2024-05-21T05:53:56.000Z</time>
      </trkpt>
      <trkpt lat="45.64651" lon="4.89985">
        <ele>192.80000305176</ele>
        <time>2024-05-21T05:53:57.000Z</time>
      </trkpt>
      <trkpt lat="45.64645" lon="4.89984">
        <ele>192.80000305176</ele>
        <time>2024-05-21T05:53:58.000Z</time>
      </trkpt>
      <trkpt lat="45.64639" lon="4.89983">
        <ele>192.80000305176</ele>
        <time>2024-05-21T05:53:59.000Z</time>
      </trkpt>
      <trkpt lat="45.64633" lon="4.89983">
        <ele>192.80000305176</ele>
        <time>2024-05-21T05:54:00.000Z</time>
      </trkpt>
      <trkpt lat="45.64627" lon="4.89982">
        <ele>192.80000305176</ele>
        <time>2024-05-21T05:54:01.000Z</time>
      </trkpt>
      <trkpt lat="45.64621" lon="4.89981">
        <ele>192.80000305176</ele>
        <time>2024-05-21T05:54:02.000Z</time>
      </trkpt>
      <trkpt lat="45.64615" lon="4.89981">
        <ele>192.80000305176</ele>
        <time>2024-05-21T05:54:03.000Z</time>
      </trkpt>
      <trkpt lat="45.64609" lon="4.8998">
        <ele>192.80000305176</ele>
        <time>2024-05-21T05:54:04.000Z</time>
      </trkpt>
      <trkpt lat="45.64603" lon="4.89979">
        <ele>192.80000305176</ele>
        <time>2024-05-21T05:54:05.000Z</time>
      </trkpt>
      <trkpt lat="45.64598" lon="4.89978">
        <ele>192.60000610352</ele>
        <time>2024-05-21T05:54:06.000Z</time>
      </trkpt>
      <trkpt lat="45.64592" lon="4.89978">
        <ele>192.60000610352</ele>
        <time>2024-05-21T05:54:07.000Z</time>
      </trkpt>
      <trkpt lat="45.64586" lon="4.89977">
        <ele>192.60000610352</ele>
        <time>2024-05-21T05:54:08.000Z</time>
      </trkpt>
      <trkpt lat="45.6458" lon="4.89977">
        <ele>192.60000610352</ele>
        <time>2024-05-21T05:54:09.000Z</time>
      </trkpt>
      <trkpt lat="45.64574" lon="4.89976">
        <ele>192.60000610352</ele>
        <time>2024-05-21T05:54:10.000Z</time>
      </trkpt>
      <trkpt lat="45.64568" lon="4.89976">
        <ele>192.60000610352</ele>
        <time>2024-05-21T05:54:11.000Z</time>
      </trkpt>
      <trkpt lat="45.64562" lon="4.89975">
        <ele>192.39999389648</ele>
        <time>2024-05-21T05:54:12.000Z</time>
      </trkpt>
      <trkpt lat="45.64556" lon="4.89975">
        <ele>192.39999389648</ele>
        <time>2024-05-21T05:54:13.000Z</time>
      </trkpt>
      <trkpt lat="45.6455" lon="4.89974">
        <ele>192.39999389648</ele>
        <time>2024-05-21T05:54:14.000Z</time>
      </trkpt>
      <trkpt lat="45.64544" lon="4.89974">
        <ele>192.39999389648</ele>
        <time>2024-05-21T05:54:15.000Z</time>
      </trkpt>
      <trkpt lat="45.64539" lon="4.89974">
        <ele>192.39999389648</ele>
        <time>2024-05-21T05:54:16.000Z</time>
      </trkpt>
      <trkpt lat="45.64533" lon="4.89973">
        <ele>192.39999389648</ele>
        <time>2024-05-21T05:54:17.000Z</time>
      </trkpt>
      <trkpt lat="45.64527" lon="4.89972">
        <ele>192.39999389648</ele>
        <time>2024-05-21T05:54:18.000Z</time>
      </trkpt>
      <trkpt lat="45.64521" lon="4.89972">
        <ele>192.39999389648</ele>
        <time>2024-05-21T05:54:19.000Z</time>
      </trkpt>
      <trkpt lat="45.64516" lon="4.89972">
        <ele>192.39999389648</ele>
        <time>2024-05-21T05:54:20.000Z</time>
      </trkpt>
      <trkpt lat="45.6451" lon="4.89972">
        <ele>192.39999389648</ele>
        <time>2024-05-21T05:54:21.000Z</time>
      </trkpt>
      <trkpt lat="45.64504" lon="4.89971">
        <ele>192.39999389648</ele>
        <time>2024-05-21T05:54:22.000Z</time>
      </trkpt>
      <trkpt lat="45.64498" lon="4.89971">
        <ele>192.39999389648</ele>
        <time>2024-05-21T05:54:23.000Z</time>
      </trkpt>
      <trkpt lat="45.64492" lon="4.8997">
        <ele>192.39999389648</ele>
        <time>2024-05-21T05:54:24.000Z</time>
      </trkpt>
      <trkpt lat="45.64486" lon="4.8997">
        <ele>192.19999694824</ele>
        <time>2024-05-21T05:54:25.000Z</time>
      </trkpt>
      <trkpt lat="45.6448" lon="4.89969">
        <ele>192.19999694824</ele>
        <time>2024-05-21T05:54:26.000Z</time>
      </trkpt>
      <trkpt lat="45.64474" lon="4.89969">
        <ele>192.19999694824</ele>
        <time>2024-05-21T05:54:27.000Z</time>
      </trkpt>
      <trkpt lat="45.64468" lon="4.89968">
        <ele>192.19999694824</ele>
        <time>2024-05-21T05:54:28.000Z</time>
      </trkpt>
      <trkpt lat="45.64463" lon="4.89968">
        <ele>192.19999694824</ele>
        <time>2024-05-21T05:54:29.000Z</time>
      </trkpt>
      <trkpt lat="45.64457" lon="4.89967">
        <ele>192.19999694824</ele>
        <time>2024-05-21T05:54:30.000Z</time>
      </trkpt>
      <trkpt lat="45.64451" lon="4.89967">
        <ele>192.19999694824</ele>
        <time>2024-05-21T05:54:31.000Z</time>
      </trkpt>
      <trkpt lat="45.64445" lon="4.89967">
        <ele>192.19999694824</ele>
        <time>2024-05-21T05:54:32.000Z</time>
      </trkpt>
      <trkpt lat="45.64439" lon="4.89967">
        <ele>192.19999694824</ele>
        <time>2024-05-21T05:54:33.000Z</time>
      </trkpt>
      <trkpt lat="45.64433" lon="4.89966">
        <ele>192.19999694824</ele>
        <time>2024-05-21T05:54:34.000Z</time>
      </trkpt>
      <trkpt lat="45.64427" lon="4.89967">
        <ele>192.19999694824</ele>
        <time>2024-05-21T05:54:35.000Z</time>
      </trkpt>
      <trkpt lat="45.6442" lon="4.89968">
        <ele>192</ele>
        <time>2024-05-21T05:54:36.000Z</time>
      </trkpt>
      <trkpt lat="45.64416" lon="4.8997">
        <ele>191.80000305176</ele>
        <time>2024-05-21T05:54:37.000Z</time>
      </trkpt>
      <trkpt lat="45.64411" lon="4.89974">
        <ele>191.60000610352</ele>
        <time>2024-05-21T05:54:38.000Z</time>
      </trkpt>
      <trkpt lat="45.64407" lon="4.89978">
        <ele>191.60000610352</ele>
        <time>2024-05-21T05:54:39.000Z</time>
      </trkpt>
      <trkpt lat="45.64403" lon="4.89982">
        <ele>191.60000610352</ele>
        <time>2024-05-21T05:54:40.000Z</time>
      </trkpt>
      <trkpt lat="45.644" lon="4.89986">
        <ele>191.60000610352</ele>
        <time>2024-05-21T05:54:41.000Z</time>
      </trkpt>
      <trkpt lat="45.64397" lon="4.8999">
        <ele>191.60000610352</ele>
        <time>2024-05-21T05:54:42.000Z</time>
      </trkpt>
      <trkpt lat="45.64393" lon="4.89994">
        <ele>191.60000610352</ele>
        <time>2024-05-21T05:54:43.000Z</time>
      </trkpt>
      <trkpt lat="45.6439" lon="4.89997">
        <ele>191.60000610352</ele>
        <time>2024-05-21T05:54:44.000Z</time>
      </trkpt>
      <trkpt lat="45.64387" lon="4.89998">
        <ele>191.80000305176</ele>
        <time>2024-05-21T05:54:45.000Z</time>
      </trkpt>
      <trkpt lat="45.64385" lon="4.89999">
        <ele>192</ele>
        <time>2024-05-21T05:54:46.000Z</time>
      </trkpt>
      <trkpt lat="45.64384" lon="4.89999">
        <ele>192.19999694824</ele>
        <time>2024-05-21T05:54:47.000Z</time>
      </trkpt>
      <trkpt lat="45.64382" lon="4.9">
        <ele>192.39999389648</ele>
        <time>2024-05-21T05:54:48.000Z</time>
      </trkpt>
      <trkpt lat="45.64381" lon="4.9">
        <ele>192.39999389648</ele>
        <time>2024-05-21T05:54:49.000Z</time>
      </trkpt>
      <trkpt lat="45.6438" lon="4.9">
        <ele>192.60000610352</ele>
        <time>2024-05-21T05:54:50.000Z</time>
      </trkpt>
      <trkpt lat="45.6438" lon="4.9">
        <ele>192.60000610352</ele>
        <time>2024-05-21T05:54:51.000Z</time>
      </trkpt>
      <trkpt lat="45.64377" lon="4.90001">
        <ele>192.80000305176</ele>
        <time>2024-05-21T05:54:54.000Z</time>
      </trkpt>
      <trkpt lat="45.64376" lon="4.90002">
        <ele>192.80000305176</ele>
        <time>2024-05-21T05:54:55.000Z</time>
      </trkpt>
      <trkpt lat="45.64374" lon="4.90002">
        <ele>192.80000305176</ele>
        <time>2024-05-21T05:54:56.000Z</time>
      </trkpt>
      <trkpt lat="45.64371" lon="4.90004">
        <ele>192.80000305176</ele>
        <time>2024-05-21T05:54:57.000Z</time>
      </trkpt>
      <trkpt lat="45.64369" lon="4.90005">
        <ele>192.80000305176</ele>
        <time>2024-05-21T05:54:58.000Z</time>
      </trkpt>
      <trkpt lat="45.64366" lon="4.90008">
        <ele>192.80000305176</ele>
        <time>2024-05-21T05:54:59.000Z</time>
      </trkpt>
      <trkpt lat="45.64363" lon="4.90012">
        <ele>192.60000610352</ele>
        <time>2024-05-21T05:55:00.000Z</time>
      </trkpt>
      <trkpt lat="45.64361" lon="4.90015">
        <ele>192.60000610352</ele>
        <time>2024-05-21T05:55:01.000Z</time>
      </trkpt>
      <trkpt lat="45.64357" lon="4.90018">
        <ele>192.39999389648</ele>
        <time>2024-05-21T05:55:02.000Z</time>
      </trkpt>
      <trkpt lat="45.64354" lon="4.90021">
        <ele>192.39999389648</ele>
        <time>2024-05-21T05:55:03.000Z</time>
      </trkpt>
      <trkpt lat="45.6435" lon="4.90022">
        <ele>192.39999389648</ele>
        <time>2024-05-21T05:55:04.000Z</time>
      </trkpt>
      <trkpt lat="45.64345" lon="4.90023">
        <ele>192.39999389648</ele>
        <time>2024-05-21T05:55:05.000Z</time>
      </trkpt>
      <trkpt lat="45.6434" lon="4.90023">
        <ele>192.39999389648</ele>
        <time>2024-05-21T05:55:06.000Z</time>
      </trkpt>
      <trkpt lat="45.64337" lon="4.90021">
        <ele>192.39999389648</ele>
        <time>2024-05-21T05:55:07.000Z</time>
      </trkpt>
      <trkpt lat="45.64333" lon="4.90019">
        <ele>192.39999389648</ele>
        <time>2024-05-21T05:55:08.000Z</time>
      </trkpt>
      <trkpt lat="45.64329" lon="4.90017">
        <ele>192.60000610352</ele>
        <time>2024-05-21T05:55:09.000Z</time>
      </trkpt>
      <trkpt lat="45.64325" lon="4.90013">
        <ele>192.80000305176</ele>
        <time>2024-05-21T05:55:10.000Z</time>
      </trkpt>
      <trkpt lat="45.64322" lon="4.90009">
        <ele>192.80000305176</ele>
        <time>2024-05-21T05:55:11.000Z</time>
      </trkpt>
      <trkpt lat="45.64319" lon="4.90005">
        <ele>193.19999694824</ele>
        <time>2024-05-21T05:55:12.000Z</time>
      </trkpt>
      <trkpt lat="45.64316" lon="4.90001">
        <ele>193.39999389648</ele>
        <time>2024-05-21T05:55:13.000Z</time>
      </trkpt>
      <trkpt lat="45.64314" lon="4.89996">
        <ele>193.39999389648</ele>
        <time>2024-05-21T05:55:14.000Z</time>
      </trkpt>
      <trkpt lat="45.64311" lon="4.8999">
        <ele>193.60000610352</ele>
        <time>2024-05-21T05:55:15.000Z</time>
      </trkpt>
      <trkpt lat="45.64309" lon="4.89987">
        <ele>193.80000305176</ele>
        <time>2024-05-21T05:55:16.000Z</time>
      </trkpt>
      <trkpt lat="45.64307" lon="4.89982">
        <ele>194</ele>
        <time>2024-05-21T05:55:17.000Z</time>
      </trkpt>
      <trkpt lat="45.64304" lon="4.89976">
        <ele>194.19999694824</ele>
        <time>2024-05-21T05:55:18.000Z</time>
      </trkpt>
      <trkpt lat="45.64302" lon="4.89972">
        <ele>194.39999389648</ele>
        <time>2024-05-21T05:55:19.000Z</time>
      </trkpt>
      <trkpt lat="45.643" lon="4.89967">
        <ele>194.60000610352</ele>
        <time>2024-05-21T05:55:20.000Z</time>
      </trkpt>
      <trkpt lat="45.64297" lon="4.89961">
        <ele>194.80000305176</ele>
        <time>2024-05-21T05:55:21.000Z</time>
      </trkpt>
      <trkpt lat="45.64295" lon="4.89957">
        <ele>195</ele>
        <time>2024-05-21T05:55:22.000Z</time>
      </trkpt>
      <trkpt lat="45.64293" lon="4.89953">
        <ele>195</ele>
        <time>2024-05-21T05:55:23.000Z</time>
      </trkpt>
      <trkpt lat="45.6429" lon="4.89949">
        <ele>195.19999694824</ele>
        <time>2024-05-21T05:55:24.000Z</time>
      </trkpt>
      <trkpt lat="45.64288" lon="4.89945">
        <ele>195.60000610352</ele>
        <time>2024-05-21T05:55:25.000Z</time>
      </trkpt>
      <trkpt lat="45.64285" lon="4.89941">
        <ele>195.60000610352</ele>
        <time>2024-05-21T05:55:26.000Z</time>
      </trkpt>
      <trkpt lat="45.64281" lon="4.89938">
        <ele>195.80000305176</ele>
        <time>2024-05-21T05:55:27.000Z</time>
      </trkpt>
      <trkpt lat="45.64278" lon="4.89935">
        <ele>196</ele>
        <time>2024-05-21T05:55:28.000Z</time>
      </trkpt>
      <trkpt lat="45.64274" lon="4.89933">
        <ele>196.19999694824</ele>
        <time>2024-05-21T05:55:29.000Z</time>
      </trkpt>
      <trkpt lat="45.64271" lon="4.8993">
        <ele>196.39999389648</ele>
        <time>2024-05-21T05:55:30.000Z</time>
      </trkpt>
      <trkpt lat="45.64267" lon="4.89928">
        <ele>196.39999389648</ele>
        <time>2024-05-21T05:55:31.000Z</time>
      </trkpt>
      <trkpt lat="45.64263" lon="4.89927">
        <ele>196.39999389648</ele>
        <time>2024-05-21T05:55:32.000Z</time>
      </trkpt>
      <trkpt lat="45.64259" lon="4.89926">
        <ele>196.60000610352</ele>
        <time>2024-05-21T05:55:33.000Z</time>
      </trkpt>
      <trkpt lat="45.64255" lon="4.89925">
        <ele>196.60000610352</ele>
        <time>2024-05-21T05:55:34.000Z</time>
      </trkpt>
      <trkpt lat="45.64251" lon="4.89925">
        <ele>196.80000305176</ele>
        <time>2024-05-21T05:55:35.000Z</time>
      </trkpt>
      <trkpt lat="45.64247" lon="4.89925">
        <ele>196.80000305176</ele>
        <time>2024-05-21T05:55:36.000Z</time>
      </trkpt>
      <trkpt lat="45.64243" lon="4.89925">
        <ele>196.80000305176</ele>
        <time>2024-05-21T05:55:37.000Z</time>
      </trkpt>
      <trkpt lat="45.64239" lon="4.89925">
        <ele>197</ele>
        <time>2024-05-21T05:55:38.000Z</time>
      </trkpt>
      <trkpt lat="45.64234" lon="4.89926">
        <ele>197.19999694824</ele>
        <time>2024-05-21T05:55:39.000Z</time>
      </trkpt>
      <trkpt lat="45.64231" lon="4.89926">
        <ele>197.39999389648</ele>
        <time>2024-05-21T05:55:40.000Z</time>
      </trkpt>
      <trkpt lat="45.64227" lon="4.89927">
        <ele>197.60000610352</ele>
        <time>2024-05-21T05:55:41.000Z</time>
      </trkpt>
      <trkpt lat="45.64222" lon="4.89928">
        <ele>197.60000610352</ele>
        <time>2024-05-21T05:55:42.000Z</time>
      </trkpt>
      <trkpt lat="45.64218" lon="4.89928">
        <ele>197.60000610352</ele>
        <time>2024-05-21T05:55:43.000Z</time>
      </trkpt>
      <trkpt lat="45.64214" lon="4.89929">
        <ele>197.60000610352</ele>
        <time>2024-05-21T05:55:44.000Z</time>
      </trkpt>
      <trkpt lat="45.64209" lon="4.8993">
        <ele>197.80000305176</ele>
        <time>2024-05-21T05:55:45.000Z</time>
      </trkpt>
      <trkpt lat="45.64205" lon="4.89931">
        <ele>197.80000305176</ele>
        <time>2024-05-21T05:55:46.000Z</time>
      </trkpt>
      <trkpt lat="45.64201" lon="4.89932">
        <ele>197.80000305176</ele>
        <time>2024-05-21T05:55:47.000Z</time>
      </trkpt>
      <trkpt lat="45.64197" lon="4.89932">
        <ele>197.80000305176</ele>
        <time>2024-05-21T05:55:48.000Z</time>
      </trkpt>
      <trkpt lat="45.64192" lon="4.89932">
        <ele>197.80000305176</ele>
        <time>2024-05-21T05:55:49.000Z</time>
      </trkpt>
      <trkpt lat="45.64188" lon="4.89933">
        <ele>197.80000305176</ele>
        <time>2024-05-21T05:55:50.000Z</time>
      </trkpt>
      <trkpt lat="45.64182" lon="4.89934">
        <ele>197.80000305176</ele>
        <time>2024-05-21T05:55:51.000Z</time>
      </trkpt>
      <trkpt lat="45.64178" lon="4.89935">
        <ele>197.80000305176</ele>
        <time>2024-05-21T05:55:52.000Z</time>
      </trkpt>
      <trkpt lat="45.64173" lon="4.89935">
        <ele>197.80000305176</ele>
        <time>2024-05-21T05:55:53.000Z</time>
      </trkpt>
      <trkpt lat="45.64168" lon="4.89936">
        <ele>197.80000305176</ele>
        <time>2024-05-21T05:55:54.000Z</time>
      </trkpt>
      <trkpt lat="45.64162" lon="4.89937">
        <ele>197.80000305176</ele>
        <time>2024-05-21T05:55:55.000Z</time>
      </trkpt>
      <trkpt lat="45.64158" lon="4.89938">
        <ele>197.60000610352</ele>
        <time>2024-05-21T05:55:56.000Z</time>
      </trkpt>
      <trkpt lat="45.64152" lon="4.89938">
        <ele>197.60000610352</ele>
        <time>2024-05-21T05:55:57.000Z</time>
      </trkpt>
      <trkpt lat="45.64147" lon="4.89939">
        <ele>197.60000610352</ele>
        <time>2024-05-21T05:55:58.000Z</time>
      </trkpt>
      <trkpt lat="45.64142" lon="4.8994">
        <ele>197.60000610352</ele>
        <time>2024-05-21T05:55:59.000Z</time>
      </trkpt>
      <trkpt lat="45.64135" lon="4.89941">
        <ele>197.39999389648</ele>
        <time>2024-05-21T05:56:00.000Z</time>
      </trkpt>
      <trkpt lat="45.64131" lon="4.89942">
        <ele>197.19999694824</ele>
        <time>2024-05-21T05:56:01.000Z</time>
      </trkpt>
      <trkpt lat="45.64125" lon="4.89942">
        <ele>197</ele>
        <time>2024-05-21T05:56:02.000Z</time>
      </trkpt>
      <trkpt lat="45.64117" lon="4.89943">
        <ele>196.80000305176</ele>
        <time>2024-05-21T05:56:03.000Z</time>
      </trkpt>
      <trkpt lat="45.64113" lon="4.89943">
        <ele>196.60000610352</ele>
        <time>2024-05-21T05:56:04.000Z</time>
      </trkpt>
      <trkpt lat="45.64106" lon="4.89944">
        <ele>196.60000610352</ele>
        <time>2024-05-21T05:56:05.000Z</time>
      </trkpt>
      <trkpt lat="45.64098" lon="4.89945">
        <ele>196.39999389648</ele>
        <time>2024-05-21T05:56:06.000Z</time>
      </trkpt>
      <trkpt lat="45.64093" lon="4.89945">
        <ele>196</ele>
        <time>2024-05-21T05:56:07.000Z</time>
      </trkpt>
      <trkpt lat="45.64086" lon="4.89945">
        <ele>195.60000610352</ele>
        <time>2024-05-21T05:56:08.000Z</time>
      </trkpt>
      <trkpt lat="45.64077" lon="4.89945">
        <ele>195.19999694824</ele>
        <time>2024-05-21T05:56:09.000Z</time>
      </trkpt>
      <trkpt lat="45.64071" lon="4.89945">
        <ele>195</ele>
        <time>2024-05-21T05:56:10.000Z</time>
      </trkpt>
      <trkpt lat="45.64063" lon="4.89943">
        <ele>194.60000610352</ele>
        <time>2024-05-21T05:56:11.000Z</time>
      </trkpt>
      <trkpt lat="45.64055" lon="4.89942">
        <ele>194.19999694824</ele>
        <time>2024-05-21T05:56:12.000Z</time>
      </trkpt>
      <trkpt lat="45.64049" lon="4.8994">
        <ele>193.80000305176</ele>
        <time>2024-05-21T05:56:13.000Z</time>
      </trkpt>
      <trkpt lat="45.64041" lon="4.89939">
        <ele>193</ele>
        <time>2024-05-21T05:56:14.000Z</time>
      </trkpt>
      <trkpt lat="45.64032" lon="4.89936">
        <ele>192.80000305176</ele>
        <time>2024-05-21T05:56:15.000Z</time>
      </trkpt>
      <trkpt lat="45.64025" lon="4.89933">
        <ele>192.39999389648</ele>
        <time>2024-05-21T05:56:16.000Z</time>
      </trkpt>
      <trkpt lat="45.64018" lon="4.8993">
        <ele>191.80000305176</ele>
        <time>2024-05-21T05:56:17.000Z</time>
      </trkpt>
      <trkpt lat="45.64008" lon="4.89926">
        <ele>191.60000610352</ele>
        <time>2024-05-21T05:56:18.000Z</time>
      </trkpt>
      <trkpt lat="45.64002" lon="4.89923">
        <ele>191.19999694824</ele>
        <time>2024-05-21T05:56:19.000Z</time>
      </trkpt>
      <trkpt lat="45.63994" lon="4.89919">
        <ele>190.80000305176</ele>
        <time>2024-05-21T05:56:20.000Z</time>
      </trkpt>
      <trkpt lat="45.63984" lon="4.89914">
        <ele>190.39999389648</ele>
        <time>2024-05-21T05:56:21.000Z</time>
      </trkpt>
      <trkpt lat="45.63978" lon="4.89911">
        <ele>189.80000305176</ele>
        <time>2024-05-21T05:56:22.000Z</time>
      </trkpt>
      <trkpt lat="45.6397" lon="4.89908">
        <ele>189.39999389648</ele>
        <time>2024-05-21T05:56:23.000Z</time>
      </trkpt>
      <trkpt lat="45.63961" lon="4.89904">
        <ele>189.39999389648</ele>
        <time>2024-05-21T05:56:24.000Z</time>
      </trkpt>
      <trkpt lat="45.63954" lon="4.89903">
        <ele>189.19999694824</ele>
        <time>2024-05-21T05:56:25.000Z</time>
      </trkpt>
      <trkpt lat="45.63947" lon="4.89901">
        <ele>188.80000305176</ele>
        <time>2024-05-21T05:56:26.000Z</time>
      </trkpt>
      <trkpt lat="45.63938" lon="4.89899">
        <ele>188.60000610352</ele>
        <time>2024-05-21T05:56:27.000Z</time>
      </trkpt>
      <trkpt lat="45.63932" lon="4.89898">
        <ele>188.60000610352</ele>
        <time>2024-05-21T05:56:28.000Z</time>
      </trkpt>
      <trkpt lat="45.63925" lon="4.89896">
        <ele>188.60000610352</ele>
        <time>2024-05-21T05:56:29.000Z</time>
      </trkpt>
      <trkpt lat="45.63918" lon="4.89895">
        <ele>188.60000610352</ele>
        <time>2024-05-21T05:56:30.000Z</time>
      </trkpt>
      <trkpt lat="45.63911" lon="4.89893">
        <ele>188.60000610352</ele>
        <time>2024-05-21T05:56:31.000Z</time>
      </trkpt>
      <trkpt lat="45.63905" lon="4.89891">
        <ele>188.39999389648</ele>
        <time>2024-05-21T05:56:32.000Z</time>
      </trkpt>
      <trkpt lat="45.63899" lon="4.8989">
        <ele>188.39999389648</ele>
        <time>2024-05-21T05:56:33.000Z</time>
      </trkpt>
      <trkpt lat="45.63891" lon="4.89888">
        <ele>188.39999389648</ele>
        <time>2024-05-21T05:56:34.000Z</time>
      </trkpt>
      <trkpt lat="45.63886" lon="4.89886">
        <ele>188.39999389648</ele>
        <time>2024-05-21T05:56:35.000Z</time>
      </trkpt>
      <trkpt lat="45.6388" lon="4.89884">
        <ele>188.39999389648</ele>
        <time>2024-05-21T05:56:36.000Z</time>
      </trkpt>
      <trkpt lat="45.63872" lon="4.89882">
        <ele>188.60000610352</ele>
        <time>2024-05-21T05:56:37.000Z</time>
      </trkpt>
      <trkpt lat="45.63867" lon="4.89881">
        <ele>188.60000610352</ele>
        <time>2024-05-21T05:56:38.000Z</time>
      </trkpt>
      <trkpt lat="45.63861" lon="4.89879">
        <ele>188.60000610352</ele>
        <time>2024-05-21T05:56:39.000Z</time>
      </trkpt>
      <trkpt lat="45.63854" lon="4.89878">
        <ele>188.80000305176</ele>
        <time>2024-05-21T05:56:40.000Z</time>
      </trkpt>
      <trkpt lat="45.63848" lon="4.89876">
        <ele>188.80000305176</ele>
        <time>2024-05-21T05:56:41.000Z</time>
      </trkpt>
      <trkpt lat="45.63842" lon="4.89874">
        <ele>188.80000305176</ele>
        <time>2024-05-21T05:56:42.000Z</time>
      </trkpt>
      <trkpt lat="45.63835" lon="4.89873">
        <ele>188.60000610352</ele>
        <time>2024-05-21T05:56:43.000Z</time>
      </trkpt>
      <trkpt lat="45.63829" lon="4.89871">
        <ele>188.60000610352</ele>
        <time>2024-05-21T05:56:44.000Z</time>
      </trkpt>
      <trkpt lat="45.63822" lon="4.8987">
        <ele>188.60000610352</ele>
        <time>2024-05-21T05:56:45.000Z</time>
      </trkpt>
      <trkpt lat="45.63816" lon="4.89868">
        <ele>188.60000610352</ele>
        <time>2024-05-21T05:56:46.000Z</time>
      </trkpt>
      <trkpt lat="45.6381" lon="4.89866">
        <ele>188.60000610352</ele>
        <time>2024-05-21T05:56:47.000Z</time>
      </trkpt>
      <trkpt lat="45.63804" lon="4.89864">
        <ele>188.39999389648</ele>
        <time>2024-05-21T05:56:48.000Z</time>
      </trkpt>
      <trkpt lat="45.63798" lon="4.89863">
        <ele>188.39999389648</ele>
        <time>2024-05-21T05:56:49.000Z</time>
      </trkpt>
      <trkpt lat="45.63792" lon="4.89861">
        <ele>188.39999389648</ele>
        <time>2024-05-21T05:56:50.000Z</time>
      </trkpt>
      <trkpt lat="45.63785" lon="4.8986">
        <ele>188.39999389648</ele>
        <time>2024-05-21T05:56:51.000Z</time>
      </trkpt>
      <trkpt lat="45.6378" lon="4.89858">
        <ele>188.39999389648</ele>
        <time>2024-05-21T05:56:52.000Z</time>
      </trkpt>
      <trkpt lat="45.63774" lon="4.89857">
        <ele>188.39999389648</ele>
        <time>2024-05-21T05:56:53.000Z</time>
      </trkpt>
      <trkpt lat="45.63768" lon="4.89855">
        <ele>188.39999389648</ele>
        <time>2024-05-21T05:56:54.000Z</time>
      </trkpt>
      <trkpt lat="45.63762" lon="4.89854">
        <ele>188.39999389648</ele>
        <time>2024-05-21T05:56:55.000Z</time>
      </trkpt>
      <trkpt lat="45.63756" lon="4.89852">
        <ele>188.39999389648</ele>
        <time>2024-05-21T05:56:56.000Z</time>
      </trkpt>
      <trkpt lat="45.6375" lon="4.89851">
        <ele>188.39999389648</ele>
        <time>2024-05-21T05:56:57.000Z</time>
      </trkpt>
      <trkpt lat="45.63744" lon="4.89849">
        <ele>188.39999389648</ele>
        <time>2024-05-21T05:56:58.000Z</time>
      </trkpt>
      <trkpt lat="45.63738" lon="4.89848">
        <ele>188.39999389648</ele>
        <time>2024-05-21T05:56:59.000Z</time>
      </trkpt>
      <trkpt lat="45.63732" lon="4.89846">
        <ele>188.39999389648</ele>
        <time>2024-05-21T05:57:00.000Z</time>
      </trkpt>
      <trkpt lat="45.63725" lon="4.89844">
        <ele>188.39999389648</ele>
        <time>2024-05-21T05:57:01.000Z</time>
      </trkpt>
      <trkpt lat="45.6372" lon="4.89843">
        <ele>188.39999389648</ele>
        <time>2024-05-21T05:57:02.000Z</time>
      </trkpt>
      <trkpt lat="45.63714" lon="4.89842">
        <ele>188.39999389648</ele>
        <time>2024-05-21T05:57:03.000Z</time>
      </trkpt>
      <trkpt lat="45.63707" lon="4.8984">
        <ele>188.39999389648</ele>
        <time>2024-05-21T05:57:04.000Z</time>
      </trkpt>
      <trkpt lat="45.63702" lon="4.89838">
        <ele>188.39999389648</ele>
        <time>2024-05-21T05:57:05.000Z</time>
      </trkpt>
      <trkpt lat="45.63697" lon="4.89837">
        <ele>188.39999389648</ele>
        <time>2024-05-21T05:57:06.000Z</time>
      </trkpt>
      <trkpt lat="45.63691" lon="4.89835">
        <ele>188.39999389648</ele>
        <time>2024-05-21T05:57:07.000Z</time>
      </trkpt>
      <trkpt lat="45.63685" lon="4.89833">
        <ele>188.39999389648</ele>
        <time>2024-05-21T05:57:08.000Z</time>
      </trkpt>
      <trkpt lat="45.63679" lon="4.89832">
        <ele>188.39999389648</ele>
        <time>2024-05-21T05:57:09.000Z</time>
      </trkpt>
      <trkpt lat="45.63673" lon="4.8983">
        <ele>188.60000610352</ele>
        <time>2024-05-21T05:57:10.000Z</time>
      </trkpt>
      <trkpt lat="45.63667" lon="4.89828">
        <ele>188.60000610352</ele>
        <time>2024-05-21T05:57:11.000Z</time>
      </trkpt>
      <trkpt lat="45.63661" lon="4.89827">
        <ele>188.80000305176</ele>
        <time>2024-05-21T05:57:12.000Z</time>
      </trkpt>
      <trkpt lat="45.63656" lon="4.89825">
        <ele>188.80000305176</ele>
        <time>2024-05-21T05:57:13.000Z</time>
      </trkpt>
      <trkpt lat="45.6365" lon="4.89823">
        <ele>188.80000305176</ele>
        <time>2024-05-21T05:57:14.000Z</time>
      </trkpt>
      <trkpt lat="45.63645" lon="4.89821">
        <ele>188.80000305176</ele>
        <time>2024-05-21T05:57:15.000Z</time>
      </trkpt>
      <trkpt lat="45.63638" lon="4.89819">
        <ele>188.80000305176</ele>
        <time>2024-05-21T05:57:16.000Z</time>
      </trkpt>
      <trkpt lat="45.63634" lon="4.89818">
        <ele>189</ele>
        <time>2024-05-21T05:57:17.000Z</time>
      </trkpt>
      <trkpt lat="45.63629" lon="4.89816">
        <ele>189</ele>
        <time>2024-05-21T05:57:18.000Z</time>
      </trkpt>
      <trkpt lat="45.63623" lon="4.89815">
        <ele>189.19999694824</ele>
        <time>2024-05-21T05:57:19.000Z</time>
      </trkpt>
      <trkpt lat="45.63617" lon="4.89813">
        <ele>189.19999694824</ele>
        <time>2024-05-21T05:57:20.000Z</time>
      </trkpt>
      <trkpt lat="45.63612" lon="4.89812">
        <ele>189.19999694824</ele>
        <time>2024-05-21T05:57:21.000Z</time>
      </trkpt>
      <trkpt lat="45.63607" lon="4.8981">
        <ele>189.39999389648</ele>
        <time>2024-05-21T05:57:22.000Z</time>
      </trkpt>
      <trkpt lat="45.63601" lon="4.89809">
        <ele>189.39999389648</ele>
        <time>2024-05-21T05:57:23.000Z</time>
      </trkpt>
      <trkpt lat="45.63595" lon="4.89807">
        <ele>189.39999389648</ele>
        <time>2024-05-21T05:57:24.000Z</time>
      </trkpt>
      <trkpt lat="45.6359" lon="4.89806">
        <ele>189.39999389648</ele>
        <time>2024-05-21T05:57:25.000Z</time>
      </trkpt>
      <trkpt lat="45.63584" lon="4.89804">
        <ele>189.39999389648</ele>
        <time>2024-05-21T05:57:26.000Z</time>
      </trkpt>
      <trkpt lat="45.63579" lon="4.89802">
        <ele>189.60000610352</ele>
        <time>2024-05-21T05:57:27.000Z</time>
      </trkpt>
      <trkpt lat="45.63572" lon="4.89801">
        <ele>189.60000610352</ele>
        <time>2024-05-21T05:57:28.000Z</time>
      </trkpt>
      <trkpt lat="45.63568" lon="4.89799">
        <ele>189.80000305176</ele>
        <time>2024-05-21T05:57:29.000Z</time>
      </trkpt>
      <trkpt lat="45.63564" lon="4.89798">
        <ele>189.80000305176</ele>
        <time>2024-05-21T05:57:30.000Z</time>
      </trkpt>
      <trkpt lat="45.63558" lon="4.89796">
        <ele>190</ele>
        <time>2024-05-21T05:57:31.000Z</time>
      </trkpt>
      <trkpt lat="45.63554" lon="4.89795">
        <ele>190.19999694824</ele>
        <time>2024-05-21T05:57:32.000Z</time>
      </trkpt>
      <trkpt lat="45.63549" lon="4.89794">
        <ele>190.39999389648</ele>
        <time>2024-05-21T05:57:33.000Z</time>
      </trkpt>
      <trkpt lat="45.63545" lon="4.89792">
        <ele>190.39999389648</ele>
        <time>2024-05-21T05:57:34.000Z</time>
      </trkpt>
      <trkpt lat="45.6354" lon="4.8979">
        <ele>190.39999389648</ele>
        <time>2024-05-21T05:57:35.000Z</time>
      </trkpt>
      <trkpt lat="45.63534" lon="4.89788">
        <ele>190.39999389648</ele>
        <time>2024-05-21T05:57:36.000Z</time>
      </trkpt>
      <trkpt lat="45.63529" lon="4.89787">
        <ele>190.39999389648</ele>
        <time>2024-05-21T05:57:37.000Z</time>
      </trkpt>
      <trkpt lat="45.63523" lon="4.89785">
        <ele>190.19999694824</ele>
        <time>2024-05-21T05:57:38.000Z</time>
      </trkpt>
      <trkpt lat="45.63518" lon="4.89783">
        <ele>190</ele>
        <time>2024-05-21T05:57:39.000Z</time>
      </trkpt>
      <trkpt lat="45.63511" lon="4.89781">
        <ele>190</ele>
        <time>2024-05-21T05:57:40.000Z</time>
      </trkpt>
      <trkpt lat="45.63506" lon="4.8978">
        <ele>189.39999389648</ele>
        <time>2024-05-21T05:57:41.000Z</time>
      </trkpt>
      <trkpt lat="45.635" lon="4.89778">
        <ele>189</ele>
        <time>2024-05-21T05:57:42.000Z</time>
      </trkpt>
      <trkpt lat="45.63495" lon="4.89776">
        <ele>189</ele>
        <time>2024-05-21T05:57:43.000Z</time>
      </trkpt>
      <trkpt lat="45.63489" lon="4.89774">
        <ele>188.80000305176</ele>
        <time>2024-05-21T05:57:44.000Z</time>
      </trkpt>
      <trkpt lat="45.63483" lon="4.89772">
        <ele>188.80000305176</ele>
        <time>2024-05-21T05:57:45.000Z</time>
      </trkpt>
      <trkpt lat="45.63478" lon="4.89771">
        <ele>188.80000305176</ele>
        <time>2024-05-21T05:57:46.000Z</time>
      </trkpt>
      <trkpt lat="45.63472" lon="4.89769">
        <ele>188.60000610352</ele>
        <time>2024-05-21T05:57:47.000Z</time>
      </trkpt>
      <trkpt lat="45.63466" lon="4.89768">
        <ele>188.60000610352</ele>
        <time>2024-05-21T05:57:48.000Z</time>
      </trkpt>
      <trkpt lat="45.6346" lon="4.89766">
        <ele>188.60000610352</ele>
        <time>2024-05-21T05:57:49.000Z</time>
      </trkpt>
      <trkpt lat="45.63455" lon="4.89764">
        <ele>188.60000610352</ele>
        <time>2024-05-21T05:57:50.000Z</time>
      </trkpt>
      <trkpt lat="45.63449" lon="4.89762">
        <ele>188.60000610352</ele>
        <time>2024-05-21T05:57:51.000Z</time>
      </trkpt>
      <trkpt lat="45.63442" lon="4.8976">
        <ele>188.60000610352</ele>
        <time>2024-05-21T05:57:52.000Z</time>
      </trkpt>
      <trkpt lat="45.63438" lon="4.89758">
        <ele>188.60000610352</ele>
        <time>2024-05-21T05:57:53.000Z</time>
      </trkpt>
      <trkpt lat="45.63432" lon="4.89757">
        <ele>188.60000610352</ele>
        <time>2024-05-21T05:57:54.000Z</time>
      </trkpt>
      <trkpt lat="45.63427" lon="4.89755">
        <ele>188.60000610352</ele>
        <time>2024-05-21T05:57:55.000Z</time>
      </trkpt>
      <trkpt lat="45.63421" lon="4.89753">
        <ele>188.60000610352</ele>
        <time>2024-05-21T05:57:56.000Z</time>
      </trkpt>
      <trkpt lat="45.63415" lon="4.89752">
        <ele>188.39999389648</ele>
        <time>2024-05-21T05:57:57.000Z</time>
      </trkpt>
      <trkpt lat="45.63409" lon="4.8975">
        <ele>188.39999389648</ele>
        <time>2024-05-21T05:57:58.000Z</time>
      </trkpt>
      <trkpt lat="45.63403" lon="4.89748">
        <ele>188.19999694824</ele>
        <time>2024-05-21T05:57:59.000Z</time>
      </trkpt>
      <trkpt lat="45.63397" lon="4.89747">
        <ele>188</ele>
        <time>2024-05-21T05:58:00.000Z</time>
      </trkpt>
      <trkpt lat="45.6339" lon="4.89745">
        <ele>187.80000305176</ele>
        <time>2024-05-21T05:58:01.000Z</time>
      </trkpt>
      <trkpt lat="45.63385" lon="4.89743">
        <ele>187.80000305176</ele>
        <time>2024-05-21T05:58:02.000Z</time>
      </trkpt>
      <trkpt lat="45.63379" lon="4.89741">
        <ele>187.80000305176</ele>
        <time>2024-05-21T05:58:03.000Z</time>
      </trkpt>
      <trkpt lat="45.63373" lon="4.8974">
        <ele>187.80000305176</ele>
        <time>2024-05-21T05:58:04.000Z</time>
      </trkpt>
      <trkpt lat="45.63367" lon="4.89738">
        <ele>187.80000305176</ele>
        <time>2024-05-21T05:58:05.000Z</time>
      </trkpt>
      <trkpt lat="45.6336" lon="4.89736">
        <ele>187.80000305176</ele>
        <time>2024-05-21T05:58:06.000Z</time>
      </trkpt>
      <trkpt lat="45.63356" lon="4.89735">
        <ele>187.80000305176</ele>
        <time>2024-05-21T05:58:07.000Z</time>
      </trkpt>
      <trkpt lat="45.6335" lon="4.89735">
        <ele>187.80000305176</ele>
        <time>2024-05-21T05:58:08.000Z</time>
      </trkpt>
      <trkpt lat="45.63344" lon="4.89735">
        <ele>187.80000305176</ele>
        <time>2024-05-21T05:58:09.000Z</time>
      </trkpt>
      <trkpt lat="45.63337" lon="4.89737">
        <ele>187.80000305176</ele>
        <time>2024-05-21T05:58:10.000Z</time>
      </trkpt>
      <trkpt lat="45.63333" lon="4.89739">
        <ele>187.80000305176</ele>
        <time>2024-05-21T05:58:11.000Z</time>
      </trkpt>
      <trkpt lat="45.63327" lon="4.89742">
        <ele>187.80000305176</ele>
        <time>2024-05-21T05:58:12.000Z</time>
      </trkpt>
      <trkpt lat="45.63322" lon="4.89746">
        <ele>187.80000305176</ele>
        <time>2024-05-21T05:58:13.000Z</time>
      </trkpt>
      <trkpt lat="45.63317" lon="4.89751">
        <ele>187.80000305176</ele>
        <time>2024-05-21T05:58:14.000Z</time>
      </trkpt>
      <trkpt lat="45.63313" lon="4.89756">
        <ele>187.80000305176</ele>
        <time>2024-05-21T05:58:15.000Z</time>
      </trkpt>
      <trkpt lat="45.63309" lon="4.89761">
        <ele>188</ele>
        <time>2024-05-21T05:58:16.000Z</time>
      </trkpt>
      <trkpt lat="45.63304" lon="4.89766">
        <ele>188</ele>
        <time>2024-05-21T05:58:17.000Z</time>
      </trkpt>
      <trkpt lat="45.633" lon="4.89771">
        <ele>188</ele>
        <time>2024-05-21T05:58:18.000Z</time>
      </trkpt>
      <trkpt lat="45.63295" lon="4.89776">
        <ele>188</ele>
        <time>2024-05-21T05:58:19.000Z</time>
      </trkpt>
      <trkpt lat="45.6329" lon="4.89781">
        <ele>187.80000305176</ele>
        <time>2024-05-21T05:58:20.000Z</time>
      </trkpt>
      <trkpt lat="45.63285" lon="4.89784">
        <ele>187.80000305176</ele>
        <time>2024-05-21T05:58:21.000Z</time>
      </trkpt>
      <trkpt lat="45.63278" lon="4.89788">
        <ele>187.60000610352</ele>
        <time>2024-05-21T05:58:22.000Z</time>
      </trkpt>
      <trkpt lat="45.63274" lon="4.8979">
        <ele>187.39999389648</ele>
        <time>2024-05-21T05:58:23.000Z</time>
      </trkpt>
      <trkpt lat="45.63268" lon="4.89792">
        <ele>187.39999389648</ele>
        <time>2024-05-21T05:58:24.000Z</time>
      </trkpt>
      <trkpt lat="45.63262" lon="4.89794">
        <ele>187.39999389648</ele>
        <time>2024-05-21T05:58:25.000Z</time>
      </trkpt>
      <trkpt lat="45.63257" lon="4.89795">
        <ele>187.39999389648</ele>
        <time>2024-05-21T05:58:26.000Z</time>
      </trkpt>
      <trkpt lat="45.63251" lon="4.89796">
        <ele>187.19999694824</ele>
        <time>2024-05-21T05:58:27.000Z</time>
      </trkpt>
      <trkpt lat="45.63244" lon="4.89798">
        <ele>187.19999694824</ele>
        <time>2024-05-21T05:58:28.000Z</time>
      </trkpt>
      <trkpt lat="45.63239" lon="4.89799">
        <ele>187.19999694824</ele>
        <time>2024-05-21T05:58:29.000Z</time>
      </trkpt>
      <trkpt lat="45.63234" lon="4.898">
        <ele>187.19999694824</ele>
        <time>2024-05-21T05:58:30.000Z</time>
      </trkpt>
      <trkpt lat="45.63228" lon="4.89801">
        <ele>187.19999694824</ele>
        <time>2024-05-21T05:58:31.000Z</time>
      </trkpt>
      <trkpt lat="45.63222" lon="4.89802">
        <ele>187.39999389648</ele>
        <time>2024-05-21T05:58:32.000Z</time>
      </trkpt>
      <trkpt lat="45.63216" lon="4.89803">
        <ele>187.39999389648</ele>
        <time>2024-05-21T05:58:33.000Z</time>
      </trkpt>
      <trkpt lat="45.6321" lon="4.89804">
        <ele>187.60000610352</ele>
        <time>2024-05-21T05:58:34.000Z</time>
      </trkpt>
      <trkpt lat="45.63204" lon="4.89806">
        <ele>187.60000610352</ele>
        <time>2024-05-21T05:58:35.000Z</time>
      </trkpt>
      <trkpt lat="45.63198" lon="4.89807">
        <ele>187.80000305176</ele>
        <time>2024-05-21T05:58:36.000Z</time>
      </trkpt>
      <trkpt lat="45.63192" lon="4.89808">
        <ele>187.80000305176</ele>
        <time>2024-05-21T05:58:37.000Z</time>
      </trkpt>
      <trkpt lat="45.63186" lon="4.8981">
        <ele>187.80000305176</ele>
        <time>2024-05-21T05:58:38.000Z</time>
      </trkpt>
      <trkpt lat="45.6318" lon="4.89811">
        <ele>187.80000305176</ele>
        <time>2024-05-21T05:58:39.000Z</time>
      </trkpt>
      <trkpt lat="45.63174" lon="4.89813">
        <ele>187.80000305176</ele>
        <time>2024-05-21T05:58:40.000Z</time>
      </trkpt>
      <trkpt lat="45.63168" lon="4.89814">
        <ele>187.80000305176</ele>
        <time>2024-05-21T05:58:41.000Z</time>
      </trkpt>
      <trkpt lat="45.63162" lon="4.89816">
        <ele>187.60000610352</ele>
        <time>2024-05-21T05:58:42.000Z</time>
      </trkpt>
      <trkpt lat="45.63156" lon="4.89817">
        <ele>187.60000610352</ele>
        <time>2024-05-21T05:58:43.000Z</time>
      </trkpt>
      <trkpt lat="45.6315" lon="4.89819">
        <ele>187.60000610352</ele>
        <time>2024-05-21T05:58:44.000Z</time>
      </trkpt>
      <trkpt lat="45.63145" lon="4.8982">
        <ele>187.60000610352</ele>
        <time>2024-05-21T05:58:45.000Z</time>
      </trkpt>
      <trkpt lat="45.63138" lon="4.89822">
        <ele>187.60000610352</ele>
        <time>2024-05-21T05:58:46.000Z</time>
      </trkpt>
      <trkpt lat="45.63132" lon="4.89824">
        <ele>187.60000610352</ele>
        <time>2024-05-21T05:58:47.000Z</time>
      </trkpt>
      <trkpt lat="45.63126" lon="4.89826">
        <ele>187.60000610352</ele>
        <time>2024-05-21T05:58:48.000Z</time>
      </trkpt>
      <trkpt lat="45.6312" lon="4.89829">
        <ele>187.60000610352</ele>
        <time>2024-05-21T05:58:49.000Z</time>
      </trkpt>
      <trkpt lat="45.63114" lon="4.89831">
        <ele>187.60000610352</ele>
        <time>2024-05-21T05:58:50.000Z</time>
      </trkpt>
      <trkpt lat="45.63108" lon="4.89834">
        <ele>187.60000610352</ele>
        <time>2024-05-21T05:58:51.000Z</time>
      </trkpt>
      <trkpt lat="45.631" lon="4.89837">
        <ele>187.60000610352</ele>
        <time>2024-05-21T05:58:52.000Z</time>
      </trkpt>
      <trkpt lat="45.63095" lon="4.8984">
        <ele>187.39999389648</ele>
        <time>2024-05-21T05:58:53.000Z</time>
      </trkpt>
      <trkpt lat="45.63089" lon="4.89842">
        <ele>187.39999389648</ele>
        <time>2024-05-21T05:58:54.000Z</time>
      </trkpt>
      <trkpt lat="45.63083" lon="4.89845">
        <ele>187.19999694824</ele>
        <time>2024-05-21T05:58:55.000Z</time>
      </trkpt>
      <trkpt lat="45.63077" lon="4.89848">
        <ele>187.19999694824</ele>
        <time>2024-05-21T05:58:56.000Z</time>
      </trkpt>
      <trkpt lat="45.63072" lon="4.8985">
        <ele>187.19999694824</ele>
        <time>2024-05-21T05:58:57.000Z</time>
      </trkpt>
      <trkpt lat="45.63066" lon="4.89852">
        <ele>187.19999694824</ele>
        <time>2024-05-21T05:58:58.000Z</time>
      </trkpt>
      <trkpt lat="45.6306" lon="4.89854">
        <ele>187.19999694824</ele>
        <time>2024-05-21T05:58:59.000Z</time>
      </trkpt>
      <trkpt lat="45.63054" lon="4.89856">
        <ele>187.19999694824</ele>
        <time>2024-05-21T05:59:00.000Z</time>
      </trkpt>
      <trkpt lat="45.63047" lon="4.89859">
        <ele>187.19999694824</ele>
        <time>2024-05-21T05:59:01.000Z</time>
      </trkpt>
      <trkpt lat="45.63042" lon="4.89861">
        <ele>187.19999694824</ele>
        <time>2024-05-21T05:59:02.000Z</time>
      </trkpt>
      <trkpt lat="45.63036" lon="4.89863">
        <ele>187.19999694824</ele>
        <time>2024-05-21T05:59:03.000Z</time>
      </trkpt>
      <trkpt lat="45.63029" lon="4.89866">
        <ele>187.19999694824</ele>
        <time>2024-05-21T05:59:04.000Z</time>
      </trkpt>
      <trkpt lat="45.63025" lon="4.89868">
        <ele>187.19999694824</ele>
        <time>2024-05-21T05:59:05.000Z</time>
      </trkpt>
      <trkpt lat="45.63019" lon="4.89871">
        <ele>187.19999694824</ele>
        <time>2024-05-21T05:59:06.000Z</time>
      </trkpt>
      <trkpt lat="45.63013" lon="4.89873">
        <ele>187.19999694824</ele>
        <time>2024-05-21T05:59:07.000Z</time>
      </trkpt>
      <trkpt lat="45.63008" lon="4.89876">
        <ele>187.19999694824</ele>
        <time>2024-05-21T05:59:08.000Z</time>
      </trkpt>
      <trkpt lat="45.63002" lon="4.89879">
        <ele>187</ele>
        <time>2024-05-21T05:59:09.000Z</time>
      </trkpt>
      <trkpt lat="45.62996" lon="4.89884">
        <ele>187</ele>
        <time>2024-05-21T05:59:10.000Z</time>
      </trkpt>
      <trkpt lat="45.62992" lon="4.89887">
        <ele>187</ele>
        <time>2024-05-21T05:59:11.000Z</time>
      </trkpt>
      <trkpt lat="45.62986" lon="4.89891">
        <ele>187</ele>
        <time>2024-05-21T05:59:12.000Z</time>
      </trkpt>
      <trkpt lat="45.62981" lon="4.89895">
        <ele>187</ele>
        <time>2024-05-21T05:59:13.000Z</time>
      </trkpt>
      <trkpt lat="45.62976" lon="4.899">
        <ele>186.80000305176</ele>
        <time>2024-05-21T05:59:14.000Z</time>
      </trkpt>
      <trkpt lat="45.62971" lon="4.89904">
        <ele>186.80000305176</ele>
        <time>2024-05-21T05:59:15.000Z</time>
      </trkpt>
      <trkpt lat="45.62966" lon="4.89909">
        <ele>186.80000305176</ele>
        <time>2024-05-21T05:59:16.000Z</time>
      </trkpt>
      <trkpt lat="45.62961" lon="4.89913">
        <ele>187</ele>
        <time>2024-05-21T05:59:17.000Z</time>
      </trkpt>
      <trkpt lat="45.62955" lon="4.89918">
        <ele>187</ele>
        <time>2024-05-21T05:59:18.000Z</time>
      </trkpt>
      <trkpt lat="45.6295" lon="4.89922">
        <ele>187</ele>
        <time>2024-05-21T05:59:19.000Z</time>
      </trkpt>
      <trkpt lat="45.62945" lon="4.89927">
        <ele>187.19999694824</ele>
        <time>2024-05-21T05:59:20.000Z</time>
      </trkpt>
      <trkpt lat="45.62939" lon="4.89931">
        <ele>187.19999694824</ele>
        <time>2024-05-21T05:59:21.000Z</time>
      </trkpt>
      <trkpt lat="45.62934" lon="4.89935">
        <ele>187.19999694824</ele>
        <time>2024-05-21T05:59:22.000Z</time>
      </trkpt>
      <trkpt lat="45.6293" lon="4.89939">
        <ele>187.19999694824</ele>
        <time>2024-05-21T05:59:23.000Z</time>
      </trkpt>
      <trkpt lat="45.62925" lon="4.89943">
        <ele>187.19999694824</ele>
        <time>2024-05-21T05:59:24.000Z</time>
      </trkpt>
      <trkpt lat="45.6292" lon="4.89948">
        <ele>187.19999694824</ele>
        <time>2024-05-21T05:59:25.000Z</time>
      </trkpt>
      <trkpt lat="45.62916" lon="4.89953">
        <ele>187.39999389648</ele>
        <time>2024-05-21T05:59:26.000Z</time>
      </trkpt>
      <trkpt lat="45.62911" lon="4.89958">
        <ele>187.39999389648</ele>
        <time>2024-05-21T05:59:27.000Z</time>
      </trkpt>
      <trkpt lat="45.62906" lon="4.89962">
        <ele>187.39999389648</ele>
        <time>2024-05-21T05:59:28.000Z</time>
      </trkpt>
      <trkpt lat="45.62901" lon="4.89967">
        <ele>187.39999389648</ele>
        <time>2024-05-21T05:59:29.000Z</time>
      </trkpt>
      <trkpt lat="45.62897" lon="4.89972">
        <ele>187.39999389648</ele>
        <time>2024-05-21T05:59:30.000Z</time>
      </trkpt>
      <trkpt lat="45.62892" lon="4.89977">
        <ele>187.60000610352</ele>
        <time>2024-05-21T05:59:31.000Z</time>
      </trkpt>
      <trkpt lat="45.62888" lon="4.89983">
        <ele>187.39999389648</ele>
        <time>2024-05-21T05:59:32.000Z</time>
      </trkpt>
      <trkpt lat="45.62883" lon="4.89988">
        <ele>187.60000610352</ele>
        <time>2024-05-21T05:59:33.000Z</time>
      </trkpt>
      <trkpt lat="45.62878" lon="4.89995">
        <ele>187.60000610352</ele>
        <time>2024-05-21T05:59:34.000Z</time>
      </trkpt>
      <trkpt lat="45.62875" lon="4.89999">
        <ele>187.39999389648</ele>
        <time>2024-05-21T05:59:35.000Z</time>
      </trkpt>
      <trkpt lat="45.62871" lon="4.90005">
        <ele>187.39999389648</ele>
        <time>2024-05-21T05:59:36.000Z</time>
      </trkpt>
      <trkpt lat="45.62866" lon="4.90012">
        <ele>187.60000610352</ele>
        <time>2024-05-21T05:59:37.000Z</time>
      </trkpt>
      <trkpt lat="45.62863" lon="4.90017">
        <ele>187.39999389648</ele>
        <time>2024-05-21T05:59:38.000Z</time>
      </trkpt>
      <trkpt lat="45.62859" lon="4.90023">
        <ele>187.60000610352</ele>
        <time>2024-05-21T05:59:39.000Z</time>
      </trkpt>
      <trkpt lat="45.62855" lon="4.9003">
        <ele>187.60000610352</ele>
        <time>2024-05-21T05:59:40.000Z</time>
      </trkpt>
      <trkpt lat="45.62852" lon="4.90035">
        <ele>187.39999389648</ele>
        <time>2024-05-21T05:59:41.000Z</time>
      </trkpt>
      <trkpt lat="45.62848" lon="4.90041">
        <ele>187.39999389648</ele>
        <time>2024-05-21T05:59:42.000Z</time>
      </trkpt>
      <trkpt lat="45.62844" lon="4.90046">
        <ele>187.39999389648</ele>
        <time>2024-05-21T05:59:43.000Z</time>
      </trkpt>
      <trkpt lat="45.62839" lon="4.90053">
        <ele>187.39999389648</ele>
        <time>2024-05-21T05:59:44.000Z</time>
      </trkpt>
      <trkpt lat="45.62836" lon="4.90057">
        <ele>187.60000610352</ele>
        <time>2024-05-21T05:59:45.000Z</time>
      </trkpt>
      <trkpt lat="45.62831" lon="4.90063">
        <ele>187.60000610352</ele>
        <time>2024-05-21T05:59:46.000Z</time>
      </trkpt>
      <trkpt lat="45.62827" lon="4.90067">
        <ele>187.80000305176</ele>
        <time>2024-05-21T05:59:47.000Z</time>
      </trkpt>
      <trkpt lat="45.62823" lon="4.9007">
        <ele>187.80000305176</ele>
        <time>2024-05-21T05:59:48.000Z</time>
      </trkpt>
      <trkpt lat="45.62818" lon="4.90074">
        <ele>187.80000305176</ele>
        <time>2024-05-21T05:59:49.000Z</time>
      </trkpt>
      <trkpt lat="45.62812" lon="4.90079">
        <ele>187.80000305176</ele>
        <time>2024-05-21T05:59:50.000Z</time>
      </trkpt>
      <trkpt lat="45.62808" lon="4.90082">
        <ele>188</ele>
        <time>2024-05-21T05:59:51.000Z</time>
      </trkpt>
      <trkpt lat="45.62802" lon="4.90086">
        <ele>188</ele>
        <time>2024-05-21T05:59:52.000Z</time>
      </trkpt>
      <trkpt lat="45.62798" lon="4.90088">
        <ele>188</ele>
        <time>2024-05-21T05:59:53.000Z</time>
      </trkpt>
      <trkpt lat="45.62793" lon="4.90092">
        <ele>188</ele>
        <time>2024-05-21T05:59:54.000Z</time>
      </trkpt>
      <trkpt lat="45.62788" lon="4.90095">
        <ele>188.19999694824</ele>
        <time>2024-05-21T05:59:55.000Z</time>
      </trkpt>
      <trkpt lat="45.62782" lon="4.90098">
        <ele>188.19999694824</ele>
        <time>2024-05-21T05:59:56.000Z</time>
      </trkpt>
      <trkpt lat="45.62778" lon="4.901">
        <ele>188.19999694824</ele>
        <time>2024-05-21T05:59:57.000Z</time>
      </trkpt>
      <trkpt lat="45.62772" lon="4.90103">
        <ele>188.19999694824</ele>
        <time>2024-05-21T05:59:58.000Z</time>
      </trkpt>
      <trkpt lat="45.62766" lon="4.90106">
        <ele>188.39999389648</ele>
        <time>2024-05-21T05:59:59.000Z</time>
      </trkpt>
      <trkpt lat="45.62762" lon="4.90108">
        <ele>188.39999389648</ele>
        <time>2024-05-21T06:00:00.000Z</time>
      </trkpt>
      <trkpt lat="45.62755" lon="4.90111">
        <ele>188.39999389648</ele>
        <time>2024-05-21T06:00:01.000Z</time>
      </trkpt>
      <trkpt lat="45.6275" lon="4.90113">
        <ele>188.39999389648</ele>
        <time>2024-05-21T06:00:02.000Z</time>
      </trkpt>
      <trkpt lat="45.62746" lon="4.90114">
        <ele>188.39999389648</ele>
        <time>2024-05-21T06:00:03.000Z</time>
      </trkpt>
      <trkpt lat="45.62741" lon="4.90117">
        <ele>188.60000610352</ele>
        <time>2024-05-21T06:00:04.000Z</time>
      </trkpt>
      <trkpt lat="45.62736" lon="4.90119">
        <ele>188.80000305176</ele>
        <time>2024-05-21T06:00:05.000Z</time>
      </trkpt>
      <trkpt lat="45.6273" lon="4.90122">
        <ele>188.80000305176</ele>
        <time>2024-05-21T06:00:06.000Z</time>
      </trkpt>
      <trkpt lat="45.62725" lon="4.90125">
        <ele>188.80000305176</ele>
        <time>2024-05-21T06:00:07.000Z</time>
      </trkpt>
      <trkpt lat="45.62718" lon="4.90128">
        <ele>189</ele>
        <time>2024-05-21T06:00:08.000Z</time>
      </trkpt>
      <trkpt lat="45.62714" lon="4.9013">
        <ele>189</ele>
        <time>2024-05-21T06:00:09.000Z</time>
      </trkpt>
      <trkpt lat="45.62709" lon="4.90133">
        <ele>189</ele>
        <time>2024-05-21T06:00:10.000Z</time>
      </trkpt>
      <trkpt lat="45.62704" lon="4.90135">
        <ele>189</ele>
        <time>2024-05-21T06:00:11.000Z</time>
      </trkpt>
      <trkpt lat="45.62699" lon="4.90137">
        <ele>189.19999694824</ele>
        <time>2024-05-21T06:00:12.000Z</time>
      </trkpt>
      <trkpt lat="45.62693" lon="4.9014">
        <ele>189.19999694824</ele>
        <time>2024-05-21T06:00:13.000Z</time>
      </trkpt>
      <trkpt lat="45.62686" lon="4.90143">
        <ele>189.19999694824</ele>
        <time>2024-05-21T06:00:14.000Z</time>
      </trkpt>
      <trkpt lat="45.62682" lon="4.90145">
        <ele>189.19999694824</ele>
        <time>2024-05-21T06:00:15.000Z</time>
      </trkpt>
      <trkpt lat="45.62676" lon="4.90147">
        <ele>189.19999694824</ele>
        <time>2024-05-21T06:00:16.000Z</time>
      </trkpt>
      <trkpt lat="45.62671" lon="4.9015">
        <ele>189.19999694824</ele>
        <time>2024-05-21T06:00:17.000Z</time>
      </trkpt>
      <trkpt lat="45.62665" lon="4.90152">
        <ele>189.19999694824</ele>
        <time>2024-05-21T06:00:18.000Z</time>
      </trkpt>
      <trkpt lat="45.6266" lon="4.90155">
        <ele>189.19999694824</ele>
        <time>2024-05-21T06:00:19.000Z</time>
      </trkpt>
      <trkpt lat="45.62654" lon="4.90157">
        <ele>189.19999694824</ele>
        <time>2024-05-21T06:00:20.000Z</time>
      </trkpt>
      <trkpt lat="45.62649" lon="4.9016">
        <ele>189.19999694824</ele>
        <time>2024-05-21T06:00:21.000Z</time>
      </trkpt>
      <trkpt lat="45.62643" lon="4.90163">
        <ele>189.19999694824</ele>
        <time>2024-05-21T06:00:22.000Z</time>
      </trkpt>
      <trkpt lat="45.62638" lon="4.90165">
        <ele>189.19999694824</ele>
        <time>2024-05-21T06:00:23.000Z</time>
      </trkpt>
      <trkpt lat="45.62633" lon="4.90168">
        <ele>189.19999694824</ele>
        <time>2024-05-21T06:00:24.000Z</time>
      </trkpt>
      <trkpt lat="45.62628" lon="4.90173">
        <ele>189.19999694824</ele>
        <time>2024-05-21T06:00:25.000Z</time>
      </trkpt>
      <trkpt lat="45.62625" lon="4.90178">
        <ele>189.19999694824</ele>
        <time>2024-05-21T06:00:26.000Z</time>
      </trkpt>
      <trkpt lat="45.62622" lon="4.90184">
        <ele>189.19999694824</ele>
        <time>2024-05-21T06:00:27.000Z</time>
      </trkpt>
      <trkpt lat="45.6262" lon="4.90192">
        <ele>189.39999389648</ele>
        <time>2024-05-21T06:00:28.000Z</time>
      </trkpt>
      <trkpt lat="45.62618" lon="4.902">
        <ele>189.60000610352</ele>
        <time>2024-05-21T06:00:29.000Z</time>
      </trkpt>
      <trkpt lat="45.62616" lon="4.90206">
        <ele>189.80000305176</ele>
        <time>2024-05-21T06:00:30.000Z</time>
      </trkpt>
      <trkpt lat="45.62614" lon="4.90213">
        <ele>189.80000305176</ele>
        <time>2024-05-21T06:00:31.000Z</time>
      </trkpt>
      <trkpt lat="45.62612" lon="4.90222">
        <ele>189.80000305176</ele>
        <time>2024-05-21T06:00:32.000Z</time>
      </trkpt>
      <trkpt lat="45.6261" lon="4.90227">
        <ele>189.80000305176</ele>
        <time>2024-05-21T06:00:33.000Z</time>
      </trkpt>
      <trkpt lat="45.62609" lon="4.90234">
        <ele>189.80000305176</ele>
        <time>2024-05-21T06:00:34.000Z</time>
      </trkpt>
      <trkpt lat="45.62607" lon="4.90242">
        <ele>189.80000305176</ele>
        <time>2024-05-21T06:00:35.000Z</time>
      </trkpt>
      <trkpt lat="45.62605" lon="4.90249">
        <ele>189.80000305176</ele>
        <time>2024-05-21T06:00:36.000Z</time>
      </trkpt>
      <trkpt lat="45.62604" lon="4.90256">
        <ele>190</ele>
        <time>2024-05-21T06:00:37.000Z</time>
      </trkpt>
      <trkpt lat="45.62602" lon="4.90263">
        <ele>190</ele>
        <time>2024-05-21T06:00:38.000Z</time>
      </trkpt>
      <trkpt lat="45.626" lon="4.9027">
        <ele>190.19999694824</ele>
        <time>2024-05-21T06:00:39.000Z</time>
      </trkpt>
      <trkpt lat="45.62599" lon="4.90278">
        <ele>190.19999694824</ele>
        <time>2024-05-21T06:00:40.000Z</time>
      </trkpt>
      <trkpt lat="45.62597" lon="4.90285">
        <ele>190.19999694824</ele>
        <time>2024-05-21T06:00:41.000Z</time>
      </trkpt>
      <trkpt lat="45.62595" lon="4.90292">
        <ele>190.19999694824</ele>
        <time>2024-05-21T06:00:42.000Z</time>
      </trkpt>
      <trkpt lat="45.62593" lon="4.90299">
        <ele>190.19999694824</ele>
        <time>2024-05-21T06:00:43.000Z</time>
      </trkpt>
      <trkpt lat="45.62592" lon="4.90306">
        <ele>190.19999694824</ele>
        <time>2024-05-21T06:00:44.000Z</time>
      </trkpt>
      <trkpt lat="45.62591" lon="4.90314">
        <ele>190.19999694824</ele>
        <time>2024-05-21T06:00:45.000Z</time>
      </trkpt>
      <trkpt lat="45.62589" lon="4.90321">
        <ele>190.19999694824</ele>
        <time>2024-05-21T06:00:46.000Z</time>
      </trkpt>
      <trkpt lat="45.62588" lon="4.90329">
        <ele>190.60000610352</ele>
        <time>2024-05-21T06:00:47.000Z</time>
      </trkpt>
      <trkpt lat="45.62587" lon="4.90337">
        <ele>190.60000610352</ele>
        <time>2024-05-21T06:00:48.000Z</time>
      </trkpt>
      <trkpt lat="45.62586" lon="4.90344">
        <ele>190.60000610352</ele>
        <time>2024-05-21T06:00:49.000Z</time>
      </trkpt>
      <trkpt lat="45.62585" lon="4.90352">
        <ele>190.60000610352</ele>
        <time>2024-05-21T06:00:50.000Z</time>
      </trkpt>
      <trkpt lat="45.62584" lon="4.90359">
        <ele>190.60000610352</ele>
        <time>2024-05-21T06:00:51.000Z</time>
      </trkpt>
      <trkpt lat="45.62583" lon="4.90367">
        <ele>190.80000305176</ele>
        <time>2024-05-21T06:00:52.000Z</time>
      </trkpt>
      <trkpt lat="45.62582" lon="4.90374">
        <ele>190.80000305176</ele>
        <time>2024-05-21T06:00:53.000Z</time>
      </trkpt>
      <trkpt lat="45.62581" lon="4.90382">
        <ele>190.80000305176</ele>
        <time>2024-05-21T06:00:54.000Z</time>
      </trkpt>
      <trkpt lat="45.62581" lon="4.90389">
        <ele>190.80000305176</ele>
        <time>2024-05-21T06:00:55.000Z</time>
      </trkpt>
      <trkpt lat="45.6258" lon="4.90397">
        <ele>191</ele>
        <time>2024-05-21T06:00:56.000Z</time>
      </trkpt>
      <trkpt lat="45.62579" lon="4.90404">
        <ele>191</ele>
        <time>2024-05-21T06:00:57.000Z</time>
      </trkpt>
      <trkpt lat="45.62579" lon="4.90412">
        <ele>191</ele>
        <time>2024-05-21T06:00:58.000Z</time>
      </trkpt>
      <trkpt lat="45.62578" lon="4.90419">
        <ele>191.19999694824</ele>
        <time>2024-05-21T06:00:59.000Z</time>
      </trkpt>
      <trkpt lat="45.62578" lon="4.90426">
        <ele>191.19999694824</ele>
        <time>2024-05-21T06:01:00.000Z</time>
      </trkpt>
      <trkpt lat="45.62576" lon="4.90433">
        <ele>191.39999389648</ele>
        <time>2024-05-21T06:01:01.000Z</time>
      </trkpt>
      <trkpt lat="45.62575" lon="4.9044">
        <ele>191.39999389648</ele>
        <time>2024-05-21T06:01:02.000Z</time>
      </trkpt>
      <trkpt lat="45.62573" lon="4.90447">
        <ele>191.60000610352</ele>
        <time>2024-05-21T06:01:03.000Z</time>
      </trkpt>
      <trkpt lat="45.62571" lon="4.90454">
        <ele>191.60000610352</ele>
        <time>2024-05-21T06:01:04.000Z</time>
      </trkpt>
      <trkpt lat="45.6257" lon="4.90461">
        <ele>191.60000610352</ele>
        <time>2024-05-21T06:01:05.000Z</time>
      </trkpt>
      <trkpt lat="45.62567" lon="4.90468">
        <ele>191.60000610352</ele>
        <time>2024-05-21T06:01:06.000Z</time>
      </trkpt>
      <trkpt lat="45.62565" lon="4.90474">
        <ele>191.60000610352</ele>
        <time>2024-05-21T06:01:07.000Z</time>
      </trkpt>
      <trkpt lat="45.62562" lon="4.90479">
        <ele>191.80000305176</ele>
        <time>2024-05-21T06:01:08.000Z</time>
      </trkpt>
      <trkpt lat="45.62558" lon="4.90483">
        <ele>191.80000305176</ele>
        <time>2024-05-21T06:01:09.000Z</time>
      </trkpt>
      <trkpt lat="45.62553" lon="4.90484">
        <ele>191.80000305176</ele>
        <time>2024-05-21T06:01:10.000Z</time>
      </trkpt>
      <trkpt lat="45.62549" lon="4.90484">
        <ele>191.80000305176</ele>
        <time>2024-05-21T06:01:11.000Z</time>
      </trkpt>
      <trkpt lat="45.62544" lon="4.90483">
        <ele>191.80000305176</ele>
        <time>2024-05-21T06:01:12.000Z</time>
      </trkpt>
      <trkpt lat="45.62539" lon="4.90482">
        <ele>192</ele>
        <time>2024-05-21T06:01:13.000Z</time>
      </trkpt>
      <trkpt lat="45.62535" lon="4.90481">
        <ele>192</ele>
        <time>2024-05-21T06:01:14.000Z</time>
      </trkpt>
      <trkpt lat="45.6253" lon="4.9048">
        <ele>192</ele>
        <time>2024-05-21T06:01:15.000Z</time>
      </trkpt>
      <trkpt lat="45.62525" lon="4.90479">
        <ele>192</ele>
        <time>2024-05-21T06:01:16.000Z</time>
      </trkpt>
      <trkpt lat="45.6252" lon="4.90478">
        <ele>192</ele>
        <time>2024-05-21T06:01:17.000Z</time>
      </trkpt>
      <trkpt lat="45.62515" lon="4.90477">
        <ele>192</ele>
        <time>2024-05-21T06:01:18.000Z</time>
      </trkpt>
      <trkpt lat="45.6251" lon="4.90476">
        <ele>192</ele>
        <time>2024-05-21T06:01:19.000Z</time>
      </trkpt>
      <trkpt lat="45.62505" lon="4.90476">
        <ele>192.19999694824</ele>
        <time>2024-05-21T06:01:20.000Z</time>
      </trkpt>
      <trkpt lat="45.625" lon="4.90475">
        <ele>192.19999694824</ele>
        <time>2024-05-21T06:01:21.000Z</time>
      </trkpt>
      <trkpt lat="45.62494" lon="4.90474">
        <ele>192.19999694824</ele>
        <time>2024-05-21T06:01:22.000Z</time>
      </trkpt>
      <trkpt lat="45.62489" lon="4.90474">
        <ele>192.19999694824</ele>
        <time>2024-05-21T06:01:23.000Z</time>
      </trkpt>
      <trkpt lat="45.62484" lon="4.90473">
        <ele>192.39999389648</ele>
        <time>2024-05-21T06:01:24.000Z</time>
      </trkpt>
      <trkpt lat="45.62479" lon="4.90473">
        <ele>192.39999389648</ele>
        <time>2024-05-21T06:01:25.000Z</time>
      </trkpt>
      <trkpt lat="45.62474" lon="4.90472">
        <ele>192.39999389648</ele>
        <time>2024-05-21T06:01:26.000Z</time>
      </trkpt>
      <trkpt lat="45.62469" lon="4.90472">
        <ele>192.39999389648</ele>
        <time>2024-05-21T06:01:27.000Z</time>
      </trkpt>
      <trkpt lat="45.62464" lon="4.90471">
        <ele>192.39999389648</ele>
        <time>2024-05-21T06:01:28.000Z</time>
      </trkpt>
      <trkpt lat="45.62459" lon="4.90471">
        <ele>192.39999389648</ele>
        <time>2024-05-21T06:01:29.000Z</time>
      </trkpt>
      <trkpt lat="45.62454" lon="4.90471">
        <ele>192.39999389648</ele>
        <time>2024-05-21T06:01:30.000Z</time>
      </trkpt>
      <trkpt lat="45.62449" lon="4.9047">
        <ele>192.39999389648</ele>
        <time>2024-05-21T06:01:31.000Z</time>
      </trkpt>
      <trkpt lat="45.62444" lon="4.90469">
        <ele>192.39999389648</ele>
        <time>2024-05-21T06:01:32.000Z</time>
      </trkpt>
      <trkpt lat="45.62439" lon="4.90468">
        <ele>192.60000610352</ele>
        <time>2024-05-21T06:01:33.000Z</time>
      </trkpt>
      <trkpt lat="45.62434" lon="4.90468">
        <ele>192.60000610352</ele>
        <time>2024-05-21T06:01:34.000Z</time>
      </trkpt>
      <trkpt lat="45.6243" lon="4.90467">
        <ele>192.80000305176</ele>
        <time>2024-05-21T06:01:35.000Z</time>
      </trkpt>
      <trkpt lat="45.62425" lon="4.90466">
        <ele>192.80000305176</ele>
        <time>2024-05-21T06:01:36.000Z</time>
      </trkpt>
      <trkpt lat="45.6242" lon="4.90465">
        <ele>193</ele>
        <time>2024-05-21T06:01:37.000Z</time>
      </trkpt>
      <trkpt lat="45.62416" lon="4.90464">
        <ele>193</ele>
        <time>2024-05-21T06:01:38.000Z</time>
      </trkpt>
      <trkpt lat="45.62411" lon="4.90463">
        <ele>193.19999694824</ele>
        <time>2024-05-21T06:01:39.000Z</time>
      </trkpt>
      <trkpt lat="45.62407" lon="4.90461">
        <ele>193.19999694824</ele>
        <time>2024-05-21T06:01:40.000Z</time>
      </trkpt>
      <trkpt lat="45.62403" lon="4.90459">
        <ele>193.19999694824</ele>
        <time>2024-05-21T06:01:41.000Z</time>
      </trkpt>
      <trkpt lat="45.62398" lon="4.90457">
        <ele>193.39999389648</ele>
        <time>2024-05-21T06:01:42.000Z</time>
      </trkpt>
      <trkpt lat="45.62394" lon="4.90455">
        <ele>193.39999389648</ele>
        <time>2024-05-21T06:01:43.000Z</time>
      </trkpt>
      <trkpt lat="45.6239" lon="4.90454">
        <ele>193.39999389648</ele>
        <time>2024-05-21T06:01:44.000Z</time>
      </trkpt>
      <trkpt lat="45.62385" lon="4.90452">
        <ele>193.60000610352</ele>
        <time>2024-05-21T06:01:45.000Z</time>
      </trkpt>
      <trkpt lat="45.62381" lon="4.90451">
        <ele>193.60000610352</ele>
        <time>2024-05-21T06:01:46.000Z</time>
      </trkpt>
      <trkpt lat="45.62376" lon="4.9045">
        <ele>193.60000610352</ele>
        <time>2024-05-21T06:01:47.000Z</time>
      </trkpt>
      <trkpt lat="45.62372" lon="4.90448">
        <ele>193.80000305176</ele>
        <time>2024-05-21T06:01:48.000Z</time>
      </trkpt>
      <trkpt lat="45.62367" lon="4.90447">
        <ele>194</ele>
        <time>2024-05-21T06:01:49.000Z</time>
      </trkpt>
      <trkpt lat="45.62363" lon="4.90447">
        <ele>194</ele>
        <time>2024-05-21T06:01:50.000Z</time>
      </trkpt>
      <trkpt lat="45.62358" lon="4.90447">
        <ele>194</ele>
        <time>2024-05-21T06:01:51.000Z</time>
      </trkpt>
      <trkpt lat="45.62353" lon="4.90448">
        <ele>194.19999694824</ele>
        <time>2024-05-21T06:01:52.000Z</time>
      </trkpt>
      <trkpt lat="45.62349" lon="4.9045">
        <ele>194.19999694824</ele>
        <time>2024-05-21T06:01:53.000Z</time>
      </trkpt>
      <trkpt lat="45.62345" lon="4.90451">
        <ele>194.39999389648</ele>
        <time>2024-05-21T06:01:54.000Z</time>
      </trkpt>
      <trkpt lat="45.6234" lon="4.90454">
        <ele>194.39999389648</ele>
        <time>2024-05-21T06:01:55.000Z</time>
      </trkpt>
      <trkpt lat="45.62336" lon="4.90456">
        <ele>194.39999389648</ele>
        <time>2024-05-21T06:01:56.000Z</time>
      </trkpt>
      <trkpt lat="45.62332" lon="4.90458">
        <ele>194.39999389648</ele>
        <time>2024-05-21T06:01:57.000Z</time>
      </trkpt>
      <trkpt lat="45.62328" lon="4.90461">
        <ele>194.39999389648</ele>
        <time>2024-05-21T06:01:58.000Z</time>
      </trkpt>
      <trkpt lat="45.62324" lon="4.90463">
        <ele>194.39999389648</ele>
        <time>2024-05-21T06:01:59.000Z</time>
      </trkpt>
      <trkpt lat="45.6232" lon="4.90465">
        <ele>194.39999389648</ele>
        <time>2024-05-21T06:02:00.000Z</time>
      </trkpt>
      <trkpt lat="45.62316" lon="4.90468">
        <ele>194.60000610352</ele>
        <time>2024-05-21T06:02:01.000Z</time>
      </trkpt>
      <trkpt lat="45.62312" lon="4.9047">
        <ele>194.60000610352</ele>
        <time>2024-05-21T06:02:02.000Z</time>
      </trkpt>
      <trkpt lat="45.62308" lon="4.90473">
        <ele>194.80000305176</ele>
        <time>2024-05-21T06:02:03.000Z</time>
      </trkpt>
      <trkpt lat="45.62304" lon="4.90475">
        <ele>195</ele>
        <time>2024-05-21T06:02:04.000Z</time>
      </trkpt>
      <trkpt lat="45.623" lon="4.90477">
        <ele>195.19999694824</ele>
        <time>2024-05-21T06:02:05.000Z</time>
      </trkpt>
      <trkpt lat="45.62297" lon="4.9048">
        <ele>195.19999694824</ele>
        <time>2024-05-21T06:02:06.000Z</time>
      </trkpt>
      <trkpt lat="45.62293" lon="4.90482">
        <ele>195.39999389648</ele>
        <time>2024-05-21T06:02:07.000Z</time>
      </trkpt>
      <trkpt lat="45.62289" lon="4.90484">
        <ele>195.60000610352</ele>
        <time>2024-05-21T06:02:08.000Z</time>
      </trkpt>
      <trkpt lat="45.62286" lon="4.90487">
        <ele>195.60000610352</ele>
        <time>2024-05-21T06:02:09.000Z</time>
      </trkpt>
      <trkpt lat="45.62282" lon="4.9049">
        <ele>195.80000305176</ele>
        <time>2024-05-21T06:02:10.000Z</time>
      </trkpt>
      <trkpt lat="45.62278" lon="4.90492">
        <ele>195.80000305176</ele>
        <time>2024-05-21T06:02:11.000Z</time>
      </trkpt>
      <trkpt lat="45.62275" lon="4.90495">
        <ele>195.80000305176</ele>
        <time>2024-05-21T06:02:12.000Z</time>
      </trkpt>
      <trkpt lat="45.62271" lon="4.90497">
        <ele>196</ele>
        <time>2024-05-21T06:02:13.000Z</time>
      </trkpt>
      <trkpt lat="45.62267" lon="4.90498">
        <ele>196</ele>
        <time>2024-05-21T06:02:14.000Z</time>
      </trkpt>
      <trkpt lat="45.62263" lon="4.90499">
        <ele>196</ele>
        <time>2024-05-21T06:02:15.000Z</time>
      </trkpt>
      <trkpt lat="45.62259" lon="4.90501">
        <ele>196.19999694824</ele>
        <time>2024-05-21T06:02:16.000Z</time>
      </trkpt>
      <trkpt lat="45.62256" lon="4.90503">
        <ele>196.19999694824</ele>
        <time>2024-05-21T06:02:17.000Z</time>
      </trkpt>
      <trkpt lat="45.62252" lon="4.90505">
        <ele>196.39999389648</ele>
        <time>2024-05-21T06:02:18.000Z</time>
      </trkpt>
      <trkpt lat="45.62248" lon="4.90507">
        <ele>196.39999389648</ele>
        <time>2024-05-21T06:02:19.000Z</time>
      </trkpt>
      <trkpt lat="45.62245" lon="4.9051">
        <ele>196.60000610352</ele>
        <time>2024-05-21T06:02:20.000Z</time>
      </trkpt>
      <trkpt lat="45.62241" lon="4.90512">
        <ele>196.60000610352</ele>
        <time>2024-05-21T06:02:21.000Z</time>
      </trkpt>
      <trkpt lat="45.62238" lon="4.90513">
        <ele>196.80000305176</ele>
        <time>2024-05-21T06:02:22.000Z</time>
      </trkpt>
      <trkpt lat="45.62234" lon="4.90515">
        <ele>197</ele>
        <time>2024-05-21T06:02:23.000Z</time>
      </trkpt>
      <trkpt lat="45.6223" lon="4.90517">
        <ele>197.19999694824</ele>
        <time>2024-05-21T06:02:24.000Z</time>
      </trkpt>
      <trkpt lat="45.62227" lon="4.90519">
        <ele>197.19999694824</ele>
        <time>2024-05-21T06:02:25.000Z</time>
      </trkpt>
      <trkpt lat="45.62223" lon="4.90521">
        <ele>197.39999389648</ele>
        <time>2024-05-21T06:02:26.000Z</time>
      </trkpt>
      <trkpt lat="45.6222" lon="4.90523">
        <ele>197.39999389648</ele>
        <time>2024-05-21T06:02:27.000Z</time>
      </trkpt>
      <trkpt lat="45.62218" lon="4.90523">
        <ele>197.60000610352</ele>
        <time>2024-05-21T06:02:28.000Z</time>
      </trkpt>
      <trkpt lat="45.62215" lon="4.90522">
        <ele>197.80000305176</ele>
        <time>2024-05-21T06:02:29.000Z</time>
      </trkpt>
      <trkpt lat="45.62213" lon="4.9052">
        <ele>198</ele>
        <time>2024-05-21T06:02:30.000Z</time>
      </trkpt>
      <trkpt lat="45.62211" lon="4.90516">
        <ele>198.19999694824</ele>
        <time>2024-05-21T06:02:31.000Z</time>
      </trkpt>
      <trkpt lat="45.6221" lon="4.90512">
        <ele>198.39999389648</ele>
        <time>2024-05-21T06:02:32.000Z</time>
      </trkpt>
      <trkpt lat="45.62209" lon="4.90507">
        <ele>198.60000610352</ele>
        <time>2024-05-21T06:02:33.000Z</time>
      </trkpt>
      <trkpt lat="45.62208" lon="4.90502">
        <ele>198.60000610352</ele>
        <time>2024-05-21T06:02:34.000Z</time>
      </trkpt>
      <trkpt lat="45.62207" lon="4.90496">
        <ele>198.60000610352</ele>
        <time>2024-05-21T06:02:35.000Z</time>
      </trkpt>
      <trkpt lat="45.62205" lon="4.90491">
        <ele>198.60000610352</ele>
        <time>2024-05-21T06:02:36.000Z</time>
      </trkpt>
      <trkpt lat="45.62203" lon="4.90485">
        <ele>198.60000610352</ele>
        <time>2024-05-21T06:02:37.000Z</time>
      </trkpt>
      <trkpt lat="45.62201" lon="4.90479">
        <ele>198.60000610352</ele>
        <time>2024-05-21T06:02:38.000Z</time>
      </trkpt>
      <trkpt lat="45.62198" lon="4.90474">
        <ele>198.60000610352</ele>
        <time>2024-05-21T06:02:39.000Z</time>
      </trkpt>
      <trkpt lat="45.62196" lon="4.90468">
        <ele>198.60000610352</ele>
        <time>2024-05-21T06:02:40.000Z</time>
      </trkpt>
      <trkpt lat="45.62194" lon="4.90462">
        <ele>198.60000610352</ele>
        <time>2024-05-21T06:02:41.000Z</time>
      </trkpt>
      <trkpt lat="45.62191" lon="4.90456">
        <ele>198.60000610352</ele>
        <time>2024-05-21T06:02:42.000Z</time>
      </trkpt>
      <trkpt lat="45.62189" lon="4.9045">
        <ele>198.60000610352</ele>
        <time>2024-05-21T06:02:43.000Z</time>
      </trkpt>
      <trkpt lat="45.62186" lon="4.90445">
        <ele>198.60000610352</ele>
        <time>2024-05-21T06:02:44.000Z</time>
      </trkpt>
      <trkpt lat="45.62183" lon="4.90439">
        <ele>198.60000610352</ele>
        <time>2024-05-21T06:02:45.000Z</time>
      </trkpt>
      <trkpt lat="45.62179" lon="4.90434">
        <ele>198.60000610352</ele>
        <time>2024-05-21T06:02:46.000Z</time>
      </trkpt>
      <trkpt lat="45.62176" lon="4.90428">
        <ele>198.60000610352</ele>
        <time>2024-05-21T06:02:47.000Z</time>
      </trkpt>
      <trkpt lat="45.62172" lon="4.90423">
        <ele>198.60000610352</ele>
        <time>2024-05-21T06:02:48.000Z</time>
      </trkpt>
      <trkpt lat="45.62169" lon="4.90417">
        <ele>198.60000610352</ele>
        <time>2024-05-21T06:02:49.000Z</time>
      </trkpt>
      <trkpt lat="45.62166" lon="4.90411">
        <ele>198.60000610352</ele>
        <time>2024-05-21T06:02:50.000Z</time>
      </trkpt>
      <trkpt lat="45.62163" lon="4.90405">
        <ele>198.60000610352</ele>
        <time>2024-05-21T06:02:51.000Z</time>
      </trkpt>
      <trkpt lat="45.6216" lon="4.90399">
        <ele>198.60000610352</ele>
        <time>2024-05-21T06:02:52.000Z</time>
      </trkpt>
      <trkpt lat="45.62157" lon="4.90394">
        <ele>198.60000610352</ele>
        <time>2024-05-21T06:02:53.000Z</time>
      </trkpt>
      <trkpt lat="45.62153" lon="4.90389">
        <ele>198.80000305176</ele>
        <time>2024-05-21T06:02:54.000Z</time>
      </trkpt>
      <trkpt lat="45.6215" lon="4.90384">
        <ele>199</ele>
        <time>2024-05-21T06:02:55.000Z</time>
      </trkpt>
      <trkpt lat="45.62146" lon="4.90379">
        <ele>199</ele>
        <time>2024-05-21T06:02:56.000Z</time>
      </trkpt>
      <trkpt lat="45.62143" lon="4.90374">
        <ele>199</ele>
        <time>2024-05-21T06:02:57.000Z</time>
      </trkpt>
      <trkpt lat="45.62139" lon="4.90369">
        <ele>199</ele>
        <time>2024-05-21T06:02:58.000Z</time>
      </trkpt>
      <trkpt lat="45.62135" lon="4.90364">
        <ele>199.19999694824</ele>
        <time>2024-05-21T06:02:59.000Z</time>
      </trkpt>
      <trkpt lat="45.62131" lon="4.90359">
        <ele>199.19999694824</ele>
        <time>2024-05-21T06:03:00.000Z</time>
      </trkpt>
      <trkpt lat="45.62128" lon="4.90354">
        <ele>199.19999694824</ele>
        <time>2024-05-21T06:03:01.000Z</time>
      </trkpt>
      <trkpt lat="45.62124" lon="4.90349">
        <ele>199.19999694824</ele>
        <time>2024-05-21T06:03:02.000Z</time>
      </trkpt>
      <trkpt lat="45.6212" lon="4.90343">
        <ele>199</ele>
        <time>2024-05-21T06:03:03.000Z</time>
      </trkpt>
      <trkpt lat="45.62116" lon="4.90338">
        <ele>199</ele>
        <time>2024-05-21T06:03:04.000Z</time>
      </trkpt>
      <trkpt lat="45.62112" lon="4.90333">
        <ele>199</ele>
        <time>2024-05-21T06:03:05.000Z</time>
      </trkpt>
      <trkpt lat="45.62108" lon="4.90327">
        <ele>199</ele>
        <time>2024-05-21T06:03:06.000Z</time>
      </trkpt>
      <trkpt lat="45.62105" lon="4.90321">
        <ele>199</ele>
        <time>2024-05-21T06:03:07.000Z</time>
      </trkpt>
      <trkpt lat="45.62101" lon="4.90315">
        <ele>199</ele>
        <time>2024-05-21T06:03:08.000Z</time>
      </trkpt>
      <trkpt lat="45.62098" lon="4.90309">
        <ele>199</ele>
        <time>2024-05-21T06:03:09.000Z</time>
      </trkpt>
      <trkpt lat="45.62094" lon="4.90302">
        <ele>199</ele>
        <time>2024-05-21T06:03:10.000Z</time>
      </trkpt>
      <trkpt lat="45.6209" lon="4.90295">
        <ele>199</ele>
        <time>2024-05-21T06:03:11.000Z</time>
      </trkpt>
      <trkpt lat="45.62086" lon="4.90289">
        <ele>199</ele>
        <time>2024-05-21T06:03:12.000Z</time>
      </trkpt>
      <trkpt lat="45.62082" lon="4.90282">
        <ele>198.80000305176</ele>
        <time>2024-05-21T06:03:13.000Z</time>
      </trkpt>
      <trkpt lat="45.62079" lon="4.90275">
        <ele>198.60000610352</ele>
        <time>2024-05-21T06:03:14.000Z</time>
      </trkpt>
      <trkpt lat="45.62076" lon="4.90268">
        <ele>198.39999389648</ele>
        <time>2024-05-21T06:03:15.000Z</time>
      </trkpt>
      <trkpt lat="45.62072" lon="4.90261">
        <ele>198.39999389648</ele>
        <time>2024-05-21T06:03:16.000Z</time>
      </trkpt>
      <trkpt lat="45.62069" lon="4.90254">
        <ele>198.39999389648</ele>
        <time>2024-05-21T06:03:17.000Z</time>
      </trkpt>
      <trkpt lat="45.62065" lon="4.90248">
        <ele>198.19999694824</ele>
        <time>2024-05-21T06:03:18.000Z</time>
      </trkpt>
      <trkpt lat="45.62062" lon="4.9024">
        <ele>198.19999694824</ele>
        <time>2024-05-21T06:03:19.000Z</time>
      </trkpt>
      <trkpt lat="45.62058" lon="4.90233">
        <ele>198.19999694824</ele>
        <time>2024-05-21T06:03:20.000Z</time>
      </trkpt>
      <trkpt lat="45.62055" lon="4.90226">
        <ele>198</ele>
        <time>2024-05-21T06:03:21.000Z</time>
      </trkpt>
      <trkpt lat="45.62051" lon="4.90219">
        <ele>198</ele>
        <time>2024-05-21T06:03:22.000Z</time>
      </trkpt>
      <trkpt lat="45.62048" lon="4.90212">
        <ele>198</ele>
        <time>2024-05-21T06:03:23.000Z</time>
      </trkpt>
      <trkpt lat="45.62045" lon="4.90204">
        <ele>198</ele>
        <time>2024-05-21T06:03:24.000Z</time>
      </trkpt>
      <trkpt lat="45.62042" lon="4.90197">
        <ele>198</ele>
        <time>2024-05-21T06:03:25.000Z</time>
      </trkpt>
      <trkpt lat="45.62039" lon="4.90189">
        <ele>198</ele>
        <time>2024-05-21T06:03:26.000Z</time>
      </trkpt>
      <trkpt lat="45.62037" lon="4.90181">
        <ele>198</ele>
        <time>2024-05-21T06:03:27.000Z</time>
      </trkpt>
      <trkpt lat="45.62034" lon="4.90172">
        <ele>198</ele>
        <time>2024-05-21T06:03:28.000Z</time>
      </trkpt>
      <trkpt lat="45.62032" lon="4.90164">
        <ele>197.80000305176</ele>
        <time>2024-05-21T06:03:29.000Z</time>
      </trkpt>
      <trkpt lat="45.6203" lon="4.90155">
        <ele>197.80000305176</ele>
        <time>2024-05-21T06:03:30.000Z</time>
      </trkpt>
      <trkpt lat="45.62028" lon="4.90147">
        <ele>197.60000610352</ele>
        <time>2024-05-21T06:03:31.000Z</time>
      </trkpt>
      <trkpt lat="45.62027" lon="4.90138">
        <ele>197.60000610352</ele>
        <time>2024-05-21T06:03:32.000Z</time>
      </trkpt>
      <trkpt lat="45.62025" lon="4.90129">
        <ele>197.39999389648</ele>
        <time>2024-05-21T06:03:33.000Z</time>
      </trkpt>
      <trkpt lat="45.62024" lon="4.9012">
        <ele>197.19999694824</ele>
        <time>2024-05-21T06:03:34.000Z</time>
      </trkpt>
      <trkpt lat="45.62022" lon="4.90111">
        <ele>197.19999694824</ele>
        <time>2024-05-21T06:03:35.000Z</time>
      </trkpt>
      <trkpt lat="45.62021" lon="4.90102">
        <ele>197</ele>
        <time>2024-05-21T06:03:36.000Z</time>
      </trkpt>
      <trkpt lat="45.6202" lon="4.90093">
        <ele>196.80000305176</ele>
        <time>2024-05-21T06:03:37.000Z</time>
      </trkpt>
      <trkpt lat="45.62019" lon="4.90083">
        <ele>196.80000305176</ele>
        <time>2024-05-21T06:03:38.000Z</time>
      </trkpt>
      <trkpt lat="45.62019" lon="4.90074">
        <ele>196.80000305176</ele>
        <time>2024-05-21T06:03:39.000Z</time>
      </trkpt>
      <trkpt lat="45.62018" lon="4.90064">
        <ele>196.80000305176</ele>
        <time>2024-05-21T06:03:40.000Z</time>
      </trkpt>
      <trkpt lat="45.62018" lon="4.90055">
        <ele>196.80000305176</ele>
        <time>2024-05-21T06:03:41.000Z</time>
      </trkpt>
      <trkpt lat="45.62018" lon="4.90045">
        <ele>196.80000305176</ele>
        <time>2024-05-21T06:03:42.000Z</time>
      </trkpt>
      <trkpt lat="45.62019" lon="4.90035">
        <ele>196.60000610352</ele>
        <time>2024-05-21T06:03:43.000Z</time>
      </trkpt>
      <trkpt lat="45.62019" lon="4.90026">
        <ele>196.39999389648</ele>
        <time>2024-05-21T06:03:44.000Z</time>
      </trkpt>
      <trkpt lat="45.6202" lon="4.90018">
        <ele>196.19999694824</ele>
        <time>2024-05-21T06:03:45.000Z</time>
      </trkpt>
      <trkpt lat="45.62022" lon="4.90009">
        <ele>196.19999694824</ele>
        <time>2024-05-21T06:03:46.000Z</time>
      </trkpt>
      <trkpt lat="45.62024" lon="4.9">
        <ele>195.80000305176</ele>
        <time>2024-05-21T06:03:47.000Z</time>
      </trkpt>
      <trkpt lat="45.62026" lon="4.8999">
        <ele>195.60000610352</ele>
        <time>2024-05-21T06:03:48.000Z</time>
      </trkpt>
      <trkpt lat="45.62027" lon="4.8998">
        <ele>195.39999389648</ele>
        <time>2024-05-21T06:03:49.000Z</time>
      </trkpt>
      <trkpt lat="45.62029" lon="4.8997">
        <ele>195.19999694824</ele>
        <time>2024-05-21T06:03:50.000Z</time>
      </trkpt>
      <trkpt lat="45.62029" lon="4.8996">
        <ele>195</ele>
        <time>2024-05-21T06:03:51.000Z</time>
      </trkpt>
      <trkpt lat="45.62029" lon="4.89951">
        <ele>194.80000305176</ele>
        <time>2024-05-21T06:03:52.000Z</time>
      </trkpt>
      <trkpt lat="45.62029" lon="4.89942">
        <ele>194.80000305176</ele>
        <time>2024-05-21T06:03:53.000Z</time>
      </trkpt>
      <trkpt lat="45.62028" lon="4.89933">
        <ele>194.80000305176</ele>
        <time>2024-05-21T06:03:54.000Z</time>
      </trkpt>
      <trkpt lat="45.62026" lon="4.89925">
        <ele>194.80000305176</ele>
        <time>2024-05-21T06:03:55.000Z</time>
      </trkpt>
      <trkpt lat="45.62024" lon="4.89917">
        <ele>194.80000305176</ele>
        <time>2024-05-21T06:03:56.000Z</time>
      </trkpt>
      <trkpt lat="45.62021" lon="4.8991">
        <ele>195</ele>
        <time>2024-05-21T06:03:57.000Z</time>
      </trkpt>
      <trkpt lat="45.62018" lon="4.89902">
        <ele>195.39999389648</ele>
        <time>2024-05-21T06:03:58.000Z</time>
      </trkpt>
      <trkpt lat="45.62015" lon="4.89895">
        <ele>195.60000610352</ele>
        <time>2024-05-21T06:03:59.000Z</time>
      </trkpt>
      <trkpt lat="45.62011" lon="4.89889">
        <ele>195.80000305176</ele>
        <time>2024-05-21T06:04:00.000Z</time>
      </trkpt>
      <trkpt lat="45.62008" lon="4.89882">
        <ele>196.19999694824</ele>
        <time>2024-05-21T06:04:01.000Z</time>
      </trkpt>
      <trkpt lat="45.62004" lon="4.89875">
        <ele>196.19999694824</ele>
        <time>2024-05-21T06:04:02.000Z</time>
      </trkpt>
      <trkpt lat="45.62001" lon="4.89869">
        <ele>196.60000610352</ele>
        <time>2024-05-21T06:04:03.000Z</time>
      </trkpt>
      <trkpt lat="45.61997" lon="4.89864">
        <ele>196.60000610352</ele>
        <time>2024-05-21T06:04:04.000Z</time>
      </trkpt>
      <trkpt lat="45.61993" lon="4.89858">
        <ele>196.60000610352</ele>
        <time>2024-05-21T06:04:05.000Z</time>
      </trkpt>
      <trkpt lat="45.6199" lon="4.89852">
        <ele>196.80000305176</ele>
        <time>2024-05-21T06:04:06.000Z</time>
      </trkpt>
      <trkpt lat="45.61986" lon="4.89846">
        <ele>196.80000305176</ele>
        <time>2024-05-21T06:04:07.000Z</time>
      </trkpt>
      <trkpt lat="45.61983" lon="4.89841">
        <ele>197</ele>
        <time>2024-05-21T06:04:08.000Z</time>
      </trkpt>
      <trkpt lat="45.61979" lon="4.89835">
        <ele>197</ele>
        <time>2024-05-21T06:04:09.000Z</time>
      </trkpt>
      <trkpt lat="45.61976" lon="4.89829">
        <ele>197.19999694824</ele>
        <time>2024-05-21T06:04:10.000Z</time>
      </trkpt>
      <trkpt lat="45.61973" lon="4.89824">
        <ele>197.39999389648</ele>
        <time>2024-05-21T06:04:11.000Z</time>
      </trkpt>
      <trkpt lat="45.61969" lon="4.89818">
        <ele>197.39999389648</ele>
        <time>2024-05-21T06:04:12.000Z</time>
      </trkpt>
      <trkpt lat="45.61966" lon="4.89813">
        <ele>197.39999389648</ele>
        <time>2024-05-21T06:04:13.000Z</time>
      </trkpt>
      <trkpt lat="45.61962" lon="4.89808">
        <ele>197.39999389648</ele>
        <time>2024-05-21T06:04:14.000Z</time>
      </trkpt>
      <trkpt lat="45.61959" lon="4.89802">
        <ele>197.60000610352</ele>
        <time>2024-05-21T06:04:15.000Z</time>
      </trkpt>
      <trkpt lat="45.61955" lon="4.89797">
        <ele>197.60000610352</ele>
        <time>2024-05-21T06:04:16.000Z</time>
      </trkpt>
      <trkpt lat="45.61952" lon="4.89792">
        <ele>197.80000305176</ele>
        <time>2024-05-21T06:04:17.000Z</time>
      </trkpt>
      <trkpt lat="45.61949" lon="4.89787">
        <ele>197.80000305176</ele>
        <time>2024-05-21T06:04:18.000Z</time>
      </trkpt>
      <trkpt lat="45.61946" lon="4.89782">
        <ele>198</ele>
        <time>2024-05-21T06:04:19.000Z</time>
      </trkpt>
      <trkpt lat="45.61942" lon="4.89778">
        <ele>198</ele>
        <time>2024-05-21T06:04:20.000Z</time>
      </trkpt>
      <trkpt lat="45.61939" lon="4.89773">
        <ele>198.19999694824</ele>
        <time>2024-05-21T06:04:21.000Z</time>
      </trkpt>
      <trkpt lat="45.61935" lon="4.89768">
        <ele>198.19999694824</ele>
        <time>2024-05-21T06:04:22.000Z</time>
      </trkpt>
      <trkpt lat="45.61931" lon="4.89763">
        <ele>198.19999694824</ele>
        <time>2024-05-21T06:04:23.000Z</time>
      </trkpt>
      <trkpt lat="45.61928" lon="4.89758">
        <ele>198.39999389648</ele>
        <time>2024-05-21T06:04:24.000Z</time>
      </trkpt>
      <trkpt lat="45.61924" lon="4.89754">
        <ele>198.39999389648</ele>
        <time>2024-05-21T06:04:25.000Z</time>
      </trkpt>
      <trkpt lat="45.6192" lon="4.89749">
        <ele>198.60000610352</ele>
        <time>2024-05-21T06:04:26.000Z</time>
      </trkpt>
      <trkpt lat="45.61917" lon="4.89745">
        <ele>198.60000610352</ele>
        <time>2024-05-21T06:04:27.000Z</time>
      </trkpt>
      <trkpt lat="45.61913" lon="4.8974">
        <ele>198.60000610352</ele>
        <time>2024-05-21T06:04:28.000Z</time>
      </trkpt>
      <trkpt lat="45.61909" lon="4.89736">
        <ele>198.60000610352</ele>
        <time>2024-05-21T06:04:29.000Z</time>
      </trkpt>
      <trkpt lat="45.61905" lon="4.89732">
        <ele>198.80000305176</ele>
        <time>2024-05-21T06:04:30.000Z</time>
      </trkpt>
      <trkpt lat="45.61902" lon="4.89728">
        <ele>198.80000305176</ele>
        <time>2024-05-21T06:04:31.000Z</time>
      </trkpt>
      <trkpt lat="45.61898" lon="4.89724">
        <ele>199</ele>
        <time>2024-05-21T06:04:32.000Z</time>
      </trkpt>
      <trkpt lat="45.61894" lon="4.89719">
        <ele>199</ele>
        <time>2024-05-21T06:04:33.000Z</time>
      </trkpt>
      <trkpt lat="45.61891" lon="4.89715">
        <ele>199.19999694824</ele>
        <time>2024-05-21T06:04:34.000Z</time>
      </trkpt>
      <trkpt lat="45.61887" lon="4.89711">
        <ele>199.19999694824</ele>
        <time>2024-05-21T06:04:35.000Z</time>
      </trkpt>
      <trkpt lat="45.61884" lon="4.89707">
        <ele>199.19999694824</ele>
        <time>2024-05-21T06:04:36.000Z</time>
      </trkpt>
      <trkpt lat="45.6188" lon="4.89703">
        <ele>199.39999389648</ele>
        <time>2024-05-21T06:04:37.000Z</time>
      </trkpt>
      <trkpt lat="45.61877" lon="4.89698">
        <ele>199.39999389648</ele>
        <time>2024-05-21T06:04:38.000Z</time>
      </trkpt>
      <trkpt lat="45.61874" lon="4.89694">
        <ele>199.60000610352</ele>
        <time>2024-05-21T06:04:39.000Z</time>
      </trkpt>
      <trkpt lat="45.6187" lon="4.89691">
        <ele>199.60000610352</ele>
        <time>2024-05-21T06:04:40.000Z</time>
      </trkpt>
      <trkpt lat="45.61867" lon="4.89687">
        <ele>199.60000610352</ele>
        <time>2024-05-21T06:04:41.000Z</time>
      </trkpt>
      <trkpt lat="45.61862" lon="4.89683">
        <ele>199.60000610352</ele>
        <time>2024-05-21T06:04:42.000Z</time>
      </trkpt>
      <trkpt lat="45.61858" lon="4.8968">
        <ele>199.60000610352</ele>
        <time>2024-05-21T06:04:43.000Z</time>
      </trkpt>
      <trkpt lat="45.61853" lon="4.89678">
        <ele>199.60000610352</ele>
        <time>2024-05-21T06:04:44.000Z</time>
      </trkpt>
      <trkpt lat="45.61847" lon="4.89677">
        <ele>199.60000610352</ele>
        <time>2024-05-21T06:04:45.000Z</time>
      </trkpt>
      <trkpt lat="45.61842" lon="4.89677">
        <ele>199.39999389648</ele>
        <time>2024-05-21T06:04:46.000Z</time>
      </trkpt>
      <trkpt lat="45.61837" lon="4.89678">
        <ele>199.39999389648</ele>
        <time>2024-05-21T06:04:47.000Z</time>
      </trkpt>
      <trkpt lat="45.61832" lon="4.89679">
        <ele>199.39999389648</ele>
        <time>2024-05-21T06:04:48.000Z</time>
      </trkpt>
      <trkpt lat="45.61828" lon="4.89679">
        <ele>199.39999389648</ele>
        <time>2024-05-21T06:04:49.000Z</time>
      </trkpt>
      <trkpt lat="45.61824" lon="4.89679">
        <ele>199.39999389648</ele>
        <time>2024-05-21T06:04:50.000Z</time>
      </trkpt>
      <trkpt lat="45.6182" lon="4.89678">
        <ele>199.60000610352</ele>
        <time>2024-05-21T06:04:51.000Z</time>
      </trkpt>
      <trkpt lat="45.61817" lon="4.89678">
        <ele>200</ele>
        <time>2024-05-21T06:04:52.000Z</time>
      </trkpt>
      <trkpt lat="45.61814" lon="4.89677">
        <ele>200.39999389648</ele>
        <time>2024-05-21T06:04:53.000Z</time>
      </trkpt>
      <trkpt lat="45.61812" lon="4.89676">
        <ele>201</ele>
        <time>2024-05-21T06:04:54.000Z</time>
      </trkpt>
      <trkpt lat="45.6181" lon="4.89675">
        <ele>201.19999694824</ele>
        <time>2024-05-21T06:04:55.000Z</time>
      </trkpt>
      <trkpt lat="45.61809" lon="4.89673">
        <ele>201.60000610352</ele>
        <time>2024-05-21T06:04:56.000Z</time>
      </trkpt>
      <trkpt lat="45.61809" lon="4.89671">
        <ele>202</ele>
        <time>2024-05-21T06:04:57.000Z</time>
      </trkpt>
      <trkpt lat="45.61808" lon="4.89667">
        <ele>202.19999694824</ele>
        <time>2024-05-21T06:04:58.000Z</time>
      </trkpt>
      <trkpt lat="45.61808" lon="4.89663">
        <ele>202.19999694824</ele>
        <time>2024-05-21T06:04:59.000Z</time>
      </trkpt>
      <trkpt lat="45.61808" lon="4.89657">
        <ele>202.19999694824</ele>
        <time>2024-05-21T06:05:00.000Z</time>
      </trkpt>
      <trkpt lat="45.61807" lon="4.89652">
        <ele>202.19999694824</ele>
        <time>2024-05-21T06:05:01.000Z</time>
      </trkpt>
      <trkpt lat="45.61807" lon="4.89645">
        <ele>202.19999694824</ele>
        <time>2024-05-21T06:05:02.000Z</time>
      </trkpt>
      <trkpt lat="45.61806" lon="4.89639">
        <ele>202.19999694824</ele>
        <time>2024-05-21T06:05:03.000Z</time>
      </trkpt>
      <trkpt lat="45.61806" lon="4.89633">
        <ele>202.19999694824</ele>
        <time>2024-05-21T06:05:04.000Z</time>
      </trkpt>
      <trkpt lat="45.61805" lon="4.89626">
        <ele>202</ele>
        <time>2024-05-21T06:05:05.000Z</time>
      </trkpt>
      <trkpt lat="45.61804" lon="4.8962">
        <ele>202</ele>
        <time>2024-05-21T06:05:06.000Z</time>
      </trkpt>
      <trkpt lat="45.61802" lon="4.89613">
        <ele>202</ele>
        <time>2024-05-21T06:05:07.000Z</time>
      </trkpt>
      <trkpt lat="45.618" lon="4.89607">
        <ele>202</ele>
        <time>2024-05-21T06:05:08.000Z</time>
      </trkpt>
      <trkpt lat="45.61799" lon="4.89601">
        <ele>202</ele>
        <time>2024-05-21T06:05:09.000Z</time>
      </trkpt>
      <trkpt lat="45.61797" lon="4.89595">
        <ele>202.19999694824</ele>
        <time>2024-05-21T06:05:10.000Z</time>
      </trkpt>
      <trkpt lat="45.61795" lon="4.89589">
        <ele>202.19999694824</ele>
        <time>2024-05-21T06:05:11.000Z</time>
      </trkpt>
      <trkpt lat="45.61793" lon="4.89583">
        <ele>202.19999694824</ele>
        <time>2024-05-21T06:05:12.000Z</time>
      </trkpt>
      <trkpt lat="45.61791" lon="4.89576">
        <ele>202.39999389648</ele>
        <time>2024-05-21T06:05:13.000Z</time>
      </trkpt>
      <trkpt lat="45.61789" lon="4.8957">
        <ele>202.39999389648</ele>
        <time>2024-05-21T06:05:14.000Z</time>
      </trkpt>
      <trkpt lat="45.61787" lon="4.89563">
        <ele>202.39999389648</ele>
        <time>2024-05-21T06:05:15.000Z</time>
      </trkpt>
      <trkpt lat="45.61785" lon="4.89557">
        <ele>202.60000610352</ele>
        <time>2024-05-21T06:05:16.000Z</time>
      </trkpt>
      <trkpt lat="45.61783" lon="4.89551">
        <ele>202.39999389648</ele>
        <time>2024-05-21T06:05:17.000Z</time>
      </trkpt>
      <trkpt lat="45.61781" lon="4.89545">
        <ele>202.60000610352</ele>
        <time>2024-05-21T06:05:18.000Z</time>
      </trkpt>
      <trkpt lat="45.61778" lon="4.89539">
        <ele>202.60000610352</ele>
        <time>2024-05-21T06:05:19.000Z</time>
      </trkpt>
      <trkpt lat="45.61777" lon="4.89533">
        <ele>202.60000610352</ele>
        <time>2024-05-21T06:05:20.000Z</time>
      </trkpt>
      <trkpt lat="45.61775" lon="4.89527">
        <ele>202.60000610352</ele>
        <time>2024-05-21T06:05:21.000Z</time>
      </trkpt>
      <trkpt lat="45.61772" lon="4.89521">
        <ele>202.80000305176</ele>
        <time>2024-05-21T06:05:22.000Z</time>
      </trkpt>
      <trkpt lat="45.6177" lon="4.89515">
        <ele>202.80000305176</ele>
        <time>2024-05-21T06:05:23.000Z</time>
      </trkpt>
      <trkpt lat="45.61768" lon="4.89508">
        <ele>203</ele>
        <time>2024-05-21T06:05:24.000Z</time>
      </trkpt>
      <trkpt lat="45.61765" lon="4.89502">
        <ele>203</ele>
        <time>2024-05-21T06:05:25.000Z</time>
      </trkpt>
      <trkpt lat="45.61763" lon="4.89496">
        <ele>203.19999694824</ele>
        <time>2024-05-21T06:05:26.000Z</time>
      </trkpt>
      <trkpt lat="45.6176" lon="4.8949">
        <ele>203.19999694824</ele>
        <time>2024-05-21T06:05:27.000Z</time>
      </trkpt>
      <trkpt lat="45.61758" lon="4.89483">
        <ele>203.19999694824</ele>
        <time>2024-05-21T06:05:28.000Z</time>
      </trkpt>
      <trkpt lat="45.61755" lon="4.89477">
        <ele>203.19999694824</ele>
        <time>2024-05-21T06:05:29.000Z</time>
      </trkpt>
      <trkpt lat="45.61752" lon="4.89471">
        <ele>203.19999694824</ele>
        <time>2024-05-21T06:05:30.000Z</time>
      </trkpt>
      <trkpt lat="45.6175" lon="4.89465">
        <ele>203.19999694824</ele>
        <time>2024-05-21T06:05:31.000Z</time>
      </trkpt>
      <trkpt lat="45.61747" lon="4.89458">
        <ele>203.19999694824</ele>
        <time>2024-05-21T06:05:32.000Z</time>
      </trkpt>
      <trkpt lat="45.61744" lon="4.89452">
        <ele>203.39999389648</ele>
        <time>2024-05-21T06:05:33.000Z</time>
      </trkpt>
      <trkpt lat="45.61741" lon="4.89446">
        <ele>203.39999389648</ele>
        <time>2024-05-21T06:05:34.000Z</time>
      </trkpt>
      <trkpt lat="45.61739" lon="4.89439">
        <ele>203.39999389648</ele>
        <time>2024-05-21T06:05:35.000Z</time>
      </trkpt>
      <trkpt lat="45.61736" lon="4.89433">
        <ele>203.39999389648</ele>
        <time>2024-05-21T06:05:36.000Z</time>
      </trkpt>
      <trkpt lat="45.61733" lon="4.89426">
        <ele>203.39999389648</ele>
        <time>2024-05-21T06:05:37.000Z</time>
      </trkpt>
      <trkpt lat="45.6173" lon="4.8942">
        <ele>203.60000610352</ele>
        <time>2024-05-21T06:05:38.000Z</time>
      </trkpt>
      <trkpt lat="45.61727" lon="4.89414">
        <ele>203.60000610352</ele>
        <time>2024-05-21T06:05:39.000Z</time>
      </trkpt>
      <trkpt lat="45.61724" lon="4.89407">
        <ele>203.80000305176</ele>
        <time>2024-05-21T06:05:40.000Z</time>
      </trkpt>
      <trkpt lat="45.61722" lon="4.89401">
        <ele>203.80000305176</ele>
        <time>2024-05-21T06:05:41.000Z</time>
      </trkpt>
      <trkpt lat="45.61719" lon="4.89395">
        <ele>203.80000305176</ele>
        <time>2024-05-21T06:05:42.000Z</time>
      </trkpt>
      <trkpt lat="45.61716" lon="4.89388">
        <ele>204</ele>
        <time>2024-05-21T06:05:43.000Z</time>
      </trkpt>
      <trkpt lat="45.61713" lon="4.89382">
        <ele>204</ele>
        <time>2024-05-21T06:05:44.000Z</time>
      </trkpt>
      <trkpt lat="45.6171" lon="4.89375">
        <ele>204</ele>
        <time>2024-05-21T06:05:45.000Z</time>
      </trkpt>
      <trkpt lat="45.61707" lon="4.89369">
        <ele>204</ele>
        <time>2024-05-21T06:05:46.000Z</time>
      </trkpt>
      <trkpt lat="45.61704" lon="4.89362">
        <ele>204</ele>
        <time>2024-05-21T06:05:47.000Z</time>
      </trkpt>
      <trkpt lat="45.61702" lon="4.89356">
        <ele>204.19999694824</ele>
        <time>2024-05-21T06:05:48.000Z</time>
      </trkpt>
      <trkpt lat="45.61699" lon="4.89349">
        <ele>204.19999694824</ele>
        <time>2024-05-21T06:05:49.000Z</time>
      </trkpt>
      <trkpt lat="45.61696" lon="4.89342">
        <ele>204.19999694824</ele>
        <time>2024-05-21T06:05:50.000Z</time>
      </trkpt>
      <trkpt lat="45.61693" lon="4.89335">
        <ele>204.19999694824</ele>
        <time>2024-05-21T06:05:51.000Z</time>
      </trkpt>
      <trkpt lat="45.6169" lon="4.89328">
        <ele>204.19999694824</ele>
        <time>2024-05-21T06:05:52.000Z</time>
      </trkpt>
      <trkpt lat="45.61687" lon="4.8932">
        <ele>204</ele>
        <time>2024-05-21T06:05:53.000Z</time>
      </trkpt>
      <trkpt lat="45.61685" lon="4.89312">
        <ele>203.80000305176</ele>
        <time>2024-05-21T06:05:54.000Z</time>
      </trkpt>
      <trkpt lat="45.61682" lon="4.89303">
        <ele>203.80000305176</ele>
        <time>2024-05-21T06:05:55.000Z</time>
      </trkpt>
      <trkpt lat="45.61679" lon="4.89295">
        <ele>203.60000610352</ele>
        <time>2024-05-21T06:05:56.000Z</time>
      </trkpt>
      <trkpt lat="45.61677" lon="4.89286">
        <ele>203.39999389648</ele>
        <time>2024-05-21T06:05:57.000Z</time>
      </trkpt>
      <trkpt lat="45.61674" lon="4.89278">
        <ele>203.19999694824</ele>
        <time>2024-05-21T06:05:58.000Z</time>
      </trkpt>
      <trkpt lat="45.61672" lon="4.89269">
        <ele>203</ele>
        <time>2024-05-21T06:05:59.000Z</time>
      </trkpt>
      <trkpt lat="45.61669" lon="4.8926">
        <ele>202.80000305176</ele>
        <time>2024-05-21T06:06:00.000Z</time>
      </trkpt>
      <trkpt lat="45.61666" lon="4.89251">
        <ele>202.60000610352</ele>
        <time>2024-05-21T06:06:01.000Z</time>
      </trkpt>
      <trkpt lat="45.61664" lon="4.89243">
        <ele>202.60000610352</ele>
        <time>2024-05-21T06:06:02.000Z</time>
      </trkpt>
      <trkpt lat="45.61661" lon="4.89234">
        <ele>202.39999389648</ele>
        <time>2024-05-21T06:06:03.000Z</time>
      </trkpt>
      <trkpt lat="45.61658" lon="4.89226">
        <ele>202.39999389648</ele>
        <time>2024-05-21T06:06:04.000Z</time>
      </trkpt>
      <trkpt lat="45.61655" lon="4.89217">
        <ele>202.19999694824</ele>
        <time>2024-05-21T06:06:05.000Z</time>
      </trkpt>
      <trkpt lat="45.61651" lon="4.89209">
        <ele>202.19999694824</ele>
        <time>2024-05-21T06:06:06.000Z</time>
      </trkpt>
      <trkpt lat="45.61648" lon="4.892">
        <ele>202</ele>
        <time>2024-05-21T06:06:07.000Z</time>
      </trkpt>
      <trkpt lat="45.61645" lon="4.89192">
        <ele>202</ele>
        <time>2024-05-21T06:06:08.000Z</time>
      </trkpt>
      <trkpt lat="45.61642" lon="4.89184">
        <ele>202</ele>
        <time>2024-05-21T06:06:09.000Z</time>
      </trkpt>
      <trkpt lat="45.61639" lon="4.89175">
        <ele>201.80000305176</ele>
        <time>2024-05-21T06:06:10.000Z</time>
      </trkpt>
      <trkpt lat="45.61636" lon="4.89167">
        <ele>201.60000610352</ele>
        <time>2024-05-21T06:06:11.000Z</time>
      </trkpt>
      <trkpt lat="45.61633" lon="4.89159">
        <ele>201.60000610352</ele>
        <time>2024-05-21T06:06:12.000Z</time>
      </trkpt>
      <trkpt lat="45.61629" lon="4.89151">
        <ele>201.60000610352</ele>
        <time>2024-05-21T06:06:13.000Z</time>
      </trkpt>
      <trkpt lat="45.61626" lon="4.89143">
        <ele>201.60000610352</ele>
        <time>2024-05-21T06:06:14.000Z</time>
      </trkpt>
      <trkpt lat="45.61623" lon="4.89135">
        <ele>201.60000610352</ele>
        <time>2024-05-21T06:06:15.000Z</time>
      </trkpt>
      <trkpt lat="45.61619" lon="4.89128">
        <ele>201.60000610352</ele>
        <time>2024-05-21T06:06:16.000Z</time>
      </trkpt>
      <trkpt lat="45.61616" lon="4.8912">
        <ele>201.60000610352</ele>
        <time>2024-05-21T06:06:17.000Z</time>
      </trkpt>
      <trkpt lat="45.61613" lon="4.89113">
        <ele>201.60000610352</ele>
        <time>2024-05-21T06:06:18.000Z</time>
      </trkpt>
      <trkpt lat="45.61609" lon="4.89106">
        <ele>201.60000610352</ele>
        <time>2024-05-21T06:06:19.000Z</time>
      </trkpt>
      <trkpt lat="45.61606" lon="4.891">
        <ele>201.39999389648</ele>
        <time>2024-05-21T06:06:20.000Z</time>
      </trkpt>
      <trkpt lat="45.61602" lon="4.89093">
        <ele>201.39999389648</ele>
        <time>2024-05-21T06:06:21.000Z</time>
      </trkpt>
      <trkpt lat="45.61598" lon="4.89087">
        <ele>201.39999389648</ele>
        <time>2024-05-21T06:06:22.000Z</time>
      </trkpt>
      <trkpt lat="45.61595" lon="4.89081">
        <ele>201.60000610352</ele>
        <time>2024-05-21T06:06:23.000Z</time>
      </trkpt>
      <trkpt lat="45.61591" lon="4.89075">
        <ele>201.80000305176</ele>
        <time>2024-05-21T06:06:24.000Z</time>
      </trkpt>
      <trkpt lat="45.61588" lon="4.8907">
        <ele>202</ele>
        <time>2024-05-21T06:06:25.000Z</time>
      </trkpt>
      <trkpt lat="45.61584" lon="4.89064">
        <ele>202.19999694824</ele>
        <time>2024-05-21T06:06:26.000Z</time>
      </trkpt>
      <trkpt lat="45.61581" lon="4.89059">
        <ele>202.19999694824</ele>
        <time>2024-05-21T06:06:27.000Z</time>
      </trkpt>
      <trkpt lat="45.61577" lon="4.89053">
        <ele>202.39999389648</ele>
        <time>2024-05-21T06:06:28.000Z</time>
      </trkpt>
      <trkpt lat="45.61574" lon="4.89048">
        <ele>202.39999389648</ele>
        <time>2024-05-21T06:06:29.000Z</time>
      </trkpt>
      <trkpt lat="45.61571" lon="4.89043">
        <ele>202.60000610352</ele>
        <time>2024-05-21T06:06:30.000Z</time>
      </trkpt>
      <trkpt lat="45.61567" lon="4.89038">
        <ele>202.80000305176</ele>
        <time>2024-05-21T06:06:31.000Z</time>
      </trkpt>
      <trkpt lat="45.61564" lon="4.89033">
        <ele>202.80000305176</ele>
        <time>2024-05-21T06:06:32.000Z</time>
      </trkpt>
      <trkpt lat="45.61561" lon="4.89028">
        <ele>203.19999694824</ele>
        <time>2024-05-21T06:06:33.000Z</time>
      </trkpt>
      <trkpt lat="45.61558" lon="4.89024">
        <ele>203.39999389648</ele>
        <time>2024-05-21T06:06:34.000Z</time>
      </trkpt>
      <trkpt lat="45.61555" lon="4.89019">
        <ele>203.60000610352</ele>
        <time>2024-05-21T06:06:35.000Z</time>
      </trkpt>
      <trkpt lat="45.61552" lon="4.89014">
        <ele>203.60000610352</ele>
        <time>2024-05-21T06:06:36.000Z</time>
      </trkpt>
      <trkpt lat="45.61549" lon="4.89009">
        <ele>204</ele>
        <time>2024-05-21T06:06:37.000Z</time>
      </trkpt>
      <trkpt lat="45.61546" lon="4.89005">
        <ele>204</ele>
        <time>2024-05-21T06:06:38.000Z</time>
      </trkpt>
      <trkpt lat="45.61543" lon="4.89">
        <ele>204.19999694824</ele>
        <time>2024-05-21T06:06:39.000Z</time>
      </trkpt>
      <trkpt lat="45.61543" lon="4.89">
        <ele>204.19999694824</ele>
        <time>2024-05-21T06:06:40.000Z</time>
      </trkpt>
      <trkpt lat="45.61537" lon="4.88991">
        <ele>204.39999389648</ele>
        <time>2024-05-21T06:06:41.000Z</time>
      </trkpt>
      <trkpt lat="45.61535" lon="4.88987">
        <ele>204.60000610352</ele>
        <time>2024-05-21T06:06:42.000Z</time>
      </trkpt>
      <trkpt lat="45.61532" lon="4.88983">
        <ele>204.60000610352</ele>
        <time>2024-05-21T06:06:43.000Z</time>
      </trkpt>
      <trkpt lat="45.61529" lon="4.88978">
        <ele>204.80000305176</ele>
        <time>2024-05-21T06:06:44.000Z</time>
      </trkpt>
      <trkpt lat="45.61527" lon="4.88974">
        <ele>204.80000305176</ele>
        <time>2024-05-21T06:06:45.000Z</time>
      </trkpt>
      <trkpt lat="45.61524" lon="4.8897">
        <ele>205</ele>
        <time>2024-05-21T06:06:46.000Z</time>
      </trkpt>
      <trkpt lat="45.61522" lon="4.88966">
        <ele>205.19999694824</ele>
        <time>2024-05-21T06:06:47.000Z</time>
      </trkpt>
      <trkpt lat="45.61519" lon="4.88962">
        <ele>205.19999694824</ele>
        <time>2024-05-21T06:06:48.000Z</time>
      </trkpt>
      <trkpt lat="45.61516" lon="4.88957">
        <ele>205.39999389648</ele>
        <time>2024-05-21T06:06:49.000Z</time>
      </trkpt>
      <trkpt lat="45.61514" lon="4.88953">
        <ele>205.60000610352</ele>
        <time>2024-05-21T06:06:50.000Z</time>
      </trkpt>
      <trkpt lat="45.61511" lon="4.88949">
        <ele>205.80000305176</ele>
        <time>2024-05-21T06:06:51.000Z</time>
      </trkpt>
      <trkpt lat="45.61508" lon="4.88945">
        <ele>205.80000305176</ele>
        <time>2024-05-21T06:06:52.000Z</time>
      </trkpt>
      <trkpt lat="45.61505" lon="4.88941">
        <ele>206</ele>
        <time>2024-05-21T06:06:53.000Z</time>
      </trkpt>
      <trkpt lat="45.61503" lon="4.88937">
        <ele>206.19999694824</ele>
        <time>2024-05-21T06:06:54.000Z</time>
      </trkpt>
      <trkpt lat="45.615" lon="4.88933">
        <ele>206.39999389648</ele>
        <time>2024-05-21T06:06:55.000Z</time>
      </trkpt>
      <trkpt lat="45.61497" lon="4.88929">
        <ele>206.60000610352</ele>
        <time>2024-05-21T06:06:56.000Z</time>
      </trkpt>
      <trkpt lat="45.61494" lon="4.88925">
        <ele>206.60000610352</ele>
        <time>2024-05-21T06:06:57.000Z</time>
      </trkpt>
      <trkpt lat="45.61492" lon="4.88921">
        <ele>206.60000610352</ele>
        <time>2024-05-21T06:06:58.000Z</time>
      </trkpt>
      <trkpt lat="45.61489" lon="4.88916">
        <ele>206.80000305176</ele>
        <time>2024-05-21T06:06:59.000Z</time>
      </trkpt>
      <trkpt lat="45.61486" lon="4.88912">
        <ele>207</ele>
        <time>2024-05-21T06:07:00.000Z</time>
      </trkpt>
      <trkpt lat="45.61483" lon="4.88908">
        <ele>207</ele>
        <time>2024-05-21T06:07:01.000Z</time>
      </trkpt>
      <trkpt lat="45.61481" lon="4.88903">
        <ele>207.19999694824</ele>
        <time>2024-05-21T06:07:02.000Z</time>
      </trkpt>
      <trkpt lat="45.61478" lon="4.88899">
        <ele>207.39999389648</ele>
        <time>2024-05-21T06:07:03.000Z</time>
      </trkpt>
      <trkpt lat="45.61475" lon="4.88895">
        <ele>207.39999389648</ele>
        <time>2024-05-21T06:07:04.000Z</time>
      </trkpt>
      <trkpt lat="45.61473" lon="4.88891">
        <ele>207.39999389648</ele>
        <time>2024-05-21T06:07:05.000Z</time>
      </trkpt>
      <trkpt lat="45.6147" lon="4.88887">
        <ele>207.60000610352</ele>
        <time>2024-05-21T06:07:06.000Z</time>
      </trkpt>
      <trkpt lat="45.61467" lon="4.88883">
        <ele>207.80000305176</ele>
        <time>2024-05-21T06:07:07.000Z</time>
      </trkpt>
      <trkpt lat="45.61465" lon="4.88879">
        <ele>207.80000305176</ele>
        <time>2024-05-21T06:07:08.000Z</time>
      </trkpt>
      <trkpt lat="45.61462" lon="4.88875">
        <ele>208</ele>
        <time>2024-05-21T06:07:09.000Z</time>
      </trkpt>
      <trkpt lat="45.6146" lon="4.88871">
        <ele>208.19999694824</ele>
        <time>2024-05-21T06:07:10.000Z</time>
      </trkpt>
      <trkpt lat="45.61457" lon="4.88868">
        <ele>208.60000610352</ele>
        <time>2024-05-21T06:07:11.000Z</time>
      </trkpt>
      <trkpt lat="45.61455" lon="4.88864">
        <ele>208.60000610352</ele>
        <time>2024-05-21T06:07:12.000Z</time>
      </trkpt>
      <trkpt lat="45.61452" lon="4.8886">
        <ele>208.80000305176</ele>
        <time>2024-05-21T06:07:13.000Z</time>
      </trkpt>
      <trkpt lat="45.6145" lon="4.88856">
        <ele>209</ele>
        <time>2024-05-21T06:07:14.000Z</time>
      </trkpt>
      <trkpt lat="45.61447" lon="4.88852">
        <ele>209.19999694824</ele>
        <time>2024-05-21T06:07:15.000Z</time>
      </trkpt>
      <trkpt lat="45.61445" lon="4.88848">
        <ele>209.39999389648</ele>
        <time>2024-05-21T06:07:16.000Z</time>
      </trkpt>
      <trkpt lat="45.61442" lon="4.88844">
        <ele>209.60000610352</ele>
        <time>2024-05-21T06:07:17.000Z</time>
      </trkpt>
      <trkpt lat="45.6144" lon="4.8884">
        <ele>209.80000305176</ele>
        <time>2024-05-21T06:07:18.000Z</time>
      </trkpt>
      <trkpt lat="45.61438" lon="4.88836">
        <ele>209.80000305176</ele>
        <time>2024-05-21T06:07:19.000Z</time>
      </trkpt>
      <trkpt lat="45.61435" lon="4.88833">
        <ele>210</ele>
        <time>2024-05-21T06:07:20.000Z</time>
      </trkpt>
      <trkpt lat="45.61432" lon="4.88831">
        <ele>210.19999694824</ele>
        <time>2024-05-21T06:07:21.000Z</time>
      </trkpt>
      <trkpt lat="45.6143" lon="4.88832">
        <ele>210.60000610352</ele>
        <time>2024-05-21T06:07:22.000Z</time>
      </trkpt>
      <trkpt lat="45.61427" lon="4.88834">
        <ele>210.60000610352</ele>
        <time>2024-05-21T06:07:23.000Z</time>
      </trkpt>
      <trkpt lat="45.61425" lon="4.88834">
        <ele>210.80000305176</ele>
        <time>2024-05-21T06:07:24.000Z</time>
      </trkpt>
      <trkpt lat="45.61422" lon="4.88833">
        <ele>211</ele>
        <time>2024-05-21T06:07:25.000Z</time>
      </trkpt>
      <trkpt lat="45.6142" lon="4.8883">
        <ele>211.19999694824</ele>
        <time>2024-05-21T06:07:26.000Z</time>
      </trkpt>
      <trkpt lat="45.61418" lon="4.88826">
        <ele>211.39999389648</ele>
        <time>2024-05-21T06:07:27.000Z</time>
      </trkpt>
      <trkpt lat="45.61416" lon="4.88823">
        <ele>211.60000610352</ele>
        <time>2024-05-21T06:07:28.000Z</time>
      </trkpt>
      <trkpt lat="45.61414" lon="4.88819">
        <ele>211.60000610352</ele>
        <time>2024-05-21T06:07:29.000Z</time>
      </trkpt>
      <trkpt lat="45.61412" lon="4.88815">
        <ele>211.80000305176</ele>
        <time>2024-05-21T06:07:30.000Z</time>
      </trkpt>
      <trkpt lat="45.6141" lon="4.88811">
        <ele>211.80000305176</ele>
        <time>2024-05-21T06:07:31.000Z</time>
      </trkpt>
      <trkpt lat="45.61408" lon="4.88807">
        <ele>212</ele>
        <time>2024-05-21T06:07:32.000Z</time>
      </trkpt>
      <trkpt lat="45.61407" lon="4.88804">
        <ele>212.19999694824</ele>
        <time>2024-05-21T06:07:33.000Z</time>
      </trkpt>
      <trkpt lat="45.61405" lon="4.88799">
        <ele>212.19999694824</ele>
        <time>2024-05-21T06:07:34.000Z</time>
      </trkpt>
      <trkpt lat="45.61404" lon="4.88795">
        <ele>212.39999389648</ele>
        <time>2024-05-21T06:07:35.000Z</time>
      </trkpt>
      <trkpt lat="45.61402" lon="4.88791">
        <ele>212.80000305176</ele>
        <time>2024-05-21T06:07:36.000Z</time>
      </trkpt>
      <trkpt lat="45.61401" lon="4.88787">
        <ele>212.80000305176</ele>
        <time>2024-05-21T06:07:37.000Z</time>
      </trkpt>
      <trkpt lat="45.61399" lon="4.88782">
        <ele>213</ele>
        <time>2024-05-21T06:07:38.000Z</time>
      </trkpt>
      <trkpt lat="45.61398" lon="4.88778">
        <ele>213.19999694824</ele>
        <time>2024-05-21T06:07:39.000Z</time>
      </trkpt>
      <trkpt lat="45.61396" lon="4.88773">
        <ele>213.39999389648</ele>
        <time>2024-05-21T06:07:40.000Z</time>
      </trkpt>
      <trkpt lat="45.61395" lon="4.88769">
        <ele>213.60000610352</ele>
        <time>2024-05-21T06:07:41.000Z</time>
      </trkpt>
      <trkpt lat="45.61394" lon="4.88764">
        <ele>213.60000610352</ele>
        <time>2024-05-21T06:07:42.000Z</time>
      </trkpt>
      <trkpt lat="45.61393" lon="4.88759">
        <ele>214</ele>
        <time>2024-05-21T06:07:43.000Z</time>
      </trkpt>
      <trkpt lat="45.61392" lon="4.88755">
        <ele>214</ele>
        <time>2024-05-21T06:07:44.000Z</time>
      </trkpt>
      <trkpt lat="45.61391" lon="4.8875">
        <ele>214.19999694824</ele>
        <time>2024-05-21T06:07:45.000Z</time>
      </trkpt>
      <trkpt lat="45.6139" lon="4.88745">
        <ele>214.39999389648</ele>
        <time>2024-05-21T06:07:46.000Z</time>
      </trkpt>
      <trkpt lat="45.6139" lon="4.88745">
        <ele>214.39999389648</ele>
        <time>2024-05-21T06:07:47.000Z</time>
      </trkpt>
      <trkpt lat="45.61389" lon="4.88741">
        <ele>214.60000610352</ele>
        <time>2024-05-21T06:07:48.000Z</time>
      </trkpt>
      <trkpt lat="45.61387" lon="4.88731">
        <ele>214.60000610352</ele>
        <time>2024-05-21T06:07:49.000Z</time>
      </trkpt>
      <trkpt lat="45.61386" lon="4.88726">
        <ele>214.60000610352</ele>
        <time>2024-05-21T06:07:50.000Z</time>
      </trkpt>
      <trkpt lat="45.61385" lon="4.88721">
        <ele>214.60000610352</ele>
        <time>2024-05-21T06:07:51.000Z</time>
      </trkpt>
      <trkpt lat="45.61384" lon="4.88718">
        <ele>214.80000305176</ele>
        <time>2024-05-21T06:07:52.000Z</time>
      </trkpt>
      <trkpt lat="45.61384" lon="4.88715">
        <ele>215</ele>
        <time>2024-05-21T06:07:53.000Z</time>
      </trkpt>
      <trkpt lat="45.61384" lon="4.88715">
        <ele>215</ele>
        <time>2024-05-21T06:07:54.000Z</time>
      </trkpt>
      <trkpt lat="45.61384" lon="4.88715">
        <ele>215.19999694824</ele>
        <time>2024-05-21T06:07:55.000Z</time>
      </trkpt>
      <trkpt lat="45.61385" lon="4.88709">
        <ele>216</ele>
        <time>2024-05-21T06:08:09.000Z</time>
      </trkpt>
      <trkpt lat="45.61386" lon="4.88705">
        <ele>216</ele>
        <time>2024-05-21T06:08:10.000Z</time>
      </trkpt>
      <trkpt lat="45.61386" lon="4.887">
        <ele>215.80000305176</ele>
        <time>2024-05-21T06:08:11.000Z</time>
      </trkpt>
      <trkpt lat="45.61386" lon="4.88696">
        <ele>215.60000610352</ele>
        <time>2024-05-21T06:08:12.000Z</time>
      </trkpt>
      <trkpt lat="45.61385" lon="4.8869">
        <ele>215.60000610352</ele>
        <time>2024-05-21T06:08:13.000Z</time>
      </trkpt>
      <trkpt lat="45.61383" lon="4.88685">
        <ele>215.39999389648</ele>
        <time>2024-05-21T06:08:14.000Z</time>
      </trkpt>
      <trkpt lat="45.61381" lon="4.88681">
        <ele>215.60000610352</ele>
        <time>2024-05-21T06:08:15.000Z</time>
      </trkpt>
      <trkpt lat="45.61378" lon="4.88677">
        <ele>215.60000610352</ele>
        <time>2024-05-21T06:08:16.000Z</time>
      </trkpt>
      <trkpt lat="45.61374" lon="4.88675">
        <ele>215.60000610352</ele>
        <time>2024-05-21T06:08:17.000Z</time>
      </trkpt>
      <trkpt lat="45.6137" lon="4.88673">
        <ele>215.60000610352</ele>
        <time>2024-05-21T06:08:18.000Z</time>
      </trkpt>
      <trkpt lat="45.61367" lon="4.88673">
        <ele>215.60000610352</ele>
        <time>2024-05-21T06:08:19.000Z</time>
      </trkpt>
      <trkpt lat="45.61363" lon="4.88674">
        <ele>215.60000610352</ele>
        <time>2024-05-21T06:08:20.000Z</time>
      </trkpt>
      <trkpt lat="45.61359" lon="4.88676">
        <ele>215.80000305176</ele>
        <time>2024-05-21T06:08:21.000Z</time>
      </trkpt>
      <trkpt lat="45.61355" lon="4.88677">
        <ele>215.80000305176</ele>
        <time>2024-05-21T06:08:22.000Z</time>
      </trkpt>
      <trkpt lat="45.61352" lon="4.88679">
        <ele>216</ele>
        <time>2024-05-21T06:08:23.000Z</time>
      </trkpt>
      <trkpt lat="45.61348" lon="4.88681">
        <ele>216.19999694824</ele>
        <time>2024-05-21T06:08:24.000Z</time>
      </trkpt>
      <trkpt lat="45.61344" lon="4.88683">
        <ele>216.39999389648</ele>
        <time>2024-05-21T06:08:25.000Z</time>
      </trkpt>
      <trkpt lat="45.61341" lon="4.88685">
        <ele>216.39999389648</ele>
        <time>2024-05-21T06:08:26.000Z</time>
      </trkpt>
      <trkpt lat="45.61338" lon="4.88687">
        <ele>216.60000610352</ele>
        <time>2024-05-21T06:08:27.000Z</time>
      </trkpt>
      <trkpt lat="45.61335" lon="4.88689">
        <ele>216.80000305176</ele>
        <time>2024-05-21T06:08:28.000Z</time>
      </trkpt>
      <trkpt lat="45.61332" lon="4.88691">
        <ele>217</ele>
        <time>2024-05-21T06:08:29.000Z</time>
      </trkpt>
      <trkpt lat="45.61329" lon="4.88692">
        <ele>217.19999694824</ele>
        <time>2024-05-21T06:08:30.000Z</time>
      </trkpt>
      <trkpt lat="45.61327" lon="4.88694">
        <ele>217.39999389648</ele>
        <time>2024-05-21T06:08:31.000Z</time>
      </trkpt>
      <trkpt lat="45.61324" lon="4.88695">
        <ele>217.60000610352</ele>
        <time>2024-05-21T06:08:32.000Z</time>
      </trkpt>
      <trkpt lat="45.61321" lon="4.88697">
        <ele>217.80000305176</ele>
        <time>2024-05-21T06:08:33.000Z</time>
      </trkpt>
      <trkpt lat="45.61319" lon="4.88698">
        <ele>218</ele>
        <time>2024-05-21T06:08:34.000Z</time>
      </trkpt>
      <trkpt lat="45.61316" lon="4.887">
        <ele>218.39999389648</ele>
        <time>2024-05-21T06:08:35.000Z</time>
      </trkpt>
      <trkpt lat="45.61313" lon="4.88701">
        <ele>218.60000610352</ele>
        <time>2024-05-21T06:08:36.000Z</time>
      </trkpt>
      <trkpt lat="45.61311" lon="4.88703">
        <ele>218.80000305176</ele>
        <time>2024-05-21T06:08:37.000Z</time>
      </trkpt>
      <trkpt lat="45.61308" lon="4.88704">
        <ele>219</ele>
        <time>2024-05-21T06:08:38.000Z</time>
      </trkpt>
      <trkpt lat="45.61306" lon="4.88705">
        <ele>219.19999694824</ele>
        <time>2024-05-21T06:08:39.000Z</time>
      </trkpt>
      <trkpt lat="45.61303" lon="4.88706">
        <ele>219.39999389648</ele>
        <time>2024-05-21T06:08:40.000Z</time>
      </trkpt>
      <trkpt lat="45.61301" lon="4.88708">
        <ele>219.39999389648</ele>
        <time>2024-05-21T06:08:41.000Z</time>
      </trkpt>
      <trkpt lat="45.61299" lon="4.88709">
        <ele>219.80000305176</ele>
        <time>2024-05-21T06:08:42.000Z</time>
      </trkpt>
      <trkpt lat="45.61296" lon="4.88711">
        <ele>220</ele>
        <time>2024-05-21T06:08:43.000Z</time>
      </trkpt>
      <trkpt lat="45.61293" lon="4.88711">
        <ele>220.19999694824</ele>
        <time>2024-05-21T06:08:44.000Z</time>
      </trkpt>
      <trkpt lat="45.6129" lon="4.88712">
        <ele>220.60000610352</ele>
        <time>2024-05-21T06:08:45.000Z</time>
      </trkpt>
      <trkpt lat="45.61287" lon="4.88713">
        <ele>220.80000305176</ele>
        <time>2024-05-21T06:08:46.000Z</time>
      </trkpt>
      <trkpt lat="45.61285" lon="4.88713">
        <ele>220.80000305176</ele>
        <time>2024-05-21T06:08:47.000Z</time>
      </trkpt>
      <trkpt lat="45.61283" lon="4.88713">
        <ele>221.19999694824</ele>
        <time>2024-05-21T06:08:48.000Z</time>
      </trkpt>
      <trkpt lat="45.6128" lon="4.88713">
        <ele>221.39999389648</ele>
        <time>2024-05-21T06:08:49.000Z</time>
      </trkpt>
      <trkpt lat="45.61277" lon="4.88713">
        <ele>221.60000610352</ele>
        <time>2024-05-21T06:08:50.000Z</time>
      </trkpt>
      <trkpt lat="45.61275" lon="4.88713">
        <ele>221.60000610352</ele>
        <time>2024-05-21T06:08:51.000Z</time>
      </trkpt>
      <trkpt lat="45.61273" lon="4.88713">
        <ele>221.60000610352</ele>
        <time>2024-05-21T06:08:52.000Z</time>
      </trkpt>
      <trkpt lat="45.6127" lon="4.88713">
        <ele>221.80000305176</ele>
        <time>2024-05-21T06:08:53.000Z</time>
      </trkpt>
      <trkpt lat="45.61267" lon="4.88713">
        <ele>222</ele>
        <time>2024-05-21T06:08:54.000Z</time>
      </trkpt>
      <trkpt lat="45.61264" lon="4.88713">
        <ele>222.19999694824</ele>
        <time>2024-05-21T06:08:55.000Z</time>
      </trkpt>
      <trkpt lat="45.61261" lon="4.88713">
        <ele>222.39999389648</ele>
        <time>2024-05-21T06:08:56.000Z</time>
      </trkpt>
      <trkpt lat="45.61258" lon="4.88712">
        <ele>222.60000610352</ele>
        <time>2024-05-21T06:08:57.000Z</time>
      </trkpt>
      <trkpt lat="45.61256" lon="4.88712">
        <ele>222.80000305176</ele>
        <time>2024-05-21T06:08:58.000Z</time>
      </trkpt>
      <trkpt lat="45.61253" lon="4.88712">
        <ele>222.80000305176</ele>
        <time>2024-05-21T06:08:59.000Z</time>
      </trkpt>
      <trkpt lat="45.6125" lon="4.88712">
        <ele>223</ele>
        <time>2024-05-21T06:09:00.000Z</time>
      </trkpt>
      <trkpt lat="45.61247" lon="4.88711">
        <ele>223.19999694824</ele>
        <time>2024-05-21T06:09:01.000Z</time>
      </trkpt>
      <trkpt lat="45.61244" lon="4.88711">
        <ele>223.39999389648</ele>
        <time>2024-05-21T06:09:02.000Z</time>
      </trkpt>
      <trkpt lat="45.61241" lon="4.88711">
        <ele>223.60000610352</ele>
        <time>2024-05-21T06:09:03.000Z</time>
      </trkpt>
      <trkpt lat="45.61239" lon="4.8871">
        <ele>223.80000305176</ele>
        <time>2024-05-21T06:09:04.000Z</time>
      </trkpt>
      <trkpt lat="45.61239" lon="4.8871">
        <ele>224.19999694824</ele>
        <time>2024-05-21T06:09:05.000Z</time>
      </trkpt>
      <trkpt lat="45.61233" lon="4.8871">
        <ele>224.39999389648</ele>
        <time>2024-05-21T06:09:06.000Z</time>
      </trkpt>
      <trkpt lat="45.6123" lon="4.8871">
        <ele>224.60000610352</ele>
        <time>2024-05-21T06:09:07.000Z</time>
      </trkpt>
      <trkpt lat="45.61227" lon="4.88709">
        <ele>224.60000610352</ele>
        <time>2024-05-21T06:09:08.000Z</time>
      </trkpt>
      <trkpt lat="45.61225" lon="4.88709">
        <ele>224.80000305176</ele>
        <time>2024-05-21T06:09:09.000Z</time>
      </trkpt>
      <trkpt lat="45.61222" lon="4.88708">
        <ele>225</ele>
        <time>2024-05-21T06:09:10.000Z</time>
      </trkpt>
      <trkpt lat="45.61219" lon="4.88707">
        <ele>225.19999694824</ele>
        <time>2024-05-21T06:09:11.000Z</time>
      </trkpt>
      <trkpt lat="45.61216" lon="4.88706">
        <ele>225.19999694824</ele>
        <time>2024-05-21T06:09:12.000Z</time>
      </trkpt>
      <trkpt lat="45.61213" lon="4.88706">
        <ele>225.39999389648</ele>
        <time>2024-05-21T06:09:13.000Z</time>
      </trkpt>
      <trkpt lat="45.6121" lon="4.88705">
        <ele>225.60000610352</ele>
        <time>2024-05-21T06:09:14.000Z</time>
      </trkpt>
      <trkpt lat="45.61208" lon="4.88705">
        <ele>225.80000305176</ele>
        <time>2024-05-21T06:09:15.000Z</time>
      </trkpt>
      <trkpt lat="45.61205" lon="4.88704">
        <ele>226</ele>
        <time>2024-05-21T06:09:16.000Z</time>
      </trkpt>
      <trkpt lat="45.61202" lon="4.88703">
        <ele>226.19999694824</ele>
        <time>2024-05-21T06:09:17.000Z</time>
      </trkpt>
      <trkpt lat="45.612" lon="4.88703">
        <ele>226.39999389648</ele>
        <time>2024-05-21T06:09:18.000Z</time>
      </trkpt>
      <trkpt lat="45.61197" lon="4.88702">
        <ele>226.60000610352</ele>
        <time>2024-05-21T06:09:19.000Z</time>
      </trkpt>
      <trkpt lat="45.61195" lon="4.88702">
        <ele>226.80000305176</ele>
        <time>2024-05-21T06:09:20.000Z</time>
      </trkpt>
      <trkpt lat="45.61192" lon="4.88701">
        <ele>226.80000305176</ele>
        <time>2024-05-21T06:09:21.000Z</time>
      </trkpt>
      <trkpt lat="45.6119" lon="4.88701">
        <ele>227</ele>
        <time>2024-05-21T06:09:22.000Z</time>
      </trkpt>
      <trkpt lat="45.61187" lon="4.887">
        <ele>227.19999694824</ele>
        <time>2024-05-21T06:09:23.000Z</time>
      </trkpt>
      <trkpt lat="45.61185" lon="4.887">
        <ele>227.39999389648</ele>
        <time>2024-05-21T06:09:24.000Z</time>
      </trkpt>
      <trkpt lat="45.61183" lon="4.88699">
        <ele>227.60000610352</ele>
        <time>2024-05-21T06:09:25.000Z</time>
      </trkpt>
      <trkpt lat="45.6118" lon="4.88698">
        <ele>227.80000305176</ele>
        <time>2024-05-21T06:09:26.000Z</time>
      </trkpt>
      <trkpt lat="45.61178" lon="4.88698">
        <ele>228</ele>
        <time>2024-05-21T06:09:27.000Z</time>
      </trkpt>
      <trkpt lat="45.61175" lon="4.88697">
        <ele>228.19999694824</ele>
        <time>2024-05-21T06:09:28.000Z</time>
      </trkpt>
      <trkpt lat="45.61173" lon="4.88696">
        <ele>228.19999694824</ele>
        <time>2024-05-21T06:09:29.000Z</time>
      </trkpt>
      <trkpt lat="45.6117" lon="4.88696">
        <ele>228.39999389648</ele>
        <time>2024-05-21T06:09:30.000Z</time>
      </trkpt>
      <trkpt lat="45.61168" lon="4.88695">
        <ele>228.60000610352</ele>
        <time>2024-05-21T06:09:31.000Z</time>
      </trkpt>
      <trkpt lat="45.61165" lon="4.88694">
        <ele>228.80000305176</ele>
        <time>2024-05-21T06:09:32.000Z</time>
      </trkpt>
      <trkpt lat="45.61163" lon="4.88693">
        <ele>229</ele>
        <time>2024-05-21T06:09:33.000Z</time>
      </trkpt>
      <trkpt lat="45.6116" lon="4.88693">
        <ele>229.19999694824</ele>
        <time>2024-05-21T06:09:34.000Z</time>
      </trkpt>
      <trkpt lat="45.61158" lon="4.88692">
        <ele>229.39999389648</ele>
        <time>2024-05-21T06:09:35.000Z</time>
      </trkpt>
      <trkpt lat="45.61155" lon="4.88692">
        <ele>229.60000610352</ele>
        <time>2024-05-21T06:09:36.000Z</time>
      </trkpt>
      <trkpt lat="45.61153" lon="4.88691">
        <ele>229.80000305176</ele>
        <time>2024-05-21T06:09:37.000Z</time>
      </trkpt>
      <trkpt lat="45.61151" lon="4.88691">
        <ele>230</ele>
        <time>2024-05-21T06:09:38.000Z</time>
      </trkpt>
      <trkpt lat="45.61149" lon="4.8869">
        <ele>230.19999694824</ele>
        <time>2024-05-21T06:09:39.000Z</time>
      </trkpt>
      <trkpt lat="45.61147" lon="4.88688">
        <ele>230.60000610352</ele>
        <time>2024-05-21T06:09:40.000Z</time>
      </trkpt>
      <trkpt lat="45.61144" lon="4.88688">
        <ele>230.80000305176</ele>
        <time>2024-05-21T06:09:41.000Z</time>
      </trkpt>
      <trkpt lat="45.61142" lon="4.88687">
        <ele>231</ele>
        <time>2024-05-21T06:09:42.000Z</time>
      </trkpt>
      <trkpt lat="45.6114" lon="4.88686">
        <ele>231.19999694824</ele>
        <time>2024-05-21T06:09:43.000Z</time>
      </trkpt>
      <trkpt lat="45.61138" lon="4.88685">
        <ele>231.60000610352</ele>
        <time>2024-05-21T06:09:44.000Z</time>
      </trkpt>
      <trkpt lat="45.61136" lon="4.88684">
        <ele>231.80000305176</ele>
        <time>2024-05-21T06:09:45.000Z</time>
      </trkpt>
      <trkpt lat="45.61134" lon="4.88683">
        <ele>232</ele>
        <time>2024-05-21T06:09:46.000Z</time>
      </trkpt>
      <trkpt lat="45.61132" lon="4.88683">
        <ele>232.19999694824</ele>
        <time>2024-05-21T06:09:47.000Z</time>
      </trkpt>
      <trkpt lat="45.6113" lon="4.88681">
        <ele>232.60000610352</ele>
        <time>2024-05-21T06:09:48.000Z</time>
      </trkpt>
      <trkpt lat="45.61128" lon="4.8868">
        <ele>233</ele>
        <time>2024-05-21T06:09:49.000Z</time>
      </trkpt>
      <trkpt lat="45.61126" lon="4.88678">
        <ele>233.19999694824</ele>
        <time>2024-05-21T06:09:50.000Z</time>
      </trkpt>
      <trkpt lat="45.61124" lon="4.88677">
        <ele>233.39999389648</ele>
        <time>2024-05-21T06:09:51.000Z</time>
      </trkpt>
      <trkpt lat="45.61122" lon="4.88676">
        <ele>233.60000610352</ele>
        <time>2024-05-21T06:09:52.000Z</time>
      </trkpt>
      <trkpt lat="45.61121" lon="4.88675">
        <ele>233.80000305176</ele>
        <time>2024-05-21T06:09:53.000Z</time>
      </trkpt>
      <trkpt lat="45.61119" lon="4.88673">
        <ele>234</ele>
        <time>2024-05-21T06:09:54.000Z</time>
      </trkpt>
      <trkpt lat="45.61117" lon="4.88671">
        <ele>234.19999694824</ele>
        <time>2024-05-21T06:09:55.000Z</time>
      </trkpt>
      <trkpt lat="45.61115" lon="4.88669">
        <ele>234.39999389648</ele>
        <time>2024-05-21T06:09:56.000Z</time>
      </trkpt>
      <trkpt lat="45.61113" lon="4.88668">
        <ele>234.60000610352</ele>
        <time>2024-05-21T06:09:57.000Z</time>
      </trkpt>
      <trkpt lat="45.61111" lon="4.88667">
        <ele>234.80000305176</ele>
        <time>2024-05-21T06:09:58.000Z</time>
      </trkpt>
      <trkpt lat="45.61109" lon="4.88665">
        <ele>235</ele>
        <time>2024-05-21T06:09:59.000Z</time>
      </trkpt>
      <trkpt lat="45.61107" lon="4.88664">
        <ele>235.19999694824</ele>
        <time>2024-05-21T06:10:00.000Z</time>
      </trkpt>
      <trkpt lat="45.61105" lon="4.88663">
        <ele>235.39999389648</ele>
        <time>2024-05-21T06:10:01.000Z</time>
      </trkpt>
      <trkpt lat="45.61103" lon="4.88662">
        <ele>235.39999389648</ele>
        <time>2024-05-21T06:10:02.000Z</time>
      </trkpt>
      <trkpt lat="45.611" lon="4.8866">
        <ele>235.60000610352</ele>
        <time>2024-05-21T06:10:03.000Z</time>
      </trkpt>
      <trkpt lat="45.61098" lon="4.88659">
        <ele>235.80000305176</ele>
        <time>2024-05-21T06:10:04.000Z</time>
      </trkpt>
      <trkpt lat="45.61096" lon="4.88658">
        <ele>236</ele>
        <time>2024-05-21T06:10:05.000Z</time>
      </trkpt>
      <trkpt lat="45.61094" lon="4.88658">
        <ele>236.19999694824</ele>
        <time>2024-05-21T06:10:06.000Z</time>
      </trkpt>
      <trkpt lat="45.61092" lon="4.88657">
        <ele>236.39999389648</ele>
        <time>2024-05-21T06:10:07.000Z</time>
      </trkpt>
      <trkpt lat="45.61089" lon="4.88656">
        <ele>236.39999389648</ele>
        <time>2024-05-21T06:10:08.000Z</time>
      </trkpt>
      <trkpt lat="45.61087" lon="4.88656">
        <ele>236.60000610352</ele>
        <time>2024-05-21T06:10:09.000Z</time>
      </trkpt>
      <trkpt lat="45.61085" lon="4.88656">
        <ele>236.80000305176</ele>
        <time>2024-05-21T06:10:10.000Z</time>
      </trkpt>
      <trkpt lat="45.61083" lon="4.88655">
        <ele>237</ele>
        <time>2024-05-21T06:10:11.000Z</time>
      </trkpt>
      <trkpt lat="45.61081" lon="4.88655">
        <ele>237.19999694824</ele>
        <time>2024-05-21T06:10:12.000Z</time>
      </trkpt>
      <trkpt lat="45.61078" lon="4.88654">
        <ele>237.39999389648</ele>
        <time>2024-05-21T06:10:13.000Z</time>
      </trkpt>
      <trkpt lat="45.61076" lon="4.88654">
        <ele>237.39999389648</ele>
        <time>2024-05-21T06:10:14.000Z</time>
      </trkpt>
      <trkpt lat="45.61076" lon="4.88654">
        <ele>237.60000610352</ele>
        <time>2024-05-21T06:10:15.000Z</time>
      </trkpt>
      <trkpt lat="45.61071" lon="4.88654">
        <ele>237.80000305176</ele>
        <time>2024-05-21T06:10:16.000Z</time>
      </trkpt>
      <trkpt lat="45.61069" lon="4.88654">
        <ele>238</ele>
        <time>2024-05-21T06:10:17.000Z</time>
      </trkpt>
      <trkpt lat="45.61067" lon="4.88654">
        <ele>238</ele>
        <time>2024-05-21T06:10:18.000Z</time>
      </trkpt>
      <trkpt lat="45.61064" lon="4.88655">
        <ele>238.39999389648</ele>
        <time>2024-05-21T06:10:19.000Z</time>
      </trkpt>
      <trkpt lat="45.61062" lon="4.88655">
        <ele>238.60000610352</ele>
        <time>2024-05-21T06:10:20.000Z</time>
      </trkpt>
      <trkpt lat="45.6106" lon="4.88655">
        <ele>238.60000610352</ele>
        <time>2024-05-21T06:10:21.000Z</time>
      </trkpt>
      <trkpt lat="45.61058" lon="4.88655">
        <ele>239</ele>
        <time>2024-05-21T06:10:22.000Z</time>
      </trkpt>
      <trkpt lat="45.61056" lon="4.88655">
        <ele>239.19999694824</ele>
        <time>2024-05-21T06:10:23.000Z</time>
      </trkpt>
      <trkpt lat="45.61054" lon="4.88655">
        <ele>239.39999389648</ele>
        <time>2024-05-21T06:10:24.000Z</time>
      </trkpt>
      <trkpt lat="45.61052" lon="4.88655">
        <ele>239.60000610352</ele>
        <time>2024-05-21T06:10:25.000Z</time>
      </trkpt>
      <trkpt lat="45.6105" lon="4.88655">
        <ele>239.80000305176</ele>
        <time>2024-05-21T06:10:26.000Z</time>
      </trkpt>
      <trkpt lat="45.61048" lon="4.88655">
        <ele>240</ele>
        <time>2024-05-21T06:10:27.000Z</time>
      </trkpt>
      <trkpt lat="45.61046" lon="4.88655">
        <ele>240.19999694824</ele>
        <time>2024-05-21T06:10:28.000Z</time>
      </trkpt>
      <trkpt lat="45.61044" lon="4.88654">
        <ele>240.39999389648</ele>
        <time>2024-05-21T06:10:29.000Z</time>
      </trkpt>
      <trkpt lat="45.61042" lon="4.88654">
        <ele>240.60000610352</ele>
        <time>2024-05-21T06:10:30.000Z</time>
      </trkpt>
      <trkpt lat="45.61039" lon="4.88654">
        <ele>240.80000305176</ele>
        <time>2024-05-21T06:10:31.000Z</time>
      </trkpt>
      <trkpt lat="45.61037" lon="4.88654">
        <ele>241</ele>
        <time>2024-05-21T06:10:32.000Z</time>
      </trkpt>
      <trkpt lat="45.61035" lon="4.88654">
        <ele>241.19999694824</ele>
        <time>2024-05-21T06:10:33.000Z</time>
      </trkpt>
      <trkpt lat="45.61033" lon="4.88654">
        <ele>241.39999389648</ele>
        <time>2024-05-21T06:10:34.000Z</time>
      </trkpt>
      <trkpt lat="45.61031" lon="4.88654">
        <ele>241.60000610352</ele>
        <time>2024-05-21T06:10:35.000Z</time>
      </trkpt>
      <trkpt lat="45.61029" lon="4.88653">
        <ele>241.80000305176</ele>
        <time>2024-05-21T06:10:36.000Z</time>
      </trkpt>
      <trkpt lat="45.61027" lon="4.88653">
        <ele>242</ele>
        <time>2024-05-21T06:10:37.000Z</time>
      </trkpt>
      <trkpt lat="45.61025" lon="4.88653">
        <ele>242.19999694824</ele>
        <time>2024-05-21T06:10:38.000Z</time>
      </trkpt>
      <trkpt lat="45.61023" lon="4.88653">
        <ele>242.19999694824</ele>
        <time>2024-05-21T06:10:39.000Z</time>
      </trkpt>
      <trkpt lat="45.61021" lon="4.88653">
        <ele>242.39999389648</ele>
        <time>2024-05-21T06:10:40.000Z</time>
      </trkpt>
      <trkpt lat="45.61019" lon="4.88653">
        <ele>242.80000305176</ele>
        <time>2024-05-21T06:10:41.000Z</time>
      </trkpt>
      <trkpt lat="45.61016" lon="4.88653">
        <ele>242.80000305176</ele>
        <time>2024-05-21T06:10:42.000Z</time>
      </trkpt>
      <trkpt lat="45.61015" lon="4.88653">
        <ele>243</ele>
        <time>2024-05-21T06:10:43.000Z</time>
      </trkpt>
      <trkpt lat="45.61013" lon="4.88652">
        <ele>243.19999694824</ele>
        <time>2024-05-21T06:10:44.000Z</time>
      </trkpt>
      <trkpt lat="45.61011" lon="4.88652">
        <ele>243.39999389648</ele>
        <time>2024-05-21T06:10:45.000Z</time>
      </trkpt>
      <trkpt lat="45.61009" lon="4.88652">
        <ele>243.80000305176</ele>
        <time>2024-05-21T06:10:46.000Z</time>
      </trkpt>
      <trkpt lat="45.61007" lon="4.88652">
        <ele>243.80000305176</ele>
        <time>2024-05-21T06:10:47.000Z</time>
      </trkpt>
      <trkpt lat="45.61005" lon="4.88652">
        <ele>244</ele>
        <time>2024-05-21T06:10:48.000Z</time>
      </trkpt>
      <trkpt lat="45.61003" lon="4.88651">
        <ele>244.19999694824</ele>
        <time>2024-05-21T06:10:49.000Z</time>
      </trkpt>
      <trkpt lat="45.61001" lon="4.88651">
        <ele>244.39999389648</ele>
        <time>2024-05-21T06:10:50.000Z</time>
      </trkpt>
      <trkpt lat="45.60999" lon="4.88651">
        <ele>244.60000610352</ele>
        <time>2024-05-21T06:10:51.000Z</time>
      </trkpt>
      <trkpt lat="45.60997" lon="4.88651">
        <ele>244.60000610352</ele>
        <time>2024-05-21T06:10:52.000Z</time>
      </trkpt>
      <trkpt lat="45.60995" lon="4.88651">
        <ele>244.80000305176</ele>
        <time>2024-05-21T06:10:53.000Z</time>
      </trkpt>
      <trkpt lat="45.60993" lon="4.88652">
        <ele>245</ele>
        <time>2024-05-21T06:10:54.000Z</time>
      </trkpt>
      <trkpt lat="45.60991" lon="4.88651">
        <ele>245.19999694824</ele>
        <time>2024-05-21T06:10:55.000Z</time>
      </trkpt>
      <trkpt lat="45.60989" lon="4.88651">
        <ele>245.39999389648</ele>
        <time>2024-05-21T06:10:56.000Z</time>
      </trkpt>
      <trkpt lat="45.60987" lon="4.88651">
        <ele>245.60000610352</ele>
        <time>2024-05-21T06:10:57.000Z</time>
      </trkpt>
      <trkpt lat="45.60985" lon="4.88651">
        <ele>245.80000305176</ele>
        <time>2024-05-21T06:10:58.000Z</time>
      </trkpt>
      <trkpt lat="45.60983" lon="4.88651">
        <ele>246</ele>
        <time>2024-05-21T06:10:59.000Z</time>
      </trkpt>
      <trkpt lat="45.60981" lon="4.88651">
        <ele>246.19999694824</ele>
        <time>2024-05-21T06:11:00.000Z</time>
      </trkpt>
      <trkpt lat="45.60979" lon="4.8865">
        <ele>246.39999389648</ele>
        <time>2024-05-21T06:11:01.000Z</time>
      </trkpt>
      <trkpt lat="45.60977" lon="4.8865">
        <ele>246.60000610352</ele>
        <time>2024-05-21T06:11:02.000Z</time>
      </trkpt>
      <trkpt lat="45.60975" lon="4.8865">
        <ele>246.80000305176</ele>
        <time>2024-05-21T06:11:03.000Z</time>
      </trkpt>
      <trkpt lat="45.60973" lon="4.8865">
        <ele>247</ele>
        <time>2024-05-21T06:11:04.000Z</time>
      </trkpt>
      <trkpt lat="45.60971" lon="4.8865">
        <ele>247</ele>
        <time>2024-05-21T06:11:05.000Z</time>
      </trkpt>
      <trkpt lat="45.60969" lon="4.8865">
        <ele>247.39999389648</ele>
        <time>2024-05-21T06:11:06.000Z</time>
      </trkpt>
      <trkpt lat="45.60967" lon="4.8865">
        <ele>247.60000610352</ele>
        <time>2024-05-21T06:11:07.000Z</time>
      </trkpt>
      <trkpt lat="45.60965" lon="4.8865">
        <ele>247.80000305176</ele>
        <time>2024-05-21T06:11:08.000Z</time>
      </trkpt>
      <trkpt lat="45.60963" lon="4.8865">
        <ele>248</ele>
        <time>2024-05-21T06:11:09.000Z</time>
      </trkpt>
      <trkpt lat="45.60961" lon="4.8865">
        <ele>248.19999694824</ele>
        <time>2024-05-21T06:11:10.000Z</time>
      </trkpt>
      <trkpt lat="45.60959" lon="4.8865">
        <ele>248.39999389648</ele>
        <time>2024-05-21T06:11:11.000Z</time>
      </trkpt>
      <trkpt lat="45.60957" lon="4.88651">
        <ele>248.60000610352</ele>
        <time>2024-05-21T06:11:12.000Z</time>
      </trkpt>
      <trkpt lat="45.60955" lon="4.88651">
        <ele>248.80000305176</ele>
        <time>2024-05-21T06:11:13.000Z</time>
      </trkpt>
      <trkpt lat="45.60953" lon="4.88651">
        <ele>249.19999694824</ele>
        <time>2024-05-21T06:11:14.000Z</time>
      </trkpt>
      <trkpt lat="45.60951" lon="4.8865">
        <ele>249.19999694824</ele>
        <time>2024-05-21T06:11:15.000Z</time>
      </trkpt>
      <trkpt lat="45.60949" lon="4.8865">
        <ele>249.60000610352</ele>
        <time>2024-05-21T06:11:16.000Z</time>
      </trkpt>
      <trkpt lat="45.60947" lon="4.8865">
        <ele>249.80000305176</ele>
        <time>2024-05-21T06:11:17.000Z</time>
      </trkpt>
      <trkpt lat="45.60945" lon="4.8865">
        <ele>249.80000305176</ele>
        <time>2024-05-21T06:11:18.000Z</time>
      </trkpt>
      <trkpt lat="45.60943" lon="4.8865">
        <ele>250</ele>
        <time>2024-05-21T06:11:19.000Z</time>
      </trkpt>
      <trkpt lat="45.60941" lon="4.8865">
        <ele>250.19999694824</ele>
        <time>2024-05-21T06:11:20.000Z</time>
      </trkpt>
      <trkpt lat="45.60939" lon="4.8865">
        <ele>250.39999389648</ele>
        <time>2024-05-21T06:11:21.000Z</time>
      </trkpt>
      <trkpt lat="45.60937" lon="4.88649">
        <ele>250.60000610352</ele>
        <time>2024-05-21T06:11:22.000Z</time>
      </trkpt>
      <trkpt lat="45.60935" lon="4.88649">
        <ele>251</ele>
        <time>2024-05-21T06:11:23.000Z</time>
      </trkpt>
      <trkpt lat="45.60933" lon="4.88649">
        <ele>251</ele>
        <time>2024-05-21T06:11:24.000Z</time>
      </trkpt>
      <trkpt lat="45.60931" lon="4.8865">
        <ele>251.19999694824</ele>
        <time>2024-05-21T06:11:25.000Z</time>
      </trkpt>
      <trkpt lat="45.6093" lon="4.8865">
        <ele>251.39999389648</ele>
        <time>2024-05-21T06:11:26.000Z</time>
      </trkpt>
      <trkpt lat="45.60928" lon="4.8865">
        <ele>251.60000610352</ele>
        <time>2024-05-21T06:11:27.000Z</time>
      </trkpt>
      <trkpt lat="45.60926" lon="4.8865">
        <ele>251.80000305176</ele>
        <time>2024-05-21T06:11:28.000Z</time>
      </trkpt>
      <trkpt lat="45.60924" lon="4.88651">
        <ele>251.80000305176</ele>
        <time>2024-05-21T06:11:29.000Z</time>
      </trkpt>
      <trkpt lat="45.60922" lon="4.88651">
        <ele>252</ele>
        <time>2024-05-21T06:11:30.000Z</time>
      </trkpt>
      <trkpt lat="45.6092" lon="4.88651">
        <ele>252.19999694824</ele>
        <time>2024-05-21T06:11:31.000Z</time>
      </trkpt>
      <trkpt lat="45.60918" lon="4.88651">
        <ele>252.39999389648</ele>
        <time>2024-05-21T06:11:32.000Z</time>
      </trkpt>
      <trkpt lat="45.60916" lon="4.88652">
        <ele>252.60000610352</ele>
        <time>2024-05-21T06:11:33.000Z</time>
      </trkpt>
      <trkpt lat="45.60914" lon="4.88652">
        <ele>252.80000305176</ele>
        <time>2024-05-21T06:11:34.000Z</time>
      </trkpt>
      <trkpt lat="45.60912" lon="4.88652">
        <ele>253</ele>
        <time>2024-05-21T06:11:35.000Z</time>
      </trkpt>
      <trkpt lat="45.6091" lon="4.88653">
        <ele>253.19999694824</ele>
        <time>2024-05-21T06:11:36.000Z</time>
      </trkpt>
      <trkpt lat="45.60908" lon="4.88653">
        <ele>253.39999389648</ele>
        <time>2024-05-21T06:11:37.000Z</time>
      </trkpt>
      <trkpt lat="45.60906" lon="4.88653">
        <ele>253.60000610352</ele>
        <time>2024-05-21T06:11:38.000Z</time>
      </trkpt>
      <trkpt lat="45.60904" lon="4.88654">
        <ele>253.80000305176</ele>
        <time>2024-05-21T06:11:39.000Z</time>
      </trkpt>
      <trkpt lat="45.60902" lon="4.88654">
        <ele>254</ele>
        <time>2024-05-21T06:11:40.000Z</time>
      </trkpt>
      <trkpt lat="45.609" lon="4.88655">
        <ele>254.19999694824</ele>
        <time>2024-05-21T06:11:41.000Z</time>
      </trkpt>
      <trkpt lat="45.60898" lon="4.88655">
        <ele>254.39999389648</ele>
        <time>2024-05-21T06:11:42.000Z</time>
      </trkpt>
      <trkpt lat="45.60896" lon="4.88656">
        <ele>254.60000610352</ele>
        <time>2024-05-21T06:11:43.000Z</time>
      </trkpt>
      <trkpt lat="45.60894" lon="4.88656">
        <ele>254.80000305176</ele>
        <time>2024-05-21T06:11:44.000Z</time>
      </trkpt>
      <trkpt lat="45.60892" lon="4.88657">
        <ele>255</ele>
        <time>2024-05-21T06:11:45.000Z</time>
      </trkpt>
      <trkpt lat="45.6089" lon="4.88657">
        <ele>255.19999694824</ele>
        <time>2024-05-21T06:11:46.000Z</time>
      </trkpt>
      <trkpt lat="45.60888" lon="4.88658">
        <ele>255.19999694824</ele>
        <time>2024-05-21T06:11:47.000Z</time>
      </trkpt>
      <trkpt lat="45.60886" lon="4.88658">
        <ele>255.39999389648</ele>
        <time>2024-05-21T06:11:48.000Z</time>
      </trkpt>
      <trkpt lat="45.60884" lon="4.88658">
        <ele>255.60000610352</ele>
        <time>2024-05-21T06:11:49.000Z</time>
      </trkpt>
      <trkpt lat="45.60882" lon="4.88659">
        <ele>255.80000305176</ele>
        <time>2024-05-21T06:11:50.000Z</time>
      </trkpt>
      <trkpt lat="45.6088" lon="4.88659">
        <ele>255.80000305176</ele>
        <time>2024-05-21T06:11:51.000Z</time>
      </trkpt>
      <trkpt lat="45.60878" lon="4.8866">
        <ele>256.20001220703</ele>
        <time>2024-05-21T06:11:52.000Z</time>
      </trkpt>
      <trkpt lat="45.60876" lon="4.8866">
        <ele>256.20001220703</ele>
        <time>2024-05-21T06:11:53.000Z</time>
      </trkpt>
      <trkpt lat="45.60874" lon="4.8866">
        <ele>256.39999389648</ele>
        <time>2024-05-21T06:11:54.000Z</time>
      </trkpt>
      <trkpt lat="45.60872" lon="4.88661">
        <ele>256.60000610352</ele>
        <time>2024-05-21T06:11:55.000Z</time>
      </trkpt>
      <trkpt lat="45.6087" lon="4.88661">
        <ele>256.79998779297</ele>
        <time>2024-05-21T06:11:56.000Z</time>
      </trkpt>
      <trkpt lat="45.60869" lon="4.88662">
        <ele>257</ele>
        <time>2024-05-21T06:11:57.000Z</time>
      </trkpt>
      <trkpt lat="45.60867" lon="4.88662">
        <ele>257</ele>
        <time>2024-05-21T06:11:58.000Z</time>
      </trkpt>
      <trkpt lat="45.60865" lon="4.88663">
        <ele>257.20001220703</ele>
        <time>2024-05-21T06:11:59.000Z</time>
      </trkpt>
      <trkpt lat="45.60863" lon="4.88664">
        <ele>257.39999389648</ele>
        <time>2024-05-21T06:12:00.000Z</time>
      </trkpt>
      <trkpt lat="45.60861" lon="4.88664">
        <ele>257.60000610352</ele>
        <time>2024-05-21T06:12:01.000Z</time>
      </trkpt>
      <trkpt lat="45.60859" lon="4.88665">
        <ele>257.79998779297</ele>
        <time>2024-05-21T06:12:02.000Z</time>
      </trkpt>
      <trkpt lat="45.60857" lon="4.88665">
        <ele>258</ele>
        <time>2024-05-21T06:12:03.000Z</time>
      </trkpt>
      <trkpt lat="45.60855" lon="4.88666">
        <ele>258.20001220703</ele>
        <time>2024-05-21T06:12:04.000Z</time>
      </trkpt>
      <trkpt lat="45.60854" lon="4.88667">
        <ele>258.39999389648</ele>
        <time>2024-05-21T06:12:05.000Z</time>
      </trkpt>
      <trkpt lat="45.60852" lon="4.88667">
        <ele>258.60000610352</ele>
        <time>2024-05-21T06:12:06.000Z</time>
      </trkpt>
      <trkpt lat="45.6085" lon="4.88668">
        <ele>258.79998779297</ele>
        <time>2024-05-21T06:12:07.000Z</time>
      </trkpt>
      <trkpt lat="45.60848" lon="4.88668">
        <ele>259</ele>
        <time>2024-05-21T06:12:08.000Z</time>
      </trkpt>
      <trkpt lat="45.60846" lon="4.88669">
        <ele>259.20001220703</ele>
        <time>2024-05-21T06:12:09.000Z</time>
      </trkpt>
      <trkpt lat="45.60844" lon="4.88669">
        <ele>259.39999389648</ele>
        <time>2024-05-21T06:12:10.000Z</time>
      </trkpt>
      <trkpt lat="45.60842" lon="4.88669">
        <ele>259.60000610352</ele>
        <time>2024-05-21T06:12:11.000Z</time>
      </trkpt>
      <trkpt lat="45.6084" lon="4.8867">
        <ele>259.79998779297</ele>
        <time>2024-05-21T06:12:12.000Z</time>
      </trkpt>
      <trkpt lat="45.60838" lon="4.8867">
        <ele>260</ele>
        <time>2024-05-21T06:12:13.000Z</time>
      </trkpt>
      <trkpt lat="45.60836" lon="4.88671">
        <ele>260.20001220703</ele>
        <time>2024-05-21T06:12:14.000Z</time>
      </trkpt>
      <trkpt lat="45.60835" lon="4.88672">
        <ele>260.39999389648</ele>
        <time>2024-05-21T06:12:15.000Z</time>
      </trkpt>
      <trkpt lat="45.60833" lon="4.88672">
        <ele>260.60000610352</ele>
        <time>2024-05-21T06:12:16.000Z</time>
      </trkpt>
      <trkpt lat="45.60831" lon="4.88673">
        <ele>261</ele>
        <time>2024-05-21T06:12:17.000Z</time>
      </trkpt>
      <trkpt lat="45.6083" lon="4.88673">
        <ele>261.20001220703</ele>
        <time>2024-05-21T06:12:18.000Z</time>
      </trkpt>
      <trkpt lat="45.60828" lon="4.88673">
        <ele>261.39999389648</ele>
        <time>2024-05-21T06:12:19.000Z</time>
      </trkpt>
      <trkpt lat="45.60826" lon="4.88674">
        <ele>261.60000610352</ele>
        <time>2024-05-21T06:12:20.000Z</time>
      </trkpt>
      <trkpt lat="45.60825" lon="4.88675">
        <ele>262</ele>
        <time>2024-05-21T06:12:21.000Z</time>
      </trkpt>
      <trkpt lat="45.60823" lon="4.88675">
        <ele>262.20001220703</ele>
        <time>2024-05-21T06:12:22.000Z</time>
      </trkpt>
      <trkpt lat="45.60821" lon="4.88675">
        <ele>262.39999389648</ele>
        <time>2024-05-21T06:12:23.000Z</time>
      </trkpt>
      <trkpt lat="45.60819" lon="4.88675">
        <ele>262.60000610352</ele>
        <time>2024-05-21T06:12:24.000Z</time>
      </trkpt>
      <trkpt lat="45.60818" lon="4.88676">
        <ele>263</ele>
        <time>2024-05-21T06:12:25.000Z</time>
      </trkpt>
      <trkpt lat="45.60816" lon="4.88677">
        <ele>263.20001220703</ele>
        <time>2024-05-21T06:12:26.000Z</time>
      </trkpt>
      <trkpt lat="45.60814" lon="4.88677">
        <ele>263.39999389648</ele>
        <time>2024-05-21T06:12:27.000Z</time>
      </trkpt>
      <trkpt lat="45.60813" lon="4.88678">
        <ele>263.60000610352</ele>
        <time>2024-05-21T06:12:28.000Z</time>
      </trkpt>
      <trkpt lat="45.60811" lon="4.88679">
        <ele>263.79998779297</ele>
        <time>2024-05-21T06:12:29.000Z</time>
      </trkpt>
      <trkpt lat="45.60809" lon="4.88679">
        <ele>264</ele>
        <time>2024-05-21T06:12:30.000Z</time>
      </trkpt>
      <trkpt lat="45.60807" lon="4.8868">
        <ele>264.20001220703</ele>
        <time>2024-05-21T06:12:31.000Z</time>
      </trkpt>
      <trkpt lat="45.60806" lon="4.88681">
        <ele>264.60000610352</ele>
        <time>2024-05-21T06:12:32.000Z</time>
      </trkpt>
      <trkpt lat="45.60804" lon="4.88681">
        <ele>264.79998779297</ele>
        <time>2024-05-21T06:12:33.000Z</time>
      </trkpt>
      <trkpt lat="45.60802" lon="4.88681">
        <ele>265</ele>
        <time>2024-05-21T06:12:34.000Z</time>
      </trkpt>
      <trkpt lat="45.60801" lon="4.88682">
        <ele>265.20001220703</ele>
        <time>2024-05-21T06:12:35.000Z</time>
      </trkpt>
      <trkpt lat="45.60799" lon="4.88682">
        <ele>265.60000610352</ele>
        <time>2024-05-21T06:12:36.000Z</time>
      </trkpt>
      <trkpt lat="45.60798" lon="4.88682">
        <ele>265.79998779297</ele>
        <time>2024-05-21T06:12:37.000Z</time>
      </trkpt>
      <trkpt lat="45.60796" lon="4.88683">
        <ele>266.20001220703</ele>
        <time>2024-05-21T06:12:38.000Z</time>
      </trkpt>
      <trkpt lat="45.60795" lon="4.88683">
        <ele>266.39999389648</ele>
        <time>2024-05-21T06:12:39.000Z</time>
      </trkpt>
      <trkpt lat="45.60794" lon="4.88684">
        <ele>266.60000610352</ele>
        <time>2024-05-21T06:12:40.000Z</time>
      </trkpt>
      <trkpt lat="45.60792" lon="4.88684">
        <ele>267</ele>
        <time>2024-05-21T06:12:41.000Z</time>
      </trkpt>
      <trkpt lat="45.60791" lon="4.88684">
        <ele>267.20001220703</ele>
        <time>2024-05-21T06:12:42.000Z</time>
      </trkpt>
      <trkpt lat="45.60789" lon="4.88685">
        <ele>267.39999389648</ele>
        <time>2024-05-21T06:12:43.000Z</time>
      </trkpt>
      <trkpt lat="45.60787" lon="4.88685">
        <ele>267.60000610352</ele>
        <time>2024-05-21T06:12:44.000Z</time>
      </trkpt>
      <trkpt lat="45.60786" lon="4.88686">
        <ele>267.79998779297</ele>
        <time>2024-05-21T06:12:45.000Z</time>
      </trkpt>
      <trkpt lat="45.60784" lon="4.88686">
        <ele>268.20001220703</ele>
        <time>2024-05-21T06:12:46.000Z</time>
      </trkpt>
      <trkpt lat="45.60783" lon="4.88686">
        <ele>268.39999389648</ele>
        <time>2024-05-21T06:12:47.000Z</time>
      </trkpt>
      <trkpt lat="45.60781" lon="4.88687">
        <ele>268.60000610352</ele>
        <time>2024-05-21T06:12:48.000Z</time>
      </trkpt>
      <trkpt lat="45.6078" lon="4.88687">
        <ele>268.79998779297</ele>
        <time>2024-05-21T06:12:49.000Z</time>
      </trkpt>
      <trkpt lat="45.60778" lon="4.88688">
        <ele>269.20001220703</ele>
        <time>2024-05-21T06:12:50.000Z</time>
      </trkpt>
      <trkpt lat="45.60777" lon="4.88688">
        <ele>269.60000610352</ele>
        <time>2024-05-21T06:12:51.000Z</time>
      </trkpt>
      <trkpt lat="45.60775" lon="4.88688">
        <ele>269.79998779297</ele>
        <time>2024-05-21T06:12:52.000Z</time>
      </trkpt>
      <trkpt lat="45.60773" lon="4.88689">
        <ele>270</ele>
        <time>2024-05-21T06:12:53.000Z</time>
      </trkpt>
      <trkpt lat="45.60772" lon="4.8869">
        <ele>270.39999389648</ele>
        <time>2024-05-21T06:12:54.000Z</time>
      </trkpt>
      <trkpt lat="45.6077" lon="4.88691">
        <ele>270.60000610352</ele>
        <time>2024-05-21T06:12:55.000Z</time>
      </trkpt>
      <trkpt lat="45.60769" lon="4.88691">
        <ele>270.79998779297</ele>
        <time>2024-05-21T06:12:56.000Z</time>
      </trkpt>
      <trkpt lat="45.60768" lon="4.88691">
        <ele>271.20001220703</ele>
        <time>2024-05-21T06:12:57.000Z</time>
      </trkpt>
      <trkpt lat="45.60767" lon="4.88692">
        <ele>271.39999389648</ele>
        <time>2024-05-21T06:12:58.000Z</time>
      </trkpt>
      <trkpt lat="45.60765" lon="4.88692">
        <ele>271.79998779297</ele>
        <time>2024-05-21T06:12:59.000Z</time>
      </trkpt>
      <trkpt lat="45.60764" lon="4.88693">
        <ele>272</ele>
        <time>2024-05-21T06:13:00.000Z</time>
      </trkpt>
      <trkpt lat="45.60762" lon="4.88693">
        <ele>272.39999389648</ele>
        <time>2024-05-21T06:13:01.000Z</time>
      </trkpt>
      <trkpt lat="45.60761" lon="4.88694">
        <ele>272.60000610352</ele>
        <time>2024-05-21T06:13:02.000Z</time>
      </trkpt>
      <trkpt lat="45.6076" lon="4.88694">
        <ele>272.79998779297</ele>
        <time>2024-05-21T06:13:03.000Z</time>
      </trkpt>
      <trkpt lat="45.60759" lon="4.88695">
        <ele>273</ele>
        <time>2024-05-21T06:13:04.000Z</time>
      </trkpt>
      <trkpt lat="45.60757" lon="4.88695">
        <ele>273.39999389648</ele>
        <time>2024-05-21T06:13:05.000Z</time>
      </trkpt>
      <trkpt lat="45.60756" lon="4.88696">
        <ele>273.79998779297</ele>
        <time>2024-05-21T06:13:06.000Z</time>
      </trkpt>
      <trkpt lat="45.60754" lon="4.88696">
        <ele>274</ele>
        <time>2024-05-21T06:13:07.000Z</time>
      </trkpt>
      <trkpt lat="45.60753" lon="4.88697">
        <ele>274.20001220703</ele>
        <time>2024-05-21T06:13:08.000Z</time>
      </trkpt>
      <trkpt lat="45.60751" lon="4.88697">
        <ele>274.60000610352</ele>
        <time>2024-05-21T06:13:09.000Z</time>
      </trkpt>
      <trkpt lat="45.60749" lon="4.88698">
        <ele>274.79998779297</ele>
        <time>2024-05-21T06:13:10.000Z</time>
      </trkpt>
      <trkpt lat="45.60748" lon="4.88698">
        <ele>275</ele>
        <time>2024-05-21T06:13:11.000Z</time>
      </trkpt>
      <trkpt lat="45.60746" lon="4.88698">
        <ele>275.20001220703</ele>
        <time>2024-05-21T06:13:12.000Z</time>
      </trkpt>
      <trkpt lat="45.60745" lon="4.88699">
        <ele>275.39999389648</ele>
        <time>2024-05-21T06:13:13.000Z</time>
      </trkpt>
      <trkpt lat="45.60744" lon="4.887">
        <ele>275.60000610352</ele>
        <time>2024-05-21T06:13:14.000Z</time>
      </trkpt>
      <trkpt lat="45.60742" lon="4.88701">
        <ele>276</ele>
        <time>2024-05-21T06:13:15.000Z</time>
      </trkpt>
      <trkpt lat="45.60741" lon="4.88702">
        <ele>276.20001220703</ele>
        <time>2024-05-21T06:13:16.000Z</time>
      </trkpt>
      <trkpt lat="45.60739" lon="4.88702">
        <ele>276.39999389648</ele>
        <time>2024-05-21T06:13:17.000Z</time>
      </trkpt>
      <trkpt lat="45.60737" lon="4.88703">
        <ele>276.60000610352</ele>
        <time>2024-05-21T06:13:18.000Z</time>
      </trkpt>
      <trkpt lat="45.60736" lon="4.88704">
        <ele>276.79998779297</ele>
        <time>2024-05-21T06:13:19.000Z</time>
      </trkpt>
      <trkpt lat="45.60734" lon="4.88705">
        <ele>277</ele>
        <time>2024-05-21T06:13:20.000Z</time>
      </trkpt>
      <trkpt lat="45.60733" lon="4.88705">
        <ele>277.20001220703</ele>
        <time>2024-05-21T06:13:21.000Z</time>
      </trkpt>
      <trkpt lat="45.60731" lon="4.88706">
        <ele>277.39999389648</ele>
        <time>2024-05-21T06:13:22.000Z</time>
      </trkpt>
      <trkpt lat="45.6073" lon="4.88707">
        <ele>277.60000610352</ele>
        <time>2024-05-21T06:13:23.000Z</time>
      </trkpt>
      <trkpt lat="45.60728" lon="4.88708">
        <ele>277.79998779297</ele>
        <time>2024-05-21T06:13:24.000Z</time>
      </trkpt>
      <trkpt lat="45.60727" lon="4.88709">
        <ele>278.20001220703</ele>
        <time>2024-05-21T06:13:25.000Z</time>
      </trkpt>
      <trkpt lat="45.60725" lon="4.8871">
        <ele>278.20001220703</ele>
        <time>2024-05-21T06:13:26.000Z</time>
      </trkpt>
      <trkpt lat="45.60724" lon="4.88711">
        <ele>278.39999389648</ele>
        <time>2024-05-21T06:13:27.000Z</time>
      </trkpt>
      <trkpt lat="45.60722" lon="4.88712">
        <ele>278.60000610352</ele>
        <time>2024-05-21T06:13:28.000Z</time>
      </trkpt>
      <trkpt lat="45.60721" lon="4.88712">
        <ele>278.79998779297</ele>
        <time>2024-05-21T06:13:29.000Z</time>
      </trkpt>
      <trkpt lat="45.60719" lon="4.88713">
        <ele>278.79998779297</ele>
        <time>2024-05-21T06:13:30.000Z</time>
      </trkpt>
      <trkpt lat="45.60718" lon="4.88714">
        <ele>279</ele>
        <time>2024-05-21T06:13:31.000Z</time>
      </trkpt>
      <trkpt lat="45.60716" lon="4.88715">
        <ele>279.20001220703</ele>
        <time>2024-05-21T06:13:32.000Z</time>
      </trkpt>
      <trkpt lat="45.60714" lon="4.88715">
        <ele>279.39999389648</ele>
        <time>2024-05-21T06:13:33.000Z</time>
      </trkpt>
      <trkpt lat="45.60712" lon="4.88716">
        <ele>279.60000610352</ele>
        <time>2024-05-21T06:13:34.000Z</time>
      </trkpt>
      <trkpt lat="45.60711" lon="4.88716">
        <ele>279.79998779297</ele>
        <time>2024-05-21T06:13:35.000Z</time>
      </trkpt>
      <trkpt lat="45.6071" lon="4.88717">
        <ele>280</ele>
        <time>2024-05-21T06:13:36.000Z</time>
      </trkpt>
      <trkpt lat="45.60708" lon="4.88717">
        <ele>280.20001220703</ele>
        <time>2024-05-21T06:13:37.000Z</time>
      </trkpt>
      <trkpt lat="45.60706" lon="4.88718">
        <ele>280.39999389648</ele>
        <time>2024-05-21T06:13:38.000Z</time>
      </trkpt>
      <trkpt lat="45.60705" lon="4.88718">
        <ele>280.39999389648</ele>
        <time>2024-05-21T06:13:39.000Z</time>
      </trkpt>
      <trkpt lat="45.60703" lon="4.88719">
        <ele>280.60000610352</ele>
        <time>2024-05-21T06:13:40.000Z</time>
      </trkpt>
      <trkpt lat="45.60701" lon="4.88719">
        <ele>281</ele>
        <time>2024-05-21T06:13:41.000Z</time>
      </trkpt>
      <trkpt lat="45.607" lon="4.8872">
        <ele>281</ele>
        <time>2024-05-21T06:13:42.000Z</time>
      </trkpt>
      <trkpt lat="45.60698" lon="4.88721">
        <ele>281.20001220703</ele>
        <time>2024-05-21T06:13:43.000Z</time>
      </trkpt>
      <trkpt lat="45.60696" lon="4.88721">
        <ele>281.39999389648</ele>
        <time>2024-05-21T06:13:44.000Z</time>
      </trkpt>
      <trkpt lat="45.60695" lon="4.88722">
        <ele>281.60000610352</ele>
        <time>2024-05-21T06:13:45.000Z</time>
      </trkpt>
      <trkpt lat="45.60693" lon="4.88723">
        <ele>281.79998779297</ele>
        <time>2024-05-21T06:13:46.000Z</time>
      </trkpt>
      <trkpt lat="45.60692" lon="4.88723">
        <ele>282</ele>
        <time>2024-05-21T06:13:47.000Z</time>
      </trkpt>
      <trkpt lat="45.6069" lon="4.88723">
        <ele>282.20001220703</ele>
        <time>2024-05-21T06:13:48.000Z</time>
      </trkpt>
      <trkpt lat="45.60688" lon="4.88724">
        <ele>282.20001220703</ele>
        <time>2024-05-21T06:13:49.000Z</time>
      </trkpt>
      <trkpt lat="45.60686" lon="4.88725">
        <ele>282.39999389648</ele>
        <time>2024-05-21T06:13:50.000Z</time>
      </trkpt>
      <trkpt lat="45.60685" lon="4.88726">
        <ele>282.79998779297</ele>
        <time>2024-05-21T06:13:51.000Z</time>
      </trkpt>
      <trkpt lat="45.60683" lon="4.88726">
        <ele>283</ele>
        <time>2024-05-21T06:13:52.000Z</time>
      </trkpt>
      <trkpt lat="45.60682" lon="4.88726">
        <ele>283.20001220703</ele>
        <time>2024-05-21T06:13:53.000Z</time>
      </trkpt>
      <trkpt lat="45.6068" lon="4.88726">
        <ele>283.39999389648</ele>
        <time>2024-05-21T06:13:54.000Z</time>
      </trkpt>
      <trkpt lat="45.60678" lon="4.88727">
        <ele>283.60000610352</ele>
        <time>2024-05-21T06:13:55.000Z</time>
      </trkpt>
      <trkpt lat="45.60676" lon="4.88728">
        <ele>284</ele>
        <time>2024-05-21T06:13:56.000Z</time>
      </trkpt>
      <trkpt lat="45.60675" lon="4.88728">
        <ele>284.20001220703</ele>
        <time>2024-05-21T06:13:57.000Z</time>
      </trkpt>
      <trkpt lat="45.60673" lon="4.88728">
        <ele>284.60000610352</ele>
        <time>2024-05-21T06:13:58.000Z</time>
      </trkpt>
      <trkpt lat="45.60671" lon="4.88729">
        <ele>284.79998779297</ele>
        <time>2024-05-21T06:13:59.000Z</time>
      </trkpt>
      <trkpt lat="45.6067" lon="4.88729">
        <ele>285</ele>
        <time>2024-05-21T06:14:00.000Z</time>
      </trkpt>
      <trkpt lat="45.60668" lon="4.8873">
        <ele>285.20001220703</ele>
        <time>2024-05-21T06:14:01.000Z</time>
      </trkpt>
      <trkpt lat="45.60667" lon="4.88731">
        <ele>285.39999389648</ele>
        <time>2024-05-21T06:14:02.000Z</time>
      </trkpt>
      <trkpt lat="45.60665" lon="4.88732">
        <ele>285.79998779297</ele>
        <time>2024-05-21T06:14:03.000Z</time>
      </trkpt>
      <trkpt lat="45.60664" lon="4.88732">
        <ele>286</ele>
        <time>2024-05-21T06:14:04.000Z</time>
      </trkpt>
      <trkpt lat="45.60662" lon="4.88733">
        <ele>286.20001220703</ele>
        <time>2024-05-21T06:14:05.000Z</time>
      </trkpt>
      <trkpt lat="45.60661" lon="4.88733">
        <ele>286.60000610352</ele>
        <time>2024-05-21T06:14:06.000Z</time>
      </trkpt>
      <trkpt lat="45.60659" lon="4.88734">
        <ele>286.79998779297</ele>
        <time>2024-05-21T06:14:07.000Z</time>
      </trkpt>
      <trkpt lat="45.60658" lon="4.88735">
        <ele>287</ele>
        <time>2024-05-21T06:14:08.000Z</time>
      </trkpt>
      <trkpt lat="45.60656" lon="4.88735">
        <ele>287.39999389648</ele>
        <time>2024-05-21T06:14:09.000Z</time>
      </trkpt>
      <trkpt lat="45.60655" lon="4.88736">
        <ele>287.60000610352</ele>
        <time>2024-05-21T06:14:10.000Z</time>
      </trkpt>
      <trkpt lat="45.60653" lon="4.88736">
        <ele>287.79998779297</ele>
        <time>2024-05-21T06:14:11.000Z</time>
      </trkpt>
      <trkpt lat="45.60652" lon="4.88736">
        <ele>288.20001220703</ele>
        <time>2024-05-21T06:14:12.000Z</time>
      </trkpt>
      <trkpt lat="45.6065" lon="4.88736">
        <ele>288.39999389648</ele>
        <time>2024-05-21T06:14:13.000Z</time>
      </trkpt>
      <trkpt lat="45.60649" lon="4.88737">
        <ele>288.79998779297</ele>
        <time>2024-05-21T06:14:14.000Z</time>
      </trkpt>
      <trkpt lat="45.60647" lon="4.88736">
        <ele>289</ele>
        <time>2024-05-21T06:14:15.000Z</time>
      </trkpt>
      <trkpt lat="45.60645" lon="4.88737">
        <ele>289.20001220703</ele>
        <time>2024-05-21T06:14:16.000Z</time>
      </trkpt>
      <trkpt lat="45.60644" lon="4.88738">
        <ele>289.39999389648</ele>
        <time>2024-05-21T06:14:17.000Z</time>
      </trkpt>
      <trkpt lat="45.60642" lon="4.88739">
        <ele>289.60000610352</ele>
        <time>2024-05-21T06:14:18.000Z</time>
      </trkpt>
      <trkpt lat="45.60641" lon="4.8874">
        <ele>289.79998779297</ele>
        <time>2024-05-21T06:14:19.000Z</time>
      </trkpt>
      <trkpt lat="45.60639" lon="4.8874">
        <ele>290</ele>
        <time>2024-05-21T06:14:20.000Z</time>
      </trkpt>
      <trkpt lat="45.60638" lon="4.88741">
        <ele>290.20001220703</ele>
        <time>2024-05-21T06:14:21.000Z</time>
      </trkpt>
      <trkpt lat="45.60636" lon="4.88741">
        <ele>290.60000610352</ele>
        <time>2024-05-21T06:14:22.000Z</time>
      </trkpt>
      <trkpt lat="45.60635" lon="4.88742">
        <ele>290.79998779297</ele>
        <time>2024-05-21T06:14:23.000Z</time>
      </trkpt>
      <trkpt lat="45.60633" lon="4.88742">
        <ele>291</ele>
        <time>2024-05-21T06:14:24.000Z</time>
      </trkpt>
      <trkpt lat="45.60631" lon="4.88743">
        <ele>291.20001220703</ele>
        <time>2024-05-21T06:14:25.000Z</time>
      </trkpt>
      <trkpt lat="45.6063" lon="4.88742">
        <ele>291.60000610352</ele>
        <time>2024-05-21T06:14:26.000Z</time>
      </trkpt>
      <trkpt lat="45.60628" lon="4.88742">
        <ele>291.60000610352</ele>
        <time>2024-05-21T06:14:27.000Z</time>
      </trkpt>
      <trkpt lat="45.60626" lon="4.88742">
        <ele>291.79998779297</ele>
        <time>2024-05-21T06:14:28.000Z</time>
      </trkpt>
      <trkpt lat="45.60625" lon="4.88742">
        <ele>292.20001220703</ele>
        <time>2024-05-21T06:14:29.000Z</time>
      </trkpt>
      <trkpt lat="45.60624" lon="4.88742">
        <ele>292.39999389648</ele>
        <time>2024-05-21T06:14:30.000Z</time>
      </trkpt>
      <trkpt lat="45.60622" lon="4.88741">
        <ele>292.60000610352</ele>
        <time>2024-05-21T06:14:31.000Z</time>
      </trkpt>
      <trkpt lat="45.60621" lon="4.8874">
        <ele>292.79998779297</ele>
        <time>2024-05-21T06:14:32.000Z</time>
      </trkpt>
      <trkpt lat="45.6062" lon="4.88739">
        <ele>293</ele>
        <time>2024-05-21T06:14:33.000Z</time>
      </trkpt>
      <trkpt lat="45.60619" lon="4.88738">
        <ele>293.20001220703</ele>
        <time>2024-05-21T06:14:34.000Z</time>
      </trkpt>
      <trkpt lat="45.60617" lon="4.88737">
        <ele>293.60000610352</ele>
        <time>2024-05-21T06:14:35.000Z</time>
      </trkpt>
      <trkpt lat="45.60615" lon="4.88737">
        <ele>293.79998779297</ele>
        <time>2024-05-21T06:14:36.000Z</time>
      </trkpt>
      <trkpt lat="45.60614" lon="4.88736">
        <ele>294</ele>
        <time>2024-05-21T06:14:37.000Z</time>
      </trkpt>
      <trkpt lat="45.60612" lon="4.88735">
        <ele>294.20001220703</ele>
        <time>2024-05-21T06:14:38.000Z</time>
      </trkpt>
      <trkpt lat="45.60611" lon="4.88735">
        <ele>294.39999389648</ele>
        <time>2024-05-21T06:14:39.000Z</time>
      </trkpt>
      <trkpt lat="45.60609" lon="4.88735">
        <ele>294.60000610352</ele>
        <time>2024-05-21T06:14:40.000Z</time>
      </trkpt>
      <trkpt lat="45.60608" lon="4.88734">
        <ele>294.79998779297</ele>
        <time>2024-05-21T06:14:41.000Z</time>
      </trkpt>
      <trkpt lat="45.60607" lon="4.88732">
        <ele>295</ele>
        <time>2024-05-21T06:14:42.000Z</time>
      </trkpt>
      <trkpt lat="45.60605" lon="4.88731">
        <ele>295.20001220703</ele>
        <time>2024-05-21T06:14:43.000Z</time>
      </trkpt>
      <trkpt lat="45.60604" lon="4.8873">
        <ele>295.60000610352</ele>
        <time>2024-05-21T06:14:44.000Z</time>
      </trkpt>
      <trkpt lat="45.60603" lon="4.88729">
        <ele>295.79998779297</ele>
        <time>2024-05-21T06:14:45.000Z</time>
      </trkpt>
      <trkpt lat="45.60602" lon="4.88727">
        <ele>296</ele>
        <time>2024-05-21T06:14:46.000Z</time>
      </trkpt>
      <trkpt lat="45.606" lon="4.88727">
        <ele>296.20001220703</ele>
        <time>2024-05-21T06:14:47.000Z</time>
      </trkpt>
      <trkpt lat="45.60598" lon="4.88725">
        <ele>296.39999389648</ele>
        <time>2024-05-21T06:14:48.000Z</time>
      </trkpt>
      <trkpt lat="45.60597" lon="4.88724">
        <ele>296.60000610352</ele>
        <time>2024-05-21T06:14:49.000Z</time>
      </trkpt>
      <trkpt lat="45.60596" lon="4.88723">
        <ele>297</ele>
        <time>2024-05-21T06:14:50.000Z</time>
      </trkpt>
      <trkpt lat="45.60595" lon="4.88721">
        <ele>297.20001220703</ele>
        <time>2024-05-21T06:14:51.000Z</time>
      </trkpt>
      <trkpt lat="45.60594" lon="4.8872">
        <ele>297.39999389648</ele>
        <time>2024-05-21T06:14:52.000Z</time>
      </trkpt>
      <trkpt lat="45.60593" lon="4.88719">
        <ele>297.60000610352</ele>
        <time>2024-05-21T06:14:53.000Z</time>
      </trkpt>
      <trkpt lat="45.60592" lon="4.88718">
        <ele>298</ele>
        <time>2024-05-21T06:14:54.000Z</time>
      </trkpt>
      <trkpt lat="45.60591" lon="4.88717">
        <ele>298.20001220703</ele>
        <time>2024-05-21T06:14:55.000Z</time>
      </trkpt>
      <trkpt lat="45.60589" lon="4.88716">
        <ele>298.39999389648</ele>
        <time>2024-05-21T06:14:56.000Z</time>
      </trkpt>
      <trkpt lat="45.60588" lon="4.88715">
        <ele>298.79998779297</ele>
        <time>2024-05-21T06:14:57.000Z</time>
      </trkpt>
      <trkpt lat="45.60587" lon="4.88714">
        <ele>299</ele>
        <time>2024-05-21T06:14:58.000Z</time>
      </trkpt>
      <trkpt lat="45.60586" lon="4.88713">
        <ele>299.20001220703</ele>
        <time>2024-05-21T06:14:59.000Z</time>
      </trkpt>
      <trkpt lat="45.60585" lon="4.88712">
        <ele>299.60000610352</ele>
        <time>2024-05-21T06:15:00.000Z</time>
      </trkpt>
      <trkpt lat="45.60583" lon="4.88711">
        <ele>299.79998779297</ele>
        <time>2024-05-21T06:15:01.000Z</time>
      </trkpt>
      <trkpt lat="45.60582" lon="4.88711">
        <ele>300</ele>
        <time>2024-05-21T06:15:02.000Z</time>
      </trkpt>
      <trkpt lat="45.6058" lon="4.8871">
        <ele>300.20001220703</ele>
        <time>2024-05-21T06:15:03.000Z</time>
      </trkpt>
      <trkpt lat="45.60579" lon="4.88711">
        <ele>300.39999389648</ele>
        <time>2024-05-21T06:15:04.000Z</time>
      </trkpt>
      <trkpt lat="45.60577" lon="4.88711">
        <ele>300.79998779297</ele>
        <time>2024-05-21T06:15:05.000Z</time>
      </trkpt>
      <trkpt lat="45.60575" lon="4.88711">
        <ele>301</ele>
        <time>2024-05-21T06:15:06.000Z</time>
      </trkpt>
      <trkpt lat="45.60573" lon="4.88711">
        <ele>301.20001220703</ele>
        <time>2024-05-21T06:15:07.000Z</time>
      </trkpt>
      <trkpt lat="45.60572" lon="4.8871">
        <ele>301.39999389648</ele>
        <time>2024-05-21T06:15:08.000Z</time>
      </trkpt>
      <trkpt lat="45.60571" lon="4.88709">
        <ele>301.60000610352</ele>
        <time>2024-05-21T06:15:09.000Z</time>
      </trkpt>
      <trkpt lat="45.60569" lon="4.88708">
        <ele>301.79998779297</ele>
        <time>2024-05-21T06:15:10.000Z</time>
      </trkpt>
      <trkpt lat="45.60568" lon="4.88708">
        <ele>302.20001220703</ele>
        <time>2024-05-21T06:15:11.000Z</time>
      </trkpt>
      <trkpt lat="45.60566" lon="4.88707">
        <ele>302.39999389648</ele>
        <time>2024-05-21T06:15:12.000Z</time>
      </trkpt>
      <trkpt lat="45.60564" lon="4.88707">
        <ele>302.79998779297</ele>
        <time>2024-05-21T06:15:13.000Z</time>
      </trkpt>
      <trkpt lat="45.60563" lon="4.88707">
        <ele>303</ele>
        <time>2024-05-21T06:15:14.000Z</time>
      </trkpt>
      <trkpt lat="45.60561" lon="4.88707">
        <ele>303.39999389648</ele>
        <time>2024-05-21T06:15:15.000Z</time>
      </trkpt>
      <trkpt lat="45.6056" lon="4.88708">
        <ele>303.60000610352</ele>
        <time>2024-05-21T06:15:16.000Z</time>
      </trkpt>
      <trkpt lat="45.60558" lon="4.88707">
        <ele>303.79998779297</ele>
        <time>2024-05-21T06:15:17.000Z</time>
      </trkpt>
      <trkpt lat="45.60556" lon="4.88707">
        <ele>304.20001220703</ele>
        <time>2024-05-21T06:15:18.000Z</time>
      </trkpt>
      <trkpt lat="45.60555" lon="4.88706">
        <ele>304.39999389648</ele>
        <time>2024-05-21T06:15:19.000Z</time>
      </trkpt>
      <trkpt lat="45.60554" lon="4.88705">
        <ele>304.60000610352</ele>
        <time>2024-05-21T06:15:20.000Z</time>
      </trkpt>
      <trkpt lat="45.60553" lon="4.88705">
        <ele>304.79998779297</ele>
        <time>2024-05-21T06:15:21.000Z</time>
      </trkpt>
      <trkpt lat="45.60551" lon="4.88705">
        <ele>305</ele>
        <time>2024-05-21T06:15:22.000Z</time>
      </trkpt>
      <trkpt lat="45.6055" lon="4.88706">
        <ele>305.39999389648</ele>
        <time>2024-05-21T06:15:23.000Z</time>
      </trkpt>
      <trkpt lat="45.60548" lon="4.88706">
        <ele>305.60000610352</ele>
        <time>2024-05-21T06:15:24.000Z</time>
      </trkpt>
      <trkpt lat="45.60547" lon="4.88706">
        <ele>305.79998779297</ele>
        <time>2024-05-21T06:15:25.000Z</time>
      </trkpt>
      <trkpt lat="45.60545" lon="4.88706">
        <ele>306.20001220703</ele>
        <time>2024-05-21T06:15:26.000Z</time>
      </trkpt>
      <trkpt lat="45.60543" lon="4.88707">
        <ele>306.39999389648</ele>
        <time>2024-05-21T06:15:27.000Z</time>
      </trkpt>
      <trkpt lat="45.60542" lon="4.88707">
        <ele>306.60000610352</ele>
        <time>2024-05-21T06:15:28.000Z</time>
      </trkpt>
      <trkpt lat="45.6054" lon="4.88707">
        <ele>306.79998779297</ele>
        <time>2024-05-21T06:15:29.000Z</time>
      </trkpt>
      <trkpt lat="45.60539" lon="4.88707">
        <ele>307</ele>
        <time>2024-05-21T06:15:30.000Z</time>
      </trkpt>
      <trkpt lat="45.60537" lon="4.88707">
        <ele>307.39999389648</ele>
        <time>2024-05-21T06:15:31.000Z</time>
      </trkpt>
      <trkpt lat="45.60535" lon="4.88706">
        <ele>307.60000610352</ele>
        <time>2024-05-21T06:15:32.000Z</time>
      </trkpt>
      <trkpt lat="45.60534" lon="4.88706">
        <ele>307.79998779297</ele>
        <time>2024-05-21T06:15:33.000Z</time>
      </trkpt>
      <trkpt lat="45.60532" lon="4.88706">
        <ele>308.20001220703</ele>
        <time>2024-05-21T06:15:34.000Z</time>
      </trkpt>
      <trkpt lat="45.6053" lon="4.88706">
        <ele>308.39999389648</ele>
        <time>2024-05-21T06:15:35.000Z</time>
      </trkpt>
      <trkpt lat="45.60529" lon="4.88706">
        <ele>308.60000610352</ele>
        <time>2024-05-21T06:15:36.000Z</time>
      </trkpt>
      <trkpt lat="45.60527" lon="4.88706">
        <ele>308.79998779297</ele>
        <time>2024-05-21T06:15:37.000Z</time>
      </trkpt>
      <trkpt lat="45.60526" lon="4.88706">
        <ele>309.20001220703</ele>
        <time>2024-05-21T06:15:38.000Z</time>
      </trkpt>
      <trkpt lat="45.60524" lon="4.88706">
        <ele>309.39999389648</ele>
        <time>2024-05-21T06:15:39.000Z</time>
      </trkpt>
      <trkpt lat="45.60523" lon="4.88706">
        <ele>309.60000610352</ele>
        <time>2024-05-21T06:15:40.000Z</time>
      </trkpt>
      <trkpt lat="45.60521" lon="4.88707">
        <ele>310</ele>
        <time>2024-05-21T06:15:41.000Z</time>
      </trkpt>
      <trkpt lat="45.60519" lon="4.88706">
        <ele>310.20001220703</ele>
        <time>2024-05-21T06:15:42.000Z</time>
      </trkpt>
      <trkpt lat="45.60518" lon="4.88706">
        <ele>310.39999389648</ele>
        <time>2024-05-21T06:15:43.000Z</time>
      </trkpt>
      <trkpt lat="45.60516" lon="4.88706">
        <ele>310.60000610352</ele>
        <time>2024-05-21T06:15:44.000Z</time>
      </trkpt>
      <trkpt lat="45.60515" lon="4.88706">
        <ele>311</ele>
        <time>2024-05-21T06:15:45.000Z</time>
      </trkpt>
      <trkpt lat="45.60513" lon="4.88706">
        <ele>311.20001220703</ele>
        <time>2024-05-21T06:15:46.000Z</time>
      </trkpt>
      <trkpt lat="45.60512" lon="4.88705">
        <ele>311.20001220703</ele>
        <time>2024-05-21T06:15:47.000Z</time>
      </trkpt>
      <trkpt lat="45.6051" lon="4.88704">
        <ele>311.60000610352</ele>
        <time>2024-05-21T06:15:48.000Z</time>
      </trkpt>
      <trkpt lat="45.60508" lon="4.88704">
        <ele>311.79998779297</ele>
        <time>2024-05-21T06:15:49.000Z</time>
      </trkpt>
      <trkpt lat="45.60507" lon="4.88704">
        <ele>312</ele>
        <time>2024-05-21T06:15:50.000Z</time>
      </trkpt>
      <trkpt lat="45.60505" lon="4.88704">
        <ele>312.20001220703</ele>
        <time>2024-05-21T06:15:51.000Z</time>
      </trkpt>
      <trkpt lat="45.60504" lon="4.88704">
        <ele>312.39999389648</ele>
        <time>2024-05-21T06:15:52.000Z</time>
      </trkpt>
      <trkpt lat="45.60502" lon="4.88703">
        <ele>312.60000610352</ele>
        <time>2024-05-21T06:15:53.000Z</time>
      </trkpt>
      <trkpt lat="45.60501" lon="4.88703">
        <ele>312.79998779297</ele>
        <time>2024-05-21T06:15:54.000Z</time>
      </trkpt>
      <trkpt lat="45.60499" lon="4.88703">
        <ele>313</ele>
        <time>2024-05-21T06:15:55.000Z</time>
      </trkpt>
      <trkpt lat="45.60497" lon="4.88703">
        <ele>313.20001220703</ele>
        <time>2024-05-21T06:15:56.000Z</time>
      </trkpt>
      <trkpt lat="45.60495" lon="4.88703">
        <ele>313.60000610352</ele>
        <time>2024-05-21T06:15:57.000Z</time>
      </trkpt>
      <trkpt lat="45.60494" lon="4.88703">
        <ele>313.79998779297</ele>
        <time>2024-05-21T06:15:58.000Z</time>
      </trkpt>
      <trkpt lat="45.60492" lon="4.88702">
        <ele>314</ele>
        <time>2024-05-21T06:15:59.000Z</time>
      </trkpt>
      <trkpt lat="45.6049" lon="4.88702">
        <ele>314.20001220703</ele>
        <time>2024-05-21T06:16:00.000Z</time>
      </trkpt>
      <trkpt lat="45.60488" lon="4.88701">
        <ele>314.39999389648</ele>
        <time>2024-05-21T06:16:01.000Z</time>
      </trkpt>
      <trkpt lat="45.60487" lon="4.88701">
        <ele>314.60000610352</ele>
        <time>2024-05-21T06:16:02.000Z</time>
      </trkpt>
      <trkpt lat="45.60485" lon="4.887">
        <ele>314.79998779297</ele>
        <time>2024-05-21T06:16:03.000Z</time>
      </trkpt>
      <trkpt lat="45.60484" lon="4.88699">
        <ele>315</ele>
        <time>2024-05-21T06:16:04.000Z</time>
      </trkpt>
      <trkpt lat="45.60482" lon="4.88698">
        <ele>315.39999389648</ele>
        <time>2024-05-21T06:16:05.000Z</time>
      </trkpt>
      <trkpt lat="45.60481" lon="4.88697">
        <ele>315.60000610352</ele>
        <time>2024-05-21T06:16:06.000Z</time>
      </trkpt>
      <trkpt lat="45.60479" lon="4.88696">
        <ele>315.79998779297</ele>
        <time>2024-05-21T06:16:07.000Z</time>
      </trkpt>
      <trkpt lat="45.60478" lon="4.88695">
        <ele>316</ele>
        <time>2024-05-21T06:16:08.000Z</time>
      </trkpt>
      <trkpt lat="45.60476" lon="4.88694">
        <ele>316.20001220703</ele>
        <time>2024-05-21T06:16:09.000Z</time>
      </trkpt>
      <trkpt lat="45.60475" lon="4.88692">
        <ele>316.39999389648</ele>
        <time>2024-05-21T06:16:10.000Z</time>
      </trkpt>
      <trkpt lat="45.60474" lon="4.8869">
        <ele>316.60000610352</ele>
        <time>2024-05-21T06:16:11.000Z</time>
      </trkpt>
      <trkpt lat="45.60473" lon="4.88688">
        <ele>316.79998779297</ele>
        <time>2024-05-21T06:16:12.000Z</time>
      </trkpt>
      <trkpt lat="45.60473" lon="4.88685">
        <ele>317.20001220703</ele>
        <time>2024-05-21T06:16:13.000Z</time>
      </trkpt>
      <trkpt lat="45.60472" lon="4.88683">
        <ele>317.39999389648</ele>
        <time>2024-05-21T06:16:14.000Z</time>
      </trkpt>
      <trkpt lat="45.60472" lon="4.8868">
        <ele>317.60000610352</ele>
        <time>2024-05-21T06:16:15.000Z</time>
      </trkpt>
      <trkpt lat="45.60471" lon="4.88678">
        <ele>317.79998779297</ele>
        <time>2024-05-21T06:16:16.000Z</time>
      </trkpt>
      <trkpt lat="45.60471" lon="4.88675">
        <ele>318</ele>
        <time>2024-05-21T06:16:17.000Z</time>
      </trkpt>
      <trkpt lat="45.60471" lon="4.88671">
        <ele>318</ele>
        <time>2024-05-21T06:16:18.000Z</time>
      </trkpt>
      <trkpt lat="45.60471" lon="4.88666">
        <ele>318</ele>
        <time>2024-05-21T06:16:19.000Z</time>
      </trkpt>
      <trkpt lat="45.60471" lon="4.8866">
        <ele>318</ele>
        <time>2024-05-21T06:16:20.000Z</time>
      </trkpt>
      <trkpt lat="45.60472" lon="4.88654">
        <ele>318</ele>
        <time>2024-05-21T06:16:21.000Z</time>
      </trkpt>
      <trkpt lat="45.60471" lon="4.88648">
        <ele>318</ele>
        <time>2024-05-21T06:16:22.000Z</time>
      </trkpt>
      <trkpt lat="45.60471" lon="4.8864">
        <ele>317.60000610352</ele>
        <time>2024-05-21T06:16:23.000Z</time>
      </trkpt>
      <trkpt lat="45.60471" lon="4.88631">
        <ele>317.20001220703</ele>
        <time>2024-05-21T06:16:24.000Z</time>
      </trkpt>
      <trkpt lat="45.6047" lon="4.88622">
        <ele>316.60000610352</ele>
        <time>2024-05-21T06:16:25.000Z</time>
      </trkpt>
      <trkpt lat="45.60469" lon="4.88612">
        <ele>316</ele>
        <time>2024-05-21T06:16:26.000Z</time>
      </trkpt>
      <trkpt lat="45.60467" lon="4.88601">
        <ele>315.39999389648</ele>
        <time>2024-05-21T06:16:27.000Z</time>
      </trkpt>
      <trkpt lat="45.60465" lon="4.8859">
        <ele>314.20001220703</ele>
        <time>2024-05-21T06:16:28.000Z</time>
      </trkpt>
      <trkpt lat="45.60463" lon="4.88578">
        <ele>313.20001220703</ele>
        <time>2024-05-21T06:16:29.000Z</time>
      </trkpt>
      <trkpt lat="45.6046" lon="4.88567">
        <ele>312.60000610352</ele>
        <time>2024-05-21T06:16:30.000Z</time>
      </trkpt>
      <trkpt lat="45.60456" lon="4.88556">
        <ele>311.79998779297</ele>
        <time>2024-05-21T06:16:31.000Z</time>
      </trkpt>
      <trkpt lat="45.60453" lon="4.88545">
        <ele>311.20001220703</ele>
        <time>2024-05-21T06:16:32.000Z</time>
      </trkpt>
      <trkpt lat="45.60449" lon="4.88533">
        <ele>310.60000610352</ele>
        <time>2024-05-21T06:16:33.000Z</time>
      </trkpt>
      <trkpt lat="45.60445" lon="4.88522">
        <ele>310.60000610352</ele>
        <time>2024-05-21T06:16:34.000Z</time>
      </trkpt>
      <trkpt lat="45.60442" lon="4.88511">
        <ele>309.60000610352</ele>
        <time>2024-05-21T06:16:35.000Z</time>
      </trkpt>
      <trkpt lat="45.6044" lon="4.88499">
        <ele>309</ele>
        <time>2024-05-21T06:16:36.000Z</time>
      </trkpt>
      <trkpt lat="45.60438" lon="4.88488">
        <ele>308.79998779297</ele>
        <time>2024-05-21T06:16:37.000Z</time>
      </trkpt>
      <trkpt lat="45.60436" lon="4.88477">
        <ele>308.39999389648</ele>
        <time>2024-05-21T06:16:38.000Z</time>
      </trkpt>
      <trkpt lat="45.60435" lon="4.88466">
        <ele>308.39999389648</ele>
        <time>2024-05-21T06:16:39.000Z</time>
      </trkpt>
      <trkpt lat="45.60433" lon="4.88454">
        <ele>308.39999389648</ele>
        <time>2024-05-21T06:16:40.000Z</time>
      </trkpt>
      <trkpt lat="45.60432" lon="4.88443">
        <ele>308.20001220703</ele>
        <time>2024-05-21T06:16:41.000Z</time>
      </trkpt>
      <trkpt lat="45.60431" lon="4.88431">
        <ele>308.20001220703</ele>
        <time>2024-05-21T06:16:42.000Z</time>
      </trkpt>
      <trkpt lat="45.6043" lon="4.88419">
        <ele>307.79998779297</ele>
        <time>2024-05-21T06:16:43.000Z</time>
      </trkpt>
      <trkpt lat="45.60429" lon="4.88406">
        <ele>307.39999389648</ele>
        <time>2024-05-21T06:16:44.000Z</time>
      </trkpt>
      <trkpt lat="45.60428" lon="4.88396">
        <ele>307</ele>
        <time>2024-05-21T06:16:45.000Z</time>
      </trkpt>
      <trkpt lat="45.60427" lon="4.88381">
        <ele>306.60000610352</ele>
        <time>2024-05-21T06:16:46.000Z</time>
      </trkpt>
      <trkpt lat="45.60426" lon="4.88368">
        <ele>306</ele>
        <time>2024-05-21T06:16:47.000Z</time>
      </trkpt>
      <trkpt lat="45.60426" lon="4.88356">
        <ele>305.60000610352</ele>
        <time>2024-05-21T06:16:48.000Z</time>
      </trkpt>
      <trkpt lat="45.60425" lon="4.88343">
        <ele>305</ele>
        <time>2024-05-21T06:16:49.000Z</time>
      </trkpt>
      <trkpt lat="45.60425" lon="4.88332">
        <ele>304.60000610352</ele>
        <time>2024-05-21T06:16:50.000Z</time>
      </trkpt>
      <trkpt lat="45.60425" lon="4.8832">
        <ele>304.39999389648</ele>
        <time>2024-05-21T06:16:51.000Z</time>
      </trkpt>
      <trkpt lat="45.60425" lon="4.8831">
        <ele>304.20001220703</ele>
        <time>2024-05-21T06:16:52.000Z</time>
      </trkpt>
      <trkpt lat="45.60425" lon="4.88299">
        <ele>304.20001220703</ele>
        <time>2024-05-21T06:16:53.000Z</time>
      </trkpt>
      <trkpt lat="45.60424" lon="4.8829">
        <ele>304.20001220703</ele>
        <time>2024-05-21T06:16:54.000Z</time>
      </trkpt>
      <trkpt lat="45.60424" lon="4.88282">
        <ele>304.39999389648</ele>
        <time>2024-05-21T06:16:55.000Z</time>
      </trkpt>
      <trkpt lat="45.60423" lon="4.88272">
        <ele>304.39999389648</ele>
        <time>2024-05-21T06:16:56.000Z</time>
      </trkpt>
      <trkpt lat="45.60423" lon="4.88264">
        <ele>304.79998779297</ele>
        <time>2024-05-21T06:16:57.000Z</time>
      </trkpt>
      <trkpt lat="45.60423" lon="4.88257">
        <ele>305</ele>
        <time>2024-05-21T06:16:58.000Z</time>
      </trkpt>
      <trkpt lat="45.60423" lon="4.8825">
        <ele>305.60000610352</ele>
        <time>2024-05-21T06:16:59.000Z</time>
      </trkpt>
      <trkpt lat="45.60423" lon="4.88244">
        <ele>305.79998779297</ele>
        <time>2024-05-21T06:17:00.000Z</time>
      </trkpt>
      <trkpt lat="45.60423" lon="4.88239">
        <ele>306.20001220703</ele>
        <time>2024-05-21T06:17:01.000Z</time>
      </trkpt>
      <trkpt lat="45.60423" lon="4.88236">
        <ele>306.39999389648</ele>
        <time>2024-05-21T06:17:02.000Z</time>
      </trkpt>
      <trkpt lat="45.60423" lon="4.88236">
        <ele>306.60000610352</ele>
        <time>2024-05-21T06:17:03.000Z</time>
      </trkpt>
      <trkpt lat="45.60423" lon="4.88236">
        <ele>306.79998779297</ele>
        <time>2024-05-21T06:17:04.000Z</time>
      </trkpt>
      <trkpt lat="45.60423" lon="4.88236">
        <ele>307.20001220703</ele>
        <time>2024-05-21T06:17:05.000Z</time>
      </trkpt>
      <trkpt lat="45.60423" lon="4.88229">
        <ele>307</ele>
        <time>2024-05-21T06:19:05.000Z</time>
      </trkpt>
      <trkpt lat="45.60424" lon="4.88226">
        <ele>307</ele>
        <time>2024-05-21T06:19:06.000Z</time>
      </trkpt>
      <trkpt lat="45.60424" lon="4.88223">
        <ele>307</ele>
        <time>2024-05-21T06:19:07.000Z</time>
      </trkpt>
      <trkpt lat="45.60424" lon="4.88219">
        <ele>307</ele>
        <time>2024-05-21T06:19:08.000Z</time>
      </trkpt>
      <trkpt lat="45.60425" lon="4.88216">
        <ele>307</ele>
        <time>2024-05-21T06:19:09.000Z</time>
      </trkpt>
      <trkpt lat="45.60425" lon="4.88212">
        <ele>307</ele>
        <time>2024-05-21T06:19:10.000Z</time>
      </trkpt>
      <trkpt lat="45.60426" lon="4.88209">
        <ele>307</ele>
        <time>2024-05-21T06:19:11.000Z</time>
      </trkpt>
      <trkpt lat="45.60426" lon="4.88204">
        <ele>307</ele>
        <time>2024-05-21T06:19:12.000Z</time>
      </trkpt>
      <trkpt lat="45.60427" lon="4.88201">
        <ele>307</ele>
        <time>2024-05-21T06:19:13.000Z</time>
      </trkpt>
      <trkpt lat="45.60428" lon="4.88197">
        <ele>307</ele>
        <time>2024-05-21T06:19:14.000Z</time>
      </trkpt>
      <trkpt lat="45.60428" lon="4.88193">
        <ele>307</ele>
        <time>2024-05-21T06:19:15.000Z</time>
      </trkpt>
      <trkpt lat="45.60429" lon="4.88189">
        <ele>307.20001220703</ele>
        <time>2024-05-21T06:19:16.000Z</time>
      </trkpt>
      <trkpt lat="45.60429" lon="4.88186">
        <ele>307.20001220703</ele>
        <time>2024-05-21T06:19:17.000Z</time>
      </trkpt>
      <trkpt lat="45.6043" lon="4.88181">
        <ele>307.20001220703</ele>
        <time>2024-05-21T06:19:18.000Z</time>
      </trkpt>
      <trkpt lat="45.60431" lon="4.88176">
        <ele>307.20001220703</ele>
        <time>2024-05-21T06:19:19.000Z</time>
      </trkpt>
      <trkpt lat="45.60432" lon="4.88172">
        <ele>307.39999389648</ele>
        <time>2024-05-21T06:19:20.000Z</time>
      </trkpt>
      <trkpt lat="45.60433" lon="4.88167">
        <ele>307.39999389648</ele>
        <time>2024-05-21T06:19:21.000Z</time>
      </trkpt>
      <trkpt lat="45.60433" lon="4.88163">
        <ele>307.39999389648</ele>
        <time>2024-05-21T06:19:22.000Z</time>
      </trkpt>
      <trkpt lat="45.60434" lon="4.88158">
        <ele>307.39999389648</ele>
        <time>2024-05-21T06:19:23.000Z</time>
      </trkpt>
      <trkpt lat="45.60434" lon="4.88158">
        <ele>307.39999389648</ele>
        <time>2024-05-21T06:19:24.000Z</time>
      </trkpt>
      <trkpt lat="45.60435" lon="4.88149">
        <ele>307.60000610352</ele>
        <time>2024-05-21T06:19:25.000Z</time>
      </trkpt>
      <trkpt lat="45.60436" lon="4.88145">
        <ele>307.60000610352</ele>
        <time>2024-05-21T06:19:26.000Z</time>
      </trkpt>
      <trkpt lat="45.60437" lon="4.8814">
        <ele>307.79998779297</ele>
        <time>2024-05-21T06:19:27.000Z</time>
      </trkpt>
      <trkpt lat="45.60437" lon="4.88135">
        <ele>307.79998779297</ele>
        <time>2024-05-21T06:19:28.000Z</time>
      </trkpt>
      <trkpt lat="45.60438" lon="4.8813">
        <ele>307.79998779297</ele>
        <time>2024-05-21T06:19:29.000Z</time>
      </trkpt>
      <trkpt lat="45.60439" lon="4.88125">
        <ele>308</ele>
        <time>2024-05-21T06:19:30.000Z</time>
      </trkpt>
      <trkpt lat="45.6044" lon="4.8812">
        <ele>308</ele>
        <time>2024-05-21T06:19:31.000Z</time>
      </trkpt>
      <trkpt lat="45.6044" lon="4.88116">
        <ele>308</ele>
        <time>2024-05-21T06:19:32.000Z</time>
      </trkpt>
      <trkpt lat="45.60441" lon="4.88111">
        <ele>308.20001220703</ele>
        <time>2024-05-21T06:19:33.000Z</time>
      </trkpt>
      <trkpt lat="45.60442" lon="4.88106">
        <ele>308.20001220703</ele>
        <time>2024-05-21T06:19:34.000Z</time>
      </trkpt>
      <trkpt lat="45.60442" lon="4.88102">
        <ele>308.20001220703</ele>
        <time>2024-05-21T06:19:35.000Z</time>
      </trkpt>
      <trkpt lat="45.60441" lon="4.88098">
        <ele>308.20001220703</ele>
        <time>2024-05-21T06:19:36.000Z</time>
      </trkpt>
      <trkpt lat="45.6044" lon="4.88095">
        <ele>308.20001220703</ele>
        <time>2024-05-21T06:19:37.000Z</time>
      </trkpt>
      <trkpt lat="45.60437" lon="4.88093">
        <ele>308</ele>
        <time>2024-05-21T06:19:38.000Z</time>
      </trkpt>
      <trkpt lat="45.60434" lon="4.88094">
        <ele>308</ele>
        <time>2024-05-21T06:19:39.000Z</time>
      </trkpt>
      <trkpt lat="45.60432" lon="4.88095">
        <ele>308</ele>
        <time>2024-05-21T06:19:40.000Z</time>
      </trkpt>
      <trkpt lat="45.60431" lon="4.88097">
        <ele>308</ele>
        <time>2024-05-21T06:19:41.000Z</time>
      </trkpt>
      <trkpt lat="45.60429" lon="4.88099">
        <ele>308.20001220703</ele>
        <time>2024-05-21T06:19:42.000Z</time>
      </trkpt>
      <trkpt lat="45.60427" lon="4.88101">
        <ele>308.20001220703</ele>
        <time>2024-05-21T06:19:43.000Z</time>
      </trkpt>
      <trkpt lat="45.60426" lon="4.88102">
        <ele>308.39999389648</ele>
        <time>2024-05-21T06:19:44.000Z</time>
      </trkpt>
      <trkpt lat="45.60424" lon="4.88104">
        <ele>308.79998779297</ele>
        <time>2024-05-21T06:19:45.000Z</time>
      </trkpt>
      <trkpt lat="45.60422" lon="4.88106">
        <ele>309</ele>
        <time>2024-05-21T06:19:46.000Z</time>
      </trkpt>
      <trkpt lat="45.60421" lon="4.88108">
        <ele>309.20001220703</ele>
        <time>2024-05-21T06:19:47.000Z</time>
      </trkpt>
      <trkpt lat="45.60419" lon="4.88111">
        <ele>309.39999389648</ele>
        <time>2024-05-21T06:19:48.000Z</time>
      </trkpt>
      <trkpt lat="45.60417" lon="4.88113">
        <ele>309.79998779297</ele>
        <time>2024-05-21T06:19:49.000Z</time>
      </trkpt>
      <trkpt lat="45.60416" lon="4.88114">
        <ele>310</ele>
        <time>2024-05-21T06:19:50.000Z</time>
      </trkpt>
      <trkpt lat="45.60414" lon="4.88116">
        <ele>310</ele>
        <time>2024-05-21T06:19:51.000Z</time>
      </trkpt>
      <trkpt lat="45.60413" lon="4.88118">
        <ele>310.39999389648</ele>
        <time>2024-05-21T06:19:52.000Z</time>
      </trkpt>
      <trkpt lat="45.60411" lon="4.88119">
        <ele>310.79998779297</ele>
        <time>2024-05-21T06:19:53.000Z</time>
      </trkpt>
      <trkpt lat="45.60409" lon="4.88121">
        <ele>310.79998779297</ele>
        <time>2024-05-21T06:19:54.000Z</time>
      </trkpt>
      <trkpt lat="45.60407" lon="4.88123">
        <ele>311</ele>
        <time>2024-05-21T06:19:55.000Z</time>
      </trkpt>
      <trkpt lat="45.60406" lon="4.88125">
        <ele>311.39999389648</ele>
        <time>2024-05-21T06:19:56.000Z</time>
      </trkpt>
      <trkpt lat="45.60405" lon="4.88126">
        <ele>311.39999389648</ele>
        <time>2024-05-21T06:19:57.000Z</time>
      </trkpt>
      <trkpt lat="45.60403" lon="4.88128">
        <ele>311.79998779297</ele>
        <time>2024-05-21T06:19:58.000Z</time>
      </trkpt>
      <trkpt lat="45.60402" lon="4.8813">
        <ele>312</ele>
        <time>2024-05-21T06:19:59.000Z</time>
      </trkpt>
      <trkpt lat="45.604" lon="4.88132">
        <ele>312.20001220703</ele>
        <time>2024-05-21T06:20:00.000Z</time>
      </trkpt>
      <trkpt lat="45.60399" lon="4.88134">
        <ele>312.20001220703</ele>
        <time>2024-05-21T06:20:01.000Z</time>
      </trkpt>
      <trkpt lat="45.60398" lon="4.88136">
        <ele>312.60000610352</ele>
        <time>2024-05-21T06:20:02.000Z</time>
      </trkpt>
      <trkpt lat="45.60397" lon="4.88138">
        <ele>312.79998779297</ele>
        <time>2024-05-21T06:20:03.000Z</time>
      </trkpt>
      <trkpt lat="45.60395" lon="4.8814">
        <ele>313</ele>
        <time>2024-05-21T06:20:04.000Z</time>
      </trkpt>
      <trkpt lat="45.60393" lon="4.88142">
        <ele>313.20001220703</ele>
        <time>2024-05-21T06:20:05.000Z</time>
      </trkpt>
      <trkpt lat="45.60392" lon="4.88144">
        <ele>313.39999389648</ele>
        <time>2024-05-21T06:20:06.000Z</time>
      </trkpt>
      <trkpt lat="45.6039" lon="4.88145">
        <ele>313.60000610352</ele>
        <time>2024-05-21T06:20:07.000Z</time>
      </trkpt>
      <trkpt lat="45.60389" lon="4.88146">
        <ele>313.79998779297</ele>
        <time>2024-05-21T06:20:08.000Z</time>
      </trkpt>
      <trkpt lat="45.60387" lon="4.88148">
        <ele>314</ele>
        <time>2024-05-21T06:20:09.000Z</time>
      </trkpt>
      <trkpt lat="45.60386" lon="4.88149">
        <ele>314.20001220703</ele>
        <time>2024-05-21T06:20:10.000Z</time>
      </trkpt>
      <trkpt lat="45.60385" lon="4.88149">
        <ele>314.39999389648</ele>
        <time>2024-05-21T06:20:11.000Z</time>
      </trkpt>
      <trkpt lat="45.60384" lon="4.8815">
        <ele>314.60000610352</ele>
        <time>2024-05-21T06:20:12.000Z</time>
      </trkpt>
      <trkpt lat="45.60383" lon="4.88151">
        <ele>314.79998779297</ele>
        <time>2024-05-21T06:20:13.000Z</time>
      </trkpt>
      <trkpt lat="45.60382" lon="4.88153">
        <ele>315</ele>
        <time>2024-05-21T06:20:14.000Z</time>
      </trkpt>
      <trkpt lat="45.6038" lon="4.88155">
        <ele>315.20001220703</ele>
        <time>2024-05-21T06:20:15.000Z</time>
      </trkpt>
      <trkpt lat="45.60379" lon="4.88156">
        <ele>315.39999389648</ele>
        <time>2024-05-21T06:20:16.000Z</time>
      </trkpt>
      <trkpt lat="45.60378" lon="4.88156">
        <ele>315.60000610352</ele>
        <time>2024-05-21T06:20:17.000Z</time>
      </trkpt>
      <trkpt lat="45.60378" lon="4.88157">
        <ele>315.79998779297</ele>
        <time>2024-05-21T06:20:18.000Z</time>
      </trkpt>
      <trkpt lat="45.60374" lon="4.8816">
        <ele>316.60000610352</ele>
        <time>2024-05-21T06:20:21.000Z</time>
      </trkpt>
      <trkpt lat="45.60372" lon="4.88162">
        <ele>316.79998779297</ele>
        <time>2024-05-21T06:20:22.000Z</time>
      </trkpt>
      <trkpt lat="45.6037" lon="4.88163">
        <ele>317</ele>
        <time>2024-05-21T06:20:23.000Z</time>
      </trkpt>
      <trkpt lat="45.60368" lon="4.88165">
        <ele>317.20001220703</ele>
        <time>2024-05-21T06:20:24.000Z</time>
      </trkpt>
      <trkpt lat="45.60367" lon="4.88166">
        <ele>317.60000610352</ele>
        <time>2024-05-21T06:20:25.000Z</time>
      </trkpt>
      <trkpt lat="45.60366" lon="4.88167">
        <ele>317.79998779297</ele>
        <time>2024-05-21T06:20:26.000Z</time>
      </trkpt>
      <trkpt lat="45.60364" lon="4.88168">
        <ele>318</ele>
        <time>2024-05-21T06:20:27.000Z</time>
      </trkpt>
      <trkpt lat="45.60363" lon="4.88169">
        <ele>318.20001220703</ele>
        <time>2024-05-21T06:20:28.000Z</time>
      </trkpt>
      <trkpt lat="45.6036" lon="4.88171">
        <ele>318.39999389648</ele>
        <time>2024-05-21T06:20:29.000Z</time>
      </trkpt>
      <trkpt lat="45.60359" lon="4.88172">
        <ele>318.60000610352</ele>
        <time>2024-05-21T06:20:30.000Z</time>
      </trkpt>
      <trkpt lat="45.60358" lon="4.88173">
        <ele>319</ele>
        <time>2024-05-21T06:20:31.000Z</time>
      </trkpt>
      <trkpt lat="45.60357" lon="4.88174">
        <ele>319.20001220703</ele>
        <time>2024-05-21T06:20:32.000Z</time>
      </trkpt>
      <trkpt lat="45.60356" lon="4.88175">
        <ele>319.39999389648</ele>
        <time>2024-05-21T06:20:33.000Z</time>
      </trkpt>
      <trkpt lat="45.60356" lon="4.88175">
        <ele>319.60000610352</ele>
        <time>2024-05-21T06:20:34.000Z</time>
      </trkpt>
      <trkpt lat="45.60355" lon="4.88176">
        <ele>319.79998779297</ele>
        <time>2024-05-21T06:20:35.000Z</time>
      </trkpt>
      <trkpt lat="45.60342" lon="4.88187">
        <ele>322</ele>
        <time>2024-05-21T06:20:45.000Z</time>
      </trkpt>
      <trkpt lat="45.60339" lon="4.88189">
        <ele>322.20001220703</ele>
        <time>2024-05-21T06:20:46.000Z</time>
      </trkpt>
      <trkpt lat="45.60337" lon="4.8819">
        <ele>322.39999389648</ele>
        <time>2024-05-21T06:20:47.000Z</time>
      </trkpt>
      <trkpt lat="45.60336" lon="4.88191">
        <ele>322.79998779297</ele>
        <time>2024-05-21T06:20:48.000Z</time>
      </trkpt>
      <trkpt lat="45.60334" lon="4.88192">
        <ele>323</ele>
        <time>2024-05-21T06:20:49.000Z</time>
      </trkpt>
      <trkpt lat="45.60332" lon="4.88193">
        <ele>323.20001220703</ele>
        <time>2024-05-21T06:20:50.000Z</time>
      </trkpt>
      <trkpt lat="45.60329" lon="4.88195">
        <ele>323.39999389648</ele>
        <time>2024-05-21T06:20:51.000Z</time>
      </trkpt>
      <trkpt lat="45.60327" lon="4.88196">
        <ele>323.60000610352</ele>
        <time>2024-05-21T06:20:52.000Z</time>
      </trkpt>
      <trkpt lat="45.60325" lon="4.88197">
        <ele>323.79998779297</ele>
        <time>2024-05-21T06:20:53.000Z</time>
      </trkpt>
      <trkpt lat="45.60323" lon="4.88199">
        <ele>324</ele>
        <time>2024-05-21T06:20:54.000Z</time>
      </trkpt>
      <trkpt lat="45.60321" lon="4.882">
        <ele>324.20001220703</ele>
        <time>2024-05-21T06:20:55.000Z</time>
      </trkpt>
      <trkpt lat="45.60319" lon="4.88201">
        <ele>324.39999389648</ele>
        <time>2024-05-21T06:20:56.000Z</time>
      </trkpt>
      <trkpt lat="45.60318" lon="4.88203">
        <ele>324.60000610352</ele>
        <time>2024-05-21T06:20:57.000Z</time>
      </trkpt>
      <trkpt lat="45.60316" lon="4.88206">
        <ele>324.79998779297</ele>
        <time>2024-05-21T06:20:58.000Z</time>
      </trkpt>
      <trkpt lat="45.60314" lon="4.88208">
        <ele>325.20001220703</ele>
        <time>2024-05-21T06:20:59.000Z</time>
      </trkpt>
      <trkpt lat="45.60312" lon="4.88209">
        <ele>325.39999389648</ele>
        <time>2024-05-21T06:21:00.000Z</time>
      </trkpt>
      <trkpt lat="45.6031" lon="4.8821">
        <ele>325.60000610352</ele>
        <time>2024-05-21T06:21:01.000Z</time>
      </trkpt>
      <trkpt lat="45.60309" lon="4.88211">
        <ele>326</ele>
        <time>2024-05-21T06:21:02.000Z</time>
      </trkpt>
      <trkpt lat="45.60306" lon="4.88212">
        <ele>326.20001220703</ele>
        <time>2024-05-21T06:21:03.000Z</time>
      </trkpt>
      <trkpt lat="45.60304" lon="4.88214">
        <ele>326.39999389648</ele>
        <time>2024-05-21T06:21:04.000Z</time>
      </trkpt>
      <trkpt lat="45.60303" lon="4.88215">
        <ele>326.60000610352</ele>
        <time>2024-05-21T06:21:05.000Z</time>
      </trkpt>
      <trkpt lat="45.60301" lon="4.88216">
        <ele>326.79998779297</ele>
        <time>2024-05-21T06:21:06.000Z</time>
      </trkpt>
      <trkpt lat="45.603" lon="4.88218">
        <ele>327</ele>
        <time>2024-05-21T06:21:07.000Z</time>
      </trkpt>
      <trkpt lat="45.60299" lon="4.88219">
        <ele>327.39999389648</ele>
        <time>2024-05-21T06:21:08.000Z</time>
      </trkpt>
      <trkpt lat="45.60297" lon="4.8822">
        <ele>327.60000610352</ele>
        <time>2024-05-21T06:21:09.000Z</time>
      </trkpt>
      <trkpt lat="45.60296" lon="4.8822">
        <ele>327.79998779297</ele>
        <time>2024-05-21T06:21:10.000Z</time>
      </trkpt>
      <trkpt lat="45.60294" lon="4.88221">
        <ele>328.20001220703</ele>
        <time>2024-05-21T06:21:11.000Z</time>
      </trkpt>
      <trkpt lat="45.60293" lon="4.88222">
        <ele>328.39999389648</ele>
        <time>2024-05-21T06:21:12.000Z</time>
      </trkpt>
      <trkpt lat="45.60291" lon="4.88223">
        <ele>328.79998779297</ele>
        <time>2024-05-21T06:21:13.000Z</time>
      </trkpt>
      <trkpt lat="45.60289" lon="4.88224">
        <ele>329</ele>
        <time>2024-05-21T06:21:14.000Z</time>
      </trkpt>
      <trkpt lat="45.60288" lon="4.88225">
        <ele>329.20001220703</ele>
        <time>2024-05-21T06:21:15.000Z</time>
      </trkpt>
      <trkpt lat="45.60286" lon="4.88226">
        <ele>329.39999389648</ele>
        <time>2024-05-21T06:21:16.000Z</time>
      </trkpt>
      <trkpt lat="45.60284" lon="4.88226">
        <ele>329.60000610352</ele>
        <time>2024-05-21T06:21:17.000Z</time>
      </trkpt>
      <trkpt lat="45.60283" lon="4.88228">
        <ele>330</ele>
        <time>2024-05-21T06:21:18.000Z</time>
      </trkpt>
      <trkpt lat="45.60282" lon="4.88228">
        <ele>330.20001220703</ele>
        <time>2024-05-21T06:21:19.000Z</time>
      </trkpt>
      <trkpt lat="45.6028" lon="4.88229">
        <ele>330.60000610352</ele>
        <time>2024-05-21T06:21:20.000Z</time>
      </trkpt>
      <trkpt lat="45.60278" lon="4.8823">
        <ele>330.79998779297</ele>
        <time>2024-05-21T06:21:21.000Z</time>
      </trkpt>
      <trkpt lat="45.60277" lon="4.88231">
        <ele>331</ele>
        <time>2024-05-21T06:21:22.000Z</time>
      </trkpt>
      <trkpt lat="45.60275" lon="4.88232">
        <ele>331.39999389648</ele>
        <time>2024-05-21T06:21:23.000Z</time>
      </trkpt>
      <trkpt lat="45.60274" lon="4.88233">
        <ele>331.60000610352</ele>
        <time>2024-05-21T06:21:24.000Z</time>
      </trkpt>
      <trkpt lat="45.60272" lon="4.88234">
        <ele>331.79998779297</ele>
        <time>2024-05-21T06:21:25.000Z</time>
      </trkpt>
      <trkpt lat="45.60271" lon="4.88235">
        <ele>332</ele>
        <time>2024-05-21T06:21:26.000Z</time>
      </trkpt>
      <trkpt lat="45.60269" lon="4.88235">
        <ele>332.39999389648</ele>
        <time>2024-05-21T06:21:27.000Z</time>
      </trkpt>
      <trkpt lat="45.60269" lon="4.88235">
        <ele>332.60000610352</ele>
        <time>2024-05-21T06:21:28.000Z</time>
      </trkpt>
      <trkpt lat="45.60267" lon="4.88236">
        <ele>332.79998779297</ele>
        <time>2024-05-21T06:21:29.000Z</time>
      </trkpt>
      <trkpt lat="45.60265" lon="4.88236">
        <ele>333</ele>
        <time>2024-05-21T06:21:30.000Z</time>
      </trkpt>
      <trkpt lat="45.60264" lon="4.88237">
        <ele>333.39999389648</ele>
        <time>2024-05-21T06:21:31.000Z</time>
      </trkpt>
      <trkpt lat="45.60262" lon="4.88237">
        <ele>333.60000610352</ele>
        <time>2024-05-21T06:21:32.000Z</time>
      </trkpt>
      <trkpt lat="45.60261" lon="4.88237">
        <ele>333.79998779297</ele>
        <time>2024-05-21T06:21:33.000Z</time>
      </trkpt>
      <trkpt lat="45.60259" lon="4.88238">
        <ele>334</ele>
        <time>2024-05-21T06:21:34.000Z</time>
      </trkpt>
      <trkpt lat="45.60257" lon="4.88238">
        <ele>334.39999389648</ele>
        <time>2024-05-21T06:21:35.000Z</time>
      </trkpt>
      <trkpt lat="45.60256" lon="4.88237">
        <ele>334.60000610352</ele>
        <time>2024-05-21T06:21:36.000Z</time>
      </trkpt>
      <trkpt lat="45.60254" lon="4.88237">
        <ele>334.79998779297</ele>
        <time>2024-05-21T06:21:37.000Z</time>
      </trkpt>
      <trkpt lat="45.60253" lon="4.88237">
        <ele>335</ele>
        <time>2024-05-21T06:21:38.000Z</time>
      </trkpt>
      <trkpt lat="45.60251" lon="4.88238">
        <ele>335.20001220703</ele>
        <time>2024-05-21T06:21:39.000Z</time>
      </trkpt>
      <trkpt lat="45.60249" lon="4.88238">
        <ele>335.60000610352</ele>
        <time>2024-05-21T06:21:40.000Z</time>
      </trkpt>
      <trkpt lat="45.60248" lon="4.88238">
        <ele>336</ele>
        <time>2024-05-21T06:21:41.000Z</time>
      </trkpt>
      <trkpt lat="45.60246" lon="4.88238">
        <ele>336.20001220703</ele>
        <time>2024-05-21T06:21:42.000Z</time>
      </trkpt>
      <trkpt lat="45.60245" lon="4.88238">
        <ele>336.39999389648</ele>
        <time>2024-05-21T06:21:43.000Z</time>
      </trkpt>
      <trkpt lat="45.60243" lon="4.88238">
        <ele>336.60000610352</ele>
        <time>2024-05-21T06:21:44.000Z</time>
      </trkpt>
      <trkpt lat="45.60242" lon="4.88238">
        <ele>337</ele>
        <time>2024-05-21T06:21:45.000Z</time>
      </trkpt>
      <trkpt lat="45.60241" lon="4.88238">
        <ele>337.20001220703</ele>
        <time>2024-05-21T06:21:46.000Z</time>
      </trkpt>
      <trkpt lat="45.60239" lon="4.88239">
        <ele>337.60000610352</ele>
        <time>2024-05-21T06:21:47.000Z</time>
      </trkpt>
      <trkpt lat="45.60237" lon="4.8824">
        <ele>337.79998779297</ele>
        <time>2024-05-21T06:21:48.000Z</time>
      </trkpt>
      <trkpt lat="45.60235" lon="4.8824">
        <ele>338</ele>
        <time>2024-05-21T06:21:49.000Z</time>
      </trkpt>
      <trkpt lat="45.60234" lon="4.88239">
        <ele>338.20001220703</ele>
        <time>2024-05-21T06:21:50.000Z</time>
      </trkpt>
      <trkpt lat="45.60232" lon="4.88239">
        <ele>338.60000610352</ele>
        <time>2024-05-21T06:21:51.000Z</time>
      </trkpt>
      <trkpt lat="45.60231" lon="4.88239">
        <ele>338.79998779297</ele>
        <time>2024-05-21T06:21:52.000Z</time>
      </trkpt>
      <trkpt lat="45.60229" lon="4.88239">
        <ele>339</ele>
        <time>2024-05-21T06:21:53.000Z</time>
      </trkpt>
      <trkpt lat="45.60228" lon="4.88239">
        <ele>339.20001220703</ele>
        <time>2024-05-21T06:21:54.000Z</time>
      </trkpt>
      <trkpt lat="45.60227" lon="4.88238">
        <ele>339.39999389648</ele>
        <time>2024-05-21T06:21:55.000Z</time>
      </trkpt>
      <trkpt lat="45.60225" lon="4.88238">
        <ele>339.60000610352</ele>
        <time>2024-05-21T06:21:56.000Z</time>
      </trkpt>
      <trkpt lat="45.60223" lon="4.88238">
        <ele>339.79998779297</ele>
        <time>2024-05-21T06:21:57.000Z</time>
      </trkpt>
      <trkpt lat="45.60222" lon="4.88237">
        <ele>340</ele>
        <time>2024-05-21T06:21:58.000Z</time>
      </trkpt>
      <trkpt lat="45.6022" lon="4.88237">
        <ele>340.20001220703</ele>
        <time>2024-05-21T06:21:59.000Z</time>
      </trkpt>
      <trkpt lat="45.60219" lon="4.88237">
        <ele>340.60000610352</ele>
        <time>2024-05-21T06:22:00.000Z</time>
      </trkpt>
      <trkpt lat="45.60217" lon="4.88237">
        <ele>340.79998779297</ele>
        <time>2024-05-21T06:22:01.000Z</time>
      </trkpt>
      <trkpt lat="45.60215" lon="4.88237">
        <ele>341</ele>
        <time>2024-05-21T06:22:02.000Z</time>
      </trkpt>
      <trkpt lat="45.60214" lon="4.88236">
        <ele>341.20001220703</ele>
        <time>2024-05-21T06:22:03.000Z</time>
      </trkpt>
      <trkpt lat="45.60212" lon="4.88235">
        <ele>341.39999389648</ele>
        <time>2024-05-21T06:22:04.000Z</time>
      </trkpt>
      <trkpt lat="45.60211" lon="4.88235">
        <ele>341.79998779297</ele>
        <time>2024-05-21T06:22:05.000Z</time>
      </trkpt>
      <trkpt lat="45.60209" lon="4.88235">
        <ele>342</ele>
        <time>2024-05-21T06:22:06.000Z</time>
      </trkpt>
      <trkpt lat="45.60208" lon="4.88235">
        <ele>342.20001220703</ele>
        <time>2024-05-21T06:22:07.000Z</time>
      </trkpt>
      <trkpt lat="45.60207" lon="4.88235">
        <ele>342.39999389648</ele>
        <time>2024-05-21T06:22:08.000Z</time>
      </trkpt>
      <trkpt lat="45.60205" lon="4.88235">
        <ele>342.60000610352</ele>
        <time>2024-05-21T06:22:09.000Z</time>
      </trkpt>
      <trkpt lat="45.60204" lon="4.88235">
        <ele>342.79998779297</ele>
        <time>2024-05-21T06:22:10.000Z</time>
      </trkpt>
      <trkpt lat="45.60202" lon="4.88235">
        <ele>343</ele>
        <time>2024-05-21T06:22:11.000Z</time>
      </trkpt>
      <trkpt lat="45.602" lon="4.88234">
        <ele>343.20001220703</ele>
        <time>2024-05-21T06:22:12.000Z</time>
      </trkpt>
      <trkpt lat="45.60199" lon="4.88233">
        <ele>343.39999389648</ele>
        <time>2024-05-21T06:22:13.000Z</time>
      </trkpt>
      <trkpt lat="45.60198" lon="4.88232">
        <ele>343.60000610352</ele>
        <time>2024-05-21T06:22:14.000Z</time>
      </trkpt>
      <trkpt lat="45.60197" lon="4.88231">
        <ele>343.79998779297</ele>
        <time>2024-05-21T06:22:15.000Z</time>
      </trkpt>
      <trkpt lat="45.60195" lon="4.8823">
        <ele>344</ele>
        <time>2024-05-21T06:22:16.000Z</time>
      </trkpt>
      <trkpt lat="45.60194" lon="4.88229">
        <ele>344.20001220703</ele>
        <time>2024-05-21T06:22:17.000Z</time>
      </trkpt>
      <trkpt lat="45.60192" lon="4.88229">
        <ele>344.39999389648</ele>
        <time>2024-05-21T06:22:18.000Z</time>
      </trkpt>
      <trkpt lat="45.60191" lon="4.88229">
        <ele>344.60000610352</ele>
        <time>2024-05-21T06:22:19.000Z</time>
      </trkpt>
      <trkpt lat="45.6019" lon="4.88228">
        <ele>344.60000610352</ele>
        <time>2024-05-21T06:22:20.000Z</time>
      </trkpt>
      <trkpt lat="45.60188" lon="4.88227">
        <ele>344.79998779297</ele>
        <time>2024-05-21T06:22:21.000Z</time>
      </trkpt>
      <trkpt lat="45.60186" lon="4.88226">
        <ele>345</ele>
        <time>2024-05-21T06:22:22.000Z</time>
      </trkpt>
      <trkpt lat="45.60184" lon="4.88225">
        <ele>345</ele>
        <time>2024-05-21T06:22:23.000Z</time>
      </trkpt>
      <trkpt lat="45.60182" lon="4.88225">
        <ele>345</ele>
        <time>2024-05-21T06:22:24.000Z</time>
      </trkpt>
      <trkpt lat="45.6018" lon="4.88225">
        <ele>345.20001220703</ele>
        <time>2024-05-21T06:22:25.000Z</time>
      </trkpt>
      <trkpt lat="45.60177" lon="4.88224">
        <ele>345.20001220703</ele>
        <time>2024-05-21T06:22:26.000Z</time>
      </trkpt>
      <trkpt lat="45.60174" lon="4.88224">
        <ele>345.20001220703</ele>
        <time>2024-05-21T06:22:27.000Z</time>
      </trkpt>
      <trkpt lat="45.60171" lon="4.88223">
        <ele>345.20001220703</ele>
        <time>2024-05-21T06:22:28.000Z</time>
      </trkpt>
      <trkpt lat="45.60167" lon="4.88222">
        <ele>345.20001220703</ele>
        <time>2024-05-21T06:22:29.000Z</time>
      </trkpt>
      <trkpt lat="45.60162" lon="4.88221">
        <ele>345</ele>
        <time>2024-05-21T06:22:30.000Z</time>
      </trkpt>
      <trkpt lat="45.60158" lon="4.8822">
        <ele>344.60000610352</ele>
        <time>2024-05-21T06:22:31.000Z</time>
      </trkpt>
      <trkpt lat="45.60153" lon="4.8822">
        <ele>344.20001220703</ele>
        <time>2024-05-21T06:22:32.000Z</time>
      </trkpt>
      <trkpt lat="45.60148" lon="4.8822">
        <ele>344</ele>
        <time>2024-05-21T06:22:33.000Z</time>
      </trkpt>
      <trkpt lat="45.60143" lon="4.8822">
        <ele>343.79998779297</ele>
        <time>2024-05-21T06:22:34.000Z</time>
      </trkpt>
      <trkpt lat="45.60139" lon="4.88221">
        <ele>343.39999389648</ele>
        <time>2024-05-21T06:22:35.000Z</time>
      </trkpt>
      <trkpt lat="45.60134" lon="4.88221">
        <ele>343.20001220703</ele>
        <time>2024-05-21T06:22:36.000Z</time>
      </trkpt>
      <trkpt lat="45.6013" lon="4.88221">
        <ele>343</ele>
        <time>2024-05-21T06:22:37.000Z</time>
      </trkpt>
      <trkpt lat="45.60124" lon="4.88222">
        <ele>343</ele>
        <time>2024-05-21T06:22:38.000Z</time>
      </trkpt>
      <trkpt lat="45.60119" lon="4.88222">
        <ele>342.79998779297</ele>
        <time>2024-05-21T06:22:39.000Z</time>
      </trkpt>
      <trkpt lat="45.60113" lon="4.88222">
        <ele>342.60000610352</ele>
        <time>2024-05-21T06:22:40.000Z</time>
      </trkpt>
      <trkpt lat="45.60107" lon="4.88224">
        <ele>342.39999389648</ele>
        <time>2024-05-21T06:22:41.000Z</time>
      </trkpt>
      <trkpt lat="45.60102" lon="4.88224">
        <ele>342.20001220703</ele>
        <time>2024-05-21T06:22:42.000Z</time>
      </trkpt>
      <trkpt lat="45.60097" lon="4.88225">
        <ele>341.79998779297</ele>
        <time>2024-05-21T06:22:43.000Z</time>
      </trkpt>
      <trkpt lat="45.60089" lon="4.88225">
        <ele>341.39999389648</ele>
        <time>2024-05-21T06:22:44.000Z</time>
      </trkpt>
      <trkpt lat="45.60083" lon="4.88223">
        <ele>341.20001220703</ele>
        <time>2024-05-21T06:22:45.000Z</time>
      </trkpt>
      <trkpt lat="45.60078" lon="4.88222">
        <ele>341</ele>
        <time>2024-05-21T06:22:46.000Z</time>
      </trkpt>
      <trkpt lat="45.60071" lon="4.88219">
        <ele>340.60000610352</ele>
        <time>2024-05-21T06:22:47.000Z</time>
      </trkpt>
      <trkpt lat="45.60065" lon="4.88216">
        <ele>340.20001220703</ele>
        <time>2024-05-21T06:22:48.000Z</time>
      </trkpt>
      <trkpt lat="45.6006" lon="4.88214">
        <ele>340</ele>
        <time>2024-05-21T06:22:49.000Z</time>
      </trkpt>
      <trkpt lat="45.60055" lon="4.88211">
        <ele>339.79998779297</ele>
        <time>2024-05-21T06:22:50.000Z</time>
      </trkpt>
      <trkpt lat="45.60048" lon="4.88208">
        <ele>339.60000610352</ele>
        <time>2024-05-21T06:22:51.000Z</time>
      </trkpt>
      <trkpt lat="45.60042" lon="4.88205">
        <ele>339.39999389648</ele>
        <time>2024-05-21T06:22:52.000Z</time>
      </trkpt>
      <trkpt lat="45.60036" lon="4.88201">
        <ele>339.39999389648</ele>
        <time>2024-05-21T06:22:53.000Z</time>
      </trkpt>
      <trkpt lat="45.6003" lon="4.88198">
        <ele>339.39999389648</ele>
        <time>2024-05-21T06:22:54.000Z</time>
      </trkpt>
      <trkpt lat="45.60025" lon="4.88195">
        <ele>339</ele>
        <time>2024-05-21T06:22:55.000Z</time>
      </trkpt>
      <trkpt lat="45.60017" lon="4.88192">
        <ele>338.60000610352</ele>
        <time>2024-05-21T06:22:56.000Z</time>
      </trkpt>
      <trkpt lat="45.60011" lon="4.88189">
        <ele>338.60000610352</ele>
        <time>2024-05-21T06:22:57.000Z</time>
      </trkpt>
      <trkpt lat="45.60004" lon="4.88187">
        <ele>338.39999389648</ele>
        <time>2024-05-21T06:22:58.000Z</time>
      </trkpt>
      <trkpt lat="45.59998" lon="4.88185">
        <ele>338.20001220703</ele>
        <time>2024-05-21T06:22:59.000Z</time>
      </trkpt>
      <trkpt lat="45.59991" lon="4.88183">
        <ele>338.20001220703</ele>
        <time>2024-05-21T06:23:00.000Z</time>
      </trkpt>
      <trkpt lat="45.59986" lon="4.88181">
        <ele>337.79998779297</ele>
        <time>2024-05-21T06:23:01.000Z</time>
      </trkpt>
      <trkpt lat="45.59979" lon="4.88179">
        <ele>337.60000610352</ele>
        <time>2024-05-21T06:23:02.000Z</time>
      </trkpt>
      <trkpt lat="45.59973" lon="4.88177">
        <ele>337.20001220703</ele>
        <time>2024-05-21T06:23:03.000Z</time>
      </trkpt>
      <trkpt lat="45.59968" lon="4.88175">
        <ele>337</ele>
        <time>2024-05-21T06:23:04.000Z</time>
      </trkpt>
      <trkpt lat="45.59961" lon="4.88172">
        <ele>337</ele>
        <time>2024-05-21T06:23:05.000Z</time>
      </trkpt>
      <trkpt lat="45.59955" lon="4.8817">
        <ele>337</ele>
        <time>2024-05-21T06:23:06.000Z</time>
      </trkpt>
      <trkpt lat="45.5995" lon="4.88167">
        <ele>337</ele>
        <time>2024-05-21T06:23:07.000Z</time>
      </trkpt>
      <trkpt lat="45.59944" lon="4.88164">
        <ele>337</ele>
        <time>2024-05-21T06:23:08.000Z</time>
      </trkpt>
      <trkpt lat="45.59938" lon="4.88161">
        <ele>336.79998779297</ele>
        <time>2024-05-21T06:23:09.000Z</time>
      </trkpt>
      <trkpt lat="45.59934" lon="4.88159">
        <ele>336.79998779297</ele>
        <time>2024-05-21T06:23:10.000Z</time>
      </trkpt>
      <trkpt lat="45.59928" lon="4.88155">
        <ele>336.79998779297</ele>
        <time>2024-05-21T06:23:11.000Z</time>
      </trkpt>
      <trkpt lat="45.59923" lon="4.88152">
        <ele>336.60000610352</ele>
        <time>2024-05-21T06:23:12.000Z</time>
      </trkpt>
      <trkpt lat="45.59916" lon="4.88148">
        <ele>336.60000610352</ele>
        <time>2024-05-21T06:23:13.000Z</time>
      </trkpt>
      <trkpt lat="45.5991" lon="4.88144">
        <ele>336.60000610352</ele>
        <time>2024-05-21T06:23:14.000Z</time>
      </trkpt>
      <trkpt lat="45.59904" lon="4.88141">
        <ele>336.39999389648</ele>
        <time>2024-05-21T06:23:15.000Z</time>
      </trkpt>
      <trkpt lat="45.59898" lon="4.88137">
        <ele>336.39999389648</ele>
        <time>2024-05-21T06:23:16.000Z</time>
      </trkpt>
      <trkpt lat="45.59893" lon="4.88133">
        <ele>336.39999389648</ele>
        <time>2024-05-21T06:23:17.000Z</time>
      </trkpt>
      <trkpt lat="45.59887" lon="4.8813">
        <ele>336.20001220703</ele>
        <time>2024-05-21T06:23:18.000Z</time>
      </trkpt>
      <trkpt lat="45.59881" lon="4.88126">
        <ele>336.20001220703</ele>
        <time>2024-05-21T06:23:19.000Z</time>
      </trkpt>
      <trkpt lat="45.59875" lon="4.88123">
        <ele>336.20001220703</ele>
        <time>2024-05-21T06:23:20.000Z</time>
      </trkpt>
      <trkpt lat="45.5987" lon="4.88119">
        <ele>336.20001220703</ele>
        <time>2024-05-21T06:23:21.000Z</time>
      </trkpt>
      <trkpt lat="45.59865" lon="4.88117">
        <ele>336.20001220703</ele>
        <time>2024-05-21T06:23:22.000Z</time>
      </trkpt>
      <trkpt lat="45.59859" lon="4.88113">
        <ele>336</ele>
        <time>2024-05-21T06:23:23.000Z</time>
      </trkpt>
      <trkpt lat="45.59854" lon="4.8811">
        <ele>336</ele>
        <time>2024-05-21T06:23:24.000Z</time>
      </trkpt>
      <trkpt lat="45.59848" lon="4.88107">
        <ele>335.79998779297</ele>
        <time>2024-05-21T06:23:25.000Z</time>
      </trkpt>
      <trkpt lat="45.59843" lon="4.88103">
        <ele>335.79998779297</ele>
        <time>2024-05-21T06:23:26.000Z</time>
      </trkpt>
      <trkpt lat="45.59837" lon="4.881">
        <ele>335.79998779297</ele>
        <time>2024-05-21T06:23:27.000Z</time>
      </trkpt>
      <trkpt lat="45.59832" lon="4.88097">
        <ele>335.79998779297</ele>
        <time>2024-05-21T06:23:28.000Z</time>
      </trkpt>
      <trkpt lat="45.59826" lon="4.88093">
        <ele>335.79998779297</ele>
        <time>2024-05-21T06:23:29.000Z</time>
      </trkpt>
      <trkpt lat="45.59821" lon="4.8809">
        <ele>335.79998779297</ele>
        <time>2024-05-21T06:23:30.000Z</time>
      </trkpt>
      <trkpt lat="45.59816" lon="4.88087">
        <ele>335.79998779297</ele>
        <time>2024-05-21T06:23:31.000Z</time>
      </trkpt>
      <trkpt lat="45.5981" lon="4.88083">
        <ele>335.79998779297</ele>
        <time>2024-05-21T06:23:32.000Z</time>
      </trkpt>
      <trkpt lat="45.59804" lon="4.8808">
        <ele>335.79998779297</ele>
        <time>2024-05-21T06:23:33.000Z</time>
      </trkpt>
      <trkpt lat="45.59799" lon="4.88076">
        <ele>335.60000610352</ele>
        <time>2024-05-21T06:23:34.000Z</time>
      </trkpt>
      <trkpt lat="45.59793" lon="4.88072">
        <ele>335.60000610352</ele>
        <time>2024-05-21T06:23:35.000Z</time>
      </trkpt>
      <trkpt lat="45.59787" lon="4.88068">
        <ele>335.20001220703</ele>
        <time>2024-05-21T06:23:36.000Z</time>
      </trkpt>
      <trkpt lat="45.59781" lon="4.88064">
        <ele>335.20001220703</ele>
        <time>2024-05-21T06:23:37.000Z</time>
      </trkpt>
      <trkpt lat="45.59775" lon="4.88061">
        <ele>335</ele>
        <time>2024-05-21T06:23:38.000Z</time>
      </trkpt>
      <trkpt lat="45.59769" lon="4.88057">
        <ele>335</ele>
        <time>2024-05-21T06:23:39.000Z</time>
      </trkpt>
      <trkpt lat="45.59763" lon="4.88054">
        <ele>335</ele>
        <time>2024-05-21T06:23:40.000Z</time>
      </trkpt>
      <trkpt lat="45.59758" lon="4.88051">
        <ele>334.79998779297</ele>
        <time>2024-05-21T06:23:41.000Z</time>
      </trkpt>
      <trkpt lat="45.59752" lon="4.88048">
        <ele>334.79998779297</ele>
        <time>2024-05-21T06:23:42.000Z</time>
      </trkpt>
      <trkpt lat="45.59746" lon="4.88045">
        <ele>334.79998779297</ele>
        <time>2024-05-21T06:23:43.000Z</time>
      </trkpt>
      <trkpt lat="45.59741" lon="4.88042">
        <ele>334.79998779297</ele>
        <time>2024-05-21T06:23:44.000Z</time>
      </trkpt>
      <trkpt lat="45.59735" lon="4.88039">
        <ele>335</ele>
        <time>2024-05-21T06:23:45.000Z</time>
      </trkpt>
      <trkpt lat="45.5973" lon="4.88037">
        <ele>335</ele>
        <time>2024-05-21T06:23:46.000Z</time>
      </trkpt>
      <trkpt lat="45.59725" lon="4.88034">
        <ele>335</ele>
        <time>2024-05-21T06:23:47.000Z</time>
      </trkpt>
      <trkpt lat="45.5972" lon="4.88031">
        <ele>335.39999389648</ele>
        <time>2024-05-21T06:23:48.000Z</time>
      </trkpt>
      <trkpt lat="45.59715" lon="4.88028">
        <ele>335.39999389648</ele>
        <time>2024-05-21T06:23:49.000Z</time>
      </trkpt>
      <trkpt lat="45.5971" lon="4.88025">
        <ele>335.60000610352</ele>
        <time>2024-05-21T06:23:50.000Z</time>
      </trkpt>
      <trkpt lat="45.59705" lon="4.88023">
        <ele>335.60000610352</ele>
        <time>2024-05-21T06:23:51.000Z</time>
      </trkpt>
      <trkpt lat="45.59701" lon="4.8802">
        <ele>336</ele>
        <time>2024-05-21T06:23:52.000Z</time>
      </trkpt>
      <trkpt lat="45.59697" lon="4.88018">
        <ele>336.20001220703</ele>
        <time>2024-05-21T06:23:53.000Z</time>
      </trkpt>
      <trkpt lat="45.59693" lon="4.88015">
        <ele>336.60000610352</ele>
        <time>2024-05-21T06:23:54.000Z</time>
      </trkpt>
      <trkpt lat="45.5969" lon="4.88013">
        <ele>337</ele>
        <time>2024-05-21T06:23:55.000Z</time>
      </trkpt>
      <trkpt lat="45.59687" lon="4.8801">
        <ele>337.39999389648</ele>
        <time>2024-05-21T06:23:56.000Z</time>
      </trkpt>
      <trkpt lat="45.59684" lon="4.88008">
        <ele>337.60000610352</ele>
        <time>2024-05-21T06:23:57.000Z</time>
      </trkpt>
      <trkpt lat="45.59681" lon="4.88006">
        <ele>337.79998779297</ele>
        <time>2024-05-21T06:23:58.000Z</time>
      </trkpt>
      <trkpt lat="45.59678" lon="4.88003">
        <ele>338.20001220703</ele>
        <time>2024-05-21T06:23:59.000Z</time>
      </trkpt>
      <trkpt lat="45.59675" lon="4.88001">
        <ele>338.39999389648</ele>
        <time>2024-05-21T06:24:00.000Z</time>
      </trkpt>
      <trkpt lat="45.59673" lon="4.87999">
        <ele>338.79998779297</ele>
        <time>2024-05-21T06:24:01.000Z</time>
      </trkpt>
      <trkpt lat="45.5967" lon="4.87997">
        <ele>339.20001220703</ele>
        <time>2024-05-21T06:24:02.000Z</time>
      </trkpt>
      <trkpt lat="45.59668" lon="4.87994">
        <ele>339.20001220703</ele>
        <time>2024-05-21T06:24:03.000Z</time>
      </trkpt>
      <trkpt lat="45.59665" lon="4.87992">
        <ele>339.79998779297</ele>
        <time>2024-05-21T06:24:04.000Z</time>
      </trkpt>
      <trkpt lat="45.59662" lon="4.8799">
        <ele>339.79998779297</ele>
        <time>2024-05-21T06:24:05.000Z</time>
      </trkpt>
      <trkpt lat="45.59659" lon="4.87987">
        <ele>339.79998779297</ele>
        <time>2024-05-21T06:24:06.000Z</time>
      </trkpt>
      <trkpt lat="45.59656" lon="4.87984">
        <ele>339.79998779297</ele>
        <time>2024-05-21T06:24:07.000Z</time>
      </trkpt>
      <trkpt lat="45.59652" lon="4.87979">
        <ele>339.79998779297</ele>
        <time>2024-05-21T06:24:08.000Z</time>
      </trkpt>
      <trkpt lat="45.59649" lon="4.87975">
        <ele>339.60000610352</ele>
        <time>2024-05-21T06:24:09.000Z</time>
      </trkpt>
      <trkpt lat="45.59646" lon="4.8797">
        <ele>339.60000610352</ele>
        <time>2024-05-21T06:24:10.000Z</time>
      </trkpt>
      <trkpt lat="45.59642" lon="4.87965">
        <ele>339.39999389648</ele>
        <time>2024-05-21T06:24:11.000Z</time>
      </trkpt>
      <trkpt lat="45.59639" lon="4.8796">
        <ele>339.20001220703</ele>
        <time>2024-05-21T06:24:12.000Z</time>
      </trkpt>
      <trkpt lat="45.59635" lon="4.87955">
        <ele>339.20001220703</ele>
        <time>2024-05-21T06:24:13.000Z</time>
      </trkpt>
      <trkpt lat="45.59631" lon="4.87951">
        <ele>339</ele>
        <time>2024-05-21T06:24:14.000Z</time>
      </trkpt>
      <trkpt lat="45.59627" lon="4.87947">
        <ele>339</ele>
        <time>2024-05-21T06:24:15.000Z</time>
      </trkpt>
      <trkpt lat="45.59623" lon="4.87944">
        <ele>339</ele>
        <time>2024-05-21T06:24:16.000Z</time>
      </trkpt>
      <trkpt lat="45.59618" lon="4.8794">
        <ele>338.79998779297</ele>
        <time>2024-05-21T06:24:17.000Z</time>
      </trkpt>
      <trkpt lat="45.59614" lon="4.87937">
        <ele>338.79998779297</ele>
        <time>2024-05-21T06:24:18.000Z</time>
      </trkpt>
      <trkpt lat="45.5961" lon="4.87934">
        <ele>338.79998779297</ele>
        <time>2024-05-21T06:24:19.000Z</time>
      </trkpt>
      <trkpt lat="45.59605" lon="4.87931">
        <ele>339</ele>
        <time>2024-05-21T06:24:20.000Z</time>
      </trkpt>
      <trkpt lat="45.59601" lon="4.87928">
        <ele>339.20001220703</ele>
        <time>2024-05-21T06:24:21.000Z</time>
      </trkpt>
      <trkpt lat="45.59597" lon="4.87926">
        <ele>339.20001220703</ele>
        <time>2024-05-21T06:24:22.000Z</time>
      </trkpt>
      <trkpt lat="45.59592" lon="4.87923">
        <ele>339.20001220703</ele>
        <time>2024-05-21T06:24:23.000Z</time>
      </trkpt>
      <trkpt lat="45.59588" lon="4.87921">
        <ele>339.39999389648</ele>
        <time>2024-05-21T06:24:24.000Z</time>
      </trkpt>
      <trkpt lat="45.59584" lon="4.87918">
        <ele>339.60000610352</ele>
        <time>2024-05-21T06:24:25.000Z</time>
      </trkpt>
      <trkpt lat="45.5958" lon="4.87915">
        <ele>339.79998779297</ele>
        <time>2024-05-21T06:24:26.000Z</time>
      </trkpt>
      <trkpt lat="45.59577" lon="4.87913">
        <ele>340</ele>
        <time>2024-05-21T06:24:27.000Z</time>
      </trkpt>
      <trkpt lat="45.59573" lon="4.87911">
        <ele>340.20001220703</ele>
        <time>2024-05-21T06:24:28.000Z</time>
      </trkpt>
      <trkpt lat="45.59569" lon="4.87909">
        <ele>340.60000610352</ele>
        <time>2024-05-21T06:24:29.000Z</time>
      </trkpt>
      <trkpt lat="45.59565" lon="4.87907">
        <ele>340.79998779297</ele>
        <time>2024-05-21T06:24:30.000Z</time>
      </trkpt>
      <trkpt lat="45.59562" lon="4.87905">
        <ele>340.79998779297</ele>
        <time>2024-05-21T06:24:31.000Z</time>
      </trkpt>
      <trkpt lat="45.59558" lon="4.87903">
        <ele>341.20001220703</ele>
        <time>2024-05-21T06:24:32.000Z</time>
      </trkpt>
      <trkpt lat="45.59555" lon="4.87901">
        <ele>341.20001220703</ele>
        <time>2024-05-21T06:24:33.000Z</time>
      </trkpt>
      <trkpt lat="45.59552" lon="4.879">
        <ele>341.60000610352</ele>
        <time>2024-05-21T06:24:34.000Z</time>
      </trkpt>
      <trkpt lat="45.59548" lon="4.87898">
        <ele>341.79998779297</ele>
        <time>2024-05-21T06:24:35.000Z</time>
      </trkpt>
      <trkpt lat="45.59545" lon="4.87898">
        <ele>342</ele>
        <time>2024-05-21T06:24:36.000Z</time>
      </trkpt>
      <trkpt lat="45.59542" lon="4.87898">
        <ele>342.20001220703</ele>
        <time>2024-05-21T06:24:37.000Z</time>
      </trkpt>
      <trkpt lat="45.59538" lon="4.87898">
        <ele>342.39999389648</ele>
        <time>2024-05-21T06:24:38.000Z</time>
      </trkpt>
      <trkpt lat="45.59535" lon="4.87899">
        <ele>342.39999389648</ele>
        <time>2024-05-21T06:24:39.000Z</time>
      </trkpt>
      <trkpt lat="45.59532" lon="4.87901">
        <ele>342.60000610352</ele>
        <time>2024-05-21T06:24:40.000Z</time>
      </trkpt>
      <trkpt lat="45.59529" lon="4.87903">
        <ele>342.60000610352</ele>
        <time>2024-05-21T06:24:41.000Z</time>
      </trkpt>
      <trkpt lat="45.59526" lon="4.87905">
        <ele>342.79998779297</ele>
        <time>2024-05-21T06:24:42.000Z</time>
      </trkpt>
      <trkpt lat="45.59523" lon="4.87908">
        <ele>343</ele>
        <time>2024-05-21T06:24:43.000Z</time>
      </trkpt>
      <trkpt lat="45.5952" lon="4.87911">
        <ele>343</ele>
        <time>2024-05-21T06:24:44.000Z</time>
      </trkpt>
      <trkpt lat="45.59516" lon="4.87914">
        <ele>343</ele>
        <time>2024-05-21T06:24:45.000Z</time>
      </trkpt>
      <trkpt lat="45.59512" lon="4.87916">
        <ele>343</ele>
        <time>2024-05-21T06:24:46.000Z</time>
      </trkpt>
      <trkpt lat="45.59507" lon="4.87919">
        <ele>343</ele>
        <time>2024-05-21T06:24:47.000Z</time>
      </trkpt>
      <trkpt lat="45.59503" lon="4.8792">
        <ele>342.79998779297</ele>
        <time>2024-05-21T06:24:48.000Z</time>
      </trkpt>
      <trkpt lat="45.59498" lon="4.87921">
        <ele>342.79998779297</ele>
        <time>2024-05-21T06:24:49.000Z</time>
      </trkpt>
      <trkpt lat="45.59493" lon="4.87921">
        <ele>342.60000610352</ele>
        <time>2024-05-21T06:24:50.000Z</time>
      </trkpt>
      <trkpt lat="45.59488" lon="4.8792">
        <ele>342.20001220703</ele>
        <time>2024-05-21T06:24:51.000Z</time>
      </trkpt>
      <trkpt lat="45.59483" lon="4.87918">
        <ele>342</ele>
        <time>2024-05-21T06:24:52.000Z</time>
      </trkpt>
      <trkpt lat="45.59477" lon="4.87916">
        <ele>341.79998779297</ele>
        <time>2024-05-21T06:24:53.000Z</time>
      </trkpt>
      <trkpt lat="45.59472" lon="4.87913">
        <ele>341.60000610352</ele>
        <time>2024-05-21T06:24:54.000Z</time>
      </trkpt>
      <trkpt lat="45.59467" lon="4.8791">
        <ele>341.39999389648</ele>
        <time>2024-05-21T06:24:55.000Z</time>
      </trkpt>
      <trkpt lat="45.59462" lon="4.87907">
        <ele>341.20001220703</ele>
        <time>2024-05-21T06:24:56.000Z</time>
      </trkpt>
      <trkpt lat="45.59458" lon="4.87904">
        <ele>341</ele>
        <time>2024-05-21T06:24:57.000Z</time>
      </trkpt>
      <trkpt lat="45.59453" lon="4.879">
        <ele>340.79998779297</ele>
        <time>2024-05-21T06:24:58.000Z</time>
      </trkpt>
      <trkpt lat="45.59448" lon="4.87897">
        <ele>340.60000610352</ele>
        <time>2024-05-21T06:24:59.000Z</time>
      </trkpt>
      <trkpt lat="45.59443" lon="4.87894">
        <ele>340.20001220703</ele>
        <time>2024-05-21T06:25:00.000Z</time>
      </trkpt>
      <trkpt lat="45.59439" lon="4.87891">
        <ele>340</ele>
        <time>2024-05-21T06:25:01.000Z</time>
      </trkpt>
      <trkpt lat="45.59434" lon="4.87887">
        <ele>339.79998779297</ele>
        <time>2024-05-21T06:25:02.000Z</time>
      </trkpt>
      <trkpt lat="45.59429" lon="4.87883">
        <ele>339.39999389648</ele>
        <time>2024-05-21T06:25:03.000Z</time>
      </trkpt>
      <trkpt lat="45.59424" lon="4.87879">
        <ele>339.20001220703</ele>
        <time>2024-05-21T06:25:04.000Z</time>
      </trkpt>
      <trkpt lat="45.59419" lon="4.87875">
        <ele>339</ele>
        <time>2024-05-21T06:25:05.000Z</time>
      </trkpt>
      <trkpt lat="45.59414" lon="4.87871">
        <ele>338.79998779297</ele>
        <time>2024-05-21T06:25:06.000Z</time>
      </trkpt>
      <trkpt lat="45.59409" lon="4.87867">
        <ele>338.60000610352</ele>
        <time>2024-05-21T06:25:07.000Z</time>
      </trkpt>
      <trkpt lat="45.59403" lon="4.87863">
        <ele>338.20001220703</ele>
        <time>2024-05-21T06:25:08.000Z</time>
      </trkpt>
      <trkpt lat="45.59399" lon="4.8786">
        <ele>338</ele>
        <time>2024-05-21T06:25:09.000Z</time>
      </trkpt>
      <trkpt lat="45.59391" lon="4.87856">
        <ele>337.79998779297</ele>
        <time>2024-05-21T06:25:10.000Z</time>
      </trkpt>
      <trkpt lat="45.59386" lon="4.87854">
        <ele>337.60000610352</ele>
        <time>2024-05-21T06:25:11.000Z</time>
      </trkpt>
      <trkpt lat="45.59378" lon="4.87852">
        <ele>337</ele>
        <time>2024-05-21T06:25:12.000Z</time>
      </trkpt>
      <trkpt lat="45.5937" lon="4.8785">
        <ele>336.20001220703</ele>
        <time>2024-05-21T06:25:13.000Z</time>
      </trkpt>
      <trkpt lat="45.59362" lon="4.8785">
        <ele>335.20001220703</ele>
        <time>2024-05-21T06:25:14.000Z</time>
      </trkpt>
      <trkpt lat="45.59355" lon="4.87851">
        <ele>334.20001220703</ele>
        <time>2024-05-21T06:25:15.000Z</time>
      </trkpt>
      <trkpt lat="45.59348" lon="4.87854">
        <ele>333.20001220703</ele>
        <time>2024-05-21T06:25:16.000Z</time>
      </trkpt>
      <trkpt lat="45.59341" lon="4.87859">
        <ele>332</ele>
        <time>2024-05-21T06:25:17.000Z</time>
      </trkpt>
      <trkpt lat="45.59334" lon="4.87866">
        <ele>331</ele>
        <time>2024-05-21T06:25:18.000Z</time>
      </trkpt>
      <trkpt lat="45.59327" lon="4.87874">
        <ele>329.79998779297</ele>
        <time>2024-05-21T06:25:19.000Z</time>
      </trkpt>
      <trkpt lat="45.59318" lon="4.87884">
        <ele>328.60000610352</ele>
        <time>2024-05-21T06:25:20.000Z</time>
      </trkpt>
      <trkpt lat="45.59312" lon="4.87892">
        <ele>327.60000610352</ele>
        <time>2024-05-21T06:25:21.000Z</time>
      </trkpt>
      <trkpt lat="45.59304" lon="4.879">
        <ele>326.39999389648</ele>
        <time>2024-05-21T06:25:22.000Z</time>
      </trkpt>
      <trkpt lat="45.59296" lon="4.87907">
        <ele>324.79998779297</ele>
        <time>2024-05-21T06:25:23.000Z</time>
      </trkpt>
      <trkpt lat="45.59288" lon="4.87913">
        <ele>324.20001220703</ele>
        <time>2024-05-21T06:25:24.000Z</time>
      </trkpt>
      <trkpt lat="45.5928" lon="4.87919">
        <ele>323</ele>
        <time>2024-05-21T06:25:25.000Z</time>
      </trkpt>
      <trkpt lat="45.59271" lon="4.87926">
        <ele>322.20001220703</ele>
        <time>2024-05-21T06:25:26.000Z</time>
      </trkpt>
      <trkpt lat="45.59266" lon="4.8793">
        <ele>321.79998779297</ele>
        <time>2024-05-21T06:25:27.000Z</time>
      </trkpt>
      <trkpt lat="45.59259" lon="4.87934">
        <ele>321.39999389648</ele>
        <time>2024-05-21T06:25:28.000Z</time>
      </trkpt>
      <trkpt lat="45.59253" lon="4.87938">
        <ele>320.79998779297</ele>
        <time>2024-05-21T06:25:29.000Z</time>
      </trkpt>
      <trkpt lat="45.59246" lon="4.87941">
        <ele>320.79998779297</ele>
        <time>2024-05-21T06:25:30.000Z</time>
      </trkpt>
      <trkpt lat="45.5924" lon="4.87944">
        <ele>320.79998779297</ele>
        <time>2024-05-21T06:25:31.000Z</time>
      </trkpt>
      <trkpt lat="45.59233" lon="4.87945">
        <ele>320.79998779297</ele>
        <time>2024-05-21T06:25:32.000Z</time>
      </trkpt>
      <trkpt lat="45.59229" lon="4.87945">
        <ele>320.79998779297</ele>
        <time>2024-05-21T06:25:33.000Z</time>
      </trkpt>
      <trkpt lat="45.59221" lon="4.87944">
        <ele>320.60000610352</ele>
        <time>2024-05-21T06:25:34.000Z</time>
      </trkpt>
      <trkpt lat="45.59216" lon="4.87941">
        <ele>320.39999389648</ele>
        <time>2024-05-21T06:25:35.000Z</time>
      </trkpt>
      <trkpt lat="45.59212" lon="4.87938">
        <ele>319.79998779297</ele>
        <time>2024-05-21T06:25:36.000Z</time>
      </trkpt>
      <trkpt lat="45.59209" lon="4.87932">
        <ele>318.79998779297</ele>
        <time>2024-05-21T06:25:37.000Z</time>
      </trkpt>
      <trkpt lat="45.59207" lon="4.87925">
        <ele>318.60000610352</ele>
        <time>2024-05-21T06:25:38.000Z</time>
      </trkpt>
      <trkpt lat="45.59208" lon="4.87917">
        <ele>317.79998779297</ele>
        <time>2024-05-21T06:25:39.000Z</time>
      </trkpt>
      <trkpt lat="45.59211" lon="4.87909">
        <ele>317.20001220703</ele>
        <time>2024-05-21T06:25:40.000Z</time>
      </trkpt>
      <trkpt lat="45.59216" lon="4.87903">
        <ele>316.39999389648</ele>
        <time>2024-05-21T06:25:41.000Z</time>
      </trkpt>
      <trkpt lat="45.5922" lon="4.87896">
        <ele>316</ele>
        <time>2024-05-21T06:25:42.000Z</time>
      </trkpt>
      <trkpt lat="45.59226" lon="4.87891">
        <ele>315</ele>
        <time>2024-05-21T06:25:43.000Z</time>
      </trkpt>
      <trkpt lat="45.59231" lon="4.87884">
        <ele>314.39999389648</ele>
        <time>2024-05-21T06:25:44.000Z</time>
      </trkpt>
      <trkpt lat="45.59235" lon="4.8788">
        <ele>313.39999389648</ele>
        <time>2024-05-21T06:25:45.000Z</time>
      </trkpt>
      <trkpt lat="45.5924" lon="4.87875">
        <ele>313</ele>
        <time>2024-05-21T06:25:46.000Z</time>
      </trkpt>
      <trkpt lat="45.59245" lon="4.8787">
        <ele>312.60000610352</ele>
        <time>2024-05-21T06:25:47.000Z</time>
      </trkpt>
      <trkpt lat="45.59248" lon="4.87865">
        <ele>311.79998779297</ele>
        <time>2024-05-21T06:25:48.000Z</time>
      </trkpt>
      <trkpt lat="45.5925" lon="4.8786">
        <ele>311</ele>
        <time>2024-05-21T06:25:49.000Z</time>
      </trkpt>
      <trkpt lat="45.59247" lon="4.87855">
        <ele>310.39999389648</ele>
        <time>2024-05-21T06:25:50.000Z</time>
      </trkpt>
      <trkpt lat="45.59241" lon="4.87852">
        <ele>309.79998779297</ele>
        <time>2024-05-21T06:25:51.000Z</time>
      </trkpt>
      <trkpt lat="45.59235" lon="4.87851">
        <ele>309.20001220703</ele>
        <time>2024-05-21T06:25:52.000Z</time>
      </trkpt>
      <trkpt lat="45.59227" lon="4.87852">
        <ele>308.79998779297</ele>
        <time>2024-05-21T06:25:53.000Z</time>
      </trkpt>
      <trkpt lat="45.59222" lon="4.87852">
        <ele>307.79998779297</ele>
        <time>2024-05-21T06:25:54.000Z</time>
      </trkpt>
      <trkpt lat="45.59214" lon="4.87853">
        <ele>306.79998779297</ele>
        <time>2024-05-21T06:25:55.000Z</time>
      </trkpt>
      <trkpt lat="45.59207" lon="4.87853">
        <ele>305.79998779297</ele>
        <time>2024-05-21T06:25:56.000Z</time>
      </trkpt>
      <trkpt lat="45.59202" lon="4.87853">
        <ele>304.79998779297</ele>
        <time>2024-05-21T06:25:57.000Z</time>
      </trkpt>
      <trkpt lat="45.59194" lon="4.87852">
        <ele>304</ele>
        <time>2024-05-21T06:25:58.000Z</time>
      </trkpt>
      <trkpt lat="45.59187" lon="4.87851">
        <ele>302.79998779297</ele>
        <time>2024-05-21T06:25:59.000Z</time>
      </trkpt>
      <trkpt lat="45.5918" lon="4.87849">
        <ele>301.79998779297</ele>
        <time>2024-05-21T06:26:00.000Z</time>
      </trkpt>
      <trkpt lat="45.59173" lon="4.87846">
        <ele>300.60000610352</ele>
        <time>2024-05-21T06:26:01.000Z</time>
      </trkpt>
      <trkpt lat="45.59167" lon="4.87842">
        <ele>299.79998779297</ele>
        <time>2024-05-21T06:26:02.000Z</time>
      </trkpt>
      <trkpt lat="45.5916" lon="4.87837">
        <ele>298.39999389648</ele>
        <time>2024-05-21T06:26:03.000Z</time>
      </trkpt>
      <trkpt lat="45.59153" lon="4.87835">
        <ele>297.60000610352</ele>
        <time>2024-05-21T06:26:04.000Z</time>
      </trkpt>
      <trkpt lat="45.59146" lon="4.87836">
        <ele>297</ele>
        <time>2024-05-21T06:26:05.000Z</time>
      </trkpt>
      <trkpt lat="45.59138" lon="4.87838">
        <ele>296</ele>
        <time>2024-05-21T06:26:06.000Z</time>
      </trkpt>
      <trkpt lat="45.59132" lon="4.87841">
        <ele>295.39999389648</ele>
        <time>2024-05-21T06:26:07.000Z</time>
      </trkpt>
      <trkpt lat="45.59125" lon="4.87846">
        <ele>294.60000610352</ele>
        <time>2024-05-21T06:26:08.000Z</time>
      </trkpt>
      <trkpt lat="45.59119" lon="4.87851">
        <ele>293.79998779297</ele>
        <time>2024-05-21T06:26:09.000Z</time>
      </trkpt>
      <trkpt lat="45.59113" lon="4.87856">
        <ele>293</ele>
        <time>2024-05-21T06:26:10.000Z</time>
      </trkpt>
      <trkpt lat="45.59107" lon="4.87862">
        <ele>292.20001220703</ele>
        <time>2024-05-21T06:26:11.000Z</time>
      </trkpt>
      <trkpt lat="45.59102" lon="4.87868">
        <ele>291.60000610352</ele>
        <time>2024-05-21T06:26:12.000Z</time>
      </trkpt>
      <trkpt lat="45.59097" lon="4.87875">
        <ele>290.79998779297</ele>
        <time>2024-05-21T06:26:13.000Z</time>
      </trkpt>
      <trkpt lat="45.59094" lon="4.87881">
        <ele>290.20001220703</ele>
        <time>2024-05-21T06:26:14.000Z</time>
      </trkpt>
      <trkpt lat="45.5909" lon="4.87887">
        <ele>289.60000610352</ele>
        <time>2024-05-21T06:26:15.000Z</time>
      </trkpt>
      <trkpt lat="45.59085" lon="4.87891">
        <ele>289.20001220703</ele>
        <time>2024-05-21T06:26:16.000Z</time>
      </trkpt>
      <trkpt lat="45.5908" lon="4.87895">
        <ele>288.79998779297</ele>
        <time>2024-05-21T06:26:17.000Z</time>
      </trkpt>
      <trkpt lat="45.59074" lon="4.87897">
        <ele>288.20001220703</ele>
        <time>2024-05-21T06:26:18.000Z</time>
      </trkpt>
      <trkpt lat="45.5907" lon="4.87898">
        <ele>287.79998779297</ele>
        <time>2024-05-21T06:26:19.000Z</time>
      </trkpt>
      <trkpt lat="45.59063" lon="4.87898">
        <ele>287.20001220703</ele>
        <time>2024-05-21T06:26:20.000Z</time>
      </trkpt>
      <trkpt lat="45.59056" lon="4.87898">
        <ele>286.60000610352</ele>
        <time>2024-05-21T06:26:21.000Z</time>
      </trkpt>
      <trkpt lat="45.59048" lon="4.87898">
        <ele>285.79998779297</ele>
        <time>2024-05-21T06:26:22.000Z</time>
      </trkpt>
      <trkpt lat="45.59041" lon="4.87897">
        <ele>284.79998779297</ele>
        <time>2024-05-21T06:26:23.000Z</time>
      </trkpt>
      <trkpt lat="45.59033" lon="4.87895">
        <ele>283.79998779297</ele>
        <time>2024-05-21T06:26:24.000Z</time>
      </trkpt>
      <trkpt lat="45.59026" lon="4.87894">
        <ele>282.60000610352</ele>
        <time>2024-05-21T06:26:25.000Z</time>
      </trkpt>
      <trkpt lat="45.59019" lon="4.87893">
        <ele>281.39999389648</ele>
        <time>2024-05-21T06:26:26.000Z</time>
      </trkpt>
      <trkpt lat="45.59012" lon="4.87891">
        <ele>280.20001220703</ele>
        <time>2024-05-21T06:26:27.000Z</time>
      </trkpt>
      <trkpt lat="45.59007" lon="4.8789">
        <ele>279.39999389648</ele>
        <time>2024-05-21T06:26:28.000Z</time>
      </trkpt>
      <trkpt lat="45.59001" lon="4.87889">
        <ele>278.60000610352</ele>
        <time>2024-05-21T06:26:29.000Z</time>
      </trkpt>
      <trkpt lat="45.58994" lon="4.87888">
        <ele>277.60000610352</ele>
        <time>2024-05-21T06:26:30.000Z</time>
      </trkpt>
      <trkpt lat="45.58988" lon="4.87887">
        <ele>277.20001220703</ele>
        <time>2024-05-21T06:26:31.000Z</time>
      </trkpt>
      <trkpt lat="45.58982" lon="4.87885">
        <ele>276.39999389648</ele>
        <time>2024-05-21T06:26:32.000Z</time>
      </trkpt>
      <trkpt lat="45.58976" lon="4.87884">
        <ele>276</ele>
        <time>2024-05-21T06:26:33.000Z</time>
      </trkpt>
      <trkpt lat="45.5897" lon="4.87883">
        <ele>275.60000610352</ele>
        <time>2024-05-21T06:26:34.000Z</time>
      </trkpt>
      <trkpt lat="45.58964" lon="4.87882">
        <ele>274.79998779297</ele>
        <time>2024-05-21T06:26:35.000Z</time>
      </trkpt>
      <trkpt lat="45.58958" lon="4.8788">
        <ele>274</ele>
        <time>2024-05-21T06:26:36.000Z</time>
      </trkpt>
      <trkpt lat="45.58952" lon="4.87879">
        <ele>273.39999389648</ele>
        <time>2024-05-21T06:26:37.000Z</time>
      </trkpt>
      <trkpt lat="45.58946" lon="4.87877">
        <ele>272.60000610352</ele>
        <time>2024-05-21T06:26:38.000Z</time>
      </trkpt>
      <trkpt lat="45.5894" lon="4.87875">
        <ele>272.39999389648</ele>
        <time>2024-05-21T06:26:39.000Z</time>
      </trkpt>
      <trkpt lat="45.58935" lon="4.87874">
        <ele>272.20001220703</ele>
        <time>2024-05-21T06:26:40.000Z</time>
      </trkpt>
      <trkpt lat="45.58929" lon="4.87872">
        <ele>271.39999389648</ele>
        <time>2024-05-21T06:26:41.000Z</time>
      </trkpt>
      <trkpt lat="45.58921" lon="4.8787">
        <ele>270.79998779297</ele>
        <time>2024-05-21T06:26:42.000Z</time>
      </trkpt>
      <trkpt lat="45.58915" lon="4.87869">
        <ele>270.39999389648</ele>
        <time>2024-05-21T06:26:43.000Z</time>
      </trkpt>
      <trkpt lat="45.58908" lon="4.87868">
        <ele>270</ele>
        <time>2024-05-21T06:26:44.000Z</time>
      </trkpt>
      <trkpt lat="45.58902" lon="4.87866">
        <ele>269.60000610352</ele>
        <time>2024-05-21T06:26:45.000Z</time>
      </trkpt>
      <trkpt lat="45.58896" lon="4.87865">
        <ele>269.20001220703</ele>
        <time>2024-05-21T06:26:46.000Z</time>
      </trkpt>
      <trkpt lat="45.58889" lon="4.87864">
        <ele>268.39999389648</ele>
        <time>2024-05-21T06:26:47.000Z</time>
      </trkpt>
      <trkpt lat="45.58882" lon="4.87863">
        <ele>267.39999389648</ele>
        <time>2024-05-21T06:26:48.000Z</time>
      </trkpt>
      <trkpt lat="45.58875" lon="4.87863">
        <ele>266.79998779297</ele>
        <time>2024-05-21T06:26:49.000Z</time>
      </trkpt>
      <trkpt lat="45.58867" lon="4.87864">
        <ele>265.79998779297</ele>
        <time>2024-05-21T06:26:50.000Z</time>
      </trkpt>
      <trkpt lat="45.58861" lon="4.87866">
        <ele>264.60000610352</ele>
        <time>2024-05-21T06:26:51.000Z</time>
      </trkpt>
      <trkpt lat="45.58854" lon="4.8787">
        <ele>263.39999389648</ele>
        <time>2024-05-21T06:26:52.000Z</time>
      </trkpt>
      <trkpt lat="45.58849" lon="4.87876">
        <ele>262.79998779297</ele>
        <time>2024-05-21T06:26:53.000Z</time>
      </trkpt>
      <trkpt lat="45.58845" lon="4.87882">
        <ele>261.79998779297</ele>
        <time>2024-05-21T06:26:54.000Z</time>
      </trkpt>
      <trkpt lat="45.5884" lon="4.87889">
        <ele>260.79998779297</ele>
        <time>2024-05-21T06:26:55.000Z</time>
      </trkpt>
      <trkpt lat="45.58835" lon="4.87895">
        <ele>260</ele>
        <time>2024-05-21T06:26:56.000Z</time>
      </trkpt>
      <trkpt lat="45.5883" lon="4.87899">
        <ele>259.60000610352</ele>
        <time>2024-05-21T06:26:57.000Z</time>
      </trkpt>
      <trkpt lat="45.58824" lon="4.87901">
        <ele>258.60000610352</ele>
        <time>2024-05-21T06:26:58.000Z</time>
      </trkpt>
      <trkpt lat="45.58818" lon="4.87899">
        <ele>258.20001220703</ele>
        <time>2024-05-21T06:26:59.000Z</time>
      </trkpt>
      <trkpt lat="45.58814" lon="4.87895">
        <ele>257.60000610352</ele>
        <time>2024-05-21T06:27:00.000Z</time>
      </trkpt>
      <trkpt lat="45.5881" lon="4.8789">
        <ele>257</ele>
        <time>2024-05-21T06:27:01.000Z</time>
      </trkpt>
      <trkpt lat="45.58806" lon="4.87884">
        <ele>256.60000610352</ele>
        <time>2024-05-21T06:27:02.000Z</time>
      </trkpt>
      <trkpt lat="45.58801" lon="4.87877">
        <ele>256.20001220703</ele>
        <time>2024-05-21T06:27:03.000Z</time>
      </trkpt>
      <trkpt lat="45.58796" lon="4.87872">
        <ele>256</ele>
        <time>2024-05-21T06:27:04.000Z</time>
      </trkpt>
      <trkpt lat="45.58793" lon="4.87867">
        <ele>255.60000610352</ele>
        <time>2024-05-21T06:27:05.000Z</time>
      </trkpt>
      <trkpt lat="45.5879" lon="4.87861">
        <ele>255.60000610352</ele>
        <time>2024-05-21T06:27:06.000Z</time>
      </trkpt>
      <trkpt lat="45.58787" lon="4.87856">
        <ele>255.60000610352</ele>
        <time>2024-05-21T06:27:07.000Z</time>
      </trkpt>
      <trkpt lat="45.58784" lon="4.87851">
        <ele>255.60000610352</ele>
        <time>2024-05-21T06:27:08.000Z</time>
      </trkpt>
      <trkpt lat="45.58781" lon="4.87846">
        <ele>255.60000610352</ele>
        <time>2024-05-21T06:27:09.000Z</time>
      </trkpt>
      <trkpt lat="45.58778" lon="4.87842">
        <ele>256</ele>
        <time>2024-05-21T06:27:10.000Z</time>
      </trkpt>
      <trkpt lat="45.58776" lon="4.87838">
        <ele>256.20001220703</ele>
        <time>2024-05-21T06:27:11.000Z</time>
      </trkpt>
      <trkpt lat="45.58773" lon="4.87834">
        <ele>256.39999389648</ele>
        <time>2024-05-21T06:27:12.000Z</time>
      </trkpt>
      <trkpt lat="45.58771" lon="4.87831">
        <ele>256.60000610352</ele>
        <time>2024-05-21T06:27:13.000Z</time>
      </trkpt>
      <trkpt lat="45.58767" lon="4.87828">
        <ele>256.79998779297</ele>
        <time>2024-05-21T06:27:14.000Z</time>
      </trkpt>
      <trkpt lat="45.58763" lon="4.87825">
        <ele>257</ele>
        <time>2024-05-21T06:27:15.000Z</time>
      </trkpt>
      <trkpt lat="45.58759" lon="4.87823">
        <ele>257</ele>
        <time>2024-05-21T06:27:16.000Z</time>
      </trkpt>
      <trkpt lat="45.58754" lon="4.87822">
        <ele>257</ele>
        <time>2024-05-21T06:27:17.000Z</time>
      </trkpt>
      <trkpt lat="45.58749" lon="4.87822">
        <ele>257</ele>
        <time>2024-05-21T06:27:18.000Z</time>
      </trkpt>
      <trkpt lat="45.58744" lon="4.87823">
        <ele>257</ele>
        <time>2024-05-21T06:27:19.000Z</time>
      </trkpt>
      <trkpt lat="45.58739" lon="4.87825">
        <ele>256.79998779297</ele>
        <time>2024-05-21T06:27:20.000Z</time>
      </trkpt>
      <trkpt lat="45.58733" lon="4.87828">
        <ele>256.60000610352</ele>
        <time>2024-05-21T06:27:21.000Z</time>
      </trkpt>
      <trkpt lat="45.58729" lon="4.8783">
        <ele>256.20001220703</ele>
        <time>2024-05-21T06:27:22.000Z</time>
      </trkpt>
      <trkpt lat="45.58723" lon="4.87833">
        <ele>255.80000305176</ele>
        <time>2024-05-21T06:27:23.000Z</time>
      </trkpt>
      <trkpt lat="45.58717" lon="4.87835">
        <ele>255.39999389648</ele>
        <time>2024-05-21T06:27:24.000Z</time>
      </trkpt>
      <trkpt lat="45.58712" lon="4.87837">
        <ele>255.19999694824</ele>
        <time>2024-05-21T06:27:25.000Z</time>
      </trkpt>
      <trkpt lat="45.58706" lon="4.87839">
        <ele>254.80000305176</ele>
        <time>2024-05-21T06:27:26.000Z</time>
      </trkpt>
      <trkpt lat="45.58701" lon="4.8784">
        <ele>254.39999389648</ele>
        <time>2024-05-21T06:27:27.000Z</time>
      </trkpt>
      <trkpt lat="45.58695" lon="4.87842">
        <ele>254.19999694824</ele>
        <time>2024-05-21T06:27:28.000Z</time>
      </trkpt>
      <trkpt lat="45.5869" lon="4.87844">
        <ele>253.80000305176</ele>
        <time>2024-05-21T06:27:29.000Z</time>
      </trkpt>
      <trkpt lat="45.58686" lon="4.87845">
        <ele>253.39999389648</ele>
        <time>2024-05-21T06:27:30.000Z</time>
      </trkpt>
      <trkpt lat="45.5868" lon="4.87847">
        <ele>253</ele>
        <time>2024-05-21T06:27:31.000Z</time>
      </trkpt>
      <trkpt lat="45.58674" lon="4.87849">
        <ele>252.39999389648</ele>
        <time>2024-05-21T06:27:32.000Z</time>
      </trkpt>
      <trkpt lat="45.58669" lon="4.87851">
        <ele>252.19999694824</ele>
        <time>2024-05-21T06:27:33.000Z</time>
      </trkpt>
      <trkpt lat="45.58663" lon="4.87853">
        <ele>251.60000610352</ele>
        <time>2024-05-21T06:27:34.000Z</time>
      </trkpt>
      <trkpt lat="45.58657" lon="4.87855">
        <ele>251</ele>
        <time>2024-05-21T06:27:35.000Z</time>
      </trkpt>
      <trkpt lat="45.58651" lon="4.87857">
        <ele>250.60000610352</ele>
        <time>2024-05-21T06:27:36.000Z</time>
      </trkpt>
      <trkpt lat="45.58646" lon="4.87859">
        <ele>250</ele>
        <time>2024-05-21T06:27:37.000Z</time>
      </trkpt>
      <trkpt lat="45.58641" lon="4.8786">
        <ele>249.39999389648</ele>
        <time>2024-05-21T06:27:38.000Z</time>
      </trkpt>
      <trkpt lat="45.58636" lon="4.87862">
        <ele>249</ele>
        <time>2024-05-21T06:27:39.000Z</time>
      </trkpt>
      <trkpt lat="45.58631" lon="4.87863">
        <ele>248.39999389648</ele>
        <time>2024-05-21T06:27:40.000Z</time>
      </trkpt>
      <trkpt lat="45.58626" lon="4.87865">
        <ele>247.80000305176</ele>
        <time>2024-05-21T06:27:41.000Z</time>
      </trkpt>
      <trkpt lat="45.58621" lon="4.87866">
        <ele>247.60000610352</ele>
        <time>2024-05-21T06:27:42.000Z</time>
      </trkpt>
      <trkpt lat="45.58616" lon="4.87868">
        <ele>247.19999694824</ele>
        <time>2024-05-21T06:27:43.000Z</time>
      </trkpt>
      <trkpt lat="45.58612" lon="4.87869">
        <ele>246.80000305176</ele>
        <time>2024-05-21T06:27:44.000Z</time>
      </trkpt>
      <trkpt lat="45.58609" lon="4.8787">
        <ele>246.39999389648</ele>
        <time>2024-05-21T06:27:45.000Z</time>
      </trkpt>
      <trkpt lat="45.58606" lon="4.8787">
        <ele>246</ele>
        <time>2024-05-21T06:27:46.000Z</time>
      </trkpt>
      <trkpt lat="45.58602" lon="4.87871">
        <ele>245.80000305176</ele>
        <time>2024-05-21T06:27:47.000Z</time>
      </trkpt>
      <trkpt lat="45.58601" lon="4.87872">
        <ele>245.39999389648</ele>
        <time>2024-05-21T06:27:48.000Z</time>
      </trkpt>
      <trkpt lat="45.58599" lon="4.87874">
        <ele>245.19999694824</ele>
        <time>2024-05-21T06:27:49.000Z</time>
      </trkpt>
      <trkpt lat="45.58596" lon="4.87875">
        <ele>245</ele>
        <time>2024-05-21T06:27:50.000Z</time>
      </trkpt>
      <trkpt lat="45.58594" lon="4.87876">
        <ele>245</ele>
        <time>2024-05-21T06:27:51.000Z</time>
      </trkpt>
      <trkpt lat="45.58591" lon="4.87876">
        <ele>244.80000305176</ele>
        <time>2024-05-21T06:27:52.000Z</time>
      </trkpt>
      <trkpt lat="45.58588" lon="4.87877">
        <ele>244.80000305176</ele>
        <time>2024-05-21T06:27:53.000Z</time>
      </trkpt>
      <trkpt lat="45.58585" lon="4.87877">
        <ele>244.60000610352</ele>
        <time>2024-05-21T06:27:54.000Z</time>
      </trkpt>
      <trkpt lat="45.58581" lon="4.87877">
        <ele>244.39999389648</ele>
        <time>2024-05-21T06:27:55.000Z</time>
      </trkpt>
      <trkpt lat="45.58577" lon="4.87878">
        <ele>244.39999389648</ele>
        <time>2024-05-21T06:27:56.000Z</time>
      </trkpt>
      <trkpt lat="45.58574" lon="4.87879">
        <ele>244.19999694824</ele>
        <time>2024-05-21T06:27:57.000Z</time>
      </trkpt>
      <trkpt lat="45.58569" lon="4.8788">
        <ele>243.80000305176</ele>
        <time>2024-05-21T06:27:58.000Z</time>
      </trkpt>
      <trkpt lat="45.58566" lon="4.87881">
        <ele>243.60000610352</ele>
        <time>2024-05-21T06:27:59.000Z</time>
      </trkpt>
      <trkpt lat="45.58562" lon="4.87879">
        <ele>243.19999694824</ele>
        <time>2024-05-21T06:28:00.000Z</time>
      </trkpt>
      <trkpt lat="45.5856" lon="4.87875">
        <ele>243</ele>
        <time>2024-05-21T06:28:01.000Z</time>
      </trkpt>
      <trkpt lat="45.58559" lon="4.8787">
        <ele>242.80000305176</ele>
        <time>2024-05-21T06:28:02.000Z</time>
      </trkpt>
      <trkpt lat="45.58558" lon="4.87864">
        <ele>242.60000610352</ele>
        <time>2024-05-21T06:28:03.000Z</time>
      </trkpt>
      <trkpt lat="45.58557" lon="4.87858">
        <ele>242.19999694824</ele>
        <time>2024-05-21T06:28:04.000Z</time>
      </trkpt>
      <trkpt lat="45.58557" lon="4.87853">
        <ele>242</ele>
        <time>2024-05-21T06:28:05.000Z</time>
      </trkpt>
      <trkpt lat="45.58556" lon="4.87846">
        <ele>241.80000305176</ele>
        <time>2024-05-21T06:28:06.000Z</time>
      </trkpt>
      <trkpt lat="45.58555" lon="4.8784">
        <ele>241.60000610352</ele>
        <time>2024-05-21T06:28:07.000Z</time>
      </trkpt>
      <trkpt lat="45.58554" lon="4.87833">
        <ele>241.39999389648</ele>
        <time>2024-05-21T06:28:08.000Z</time>
      </trkpt>
      <trkpt lat="45.58553" lon="4.87827">
        <ele>241.39999389648</ele>
        <time>2024-05-21T06:28:09.000Z</time>
      </trkpt>
      <trkpt lat="45.5855" lon="4.87822">
        <ele>241.39999389648</ele>
        <time>2024-05-21T06:28:10.000Z</time>
      </trkpt>
      <trkpt lat="45.58547" lon="4.87819">
        <ele>241.39999389648</ele>
        <time>2024-05-21T06:28:11.000Z</time>
      </trkpt>
      <trkpt lat="45.58543" lon="4.87819">
        <ele>241.39999389648</ele>
        <time>2024-05-21T06:28:12.000Z</time>
      </trkpt>
      <trkpt lat="45.58539" lon="4.8782">
        <ele>241.39999389648</ele>
        <time>2024-05-21T06:28:13.000Z</time>
      </trkpt>
      <trkpt lat="45.58536" lon="4.87824">
        <ele>241.19999694824</ele>
        <time>2024-05-21T06:28:14.000Z</time>
      </trkpt>
      <trkpt lat="45.58532" lon="4.87827">
        <ele>241</ele>
        <time>2024-05-21T06:28:15.000Z</time>
      </trkpt>
      <trkpt lat="45.58527" lon="4.8783">
        <ele>240.80000305176</ele>
        <time>2024-05-21T06:28:16.000Z</time>
      </trkpt>
      <trkpt lat="45.58523" lon="4.87834">
        <ele>240.80000305176</ele>
        <time>2024-05-21T06:28:17.000Z</time>
      </trkpt>
      <trkpt lat="45.58519" lon="4.87837">
        <ele>240.19999694824</ele>
        <time>2024-05-21T06:28:18.000Z</time>
      </trkpt>
      <trkpt lat="45.58515" lon="4.87841">
        <ele>239.80000305176</ele>
        <time>2024-05-21T06:28:19.000Z</time>
      </trkpt>
      <trkpt lat="45.5851" lon="4.87847">
        <ele>239.39999389648</ele>
        <time>2024-05-21T06:28:20.000Z</time>
      </trkpt>
      <trkpt lat="45.58506" lon="4.87853">
        <ele>239</ele>
        <time>2024-05-21T06:28:21.000Z</time>
      </trkpt>
      <trkpt lat="45.58501" lon="4.8786">
        <ele>238.60000610352</ele>
        <time>2024-05-21T06:28:22.000Z</time>
      </trkpt>
      <trkpt lat="45.58496" lon="4.87866">
        <ele>238.19999694824</ele>
        <time>2024-05-21T06:28:23.000Z</time>
      </trkpt>
      <trkpt lat="45.58493" lon="4.87872">
        <ele>237.60000610352</ele>
        <time>2024-05-21T06:28:24.000Z</time>
      </trkpt>
      <trkpt lat="45.58486" lon="4.87881">
        <ele>237.19999694824</ele>
        <time>2024-05-21T06:28:25.000Z</time>
      </trkpt>
      <trkpt lat="45.58481" lon="4.87887">
        <ele>237</ele>
        <time>2024-05-21T06:28:26.000Z</time>
      </trkpt>
      <trkpt lat="45.58475" lon="4.87892">
        <ele>236.19999694824</ele>
        <time>2024-05-21T06:28:27.000Z</time>
      </trkpt>
      <trkpt lat="45.58469" lon="4.87896">
        <ele>235.60000610352</ele>
        <time>2024-05-21T06:28:28.000Z</time>
      </trkpt>
      <trkpt lat="45.58461" lon="4.87901">
        <ele>235</ele>
        <time>2024-05-21T06:28:29.000Z</time>
      </trkpt>
      <trkpt lat="45.58454" lon="4.87905">
        <ele>234.39999389648</ele>
        <time>2024-05-21T06:28:30.000Z</time>
      </trkpt>
      <trkpt lat="45.58448" lon="4.87908">
        <ele>234</ele>
        <time>2024-05-21T06:28:31.000Z</time>
      </trkpt>
      <trkpt lat="45.58441" lon="4.87911">
        <ele>233.39999389648</ele>
        <time>2024-05-21T06:28:32.000Z</time>
      </trkpt>
      <trkpt lat="45.58435" lon="4.87914">
        <ele>233.19999694824</ele>
        <time>2024-05-21T06:28:33.000Z</time>
      </trkpt>
      <trkpt lat="45.58427" lon="4.87917">
        <ele>232.80000305176</ele>
        <time>2024-05-21T06:28:34.000Z</time>
      </trkpt>
      <trkpt lat="45.5842" lon="4.87919">
        <ele>232.60000610352</ele>
        <time>2024-05-21T06:28:35.000Z</time>
      </trkpt>
      <trkpt lat="45.58414" lon="4.8792">
        <ele>232</ele>
        <time>2024-05-21T06:28:36.000Z</time>
      </trkpt>
      <trkpt lat="45.58404" lon="4.87921">
        <ele>231.60000610352</ele>
        <time>2024-05-21T06:28:37.000Z</time>
      </trkpt>
      <trkpt lat="45.58396" lon="4.87922">
        <ele>231.19999694824</ele>
        <time>2024-05-21T06:28:38.000Z</time>
      </trkpt>
      <trkpt lat="45.58389" lon="4.87922">
        <ele>230.60000610352</ele>
        <time>2024-05-21T06:28:39.000Z</time>
      </trkpt>
      <trkpt lat="45.58379" lon="4.87922">
        <ele>230.19999694824</ele>
        <time>2024-05-21T06:28:40.000Z</time>
      </trkpt>
      <trkpt lat="45.58371" lon="4.87921">
        <ele>229.80000305176</ele>
        <time>2024-05-21T06:28:41.000Z</time>
      </trkpt>
      <trkpt lat="45.58364" lon="4.8792">
        <ele>229.39999389648</ele>
        <time>2024-05-21T06:28:42.000Z</time>
      </trkpt>
      <trkpt lat="45.58354" lon="4.87919">
        <ele>228.80000305176</ele>
        <time>2024-05-21T06:28:43.000Z</time>
      </trkpt>
      <trkpt lat="45.58346" lon="4.87919">
        <ele>228.19999694824</ele>
        <time>2024-05-21T06:28:44.000Z</time>
      </trkpt>
      <trkpt lat="45.58338" lon="4.87918">
        <ele>227.60000610352</ele>
        <time>2024-05-21T06:28:45.000Z</time>
      </trkpt>
      <trkpt lat="45.58331" lon="4.87918">
        <ele>227.39999389648</ele>
        <time>2024-05-21T06:28:46.000Z</time>
      </trkpt>
      <trkpt lat="45.58323" lon="4.87917">
        <ele>226.80000305176</ele>
        <time>2024-05-21T06:28:47.000Z</time>
      </trkpt>
      <trkpt lat="45.58317" lon="4.87916">
        <ele>226.60000610352</ele>
        <time>2024-05-21T06:28:48.000Z</time>
      </trkpt>
      <trkpt lat="45.58309" lon="4.87915">
        <ele>226.19999694824</ele>
        <time>2024-05-21T06:28:49.000Z</time>
      </trkpt>
      <trkpt lat="45.58301" lon="4.87914">
        <ele>225.80000305176</ele>
        <time>2024-05-21T06:28:50.000Z</time>
      </trkpt>
      <trkpt lat="45.58293" lon="4.87912">
        <ele>225.19999694824</ele>
        <time>2024-05-21T06:28:51.000Z</time>
      </trkpt>
      <trkpt lat="45.58285" lon="4.87911">
        <ele>225</ele>
        <time>2024-05-21T06:28:52.000Z</time>
      </trkpt>
      <trkpt lat="45.58275" lon="4.87909">
        <ele>224.60000610352</ele>
        <time>2024-05-21T06:28:53.000Z</time>
      </trkpt>
      <trkpt lat="45.58267" lon="4.87908">
        <ele>224.39999389648</ele>
        <time>2024-05-21T06:28:54.000Z</time>
      </trkpt>
      <trkpt lat="45.58261" lon="4.87907">
        <ele>224</ele>
        <time>2024-05-21T06:28:55.000Z</time>
      </trkpt>
      <trkpt lat="45.58252" lon="4.87905">
        <ele>223.39999389648</ele>
        <time>2024-05-21T06:28:56.000Z</time>
      </trkpt>
      <trkpt lat="45.58244" lon="4.87903">
        <ele>223</ele>
        <time>2024-05-21T06:28:57.000Z</time>
      </trkpt>
      <trkpt lat="45.58238" lon="4.87902">
        <ele>222.80000305176</ele>
        <time>2024-05-21T06:28:58.000Z</time>
      </trkpt>
      <trkpt lat="45.58228" lon="4.879">
        <ele>222.39999389648</ele>
        <time>2024-05-21T06:28:59.000Z</time>
      </trkpt>
      <trkpt lat="45.58221" lon="4.87899">
        <ele>222</ele>
        <time>2024-05-21T06:29:00.000Z</time>
      </trkpt>
      <trkpt lat="45.58214" lon="4.87898">
        <ele>221.80000305176</ele>
        <time>2024-05-21T06:29:01.000Z</time>
      </trkpt>
      <trkpt lat="45.58205" lon="4.87896">
        <ele>221.39999389648</ele>
        <time>2024-05-21T06:29:02.000Z</time>
      </trkpt>
      <trkpt lat="45.58197" lon="4.87895">
        <ele>221</ele>
        <time>2024-05-21T06:29:03.000Z</time>
      </trkpt>
      <trkpt lat="45.5819" lon="4.87895">
        <ele>220.60000610352</ele>
        <time>2024-05-21T06:29:04.000Z</time>
      </trkpt>
      <trkpt lat="45.58181" lon="4.87894">
        <ele>220.39999389648</ele>
        <time>2024-05-21T06:29:05.000Z</time>
      </trkpt>
      <trkpt lat="45.58173" lon="4.87894">
        <ele>220.19999694824</ele>
        <time>2024-05-21T06:29:06.000Z</time>
      </trkpt>
      <trkpt lat="45.58167" lon="4.87895">
        <ele>219.80000305176</ele>
        <time>2024-05-21T06:29:07.000Z</time>
      </trkpt>
      <trkpt lat="45.58158" lon="4.87896">
        <ele>219.60000610352</ele>
        <time>2024-05-21T06:29:08.000Z</time>
      </trkpt>
      <trkpt lat="45.58152" lon="4.87897">
        <ele>219</ele>
        <time>2024-05-21T06:29:09.000Z</time>
      </trkpt>
      <trkpt lat="45.58144" lon="4.87898">
        <ele>218.80000305176</ele>
        <time>2024-05-21T06:29:10.000Z</time>
      </trkpt>
      <trkpt lat="45.58135" lon="4.879">
        <ele>218.19999694824</ele>
        <time>2024-05-21T06:29:11.000Z</time>
      </trkpt>
      <trkpt lat="45.58128" lon="4.87902">
        <ele>217.80000305176</ele>
        <time>2024-05-21T06:29:12.000Z</time>
      </trkpt>
      <trkpt lat="45.58122" lon="4.87903">
        <ele>217.39999389648</ele>
        <time>2024-05-21T06:29:13.000Z</time>
      </trkpt>
      <trkpt lat="45.58114" lon="4.87907">
        <ele>217</ele>
        <time>2024-05-21T06:29:14.000Z</time>
      </trkpt>
      <trkpt lat="45.58108" lon="4.87911">
        <ele>216.60000610352</ele>
        <time>2024-05-21T06:29:15.000Z</time>
      </trkpt>
      <trkpt lat="45.58102" lon="4.87915">
        <ele>216.39999389648</ele>
        <time>2024-05-21T06:29:16.000Z</time>
      </trkpt>
      <trkpt lat="45.58094" lon="4.8792">
        <ele>216.19999694824</ele>
        <time>2024-05-21T06:29:17.000Z</time>
      </trkpt>
      <trkpt lat="45.58088" lon="4.87925">
        <ele>216</ele>
        <time>2024-05-21T06:29:18.000Z</time>
      </trkpt>
      <trkpt lat="45.58082" lon="4.8793">
        <ele>215.80000305176</ele>
        <time>2024-05-21T06:29:19.000Z</time>
      </trkpt>
      <trkpt lat="45.58074" lon="4.87936">
        <ele>215.39999389648</ele>
        <time>2024-05-21T06:29:20.000Z</time>
      </trkpt>
      <trkpt lat="45.58067" lon="4.87942">
        <ele>215</ele>
        <time>2024-05-21T06:29:21.000Z</time>
      </trkpt>
      <trkpt lat="45.58061" lon="4.87946">
        <ele>214.60000610352</ele>
        <time>2024-05-21T06:29:22.000Z</time>
      </trkpt>
      <trkpt lat="45.58053" lon="4.87953">
        <ele>214.19999694824</ele>
        <time>2024-05-21T06:29:23.000Z</time>
      </trkpt>
      <trkpt lat="45.58046" lon="4.87959">
        <ele>213.80000305176</ele>
        <time>2024-05-21T06:29:24.000Z</time>
      </trkpt>
      <trkpt lat="45.5804" lon="4.87964">
        <ele>213.39999389648</ele>
        <time>2024-05-21T06:29:25.000Z</time>
      </trkpt>
      <trkpt lat="45.58031" lon="4.87971">
        <ele>213.19999694824</ele>
        <time>2024-05-21T06:29:26.000Z</time>
      </trkpt>
      <trkpt lat="45.58023" lon="4.87976">
        <ele>212.60000610352</ele>
        <time>2024-05-21T06:29:27.000Z</time>
      </trkpt>
      <trkpt lat="45.58017" lon="4.87981">
        <ele>212.39999389648</ele>
        <time>2024-05-21T06:29:28.000Z</time>
      </trkpt>
      <trkpt lat="45.58008" lon="4.87988">
        <ele>212</ele>
        <time>2024-05-21T06:29:29.000Z</time>
      </trkpt>
      <trkpt lat="45.58001" lon="4.87994">
        <ele>211.60000610352</ele>
        <time>2024-05-21T06:29:30.000Z</time>
      </trkpt>
      <trkpt lat="45.57995" lon="4.87998">
        <ele>211.39999389648</ele>
        <time>2024-05-21T06:29:31.000Z</time>
      </trkpt>
      <trkpt lat="45.57987" lon="4.88004">
        <ele>210.60000610352</ele>
        <time>2024-05-21T06:29:32.000Z</time>
      </trkpt>
      <trkpt lat="45.5798" lon="4.8801">
        <ele>210.19999694824</ele>
        <time>2024-05-21T06:29:33.000Z</time>
      </trkpt>
      <trkpt lat="45.57972" lon="4.88016">
        <ele>209.80000305176</ele>
        <time>2024-05-21T06:29:34.000Z</time>
      </trkpt>
      <trkpt lat="45.57964" lon="4.88023">
        <ele>209.39999389648</ele>
        <time>2024-05-21T06:29:35.000Z</time>
      </trkpt>
      <trkpt lat="45.57956" lon="4.88029">
        <ele>209</ele>
        <time>2024-05-21T06:29:36.000Z</time>
      </trkpt>
      <trkpt lat="45.5795" lon="4.88033">
        <ele>208.60000610352</ele>
        <time>2024-05-21T06:29:37.000Z</time>
      </trkpt>
      <trkpt lat="45.57942" lon="4.88039">
        <ele>208.60000610352</ele>
        <time>2024-05-21T06:29:38.000Z</time>
      </trkpt>
      <trkpt lat="45.57935" lon="4.88043">
        <ele>208.19999694824</ele>
        <time>2024-05-21T06:29:39.000Z</time>
      </trkpt>
      <trkpt lat="45.5793" lon="4.88047">
        <ele>208</ele>
        <time>2024-05-21T06:29:40.000Z</time>
      </trkpt>
      <trkpt lat="45.57922" lon="4.88051">
        <ele>208</ele>
        <time>2024-05-21T06:29:41.000Z</time>
      </trkpt>
      <trkpt lat="45.57916" lon="4.88055">
        <ele>207.80000305176</ele>
        <time>2024-05-21T06:29:42.000Z</time>
      </trkpt>
      <trkpt lat="45.57912" lon="4.88057">
        <ele>207.39999389648</ele>
        <time>2024-05-21T06:29:43.000Z</time>
      </trkpt>
      <trkpt lat="45.57907" lon="4.8806">
        <ele>207.39999389648</ele>
        <time>2024-05-21T06:29:44.000Z</time>
      </trkpt>
      <trkpt lat="45.57902" lon="4.88064">
        <ele>207.19999694824</ele>
        <time>2024-05-21T06:29:45.000Z</time>
      </trkpt>
      <trkpt lat="45.57899" lon="4.88065">
        <ele>207.19999694824</ele>
        <time>2024-05-21T06:29:46.000Z</time>
      </trkpt>
      <trkpt lat="45.57896" lon="4.88068">
        <ele>207.19999694824</ele>
        <time>2024-05-21T06:29:47.000Z</time>
      </trkpt>
      <trkpt lat="45.57894" lon="4.88068">
        <ele>207.19999694824</ele>
        <time>2024-05-21T06:29:48.000Z</time>
      </trkpt>
      <trkpt lat="45.5789" lon="4.88069">
        <ele>207.19999694824</ele>
        <time>2024-05-21T06:29:49.000Z</time>
      </trkpt>
      <trkpt lat="45.57886" lon="4.88068">
        <ele>207.19999694824</ele>
        <time>2024-05-21T06:29:50.000Z</time>
      </trkpt>
      <trkpt lat="45.57882" lon="4.88068">
        <ele>207.19999694824</ele>
        <time>2024-05-21T06:29:51.000Z</time>
      </trkpt>
      <trkpt lat="45.57878" lon="4.88067">
        <ele>207.19999694824</ele>
        <time>2024-05-21T06:29:52.000Z</time>
      </trkpt>
      <trkpt lat="45.57873" lon="4.88067">
        <ele>207</ele>
        <time>2024-05-21T06:29:53.000Z</time>
      </trkpt>
      <trkpt lat="45.57868" lon="4.88066">
        <ele>206.80000305176</ele>
        <time>2024-05-21T06:29:54.000Z</time>
      </trkpt>
      <trkpt lat="45.57863" lon="4.88066">
        <ele>206.60000610352</ele>
        <time>2024-05-21T06:29:55.000Z</time>
      </trkpt>
      <trkpt lat="45.57858" lon="4.88066">
        <ele>206.60000610352</ele>
        <time>2024-05-21T06:29:56.000Z</time>
      </trkpt>
      <trkpt lat="45.57852" lon="4.88065">
        <ele>206.39999389648</ele>
        <time>2024-05-21T06:29:57.000Z</time>
      </trkpt>
      <trkpt lat="45.57848" lon="4.88064">
        <ele>206.39999389648</ele>
        <time>2024-05-21T06:29:58.000Z</time>
      </trkpt>
      <trkpt lat="45.57843" lon="4.88064">
        <ele>206.39999389648</ele>
        <time>2024-05-21T06:29:59.000Z</time>
      </trkpt>
      <trkpt lat="45.57838" lon="4.88063">
        <ele>206.39999389648</ele>
        <time>2024-05-21T06:30:00.000Z</time>
      </trkpt>
      <trkpt lat="45.57832" lon="4.88062">
        <ele>206.19999694824</ele>
        <time>2024-05-21T06:30:01.000Z</time>
      </trkpt>
      <trkpt lat="45.57827" lon="4.88061">
        <ele>206.19999694824</ele>
        <time>2024-05-21T06:30:02.000Z</time>
      </trkpt>
      <trkpt lat="45.5782" lon="4.88061">
        <ele>206</ele>
        <time>2024-05-21T06:30:03.000Z</time>
      </trkpt>
      <trkpt lat="45.57816" lon="4.8806">
        <ele>206</ele>
        <time>2024-05-21T06:30:04.000Z</time>
      </trkpt>
      <trkpt lat="45.5781" lon="4.88058">
        <ele>206</ele>
        <time>2024-05-21T06:30:05.000Z</time>
      </trkpt>
      <trkpt lat="45.57805" lon="4.88057">
        <ele>206</ele>
        <time>2024-05-21T06:30:06.000Z</time>
      </trkpt>
      <trkpt lat="45.57799" lon="4.88056">
        <ele>205.80000305176</ele>
        <time>2024-05-21T06:30:07.000Z</time>
      </trkpt>
      <trkpt lat="45.57793" lon="4.88054">
        <ele>205.80000305176</ele>
        <time>2024-05-21T06:30:08.000Z</time>
      </trkpt>
      <trkpt lat="45.57788" lon="4.88052">
        <ele>205.80000305176</ele>
        <time>2024-05-21T06:30:09.000Z</time>
      </trkpt>
      <trkpt lat="45.57782" lon="4.8805">
        <ele>205.80000305176</ele>
        <time>2024-05-21T06:30:10.000Z</time>
      </trkpt>
      <trkpt lat="45.57776" lon="4.88049">
        <ele>205.80000305176</ele>
        <time>2024-05-21T06:30:11.000Z</time>
      </trkpt>
      <trkpt lat="45.5777" lon="4.88047">
        <ele>205.80000305176</ele>
        <time>2024-05-21T06:30:12.000Z</time>
      </trkpt>
      <trkpt lat="45.57764" lon="4.88045">
        <ele>205.60000610352</ele>
        <time>2024-05-21T06:30:13.000Z</time>
      </trkpt>
      <trkpt lat="45.57759" lon="4.88043">
        <ele>205.60000610352</ele>
        <time>2024-05-21T06:30:14.000Z</time>
      </trkpt>
      <trkpt lat="45.57753" lon="4.88041">
        <ele>205.60000610352</ele>
        <time>2024-05-21T06:30:15.000Z</time>
      </trkpt>
      <trkpt lat="45.57746" lon="4.88039">
        <ele>205.60000610352</ele>
        <time>2024-05-21T06:30:16.000Z</time>
      </trkpt>
      <trkpt lat="45.5774" lon="4.88037">
        <ele>205.39999389648</ele>
        <time>2024-05-21T06:30:17.000Z</time>
      </trkpt>
      <trkpt lat="45.57734" lon="4.88035">
        <ele>205.39999389648</ele>
        <time>2024-05-21T06:30:18.000Z</time>
      </trkpt>
      <trkpt lat="45.57728" lon="4.88032">
        <ele>205.19999694824</ele>
        <time>2024-05-21T06:30:19.000Z</time>
      </trkpt>
      <trkpt lat="45.57722" lon="4.8803">
        <ele>205.19999694824</ele>
        <time>2024-05-21T06:30:20.000Z</time>
      </trkpt>
      <trkpt lat="45.57716" lon="4.88028">
        <ele>205.19999694824</ele>
        <time>2024-05-21T06:30:21.000Z</time>
      </trkpt>
      <trkpt lat="45.57709" lon="4.88026">
        <ele>205</ele>
        <time>2024-05-21T06:30:22.000Z</time>
      </trkpt>
      <trkpt lat="45.57703" lon="4.88024">
        <ele>205</ele>
        <time>2024-05-21T06:30:23.000Z</time>
      </trkpt>
      <trkpt lat="45.57697" lon="4.88021">
        <ele>205</ele>
        <time>2024-05-21T06:30:24.000Z</time>
      </trkpt>
      <trkpt lat="45.5769" lon="4.88019">
        <ele>204.80000305176</ele>
        <time>2024-05-21T06:30:25.000Z</time>
      </trkpt>
      <trkpt lat="45.57684" lon="4.88017">
        <ele>204.80000305176</ele>
        <time>2024-05-21T06:30:26.000Z</time>
      </trkpt>
      <trkpt lat="45.57678" lon="4.88015">
        <ele>204.60000610352</ele>
        <time>2024-05-21T06:30:27.000Z</time>
      </trkpt>
      <trkpt lat="45.57672" lon="4.88013">
        <ele>204.60000610352</ele>
        <time>2024-05-21T06:30:28.000Z</time>
      </trkpt>
      <trkpt lat="45.57666" lon="4.88011">
        <ele>204.60000610352</ele>
        <time>2024-05-21T06:30:29.000Z</time>
      </trkpt>
      <trkpt lat="45.57659" lon="4.88008">
        <ele>204.39999389648</ele>
        <time>2024-05-21T06:30:30.000Z</time>
      </trkpt>
      <trkpt lat="45.57653" lon="4.88006">
        <ele>204.39999389648</ele>
        <time>2024-05-21T06:30:31.000Z</time>
      </trkpt>
      <trkpt lat="45.57647" lon="4.88004">
        <ele>204.19999694824</ele>
        <time>2024-05-21T06:30:32.000Z</time>
      </trkpt>
      <trkpt lat="45.57641" lon="4.88002">
        <ele>204.19999694824</ele>
        <time>2024-05-21T06:30:33.000Z</time>
      </trkpt>
      <trkpt lat="45.57634" lon="4.88">
        <ele>204</ele>
        <time>2024-05-21T06:30:34.000Z</time>
      </trkpt>
      <trkpt lat="45.57628" lon="4.87998">
        <ele>204</ele>
        <time>2024-05-21T06:30:35.000Z</time>
      </trkpt>
      <trkpt lat="45.57622" lon="4.87997">
        <ele>204</ele>
        <time>2024-05-21T06:30:36.000Z</time>
      </trkpt>
      <trkpt lat="45.57615" lon="4.87995">
        <ele>204</ele>
        <time>2024-05-21T06:30:37.000Z</time>
      </trkpt>
      <trkpt lat="45.57609" lon="4.87993">
        <ele>204</ele>
        <time>2024-05-21T06:30:38.000Z</time>
      </trkpt>
      <trkpt lat="45.57602" lon="4.87991">
        <ele>204</ele>
        <time>2024-05-21T06:30:39.000Z</time>
      </trkpt>
      <trkpt lat="45.57596" lon="4.87988">
        <ele>203.80000305176</ele>
        <time>2024-05-21T06:30:40.000Z</time>
      </trkpt>
      <trkpt lat="45.57589" lon="4.87986">
        <ele>203.60000610352</ele>
        <time>2024-05-21T06:30:41.000Z</time>
      </trkpt>
      <trkpt lat="45.57582" lon="4.87984">
        <ele>203.60000610352</ele>
        <time>2024-05-21T06:30:42.000Z</time>
      </trkpt>
      <trkpt lat="45.57575" lon="4.87982">
        <ele>203.39999389648</ele>
        <time>2024-05-21T06:30:43.000Z</time>
      </trkpt>
      <trkpt lat="45.57568" lon="4.87979">
        <ele>203.19999694824</ele>
        <time>2024-05-21T06:30:44.000Z</time>
      </trkpt>
      <trkpt lat="45.57561" lon="4.87977">
        <ele>203.19999694824</ele>
        <time>2024-05-21T06:30:45.000Z</time>
      </trkpt>
      <trkpt lat="45.57554" lon="4.87975">
        <ele>202.80000305176</ele>
        <time>2024-05-21T06:30:46.000Z</time>
      </trkpt>
      <trkpt lat="45.57547" lon="4.87973">
        <ele>202.39999389648</ele>
        <time>2024-05-21T06:30:47.000Z</time>
      </trkpt>
      <trkpt lat="45.57539" lon="4.8797">
        <ele>202</ele>
        <time>2024-05-21T06:30:48.000Z</time>
      </trkpt>
      <trkpt lat="45.57532" lon="4.87968">
        <ele>202</ele>
        <time>2024-05-21T06:30:49.000Z</time>
      </trkpt>
      <trkpt lat="45.57525" lon="4.87966">
        <ele>201.80000305176</ele>
        <time>2024-05-21T06:30:50.000Z</time>
      </trkpt>
      <trkpt lat="45.57517" lon="4.87964">
        <ele>201.60000610352</ele>
        <time>2024-05-21T06:30:51.000Z</time>
      </trkpt>
      <trkpt lat="45.57509" lon="4.87963">
        <ele>201.60000610352</ele>
        <time>2024-05-21T06:30:52.000Z</time>
      </trkpt>
      <trkpt lat="45.57501" lon="4.87962">
        <ele>201.39999389648</ele>
        <time>2024-05-21T06:30:53.000Z</time>
      </trkpt>
      <trkpt lat="45.57493" lon="4.87962">
        <ele>201</ele>
        <time>2024-05-21T06:30:54.000Z</time>
      </trkpt>
      <trkpt lat="45.57485" lon="4.87962">
        <ele>200.80000305176</ele>
        <time>2024-05-21T06:30:55.000Z</time>
      </trkpt>
      <trkpt lat="45.57477" lon="4.87962">
        <ele>200.80000305176</ele>
        <time>2024-05-21T06:30:56.000Z</time>
      </trkpt>
      <trkpt lat="45.57469" lon="4.87962">
        <ele>200.39999389648</ele>
        <time>2024-05-21T06:30:57.000Z</time>
      </trkpt>
      <trkpt lat="45.57461" lon="4.87962">
        <ele>199.80000305176</ele>
        <time>2024-05-21T06:30:58.000Z</time>
      </trkpt>
      <trkpt lat="45.57453" lon="4.87961">
        <ele>199.60000610352</ele>
        <time>2024-05-21T06:30:59.000Z</time>
      </trkpt>
      <trkpt lat="45.57445" lon="4.87961">
        <ele>199.39999389648</ele>
        <time>2024-05-21T06:31:00.000Z</time>
      </trkpt>
      <trkpt lat="45.57437" lon="4.87959">
        <ele>199.39999389648</ele>
        <time>2024-05-21T06:31:01.000Z</time>
      </trkpt>
      <trkpt lat="45.57429" lon="4.87958">
        <ele>199</ele>
        <time>2024-05-21T06:31:02.000Z</time>
      </trkpt>
      <trkpt lat="45.57421" lon="4.87955">
        <ele>199</ele>
        <time>2024-05-21T06:31:03.000Z</time>
      </trkpt>
      <trkpt lat="45.57414" lon="4.87953">
        <ele>199</ele>
        <time>2024-05-21T06:31:04.000Z</time>
      </trkpt>
      <trkpt lat="45.57406" lon="4.8795">
        <ele>199</ele>
        <time>2024-05-21T06:31:05.000Z</time>
      </trkpt>
      <trkpt lat="45.57399" lon="4.87947">
        <ele>198.80000305176</ele>
        <time>2024-05-21T06:31:06.000Z</time>
      </trkpt>
      <trkpt lat="45.57393" lon="4.87945">
        <ele>198.80000305176</ele>
        <time>2024-05-21T06:31:07.000Z</time>
      </trkpt>
      <trkpt lat="45.57386" lon="4.87942">
        <ele>198.80000305176</ele>
        <time>2024-05-21T06:31:08.000Z</time>
      </trkpt>
      <trkpt lat="45.57379" lon="4.8794">
        <ele>198.80000305176</ele>
        <time>2024-05-21T06:31:09.000Z</time>
      </trkpt>
      <trkpt lat="45.57373" lon="4.87938">
        <ele>198.80000305176</ele>
        <time>2024-05-21T06:31:10.000Z</time>
      </trkpt>
      <trkpt lat="45.57366" lon="4.87935">
        <ele>198.80000305176</ele>
        <time>2024-05-21T06:31:11.000Z</time>
      </trkpt>
      <trkpt lat="45.5736" lon="4.87933">
        <ele>198.80000305176</ele>
        <time>2024-05-21T06:31:12.000Z</time>
      </trkpt>
      <trkpt lat="45.57353" lon="4.8793">
        <ele>198.80000305176</ele>
        <time>2024-05-21T06:31:13.000Z</time>
      </trkpt>
      <trkpt lat="45.57347" lon="4.87928">
        <ele>198.80000305176</ele>
        <time>2024-05-21T06:31:14.000Z</time>
      </trkpt>
      <trkpt lat="45.57341" lon="4.87926">
        <ele>198.80000305176</ele>
        <time>2024-05-21T06:31:15.000Z</time>
      </trkpt>
      <trkpt lat="45.57335" lon="4.87923">
        <ele>198.80000305176</ele>
        <time>2024-05-21T06:31:16.000Z</time>
      </trkpt>
      <trkpt lat="45.57329" lon="4.87921">
        <ele>199</ele>
        <time>2024-05-21T06:31:17.000Z</time>
      </trkpt>
      <trkpt lat="45.57322" lon="4.87918">
        <ele>199</ele>
        <time>2024-05-21T06:31:18.000Z</time>
      </trkpt>
      <trkpt lat="45.57316" lon="4.87916">
        <ele>198.80000305176</ele>
        <time>2024-05-21T06:31:19.000Z</time>
      </trkpt>
      <trkpt lat="45.57309" lon="4.87913">
        <ele>198.80000305176</ele>
        <time>2024-05-21T06:31:20.000Z</time>
      </trkpt>
      <trkpt lat="45.57303" lon="4.87911">
        <ele>198.80000305176</ele>
        <time>2024-05-21T06:31:21.000Z</time>
      </trkpt>
      <trkpt lat="45.57297" lon="4.87908">
        <ele>198.80000305176</ele>
        <time>2024-05-21T06:31:22.000Z</time>
      </trkpt>
      <trkpt lat="45.57291" lon="4.87905">
        <ele>198.80000305176</ele>
        <time>2024-05-21T06:31:23.000Z</time>
      </trkpt>
      <trkpt lat="45.57285" lon="4.87902">
        <ele>198.80000305176</ele>
        <time>2024-05-21T06:31:24.000Z</time>
      </trkpt>
      <trkpt lat="45.57279" lon="4.879">
        <ele>198.80000305176</ele>
        <time>2024-05-21T06:31:25.000Z</time>
      </trkpt>
      <trkpt lat="45.57273" lon="4.87897">
        <ele>198.80000305176</ele>
        <time>2024-05-21T06:31:26.000Z</time>
      </trkpt>
      <trkpt lat="45.57267" lon="4.87894">
        <ele>199</ele>
        <time>2024-05-21T06:31:27.000Z</time>
      </trkpt>
      <trkpt lat="45.57261" lon="4.87891">
        <ele>199</ele>
        <time>2024-05-21T06:31:28.000Z</time>
      </trkpt>
      <trkpt lat="45.57255" lon="4.87888">
        <ele>199</ele>
        <time>2024-05-21T06:31:29.000Z</time>
      </trkpt>
      <trkpt lat="45.5725" lon="4.87886">
        <ele>199</ele>
        <time>2024-05-21T06:31:30.000Z</time>
      </trkpt>
      <trkpt lat="45.57244" lon="4.87883">
        <ele>199</ele>
        <time>2024-05-21T06:31:31.000Z</time>
      </trkpt>
      <trkpt lat="45.57238" lon="4.8788">
        <ele>199</ele>
        <time>2024-05-21T06:31:32.000Z</time>
      </trkpt>
      <trkpt lat="45.57232" lon="4.87877">
        <ele>199</ele>
        <time>2024-05-21T06:31:33.000Z</time>
      </trkpt>
      <trkpt lat="45.57226" lon="4.87874">
        <ele>199</ele>
        <time>2024-05-21T06:31:34.000Z</time>
      </trkpt>
      <trkpt lat="45.5722" lon="4.87872">
        <ele>199</ele>
        <time>2024-05-21T06:31:35.000Z</time>
      </trkpt>
      <trkpt lat="45.57214" lon="4.87869">
        <ele>199</ele>
        <time>2024-05-21T06:31:36.000Z</time>
      </trkpt>
      <trkpt lat="45.57208" lon="4.87866">
        <ele>199</ele>
        <time>2024-05-21T06:31:37.000Z</time>
      </trkpt>
      <trkpt lat="45.57202" lon="4.87864">
        <ele>199</ele>
        <time>2024-05-21T06:31:38.000Z</time>
      </trkpt>
      <trkpt lat="45.57196" lon="4.87861">
        <ele>199</ele>
        <time>2024-05-21T06:31:39.000Z</time>
      </trkpt>
      <trkpt lat="45.57189" lon="4.87859">
        <ele>199</ele>
        <time>2024-05-21T06:31:40.000Z</time>
      </trkpt>
      <trkpt lat="45.57183" lon="4.87857">
        <ele>198.80000305176</ele>
        <time>2024-05-21T06:31:41.000Z</time>
      </trkpt>
      <trkpt lat="45.57176" lon="4.87855">
        <ele>198.60000610352</ele>
        <time>2024-05-21T06:31:42.000Z</time>
      </trkpt>
      <trkpt lat="45.5717" lon="4.87853">
        <ele>198.39999389648</ele>
        <time>2024-05-21T06:31:43.000Z</time>
      </trkpt>
      <trkpt lat="45.57163" lon="4.87852">
        <ele>198.19999694824</ele>
        <time>2024-05-21T06:31:44.000Z</time>
      </trkpt>
      <trkpt lat="45.57156" lon="4.87851">
        <ele>198</ele>
        <time>2024-05-21T06:31:45.000Z</time>
      </trkpt>
      <trkpt lat="45.57149" lon="4.8785">
        <ele>197.80000305176</ele>
        <time>2024-05-21T06:31:46.000Z</time>
      </trkpt>
      <trkpt lat="45.57142" lon="4.8785">
        <ele>197.80000305176</ele>
        <time>2024-05-21T06:31:47.000Z</time>
      </trkpt>
      <trkpt lat="45.57135" lon="4.8785">
        <ele>197.80000305176</ele>
        <time>2024-05-21T06:31:48.000Z</time>
      </trkpt>
      <trkpt lat="45.57127" lon="4.87849">
        <ele>197.19999694824</ele>
        <time>2024-05-21T06:31:49.000Z</time>
      </trkpt>
      <trkpt lat="45.5712" lon="4.87849">
        <ele>197</ele>
        <time>2024-05-21T06:31:50.000Z</time>
      </trkpt>
      <trkpt lat="45.57112" lon="4.8785">
        <ele>196.80000305176</ele>
        <time>2024-05-21T06:31:51.000Z</time>
      </trkpt>
      <trkpt lat="45.57105" lon="4.8785">
        <ele>196.39999389648</ele>
        <time>2024-05-21T06:31:52.000Z</time>
      </trkpt>
      <trkpt lat="45.57096" lon="4.8785">
        <ele>196.19999694824</ele>
        <time>2024-05-21T06:31:53.000Z</time>
      </trkpt>
      <trkpt lat="45.5709" lon="4.8785">
        <ele>195.80000305176</ele>
        <time>2024-05-21T06:31:54.000Z</time>
      </trkpt>
      <trkpt lat="45.57082" lon="4.8785">
        <ele>195.60000610352</ele>
        <time>2024-05-21T06:31:55.000Z</time>
      </trkpt>
      <trkpt lat="45.57075" lon="4.8785">
        <ele>195.39999389648</ele>
        <time>2024-05-21T06:31:56.000Z</time>
      </trkpt>
      <trkpt lat="45.57065" lon="4.8785">
        <ele>195</ele>
        <time>2024-05-21T06:31:57.000Z</time>
      </trkpt>
      <trkpt lat="45.57059" lon="4.8785">
        <ele>194.80000305176</ele>
        <time>2024-05-21T06:31:58.000Z</time>
      </trkpt>
      <trkpt lat="45.5705" lon="4.8785">
        <ele>194.60000610352</ele>
        <time>2024-05-21T06:31:59.000Z</time>
      </trkpt>
      <trkpt lat="45.57044" lon="4.8785">
        <ele>194.19999694824</ele>
        <time>2024-05-21T06:32:00.000Z</time>
      </trkpt>
      <trkpt lat="45.57036" lon="4.87851">
        <ele>194.19999694824</ele>
        <time>2024-05-21T06:32:01.000Z</time>
      </trkpt>
      <trkpt lat="45.57029" lon="4.87851">
        <ele>193.80000305176</ele>
        <time>2024-05-21T06:32:02.000Z</time>
      </trkpt>
      <trkpt lat="45.57022" lon="4.87851">
        <ele>193.60000610352</ele>
        <time>2024-05-21T06:32:03.000Z</time>
      </trkpt>
      <trkpt lat="45.57015" lon="4.87851">
        <ele>193.39999389648</ele>
        <time>2024-05-21T06:32:04.000Z</time>
      </trkpt>
      <trkpt lat="45.57008" lon="4.87851">
        <ele>193</ele>
        <time>2024-05-21T06:32:05.000Z</time>
      </trkpt>
      <trkpt lat="45.57003" lon="4.8785">
        <ele>193</ele>
        <time>2024-05-21T06:32:06.000Z</time>
      </trkpt>
      <trkpt lat="45.56998" lon="4.8785">
        <ele>193</ele>
        <time>2024-05-21T06:32:07.000Z</time>
      </trkpt>
      <trkpt lat="45.56993" lon="4.8785">
        <ele>193</ele>
        <time>2024-05-21T06:32:08.000Z</time>
      </trkpt>
      <trkpt lat="45.56987" lon="4.8785">
        <ele>193</ele>
        <time>2024-05-21T06:32:09.000Z</time>
      </trkpt>
      <trkpt lat="45.56981" lon="4.8785">
        <ele>193</ele>
        <time>2024-05-21T06:32:10.000Z</time>
      </trkpt>
      <trkpt lat="45.56975" lon="4.8785">
        <ele>193</ele>
        <time>2024-05-21T06:32:11.000Z</time>
      </trkpt>
      <trkpt lat="45.56968" lon="4.87851">
        <ele>193.19999694824</ele>
        <time>2024-05-21T06:32:12.000Z</time>
      </trkpt>
      <trkpt lat="45.56961" lon="4.87851">
        <ele>193.19999694824</ele>
        <time>2024-05-21T06:32:13.000Z</time>
      </trkpt>
      <trkpt lat="45.56955" lon="4.87851">
        <ele>193.19999694824</ele>
        <time>2024-05-21T06:32:14.000Z</time>
      </trkpt>
      <trkpt lat="45.56949" lon="4.87852">
        <ele>193.19999694824</ele>
        <time>2024-05-21T06:32:15.000Z</time>
      </trkpt>
      <trkpt lat="45.56942" lon="4.87852">
        <ele>193.39999389648</ele>
        <time>2024-05-21T06:32:16.000Z</time>
      </trkpt>
      <trkpt lat="45.56936" lon="4.87852">
        <ele>193.39999389648</ele>
        <time>2024-05-21T06:32:17.000Z</time>
      </trkpt>
      <trkpt lat="45.56929" lon="4.87852">
        <ele>193.60000610352</ele>
        <time>2024-05-21T06:32:18.000Z</time>
      </trkpt>
      <trkpt lat="45.56922" lon="4.87852">
        <ele>193.60000610352</ele>
        <time>2024-05-21T06:32:19.000Z</time>
      </trkpt>
      <trkpt lat="45.56915" lon="4.87852">
        <ele>193.60000610352</ele>
        <time>2024-05-21T06:32:20.000Z</time>
      </trkpt>
      <trkpt lat="45.5691" lon="4.87853">
        <ele>193.60000610352</ele>
        <time>2024-05-21T06:32:21.000Z</time>
      </trkpt>
      <trkpt lat="45.56903" lon="4.87853">
        <ele>193.60000610352</ele>
        <time>2024-05-21T06:32:22.000Z</time>
      </trkpt>
      <trkpt lat="45.56897" lon="4.87853">
        <ele>193.60000610352</ele>
        <time>2024-05-21T06:32:23.000Z</time>
      </trkpt>
      <trkpt lat="45.5689" lon="4.87853">
        <ele>193.60000610352</ele>
        <time>2024-05-21T06:32:24.000Z</time>
      </trkpt>
      <trkpt lat="45.56883" lon="4.87854">
        <ele>193.60000610352</ele>
        <time>2024-05-21T06:32:25.000Z</time>
      </trkpt>
      <trkpt lat="45.56876" lon="4.87854">
        <ele>193.39999389648</ele>
        <time>2024-05-21T06:32:26.000Z</time>
      </trkpt>
      <trkpt lat="45.56868" lon="4.87855">
        <ele>193.39999389648</ele>
        <time>2024-05-21T06:32:27.000Z</time>
      </trkpt>
      <trkpt lat="45.56863" lon="4.87855">
        <ele>193.19999694824</ele>
        <time>2024-05-21T06:32:28.000Z</time>
      </trkpt>
      <trkpt lat="45.56857" lon="4.87854">
        <ele>193.19999694824</ele>
        <time>2024-05-21T06:32:29.000Z</time>
      </trkpt>
      <trkpt lat="45.5685" lon="4.87854">
        <ele>193.19999694824</ele>
        <time>2024-05-21T06:32:30.000Z</time>
      </trkpt>
      <trkpt lat="45.56843" lon="4.87854">
        <ele>193.19999694824</ele>
        <time>2024-05-21T06:32:31.000Z</time>
      </trkpt>
      <trkpt lat="45.56836" lon="4.87854">
        <ele>193.19999694824</ele>
        <time>2024-05-21T06:32:32.000Z</time>
      </trkpt>
      <trkpt lat="45.56829" lon="4.87854">
        <ele>193.19999694824</ele>
        <time>2024-05-21T06:32:33.000Z</time>
      </trkpt>
      <trkpt lat="45.56822" lon="4.87852">
        <ele>193.19999694824</ele>
        <time>2024-05-21T06:32:34.000Z</time>
      </trkpt>
      <trkpt lat="45.56813" lon="4.87851">
        <ele>193.19999694824</ele>
        <time>2024-05-21T06:32:35.000Z</time>
      </trkpt>
      <trkpt lat="45.56805" lon="4.87849">
        <ele>193.19999694824</ele>
        <time>2024-05-21T06:32:36.000Z</time>
      </trkpt>
      <trkpt lat="45.56798" lon="4.87849">
        <ele>193.19999694824</ele>
        <time>2024-05-21T06:32:37.000Z</time>
      </trkpt>
      <trkpt lat="45.56788" lon="4.87845">
        <ele>193.19999694824</ele>
        <time>2024-05-21T06:32:38.000Z</time>
      </trkpt>
      <trkpt lat="45.56781" lon="4.8784">
        <ele>193.19999694824</ele>
        <time>2024-05-21T06:32:39.000Z</time>
      </trkpt>
      <trkpt lat="45.56776" lon="4.87835">
        <ele>193.19999694824</ele>
        <time>2024-05-21T06:32:40.000Z</time>
      </trkpt>
      <trkpt lat="45.56769" lon="4.87826">
        <ele>193.19999694824</ele>
        <time>2024-05-21T06:32:41.000Z</time>
      </trkpt>
      <trkpt lat="45.56769" lon="4.87826">
        <ele>193</ele>
        <time>2024-05-21T06:32:42.000Z</time>
      </trkpt>
      <trkpt lat="45.56758" lon="4.87812">
        <ele>193</ele>
        <time>2024-05-21T06:32:43.000Z</time>
      </trkpt>
      <trkpt lat="45.56754" lon="4.87806">
        <ele>193</ele>
        <time>2024-05-21T06:32:44.000Z</time>
      </trkpt>
      <trkpt lat="45.5675" lon="4.87798">
        <ele>193</ele>
        <time>2024-05-21T06:32:45.000Z</time>
      </trkpt>
      <trkpt lat="45.56747" lon="4.87788">
        <ele>193</ele>
        <time>2024-05-21T06:32:46.000Z</time>
      </trkpt>
      <trkpt lat="45.56745" lon="4.87782">
        <ele>193</ele>
        <time>2024-05-21T06:32:47.000Z</time>
      </trkpt>
      <trkpt lat="45.56742" lon="4.87773">
        <ele>193</ele>
        <time>2024-05-21T06:32:48.000Z</time>
      </trkpt>
      <trkpt lat="45.5674" lon="4.87763">
        <ele>193</ele>
        <time>2024-05-21T06:32:49.000Z</time>
      </trkpt>
      <trkpt lat="45.56738" lon="4.87754">
        <ele>193.19999694824</ele>
        <time>2024-05-21T06:32:50.000Z</time>
      </trkpt>
      <trkpt lat="45.56736" lon="4.87744">
        <ele>193</ele>
        <time>2024-05-21T06:32:51.000Z</time>
      </trkpt>
      <trkpt lat="45.56736" lon="4.87737">
        <ele>193</ele>
        <time>2024-05-21T06:32:52.000Z</time>
      </trkpt>
      <trkpt lat="45.56735" lon="4.87725">
        <ele>193</ele>
        <time>2024-05-21T06:32:53.000Z</time>
      </trkpt>
      <trkpt lat="45.56734" lon="4.87717">
        <ele>192.80000305176</ele>
        <time>2024-05-21T06:32:54.000Z</time>
      </trkpt>
      <trkpt lat="45.56733" lon="4.87706">
        <ele>192.80000305176</ele>
        <time>2024-05-21T06:32:55.000Z</time>
      </trkpt>
      <trkpt lat="45.56733" lon="4.87706">
        <ele>192.80000305176</ele>
        <time>2024-05-21T06:32:56.000Z</time>
      </trkpt>
      <trkpt lat="45.56733" lon="4.87694">
        <ele>192.80000305176</ele>
        <time>2024-05-21T06:32:57.000Z</time>
      </trkpt>
      <trkpt lat="45.56733" lon="4.87677">
        <ele>192.60000610352</ele>
        <time>2024-05-21T06:32:58.000Z</time>
      </trkpt>
      <trkpt lat="45.56733" lon="4.87669">
        <ele>192.60000610352</ele>
        <time>2024-05-21T06:32:59.000Z</time>
      </trkpt>
      <trkpt lat="45.56734" lon="4.87657">
        <ele>192.60000610352</ele>
        <time>2024-05-21T06:33:00.000Z</time>
      </trkpt>
      <trkpt lat="45.56735" lon="4.87647">
        <ele>192.60000610352</ele>
        <time>2024-05-21T06:33:01.000Z</time>
      </trkpt>
      <trkpt lat="45.56737" lon="4.87638">
        <ele>192.60000610352</ele>
        <time>2024-05-21T06:33:02.000Z</time>
      </trkpt>
      <trkpt lat="45.56739" lon="4.87629">
        <ele>192.60000610352</ele>
        <time>2024-05-21T06:33:03.000Z</time>
      </trkpt>
      <trkpt lat="45.56741" lon="4.8762">
        <ele>192.39999389648</ele>
        <time>2024-05-21T06:33:04.000Z</time>
      </trkpt>
      <trkpt lat="45.56743" lon="4.87611">
        <ele>192.39999389648</ele>
        <time>2024-05-21T06:33:05.000Z</time>
      </trkpt>
      <trkpt lat="45.56745" lon="4.87602">
        <ele>192.39999389648</ele>
        <time>2024-05-21T06:33:06.000Z</time>
      </trkpt>
      <trkpt lat="45.56747" lon="4.87593">
        <ele>192.39999389648</ele>
        <time>2024-05-21T06:33:07.000Z</time>
      </trkpt>
      <trkpt lat="45.56749" lon="4.87582">
        <ele>192.39999389648</ele>
        <time>2024-05-21T06:33:08.000Z</time>
      </trkpt>
      <trkpt lat="45.56751" lon="4.87573">
        <ele>192.39999389648</ele>
        <time>2024-05-21T06:33:09.000Z</time>
      </trkpt>
      <trkpt lat="45.56753" lon="4.87565">
        <ele>192.39999389648</ele>
        <time>2024-05-21T06:33:10.000Z</time>
      </trkpt>
      <trkpt lat="45.56755" lon="4.87557">
        <ele>192.39999389648</ele>
        <time>2024-05-21T06:33:11.000Z</time>
      </trkpt>
      <trkpt lat="45.56756" lon="4.87551">
        <ele>192.39999389648</ele>
        <time>2024-05-21T06:33:12.000Z</time>
      </trkpt>
      <trkpt lat="45.56758" lon="4.87541">
        <ele>192.39999389648</ele>
        <time>2024-05-21T06:33:13.000Z</time>
      </trkpt>
      <trkpt lat="45.56759" lon="4.87532">
        <ele>192.60000610352</ele>
        <time>2024-05-21T06:33:14.000Z</time>
      </trkpt>
      <trkpt lat="45.5676" lon="4.87524">
        <ele>192.60000610352</ele>
        <time>2024-05-21T06:33:15.000Z</time>
      </trkpt>
      <trkpt lat="45.5676" lon="4.87515">
        <ele>192.60000610352</ele>
        <time>2024-05-21T06:33:16.000Z</time>
      </trkpt>
      <trkpt lat="45.5676" lon="4.87507">
        <ele>192.60000610352</ele>
        <time>2024-05-21T06:33:17.000Z</time>
      </trkpt>
      <trkpt lat="45.5676" lon="4.87498">
        <ele>192.60000610352</ele>
        <time>2024-05-21T06:33:18.000Z</time>
      </trkpt>
      <trkpt lat="45.56759" lon="4.87489">
        <ele>192.80000305176</ele>
        <time>2024-05-21T06:33:19.000Z</time>
      </trkpt>
      <trkpt lat="45.56757" lon="4.8748">
        <ele>192.80000305176</ele>
        <time>2024-05-21T06:33:20.000Z</time>
      </trkpt>
      <trkpt lat="45.56755" lon="4.87471">
        <ele>192.80000305176</ele>
        <time>2024-05-21T06:33:21.000Z</time>
      </trkpt>
      <trkpt lat="45.56753" lon="4.87461">
        <ele>192.80000305176</ele>
        <time>2024-05-21T06:33:22.000Z</time>
      </trkpt>
      <trkpt lat="45.56751" lon="4.87452">
        <ele>192.80000305176</ele>
        <time>2024-05-21T06:33:23.000Z</time>
      </trkpt>
      <trkpt lat="45.56749" lon="4.87442">
        <ele>192.80000305176</ele>
        <time>2024-05-21T06:33:24.000Z</time>
      </trkpt>
      <trkpt lat="45.56747" lon="4.87433">
        <ele>192.60000610352</ele>
        <time>2024-05-21T06:33:25.000Z</time>
      </trkpt>
      <trkpt lat="45.56744" lon="4.87424">
        <ele>192.60000610352</ele>
        <time>2024-05-21T06:33:26.000Z</time>
      </trkpt>
      <trkpt lat="45.56741" lon="4.87415">
        <ele>192.60000610352</ele>
        <time>2024-05-21T06:33:27.000Z</time>
      </trkpt>
      <trkpt lat="45.56736" lon="4.87408">
        <ele>192.60000610352</ele>
        <time>2024-05-21T06:33:28.000Z</time>
      </trkpt>
      <trkpt lat="45.5673" lon="4.87401">
        <ele>192.60000610352</ele>
        <time>2024-05-21T06:33:29.000Z</time>
      </trkpt>
      <trkpt lat="45.56725" lon="4.87393">
        <ele>192.39999389648</ele>
        <time>2024-05-21T06:33:30.000Z</time>
      </trkpt>
      <trkpt lat="45.56719" lon="4.87384">
        <ele>192.39999389648</ele>
        <time>2024-05-21T06:33:31.000Z</time>
      </trkpt>
      <trkpt lat="45.56714" lon="4.87377">
        <ele>192.19999694824</ele>
        <time>2024-05-21T06:33:32.000Z</time>
      </trkpt>
      <trkpt lat="45.56708" lon="4.87371">
        <ele>192.19999694824</ele>
        <time>2024-05-21T06:33:33.000Z</time>
      </trkpt>
      <trkpt lat="45.56702" lon="4.87365">
        <ele>192</ele>
        <time>2024-05-21T06:33:34.000Z</time>
      </trkpt>
      <trkpt lat="45.56696" lon="4.87357">
        <ele>192</ele>
        <time>2024-05-21T06:33:35.000Z</time>
      </trkpt>
      <trkpt lat="45.5669" lon="4.8735">
        <ele>191.80000305176</ele>
        <time>2024-05-21T06:33:36.000Z</time>
      </trkpt>
      <trkpt lat="45.56683" lon="4.87343">
        <ele>191.60000610352</ele>
        <time>2024-05-21T06:33:37.000Z</time>
      </trkpt>
      <trkpt lat="45.56679" lon="4.87335">
        <ele>191.39999389648</ele>
        <time>2024-05-21T06:33:38.000Z</time>
      </trkpt>
      <trkpt lat="45.56675" lon="4.87326">
        <ele>191.19999694824</ele>
        <time>2024-05-21T06:33:39.000Z</time>
      </trkpt>
      <trkpt lat="45.56672" lon="4.87317">
        <ele>191</ele>
        <time>2024-05-21T06:33:40.000Z</time>
      </trkpt>
      <trkpt lat="45.5667" lon="4.87308">
        <ele>190.80000305176</ele>
        <time>2024-05-21T06:33:41.000Z</time>
      </trkpt>
      <trkpt lat="45.56667" lon="4.87299">
        <ele>190.60000610352</ele>
        <time>2024-05-21T06:33:42.000Z</time>
      </trkpt>
      <trkpt lat="45.56663" lon="4.87291">
        <ele>190.60000610352</ele>
        <time>2024-05-21T06:33:43.000Z</time>
      </trkpt>
      <trkpt lat="45.56659" lon="4.87282">
        <ele>190.60000610352</ele>
        <time>2024-05-21T06:33:44.000Z</time>
      </trkpt>
      <trkpt lat="45.56655" lon="4.87274">
        <ele>190.60000610352</ele>
        <time>2024-05-21T06:33:45.000Z</time>
      </trkpt>
      <trkpt lat="45.5665" lon="4.87265">
        <ele>190.60000610352</ele>
        <time>2024-05-21T06:33:46.000Z</time>
      </trkpt>
      <trkpt lat="45.56646" lon="4.87256">
        <ele>190.60000610352</ele>
        <time>2024-05-21T06:33:47.000Z</time>
      </trkpt>
      <trkpt lat="45.56641" lon="4.87248">
        <ele>190.60000610352</ele>
        <time>2024-05-21T06:33:48.000Z</time>
      </trkpt>
      <trkpt lat="45.56637" lon="4.87239">
        <ele>190.60000610352</ele>
        <time>2024-05-21T06:33:49.000Z</time>
      </trkpt>
      <trkpt lat="45.56633" lon="4.8723">
        <ele>190.60000610352</ele>
        <time>2024-05-21T06:33:50.000Z</time>
      </trkpt>
      <trkpt lat="45.5663" lon="4.87221">
        <ele>190.60000610352</ele>
        <time>2024-05-21T06:33:51.000Z</time>
      </trkpt>
      <trkpt lat="45.56626" lon="4.87213">
        <ele>190.60000610352</ele>
        <time>2024-05-21T06:33:52.000Z</time>
      </trkpt>
      <trkpt lat="45.56622" lon="4.87205">
        <ele>190.60000610352</ele>
        <time>2024-05-21T06:33:53.000Z</time>
      </trkpt>
      <trkpt lat="45.56617" lon="4.87197">
        <ele>190.60000610352</ele>
        <time>2024-05-21T06:33:54.000Z</time>
      </trkpt>
      <trkpt lat="45.56612" lon="4.8719">
        <ele>190.60000610352</ele>
        <time>2024-05-21T06:33:55.000Z</time>
      </trkpt>
      <trkpt lat="45.56607" lon="4.87184">
        <ele>190.60000610352</ele>
        <time>2024-05-21T06:33:56.000Z</time>
      </trkpt>
      <trkpt lat="45.56602" lon="4.87178">
        <ele>190.60000610352</ele>
        <time>2024-05-21T06:33:57.000Z</time>
      </trkpt>
      <trkpt lat="45.56596" lon="4.87172">
        <ele>190.60000610352</ele>
        <time>2024-05-21T06:33:58.000Z</time>
      </trkpt>
      <trkpt lat="45.56591" lon="4.87167">
        <ele>190.60000610352</ele>
        <time>2024-05-21T06:33:59.000Z</time>
      </trkpt>
      <trkpt lat="45.56585" lon="4.87162">
        <ele>190.80000305176</ele>
        <time>2024-05-21T06:34:00.000Z</time>
      </trkpt>
      <trkpt lat="45.5658" lon="4.87158">
        <ele>191</ele>
        <time>2024-05-21T06:34:01.000Z</time>
      </trkpt>
      <trkpt lat="45.56574" lon="4.87153">
        <ele>191</ele>
        <time>2024-05-21T06:34:02.000Z</time>
      </trkpt>
      <trkpt lat="45.56569" lon="4.87149">
        <ele>191</ele>
        <time>2024-05-21T06:34:03.000Z</time>
      </trkpt>
      <trkpt lat="45.56563" lon="4.87144">
        <ele>191</ele>
        <time>2024-05-21T06:34:04.000Z</time>
      </trkpt>
      <trkpt lat="45.56557" lon="4.8714">
        <ele>191</ele>
        <time>2024-05-21T06:34:05.000Z</time>
      </trkpt>
      <trkpt lat="45.56551" lon="4.87135">
        <ele>191</ele>
        <time>2024-05-21T06:34:06.000Z</time>
      </trkpt>
      <trkpt lat="45.56545" lon="4.87131">
        <ele>191.19999694824</ele>
        <time>2024-05-21T06:34:07.000Z</time>
      </trkpt>
      <trkpt lat="45.5654" lon="4.87127">
        <ele>191.19999694824</ele>
        <time>2024-05-21T06:34:08.000Z</time>
      </trkpt>
      <trkpt lat="45.56535" lon="4.87124">
        <ele>191.19999694824</ele>
        <time>2024-05-21T06:34:09.000Z</time>
      </trkpt>
      <trkpt lat="45.5653" lon="4.8712">
        <ele>191.39999389648</ele>
        <time>2024-05-21T06:34:10.000Z</time>
      </trkpt>
      <trkpt lat="45.56525" lon="4.87115">
        <ele>191.39999389648</ele>
        <time>2024-05-21T06:34:11.000Z</time>
      </trkpt>
      <trkpt lat="45.5652" lon="4.87112">
        <ele>191.39999389648</ele>
        <time>2024-05-21T06:34:12.000Z</time>
      </trkpt>
      <trkpt lat="45.56515" lon="4.87108">
        <ele>191.39999389648</ele>
        <time>2024-05-21T06:34:13.000Z</time>
      </trkpt>
      <trkpt lat="45.56509" lon="4.87104">
        <ele>191.39999389648</ele>
        <time>2024-05-21T06:34:14.000Z</time>
      </trkpt>
      <trkpt lat="45.56503" lon="4.871">
        <ele>191.39999389648</ele>
        <time>2024-05-21T06:34:15.000Z</time>
      </trkpt>
      <trkpt lat="45.56498" lon="4.87095">
        <ele>191.39999389648</ele>
        <time>2024-05-21T06:34:16.000Z</time>
      </trkpt>
      <trkpt lat="45.56493" lon="4.87089">
        <ele>191.39999389648</ele>
        <time>2024-05-21T06:34:17.000Z</time>
      </trkpt>
      <trkpt lat="45.56488" lon="4.87083">
        <ele>191.39999389648</ele>
        <time>2024-05-21T06:34:18.000Z</time>
      </trkpt>
      <trkpt lat="45.56484" lon="4.87076">
        <ele>191.39999389648</ele>
        <time>2024-05-21T06:34:19.000Z</time>
      </trkpt>
      <trkpt lat="45.5648" lon="4.87069">
        <ele>191.39999389648</ele>
        <time>2024-05-21T06:34:20.000Z</time>
      </trkpt>
      <trkpt lat="45.56476" lon="4.87061">
        <ele>191.19999694824</ele>
        <time>2024-05-21T06:34:21.000Z</time>
      </trkpt>
      <trkpt lat="45.56472" lon="4.87053">
        <ele>191.19999694824</ele>
        <time>2024-05-21T06:34:22.000Z</time>
      </trkpt>
      <trkpt lat="45.56468" lon="4.87044">
        <ele>191</ele>
        <time>2024-05-21T06:34:23.000Z</time>
      </trkpt>
      <trkpt lat="45.56464" lon="4.87036">
        <ele>191</ele>
        <time>2024-05-21T06:34:24.000Z</time>
      </trkpt>
      <trkpt lat="45.5646" lon="4.87028">
        <ele>191</ele>
        <time>2024-05-21T06:34:25.000Z</time>
      </trkpt>
      <trkpt lat="45.56456" lon="4.8702">
        <ele>190.80000305176</ele>
        <time>2024-05-21T06:34:26.000Z</time>
      </trkpt>
      <trkpt lat="45.56451" lon="4.87012">
        <ele>190.60000610352</ele>
        <time>2024-05-21T06:34:27.000Z</time>
      </trkpt>
      <trkpt lat="45.56446" lon="4.87005">
        <ele>190.60000610352</ele>
        <time>2024-05-21T06:34:28.000Z</time>
      </trkpt>
      <trkpt lat="45.56441" lon="4.86998">
        <ele>190.39999389648</ele>
        <time>2024-05-21T06:34:29.000Z</time>
      </trkpt>
      <trkpt lat="45.56435" lon="4.86992">
        <ele>190.39999389648</ele>
        <time>2024-05-21T06:34:30.000Z</time>
      </trkpt>
      <trkpt lat="45.56429" lon="4.86987">
        <ele>190.39999389648</ele>
        <time>2024-05-21T06:34:31.000Z</time>
      </trkpt>
      <trkpt lat="45.56424" lon="4.86984">
        <ele>190.39999389648</ele>
        <time>2024-05-21T06:34:32.000Z</time>
      </trkpt>
      <trkpt lat="45.56417" lon="4.86981">
        <ele>190.39999389648</ele>
        <time>2024-05-21T06:34:33.000Z</time>
      </trkpt>
      <trkpt lat="45.5641" lon="4.86979">
        <ele>190.19999694824</ele>
        <time>2024-05-21T06:34:34.000Z</time>
      </trkpt>
      <trkpt lat="45.56403" lon="4.8698">
        <ele>190.19999694824</ele>
        <time>2024-05-21T06:34:35.000Z</time>
      </trkpt>
      <trkpt lat="45.56396" lon="4.86982">
        <ele>190.19999694824</ele>
        <time>2024-05-21T06:34:36.000Z</time>
      </trkpt>
      <trkpt lat="45.56389" lon="4.86985">
        <ele>190</ele>
        <time>2024-05-21T06:34:37.000Z</time>
      </trkpt>
      <trkpt lat="45.56383" lon="4.86989">
        <ele>189.80000305176</ele>
        <time>2024-05-21T06:34:38.000Z</time>
      </trkpt>
      <trkpt lat="45.56377" lon="4.86993">
        <ele>189.80000305176</ele>
        <time>2024-05-21T06:34:39.000Z</time>
      </trkpt>
      <trkpt lat="45.5637" lon="4.86997">
        <ele>189.60000610352</ele>
        <time>2024-05-21T06:34:40.000Z</time>
      </trkpt>
      <trkpt lat="45.56364" lon="4.87002">
        <ele>189.60000610352</ele>
        <time>2024-05-21T06:34:41.000Z</time>
      </trkpt>
      <trkpt lat="45.56357" lon="4.87006">
        <ele>189.60000610352</ele>
        <time>2024-05-21T06:34:42.000Z</time>
      </trkpt>
      <trkpt lat="45.56351" lon="4.87011">
        <ele>189.60000610352</ele>
        <time>2024-05-21T06:34:43.000Z</time>
      </trkpt>
      <trkpt lat="45.56344" lon="4.87015">
        <ele>189.60000610352</ele>
        <time>2024-05-21T06:34:44.000Z</time>
      </trkpt>
      <trkpt lat="45.56338" lon="4.87019">
        <ele>189.60000610352</ele>
        <time>2024-05-21T06:34:45.000Z</time>
      </trkpt>
      <trkpt lat="45.56331" lon="4.87022">
        <ele>189.80000305176</ele>
        <time>2024-05-21T06:34:46.000Z</time>
      </trkpt>
      <trkpt lat="45.56324" lon="4.87025">
        <ele>189.80000305176</ele>
        <time>2024-05-21T06:34:47.000Z</time>
      </trkpt>
      <trkpt lat="45.56318" lon="4.87026">
        <ele>189.80000305176</ele>
        <time>2024-05-21T06:34:48.000Z</time>
      </trkpt>
      <trkpt lat="45.56311" lon="4.87027">
        <ele>190</ele>
        <time>2024-05-21T06:34:49.000Z</time>
      </trkpt>
      <trkpt lat="45.56304" lon="4.87028">
        <ele>190</ele>
        <time>2024-05-21T06:34:50.000Z</time>
      </trkpt>
      <trkpt lat="45.56298" lon="4.87028">
        <ele>190</ele>
        <time>2024-05-21T06:34:51.000Z</time>
      </trkpt>
      <trkpt lat="45.56292" lon="4.87028">
        <ele>190</ele>
        <time>2024-05-21T06:34:52.000Z</time>
      </trkpt>
      <trkpt lat="45.56292" lon="4.87028">
        <ele>190</ele>
        <time>2024-05-21T06:34:53.000Z</time>
      </trkpt>
      <trkpt lat="45.5628" lon="4.87027">
        <ele>190</ele>
        <time>2024-05-21T06:34:54.000Z</time>
      </trkpt>
      <trkpt lat="45.56274" lon="4.87026">
        <ele>190.19999694824</ele>
        <time>2024-05-21T06:34:55.000Z</time>
      </trkpt>
      <trkpt lat="45.56268" lon="4.87025">
        <ele>190.19999694824</ele>
        <time>2024-05-21T06:34:56.000Z</time>
      </trkpt>
      <trkpt lat="45.56262" lon="4.87022">
        <ele>190.19999694824</ele>
        <time>2024-05-21T06:34:57.000Z</time>
      </trkpt>
      <trkpt lat="45.56256" lon="4.8702">
        <ele>190.19999694824</ele>
        <time>2024-05-21T06:34:58.000Z</time>
      </trkpt>
      <trkpt lat="45.56251" lon="4.87017">
        <ele>190.39999389648</ele>
        <time>2024-05-21T06:34:59.000Z</time>
      </trkpt>
      <trkpt lat="45.56246" lon="4.87013">
        <ele>190.60000610352</ele>
        <time>2024-05-21T06:35:00.000Z</time>
      </trkpt>
      <trkpt lat="45.56242" lon="4.87011">
        <ele>190.60000610352</ele>
        <time>2024-05-21T06:35:01.000Z</time>
      </trkpt>
      <trkpt lat="45.56237" lon="4.87007">
        <ele>190.80000305176</ele>
        <time>2024-05-21T06:35:02.000Z</time>
      </trkpt>
      <trkpt lat="45.56233" lon="4.87004">
        <ele>191.19999694824</ele>
        <time>2024-05-21T06:35:03.000Z</time>
      </trkpt>
      <trkpt lat="45.56227" lon="4.86999">
        <ele>191.39999389648</ele>
        <time>2024-05-21T06:35:04.000Z</time>
      </trkpt>
      <trkpt lat="45.56223" lon="4.86996">
        <ele>191.60000610352</ele>
        <time>2024-05-21T06:35:05.000Z</time>
      </trkpt>
      <trkpt lat="45.56218" lon="4.86992">
        <ele>191.60000610352</ele>
        <time>2024-05-21T06:35:06.000Z</time>
      </trkpt>
      <trkpt lat="45.56212" lon="4.86986">
        <ele>191.60000610352</ele>
        <time>2024-05-21T06:35:07.000Z</time>
      </trkpt>
      <trkpt lat="45.56207" lon="4.86981">
        <ele>191.60000610352</ele>
        <time>2024-05-21T06:35:08.000Z</time>
      </trkpt>
      <trkpt lat="45.56202" lon="4.86977">
        <ele>191.60000610352</ele>
        <time>2024-05-21T06:35:09.000Z</time>
      </trkpt>
      <trkpt lat="45.56196" lon="4.86972">
        <ele>191.39999389648</ele>
        <time>2024-05-21T06:35:10.000Z</time>
      </trkpt>
      <trkpt lat="45.5619" lon="4.86967">
        <ele>191.19999694824</ele>
        <time>2024-05-21T06:35:11.000Z</time>
      </trkpt>
      <trkpt lat="45.56184" lon="4.86964">
        <ele>190.80000305176</ele>
        <time>2024-05-21T06:35:12.000Z</time>
      </trkpt>
      <trkpt lat="45.56177" lon="4.8696">
        <ele>190.39999389648</ele>
        <time>2024-05-21T06:35:13.000Z</time>
      </trkpt>
      <trkpt lat="45.5617" lon="4.86958">
        <ele>190.19999694824</ele>
        <time>2024-05-21T06:35:14.000Z</time>
      </trkpt>
      <trkpt lat="45.56163" lon="4.86956">
        <ele>189.80000305176</ele>
        <time>2024-05-21T06:35:15.000Z</time>
      </trkpt>
      <trkpt lat="45.56155" lon="4.86955">
        <ele>189.60000610352</ele>
        <time>2024-05-21T06:35:16.000Z</time>
      </trkpt>
      <trkpt lat="45.56148" lon="4.86955">
        <ele>189.39999389648</ele>
        <time>2024-05-21T06:35:17.000Z</time>
      </trkpt>
      <trkpt lat="45.56141" lon="4.86956">
        <ele>189.19999694824</ele>
        <time>2024-05-21T06:35:18.000Z</time>
      </trkpt>
      <trkpt lat="45.56133" lon="4.86957">
        <ele>189</ele>
        <time>2024-05-21T06:35:19.000Z</time>
      </trkpt>
      <trkpt lat="45.56128" lon="4.8696">
        <ele>189</ele>
        <time>2024-05-21T06:35:20.000Z</time>
      </trkpt>
      <trkpt lat="45.56121" lon="4.86963">
        <ele>188.80000305176</ele>
        <time>2024-05-21T06:35:21.000Z</time>
      </trkpt>
      <trkpt lat="45.56113" lon="4.86967">
        <ele>188.80000305176</ele>
        <time>2024-05-21T06:35:22.000Z</time>
      </trkpt>
      <trkpt lat="45.56107" lon="4.8697">
        <ele>188.80000305176</ele>
        <time>2024-05-21T06:35:23.000Z</time>
      </trkpt>
      <trkpt lat="45.56101" lon="4.86973">
        <ele>188.80000305176</ele>
        <time>2024-05-21T06:35:24.000Z</time>
      </trkpt>
      <trkpt lat="45.56095" lon="4.86976">
        <ele>189</ele>
        <time>2024-05-21T06:35:25.000Z</time>
      </trkpt>
      <trkpt lat="45.56089" lon="4.8698">
        <ele>189</ele>
        <time>2024-05-21T06:35:26.000Z</time>
      </trkpt>
      <trkpt lat="45.56083" lon="4.86983">
        <ele>189</ele>
        <time>2024-05-21T06:35:27.000Z</time>
      </trkpt>
      <trkpt lat="45.56077" lon="4.86986">
        <ele>189</ele>
        <time>2024-05-21T06:35:28.000Z</time>
      </trkpt>
      <trkpt lat="45.56071" lon="4.8699">
        <ele>189.19999694824</ele>
        <time>2024-05-21T06:35:29.000Z</time>
      </trkpt>
      <trkpt lat="45.56067" lon="4.86993">
        <ele>189.19999694824</ele>
        <time>2024-05-21T06:35:30.000Z</time>
      </trkpt>
      <trkpt lat="45.56062" lon="4.86996">
        <ele>189.39999389648</ele>
        <time>2024-05-21T06:35:31.000Z</time>
      </trkpt>
      <trkpt lat="45.56057" lon="4.86999">
        <ele>189.80000305176</ele>
        <time>2024-05-21T06:35:32.000Z</time>
      </trkpt>
      <trkpt lat="45.56053" lon="4.87002">
        <ele>190</ele>
        <time>2024-05-21T06:35:33.000Z</time>
      </trkpt>
      <trkpt lat="45.56049" lon="4.87004">
        <ele>190.39999389648</ele>
        <time>2024-05-21T06:35:34.000Z</time>
      </trkpt>
      <trkpt lat="45.56045" lon="4.87006">
        <ele>190.80000305176</ele>
        <time>2024-05-21T06:35:35.000Z</time>
      </trkpt>
      <trkpt lat="45.56041" lon="4.87008">
        <ele>191.19999694824</ele>
        <time>2024-05-21T06:35:36.000Z</time>
      </trkpt>
      <trkpt lat="45.56037" lon="4.8701">
        <ele>191.60000610352</ele>
        <time>2024-05-21T06:35:37.000Z</time>
      </trkpt>
      <trkpt lat="45.56033" lon="4.87011">
        <ele>192</ele>
        <time>2024-05-21T06:35:38.000Z</time>
      </trkpt>
      <trkpt lat="45.56029" lon="4.87013">
        <ele>192.19999694824</ele>
        <time>2024-05-21T06:35:39.000Z</time>
      </trkpt>
      <trkpt lat="45.56024" lon="4.87014">
        <ele>192.60000610352</ele>
        <time>2024-05-21T06:35:40.000Z</time>
      </trkpt>
      <trkpt lat="45.5602" lon="4.87016">
        <ele>192.80000305176</ele>
        <time>2024-05-21T06:35:41.000Z</time>
      </trkpt>
      <trkpt lat="45.56016" lon="4.87017">
        <ele>193</ele>
        <time>2024-05-21T06:35:42.000Z</time>
      </trkpt>
      <trkpt lat="45.56012" lon="4.87018">
        <ele>193</ele>
        <time>2024-05-21T06:35:43.000Z</time>
      </trkpt>
      <trkpt lat="45.56008" lon="4.87019">
        <ele>193</ele>
        <time>2024-05-21T06:35:44.000Z</time>
      </trkpt>
      <trkpt lat="45.56004" lon="4.8702">
        <ele>193.19999694824</ele>
        <time>2024-05-21T06:35:45.000Z</time>
      </trkpt>
      <trkpt lat="45.56" lon="4.8702">
        <ele>193.19999694824</ele>
        <time>2024-05-21T06:35:46.000Z</time>
      </trkpt>
      <trkpt lat="45.55995" lon="4.87021">
        <ele>193.39999389648</ele>
        <time>2024-05-21T06:35:47.000Z</time>
      </trkpt>
      <trkpt lat="45.5599" lon="4.87021">
        <ele>193.39999389648</ele>
        <time>2024-05-21T06:35:48.000Z</time>
      </trkpt>
      <trkpt lat="45.55986" lon="4.87021">
        <ele>193.39999389648</ele>
        <time>2024-05-21T06:35:49.000Z</time>
      </trkpt>
      <trkpt lat="45.55981" lon="4.8702">
        <ele>193.39999389648</ele>
        <time>2024-05-21T06:35:50.000Z</time>
      </trkpt>
      <trkpt lat="45.55977" lon="4.8702">
        <ele>193.60000610352</ele>
        <time>2024-05-21T06:35:51.000Z</time>
      </trkpt>
      <trkpt lat="45.55972" lon="4.87019">
        <ele>193.60000610352</ele>
        <time>2024-05-21T06:35:52.000Z</time>
      </trkpt>
      <trkpt lat="45.55968" lon="4.87018">
        <ele>193.80000305176</ele>
        <time>2024-05-21T06:35:53.000Z</time>
      </trkpt>
      <trkpt lat="45.55963" lon="4.87017">
        <ele>193.80000305176</ele>
        <time>2024-05-21T06:35:54.000Z</time>
      </trkpt>
      <trkpt lat="45.55959" lon="4.87015">
        <ele>194</ele>
        <time>2024-05-21T06:35:55.000Z</time>
      </trkpt>
      <trkpt lat="45.55954" lon="4.87013">
        <ele>194</ele>
        <time>2024-05-21T06:35:56.000Z</time>
      </trkpt>
      <trkpt lat="45.5595" lon="4.87011">
        <ele>194.19999694824</ele>
        <time>2024-05-21T06:35:57.000Z</time>
      </trkpt>
      <trkpt lat="45.55946" lon="4.87008">
        <ele>194.39999389648</ele>
        <time>2024-05-21T06:35:58.000Z</time>
      </trkpt>
      <trkpt lat="45.55941" lon="4.87005">
        <ele>194.39999389648</ele>
        <time>2024-05-21T06:35:59.000Z</time>
      </trkpt>
      <trkpt lat="45.55937" lon="4.87002">
        <ele>194.39999389648</ele>
        <time>2024-05-21T06:36:00.000Z</time>
      </trkpt>
      <trkpt lat="45.55933" lon="4.86999">
        <ele>194.39999389648</ele>
        <time>2024-05-21T06:36:01.000Z</time>
      </trkpt>
      <trkpt lat="45.55929" lon="4.86995">
        <ele>194.39999389648</ele>
        <time>2024-05-21T06:36:02.000Z</time>
      </trkpt>
      <trkpt lat="45.55926" lon="4.86991">
        <ele>194.60000610352</ele>
        <time>2024-05-21T06:36:03.000Z</time>
      </trkpt>
      <trkpt lat="45.55922" lon="4.86986">
        <ele>194.60000610352</ele>
        <time>2024-05-21T06:36:04.000Z</time>
      </trkpt>
      <trkpt lat="45.55918" lon="4.86982">
        <ele>194.60000610352</ele>
        <time>2024-05-21T06:36:05.000Z</time>
      </trkpt>
      <trkpt lat="45.55914" lon="4.86978">
        <ele>194.60000610352</ele>
        <time>2024-05-21T06:36:06.000Z</time>
      </trkpt>
      <trkpt lat="45.5591" lon="4.86974">
        <ele>194.80000305176</ele>
        <time>2024-05-21T06:36:07.000Z</time>
      </trkpt>
      <trkpt lat="45.55906" lon="4.86969">
        <ele>194.80000305176</ele>
        <time>2024-05-21T06:36:08.000Z</time>
      </trkpt>
      <trkpt lat="45.55903" lon="4.86965">
        <ele>195</ele>
        <time>2024-05-21T06:36:09.000Z</time>
      </trkpt>
      <trkpt lat="45.55899" lon="4.86961">
        <ele>195</ele>
        <time>2024-05-21T06:36:10.000Z</time>
      </trkpt>
      <trkpt lat="45.55895" lon="4.86957">
        <ele>195</ele>
        <time>2024-05-21T06:36:11.000Z</time>
      </trkpt>
      <trkpt lat="45.55891" lon="4.86953">
        <ele>195.19999694824</ele>
        <time>2024-05-21T06:36:12.000Z</time>
      </trkpt>
      <trkpt lat="45.55887" lon="4.86949">
        <ele>195.19999694824</ele>
        <time>2024-05-21T06:36:13.000Z</time>
      </trkpt>
      <trkpt lat="45.55883" lon="4.86945">
        <ele>195.19999694824</ele>
        <time>2024-05-21T06:36:14.000Z</time>
      </trkpt>
      <trkpt lat="45.55879" lon="4.8694">
        <ele>195.39999389648</ele>
        <time>2024-05-21T06:36:15.000Z</time>
      </trkpt>
      <trkpt lat="45.55875" lon="4.86936">
        <ele>195.39999389648</ele>
        <time>2024-05-21T06:36:16.000Z</time>
      </trkpt>
      <trkpt lat="45.5587" lon="4.86933">
        <ele>195.39999389648</ele>
        <time>2024-05-21T06:36:17.000Z</time>
      </trkpt>
      <trkpt lat="45.55866" lon="4.86929">
        <ele>195.39999389648</ele>
        <time>2024-05-21T06:36:18.000Z</time>
      </trkpt>
      <trkpt lat="45.55862" lon="4.86925">
        <ele>195.39999389648</ele>
        <time>2024-05-21T06:36:19.000Z</time>
      </trkpt>
      <trkpt lat="45.55858" lon="4.86921">
        <ele>195.60000610352</ele>
        <time>2024-05-21T06:36:20.000Z</time>
      </trkpt>
      <trkpt lat="45.55853" lon="4.86917">
        <ele>195.60000610352</ele>
        <time>2024-05-21T06:36:21.000Z</time>
      </trkpt>
      <trkpt lat="45.55849" lon="4.86913">
        <ele>195.60000610352</ele>
        <time>2024-05-21T06:36:22.000Z</time>
      </trkpt>
      <trkpt lat="45.55844" lon="4.86909">
        <ele>195.60000610352</ele>
        <time>2024-05-21T06:36:23.000Z</time>
      </trkpt>
      <trkpt lat="45.55839" lon="4.86906">
        <ele>195.60000610352</ele>
        <time>2024-05-21T06:36:24.000Z</time>
      </trkpt>
      <trkpt lat="45.55834" lon="4.86902">
        <ele>195.60000610352</ele>
        <time>2024-05-21T06:36:25.000Z</time>
      </trkpt>
      <trkpt lat="45.55829" lon="4.86899">
        <ele>195.60000610352</ele>
        <time>2024-05-21T06:36:26.000Z</time>
      </trkpt>
      <trkpt lat="45.55824" lon="4.86897">
        <ele>195.39999389648</ele>
        <time>2024-05-21T06:36:27.000Z</time>
      </trkpt>
      <trkpt lat="45.55818" lon="4.86896">
        <ele>195.39999389648</ele>
        <time>2024-05-21T06:36:28.000Z</time>
      </trkpt>
      <trkpt lat="45.55812" lon="4.86896">
        <ele>195.19999694824</ele>
        <time>2024-05-21T06:36:29.000Z</time>
      </trkpt>
      <trkpt lat="45.55805" lon="4.86898">
        <ele>195</ele>
        <time>2024-05-21T06:36:30.000Z</time>
      </trkpt>
      <trkpt lat="45.558" lon="4.86903">
        <ele>194.80000305176</ele>
        <time>2024-05-21T06:36:31.000Z</time>
      </trkpt>
      <trkpt lat="45.55794" lon="4.86909">
        <ele>194.60000610352</ele>
        <time>2024-05-21T06:36:32.000Z</time>
      </trkpt>
      <trkpt lat="45.55789" lon="4.86916">
        <ele>194.39999389648</ele>
        <time>2024-05-21T06:36:33.000Z</time>
      </trkpt>
      <trkpt lat="45.55784" lon="4.86923">
        <ele>194</ele>
        <time>2024-05-21T06:36:34.000Z</time>
      </trkpt>
      <trkpt lat="45.55779" lon="4.86929">
        <ele>193.60000610352</ele>
        <time>2024-05-21T06:36:35.000Z</time>
      </trkpt>
      <trkpt lat="45.55773" lon="4.86939">
        <ele>193</ele>
        <time>2024-05-21T06:36:36.000Z</time>
      </trkpt>
      <trkpt lat="45.55768" lon="4.86948">
        <ele>192.80000305176</ele>
        <time>2024-05-21T06:36:37.000Z</time>
      </trkpt>
      <trkpt lat="45.55761" lon="4.86957">
        <ele>192.39999389648</ele>
        <time>2024-05-21T06:36:38.000Z</time>
      </trkpt>
      <trkpt lat="45.55757" lon="4.86963">
        <ele>192</ele>
        <time>2024-05-21T06:36:39.000Z</time>
      </trkpt>
      <trkpt lat="45.5575" lon="4.86973">
        <ele>191.80000305176</ele>
        <time>2024-05-21T06:36:40.000Z</time>
      </trkpt>
      <trkpt lat="45.55746" lon="4.86979">
        <ele>191.60000610352</ele>
        <time>2024-05-21T06:36:41.000Z</time>
      </trkpt>
      <trkpt lat="45.5574" lon="4.86985">
        <ele>191.19999694824</ele>
        <time>2024-05-21T06:36:42.000Z</time>
      </trkpt>
      <trkpt lat="45.55733" lon="4.8699">
        <ele>191.19999694824</ele>
        <time>2024-05-21T06:36:43.000Z</time>
      </trkpt>
      <trkpt lat="45.55727" lon="4.86996">
        <ele>191</ele>
        <time>2024-05-21T06:36:44.000Z</time>
      </trkpt>
      <trkpt lat="45.55719" lon="4.87002">
        <ele>191</ele>
        <time>2024-05-21T06:36:45.000Z</time>
      </trkpt>
      <trkpt lat="45.55714" lon="4.87005">
        <ele>190.80000305176</ele>
        <time>2024-05-21T06:36:46.000Z</time>
      </trkpt>
      <trkpt lat="45.55706" lon="4.8701">
        <ele>190.60000610352</ele>
        <time>2024-05-21T06:36:47.000Z</time>
      </trkpt>
      <trkpt lat="45.557" lon="4.87013">
        <ele>190.39999389648</ele>
        <time>2024-05-21T06:36:48.000Z</time>
      </trkpt>
      <trkpt lat="45.55693" lon="4.87017">
        <ele>190.39999389648</ele>
        <time>2024-05-21T06:36:49.000Z</time>
      </trkpt>
      <trkpt lat="45.55686" lon="4.8702">
        <ele>190.39999389648</ele>
        <time>2024-05-21T06:36:50.000Z</time>
      </trkpt>
      <trkpt lat="45.55677" lon="4.87024">
        <ele>190.19999694824</ele>
        <time>2024-05-21T06:36:51.000Z</time>
      </trkpt>
      <trkpt lat="45.55671" lon="4.87026">
        <ele>190</ele>
        <time>2024-05-21T06:36:52.000Z</time>
      </trkpt>
      <trkpt lat="45.55665" lon="4.87029">
        <ele>190</ele>
        <time>2024-05-21T06:36:53.000Z</time>
      </trkpt>
      <trkpt lat="45.55658" lon="4.87032">
        <ele>189.80000305176</ele>
        <time>2024-05-21T06:36:54.000Z</time>
      </trkpt>
      <trkpt lat="45.5565" lon="4.87036">
        <ele>189.80000305176</ele>
        <time>2024-05-21T06:36:55.000Z</time>
      </trkpt>
      <trkpt lat="45.55645" lon="4.87039">
        <ele>189.60000610352</ele>
        <time>2024-05-21T06:36:56.000Z</time>
      </trkpt>
      <trkpt lat="45.55637" lon="4.87043">
        <ele>189.60000610352</ele>
        <time>2024-05-21T06:36:57.000Z</time>
      </trkpt>
      <trkpt lat="45.55631" lon="4.87045">
        <ele>189.60000610352</ele>
        <time>2024-05-21T06:36:58.000Z</time>
      </trkpt>
      <trkpt lat="45.55624" lon="4.87048">
        <ele>189.60000610352</ele>
        <time>2024-05-21T06:36:59.000Z</time>
      </trkpt>
      <trkpt lat="45.55616" lon="4.87052">
        <ele>189.39999389648</ele>
        <time>2024-05-21T06:37:00.000Z</time>
      </trkpt>
      <trkpt lat="45.55609" lon="4.87056">
        <ele>189</ele>
        <time>2024-05-21T06:37:01.000Z</time>
      </trkpt>
      <trkpt lat="45.55603" lon="4.87058">
        <ele>189</ele>
        <time>2024-05-21T06:37:02.000Z</time>
      </trkpt>
      <trkpt lat="45.55595" lon="4.87062">
        <ele>189</ele>
        <time>2024-05-21T06:37:03.000Z</time>
      </trkpt>
      <trkpt lat="45.55589" lon="4.87064">
        <ele>189</ele>
        <time>2024-05-21T06:37:04.000Z</time>
      </trkpt>
      <trkpt lat="45.55581" lon="4.87067">
        <ele>189</ele>
        <time>2024-05-21T06:37:05.000Z</time>
      </trkpt>
      <trkpt lat="45.55574" lon="4.87069">
        <ele>188.80000305176</ele>
        <time>2024-05-21T06:37:06.000Z</time>
      </trkpt>
      <trkpt lat="45.55567" lon="4.87072">
        <ele>188.80000305176</ele>
        <time>2024-05-21T06:37:07.000Z</time>
      </trkpt>
      <trkpt lat="45.5556" lon="4.87074">
        <ele>188.60000610352</ele>
        <time>2024-05-21T06:37:08.000Z</time>
      </trkpt>
      <trkpt lat="45.55554" lon="4.87077">
        <ele>188.60000610352</ele>
        <time>2024-05-21T06:37:09.000Z</time>
      </trkpt>
      <trkpt lat="45.55546" lon="4.87081">
        <ele>188.60000610352</ele>
        <time>2024-05-21T06:37:10.000Z</time>
      </trkpt>
      <trkpt lat="45.55541" lon="4.87083">
        <ele>188.39999389648</ele>
        <time>2024-05-21T06:37:11.000Z</time>
      </trkpt>
      <trkpt lat="45.55533" lon="4.87089">
        <ele>188.39999389648</ele>
        <time>2024-05-21T06:37:12.000Z</time>
      </trkpt>
      <trkpt lat="45.55528" lon="4.87095">
        <ele>188.39999389648</ele>
        <time>2024-05-21T06:37:13.000Z</time>
      </trkpt>
      <trkpt lat="45.55524" lon="4.87101">
        <ele>188.39999389648</ele>
        <time>2024-05-21T06:37:14.000Z</time>
      </trkpt>
      <trkpt lat="45.55519" lon="4.87109">
        <ele>188.39999389648</ele>
        <time>2024-05-21T06:37:15.000Z</time>
      </trkpt>
      <trkpt lat="45.55515" lon="4.87119">
        <ele>188.19999694824</ele>
        <time>2024-05-21T06:37:16.000Z</time>
      </trkpt>
      <trkpt lat="45.55512" lon="4.87126">
        <ele>188.19999694824</ele>
        <time>2024-05-21T06:37:17.000Z</time>
      </trkpt>
      <trkpt lat="45.55509" lon="4.87135">
        <ele>188</ele>
        <time>2024-05-21T06:37:18.000Z</time>
      </trkpt>
      <trkpt lat="45.55506" lon="4.87143">
        <ele>188</ele>
        <time>2024-05-21T06:37:19.000Z</time>
      </trkpt>
      <trkpt lat="45.55503" lon="4.87152">
        <ele>188</ele>
        <time>2024-05-21T06:37:20.000Z</time>
      </trkpt>
      <trkpt lat="45.55499" lon="4.87161">
        <ele>188</ele>
        <time>2024-05-21T06:37:21.000Z</time>
      </trkpt>
      <trkpt lat="45.55496" lon="4.87169">
        <ele>188</ele>
        <time>2024-05-21T06:37:22.000Z</time>
      </trkpt>
      <trkpt lat="45.55493" lon="4.87178">
        <ele>188</ele>
        <time>2024-05-21T06:37:23.000Z</time>
      </trkpt>
      <trkpt lat="45.5549" lon="4.87188">
        <ele>187.80000305176</ele>
        <time>2024-05-21T06:37:24.000Z</time>
      </trkpt>
      <trkpt lat="45.55487" lon="4.87195">
        <ele>188</ele>
        <time>2024-05-21T06:37:25.000Z</time>
      </trkpt>
      <trkpt lat="45.55484" lon="4.87204">
        <ele>188</ele>
        <time>2024-05-21T06:37:26.000Z</time>
      </trkpt>
      <trkpt lat="45.55481" lon="4.87211">
        <ele>188</ele>
        <time>2024-05-21T06:37:27.000Z</time>
      </trkpt>
      <trkpt lat="45.55478" lon="4.87219">
        <ele>188</ele>
        <time>2024-05-21T06:37:28.000Z</time>
      </trkpt>
      <trkpt lat="45.55475" lon="4.87227">
        <ele>188</ele>
        <time>2024-05-21T06:37:29.000Z</time>
      </trkpt>
      <trkpt lat="45.55473" lon="4.87234">
        <ele>188.19999694824</ele>
        <time>2024-05-21T06:37:30.000Z</time>
      </trkpt>
      <trkpt lat="45.5547" lon="4.87242">
        <ele>188.19999694824</ele>
        <time>2024-05-21T06:37:31.000Z</time>
      </trkpt>
      <trkpt lat="45.55467" lon="4.87251">
        <ele>188.19999694824</ele>
        <time>2024-05-21T06:37:32.000Z</time>
      </trkpt>
      <trkpt lat="45.55464" lon="4.87258">
        <ele>188.19999694824</ele>
        <time>2024-05-21T06:37:33.000Z</time>
      </trkpt>
      <trkpt lat="45.55461" lon="4.87264">
        <ele>188.19999694824</ele>
        <time>2024-05-21T06:37:34.000Z</time>
      </trkpt>
      <trkpt lat="45.55457" lon="4.87271">
        <ele>188.19999694824</ele>
        <time>2024-05-21T06:37:35.000Z</time>
      </trkpt>
      <trkpt lat="45.55452" lon="4.87279">
        <ele>188.19999694824</ele>
        <time>2024-05-21T06:37:36.000Z</time>
      </trkpt>
      <trkpt lat="45.55449" lon="4.87285">
        <ele>188.19999694824</ele>
        <time>2024-05-21T06:37:37.000Z</time>
      </trkpt>
      <trkpt lat="45.55442" lon="4.87292">
        <ele>188.19999694824</ele>
        <time>2024-05-21T06:37:38.000Z</time>
      </trkpt>
      <trkpt lat="45.55437" lon="4.87298">
        <ele>188.19999694824</ele>
        <time>2024-05-21T06:37:39.000Z</time>
      </trkpt>
      <trkpt lat="45.55433" lon="4.87303">
        <ele>188.19999694824</ele>
        <time>2024-05-21T06:37:40.000Z</time>
      </trkpt>
      <trkpt lat="45.55427" lon="4.87309">
        <ele>188</ele>
        <time>2024-05-21T06:37:41.000Z</time>
      </trkpt>
      <trkpt lat="45.55421" lon="4.87314">
        <ele>188</ele>
        <time>2024-05-21T06:37:42.000Z</time>
      </trkpt>
      <trkpt lat="45.55416" lon="4.87319">
        <ele>188</ele>
        <time>2024-05-21T06:37:43.000Z</time>
      </trkpt>
      <trkpt lat="45.5541" lon="4.87325">
        <ele>187.80000305176</ele>
        <time>2024-05-21T06:37:44.000Z</time>
      </trkpt>
      <trkpt lat="45.55404" lon="4.8733">
        <ele>187.80000305176</ele>
        <time>2024-05-21T06:37:45.000Z</time>
      </trkpt>
      <trkpt lat="45.554" lon="4.87335">
        <ele>187.60000610352</ele>
        <time>2024-05-21T06:37:46.000Z</time>
      </trkpt>
      <trkpt lat="45.55393" lon="4.87343">
        <ele>187.39999389648</ele>
        <time>2024-05-21T06:37:47.000Z</time>
      </trkpt>
      <trkpt lat="45.55388" lon="4.87348">
        <ele>187.19999694824</ele>
        <time>2024-05-21T06:37:48.000Z</time>
      </trkpt>
      <trkpt lat="45.55382" lon="4.87354">
        <ele>187.19999694824</ele>
        <time>2024-05-21T06:37:49.000Z</time>
      </trkpt>
      <trkpt lat="45.55376" lon="4.8736">
        <ele>187</ele>
        <time>2024-05-21T06:37:50.000Z</time>
      </trkpt>
      <trkpt lat="45.5537" lon="4.87365">
        <ele>186.80000305176</ele>
        <time>2024-05-21T06:37:51.000Z</time>
      </trkpt>
      <trkpt lat="45.55364" lon="4.87371">
        <ele>186.60000610352</ele>
        <time>2024-05-21T06:37:52.000Z</time>
      </trkpt>
      <trkpt lat="45.55357" lon="4.87378">
        <ele>186.60000610352</ele>
        <time>2024-05-21T06:37:53.000Z</time>
      </trkpt>
      <trkpt lat="45.55353" lon="4.87383">
        <ele>186.60000610352</ele>
        <time>2024-05-21T06:37:54.000Z</time>
      </trkpt>
      <trkpt lat="45.55347" lon="4.87388">
        <ele>186.60000610352</ele>
        <time>2024-05-21T06:37:55.000Z</time>
      </trkpt>
      <trkpt lat="45.5534" lon="4.87395">
        <ele>186.60000610352</ele>
        <time>2024-05-21T06:37:56.000Z</time>
      </trkpt>
      <trkpt lat="45.55334" lon="4.874">
        <ele>186.60000610352</ele>
        <time>2024-05-21T06:37:57.000Z</time>
      </trkpt>
      <trkpt lat="45.55328" lon="4.87406">
        <ele>186.60000610352</ele>
        <time>2024-05-21T06:37:58.000Z</time>
      </trkpt>
      <trkpt lat="45.55323" lon="4.87412">
        <ele>186.60000610352</ele>
        <time>2024-05-21T06:37:59.000Z</time>
      </trkpt>
      <trkpt lat="45.55318" lon="4.87417">
        <ele>186.39999389648</ele>
        <time>2024-05-21T06:38:00.000Z</time>
      </trkpt>
      <trkpt lat="45.55313" lon="4.87423">
        <ele>186.19999694824</ele>
        <time>2024-05-21T06:38:01.000Z</time>
      </trkpt>
      <trkpt lat="45.55308" lon="4.8743">
        <ele>186</ele>
        <time>2024-05-21T06:38:02.000Z</time>
      </trkpt>
      <trkpt lat="45.55303" lon="4.87436">
        <ele>185.80000305176</ele>
        <time>2024-05-21T06:38:03.000Z</time>
      </trkpt>
      <trkpt lat="45.55298" lon="4.87444">
        <ele>185.80000305176</ele>
        <time>2024-05-21T06:38:04.000Z</time>
      </trkpt>
      <trkpt lat="45.55293" lon="4.87451">
        <ele>185.60000610352</ele>
        <time>2024-05-21T06:38:05.000Z</time>
      </trkpt>
      <trkpt lat="45.55288" lon="4.87459">
        <ele>185.39999389648</ele>
        <time>2024-05-21T06:38:06.000Z</time>
      </trkpt>
      <trkpt lat="45.55283" lon="4.87466">
        <ele>185.19999694824</ele>
        <time>2024-05-21T06:38:07.000Z</time>
      </trkpt>
      <trkpt lat="45.55278" lon="4.87473">
        <ele>185.19999694824</ele>
        <time>2024-05-21T06:38:08.000Z</time>
      </trkpt>
      <trkpt lat="45.55273" lon="4.87481">
        <ele>184.60000610352</ele>
        <time>2024-05-21T06:38:09.000Z</time>
      </trkpt>
      <trkpt lat="45.55268" lon="4.87489">
        <ele>184.39999389648</ele>
        <time>2024-05-21T06:38:10.000Z</time>
      </trkpt>
      <trkpt lat="45.55263" lon="4.87497">
        <ele>184.19999694824</ele>
        <time>2024-05-21T06:38:11.000Z</time>
      </trkpt>
      <trkpt lat="45.55258" lon="4.87505">
        <ele>184</ele>
        <time>2024-05-21T06:38:12.000Z</time>
      </trkpt>
      <trkpt lat="45.55253" lon="4.87513">
        <ele>183.80000305176</ele>
        <time>2024-05-21T06:38:13.000Z</time>
      </trkpt>
      <trkpt lat="45.55248" lon="4.87521">
        <ele>183.80000305176</ele>
        <time>2024-05-21T06:38:14.000Z</time>
      </trkpt>
      <trkpt lat="45.55243" lon="4.87529">
        <ele>183.60000610352</ele>
        <time>2024-05-21T06:38:15.000Z</time>
      </trkpt>
      <trkpt lat="45.55238" lon="4.87537">
        <ele>183.39999389648</ele>
        <time>2024-05-21T06:38:16.000Z</time>
      </trkpt>
      <trkpt lat="45.55234" lon="4.87545">
        <ele>183.39999389648</ele>
        <time>2024-05-21T06:38:17.000Z</time>
      </trkpt>
      <trkpt lat="45.55229" lon="4.87552">
        <ele>183.39999389648</ele>
        <time>2024-05-21T06:38:18.000Z</time>
      </trkpt>
      <trkpt lat="45.55224" lon="4.87558">
        <ele>183.39999389648</ele>
        <time>2024-05-21T06:38:19.000Z</time>
      </trkpt>
      <trkpt lat="45.55218" lon="4.87564">
        <ele>183.39999389648</ele>
        <time>2024-05-21T06:38:20.000Z</time>
      </trkpt>
      <trkpt lat="45.55213" lon="4.8757">
        <ele>183.39999389648</ele>
        <time>2024-05-21T06:38:21.000Z</time>
      </trkpt>
      <trkpt lat="45.55208" lon="4.87577">
        <ele>183.39999389648</ele>
        <time>2024-05-21T06:38:22.000Z</time>
      </trkpt>
      <trkpt lat="45.55203" lon="4.87583">
        <ele>183.39999389648</ele>
        <time>2024-05-21T06:38:23.000Z</time>
      </trkpt>
      <trkpt lat="45.55198" lon="4.87589">
        <ele>183.19999694824</ele>
        <time>2024-05-21T06:38:24.000Z</time>
      </trkpt>
      <trkpt lat="45.55192" lon="4.87596">
        <ele>183.19999694824</ele>
        <time>2024-05-21T06:38:25.000Z</time>
      </trkpt>
      <trkpt lat="45.55187" lon="4.87601">
        <ele>183.19999694824</ele>
        <time>2024-05-21T06:38:26.000Z</time>
      </trkpt>
      <trkpt lat="45.55181" lon="4.87606">
        <ele>183.19999694824</ele>
        <time>2024-05-21T06:38:27.000Z</time>
      </trkpt>
      <trkpt lat="45.55175" lon="4.87611">
        <ele>183.19999694824</ele>
        <time>2024-05-21T06:38:28.000Z</time>
      </trkpt>
      <trkpt lat="45.5517" lon="4.87616">
        <ele>183.19999694824</ele>
        <time>2024-05-21T06:38:29.000Z</time>
      </trkpt>
      <trkpt lat="45.55164" lon="4.87621">
        <ele>183.19999694824</ele>
        <time>2024-05-21T06:38:30.000Z</time>
      </trkpt>
      <trkpt lat="45.55158" lon="4.87626">
        <ele>183.19999694824</ele>
        <time>2024-05-21T06:38:31.000Z</time>
      </trkpt>
      <trkpt lat="45.55152" lon="4.8763">
        <ele>183.19999694824</ele>
        <time>2024-05-21T06:38:32.000Z</time>
      </trkpt>
      <trkpt lat="45.55146" lon="4.87635">
        <ele>183.19999694824</ele>
        <time>2024-05-21T06:38:33.000Z</time>
      </trkpt>
      <trkpt lat="45.5514" lon="4.87639">
        <ele>183</ele>
        <time>2024-05-21T06:38:34.000Z</time>
      </trkpt>
      <trkpt lat="45.55134" lon="4.87643">
        <ele>183</ele>
        <time>2024-05-21T06:38:35.000Z</time>
      </trkpt>
      <trkpt lat="45.55128" lon="4.87648">
        <ele>183</ele>
        <time>2024-05-21T06:38:36.000Z</time>
      </trkpt>
      <trkpt lat="45.55122" lon="4.87652">
        <ele>183</ele>
        <time>2024-05-21T06:38:37.000Z</time>
      </trkpt>
      <trkpt lat="45.55116" lon="4.87656">
        <ele>183</ele>
        <time>2024-05-21T06:38:38.000Z</time>
      </trkpt>
      <trkpt lat="45.5511" lon="4.8766">
        <ele>182.80000305176</ele>
        <time>2024-05-21T06:38:39.000Z</time>
      </trkpt>
      <trkpt lat="45.55102" lon="4.87664">
        <ele>182.80000305176</ele>
        <time>2024-05-21T06:38:40.000Z</time>
      </trkpt>
      <trkpt lat="45.55098" lon="4.87667">
        <ele>182.60000610352</ele>
        <time>2024-05-21T06:38:41.000Z</time>
      </trkpt>
      <trkpt lat="45.55092" lon="4.8767">
        <ele>182.60000610352</ele>
        <time>2024-05-21T06:38:42.000Z</time>
      </trkpt>
      <trkpt lat="45.55085" lon="4.87673">
        <ele>182.60000610352</ele>
        <time>2024-05-21T06:38:43.000Z</time>
      </trkpt>
      <trkpt lat="45.55079" lon="4.87676">
        <ele>182.60000610352</ele>
        <time>2024-05-21T06:38:44.000Z</time>
      </trkpt>
      <trkpt lat="45.55073" lon="4.87678">
        <ele>182.60000610352</ele>
        <time>2024-05-21T06:38:45.000Z</time>
      </trkpt>
      <trkpt lat="45.55066" lon="4.87681">
        <ele>182.60000610352</ele>
        <time>2024-05-21T06:38:46.000Z</time>
      </trkpt>
      <trkpt lat="45.5506" lon="4.87683">
        <ele>182.60000610352</ele>
        <time>2024-05-21T06:38:47.000Z</time>
      </trkpt>
      <trkpt lat="45.55054" lon="4.87685">
        <ele>182.60000610352</ele>
        <time>2024-05-21T06:38:48.000Z</time>
      </trkpt>
      <trkpt lat="45.55047" lon="4.87686">
        <ele>182.60000610352</ele>
        <time>2024-05-21T06:38:49.000Z</time>
      </trkpt>
      <trkpt lat="45.55041" lon="4.87688">
        <ele>182.39999389648</ele>
        <time>2024-05-21T06:38:50.000Z</time>
      </trkpt>
      <trkpt lat="45.55034" lon="4.87689">
        <ele>182.39999389648</ele>
        <time>2024-05-21T06:38:51.000Z</time>
      </trkpt>
      <trkpt lat="45.55028" lon="4.8769">
        <ele>182.39999389648</ele>
        <time>2024-05-21T06:38:52.000Z</time>
      </trkpt>
      <trkpt lat="45.55022" lon="4.87691">
        <ele>182.39999389648</ele>
        <time>2024-05-21T06:38:53.000Z</time>
      </trkpt>
      <trkpt lat="45.55015" lon="4.87692">
        <ele>182.39999389648</ele>
        <time>2024-05-21T06:38:54.000Z</time>
      </trkpt>
      <trkpt lat="45.55009" lon="4.87692">
        <ele>182.19999694824</ele>
        <time>2024-05-21T06:38:55.000Z</time>
      </trkpt>
      <trkpt lat="45.55002" lon="4.87693">
        <ele>182</ele>
        <time>2024-05-21T06:38:56.000Z</time>
      </trkpt>
      <trkpt lat="45.54995" lon="4.87693">
        <ele>181.80000305176</ele>
        <time>2024-05-21T06:38:57.000Z</time>
      </trkpt>
      <trkpt lat="45.54988" lon="4.87693">
        <ele>181.80000305176</ele>
        <time>2024-05-21T06:38:58.000Z</time>
      </trkpt>
      <trkpt lat="45.54981" lon="4.87693">
        <ele>181.60000610352</ele>
        <time>2024-05-21T06:38:59.000Z</time>
      </trkpt>
      <trkpt lat="45.54974" lon="4.87693">
        <ele>181.39999389648</ele>
        <time>2024-05-21T06:39:00.000Z</time>
      </trkpt>
      <trkpt lat="45.54967" lon="4.87694">
        <ele>181.19999694824</ele>
        <time>2024-05-21T06:39:01.000Z</time>
      </trkpt>
      <trkpt lat="45.5496" lon="4.87694">
        <ele>181</ele>
        <time>2024-05-21T06:39:02.000Z</time>
      </trkpt>
      <trkpt lat="45.54953" lon="4.87695">
        <ele>180.80000305176</ele>
        <time>2024-05-21T06:39:03.000Z</time>
      </trkpt>
      <trkpt lat="45.54946" lon="4.87695">
        <ele>180.60000610352</ele>
        <time>2024-05-21T06:39:04.000Z</time>
      </trkpt>
      <trkpt lat="45.54939" lon="4.87696">
        <ele>180.39999389648</ele>
        <time>2024-05-21T06:39:05.000Z</time>
      </trkpt>
      <trkpt lat="45.54932" lon="4.87697">
        <ele>179.80000305176</ele>
        <time>2024-05-21T06:39:06.000Z</time>
      </trkpt>
      <trkpt lat="45.54925" lon="4.87697">
        <ele>179.60000610352</ele>
        <time>2024-05-21T06:39:07.000Z</time>
      </trkpt>
      <trkpt lat="45.54918" lon="4.87698">
        <ele>179.39999389648</ele>
        <time>2024-05-21T06:39:08.000Z</time>
      </trkpt>
      <trkpt lat="45.54912" lon="4.87699">
        <ele>179.19999694824</ele>
        <time>2024-05-21T06:39:09.000Z</time>
      </trkpt>
      <trkpt lat="45.54906" lon="4.877">
        <ele>179</ele>
        <time>2024-05-21T06:39:10.000Z</time>
      </trkpt>
      <trkpt lat="45.54901" lon="4.877">
        <ele>178.80000305176</ele>
        <time>2024-05-21T06:39:11.000Z</time>
      </trkpt>
      <trkpt lat="45.54897" lon="4.877">
        <ele>178.80000305176</ele>
        <time>2024-05-21T06:39:12.000Z</time>
      </trkpt>
      <trkpt lat="45.54894" lon="4.87701">
        <ele>178.80000305176</ele>
        <time>2024-05-21T06:39:13.000Z</time>
      </trkpt>
      <trkpt lat="45.5489" lon="4.87701">
        <ele>178.80000305176</ele>
        <time>2024-05-21T06:39:14.000Z</time>
      </trkpt>
      <trkpt lat="45.54887" lon="4.87701">
        <ele>178.80000305176</ele>
        <time>2024-05-21T06:39:15.000Z</time>
      </trkpt>
      <trkpt lat="45.54884" lon="4.87701">
        <ele>178.80000305176</ele>
        <time>2024-05-21T06:39:16.000Z</time>
      </trkpt>
      <trkpt lat="45.54881" lon="4.87701">
        <ele>178.80000305176</ele>
        <time>2024-05-21T06:39:17.000Z</time>
      </trkpt>
      <trkpt lat="45.54878" lon="4.87701">
        <ele>178.80000305176</ele>
        <time>2024-05-21T06:39:18.000Z</time>
      </trkpt>
      <trkpt lat="45.54874" lon="4.877">
        <ele>178.60000610352</ele>
        <time>2024-05-21T06:39:19.000Z</time>
      </trkpt>
      <trkpt lat="45.54869" lon="4.877">
        <ele>178.60000610352</ele>
        <time>2024-05-21T06:39:20.000Z</time>
      </trkpt>
      <trkpt lat="45.54865" lon="4.877">
        <ele>178.39999389648</ele>
        <time>2024-05-21T06:39:21.000Z</time>
      </trkpt>
      <trkpt lat="45.5486" lon="4.87701">
        <ele>178.39999389648</ele>
        <time>2024-05-21T06:39:22.000Z</time>
      </trkpt>
      <trkpt lat="45.54854" lon="4.87701">
        <ele>178.19999694824</ele>
        <time>2024-05-21T06:39:23.000Z</time>
      </trkpt>
      <trkpt lat="45.54849" lon="4.87701">
        <ele>178</ele>
        <time>2024-05-21T06:39:24.000Z</time>
      </trkpt>
      <trkpt lat="45.54843" lon="4.87702">
        <ele>177.60000610352</ele>
        <time>2024-05-21T06:39:25.000Z</time>
      </trkpt>
      <trkpt lat="45.54837" lon="4.87703">
        <ele>177.60000610352</ele>
        <time>2024-05-21T06:39:26.000Z</time>
      </trkpt>
      <trkpt lat="45.5483" lon="4.87705">
        <ele>177.39999389648</ele>
        <time>2024-05-21T06:39:27.000Z</time>
      </trkpt>
      <trkpt lat="45.54824" lon="4.87707">
        <ele>177</ele>
        <time>2024-05-21T06:39:28.000Z</time>
      </trkpt>
      <trkpt lat="45.54818" lon="4.8771">
        <ele>177</ele>
        <time>2024-05-21T06:39:29.000Z</time>
      </trkpt>
      <trkpt lat="45.54812" lon="4.87714">
        <ele>177</ele>
        <time>2024-05-21T06:39:30.000Z</time>
      </trkpt>
      <trkpt lat="45.54806" lon="4.87718">
        <ele>176.80000305176</ele>
        <time>2024-05-21T06:39:31.000Z</time>
      </trkpt>
      <trkpt lat="45.54801" lon="4.87723">
        <ele>176.60000610352</ele>
        <time>2024-05-21T06:39:32.000Z</time>
      </trkpt>
      <trkpt lat="45.54795" lon="4.87727">
        <ele>176.60000610352</ele>
        <time>2024-05-21T06:39:33.000Z</time>
      </trkpt>
      <trkpt lat="45.54789" lon="4.87732">
        <ele>176.60000610352</ele>
        <time>2024-05-21T06:39:34.000Z</time>
      </trkpt>
      <trkpt lat="45.54784" lon="4.87738">
        <ele>176.60000610352</ele>
        <time>2024-05-21T06:39:35.000Z</time>
      </trkpt>
      <trkpt lat="45.54778" lon="4.87743">
        <ele>176.60000610352</ele>
        <time>2024-05-21T06:39:36.000Z</time>
      </trkpt>
      <trkpt lat="45.54772" lon="4.87749">
        <ele>176.39999389648</ele>
        <time>2024-05-21T06:39:37.000Z</time>
      </trkpt>
      <trkpt lat="45.54766" lon="4.87755">
        <ele>176.19999694824</ele>
        <time>2024-05-21T06:39:38.000Z</time>
      </trkpt>
      <trkpt lat="45.5476" lon="4.8776">
        <ele>176</ele>
        <time>2024-05-21T06:39:39.000Z</time>
      </trkpt>
      <trkpt lat="45.54753" lon="4.87766">
        <ele>175.80000305176</ele>
        <time>2024-05-21T06:39:40.000Z</time>
      </trkpt>
      <trkpt lat="45.54747" lon="4.87772">
        <ele>175.60000610352</ele>
        <time>2024-05-21T06:39:41.000Z</time>
      </trkpt>
      <trkpt lat="45.54741" lon="4.87777">
        <ele>175.39999389648</ele>
        <time>2024-05-21T06:39:42.000Z</time>
      </trkpt>
      <trkpt lat="45.54734" lon="4.87783">
        <ele>175</ele>
        <time>2024-05-21T06:39:43.000Z</time>
      </trkpt>
      <trkpt lat="45.54728" lon="4.87788">
        <ele>174.80000305176</ele>
        <time>2024-05-21T06:39:44.000Z</time>
      </trkpt>
      <trkpt lat="45.54722" lon="4.87794">
        <ele>174.60000610352</ele>
        <time>2024-05-21T06:39:45.000Z</time>
      </trkpt>
      <trkpt lat="45.54716" lon="4.87799">
        <ele>174.60000610352</ele>
        <time>2024-05-21T06:39:46.000Z</time>
      </trkpt>
      <trkpt lat="45.54709" lon="4.87804">
        <ele>174.39999389648</ele>
        <time>2024-05-21T06:39:47.000Z</time>
      </trkpt>
      <trkpt lat="45.54703" lon="4.87809">
        <ele>174.39999389648</ele>
        <time>2024-05-21T06:39:48.000Z</time>
      </trkpt>
      <trkpt lat="45.54697" lon="4.87814">
        <ele>174.39999389648</ele>
        <time>2024-05-21T06:39:49.000Z</time>
      </trkpt>
      <trkpt lat="45.54689" lon="4.8782">
        <ele>174.39999389648</ele>
        <time>2024-05-21T06:39:50.000Z</time>
      </trkpt>
      <trkpt lat="45.54684" lon="4.87824">
        <ele>174.39999389648</ele>
        <time>2024-05-21T06:39:51.000Z</time>
      </trkpt>
      <trkpt lat="45.54678" lon="4.8783">
        <ele>174.19999694824</ele>
        <time>2024-05-21T06:39:52.000Z</time>
      </trkpt>
      <trkpt lat="45.54672" lon="4.87835">
        <ele>174</ele>
        <time>2024-05-21T06:39:53.000Z</time>
      </trkpt>
      <trkpt lat="45.54667" lon="4.8784">
        <ele>173.80000305176</ele>
        <time>2024-05-21T06:39:54.000Z</time>
      </trkpt>
      <trkpt lat="45.54661" lon="4.87846">
        <ele>173.80000305176</ele>
        <time>2024-05-21T06:39:55.000Z</time>
      </trkpt>
      <trkpt lat="45.54654" lon="4.87852">
        <ele>173.80000305176</ele>
        <time>2024-05-21T06:39:56.000Z</time>
      </trkpt>
      <trkpt lat="45.54649" lon="4.87857">
        <ele>173.60000610352</ele>
        <time>2024-05-21T06:39:57.000Z</time>
      </trkpt>
      <trkpt lat="45.54643" lon="4.87862">
        <ele>173.60000610352</ele>
        <time>2024-05-21T06:39:58.000Z</time>
      </trkpt>
      <trkpt lat="45.54637" lon="4.87868">
        <ele>173.60000610352</ele>
        <time>2024-05-21T06:39:59.000Z</time>
      </trkpt>
      <trkpt lat="45.54631" lon="4.87873">
        <ele>173.60000610352</ele>
        <time>2024-05-21T06:40:00.000Z</time>
      </trkpt>
      <trkpt lat="45.54625" lon="4.87879">
        <ele>173.39999389648</ele>
        <time>2024-05-21T06:40:01.000Z</time>
      </trkpt>
      <trkpt lat="45.5462" lon="4.87884">
        <ele>173.39999389648</ele>
        <time>2024-05-21T06:40:02.000Z</time>
      </trkpt>
      <trkpt lat="45.54613" lon="4.8789">
        <ele>173.39999389648</ele>
        <time>2024-05-21T06:40:03.000Z</time>
      </trkpt>
      <trkpt lat="45.54607" lon="4.87896">
        <ele>173.39999389648</ele>
        <time>2024-05-21T06:40:04.000Z</time>
      </trkpt>
      <trkpt lat="45.54601" lon="4.87901">
        <ele>173.39999389648</ele>
        <time>2024-05-21T06:40:05.000Z</time>
      </trkpt>
      <trkpt lat="45.54595" lon="4.87907">
        <ele>173.19999694824</ele>
        <time>2024-05-21T06:40:06.000Z</time>
      </trkpt>
      <trkpt lat="45.54589" lon="4.87912">
        <ele>173.19999694824</ele>
        <time>2024-05-21T06:40:07.000Z</time>
      </trkpt>
      <trkpt lat="45.54583" lon="4.87918">
        <ele>173.19999694824</ele>
        <time>2024-05-21T06:40:08.000Z</time>
      </trkpt>
      <trkpt lat="45.54577" lon="4.87924">
        <ele>173.19999694824</ele>
        <time>2024-05-21T06:40:09.000Z</time>
      </trkpt>
      <trkpt lat="45.54571" lon="4.87929">
        <ele>173</ele>
        <time>2024-05-21T06:40:10.000Z</time>
      </trkpt>
      <trkpt lat="45.54564" lon="4.87935">
        <ele>173</ele>
        <time>2024-05-21T06:40:11.000Z</time>
      </trkpt>
      <trkpt lat="45.54558" lon="4.8794">
        <ele>173</ele>
        <time>2024-05-21T06:40:12.000Z</time>
      </trkpt>
      <trkpt lat="45.54552" lon="4.87946">
        <ele>173</ele>
        <time>2024-05-21T06:40:13.000Z</time>
      </trkpt>
      <trkpt lat="45.54546" lon="4.87951">
        <ele>173</ele>
        <time>2024-05-21T06:40:14.000Z</time>
      </trkpt>
      <trkpt lat="45.5454" lon="4.87956">
        <ele>173</ele>
        <time>2024-05-21T06:40:15.000Z</time>
      </trkpt>
      <trkpt lat="45.54534" lon="4.87961">
        <ele>173</ele>
        <time>2024-05-21T06:40:16.000Z</time>
      </trkpt>
      <trkpt lat="45.54528" lon="4.87965">
        <ele>172.80000305176</ele>
        <time>2024-05-21T06:40:17.000Z</time>
      </trkpt>
      <trkpt lat="45.54523" lon="4.8797">
        <ele>173</ele>
        <time>2024-05-21T06:40:18.000Z</time>
      </trkpt>
      <trkpt lat="45.54517" lon="4.87974">
        <ele>173</ele>
        <time>2024-05-21T06:40:19.000Z</time>
      </trkpt>
      <trkpt lat="45.5451" lon="4.87979">
        <ele>173</ele>
        <time>2024-05-21T06:40:20.000Z</time>
      </trkpt>
      <trkpt lat="45.54504" lon="4.87983">
        <ele>173</ele>
        <time>2024-05-21T06:40:21.000Z</time>
      </trkpt>
      <trkpt lat="45.54498" lon="4.87988">
        <ele>173</ele>
        <time>2024-05-21T06:40:22.000Z</time>
      </trkpt>
      <trkpt lat="45.54491" lon="4.87992">
        <ele>173</ele>
        <time>2024-05-21T06:40:23.000Z</time>
      </trkpt>
      <trkpt lat="45.54485" lon="4.87996">
        <ele>173</ele>
        <time>2024-05-21T06:40:24.000Z</time>
      </trkpt>
      <trkpt lat="45.54479" lon="4.88">
        <ele>173</ele>
        <time>2024-05-21T06:40:25.000Z</time>
      </trkpt>
      <trkpt lat="45.54472" lon="4.88003">
        <ele>172.80000305176</ele>
        <time>2024-05-21T06:40:26.000Z</time>
      </trkpt>
      <trkpt lat="45.54466" lon="4.88005">
        <ele>172.80000305176</ele>
        <time>2024-05-21T06:40:27.000Z</time>
      </trkpt>
      <trkpt lat="45.54459" lon="4.88008">
        <ele>172.80000305176</ele>
        <time>2024-05-21T06:40:28.000Z</time>
      </trkpt>
      <trkpt lat="45.54452" lon="4.88009">
        <ele>172.80000305176</ele>
        <time>2024-05-21T06:40:29.000Z</time>
      </trkpt>
      <trkpt lat="45.54445" lon="4.88011">
        <ele>172.60000610352</ele>
        <time>2024-05-21T06:40:30.000Z</time>
      </trkpt>
      <trkpt lat="45.54437" lon="4.88011">
        <ele>172.39999389648</ele>
        <time>2024-05-21T06:40:31.000Z</time>
      </trkpt>
      <trkpt lat="45.5443" lon="4.88012">
        <ele>172.39999389648</ele>
        <time>2024-05-21T06:40:32.000Z</time>
      </trkpt>
      <trkpt lat="45.54423" lon="4.88013">
        <ele>172.39999389648</ele>
        <time>2024-05-21T06:40:33.000Z</time>
      </trkpt>
      <trkpt lat="45.54415" lon="4.88013">
        <ele>172.39999389648</ele>
        <time>2024-05-21T06:40:34.000Z</time>
      </trkpt>
      <trkpt lat="45.54408" lon="4.88014">
        <ele>172.19999694824</ele>
        <time>2024-05-21T06:40:35.000Z</time>
      </trkpt>
      <trkpt lat="45.54401" lon="4.88014">
        <ele>172.19999694824</ele>
        <time>2024-05-21T06:40:36.000Z</time>
      </trkpt>
      <trkpt lat="45.54393" lon="4.88015">
        <ele>172</ele>
        <time>2024-05-21T06:40:37.000Z</time>
      </trkpt>
      <trkpt lat="45.54386" lon="4.88015">
        <ele>172</ele>
        <time>2024-05-21T06:40:38.000Z</time>
      </trkpt>
      <trkpt lat="45.54378" lon="4.88016">
        <ele>171.60000610352</ele>
        <time>2024-05-21T06:40:39.000Z</time>
      </trkpt>
      <trkpt lat="45.54371" lon="4.88016">
        <ele>171.60000610352</ele>
        <time>2024-05-21T06:40:40.000Z</time>
      </trkpt>
      <trkpt lat="45.54364" lon="4.88016">
        <ele>171.39999389648</ele>
        <time>2024-05-21T06:40:41.000Z</time>
      </trkpt>
      <trkpt lat="45.54356" lon="4.88017">
        <ele>171.19999694824</ele>
        <time>2024-05-21T06:40:42.000Z</time>
      </trkpt>
      <trkpt lat="45.54349" lon="4.88017">
        <ele>171.19999694824</ele>
        <time>2024-05-21T06:40:43.000Z</time>
      </trkpt>
      <trkpt lat="45.54341" lon="4.88016">
        <ele>171.19999694824</ele>
        <time>2024-05-21T06:40:44.000Z</time>
      </trkpt>
      <trkpt lat="45.54334" lon="4.88016">
        <ele>171</ele>
        <time>2024-05-21T06:40:45.000Z</time>
      </trkpt>
      <trkpt lat="45.54326" lon="4.88014">
        <ele>170.80000305176</ele>
        <time>2024-05-21T06:40:46.000Z</time>
      </trkpt>
      <trkpt lat="45.54318" lon="4.88013">
        <ele>170.60000610352</ele>
        <time>2024-05-21T06:40:47.000Z</time>
      </trkpt>
      <trkpt lat="45.5431" lon="4.88011">
        <ele>170.39999389648</ele>
        <time>2024-05-21T06:40:48.000Z</time>
      </trkpt>
      <trkpt lat="45.54301" lon="4.88008">
        <ele>170</ele>
        <time>2024-05-21T06:40:49.000Z</time>
      </trkpt>
      <trkpt lat="45.54295" lon="4.88006">
        <ele>169.60000610352</ele>
        <time>2024-05-21T06:40:50.000Z</time>
      </trkpt>
      <trkpt lat="45.54287" lon="4.88004">
        <ele>169.39999389648</ele>
        <time>2024-05-21T06:40:51.000Z</time>
      </trkpt>
      <trkpt lat="45.5428" lon="4.88002">
        <ele>169.19999694824</ele>
        <time>2024-05-21T06:40:52.000Z</time>
      </trkpt>
      <trkpt lat="45.54275" lon="4.88">
        <ele>169</ele>
        <time>2024-05-21T06:40:53.000Z</time>
      </trkpt>
      <trkpt lat="45.54271" lon="4.87999">
        <ele>168.80000305176</ele>
        <time>2024-05-21T06:40:54.000Z</time>
      </trkpt>
      <trkpt lat="45.5427" lon="4.87997">
        <ele>168.80000305176</ele>
        <time>2024-05-21T06:40:55.000Z</time>
      </trkpt>
      <trkpt lat="45.54269" lon="4.87995">
        <ele>168.80000305176</ele>
        <time>2024-05-21T06:40:56.000Z</time>
      </trkpt>
      <trkpt lat="45.5427" lon="4.87993">
        <ele>168.80000305176</ele>
        <time>2024-05-21T06:40:57.000Z</time>
      </trkpt>
      <trkpt lat="45.54271" lon="4.87992">
        <ele>168.80000305176</ele>
        <time>2024-05-21T06:40:58.000Z</time>
      </trkpt>
      <trkpt lat="45.54273" lon="4.87992">
        <ele>168.80000305176</ele>
        <time>2024-05-21T06:40:59.000Z</time>
      </trkpt>
      <trkpt lat="45.54274" lon="4.87992">
        <ele>168.80000305176</ele>
        <time>2024-05-21T06:41:00.000Z</time>
      </trkpt>
      <trkpt lat="45.54275" lon="4.87992">
        <ele>168.60000610352</ele>
        <time>2024-05-21T06:41:01.000Z</time>
      </trkpt>
      <trkpt lat="45.54276" lon="4.87992">
        <ele>168.39999389648</ele>
        <time>2024-05-21T06:41:02.000Z</time>
      </trkpt>
      <trkpt lat="45.54276" lon="4.87992">
        <ele>168.39999389648</ele>
        <time>2024-05-21T06:41:03.000Z</time>
      </trkpt>
      <trkpt lat="45.54269" lon="4.87993">
        <ele>168</ele>
        <time>2024-05-21T06:42:19.000Z</time>
      </trkpt>
      <trkpt lat="45.54267" lon="4.87994">
        <ele>168</ele>
        <time>2024-05-21T06:42:20.000Z</time>
      </trkpt>
      <trkpt lat="45.54265" lon="4.87994">
        <ele>168</ele>
        <time>2024-05-21T06:42:21.000Z</time>
      </trkpt>
      <trkpt lat="45.54264" lon="4.87995">
        <ele>168</ele>
        <time>2024-05-21T06:42:22.000Z</time>
      </trkpt>
      <trkpt lat="45.54261" lon="4.87995">
        <ele>168</ele>
        <time>2024-05-21T06:42:23.000Z</time>
      </trkpt>
      <trkpt lat="45.54259" lon="4.87995">
        <ele>168.19999694824</ele>
        <time>2024-05-21T06:42:24.000Z</time>
      </trkpt>
      <trkpt lat="45.54256" lon="4.87995">
        <ele>168.19999694824</ele>
        <time>2024-05-21T06:42:25.000Z</time>
      </trkpt>
      <trkpt lat="45.54254" lon="4.87994">
        <ele>168.19999694824</ele>
        <time>2024-05-21T06:42:26.000Z</time>
      </trkpt>
      <trkpt lat="45.54252" lon="4.87993">
        <ele>168.39999389648</ele>
        <time>2024-05-21T06:42:27.000Z</time>
      </trkpt>
      <trkpt lat="45.54249" lon="4.87993">
        <ele>168.39999389648</ele>
        <time>2024-05-21T06:42:28.000Z</time>
      </trkpt>
      <trkpt lat="45.54246" lon="4.87992">
        <ele>168.39999389648</ele>
        <time>2024-05-21T06:42:29.000Z</time>
      </trkpt>
      <trkpt lat="45.54243" lon="4.87992">
        <ele>168.39999389648</ele>
        <time>2024-05-21T06:42:30.000Z</time>
      </trkpt>
      <trkpt lat="45.54239" lon="4.87991">
        <ele>168.39999389648</ele>
        <time>2024-05-21T06:42:31.000Z</time>
      </trkpt>
      <trkpt lat="45.54236" lon="4.8799">
        <ele>168.39999389648</ele>
        <time>2024-05-21T06:42:32.000Z</time>
      </trkpt>
      <trkpt lat="45.54232" lon="4.87989">
        <ele>168.39999389648</ele>
        <time>2024-05-21T06:42:33.000Z</time>
      </trkpt>
      <trkpt lat="45.54228" lon="4.87988">
        <ele>168.39999389648</ele>
        <time>2024-05-21T06:42:34.000Z</time>
      </trkpt>
      <trkpt lat="45.54223" lon="4.87986">
        <ele>168.39999389648</ele>
        <time>2024-05-21T06:42:35.000Z</time>
      </trkpt>
      <trkpt lat="45.54219" lon="4.87985">
        <ele>168.19999694824</ele>
        <time>2024-05-21T06:42:36.000Z</time>
      </trkpt>
      <trkpt lat="45.54214" lon="4.87984">
        <ele>168.19999694824</ele>
        <time>2024-05-21T06:42:37.000Z</time>
      </trkpt>
      <trkpt lat="45.54207" lon="4.87982">
        <ele>168</ele>
        <time>2024-05-21T06:42:38.000Z</time>
      </trkpt>
      <trkpt lat="45.54202" lon="4.8798">
        <ele>167.80000305176</ele>
        <time>2024-05-21T06:42:39.000Z</time>
      </trkpt>
      <trkpt lat="45.54196" lon="4.87978">
        <ele>167.80000305176</ele>
        <time>2024-05-21T06:42:40.000Z</time>
      </trkpt>
      <trkpt lat="45.54191" lon="4.87977">
        <ele>167.60000610352</ele>
        <time>2024-05-21T06:42:41.000Z</time>
      </trkpt>
      <trkpt lat="45.54186" lon="4.87976">
        <ele>167.39999389648</ele>
        <time>2024-05-21T06:42:42.000Z</time>
      </trkpt>
      <trkpt lat="45.54181" lon="4.87974">
        <ele>167.19999694824</ele>
        <time>2024-05-21T06:42:43.000Z</time>
      </trkpt>
      <trkpt lat="45.54174" lon="4.87973">
        <ele>167.19999694824</ele>
        <time>2024-05-21T06:42:44.000Z</time>
      </trkpt>
      <trkpt lat="45.54169" lon="4.87972">
        <ele>167</ele>
        <time>2024-05-21T06:42:45.000Z</time>
      </trkpt>
      <trkpt lat="45.54163" lon="4.8797">
        <ele>167</ele>
        <time>2024-05-21T06:42:46.000Z</time>
      </trkpt>
      <trkpt lat="45.54156" lon="4.8797">
        <ele>166.80000305176</ele>
        <time>2024-05-21T06:42:47.000Z</time>
      </trkpt>
      <trkpt lat="45.54151" lon="4.8797">
        <ele>166.80000305176</ele>
        <time>2024-05-21T06:42:48.000Z</time>
      </trkpt>
      <trkpt lat="45.54144" lon="4.87971">
        <ele>166.80000305176</ele>
        <time>2024-05-21T06:42:49.000Z</time>
      </trkpt>
      <trkpt lat="45.54138" lon="4.87972">
        <ele>166.80000305176</ele>
        <time>2024-05-21T06:42:50.000Z</time>
      </trkpt>
      <trkpt lat="45.54132" lon="4.87974">
        <ele>166.80000305176</ele>
        <time>2024-05-21T06:42:51.000Z</time>
      </trkpt>
      <trkpt lat="45.54125" lon="4.87976">
        <ele>166.80000305176</ele>
        <time>2024-05-21T06:42:52.000Z</time>
      </trkpt>
      <trkpt lat="45.54119" lon="4.87978">
        <ele>166.60000610352</ele>
        <time>2024-05-21T06:42:53.000Z</time>
      </trkpt>
      <trkpt lat="45.54114" lon="4.8798">
        <ele>166.39999389648</ele>
        <time>2024-05-21T06:42:54.000Z</time>
      </trkpt>
      <trkpt lat="45.54108" lon="4.87981">
        <ele>166.39999389648</ele>
        <time>2024-05-21T06:42:55.000Z</time>
      </trkpt>
      <trkpt lat="45.54101" lon="4.87984">
        <ele>166.39999389648</ele>
        <time>2024-05-21T06:42:56.000Z</time>
      </trkpt>
      <trkpt lat="45.54096" lon="4.87985">
        <ele>166.19999694824</ele>
        <time>2024-05-21T06:42:57.000Z</time>
      </trkpt>
      <trkpt lat="45.5409" lon="4.87987">
        <ele>166.19999694824</ele>
        <time>2024-05-21T06:42:58.000Z</time>
      </trkpt>
      <trkpt lat="45.54084" lon="4.87989">
        <ele>166.19999694824</ele>
        <time>2024-05-21T06:42:59.000Z</time>
      </trkpt>
      <trkpt lat="45.54076" lon="4.87991">
        <ele>166.19999694824</ele>
        <time>2024-05-21T06:43:00.000Z</time>
      </trkpt>
      <trkpt lat="45.54071" lon="4.87993">
        <ele>166.19999694824</ele>
        <time>2024-05-21T06:43:01.000Z</time>
      </trkpt>
      <trkpt lat="45.54063" lon="4.87995">
        <ele>166.19999694824</ele>
        <time>2024-05-21T06:43:02.000Z</time>
      </trkpt>
      <trkpt lat="45.54057" lon="4.87997">
        <ele>166.19999694824</ele>
        <time>2024-05-21T06:43:03.000Z</time>
      </trkpt>
      <trkpt lat="45.54051" lon="4.87999">
        <ele>166.19999694824</ele>
        <time>2024-05-21T06:43:04.000Z</time>
      </trkpt>
      <trkpt lat="45.54044" lon="4.88001">
        <ele>166.19999694824</ele>
        <time>2024-05-21T06:43:05.000Z</time>
      </trkpt>
      <trkpt lat="45.54038" lon="4.88003">
        <ele>166.19999694824</ele>
        <time>2024-05-21T06:43:06.000Z</time>
      </trkpt>
      <trkpt lat="45.54032" lon="4.88004">
        <ele>166</ele>
        <time>2024-05-21T06:43:07.000Z</time>
      </trkpt>
      <trkpt lat="45.54025" lon="4.88006">
        <ele>166</ele>
        <time>2024-05-21T06:43:08.000Z</time>
      </trkpt>
      <trkpt lat="45.54017" lon="4.88007">
        <ele>165.80000305176</ele>
        <time>2024-05-21T06:43:09.000Z</time>
      </trkpt>
      <trkpt lat="45.54011" lon="4.88008">
        <ele>165.80000305176</ele>
        <time>2024-05-21T06:43:10.000Z</time>
      </trkpt>
      <trkpt lat="45.54005" lon="4.88007">
        <ele>165.80000305176</ele>
        <time>2024-05-21T06:43:11.000Z</time>
      </trkpt>
      <trkpt lat="45.53998" lon="4.88005">
        <ele>165.60000610352</ele>
        <time>2024-05-21T06:43:12.000Z</time>
      </trkpt>
      <trkpt lat="45.5399" lon="4.88002">
        <ele>165.60000610352</ele>
        <time>2024-05-21T06:43:13.000Z</time>
      </trkpt>
      <trkpt lat="45.53984" lon="4.87999">
        <ele>165.60000610352</ele>
        <time>2024-05-21T06:43:14.000Z</time>
      </trkpt>
      <trkpt lat="45.53978" lon="4.87996">
        <ele>165.60000610352</ele>
        <time>2024-05-21T06:43:15.000Z</time>
      </trkpt>
      <trkpt lat="45.53972" lon="4.87993">
        <ele>165.60000610352</ele>
        <time>2024-05-21T06:43:16.000Z</time>
      </trkpt>
      <trkpt lat="45.53965" lon="4.87989">
        <ele>165.60000610352</ele>
        <time>2024-05-21T06:43:17.000Z</time>
      </trkpt>
      <trkpt lat="45.5396" lon="4.87986">
        <ele>165.60000610352</ele>
        <time>2024-05-21T06:43:18.000Z</time>
      </trkpt>
      <trkpt lat="45.53954" lon="4.87981">
        <ele>165.60000610352</ele>
        <time>2024-05-21T06:43:19.000Z</time>
      </trkpt>
      <trkpt lat="45.5395" lon="4.87977">
        <ele>165.60000610352</ele>
        <time>2024-05-21T06:43:20.000Z</time>
      </trkpt>
      <trkpt lat="45.53943" lon="4.87972">
        <ele>165.80000305176</ele>
        <time>2024-05-21T06:43:21.000Z</time>
      </trkpt>
      <trkpt lat="45.53938" lon="4.87967">
        <ele>165.80000305176</ele>
        <time>2024-05-21T06:43:22.000Z</time>
      </trkpt>
      <trkpt lat="45.53933" lon="4.87961">
        <ele>165.80000305176</ele>
        <time>2024-05-21T06:43:23.000Z</time>
      </trkpt>
      <trkpt lat="45.53928" lon="4.87955">
        <ele>165.80000305176</ele>
        <time>2024-05-21T06:43:24.000Z</time>
      </trkpt>
      <trkpt lat="45.53923" lon="4.87949">
        <ele>165.60000610352</ele>
        <time>2024-05-21T06:43:25.000Z</time>
      </trkpt>
      <trkpt lat="45.5392" lon="4.87943">
        <ele>165.60000610352</ele>
        <time>2024-05-21T06:43:26.000Z</time>
      </trkpt>
      <trkpt lat="45.53917" lon="4.87937">
        <ele>165.60000610352</ele>
        <time>2024-05-21T06:43:27.000Z</time>
      </trkpt>
      <trkpt lat="45.53915" lon="4.87932">
        <ele>165.60000610352</ele>
        <time>2024-05-21T06:43:28.000Z</time>
      </trkpt>
      <trkpt lat="45.53913" lon="4.87926">
        <ele>165.60000610352</ele>
        <time>2024-05-21T06:43:29.000Z</time>
      </trkpt>
      <trkpt lat="45.53911" lon="4.8792">
        <ele>165.60000610352</ele>
        <time>2024-05-21T06:43:30.000Z</time>
      </trkpt>
      <trkpt lat="45.53908" lon="4.87915">
        <ele>165.60000610352</ele>
        <time>2024-05-21T06:43:31.000Z</time>
      </trkpt>
      <trkpt lat="45.53906" lon="4.87909">
        <ele>165.60000610352</ele>
        <time>2024-05-21T06:43:32.000Z</time>
      </trkpt>
      <trkpt lat="45.53904" lon="4.87904">
        <ele>165.80000305176</ele>
        <time>2024-05-21T06:43:33.000Z</time>
      </trkpt>
      <trkpt lat="45.53901" lon="4.87899">
        <ele>165.80000305176</ele>
        <time>2024-05-21T06:43:34.000Z</time>
      </trkpt>
      <trkpt lat="45.53898" lon="4.87893">
        <ele>165.80000305176</ele>
        <time>2024-05-21T06:43:35.000Z</time>
      </trkpt>
      <trkpt lat="45.53896" lon="4.87889">
        <ele>165.80000305176</ele>
        <time>2024-05-21T06:43:36.000Z</time>
      </trkpt>
      <trkpt lat="45.53894" lon="4.87884">
        <ele>165.80000305176</ele>
        <time>2024-05-21T06:43:37.000Z</time>
      </trkpt>
      <trkpt lat="45.53892" lon="4.87879">
        <ele>165.80000305176</ele>
        <time>2024-05-21T06:43:38.000Z</time>
      </trkpt>
      <trkpt lat="45.5389" lon="4.87874">
        <ele>166</ele>
        <time>2024-05-21T06:43:39.000Z</time>
      </trkpt>
      <trkpt lat="45.53888" lon="4.87869">
        <ele>166</ele>
        <time>2024-05-21T06:43:40.000Z</time>
      </trkpt>
      <trkpt lat="45.53886" lon="4.87863">
        <ele>166</ele>
        <time>2024-05-21T06:43:41.000Z</time>
      </trkpt>
      <trkpt lat="45.53884" lon="4.87857">
        <ele>166</ele>
        <time>2024-05-21T06:43:42.000Z</time>
      </trkpt>
      <trkpt lat="45.53882" lon="4.87851">
        <ele>166</ele>
        <time>2024-05-21T06:43:43.000Z</time>
      </trkpt>
      <trkpt lat="45.5388" lon="4.87844">
        <ele>166</ele>
        <time>2024-05-21T06:43:44.000Z</time>
      </trkpt>
      <trkpt lat="45.53878" lon="4.87837">
        <ele>166</ele>
        <time>2024-05-21T06:43:45.000Z</time>
      </trkpt>
      <trkpt lat="45.53877" lon="4.87831">
        <ele>166</ele>
        <time>2024-05-21T06:43:46.000Z</time>
      </trkpt>
      <trkpt lat="45.53875" lon="4.87822">
        <ele>166</ele>
        <time>2024-05-21T06:43:47.000Z</time>
      </trkpt>
      <trkpt lat="45.53874" lon="4.87814">
        <ele>166</ele>
        <time>2024-05-21T06:43:48.000Z</time>
      </trkpt>
      <trkpt lat="45.53874" lon="4.87806">
        <ele>166</ele>
        <time>2024-05-21T06:43:49.000Z</time>
      </trkpt>
      <trkpt lat="45.53874" lon="4.878">
        <ele>166</ele>
        <time>2024-05-21T06:43:50.000Z</time>
      </trkpt>
      <trkpt lat="45.53874" lon="4.87792">
        <ele>166.19999694824</ele>
        <time>2024-05-21T06:43:51.000Z</time>
      </trkpt>
      <trkpt lat="45.53874" lon="4.87783">
        <ele>166.19999694824</ele>
        <time>2024-05-21T06:43:52.000Z</time>
      </trkpt>
      <trkpt lat="45.53875" lon="4.87774">
        <ele>166.19999694824</ele>
        <time>2024-05-21T06:43:53.000Z</time>
      </trkpt>
      <trkpt lat="45.53877" lon="4.87765">
        <ele>166</ele>
        <time>2024-05-21T06:43:54.000Z</time>
      </trkpt>
      <trkpt lat="45.53878" lon="4.87756">
        <ele>166</ele>
        <time>2024-05-21T06:43:55.000Z</time>
      </trkpt>
      <trkpt lat="45.5388" lon="4.87745">
        <ele>166</ele>
        <time>2024-05-21T06:43:56.000Z</time>
      </trkpt>
      <trkpt lat="45.53882" lon="4.87735">
        <ele>165.80000305176</ele>
        <time>2024-05-21T06:43:57.000Z</time>
      </trkpt>
      <trkpt lat="45.53883" lon="4.87728">
        <ele>165.80000305176</ele>
        <time>2024-05-21T06:43:58.000Z</time>
      </trkpt>
      <trkpt lat="45.53885" lon="4.87718">
        <ele>165.80000305176</ele>
        <time>2024-05-21T06:43:59.000Z</time>
      </trkpt>
      <trkpt lat="45.53888" lon="4.87707">
        <ele>165.60000610352</ele>
        <time>2024-05-21T06:44:00.000Z</time>
      </trkpt>
      <trkpt lat="45.5389" lon="4.87699">
        <ele>165.60000610352</ele>
        <time>2024-05-21T06:44:01.000Z</time>
      </trkpt>
      <trkpt lat="45.53893" lon="4.8769">
        <ele>165.39999389648</ele>
        <time>2024-05-21T06:44:02.000Z</time>
      </trkpt>
      <trkpt lat="45.53896" lon="4.8768">
        <ele>165.19999694824</ele>
        <time>2024-05-21T06:44:03.000Z</time>
      </trkpt>
      <trkpt lat="45.539" lon="4.87669">
        <ele>165</ele>
        <time>2024-05-21T06:44:04.000Z</time>
      </trkpt>
      <trkpt lat="45.53904" lon="4.8766">
        <ele>165</ele>
        <time>2024-05-21T06:44:05.000Z</time>
      </trkpt>
      <trkpt lat="45.53907" lon="4.87652">
        <ele>164.80000305176</ele>
        <time>2024-05-21T06:44:06.000Z</time>
      </trkpt>
      <trkpt lat="45.53911" lon="4.87641">
        <ele>164.60000610352</ele>
        <time>2024-05-21T06:44:07.000Z</time>
      </trkpt>
      <trkpt lat="45.53914" lon="4.87633">
        <ele>164.60000610352</ele>
        <time>2024-05-21T06:44:08.000Z</time>
      </trkpt>
      <trkpt lat="45.53917" lon="4.87622">
        <ele>164.39999389648</ele>
        <time>2024-05-21T06:44:09.000Z</time>
      </trkpt>
      <trkpt lat="45.53918" lon="4.87615">
        <ele>164.19999694824</ele>
        <time>2024-05-21T06:44:10.000Z</time>
      </trkpt>
      <trkpt lat="45.5392" lon="4.87606">
        <ele>163.80000305176</ele>
        <time>2024-05-21T06:44:11.000Z</time>
      </trkpt>
      <trkpt lat="45.5392" lon="4.87595">
        <ele>163.80000305176</ele>
        <time>2024-05-21T06:44:12.000Z</time>
      </trkpt>
      <trkpt lat="45.53919" lon="4.87586">
        <ele>163.80000305176</ele>
        <time>2024-05-21T06:44:13.000Z</time>
      </trkpt>
      <trkpt lat="45.53918" lon="4.87579">
        <ele>163.80000305176</ele>
        <time>2024-05-21T06:44:14.000Z</time>
      </trkpt>
      <trkpt lat="45.53917" lon="4.87569">
        <ele>163.80000305176</ele>
        <time>2024-05-21T06:44:15.000Z</time>
      </trkpt>
      <trkpt lat="45.53916" lon="4.87562">
        <ele>163.80000305176</ele>
        <time>2024-05-21T06:44:16.000Z</time>
      </trkpt>
      <trkpt lat="45.53913" lon="4.87553">
        <ele>163.60000610352</ele>
        <time>2024-05-21T06:44:17.000Z</time>
      </trkpt>
      <trkpt lat="45.53909" lon="4.87545">
        <ele>163.39999389648</ele>
        <time>2024-05-21T06:44:18.000Z</time>
      </trkpt>
      <trkpt lat="45.53904" lon="4.87538">
        <ele>163.19999694824</ele>
        <time>2024-05-21T06:44:19.000Z</time>
      </trkpt>
      <trkpt lat="45.53897" lon="4.87532">
        <ele>162.60000610352</ele>
        <time>2024-05-21T06:44:20.000Z</time>
      </trkpt>
      <trkpt lat="45.5389" lon="4.87527">
        <ele>162</ele>
        <time>2024-05-21T06:44:21.000Z</time>
      </trkpt>
      <trkpt lat="45.53883" lon="4.87524">
        <ele>161.39999389648</ele>
        <time>2024-05-21T06:44:22.000Z</time>
      </trkpt>
      <trkpt lat="45.53875" lon="4.87522">
        <ele>161</ele>
        <time>2024-05-21T06:44:23.000Z</time>
      </trkpt>
      <trkpt lat="45.53867" lon="4.87521">
        <ele>160.80000305176</ele>
        <time>2024-05-21T06:44:24.000Z</time>
      </trkpt>
      <trkpt lat="45.5386" lon="4.87522">
        <ele>160.60000610352</ele>
        <time>2024-05-21T06:44:25.000Z</time>
      </trkpt>
      <trkpt lat="45.53853" lon="4.87524">
        <ele>160.60000610352</ele>
        <time>2024-05-21T06:44:26.000Z</time>
      </trkpt>
      <trkpt lat="45.53846" lon="4.87528">
        <ele>160.60000610352</ele>
        <time>2024-05-21T06:44:27.000Z</time>
      </trkpt>
      <trkpt lat="45.5384" lon="4.8753">
        <ele>160.60000610352</ele>
        <time>2024-05-21T06:44:28.000Z</time>
      </trkpt>
      <trkpt lat="45.53833" lon="4.87533">
        <ele>160.60000610352</ele>
        <time>2024-05-21T06:44:29.000Z</time>
      </trkpt>
      <trkpt lat="45.53826" lon="4.87537">
        <ele>160.80000305176</ele>
        <time>2024-05-21T06:44:30.000Z</time>
      </trkpt>
      <trkpt lat="45.5382" lon="4.8754">
        <ele>160.80000305176</ele>
        <time>2024-05-21T06:44:31.000Z</time>
      </trkpt>
      <trkpt lat="45.53814" lon="4.87543">
        <ele>161.19999694824</ele>
        <time>2024-05-21T06:44:32.000Z</time>
      </trkpt>
      <trkpt lat="45.53808" lon="4.87546">
        <ele>161.39999389648</ele>
        <time>2024-05-21T06:44:33.000Z</time>
      </trkpt>
      <trkpt lat="45.53802" lon="4.87549">
        <ele>161.39999389648</ele>
        <time>2024-05-21T06:44:34.000Z</time>
      </trkpt>
      <trkpt lat="45.53795" lon="4.87551">
        <ele>161.39999389648</ele>
        <time>2024-05-21T06:44:35.000Z</time>
      </trkpt>
      <trkpt lat="45.53789" lon="4.87552">
        <ele>161.80000305176</ele>
        <time>2024-05-21T06:44:36.000Z</time>
      </trkpt>
      <trkpt lat="45.53783" lon="4.87553">
        <ele>162</ele>
        <time>2024-05-21T06:44:37.000Z</time>
      </trkpt>
      <trkpt lat="45.53777" lon="4.87554">
        <ele>162.19999694824</ele>
        <time>2024-05-21T06:44:38.000Z</time>
      </trkpt>
      <trkpt lat="45.53772" lon="4.87555">
        <ele>162.19999694824</ele>
        <time>2024-05-21T06:44:39.000Z</time>
      </trkpt>
      <trkpt lat="45.53766" lon="4.87557">
        <ele>162.19999694824</ele>
        <time>2024-05-21T06:44:40.000Z</time>
      </trkpt>
      <trkpt lat="45.5376" lon="4.87558">
        <ele>162.19999694824</ele>
        <time>2024-05-21T06:44:41.000Z</time>
      </trkpt>
      <trkpt lat="45.53754" lon="4.87559">
        <ele>162.39999389648</ele>
        <time>2024-05-21T06:44:42.000Z</time>
      </trkpt>
      <trkpt lat="45.53749" lon="4.8756">
        <ele>162.60000610352</ele>
        <time>2024-05-21T06:44:43.000Z</time>
      </trkpt>
      <trkpt lat="45.53743" lon="4.87562">
        <ele>162.60000610352</ele>
        <time>2024-05-21T06:44:44.000Z</time>
      </trkpt>
      <trkpt lat="45.53738" lon="4.87564">
        <ele>162.80000305176</ele>
        <time>2024-05-21T06:44:45.000Z</time>
      </trkpt>
      <trkpt lat="45.53732" lon="4.87566">
        <ele>162.80000305176</ele>
        <time>2024-05-21T06:44:46.000Z</time>
      </trkpt>
      <trkpt lat="45.53726" lon="4.87568">
        <ele>162.80000305176</ele>
        <time>2024-05-21T06:44:47.000Z</time>
      </trkpt>
      <trkpt lat="45.5372" lon="4.8757">
        <ele>162.80000305176</ele>
        <time>2024-05-21T06:44:48.000Z</time>
      </trkpt>
      <trkpt lat="45.53714" lon="4.87572">
        <ele>163</ele>
        <time>2024-05-21T06:44:49.000Z</time>
      </trkpt>
      <trkpt lat="45.53708" lon="4.87575">
        <ele>163</ele>
        <time>2024-05-21T06:44:50.000Z</time>
      </trkpt>
      <trkpt lat="45.53702" lon="4.87576">
        <ele>163</ele>
        <time>2024-05-21T06:44:51.000Z</time>
      </trkpt>
      <trkpt lat="45.53696" lon="4.87577">
        <ele>163</ele>
        <time>2024-05-21T06:44:52.000Z</time>
      </trkpt>
      <trkpt lat="45.53689" lon="4.87577">
        <ele>163</ele>
        <time>2024-05-21T06:44:53.000Z</time>
      </trkpt>
      <trkpt lat="45.53682" lon="4.87576">
        <ele>163</ele>
        <time>2024-05-21T06:44:54.000Z</time>
      </trkpt>
      <trkpt lat="45.53676" lon="4.87574">
        <ele>162.80000305176</ele>
        <time>2024-05-21T06:44:55.000Z</time>
      </trkpt>
      <trkpt lat="45.53669" lon="4.87571">
        <ele>162.60000610352</ele>
        <time>2024-05-21T06:44:56.000Z</time>
      </trkpt>
      <trkpt lat="45.53663" lon="4.87567">
        <ele>162.60000610352</ele>
        <time>2024-05-21T06:44:57.000Z</time>
      </trkpt>
      <trkpt lat="45.53657" lon="4.87563">
        <ele>162.60000610352</ele>
        <time>2024-05-21T06:44:58.000Z</time>
      </trkpt>
      <trkpt lat="45.53651" lon="4.87558">
        <ele>162.60000610352</ele>
        <time>2024-05-21T06:44:59.000Z</time>
      </trkpt>
      <trkpt lat="45.53646" lon="4.87553">
        <ele>162.19999694824</ele>
        <time>2024-05-21T06:45:00.000Z</time>
      </trkpt>
      <trkpt lat="45.5364" lon="4.87547">
        <ele>161.80000305176</ele>
        <time>2024-05-21T06:45:01.000Z</time>
      </trkpt>
      <trkpt lat="45.53635" lon="4.87541">
        <ele>161.80000305176</ele>
        <time>2024-05-21T06:45:02.000Z</time>
      </trkpt>
      <trkpt lat="45.5363" lon="4.87534">
        <ele>161.60000610352</ele>
        <time>2024-05-21T06:45:03.000Z</time>
      </trkpt>
      <trkpt lat="45.53626" lon="4.87528">
        <ele>161.39999389648</ele>
        <time>2024-05-21T06:45:04.000Z</time>
      </trkpt>
      <trkpt lat="45.53623" lon="4.87521">
        <ele>161</ele>
        <time>2024-05-21T06:45:05.000Z</time>
      </trkpt>
      <trkpt lat="45.5362" lon="4.87513">
        <ele>160.60000610352</ele>
        <time>2024-05-21T06:45:06.000Z</time>
      </trkpt>
      <trkpt lat="45.53617" lon="4.87505">
        <ele>160.39999389648</ele>
        <time>2024-05-21T06:45:07.000Z</time>
      </trkpt>
      <trkpt lat="45.53615" lon="4.87497">
        <ele>160</ele>
        <time>2024-05-21T06:45:08.000Z</time>
      </trkpt>
      <trkpt lat="45.53613" lon="4.87489">
        <ele>159.60000610352</ele>
        <time>2024-05-21T06:45:09.000Z</time>
      </trkpt>
      <trkpt lat="45.53611" lon="4.87481">
        <ele>159</ele>
        <time>2024-05-21T06:45:10.000Z</time>
      </trkpt>
      <trkpt lat="45.53609" lon="4.87473">
        <ele>158.60000610352</ele>
        <time>2024-05-21T06:45:11.000Z</time>
      </trkpt>
      <trkpt lat="45.53608" lon="4.87465">
        <ele>158.39999389648</ele>
        <time>2024-05-21T06:45:12.000Z</time>
      </trkpt>
      <trkpt lat="45.53608" lon="4.87457">
        <ele>158</ele>
        <time>2024-05-21T06:45:13.000Z</time>
      </trkpt>
      <trkpt lat="45.53609" lon="4.87449">
        <ele>157.80000305176</ele>
        <time>2024-05-21T06:45:14.000Z</time>
      </trkpt>
      <trkpt lat="45.5361" lon="4.87442">
        <ele>157.80000305176</ele>
        <time>2024-05-21T06:45:15.000Z</time>
      </trkpt>
      <trkpt lat="45.53612" lon="4.87435">
        <ele>157.80000305176</ele>
        <time>2024-05-21T06:45:16.000Z</time>
      </trkpt>
      <trkpt lat="45.53613" lon="4.87428">
        <ele>157.80000305176</ele>
        <time>2024-05-21T06:45:17.000Z</time>
      </trkpt>
      <trkpt lat="45.53612" lon="4.87421">
        <ele>157.80000305176</ele>
        <time>2024-05-21T06:45:18.000Z</time>
      </trkpt>
      <trkpt lat="45.5361" lon="4.87415">
        <ele>157.80000305176</ele>
        <time>2024-05-21T06:45:19.000Z</time>
      </trkpt>
      <trkpt lat="45.53606" lon="4.8741">
        <ele>157.80000305176</ele>
        <time>2024-05-21T06:45:20.000Z</time>
      </trkpt>
      <trkpt lat="45.53601" lon="4.87407">
        <ele>157.80000305176</ele>
        <time>2024-05-21T06:45:21.000Z</time>
      </trkpt>
      <trkpt lat="45.53596" lon="4.87406">
        <ele>157.80000305176</ele>
        <time>2024-05-21T06:45:22.000Z</time>
      </trkpt>
      <trkpt lat="45.53589" lon="4.87406">
        <ele>157.60000610352</ele>
        <time>2024-05-21T06:45:23.000Z</time>
      </trkpt>
      <trkpt lat="45.53584" lon="4.87408">
        <ele>157.60000610352</ele>
        <time>2024-05-21T06:45:24.000Z</time>
      </trkpt>
      <trkpt lat="45.5358" lon="4.87412">
        <ele>157.60000610352</ele>
        <time>2024-05-21T06:45:25.000Z</time>
      </trkpt>
      <trkpt lat="45.53577" lon="4.87417">
        <ele>157.39999389648</ele>
        <time>2024-05-21T06:45:26.000Z</time>
      </trkpt>
      <trkpt lat="45.53575" lon="4.87423">
        <ele>157.39999389648</ele>
        <time>2024-05-21T06:45:27.000Z</time>
      </trkpt>
      <trkpt lat="45.53574" lon="4.8743">
        <ele>157.19999694824</ele>
        <time>2024-05-21T06:45:28.000Z</time>
      </trkpt>
      <trkpt lat="45.53573" lon="4.87436">
        <ele>157.19999694824</ele>
        <time>2024-05-21T06:45:29.000Z</time>
      </trkpt>
      <trkpt lat="45.53571" lon="4.87443">
        <ele>157.19999694824</ele>
        <time>2024-05-21T06:45:30.000Z</time>
      </trkpt>
      <trkpt lat="45.53568" lon="4.87448">
        <ele>157.19999694824</ele>
        <time>2024-05-21T06:45:31.000Z</time>
      </trkpt>
      <trkpt lat="45.53565" lon="4.87452">
        <ele>157.19999694824</ele>
        <time>2024-05-21T06:45:32.000Z</time>
      </trkpt>
      <trkpt lat="45.53562" lon="4.87455">
        <ele>157.19999694824</ele>
        <time>2024-05-21T06:45:33.000Z</time>
      </trkpt>
      <trkpt lat="45.53558" lon="4.87457">
        <ele>157.39999389648</ele>
        <time>2024-05-21T06:45:34.000Z</time>
      </trkpt>
      <trkpt lat="45.53555" lon="4.8746">
        <ele>157.60000610352</ele>
        <time>2024-05-21T06:45:35.000Z</time>
      </trkpt>
      <trkpt lat="45.53551" lon="4.87462">
        <ele>157.60000610352</ele>
        <time>2024-05-21T06:45:36.000Z</time>
      </trkpt>
      <trkpt lat="45.53548" lon="4.87464">
        <ele>157.60000610352</ele>
        <time>2024-05-21T06:45:37.000Z</time>
      </trkpt>
      <trkpt lat="45.53545" lon="4.87465">
        <ele>157.80000305176</ele>
        <time>2024-05-21T06:45:38.000Z</time>
      </trkpt>
      <trkpt lat="45.53541" lon="4.87466">
        <ele>157.80000305176</ele>
        <time>2024-05-21T06:45:39.000Z</time>
      </trkpt>
      <trkpt lat="45.53538" lon="4.87467">
        <ele>158</ele>
        <time>2024-05-21T06:45:40.000Z</time>
      </trkpt>
      <trkpt lat="45.53535" lon="4.87467">
        <ele>158</ele>
        <time>2024-05-21T06:45:41.000Z</time>
      </trkpt>
      <trkpt lat="45.53531" lon="4.87468">
        <ele>158</ele>
        <time>2024-05-21T06:45:42.000Z</time>
      </trkpt>
      <trkpt lat="45.53528" lon="4.87468">
        <ele>158.19999694824</ele>
        <time>2024-05-21T06:45:43.000Z</time>
      </trkpt>
      <trkpt lat="45.53524" lon="4.87468">
        <ele>158.19999694824</ele>
        <time>2024-05-21T06:45:44.000Z</time>
      </trkpt>
      <trkpt lat="45.53521" lon="4.87467">
        <ele>158.19999694824</ele>
        <time>2024-05-21T06:45:45.000Z</time>
      </trkpt>
      <trkpt lat="45.53517" lon="4.87466">
        <ele>158.39999389648</ele>
        <time>2024-05-21T06:45:46.000Z</time>
      </trkpt>
      <trkpt lat="45.53513" lon="4.87466">
        <ele>158.39999389648</ele>
        <time>2024-05-21T06:45:47.000Z</time>
      </trkpt>
      <trkpt lat="45.53509" lon="4.87465">
        <ele>158.39999389648</ele>
        <time>2024-05-21T06:45:48.000Z</time>
      </trkpt>
      <trkpt lat="45.53506" lon="4.87464">
        <ele>158.39999389648</ele>
        <time>2024-05-21T06:45:49.000Z</time>
      </trkpt>
      <trkpt lat="45.53502" lon="4.87464">
        <ele>158.39999389648</ele>
        <time>2024-05-21T06:45:50.000Z</time>
      </trkpt>
      <trkpt lat="45.53498" lon="4.87463">
        <ele>158.39999389648</ele>
        <time>2024-05-21T06:45:51.000Z</time>
      </trkpt>
      <trkpt lat="45.53494" lon="4.87462">
        <ele>158.39999389648</ele>
        <time>2024-05-21T06:45:52.000Z</time>
      </trkpt>
      <trkpt lat="45.5349" lon="4.87462">
        <ele>158.39999389648</ele>
        <time>2024-05-21T06:45:53.000Z</time>
      </trkpt>
      <trkpt lat="45.53486" lon="4.87461">
        <ele>158.39999389648</ele>
        <time>2024-05-21T06:45:54.000Z</time>
      </trkpt>
      <trkpt lat="45.53482" lon="4.87461">
        <ele>158.39999389648</ele>
        <time>2024-05-21T06:45:55.000Z</time>
      </trkpt>
      <trkpt lat="45.53478" lon="4.8746">
        <ele>158.39999389648</ele>
        <time>2024-05-21T06:45:56.000Z</time>
      </trkpt>
      <trkpt lat="45.53473" lon="4.87461">
        <ele>158.39999389648</ele>
        <time>2024-05-21T06:45:57.000Z</time>
      </trkpt>
      <trkpt lat="45.53468" lon="4.87462">
        <ele>158.19999694824</ele>
        <time>2024-05-21T06:45:58.000Z</time>
      </trkpt>
      <trkpt lat="45.53463" lon="4.87461">
        <ele>158.19999694824</ele>
        <time>2024-05-21T06:45:59.000Z</time>
      </trkpt>
      <trkpt lat="45.53459" lon="4.8746">
        <ele>158.19999694824</ele>
        <time>2024-05-21T06:46:00.000Z</time>
      </trkpt>
      <trkpt lat="45.53454" lon="4.87459">
        <ele>158.19999694824</ele>
        <time>2024-05-21T06:46:01.000Z</time>
      </trkpt>
      <trkpt lat="45.53449" lon="4.87458">
        <ele>158.19999694824</ele>
        <time>2024-05-21T06:46:02.000Z</time>
      </trkpt>
      <trkpt lat="45.53444" lon="4.87458">
        <ele>158.19999694824</ele>
        <time>2024-05-21T06:46:03.000Z</time>
      </trkpt>
      <trkpt lat="45.53439" lon="4.87457">
        <ele>158.19999694824</ele>
        <time>2024-05-21T06:46:04.000Z</time>
      </trkpt>
      <trkpt lat="45.53434" lon="4.87457">
        <ele>158.19999694824</ele>
        <time>2024-05-21T06:46:05.000Z</time>
      </trkpt>
      <trkpt lat="45.53429" lon="4.87456">
        <ele>158.19999694824</ele>
        <time>2024-05-21T06:46:06.000Z</time>
      </trkpt>
      <trkpt lat="45.53424" lon="4.87456">
        <ele>158.19999694824</ele>
        <time>2024-05-21T06:46:07.000Z</time>
      </trkpt>
      <trkpt lat="45.53419" lon="4.87455">
        <ele>158.19999694824</ele>
        <time>2024-05-21T06:46:08.000Z</time>
      </trkpt>
      <trkpt lat="45.53414" lon="4.87454">
        <ele>158.19999694824</ele>
        <time>2024-05-21T06:46:09.000Z</time>
      </trkpt>
      <trkpt lat="45.53408" lon="4.87453">
        <ele>158.39999389648</ele>
        <time>2024-05-21T06:46:10.000Z</time>
      </trkpt>
      <trkpt lat="45.53403" lon="4.87453">
        <ele>158.39999389648</ele>
        <time>2024-05-21T06:46:11.000Z</time>
      </trkpt>
      <trkpt lat="45.53398" lon="4.87452">
        <ele>158.39999389648</ele>
        <time>2024-05-21T06:46:12.000Z</time>
      </trkpt>
      <trkpt lat="45.53393" lon="4.8745">
        <ele>158.39999389648</ele>
        <time>2024-05-21T06:46:13.000Z</time>
      </trkpt>
      <trkpt lat="45.53388" lon="4.87449">
        <ele>158.39999389648</ele>
        <time>2024-05-21T06:46:14.000Z</time>
      </trkpt>
      <trkpt lat="45.53383" lon="4.87448">
        <ele>158.39999389648</ele>
        <time>2024-05-21T06:46:15.000Z</time>
      </trkpt>
      <trkpt lat="45.53379" lon="4.87447">
        <ele>158.39999389648</ele>
        <time>2024-05-21T06:46:16.000Z</time>
      </trkpt>
      <trkpt lat="45.53374" lon="4.87447">
        <ele>158.39999389648</ele>
        <time>2024-05-21T06:46:17.000Z</time>
      </trkpt>
      <trkpt lat="45.5337" lon="4.87446">
        <ele>158.60000610352</ele>
        <time>2024-05-21T06:46:18.000Z</time>
      </trkpt>
      <trkpt lat="45.53365" lon="4.87445">
        <ele>158.80000305176</ele>
        <time>2024-05-21T06:46:19.000Z</time>
      </trkpt>
      <trkpt lat="45.5336" lon="4.87444">
        <ele>158.80000305176</ele>
        <time>2024-05-21T06:46:20.000Z</time>
      </trkpt>
      <trkpt lat="45.53355" lon="4.87444">
        <ele>158.80000305176</ele>
        <time>2024-05-21T06:46:21.000Z</time>
      </trkpt>
      <trkpt lat="45.5335" lon="4.87443">
        <ele>158.80000305176</ele>
        <time>2024-05-21T06:46:22.000Z</time>
      </trkpt>
      <trkpt lat="45.53345" lon="4.87442">
        <ele>158.80000305176</ele>
        <time>2024-05-21T06:46:23.000Z</time>
      </trkpt>
      <trkpt lat="45.5334" lon="4.87441">
        <ele>158.80000305176</ele>
        <time>2024-05-21T06:46:24.000Z</time>
      </trkpt>
      <trkpt lat="45.53335" lon="4.87441">
        <ele>158.80000305176</ele>
        <time>2024-05-21T06:46:25.000Z</time>
      </trkpt>
      <trkpt lat="45.5333" lon="4.8744">
        <ele>158.80000305176</ele>
        <time>2024-05-21T06:46:26.000Z</time>
      </trkpt>
      <trkpt lat="45.53326" lon="4.8744">
        <ele>158.80000305176</ele>
        <time>2024-05-21T06:46:27.000Z</time>
      </trkpt>
      <trkpt lat="45.5332" lon="4.87439">
        <ele>158.80000305176</ele>
        <time>2024-05-21T06:46:28.000Z</time>
      </trkpt>
      <trkpt lat="45.53315" lon="4.87439">
        <ele>158.80000305176</ele>
        <time>2024-05-21T06:46:29.000Z</time>
      </trkpt>
      <trkpt lat="45.5331" lon="4.87439">
        <ele>158.60000610352</ele>
        <time>2024-05-21T06:46:30.000Z</time>
      </trkpt>
      <trkpt lat="45.53305" lon="4.87439">
        <ele>158.60000610352</ele>
        <time>2024-05-21T06:46:31.000Z</time>
      </trkpt>
      <trkpt lat="45.53301" lon="4.8744">
        <ele>158.60000610352</ele>
        <time>2024-05-21T06:46:32.000Z</time>
      </trkpt>
      <trkpt lat="45.53295" lon="4.8744">
        <ele>158.60000610352</ele>
        <time>2024-05-21T06:46:33.000Z</time>
      </trkpt>
      <trkpt lat="45.53291" lon="4.8744">
        <ele>158.60000610352</ele>
        <time>2024-05-21T06:46:34.000Z</time>
      </trkpt>
      <trkpt lat="45.53285" lon="4.87438">
        <ele>158.60000610352</ele>
        <time>2024-05-21T06:46:35.000Z</time>
      </trkpt>
      <trkpt lat="45.53281" lon="4.87437">
        <ele>158.60000610352</ele>
        <time>2024-05-21T06:46:36.000Z</time>
      </trkpt>
      <trkpt lat="45.53276" lon="4.87436">
        <ele>158.60000610352</ele>
        <time>2024-05-21T06:46:37.000Z</time>
      </trkpt>
      <trkpt lat="45.53272" lon="4.87434">
        <ele>158.60000610352</ele>
        <time>2024-05-21T06:46:38.000Z</time>
      </trkpt>
      <trkpt lat="45.53267" lon="4.87433">
        <ele>158.60000610352</ele>
        <time>2024-05-21T06:46:39.000Z</time>
      </trkpt>
      <trkpt lat="45.53262" lon="4.87432">
        <ele>158.60000610352</ele>
        <time>2024-05-21T06:46:40.000Z</time>
      </trkpt>
      <trkpt lat="45.53257" lon="4.87431">
        <ele>158.60000610352</ele>
        <time>2024-05-21T06:46:41.000Z</time>
      </trkpt>
      <trkpt lat="45.53252" lon="4.87431">
        <ele>158.60000610352</ele>
        <time>2024-05-21T06:46:42.000Z</time>
      </trkpt>
      <trkpt lat="45.53247" lon="4.8743">
        <ele>158.60000610352</ele>
        <time>2024-05-21T06:46:43.000Z</time>
      </trkpt>
      <trkpt lat="45.53242" lon="4.87429">
        <ele>158.80000305176</ele>
        <time>2024-05-21T06:46:44.000Z</time>
      </trkpt>
      <trkpt lat="45.53237" lon="4.87428">
        <ele>158.80000305176</ele>
        <time>2024-05-21T06:46:45.000Z</time>
      </trkpt>
      <trkpt lat="45.53233" lon="4.87428">
        <ele>158.80000305176</ele>
        <time>2024-05-21T06:46:46.000Z</time>
      </trkpt>
      <trkpt lat="45.53229" lon="4.87429">
        <ele>158.80000305176</ele>
        <time>2024-05-21T06:46:47.000Z</time>
      </trkpt>
      <trkpt lat="45.53225" lon="4.87429">
        <ele>158.80000305176</ele>
        <time>2024-05-21T06:46:48.000Z</time>
      </trkpt>
      <trkpt lat="45.53222" lon="4.87429">
        <ele>158.80000305176</ele>
        <time>2024-05-21T06:46:49.000Z</time>
      </trkpt>
      <trkpt lat="45.5322" lon="4.87428">
        <ele>158.80000305176</ele>
        <time>2024-05-21T06:46:50.000Z</time>
      </trkpt>
      <trkpt lat="45.53218" lon="4.87427">
        <ele>159</ele>
        <time>2024-05-21T06:46:51.000Z</time>
      </trkpt>
      <trkpt lat="45.53216" lon="4.87428">
        <ele>159</ele>
        <time>2024-05-21T06:46:52.000Z</time>
      </trkpt>
      <trkpt lat="45.53215" lon="4.87425">
        <ele>159.19999694824</ele>
        <time>2024-05-21T06:46:53.000Z</time>
      </trkpt>
      <trkpt lat="45.53213" lon="4.87422">
        <ele>159.39999389648</ele>
        <time>2024-05-21T06:46:54.000Z</time>
      </trkpt>
      <trkpt lat="45.53212" lon="4.8742">
        <ele>159.39999389648</ele>
        <time>2024-05-21T06:46:55.000Z</time>
      </trkpt>
      <trkpt lat="45.53211" lon="4.87418">
        <ele>159.60000610352</ele>
        <time>2024-05-21T06:46:56.000Z</time>
      </trkpt>
      <trkpt lat="45.53211" lon="4.87418">
        <ele>159.60000610352</ele>
        <time>2024-05-21T06:46:57.000Z</time>
      </trkpt>
      <trkpt lat="45.53211" lon="4.87418">
        <ele>159.60000610352</ele>
        <time>2024-05-21T06:46:58.000Z</time>
      </trkpt>
      <trkpt lat="45.53211" lon="4.8741">
        <ele>159.80000305176</ele>
        <time>2024-05-21T06:47:29.000Z</time>
      </trkpt>
      <trkpt lat="45.53212" lon="4.87407">
        <ele>159.80000305176</ele>
        <time>2024-05-21T06:47:30.000Z</time>
      </trkpt>
      <trkpt lat="45.53212" lon="4.87403">
        <ele>159.80000305176</ele>
        <time>2024-05-21T06:47:31.000Z</time>
      </trkpt>
      <trkpt lat="45.53212" lon="4.87399">
        <ele>159.80000305176</ele>
        <time>2024-05-21T06:47:32.000Z</time>
      </trkpt>
      <trkpt lat="45.53212" lon="4.87396">
        <ele>159.80000305176</ele>
        <time>2024-05-21T06:47:33.000Z</time>
      </trkpt>
      <trkpt lat="45.53212" lon="4.87393">
        <ele>159.80000305176</ele>
        <time>2024-05-21T06:47:34.000Z</time>
      </trkpt>
      <trkpt lat="45.53211" lon="4.87391">
        <ele>159.80000305176</ele>
        <time>2024-05-21T06:47:35.000Z</time>
      </trkpt>
      <trkpt lat="45.5321" lon="4.87389">
        <ele>159.80000305176</ele>
        <time>2024-05-21T06:47:36.000Z</time>
      </trkpt>
      <trkpt lat="45.53208" lon="4.87389">
        <ele>159.80000305176</ele>
        <time>2024-05-21T06:47:37.000Z</time>
      </trkpt>
      <trkpt lat="45.53205" lon="4.87389">
        <ele>159.60000610352</ele>
        <time>2024-05-21T06:47:38.000Z</time>
      </trkpt>
      <trkpt lat="45.53202" lon="4.87389">
        <ele>159.60000610352</ele>
        <time>2024-05-21T06:47:39.000Z</time>
      </trkpt>
      <trkpt lat="45.53198" lon="4.87389">
        <ele>159.60000610352</ele>
        <time>2024-05-21T06:47:40.000Z</time>
      </trkpt>
      <trkpt lat="45.53194" lon="4.8739">
        <ele>159.60000610352</ele>
        <time>2024-05-21T06:47:41.000Z</time>
      </trkpt>
      <trkpt lat="45.53191" lon="4.87391">
        <ele>159.60000610352</ele>
        <time>2024-05-21T06:47:42.000Z</time>
      </trkpt>
      <trkpt lat="45.53187" lon="4.87392">
        <ele>159.39999389648</ele>
        <time>2024-05-21T06:47:43.000Z</time>
      </trkpt>
      <trkpt lat="45.53183" lon="4.87393">
        <ele>159.39999389648</ele>
        <time>2024-05-21T06:47:44.000Z</time>
      </trkpt>
      <trkpt lat="45.5318" lon="4.87394">
        <ele>159.39999389648</ele>
        <time>2024-05-21T06:47:45.000Z</time>
      </trkpt>
      <trkpt lat="45.53175" lon="4.87395">
        <ele>159.39999389648</ele>
        <time>2024-05-21T06:47:46.000Z</time>
      </trkpt>
      <trkpt lat="45.53171" lon="4.87395">
        <ele>159.39999389648</ele>
        <time>2024-05-21T06:47:47.000Z</time>
      </trkpt>
      <trkpt lat="45.53166" lon="4.87395">
        <ele>159.39999389648</ele>
        <time>2024-05-21T06:47:48.000Z</time>
      </trkpt>
      <trkpt lat="45.53162" lon="4.87396">
        <ele>159.39999389648</ele>
        <time>2024-05-21T06:47:49.000Z</time>
      </trkpt>
      <trkpt lat="45.53158" lon="4.87396">
        <ele>159.39999389648</ele>
        <time>2024-05-21T06:47:50.000Z</time>
      </trkpt>
      <trkpt lat="45.53153" lon="4.87396">
        <ele>159.39999389648</ele>
        <time>2024-05-21T06:47:51.000Z</time>
      </trkpt>
      <trkpt lat="45.53149" lon="4.87395">
        <ele>159.39999389648</ele>
        <time>2024-05-21T06:47:52.000Z</time>
      </trkpt>
      <trkpt lat="45.53144" lon="4.87395">
        <ele>159.39999389648</ele>
        <time>2024-05-21T06:47:53.000Z</time>
      </trkpt>
      <trkpt lat="45.53139" lon="4.87395">
        <ele>159.39999389648</ele>
        <time>2024-05-21T06:47:54.000Z</time>
      </trkpt>
      <trkpt lat="45.53135" lon="4.87394">
        <ele>159.60000610352</ele>
        <time>2024-05-21T06:47:55.000Z</time>
      </trkpt>
      <trkpt lat="45.5313" lon="4.87394">
        <ele>159.60000610352</ele>
        <time>2024-05-21T06:47:56.000Z</time>
      </trkpt>
      <trkpt lat="45.53125" lon="4.87393">
        <ele>159.60000610352</ele>
        <time>2024-05-21T06:47:57.000Z</time>
      </trkpt>
      <trkpt lat="45.5312" lon="4.87392">
        <ele>159.60000610352</ele>
        <time>2024-05-21T06:47:58.000Z</time>
      </trkpt>
      <trkpt lat="45.53115" lon="4.87392">
        <ele>159.60000610352</ele>
        <time>2024-05-21T06:47:59.000Z</time>
      </trkpt>
      <trkpt lat="45.5311" lon="4.87391">
        <ele>159.60000610352</ele>
        <time>2024-05-21T06:48:00.000Z</time>
      </trkpt>
      <trkpt lat="45.53105" lon="4.8739">
        <ele>159.60000610352</ele>
        <time>2024-05-21T06:48:01.000Z</time>
      </trkpt>
      <trkpt lat="45.53101" lon="4.87389">
        <ele>159.80000305176</ele>
        <time>2024-05-21T06:48:02.000Z</time>
      </trkpt>
      <trkpt lat="45.53096" lon="4.87389">
        <ele>159.80000305176</ele>
        <time>2024-05-21T06:48:03.000Z</time>
      </trkpt>
      <trkpt lat="45.53091" lon="4.87388">
        <ele>159.80000305176</ele>
        <time>2024-05-21T06:48:04.000Z</time>
      </trkpt>
      <trkpt lat="45.53086" lon="4.87387">
        <ele>159.80000305176</ele>
        <time>2024-05-21T06:48:05.000Z</time>
      </trkpt>
      <trkpt lat="45.53082" lon="4.87387">
        <ele>159.80000305176</ele>
        <time>2024-05-21T06:48:06.000Z</time>
      </trkpt>
      <trkpt lat="45.53077" lon="4.87386">
        <ele>159.60000610352</ele>
        <time>2024-05-21T06:48:07.000Z</time>
      </trkpt>
      <trkpt lat="45.53072" lon="4.87385">
        <ele>159.60000610352</ele>
        <time>2024-05-21T06:48:08.000Z</time>
      </trkpt>
      <trkpt lat="45.53068" lon="4.87384">
        <ele>159.60000610352</ele>
        <time>2024-05-21T06:48:09.000Z</time>
      </trkpt>
      <trkpt lat="45.53063" lon="4.87383">
        <ele>159.60000610352</ele>
        <time>2024-05-21T06:48:10.000Z</time>
      </trkpt>
      <trkpt lat="45.53058" lon="4.87383">
        <ele>159.60000610352</ele>
        <time>2024-05-21T06:48:11.000Z</time>
      </trkpt>
      <trkpt lat="45.53054" lon="4.87382">
        <ele>159.60000610352</ele>
        <time>2024-05-21T06:48:12.000Z</time>
      </trkpt>
      <trkpt lat="45.53049" lon="4.87381">
        <ele>159.80000305176</ele>
        <time>2024-05-21T06:48:13.000Z</time>
      </trkpt>
      <trkpt lat="45.53044" lon="4.87381">
        <ele>159.80000305176</ele>
        <time>2024-05-21T06:48:14.000Z</time>
      </trkpt>
      <trkpt lat="45.5304" lon="4.8738">
        <ele>159.80000305176</ele>
        <time>2024-05-21T06:48:15.000Z</time>
      </trkpt>
      <trkpt lat="45.53035" lon="4.87379">
        <ele>159.80000305176</ele>
        <time>2024-05-21T06:48:16.000Z</time>
      </trkpt>
      <trkpt lat="45.5303" lon="4.87379">
        <ele>160</ele>
        <time>2024-05-21T06:48:17.000Z</time>
      </trkpt>
      <trkpt lat="45.53025" lon="4.87378">
        <ele>160</ele>
        <time>2024-05-21T06:48:18.000Z</time>
      </trkpt>
      <trkpt lat="45.5302" lon="4.87377">
        <ele>160</ele>
        <time>2024-05-21T06:48:19.000Z</time>
      </trkpt>
      <trkpt lat="45.53015" lon="4.87377">
        <ele>160</ele>
        <time>2024-05-21T06:48:20.000Z</time>
      </trkpt>
      <trkpt lat="45.53011" lon="4.87376">
        <ele>160.19999694824</ele>
        <time>2024-05-21T06:48:21.000Z</time>
      </trkpt>
      <trkpt lat="45.53006" lon="4.87375">
        <ele>160.19999694824</ele>
        <time>2024-05-21T06:48:22.000Z</time>
      </trkpt>
      <trkpt lat="45.53001" lon="4.87374">
        <ele>160.19999694824</ele>
        <time>2024-05-21T06:48:23.000Z</time>
      </trkpt>
      <trkpt lat="45.52997" lon="4.87374">
        <ele>160.19999694824</ele>
        <time>2024-05-21T06:48:24.000Z</time>
      </trkpt>
      <trkpt lat="45.52992" lon="4.87373">
        <ele>160.39999389648</ele>
        <time>2024-05-21T06:48:25.000Z</time>
      </trkpt>
      <trkpt lat="45.52987" lon="4.87373">
        <ele>160.39999389648</ele>
        <time>2024-05-21T06:48:26.000Z</time>
      </trkpt>
      <trkpt lat="45.52982" lon="4.87372">
        <ele>160.39999389648</ele>
        <time>2024-05-21T06:48:27.000Z</time>
      </trkpt>
      <trkpt lat="45.52978" lon="4.87371">
        <ele>160.39999389648</ele>
        <time>2024-05-21T06:48:28.000Z</time>
      </trkpt>
      <trkpt lat="45.52973" lon="4.87371">
        <ele>160.39999389648</ele>
        <time>2024-05-21T06:48:29.000Z</time>
      </trkpt>
      <trkpt lat="45.52968" lon="4.8737">
        <ele>160.39999389648</ele>
        <time>2024-05-21T06:48:30.000Z</time>
      </trkpt>
      <trkpt lat="45.52963" lon="4.87369">
        <ele>160.39999389648</ele>
        <time>2024-05-21T06:48:31.000Z</time>
      </trkpt>
      <trkpt lat="45.52958" lon="4.87368">
        <ele>160.60000610352</ele>
        <time>2024-05-21T06:48:32.000Z</time>
      </trkpt>
      <trkpt lat="45.52953" lon="4.87368">
        <ele>160.60000610352</ele>
        <time>2024-05-21T06:48:33.000Z</time>
      </trkpt>
      <trkpt lat="45.52949" lon="4.87367">
        <ele>160.60000610352</ele>
        <time>2024-05-21T06:48:34.000Z</time>
      </trkpt>
      <trkpt lat="45.52944" lon="4.87366">
        <ele>160.60000610352</ele>
        <time>2024-05-21T06:48:35.000Z</time>
      </trkpt>
      <trkpt lat="45.52939" lon="4.87365">
        <ele>160.60000610352</ele>
        <time>2024-05-21T06:48:36.000Z</time>
      </trkpt>
      <trkpt lat="45.52935" lon="4.87364">
        <ele>160.60000610352</ele>
        <time>2024-05-21T06:48:37.000Z</time>
      </trkpt>
      <trkpt lat="45.5293" lon="4.87364">
        <ele>160.60000610352</ele>
        <time>2024-05-21T06:48:38.000Z</time>
      </trkpt>
      <trkpt lat="45.52925" lon="4.87363">
        <ele>160.60000610352</ele>
        <time>2024-05-21T06:48:39.000Z</time>
      </trkpt>
      <trkpt lat="45.5292" lon="4.87362">
        <ele>160.80000305176</ele>
        <time>2024-05-21T06:48:40.000Z</time>
      </trkpt>
      <trkpt lat="45.52915" lon="4.87362">
        <ele>160.80000305176</ele>
        <time>2024-05-21T06:48:41.000Z</time>
      </trkpt>
      <trkpt lat="45.52911" lon="4.87361">
        <ele>160.80000305176</ele>
        <time>2024-05-21T06:48:42.000Z</time>
      </trkpt>
      <trkpt lat="45.52906" lon="4.8736">
        <ele>160.80000305176</ele>
        <time>2024-05-21T06:48:43.000Z</time>
      </trkpt>
      <trkpt lat="45.52901" lon="4.8736">
        <ele>160.80000305176</ele>
        <time>2024-05-21T06:48:44.000Z</time>
      </trkpt>
      <trkpt lat="45.52897" lon="4.87359">
        <ele>160.80000305176</ele>
        <time>2024-05-21T06:48:45.000Z</time>
      </trkpt>
      <trkpt lat="45.52893" lon="4.87358">
        <ele>160.80000305176</ele>
        <time>2024-05-21T06:48:46.000Z</time>
      </trkpt>
      <trkpt lat="45.52888" lon="4.87358">
        <ele>160.80000305176</ele>
        <time>2024-05-21T06:48:47.000Z</time>
      </trkpt>
      <trkpt lat="45.52884" lon="4.87357">
        <ele>160.80000305176</ele>
        <time>2024-05-21T06:48:48.000Z</time>
      </trkpt>
      <trkpt lat="45.52879" lon="4.87357">
        <ele>160.80000305176</ele>
        <time>2024-05-21T06:48:49.000Z</time>
      </trkpt>
      <trkpt lat="45.52875" lon="4.87356">
        <ele>161</ele>
        <time>2024-05-21T06:48:50.000Z</time>
      </trkpt>
      <trkpt lat="45.52871" lon="4.87355">
        <ele>161.19999694824</ele>
        <time>2024-05-21T06:48:51.000Z</time>
      </trkpt>
      <trkpt lat="45.52867" lon="4.87355">
        <ele>161.19999694824</ele>
        <time>2024-05-21T06:48:52.000Z</time>
      </trkpt>
      <trkpt lat="45.52864" lon="4.87355">
        <ele>161.39999389648</ele>
        <time>2024-05-21T06:48:53.000Z</time>
      </trkpt>
      <trkpt lat="45.5286" lon="4.87354">
        <ele>161.39999389648</ele>
        <time>2024-05-21T06:48:54.000Z</time>
      </trkpt>
      <trkpt lat="45.52856" lon="4.87354">
        <ele>161.60000610352</ele>
        <time>2024-05-21T06:48:55.000Z</time>
      </trkpt>
      <trkpt lat="45.52852" lon="4.87353">
        <ele>161.80000305176</ele>
        <time>2024-05-21T06:48:56.000Z</time>
      </trkpt>
      <trkpt lat="45.52848" lon="4.87352">
        <ele>162</ele>
        <time>2024-05-21T06:48:57.000Z</time>
      </trkpt>
      <trkpt lat="45.52845" lon="4.87352">
        <ele>162</ele>
        <time>2024-05-21T06:48:58.000Z</time>
      </trkpt>
      <trkpt lat="45.52841" lon="4.87351">
        <ele>162.19999694824</ele>
        <time>2024-05-21T06:48:59.000Z</time>
      </trkpt>
      <trkpt lat="45.52838" lon="4.87351">
        <ele>162.19999694824</ele>
        <time>2024-05-21T06:49:00.000Z</time>
      </trkpt>
      <trkpt lat="45.52835" lon="4.87351">
        <ele>162.19999694824</ele>
        <time>2024-05-21T06:49:01.000Z</time>
      </trkpt>
      <trkpt lat="45.52832" lon="4.8735">
        <ele>162.39999389648</ele>
        <time>2024-05-21T06:49:02.000Z</time>
      </trkpt>
      <trkpt lat="45.5283" lon="4.8735">
        <ele>162.60000610352</ele>
        <time>2024-05-21T06:49:03.000Z</time>
      </trkpt>
      <trkpt lat="45.52829" lon="4.87348">
        <ele>162.60000610352</ele>
        <time>2024-05-21T06:49:04.000Z</time>
      </trkpt>
      <trkpt lat="45.52828" lon="4.87347">
        <ele>162.80000305176</ele>
        <time>2024-05-21T06:49:05.000Z</time>
      </trkpt>
      <trkpt lat="45.52826" lon="4.87345">
        <ele>163</ele>
        <time>2024-05-21T06:49:06.000Z</time>
      </trkpt>
      <trkpt lat="45.52825" lon="4.87344">
        <ele>163.19999694824</ele>
        <time>2024-05-21T06:49:07.000Z</time>
      </trkpt>
      <trkpt lat="45.52824" lon="4.87344">
        <ele>163.19999694824</ele>
        <time>2024-05-21T06:49:08.000Z</time>
      </trkpt>
      <trkpt lat="45.52822" lon="4.87344">
        <ele>163.39999389648</ele>
        <time>2024-05-21T06:49:09.000Z</time>
      </trkpt>
      <trkpt lat="45.5282" lon="4.87345">
        <ele>163.39999389648</ele>
        <time>2024-05-21T06:49:10.000Z</time>
      </trkpt>
      <trkpt lat="45.52817" lon="4.87345">
        <ele>163.39999389648</ele>
        <time>2024-05-21T06:49:11.000Z</time>
      </trkpt>
      <trkpt lat="45.52815" lon="4.87346">
        <ele>163.39999389648</ele>
        <time>2024-05-21T06:49:12.000Z</time>
      </trkpt>
      <trkpt lat="45.52814" lon="4.87346">
        <ele>163.39999389648</ele>
        <time>2024-05-21T06:49:13.000Z</time>
      </trkpt>
      <trkpt lat="45.52811" lon="4.87345">
        <ele>163.39999389648</ele>
        <time>2024-05-21T06:49:14.000Z</time>
      </trkpt>
      <trkpt lat="45.5281" lon="4.87344">
        <ele>163.39999389648</ele>
        <time>2024-05-21T06:49:15.000Z</time>
      </trkpt>
      <trkpt lat="45.52808" lon="4.87343">
        <ele>163.39999389648</ele>
        <time>2024-05-21T06:49:16.000Z</time>
      </trkpt>
      <trkpt lat="45.52807" lon="4.87343">
        <ele>163.39999389648</ele>
        <time>2024-05-21T06:49:17.000Z</time>
      </trkpt>
      <trkpt lat="45.52804" lon="4.87342">
        <ele>163.39999389648</ele>
        <time>2024-05-21T06:49:18.000Z</time>
      </trkpt>
      <trkpt lat="45.52803" lon="4.87341">
        <ele>163.39999389648</ele>
        <time>2024-05-21T06:49:19.000Z</time>
      </trkpt>
      <trkpt lat="45.52801" lon="4.87342">
        <ele>163.19999694824</ele>
        <time>2024-05-21T06:49:20.000Z</time>
      </trkpt>
      <trkpt lat="45.52797" lon="4.87343">
        <ele>163.19999694824</ele>
        <time>2024-05-21T06:49:21.000Z</time>
      </trkpt>
      <trkpt lat="45.52795" lon="4.87344">
        <ele>163.19999694824</ele>
        <time>2024-05-21T06:49:22.000Z</time>
      </trkpt>
      <trkpt lat="45.52792" lon="4.87344">
        <ele>163.19999694824</ele>
        <time>2024-05-21T06:49:23.000Z</time>
      </trkpt>
      <trkpt lat="45.52789" lon="4.87345">
        <ele>163</ele>
        <time>2024-05-21T06:49:24.000Z</time>
      </trkpt>
      <trkpt lat="45.52786" lon="4.87344">
        <ele>163</ele>
        <time>2024-05-21T06:49:25.000Z</time>
      </trkpt>
      <trkpt lat="45.52783" lon="4.87344">
        <ele>162.80000305176</ele>
        <time>2024-05-21T06:49:26.000Z</time>
      </trkpt>
      <trkpt lat="45.52779" lon="4.87343">
        <ele>162.60000610352</ele>
        <time>2024-05-21T06:49:27.000Z</time>
      </trkpt>
      <trkpt lat="45.52776" lon="4.87342">
        <ele>162.60000610352</ele>
        <time>2024-05-21T06:49:28.000Z</time>
      </trkpt>
      <trkpt lat="45.52772" lon="4.87341">
        <ele>162.39999389648</ele>
        <time>2024-05-21T06:49:29.000Z</time>
      </trkpt>
      <trkpt lat="45.52768" lon="4.87339">
        <ele>162.19999694824</ele>
        <time>2024-05-21T06:49:30.000Z</time>
      </trkpt>
      <trkpt lat="45.52764" lon="4.87337">
        <ele>162</ele>
        <time>2024-05-21T06:49:31.000Z</time>
      </trkpt>
      <trkpt lat="45.5276" lon="4.87334">
        <ele>162</ele>
        <time>2024-05-21T06:49:32.000Z</time>
      </trkpt>
      <trkpt lat="45.52755" lon="4.8733">
        <ele>161.80000305176</ele>
        <time>2024-05-21T06:49:33.000Z</time>
      </trkpt>
      <trkpt lat="45.52752" lon="4.87327">
        <ele>161.80000305176</ele>
        <time>2024-05-21T06:49:34.000Z</time>
      </trkpt>
      <trkpt lat="45.52747" lon="4.87323">
        <ele>161.60000610352</ele>
        <time>2024-05-21T06:49:35.000Z</time>
      </trkpt>
      <trkpt lat="45.52741" lon="4.87319">
        <ele>161.39999389648</ele>
        <time>2024-05-21T06:49:36.000Z</time>
      </trkpt>
      <trkpt lat="45.52737" lon="4.87316">
        <ele>161.39999389648</ele>
        <time>2024-05-21T06:49:37.000Z</time>
      </trkpt>
      <trkpt lat="45.52733" lon="4.87312">
        <ele>161.39999389648</ele>
        <time>2024-05-21T06:49:38.000Z</time>
      </trkpt>
      <trkpt lat="45.52727" lon="4.87307">
        <ele>161.19999694824</ele>
        <time>2024-05-21T06:49:39.000Z</time>
      </trkpt>
      <trkpt lat="45.52723" lon="4.87304">
        <ele>161.19999694824</ele>
        <time>2024-05-21T06:49:40.000Z</time>
      </trkpt>
      <trkpt lat="45.52718" lon="4.873">
        <ele>160.80000305176</ele>
        <time>2024-05-21T06:49:41.000Z</time>
      </trkpt>
      <trkpt lat="45.52712" lon="4.87295">
        <ele>160.80000305176</ele>
        <time>2024-05-21T06:49:42.000Z</time>
      </trkpt>
      <trkpt lat="45.52708" lon="4.87292">
        <ele>160.60000610352</ele>
        <time>2024-05-21T06:49:43.000Z</time>
      </trkpt>
      <trkpt lat="45.52702" lon="4.87288">
        <ele>160.60000610352</ele>
        <time>2024-05-21T06:49:44.000Z</time>
      </trkpt>
      <trkpt lat="45.52697" lon="4.87284">
        <ele>160.60000610352</ele>
        <time>2024-05-21T06:49:45.000Z</time>
      </trkpt>
      <trkpt lat="45.52691" lon="4.87279">
        <ele>160.60000610352</ele>
        <time>2024-05-21T06:49:46.000Z</time>
      </trkpt>
      <trkpt lat="45.52687" lon="4.87276">
        <ele>160.60000610352</ele>
        <time>2024-05-21T06:49:47.000Z</time>
      </trkpt>
      <trkpt lat="45.52681" lon="4.87271">
        <ele>160.60000610352</ele>
        <time>2024-05-21T06:49:48.000Z</time>
      </trkpt>
      <trkpt lat="45.52676" lon="4.87268">
        <ele>160.60000610352</ele>
        <time>2024-05-21T06:49:49.000Z</time>
      </trkpt>
      <trkpt lat="45.52672" lon="4.87265">
        <ele>160.60000610352</ele>
        <time>2024-05-21T06:49:50.000Z</time>
      </trkpt>
      <trkpt lat="45.52666" lon="4.8726">
        <ele>160.60000610352</ele>
        <time>2024-05-21T06:49:51.000Z</time>
      </trkpt>
      <trkpt lat="45.52661" lon="4.87256">
        <ele>160.60000610352</ele>
        <time>2024-05-21T06:49:52.000Z</time>
      </trkpt>
      <trkpt lat="45.52657" lon="4.87253">
        <ele>160.80000305176</ele>
        <time>2024-05-21T06:49:53.000Z</time>
      </trkpt>
      <trkpt lat="45.52652" lon="4.87249">
        <ele>160.80000305176</ele>
        <time>2024-05-21T06:49:54.000Z</time>
      </trkpt>
      <trkpt lat="45.52648" lon="4.87246">
        <ele>160.80000305176</ele>
        <time>2024-05-21T06:49:55.000Z</time>
      </trkpt>
      <trkpt lat="45.52642" lon="4.87241">
        <ele>160.80000305176</ele>
        <time>2024-05-21T06:49:56.000Z</time>
      </trkpt>
      <trkpt lat="45.52637" lon="4.87238">
        <ele>160.80000305176</ele>
        <time>2024-05-21T06:49:57.000Z</time>
      </trkpt>
      <trkpt lat="45.52632" lon="4.87234">
        <ele>161</ele>
        <time>2024-05-21T06:49:58.000Z</time>
      </trkpt>
      <trkpt lat="45.52627" lon="4.87231">
        <ele>161</ele>
        <time>2024-05-21T06:49:59.000Z</time>
      </trkpt>
      <trkpt lat="45.52622" lon="4.87228">
        <ele>161</ele>
        <time>2024-05-21T06:50:00.000Z</time>
      </trkpt>
      <trkpt lat="45.52618" lon="4.87225">
        <ele>161</ele>
        <time>2024-05-21T06:50:01.000Z</time>
      </trkpt>
      <trkpt lat="45.52614" lon="4.87223">
        <ele>161</ele>
        <time>2024-05-21T06:50:02.000Z</time>
      </trkpt>
      <trkpt lat="45.52609" lon="4.87219">
        <ele>161</ele>
        <time>2024-05-21T06:50:03.000Z</time>
      </trkpt>
      <trkpt lat="45.52604" lon="4.87216">
        <ele>161</ele>
        <time>2024-05-21T06:50:04.000Z</time>
      </trkpt>
      <trkpt lat="45.52598" lon="4.87212">
        <ele>161</ele>
        <time>2024-05-21T06:50:05.000Z</time>
      </trkpt>
      <trkpt lat="45.52593" lon="4.87209">
        <ele>161.19999694824</ele>
        <time>2024-05-21T06:50:06.000Z</time>
      </trkpt>
      <trkpt lat="45.5259" lon="4.87206">
        <ele>161.19999694824</ele>
        <time>2024-05-21T06:50:07.000Z</time>
      </trkpt>
      <trkpt lat="45.52585" lon="4.87203">
        <ele>161.19999694824</ele>
        <time>2024-05-21T06:50:08.000Z</time>
      </trkpt>
      <trkpt lat="45.5258" lon="4.87199">
        <ele>161.39999389648</ele>
        <time>2024-05-21T06:50:09.000Z</time>
      </trkpt>
      <trkpt lat="45.52576" lon="4.87196">
        <ele>161.39999389648</ele>
        <time>2024-05-21T06:50:10.000Z</time>
      </trkpt>
      <trkpt lat="45.5257" lon="4.87191">
        <ele>161.39999389648</ele>
        <time>2024-05-21T06:50:11.000Z</time>
      </trkpt>
      <trkpt lat="45.52566" lon="4.87187">
        <ele>161.39999389648</ele>
        <time>2024-05-21T06:50:12.000Z</time>
      </trkpt>
      <trkpt lat="45.52562" lon="4.87184">
        <ele>161.60000610352</ele>
        <time>2024-05-21T06:50:13.000Z</time>
      </trkpt>
      <trkpt lat="45.52557" lon="4.8718">
        <ele>161.60000610352</ele>
        <time>2024-05-21T06:50:14.000Z</time>
      </trkpt>
      <trkpt lat="45.52553" lon="4.87177">
        <ele>161.60000610352</ele>
        <time>2024-05-21T06:50:15.000Z</time>
      </trkpt>
      <trkpt lat="45.52549" lon="4.87173">
        <ele>161.60000610352</ele>
        <time>2024-05-21T06:50:16.000Z</time>
      </trkpt>
      <trkpt lat="45.52544" lon="4.8717">
        <ele>161.60000610352</ele>
        <time>2024-05-21T06:50:17.000Z</time>
      </trkpt>
      <trkpt lat="45.52539" lon="4.87166">
        <ele>161.60000610352</ele>
        <time>2024-05-21T06:50:18.000Z</time>
      </trkpt>
      <trkpt lat="45.52535" lon="4.87163">
        <ele>161.80000305176</ele>
        <time>2024-05-21T06:50:19.000Z</time>
      </trkpt>
      <trkpt lat="45.52531" lon="4.8716">
        <ele>161.80000305176</ele>
        <time>2024-05-21T06:50:20.000Z</time>
      </trkpt>
      <trkpt lat="45.52526" lon="4.87156">
        <ele>161.80000305176</ele>
        <time>2024-05-21T06:50:21.000Z</time>
      </trkpt>
      <trkpt lat="45.52522" lon="4.87152">
        <ele>161.80000305176</ele>
        <time>2024-05-21T06:50:22.000Z</time>
      </trkpt>
      <trkpt lat="45.52517" lon="4.87149">
        <ele>161.80000305176</ele>
        <time>2024-05-21T06:50:23.000Z</time>
      </trkpt>
      <trkpt lat="45.52513" lon="4.87145">
        <ele>161.80000305176</ele>
        <time>2024-05-21T06:50:24.000Z</time>
      </trkpt>
      <trkpt lat="45.52508" lon="4.87142">
        <ele>162</ele>
        <time>2024-05-21T06:50:25.000Z</time>
      </trkpt>
      <trkpt lat="45.52504" lon="4.87138">
        <ele>162</ele>
        <time>2024-05-21T06:50:26.000Z</time>
      </trkpt>
      <trkpt lat="45.52499" lon="4.87135">
        <ele>162</ele>
        <time>2024-05-21T06:50:27.000Z</time>
      </trkpt>
      <trkpt lat="45.52494" lon="4.87131">
        <ele>162</ele>
        <time>2024-05-21T06:50:28.000Z</time>
      </trkpt>
      <trkpt lat="45.5249" lon="4.87128">
        <ele>162</ele>
        <time>2024-05-21T06:50:29.000Z</time>
      </trkpt>
      <trkpt lat="45.52486" lon="4.87125">
        <ele>162</ele>
        <time>2024-05-21T06:50:30.000Z</time>
      </trkpt>
      <trkpt lat="45.52482" lon="4.87121">
        <ele>162.19999694824</ele>
        <time>2024-05-21T06:50:31.000Z</time>
      </trkpt>
      <trkpt lat="45.52478" lon="4.87118">
        <ele>162.19999694824</ele>
        <time>2024-05-21T06:50:32.000Z</time>
      </trkpt>
      <trkpt lat="45.52475" lon="4.87116">
        <ele>162.19999694824</ele>
        <time>2024-05-21T06:50:33.000Z</time>
      </trkpt>
      <trkpt lat="45.52472" lon="4.87114">
        <ele>162.39999389648</ele>
        <time>2024-05-21T06:50:34.000Z</time>
      </trkpt>
      <trkpt lat="45.52468" lon="4.87112">
        <ele>162.60000610352</ele>
        <time>2024-05-21T06:50:35.000Z</time>
      </trkpt>
      <trkpt lat="45.52465" lon="4.87109">
        <ele>162.60000610352</ele>
        <time>2024-05-21T06:50:36.000Z</time>
      </trkpt>
      <trkpt lat="45.52461" lon="4.87107">
        <ele>162.60000610352</ele>
        <time>2024-05-21T06:50:37.000Z</time>
      </trkpt>
      <trkpt lat="45.52459" lon="4.87105">
        <ele>162.60000610352</ele>
        <time>2024-05-21T06:50:38.000Z</time>
      </trkpt>
      <trkpt lat="45.52456" lon="4.87103">
        <ele>162.60000610352</ele>
        <time>2024-05-21T06:50:39.000Z</time>
      </trkpt>
      <trkpt lat="45.52453" lon="4.871">
        <ele>162.39999389648</ele>
        <time>2024-05-21T06:50:40.000Z</time>
      </trkpt>
      <trkpt lat="45.5245" lon="4.87098">
        <ele>162.39999389648</ele>
        <time>2024-05-21T06:50:41.000Z</time>
      </trkpt>
      <trkpt lat="45.52447" lon="4.87095">
        <ele>162.39999389648</ele>
        <time>2024-05-21T06:50:42.000Z</time>
      </trkpt>
      <trkpt lat="45.52443" lon="4.87092">
        <ele>162.19999694824</ele>
        <time>2024-05-21T06:50:43.000Z</time>
      </trkpt>
      <trkpt lat="45.52439" lon="4.87088">
        <ele>162.19999694824</ele>
        <time>2024-05-21T06:50:44.000Z</time>
      </trkpt>
      <trkpt lat="45.52435" lon="4.87085">
        <ele>162</ele>
        <time>2024-05-21T06:50:45.000Z</time>
      </trkpt>
      <trkpt lat="45.52431" lon="4.87082">
        <ele>162</ele>
        <time>2024-05-21T06:50:46.000Z</time>
      </trkpt>
      <trkpt lat="45.52426" lon="4.87079">
        <ele>161.80000305176</ele>
        <time>2024-05-21T06:50:47.000Z</time>
      </trkpt>
      <trkpt lat="45.52422" lon="4.87075">
        <ele>161.60000610352</ele>
        <time>2024-05-21T06:50:48.000Z</time>
      </trkpt>
      <trkpt lat="45.52416" lon="4.87071">
        <ele>161.60000610352</ele>
        <time>2024-05-21T06:50:49.000Z</time>
      </trkpt>
      <trkpt lat="45.52413" lon="4.87068">
        <ele>161.39999389648</ele>
        <time>2024-05-21T06:50:50.000Z</time>
      </trkpt>
      <trkpt lat="45.52408" lon="4.87064">
        <ele>161.39999389648</ele>
        <time>2024-05-21T06:50:51.000Z</time>
      </trkpt>
      <trkpt lat="45.52403" lon="4.8706">
        <ele>161.19999694824</ele>
        <time>2024-05-21T06:50:52.000Z</time>
      </trkpt>
      <trkpt lat="45.52398" lon="4.87056">
        <ele>161.19999694824</ele>
        <time>2024-05-21T06:50:53.000Z</time>
      </trkpt>
      <trkpt lat="45.52393" lon="4.87052">
        <ele>161</ele>
        <time>2024-05-21T06:50:54.000Z</time>
      </trkpt>
      <trkpt lat="45.52388" lon="4.87048">
        <ele>160.80000305176</ele>
        <time>2024-05-21T06:50:55.000Z</time>
      </trkpt>
      <trkpt lat="45.52383" lon="4.87044">
        <ele>160.80000305176</ele>
        <time>2024-05-21T06:50:56.000Z</time>
      </trkpt>
      <trkpt lat="45.52377" lon="4.87041">
        <ele>160.39999389648</ele>
        <time>2024-05-21T06:50:57.000Z</time>
      </trkpt>
      <trkpt lat="45.52372" lon="4.87037">
        <ele>160.19999694824</ele>
        <time>2024-05-21T06:50:58.000Z</time>
      </trkpt>
      <trkpt lat="45.52367" lon="4.87032">
        <ele>160.19999694824</ele>
        <time>2024-05-21T06:50:59.000Z</time>
      </trkpt>
      <trkpt lat="45.52362" lon="4.87028">
        <ele>160</ele>
        <time>2024-05-21T06:51:00.000Z</time>
      </trkpt>
      <trkpt lat="45.52357" lon="4.87024">
        <ele>159.80000305176</ele>
        <time>2024-05-21T06:51:01.000Z</time>
      </trkpt>
      <trkpt lat="45.52352" lon="4.8702">
        <ele>159.60000610352</ele>
        <time>2024-05-21T06:51:02.000Z</time>
      </trkpt>
      <trkpt lat="45.52347" lon="4.87016">
        <ele>159.39999389648</ele>
        <time>2024-05-21T06:51:03.000Z</time>
      </trkpt>
      <trkpt lat="45.5234" lon="4.87011">
        <ele>159.39999389648</ele>
        <time>2024-05-21T06:51:04.000Z</time>
      </trkpt>
      <trkpt lat="45.52336" lon="4.87007">
        <ele>159.19999694824</ele>
        <time>2024-05-21T06:51:05.000Z</time>
      </trkpt>
      <trkpt lat="45.52331" lon="4.87003">
        <ele>159</ele>
        <time>2024-05-21T06:51:06.000Z</time>
      </trkpt>
      <trkpt lat="45.52326" lon="4.86998">
        <ele>159</ele>
        <time>2024-05-21T06:51:07.000Z</time>
      </trkpt>
      <trkpt lat="45.52321" lon="4.86993">
        <ele>158.60000610352</ele>
        <time>2024-05-21T06:51:08.000Z</time>
      </trkpt>
      <trkpt lat="45.52316" lon="4.86987">
        <ele>158.60000610352</ele>
        <time>2024-05-21T06:51:09.000Z</time>
      </trkpt>
      <trkpt lat="45.52312" lon="4.86982">
        <ele>158.60000610352</ele>
        <time>2024-05-21T06:51:10.000Z</time>
      </trkpt>
      <trkpt lat="45.52307" lon="4.86977">
        <ele>158.60000610352</ele>
        <time>2024-05-21T06:51:11.000Z</time>
      </trkpt>
      <trkpt lat="45.52302" lon="4.86972">
        <ele>158.39999389648</ele>
        <time>2024-05-21T06:51:12.000Z</time>
      </trkpt>
      <trkpt lat="45.52298" lon="4.86966">
        <ele>158.19999694824</ele>
        <time>2024-05-21T06:51:13.000Z</time>
      </trkpt>
      <trkpt lat="45.52293" lon="4.86961">
        <ele>158</ele>
        <time>2024-05-21T06:51:14.000Z</time>
      </trkpt>
      <trkpt lat="45.52289" lon="4.86956">
        <ele>157.80000305176</ele>
        <time>2024-05-21T06:51:15.000Z</time>
      </trkpt>
      <trkpt lat="45.52284" lon="4.86952">
        <ele>157.80000305176</ele>
        <time>2024-05-21T06:51:16.000Z</time>
      </trkpt>
      <trkpt lat="45.5228" lon="4.86947">
        <ele>157.80000305176</ele>
        <time>2024-05-21T06:51:17.000Z</time>
      </trkpt>
      <trkpt lat="45.52276" lon="4.86943">
        <ele>157.80000305176</ele>
        <time>2024-05-21T06:51:18.000Z</time>
      </trkpt>
      <trkpt lat="45.52272" lon="4.86939">
        <ele>157.80000305176</ele>
        <time>2024-05-21T06:51:19.000Z</time>
      </trkpt>
      <trkpt lat="45.52268" lon="4.86935">
        <ele>157.80000305176</ele>
        <time>2024-05-21T06:51:20.000Z</time>
      </trkpt>
      <trkpt lat="45.52264" lon="4.8693">
        <ele>157.80000305176</ele>
        <time>2024-05-21T06:51:21.000Z</time>
      </trkpt>
      <trkpt lat="45.5226" lon="4.86926">
        <ele>157.80000305176</ele>
        <time>2024-05-21T06:51:22.000Z</time>
      </trkpt>
      <trkpt lat="45.52257" lon="4.86923">
        <ele>157.60000610352</ele>
        <time>2024-05-21T06:51:23.000Z</time>
      </trkpt>
      <trkpt lat="45.52253" lon="4.86919">
        <ele>157.60000610352</ele>
        <time>2024-05-21T06:51:24.000Z</time>
      </trkpt>
      <trkpt lat="45.5225" lon="4.86916">
        <ele>157.39999389648</ele>
        <time>2024-05-21T06:51:25.000Z</time>
      </trkpt>
      <trkpt lat="45.52246" lon="4.86913">
        <ele>157.39999389648</ele>
        <time>2024-05-21T06:51:26.000Z</time>
      </trkpt>
      <trkpt lat="45.52243" lon="4.86909">
        <ele>157.39999389648</ele>
        <time>2024-05-21T06:51:27.000Z</time>
      </trkpt>
      <trkpt lat="45.52239" lon="4.86906">
        <ele>157.39999389648</ele>
        <time>2024-05-21T06:51:28.000Z</time>
      </trkpt>
      <trkpt lat="45.52236" lon="4.86902">
        <ele>157.39999389648</ele>
        <time>2024-05-21T06:51:29.000Z</time>
      </trkpt>
      <trkpt lat="45.52233" lon="4.86899">
        <ele>157.39999389648</ele>
        <time>2024-05-21T06:51:30.000Z</time>
      </trkpt>
      <trkpt lat="45.5223" lon="4.86896">
        <ele>157.60000610352</ele>
        <time>2024-05-21T06:51:31.000Z</time>
      </trkpt>
      <trkpt lat="45.52226" lon="4.86893">
        <ele>157.60000610352</ele>
        <time>2024-05-21T06:51:32.000Z</time>
      </trkpt>
      <trkpt lat="45.52223" lon="4.86891">
        <ele>157.60000610352</ele>
        <time>2024-05-21T06:51:33.000Z</time>
      </trkpt>
      <trkpt lat="45.5222" lon="4.86888">
        <ele>157.60000610352</ele>
        <time>2024-05-21T06:51:34.000Z</time>
      </trkpt>
      <trkpt lat="45.52217" lon="4.86886">
        <ele>157.60000610352</ele>
        <time>2024-05-21T06:51:35.000Z</time>
      </trkpt>
      <trkpt lat="45.52214" lon="4.86884">
        <ele>157.60000610352</ele>
        <time>2024-05-21T06:51:36.000Z</time>
      </trkpt>
      <trkpt lat="45.52211" lon="4.86881">
        <ele>157.60000610352</ele>
        <time>2024-05-21T06:51:37.000Z</time>
      </trkpt>
      <trkpt lat="45.52208" lon="4.86879">
        <ele>157.60000610352</ele>
        <time>2024-05-21T06:51:38.000Z</time>
      </trkpt>
      <trkpt lat="45.52206" lon="4.86876">
        <ele>157.60000610352</ele>
        <time>2024-05-21T06:51:39.000Z</time>
      </trkpt>
      <trkpt lat="45.52204" lon="4.86873">
        <ele>157.60000610352</ele>
        <time>2024-05-21T06:51:40.000Z</time>
      </trkpt>
      <trkpt lat="45.52202" lon="4.86869">
        <ele>157.60000610352</ele>
        <time>2024-05-21T06:51:41.000Z</time>
      </trkpt>
      <trkpt lat="45.52201" lon="4.86866">
        <ele>157.60000610352</ele>
        <time>2024-05-21T06:51:42.000Z</time>
      </trkpt>
      <trkpt lat="45.52199" lon="4.86863">
        <ele>157.60000610352</ele>
        <time>2024-05-21T06:51:43.000Z</time>
      </trkpt>
      <trkpt lat="45.52197" lon="4.86861">
        <ele>157.60000610352</ele>
        <time>2024-05-21T06:51:44.000Z</time>
      </trkpt>
      <trkpt lat="45.52195" lon="4.86858">
        <ele>157.39999389648</ele>
        <time>2024-05-21T06:51:45.000Z</time>
      </trkpt>
      <trkpt lat="45.52192" lon="4.86855">
        <ele>157.39999389648</ele>
        <time>2024-05-21T06:51:46.000Z</time>
      </trkpt>
      <trkpt lat="45.52189" lon="4.86853">
        <ele>157.39999389648</ele>
        <time>2024-05-21T06:51:47.000Z</time>
      </trkpt>
      <trkpt lat="45.52186" lon="4.8685">
        <ele>157.19999694824</ele>
        <time>2024-05-21T06:51:48.000Z</time>
      </trkpt>
      <trkpt lat="45.52184" lon="4.86847">
        <ele>157.19999694824</ele>
        <time>2024-05-21T06:51:49.000Z</time>
      </trkpt>
      <trkpt lat="45.52181" lon="4.86844">
        <ele>157.19999694824</ele>
        <time>2024-05-21T06:51:50.000Z</time>
      </trkpt>
      <trkpt lat="45.52178" lon="4.86841">
        <ele>157.19999694824</ele>
        <time>2024-05-21T06:51:51.000Z</time>
      </trkpt>
      <trkpt lat="45.52175" lon="4.86837">
        <ele>157.19999694824</ele>
        <time>2024-05-21T06:51:52.000Z</time>
      </trkpt>
      <trkpt lat="45.52172" lon="4.86834">
        <ele>157.19999694824</ele>
        <time>2024-05-21T06:51:53.000Z</time>
      </trkpt>
      <trkpt lat="45.52168" lon="4.86831">
        <ele>157.19999694824</ele>
        <time>2024-05-21T06:51:54.000Z</time>
      </trkpt>
      <trkpt lat="45.52165" lon="4.86827">
        <ele>157.19999694824</ele>
        <time>2024-05-21T06:51:55.000Z</time>
      </trkpt>
      <trkpt lat="45.52162" lon="4.86824">
        <ele>157.19999694824</ele>
        <time>2024-05-21T06:51:56.000Z</time>
      </trkpt>
      <trkpt lat="45.52158" lon="4.8682">
        <ele>157.19999694824</ele>
        <time>2024-05-21T06:51:57.000Z</time>
      </trkpt>
      <trkpt lat="45.52155" lon="4.86817">
        <ele>157.19999694824</ele>
        <time>2024-05-21T06:51:58.000Z</time>
      </trkpt>
      <trkpt lat="45.52151" lon="4.86813">
        <ele>157.19999694824</ele>
        <time>2024-05-21T06:51:59.000Z</time>
      </trkpt>
      <trkpt lat="45.52147" lon="4.86809">
        <ele>157.19999694824</ele>
        <time>2024-05-21T06:52:00.000Z</time>
      </trkpt>
      <trkpt lat="45.52144" lon="4.86806">
        <ele>157.19999694824</ele>
        <time>2024-05-21T06:52:01.000Z</time>
      </trkpt>
      <trkpt lat="45.5214" lon="4.86802">
        <ele>157.19999694824</ele>
        <time>2024-05-21T06:52:02.000Z</time>
      </trkpt>
      <trkpt lat="45.52136" lon="4.86798">
        <ele>157.19999694824</ele>
        <time>2024-05-21T06:52:03.000Z</time>
      </trkpt>
      <trkpt lat="45.52133" lon="4.86795">
        <ele>157.19999694824</ele>
        <time>2024-05-21T06:52:04.000Z</time>
      </trkpt>
      <trkpt lat="45.52129" lon="4.86792">
        <ele>157.39999389648</ele>
        <time>2024-05-21T06:52:05.000Z</time>
      </trkpt>
      <trkpt lat="45.52126" lon="4.86789">
        <ele>157.39999389648</ele>
        <time>2024-05-21T06:52:06.000Z</time>
      </trkpt>
      <trkpt lat="45.52124" lon="4.86786">
        <ele>157.39999389648</ele>
        <time>2024-05-21T06:52:07.000Z</time>
      </trkpt>
      <trkpt lat="45.52121" lon="4.86784">
        <ele>157.39999389648</ele>
        <time>2024-05-21T06:52:08.000Z</time>
      </trkpt>
      <trkpt lat="45.52119" lon="4.86781">
        <ele>157.39999389648</ele>
        <time>2024-05-21T06:52:09.000Z</time>
      </trkpt>
      <trkpt lat="45.52116" lon="4.86779">
        <ele>157.39999389648</ele>
        <time>2024-05-21T06:52:10.000Z</time>
      </trkpt>
      <trkpt lat="45.52114" lon="4.86777">
        <ele>157.39999389648</ele>
        <time>2024-05-21T06:52:11.000Z</time>
      </trkpt>
      <trkpt lat="45.52112" lon="4.86775">
        <ele>157.39999389648</ele>
        <time>2024-05-21T06:52:12.000Z</time>
      </trkpt>
      <trkpt lat="45.5211" lon="4.86772">
        <ele>157.39999389648</ele>
        <time>2024-05-21T06:52:13.000Z</time>
      </trkpt>
      <trkpt lat="45.52108" lon="4.86771">
        <ele>157.39999389648</ele>
        <time>2024-05-21T06:52:14.000Z</time>
      </trkpt>
      <trkpt lat="45.52106" lon="4.86769">
        <ele>157.39999389648</ele>
        <time>2024-05-21T06:52:15.000Z</time>
      </trkpt>
      <trkpt lat="45.52105" lon="4.86768">
        <ele>157.39999389648</ele>
        <time>2024-05-21T06:52:16.000Z</time>
      </trkpt>
      <trkpt lat="45.52105" lon="4.86768">
        <ele>157.39999389648</ele>
        <time>2024-05-21T06:52:17.000Z</time>
      </trkpt>
      <trkpt lat="45.52105" lon="4.86768">
        <ele>157.39999389648</ele>
        <time>2024-05-21T06:52:18.000Z</time>
      </trkpt>
      <trkpt lat="45.52112" lon="4.86774">
        <ele>157.60000610352</ele>
        <time>2024-05-21T06:52:40.000Z</time>
      </trkpt>
      <trkpt lat="45.52115" lon="4.86776">
        <ele>157.60000610352</ele>
        <time>2024-05-21T06:52:41.000Z</time>
      </trkpt>
      <trkpt lat="45.52117" lon="4.86779">
        <ele>157.60000610352</ele>
        <time>2024-05-21T06:52:42.000Z</time>
      </trkpt>
      <trkpt lat="45.52119" lon="4.86781">
        <ele>157.39999389648</ele>
        <time>2024-05-21T06:52:43.000Z</time>
      </trkpt>
      <trkpt lat="45.52122" lon="4.86783">
        <ele>157.39999389648</ele>
        <time>2024-05-21T06:52:44.000Z</time>
      </trkpt>
      <trkpt lat="45.52125" lon="4.86786">
        <ele>157.19999694824</ele>
        <time>2024-05-21T06:52:45.000Z</time>
      </trkpt>
      <trkpt lat="45.52128" lon="4.86789">
        <ele>157.19999694824</ele>
        <time>2024-05-21T06:52:46.000Z</time>
      </trkpt>
      <trkpt lat="45.52131" lon="4.86792">
        <ele>157.19999694824</ele>
        <time>2024-05-21T06:52:47.000Z</time>
      </trkpt>
      <trkpt lat="45.52134" lon="4.86795">
        <ele>157.19999694824</ele>
        <time>2024-05-21T06:52:48.000Z</time>
      </trkpt>
      <trkpt lat="45.52138" lon="4.86798">
        <ele>157.19999694824</ele>
        <time>2024-05-21T06:52:49.000Z</time>
      </trkpt>
      <trkpt lat="45.52141" lon="4.86802">
        <ele>157.19999694824</ele>
        <time>2024-05-21T06:52:50.000Z</time>
      </trkpt>
      <trkpt lat="45.52144" lon="4.86805">
        <ele>157.19999694824</ele>
        <time>2024-05-21T06:52:51.000Z</time>
      </trkpt>
      <trkpt lat="45.52148" lon="4.86808">
        <ele>157</ele>
        <time>2024-05-21T06:52:52.000Z</time>
      </trkpt>
      <trkpt lat="45.52151" lon="4.86812">
        <ele>157</ele>
        <time>2024-05-21T06:52:53.000Z</time>
      </trkpt>
      <trkpt lat="45.52154" lon="4.86815">
        <ele>157</ele>
        <time>2024-05-21T06:52:54.000Z</time>
      </trkpt>
      <trkpt lat="45.52158" lon="4.86819">
        <ele>157</ele>
        <time>2024-05-21T06:52:55.000Z</time>
      </trkpt>
      <trkpt lat="45.52161" lon="4.86822">
        <ele>157</ele>
        <time>2024-05-21T06:52:56.000Z</time>
      </trkpt>
      <trkpt lat="45.52165" lon="4.86825">
        <ele>157</ele>
        <time>2024-05-21T06:52:57.000Z</time>
      </trkpt>
      <trkpt lat="45.52169" lon="4.86829">
        <ele>157</ele>
        <time>2024-05-21T06:52:58.000Z</time>
      </trkpt>
      <trkpt lat="45.52172" lon="4.86832">
        <ele>157</ele>
        <time>2024-05-21T06:52:59.000Z</time>
      </trkpt>
      <trkpt lat="45.52176" lon="4.86836">
        <ele>157</ele>
        <time>2024-05-21T06:53:00.000Z</time>
      </trkpt>
      <trkpt lat="45.52179" lon="4.8684">
        <ele>157</ele>
        <time>2024-05-21T06:53:01.000Z</time>
      </trkpt>
      <trkpt lat="45.52183" lon="4.86843">
        <ele>157</ele>
        <time>2024-05-21T06:53:02.000Z</time>
      </trkpt>
      <trkpt lat="45.52186" lon="4.86847">
        <ele>156.80000305176</ele>
        <time>2024-05-21T06:53:03.000Z</time>
      </trkpt>
      <trkpt lat="45.5219" lon="4.8685">
        <ele>156.80000305176</ele>
        <time>2024-05-21T06:53:04.000Z</time>
      </trkpt>
      <trkpt lat="45.52193" lon="4.86854">
        <ele>157</ele>
        <time>2024-05-21T06:53:05.000Z</time>
      </trkpt>
      <trkpt lat="45.52196" lon="4.86857">
        <ele>157</ele>
        <time>2024-05-21T06:53:06.000Z</time>
      </trkpt>
      <trkpt lat="45.52199" lon="4.8686">
        <ele>157</ele>
        <time>2024-05-21T06:53:07.000Z</time>
      </trkpt>
      <trkpt lat="45.52202" lon="4.86863">
        <ele>157.19999694824</ele>
        <time>2024-05-21T06:53:08.000Z</time>
      </trkpt>
      <trkpt lat="45.52204" lon="4.86866">
        <ele>157.39999389648</ele>
        <time>2024-05-21T06:53:09.000Z</time>
      </trkpt>
      <trkpt lat="45.52206" lon="4.8687">
        <ele>157.39999389648</ele>
        <time>2024-05-21T06:53:10.000Z</time>
      </trkpt>
      <trkpt lat="45.52208" lon="4.86873">
        <ele>157.39999389648</ele>
        <time>2024-05-21T06:53:11.000Z</time>
      </trkpt>
      <trkpt lat="45.5221" lon="4.86877">
        <ele>157.39999389648</ele>
        <time>2024-05-21T06:53:12.000Z</time>
      </trkpt>
      <trkpt lat="45.52212" lon="4.86879">
        <ele>157.39999389648</ele>
        <time>2024-05-21T06:53:13.000Z</time>
      </trkpt>
      <trkpt lat="45.52215" lon="4.86882">
        <ele>157.60000610352</ele>
        <time>2024-05-21T06:53:14.000Z</time>
      </trkpt>
      <trkpt lat="45.52217" lon="4.86884">
        <ele>157.60000610352</ele>
        <time>2024-05-21T06:53:15.000Z</time>
      </trkpt>
      <trkpt lat="45.5222" lon="4.86887">
        <ele>157.60000610352</ele>
        <time>2024-05-21T06:53:16.000Z</time>
      </trkpt>
      <trkpt lat="45.52223" lon="4.86889">
        <ele>157.60000610352</ele>
        <time>2024-05-21T06:53:17.000Z</time>
      </trkpt>
      <trkpt lat="45.52225" lon="4.86891">
        <ele>157.60000610352</ele>
        <time>2024-05-21T06:53:18.000Z</time>
      </trkpt>
      <trkpt lat="45.52227" lon="4.86892">
        <ele>157.60000610352</ele>
        <time>2024-05-21T06:53:19.000Z</time>
      </trkpt>
      <trkpt lat="45.52228" lon="4.86893">
        <ele>157.60000610352</ele>
        <time>2024-05-21T06:53:20.000Z</time>
      </trkpt>
      <trkpt lat="45.52229" lon="4.86894">
        <ele>157.60000610352</ele>
        <time>2024-05-21T06:53:21.000Z</time>
      </trkpt>
      <trkpt lat="45.52229" lon="4.86895">
        <ele>157.60000610352</ele>
        <time>2024-05-21T06:53:22.000Z</time>
      </trkpt>
      <trkpt lat="45.52229" lon="4.86895">
        <ele>157.60000610352</ele>
        <time>2024-05-21T06:53:23.000Z</time>
      </trkpt>
      <trkpt lat="45.52226" lon="4.86899">
        <ele>157.80000305176</ele>
        <time>2024-05-21T06:54:14.000Z</time>
      </trkpt>
      <trkpt lat="45.52225" lon="4.86902">
        <ele>157.80000305176</ele>
        <time>2024-05-21T06:54:15.000Z</time>
      </trkpt>
      <trkpt lat="45.52224" lon="4.86903">
        <ele>157.80000305176</ele>
        <time>2024-05-21T06:54:16.000Z</time>
      </trkpt>
      <trkpt lat="45.52223" lon="4.86905">
        <ele>157.60000610352</ele>
        <time>2024-05-21T06:54:17.000Z</time>
      </trkpt>
      <trkpt lat="45.52221" lon="4.86908">
        <ele>157.60000610352</ele>
        <time>2024-05-21T06:54:18.000Z</time>
      </trkpt>
      <trkpt lat="45.52219" lon="4.86911">
        <ele>157.60000610352</ele>
        <time>2024-05-21T06:54:19.000Z</time>
      </trkpt>
      <trkpt lat="45.52218" lon="4.86914">
        <ele>157.39999389648</ele>
        <time>2024-05-21T06:54:20.000Z</time>
      </trkpt>
      <trkpt lat="45.52216" lon="4.86917">
        <ele>157.39999389648</ele>
        <time>2024-05-21T06:54:21.000Z</time>
      </trkpt>
      <trkpt lat="45.52214" lon="4.86919">
        <ele>157.39999389648</ele>
        <time>2024-05-21T06:54:22.000Z</time>
      </trkpt>
      <trkpt lat="45.52212" lon="4.86921">
        <ele>157.39999389648</ele>
        <time>2024-05-21T06:54:23.000Z</time>
      </trkpt>
      <trkpt lat="45.52209" lon="4.86924">
        <ele>157.39999389648</ele>
        <time>2024-05-21T06:54:24.000Z</time>
      </trkpt>
      <trkpt lat="45.52207" lon="4.86926">
        <ele>157.19999694824</ele>
        <time>2024-05-21T06:54:25.000Z</time>
      </trkpt>
      <trkpt lat="45.52205" lon="4.86928">
        <ele>157.19999694824</ele>
        <time>2024-05-21T06:54:26.000Z</time>
      </trkpt>
      <trkpt lat="45.52202" lon="4.86927">
        <ele>157.19999694824</ele>
        <time>2024-05-21T06:54:27.000Z</time>
      </trkpt>
      <trkpt lat="45.522" lon="4.86925">
        <ele>157.19999694824</ele>
        <time>2024-05-21T06:54:28.000Z</time>
      </trkpt>
      <trkpt lat="45.52197" lon="4.86923">
        <ele>157.19999694824</ele>
        <time>2024-05-21T06:54:29.000Z</time>
      </trkpt>
      <trkpt lat="45.52195" lon="4.8692">
        <ele>157</ele>
        <time>2024-05-21T06:54:30.000Z</time>
      </trkpt>
      <trkpt lat="45.52192" lon="4.86917">
        <ele>157</ele>
        <time>2024-05-21T06:54:31.000Z</time>
      </trkpt>
      <trkpt lat="45.52189" lon="4.86914">
        <ele>157</ele>
        <time>2024-05-21T06:54:32.000Z</time>
      </trkpt>
      <trkpt lat="45.52185" lon="4.86911">
        <ele>157</ele>
        <time>2024-05-21T06:54:33.000Z</time>
      </trkpt>
      <trkpt lat="45.52182" lon="4.86908">
        <ele>157</ele>
        <time>2024-05-21T06:54:34.000Z</time>
      </trkpt>
      <trkpt lat="45.52178" lon="4.86904">
        <ele>157</ele>
        <time>2024-05-21T06:54:35.000Z</time>
      </trkpt>
      <trkpt lat="45.52174" lon="4.869">
        <ele>156.80000305176</ele>
        <time>2024-05-21T06:54:36.000Z</time>
      </trkpt>
      <trkpt lat="45.52171" lon="4.86897">
        <ele>156.80000305176</ele>
        <time>2024-05-21T06:54:37.000Z</time>
      </trkpt>
      <trkpt lat="45.52167" lon="4.86893">
        <ele>157</ele>
        <time>2024-05-21T06:54:38.000Z</time>
      </trkpt>
      <trkpt lat="45.52163" lon="4.86889">
        <ele>157</ele>
        <time>2024-05-21T06:54:39.000Z</time>
      </trkpt>
      <trkpt lat="45.52159" lon="4.86886">
        <ele>156.80000305176</ele>
        <time>2024-05-21T06:54:40.000Z</time>
      </trkpt>
      <trkpt lat="45.52155" lon="4.86882">
        <ele>156.80000305176</ele>
        <time>2024-05-21T06:54:41.000Z</time>
      </trkpt>
      <trkpt lat="45.52151" lon="4.86879">
        <ele>156.80000305176</ele>
        <time>2024-05-21T06:54:42.000Z</time>
      </trkpt>
      <trkpt lat="45.52147" lon="4.86875">
        <ele>156.80000305176</ele>
        <time>2024-05-21T06:54:43.000Z</time>
      </trkpt>
      <trkpt lat="45.52143" lon="4.86871">
        <ele>156.80000305176</ele>
        <time>2024-05-21T06:54:44.000Z</time>
      </trkpt>
      <trkpt lat="45.52139" lon="4.86868">
        <ele>156.80000305176</ele>
        <time>2024-05-21T06:54:45.000Z</time>
      </trkpt>
      <trkpt lat="45.52135" lon="4.86865">
        <ele>156.80000305176</ele>
        <time>2024-05-21T06:54:46.000Z</time>
      </trkpt>
      <trkpt lat="45.52131" lon="4.86861">
        <ele>156.80000305176</ele>
        <time>2024-05-21T06:54:47.000Z</time>
      </trkpt>
      <trkpt lat="45.52128" lon="4.86858">
        <ele>156.80000305176</ele>
        <time>2024-05-21T06:54:48.000Z</time>
      </trkpt>
      <trkpt lat="45.52124" lon="4.86855">
        <ele>156.80000305176</ele>
        <time>2024-05-21T06:54:49.000Z</time>
      </trkpt>
      <trkpt lat="45.52121" lon="4.86852">
        <ele>156.80000305176</ele>
        <time>2024-05-21T06:54:50.000Z</time>
      </trkpt>
      <trkpt lat="45.52118" lon="4.86848">
        <ele>157</ele>
        <time>2024-05-21T06:54:51.000Z</time>
      </trkpt>
      <trkpt lat="45.52115" lon="4.86844">
        <ele>157</ele>
        <time>2024-05-21T06:54:52.000Z</time>
      </trkpt>
      <trkpt lat="45.52112" lon="4.86839">
        <ele>157</ele>
        <time>2024-05-21T06:54:53.000Z</time>
      </trkpt>
      <trkpt lat="45.52109" lon="4.86834">
        <ele>157</ele>
        <time>2024-05-21T06:54:54.000Z</time>
      </trkpt>
      <trkpt lat="45.52106" lon="4.8683">
        <ele>157</ele>
        <time>2024-05-21T06:54:55.000Z</time>
      </trkpt>
      <trkpt lat="45.52102" lon="4.86825">
        <ele>156.80000305176</ele>
        <time>2024-05-21T06:54:56.000Z</time>
      </trkpt>
      <trkpt lat="45.52099" lon="4.8682">
        <ele>156.80000305176</ele>
        <time>2024-05-21T06:54:57.000Z</time>
      </trkpt>
      <trkpt lat="45.52096" lon="4.86815">
        <ele>156.80000305176</ele>
        <time>2024-05-21T06:54:58.000Z</time>
      </trkpt>
      <trkpt lat="45.52092" lon="4.8681">
        <ele>156.80000305176</ele>
        <time>2024-05-21T06:54:59.000Z</time>
      </trkpt>
      <trkpt lat="45.52089" lon="4.86805">
        <ele>156.80000305176</ele>
        <time>2024-05-21T06:55:00.000Z</time>
      </trkpt>
      <trkpt lat="45.52085" lon="4.868">
        <ele>156.60000610352</ele>
        <time>2024-05-21T06:55:01.000Z</time>
      </trkpt>
      <trkpt lat="45.52082" lon="4.86796">
        <ele>156.60000610352</ele>
        <time>2024-05-21T06:55:02.000Z</time>
      </trkpt>
      <trkpt lat="45.52079" lon="4.86791">
        <ele>156.60000610352</ele>
        <time>2024-05-21T06:55:03.000Z</time>
      </trkpt>
      <trkpt lat="45.52076" lon="4.86787">
        <ele>156.60000610352</ele>
        <time>2024-05-21T06:55:04.000Z</time>
      </trkpt>
      <trkpt lat="45.52073" lon="4.86784">
        <ele>156.60000610352</ele>
        <time>2024-05-21T06:55:05.000Z</time>
      </trkpt>
      <trkpt lat="45.52069" lon="4.8678">
        <ele>156.60000610352</ele>
        <time>2024-05-21T06:55:06.000Z</time>
      </trkpt>
      <trkpt lat="45.52066" lon="4.86776">
        <ele>156.60000610352</ele>
        <time>2024-05-21T06:55:07.000Z</time>
      </trkpt>
      <trkpt lat="45.52063" lon="4.86772">
        <ele>156.60000610352</ele>
        <time>2024-05-21T06:55:08.000Z</time>
      </trkpt>
      <trkpt lat="45.5206" lon="4.86768">
        <ele>156.60000610352</ele>
        <time>2024-05-21T06:55:09.000Z</time>
      </trkpt>
      <trkpt lat="45.52056" lon="4.86765">
        <ele>156.60000610352</ele>
        <time>2024-05-21T06:55:10.000Z</time>
      </trkpt>
      <trkpt lat="45.52052" lon="4.86761">
        <ele>156.60000610352</ele>
        <time>2024-05-21T06:55:11.000Z</time>
      </trkpt>
      <trkpt lat="45.52049" lon="4.86757">
        <ele>156.60000610352</ele>
        <time>2024-05-21T06:55:12.000Z</time>
      </trkpt>
      <trkpt lat="45.52045" lon="4.86753">
        <ele>156.60000610352</ele>
        <time>2024-05-21T06:55:13.000Z</time>
      </trkpt>
      <trkpt lat="45.52041" lon="4.86749">
        <ele>156.60000610352</ele>
        <time>2024-05-21T06:55:14.000Z</time>
      </trkpt>
      <trkpt lat="45.52036" lon="4.86745">
        <ele>156.60000610352</ele>
        <time>2024-05-21T06:55:15.000Z</time>
      </trkpt>
      <trkpt lat="45.52032" lon="4.8674">
        <ele>156.39999389648</ele>
        <time>2024-05-21T06:55:16.000Z</time>
      </trkpt>
      <trkpt lat="45.52028" lon="4.86736">
        <ele>156.39999389648</ele>
        <time>2024-05-21T06:55:17.000Z</time>
      </trkpt>
      <trkpt lat="45.52024" lon="4.86732">
        <ele>156.39999389648</ele>
        <time>2024-05-21T06:55:18.000Z</time>
      </trkpt>
      <trkpt lat="45.52019" lon="4.86728">
        <ele>156.39999389648</ele>
        <time>2024-05-21T06:55:19.000Z</time>
      </trkpt>
      <trkpt lat="45.52015" lon="4.86724">
        <ele>156.19999694824</ele>
        <time>2024-05-21T06:55:20.000Z</time>
      </trkpt>
      <trkpt lat="45.52011" lon="4.86719">
        <ele>156.19999694824</ele>
        <time>2024-05-21T06:55:21.000Z</time>
      </trkpt>
      <trkpt lat="45.52007" lon="4.86715">
        <ele>156.19999694824</ele>
        <time>2024-05-21T06:55:22.000Z</time>
      </trkpt>
      <trkpt lat="45.52003" lon="4.86711">
        <ele>156.19999694824</ele>
        <time>2024-05-21T06:55:23.000Z</time>
      </trkpt>
      <trkpt lat="45.51999" lon="4.86706">
        <ele>156.19999694824</ele>
        <time>2024-05-21T06:55:24.000Z</time>
      </trkpt>
      <trkpt lat="45.51994" lon="4.86702">
        <ele>156.19999694824</ele>
        <time>2024-05-21T06:55:25.000Z</time>
      </trkpt>
      <trkpt lat="45.5199" lon="4.86698">
        <ele>156.19999694824</ele>
        <time>2024-05-21T06:55:26.000Z</time>
      </trkpt>
      <trkpt lat="45.51985" lon="4.86693">
        <ele>156.19999694824</ele>
        <time>2024-05-21T06:55:27.000Z</time>
      </trkpt>
      <trkpt lat="45.51981" lon="4.86688">
        <ele>156</ele>
        <time>2024-05-21T06:55:28.000Z</time>
      </trkpt>
      <trkpt lat="45.51977" lon="4.86685">
        <ele>156</ele>
        <time>2024-05-21T06:55:29.000Z</time>
      </trkpt>
      <trkpt lat="45.51973" lon="4.86681">
        <ele>156</ele>
        <time>2024-05-21T06:55:30.000Z</time>
      </trkpt>
      <trkpt lat="45.51968" lon="4.86677">
        <ele>155.80000305176</ele>
        <time>2024-05-21T06:55:31.000Z</time>
      </trkpt>
      <trkpt lat="45.51964" lon="4.86673">
        <ele>155.80000305176</ele>
        <time>2024-05-21T06:55:32.000Z</time>
      </trkpt>
      <trkpt lat="45.5196" lon="4.86669">
        <ele>155.80000305176</ele>
        <time>2024-05-21T06:55:33.000Z</time>
      </trkpt>
      <trkpt lat="45.51956" lon="4.86664">
        <ele>155.80000305176</ele>
        <time>2024-05-21T06:55:34.000Z</time>
      </trkpt>
      <trkpt lat="45.51952" lon="4.8666">
        <ele>155.60000610352</ele>
        <time>2024-05-21T06:55:35.000Z</time>
      </trkpt>
      <trkpt lat="45.51949" lon="4.86657">
        <ele>155.60000610352</ele>
        <time>2024-05-21T06:55:36.000Z</time>
      </trkpt>
      <trkpt lat="45.51946" lon="4.86654">
        <ele>155.60000610352</ele>
        <time>2024-05-21T06:55:37.000Z</time>
      </trkpt>
      <trkpt lat="45.51944" lon="4.86651">
        <ele>155.60000610352</ele>
        <time>2024-05-21T06:55:38.000Z</time>
      </trkpt>
      <trkpt lat="45.51942" lon="4.86649">
        <ele>155.80000305176</ele>
        <time>2024-05-21T06:55:39.000Z</time>
      </trkpt>
      <trkpt lat="45.51942" lon="4.86647">
        <ele>156</ele>
        <time>2024-05-21T06:55:40.000Z</time>
      </trkpt>
      <trkpt lat="45.51941" lon="4.86645">
        <ele>156.19999694824</ele>
        <time>2024-05-21T06:55:41.000Z</time>
      </trkpt>
      <trkpt lat="45.51941" lon="4.86643">
        <ele>156.19999694824</ele>
        <time>2024-05-21T06:55:42.000Z</time>
      </trkpt>
      <trkpt lat="45.51941" lon="4.86642">
        <ele>156.39999389648</ele>
        <time>2024-05-21T06:55:43.000Z</time>
      </trkpt>
      <trkpt lat="45.51941" lon="4.86642">
        <ele>156.60000610352</ele>
        <time>2024-05-21T06:55:44.000Z</time>
      </trkpt>
      <trkpt lat="45.51938" lon="4.86635">
        <ele>156.80000305176</ele>
        <time>2024-05-21T06:55:48.000Z</time>
      </trkpt>
      <trkpt lat="45.51936" lon="4.86633">
        <ele>156.80000305176</ele>
        <time>2024-05-21T06:55:49.000Z</time>
      </trkpt>
      <trkpt lat="45.51933" lon="4.8663">
        <ele>156.80000305176</ele>
        <time>2024-05-21T06:55:50.000Z</time>
      </trkpt>
      <trkpt lat="45.51931" lon="4.86628">
        <ele>156.80000305176</ele>
        <time>2024-05-21T06:55:51.000Z</time>
      </trkpt>
      <trkpt lat="45.51927" lon="4.86624">
        <ele>156.80000305176</ele>
        <time>2024-05-21T06:55:52.000Z</time>
      </trkpt>
      <trkpt lat="45.51924" lon="4.8662">
        <ele>156.60000610352</ele>
        <time>2024-05-21T06:55:53.000Z</time>
      </trkpt>
      <trkpt lat="45.5192" lon="4.86617">
        <ele>156.60000610352</ele>
        <time>2024-05-21T06:55:54.000Z</time>
      </trkpt>
      <trkpt lat="45.51917" lon="4.86614">
        <ele>156.39999389648</ele>
        <time>2024-05-21T06:55:55.000Z</time>
      </trkpt>
      <trkpt lat="45.51913" lon="4.8661">
        <ele>156.39999389648</ele>
        <time>2024-05-21T06:55:56.000Z</time>
      </trkpt>
      <trkpt lat="45.5191" lon="4.86606">
        <ele>156.39999389648</ele>
        <time>2024-05-21T06:55:57.000Z</time>
      </trkpt>
      <trkpt lat="45.51906" lon="4.86602">
        <ele>156.39999389648</ele>
        <time>2024-05-21T06:55:58.000Z</time>
      </trkpt>
      <trkpt lat="45.51902" lon="4.86598">
        <ele>156.39999389648</ele>
        <time>2024-05-21T06:55:59.000Z</time>
      </trkpt>
      <trkpt lat="45.51897" lon="4.86593">
        <ele>156.19999694824</ele>
        <time>2024-05-21T06:56:00.000Z</time>
      </trkpt>
      <trkpt lat="45.51893" lon="4.86589">
        <ele>156.19999694824</ele>
        <time>2024-05-21T06:56:01.000Z</time>
      </trkpt>
      <trkpt lat="45.51889" lon="4.86584">
        <ele>156.19999694824</ele>
        <time>2024-05-21T06:56:02.000Z</time>
      </trkpt>
      <trkpt lat="45.51884" lon="4.8658">
        <ele>156</ele>
        <time>2024-05-21T06:56:03.000Z</time>
      </trkpt>
      <trkpt lat="45.51879" lon="4.86575">
        <ele>156</ele>
        <time>2024-05-21T06:56:04.000Z</time>
      </trkpt>
      <trkpt lat="45.51874" lon="4.86571">
        <ele>156</ele>
        <time>2024-05-21T06:56:05.000Z</time>
      </trkpt>
      <trkpt lat="45.5187" lon="4.86566">
        <ele>156</ele>
        <time>2024-05-21T06:56:06.000Z</time>
      </trkpt>
      <trkpt lat="45.51865" lon="4.86562">
        <ele>156</ele>
        <time>2024-05-21T06:56:07.000Z</time>
      </trkpt>
      <trkpt lat="45.51861" lon="4.86558">
        <ele>155.80000305176</ele>
        <time>2024-05-21T06:56:08.000Z</time>
      </trkpt>
      <trkpt lat="45.51857" lon="4.86553">
        <ele>155.80000305176</ele>
        <time>2024-05-21T06:56:09.000Z</time>
      </trkpt>
      <trkpt lat="45.51853" lon="4.86549">
        <ele>155.80000305176</ele>
        <time>2024-05-21T06:56:10.000Z</time>
      </trkpt>
      <trkpt lat="45.5185" lon="4.86545">
        <ele>155.80000305176</ele>
        <time>2024-05-21T06:56:11.000Z</time>
      </trkpt>
      <trkpt lat="45.51846" lon="4.8654">
        <ele>155.60000610352</ele>
        <time>2024-05-21T06:56:12.000Z</time>
      </trkpt>
      <trkpt lat="45.51841" lon="4.86536">
        <ele>155.60000610352</ele>
        <time>2024-05-21T06:56:13.000Z</time>
      </trkpt>
      <trkpt lat="45.51836" lon="4.86532">
        <ele>155.60000610352</ele>
        <time>2024-05-21T06:56:14.000Z</time>
      </trkpt>
      <trkpt lat="45.51832" lon="4.86528">
        <ele>155.60000610352</ele>
        <time>2024-05-21T06:56:15.000Z</time>
      </trkpt>
      <trkpt lat="45.51828" lon="4.86524">
        <ele>155.60000610352</ele>
        <time>2024-05-21T06:56:16.000Z</time>
      </trkpt>
      <trkpt lat="45.51823" lon="4.8652">
        <ele>155.39999389648</ele>
        <time>2024-05-21T06:56:17.000Z</time>
      </trkpt>
      <trkpt lat="45.5182" lon="4.86516">
        <ele>155.39999389648</ele>
        <time>2024-05-21T06:56:18.000Z</time>
      </trkpt>
      <trkpt lat="45.51815" lon="4.86512">
        <ele>155.39999389648</ele>
        <time>2024-05-21T06:56:19.000Z</time>
      </trkpt>
      <trkpt lat="45.51811" lon="4.86508">
        <ele>155.39999389648</ele>
        <time>2024-05-21T06:56:20.000Z</time>
      </trkpt>
      <trkpt lat="45.51807" lon="4.86504">
        <ele>155.39999389648</ele>
        <time>2024-05-21T06:56:21.000Z</time>
      </trkpt>
      <trkpt lat="45.51802" lon="4.86499">
        <ele>155.39999389648</ele>
        <time>2024-05-21T06:56:22.000Z</time>
      </trkpt>
      <trkpt lat="45.51798" lon="4.86494">
        <ele>155.39999389648</ele>
        <time>2024-05-21T06:56:23.000Z</time>
      </trkpt>
      <trkpt lat="45.51793" lon="4.8649">
        <ele>155.39999389648</ele>
        <time>2024-05-21T06:56:24.000Z</time>
      </trkpt>
      <trkpt lat="45.51789" lon="4.86485">
        <ele>155.60000610352</ele>
        <time>2024-05-21T06:56:25.000Z</time>
      </trkpt>
      <trkpt lat="45.51785" lon="4.86481">
        <ele>155.60000610352</ele>
        <time>2024-05-21T06:56:26.000Z</time>
      </trkpt>
      <trkpt lat="45.51781" lon="4.86476">
        <ele>155.60000610352</ele>
        <time>2024-05-21T06:56:27.000Z</time>
      </trkpt>
      <trkpt lat="45.51776" lon="4.86471">
        <ele>155.60000610352</ele>
        <time>2024-05-21T06:56:28.000Z</time>
      </trkpt>
      <trkpt lat="45.51771" lon="4.86466">
        <ele>155.60000610352</ele>
        <time>2024-05-21T06:56:29.000Z</time>
      </trkpt>
      <trkpt lat="45.51767" lon="4.86462">
        <ele>155.60000610352</ele>
        <time>2024-05-21T06:56:30.000Z</time>
      </trkpt>
      <trkpt lat="45.51762" lon="4.86457">
        <ele>155.60000610352</ele>
        <time>2024-05-21T06:56:31.000Z</time>
      </trkpt>
      <trkpt lat="45.51757" lon="4.86452">
        <ele>155.60000610352</ele>
        <time>2024-05-21T06:56:32.000Z</time>
      </trkpt>
      <trkpt lat="45.51753" lon="4.86448">
        <ele>155.39999389648</ele>
        <time>2024-05-21T06:56:33.000Z</time>
      </trkpt>
      <trkpt lat="45.51748" lon="4.86443">
        <ele>155.39999389648</ele>
        <time>2024-05-21T06:56:34.000Z</time>
      </trkpt>
      <trkpt lat="45.51744" lon="4.86439">
        <ele>155.39999389648</ele>
        <time>2024-05-21T06:56:35.000Z</time>
      </trkpt>
      <trkpt lat="45.51739" lon="4.86434">
        <ele>155.19999694824</ele>
        <time>2024-05-21T06:56:36.000Z</time>
      </trkpt>
      <trkpt lat="45.51734" lon="4.86429">
        <ele>155.19999694824</ele>
        <time>2024-05-21T06:56:37.000Z</time>
      </trkpt>
      <trkpt lat="45.5173" lon="4.86425">
        <ele>155.19999694824</ele>
        <time>2024-05-21T06:56:38.000Z</time>
      </trkpt>
      <trkpt lat="45.51726" lon="4.86421">
        <ele>155.19999694824</ele>
        <time>2024-05-21T06:56:39.000Z</time>
      </trkpt>
      <trkpt lat="45.51722" lon="4.86417">
        <ele>155.19999694824</ele>
        <time>2024-05-21T06:56:40.000Z</time>
      </trkpt>
      <trkpt lat="45.51718" lon="4.86412">
        <ele>155.19999694824</ele>
        <time>2024-05-21T06:56:41.000Z</time>
      </trkpt>
      <trkpt lat="45.51714" lon="4.86408">
        <ele>155.19999694824</ele>
        <time>2024-05-21T06:56:42.000Z</time>
      </trkpt>
      <trkpt lat="45.51709" lon="4.86404">
        <ele>155.19999694824</ele>
        <time>2024-05-21T06:56:43.000Z</time>
      </trkpt>
      <trkpt lat="45.51704" lon="4.864">
        <ele>155.39999389648</ele>
        <time>2024-05-21T06:56:44.000Z</time>
      </trkpt>
      <trkpt lat="45.517" lon="4.86395">
        <ele>155.39999389648</ele>
        <time>2024-05-21T06:56:45.000Z</time>
      </trkpt>
      <trkpt lat="45.51695" lon="4.86391">
        <ele>155.39999389648</ele>
        <time>2024-05-21T06:56:46.000Z</time>
      </trkpt>
      <trkpt lat="45.51691" lon="4.86387">
        <ele>155.39999389648</ele>
        <time>2024-05-21T06:56:47.000Z</time>
      </trkpt>
      <trkpt lat="45.51686" lon="4.86382">
        <ele>155.39999389648</ele>
        <time>2024-05-21T06:56:48.000Z</time>
      </trkpt>
      <trkpt lat="45.51683" lon="4.86377">
        <ele>155.39999389648</ele>
        <time>2024-05-21T06:56:49.000Z</time>
      </trkpt>
      <trkpt lat="45.51678" lon="4.86373">
        <ele>155.39999389648</ele>
        <time>2024-05-21T06:56:50.000Z</time>
      </trkpt>
      <trkpt lat="45.51674" lon="4.86369">
        <ele>155.39999389648</ele>
        <time>2024-05-21T06:56:51.000Z</time>
      </trkpt>
      <trkpt lat="45.51669" lon="4.86364">
        <ele>155.39999389648</ele>
        <time>2024-05-21T06:56:52.000Z</time>
      </trkpt>
      <trkpt lat="45.51664" lon="4.8636">
        <ele>155.39999389648</ele>
        <time>2024-05-21T06:56:53.000Z</time>
      </trkpt>
      <trkpt lat="45.5166" lon="4.86354">
        <ele>155.39999389648</ele>
        <time>2024-05-21T06:56:54.000Z</time>
      </trkpt>
      <trkpt lat="45.51655" lon="4.86349">
        <ele>155.39999389648</ele>
        <time>2024-05-21T06:56:55.000Z</time>
      </trkpt>
      <trkpt lat="45.51651" lon="4.86345">
        <ele>155.39999389648</ele>
        <time>2024-05-21T06:56:56.000Z</time>
      </trkpt>
      <trkpt lat="45.51647" lon="4.8634">
        <ele>155.19999694824</ele>
        <time>2024-05-21T06:56:57.000Z</time>
      </trkpt>
      <trkpt lat="45.51643" lon="4.86336">
        <ele>155.19999694824</ele>
        <time>2024-05-21T06:56:58.000Z</time>
      </trkpt>
      <trkpt lat="45.51638" lon="4.86332">
        <ele>155.19999694824</ele>
        <time>2024-05-21T06:56:59.000Z</time>
      </trkpt>
      <trkpt lat="45.51634" lon="4.86328">
        <ele>155.19999694824</ele>
        <time>2024-05-21T06:57:00.000Z</time>
      </trkpt>
      <trkpt lat="45.51629" lon="4.86323">
        <ele>155.19999694824</ele>
        <time>2024-05-21T06:57:01.000Z</time>
      </trkpt>
      <trkpt lat="45.51625" lon="4.86319">
        <ele>155.19999694824</ele>
        <time>2024-05-21T06:57:02.000Z</time>
      </trkpt>
      <trkpt lat="45.5162" lon="4.86314">
        <ele>155.19999694824</ele>
        <time>2024-05-21T06:57:03.000Z</time>
      </trkpt>
      <trkpt lat="45.51616" lon="4.8631">
        <ele>155.19999694824</ele>
        <time>2024-05-21T06:57:04.000Z</time>
      </trkpt>
      <trkpt lat="45.51611" lon="4.86305">
        <ele>155.19999694824</ele>
        <time>2024-05-21T06:57:05.000Z</time>
      </trkpt>
      <trkpt lat="45.51607" lon="4.86301">
        <ele>155</ele>
        <time>2024-05-21T06:57:06.000Z</time>
      </trkpt>
      <trkpt lat="45.51602" lon="4.86296">
        <ele>155</ele>
        <time>2024-05-21T06:57:07.000Z</time>
      </trkpt>
      <trkpt lat="45.51598" lon="4.86292">
        <ele>155</ele>
        <time>2024-05-21T06:57:08.000Z</time>
      </trkpt>
      <trkpt lat="45.51594" lon="4.86288">
        <ele>155</ele>
        <time>2024-05-21T06:57:09.000Z</time>
      </trkpt>
      <trkpt lat="45.5159" lon="4.86283">
        <ele>155</ele>
        <time>2024-05-21T06:57:10.000Z</time>
      </trkpt>
      <trkpt lat="45.51585" lon="4.86278">
        <ele>155</ele>
        <time>2024-05-21T06:57:11.000Z</time>
      </trkpt>
      <trkpt lat="45.51581" lon="4.86274">
        <ele>155</ele>
        <time>2024-05-21T06:57:12.000Z</time>
      </trkpt>
      <trkpt lat="45.51577" lon="4.8627">
        <ele>155</ele>
        <time>2024-05-21T06:57:13.000Z</time>
      </trkpt>
      <trkpt lat="45.51573" lon="4.86265">
        <ele>155</ele>
        <time>2024-05-21T06:57:14.000Z</time>
      </trkpt>
      <trkpt lat="45.51568" lon="4.86261">
        <ele>155.19999694824</ele>
        <time>2024-05-21T06:57:15.000Z</time>
      </trkpt>
      <trkpt lat="45.51563" lon="4.86256">
        <ele>155.19999694824</ele>
        <time>2024-05-21T06:57:16.000Z</time>
      </trkpt>
      <trkpt lat="45.51559" lon="4.86251">
        <ele>155.19999694824</ele>
        <time>2024-05-21T06:57:17.000Z</time>
      </trkpt>
      <trkpt lat="45.51554" lon="4.86246">
        <ele>155.19999694824</ele>
        <time>2024-05-21T06:57:18.000Z</time>
      </trkpt>
      <trkpt lat="45.51549" lon="4.86241">
        <ele>155.19999694824</ele>
        <time>2024-05-21T06:57:19.000Z</time>
      </trkpt>
      <trkpt lat="45.51544" lon="4.86236">
        <ele>155.19999694824</ele>
        <time>2024-05-21T06:57:20.000Z</time>
      </trkpt>
      <trkpt lat="45.51539" lon="4.86231">
        <ele>155.19999694824</ele>
        <time>2024-05-21T06:57:21.000Z</time>
      </trkpt>
      <trkpt lat="45.51534" lon="4.86227">
        <ele>155.19999694824</ele>
        <time>2024-05-21T06:57:22.000Z</time>
      </trkpt>
      <trkpt lat="45.51529" lon="4.86223">
        <ele>155.19999694824</ele>
        <time>2024-05-21T06:57:23.000Z</time>
      </trkpt>
      <trkpt lat="45.51525" lon="4.86219">
        <ele>155.19999694824</ele>
        <time>2024-05-21T06:57:24.000Z</time>
      </trkpt>
      <trkpt lat="45.5152" lon="4.86215">
        <ele>155.19999694824</ele>
        <time>2024-05-21T06:57:25.000Z</time>
      </trkpt>
      <trkpt lat="45.51516" lon="4.8621">
        <ele>155.19999694824</ele>
        <time>2024-05-21T06:57:26.000Z</time>
      </trkpt>
      <trkpt lat="45.51511" lon="4.86206">
        <ele>155.19999694824</ele>
        <time>2024-05-21T06:57:27.000Z</time>
      </trkpt>
      <trkpt lat="45.51506" lon="4.86201">
        <ele>155.19999694824</ele>
        <time>2024-05-21T06:57:28.000Z</time>
      </trkpt>
      <trkpt lat="45.51502" lon="4.86197">
        <ele>155.19999694824</ele>
        <time>2024-05-21T06:57:29.000Z</time>
      </trkpt>
      <trkpt lat="45.51498" lon="4.86193">
        <ele>155</ele>
        <time>2024-05-21T06:57:30.000Z</time>
      </trkpt>
      <trkpt lat="45.51494" lon="4.86189">
        <ele>155</ele>
        <time>2024-05-21T06:57:31.000Z</time>
      </trkpt>
      <trkpt lat="45.51489" lon="4.86184">
        <ele>155</ele>
        <time>2024-05-21T06:57:32.000Z</time>
      </trkpt>
      <trkpt lat="45.51485" lon="4.8618">
        <ele>155</ele>
        <time>2024-05-21T06:57:33.000Z</time>
      </trkpt>
      <trkpt lat="45.51481" lon="4.86176">
        <ele>155</ele>
        <time>2024-05-21T06:57:34.000Z</time>
      </trkpt>
      <trkpt lat="45.51477" lon="4.86172">
        <ele>155</ele>
        <time>2024-05-21T06:57:35.000Z</time>
      </trkpt>
      <trkpt lat="45.51474" lon="4.86168">
        <ele>155</ele>
        <time>2024-05-21T06:57:36.000Z</time>
      </trkpt>
      <trkpt lat="45.5147" lon="4.86164">
        <ele>155</ele>
        <time>2024-05-21T06:57:37.000Z</time>
      </trkpt>
      <trkpt lat="45.51466" lon="4.86159">
        <ele>155</ele>
        <time>2024-05-21T06:57:38.000Z</time>
      </trkpt>
      <trkpt lat="45.51462" lon="4.86155">
        <ele>154.80000305176</ele>
        <time>2024-05-21T06:57:39.000Z</time>
      </trkpt>
      <trkpt lat="45.51458" lon="4.8615">
        <ele>154.80000305176</ele>
        <time>2024-05-21T06:57:40.000Z</time>
      </trkpt>
      <trkpt lat="45.51454" lon="4.86145">
        <ele>154.80000305176</ele>
        <time>2024-05-21T06:57:41.000Z</time>
      </trkpt>
      <trkpt lat="45.51449" lon="4.86139">
        <ele>154.80000305176</ele>
        <time>2024-05-21T06:57:42.000Z</time>
      </trkpt>
      <trkpt lat="45.51445" lon="4.86134">
        <ele>154.80000305176</ele>
        <time>2024-05-21T06:57:43.000Z</time>
      </trkpt>
      <trkpt lat="45.5144" lon="4.86128">
        <ele>154.80000305176</ele>
        <time>2024-05-21T06:57:44.000Z</time>
      </trkpt>
      <trkpt lat="45.51436" lon="4.86123">
        <ele>154.80000305176</ele>
        <time>2024-05-21T06:57:45.000Z</time>
      </trkpt>
      <trkpt lat="45.51431" lon="4.86117">
        <ele>154.60000610352</ele>
        <time>2024-05-21T06:57:46.000Z</time>
      </trkpt>
      <trkpt lat="45.51427" lon="4.86112">
        <ele>154.60000610352</ele>
        <time>2024-05-21T06:57:47.000Z</time>
      </trkpt>
      <trkpt lat="45.51422" lon="4.86106">
        <ele>154.60000610352</ele>
        <time>2024-05-21T06:57:48.000Z</time>
      </trkpt>
      <trkpt lat="45.51418" lon="4.86101">
        <ele>154.39999389648</ele>
        <time>2024-05-21T06:57:49.000Z</time>
      </trkpt>
      <trkpt lat="45.51414" lon="4.86096">
        <ele>154.39999389648</ele>
        <time>2024-05-21T06:57:50.000Z</time>
      </trkpt>
      <trkpt lat="45.51409" lon="4.86091">
        <ele>154.39999389648</ele>
        <time>2024-05-21T06:57:51.000Z</time>
      </trkpt>
      <trkpt lat="45.51405" lon="4.86086">
        <ele>154.19999694824</ele>
        <time>2024-05-21T06:57:52.000Z</time>
      </trkpt>
      <trkpt lat="45.514" lon="4.86081">
        <ele>154.19999694824</ele>
        <time>2024-05-21T06:57:53.000Z</time>
      </trkpt>
      <trkpt lat="45.51396" lon="4.86076">
        <ele>154.19999694824</ele>
        <time>2024-05-21T06:57:54.000Z</time>
      </trkpt>
      <trkpt lat="45.51392" lon="4.8607">
        <ele>154.19999694824</ele>
        <time>2024-05-21T06:57:55.000Z</time>
      </trkpt>
      <trkpt lat="45.51387" lon="4.86065">
        <ele>154.19999694824</ele>
        <time>2024-05-21T06:57:56.000Z</time>
      </trkpt>
      <trkpt lat="45.51383" lon="4.8606">
        <ele>154.19999694824</ele>
        <time>2024-05-21T06:57:57.000Z</time>
      </trkpt>
      <trkpt lat="45.51378" lon="4.86055">
        <ele>154.19999694824</ele>
        <time>2024-05-21T06:57:58.000Z</time>
      </trkpt>
      <trkpt lat="45.51374" lon="4.8605">
        <ele>154.19999694824</ele>
        <time>2024-05-21T06:57:59.000Z</time>
      </trkpt>
      <trkpt lat="45.5137" lon="4.86044">
        <ele>154.19999694824</ele>
        <time>2024-05-21T06:58:00.000Z</time>
      </trkpt>
      <trkpt lat="45.51365" lon="4.86039">
        <ele>154</ele>
        <time>2024-05-21T06:58:01.000Z</time>
      </trkpt>
      <trkpt lat="45.51361" lon="4.86034">
        <ele>154</ele>
        <time>2024-05-21T06:58:02.000Z</time>
      </trkpt>
      <trkpt lat="45.51356" lon="4.86029">
        <ele>154</ele>
        <time>2024-05-21T06:58:03.000Z</time>
      </trkpt>
      <trkpt lat="45.51352" lon="4.86024">
        <ele>154</ele>
        <time>2024-05-21T06:58:04.000Z</time>
      </trkpt>
      <trkpt lat="45.51347" lon="4.86018">
        <ele>154</ele>
        <time>2024-05-21T06:58:05.000Z</time>
      </trkpt>
      <trkpt lat="45.51343" lon="4.86013">
        <ele>154</ele>
        <time>2024-05-21T06:58:06.000Z</time>
      </trkpt>
      <trkpt lat="45.51343" lon="4.86013">
        <ele>154</ele>
        <time>2024-05-21T06:58:07.000Z</time>
      </trkpt>
      <trkpt lat="45.51334" lon="4.86002">
        <ele>154</ele>
        <time>2024-05-21T06:58:08.000Z</time>
      </trkpt>
      <trkpt lat="45.5133" lon="4.85997">
        <ele>154</ele>
        <time>2024-05-21T06:58:09.000Z</time>
      </trkpt>
      <trkpt lat="45.51326" lon="4.85991">
        <ele>154</ele>
        <time>2024-05-21T06:58:10.000Z</time>
      </trkpt>
      <trkpt lat="45.51322" lon="4.85985">
        <ele>154</ele>
        <time>2024-05-21T06:58:11.000Z</time>
      </trkpt>
      <trkpt lat="45.51317" lon="4.8598">
        <ele>154</ele>
        <time>2024-05-21T06:58:12.000Z</time>
      </trkpt>
      <trkpt lat="45.51313" lon="4.85974">
        <ele>154</ele>
        <time>2024-05-21T06:58:13.000Z</time>
      </trkpt>
      <trkpt lat="45.51309" lon="4.85969">
        <ele>154</ele>
        <time>2024-05-21T06:58:14.000Z</time>
      </trkpt>
      <trkpt lat="45.51305" lon="4.85964">
        <ele>154</ele>
        <time>2024-05-21T06:58:15.000Z</time>
      </trkpt>
      <trkpt lat="45.513" lon="4.85958">
        <ele>153.80000305176</ele>
        <time>2024-05-21T06:58:16.000Z</time>
      </trkpt>
      <trkpt lat="45.51296" lon="4.85953">
        <ele>153.80000305176</ele>
        <time>2024-05-21T06:58:17.000Z</time>
      </trkpt>
      <trkpt lat="45.51292" lon="4.85948">
        <ele>153.80000305176</ele>
        <time>2024-05-21T06:58:18.000Z</time>
      </trkpt>
      <trkpt lat="45.51287" lon="4.85943">
        <ele>153.80000305176</ele>
        <time>2024-05-21T06:58:19.000Z</time>
      </trkpt>
      <trkpt lat="45.51283" lon="4.85937">
        <ele>153.60000610352</ele>
        <time>2024-05-21T06:58:20.000Z</time>
      </trkpt>
      <trkpt lat="45.51279" lon="4.85932">
        <ele>153.60000610352</ele>
        <time>2024-05-21T06:58:21.000Z</time>
      </trkpt>
      <trkpt lat="45.51274" lon="4.85927">
        <ele>153.60000610352</ele>
        <time>2024-05-21T06:58:22.000Z</time>
      </trkpt>
      <trkpt lat="45.5127" lon="4.85921">
        <ele>153.60000610352</ele>
        <time>2024-05-21T06:58:23.000Z</time>
      </trkpt>
      <trkpt lat="45.51266" lon="4.85916">
        <ele>153.60000610352</ele>
        <time>2024-05-21T06:58:24.000Z</time>
      </trkpt>
      <trkpt lat="45.51262" lon="4.85911">
        <ele>153.60000610352</ele>
        <time>2024-05-21T06:58:25.000Z</time>
      </trkpt>
      <trkpt lat="45.51257" lon="4.85905">
        <ele>153.60000610352</ele>
        <time>2024-05-21T06:58:26.000Z</time>
      </trkpt>
      <trkpt lat="45.51253" lon="4.859">
        <ele>153.80000305176</ele>
        <time>2024-05-21T06:58:27.000Z</time>
      </trkpt>
      <trkpt lat="45.51249" lon="4.85895">
        <ele>153.80000305176</ele>
        <time>2024-05-21T06:58:28.000Z</time>
      </trkpt>
      <trkpt lat="45.51245" lon="4.8589">
        <ele>153.80000305176</ele>
        <time>2024-05-21T06:58:29.000Z</time>
      </trkpt>
      <trkpt lat="45.5124" lon="4.85885">
        <ele>153.80000305176</ele>
        <time>2024-05-21T06:58:30.000Z</time>
      </trkpt>
      <trkpt lat="45.51236" lon="4.8588">
        <ele>153.80000305176</ele>
        <time>2024-05-21T06:58:31.000Z</time>
      </trkpt>
      <trkpt lat="45.51233" lon="4.85875">
        <ele>154</ele>
        <time>2024-05-21T06:58:32.000Z</time>
      </trkpt>
      <trkpt lat="45.51229" lon="4.8587">
        <ele>154</ele>
        <time>2024-05-21T06:58:33.000Z</time>
      </trkpt>
      <trkpt lat="45.51229" lon="4.8587">
        <ele>154</ele>
        <time>2024-05-21T06:58:34.000Z</time>
      </trkpt>
      <trkpt lat="45.51221" lon="4.8586">
        <ele>154</ele>
        <time>2024-05-21T06:58:35.000Z</time>
      </trkpt>
      <trkpt lat="45.51217" lon="4.85855">
        <ele>154</ele>
        <time>2024-05-21T06:58:36.000Z</time>
      </trkpt>
      <trkpt lat="45.51214" lon="4.8585">
        <ele>154</ele>
        <time>2024-05-21T06:58:37.000Z</time>
      </trkpt>
      <trkpt lat="45.51209" lon="4.85845">
        <ele>154</ele>
        <time>2024-05-21T06:58:38.000Z</time>
      </trkpt>
      <trkpt lat="45.51205" lon="4.8584">
        <ele>154</ele>
        <time>2024-05-21T06:58:39.000Z</time>
      </trkpt>
      <trkpt lat="45.512" lon="4.85834">
        <ele>154</ele>
        <time>2024-05-21T06:58:40.000Z</time>
      </trkpt>
      <trkpt lat="45.51196" lon="4.85829">
        <ele>153.80000305176</ele>
        <time>2024-05-21T06:58:41.000Z</time>
      </trkpt>
      <trkpt lat="45.51193" lon="4.85824">
        <ele>153.80000305176</ele>
        <time>2024-05-21T06:58:42.000Z</time>
      </trkpt>
      <trkpt lat="45.51189" lon="4.85819">
        <ele>153.80000305176</ele>
        <time>2024-05-21T06:58:43.000Z</time>
      </trkpt>
      <trkpt lat="45.51185" lon="4.85814">
        <ele>153.80000305176</ele>
        <time>2024-05-21T06:58:44.000Z</time>
      </trkpt>
      <trkpt lat="45.5118" lon="4.85809">
        <ele>153.80000305176</ele>
        <time>2024-05-21T06:58:45.000Z</time>
      </trkpt>
      <trkpt lat="45.51176" lon="4.85803">
        <ele>153.80000305176</ele>
        <time>2024-05-21T06:58:46.000Z</time>
      </trkpt>
      <trkpt lat="45.51172" lon="4.85798">
        <ele>153.80000305176</ele>
        <time>2024-05-21T06:58:47.000Z</time>
      </trkpt>
      <trkpt lat="45.51168" lon="4.85793">
        <ele>154</ele>
        <time>2024-05-21T06:58:48.000Z</time>
      </trkpt>
      <trkpt lat="45.51164" lon="4.85788">
        <ele>154</ele>
        <time>2024-05-21T06:58:49.000Z</time>
      </trkpt>
      <trkpt lat="45.5116" lon="4.85783">
        <ele>154</ele>
        <time>2024-05-21T06:58:50.000Z</time>
      </trkpt>
      <trkpt lat="45.51156" lon="4.85777">
        <ele>154</ele>
        <time>2024-05-21T06:58:51.000Z</time>
      </trkpt>
      <trkpt lat="45.51152" lon="4.85772">
        <ele>154</ele>
        <time>2024-05-21T06:58:52.000Z</time>
      </trkpt>
      <trkpt lat="45.51148" lon="4.85767">
        <ele>154</ele>
        <time>2024-05-21T06:58:53.000Z</time>
      </trkpt>
      <trkpt lat="45.51145" lon="4.85762">
        <ele>154</ele>
        <time>2024-05-21T06:58:54.000Z</time>
      </trkpt>
      <trkpt lat="45.51141" lon="4.85757">
        <ele>154</ele>
        <time>2024-05-21T06:58:55.000Z</time>
      </trkpt>
      <trkpt lat="45.51137" lon="4.85752">
        <ele>154</ele>
        <time>2024-05-21T06:58:56.000Z</time>
      </trkpt>
      <trkpt lat="45.51133" lon="4.85747">
        <ele>154</ele>
        <time>2024-05-21T06:58:57.000Z</time>
      </trkpt>
      <trkpt lat="45.51128" lon="4.85742">
        <ele>154</ele>
        <time>2024-05-21T06:58:58.000Z</time>
      </trkpt>
      <trkpt lat="45.51125" lon="4.85738">
        <ele>154</ele>
        <time>2024-05-21T06:58:59.000Z</time>
      </trkpt>
      <trkpt lat="45.51121" lon="4.85733">
        <ele>154</ele>
        <time>2024-05-21T06:59:00.000Z</time>
      </trkpt>
      <trkpt lat="45.51118" lon="4.85728">
        <ele>154</ele>
        <time>2024-05-21T06:59:01.000Z</time>
      </trkpt>
      <trkpt lat="45.51114" lon="4.85723">
        <ele>154</ele>
        <time>2024-05-21T06:59:02.000Z</time>
      </trkpt>
      <trkpt lat="45.51111" lon="4.85719">
        <ele>154</ele>
        <time>2024-05-21T06:59:03.000Z</time>
      </trkpt>
      <trkpt lat="45.51107" lon="4.85716">
        <ele>154</ele>
        <time>2024-05-21T06:59:04.000Z</time>
      </trkpt>
      <trkpt lat="45.51104" lon="4.85712">
        <ele>154</ele>
        <time>2024-05-21T06:59:05.000Z</time>
      </trkpt>
      <trkpt lat="45.51102" lon="4.8571">
        <ele>154</ele>
        <time>2024-05-21T06:59:06.000Z</time>
      </trkpt>
      <trkpt lat="45.51101" lon="4.85709">
        <ele>154.19999694824</ele>
        <time>2024-05-21T06:59:07.000Z</time>
      </trkpt>
      <trkpt lat="45.511" lon="4.85708">
        <ele>154.19999694824</ele>
        <time>2024-05-21T06:59:08.000Z</time>
      </trkpt>
      <trkpt lat="45.51098" lon="4.85706">
        <ele>154.39999389648</ele>
        <time>2024-05-21T06:59:09.000Z</time>
      </trkpt>
      <trkpt lat="45.51097" lon="4.85703">
        <ele>154.80000305176</ele>
        <time>2024-05-21T06:59:10.000Z</time>
      </trkpt>
      <trkpt lat="45.51095" lon="4.857">
        <ele>155</ele>
        <time>2024-05-21T06:59:11.000Z</time>
      </trkpt>
      <trkpt lat="45.51093" lon="4.85697">
        <ele>155</ele>
        <time>2024-05-21T06:59:12.000Z</time>
      </trkpt>
      <trkpt lat="45.51091" lon="4.85695">
        <ele>155</ele>
        <time>2024-05-21T06:59:13.000Z</time>
      </trkpt>
      <trkpt lat="45.51088" lon="4.85693">
        <ele>155</ele>
        <time>2024-05-21T06:59:14.000Z</time>
      </trkpt>
      <trkpt lat="45.51085" lon="4.8569">
        <ele>155</ele>
        <time>2024-05-21T06:59:15.000Z</time>
      </trkpt>
      <trkpt lat="45.51082" lon="4.85689">
        <ele>155</ele>
        <time>2024-05-21T06:59:16.000Z</time>
      </trkpt>
      <trkpt lat="45.51078" lon="4.85687">
        <ele>155</ele>
        <time>2024-05-21T06:59:17.000Z</time>
      </trkpt>
      <trkpt lat="45.51075" lon="4.85686">
        <ele>154.80000305176</ele>
        <time>2024-05-21T06:59:18.000Z</time>
      </trkpt>
      <trkpt lat="45.51072" lon="4.85685">
        <ele>154.80000305176</ele>
        <time>2024-05-21T06:59:19.000Z</time>
      </trkpt>
      <trkpt lat="45.5107" lon="4.85684">
        <ele>154.80000305176</ele>
        <time>2024-05-21T06:59:20.000Z</time>
      </trkpt>
      <trkpt lat="45.51068" lon="4.85682">
        <ele>154.80000305176</ele>
        <time>2024-05-21T06:59:21.000Z</time>
      </trkpt>
      <trkpt lat="45.51066" lon="4.8568">
        <ele>154.80000305176</ele>
        <time>2024-05-21T06:59:22.000Z</time>
      </trkpt>
      <trkpt lat="45.51064" lon="4.85678">
        <ele>154.80000305176</ele>
        <time>2024-05-21T06:59:23.000Z</time>
      </trkpt>
      <trkpt lat="45.51062" lon="4.85675">
        <ele>154.80000305176</ele>
        <time>2024-05-21T06:59:24.000Z</time>
      </trkpt>
      <trkpt lat="45.51059" lon="4.85672">
        <ele>154.80000305176</ele>
        <time>2024-05-21T06:59:25.000Z</time>
      </trkpt>
      <trkpt lat="45.51056" lon="4.85669">
        <ele>154.80000305176</ele>
        <time>2024-05-21T06:59:26.000Z</time>
      </trkpt>
      <trkpt lat="45.51054" lon="4.85665">
        <ele>154.80000305176</ele>
        <time>2024-05-21T06:59:27.000Z</time>
      </trkpt>
      <trkpt lat="45.51051" lon="4.85661">
        <ele>154.80000305176</ele>
        <time>2024-05-21T06:59:28.000Z</time>
      </trkpt>
      <trkpt lat="45.51048" lon="4.85658">
        <ele>154.80000305176</ele>
        <time>2024-05-21T06:59:29.000Z</time>
      </trkpt>
      <trkpt lat="45.51045" lon="4.85655">
        <ele>154.60000610352</ele>
        <time>2024-05-21T06:59:30.000Z</time>
      </trkpt>
      <trkpt lat="45.51042" lon="4.85651">
        <ele>154.60000610352</ele>
        <time>2024-05-21T06:59:31.000Z</time>
      </trkpt>
      <trkpt lat="45.51039" lon="4.85648">
        <ele>154.80000305176</ele>
        <time>2024-05-21T06:59:32.000Z</time>
      </trkpt>
      <trkpt lat="45.51037" lon="4.85645">
        <ele>154.80000305176</ele>
        <time>2024-05-21T06:59:33.000Z</time>
      </trkpt>
      <trkpt lat="45.51035" lon="4.85643">
        <ele>154.80000305176</ele>
        <time>2024-05-21T06:59:34.000Z</time>
      </trkpt>
      <trkpt lat="45.51034" lon="4.8564">
        <ele>154.80000305176</ele>
        <time>2024-05-21T06:59:35.000Z</time>
      </trkpt>
      <trkpt lat="45.51033" lon="4.85639">
        <ele>155</ele>
        <time>2024-05-21T06:59:36.000Z</time>
      </trkpt>
      <trkpt lat="45.51032" lon="4.85639">
        <ele>155</ele>
        <time>2024-05-21T06:59:37.000Z</time>
      </trkpt>
      <trkpt lat="45.51032" lon="4.85638">
        <ele>155.19999694824</ele>
        <time>2024-05-21T06:59:38.000Z</time>
      </trkpt>
      <trkpt lat="45.5103" lon="4.85633">
        <ele>155.60000610352</ele>
        <time>2024-05-21T06:59:40.000Z</time>
      </trkpt>
      <trkpt lat="45.51028" lon="4.85632">
        <ele>155.60000610352</ele>
        <time>2024-05-21T06:59:41.000Z</time>
      </trkpt>
      <trkpt lat="45.51027" lon="4.8563">
        <ele>155.60000610352</ele>
        <time>2024-05-21T06:59:42.000Z</time>
      </trkpt>
      <trkpt lat="45.51026" lon="4.85629">
        <ele>155.60000610352</ele>
        <time>2024-05-21T06:59:43.000Z</time>
      </trkpt>
      <trkpt lat="45.51026" lon="4.85627">
        <ele>155.60000610352</ele>
        <time>2024-05-21T06:59:44.000Z</time>
      </trkpt>
      <trkpt lat="45.51025" lon="4.85624">
        <ele>155.60000610352</ele>
        <time>2024-05-21T06:59:45.000Z</time>
      </trkpt>
      <trkpt lat="45.51024" lon="4.85622">
        <ele>155.80000305176</ele>
        <time>2024-05-21T06:59:46.000Z</time>
      </trkpt>
      <trkpt lat="45.51024" lon="4.85619">
        <ele>155.60000610352</ele>
        <time>2024-05-21T06:59:47.000Z</time>
      </trkpt>
      <trkpt lat="45.51024" lon="4.85616">
        <ele>155.60000610352</ele>
        <time>2024-05-21T06:59:48.000Z</time>
      </trkpt>
      <trkpt lat="45.51025" lon="4.85613">
        <ele>155.60000610352</ele>
        <time>2024-05-21T06:59:49.000Z</time>
      </trkpt>
      <trkpt lat="45.51025" lon="4.85611">
        <ele>155.60000610352</ele>
        <time>2024-05-21T06:59:50.000Z</time>
      </trkpt>
      <trkpt lat="45.51026" lon="4.85609">
        <ele>155.60000610352</ele>
        <time>2024-05-21T06:59:51.000Z</time>
      </trkpt>
      <trkpt lat="45.51026" lon="4.85606">
        <ele>155.60000610352</ele>
        <time>2024-05-21T06:59:52.000Z</time>
      </trkpt>
      <trkpt lat="45.51027" lon="4.85604">
        <ele>155.60000610352</ele>
        <time>2024-05-21T06:59:53.000Z</time>
      </trkpt>
      <trkpt lat="45.51028" lon="4.85602">
        <ele>155.60000610352</ele>
        <time>2024-05-21T06:59:54.000Z</time>
      </trkpt>
      <trkpt lat="45.51029" lon="4.85601">
        <ele>155.60000610352</ele>
        <time>2024-05-21T06:59:55.000Z</time>
      </trkpt>
      <trkpt lat="45.5103" lon="4.85599">
        <ele>155.60000610352</ele>
        <time>2024-05-21T06:59:56.000Z</time>
      </trkpt>
      <trkpt lat="45.51031" lon="4.85598">
        <ele>155.60000610352</ele>
        <time>2024-05-21T06:59:57.000Z</time>
      </trkpt>
      <trkpt lat="45.51032" lon="4.85596">
        <ele>155.80000305176</ele>
        <time>2024-05-21T06:59:58.000Z</time>
      </trkpt>
      <trkpt lat="45.51034" lon="4.85595">
        <ele>155.80000305176</ele>
        <time>2024-05-21T06:59:59.000Z</time>
      </trkpt>
      <trkpt lat="45.51035" lon="4.85593">
        <ele>155.80000305176</ele>
        <time>2024-05-21T07:00:00.000Z</time>
      </trkpt>
      <trkpt lat="45.51036" lon="4.85593">
        <ele>155.80000305176</ele>
        <time>2024-05-21T07:00:01.000Z</time>
      </trkpt>
      <trkpt lat="45.51037" lon="4.85592">
        <ele>155.80000305176</ele>
        <time>2024-05-21T07:00:02.000Z</time>
      </trkpt>
      <trkpt lat="45.51039" lon="4.85587">
        <ele>155.80000305176</ele>
        <time>2024-05-21T07:00:04.000Z</time>
      </trkpt>
      <trkpt lat="45.51038" lon="4.85583">
        <ele>155.80000305176</ele>
        <time>2024-05-21T07:00:05.000Z</time>
      </trkpt>
      <trkpt lat="45.51037" lon="4.8558">
        <ele>155.80000305176</ele>
        <time>2024-05-21T07:00:06.000Z</time>
      </trkpt>
      <trkpt lat="45.51035" lon="4.85577">
        <ele>155.80000305176</ele>
        <time>2024-05-21T07:00:07.000Z</time>
      </trkpt>
      <trkpt lat="45.51033" lon="4.85574">
        <ele>155.80000305176</ele>
        <time>2024-05-21T07:00:08.000Z</time>
      </trkpt>
      <trkpt lat="45.5103" lon="4.8557">
        <ele>155.80000305176</ele>
        <time>2024-05-21T07:00:09.000Z</time>
      </trkpt>
      <trkpt lat="45.51027" lon="4.85567">
        <ele>155.60000610352</ele>
        <time>2024-05-21T07:00:10.000Z</time>
      </trkpt>
      <trkpt lat="45.51024" lon="4.85564">
        <ele>155.60000610352</ele>
        <time>2024-05-21T07:00:11.000Z</time>
      </trkpt>
      <trkpt lat="45.51021" lon="4.8556">
        <ele>155.39999389648</ele>
        <time>2024-05-21T07:00:12.000Z</time>
      </trkpt>
      <trkpt lat="45.51018" lon="4.85556">
        <ele>155.39999389648</ele>
        <time>2024-05-21T07:00:13.000Z</time>
      </trkpt>
      <trkpt lat="45.51014" lon="4.85552">
        <ele>155.39999389648</ele>
        <time>2024-05-21T07:00:14.000Z</time>
      </trkpt>
      <trkpt lat="45.51011" lon="4.85548">
        <ele>155.39999389648</ele>
        <time>2024-05-21T07:00:15.000Z</time>
      </trkpt>
      <trkpt lat="45.51008" lon="4.85544">
        <ele>155.39999389648</ele>
        <time>2024-05-21T07:00:16.000Z</time>
      </trkpt>
      <trkpt lat="45.51004" lon="4.85539">
        <ele>155.39999389648</ele>
        <time>2024-05-21T07:00:17.000Z</time>
      </trkpt>
      <trkpt lat="45.51001" lon="4.85535">
        <ele>155.39999389648</ele>
        <time>2024-05-21T07:00:18.000Z</time>
      </trkpt>
      <trkpt lat="45.50998" lon="4.8553">
        <ele>155.39999389648</ele>
        <time>2024-05-21T07:00:19.000Z</time>
      </trkpt>
      <trkpt lat="45.50994" lon="4.85526">
        <ele>155.39999389648</ele>
        <time>2024-05-21T07:00:20.000Z</time>
      </trkpt>
      <trkpt lat="45.50991" lon="4.85522">
        <ele>155.39999389648</ele>
        <time>2024-05-21T07:00:21.000Z</time>
      </trkpt>
      <trkpt lat="45.50987" lon="4.85517">
        <ele>155.39999389648</ele>
        <time>2024-05-21T07:00:22.000Z</time>
      </trkpt>
      <trkpt lat="45.50984" lon="4.85512">
        <ele>155.39999389648</ele>
        <time>2024-05-21T07:00:23.000Z</time>
      </trkpt>
      <trkpt lat="45.5098" lon="4.85507">
        <ele>155.60000610352</ele>
        <time>2024-05-21T07:00:24.000Z</time>
      </trkpt>
      <trkpt lat="45.50976" lon="4.85502">
        <ele>155.60000610352</ele>
        <time>2024-05-21T07:00:25.000Z</time>
      </trkpt>
      <trkpt lat="45.50972" lon="4.85497">
        <ele>155.60000610352</ele>
        <time>2024-05-21T07:00:26.000Z</time>
      </trkpt>
      <trkpt lat="45.50968" lon="4.85492">
        <ele>155.60000610352</ele>
        <time>2024-05-21T07:00:27.000Z</time>
      </trkpt>
      <trkpt lat="45.50964" lon="4.85487">
        <ele>155.60000610352</ele>
        <time>2024-05-21T07:00:28.000Z</time>
      </trkpt>
      <trkpt lat="45.5096" lon="4.85482">
        <ele>155.60000610352</ele>
        <time>2024-05-21T07:00:29.000Z</time>
      </trkpt>
      <trkpt lat="45.50956" lon="4.85477">
        <ele>155.60000610352</ele>
        <time>2024-05-21T07:00:30.000Z</time>
      </trkpt>
      <trkpt lat="45.50952" lon="4.85472">
        <ele>155.39999389648</ele>
        <time>2024-05-21T07:00:31.000Z</time>
      </trkpt>
      <trkpt lat="45.50948" lon="4.85467">
        <ele>155.39999389648</ele>
        <time>2024-05-21T07:00:32.000Z</time>
      </trkpt>
      <trkpt lat="45.50944" lon="4.85462">
        <ele>155.39999389648</ele>
        <time>2024-05-21T07:00:33.000Z</time>
      </trkpt>
      <trkpt lat="45.5094" lon="4.85458">
        <ele>155.39999389648</ele>
        <time>2024-05-21T07:00:34.000Z</time>
      </trkpt>
      <trkpt lat="45.50935" lon="4.85453">
        <ele>155.39999389648</ele>
        <time>2024-05-21T07:00:35.000Z</time>
      </trkpt>
      <trkpt lat="45.50931" lon="4.85448">
        <ele>155.39999389648</ele>
        <time>2024-05-21T07:00:36.000Z</time>
      </trkpt>
      <trkpt lat="45.50926" lon="4.85443">
        <ele>155.39999389648</ele>
        <time>2024-05-21T07:00:37.000Z</time>
      </trkpt>
      <trkpt lat="45.50921" lon="4.85438">
        <ele>155.39999389648</ele>
        <time>2024-05-21T07:00:38.000Z</time>
      </trkpt>
      <trkpt lat="45.50917" lon="4.85434">
        <ele>155.39999389648</ele>
        <time>2024-05-21T07:00:39.000Z</time>
      </trkpt>
      <trkpt lat="45.50912" lon="4.85429">
        <ele>155.39999389648</ele>
        <time>2024-05-21T07:00:40.000Z</time>
      </trkpt>
      <trkpt lat="45.50907" lon="4.85425">
        <ele>155.39999389648</ele>
        <time>2024-05-21T07:00:41.000Z</time>
      </trkpt>
      <trkpt lat="45.50903" lon="4.8542">
        <ele>155.39999389648</ele>
        <time>2024-05-21T07:00:42.000Z</time>
      </trkpt>
      <trkpt lat="45.50898" lon="4.85416">
        <ele>155.39999389648</ele>
        <time>2024-05-21T07:00:43.000Z</time>
      </trkpt>
      <trkpt lat="45.50893" lon="4.85411">
        <ele>155.39999389648</ele>
        <time>2024-05-21T07:00:44.000Z</time>
      </trkpt>
      <trkpt lat="45.50889" lon="4.85407">
        <ele>155.39999389648</ele>
        <time>2024-05-21T07:00:45.000Z</time>
      </trkpt>
      <trkpt lat="45.50884" lon="4.85402">
        <ele>155.19999694824</ele>
        <time>2024-05-21T07:00:46.000Z</time>
      </trkpt>
      <trkpt lat="45.5088" lon="4.85397">
        <ele>155.19999694824</ele>
        <time>2024-05-21T07:00:47.000Z</time>
      </trkpt>
      <trkpt lat="45.50876" lon="4.85392">
        <ele>155.19999694824</ele>
        <time>2024-05-21T07:00:48.000Z</time>
      </trkpt>
      <trkpt lat="45.50872" lon="4.85387">
        <ele>155.19999694824</ele>
        <time>2024-05-21T07:00:49.000Z</time>
      </trkpt>
      <trkpt lat="45.50868" lon="4.85381">
        <ele>155.19999694824</ele>
        <time>2024-05-21T07:00:50.000Z</time>
      </trkpt>
      <trkpt lat="45.50864" lon="4.85375">
        <ele>155.19999694824</ele>
        <time>2024-05-21T07:00:51.000Z</time>
      </trkpt>
      <trkpt lat="45.5086" lon="4.85369">
        <ele>155.19999694824</ele>
        <time>2024-05-21T07:00:52.000Z</time>
      </trkpt>
      <trkpt lat="45.50856" lon="4.85364">
        <ele>155</ele>
        <time>2024-05-21T07:00:53.000Z</time>
      </trkpt>
      <trkpt lat="45.50852" lon="4.85359">
        <ele>155</ele>
        <time>2024-05-21T07:00:54.000Z</time>
      </trkpt>
      <trkpt lat="45.50848" lon="4.85355">
        <ele>155</ele>
        <time>2024-05-21T07:00:55.000Z</time>
      </trkpt>
      <trkpt lat="45.50843" lon="4.85351">
        <ele>155</ele>
        <time>2024-05-21T07:00:56.000Z</time>
      </trkpt>
      <trkpt lat="45.50839" lon="4.85347">
        <ele>155</ele>
        <time>2024-05-21T07:00:57.000Z</time>
      </trkpt>
      <trkpt lat="45.50835" lon="4.85343">
        <ele>155</ele>
        <time>2024-05-21T07:00:58.000Z</time>
      </trkpt>
      <trkpt lat="45.50831" lon="4.85339">
        <ele>155</ele>
        <time>2024-05-21T07:00:59.000Z</time>
      </trkpt>
      <trkpt lat="45.50827" lon="4.85334">
        <ele>155.19999694824</ele>
        <time>2024-05-21T07:01:00.000Z</time>
      </trkpt>
      <trkpt lat="45.50822" lon="4.85329">
        <ele>155.19999694824</ele>
        <time>2024-05-21T07:01:01.000Z</time>
      </trkpt>
      <trkpt lat="45.50817" lon="4.85325">
        <ele>155.19999694824</ele>
        <time>2024-05-21T07:01:02.000Z</time>
      </trkpt>
      <trkpt lat="45.50813" lon="4.8532">
        <ele>155.19999694824</ele>
        <time>2024-05-21T07:01:03.000Z</time>
      </trkpt>
      <trkpt lat="45.50808" lon="4.85316">
        <ele>155.19999694824</ele>
        <time>2024-05-21T07:01:04.000Z</time>
      </trkpt>
      <trkpt lat="45.50804" lon="4.85311">
        <ele>155.19999694824</ele>
        <time>2024-05-21T07:01:05.000Z</time>
      </trkpt>
      <trkpt lat="45.50799" lon="4.85306">
        <ele>155.19999694824</ele>
        <time>2024-05-21T07:01:06.000Z</time>
      </trkpt>
      <trkpt lat="45.50794" lon="4.85302">
        <ele>155.19999694824</ele>
        <time>2024-05-21T07:01:07.000Z</time>
      </trkpt>
      <trkpt lat="45.5079" lon="4.85297">
        <ele>155.19999694824</ele>
        <time>2024-05-21T07:01:08.000Z</time>
      </trkpt>
      <trkpt lat="45.50785" lon="4.85293">
        <ele>155.19999694824</ele>
        <time>2024-05-21T07:01:09.000Z</time>
      </trkpt>
      <trkpt lat="45.50781" lon="4.85288">
        <ele>155.19999694824</ele>
        <time>2024-05-21T07:01:10.000Z</time>
      </trkpt>
      <trkpt lat="45.50776" lon="4.85284">
        <ele>155.19999694824</ele>
        <time>2024-05-21T07:01:11.000Z</time>
      </trkpt>
      <trkpt lat="45.50771" lon="4.85279">
        <ele>155.19999694824</ele>
        <time>2024-05-21T07:01:12.000Z</time>
      </trkpt>
      <trkpt lat="45.50766" lon="4.85274">
        <ele>155.19999694824</ele>
        <time>2024-05-21T07:01:13.000Z</time>
      </trkpt>
      <trkpt lat="45.50761" lon="4.85269">
        <ele>155.19999694824</ele>
        <time>2024-05-21T07:01:14.000Z</time>
      </trkpt>
      <trkpt lat="45.50757" lon="4.85264">
        <ele>155</ele>
        <time>2024-05-21T07:01:15.000Z</time>
      </trkpt>
      <trkpt lat="45.50752" lon="4.85259">
        <ele>155</ele>
        <time>2024-05-21T07:01:16.000Z</time>
      </trkpt>
      <trkpt lat="45.50748" lon="4.85254">
        <ele>155</ele>
        <time>2024-05-21T07:01:17.000Z</time>
      </trkpt>
      <trkpt lat="45.50743" lon="4.8525">
        <ele>155</ele>
        <time>2024-05-21T07:01:18.000Z</time>
      </trkpt>
      <trkpt lat="45.50738" lon="4.85245">
        <ele>155</ele>
        <time>2024-05-21T07:01:19.000Z</time>
      </trkpt>
      <trkpt lat="45.50733" lon="4.85241">
        <ele>155</ele>
        <time>2024-05-21T07:01:20.000Z</time>
      </trkpt>
      <trkpt lat="45.50728" lon="4.85237">
        <ele>154.80000305176</ele>
        <time>2024-05-21T07:01:21.000Z</time>
      </trkpt>
      <trkpt lat="45.50723" lon="4.85232">
        <ele>154.80000305176</ele>
        <time>2024-05-21T07:01:22.000Z</time>
      </trkpt>
      <trkpt lat="45.50719" lon="4.85228">
        <ele>154.80000305176</ele>
        <time>2024-05-21T07:01:23.000Z</time>
      </trkpt>
      <trkpt lat="45.50714" lon="4.85223">
        <ele>154.80000305176</ele>
        <time>2024-05-21T07:01:24.000Z</time>
      </trkpt>
      <trkpt lat="45.50709" lon="4.85219">
        <ele>154.80000305176</ele>
        <time>2024-05-21T07:01:25.000Z</time>
      </trkpt>
      <trkpt lat="45.50704" lon="4.85215">
        <ele>155</ele>
        <time>2024-05-21T07:01:26.000Z</time>
      </trkpt>
      <trkpt lat="45.50699" lon="4.85211">
        <ele>155</ele>
        <time>2024-05-21T07:01:27.000Z</time>
      </trkpt>
      <trkpt lat="45.50695" lon="4.85206">
        <ele>155</ele>
        <time>2024-05-21T07:01:28.000Z</time>
      </trkpt>
      <trkpt lat="45.5069" lon="4.85202">
        <ele>155</ele>
        <time>2024-05-21T07:01:29.000Z</time>
      </trkpt>
      <trkpt lat="45.50686" lon="4.85197">
        <ele>155</ele>
        <time>2024-05-21T07:01:30.000Z</time>
      </trkpt>
      <trkpt lat="45.50681" lon="4.85192">
        <ele>155</ele>
        <time>2024-05-21T07:01:31.000Z</time>
      </trkpt>
      <trkpt lat="45.50676" lon="4.85186">
        <ele>155</ele>
        <time>2024-05-21T07:01:32.000Z</time>
      </trkpt>
      <trkpt lat="45.50671" lon="4.85181">
        <ele>155.19999694824</ele>
        <time>2024-05-21T07:01:33.000Z</time>
      </trkpt>
      <trkpt lat="45.50667" lon="4.85177">
        <ele>155.19999694824</ele>
        <time>2024-05-21T07:01:34.000Z</time>
      </trkpt>
      <trkpt lat="45.50662" lon="4.85172">
        <ele>155.19999694824</ele>
        <time>2024-05-21T07:01:35.000Z</time>
      </trkpt>
      <trkpt lat="45.50658" lon="4.85167">
        <ele>155.19999694824</ele>
        <time>2024-05-21T07:01:36.000Z</time>
      </trkpt>
      <trkpt lat="45.50653" lon="4.85162">
        <ele>155.19999694824</ele>
        <time>2024-05-21T07:01:37.000Z</time>
      </trkpt>
      <trkpt lat="45.50649" lon="4.85158">
        <ele>155.19999694824</ele>
        <time>2024-05-21T07:01:38.000Z</time>
      </trkpt>
      <trkpt lat="45.50645" lon="4.85153">
        <ele>155.19999694824</ele>
        <time>2024-05-21T07:01:39.000Z</time>
      </trkpt>
      <trkpt lat="45.5064" lon="4.85148">
        <ele>155.19999694824</ele>
        <time>2024-05-21T07:01:40.000Z</time>
      </trkpt>
      <trkpt lat="45.50636" lon="4.85143">
        <ele>155.19999694824</ele>
        <time>2024-05-21T07:01:41.000Z</time>
      </trkpt>
      <trkpt lat="45.50631" lon="4.85137">
        <ele>155</ele>
        <time>2024-05-21T07:01:42.000Z</time>
      </trkpt>
      <trkpt lat="45.50627" lon="4.85132">
        <ele>155</ele>
        <time>2024-05-21T07:01:43.000Z</time>
      </trkpt>
      <trkpt lat="45.50623" lon="4.85127">
        <ele>155</ele>
        <time>2024-05-21T07:01:44.000Z</time>
      </trkpt>
      <trkpt lat="45.50618" lon="4.85122">
        <ele>155</ele>
        <time>2024-05-21T07:01:45.000Z</time>
      </trkpt>
      <trkpt lat="45.50614" lon="4.85118">
        <ele>155.19999694824</ele>
        <time>2024-05-21T07:01:46.000Z</time>
      </trkpt>
      <trkpt lat="45.5061" lon="4.85113">
        <ele>155.19999694824</ele>
        <time>2024-05-21T07:01:47.000Z</time>
      </trkpt>
      <trkpt lat="45.50605" lon="4.85108">
        <ele>155.19999694824</ele>
        <time>2024-05-21T07:01:48.000Z</time>
      </trkpt>
      <trkpt lat="45.50601" lon="4.85103">
        <ele>155.19999694824</ele>
        <time>2024-05-21T07:01:49.000Z</time>
      </trkpt>
      <trkpt lat="45.50597" lon="4.85097">
        <ele>155.19999694824</ele>
        <time>2024-05-21T07:01:50.000Z</time>
      </trkpt>
      <trkpt lat="45.50592" lon="4.85091">
        <ele>155.19999694824</ele>
        <time>2024-05-21T07:01:51.000Z</time>
      </trkpt>
      <trkpt lat="45.50588" lon="4.85086">
        <ele>155.19999694824</ele>
        <time>2024-05-21T07:01:52.000Z</time>
      </trkpt>
      <trkpt lat="45.50585" lon="4.8508">
        <ele>155.19999694824</ele>
        <time>2024-05-21T07:01:53.000Z</time>
      </trkpt>
      <trkpt lat="45.50581" lon="4.85074">
        <ele>155.19999694824</ele>
        <time>2024-05-21T07:01:54.000Z</time>
      </trkpt>
      <trkpt lat="45.50577" lon="4.85067">
        <ele>155.19999694824</ele>
        <time>2024-05-21T07:01:55.000Z</time>
      </trkpt>
      <trkpt lat="45.50574" lon="4.85061">
        <ele>155.19999694824</ele>
        <time>2024-05-21T07:01:56.000Z</time>
      </trkpt>
      <trkpt lat="45.5057" lon="4.85055">
        <ele>155.19999694824</ele>
        <time>2024-05-21T07:01:57.000Z</time>
      </trkpt>
      <trkpt lat="45.50567" lon="4.85049">
        <ele>155.19999694824</ele>
        <time>2024-05-21T07:01:58.000Z</time>
      </trkpt>
      <trkpt lat="45.50563" lon="4.85043">
        <ele>155.19999694824</ele>
        <time>2024-05-21T07:01:59.000Z</time>
      </trkpt>
      <trkpt lat="45.50559" lon="4.85036">
        <ele>155.19999694824</ele>
        <time>2024-05-21T07:02:00.000Z</time>
      </trkpt>
      <trkpt lat="45.50556" lon="4.8503">
        <ele>155.19999694824</ele>
        <time>2024-05-21T07:02:01.000Z</time>
      </trkpt>
      <trkpt lat="45.50552" lon="4.85024">
        <ele>155.19999694824</ele>
        <time>2024-05-21T07:02:02.000Z</time>
      </trkpt>
      <trkpt lat="45.50549" lon="4.85017">
        <ele>155.19999694824</ele>
        <time>2024-05-21T07:02:03.000Z</time>
      </trkpt>
      <trkpt lat="45.50545" lon="4.85011">
        <ele>155.19999694824</ele>
        <time>2024-05-21T07:02:04.000Z</time>
      </trkpt>
      <trkpt lat="45.50542" lon="4.85005">
        <ele>155.19999694824</ele>
        <time>2024-05-21T07:02:05.000Z</time>
      </trkpt>
      <trkpt lat="45.50538" lon="4.84998">
        <ele>155.19999694824</ele>
        <time>2024-05-21T07:02:06.000Z</time>
      </trkpt>
      <trkpt lat="45.50535" lon="4.84992">
        <ele>155</ele>
        <time>2024-05-21T07:02:07.000Z</time>
      </trkpt>
      <trkpt lat="45.50532" lon="4.84986">
        <ele>155</ele>
        <time>2024-05-21T07:02:08.000Z</time>
      </trkpt>
      <trkpt lat="45.50528" lon="4.8498">
        <ele>155</ele>
        <time>2024-05-21T07:02:09.000Z</time>
      </trkpt>
      <trkpt lat="45.50525" lon="4.84974">
        <ele>155</ele>
        <time>2024-05-21T07:02:10.000Z</time>
      </trkpt>
      <trkpt lat="45.50522" lon="4.84967">
        <ele>155</ele>
        <time>2024-05-21T07:02:11.000Z</time>
      </trkpt>
      <trkpt lat="45.50518" lon="4.84961">
        <ele>155</ele>
        <time>2024-05-21T07:02:12.000Z</time>
      </trkpt>
      <trkpt lat="45.50514" lon="4.84955">
        <ele>155</ele>
        <time>2024-05-21T07:02:13.000Z</time>
      </trkpt>
      <trkpt lat="45.50511" lon="4.84948">
        <ele>155</ele>
        <time>2024-05-21T07:02:14.000Z</time>
      </trkpt>
      <trkpt lat="45.50507" lon="4.84942">
        <ele>155</ele>
        <time>2024-05-21T07:02:15.000Z</time>
      </trkpt>
      <trkpt lat="45.50504" lon="4.84935">
        <ele>155</ele>
        <time>2024-05-21T07:02:16.000Z</time>
      </trkpt>
      <trkpt lat="45.50501" lon="4.84929">
        <ele>155</ele>
        <time>2024-05-21T07:02:17.000Z</time>
      </trkpt>
      <trkpt lat="45.50497" lon="4.84922">
        <ele>155</ele>
        <time>2024-05-21T07:02:18.000Z</time>
      </trkpt>
      <trkpt lat="45.50494" lon="4.84916">
        <ele>155</ele>
        <time>2024-05-21T07:02:19.000Z</time>
      </trkpt>
      <trkpt lat="45.50491" lon="4.8491">
        <ele>155</ele>
        <time>2024-05-21T07:02:20.000Z</time>
      </trkpt>
      <trkpt lat="45.50488" lon="4.84903">
        <ele>155</ele>
        <time>2024-05-21T07:02:21.000Z</time>
      </trkpt>
      <trkpt lat="45.50485" lon="4.84897">
        <ele>155</ele>
        <time>2024-05-21T07:02:22.000Z</time>
      </trkpt>
      <trkpt lat="45.50481" lon="4.84891">
        <ele>155</ele>
        <time>2024-05-21T07:02:23.000Z</time>
      </trkpt>
      <trkpt lat="45.50477" lon="4.84884">
        <ele>155</ele>
        <time>2024-05-21T07:02:24.000Z</time>
      </trkpt>
      <trkpt lat="45.50474" lon="4.84877">
        <ele>154.80000305176</ele>
        <time>2024-05-21T07:02:25.000Z</time>
      </trkpt>
      <trkpt lat="45.5047" lon="4.84871">
        <ele>154.80000305176</ele>
        <time>2024-05-21T07:02:26.000Z</time>
      </trkpt>
      <trkpt lat="45.50466" lon="4.84865">
        <ele>155</ele>
        <time>2024-05-21T07:02:27.000Z</time>
      </trkpt>
      <trkpt lat="45.50463" lon="4.84858">
        <ele>155</ele>
        <time>2024-05-21T07:02:28.000Z</time>
      </trkpt>
      <trkpt lat="45.50459" lon="4.84851">
        <ele>155</ele>
        <time>2024-05-21T07:02:29.000Z</time>
      </trkpt>
      <trkpt lat="45.50456" lon="4.84845">
        <ele>154.80000305176</ele>
        <time>2024-05-21T07:02:30.000Z</time>
      </trkpt>
      <trkpt lat="45.50453" lon="4.84838">
        <ele>154.80000305176</ele>
        <time>2024-05-21T07:02:31.000Z</time>
      </trkpt>
      <trkpt lat="45.50449" lon="4.84832">
        <ele>154.80000305176</ele>
        <time>2024-05-21T07:02:32.000Z</time>
      </trkpt>
      <trkpt lat="45.50446" lon="4.84825">
        <ele>154.80000305176</ele>
        <time>2024-05-21T07:02:33.000Z</time>
      </trkpt>
      <trkpt lat="45.50442" lon="4.84819">
        <ele>154.80000305176</ele>
        <time>2024-05-21T07:02:34.000Z</time>
      </trkpt>
      <trkpt lat="45.50438" lon="4.84812">
        <ele>154.80000305176</ele>
        <time>2024-05-21T07:02:35.000Z</time>
      </trkpt>
      <trkpt lat="45.50435" lon="4.84806">
        <ele>154.80000305176</ele>
        <time>2024-05-21T07:02:36.000Z</time>
      </trkpt>
      <trkpt lat="45.50431" lon="4.848">
        <ele>154.80000305176</ele>
        <time>2024-05-21T07:02:37.000Z</time>
      </trkpt>
      <trkpt lat="45.50427" lon="4.84794">
        <ele>154.80000305176</ele>
        <time>2024-05-21T07:02:38.000Z</time>
      </trkpt>
      <trkpt lat="45.50423" lon="4.84787">
        <ele>154.80000305176</ele>
        <time>2024-05-21T07:02:39.000Z</time>
      </trkpt>
      <trkpt lat="45.5042" lon="4.84782">
        <ele>154.80000305176</ele>
        <time>2024-05-21T07:02:40.000Z</time>
      </trkpt>
      <trkpt lat="45.50416" lon="4.84775">
        <ele>154.80000305176</ele>
        <time>2024-05-21T07:02:41.000Z</time>
      </trkpt>
      <trkpt lat="45.50411" lon="4.84769">
        <ele>154.80000305176</ele>
        <time>2024-05-21T07:02:42.000Z</time>
      </trkpt>
      <trkpt lat="45.50407" lon="4.84763">
        <ele>154.80000305176</ele>
        <time>2024-05-21T07:02:43.000Z</time>
      </trkpt>
      <trkpt lat="45.50403" lon="4.84757">
        <ele>154.80000305176</ele>
        <time>2024-05-21T07:02:44.000Z</time>
      </trkpt>
      <trkpt lat="45.50399" lon="4.84752">
        <ele>154.80000305176</ele>
        <time>2024-05-21T07:02:45.000Z</time>
      </trkpt>
      <trkpt lat="45.50394" lon="4.84746">
        <ele>154.80000305176</ele>
        <time>2024-05-21T07:02:46.000Z</time>
      </trkpt>
      <trkpt lat="45.5039" lon="4.84741">
        <ele>154.80000305176</ele>
        <time>2024-05-21T07:02:47.000Z</time>
      </trkpt>
      <trkpt lat="45.50386" lon="4.84735">
        <ele>154.80000305176</ele>
        <time>2024-05-21T07:02:48.000Z</time>
      </trkpt>
      <trkpt lat="45.50382" lon="4.8473">
        <ele>154.80000305176</ele>
        <time>2024-05-21T07:02:49.000Z</time>
      </trkpt>
      <trkpt lat="45.50378" lon="4.84724">
        <ele>154.80000305176</ele>
        <time>2024-05-21T07:02:50.000Z</time>
      </trkpt>
      <trkpt lat="45.50374" lon="4.8472">
        <ele>154.80000305176</ele>
        <time>2024-05-21T07:02:51.000Z</time>
      </trkpt>
      <trkpt lat="45.5037" lon="4.84715">
        <ele>154.60000610352</ele>
        <time>2024-05-21T07:02:52.000Z</time>
      </trkpt>
      <trkpt lat="45.50365" lon="4.8471">
        <ele>154.80000305176</ele>
        <time>2024-05-21T07:02:53.000Z</time>
      </trkpt>
      <trkpt lat="45.50361" lon="4.84705">
        <ele>154.80000305176</ele>
        <time>2024-05-21T07:02:54.000Z</time>
      </trkpt>
      <trkpt lat="45.50356" lon="4.84701">
        <ele>154.60000610352</ele>
        <time>2024-05-21T07:02:55.000Z</time>
      </trkpt>
      <trkpt lat="45.50351" lon="4.84696">
        <ele>154.80000305176</ele>
        <time>2024-05-21T07:02:56.000Z</time>
      </trkpt>
      <trkpt lat="45.50347" lon="4.84691">
        <ele>154.80000305176</ele>
        <time>2024-05-21T07:02:57.000Z</time>
      </trkpt>
      <trkpt lat="45.50342" lon="4.84686">
        <ele>154.80000305176</ele>
        <time>2024-05-21T07:02:58.000Z</time>
      </trkpt>
      <trkpt lat="45.50337" lon="4.84682">
        <ele>154.80000305176</ele>
        <time>2024-05-21T07:02:59.000Z</time>
      </trkpt>
      <trkpt lat="45.50333" lon="4.84677">
        <ele>154.80000305176</ele>
        <time>2024-05-21T07:03:00.000Z</time>
      </trkpt>
      <trkpt lat="45.50328" lon="4.84673">
        <ele>154.80000305176</ele>
        <time>2024-05-21T07:03:01.000Z</time>
      </trkpt>
      <trkpt lat="45.50324" lon="4.84669">
        <ele>154.80000305176</ele>
        <time>2024-05-21T07:03:02.000Z</time>
      </trkpt>
      <trkpt lat="45.50319" lon="4.84664">
        <ele>154.80000305176</ele>
        <time>2024-05-21T07:03:03.000Z</time>
      </trkpt>
      <trkpt lat="45.50314" lon="4.84659">
        <ele>154.80000305176</ele>
        <time>2024-05-21T07:03:04.000Z</time>
      </trkpt>
      <trkpt lat="45.50309" lon="4.84655">
        <ele>154.60000610352</ele>
        <time>2024-05-21T07:03:05.000Z</time>
      </trkpt>
      <trkpt lat="45.50305" lon="4.84651">
        <ele>154.60000610352</ele>
        <time>2024-05-21T07:03:06.000Z</time>
      </trkpt>
      <trkpt lat="45.503" lon="4.84647">
        <ele>154.60000610352</ele>
        <time>2024-05-21T07:03:07.000Z</time>
      </trkpt>
      <trkpt lat="45.50295" lon="4.84643">
        <ele>154.60000610352</ele>
        <time>2024-05-21T07:03:08.000Z</time>
      </trkpt>
      <trkpt lat="45.5029" lon="4.84639">
        <ele>154.60000610352</ele>
        <time>2024-05-21T07:03:09.000Z</time>
      </trkpt>
      <trkpt lat="45.50285" lon="4.84635">
        <ele>154.60000610352</ele>
        <time>2024-05-21T07:03:10.000Z</time>
      </trkpt>
      <trkpt lat="45.5028" lon="4.84631">
        <ele>154.60000610352</ele>
        <time>2024-05-21T07:03:11.000Z</time>
      </trkpt>
      <trkpt lat="45.50276" lon="4.84627">
        <ele>154.60000610352</ele>
        <time>2024-05-21T07:03:12.000Z</time>
      </trkpt>
      <trkpt lat="45.50271" lon="4.84624">
        <ele>154.60000610352</ele>
        <time>2024-05-21T07:03:13.000Z</time>
      </trkpt>
      <trkpt lat="45.50266" lon="4.8462">
        <ele>154.60000610352</ele>
        <time>2024-05-21T07:03:14.000Z</time>
      </trkpt>
      <trkpt lat="45.50261" lon="4.84616">
        <ele>154.60000610352</ele>
        <time>2024-05-21T07:03:15.000Z</time>
      </trkpt>
      <trkpt lat="45.50256" lon="4.84613">
        <ele>154.60000610352</ele>
        <time>2024-05-21T07:03:16.000Z</time>
      </trkpt>
      <trkpt lat="45.50251" lon="4.84608">
        <ele>154.60000610352</ele>
        <time>2024-05-21T07:03:17.000Z</time>
      </trkpt>
      <trkpt lat="45.50246" lon="4.84605">
        <ele>154.60000610352</ele>
        <time>2024-05-21T07:03:18.000Z</time>
      </trkpt>
      <trkpt lat="45.50241" lon="4.84601">
        <ele>154.60000610352</ele>
        <time>2024-05-21T07:03:19.000Z</time>
      </trkpt>
      <trkpt lat="45.50236" lon="4.84597">
        <ele>154.60000610352</ele>
        <time>2024-05-21T07:03:20.000Z</time>
      </trkpt>
      <trkpt lat="45.5023" lon="4.84593">
        <ele>154.60000610352</ele>
        <time>2024-05-21T07:03:21.000Z</time>
      </trkpt>
      <trkpt lat="45.50226" lon="4.84589">
        <ele>154.39999389648</ele>
        <time>2024-05-21T07:03:22.000Z</time>
      </trkpt>
      <trkpt lat="45.50221" lon="4.84585">
        <ele>154</ele>
        <time>2024-05-21T07:03:23.000Z</time>
      </trkpt>
      <trkpt lat="45.50216" lon="4.84581">
        <ele>153.80000305176</ele>
        <time>2024-05-21T07:03:24.000Z</time>
      </trkpt>
      <trkpt lat="45.50212" lon="4.84578">
        <ele>153.60000610352</ele>
        <time>2024-05-21T07:03:25.000Z</time>
      </trkpt>
      <trkpt lat="45.50208" lon="4.84574">
        <ele>153.39999389648</ele>
        <time>2024-05-21T07:03:26.000Z</time>
      </trkpt>
      <trkpt lat="45.50204" lon="4.84571">
        <ele>153.39999389648</ele>
        <time>2024-05-21T07:03:27.000Z</time>
      </trkpt>
      <trkpt lat="45.50199" lon="4.84568">
        <ele>153.39999389648</ele>
        <time>2024-05-21T07:03:28.000Z</time>
      </trkpt>
      <trkpt lat="45.50195" lon="4.84565">
        <ele>153.39999389648</ele>
        <time>2024-05-21T07:03:29.000Z</time>
      </trkpt>
      <trkpt lat="45.50191" lon="4.84562">
        <ele>153.39999389648</ele>
        <time>2024-05-21T07:03:30.000Z</time>
      </trkpt>
      <trkpt lat="45.50187" lon="4.84559">
        <ele>153.39999389648</ele>
        <time>2024-05-21T07:03:31.000Z</time>
      </trkpt>
      <trkpt lat="45.50183" lon="4.84555">
        <ele>153.39999389648</ele>
        <time>2024-05-21T07:03:32.000Z</time>
      </trkpt>
      <trkpt lat="45.50178" lon="4.84552">
        <ele>153.60000610352</ele>
        <time>2024-05-21T07:03:33.000Z</time>
      </trkpt>
      <trkpt lat="45.50174" lon="4.84548">
        <ele>153.39999389648</ele>
        <time>2024-05-21T07:03:34.000Z</time>
      </trkpt>
      <trkpt lat="45.50169" lon="4.84544">
        <ele>153.39999389648</ele>
        <time>2024-05-21T07:03:35.000Z</time>
      </trkpt>
      <trkpt lat="45.50165" lon="4.84541">
        <ele>153.39999389648</ele>
        <time>2024-05-21T07:03:36.000Z</time>
      </trkpt>
      <trkpt lat="45.5016" lon="4.84538">
        <ele>153.60000610352</ele>
        <time>2024-05-21T07:03:37.000Z</time>
      </trkpt>
      <trkpt lat="45.50156" lon="4.84534">
        <ele>153.60000610352</ele>
        <time>2024-05-21T07:03:38.000Z</time>
      </trkpt>
      <trkpt lat="45.50151" lon="4.84531">
        <ele>153.60000610352</ele>
        <time>2024-05-21T07:03:39.000Z</time>
      </trkpt>
      <trkpt lat="45.50147" lon="4.84527">
        <ele>153.60000610352</ele>
        <time>2024-05-21T07:03:40.000Z</time>
      </trkpt>
      <trkpt lat="45.50143" lon="4.84524">
        <ele>153.60000610352</ele>
        <time>2024-05-21T07:03:41.000Z</time>
      </trkpt>
      <trkpt lat="45.50139" lon="4.84521">
        <ele>153.60000610352</ele>
        <time>2024-05-21T07:03:42.000Z</time>
      </trkpt>
      <trkpt lat="45.50135" lon="4.84518">
        <ele>153.60000610352</ele>
        <time>2024-05-21T07:03:43.000Z</time>
      </trkpt>
      <trkpt lat="45.50131" lon="4.84515">
        <ele>153.80000305176</ele>
        <time>2024-05-21T07:03:44.000Z</time>
      </trkpt>
      <trkpt lat="45.50127" lon="4.84511">
        <ele>153.80000305176</ele>
        <time>2024-05-21T07:03:45.000Z</time>
      </trkpt>
      <trkpt lat="45.50123" lon="4.84508">
        <ele>154</ele>
        <time>2024-05-21T07:03:46.000Z</time>
      </trkpt>
      <trkpt lat="45.50119" lon="4.84505">
        <ele>154.39999389648</ele>
        <time>2024-05-21T07:03:47.000Z</time>
      </trkpt>
      <trkpt lat="45.50114" lon="4.84501">
        <ele>154.39999389648</ele>
        <time>2024-05-21T07:03:48.000Z</time>
      </trkpt>
      <trkpt lat="45.5011" lon="4.84497">
        <ele>154.39999389648</ele>
        <time>2024-05-21T07:03:49.000Z</time>
      </trkpt>
      <trkpt lat="45.50105" lon="4.84493">
        <ele>154.60000610352</ele>
        <time>2024-05-21T07:03:50.000Z</time>
      </trkpt>
      <trkpt lat="45.50101" lon="4.8449">
        <ele>154.60000610352</ele>
        <time>2024-05-21T07:03:51.000Z</time>
      </trkpt>
      <trkpt lat="45.50097" lon="4.84485">
        <ele>154.60000610352</ele>
        <time>2024-05-21T07:03:52.000Z</time>
      </trkpt>
      <trkpt lat="45.50093" lon="4.84481">
        <ele>154.60000610352</ele>
        <time>2024-05-21T07:03:53.000Z</time>
      </trkpt>
      <trkpt lat="45.50089" lon="4.84477">
        <ele>154.60000610352</ele>
        <time>2024-05-21T07:03:54.000Z</time>
      </trkpt>
      <trkpt lat="45.50085" lon="4.84473">
        <ele>154.60000610352</ele>
        <time>2024-05-21T07:03:55.000Z</time>
      </trkpt>
      <trkpt lat="45.50081" lon="4.84468">
        <ele>154.39999389648</ele>
        <time>2024-05-21T07:03:56.000Z</time>
      </trkpt>
      <trkpt lat="45.50077" lon="4.84463">
        <ele>154.39999389648</ele>
        <time>2024-05-21T07:03:57.000Z</time>
      </trkpt>
      <trkpt lat="45.50073" lon="4.84458">
        <ele>154.39999389648</ele>
        <time>2024-05-21T07:03:58.000Z</time>
      </trkpt>
      <trkpt lat="45.50069" lon="4.84453">
        <ele>154.39999389648</ele>
        <time>2024-05-21T07:03:59.000Z</time>
      </trkpt>
      <trkpt lat="45.50065" lon="4.84448">
        <ele>154.39999389648</ele>
        <time>2024-05-21T07:04:00.000Z</time>
      </trkpt>
      <trkpt lat="45.50061" lon="4.84444">
        <ele>154.39999389648</ele>
        <time>2024-05-21T07:04:01.000Z</time>
      </trkpt>
      <trkpt lat="45.50057" lon="4.84439">
        <ele>154.39999389648</ele>
        <time>2024-05-21T07:04:02.000Z</time>
      </trkpt>
      <trkpt lat="45.50053" lon="4.84434">
        <ele>154.39999389648</ele>
        <time>2024-05-21T07:04:03.000Z</time>
      </trkpt>
      <trkpt lat="45.50049" lon="4.84429">
        <ele>154.39999389648</ele>
        <time>2024-05-21T07:04:04.000Z</time>
      </trkpt>
      <trkpt lat="45.50045" lon="4.84423">
        <ele>154.39999389648</ele>
        <time>2024-05-21T07:04:05.000Z</time>
      </trkpt>
      <trkpt lat="45.50041" lon="4.84418">
        <ele>154.39999389648</ele>
        <time>2024-05-21T07:04:06.000Z</time>
      </trkpt>
      <trkpt lat="45.50037" lon="4.84413">
        <ele>154.39999389648</ele>
        <time>2024-05-21T07:04:07.000Z</time>
      </trkpt>
      <trkpt lat="45.50033" lon="4.84407">
        <ele>154.39999389648</ele>
        <time>2024-05-21T07:04:08.000Z</time>
      </trkpt>
      <trkpt lat="45.50029" lon="4.84402">
        <ele>154.39999389648</ele>
        <time>2024-05-21T07:04:09.000Z</time>
      </trkpt>
      <trkpt lat="45.50026" lon="4.84396">
        <ele>154.39999389648</ele>
        <time>2024-05-21T07:04:10.000Z</time>
      </trkpt>
      <trkpt lat="45.50022" lon="4.84391">
        <ele>154.39999389648</ele>
        <time>2024-05-21T07:04:11.000Z</time>
      </trkpt>
      <trkpt lat="45.50019" lon="4.84386">
        <ele>154.39999389648</ele>
        <time>2024-05-21T07:04:12.000Z</time>
      </trkpt>
      <trkpt lat="45.50015" lon="4.8438">
        <ele>154.19999694824</ele>
        <time>2024-05-21T07:04:13.000Z</time>
      </trkpt>
      <trkpt lat="45.50012" lon="4.84374">
        <ele>154.19999694824</ele>
        <time>2024-05-21T07:04:14.000Z</time>
      </trkpt>
      <trkpt lat="45.50009" lon="4.84368">
        <ele>154.19999694824</ele>
        <time>2024-05-21T07:04:15.000Z</time>
      </trkpt>
      <trkpt lat="45.50006" lon="4.84361">
        <ele>154.19999694824</ele>
        <time>2024-05-21T07:04:16.000Z</time>
      </trkpt>
      <trkpt lat="45.50003" lon="4.84355">
        <ele>154.19999694824</ele>
        <time>2024-05-21T07:04:17.000Z</time>
      </trkpt>
      <trkpt lat="45.5" lon="4.84349">
        <ele>154.19999694824</ele>
        <time>2024-05-21T07:04:18.000Z</time>
      </trkpt>
      <trkpt lat="45.49996" lon="4.84343">
        <ele>154.19999694824</ele>
        <time>2024-05-21T07:04:19.000Z</time>
      </trkpt>
      <trkpt lat="45.49993" lon="4.84337">
        <ele>154.19999694824</ele>
        <time>2024-05-21T07:04:20.000Z</time>
      </trkpt>
      <trkpt lat="45.4999" lon="4.8433">
        <ele>154.19999694824</ele>
        <time>2024-05-21T07:04:21.000Z</time>
      </trkpt>
      <trkpt lat="45.49987" lon="4.84324">
        <ele>154.19999694824</ele>
        <time>2024-05-21T07:04:22.000Z</time>
      </trkpt>
      <trkpt lat="45.49984" lon="4.84318">
        <ele>154.19999694824</ele>
        <time>2024-05-21T07:04:23.000Z</time>
      </trkpt>
      <trkpt lat="45.49981" lon="4.84311">
        <ele>154.19999694824</ele>
        <time>2024-05-21T07:04:24.000Z</time>
      </trkpt>
      <trkpt lat="45.49978" lon="4.84305">
        <ele>154.19999694824</ele>
        <time>2024-05-21T07:04:25.000Z</time>
      </trkpt>
      <trkpt lat="45.49975" lon="4.84298">
        <ele>154.39999389648</ele>
        <time>2024-05-21T07:04:26.000Z</time>
      </trkpt>
      <trkpt lat="45.49973" lon="4.84292">
        <ele>154.39999389648</ele>
        <time>2024-05-21T07:04:27.000Z</time>
      </trkpt>
      <trkpt lat="45.4997" lon="4.84285">
        <ele>154.39999389648</ele>
        <time>2024-05-21T07:04:28.000Z</time>
      </trkpt>
      <trkpt lat="45.49967" lon="4.84278">
        <ele>154.39999389648</ele>
        <time>2024-05-21T07:04:29.000Z</time>
      </trkpt>
      <trkpt lat="45.49965" lon="4.84271">
        <ele>154.39999389648</ele>
        <time>2024-05-21T07:04:30.000Z</time>
      </trkpt>
      <trkpt lat="45.49962" lon="4.84264">
        <ele>154.19999694824</ele>
        <time>2024-05-21T07:04:31.000Z</time>
      </trkpt>
      <trkpt lat="45.49959" lon="4.84256">
        <ele>154.19999694824</ele>
        <time>2024-05-21T07:04:32.000Z</time>
      </trkpt>
      <trkpt lat="45.49957" lon="4.84249">
        <ele>154.19999694824</ele>
        <time>2024-05-21T07:04:33.000Z</time>
      </trkpt>
      <trkpt lat="45.49954" lon="4.84242">
        <ele>154.19999694824</ele>
        <time>2024-05-21T07:04:34.000Z</time>
      </trkpt>
      <trkpt lat="45.49952" lon="4.84235">
        <ele>154.19999694824</ele>
        <time>2024-05-21T07:04:35.000Z</time>
      </trkpt>
      <trkpt lat="45.49949" lon="4.84228">
        <ele>154</ele>
        <time>2024-05-21T07:04:36.000Z</time>
      </trkpt>
      <trkpt lat="45.49946" lon="4.84221">
        <ele>154</ele>
        <time>2024-05-21T07:04:37.000Z</time>
      </trkpt>
      <trkpt lat="45.49943" lon="4.84214">
        <ele>154.19999694824</ele>
        <time>2024-05-21T07:04:38.000Z</time>
      </trkpt>
      <trkpt lat="45.4994" lon="4.84207">
        <ele>154.19999694824</ele>
        <time>2024-05-21T07:04:39.000Z</time>
      </trkpt>
      <trkpt lat="45.49937" lon="4.842">
        <ele>154.19999694824</ele>
        <time>2024-05-21T07:04:40.000Z</time>
      </trkpt>
      <trkpt lat="45.49933" lon="4.84194">
        <ele>154.19999694824</ele>
        <time>2024-05-21T07:04:41.000Z</time>
      </trkpt>
      <trkpt lat="45.4993" lon="4.84187">
        <ele>154.19999694824</ele>
        <time>2024-05-21T07:04:42.000Z</time>
      </trkpt>
      <trkpt lat="45.49927" lon="4.8418">
        <ele>154.19999694824</ele>
        <time>2024-05-21T07:04:43.000Z</time>
      </trkpt>
      <trkpt lat="45.49924" lon="4.84172">
        <ele>154.19999694824</ele>
        <time>2024-05-21T07:04:44.000Z</time>
      </trkpt>
      <trkpt lat="45.49921" lon="4.84164">
        <ele>153.80000305176</ele>
        <time>2024-05-21T07:04:45.000Z</time>
      </trkpt>
      <trkpt lat="45.49918" lon="4.84156">
        <ele>153.80000305176</ele>
        <time>2024-05-21T07:04:46.000Z</time>
      </trkpt>
      <trkpt lat="45.49916" lon="4.84148">
        <ele>153.80000305176</ele>
        <time>2024-05-21T07:04:47.000Z</time>
      </trkpt>
      <trkpt lat="45.49913" lon="4.84141">
        <ele>153.80000305176</ele>
        <time>2024-05-21T07:04:48.000Z</time>
      </trkpt>
      <trkpt lat="45.4991" lon="4.84133">
        <ele>153.80000305176</ele>
        <time>2024-05-21T07:04:49.000Z</time>
      </trkpt>
      <trkpt lat="45.49908" lon="4.84125">
        <ele>153.80000305176</ele>
        <time>2024-05-21T07:04:50.000Z</time>
      </trkpt>
      <trkpt lat="45.49906" lon="4.84118">
        <ele>153.80000305176</ele>
        <time>2024-05-21T07:04:51.000Z</time>
      </trkpt>
      <trkpt lat="45.49904" lon="4.84111">
        <ele>153.80000305176</ele>
        <time>2024-05-21T07:04:52.000Z</time>
      </trkpt>
      <trkpt lat="45.49901" lon="4.84103">
        <ele>153.80000305176</ele>
        <time>2024-05-21T07:04:53.000Z</time>
      </trkpt>
      <trkpt lat="45.49899" lon="4.84096">
        <ele>153.80000305176</ele>
        <time>2024-05-21T07:04:54.000Z</time>
      </trkpt>
      <trkpt lat="45.49896" lon="4.84089">
        <ele>154</ele>
        <time>2024-05-21T07:04:55.000Z</time>
      </trkpt>
      <trkpt lat="45.49894" lon="4.84082">
        <ele>154</ele>
        <time>2024-05-21T07:04:56.000Z</time>
      </trkpt>
      <trkpt lat="45.49891" lon="4.84074">
        <ele>154</ele>
        <time>2024-05-21T07:04:57.000Z</time>
      </trkpt>
      <trkpt lat="45.49888" lon="4.84067">
        <ele>154</ele>
        <time>2024-05-21T07:04:58.000Z</time>
      </trkpt>
      <trkpt lat="45.49885" lon="4.8406">
        <ele>154</ele>
        <time>2024-05-21T07:04:59.000Z</time>
      </trkpt>
      <trkpt lat="45.49883" lon="4.84053">
        <ele>154</ele>
        <time>2024-05-21T07:05:00.000Z</time>
      </trkpt>
      <trkpt lat="45.4988" lon="4.84046">
        <ele>154</ele>
        <time>2024-05-21T07:05:01.000Z</time>
      </trkpt>
      <trkpt lat="45.49877" lon="4.84039">
        <ele>154</ele>
        <time>2024-05-21T07:05:02.000Z</time>
      </trkpt>
      <trkpt lat="45.49875" lon="4.84032">
        <ele>154.19999694824</ele>
        <time>2024-05-21T07:05:03.000Z</time>
      </trkpt>
      <trkpt lat="45.49872" lon="4.84025">
        <ele>154.19999694824</ele>
        <time>2024-05-21T07:05:04.000Z</time>
      </trkpt>
      <trkpt lat="45.4987" lon="4.84018">
        <ele>154.19999694824</ele>
        <time>2024-05-21T07:05:05.000Z</time>
      </trkpt>
      <trkpt lat="45.49867" lon="4.84011">
        <ele>154.19999694824</ele>
        <time>2024-05-21T07:05:06.000Z</time>
      </trkpt>
      <trkpt lat="45.49865" lon="4.84004">
        <ele>154.19999694824</ele>
        <time>2024-05-21T07:05:07.000Z</time>
      </trkpt>
      <trkpt lat="45.49862" lon="4.83997">
        <ele>154.19999694824</ele>
        <time>2024-05-21T07:05:08.000Z</time>
      </trkpt>
      <trkpt lat="45.4986" lon="4.83989">
        <ele>154.19999694824</ele>
        <time>2024-05-21T07:05:09.000Z</time>
      </trkpt>
      <trkpt lat="45.49857" lon="4.83981">
        <ele>154.19999694824</ele>
        <time>2024-05-21T07:05:10.000Z</time>
      </trkpt>
      <trkpt lat="45.49856" lon="4.83974">
        <ele>154.19999694824</ele>
        <time>2024-05-21T07:05:11.000Z</time>
      </trkpt>
      <trkpt lat="45.49854" lon="4.83968">
        <ele>154.19999694824</ele>
        <time>2024-05-21T07:05:12.000Z</time>
      </trkpt>
      <trkpt lat="45.49853" lon="4.83961">
        <ele>154.19999694824</ele>
        <time>2024-05-21T07:05:13.000Z</time>
      </trkpt>
      <trkpt lat="45.49852" lon="4.83954">
        <ele>154.19999694824</ele>
        <time>2024-05-21T07:05:14.000Z</time>
      </trkpt>
      <trkpt lat="45.4985" lon="4.83947">
        <ele>154.39999389648</ele>
        <time>2024-05-21T07:05:15.000Z</time>
      </trkpt>
      <trkpt lat="45.49849" lon="4.83941">
        <ele>154.39999389648</ele>
        <time>2024-05-21T07:05:16.000Z</time>
      </trkpt>
      <trkpt lat="45.49848" lon="4.83934">
        <ele>154.39999389648</ele>
        <time>2024-05-21T07:05:17.000Z</time>
      </trkpt>
      <trkpt lat="45.49847" lon="4.83927">
        <ele>154.19999694824</ele>
        <time>2024-05-21T07:05:18.000Z</time>
      </trkpt>
      <trkpt lat="45.49845" lon="4.8392">
        <ele>154.19999694824</ele>
        <time>2024-05-21T07:05:19.000Z</time>
      </trkpt>
      <trkpt lat="45.49845" lon="4.83911">
        <ele>154.19999694824</ele>
        <time>2024-05-21T07:05:20.000Z</time>
      </trkpt>
      <trkpt lat="45.49843" lon="4.83903">
        <ele>154.19999694824</ele>
        <time>2024-05-21T07:05:21.000Z</time>
      </trkpt>
      <trkpt lat="45.49842" lon="4.83896">
        <ele>154.19999694824</ele>
        <time>2024-05-21T07:05:22.000Z</time>
      </trkpt>
      <trkpt lat="45.4984" lon="4.83889">
        <ele>154</ele>
        <time>2024-05-21T07:05:23.000Z</time>
      </trkpt>
      <trkpt lat="45.49839" lon="4.83881">
        <ele>154</ele>
        <time>2024-05-21T07:05:24.000Z</time>
      </trkpt>
      <trkpt lat="45.49838" lon="4.83873">
        <ele>154</ele>
        <time>2024-05-21T07:05:25.000Z</time>
      </trkpt>
      <trkpt lat="45.49837" lon="4.83865">
        <ele>154</ele>
        <time>2024-05-21T07:05:26.000Z</time>
      </trkpt>
      <trkpt lat="45.49835" lon="4.83858">
        <ele>154</ele>
        <time>2024-05-21T07:05:27.000Z</time>
      </trkpt>
      <trkpt lat="45.49834" lon="4.8385">
        <ele>154</ele>
        <time>2024-05-21T07:05:28.000Z</time>
      </trkpt>
      <trkpt lat="45.49832" lon="4.83842">
        <ele>154</ele>
        <time>2024-05-21T07:05:29.000Z</time>
      </trkpt>
      <trkpt lat="45.49831" lon="4.83835">
        <ele>154</ele>
        <time>2024-05-21T07:05:30.000Z</time>
      </trkpt>
      <trkpt lat="45.4983" lon="4.83827">
        <ele>154</ele>
        <time>2024-05-21T07:05:31.000Z</time>
      </trkpt>
      <trkpt lat="45.49829" lon="4.8382">
        <ele>154</ele>
        <time>2024-05-21T07:05:32.000Z</time>
      </trkpt>
      <trkpt lat="45.49826" lon="4.83813">
        <ele>154.19999694824</ele>
        <time>2024-05-21T07:05:33.000Z</time>
      </trkpt>
      <trkpt lat="45.49824" lon="4.83805">
        <ele>154.19999694824</ele>
        <time>2024-05-21T07:05:34.000Z</time>
      </trkpt>
      <trkpt lat="45.49822" lon="4.83798">
        <ele>154.39999389648</ele>
        <time>2024-05-21T07:05:35.000Z</time>
      </trkpt>
      <trkpt lat="45.4982" lon="4.83791">
        <ele>154.39999389648</ele>
        <time>2024-05-21T07:05:36.000Z</time>
      </trkpt>
      <trkpt lat="45.49818" lon="4.83784">
        <ele>154.39999389648</ele>
        <time>2024-05-21T07:05:37.000Z</time>
      </trkpt>
      <trkpt lat="45.49816" lon="4.83778">
        <ele>154.60000610352</ele>
        <time>2024-05-21T07:05:38.000Z</time>
      </trkpt>
      <trkpt lat="45.49813" lon="4.8377">
        <ele>154.60000610352</ele>
        <time>2024-05-21T07:05:39.000Z</time>
      </trkpt>
      <trkpt lat="45.49811" lon="4.83764">
        <ele>154.80000305176</ele>
        <time>2024-05-21T07:05:40.000Z</time>
      </trkpt>
      <trkpt lat="45.49809" lon="4.83757">
        <ele>154.80000305176</ele>
        <time>2024-05-21T07:05:41.000Z</time>
      </trkpt>
      <trkpt lat="45.49806" lon="4.8375">
        <ele>154.80000305176</ele>
        <time>2024-05-21T07:05:42.000Z</time>
      </trkpt>
      <trkpt lat="45.49804" lon="4.83743">
        <ele>154.80000305176</ele>
        <time>2024-05-21T07:05:43.000Z</time>
      </trkpt>
      <trkpt lat="45.49801" lon="4.83736">
        <ele>154.80000305176</ele>
        <time>2024-05-21T07:05:44.000Z</time>
      </trkpt>
      <trkpt lat="45.49799" lon="4.83729">
        <ele>154.80000305176</ele>
        <time>2024-05-21T07:05:45.000Z</time>
      </trkpt>
      <trkpt lat="45.49796" lon="4.83722">
        <ele>154.80000305176</ele>
        <time>2024-05-21T07:05:46.000Z</time>
      </trkpt>
      <trkpt lat="45.49793" lon="4.83714">
        <ele>154.80000305176</ele>
        <time>2024-05-21T07:05:47.000Z</time>
      </trkpt>
      <trkpt lat="45.49791" lon="4.83707">
        <ele>154.80000305176</ele>
        <time>2024-05-21T07:05:48.000Z</time>
      </trkpt>
      <trkpt lat="45.49788" lon="4.837">
        <ele>154.80000305176</ele>
        <time>2024-05-21T07:05:49.000Z</time>
      </trkpt>
      <trkpt lat="45.49786" lon="4.83694">
        <ele>154.80000305176</ele>
        <time>2024-05-21T07:05:50.000Z</time>
      </trkpt>
      <trkpt lat="45.49783" lon="4.83687">
        <ele>154.80000305176</ele>
        <time>2024-05-21T07:05:51.000Z</time>
      </trkpt>
      <trkpt lat="45.49781" lon="4.8368">
        <ele>154.80000305176</ele>
        <time>2024-05-21T07:05:52.000Z</time>
      </trkpt>
      <trkpt lat="45.49778" lon="4.83673">
        <ele>154.80000305176</ele>
        <time>2024-05-21T07:05:53.000Z</time>
      </trkpt>
      <trkpt lat="45.49776" lon="4.83666">
        <ele>154.80000305176</ele>
        <time>2024-05-21T07:05:54.000Z</time>
      </trkpt>
      <trkpt lat="45.49774" lon="4.83659">
        <ele>154.80000305176</ele>
        <time>2024-05-21T07:05:55.000Z</time>
      </trkpt>
      <trkpt lat="45.49771" lon="4.83652">
        <ele>154.60000610352</ele>
        <time>2024-05-21T07:05:56.000Z</time>
      </trkpt>
      <trkpt lat="45.49768" lon="4.83645">
        <ele>154.60000610352</ele>
        <time>2024-05-21T07:05:57.000Z</time>
      </trkpt>
      <trkpt lat="45.49765" lon="4.83638">
        <ele>154.60000610352</ele>
        <time>2024-05-21T07:05:58.000Z</time>
      </trkpt>
      <trkpt lat="45.49762" lon="4.83631">
        <ele>154.60000610352</ele>
        <time>2024-05-21T07:05:59.000Z</time>
      </trkpt>
      <trkpt lat="45.49759" lon="4.83624">
        <ele>154.60000610352</ele>
        <time>2024-05-21T07:06:00.000Z</time>
      </trkpt>
      <trkpt lat="45.49756" lon="4.83618">
        <ele>154.60000610352</ele>
        <time>2024-05-21T07:06:01.000Z</time>
      </trkpt>
      <trkpt lat="45.49753" lon="4.83611">
        <ele>154.60000610352</ele>
        <time>2024-05-21T07:06:02.000Z</time>
      </trkpt>
      <trkpt lat="45.4975" lon="4.83604">
        <ele>154.60000610352</ele>
        <time>2024-05-21T07:06:03.000Z</time>
      </trkpt>
      <trkpt lat="45.49747" lon="4.83597">
        <ele>154.60000610352</ele>
        <time>2024-05-21T07:06:04.000Z</time>
      </trkpt>
      <trkpt lat="45.49744" lon="4.83591">
        <ele>154.60000610352</ele>
        <time>2024-05-21T07:06:05.000Z</time>
      </trkpt>
      <trkpt lat="45.49741" lon="4.83584">
        <ele>154.60000610352</ele>
        <time>2024-05-21T07:06:06.000Z</time>
      </trkpt>
      <trkpt lat="45.49738" lon="4.83578">
        <ele>154.60000610352</ele>
        <time>2024-05-21T07:06:07.000Z</time>
      </trkpt>
      <trkpt lat="45.49735" lon="4.83571">
        <ele>154.60000610352</ele>
        <time>2024-05-21T07:06:08.000Z</time>
      </trkpt>
      <trkpt lat="45.49732" lon="4.83565">
        <ele>154.60000610352</ele>
        <time>2024-05-21T07:06:09.000Z</time>
      </trkpt>
      <trkpt lat="45.49729" lon="4.83558">
        <ele>154.60000610352</ele>
        <time>2024-05-21T07:06:10.000Z</time>
      </trkpt>
      <trkpt lat="45.49726" lon="4.83551">
        <ele>154.60000610352</ele>
        <time>2024-05-21T07:06:11.000Z</time>
      </trkpt>
      <trkpt lat="45.49722" lon="4.83544">
        <ele>154.60000610352</ele>
        <time>2024-05-21T07:06:12.000Z</time>
      </trkpt>
      <trkpt lat="45.49719" lon="4.83538">
        <ele>154.60000610352</ele>
        <time>2024-05-21T07:06:13.000Z</time>
      </trkpt>
      <trkpt lat="45.49715" lon="4.83531">
        <ele>154.60000610352</ele>
        <time>2024-05-21T07:06:14.000Z</time>
      </trkpt>
      <trkpt lat="45.49712" lon="4.83525">
        <ele>154.60000610352</ele>
        <time>2024-05-21T07:06:15.000Z</time>
      </trkpt>
      <trkpt lat="45.49709" lon="4.83518">
        <ele>154.60000610352</ele>
        <time>2024-05-21T07:06:16.000Z</time>
      </trkpt>
      <trkpt lat="45.49705" lon="4.83512">
        <ele>154.60000610352</ele>
        <time>2024-05-21T07:06:17.000Z</time>
      </trkpt>
      <trkpt lat="45.49701" lon="4.83505">
        <ele>154.39999389648</ele>
        <time>2024-05-21T07:06:18.000Z</time>
      </trkpt>
      <trkpt lat="45.49697" lon="4.83499">
        <ele>154.39999389648</ele>
        <time>2024-05-21T07:06:19.000Z</time>
      </trkpt>
      <trkpt lat="45.49693" lon="4.83493">
        <ele>154.19999694824</ele>
        <time>2024-05-21T07:06:20.000Z</time>
      </trkpt>
      <trkpt lat="45.49689" lon="4.83487">
        <ele>154.19999694824</ele>
        <time>2024-05-21T07:06:21.000Z</time>
      </trkpt>
      <trkpt lat="45.49686" lon="4.83481">
        <ele>154.19999694824</ele>
        <time>2024-05-21T07:06:22.000Z</time>
      </trkpt>
      <trkpt lat="45.49682" lon="4.83474">
        <ele>154.19999694824</ele>
        <time>2024-05-21T07:06:23.000Z</time>
      </trkpt>
      <trkpt lat="45.49678" lon="4.83468">
        <ele>154.19999694824</ele>
        <time>2024-05-21T07:06:24.000Z</time>
      </trkpt>
      <trkpt lat="45.49674" lon="4.83462">
        <ele>154.19999694824</ele>
        <time>2024-05-21T07:06:25.000Z</time>
      </trkpt>
      <trkpt lat="45.49671" lon="4.83456">
        <ele>154.19999694824</ele>
        <time>2024-05-21T07:06:26.000Z</time>
      </trkpt>
      <trkpt lat="45.49667" lon="4.8345">
        <ele>154.19999694824</ele>
        <time>2024-05-21T07:06:27.000Z</time>
      </trkpt>
      <trkpt lat="45.49663" lon="4.83444">
        <ele>154.19999694824</ele>
        <time>2024-05-21T07:06:28.000Z</time>
      </trkpt>
      <trkpt lat="45.49659" lon="4.83438">
        <ele>154.19999694824</ele>
        <time>2024-05-21T07:06:29.000Z</time>
      </trkpt>
      <trkpt lat="45.49656" lon="4.83432">
        <ele>154.19999694824</ele>
        <time>2024-05-21T07:06:30.000Z</time>
      </trkpt>
      <trkpt lat="45.49652" lon="4.83426">
        <ele>154.19999694824</ele>
        <time>2024-05-21T07:06:31.000Z</time>
      </trkpt>
      <trkpt lat="45.49648" lon="4.8342">
        <ele>154.19999694824</ele>
        <time>2024-05-21T07:06:32.000Z</time>
      </trkpt>
      <trkpt lat="45.49644" lon="4.83414">
        <ele>154.19999694824</ele>
        <time>2024-05-21T07:06:33.000Z</time>
      </trkpt>
      <trkpt lat="45.49641" lon="4.83409">
        <ele>154.39999389648</ele>
        <time>2024-05-21T07:06:34.000Z</time>
      </trkpt>
      <trkpt lat="45.49637" lon="4.83403">
        <ele>154.19999694824</ele>
        <time>2024-05-21T07:06:35.000Z</time>
      </trkpt>
      <trkpt lat="45.49633" lon="4.83396">
        <ele>154.19999694824</ele>
        <time>2024-05-21T07:06:36.000Z</time>
      </trkpt>
      <trkpt lat="45.4963" lon="4.8339">
        <ele>154.19999694824</ele>
        <time>2024-05-21T07:06:37.000Z</time>
      </trkpt>
      <trkpt lat="45.49626" lon="4.83384">
        <ele>154.19999694824</ele>
        <time>2024-05-21T07:06:38.000Z</time>
      </trkpt>
      <trkpt lat="45.49623" lon="4.83379">
        <ele>154.19999694824</ele>
        <time>2024-05-21T07:06:39.000Z</time>
      </trkpt>
      <trkpt lat="45.49619" lon="4.83373">
        <ele>154.19999694824</ele>
        <time>2024-05-21T07:06:40.000Z</time>
      </trkpt>
      <trkpt lat="45.49615" lon="4.83366">
        <ele>154.19999694824</ele>
        <time>2024-05-21T07:06:41.000Z</time>
      </trkpt>
      <trkpt lat="45.49611" lon="4.83361">
        <ele>154.19999694824</ele>
        <time>2024-05-21T07:06:42.000Z</time>
      </trkpt>
      <trkpt lat="45.49608" lon="4.83354">
        <ele>154.19999694824</ele>
        <time>2024-05-21T07:06:43.000Z</time>
      </trkpt>
      <trkpt lat="45.49604" lon="4.83349">
        <ele>154.19999694824</ele>
        <time>2024-05-21T07:06:44.000Z</time>
      </trkpt>
      <trkpt lat="45.496" lon="4.83343">
        <ele>154.19999694824</ele>
        <time>2024-05-21T07:06:45.000Z</time>
      </trkpt>
      <trkpt lat="45.49596" lon="4.83337">
        <ele>154.19999694824</ele>
        <time>2024-05-21T07:06:46.000Z</time>
      </trkpt>
      <trkpt lat="45.49593" lon="4.83331">
        <ele>154.19999694824</ele>
        <time>2024-05-21T07:06:47.000Z</time>
      </trkpt>
      <trkpt lat="45.49589" lon="4.83325">
        <ele>154.19999694824</ele>
        <time>2024-05-21T07:06:48.000Z</time>
      </trkpt>
      <trkpt lat="45.49586" lon="4.8332">
        <ele>154.19999694824</ele>
        <time>2024-05-21T07:06:49.000Z</time>
      </trkpt>
      <trkpt lat="45.49582" lon="4.83317">
        <ele>154.19999694824</ele>
        <time>2024-05-21T07:06:50.000Z</time>
      </trkpt>
      <trkpt lat="45.49577" lon="4.83316">
        <ele>154.19999694824</ele>
        <time>2024-05-21T07:06:51.000Z</time>
      </trkpt>
      <trkpt lat="45.49573" lon="4.83317">
        <ele>154.19999694824</ele>
        <time>2024-05-21T07:06:52.000Z</time>
      </trkpt>
      <trkpt lat="45.49569" lon="4.8332">
        <ele>154.19999694824</ele>
        <time>2024-05-21T07:06:53.000Z</time>
      </trkpt>
      <trkpt lat="45.49566" lon="4.83324">
        <ele>154.19999694824</ele>
        <time>2024-05-21T07:06:54.000Z</time>
      </trkpt>
      <trkpt lat="45.49563" lon="4.83328">
        <ele>154.19999694824</ele>
        <time>2024-05-21T07:06:55.000Z</time>
      </trkpt>
      <trkpt lat="45.4956" lon="4.83331">
        <ele>154.19999694824</ele>
        <time>2024-05-21T07:06:56.000Z</time>
      </trkpt>
      <trkpt lat="45.49557" lon="4.83331">
        <ele>154.39999389648</ele>
        <time>2024-05-21T07:06:57.000Z</time>
      </trkpt>
      <trkpt lat="45.49554" lon="4.8333">
        <ele>154.60000610352</ele>
        <time>2024-05-21T07:06:58.000Z</time>
      </trkpt>
      <trkpt lat="45.49551" lon="4.83327">
        <ele>155</ele>
        <time>2024-05-21T07:06:59.000Z</time>
      </trkpt>
      <trkpt lat="45.49549" lon="4.83323">
        <ele>155.19999694824</ele>
        <time>2024-05-21T07:07:00.000Z</time>
      </trkpt>
      <trkpt lat="45.49546" lon="4.83319">
        <ele>155.19999694824</ele>
        <time>2024-05-21T07:07:01.000Z</time>
      </trkpt>
      <trkpt lat="45.49543" lon="4.83315">
        <ele>155.39999389648</ele>
        <time>2024-05-21T07:07:02.000Z</time>
      </trkpt>
      <trkpt lat="45.49541" lon="4.83311">
        <ele>155.39999389648</ele>
        <time>2024-05-21T07:07:03.000Z</time>
      </trkpt>
      <trkpt lat="45.49538" lon="4.83306">
        <ele>155.39999389648</ele>
        <time>2024-05-21T07:07:04.000Z</time>
      </trkpt>
      <trkpt lat="45.49535" lon="4.83301">
        <ele>155.39999389648</ele>
        <time>2024-05-21T07:07:05.000Z</time>
      </trkpt>
      <trkpt lat="45.49533" lon="4.83297">
        <ele>155.39999389648</ele>
        <time>2024-05-21T07:07:06.000Z</time>
      </trkpt>
      <trkpt lat="45.4953" lon="4.83292">
        <ele>155.39999389648</ele>
        <time>2024-05-21T07:07:07.000Z</time>
      </trkpt>
      <trkpt lat="45.49527" lon="4.83287">
        <ele>155.39999389648</ele>
        <time>2024-05-21T07:07:08.000Z</time>
      </trkpt>
      <trkpt lat="45.49524" lon="4.83282">
        <ele>155.39999389648</ele>
        <time>2024-05-21T07:07:09.000Z</time>
      </trkpt>
      <trkpt lat="45.49521" lon="4.83276">
        <ele>155.60000610352</ele>
        <time>2024-05-21T07:07:10.000Z</time>
      </trkpt>
      <trkpt lat="45.49517" lon="4.8327">
        <ele>155.39999389648</ele>
        <time>2024-05-21T07:07:11.000Z</time>
      </trkpt>
      <trkpt lat="45.49514" lon="4.83265">
        <ele>155.39999389648</ele>
        <time>2024-05-21T07:07:12.000Z</time>
      </trkpt>
      <trkpt lat="45.4951" lon="4.83259">
        <ele>155.60000610352</ele>
        <time>2024-05-21T07:07:13.000Z</time>
      </trkpt>
      <trkpt lat="45.49507" lon="4.83253">
        <ele>155.60000610352</ele>
        <time>2024-05-21T07:07:14.000Z</time>
      </trkpt>
      <trkpt lat="45.49503" lon="4.83247">
        <ele>155.60000610352</ele>
        <time>2024-05-21T07:07:15.000Z</time>
      </trkpt>
      <trkpt lat="45.495" lon="4.83241">
        <ele>155.60000610352</ele>
        <time>2024-05-21T07:07:16.000Z</time>
      </trkpt>
      <trkpt lat="45.49497" lon="4.83236">
        <ele>155.60000610352</ele>
        <time>2024-05-21T07:07:17.000Z</time>
      </trkpt>
      <trkpt lat="45.49494" lon="4.8323">
        <ele>155.60000610352</ele>
        <time>2024-05-21T07:07:18.000Z</time>
      </trkpt>
      <trkpt lat="45.4949" lon="4.83224">
        <ele>155.60000610352</ele>
        <time>2024-05-21T07:07:19.000Z</time>
      </trkpt>
      <trkpt lat="45.49487" lon="4.83218">
        <ele>155.60000610352</ele>
        <time>2024-05-21T07:07:20.000Z</time>
      </trkpt>
      <trkpt lat="45.49484" lon="4.83213">
        <ele>155.60000610352</ele>
        <time>2024-05-21T07:07:21.000Z</time>
      </trkpt>
      <trkpt lat="45.4948" lon="4.83208">
        <ele>155.60000610352</ele>
        <time>2024-05-21T07:07:22.000Z</time>
      </trkpt>
      <trkpt lat="45.49477" lon="4.83203">
        <ele>155.60000610352</ele>
        <time>2024-05-21T07:07:23.000Z</time>
      </trkpt>
      <trkpt lat="45.49474" lon="4.83197">
        <ele>155.39999389648</ele>
        <time>2024-05-21T07:07:24.000Z</time>
      </trkpt>
      <trkpt lat="45.4947" lon="4.83191">
        <ele>155.39999389648</ele>
        <time>2024-05-21T07:07:25.000Z</time>
      </trkpt>
      <trkpt lat="45.49466" lon="4.83185">
        <ele>155.39999389648</ele>
        <time>2024-05-21T07:07:26.000Z</time>
      </trkpt>
      <trkpt lat="45.49462" lon="4.8318">
        <ele>155.39999389648</ele>
        <time>2024-05-21T07:07:27.000Z</time>
      </trkpt>
      <trkpt lat="45.49458" lon="4.83173">
        <ele>155.39999389648</ele>
        <time>2024-05-21T07:07:28.000Z</time>
      </trkpt>
      <trkpt lat="45.49454" lon="4.83167">
        <ele>155.39999389648</ele>
        <time>2024-05-21T07:07:29.000Z</time>
      </trkpt>
      <trkpt lat="45.49451" lon="4.83161">
        <ele>155.39999389648</ele>
        <time>2024-05-21T07:07:30.000Z</time>
      </trkpt>
      <trkpt lat="45.49447" lon="4.83155">
        <ele>155.39999389648</ele>
        <time>2024-05-21T07:07:31.000Z</time>
      </trkpt>
      <trkpt lat="45.49444" lon="4.83149">
        <ele>155.39999389648</ele>
        <time>2024-05-21T07:07:32.000Z</time>
      </trkpt>
      <trkpt lat="45.4944" lon="4.83143">
        <ele>155.60000610352</ele>
        <time>2024-05-21T07:07:33.000Z</time>
      </trkpt>
      <trkpt lat="45.49437" lon="4.83137">
        <ele>155.60000610352</ele>
        <time>2024-05-21T07:07:34.000Z</time>
      </trkpt>
      <trkpt lat="45.49434" lon="4.83131">
        <ele>155.60000610352</ele>
        <time>2024-05-21T07:07:35.000Z</time>
      </trkpt>
      <trkpt lat="45.4943" lon="4.83124">
        <ele>155.60000610352</ele>
        <time>2024-05-21T07:07:36.000Z</time>
      </trkpt>
      <trkpt lat="45.49427" lon="4.83119">
        <ele>155.60000610352</ele>
        <time>2024-05-21T07:07:37.000Z</time>
      </trkpt>
      <trkpt lat="45.49423" lon="4.83113">
        <ele>155.60000610352</ele>
        <time>2024-05-21T07:07:38.000Z</time>
      </trkpt>
      <trkpt lat="45.4942" lon="4.83107">
        <ele>155.60000610352</ele>
        <time>2024-05-21T07:07:39.000Z</time>
      </trkpt>
      <trkpt lat="45.49416" lon="4.83101">
        <ele>155.39999389648</ele>
        <time>2024-05-21T07:07:40.000Z</time>
      </trkpt>
      <trkpt lat="45.49413" lon="4.83095">
        <ele>155.39999389648</ele>
        <time>2024-05-21T07:07:41.000Z</time>
      </trkpt>
      <trkpt lat="45.49408" lon="4.83089">
        <ele>155.39999389648</ele>
        <time>2024-05-21T07:07:42.000Z</time>
      </trkpt>
      <trkpt lat="45.49404" lon="4.83083">
        <ele>155.39999389648</ele>
        <time>2024-05-21T07:07:43.000Z</time>
      </trkpt>
      <trkpt lat="45.49401" lon="4.83077">
        <ele>155.39999389648</ele>
        <time>2024-05-21T07:07:44.000Z</time>
      </trkpt>
      <trkpt lat="45.49398" lon="4.83072">
        <ele>155.39999389648</ele>
        <time>2024-05-21T07:07:45.000Z</time>
      </trkpt>
      <trkpt lat="45.49395" lon="4.83066">
        <ele>155.39999389648</ele>
        <time>2024-05-21T07:07:46.000Z</time>
      </trkpt>
      <trkpt lat="45.49392" lon="4.83061">
        <ele>155.39999389648</ele>
        <time>2024-05-21T07:07:47.000Z</time>
      </trkpt>
      <trkpt lat="45.49388" lon="4.83055">
        <ele>155.39999389648</ele>
        <time>2024-05-21T07:07:48.000Z</time>
      </trkpt>
      <trkpt lat="45.49385" lon="4.8305">
        <ele>155.39999389648</ele>
        <time>2024-05-21T07:07:49.000Z</time>
      </trkpt>
      <trkpt lat="45.49381" lon="4.83044">
        <ele>155.39999389648</ele>
        <time>2024-05-21T07:07:50.000Z</time>
      </trkpt>
      <trkpt lat="45.49378" lon="4.83038">
        <ele>155.39999389648</ele>
        <time>2024-05-21T07:07:51.000Z</time>
      </trkpt>
      <trkpt lat="45.49374" lon="4.83032">
        <ele>155.39999389648</ele>
        <time>2024-05-21T07:07:52.000Z</time>
      </trkpt>
      <trkpt lat="45.4937" lon="4.83026">
        <ele>155.39999389648</ele>
        <time>2024-05-21T07:07:53.000Z</time>
      </trkpt>
      <trkpt lat="45.49367" lon="4.8302">
        <ele>155.39999389648</ele>
        <time>2024-05-21T07:07:54.000Z</time>
      </trkpt>
      <trkpt lat="45.49363" lon="4.83014">
        <ele>155.39999389648</ele>
        <time>2024-05-21T07:07:55.000Z</time>
      </trkpt>
      <trkpt lat="45.49359" lon="4.83008">
        <ele>155.39999389648</ele>
        <time>2024-05-21T07:07:56.000Z</time>
      </trkpt>
      <trkpt lat="45.49355" lon="4.83002">
        <ele>155.39999389648</ele>
        <time>2024-05-21T07:07:57.000Z</time>
      </trkpt>
      <trkpt lat="45.49352" lon="4.82996">
        <ele>155.39999389648</ele>
        <time>2024-05-21T07:07:58.000Z</time>
      </trkpt>
      <trkpt lat="45.49348" lon="4.82991">
        <ele>155.39999389648</ele>
        <time>2024-05-21T07:07:59.000Z</time>
      </trkpt>
      <trkpt lat="45.49345" lon="4.82985">
        <ele>155.39999389648</ele>
        <time>2024-05-21T07:08:00.000Z</time>
      </trkpt>
      <trkpt lat="45.49341" lon="4.82979">
        <ele>155.39999389648</ele>
        <time>2024-05-21T07:08:01.000Z</time>
      </trkpt>
      <trkpt lat="45.49338" lon="4.82973">
        <ele>155.39999389648</ele>
        <time>2024-05-21T07:08:02.000Z</time>
      </trkpt>
      <trkpt lat="45.49334" lon="4.82967">
        <ele>155.39999389648</ele>
        <time>2024-05-21T07:08:03.000Z</time>
      </trkpt>
      <trkpt lat="45.49331" lon="4.82961">
        <ele>155.39999389648</ele>
        <time>2024-05-21T07:08:04.000Z</time>
      </trkpt>
      <trkpt lat="45.49327" lon="4.82956">
        <ele>155.39999389648</ele>
        <time>2024-05-21T07:08:05.000Z</time>
      </trkpt>
      <trkpt lat="45.49324" lon="4.8295">
        <ele>155.39999389648</ele>
        <time>2024-05-21T07:08:06.000Z</time>
      </trkpt>
      <trkpt lat="45.4932" lon="4.82944">
        <ele>155.39999389648</ele>
        <time>2024-05-21T07:08:07.000Z</time>
      </trkpt>
      <trkpt lat="45.49317" lon="4.82938">
        <ele>155.39999389648</ele>
        <time>2024-05-21T07:08:08.000Z</time>
      </trkpt>
      <trkpt lat="45.49313" lon="4.82933">
        <ele>155.39999389648</ele>
        <time>2024-05-21T07:08:09.000Z</time>
      </trkpt>
      <trkpt lat="45.4931" lon="4.82928">
        <ele>155.39999389648</ele>
        <time>2024-05-21T07:08:10.000Z</time>
      </trkpt>
      <trkpt lat="45.49307" lon="4.82923">
        <ele>155.39999389648</ele>
        <time>2024-05-21T07:08:11.000Z</time>
      </trkpt>
      <trkpt lat="45.49303" lon="4.82918">
        <ele>155.39999389648</ele>
        <time>2024-05-21T07:08:12.000Z</time>
      </trkpt>
      <trkpt lat="45.49301" lon="4.82913">
        <ele>155.39999389648</ele>
        <time>2024-05-21T07:08:13.000Z</time>
      </trkpt>
      <trkpt lat="45.49299" lon="4.82908">
        <ele>155.39999389648</ele>
        <time>2024-05-21T07:08:14.000Z</time>
      </trkpt>
      <trkpt lat="45.49298" lon="4.82903">
        <ele>155.39999389648</ele>
        <time>2024-05-21T07:08:15.000Z</time>
      </trkpt>
      <trkpt lat="45.49299" lon="4.829">
        <ele>155.39999389648</ele>
        <time>2024-05-21T07:08:16.000Z</time>
      </trkpt>
      <trkpt lat="45.49302" lon="4.82897">
        <ele>155.39999389648</ele>
        <time>2024-05-21T07:08:17.000Z</time>
      </trkpt>
      <trkpt lat="45.49304" lon="4.82894">
        <ele>155.39999389648</ele>
        <time>2024-05-21T07:08:18.000Z</time>
      </trkpt>
      <trkpt lat="45.49307" lon="4.82891">
        <ele>155.39999389648</ele>
        <time>2024-05-21T07:08:19.000Z</time>
      </trkpt>
      <trkpt lat="45.49309" lon="4.82888">
        <ele>155.39999389648</ele>
        <time>2024-05-21T07:08:20.000Z</time>
      </trkpt>
      <trkpt lat="45.4931" lon="4.82885">
        <ele>155.39999389648</ele>
        <time>2024-05-21T07:08:21.000Z</time>
      </trkpt>
      <trkpt lat="45.49311" lon="4.82881">
        <ele>155.60000610352</ele>
        <time>2024-05-21T07:08:22.000Z</time>
      </trkpt>
      <trkpt lat="45.4931" lon="4.82876">
        <ele>155.60000610352</ele>
        <time>2024-05-21T07:08:23.000Z</time>
      </trkpt>
      <trkpt lat="45.49309" lon="4.82871">
        <ele>155.60000610352</ele>
        <time>2024-05-21T07:08:24.000Z</time>
      </trkpt>
      <trkpt lat="45.49307" lon="4.82867">
        <ele>155.60000610352</ele>
        <time>2024-05-21T07:08:25.000Z</time>
      </trkpt>
      <trkpt lat="45.49305" lon="4.82863">
        <ele>155.60000610352</ele>
        <time>2024-05-21T07:08:26.000Z</time>
      </trkpt>
      <trkpt lat="45.49302" lon="4.8286">
        <ele>155.39999389648</ele>
        <time>2024-05-21T07:08:27.000Z</time>
      </trkpt>
      <trkpt lat="45.493" lon="4.82856">
        <ele>155.39999389648</ele>
        <time>2024-05-21T07:08:28.000Z</time>
      </trkpt>
      <trkpt lat="45.49297" lon="4.82853">
        <ele>155.39999389648</ele>
        <time>2024-05-21T07:08:29.000Z</time>
      </trkpt>
      <trkpt lat="45.49295" lon="4.82849">
        <ele>155.39999389648</ele>
        <time>2024-05-21T07:08:30.000Z</time>
      </trkpt>
      <trkpt lat="45.49293" lon="4.82845">
        <ele>155.39999389648</ele>
        <time>2024-05-21T07:08:31.000Z</time>
      </trkpt>
      <trkpt lat="45.49292" lon="4.82841">
        <ele>155.39999389648</ele>
        <time>2024-05-21T07:08:32.000Z</time>
      </trkpt>
      <trkpt lat="45.49291" lon="4.82838">
        <ele>155.60000610352</ele>
        <time>2024-05-21T07:08:33.000Z</time>
      </trkpt>
      <trkpt lat="45.4929" lon="4.82835">
        <ele>155.60000610352</ele>
        <time>2024-05-21T07:08:34.000Z</time>
      </trkpt>
      <trkpt lat="45.4929" lon="4.82833">
        <ele>155.60000610352</ele>
        <time>2024-05-21T07:08:35.000Z</time>
      </trkpt>
      <trkpt lat="45.49289" lon="4.82831">
        <ele>155.80000305176</ele>
        <time>2024-05-21T07:08:36.000Z</time>
      </trkpt>
      <trkpt lat="45.49288" lon="4.82831">
        <ele>155.80000305176</ele>
        <time>2024-05-21T07:08:37.000Z</time>
      </trkpt>
      <trkpt lat="45.49288" lon="4.82831">
        <ele>155.80000305176</ele>
        <time>2024-05-21T07:08:38.000Z</time>
      </trkpt>
      <trkpt lat="45.49288" lon="4.82831">
        <ele>156</ele>
        <time>2024-05-21T07:08:39.000Z</time>
      </trkpt>
      <trkpt lat="45.49282" lon="4.82833">
        <ele>156</ele>
        <time>2024-05-21T07:09:45.000Z</time>
      </trkpt>
      <trkpt lat="45.4928" lon="4.82833">
        <ele>156</ele>
        <time>2024-05-21T07:09:46.000Z</time>
      </trkpt>
      <trkpt lat="45.49278" lon="4.82833">
        <ele>156</ele>
        <time>2024-05-21T07:09:47.000Z</time>
      </trkpt>
      <trkpt lat="45.49276" lon="4.82835">
        <ele>156</ele>
        <time>2024-05-21T07:09:48.000Z</time>
      </trkpt>
      <trkpt lat="45.49274" lon="4.82837">
        <ele>155.80000305176</ele>
        <time>2024-05-21T07:09:49.000Z</time>
      </trkpt>
      <trkpt lat="45.49272" lon="4.8284">
        <ele>155.80000305176</ele>
        <time>2024-05-21T07:09:50.000Z</time>
      </trkpt>
      <trkpt lat="45.49269" lon="4.82843">
        <ele>155.80000305176</ele>
        <time>2024-05-21T07:09:51.000Z</time>
      </trkpt>
      <trkpt lat="45.49267" lon="4.82845">
        <ele>155.80000305176</ele>
        <time>2024-05-21T07:09:52.000Z</time>
      </trkpt>
      <trkpt lat="45.49265" lon="4.82848">
        <ele>155.60000610352</ele>
        <time>2024-05-21T07:09:53.000Z</time>
      </trkpt>
      <trkpt lat="45.49262" lon="4.82849">
        <ele>155.60000610352</ele>
        <time>2024-05-21T07:09:54.000Z</time>
      </trkpt>
      <trkpt lat="45.49259" lon="4.8285">
        <ele>155.60000610352</ele>
        <time>2024-05-21T07:09:55.000Z</time>
      </trkpt>
      <trkpt lat="45.49255" lon="4.8285">
        <ele>155.39999389648</ele>
        <time>2024-05-21T07:09:56.000Z</time>
      </trkpt>
      <trkpt lat="45.49252" lon="4.82849">
        <ele>155.39999389648</ele>
        <time>2024-05-21T07:09:57.000Z</time>
      </trkpt>
      <trkpt lat="45.49249" lon="4.82846">
        <ele>155.19999694824</ele>
        <time>2024-05-21T07:09:58.000Z</time>
      </trkpt>
      <trkpt lat="45.49246" lon="4.82843">
        <ele>155</ele>
        <time>2024-05-21T07:09:59.000Z</time>
      </trkpt>
      <trkpt lat="45.49243" lon="4.82839">
        <ele>155</ele>
        <time>2024-05-21T07:10:00.000Z</time>
      </trkpt>
      <trkpt lat="45.4924" lon="4.82834">
        <ele>155</ele>
        <time>2024-05-21T07:10:01.000Z</time>
      </trkpt>
      <trkpt lat="45.49237" lon="4.8283">
        <ele>155</ele>
        <time>2024-05-21T07:10:02.000Z</time>
      </trkpt>
      <trkpt lat="45.49234" lon="4.82824">
        <ele>154.80000305176</ele>
        <time>2024-05-21T07:10:03.000Z</time>
      </trkpt>
      <trkpt lat="45.49231" lon="4.82819">
        <ele>154.80000305176</ele>
        <time>2024-05-21T07:10:04.000Z</time>
      </trkpt>
      <trkpt lat="45.49228" lon="4.82813">
        <ele>154.80000305176</ele>
        <time>2024-05-21T07:10:05.000Z</time>
      </trkpt>
      <trkpt lat="45.49224" lon="4.82808">
        <ele>154.80000305176</ele>
        <time>2024-05-21T07:10:06.000Z</time>
      </trkpt>
      <trkpt lat="45.49221" lon="4.82802">
        <ele>154.80000305176</ele>
        <time>2024-05-21T07:10:07.000Z</time>
      </trkpt>
      <trkpt lat="45.49217" lon="4.82797">
        <ele>154.80000305176</ele>
        <time>2024-05-21T07:10:08.000Z</time>
      </trkpt>
      <trkpt lat="45.49214" lon="4.82791">
        <ele>154.80000305176</ele>
        <time>2024-05-21T07:10:09.000Z</time>
      </trkpt>
      <trkpt lat="45.49211" lon="4.82785">
        <ele>155</ele>
        <time>2024-05-21T07:10:10.000Z</time>
      </trkpt>
      <trkpt lat="45.49207" lon="4.82779">
        <ele>155</ele>
        <time>2024-05-21T07:10:11.000Z</time>
      </trkpt>
      <trkpt lat="45.49203" lon="4.82773">
        <ele>155</ele>
        <time>2024-05-21T07:10:12.000Z</time>
      </trkpt>
      <trkpt lat="45.49199" lon="4.82768">
        <ele>155</ele>
        <time>2024-05-21T07:10:13.000Z</time>
      </trkpt>
      <trkpt lat="45.49195" lon="4.82762">
        <ele>155</ele>
        <time>2024-05-21T07:10:14.000Z</time>
      </trkpt>
      <trkpt lat="45.49192" lon="4.82756">
        <ele>155</ele>
        <time>2024-05-21T07:10:15.000Z</time>
      </trkpt>
      <trkpt lat="45.49188" lon="4.8275">
        <ele>155</ele>
        <time>2024-05-21T07:10:16.000Z</time>
      </trkpt>
      <trkpt lat="45.49184" lon="4.82744">
        <ele>154.80000305176</ele>
        <time>2024-05-21T07:10:17.000Z</time>
      </trkpt>
      <trkpt lat="45.49181" lon="4.82738">
        <ele>154.80000305176</ele>
        <time>2024-05-21T07:10:18.000Z</time>
      </trkpt>
      <trkpt lat="45.49177" lon="4.82732">
        <ele>154.80000305176</ele>
        <time>2024-05-21T07:10:19.000Z</time>
      </trkpt>
      <trkpt lat="45.49174" lon="4.82726">
        <ele>155</ele>
        <time>2024-05-21T07:10:20.000Z</time>
      </trkpt>
      <trkpt lat="45.4917" lon="4.8272">
        <ele>155</ele>
        <time>2024-05-21T07:10:21.000Z</time>
      </trkpt>
      <trkpt lat="45.49166" lon="4.82713">
        <ele>155</ele>
        <time>2024-05-21T07:10:22.000Z</time>
      </trkpt>
      <trkpt lat="45.49162" lon="4.82707">
        <ele>155</ele>
        <time>2024-05-21T07:10:23.000Z</time>
      </trkpt>
      <trkpt lat="45.49158" lon="4.82701">
        <ele>155</ele>
        <time>2024-05-21T07:10:24.000Z</time>
      </trkpt>
      <trkpt lat="45.49154" lon="4.82695">
        <ele>155</ele>
        <time>2024-05-21T07:10:25.000Z</time>
      </trkpt>
      <trkpt lat="45.49151" lon="4.82689">
        <ele>154.80000305176</ele>
        <time>2024-05-21T07:10:26.000Z</time>
      </trkpt>
      <trkpt lat="45.49147" lon="4.82683">
        <ele>154.80000305176</ele>
        <time>2024-05-21T07:10:27.000Z</time>
      </trkpt>
      <trkpt lat="45.49143" lon="4.82677">
        <ele>154.80000305176</ele>
        <time>2024-05-21T07:10:28.000Z</time>
      </trkpt>
      <trkpt lat="45.4914" lon="4.82671">
        <ele>154.80000305176</ele>
        <time>2024-05-21T07:10:29.000Z</time>
      </trkpt>
      <trkpt lat="45.49136" lon="4.82665">
        <ele>155</ele>
        <time>2024-05-21T07:10:30.000Z</time>
      </trkpt>
      <trkpt lat="45.49133" lon="4.82659">
        <ele>155</ele>
        <time>2024-05-21T07:10:31.000Z</time>
      </trkpt>
      <trkpt lat="45.49129" lon="4.82653">
        <ele>155</ele>
        <time>2024-05-21T07:10:32.000Z</time>
      </trkpt>
      <trkpt lat="45.49126" lon="4.82647">
        <ele>155.19999694824</ele>
        <time>2024-05-21T07:10:33.000Z</time>
      </trkpt>
      <trkpt lat="45.49122" lon="4.82641">
        <ele>155.19999694824</ele>
        <time>2024-05-21T07:10:34.000Z</time>
      </trkpt>
      <trkpt lat="45.49118" lon="4.82635">
        <ele>155.19999694824</ele>
        <time>2024-05-21T07:10:35.000Z</time>
      </trkpt>
      <trkpt lat="45.49115" lon="4.82629">
        <ele>155.19999694824</ele>
        <time>2024-05-21T07:10:36.000Z</time>
      </trkpt>
      <trkpt lat="45.49111" lon="4.82623">
        <ele>155.19999694824</ele>
        <time>2024-05-21T07:10:37.000Z</time>
      </trkpt>
      <trkpt lat="45.49108" lon="4.82618">
        <ele>155.19999694824</ele>
        <time>2024-05-21T07:10:38.000Z</time>
      </trkpt>
      <trkpt lat="45.49104" lon="4.82612">
        <ele>155.39999389648</ele>
        <time>2024-05-21T07:10:39.000Z</time>
      </trkpt>
      <trkpt lat="45.491" lon="4.82606">
        <ele>155.39999389648</ele>
        <time>2024-05-21T07:10:40.000Z</time>
      </trkpt>
      <trkpt lat="45.49097" lon="4.82601">
        <ele>155.39999389648</ele>
        <time>2024-05-21T07:10:41.000Z</time>
      </trkpt>
      <trkpt lat="45.49093" lon="4.82595">
        <ele>155.39999389648</ele>
        <time>2024-05-21T07:10:42.000Z</time>
      </trkpt>
      <trkpt lat="45.4909" lon="4.8259">
        <ele>155.19999694824</ele>
        <time>2024-05-21T07:10:43.000Z</time>
      </trkpt>
      <trkpt lat="45.49086" lon="4.82584">
        <ele>155.19999694824</ele>
        <time>2024-05-21T07:10:44.000Z</time>
      </trkpt>
      <trkpt lat="45.49082" lon="4.82578">
        <ele>155.19999694824</ele>
        <time>2024-05-21T07:10:45.000Z</time>
      </trkpt>
      <trkpt lat="45.49078" lon="4.82572">
        <ele>155.19999694824</ele>
        <time>2024-05-21T07:10:46.000Z</time>
      </trkpt>
      <trkpt lat="45.49074" lon="4.82565">
        <ele>155.19999694824</ele>
        <time>2024-05-21T07:10:47.000Z</time>
      </trkpt>
      <trkpt lat="45.49071" lon="4.82558">
        <ele>155.39999389648</ele>
        <time>2024-05-21T07:10:48.000Z</time>
      </trkpt>
      <trkpt lat="45.49067" lon="4.82551">
        <ele>155.19999694824</ele>
        <time>2024-05-21T07:10:49.000Z</time>
      </trkpt>
      <trkpt lat="45.49063" lon="4.82544">
        <ele>155.19999694824</ele>
        <time>2024-05-21T07:10:50.000Z</time>
      </trkpt>
      <trkpt lat="45.49059" lon="4.82537">
        <ele>155.19999694824</ele>
        <time>2024-05-21T07:10:51.000Z</time>
      </trkpt>
      <trkpt lat="45.49054" lon="4.8253">
        <ele>155.19999694824</ele>
        <time>2024-05-21T07:10:52.000Z</time>
      </trkpt>
      <trkpt lat="45.4905" lon="4.82523">
        <ele>154.80000305176</ele>
        <time>2024-05-21T07:10:53.000Z</time>
      </trkpt>
      <trkpt lat="45.49046" lon="4.82516">
        <ele>154.39999389648</ele>
        <time>2024-05-21T07:10:54.000Z</time>
      </trkpt>
      <trkpt lat="45.49041" lon="4.82509">
        <ele>154.19999694824</ele>
        <time>2024-05-21T07:10:55.000Z</time>
      </trkpt>
      <trkpt lat="45.49037" lon="4.82502">
        <ele>154.19999694824</ele>
        <time>2024-05-21T07:10:56.000Z</time>
      </trkpt>
      <trkpt lat="45.49032" lon="4.82495">
        <ele>154.19999694824</ele>
        <time>2024-05-21T07:10:57.000Z</time>
      </trkpt>
      <trkpt lat="45.49028" lon="4.82488">
        <ele>154.19999694824</ele>
        <time>2024-05-21T07:10:58.000Z</time>
      </trkpt>
      <trkpt lat="45.49024" lon="4.82481">
        <ele>154.19999694824</ele>
        <time>2024-05-21T07:10:59.000Z</time>
      </trkpt>
      <trkpt lat="45.4902" lon="4.82475">
        <ele>154.19999694824</ele>
        <time>2024-05-21T07:11:00.000Z</time>
      </trkpt>
      <trkpt lat="45.49015" lon="4.82469">
        <ele>154.19999694824</ele>
        <time>2024-05-21T07:11:01.000Z</time>
      </trkpt>
      <trkpt lat="45.4901" lon="4.82462">
        <ele>154.19999694824</ele>
        <time>2024-05-21T07:11:02.000Z</time>
      </trkpt>
      <trkpt lat="45.49006" lon="4.82456">
        <ele>154.39999389648</ele>
        <time>2024-05-21T07:11:03.000Z</time>
      </trkpt>
      <trkpt lat="45.49001" lon="4.8245">
        <ele>154.39999389648</ele>
        <time>2024-05-21T07:11:04.000Z</time>
      </trkpt>
      <trkpt lat="45.48996" lon="4.82444">
        <ele>154.39999389648</ele>
        <time>2024-05-21T07:11:05.000Z</time>
      </trkpt>
      <trkpt lat="45.48991" lon="4.82439">
        <ele>154.39999389648</ele>
        <time>2024-05-21T07:11:06.000Z</time>
      </trkpt>
      <trkpt lat="45.48986" lon="4.82433">
        <ele>154.39999389648</ele>
        <time>2024-05-21T07:11:07.000Z</time>
      </trkpt>
      <trkpt lat="45.48981" lon="4.82428">
        <ele>154.39999389648</ele>
        <time>2024-05-21T07:11:08.000Z</time>
      </trkpt>
      <trkpt lat="45.48976" lon="4.82423">
        <ele>154.39999389648</ele>
        <time>2024-05-21T07:11:09.000Z</time>
      </trkpt>
      <trkpt lat="45.48971" lon="4.82419">
        <ele>154.39999389648</ele>
        <time>2024-05-21T07:11:10.000Z</time>
      </trkpt>
      <trkpt lat="45.48966" lon="4.82414">
        <ele>154.39999389648</ele>
        <time>2024-05-21T07:11:11.000Z</time>
      </trkpt>
      <trkpt lat="45.48961" lon="4.8241">
        <ele>154.39999389648</ele>
        <time>2024-05-21T07:11:12.000Z</time>
      </trkpt>
      <trkpt lat="45.48956" lon="4.82406">
        <ele>154.39999389648</ele>
        <time>2024-05-21T07:11:13.000Z</time>
      </trkpt>
      <trkpt lat="45.4895" lon="4.82402">
        <ele>154.60000610352</ele>
        <time>2024-05-21T07:11:14.000Z</time>
      </trkpt>
      <trkpt lat="45.48945" lon="4.82398">
        <ele>154.80000305176</ele>
        <time>2024-05-21T07:11:15.000Z</time>
      </trkpt>
      <trkpt lat="45.4894" lon="4.82395">
        <ele>155</ele>
        <time>2024-05-21T07:11:16.000Z</time>
      </trkpt>
      <trkpt lat="45.48934" lon="4.82391">
        <ele>155.19999694824</ele>
        <time>2024-05-21T07:11:17.000Z</time>
      </trkpt>
      <trkpt lat="45.48929" lon="4.82388">
        <ele>155.39999389648</ele>
        <time>2024-05-21T07:11:18.000Z</time>
      </trkpt>
      <trkpt lat="45.48923" lon="4.82385">
        <ele>155.39999389648</ele>
        <time>2024-05-21T07:11:19.000Z</time>
      </trkpt>
      <trkpt lat="45.48917" lon="4.82382">
        <ele>155.39999389648</ele>
        <time>2024-05-21T07:11:20.000Z</time>
      </trkpt>
      <trkpt lat="45.48912" lon="4.82379">
        <ele>155.60000610352</ele>
        <time>2024-05-21T07:11:21.000Z</time>
      </trkpt>
      <trkpt lat="45.48906" lon="4.82377">
        <ele>155.60000610352</ele>
        <time>2024-05-21T07:11:22.000Z</time>
      </trkpt>
      <trkpt lat="45.489" lon="4.82374">
        <ele>155.60000610352</ele>
        <time>2024-05-21T07:11:23.000Z</time>
      </trkpt>
      <trkpt lat="45.48894" lon="4.82372">
        <ele>155.60000610352</ele>
        <time>2024-05-21T07:11:24.000Z</time>
      </trkpt>
      <trkpt lat="45.48888" lon="4.82371">
        <ele>155.60000610352</ele>
        <time>2024-05-21T07:11:25.000Z</time>
      </trkpt>
      <trkpt lat="45.48883" lon="4.82369">
        <ele>155.60000610352</ele>
        <time>2024-05-21T07:11:26.000Z</time>
      </trkpt>
      <trkpt lat="45.48877" lon="4.82368">
        <ele>155.60000610352</ele>
        <time>2024-05-21T07:11:27.000Z</time>
      </trkpt>
      <trkpt lat="45.48871" lon="4.82367">
        <ele>155.80000305176</ele>
        <time>2024-05-21T07:11:28.000Z</time>
      </trkpt>
      <trkpt lat="45.48865" lon="4.82365">
        <ele>155.80000305176</ele>
        <time>2024-05-21T07:11:29.000Z</time>
      </trkpt>
      <trkpt lat="45.48859" lon="4.82364">
        <ele>155.80000305176</ele>
        <time>2024-05-21T07:11:30.000Z</time>
      </trkpt>
      <trkpt lat="45.48853" lon="4.82363">
        <ele>155.80000305176</ele>
        <time>2024-05-21T07:11:31.000Z</time>
      </trkpt>
      <trkpt lat="45.48846" lon="4.82362">
        <ele>155.80000305176</ele>
        <time>2024-05-21T07:11:32.000Z</time>
      </trkpt>
      <trkpt lat="45.4884" lon="4.8236">
        <ele>155.39999389648</ele>
        <time>2024-05-21T07:11:33.000Z</time>
      </trkpt>
      <trkpt lat="45.48834" lon="4.82359">
        <ele>155.39999389648</ele>
        <time>2024-05-21T07:11:34.000Z</time>
      </trkpt>
      <trkpt lat="45.48827" lon="4.82358">
        <ele>155.39999389648</ele>
        <time>2024-05-21T07:11:35.000Z</time>
      </trkpt>
      <trkpt lat="45.48821" lon="4.82357">
        <ele>155.19999694824</ele>
        <time>2024-05-21T07:11:36.000Z</time>
      </trkpt>
      <trkpt lat="45.48815" lon="4.82355">
        <ele>155.19999694824</ele>
        <time>2024-05-21T07:11:37.000Z</time>
      </trkpt>
      <trkpt lat="45.48809" lon="4.82353">
        <ele>155</ele>
        <time>2024-05-21T07:11:38.000Z</time>
      </trkpt>
      <trkpt lat="45.48802" lon="4.82351">
        <ele>154.80000305176</ele>
        <time>2024-05-21T07:11:39.000Z</time>
      </trkpt>
      <trkpt lat="45.48796" lon="4.82349">
        <ele>154.80000305176</ele>
        <time>2024-05-21T07:11:40.000Z</time>
      </trkpt>
      <trkpt lat="45.4879" lon="4.82346">
        <ele>154.80000305176</ele>
        <time>2024-05-21T07:11:41.000Z</time>
      </trkpt>
      <trkpt lat="45.48783" lon="4.82343">
        <ele>154.80000305176</ele>
        <time>2024-05-21T07:11:42.000Z</time>
      </trkpt>
      <trkpt lat="45.48776" lon="4.8234">
        <ele>154.60000610352</ele>
        <time>2024-05-21T07:11:43.000Z</time>
      </trkpt>
      <trkpt lat="45.4877" lon="4.82336">
        <ele>154.60000610352</ele>
        <time>2024-05-21T07:11:44.000Z</time>
      </trkpt>
      <trkpt lat="45.48764" lon="4.82332">
        <ele>154.39999389648</ele>
        <time>2024-05-21T07:11:45.000Z</time>
      </trkpt>
      <trkpt lat="45.48757" lon="4.82328">
        <ele>154.19999694824</ele>
        <time>2024-05-21T07:11:46.000Z</time>
      </trkpt>
      <trkpt lat="45.48751" lon="4.82323">
        <ele>154</ele>
        <time>2024-05-21T07:11:47.000Z</time>
      </trkpt>
      <trkpt lat="45.48745" lon="4.82318">
        <ele>153.80000305176</ele>
        <time>2024-05-21T07:11:48.000Z</time>
      </trkpt>
      <trkpt lat="45.48738" lon="4.82313">
        <ele>153.80000305176</ele>
        <time>2024-05-21T07:11:49.000Z</time>
      </trkpt>
      <trkpt lat="45.48732" lon="4.82308">
        <ele>153.60000610352</ele>
        <time>2024-05-21T07:11:50.000Z</time>
      </trkpt>
      <trkpt lat="45.48727" lon="4.82303">
        <ele>153.39999389648</ele>
        <time>2024-05-21T07:11:51.000Z</time>
      </trkpt>
      <trkpt lat="45.48721" lon="4.82297">
        <ele>153.39999389648</ele>
        <time>2024-05-21T07:11:52.000Z</time>
      </trkpt>
      <trkpt lat="45.48716" lon="4.82291">
        <ele>153.39999389648</ele>
        <time>2024-05-21T07:11:53.000Z</time>
      </trkpt>
      <trkpt lat="45.48711" lon="4.82285">
        <ele>153.39999389648</ele>
        <time>2024-05-21T07:11:54.000Z</time>
      </trkpt>
      <trkpt lat="45.48705" lon="4.82279">
        <ele>153.39999389648</ele>
        <time>2024-05-21T07:11:55.000Z</time>
      </trkpt>
      <trkpt lat="45.487" lon="4.82273">
        <ele>153.60000610352</ele>
        <time>2024-05-21T07:11:56.000Z</time>
      </trkpt>
      <trkpt lat="45.48695" lon="4.82267">
        <ele>153.60000610352</ele>
        <time>2024-05-21T07:11:57.000Z</time>
      </trkpt>
      <trkpt lat="45.4869" lon="4.8226">
        <ele>153.60000610352</ele>
        <time>2024-05-21T07:11:58.000Z</time>
      </trkpt>
      <trkpt lat="45.48686" lon="4.82254">
        <ele>153.60000610352</ele>
        <time>2024-05-21T07:11:59.000Z</time>
      </trkpt>
      <trkpt lat="45.48681" lon="4.82247">
        <ele>153.60000610352</ele>
        <time>2024-05-21T07:12:00.000Z</time>
      </trkpt>
      <trkpt lat="45.48677" lon="4.8224">
        <ele>153.60000610352</ele>
        <time>2024-05-21T07:12:01.000Z</time>
      </trkpt>
      <trkpt lat="45.48672" lon="4.82233">
        <ele>153.60000610352</ele>
        <time>2024-05-21T07:12:02.000Z</time>
      </trkpt>
      <trkpt lat="45.48667" lon="4.82226">
        <ele>153.60000610352</ele>
        <time>2024-05-21T07:12:03.000Z</time>
      </trkpt>
      <trkpt lat="45.48662" lon="4.82218">
        <ele>153.60000610352</ele>
        <time>2024-05-21T07:12:04.000Z</time>
      </trkpt>
      <trkpt lat="45.48657" lon="4.8221">
        <ele>153.39999389648</ele>
        <time>2024-05-21T07:12:05.000Z</time>
      </trkpt>
      <trkpt lat="45.48652" lon="4.82202">
        <ele>153.19999694824</ele>
        <time>2024-05-21T07:12:06.000Z</time>
      </trkpt>
      <trkpt lat="45.48648" lon="4.82195">
        <ele>153</ele>
        <time>2024-05-21T07:12:07.000Z</time>
      </trkpt>
      <trkpt lat="45.48643" lon="4.82187">
        <ele>153</ele>
        <time>2024-05-21T07:12:08.000Z</time>
      </trkpt>
      <trkpt lat="45.48639" lon="4.8218">
        <ele>153</ele>
        <time>2024-05-21T07:12:09.000Z</time>
      </trkpt>
      <trkpt lat="45.48635" lon="4.82173">
        <ele>153</ele>
        <time>2024-05-21T07:12:10.000Z</time>
      </trkpt>
      <trkpt lat="45.4863" lon="4.82164">
        <ele>153.19999694824</ele>
        <time>2024-05-21T07:12:11.000Z</time>
      </trkpt>
      <trkpt lat="45.48626" lon="4.82159">
        <ele>153.19999694824</ele>
        <time>2024-05-21T07:12:12.000Z</time>
      </trkpt>
      <trkpt lat="45.48622" lon="4.82152">
        <ele>153.60000610352</ele>
        <time>2024-05-21T07:12:13.000Z</time>
      </trkpt>
      <trkpt lat="45.48618" lon="4.82145">
        <ele>153.60000610352</ele>
        <time>2024-05-21T07:12:14.000Z</time>
      </trkpt>
      <trkpt lat="45.48614" lon="4.82138">
        <ele>153.80000305176</ele>
        <time>2024-05-21T07:12:15.000Z</time>
      </trkpt>
      <trkpt lat="45.4861" lon="4.82131">
        <ele>154</ele>
        <time>2024-05-21T07:12:16.000Z</time>
      </trkpt>
      <trkpt lat="45.48606" lon="4.82124">
        <ele>154</ele>
        <time>2024-05-21T07:12:17.000Z</time>
      </trkpt>
      <trkpt lat="45.48602" lon="4.82118">
        <ele>154</ele>
        <time>2024-05-21T07:12:18.000Z</time>
      </trkpt>
      <trkpt lat="45.48598" lon="4.82111">
        <ele>154</ele>
        <time>2024-05-21T07:12:19.000Z</time>
      </trkpt>
      <trkpt lat="45.48594" lon="4.82104">
        <ele>154</ele>
        <time>2024-05-21T07:12:20.000Z</time>
      </trkpt>
      <trkpt lat="45.4859" lon="4.82097">
        <ele>154.19999694824</ele>
        <time>2024-05-21T07:12:21.000Z</time>
      </trkpt>
      <trkpt lat="45.48586" lon="4.82091">
        <ele>154.19999694824</ele>
        <time>2024-05-21T07:12:22.000Z</time>
      </trkpt>
      <trkpt lat="45.48582" lon="4.82084">
        <ele>154.39999389648</ele>
        <time>2024-05-21T07:12:23.000Z</time>
      </trkpt>
      <trkpt lat="45.48578" lon="4.82078">
        <ele>154.39999389648</ele>
        <time>2024-05-21T07:12:24.000Z</time>
      </trkpt>
      <trkpt lat="45.48574" lon="4.82071">
        <ele>154.60000610352</ele>
        <time>2024-05-21T07:12:25.000Z</time>
      </trkpt>
      <trkpt lat="45.4857" lon="4.82065">
        <ele>154.60000610352</ele>
        <time>2024-05-21T07:12:26.000Z</time>
      </trkpt>
      <trkpt lat="45.48566" lon="4.82059">
        <ele>154.80000305176</ele>
        <time>2024-05-21T07:12:27.000Z</time>
      </trkpt>
      <trkpt lat="45.48562" lon="4.82052">
        <ele>155</ele>
        <time>2024-05-21T07:12:28.000Z</time>
      </trkpt>
      <trkpt lat="45.48558" lon="4.82046">
        <ele>155</ele>
        <time>2024-05-21T07:12:29.000Z</time>
      </trkpt>
      <trkpt lat="45.48555" lon="4.8204">
        <ele>155.19999694824</ele>
        <time>2024-05-21T07:12:30.000Z</time>
      </trkpt>
      <trkpt lat="45.48551" lon="4.82034">
        <ele>155.19999694824</ele>
        <time>2024-05-21T07:12:31.000Z</time>
      </trkpt>
      <trkpt lat="45.48547" lon="4.82027">
        <ele>155.19999694824</ele>
        <time>2024-05-21T07:12:32.000Z</time>
      </trkpt>
      <trkpt lat="45.48544" lon="4.82022">
        <ele>155.19999694824</ele>
        <time>2024-05-21T07:12:33.000Z</time>
      </trkpt>
      <trkpt lat="45.4854" lon="4.82016">
        <ele>155.39999389648</ele>
        <time>2024-05-21T07:12:34.000Z</time>
      </trkpt>
      <trkpt lat="45.48537" lon="4.82009">
        <ele>155.60000610352</ele>
        <time>2024-05-21T07:12:35.000Z</time>
      </trkpt>
      <trkpt lat="45.48533" lon="4.82003">
        <ele>155.60000610352</ele>
        <time>2024-05-21T07:12:36.000Z</time>
      </trkpt>
      <trkpt lat="45.48529" lon="4.81997">
        <ele>155.80000305176</ele>
        <time>2024-05-21T07:12:37.000Z</time>
      </trkpt>
      <trkpt lat="45.48526" lon="4.81991">
        <ele>155.80000305176</ele>
        <time>2024-05-21T07:12:38.000Z</time>
      </trkpt>
      <trkpt lat="45.48522" lon="4.81985">
        <ele>155.80000305176</ele>
        <time>2024-05-21T07:12:39.000Z</time>
      </trkpt>
      <trkpt lat="45.48519" lon="4.81979">
        <ele>155.80000305176</ele>
        <time>2024-05-21T07:12:40.000Z</time>
      </trkpt>
      <trkpt lat="45.48515" lon="4.81973">
        <ele>156</ele>
        <time>2024-05-21T07:12:41.000Z</time>
      </trkpt>
      <trkpt lat="45.48511" lon="4.81966">
        <ele>156</ele>
        <time>2024-05-21T07:12:42.000Z</time>
      </trkpt>
      <trkpt lat="45.48508" lon="4.8196">
        <ele>156</ele>
        <time>2024-05-21T07:12:43.000Z</time>
      </trkpt>
      <trkpt lat="45.48504" lon="4.81953">
        <ele>156.19999694824</ele>
        <time>2024-05-21T07:12:44.000Z</time>
      </trkpt>
      <trkpt lat="45.485" lon="4.81946">
        <ele>156.19999694824</ele>
        <time>2024-05-21T07:12:45.000Z</time>
      </trkpt>
      <trkpt lat="45.48497" lon="4.81939">
        <ele>156.19999694824</ele>
        <time>2024-05-21T07:12:46.000Z</time>
      </trkpt>
      <trkpt lat="45.48493" lon="4.81933">
        <ele>156.19999694824</ele>
        <time>2024-05-21T07:12:47.000Z</time>
      </trkpt>
      <trkpt lat="45.48489" lon="4.81926">
        <ele>156.19999694824</ele>
        <time>2024-05-21T07:12:48.000Z</time>
      </trkpt>
      <trkpt lat="45.48485" lon="4.81919">
        <ele>156.19999694824</ele>
        <time>2024-05-21T07:12:49.000Z</time>
      </trkpt>
      <trkpt lat="45.48481" lon="4.81912">
        <ele>156</ele>
        <time>2024-05-21T07:12:50.000Z</time>
      </trkpt>
      <trkpt lat="45.48477" lon="4.81905">
        <ele>156</ele>
        <time>2024-05-21T07:12:51.000Z</time>
      </trkpt>
      <trkpt lat="45.48473" lon="4.81898">
        <ele>155.80000305176</ele>
        <time>2024-05-21T07:12:52.000Z</time>
      </trkpt>
      <trkpt lat="45.48469" lon="4.8189">
        <ele>155.60000610352</ele>
        <time>2024-05-21T07:12:53.000Z</time>
      </trkpt>
      <trkpt lat="45.48465" lon="4.81883">
        <ele>155.60000610352</ele>
        <time>2024-05-21T07:12:54.000Z</time>
      </trkpt>
      <trkpt lat="45.48461" lon="4.81876">
        <ele>155.39999389648</ele>
        <time>2024-05-21T07:12:55.000Z</time>
      </trkpt>
      <trkpt lat="45.48457" lon="4.81868">
        <ele>155.39999389648</ele>
        <time>2024-05-21T07:12:56.000Z</time>
      </trkpt>
      <trkpt lat="45.48453" lon="4.81861">
        <ele>155.19999694824</ele>
        <time>2024-05-21T07:12:57.000Z</time>
      </trkpt>
      <trkpt lat="45.48449" lon="4.81854">
        <ele>155.19999694824</ele>
        <time>2024-05-21T07:12:58.000Z</time>
      </trkpt>
      <trkpt lat="45.48445" lon="4.81847">
        <ele>155.19999694824</ele>
        <time>2024-05-21T07:12:59.000Z</time>
      </trkpt>
      <trkpt lat="45.48441" lon="4.8184">
        <ele>155</ele>
        <time>2024-05-21T07:13:00.000Z</time>
      </trkpt>
      <trkpt lat="45.48437" lon="4.81832">
        <ele>155</ele>
        <time>2024-05-21T07:13:01.000Z</time>
      </trkpt>
      <trkpt lat="45.48432" lon="4.81824">
        <ele>155</ele>
        <time>2024-05-21T07:13:02.000Z</time>
      </trkpt>
      <trkpt lat="45.48428" lon="4.81817">
        <ele>155</ele>
        <time>2024-05-21T07:13:03.000Z</time>
      </trkpt>
      <trkpt lat="45.48424" lon="4.81809">
        <ele>154.80000305176</ele>
        <time>2024-05-21T07:13:04.000Z</time>
      </trkpt>
      <trkpt lat="45.4842" lon="4.81802">
        <ele>154.80000305176</ele>
        <time>2024-05-21T07:13:05.000Z</time>
      </trkpt>
      <trkpt lat="45.48416" lon="4.81794">
        <ele>154.60000610352</ele>
        <time>2024-05-21T07:13:06.000Z</time>
      </trkpt>
      <trkpt lat="45.48412" lon="4.81786">
        <ele>154.60000610352</ele>
        <time>2024-05-21T07:13:07.000Z</time>
      </trkpt>
      <trkpt lat="45.48408" lon="4.81777">
        <ele>154.60000610352</ele>
        <time>2024-05-21T07:13:08.000Z</time>
      </trkpt>
      <trkpt lat="45.48404" lon="4.81769">
        <ele>154.39999389648</ele>
        <time>2024-05-21T07:13:09.000Z</time>
      </trkpt>
      <trkpt lat="45.484" lon="4.81759">
        <ele>154.39999389648</ele>
        <time>2024-05-21T07:13:10.000Z</time>
      </trkpt>
      <trkpt lat="45.48395" lon="4.8175">
        <ele>154.19999694824</ele>
        <time>2024-05-21T07:13:11.000Z</time>
      </trkpt>
      <trkpt lat="45.48391" lon="4.8174">
        <ele>153.80000305176</ele>
        <time>2024-05-21T07:13:12.000Z</time>
      </trkpt>
      <trkpt lat="45.48386" lon="4.81731">
        <ele>153.60000610352</ele>
        <time>2024-05-21T07:13:13.000Z</time>
      </trkpt>
      <trkpt lat="45.48382" lon="4.81721">
        <ele>153.39999389648</ele>
        <time>2024-05-21T07:13:14.000Z</time>
      </trkpt>
      <trkpt lat="45.48377" lon="4.81711">
        <ele>153</ele>
        <time>2024-05-21T07:13:15.000Z</time>
      </trkpt>
      <trkpt lat="45.48372" lon="4.817">
        <ele>152.80000305176</ele>
        <time>2024-05-21T07:13:16.000Z</time>
      </trkpt>
      <trkpt lat="45.48369" lon="4.81692">
        <ele>152.39999389648</ele>
        <time>2024-05-21T07:13:17.000Z</time>
      </trkpt>
      <trkpt lat="45.48364" lon="4.81682">
        <ele>152.19999694824</ele>
        <time>2024-05-21T07:13:18.000Z</time>
      </trkpt>
      <trkpt lat="45.4836" lon="4.81671">
        <ele>151.80000305176</ele>
        <time>2024-05-21T07:13:19.000Z</time>
      </trkpt>
      <trkpt lat="45.48356" lon="4.81662">
        <ele>151.80000305176</ele>
        <time>2024-05-21T07:13:20.000Z</time>
      </trkpt>
      <trkpt lat="45.48351" lon="4.81652">
        <ele>151.60000610352</ele>
        <time>2024-05-21T07:13:21.000Z</time>
      </trkpt>
      <trkpt lat="45.48348" lon="4.81642">
        <ele>151.19999694824</ele>
        <time>2024-05-21T07:13:22.000Z</time>
      </trkpt>
      <trkpt lat="45.48344" lon="4.81632">
        <ele>151.19999694824</ele>
        <time>2024-05-21T07:13:23.000Z</time>
      </trkpt>
      <trkpt lat="45.4834" lon="4.81623">
        <ele>151</ele>
        <time>2024-05-21T07:13:24.000Z</time>
      </trkpt>
      <trkpt lat="45.48337" lon="4.81613">
        <ele>151</ele>
        <time>2024-05-21T07:13:25.000Z</time>
      </trkpt>
      <trkpt lat="45.48334" lon="4.81603">
        <ele>151</ele>
        <time>2024-05-21T07:13:26.000Z</time>
      </trkpt>
      <trkpt lat="45.48331" lon="4.81593">
        <ele>151</ele>
        <time>2024-05-21T07:13:27.000Z</time>
      </trkpt>
      <trkpt lat="45.48328" lon="4.81584">
        <ele>151</ele>
        <time>2024-05-21T07:13:28.000Z</time>
      </trkpt>
      <trkpt lat="45.48324" lon="4.81574">
        <ele>150.80000305176</ele>
        <time>2024-05-21T07:13:29.000Z</time>
      </trkpt>
      <trkpt lat="45.48321" lon="4.81564">
        <ele>151</ele>
        <time>2024-05-21T07:13:30.000Z</time>
      </trkpt>
      <trkpt lat="45.48318" lon="4.81554">
        <ele>151</ele>
        <time>2024-05-21T07:13:31.000Z</time>
      </trkpt>
      <trkpt lat="45.48314" lon="4.81544">
        <ele>151</ele>
        <time>2024-05-21T07:13:32.000Z</time>
      </trkpt>
      <trkpt lat="45.48311" lon="4.81534">
        <ele>151</ele>
        <time>2024-05-21T07:13:33.000Z</time>
      </trkpt>
      <trkpt lat="45.48309" lon="4.81524">
        <ele>151</ele>
        <time>2024-05-21T07:13:34.000Z</time>
      </trkpt>
      <trkpt lat="45.48306" lon="4.81515">
        <ele>151</ele>
        <time>2024-05-21T07:13:35.000Z</time>
      </trkpt>
      <trkpt lat="45.48304" lon="4.81506">
        <ele>151</ele>
        <time>2024-05-21T07:13:36.000Z</time>
      </trkpt>
      <trkpt lat="45.48302" lon="4.81497">
        <ele>151</ele>
        <time>2024-05-21T07:13:37.000Z</time>
      </trkpt>
      <trkpt lat="45.48299" lon="4.81487">
        <ele>151</ele>
        <time>2024-05-21T07:13:38.000Z</time>
      </trkpt>
      <trkpt lat="45.48297" lon="4.81479">
        <ele>151</ele>
        <time>2024-05-21T07:13:39.000Z</time>
      </trkpt>
      <trkpt lat="45.48295" lon="4.8147">
        <ele>151</ele>
        <time>2024-05-21T07:13:40.000Z</time>
      </trkpt>
      <trkpt lat="45.48293" lon="4.81461">
        <ele>151</ele>
        <time>2024-05-21T07:13:41.000Z</time>
      </trkpt>
      <trkpt lat="45.4829" lon="4.81452">
        <ele>151.19999694824</ele>
        <time>2024-05-21T07:13:42.000Z</time>
      </trkpt>
      <trkpt lat="45.48288" lon="4.81444">
        <ele>151.39999389648</ele>
        <time>2024-05-21T07:13:43.000Z</time>
      </trkpt>
      <trkpt lat="45.48287" lon="4.81435">
        <ele>151.39999389648</ele>
        <time>2024-05-21T07:13:44.000Z</time>
      </trkpt>
      <trkpt lat="45.48285" lon="4.81426">
        <ele>151.60000610352</ele>
        <time>2024-05-21T07:13:45.000Z</time>
      </trkpt>
      <trkpt lat="45.48283" lon="4.81417">
        <ele>151.80000305176</ele>
        <time>2024-05-21T07:13:46.000Z</time>
      </trkpt>
      <trkpt lat="45.48281" lon="4.81409">
        <ele>151.80000305176</ele>
        <time>2024-05-21T07:13:47.000Z</time>
      </trkpt>
      <trkpt lat="45.4828" lon="4.81401">
        <ele>151.80000305176</ele>
        <time>2024-05-21T07:13:48.000Z</time>
      </trkpt>
      <trkpt lat="45.48279" lon="4.81392">
        <ele>152</ele>
        <time>2024-05-21T07:13:49.000Z</time>
      </trkpt>
      <trkpt lat="45.48278" lon="4.81384">
        <ele>152.39999389648</ele>
        <time>2024-05-21T07:13:50.000Z</time>
      </trkpt>
      <trkpt lat="45.48277" lon="4.81376">
        <ele>152.60000610352</ele>
        <time>2024-05-21T07:13:51.000Z</time>
      </trkpt>
      <trkpt lat="45.48276" lon="4.81369">
        <ele>153</ele>
        <time>2024-05-21T07:13:52.000Z</time>
      </trkpt>
      <trkpt lat="45.48275" lon="4.81361">
        <ele>153</ele>
        <time>2024-05-21T07:13:53.000Z</time>
      </trkpt>
      <trkpt lat="45.48273" lon="4.81354">
        <ele>153.39999389648</ele>
        <time>2024-05-21T07:13:54.000Z</time>
      </trkpt>
      <trkpt lat="45.48272" lon="4.81346">
        <ele>153.39999389648</ele>
        <time>2024-05-21T07:13:55.000Z</time>
      </trkpt>
      <trkpt lat="45.4827" lon="4.81339">
        <ele>153.39999389648</ele>
        <time>2024-05-21T07:13:56.000Z</time>
      </trkpt>
      <trkpt lat="45.48269" lon="4.81332">
        <ele>153.60000610352</ele>
        <time>2024-05-21T07:13:57.000Z</time>
      </trkpt>
      <trkpt lat="45.48267" lon="4.81324">
        <ele>153.60000610352</ele>
        <time>2024-05-21T07:13:58.000Z</time>
      </trkpt>
      <trkpt lat="45.48264" lon="4.81316">
        <ele>153.60000610352</ele>
        <time>2024-05-21T07:13:59.000Z</time>
      </trkpt>
      <trkpt lat="45.48262" lon="4.81308">
        <ele>153.60000610352</ele>
        <time>2024-05-21T07:14:00.000Z</time>
      </trkpt>
      <trkpt lat="45.48259" lon="4.813">
        <ele>153.60000610352</ele>
        <time>2024-05-21T07:14:01.000Z</time>
      </trkpt>
      <trkpt lat="45.48257" lon="4.81292">
        <ele>153.60000610352</ele>
        <time>2024-05-21T07:14:02.000Z</time>
      </trkpt>
      <trkpt lat="45.48255" lon="4.81284">
        <ele>153.80000305176</ele>
        <time>2024-05-21T07:14:03.000Z</time>
      </trkpt>
      <trkpt lat="45.48253" lon="4.81277">
        <ele>153.80000305176</ele>
        <time>2024-05-21T07:14:04.000Z</time>
      </trkpt>
      <trkpt lat="45.4825" lon="4.81265">
        <ele>153.60000610352</ele>
        <time>2024-05-21T07:14:05.000Z</time>
      </trkpt>
      <trkpt lat="45.48248" lon="4.81258">
        <ele>153.60000610352</ele>
        <time>2024-05-21T07:14:06.000Z</time>
      </trkpt>
      <trkpt lat="45.48246" lon="4.81249">
        <ele>153.60000610352</ele>
        <time>2024-05-21T07:14:07.000Z</time>
      </trkpt>
      <trkpt lat="45.48243" lon="4.81238">
        <ele>153.39999389648</ele>
        <time>2024-05-21T07:14:08.000Z</time>
      </trkpt>
      <trkpt lat="45.48241" lon="4.81231">
        <ele>153.39999389648</ele>
        <time>2024-05-21T07:14:09.000Z</time>
      </trkpt>
      <trkpt lat="45.48238" lon="4.81222">
        <ele>153.19999694824</ele>
        <time>2024-05-21T07:14:10.000Z</time>
      </trkpt>
      <trkpt lat="45.48236" lon="4.81214">
        <ele>153</ele>
        <time>2024-05-21T07:14:11.000Z</time>
      </trkpt>
      <trkpt lat="45.48233" lon="4.81205">
        <ele>152.80000305176</ele>
        <time>2024-05-21T07:14:12.000Z</time>
      </trkpt>
      <trkpt lat="45.4823" lon="4.81197">
        <ele>152.80000305176</ele>
        <time>2024-05-21T07:14:13.000Z</time>
      </trkpt>
      <trkpt lat="45.48226" lon="4.81188">
        <ele>152.80000305176</ele>
        <time>2024-05-21T07:14:14.000Z</time>
      </trkpt>
      <trkpt lat="45.48223" lon="4.8118">
        <ele>152.60000610352</ele>
        <time>2024-05-21T07:14:15.000Z</time>
      </trkpt>
      <trkpt lat="45.4822" lon="4.81171">
        <ele>152.80000305176</ele>
        <time>2024-05-21T07:14:16.000Z</time>
      </trkpt>
      <trkpt lat="45.48216" lon="4.81161">
        <ele>152.60000610352</ele>
        <time>2024-05-21T07:14:17.000Z</time>
      </trkpt>
      <trkpt lat="45.48213" lon="4.81152">
        <ele>152.60000610352</ele>
        <time>2024-05-21T07:14:18.000Z</time>
      </trkpt>
      <trkpt lat="45.48209" lon="4.81146">
        <ele>152.60000610352</ele>
        <time>2024-05-21T07:14:19.000Z</time>
      </trkpt>
      <trkpt lat="45.48205" lon="4.81136">
        <ele>152.60000610352</ele>
        <time>2024-05-21T07:14:20.000Z</time>
      </trkpt>
      <trkpt lat="45.48203" lon="4.8113">
        <ele>152.60000610352</ele>
        <time>2024-05-21T07:14:21.000Z</time>
      </trkpt>
      <trkpt lat="45.48199" lon="4.81123">
        <ele>152.80000305176</ele>
        <time>2024-05-21T07:14:22.000Z</time>
      </trkpt>
      <trkpt lat="45.48196" lon="4.81115">
        <ele>152.80000305176</ele>
        <time>2024-05-21T07:14:23.000Z</time>
      </trkpt>
      <trkpt lat="45.48193" lon="4.81107">
        <ele>153</ele>
        <time>2024-05-21T07:14:24.000Z</time>
      </trkpt>
      <trkpt lat="45.4819" lon="4.811">
        <ele>153</ele>
        <time>2024-05-21T07:14:25.000Z</time>
      </trkpt>
      <trkpt lat="45.48187" lon="4.81091">
        <ele>153</ele>
        <time>2024-05-21T07:14:26.000Z</time>
      </trkpt>
      <trkpt lat="45.48184" lon="4.81083">
        <ele>153</ele>
        <time>2024-05-21T07:14:27.000Z</time>
      </trkpt>
      <trkpt lat="45.48182" lon="4.81076">
        <ele>153</ele>
        <time>2024-05-21T07:14:28.000Z</time>
      </trkpt>
      <trkpt lat="45.48178" lon="4.81067">
        <ele>153</ele>
        <time>2024-05-21T07:14:29.000Z</time>
      </trkpt>
      <trkpt lat="45.48175" lon="4.8106">
        <ele>153</ele>
        <time>2024-05-21T07:14:30.000Z</time>
      </trkpt>
      <trkpt lat="45.48173" lon="4.81054">
        <ele>153</ele>
        <time>2024-05-21T07:14:31.000Z</time>
      </trkpt>
      <trkpt lat="45.4817" lon="4.81046">
        <ele>153</ele>
        <time>2024-05-21T07:14:32.000Z</time>
      </trkpt>
      <trkpt lat="45.48167" lon="4.81039">
        <ele>153</ele>
        <time>2024-05-21T07:14:33.000Z</time>
      </trkpt>
      <trkpt lat="45.48164" lon="4.81031">
        <ele>153.19999694824</ele>
        <time>2024-05-21T07:14:34.000Z</time>
      </trkpt>
      <trkpt lat="45.4816" lon="4.81022">
        <ele>153.19999694824</ele>
        <time>2024-05-21T07:14:35.000Z</time>
      </trkpt>
      <trkpt lat="45.48157" lon="4.81014">
        <ele>153.19999694824</ele>
        <time>2024-05-21T07:14:36.000Z</time>
      </trkpt>
      <trkpt lat="45.48155" lon="4.81008">
        <ele>153.39999389648</ele>
        <time>2024-05-21T07:14:37.000Z</time>
      </trkpt>
      <trkpt lat="45.48151" lon="4.80998">
        <ele>153.39999389648</ele>
        <time>2024-05-21T07:14:38.000Z</time>
      </trkpt>
      <trkpt lat="45.48149" lon="4.80992">
        <ele>153.39999389648</ele>
        <time>2024-05-21T07:14:39.000Z</time>
      </trkpt>
      <trkpt lat="45.48146" lon="4.80985">
        <ele>153.39999389648</ele>
        <time>2024-05-21T07:14:40.000Z</time>
      </trkpt>
      <trkpt lat="45.48143" lon="4.80976">
        <ele>153.60000610352</ele>
        <time>2024-05-21T07:14:41.000Z</time>
      </trkpt>
      <trkpt lat="45.48139" lon="4.80969">
        <ele>153.60000610352</ele>
        <time>2024-05-21T07:14:42.000Z</time>
      </trkpt>
      <trkpt lat="45.48137" lon="4.80963">
        <ele>153.60000610352</ele>
        <time>2024-05-21T07:14:43.000Z</time>
      </trkpt>
      <trkpt lat="45.48133" lon="4.80954">
        <ele>153.60000610352</ele>
        <time>2024-05-21T07:14:44.000Z</time>
      </trkpt>
      <trkpt lat="45.4813" lon="4.80947">
        <ele>153.39999389648</ele>
        <time>2024-05-21T07:14:45.000Z</time>
      </trkpt>
      <trkpt lat="45.48128" lon="4.8094">
        <ele>153.39999389648</ele>
        <time>2024-05-21T07:14:46.000Z</time>
      </trkpt>
      <trkpt lat="45.48124" lon="4.80931">
        <ele>153.19999694824</ele>
        <time>2024-05-21T07:14:47.000Z</time>
      </trkpt>
      <trkpt lat="45.48121" lon="4.80923">
        <ele>153.19999694824</ele>
        <time>2024-05-21T07:14:48.000Z</time>
      </trkpt>
      <trkpt lat="45.48119" lon="4.80916">
        <ele>153.19999694824</ele>
        <time>2024-05-21T07:14:49.000Z</time>
      </trkpt>
      <trkpt lat="45.48115" lon="4.80906">
        <ele>153.19999694824</ele>
        <time>2024-05-21T07:14:50.000Z</time>
      </trkpt>
      <trkpt lat="45.48113" lon="4.80899">
        <ele>153</ele>
        <time>2024-05-21T07:14:51.000Z</time>
      </trkpt>
      <trkpt lat="45.4811" lon="4.80891">
        <ele>153</ele>
        <time>2024-05-21T07:14:52.000Z</time>
      </trkpt>
      <trkpt lat="45.48108" lon="4.80882">
        <ele>153</ele>
        <time>2024-05-21T07:14:53.000Z</time>
      </trkpt>
      <trkpt lat="45.48105" lon="4.80873">
        <ele>153</ele>
        <time>2024-05-21T07:14:54.000Z</time>
      </trkpt>
      <trkpt lat="45.48103" lon="4.80865">
        <ele>153</ele>
        <time>2024-05-21T07:14:55.000Z</time>
      </trkpt>
      <trkpt lat="45.481" lon="4.80856">
        <ele>152.80000305176</ele>
        <time>2024-05-21T07:14:56.000Z</time>
      </trkpt>
      <trkpt lat="45.48097" lon="4.80848">
        <ele>152.80000305176</ele>
        <time>2024-05-21T07:14:57.000Z</time>
      </trkpt>
      <trkpt lat="45.48094" lon="4.80839">
        <ele>153</ele>
        <time>2024-05-21T07:14:58.000Z</time>
      </trkpt>
      <trkpt lat="45.48091" lon="4.80834">
        <ele>153</ele>
        <time>2024-05-21T07:14:59.000Z</time>
      </trkpt>
      <trkpt lat="45.48088" lon="4.80827">
        <ele>153</ele>
        <time>2024-05-21T07:15:00.000Z</time>
      </trkpt>
      <trkpt lat="45.48083" lon="4.80818">
        <ele>153</ele>
        <time>2024-05-21T07:15:01.000Z</time>
      </trkpt>
      <trkpt lat="45.4808" lon="4.80812">
        <ele>153.19999694824</ele>
        <time>2024-05-21T07:15:02.000Z</time>
      </trkpt>
      <trkpt lat="45.48076" lon="4.80803">
        <ele>153.19999694824</ele>
        <time>2024-05-21T07:15:03.000Z</time>
      </trkpt>
      <trkpt lat="45.48073" lon="4.80796">
        <ele>153.39999389648</ele>
        <time>2024-05-21T07:15:04.000Z</time>
      </trkpt>
      <trkpt lat="45.48069" lon="4.80789">
        <ele>153.39999389648</ele>
        <time>2024-05-21T07:15:05.000Z</time>
      </trkpt>
      <trkpt lat="45.48066" lon="4.80782">
        <ele>153.39999389648</ele>
        <time>2024-05-21T07:15:06.000Z</time>
      </trkpt>
      <trkpt lat="45.48063" lon="4.80775">
        <ele>153.60000610352</ele>
        <time>2024-05-21T07:15:07.000Z</time>
      </trkpt>
      <trkpt lat="45.48061" lon="4.80769">
        <ele>153.60000610352</ele>
        <time>2024-05-21T07:15:08.000Z</time>
      </trkpt>
      <trkpt lat="45.48057" lon="4.8076">
        <ele>153.60000610352</ele>
        <time>2024-05-21T07:15:09.000Z</time>
      </trkpt>
      <trkpt lat="45.48055" lon="4.80753">
        <ele>153.60000610352</ele>
        <time>2024-05-21T07:15:10.000Z</time>
      </trkpt>
      <trkpt lat="45.48051" lon="4.80744">
        <ele>153.60000610352</ele>
        <time>2024-05-21T07:15:11.000Z</time>
      </trkpt>
      <trkpt lat="45.48048" lon="4.80736">
        <ele>153.60000610352</ele>
        <time>2024-05-21T07:15:12.000Z</time>
      </trkpt>
      <trkpt lat="45.48045" lon="4.80728">
        <ele>153.60000610352</ele>
        <time>2024-05-21T07:15:13.000Z</time>
      </trkpt>
      <trkpt lat="45.48042" lon="4.80719">
        <ele>153.60000610352</ele>
        <time>2024-05-21T07:15:14.000Z</time>
      </trkpt>
      <trkpt lat="45.48038" lon="4.80713">
        <ele>153.60000610352</ele>
        <time>2024-05-21T07:15:15.000Z</time>
      </trkpt>
      <trkpt lat="45.48035" lon="4.80704">
        <ele>153.60000610352</ele>
        <time>2024-05-21T07:15:16.000Z</time>
      </trkpt>
      <trkpt lat="45.48032" lon="4.80694">
        <ele>153.60000610352</ele>
        <time>2024-05-21T07:15:17.000Z</time>
      </trkpt>
      <trkpt lat="45.48028" lon="4.80686">
        <ele>153.39999389648</ele>
        <time>2024-05-21T07:15:18.000Z</time>
      </trkpt>
      <trkpt lat="45.48026" lon="4.8068">
        <ele>153.39999389648</ele>
        <time>2024-05-21T07:15:19.000Z</time>
      </trkpt>
      <trkpt lat="45.48022" lon="4.8067">
        <ele>153.39999389648</ele>
        <time>2024-05-21T07:15:20.000Z</time>
      </trkpt>
      <trkpt lat="45.48019" lon="4.80662">
        <ele>153.39999389648</ele>
        <time>2024-05-21T07:15:21.000Z</time>
      </trkpt>
      <trkpt lat="45.48016" lon="4.80654">
        <ele>153.39999389648</ele>
        <time>2024-05-21T07:15:22.000Z</time>
      </trkpt>
      <trkpt lat="45.48013" lon="4.80645">
        <ele>153.19999694824</ele>
        <time>2024-05-21T07:15:23.000Z</time>
      </trkpt>
      <trkpt lat="45.48009" lon="4.80637">
        <ele>153.19999694824</ele>
        <time>2024-05-21T07:15:24.000Z</time>
      </trkpt>
      <trkpt lat="45.48007" lon="4.8063">
        <ele>153</ele>
        <time>2024-05-21T07:15:25.000Z</time>
      </trkpt>
      <trkpt lat="45.48003" lon="4.80621">
        <ele>153</ele>
        <time>2024-05-21T07:15:26.000Z</time>
      </trkpt>
      <trkpt lat="45.48" lon="4.80611">
        <ele>153</ele>
        <time>2024-05-21T07:15:27.000Z</time>
      </trkpt>
      <trkpt lat="45.47997" lon="4.80603">
        <ele>153</ele>
        <time>2024-05-21T07:15:28.000Z</time>
      </trkpt>
      <trkpt lat="45.47994" lon="4.80594">
        <ele>153</ele>
        <time>2024-05-21T07:15:29.000Z</time>
      </trkpt>
      <trkpt lat="45.47991" lon="4.80586">
        <ele>152.80000305176</ele>
        <time>2024-05-21T07:15:30.000Z</time>
      </trkpt>
      <trkpt lat="45.47989" lon="4.8058">
        <ele>152.80000305176</ele>
        <time>2024-05-21T07:15:31.000Z</time>
      </trkpt>
      <trkpt lat="45.47986" lon="4.80572">
        <ele>152.80000305176</ele>
        <time>2024-05-21T07:15:32.000Z</time>
      </trkpt>
      <trkpt lat="45.47983" lon="4.80562">
        <ele>153</ele>
        <time>2024-05-21T07:15:33.000Z</time>
      </trkpt>
      <trkpt lat="45.47981" lon="4.80553">
        <ele>153</ele>
        <time>2024-05-21T07:15:34.000Z</time>
      </trkpt>
      <trkpt lat="45.4798" lon="4.80544">
        <ele>153</ele>
        <time>2024-05-21T07:15:35.000Z</time>
      </trkpt>
      <trkpt lat="45.47978" lon="4.80537">
        <ele>153</ele>
        <time>2024-05-21T07:15:36.000Z</time>
      </trkpt>
      <trkpt lat="45.47976" lon="4.80528">
        <ele>153</ele>
        <time>2024-05-21T07:15:37.000Z</time>
      </trkpt>
      <trkpt lat="45.47974" lon="4.80518">
        <ele>153</ele>
        <time>2024-05-21T07:15:38.000Z</time>
      </trkpt>
      <trkpt lat="45.47972" lon="4.8051">
        <ele>153</ele>
        <time>2024-05-21T07:15:39.000Z</time>
      </trkpt>
      <trkpt lat="45.4797" lon="4.80502">
        <ele>153</ele>
        <time>2024-05-21T07:15:40.000Z</time>
      </trkpt>
      <trkpt lat="45.47967" lon="4.80495">
        <ele>153</ele>
        <time>2024-05-21T07:15:41.000Z</time>
      </trkpt>
      <trkpt lat="45.47965" lon="4.80487">
        <ele>153</ele>
        <time>2024-05-21T07:15:42.000Z</time>
      </trkpt>
      <trkpt lat="45.47962" lon="4.8048">
        <ele>153.19999694824</ele>
        <time>2024-05-21T07:15:43.000Z</time>
      </trkpt>
      <trkpt lat="45.47959" lon="4.80473">
        <ele>153.19999694824</ele>
        <time>2024-05-21T07:15:44.000Z</time>
      </trkpt>
      <trkpt lat="45.47955" lon="4.80465">
        <ele>153.39999389648</ele>
        <time>2024-05-21T07:15:45.000Z</time>
      </trkpt>
      <trkpt lat="45.47953" lon="4.80459">
        <ele>153.39999389648</ele>
        <time>2024-05-21T07:15:46.000Z</time>
      </trkpt>
      <trkpt lat="45.47949" lon="4.80451">
        <ele>153.39999389648</ele>
        <time>2024-05-21T07:15:47.000Z</time>
      </trkpt>
      <trkpt lat="45.47945" lon="4.80444">
        <ele>153.39999389648</ele>
        <time>2024-05-21T07:15:48.000Z</time>
      </trkpt>
      <trkpt lat="45.47943" lon="4.80439">
        <ele>153.39999389648</ele>
        <time>2024-05-21T07:15:49.000Z</time>
      </trkpt>
      <trkpt lat="45.47938" lon="4.80431">
        <ele>153.39999389648</ele>
        <time>2024-05-21T07:15:50.000Z</time>
      </trkpt>
      <trkpt lat="45.47935" lon="4.80426">
        <ele>153.39999389648</ele>
        <time>2024-05-21T07:15:51.000Z</time>
      </trkpt>
      <trkpt lat="45.47931" lon="4.80419">
        <ele>153.39999389648</ele>
        <time>2024-05-21T07:15:52.000Z</time>
      </trkpt>
      <trkpt lat="45.47927" lon="4.80411">
        <ele>153.39999389648</ele>
        <time>2024-05-21T07:15:53.000Z</time>
      </trkpt>
      <trkpt lat="45.47924" lon="4.80405">
        <ele>153.39999389648</ele>
        <time>2024-05-21T07:15:54.000Z</time>
      </trkpt>
      <trkpt lat="45.4792" lon="4.80398">
        <ele>153.39999389648</ele>
        <time>2024-05-21T07:15:55.000Z</time>
      </trkpt>
      <trkpt lat="45.47916" lon="4.8039">
        <ele>153.39999389648</ele>
        <time>2024-05-21T07:15:56.000Z</time>
      </trkpt>
      <trkpt lat="45.47913" lon="4.80382">
        <ele>153.39999389648</ele>
        <time>2024-05-21T07:15:57.000Z</time>
      </trkpt>
      <trkpt lat="45.4791" lon="4.80376">
        <ele>153.39999389648</ele>
        <time>2024-05-21T07:15:58.000Z</time>
      </trkpt>
      <trkpt lat="45.47906" lon="4.80369">
        <ele>153.39999389648</ele>
        <time>2024-05-21T07:15:59.000Z</time>
      </trkpt>
      <trkpt lat="45.47903" lon="4.80361">
        <ele>153.39999389648</ele>
        <time>2024-05-21T07:16:00.000Z</time>
      </trkpt>
      <trkpt lat="45.479" lon="4.80354">
        <ele>153.60000610352</ele>
        <time>2024-05-21T07:16:01.000Z</time>
      </trkpt>
      <trkpt lat="45.47896" lon="4.80346">
        <ele>153.60000610352</ele>
        <time>2024-05-21T07:16:02.000Z</time>
      </trkpt>
      <trkpt lat="45.47893" lon="4.80339">
        <ele>153.60000610352</ele>
        <time>2024-05-21T07:16:03.000Z</time>
      </trkpt>
      <trkpt lat="45.47891" lon="4.80333">
        <ele>153.60000610352</ele>
        <time>2024-05-21T07:16:04.000Z</time>
      </trkpt>
      <trkpt lat="45.47887" lon="4.80324">
        <ele>153.60000610352</ele>
        <time>2024-05-21T07:16:05.000Z</time>
      </trkpt>
      <trkpt lat="45.47884" lon="4.80316">
        <ele>153.60000610352</ele>
        <time>2024-05-21T07:16:06.000Z</time>
      </trkpt>
      <trkpt lat="45.47881" lon="4.8031">
        <ele>153.60000610352</ele>
        <time>2024-05-21T07:16:07.000Z</time>
      </trkpt>
      <trkpt lat="45.47877" lon="4.80301">
        <ele>153.39999389648</ele>
        <time>2024-05-21T07:16:08.000Z</time>
      </trkpt>
      <trkpt lat="45.47874" lon="4.80292">
        <ele>153.39999389648</ele>
        <time>2024-05-21T07:16:09.000Z</time>
      </trkpt>
      <trkpt lat="45.47871" lon="4.80286">
        <ele>153.19999694824</ele>
        <time>2024-05-21T07:16:10.000Z</time>
      </trkpt>
      <trkpt lat="45.47868" lon="4.80278">
        <ele>153</ele>
        <time>2024-05-21T07:16:11.000Z</time>
      </trkpt>
      <trkpt lat="45.47864" lon="4.80269">
        <ele>153</ele>
        <time>2024-05-21T07:16:12.000Z</time>
      </trkpt>
      <trkpt lat="45.47862" lon="4.80262">
        <ele>152.80000305176</ele>
        <time>2024-05-21T07:16:13.000Z</time>
      </trkpt>
      <trkpt lat="45.47858" lon="4.80253">
        <ele>152.60000610352</ele>
        <time>2024-05-21T07:16:14.000Z</time>
      </trkpt>
      <trkpt lat="45.47855" lon="4.80246">
        <ele>152.60000610352</ele>
        <time>2024-05-21T07:16:15.000Z</time>
      </trkpt>
      <trkpt lat="45.47852" lon="4.80238">
        <ele>152.39999389648</ele>
        <time>2024-05-21T07:16:16.000Z</time>
      </trkpt>
      <trkpt lat="45.47848" lon="4.80228">
        <ele>152.39999389648</ele>
        <time>2024-05-21T07:16:17.000Z</time>
      </trkpt>
      <trkpt lat="45.47844" lon="4.8022">
        <ele>152.39999389648</ele>
        <time>2024-05-21T07:16:18.000Z</time>
      </trkpt>
      <trkpt lat="45.47842" lon="4.80214">
        <ele>152.39999389648</ele>
        <time>2024-05-21T07:16:19.000Z</time>
      </trkpt>
      <trkpt lat="45.47839" lon="4.80208">
        <ele>152.39999389648</ele>
        <time>2024-05-21T07:16:20.000Z</time>
      </trkpt>
      <trkpt lat="45.47836" lon="4.802">
        <ele>152.39999389648</ele>
        <time>2024-05-21T07:16:21.000Z</time>
      </trkpt>
      <trkpt lat="45.47833" lon="4.80193">
        <ele>152.39999389648</ele>
        <time>2024-05-21T07:16:22.000Z</time>
      </trkpt>
      <trkpt lat="45.47829" lon="4.80185">
        <ele>152.39999389648</ele>
        <time>2024-05-21T07:16:23.000Z</time>
      </trkpt>
      <trkpt lat="45.47825" lon="4.80176">
        <ele>152.39999389648</ele>
        <time>2024-05-21T07:16:24.000Z</time>
      </trkpt>
      <trkpt lat="45.47822" lon="4.8017">
        <ele>152.39999389648</ele>
        <time>2024-05-21T07:16:25.000Z</time>
      </trkpt>
      <trkpt lat="45.47818" lon="4.8016">
        <ele>152.39999389648</ele>
        <time>2024-05-21T07:16:26.000Z</time>
      </trkpt>
      <trkpt lat="45.47815" lon="4.80154">
        <ele>152.39999389648</ele>
        <time>2024-05-21T07:16:27.000Z</time>
      </trkpt>
      <trkpt lat="45.47812" lon="4.80147">
        <ele>152.39999389648</ele>
        <time>2024-05-21T07:16:28.000Z</time>
      </trkpt>
      <trkpt lat="45.47808" lon="4.80137">
        <ele>152.39999389648</ele>
        <time>2024-05-21T07:16:29.000Z</time>
      </trkpt>
      <trkpt lat="45.47806" lon="4.80131">
        <ele>152.39999389648</ele>
        <time>2024-05-21T07:16:30.000Z</time>
      </trkpt>
      <trkpt lat="45.47803" lon="4.80123">
        <ele>152.39999389648</ele>
        <time>2024-05-21T07:16:31.000Z</time>
      </trkpt>
      <trkpt lat="45.478" lon="4.80115">
        <ele>152.39999389648</ele>
        <time>2024-05-21T07:16:32.000Z</time>
      </trkpt>
      <trkpt lat="45.47796" lon="4.80106">
        <ele>152.60000610352</ele>
        <time>2024-05-21T07:16:33.000Z</time>
      </trkpt>
      <trkpt lat="45.47793" lon="4.80099">
        <ele>152.60000610352</ele>
        <time>2024-05-21T07:16:34.000Z</time>
      </trkpt>
      <trkpt lat="45.47791" lon="4.80091">
        <ele>152.60000610352</ele>
        <time>2024-05-21T07:16:35.000Z</time>
      </trkpt>
      <trkpt lat="45.47788" lon="4.80084">
        <ele>152.60000610352</ele>
        <time>2024-05-21T07:16:36.000Z</time>
      </trkpt>
      <trkpt lat="45.47786" lon="4.80078">
        <ele>152.80000305176</ele>
        <time>2024-05-21T07:16:37.000Z</time>
      </trkpt>
      <trkpt lat="45.47782" lon="4.8007">
        <ele>152.80000305176</ele>
        <time>2024-05-21T07:16:38.000Z</time>
      </trkpt>
      <trkpt lat="45.4778" lon="4.80063">
        <ele>152.80000305176</ele>
        <time>2024-05-21T07:16:39.000Z</time>
      </trkpt>
      <trkpt lat="45.47777" lon="4.80057">
        <ele>152.80000305176</ele>
        <time>2024-05-21T07:16:40.000Z</time>
      </trkpt>
      <trkpt lat="45.47774" lon="4.8005">
        <ele>152.80000305176</ele>
        <time>2024-05-21T07:16:41.000Z</time>
      </trkpt>
      <trkpt lat="45.47771" lon="4.80044">
        <ele>153</ele>
        <time>2024-05-21T07:16:42.000Z</time>
      </trkpt>
      <trkpt lat="45.47767" lon="4.80036">
        <ele>153</ele>
        <time>2024-05-21T07:16:43.000Z</time>
      </trkpt>
      <trkpt lat="45.47764" lon="4.80029">
        <ele>153</ele>
        <time>2024-05-21T07:16:44.000Z</time>
      </trkpt>
      <trkpt lat="45.4776" lon="4.80024">
        <ele>153</ele>
        <time>2024-05-21T07:16:45.000Z</time>
      </trkpt>
      <trkpt lat="45.47756" lon="4.80018">
        <ele>153</ele>
        <time>2024-05-21T07:16:46.000Z</time>
      </trkpt>
      <trkpt lat="45.47752" lon="4.8001">
        <ele>153</ele>
        <time>2024-05-21T07:16:47.000Z</time>
      </trkpt>
      <trkpt lat="45.47748" lon="4.80003">
        <ele>153</ele>
        <time>2024-05-21T07:16:48.000Z</time>
      </trkpt>
      <trkpt lat="45.47744" lon="4.79998">
        <ele>153</ele>
        <time>2024-05-21T07:16:49.000Z</time>
      </trkpt>
      <trkpt lat="45.47739" lon="4.79991">
        <ele>152.80000305176</ele>
        <time>2024-05-21T07:16:50.000Z</time>
      </trkpt>
      <trkpt lat="45.47736" lon="4.79986">
        <ele>152.80000305176</ele>
        <time>2024-05-21T07:16:51.000Z</time>
      </trkpt>
      <trkpt lat="45.47732" lon="4.7998">
        <ele>152.80000305176</ele>
        <time>2024-05-21T07:16:52.000Z</time>
      </trkpt>
      <trkpt lat="45.47726" lon="4.79972">
        <ele>152.39999389648</ele>
        <time>2024-05-21T07:16:53.000Z</time>
      </trkpt>
      <trkpt lat="45.47722" lon="4.79965">
        <ele>152.39999389648</ele>
        <time>2024-05-21T07:16:54.000Z</time>
      </trkpt>
      <trkpt lat="45.47718" lon="4.7996">
        <ele>152.19999694824</ele>
        <time>2024-05-21T07:16:55.000Z</time>
      </trkpt>
      <trkpt lat="45.47713" lon="4.79952">
        <ele>152.19999694824</ele>
        <time>2024-05-21T07:16:56.000Z</time>
      </trkpt>
      <trkpt lat="45.47708" lon="4.79946">
        <ele>152.19999694824</ele>
        <time>2024-05-21T07:16:57.000Z</time>
      </trkpt>
      <trkpt lat="45.47704" lon="4.79941">
        <ele>152.19999694824</ele>
        <time>2024-05-21T07:16:58.000Z</time>
      </trkpt>
      <trkpt lat="45.47699" lon="4.79934">
        <ele>152.19999694824</ele>
        <time>2024-05-21T07:16:59.000Z</time>
      </trkpt>
      <trkpt lat="45.47695" lon="4.79927">
        <ele>152</ele>
        <time>2024-05-21T07:17:00.000Z</time>
      </trkpt>
      <trkpt lat="45.4769" lon="4.79922">
        <ele>152</ele>
        <time>2024-05-21T07:17:01.000Z</time>
      </trkpt>
      <trkpt lat="45.47685" lon="4.79915">
        <ele>152</ele>
        <time>2024-05-21T07:17:02.000Z</time>
      </trkpt>
      <trkpt lat="45.47681" lon="4.79909">
        <ele>152</ele>
        <time>2024-05-21T07:17:03.000Z</time>
      </trkpt>
      <trkpt lat="45.47676" lon="4.79902">
        <ele>152</ele>
        <time>2024-05-21T07:17:04.000Z</time>
      </trkpt>
      <trkpt lat="45.47671" lon="4.79896">
        <ele>152</ele>
        <time>2024-05-21T07:17:05.000Z</time>
      </trkpt>
      <trkpt lat="45.47667" lon="4.79889">
        <ele>152.19999694824</ele>
        <time>2024-05-21T07:17:06.000Z</time>
      </trkpt>
      <trkpt lat="45.47662" lon="4.79883">
        <ele>152.19999694824</ele>
        <time>2024-05-21T07:17:07.000Z</time>
      </trkpt>
      <trkpt lat="45.47658" lon="4.79877">
        <ele>152.19999694824</ele>
        <time>2024-05-21T07:17:08.000Z</time>
      </trkpt>
      <trkpt lat="45.47653" lon="4.79869">
        <ele>152.19999694824</ele>
        <time>2024-05-21T07:17:09.000Z</time>
      </trkpt>
      <trkpt lat="45.47649" lon="4.79865">
        <ele>152.19999694824</ele>
        <time>2024-05-21T07:17:10.000Z</time>
      </trkpt>
      <trkpt lat="45.47644" lon="4.79857">
        <ele>152.19999694824</ele>
        <time>2024-05-21T07:17:11.000Z</time>
      </trkpt>
      <trkpt lat="45.4764" lon="4.79852">
        <ele>152.19999694824</ele>
        <time>2024-05-21T07:17:12.000Z</time>
      </trkpt>
      <trkpt lat="45.47635" lon="4.79847">
        <ele>152.19999694824</ele>
        <time>2024-05-21T07:17:13.000Z</time>
      </trkpt>
      <trkpt lat="45.47631" lon="4.79841">
        <ele>152.39999389648</ele>
        <time>2024-05-21T07:17:14.000Z</time>
      </trkpt>
      <trkpt lat="45.47627" lon="4.79835">
        <ele>152.60000610352</ele>
        <time>2024-05-21T07:17:15.000Z</time>
      </trkpt>
      <trkpt lat="45.47622" lon="4.79829">
        <ele>152.60000610352</ele>
        <time>2024-05-21T07:17:16.000Z</time>
      </trkpt>
      <trkpt lat="45.47617" lon="4.79824">
        <ele>152.80000305176</ele>
        <time>2024-05-21T07:17:17.000Z</time>
      </trkpt>
      <trkpt lat="45.47612" lon="4.79817">
        <ele>153</ele>
        <time>2024-05-21T07:17:18.000Z</time>
      </trkpt>
      <trkpt lat="45.47608" lon="4.79812">
        <ele>153</ele>
        <time>2024-05-21T07:17:19.000Z</time>
      </trkpt>
      <trkpt lat="45.47603" lon="4.79805">
        <ele>153</ele>
        <time>2024-05-21T07:17:20.000Z</time>
      </trkpt>
      <trkpt lat="45.47599" lon="4.798">
        <ele>153</ele>
        <time>2024-05-21T07:17:21.000Z</time>
      </trkpt>
      <trkpt lat="45.47596" lon="4.79796">
        <ele>153.19999694824</ele>
        <time>2024-05-21T07:17:22.000Z</time>
      </trkpt>
      <trkpt lat="45.47592" lon="4.79791">
        <ele>153.39999389648</ele>
        <time>2024-05-21T07:17:23.000Z</time>
      </trkpt>
      <trkpt lat="45.47588" lon="4.79786">
        <ele>153.60000610352</ele>
        <time>2024-05-21T07:17:24.000Z</time>
      </trkpt>
      <trkpt lat="45.47584" lon="4.79781">
        <ele>153.80000305176</ele>
        <time>2024-05-21T07:17:25.000Z</time>
      </trkpt>
      <trkpt lat="45.4758" lon="4.79775">
        <ele>154.19999694824</ele>
        <time>2024-05-21T07:17:26.000Z</time>
      </trkpt>
      <trkpt lat="45.47575" lon="4.79769">
        <ele>154.19999694824</ele>
        <time>2024-05-21T07:17:27.000Z</time>
      </trkpt>
      <trkpt lat="45.47572" lon="4.79764">
        <ele>154.19999694824</ele>
        <time>2024-05-21T07:17:28.000Z</time>
      </trkpt>
      <trkpt lat="45.47568" lon="4.79758">
        <ele>154.39999389648</ele>
        <time>2024-05-21T07:17:29.000Z</time>
      </trkpt>
      <trkpt lat="45.47564" lon="4.79752">
        <ele>154.39999389648</ele>
        <time>2024-05-21T07:17:30.000Z</time>
      </trkpt>
      <trkpt lat="45.47561" lon="4.79748">
        <ele>154.80000305176</ele>
        <time>2024-05-21T07:17:31.000Z</time>
      </trkpt>
      <trkpt lat="45.47557" lon="4.79742">
        <ele>155</ele>
        <time>2024-05-21T07:17:32.000Z</time>
      </trkpt>
      <trkpt lat="45.47553" lon="4.79737">
        <ele>155</ele>
        <time>2024-05-21T07:17:33.000Z</time>
      </trkpt>
      <trkpt lat="45.47548" lon="4.79731">
        <ele>155.19999694824</ele>
        <time>2024-05-21T07:17:34.000Z</time>
      </trkpt>
      <trkpt lat="45.47544" lon="4.79725">
        <ele>155.39999389648</ele>
        <time>2024-05-21T07:17:35.000Z</time>
      </trkpt>
      <trkpt lat="45.4754" lon="4.79719">
        <ele>155.60000610352</ele>
        <time>2024-05-21T07:17:36.000Z</time>
      </trkpt>
      <trkpt lat="45.47536" lon="4.79712">
        <ele>155.60000610352</ele>
        <time>2024-05-21T07:17:37.000Z</time>
      </trkpt>
      <trkpt lat="45.47531" lon="4.79705">
        <ele>155.60000610352</ele>
        <time>2024-05-21T07:17:38.000Z</time>
      </trkpt>
      <trkpt lat="45.47526" lon="4.79698">
        <ele>155.60000610352</ele>
        <time>2024-05-21T07:17:39.000Z</time>
      </trkpt>
      <trkpt lat="45.47523" lon="4.79692">
        <ele>155.39999389648</ele>
        <time>2024-05-21T07:17:40.000Z</time>
      </trkpt>
      <trkpt lat="45.47518" lon="4.79685">
        <ele>155.39999389648</ele>
        <time>2024-05-21T07:17:41.000Z</time>
      </trkpt>
      <trkpt lat="45.47513" lon="4.79676">
        <ele>155</ele>
        <time>2024-05-21T07:17:42.000Z</time>
      </trkpt>
      <trkpt lat="45.47509" lon="4.7967">
        <ele>154.60000610352</ele>
        <time>2024-05-21T07:17:43.000Z</time>
      </trkpt>
      <trkpt lat="45.47504" lon="4.79663">
        <ele>154.39999389648</ele>
        <time>2024-05-21T07:17:44.000Z</time>
      </trkpt>
      <trkpt lat="45.47499" lon="4.79655">
        <ele>154.19999694824</ele>
        <time>2024-05-21T07:17:45.000Z</time>
      </trkpt>
      <trkpt lat="45.47494" lon="4.79648">
        <ele>154</ele>
        <time>2024-05-21T07:17:46.000Z</time>
      </trkpt>
      <trkpt lat="45.47488" lon="4.7964">
        <ele>153.60000610352</ele>
        <time>2024-05-21T07:17:47.000Z</time>
      </trkpt>
      <trkpt lat="45.47482" lon="4.7963">
        <ele>153.19999694824</ele>
        <time>2024-05-21T07:17:48.000Z</time>
      </trkpt>
      <trkpt lat="45.47478" lon="4.79624">
        <ele>153</ele>
        <time>2024-05-21T07:17:49.000Z</time>
      </trkpt>
      <trkpt lat="45.47473" lon="4.79616">
        <ele>152.80000305176</ele>
        <time>2024-05-21T07:17:50.000Z</time>
      </trkpt>
      <trkpt lat="45.47467" lon="4.79608">
        <ele>152.39999389648</ele>
        <time>2024-05-21T07:17:51.000Z</time>
      </trkpt>
      <trkpt lat="45.47462" lon="4.79601">
        <ele>152.19999694824</ele>
        <time>2024-05-21T07:17:52.000Z</time>
      </trkpt>
      <trkpt lat="45.47457" lon="4.79593">
        <ele>152.19999694824</ele>
        <time>2024-05-21T07:17:53.000Z</time>
      </trkpt>
      <trkpt lat="45.47452" lon="4.79586">
        <ele>152.19999694824</ele>
        <time>2024-05-21T07:17:54.000Z</time>
      </trkpt>
      <trkpt lat="45.47447" lon="4.79579">
        <ele>152</ele>
        <time>2024-05-21T07:17:55.000Z</time>
      </trkpt>
      <trkpt lat="45.47442" lon="4.79571">
        <ele>152.19999694824</ele>
        <time>2024-05-21T07:17:56.000Z</time>
      </trkpt>
      <trkpt lat="45.47435" lon="4.79562">
        <ele>152</ele>
        <time>2024-05-21T07:17:57.000Z</time>
      </trkpt>
      <trkpt lat="45.4743" lon="4.79555">
        <ele>152</ele>
        <time>2024-05-21T07:17:58.000Z</time>
      </trkpt>
      <trkpt lat="45.47426" lon="4.79549">
        <ele>152</ele>
        <time>2024-05-21T07:17:59.000Z</time>
      </trkpt>
      <trkpt lat="45.4742" lon="4.79541">
        <ele>152.19999694824</ele>
        <time>2024-05-21T07:18:00.000Z</time>
      </trkpt>
      <trkpt lat="45.47416" lon="4.79535">
        <ele>152</ele>
        <time>2024-05-21T07:18:01.000Z</time>
      </trkpt>
      <trkpt lat="45.47411" lon="4.79528">
        <ele>152</ele>
        <time>2024-05-21T07:18:02.000Z</time>
      </trkpt>
      <trkpt lat="45.47406" lon="4.79521">
        <ele>152</ele>
        <time>2024-05-21T07:18:03.000Z</time>
      </trkpt>
      <trkpt lat="45.47401" lon="4.79514">
        <ele>152.19999694824</ele>
        <time>2024-05-21T07:18:04.000Z</time>
      </trkpt>
      <trkpt lat="45.47396" lon="4.79507">
        <ele>152.19999694824</ele>
        <time>2024-05-21T07:18:05.000Z</time>
      </trkpt>
      <trkpt lat="45.47392" lon="4.795">
        <ele>152.19999694824</ele>
        <time>2024-05-21T07:18:06.000Z</time>
      </trkpt>
      <trkpt lat="45.47387" lon="4.79494">
        <ele>152.19999694824</ele>
        <time>2024-05-21T07:18:07.000Z</time>
      </trkpt>
      <trkpt lat="45.47382" lon="4.79487">
        <ele>152.19999694824</ele>
        <time>2024-05-21T07:18:08.000Z</time>
      </trkpt>
      <trkpt lat="45.47377" lon="4.7948">
        <ele>152.39999389648</ele>
        <time>2024-05-21T07:18:09.000Z</time>
      </trkpt>
      <trkpt lat="45.47373" lon="4.79474">
        <ele>152.39999389648</ele>
        <time>2024-05-21T07:18:10.000Z</time>
      </trkpt>
      <trkpt lat="45.47369" lon="4.79468">
        <ele>152.60000610352</ele>
        <time>2024-05-21T07:18:11.000Z</time>
      </trkpt>
      <trkpt lat="45.47363" lon="4.7946">
        <ele>152.60000610352</ele>
        <time>2024-05-21T07:18:12.000Z</time>
      </trkpt>
      <trkpt lat="45.47359" lon="4.79455">
        <ele>152.80000305176</ele>
        <time>2024-05-21T07:18:13.000Z</time>
      </trkpt>
      <trkpt lat="45.47355" lon="4.79449">
        <ele>152.80000305176</ele>
        <time>2024-05-21T07:18:14.000Z</time>
      </trkpt>
      <trkpt lat="45.4735" lon="4.79442">
        <ele>152.80000305176</ele>
        <time>2024-05-21T07:18:15.000Z</time>
      </trkpt>
      <trkpt lat="45.47346" lon="4.79437">
        <ele>153</ele>
        <time>2024-05-21T07:18:16.000Z</time>
      </trkpt>
      <trkpt lat="45.47342" lon="4.79431">
        <ele>153</ele>
        <time>2024-05-21T07:18:17.000Z</time>
      </trkpt>
      <trkpt lat="45.47337" lon="4.79425">
        <ele>153.19999694824</ele>
        <time>2024-05-21T07:18:18.000Z</time>
      </trkpt>
      <trkpt lat="45.47333" lon="4.79419">
        <ele>153.19999694824</ele>
        <time>2024-05-21T07:18:19.000Z</time>
      </trkpt>
      <trkpt lat="45.47329" lon="4.79414">
        <ele>153.39999389648</ele>
        <time>2024-05-21T07:18:20.000Z</time>
      </trkpt>
      <trkpt lat="45.47324" lon="4.79408">
        <ele>153.60000610352</ele>
        <time>2024-05-21T07:18:21.000Z</time>
      </trkpt>
      <trkpt lat="45.4732" lon="4.79404">
        <ele>153.60000610352</ele>
        <time>2024-05-21T07:18:22.000Z</time>
      </trkpt>
      <trkpt lat="45.47315" lon="4.79399">
        <ele>153.60000610352</ele>
        <time>2024-05-21T07:18:23.000Z</time>
      </trkpt>
      <trkpt lat="45.47311" lon="4.79393">
        <ele>153.80000305176</ele>
        <time>2024-05-21T07:18:24.000Z</time>
      </trkpt>
      <trkpt lat="45.47306" lon="4.79388">
        <ele>153.80000305176</ele>
        <time>2024-05-21T07:18:25.000Z</time>
      </trkpt>
      <trkpt lat="45.47302" lon="4.79382">
        <ele>153.80000305176</ele>
        <time>2024-05-21T07:18:26.000Z</time>
      </trkpt>
      <trkpt lat="45.47298" lon="4.79377">
        <ele>154</ele>
        <time>2024-05-21T07:18:27.000Z</time>
      </trkpt>
      <trkpt lat="45.47294" lon="4.79372">
        <ele>154</ele>
        <time>2024-05-21T07:18:28.000Z</time>
      </trkpt>
      <trkpt lat="45.47289" lon="4.79367">
        <ele>154</ele>
        <time>2024-05-21T07:18:29.000Z</time>
      </trkpt>
      <trkpt lat="45.47284" lon="4.79361">
        <ele>154</ele>
        <time>2024-05-21T07:18:30.000Z</time>
      </trkpt>
      <trkpt lat="45.4728" lon="4.79357">
        <ele>154.19999694824</ele>
        <time>2024-05-21T07:18:31.000Z</time>
      </trkpt>
      <trkpt lat="45.47275" lon="4.79351">
        <ele>154.39999389648</ele>
        <time>2024-05-21T07:18:32.000Z</time>
      </trkpt>
      <trkpt lat="45.4727" lon="4.79346">
        <ele>154.39999389648</ele>
        <time>2024-05-21T07:18:33.000Z</time>
      </trkpt>
      <trkpt lat="45.47266" lon="4.7934">
        <ele>154.39999389648</ele>
        <time>2024-05-21T07:18:34.000Z</time>
      </trkpt>
      <trkpt lat="45.47262" lon="4.79333">
        <ele>154.39999389648</ele>
        <time>2024-05-21T07:18:35.000Z</time>
      </trkpt>
      <trkpt lat="45.47257" lon="4.79326">
        <ele>154.39999389648</ele>
        <time>2024-05-21T07:18:36.000Z</time>
      </trkpt>
      <trkpt lat="45.47252" lon="4.79319">
        <ele>154.39999389648</ele>
        <time>2024-05-21T07:18:37.000Z</time>
      </trkpt>
      <trkpt lat="45.47248" lon="4.79313">
        <ele>154.19999694824</ele>
        <time>2024-05-21T07:18:38.000Z</time>
      </trkpt>
      <trkpt lat="45.47242" lon="4.79305">
        <ele>154.19999694824</ele>
        <time>2024-05-21T07:18:39.000Z</time>
      </trkpt>
      <trkpt lat="45.47237" lon="4.79299">
        <ele>154</ele>
        <time>2024-05-21T07:18:40.000Z</time>
      </trkpt>
      <trkpt lat="45.47233" lon="4.79294">
        <ele>153.60000610352</ele>
        <time>2024-05-21T07:18:41.000Z</time>
      </trkpt>
      <trkpt lat="45.47226" lon="4.79287">
        <ele>153.39999389648</ele>
        <time>2024-05-21T07:18:42.000Z</time>
      </trkpt>
      <trkpt lat="45.47221" lon="4.79281">
        <ele>153.19999694824</ele>
        <time>2024-05-21T07:18:43.000Z</time>
      </trkpt>
      <trkpt lat="45.47216" lon="4.79276">
        <ele>153</ele>
        <time>2024-05-21T07:18:44.000Z</time>
      </trkpt>
      <trkpt lat="45.47209" lon="4.79269">
        <ele>152.80000305176</ele>
        <time>2024-05-21T07:18:45.000Z</time>
      </trkpt>
      <trkpt lat="45.47203" lon="4.79263">
        <ele>152.80000305176</ele>
        <time>2024-05-21T07:18:46.000Z</time>
      </trkpt>
      <trkpt lat="45.47199" lon="4.79258">
        <ele>152.39999389648</ele>
        <time>2024-05-21T07:18:47.000Z</time>
      </trkpt>
      <trkpt lat="45.47193" lon="4.79251">
        <ele>152.19999694824</ele>
        <time>2024-05-21T07:18:48.000Z</time>
      </trkpt>
      <trkpt lat="45.47187" lon="4.79245">
        <ele>152.19999694824</ele>
        <time>2024-05-21T07:18:49.000Z</time>
      </trkpt>
      <trkpt lat="45.47181" lon="4.79239">
        <ele>152</ele>
        <time>2024-05-21T07:18:50.000Z</time>
      </trkpt>
      <trkpt lat="45.47175" lon="4.79233">
        <ele>151.80000305176</ele>
        <time>2024-05-21T07:18:51.000Z</time>
      </trkpt>
      <trkpt lat="45.4717" lon="4.79229">
        <ele>151.80000305176</ele>
        <time>2024-05-21T07:18:52.000Z</time>
      </trkpt>
      <trkpt lat="45.47164" lon="4.79223">
        <ele>151.80000305176</ele>
        <time>2024-05-21T07:18:53.000Z</time>
      </trkpt>
      <trkpt lat="45.47157" lon="4.79217">
        <ele>151.80000305176</ele>
        <time>2024-05-21T07:18:54.000Z</time>
      </trkpt>
      <trkpt lat="45.47151" lon="4.79212">
        <ele>151.80000305176</ele>
        <time>2024-05-21T07:18:55.000Z</time>
      </trkpt>
      <trkpt lat="45.47146" lon="4.79208">
        <ele>151.80000305176</ele>
        <time>2024-05-21T07:18:56.000Z</time>
      </trkpt>
      <trkpt lat="45.47138" lon="4.79203">
        <ele>151.80000305176</ele>
        <time>2024-05-21T07:18:57.000Z</time>
      </trkpt>
      <trkpt lat="45.47132" lon="4.79199">
        <ele>151.80000305176</ele>
        <time>2024-05-21T07:18:58.000Z</time>
      </trkpt>
      <trkpt lat="45.47128" lon="4.79196">
        <ele>151.80000305176</ele>
        <time>2024-05-21T07:18:59.000Z</time>
      </trkpt>
      <trkpt lat="45.47122" lon="4.79192">
        <ele>152</ele>
        <time>2024-05-21T07:19:00.000Z</time>
      </trkpt>
      <trkpt lat="45.47116" lon="4.79188">
        <ele>152</ele>
        <time>2024-05-21T07:19:01.000Z</time>
      </trkpt>
      <trkpt lat="45.4711" lon="4.79184">
        <ele>152.19999694824</ele>
        <time>2024-05-21T07:19:02.000Z</time>
      </trkpt>
      <trkpt lat="45.47103" lon="4.79179">
        <ele>152.19999694824</ele>
        <time>2024-05-21T07:19:03.000Z</time>
      </trkpt>
      <trkpt lat="45.47098" lon="4.79176">
        <ele>152.39999389648</ele>
        <time>2024-05-21T07:19:04.000Z</time>
      </trkpt>
      <trkpt lat="45.47094" lon="4.79173">
        <ele>152.60000610352</ele>
        <time>2024-05-21T07:19:05.000Z</time>
      </trkpt>
      <trkpt lat="45.47087" lon="4.79169">
        <ele>152.60000610352</ele>
        <time>2024-05-21T07:19:06.000Z</time>
      </trkpt>
      <trkpt lat="45.47083" lon="4.79167">
        <ele>152.60000610352</ele>
        <time>2024-05-21T07:19:07.000Z</time>
      </trkpt>
      <trkpt lat="45.47078" lon="4.79164">
        <ele>152.80000305176</ele>
        <time>2024-05-21T07:19:08.000Z</time>
      </trkpt>
      <trkpt lat="45.47073" lon="4.7916">
        <ele>152.80000305176</ele>
        <time>2024-05-21T07:19:09.000Z</time>
      </trkpt>
      <trkpt lat="45.47069" lon="4.79158">
        <ele>152.80000305176</ele>
        <time>2024-05-21T07:19:10.000Z</time>
      </trkpt>
      <trkpt lat="45.47064" lon="4.79154">
        <ele>153</ele>
        <time>2024-05-21T07:19:11.000Z</time>
      </trkpt>
      <trkpt lat="45.47058" lon="4.7915">
        <ele>153.19999694824</ele>
        <time>2024-05-21T07:19:12.000Z</time>
      </trkpt>
      <trkpt lat="45.47054" lon="4.79148">
        <ele>153.39999389648</ele>
        <time>2024-05-21T07:19:13.000Z</time>
      </trkpt>
      <trkpt lat="45.4705" lon="4.79145">
        <ele>153.60000610352</ele>
        <time>2024-05-21T07:19:14.000Z</time>
      </trkpt>
      <trkpt lat="45.47044" lon="4.79142">
        <ele>153.60000610352</ele>
        <time>2024-05-21T07:19:15.000Z</time>
      </trkpt>
      <trkpt lat="45.4704" lon="4.79139">
        <ele>154</ele>
        <time>2024-05-21T07:19:16.000Z</time>
      </trkpt>
      <trkpt lat="45.47036" lon="4.79137">
        <ele>154.19999694824</ele>
        <time>2024-05-21T07:19:17.000Z</time>
      </trkpt>
      <trkpt lat="45.47031" lon="4.79134">
        <ele>154.19999694824</ele>
        <time>2024-05-21T07:19:18.000Z</time>
      </trkpt>
      <trkpt lat="45.47027" lon="4.79131">
        <ele>154.39999389648</ele>
        <time>2024-05-21T07:19:19.000Z</time>
      </trkpt>
      <trkpt lat="45.47023" lon="4.79128">
        <ele>154.80000305176</ele>
        <time>2024-05-21T07:19:20.000Z</time>
      </trkpt>
      <trkpt lat="45.47017" lon="4.79125">
        <ele>154.80000305176</ele>
        <time>2024-05-21T07:19:21.000Z</time>
      </trkpt>
      <trkpt lat="45.47012" lon="4.79122">
        <ele>154.80000305176</ele>
        <time>2024-05-21T07:19:22.000Z</time>
      </trkpt>
      <trkpt lat="45.47008" lon="4.79119">
        <ele>154.80000305176</ele>
        <time>2024-05-21T07:19:23.000Z</time>
      </trkpt>
      <trkpt lat="45.47002" lon="4.79116">
        <ele>155</ele>
        <time>2024-05-21T07:19:24.000Z</time>
      </trkpt>
      <trkpt lat="45.46997" lon="4.79113">
        <ele>155</ele>
        <time>2024-05-21T07:19:25.000Z</time>
      </trkpt>
      <trkpt lat="45.46991" lon="4.7911">
        <ele>154.80000305176</ele>
        <time>2024-05-21T07:19:26.000Z</time>
      </trkpt>
      <trkpt lat="45.46985" lon="4.79107">
        <ele>154.39999389648</ele>
        <time>2024-05-21T07:19:27.000Z</time>
      </trkpt>
      <trkpt lat="45.46978" lon="4.79104">
        <ele>154.39999389648</ele>
        <time>2024-05-21T07:19:28.000Z</time>
      </trkpt>
      <trkpt lat="45.46973" lon="4.79101">
        <ele>154.19999694824</ele>
        <time>2024-05-21T07:19:29.000Z</time>
      </trkpt>
      <trkpt lat="45.46965" lon="4.79098">
        <ele>153.60000610352</ele>
        <time>2024-05-21T07:19:30.000Z</time>
      </trkpt>
      <trkpt lat="45.4696" lon="4.79096">
        <ele>153.60000610352</ele>
        <time>2024-05-21T07:19:31.000Z</time>
      </trkpt>
      <trkpt lat="45.46953" lon="4.79093">
        <ele>153.60000610352</ele>
        <time>2024-05-21T07:19:32.000Z</time>
      </trkpt>
      <trkpt lat="45.46946" lon="4.79091">
        <ele>153.39999389648</ele>
        <time>2024-05-21T07:19:33.000Z</time>
      </trkpt>
      <trkpt lat="45.46938" lon="4.79088">
        <ele>153.19999694824</ele>
        <time>2024-05-21T07:19:34.000Z</time>
      </trkpt>
      <trkpt lat="45.46932" lon="4.79086">
        <ele>153</ele>
        <time>2024-05-21T07:19:35.000Z</time>
      </trkpt>
      <trkpt lat="45.46925" lon="4.79084">
        <ele>153</ele>
        <time>2024-05-21T07:19:36.000Z</time>
      </trkpt>
      <trkpt lat="45.46918" lon="4.79081">
        <ele>153</ele>
        <time>2024-05-21T07:19:37.000Z</time>
      </trkpt>
      <trkpt lat="45.46912" lon="4.79079">
        <ele>152.80000305176</ele>
        <time>2024-05-21T07:19:38.000Z</time>
      </trkpt>
      <trkpt lat="45.46905" lon="4.79077">
        <ele>152.80000305176</ele>
        <time>2024-05-21T07:19:39.000Z</time>
      </trkpt>
      <trkpt lat="45.46897" lon="4.79075">
        <ele>152.80000305176</ele>
        <time>2024-05-21T07:19:40.000Z</time>
      </trkpt>
      <trkpt lat="45.46892" lon="4.79073">
        <ele>153</ele>
        <time>2024-05-21T07:19:41.000Z</time>
      </trkpt>
      <trkpt lat="45.46884" lon="4.79071">
        <ele>153</ele>
        <time>2024-05-21T07:19:42.000Z</time>
      </trkpt>
      <trkpt lat="45.46877" lon="4.7907">
        <ele>153</ele>
        <time>2024-05-21T07:19:43.000Z</time>
      </trkpt>
      <trkpt lat="45.46872" lon="4.79069">
        <ele>153</ele>
        <time>2024-05-21T07:19:44.000Z</time>
      </trkpt>
      <trkpt lat="45.46865" lon="4.79068">
        <ele>153</ele>
        <time>2024-05-21T07:19:45.000Z</time>
      </trkpt>
      <trkpt lat="45.46858" lon="4.79068">
        <ele>153</ele>
        <time>2024-05-21T07:19:46.000Z</time>
      </trkpt>
      <trkpt lat="45.46853" lon="4.79067">
        <ele>153</ele>
        <time>2024-05-21T07:19:47.000Z</time>
      </trkpt>
      <trkpt lat="45.46846" lon="4.79066">
        <ele>153</ele>
        <time>2024-05-21T07:19:48.000Z</time>
      </trkpt>
      <trkpt lat="45.4684" lon="4.79065">
        <ele>153.19999694824</ele>
        <time>2024-05-21T07:19:49.000Z</time>
      </trkpt>
      <trkpt lat="45.46835" lon="4.79064">
        <ele>153.19999694824</ele>
        <time>2024-05-21T07:19:50.000Z</time>
      </trkpt>
      <trkpt lat="45.46828" lon="4.79063">
        <ele>153.19999694824</ele>
        <time>2024-05-21T07:19:51.000Z</time>
      </trkpt>
      <trkpt lat="45.46822" lon="4.79062">
        <ele>153.39999389648</ele>
        <time>2024-05-21T07:19:52.000Z</time>
      </trkpt>
      <trkpt lat="45.46817" lon="4.79062">
        <ele>153.39999389648</ele>
        <time>2024-05-21T07:19:53.000Z</time>
      </trkpt>
      <trkpt lat="45.46812" lon="4.79061">
        <ele>153.60000610352</ele>
        <time>2024-05-21T07:19:54.000Z</time>
      </trkpt>
      <trkpt lat="45.46805" lon="4.7906">
        <ele>153.60000610352</ele>
        <time>2024-05-21T07:19:55.000Z</time>
      </trkpt>
      <trkpt lat="45.46801" lon="4.7906">
        <ele>153.60000610352</ele>
        <time>2024-05-21T07:19:56.000Z</time>
      </trkpt>
      <trkpt lat="45.46796" lon="4.79059">
        <ele>153.80000305176</ele>
        <time>2024-05-21T07:19:57.000Z</time>
      </trkpt>
      <trkpt lat="45.46789" lon="4.79058">
        <ele>154</ele>
        <time>2024-05-21T07:19:58.000Z</time>
      </trkpt>
      <trkpt lat="45.46785" lon="4.79058">
        <ele>154</ele>
        <time>2024-05-21T07:19:59.000Z</time>
      </trkpt>
      <trkpt lat="45.4678" lon="4.79057">
        <ele>154.39999389648</ele>
        <time>2024-05-21T07:20:00.000Z</time>
      </trkpt>
      <trkpt lat="45.46776" lon="4.79057">
        <ele>154.39999389648</ele>
        <time>2024-05-21T07:20:01.000Z</time>
      </trkpt>
      <trkpt lat="45.46771" lon="4.79056">
        <ele>154.60000610352</ele>
        <time>2024-05-21T07:20:02.000Z</time>
      </trkpt>
      <trkpt lat="45.46766" lon="4.79055">
        <ele>154.60000610352</ele>
        <time>2024-05-21T07:20:03.000Z</time>
      </trkpt>
      <trkpt lat="45.46761" lon="4.79054">
        <ele>154.80000305176</ele>
        <time>2024-05-21T07:20:04.000Z</time>
      </trkpt>
      <trkpt lat="45.46758" lon="4.79054">
        <ele>155</ele>
        <time>2024-05-21T07:20:05.000Z</time>
      </trkpt>
      <trkpt lat="45.46753" lon="4.79053">
        <ele>155.39999389648</ele>
        <time>2024-05-21T07:20:06.000Z</time>
      </trkpt>
      <trkpt lat="45.46748" lon="4.79052">
        <ele>155.39999389648</ele>
        <time>2024-05-21T07:20:07.000Z</time>
      </trkpt>
      <trkpt lat="45.46744" lon="4.79051">
        <ele>155.80000305176</ele>
        <time>2024-05-21T07:20:08.000Z</time>
      </trkpt>
      <trkpt lat="45.4674" lon="4.79051">
        <ele>156</ele>
        <time>2024-05-21T07:20:09.000Z</time>
      </trkpt>
      <trkpt lat="45.46735" lon="4.7905">
        <ele>156.19999694824</ele>
        <time>2024-05-21T07:20:10.000Z</time>
      </trkpt>
      <trkpt lat="45.4673" lon="4.79049">
        <ele>156.19999694824</ele>
        <time>2024-05-21T07:20:11.000Z</time>
      </trkpt>
      <trkpt lat="45.46724" lon="4.79048">
        <ele>156.19999694824</ele>
        <time>2024-05-21T07:20:12.000Z</time>
      </trkpt>
      <trkpt lat="45.46718" lon="4.79047">
        <ele>156</ele>
        <time>2024-05-21T07:20:13.000Z</time>
      </trkpt>
      <trkpt lat="45.46714" lon="4.79046">
        <ele>156</ele>
        <time>2024-05-21T07:20:14.000Z</time>
      </trkpt>
      <trkpt lat="45.46709" lon="4.79045">
        <ele>155.80000305176</ele>
        <time>2024-05-21T07:20:15.000Z</time>
      </trkpt>
      <trkpt lat="45.46703" lon="4.79044">
        <ele>155.80000305176</ele>
        <time>2024-05-21T07:20:16.000Z</time>
      </trkpt>
      <trkpt lat="45.46697" lon="4.79043">
        <ele>155.80000305176</ele>
        <time>2024-05-21T07:20:17.000Z</time>
      </trkpt>
      <trkpt lat="45.46691" lon="4.79042">
        <ele>155.80000305176</ele>
        <time>2024-05-21T07:20:18.000Z</time>
      </trkpt>
      <trkpt lat="45.46683" lon="4.7904">
        <ele>155.60000610352</ele>
        <time>2024-05-21T07:20:19.000Z</time>
      </trkpt>
      <trkpt lat="45.46677" lon="4.79039">
        <ele>155.39999389648</ele>
        <time>2024-05-21T07:20:20.000Z</time>
      </trkpt>
      <trkpt lat="45.4667" lon="4.79038">
        <ele>155.39999389648</ele>
        <time>2024-05-21T07:20:21.000Z</time>
      </trkpt>
      <trkpt lat="45.46663" lon="4.79036">
        <ele>155.39999389648</ele>
        <time>2024-05-21T07:20:22.000Z</time>
      </trkpt>
      <trkpt lat="45.46657" lon="4.79035">
        <ele>155.39999389648</ele>
        <time>2024-05-21T07:20:23.000Z</time>
      </trkpt>
      <trkpt lat="45.4665" lon="4.79033">
        <ele>155.19999694824</ele>
        <time>2024-05-21T07:20:24.000Z</time>
      </trkpt>
      <trkpt lat="45.46645" lon="4.79032">
        <ele>155</ele>
        <time>2024-05-21T07:20:25.000Z</time>
      </trkpt>
      <trkpt lat="45.46638" lon="4.79031">
        <ele>154.80000305176</ele>
        <time>2024-05-21T07:20:26.000Z</time>
      </trkpt>
      <trkpt lat="45.46632" lon="4.79029">
        <ele>154.80000305176</ele>
        <time>2024-05-21T07:20:27.000Z</time>
      </trkpt>
      <trkpt lat="45.46625" lon="4.79027">
        <ele>154.60000610352</ele>
        <time>2024-05-21T07:20:28.000Z</time>
      </trkpt>
      <trkpt lat="45.46617" lon="4.79024">
        <ele>154.39999389648</ele>
        <time>2024-05-21T07:20:29.000Z</time>
      </trkpt>
      <trkpt lat="45.4661" lon="4.79022">
        <ele>154.19999694824</ele>
        <time>2024-05-21T07:20:30.000Z</time>
      </trkpt>
      <trkpt lat="45.46603" lon="4.79019">
        <ele>154.19999694824</ele>
        <time>2024-05-21T07:20:31.000Z</time>
      </trkpt>
      <trkpt lat="45.46596" lon="4.79016">
        <ele>154</ele>
        <time>2024-05-21T07:20:32.000Z</time>
      </trkpt>
      <trkpt lat="45.46589" lon="4.79012">
        <ele>154</ele>
        <time>2024-05-21T07:20:33.000Z</time>
      </trkpt>
      <trkpt lat="45.46584" lon="4.79009">
        <ele>154</ele>
        <time>2024-05-21T07:20:34.000Z</time>
      </trkpt>
      <trkpt lat="45.46577" lon="4.79005">
        <ele>153.80000305176</ele>
        <time>2024-05-21T07:20:35.000Z</time>
      </trkpt>
      <trkpt lat="45.46571" lon="4.79001">
        <ele>153.80000305176</ele>
        <time>2024-05-21T07:20:36.000Z</time>
      </trkpt>
      <trkpt lat="45.46564" lon="4.78996">
        <ele>153.80000305176</ele>
        <time>2024-05-21T07:20:37.000Z</time>
      </trkpt>
      <trkpt lat="45.46558" lon="4.78992">
        <ele>153.80000305176</ele>
        <time>2024-05-21T07:20:38.000Z</time>
      </trkpt>
      <trkpt lat="45.46552" lon="4.78988">
        <ele>153.60000610352</ele>
        <time>2024-05-21T07:20:39.000Z</time>
      </trkpt>
      <trkpt lat="45.46546" lon="4.78984">
        <ele>153.60000610352</ele>
        <time>2024-05-21T07:20:40.000Z</time>
      </trkpt>
      <trkpt lat="45.4654" lon="4.78981">
        <ele>153.60000610352</ele>
        <time>2024-05-21T07:20:41.000Z</time>
      </trkpt>
      <trkpt lat="45.46534" lon="4.78976">
        <ele>153.80000305176</ele>
        <time>2024-05-21T07:20:42.000Z</time>
      </trkpt>
      <trkpt lat="45.46529" lon="4.78972">
        <ele>153.80000305176</ele>
        <time>2024-05-21T07:20:43.000Z</time>
      </trkpt>
      <trkpt lat="45.46523" lon="4.78969">
        <ele>153.80000305176</ele>
        <time>2024-05-21T07:20:44.000Z</time>
      </trkpt>
      <trkpt lat="45.46518" lon="4.78965">
        <ele>153.80000305176</ele>
        <time>2024-05-21T07:20:45.000Z</time>
      </trkpt>
      <trkpt lat="45.46513" lon="4.78962">
        <ele>153.80000305176</ele>
        <time>2024-05-21T07:20:46.000Z</time>
      </trkpt>
      <trkpt lat="45.46508" lon="4.78959">
        <ele>153.80000305176</ele>
        <time>2024-05-21T07:20:47.000Z</time>
      </trkpt>
      <trkpt lat="45.46503" lon="4.78955">
        <ele>154</ele>
        <time>2024-05-21T07:20:48.000Z</time>
      </trkpt>
      <trkpt lat="45.46498" lon="4.78952">
        <ele>154.19999694824</ele>
        <time>2024-05-21T07:20:49.000Z</time>
      </trkpt>
      <trkpt lat="45.46493" lon="4.78948">
        <ele>154.60000610352</ele>
        <time>2024-05-21T07:20:50.000Z</time>
      </trkpt>
      <trkpt lat="45.46488" lon="4.78945">
        <ele>154.80000305176</ele>
        <time>2024-05-21T07:20:51.000Z</time>
      </trkpt>
      <trkpt lat="45.46483" lon="4.78942">
        <ele>154.80000305176</ele>
        <time>2024-05-21T07:20:52.000Z</time>
      </trkpt>
      <trkpt lat="45.46478" lon="4.78938">
        <ele>155</ele>
        <time>2024-05-21T07:20:53.000Z</time>
      </trkpt>
      <trkpt lat="45.46474" lon="4.78935">
        <ele>155</ele>
        <time>2024-05-21T07:20:54.000Z</time>
      </trkpt>
      <trkpt lat="45.46468" lon="4.78932">
        <ele>155</ele>
        <time>2024-05-21T07:20:55.000Z</time>
      </trkpt>
      <trkpt lat="45.46463" lon="4.78928">
        <ele>155</ele>
        <time>2024-05-21T07:20:56.000Z</time>
      </trkpt>
      <trkpt lat="45.46458" lon="4.78925">
        <ele>155</ele>
        <time>2024-05-21T07:20:57.000Z</time>
      </trkpt>
      <trkpt lat="45.46453" lon="4.78921">
        <ele>155</ele>
        <time>2024-05-21T07:20:58.000Z</time>
      </trkpt>
      <trkpt lat="45.46447" lon="4.78918">
        <ele>155</ele>
        <time>2024-05-21T07:20:59.000Z</time>
      </trkpt>
      <trkpt lat="45.46441" lon="4.78914">
        <ele>154.80000305176</ele>
        <time>2024-05-21T07:21:00.000Z</time>
      </trkpt>
      <trkpt lat="45.46435" lon="4.7891">
        <ele>154.80000305176</ele>
        <time>2024-05-21T07:21:01.000Z</time>
      </trkpt>
      <trkpt lat="45.46429" lon="4.78905">
        <ele>154.80000305176</ele>
        <time>2024-05-21T07:21:02.000Z</time>
      </trkpt>
      <trkpt lat="45.46422" lon="4.78901">
        <ele>154.60000610352</ele>
        <time>2024-05-21T07:21:03.000Z</time>
      </trkpt>
      <trkpt lat="45.46416" lon="4.78896">
        <ele>154</ele>
        <time>2024-05-21T07:21:04.000Z</time>
      </trkpt>
      <trkpt lat="45.46409" lon="4.78892">
        <ele>153.60000610352</ele>
        <time>2024-05-21T07:21:05.000Z</time>
      </trkpt>
      <trkpt lat="45.46402" lon="4.78887">
        <ele>153.19999694824</ele>
        <time>2024-05-21T07:21:06.000Z</time>
      </trkpt>
      <trkpt lat="45.46396" lon="4.78883">
        <ele>152.80000305176</ele>
        <time>2024-05-21T07:21:07.000Z</time>
      </trkpt>
      <trkpt lat="45.46389" lon="4.78878">
        <ele>152.39999389648</ele>
        <time>2024-05-21T07:21:08.000Z</time>
      </trkpt>
      <trkpt lat="45.46383" lon="4.78874">
        <ele>152.19999694824</ele>
        <time>2024-05-21T07:21:09.000Z</time>
      </trkpt>
      <trkpt lat="45.46377" lon="4.78869">
        <ele>151.80000305176</ele>
        <time>2024-05-21T07:21:10.000Z</time>
      </trkpt>
      <trkpt lat="45.4637" lon="4.78865">
        <ele>151.80000305176</ele>
        <time>2024-05-21T07:21:11.000Z</time>
      </trkpt>
      <trkpt lat="45.46364" lon="4.7886">
        <ele>151.80000305176</ele>
        <time>2024-05-21T07:21:12.000Z</time>
      </trkpt>
      <trkpt lat="45.46358" lon="4.78857">
        <ele>151.60000610352</ele>
        <time>2024-05-21T07:21:13.000Z</time>
      </trkpt>
      <trkpt lat="45.46352" lon="4.78852">
        <ele>151.60000610352</ele>
        <time>2024-05-21T07:21:14.000Z</time>
      </trkpt>
      <trkpt lat="45.46346" lon="4.78848">
        <ele>151.39999389648</ele>
        <time>2024-05-21T07:21:15.000Z</time>
      </trkpt>
      <trkpt lat="45.4634" lon="4.78844">
        <ele>151.39999389648</ele>
        <time>2024-05-21T07:21:16.000Z</time>
      </trkpt>
      <trkpt lat="45.46334" lon="4.7884">
        <ele>151.19999694824</ele>
        <time>2024-05-21T07:21:17.000Z</time>
      </trkpt>
      <trkpt lat="45.46328" lon="4.78836">
        <ele>151.19999694824</ele>
        <time>2024-05-21T07:21:18.000Z</time>
      </trkpt>
      <trkpt lat="45.46322" lon="4.78832">
        <ele>151.19999694824</ele>
        <time>2024-05-21T07:21:19.000Z</time>
      </trkpt>
      <trkpt lat="45.46316" lon="4.78828">
        <ele>151</ele>
        <time>2024-05-21T07:21:20.000Z</time>
      </trkpt>
      <trkpt lat="45.4631" lon="4.78824">
        <ele>151.19999694824</ele>
        <time>2024-05-21T07:21:21.000Z</time>
      </trkpt>
      <trkpt lat="45.46304" lon="4.78821">
        <ele>151.19999694824</ele>
        <time>2024-05-21T07:21:22.000Z</time>
      </trkpt>
      <trkpt lat="45.46298" lon="4.78817">
        <ele>151.19999694824</ele>
        <time>2024-05-21T07:21:23.000Z</time>
      </trkpt>
      <trkpt lat="45.46291" lon="4.78812">
        <ele>151.19999694824</ele>
        <time>2024-05-21T07:21:24.000Z</time>
      </trkpt>
      <trkpt lat="45.46285" lon="4.78808">
        <ele>151.19999694824</ele>
        <time>2024-05-21T07:21:25.000Z</time>
      </trkpt>
      <trkpt lat="45.4628" lon="4.78805">
        <ele>151.19999694824</ele>
        <time>2024-05-21T07:21:26.000Z</time>
      </trkpt>
      <trkpt lat="45.46275" lon="4.78801">
        <ele>151.19999694824</ele>
        <time>2024-05-21T07:21:27.000Z</time>
      </trkpt>
      <trkpt lat="45.46269" lon="4.78798">
        <ele>151.19999694824</ele>
        <time>2024-05-21T07:21:28.000Z</time>
      </trkpt>
      <trkpt lat="45.46263" lon="4.78794">
        <ele>151.19999694824</ele>
        <time>2024-05-21T07:21:29.000Z</time>
      </trkpt>
      <trkpt lat="45.46257" lon="4.78791">
        <ele>151.19999694824</ele>
        <time>2024-05-21T07:21:30.000Z</time>
      </trkpt>
      <trkpt lat="45.46251" lon="4.78788">
        <ele>151.19999694824</ele>
        <time>2024-05-21T07:21:31.000Z</time>
      </trkpt>
      <trkpt lat="45.46245" lon="4.78785">
        <ele>151.19999694824</ele>
        <time>2024-05-21T07:21:32.000Z</time>
      </trkpt>
      <trkpt lat="45.46239" lon="4.78783">
        <ele>151.19999694824</ele>
        <time>2024-05-21T07:21:33.000Z</time>
      </trkpt>
      <trkpt lat="45.46233" lon="4.7878">
        <ele>151.19999694824</ele>
        <time>2024-05-21T07:21:34.000Z</time>
      </trkpt>
      <trkpt lat="45.46227" lon="4.78778">
        <ele>151.19999694824</ele>
        <time>2024-05-21T07:21:35.000Z</time>
      </trkpt>
      <trkpt lat="45.46221" lon="4.78776">
        <ele>151.19999694824</ele>
        <time>2024-05-21T07:21:36.000Z</time>
      </trkpt>
      <trkpt lat="45.46215" lon="4.78774">
        <ele>151.39999389648</ele>
        <time>2024-05-21T07:21:37.000Z</time>
      </trkpt>
      <trkpt lat="45.46209" lon="4.78773">
        <ele>151.39999389648</ele>
        <time>2024-05-21T07:21:38.000Z</time>
      </trkpt>
      <trkpt lat="45.46203" lon="4.78771">
        <ele>151.39999389648</ele>
        <time>2024-05-21T07:21:39.000Z</time>
      </trkpt>
      <trkpt lat="45.46196" lon="4.78769">
        <ele>151.39999389648</ele>
        <time>2024-05-21T07:21:40.000Z</time>
      </trkpt>
      <trkpt lat="45.4619" lon="4.78768">
        <ele>151.39999389648</ele>
        <time>2024-05-21T07:21:41.000Z</time>
      </trkpt>
      <trkpt lat="45.46184" lon="4.78766">
        <ele>151.39999389648</ele>
        <time>2024-05-21T07:21:42.000Z</time>
      </trkpt>
      <trkpt lat="45.46178" lon="4.78764">
        <ele>151.39999389648</ele>
        <time>2024-05-21T07:21:43.000Z</time>
      </trkpt>
      <trkpt lat="45.46172" lon="4.78762">
        <ele>151.39999389648</ele>
        <time>2024-05-21T07:21:44.000Z</time>
      </trkpt>
      <trkpt lat="45.46166" lon="4.78761">
        <ele>151.39999389648</ele>
        <time>2024-05-21T07:21:45.000Z</time>
      </trkpt>
      <trkpt lat="45.46158" lon="4.78759">
        <ele>151.39999389648</ele>
        <time>2024-05-21T07:21:46.000Z</time>
      </trkpt>
      <trkpt lat="45.46153" lon="4.78757">
        <ele>151.39999389648</ele>
        <time>2024-05-21T07:21:47.000Z</time>
      </trkpt>
      <trkpt lat="45.46147" lon="4.78755">
        <ele>151.39999389648</ele>
        <time>2024-05-21T07:21:48.000Z</time>
      </trkpt>
      <trkpt lat="45.46141" lon="4.78753">
        <ele>151.39999389648</ele>
        <time>2024-05-21T07:21:49.000Z</time>
      </trkpt>
      <trkpt lat="45.46134" lon="4.78751">
        <ele>151.39999389648</ele>
        <time>2024-05-21T07:21:50.000Z</time>
      </trkpt>
      <trkpt lat="45.46128" lon="4.78749">
        <ele>151</ele>
        <time>2024-05-21T07:21:51.000Z</time>
      </trkpt>
      <trkpt lat="45.46121" lon="4.78746">
        <ele>151</ele>
        <time>2024-05-21T07:21:52.000Z</time>
      </trkpt>
      <trkpt lat="45.46116" lon="4.78744">
        <ele>151</ele>
        <time>2024-05-21T07:21:53.000Z</time>
      </trkpt>
      <trkpt lat="45.46109" lon="4.78741">
        <ele>151</ele>
        <time>2024-05-21T07:21:54.000Z</time>
      </trkpt>
      <trkpt lat="45.46103" lon="4.78738">
        <ele>151</ele>
        <time>2024-05-21T07:21:55.000Z</time>
      </trkpt>
      <trkpt lat="45.46097" lon="4.78735">
        <ele>151</ele>
        <time>2024-05-21T07:21:56.000Z</time>
      </trkpt>
      <trkpt lat="45.46091" lon="4.78731">
        <ele>151</ele>
        <time>2024-05-21T07:21:57.000Z</time>
      </trkpt>
      <trkpt lat="45.46084" lon="4.78727">
        <ele>150.80000305176</ele>
        <time>2024-05-21T07:21:58.000Z</time>
      </trkpt>
      <trkpt lat="45.46078" lon="4.78723">
        <ele>150.80000305176</ele>
        <time>2024-05-21T07:21:59.000Z</time>
      </trkpt>
      <trkpt lat="45.46072" lon="4.7872">
        <ele>150.60000610352</ele>
        <time>2024-05-21T07:22:00.000Z</time>
      </trkpt>
      <trkpt lat="45.46067" lon="4.78717">
        <ele>150.60000610352</ele>
        <time>2024-05-21T07:22:01.000Z</time>
      </trkpt>
      <trkpt lat="45.46062" lon="4.78713">
        <ele>150.60000610352</ele>
        <time>2024-05-21T07:22:02.000Z</time>
      </trkpt>
      <trkpt lat="45.46056" lon="4.78709">
        <ele>150.60000610352</ele>
        <time>2024-05-21T07:22:03.000Z</time>
      </trkpt>
      <trkpt lat="45.4605" lon="4.78704">
        <ele>150.60000610352</ele>
        <time>2024-05-21T07:22:04.000Z</time>
      </trkpt>
      <trkpt lat="45.46044" lon="4.787">
        <ele>150.60000610352</ele>
        <time>2024-05-21T07:22:05.000Z</time>
      </trkpt>
      <trkpt lat="45.46037" lon="4.78695">
        <ele>150.60000610352</ele>
        <time>2024-05-21T07:22:06.000Z</time>
      </trkpt>
      <trkpt lat="45.46031" lon="4.78692">
        <ele>150.60000610352</ele>
        <time>2024-05-21T07:22:07.000Z</time>
      </trkpt>
      <trkpt lat="45.46026" lon="4.78688">
        <ele>150.60000610352</ele>
        <time>2024-05-21T07:22:08.000Z</time>
      </trkpt>
      <trkpt lat="45.4602" lon="4.78683">
        <ele>150.60000610352</ele>
        <time>2024-05-21T07:22:09.000Z</time>
      </trkpt>
      <trkpt lat="45.46014" lon="4.78679">
        <ele>150.60000610352</ele>
        <time>2024-05-21T07:22:10.000Z</time>
      </trkpt>
      <trkpt lat="45.46008" lon="4.78675">
        <ele>150.80000305176</ele>
        <time>2024-05-21T07:22:11.000Z</time>
      </trkpt>
      <trkpt lat="45.46003" lon="4.78672">
        <ele>150.80000305176</ele>
        <time>2024-05-21T07:22:12.000Z</time>
      </trkpt>
      <trkpt lat="45.45997" lon="4.78667">
        <ele>150.80000305176</ele>
        <time>2024-05-21T07:22:13.000Z</time>
      </trkpt>
      <trkpt lat="45.45991" lon="4.78663">
        <ele>150.80000305176</ele>
        <time>2024-05-21T07:22:14.000Z</time>
      </trkpt>
      <trkpt lat="45.45986" lon="4.78659">
        <ele>150.80000305176</ele>
        <time>2024-05-21T07:22:15.000Z</time>
      </trkpt>
      <trkpt lat="45.45981" lon="4.78655">
        <ele>150.80000305176</ele>
        <time>2024-05-21T07:22:16.000Z</time>
      </trkpt>
      <trkpt lat="45.45976" lon="4.78651">
        <ele>150.80000305176</ele>
        <time>2024-05-21T07:22:17.000Z</time>
      </trkpt>
      <trkpt lat="45.45972" lon="4.78648">
        <ele>151</ele>
        <time>2024-05-21T07:22:18.000Z</time>
      </trkpt>
      <trkpt lat="45.45967" lon="4.78644">
        <ele>151</ele>
        <time>2024-05-21T07:22:19.000Z</time>
      </trkpt>
      <trkpt lat="45.45963" lon="4.78642">
        <ele>151.39999389648</ele>
        <time>2024-05-21T07:22:20.000Z</time>
      </trkpt>
      <trkpt lat="45.45958" lon="4.78638">
        <ele>151.60000610352</ele>
        <time>2024-05-21T07:22:21.000Z</time>
      </trkpt>
      <trkpt lat="45.45954" lon="4.78635">
        <ele>151.80000305176</ele>
        <time>2024-05-21T07:22:22.000Z</time>
      </trkpt>
      <trkpt lat="45.4595" lon="4.78632">
        <ele>151.80000305176</ele>
        <time>2024-05-21T07:22:23.000Z</time>
      </trkpt>
      <trkpt lat="45.45946" lon="4.78629">
        <ele>152</ele>
        <time>2024-05-21T07:22:24.000Z</time>
      </trkpt>
      <trkpt lat="45.45944" lon="4.78625">
        <ele>152.19999694824</ele>
        <time>2024-05-21T07:22:25.000Z</time>
      </trkpt>
      <trkpt lat="45.45943" lon="4.78621">
        <ele>152.80000305176</ele>
        <time>2024-05-21T07:22:26.000Z</time>
      </trkpt>
      <trkpt lat="45.45943" lon="4.78616">
        <ele>152.80000305176</ele>
        <time>2024-05-21T07:22:27.000Z</time>
      </trkpt>
      <trkpt lat="45.45943" lon="4.78611">
        <ele>153</ele>
        <time>2024-05-21T07:22:28.000Z</time>
      </trkpt>
      <trkpt lat="45.45942" lon="4.78605">
        <ele>153.19999694824</ele>
        <time>2024-05-21T07:22:29.000Z</time>
      </trkpt>
      <trkpt lat="45.4594" lon="4.78602">
        <ele>153.19999694824</ele>
        <time>2024-05-21T07:22:30.000Z</time>
      </trkpt>
      <trkpt lat="45.45938" lon="4.78599">
        <ele>153.19999694824</ele>
        <time>2024-05-21T07:22:31.000Z</time>
      </trkpt>
      <trkpt lat="45.45935" lon="4.78598">
        <ele>153.19999694824</ele>
        <time>2024-05-21T07:22:32.000Z</time>
      </trkpt>
      <trkpt lat="45.45933" lon="4.78598">
        <ele>153.19999694824</ele>
        <time>2024-05-21T07:22:33.000Z</time>
      </trkpt>
      <trkpt lat="45.45931" lon="4.78599">
        <ele>153.19999694824</ele>
        <time>2024-05-21T07:22:34.000Z</time>
      </trkpt>
      <trkpt lat="45.45929" lon="4.78601">
        <ele>153.19999694824</ele>
        <time>2024-05-21T07:22:35.000Z</time>
      </trkpt>
      <trkpt lat="45.45927" lon="4.78603">
        <ele>153.19999694824</ele>
        <time>2024-05-21T07:22:36.000Z</time>
      </trkpt>
      <trkpt lat="45.45925" lon="4.78606">
        <ele>153.19999694824</ele>
        <time>2024-05-21T07:22:37.000Z</time>
      </trkpt>
      <trkpt lat="45.45923" lon="4.78608">
        <ele>153.19999694824</ele>
        <time>2024-05-21T07:22:38.000Z</time>
      </trkpt>
      <trkpt lat="45.45921" lon="4.78609">
        <ele>153.19999694824</ele>
        <time>2024-05-21T07:22:39.000Z</time>
      </trkpt>
      <trkpt lat="45.45919" lon="4.78609">
        <ele>153.19999694824</ele>
        <time>2024-05-21T07:22:40.000Z</time>
      </trkpt>
      <trkpt lat="45.45916" lon="4.78608">
        <ele>153.39999389648</ele>
        <time>2024-05-21T07:22:41.000Z</time>
      </trkpt>
      <trkpt lat="45.45912" lon="4.78606">
        <ele>153.60000610352</ele>
        <time>2024-05-21T07:22:42.000Z</time>
      </trkpt>
      <trkpt lat="45.45908" lon="4.78604">
        <ele>153.60000610352</ele>
        <time>2024-05-21T07:22:43.000Z</time>
      </trkpt>
      <trkpt lat="45.45904" lon="4.78601">
        <ele>153.80000305176</ele>
        <time>2024-05-21T07:22:44.000Z</time>
      </trkpt>
      <trkpt lat="45.459" lon="4.78598">
        <ele>153.80000305176</ele>
        <time>2024-05-21T07:22:45.000Z</time>
      </trkpt>
      <trkpt lat="45.45897" lon="4.78596">
        <ele>153.80000305176</ele>
        <time>2024-05-21T07:22:46.000Z</time>
      </trkpt>
      <trkpt lat="45.45892" lon="4.78593">
        <ele>153.80000305176</ele>
        <time>2024-05-21T07:22:47.000Z</time>
      </trkpt>
      <trkpt lat="45.45888" lon="4.7859">
        <ele>153.80000305176</ele>
        <time>2024-05-21T07:22:48.000Z</time>
      </trkpt>
      <trkpt lat="45.45883" lon="4.78587">
        <ele>153.80000305176</ele>
        <time>2024-05-21T07:22:49.000Z</time>
      </trkpt>
      <trkpt lat="45.45879" lon="4.78584">
        <ele>153.80000305176</ele>
        <time>2024-05-21T07:22:50.000Z</time>
      </trkpt>
      <trkpt lat="45.45875" lon="4.78581">
        <ele>153.80000305176</ele>
        <time>2024-05-21T07:22:51.000Z</time>
      </trkpt>
      <trkpt lat="45.45869" lon="4.78577">
        <ele>153.80000305176</ele>
        <time>2024-05-21T07:22:52.000Z</time>
      </trkpt>
      <trkpt lat="45.45865" lon="4.78573">
        <ele>153.80000305176</ele>
        <time>2024-05-21T07:22:53.000Z</time>
      </trkpt>
      <trkpt lat="45.4586" lon="4.7857">
        <ele>153.80000305176</ele>
        <time>2024-05-21T07:22:54.000Z</time>
      </trkpt>
      <trkpt lat="45.45855" lon="4.78566">
        <ele>153.80000305176</ele>
        <time>2024-05-21T07:22:55.000Z</time>
      </trkpt>
      <trkpt lat="45.4585" lon="4.78562">
        <ele>154</ele>
        <time>2024-05-21T07:22:56.000Z</time>
      </trkpt>
      <trkpt lat="45.45844" lon="4.78557">
        <ele>154</ele>
        <time>2024-05-21T07:22:57.000Z</time>
      </trkpt>
      <trkpt lat="45.45839" lon="4.78553">
        <ele>154</ele>
        <time>2024-05-21T07:22:58.000Z</time>
      </trkpt>
      <trkpt lat="45.45834" lon="4.78548">
        <ele>154</ele>
        <time>2024-05-21T07:22:59.000Z</time>
      </trkpt>
      <trkpt lat="45.45828" lon="4.78543">
        <ele>154</ele>
        <time>2024-05-21T07:23:00.000Z</time>
      </trkpt>
      <trkpt lat="45.45824" lon="4.78539">
        <ele>153.60000610352</ele>
        <time>2024-05-21T07:23:01.000Z</time>
      </trkpt>
      <trkpt lat="45.45819" lon="4.78534">
        <ele>153.60000610352</ele>
        <time>2024-05-21T07:23:02.000Z</time>
      </trkpt>
      <trkpt lat="45.45813" lon="4.78529">
        <ele>153.19999694824</ele>
        <time>2024-05-21T07:23:03.000Z</time>
      </trkpt>
      <trkpt lat="45.45807" lon="4.78522">
        <ele>153</ele>
        <time>2024-05-21T07:23:04.000Z</time>
      </trkpt>
      <trkpt lat="45.45801" lon="4.78517">
        <ele>152.80000305176</ele>
        <time>2024-05-21T07:23:05.000Z</time>
      </trkpt>
      <trkpt lat="45.45795" lon="4.78511">
        <ele>152.39999389648</ele>
        <time>2024-05-21T07:23:06.000Z</time>
      </trkpt>
      <trkpt lat="45.45789" lon="4.78506">
        <ele>152.19999694824</ele>
        <time>2024-05-21T07:23:07.000Z</time>
      </trkpt>
      <trkpt lat="45.45782" lon="4.785">
        <ele>152.19999694824</ele>
        <time>2024-05-21T07:23:08.000Z</time>
      </trkpt>
      <trkpt lat="45.45776" lon="4.78495">
        <ele>151.80000305176</ele>
        <time>2024-05-21T07:23:09.000Z</time>
      </trkpt>
      <trkpt lat="45.45769" lon="4.78489">
        <ele>151.60000610352</ele>
        <time>2024-05-21T07:23:10.000Z</time>
      </trkpt>
      <trkpt lat="45.45763" lon="4.78484">
        <ele>151</ele>
        <time>2024-05-21T07:23:11.000Z</time>
      </trkpt>
      <trkpt lat="45.45758" lon="4.7848">
        <ele>151</ele>
        <time>2024-05-21T07:23:12.000Z</time>
      </trkpt>
      <trkpt lat="45.4575" lon="4.78474">
        <ele>151</ele>
        <time>2024-05-21T07:23:13.000Z</time>
      </trkpt>
      <trkpt lat="45.45744" lon="4.78469">
        <ele>151</ele>
        <time>2024-05-21T07:23:14.000Z</time>
      </trkpt>
      <trkpt lat="45.45738" lon="4.78464">
        <ele>151</ele>
        <time>2024-05-21T07:23:15.000Z</time>
      </trkpt>
      <trkpt lat="45.45733" lon="4.78459">
        <ele>151</ele>
        <time>2024-05-21T07:23:16.000Z</time>
      </trkpt>
      <trkpt lat="45.45727" lon="4.78454">
        <ele>151</ele>
        <time>2024-05-21T07:23:17.000Z</time>
      </trkpt>
      <trkpt lat="45.45721" lon="4.78449">
        <ele>151</ele>
        <time>2024-05-21T07:23:18.000Z</time>
      </trkpt>
      <trkpt lat="45.45715" lon="4.78444">
        <ele>151</ele>
        <time>2024-05-21T07:23:19.000Z</time>
      </trkpt>
      <trkpt lat="45.45711" lon="4.7844">
        <ele>151</ele>
        <time>2024-05-21T07:23:20.000Z</time>
      </trkpt>
      <trkpt lat="45.45705" lon="4.78435">
        <ele>151.19999694824</ele>
        <time>2024-05-21T07:23:21.000Z</time>
      </trkpt>
      <trkpt lat="45.45699" lon="4.78429">
        <ele>151.19999694824</ele>
        <time>2024-05-21T07:23:22.000Z</time>
      </trkpt>
      <trkpt lat="45.45695" lon="4.78425">
        <ele>151.19999694824</ele>
        <time>2024-05-21T07:23:23.000Z</time>
      </trkpt>
      <trkpt lat="45.4569" lon="4.7842">
        <ele>151.39999389648</ele>
        <time>2024-05-21T07:23:24.000Z</time>
      </trkpt>
      <trkpt lat="45.45685" lon="4.78415">
        <ele>151.60000610352</ele>
        <time>2024-05-21T07:23:25.000Z</time>
      </trkpt>
      <trkpt lat="45.4568" lon="4.78409">
        <ele>151.60000610352</ele>
        <time>2024-05-21T07:23:26.000Z</time>
      </trkpt>
      <trkpt lat="45.45673" lon="4.78402">
        <ele>151.60000610352</ele>
        <time>2024-05-21T07:23:27.000Z</time>
      </trkpt>
      <trkpt lat="45.45669" lon="4.78397">
        <ele>151.60000610352</ele>
        <time>2024-05-21T07:23:28.000Z</time>
      </trkpt>
      <trkpt lat="45.45664" lon="4.78391">
        <ele>151.60000610352</ele>
        <time>2024-05-21T07:23:29.000Z</time>
      </trkpt>
      <trkpt lat="45.45659" lon="4.78385">
        <ele>151.39999389648</ele>
        <time>2024-05-21T07:23:30.000Z</time>
      </trkpt>
      <trkpt lat="45.45653" lon="4.78377">
        <ele>151.39999389648</ele>
        <time>2024-05-21T07:23:31.000Z</time>
      </trkpt>
      <trkpt lat="45.45648" lon="4.78371">
        <ele>151.39999389648</ele>
        <time>2024-05-21T07:23:32.000Z</time>
      </trkpt>
      <trkpt lat="45.45643" lon="4.78364">
        <ele>151.39999389648</ele>
        <time>2024-05-21T07:23:33.000Z</time>
      </trkpt>
      <trkpt lat="45.45638" lon="4.78357">
        <ele>151.39999389648</ele>
        <time>2024-05-21T07:23:34.000Z</time>
      </trkpt>
      <trkpt lat="45.45633" lon="4.78351">
        <ele>151.39999389648</ele>
        <time>2024-05-21T07:23:35.000Z</time>
      </trkpt>
      <trkpt lat="45.45628" lon="4.78344">
        <ele>151.39999389648</ele>
        <time>2024-05-21T07:23:36.000Z</time>
      </trkpt>
      <trkpt lat="45.45624" lon="4.78338">
        <ele>151.19999694824</ele>
        <time>2024-05-21T07:23:37.000Z</time>
      </trkpt>
      <trkpt lat="45.4562" lon="4.78332">
        <ele>151.19999694824</ele>
        <time>2024-05-21T07:23:38.000Z</time>
      </trkpt>
      <trkpt lat="45.45614" lon="4.78324">
        <ele>151.19999694824</ele>
        <time>2024-05-21T07:23:39.000Z</time>
      </trkpt>
      <trkpt lat="45.4561" lon="4.78318">
        <ele>151.19999694824</ele>
        <time>2024-05-21T07:23:40.000Z</time>
      </trkpt>
      <trkpt lat="45.45605" lon="4.78311">
        <ele>151.19999694824</ele>
        <time>2024-05-21T07:23:41.000Z</time>
      </trkpt>
      <trkpt lat="45.456" lon="4.78304">
        <ele>151.19999694824</ele>
        <time>2024-05-21T07:23:42.000Z</time>
      </trkpt>
      <trkpt lat="45.45596" lon="4.78296">
        <ele>151.19999694824</ele>
        <time>2024-05-21T07:23:43.000Z</time>
      </trkpt>
      <trkpt lat="45.45591" lon="4.78289">
        <ele>151.19999694824</ele>
        <time>2024-05-21T07:23:44.000Z</time>
      </trkpt>
      <trkpt lat="45.45587" lon="4.78284">
        <ele>151.19999694824</ele>
        <time>2024-05-21T07:23:45.000Z</time>
      </trkpt>
      <trkpt lat="45.45582" lon="4.78276">
        <ele>151.19999694824</ele>
        <time>2024-05-21T07:23:46.000Z</time>
      </trkpt>
      <trkpt lat="45.45577" lon="4.78268">
        <ele>151</ele>
        <time>2024-05-21T07:23:47.000Z</time>
      </trkpt>
      <trkpt lat="45.45572" lon="4.78261">
        <ele>151</ele>
        <time>2024-05-21T07:23:48.000Z</time>
      </trkpt>
      <trkpt lat="45.45568" lon="4.78253">
        <ele>151</ele>
        <time>2024-05-21T07:23:49.000Z</time>
      </trkpt>
      <trkpt lat="45.45565" lon="4.78247">
        <ele>151</ele>
        <time>2024-05-21T07:23:50.000Z</time>
      </trkpt>
      <trkpt lat="45.45559" lon="4.78239">
        <ele>151</ele>
        <time>2024-05-21T07:23:51.000Z</time>
      </trkpt>
      <trkpt lat="45.45555" lon="4.78232">
        <ele>151</ele>
        <time>2024-05-21T07:23:52.000Z</time>
      </trkpt>
      <trkpt lat="45.4555" lon="4.78224">
        <ele>151</ele>
        <time>2024-05-21T07:23:53.000Z</time>
      </trkpt>
      <trkpt lat="45.45547" lon="4.78219">
        <ele>151</ele>
        <time>2024-05-21T07:23:54.000Z</time>
      </trkpt>
      <trkpt lat="45.45542" lon="4.78212">
        <ele>151</ele>
        <time>2024-05-21T07:23:55.000Z</time>
      </trkpt>
      <trkpt lat="45.45539" lon="4.78204">
        <ele>151</ele>
        <time>2024-05-21T07:23:56.000Z</time>
      </trkpt>
      <trkpt lat="45.45534" lon="4.78197">
        <ele>151</ele>
        <time>2024-05-21T07:23:57.000Z</time>
      </trkpt>
      <trkpt lat="45.45531" lon="4.7819">
        <ele>151</ele>
        <time>2024-05-21T07:23:58.000Z</time>
      </trkpt>
      <trkpt lat="45.45527" lon="4.78181">
        <ele>151</ele>
        <time>2024-05-21T07:23:59.000Z</time>
      </trkpt>
      <trkpt lat="45.45524" lon="4.78173">
        <ele>151</ele>
        <time>2024-05-21T07:24:00.000Z</time>
      </trkpt>
      <trkpt lat="45.45521" lon="4.78166">
        <ele>151</ele>
        <time>2024-05-21T07:24:01.000Z</time>
      </trkpt>
      <trkpt lat="45.45517" lon="4.78156">
        <ele>151</ele>
        <time>2024-05-21T07:24:02.000Z</time>
      </trkpt>
      <trkpt lat="45.45514" lon="4.7815">
        <ele>151.19999694824</ele>
        <time>2024-05-21T07:24:03.000Z</time>
      </trkpt>
      <trkpt lat="45.45511" lon="4.78142">
        <ele>151.19999694824</ele>
        <time>2024-05-21T07:24:04.000Z</time>
      </trkpt>
      <trkpt lat="45.45508" lon="4.78134">
        <ele>151.19999694824</ele>
        <time>2024-05-21T07:24:05.000Z</time>
      </trkpt>
      <trkpt lat="45.45505" lon="4.78126">
        <ele>151.19999694824</ele>
        <time>2024-05-21T07:24:06.000Z</time>
      </trkpt>
      <trkpt lat="45.45502" lon="4.78118">
        <ele>151.19999694824</ele>
        <time>2024-05-21T07:24:07.000Z</time>
      </trkpt>
      <trkpt lat="45.45498" lon="4.78108">
        <ele>151.19999694824</ele>
        <time>2024-05-21T07:24:08.000Z</time>
      </trkpt>
      <trkpt lat="45.45496" lon="4.78101">
        <ele>151.19999694824</ele>
        <time>2024-05-21T07:24:09.000Z</time>
      </trkpt>
      <trkpt lat="45.45492" lon="4.78093">
        <ele>151</ele>
        <time>2024-05-21T07:24:10.000Z</time>
      </trkpt>
      <trkpt lat="45.45488" lon="4.78084">
        <ele>151</ele>
        <time>2024-05-21T07:24:11.000Z</time>
      </trkpt>
      <trkpt lat="45.45486" lon="4.78077">
        <ele>151</ele>
        <time>2024-05-21T07:24:12.000Z</time>
      </trkpt>
      <trkpt lat="45.45483" lon="4.78069">
        <ele>151</ele>
        <time>2024-05-21T07:24:13.000Z</time>
      </trkpt>
      <trkpt lat="45.45479" lon="4.78061">
        <ele>150.80000305176</ele>
        <time>2024-05-21T07:24:14.000Z</time>
      </trkpt>
      <trkpt lat="45.45475" lon="4.78051">
        <ele>150.80000305176</ele>
        <time>2024-05-21T07:24:15.000Z</time>
      </trkpt>
      <trkpt lat="45.45472" lon="4.78045">
        <ele>150.80000305176</ele>
        <time>2024-05-21T07:24:16.000Z</time>
      </trkpt>
      <trkpt lat="45.45467" lon="4.78036">
        <ele>150.80000305176</ele>
        <time>2024-05-21T07:24:17.000Z</time>
      </trkpt>
      <trkpt lat="45.45464" lon="4.78029">
        <ele>150.80000305176</ele>
        <time>2024-05-21T07:24:18.000Z</time>
      </trkpt>
      <trkpt lat="45.45461" lon="4.78022">
        <ele>150.80000305176</ele>
        <time>2024-05-21T07:24:19.000Z</time>
      </trkpt>
      <trkpt lat="45.45456" lon="4.78013">
        <ele>150.80000305176</ele>
        <time>2024-05-21T07:24:20.000Z</time>
      </trkpt>
      <trkpt lat="45.45453" lon="4.78007">
        <ele>150.80000305176</ele>
        <time>2024-05-21T07:24:21.000Z</time>
      </trkpt>
      <trkpt lat="45.45449" lon="4.78">
        <ele>150.80000305176</ele>
        <time>2024-05-21T07:24:22.000Z</time>
      </trkpt>
      <trkpt lat="45.45445" lon="4.77992">
        <ele>150.80000305176</ele>
        <time>2024-05-21T07:24:23.000Z</time>
      </trkpt>
      <trkpt lat="45.45441" lon="4.77985">
        <ele>150.80000305176</ele>
        <time>2024-05-21T07:24:24.000Z</time>
      </trkpt>
      <trkpt lat="45.45437" lon="4.77979">
        <ele>150.80000305176</ele>
        <time>2024-05-21T07:24:25.000Z</time>
      </trkpt>
      <trkpt lat="45.45433" lon="4.77971">
        <ele>150.80000305176</ele>
        <time>2024-05-21T07:24:26.000Z</time>
      </trkpt>
      <trkpt lat="45.45429" lon="4.77964">
        <ele>150.80000305176</ele>
        <time>2024-05-21T07:24:27.000Z</time>
      </trkpt>
      <trkpt lat="45.45426" lon="4.77956">
        <ele>151</ele>
        <time>2024-05-21T07:24:28.000Z</time>
      </trkpt>
      <trkpt lat="45.45421" lon="4.77947">
        <ele>151</ele>
        <time>2024-05-21T07:24:29.000Z</time>
      </trkpt>
      <trkpt lat="45.45418" lon="4.77942">
        <ele>151.19999694824</ele>
        <time>2024-05-21T07:24:30.000Z</time>
      </trkpt>
      <trkpt lat="45.45414" lon="4.77935">
        <ele>151.19999694824</ele>
        <time>2024-05-21T07:24:31.000Z</time>
      </trkpt>
      <trkpt lat="45.45409" lon="4.77926">
        <ele>151.19999694824</ele>
        <time>2024-05-21T07:24:32.000Z</time>
      </trkpt>
      <trkpt lat="45.45405" lon="4.77919">
        <ele>151.19999694824</ele>
        <time>2024-05-21T07:24:33.000Z</time>
      </trkpt>
      <trkpt lat="45.45402" lon="4.77913">
        <ele>151.19999694824</ele>
        <time>2024-05-21T07:24:34.000Z</time>
      </trkpt>
      <trkpt lat="45.45398" lon="4.77907">
        <ele>151.19999694824</ele>
        <time>2024-05-21T07:24:35.000Z</time>
      </trkpt>
      <trkpt lat="45.45392" lon="4.77899">
        <ele>151.39999389648</ele>
        <time>2024-05-21T07:24:36.000Z</time>
      </trkpt>
      <trkpt lat="45.45388" lon="4.77894">
        <ele>151.39999389648</ele>
        <time>2024-05-21T07:24:37.000Z</time>
      </trkpt>
      <trkpt lat="45.45382" lon="4.77887">
        <ele>151.39999389648</ele>
        <time>2024-05-21T07:24:38.000Z</time>
      </trkpt>
      <trkpt lat="45.45377" lon="4.77882">
        <ele>151.39999389648</ele>
        <time>2024-05-21T07:24:39.000Z</time>
      </trkpt>
      <trkpt lat="45.45372" lon="4.77877">
        <ele>151.39999389648</ele>
        <time>2024-05-21T07:24:40.000Z</time>
      </trkpt>
      <trkpt lat="45.45366" lon="4.77871">
        <ele>151.39999389648</ele>
        <time>2024-05-21T07:24:41.000Z</time>
      </trkpt>
      <trkpt lat="45.45362" lon="4.77866">
        <ele>151.39999389648</ele>
        <time>2024-05-21T07:24:42.000Z</time>
      </trkpt>
      <trkpt lat="45.45358" lon="4.7786">
        <ele>151.39999389648</ele>
        <time>2024-05-21T07:24:43.000Z</time>
      </trkpt>
      <trkpt lat="45.45353" lon="4.77853">
        <ele>151.39999389648</ele>
        <time>2024-05-21T07:24:44.000Z</time>
      </trkpt>
      <trkpt lat="45.45349" lon="4.77845">
        <ele>151.19999694824</ele>
        <time>2024-05-21T07:24:45.000Z</time>
      </trkpt>
      <trkpt lat="45.45346" lon="4.77837">
        <ele>151.19999694824</ele>
        <time>2024-05-21T07:24:46.000Z</time>
      </trkpt>
      <trkpt lat="45.45342" lon="4.77829">
        <ele>151.19999694824</ele>
        <time>2024-05-21T07:24:47.000Z</time>
      </trkpt>
      <trkpt lat="45.45339" lon="4.77821">
        <ele>151.19999694824</ele>
        <time>2024-05-21T07:24:48.000Z</time>
      </trkpt>
      <trkpt lat="45.45336" lon="4.77812">
        <ele>151</ele>
        <time>2024-05-21T07:24:49.000Z</time>
      </trkpt>
      <trkpt lat="45.45333" lon="4.77804">
        <ele>151</ele>
        <time>2024-05-21T07:24:50.000Z</time>
      </trkpt>
      <trkpt lat="45.45329" lon="4.77794">
        <ele>151</ele>
        <time>2024-05-21T07:24:51.000Z</time>
      </trkpt>
      <trkpt lat="45.45326" lon="4.77787">
        <ele>151</ele>
        <time>2024-05-21T07:24:52.000Z</time>
      </trkpt>
      <trkpt lat="45.45324" lon="4.77778">
        <ele>151</ele>
        <time>2024-05-21T07:24:53.000Z</time>
      </trkpt>
      <trkpt lat="45.45321" lon="4.77768">
        <ele>150.80000305176</ele>
        <time>2024-05-21T07:24:54.000Z</time>
      </trkpt>
      <trkpt lat="45.4532" lon="4.7776">
        <ele>150.80000305176</ele>
        <time>2024-05-21T07:24:55.000Z</time>
      </trkpt>
      <trkpt lat="45.45319" lon="4.77751">
        <ele>150.80000305176</ele>
        <time>2024-05-21T07:24:56.000Z</time>
      </trkpt>
      <trkpt lat="45.45318" lon="4.77742">
        <ele>150.80000305176</ele>
        <time>2024-05-21T07:24:57.000Z</time>
      </trkpt>
      <trkpt lat="45.45317" lon="4.77732">
        <ele>150.80000305176</ele>
        <time>2024-05-21T07:24:58.000Z</time>
      </trkpt>
      <trkpt lat="45.45317" lon="4.77722">
        <ele>150.80000305176</ele>
        <time>2024-05-21T07:24:59.000Z</time>
      </trkpt>
      <trkpt lat="45.45317" lon="4.77711">
        <ele>150.60000610352</ele>
        <time>2024-05-21T07:25:00.000Z</time>
      </trkpt>
      <trkpt lat="45.45317" lon="4.77703">
        <ele>150.60000610352</ele>
        <time>2024-05-21T07:25:01.000Z</time>
      </trkpt>
      <trkpt lat="45.45318" lon="4.77692">
        <ele>150.60000610352</ele>
        <time>2024-05-21T07:25:02.000Z</time>
      </trkpt>
      <trkpt lat="45.45318" lon="4.77683">
        <ele>150.60000610352</ele>
        <time>2024-05-21T07:25:03.000Z</time>
      </trkpt>
      <trkpt lat="45.45318" lon="4.77676">
        <ele>150.60000610352</ele>
        <time>2024-05-21T07:25:04.000Z</time>
      </trkpt>
      <trkpt lat="45.45318" lon="4.77665">
        <ele>150.60000610352</ele>
        <time>2024-05-21T07:25:05.000Z</time>
      </trkpt>
      <trkpt lat="45.45319" lon="4.77657">
        <ele>150.60000610352</ele>
        <time>2024-05-21T07:25:06.000Z</time>
      </trkpt>
      <trkpt lat="45.45319" lon="4.77648">
        <ele>150.60000610352</ele>
        <time>2024-05-21T07:25:07.000Z</time>
      </trkpt>
      <trkpt lat="45.4532" lon="4.77638">
        <ele>150.39999389648</ele>
        <time>2024-05-21T07:25:08.000Z</time>
      </trkpt>
      <trkpt lat="45.4532" lon="4.77627">
        <ele>150.39999389648</ele>
        <time>2024-05-21T07:25:09.000Z</time>
      </trkpt>
      <trkpt lat="45.45321" lon="4.77619">
        <ele>150.39999389648</ele>
        <time>2024-05-21T07:25:10.000Z</time>
      </trkpt>
      <trkpt lat="45.45321" lon="4.7761">
        <ele>150.39999389648</ele>
        <time>2024-05-21T07:25:11.000Z</time>
      </trkpt>
      <trkpt lat="45.45322" lon="4.77601">
        <ele>150.39999389648</ele>
        <time>2024-05-21T07:25:12.000Z</time>
      </trkpt>
      <trkpt lat="45.45322" lon="4.77592">
        <ele>150.39999389648</ele>
        <time>2024-05-21T07:25:13.000Z</time>
      </trkpt>
      <trkpt lat="45.45323" lon="4.77583">
        <ele>150.39999389648</ele>
        <time>2024-05-21T07:25:14.000Z</time>
      </trkpt>
      <trkpt lat="45.45324" lon="4.77572">
        <ele>150.39999389648</ele>
        <time>2024-05-21T07:25:15.000Z</time>
      </trkpt>
      <trkpt lat="45.45325" lon="4.77564">
        <ele>150.39999389648</ele>
        <time>2024-05-21T07:25:16.000Z</time>
      </trkpt>
      <trkpt lat="45.45326" lon="4.77555">
        <ele>150.39999389648</ele>
        <time>2024-05-21T07:25:17.000Z</time>
      </trkpt>
      <trkpt lat="45.45328" lon="4.77545">
        <ele>150.39999389648</ele>
        <time>2024-05-21T07:25:18.000Z</time>
      </trkpt>
      <trkpt lat="45.45329" lon="4.77536">
        <ele>150.39999389648</ele>
        <time>2024-05-21T07:25:19.000Z</time>
      </trkpt>
      <trkpt lat="45.45331" lon="4.77529">
        <ele>150.39999389648</ele>
        <time>2024-05-21T07:25:20.000Z</time>
      </trkpt>
      <trkpt lat="45.45333" lon="4.7752">
        <ele>150.39999389648</ele>
        <time>2024-05-21T07:25:21.000Z</time>
      </trkpt>
      <trkpt lat="45.45336" lon="4.7751">
        <ele>150.39999389648</ele>
        <time>2024-05-21T07:25:22.000Z</time>
      </trkpt>
      <trkpt lat="45.45337" lon="4.77503">
        <ele>150.39999389648</ele>
        <time>2024-05-21T07:25:23.000Z</time>
      </trkpt>
      <trkpt lat="45.4534" lon="4.77493">
        <ele>150.39999389648</ele>
        <time>2024-05-21T07:25:24.000Z</time>
      </trkpt>
      <trkpt lat="45.45342" lon="4.77484">
        <ele>150.39999389648</ele>
        <time>2024-05-21T07:25:25.000Z</time>
      </trkpt>
      <trkpt lat="45.45344" lon="4.77477">
        <ele>150.60000610352</ele>
        <time>2024-05-21T07:25:26.000Z</time>
      </trkpt>
      <trkpt lat="45.45347" lon="4.77467">
        <ele>150.60000610352</ele>
        <time>2024-05-21T07:25:27.000Z</time>
      </trkpt>
      <trkpt lat="45.45349" lon="4.7746">
        <ele>150.60000610352</ele>
        <time>2024-05-21T07:25:28.000Z</time>
      </trkpt>
      <trkpt lat="45.45351" lon="4.77452">
        <ele>150.60000610352</ele>
        <time>2024-05-21T07:25:29.000Z</time>
      </trkpt>
      <trkpt lat="45.45354" lon="4.77442">
        <ele>150.60000610352</ele>
        <time>2024-05-21T07:25:30.000Z</time>
      </trkpt>
      <trkpt lat="45.45356" lon="4.77435">
        <ele>150.60000610352</ele>
        <time>2024-05-21T07:25:31.000Z</time>
      </trkpt>
      <trkpt lat="45.45359" lon="4.77427">
        <ele>150.80000305176</ele>
        <time>2024-05-21T07:25:32.000Z</time>
      </trkpt>
      <trkpt lat="45.45361" lon="4.77418">
        <ele>150.80000305176</ele>
        <time>2024-05-21T07:25:33.000Z</time>
      </trkpt>
      <trkpt lat="45.45363" lon="4.7741">
        <ele>150.80000305176</ele>
        <time>2024-05-21T07:25:34.000Z</time>
      </trkpt>
      <trkpt lat="45.45366" lon="4.77402">
        <ele>150.80000305176</ele>
        <time>2024-05-21T07:25:35.000Z</time>
      </trkpt>
      <trkpt lat="45.45368" lon="4.77394">
        <ele>150.80000305176</ele>
        <time>2024-05-21T07:25:36.000Z</time>
      </trkpt>
      <trkpt lat="45.45371" lon="4.77385">
        <ele>150.80000305176</ele>
        <time>2024-05-21T07:25:37.000Z</time>
      </trkpt>
      <trkpt lat="45.45374" lon="4.77375">
        <ele>150.80000305176</ele>
        <time>2024-05-21T07:25:38.000Z</time>
      </trkpt>
      <trkpt lat="45.45376" lon="4.77368">
        <ele>150.80000305176</ele>
        <time>2024-05-21T07:25:39.000Z</time>
      </trkpt>
      <trkpt lat="45.45378" lon="4.77359">
        <ele>150.80000305176</ele>
        <time>2024-05-21T07:25:40.000Z</time>
      </trkpt>
      <trkpt lat="45.45381" lon="4.77349">
        <ele>150.60000610352</ele>
        <time>2024-05-21T07:25:41.000Z</time>
      </trkpt>
      <trkpt lat="45.45384" lon="4.77342">
        <ele>150.60000610352</ele>
        <time>2024-05-21T07:25:42.000Z</time>
      </trkpt>
      <trkpt lat="45.45386" lon="4.77333">
        <ele>150.39999389648</ele>
        <time>2024-05-21T07:25:43.000Z</time>
      </trkpt>
      <trkpt lat="45.45389" lon="4.77323">
        <ele>150.39999389648</ele>
        <time>2024-05-21T07:25:44.000Z</time>
      </trkpt>
      <trkpt lat="45.45391" lon="4.77317">
        <ele>150.39999389648</ele>
        <time>2024-05-21T07:25:45.000Z</time>
      </trkpt>
      <trkpt lat="45.45394" lon="4.77309">
        <ele>150.39999389648</ele>
        <time>2024-05-21T07:25:46.000Z</time>
      </trkpt>
      <trkpt lat="45.45399" lon="4.773">
        <ele>150.19999694824</ele>
        <time>2024-05-21T07:25:47.000Z</time>
      </trkpt>
      <trkpt lat="45.45402" lon="4.77295">
        <ele>150.19999694824</ele>
        <time>2024-05-21T07:25:48.000Z</time>
      </trkpt>
      <trkpt lat="45.45406" lon="4.77288">
        <ele>150</ele>
        <time>2024-05-21T07:25:49.000Z</time>
      </trkpt>
      <trkpt lat="45.4541" lon="4.77281">
        <ele>149.80000305176</ele>
        <time>2024-05-21T07:25:50.000Z</time>
      </trkpt>
      <trkpt lat="45.45413" lon="4.77277">
        <ele>149.80000305176</ele>
        <time>2024-05-21T07:25:51.000Z</time>
      </trkpt>
      <trkpt lat="45.45416" lon="4.77272">
        <ele>149.80000305176</ele>
        <time>2024-05-21T07:25:52.000Z</time>
      </trkpt>
      <trkpt lat="45.4542" lon="4.77266">
        <ele>149.80000305176</ele>
        <time>2024-05-21T07:25:53.000Z</time>
      </trkpt>
      <trkpt lat="45.45423" lon="4.77261">
        <ele>149.80000305176</ele>
        <time>2024-05-21T07:25:54.000Z</time>
      </trkpt>
      <trkpt lat="45.45427" lon="4.77256">
        <ele>149.80000305176</ele>
        <time>2024-05-21T07:25:55.000Z</time>
      </trkpt>
      <trkpt lat="45.45431" lon="4.77249">
        <ele>149.80000305176</ele>
        <time>2024-05-21T07:25:56.000Z</time>
      </trkpt>
      <trkpt lat="45.45434" lon="4.77245">
        <ele>149.80000305176</ele>
        <time>2024-05-21T07:25:57.000Z</time>
      </trkpt>
      <trkpt lat="45.45437" lon="4.7724">
        <ele>149.80000305176</ele>
        <time>2024-05-21T07:25:58.000Z</time>
      </trkpt>
      <trkpt lat="45.45441" lon="4.77234">
        <ele>149.80000305176</ele>
        <time>2024-05-21T07:25:59.000Z</time>
      </trkpt>
      <trkpt lat="45.45444" lon="4.77229">
        <ele>149.80000305176</ele>
        <time>2024-05-21T07:26:00.000Z</time>
      </trkpt>
      <trkpt lat="45.45447" lon="4.77224">
        <ele>149.80000305176</ele>
        <time>2024-05-21T07:26:01.000Z</time>
      </trkpt>
      <trkpt lat="45.45451" lon="4.77219">
        <ele>149.80000305176</ele>
        <time>2024-05-21T07:26:02.000Z</time>
      </trkpt>
      <trkpt lat="45.45454" lon="4.77214">
        <ele>149.80000305176</ele>
        <time>2024-05-21T07:26:03.000Z</time>
      </trkpt>
      <trkpt lat="45.45457" lon="4.77209">
        <ele>150</ele>
        <time>2024-05-21T07:26:04.000Z</time>
      </trkpt>
      <trkpt lat="45.45459" lon="4.77204">
        <ele>150</ele>
        <time>2024-05-21T07:26:05.000Z</time>
      </trkpt>
      <trkpt lat="45.45462" lon="4.77199">
        <ele>150</ele>
        <time>2024-05-21T07:26:06.000Z</time>
      </trkpt>
      <trkpt lat="45.45464" lon="4.77193">
        <ele>150</ele>
        <time>2024-05-21T07:26:07.000Z</time>
      </trkpt>
      <trkpt lat="45.45467" lon="4.77187">
        <ele>150</ele>
        <time>2024-05-21T07:26:08.000Z</time>
      </trkpt>
      <trkpt lat="45.45469" lon="4.77182">
        <ele>150</ele>
        <time>2024-05-21T07:26:09.000Z</time>
      </trkpt>
      <trkpt lat="45.45471" lon="4.77176">
        <ele>150.19999694824</ele>
        <time>2024-05-21T07:26:10.000Z</time>
      </trkpt>
      <trkpt lat="45.45473" lon="4.7717">
        <ele>150.19999694824</ele>
        <time>2024-05-21T07:26:11.000Z</time>
      </trkpt>
      <trkpt lat="45.45475" lon="4.77163">
        <ele>150.19999694824</ele>
        <time>2024-05-21T07:26:12.000Z</time>
      </trkpt>
      <trkpt lat="45.45477" lon="4.77157">
        <ele>150.39999389648</ele>
        <time>2024-05-21T07:26:13.000Z</time>
      </trkpt>
      <trkpt lat="45.45479" lon="4.77151">
        <ele>150.39999389648</ele>
        <time>2024-05-21T07:26:14.000Z</time>
      </trkpt>
      <trkpt lat="45.4548" lon="4.77146">
        <ele>150.39999389648</ele>
        <time>2024-05-21T07:26:15.000Z</time>
      </trkpt>
      <trkpt lat="45.45483" lon="4.7714">
        <ele>150.80000305176</ele>
        <time>2024-05-21T07:26:16.000Z</time>
      </trkpt>
      <trkpt lat="45.45485" lon="4.77135">
        <ele>151</ele>
        <time>2024-05-21T07:26:17.000Z</time>
      </trkpt>
      <trkpt lat="45.45487" lon="4.77129">
        <ele>151.19999694824</ele>
        <time>2024-05-21T07:26:18.000Z</time>
      </trkpt>
      <trkpt lat="45.4549" lon="4.77124">
        <ele>151.19999694824</ele>
        <time>2024-05-21T07:26:19.000Z</time>
      </trkpt>
      <trkpt lat="45.45492" lon="4.77119">
        <ele>151.39999389648</ele>
        <time>2024-05-21T07:26:20.000Z</time>
      </trkpt>
      <trkpt lat="45.45494" lon="4.77113">
        <ele>151.39999389648</ele>
        <time>2024-05-21T07:26:21.000Z</time>
      </trkpt>
      <trkpt lat="45.45496" lon="4.77107">
        <ele>151.80000305176</ele>
        <time>2024-05-21T07:26:22.000Z</time>
      </trkpt>
      <trkpt lat="45.45498" lon="4.77101">
        <ele>151.80000305176</ele>
        <time>2024-05-21T07:26:23.000Z</time>
      </trkpt>
      <trkpt lat="45.455" lon="4.77095">
        <ele>152.19999694824</ele>
        <time>2024-05-21T07:26:24.000Z</time>
      </trkpt>
      <trkpt lat="45.45503" lon="4.77089">
        <ele>152.39999389648</ele>
        <time>2024-05-21T07:26:25.000Z</time>
      </trkpt>
      <trkpt lat="45.45505" lon="4.77083">
        <ele>152.60000610352</ele>
        <time>2024-05-21T07:26:26.000Z</time>
      </trkpt>
      <trkpt lat="45.45507" lon="4.77077">
        <ele>152.80000305176</ele>
        <time>2024-05-21T07:26:27.000Z</time>
      </trkpt>
      <trkpt lat="45.4551" lon="4.77071">
        <ele>153</ele>
        <time>2024-05-21T07:26:28.000Z</time>
      </trkpt>
      <trkpt lat="45.45512" lon="4.77065">
        <ele>153.19999694824</ele>
        <time>2024-05-21T07:26:29.000Z</time>
      </trkpt>
      <trkpt lat="45.45514" lon="4.7706">
        <ele>153.19999694824</ele>
        <time>2024-05-21T07:26:30.000Z</time>
      </trkpt>
      <trkpt lat="45.45516" lon="4.77054">
        <ele>153.60000610352</ele>
        <time>2024-05-21T07:26:31.000Z</time>
      </trkpt>
      <trkpt lat="45.45518" lon="4.77049">
        <ele>153.80000305176</ele>
        <time>2024-05-21T07:26:32.000Z</time>
      </trkpt>
      <trkpt lat="45.4552" lon="4.77044">
        <ele>153.80000305176</ele>
        <time>2024-05-21T07:26:33.000Z</time>
      </trkpt>
      <trkpt lat="45.45522" lon="4.77039">
        <ele>154.19999694824</ele>
        <time>2024-05-21T07:26:34.000Z</time>
      </trkpt>
      <trkpt lat="45.45523" lon="4.77035">
        <ele>154.39999389648</ele>
        <time>2024-05-21T07:26:35.000Z</time>
      </trkpt>
      <trkpt lat="45.45525" lon="4.77031">
        <ele>154.60000610352</ele>
        <time>2024-05-21T07:26:36.000Z</time>
      </trkpt>
      <trkpt lat="45.45527" lon="4.77028">
        <ele>155</ele>
        <time>2024-05-21T07:26:37.000Z</time>
      </trkpt>
      <trkpt lat="45.45529" lon="4.77025">
        <ele>155.39999389648</ele>
        <time>2024-05-21T07:26:38.000Z</time>
      </trkpt>
      <trkpt lat="45.4553" lon="4.77023">
        <ele>155.60000610352</ele>
        <time>2024-05-21T07:26:39.000Z</time>
      </trkpt>
      <trkpt lat="45.45531" lon="4.7702">
        <ele>155.80000305176</ele>
        <time>2024-05-21T07:26:40.000Z</time>
      </trkpt>
      <trkpt lat="45.45532" lon="4.77016">
        <ele>155.80000305176</ele>
        <time>2024-05-21T07:26:41.000Z</time>
      </trkpt>
      <trkpt lat="45.45532" lon="4.77012">
        <ele>155.80000305176</ele>
        <time>2024-05-21T07:26:42.000Z</time>
      </trkpt>
      <trkpt lat="45.45533" lon="4.77009">
        <ele>156</ele>
        <time>2024-05-21T07:26:43.000Z</time>
      </trkpt>
      <trkpt lat="45.45534" lon="4.77007">
        <ele>156</ele>
        <time>2024-05-21T07:26:44.000Z</time>
      </trkpt>
      <trkpt lat="45.45536" lon="4.77004">
        <ele>156</ele>
        <time>2024-05-21T07:26:45.000Z</time>
      </trkpt>
      <trkpt lat="45.45537" lon="4.77002">
        <ele>156</ele>
        <time>2024-05-21T07:26:46.000Z</time>
      </trkpt>
      <trkpt lat="45.45537" lon="4.76999">
        <ele>156</ele>
        <time>2024-05-21T07:26:47.000Z</time>
      </trkpt>
      <trkpt lat="45.45536" lon="4.76998">
        <ele>156</ele>
        <time>2024-05-21T07:26:48.000Z</time>
      </trkpt>
      <trkpt lat="45.45534" lon="4.76999">
        <ele>156</ele>
        <time>2024-05-21T07:26:49.000Z</time>
      </trkpt>
      <trkpt lat="45.45533" lon="4.77">
        <ele>156</ele>
        <time>2024-05-21T07:26:50.000Z</time>
      </trkpt>
      <trkpt lat="45.45532" lon="4.77002">
        <ele>156</ele>
        <time>2024-05-21T07:26:51.000Z</time>
      </trkpt>
      <trkpt lat="45.45531" lon="4.77004">
        <ele>156</ele>
        <time>2024-05-21T07:26:52.000Z</time>
      </trkpt>
      <trkpt lat="45.4553" lon="4.77006">
        <ele>156</ele>
        <time>2024-05-21T07:26:53.000Z</time>
      </trkpt>
      <trkpt lat="45.45529" lon="4.77008">
        <ele>156</ele>
        <time>2024-05-21T07:26:54.000Z</time>
      </trkpt>
      <trkpt lat="45.45528" lon="4.7701">
        <ele>156</ele>
        <time>2024-05-21T07:26:55.000Z</time>
      </trkpt>
      <trkpt lat="45.45528" lon="4.77013">
        <ele>156</ele>
        <time>2024-05-21T07:26:56.000Z</time>
      </trkpt>
      <trkpt lat="45.45527" lon="4.77016">
        <ele>156</ele>
        <time>2024-05-21T07:26:57.000Z</time>
      </trkpt>
      <trkpt lat="45.45526" lon="4.77018">
        <ele>156</ele>
        <time>2024-05-21T07:26:58.000Z</time>
      </trkpt>
      <trkpt lat="45.45526" lon="4.77021">
        <ele>155.80000305176</ele>
        <time>2024-05-21T07:26:59.000Z</time>
      </trkpt>
      <trkpt lat="45.45527" lon="4.77024">
        <ele>155.80000305176</ele>
        <time>2024-05-21T07:27:00.000Z</time>
      </trkpt>
      <trkpt lat="45.45529" lon="4.77025">
        <ele>155.80000305176</ele>
        <time>2024-05-21T07:27:01.000Z</time>
      </trkpt>
      <trkpt lat="45.45531" lon="4.77026">
        <ele>155.80000305176</ele>
        <time>2024-05-21T07:27:02.000Z</time>
      </trkpt>
      <trkpt lat="45.45534" lon="4.77026">
        <ele>155.60000610352</ele>
        <time>2024-05-21T07:27:03.000Z</time>
      </trkpt>
      <trkpt lat="45.45537" lon="4.77027">
        <ele>155.60000610352</ele>
        <time>2024-05-21T07:27:04.000Z</time>
      </trkpt>
      <trkpt lat="45.4554" lon="4.77028">
        <ele>155.60000610352</ele>
        <time>2024-05-21T07:27:05.000Z</time>
      </trkpt>
      <trkpt lat="45.45543" lon="4.77028">
        <ele>155.39999389648</ele>
        <time>2024-05-21T07:27:06.000Z</time>
      </trkpt>
      <trkpt lat="45.45546" lon="4.77029">
        <ele>155.19999694824</ele>
        <time>2024-05-21T07:27:07.000Z</time>
      </trkpt>
      <trkpt lat="45.4555" lon="4.77029">
        <ele>154.80000305176</ele>
        <time>2024-05-21T07:27:08.000Z</time>
      </trkpt>
      <trkpt lat="45.45554" lon="4.77027">
        <ele>154.60000610352</ele>
        <time>2024-05-21T07:27:09.000Z</time>
      </trkpt>
      <trkpt lat="45.45559" lon="4.77026">
        <ele>154.39999389648</ele>
        <time>2024-05-21T07:27:10.000Z</time>
      </trkpt>
      <trkpt lat="45.45563" lon="4.77023">
        <ele>154.19999694824</ele>
        <time>2024-05-21T07:27:11.000Z</time>
      </trkpt>
      <trkpt lat="45.45566" lon="4.77019">
        <ele>154</ele>
        <time>2024-05-21T07:27:12.000Z</time>
      </trkpt>
      <trkpt lat="45.4557" lon="4.77015">
        <ele>153.60000610352</ele>
        <time>2024-05-21T07:27:13.000Z</time>
      </trkpt>
      <trkpt lat="45.45572" lon="4.7701">
        <ele>153.60000610352</ele>
        <time>2024-05-21T07:27:14.000Z</time>
      </trkpt>
      <trkpt lat="45.45574" lon="4.77005">
        <ele>153.19999694824</ele>
        <time>2024-05-21T07:27:15.000Z</time>
      </trkpt>
      <trkpt lat="45.45576" lon="4.76999">
        <ele>153</ele>
        <time>2024-05-21T07:27:16.000Z</time>
      </trkpt>
      <trkpt lat="45.45578" lon="4.76993">
        <ele>152.80000305176</ele>
        <time>2024-05-21T07:27:17.000Z</time>
      </trkpt>
      <trkpt lat="45.45579" lon="4.76986">
        <ele>152.60000610352</ele>
        <time>2024-05-21T07:27:18.000Z</time>
      </trkpt>
      <trkpt lat="45.4558" lon="4.7698">
        <ele>152.39999389648</ele>
        <time>2024-05-21T07:27:19.000Z</time>
      </trkpt>
      <trkpt lat="45.45581" lon="4.76973">
        <ele>152</ele>
        <time>2024-05-21T07:27:20.000Z</time>
      </trkpt>
      <trkpt lat="45.45583" lon="4.76967">
        <ele>151.80000305176</ele>
        <time>2024-05-21T07:27:21.000Z</time>
      </trkpt>
      <trkpt lat="45.45584" lon="4.76963">
        <ele>151.39999389648</ele>
        <time>2024-05-21T07:27:22.000Z</time>
      </trkpt>
      <trkpt lat="45.45585" lon="4.76958">
        <ele>151.19999694824</ele>
        <time>2024-05-21T07:27:23.000Z</time>
      </trkpt>
      <trkpt lat="45.45585" lon="4.76954">
        <ele>151.19999694824</ele>
        <time>2024-05-21T07:27:24.000Z</time>
      </trkpt>
      <trkpt lat="45.45586" lon="4.7695">
        <ele>151</ele>
        <time>2024-05-21T07:27:25.000Z</time>
      </trkpt>
      <trkpt lat="45.45587" lon="4.76947">
        <ele>151</ele>
        <time>2024-05-21T07:27:26.000Z</time>
      </trkpt>
      <trkpt lat="45.45587" lon="4.76944">
        <ele>151</ele>
        <time>2024-05-21T07:27:27.000Z</time>
      </trkpt>
      <trkpt lat="45.45588" lon="4.76941">
        <ele>151</ele>
        <time>2024-05-21T07:27:28.000Z</time>
      </trkpt>
      <trkpt lat="45.45588" lon="4.76938">
        <ele>151.19999694824</ele>
        <time>2024-05-21T07:27:29.000Z</time>
      </trkpt>
      <trkpt lat="45.45588" lon="4.76935">
        <ele>151.19999694824</ele>
        <time>2024-05-21T07:27:30.000Z</time>
      </trkpt>
      <trkpt lat="45.45589" lon="4.76931">
        <ele>151.19999694824</ele>
        <time>2024-05-21T07:27:31.000Z</time>
      </trkpt>
      <trkpt lat="45.4559" lon="4.76926">
        <ele>151.39999389648</ele>
        <time>2024-05-21T07:27:32.000Z</time>
      </trkpt>
      <trkpt lat="45.45591" lon="4.76921">
        <ele>151.39999389648</ele>
        <time>2024-05-21T07:27:33.000Z</time>
      </trkpt>
      <trkpt lat="45.45592" lon="4.76916">
        <ele>151.39999389648</ele>
        <time>2024-05-21T07:27:34.000Z</time>
      </trkpt>
      <trkpt lat="45.45593" lon="4.76912">
        <ele>151.39999389648</ele>
        <time>2024-05-21T07:27:35.000Z</time>
      </trkpt>
      <trkpt lat="45.45593" lon="4.76908">
        <ele>151.39999389648</ele>
        <time>2024-05-21T07:27:36.000Z</time>
      </trkpt>
      <trkpt lat="45.45594" lon="4.76905">
        <ele>151.39999389648</ele>
        <time>2024-05-21T07:27:37.000Z</time>
      </trkpt>
      <trkpt lat="45.45595" lon="4.76901">
        <ele>151.60000610352</ele>
        <time>2024-05-21T07:27:38.000Z</time>
      </trkpt>
      <trkpt lat="45.45596" lon="4.76898">
        <ele>151.60000610352</ele>
        <time>2024-05-21T07:27:39.000Z</time>
      </trkpt>
      <trkpt lat="45.45597" lon="4.76895">
        <ele>151.80000305176</ele>
        <time>2024-05-21T07:27:40.000Z</time>
      </trkpt>
      <trkpt lat="45.45597" lon="4.76892">
        <ele>152</ele>
        <time>2024-05-21T07:27:41.000Z</time>
      </trkpt>
      <trkpt lat="45.45597" lon="4.76888">
        <ele>152.19999694824</ele>
        <time>2024-05-21T07:27:42.000Z</time>
      </trkpt>
      <trkpt lat="45.45598" lon="4.76884">
        <ele>152.19999694824</ele>
        <time>2024-05-21T07:27:43.000Z</time>
      </trkpt>
      <trkpt lat="45.45599" lon="4.76882">
        <ele>152.39999389648</ele>
        <time>2024-05-21T07:27:44.000Z</time>
      </trkpt>
      <trkpt lat="45.45601" lon="4.7688">
        <ele>152.39999389648</ele>
        <time>2024-05-21T07:27:45.000Z</time>
      </trkpt>
      <trkpt lat="45.45602" lon="4.76879">
        <ele>152.39999389648</ele>
        <time>2024-05-21T07:27:46.000Z</time>
      </trkpt>
      <trkpt lat="45.45604" lon="4.76876">
        <ele>152.39999389648</ele>
        <time>2024-05-21T07:27:47.000Z</time>
      </trkpt>
      <trkpt lat="45.45605" lon="4.76874">
        <ele>152.60000610352</ele>
        <time>2024-05-21T07:27:48.000Z</time>
      </trkpt>
      <trkpt lat="45.45606" lon="4.76872">
        <ele>152.60000610352</ele>
        <time>2024-05-21T07:27:49.000Z</time>
      </trkpt>
      <trkpt lat="45.45607" lon="4.7687">
        <ele>152.80000305176</ele>
        <time>2024-05-21T07:27:50.000Z</time>
      </trkpt>
      <trkpt lat="45.45608" lon="4.76869">
        <ele>153</ele>
        <time>2024-05-21T07:27:51.000Z</time>
      </trkpt>
      <trkpt lat="45.4561" lon="4.76867">
        <ele>153.19999694824</ele>
        <time>2024-05-21T07:27:52.000Z</time>
      </trkpt>
      <trkpt lat="45.45612" lon="4.76867">
        <ele>153.39999389648</ele>
        <time>2024-05-21T07:27:53.000Z</time>
      </trkpt>
      <trkpt lat="45.45614" lon="4.76866">
        <ele>153.39999389648</ele>
        <time>2024-05-21T07:27:54.000Z</time>
      </trkpt>
      <trkpt lat="45.45617" lon="4.76866">
        <ele>153.60000610352</ele>
        <time>2024-05-21T07:27:55.000Z</time>
      </trkpt>
      <trkpt lat="45.45619" lon="4.76866">
        <ele>153.60000610352</ele>
        <time>2024-05-21T07:27:56.000Z</time>
      </trkpt>
      <trkpt lat="45.45622" lon="4.76866">
        <ele>153.60000610352</ele>
        <time>2024-05-21T07:27:57.000Z</time>
      </trkpt>
      <trkpt lat="45.45625" lon="4.76866">
        <ele>153.60000610352</ele>
        <time>2024-05-21T07:27:58.000Z</time>
      </trkpt>
      <trkpt lat="45.4563" lon="4.76865">
        <ele>153.60000610352</ele>
        <time>2024-05-21T07:27:59.000Z</time>
      </trkpt>
      <trkpt lat="45.45633" lon="4.76866">
        <ele>153.60000610352</ele>
        <time>2024-05-21T07:28:00.000Z</time>
      </trkpt>
      <trkpt lat="45.45637" lon="4.76866">
        <ele>153.60000610352</ele>
        <time>2024-05-21T07:28:01.000Z</time>
      </trkpt>
      <trkpt lat="45.45641" lon="4.76867">
        <ele>153.60000610352</ele>
        <time>2024-05-21T07:28:02.000Z</time>
      </trkpt>
      <trkpt lat="45.45645" lon="4.76867">
        <ele>153.80000305176</ele>
        <time>2024-05-21T07:28:03.000Z</time>
      </trkpt>
      <trkpt lat="45.45649" lon="4.76867">
        <ele>154</ele>
        <time>2024-05-21T07:28:04.000Z</time>
      </trkpt>
      <trkpt lat="45.45653" lon="4.76867">
        <ele>154</ele>
        <time>2024-05-21T07:28:05.000Z</time>
      </trkpt>
      <trkpt lat="45.45657" lon="4.76867">
        <ele>154</ele>
        <time>2024-05-21T07:28:06.000Z</time>
      </trkpt>
      <trkpt lat="45.45661" lon="4.76867">
        <ele>154.19999694824</ele>
        <time>2024-05-21T07:28:07.000Z</time>
      </trkpt>
      <trkpt lat="45.45665" lon="4.76868">
        <ele>154.39999389648</ele>
        <time>2024-05-21T07:28:08.000Z</time>
      </trkpt>
      <trkpt lat="45.45669" lon="4.76868">
        <ele>154.60000610352</ele>
        <time>2024-05-21T07:28:09.000Z</time>
      </trkpt>
      <trkpt lat="45.45673" lon="4.76869">
        <ele>154.60000610352</ele>
        <time>2024-05-21T07:28:10.000Z</time>
      </trkpt>
      <trkpt lat="45.45677" lon="4.76869">
        <ele>154.80000305176</ele>
        <time>2024-05-21T07:28:11.000Z</time>
      </trkpt>
      <trkpt lat="45.45681" lon="4.76869">
        <ele>154.80000305176</ele>
        <time>2024-05-21T07:28:12.000Z</time>
      </trkpt>
      <trkpt lat="45.45684" lon="4.76869">
        <ele>155</ele>
        <time>2024-05-21T07:28:13.000Z</time>
      </trkpt>
      <trkpt lat="45.45688" lon="4.7687">
        <ele>155.19999694824</ele>
        <time>2024-05-21T07:28:14.000Z</time>
      </trkpt>
      <trkpt lat="45.45692" lon="4.7687">
        <ele>155.19999694824</ele>
        <time>2024-05-21T07:28:15.000Z</time>
      </trkpt>
      <trkpt lat="45.45696" lon="4.7687">
        <ele>155.19999694824</ele>
        <time>2024-05-21T07:28:16.000Z</time>
      </trkpt>
      <trkpt lat="45.457" lon="4.76871">
        <ele>155.39999389648</ele>
        <time>2024-05-21T07:28:17.000Z</time>
      </trkpt>
      <trkpt lat="45.45704" lon="4.76871">
        <ele>155.39999389648</ele>
        <time>2024-05-21T07:28:18.000Z</time>
      </trkpt>
      <trkpt lat="45.45708" lon="4.76871">
        <ele>155.60000610352</ele>
        <time>2024-05-21T07:28:19.000Z</time>
      </trkpt>
      <trkpt lat="45.45713" lon="4.76871">
        <ele>155.60000610352</ele>
        <time>2024-05-21T07:28:20.000Z</time>
      </trkpt>
      <trkpt lat="45.45717" lon="4.76872">
        <ele>155.60000610352</ele>
        <time>2024-05-21T07:28:21.000Z</time>
      </trkpt>
      <trkpt lat="45.45721" lon="4.76872">
        <ele>155.60000610352</ele>
        <time>2024-05-21T07:28:22.000Z</time>
      </trkpt>
      <trkpt lat="45.45726" lon="4.76872">
        <ele>155.60000610352</ele>
        <time>2024-05-21T07:28:23.000Z</time>
      </trkpt>
      <trkpt lat="45.4573" lon="4.76873">
        <ele>155.60000610352</ele>
        <time>2024-05-21T07:28:24.000Z</time>
      </trkpt>
      <trkpt lat="45.45735" lon="4.76873">
        <ele>155.60000610352</ele>
        <time>2024-05-21T07:28:25.000Z</time>
      </trkpt>
      <trkpt lat="45.4574" lon="4.76874">
        <ele>155.39999389648</ele>
        <time>2024-05-21T07:28:26.000Z</time>
      </trkpt>
      <trkpt lat="45.45744" lon="4.76874">
        <ele>155.39999389648</ele>
        <time>2024-05-21T07:28:27.000Z</time>
      </trkpt>
      <trkpt lat="45.45748" lon="4.76874">
        <ele>155.19999694824</ele>
        <time>2024-05-21T07:28:28.000Z</time>
      </trkpt>
      <trkpt lat="45.45752" lon="4.76875">
        <ele>155.19999694824</ele>
        <time>2024-05-21T07:28:29.000Z</time>
      </trkpt>
      <trkpt lat="45.45755" lon="4.76875">
        <ele>155.19999694824</ele>
        <time>2024-05-21T07:28:30.000Z</time>
      </trkpt>
      <trkpt lat="45.45759" lon="4.76875">
        <ele>155</ele>
        <time>2024-05-21T07:28:31.000Z</time>
      </trkpt>
      <trkpt lat="45.45763" lon="4.76876">
        <ele>155</ele>
        <time>2024-05-21T07:28:32.000Z</time>
      </trkpt>
      <trkpt lat="45.45767" lon="4.76876">
        <ele>154.80000305176</ele>
        <time>2024-05-21T07:28:33.000Z</time>
      </trkpt>
      <trkpt lat="45.45772" lon="4.76876">
        <ele>154.60000610352</ele>
        <time>2024-05-21T07:28:34.000Z</time>
      </trkpt>
      <trkpt lat="45.45776" lon="4.76876">
        <ele>154.60000610352</ele>
        <time>2024-05-21T07:28:35.000Z</time>
      </trkpt>
      <trkpt lat="45.45781" lon="4.76877">
        <ele>154.39999389648</ele>
        <time>2024-05-21T07:28:36.000Z</time>
      </trkpt>
      <trkpt lat="45.45786" lon="4.76877">
        <ele>154.19999694824</ele>
        <time>2024-05-21T07:28:37.000Z</time>
      </trkpt>
      <trkpt lat="45.4579" lon="4.76878">
        <ele>153.80000305176</ele>
        <time>2024-05-21T07:28:38.000Z</time>
      </trkpt>
      <trkpt lat="45.45795" lon="4.76878">
        <ele>153.80000305176</ele>
        <time>2024-05-21T07:28:39.000Z</time>
      </trkpt>
      <trkpt lat="45.45799" lon="4.76878">
        <ele>153.60000610352</ele>
        <time>2024-05-21T07:28:40.000Z</time>
      </trkpt>
      <trkpt lat="45.45803" lon="4.76878">
        <ele>153.39999389648</ele>
        <time>2024-05-21T07:28:41.000Z</time>
      </trkpt>
      <trkpt lat="45.45806" lon="4.76879">
        <ele>153.19999694824</ele>
        <time>2024-05-21T07:28:42.000Z</time>
      </trkpt>
      <trkpt lat="45.45809" lon="4.76879">
        <ele>153</ele>
        <time>2024-05-21T07:28:43.000Z</time>
      </trkpt>
      <trkpt lat="45.45813" lon="4.76879">
        <ele>153</ele>
        <time>2024-05-21T07:28:44.000Z</time>
      </trkpt>
      <trkpt lat="45.45816" lon="4.7688">
        <ele>153</ele>
        <time>2024-05-21T07:28:45.000Z</time>
      </trkpt>
      <trkpt lat="45.45819" lon="4.7688">
        <ele>153</ele>
        <time>2024-05-21T07:28:46.000Z</time>
      </trkpt>
      <trkpt lat="45.45822" lon="4.7688">
        <ele>153</ele>
        <time>2024-05-21T07:28:47.000Z</time>
      </trkpt>
      <trkpt lat="45.45825" lon="4.7688">
        <ele>152.80000305176</ele>
        <time>2024-05-21T07:28:48.000Z</time>
      </trkpt>
      <trkpt lat="45.45829" lon="4.76879">
        <ele>152.60000610352</ele>
        <time>2024-05-21T07:28:49.000Z</time>
      </trkpt>
      <trkpt lat="45.45833" lon="4.76878">
        <ele>152.39999389648</ele>
        <time>2024-05-21T07:28:50.000Z</time>
      </trkpt>
      <trkpt lat="45.45837" lon="4.76877">
        <ele>152</ele>
        <time>2024-05-21T07:28:51.000Z</time>
      </trkpt>
      <trkpt lat="45.45841" lon="4.76876">
        <ele>151.80000305176</ele>
        <time>2024-05-21T07:28:52.000Z</time>
      </trkpt>
      <trkpt lat="45.45845" lon="4.76874">
        <ele>151.80000305176</ele>
        <time>2024-05-21T07:28:53.000Z</time>
      </trkpt>
      <trkpt lat="45.45848" lon="4.76873">
        <ele>151.60000610352</ele>
        <time>2024-05-21T07:28:54.000Z</time>
      </trkpt>
      <trkpt lat="45.45851" lon="4.76871">
        <ele>151.39999389648</ele>
        <time>2024-05-21T07:28:55.000Z</time>
      </trkpt>
      <trkpt lat="45.45853" lon="4.76869">
        <ele>151.39999389648</ele>
        <time>2024-05-21T07:28:56.000Z</time>
      </trkpt>
      <trkpt lat="45.45855" lon="4.76866">
        <ele>151.19999694824</ele>
        <time>2024-05-21T07:28:57.000Z</time>
      </trkpt>
      <trkpt lat="45.45856" lon="4.76862">
        <ele>151</ele>
        <time>2024-05-21T07:28:58.000Z</time>
      </trkpt>
      <trkpt lat="45.45856" lon="4.76859">
        <ele>150.80000305176</ele>
        <time>2024-05-21T07:28:59.000Z</time>
      </trkpt>
      <trkpt lat="45.45856" lon="4.76856">
        <ele>150.80000305176</ele>
        <time>2024-05-21T07:29:00.000Z</time>
      </trkpt>
      <trkpt lat="45.45855" lon="4.76853">
        <ele>150.60000610352</ele>
        <time>2024-05-21T07:29:01.000Z</time>
      </trkpt>
      <trkpt lat="45.45854" lon="4.7685">
        <ele>150.60000610352</ele>
        <time>2024-05-21T07:29:02.000Z</time>
      </trkpt>
      <trkpt lat="45.45854" lon="4.76846">
        <ele>150.60000610352</ele>
        <time>2024-05-21T07:29:03.000Z</time>
      </trkpt>
      <trkpt lat="45.45853" lon="4.76841">
        <ele>150.39999389648</ele>
        <time>2024-05-21T07:29:04.000Z</time>
      </trkpt>
      <trkpt lat="45.45852" lon="4.76835">
        <ele>150.39999389648</ele>
        <time>2024-05-21T07:29:05.000Z</time>
      </trkpt>
      <trkpt lat="45.4585" lon="4.76829">
        <ele>150.19999694824</ele>
        <time>2024-05-21T07:29:06.000Z</time>
      </trkpt>
      <trkpt lat="45.45849" lon="4.76823">
        <ele>149.60000610352</ele>
        <time>2024-05-21T07:29:07.000Z</time>
      </trkpt>
      <trkpt lat="45.45847" lon="4.76816">
        <ele>149.39999389648</ele>
        <time>2024-05-21T07:29:08.000Z</time>
      </trkpt>
      <trkpt lat="45.45846" lon="4.76809">
        <ele>149</ele>
        <time>2024-05-21T07:29:09.000Z</time>
      </trkpt>
      <trkpt lat="45.45846" lon="4.76803">
        <ele>148.80000305176</ele>
        <time>2024-05-21T07:29:10.000Z</time>
      </trkpt>
      <trkpt lat="45.45844" lon="4.76797">
        <ele>148.60000610352</ele>
        <time>2024-05-21T07:29:11.000Z</time>
      </trkpt>
      <trkpt lat="45.45843" lon="4.7679">
        <ele>148.60000610352</ele>
        <time>2024-05-21T07:29:12.000Z</time>
      </trkpt>
      <trkpt lat="45.45842" lon="4.76784">
        <ele>148.39999389648</ele>
        <time>2024-05-21T07:29:13.000Z</time>
      </trkpt>
      <trkpt lat="45.45842" lon="4.76777">
        <ele>148.39999389648</ele>
        <time>2024-05-21T07:29:14.000Z</time>
      </trkpt>
      <trkpt lat="45.45841" lon="4.7677">
        <ele>148.39999389648</ele>
        <time>2024-05-21T07:29:15.000Z</time>
      </trkpt>
      <trkpt lat="45.4584" lon="4.76764">
        <ele>148.39999389648</ele>
        <time>2024-05-21T07:29:16.000Z</time>
      </trkpt>
      <trkpt lat="45.45839" lon="4.76758">
        <ele>148.19999694824</ele>
        <time>2024-05-21T07:29:17.000Z</time>
      </trkpt>
      <trkpt lat="45.45838" lon="4.76752">
        <ele>148.19999694824</ele>
        <time>2024-05-21T07:29:18.000Z</time>
      </trkpt>
      <trkpt lat="45.45837" lon="4.76747">
        <ele>148</ele>
        <time>2024-05-21T07:29:19.000Z</time>
      </trkpt>
      <trkpt lat="45.45835" lon="4.76742">
        <ele>148</ele>
        <time>2024-05-21T07:29:20.000Z</time>
      </trkpt>
      <trkpt lat="45.45834" lon="4.76737">
        <ele>148</ele>
        <time>2024-05-21T07:29:21.000Z</time>
      </trkpt>
      <trkpt lat="45.45831" lon="4.76732">
        <ele>148</ele>
        <time>2024-05-21T07:29:22.000Z</time>
      </trkpt>
      <trkpt lat="45.45828" lon="4.76729">
        <ele>148</ele>
        <time>2024-05-21T07:29:23.000Z</time>
      </trkpt>
      <trkpt lat="45.45825" lon="4.76727">
        <ele>148</ele>
        <time>2024-05-21T07:29:24.000Z</time>
      </trkpt>
      <trkpt lat="45.45821" lon="4.76726">
        <ele>148</ele>
        <time>2024-05-21T07:29:25.000Z</time>
      </trkpt>
      <trkpt lat="45.45817" lon="4.76724">
        <ele>148</ele>
        <time>2024-05-21T07:29:26.000Z</time>
      </trkpt>
      <trkpt lat="45.45814" lon="4.76724">
        <ele>148</ele>
        <time>2024-05-21T07:29:27.000Z</time>
      </trkpt>
      <trkpt lat="45.45811" lon="4.76724">
        <ele>148</ele>
        <time>2024-05-21T07:29:28.000Z</time>
      </trkpt>
      <trkpt lat="45.45808" lon="4.76724">
        <ele>148</ele>
        <time>2024-05-21T07:29:29.000Z</time>
      </trkpt>
      <trkpt lat="45.45806" lon="4.76725">
        <ele>148</ele>
        <time>2024-05-21T07:29:30.000Z</time>
      </trkpt>
      <trkpt lat="45.45805" lon="4.76726">
        <ele>147.80000305176</ele>
        <time>2024-05-21T07:29:31.000Z</time>
      </trkpt>
      <trkpt lat="45.45804" lon="4.76726">
        <ele>147.80000305176</ele>
        <time>2024-05-21T07:29:32.000Z</time>
      </trkpt>
      <trkpt lat="45.45804" lon="4.76726">
        <ele>147.80000305176</ele>
        <time>2024-05-21T07:29:33.000Z</time>
      </trkpt>
      <trkpt lat="45.45803" lon="4.76725">
        <ele>147.80000305176</ele>
        <time>2024-05-21T07:29:34.000Z</time>
      </trkpt>
      <trkpt lat="45.45801" lon="4.76719">
        <ele>147.80000305176</ele>
        <time>2024-05-21T07:29:37.000Z</time>
      </trkpt>
      <trkpt lat="45.458" lon="4.76717">
        <ele>147.80000305176</ele>
        <time>2024-05-21T07:29:38.000Z</time>
      </trkpt>
      <trkpt lat="45.45799" lon="4.76716">
        <ele>147.80000305176</ele>
        <time>2024-05-21T07:29:39.000Z</time>
      </trkpt>
      <trkpt lat="45.45799" lon="4.76713">
        <ele>147.80000305176</ele>
        <time>2024-05-21T07:29:40.000Z</time>
      </trkpt>
      <trkpt lat="45.45799" lon="4.76711">
        <ele>147.80000305176</ele>
        <time>2024-05-21T07:29:41.000Z</time>
      </trkpt>
      <trkpt lat="45.458" lon="4.76709">
        <ele>147.80000305176</ele>
        <time>2024-05-21T07:29:42.000Z</time>
      </trkpt>
      <trkpt lat="45.458" lon="4.76707">
        <ele>147.80000305176</ele>
        <time>2024-05-21T07:29:43.000Z</time>
      </trkpt>
      <trkpt lat="45.458" lon="4.76704">
        <ele>147.80000305176</ele>
        <time>2024-05-21T07:29:44.000Z</time>
      </trkpt>
      <trkpt lat="45.45801" lon="4.767">
        <ele>147.80000305176</ele>
        <time>2024-05-21T07:29:45.000Z</time>
      </trkpt>
      <trkpt lat="45.45801" lon="4.76697">
        <ele>147.80000305176</ele>
        <time>2024-05-21T07:29:46.000Z</time>
      </trkpt>
      <trkpt lat="45.45802" lon="4.76692">
        <ele>147.80000305176</ele>
        <time>2024-05-21T07:29:47.000Z</time>
      </trkpt>
      <trkpt lat="45.45802" lon="4.76688">
        <ele>147.80000305176</ele>
        <time>2024-05-21T07:29:48.000Z</time>
      </trkpt>
      <trkpt lat="45.45803" lon="4.76683">
        <ele>147.80000305176</ele>
        <time>2024-05-21T07:29:49.000Z</time>
      </trkpt>
      <trkpt lat="45.45804" lon="4.76678">
        <ele>147.80000305176</ele>
        <time>2024-05-21T07:29:50.000Z</time>
      </trkpt>
      <trkpt lat="45.45805" lon="4.76673">
        <ele>147.80000305176</ele>
        <time>2024-05-21T07:29:51.000Z</time>
      </trkpt>
      <trkpt lat="45.45806" lon="4.76668">
        <ele>147.80000305176</ele>
        <time>2024-05-21T07:29:52.000Z</time>
      </trkpt>
      <trkpt lat="45.45807" lon="4.76662">
        <ele>147.80000305176</ele>
        <time>2024-05-21T07:29:53.000Z</time>
      </trkpt>
      <trkpt lat="45.45808" lon="4.76656">
        <ele>147.60000610352</ele>
        <time>2024-05-21T07:29:54.000Z</time>
      </trkpt>
      <trkpt lat="45.45809" lon="4.7665">
        <ele>147.60000610352</ele>
        <time>2024-05-21T07:29:55.000Z</time>
      </trkpt>
      <trkpt lat="45.4581" lon="4.76644">
        <ele>147.60000610352</ele>
        <time>2024-05-21T07:29:56.000Z</time>
      </trkpt>
      <trkpt lat="45.45811" lon="4.76637">
        <ele>147.39999389648</ele>
        <time>2024-05-21T07:29:57.000Z</time>
      </trkpt>
      <trkpt lat="45.45812" lon="4.76631">
        <ele>147.39999389648</ele>
        <time>2024-05-21T07:29:58.000Z</time>
      </trkpt>
      <trkpt lat="45.45813" lon="4.76625">
        <ele>147.39999389648</ele>
        <time>2024-05-21T07:29:59.000Z</time>
      </trkpt>
      <trkpt lat="45.45814" lon="4.76618">
        <ele>147.39999389648</ele>
        <time>2024-05-21T07:30:00.000Z</time>
      </trkpt>
      <trkpt lat="45.45815" lon="4.76611">
        <ele>147.39999389648</ele>
        <time>2024-05-21T07:30:01.000Z</time>
      </trkpt>
      <trkpt lat="45.45816" lon="4.76605">
        <ele>147.39999389648</ele>
        <time>2024-05-21T07:30:02.000Z</time>
      </trkpt>
      <trkpt lat="45.45817" lon="4.76598">
        <ele>147.39999389648</ele>
        <time>2024-05-21T07:30:03.000Z</time>
      </trkpt>
      <trkpt lat="45.45819" lon="4.76592">
        <ele>147.39999389648</ele>
        <time>2024-05-21T07:30:04.000Z</time>
      </trkpt>
      <trkpt lat="45.4582" lon="4.76585">
        <ele>147.39999389648</ele>
        <time>2024-05-21T07:30:05.000Z</time>
      </trkpt>
      <trkpt lat="45.45822" lon="4.76579">
        <ele>147.39999389648</ele>
        <time>2024-05-21T07:30:06.000Z</time>
      </trkpt>
      <trkpt lat="45.45823" lon="4.76573">
        <ele>147.39999389648</ele>
        <time>2024-05-21T07:30:07.000Z</time>
      </trkpt>
      <trkpt lat="45.45824" lon="4.76567">
        <ele>147.39999389648</ele>
        <time>2024-05-21T07:30:08.000Z</time>
      </trkpt>
      <trkpt lat="45.45825" lon="4.7656">
        <ele>147.39999389648</ele>
        <time>2024-05-21T07:30:09.000Z</time>
      </trkpt>
      <trkpt lat="45.45826" lon="4.76553">
        <ele>147.39999389648</ele>
        <time>2024-05-21T07:30:10.000Z</time>
      </trkpt>
      <trkpt lat="45.45828" lon="4.76547">
        <ele>147.39999389648</ele>
        <time>2024-05-21T07:30:11.000Z</time>
      </trkpt>
      <trkpt lat="45.45829" lon="4.7654">
        <ele>147.39999389648</ele>
        <time>2024-05-21T07:30:12.000Z</time>
      </trkpt>
      <trkpt lat="45.4583" lon="4.76533">
        <ele>147.39999389648</ele>
        <time>2024-05-21T07:30:13.000Z</time>
      </trkpt>
      <trkpt lat="45.45831" lon="4.76526">
        <ele>147.39999389648</ele>
        <time>2024-05-21T07:30:14.000Z</time>
      </trkpt>
      <trkpt lat="45.45831" lon="4.7652">
        <ele>147.39999389648</ele>
        <time>2024-05-21T07:30:15.000Z</time>
      </trkpt>
      <trkpt lat="45.45831" lon="4.76513">
        <ele>147.39999389648</ele>
        <time>2024-05-21T07:30:16.000Z</time>
      </trkpt>
      <trkpt lat="45.45831" lon="4.76505">
        <ele>147.39999389648</ele>
        <time>2024-05-21T07:30:17.000Z</time>
      </trkpt>
      <trkpt lat="45.4583" lon="4.765">
        <ele>147.39999389648</ele>
        <time>2024-05-21T07:30:18.000Z</time>
      </trkpt>
      <trkpt lat="45.4583" lon="4.76493">
        <ele>147.60000610352</ele>
        <time>2024-05-21T07:30:19.000Z</time>
      </trkpt>
      <trkpt lat="45.45829" lon="4.76487">
        <ele>147.80000305176</ele>
        <time>2024-05-21T07:30:20.000Z</time>
      </trkpt>
      <trkpt lat="45.45828" lon="4.76481">
        <ele>147.80000305176</ele>
        <time>2024-05-21T07:30:21.000Z</time>
      </trkpt>
      <trkpt lat="45.45827" lon="4.76475">
        <ele>148</ele>
        <time>2024-05-21T07:30:22.000Z</time>
      </trkpt>
      <trkpt lat="45.45827" lon="4.76468">
        <ele>148</ele>
        <time>2024-05-21T07:30:23.000Z</time>
      </trkpt>
      <trkpt lat="45.45826" lon="4.76461">
        <ele>148</ele>
        <time>2024-05-21T07:30:24.000Z</time>
      </trkpt>
      <trkpt lat="45.45825" lon="4.76454">
        <ele>148</ele>
        <time>2024-05-21T07:30:25.000Z</time>
      </trkpt>
      <trkpt lat="45.45824" lon="4.76446">
        <ele>147.80000305176</ele>
        <time>2024-05-21T07:30:26.000Z</time>
      </trkpt>
      <trkpt lat="45.45824" lon="4.76438">
        <ele>147.60000610352</ele>
        <time>2024-05-21T07:30:27.000Z</time>
      </trkpt>
      <trkpt lat="45.45823" lon="4.76431">
        <ele>147.60000610352</ele>
        <time>2024-05-21T07:30:28.000Z</time>
      </trkpt>
      <trkpt lat="45.45822" lon="4.76423">
        <ele>147.39999389648</ele>
        <time>2024-05-21T07:30:29.000Z</time>
      </trkpt>
      <trkpt lat="45.45821" lon="4.76416">
        <ele>147.39999389648</ele>
        <time>2024-05-21T07:30:30.000Z</time>
      </trkpt>
      <trkpt lat="45.45821" lon="4.76408">
        <ele>147.19999694824</ele>
        <time>2024-05-21T07:30:31.000Z</time>
      </trkpt>
      <trkpt lat="45.4582" lon="4.76401">
        <ele>147.19999694824</ele>
        <time>2024-05-21T07:30:32.000Z</time>
      </trkpt>
      <trkpt lat="45.4582" lon="4.76393">
        <ele>147.19999694824</ele>
        <time>2024-05-21T07:30:33.000Z</time>
      </trkpt>
      <trkpt lat="45.45819" lon="4.76386">
        <ele>147.19999694824</ele>
        <time>2024-05-21T07:30:34.000Z</time>
      </trkpt>
      <trkpt lat="45.45819" lon="4.76378">
        <ele>147.19999694824</ele>
        <time>2024-05-21T07:30:35.000Z</time>
      </trkpt>
      <trkpt lat="45.45818" lon="4.76369">
        <ele>147.19999694824</ele>
        <time>2024-05-21T07:30:36.000Z</time>
      </trkpt>
      <trkpt lat="45.45817" lon="4.76362">
        <ele>147.19999694824</ele>
        <time>2024-05-21T07:30:37.000Z</time>
      </trkpt>
      <trkpt lat="45.45817" lon="4.76356">
        <ele>147.19999694824</ele>
        <time>2024-05-21T07:30:38.000Z</time>
      </trkpt>
      <trkpt lat="45.45816" lon="4.76347">
        <ele>147.19999694824</ele>
        <time>2024-05-21T07:30:39.000Z</time>
      </trkpt>
      <trkpt lat="45.45816" lon="4.76341">
        <ele>147</ele>
        <time>2024-05-21T07:30:40.000Z</time>
      </trkpt>
      <trkpt lat="45.45815" lon="4.76332">
        <ele>147</ele>
        <time>2024-05-21T07:30:41.000Z</time>
      </trkpt>
      <trkpt lat="45.45814" lon="4.76324">
        <ele>147</ele>
        <time>2024-05-21T07:30:42.000Z</time>
      </trkpt>
      <trkpt lat="45.45813" lon="4.76319">
        <ele>147</ele>
        <time>2024-05-21T07:30:43.000Z</time>
      </trkpt>
      <trkpt lat="45.45812" lon="4.76311">
        <ele>147</ele>
        <time>2024-05-21T07:30:44.000Z</time>
      </trkpt>
      <trkpt lat="45.45811" lon="4.76304">
        <ele>147</ele>
        <time>2024-05-21T07:30:45.000Z</time>
      </trkpt>
      <trkpt lat="45.45809" lon="4.76297">
        <ele>147</ele>
        <time>2024-05-21T07:30:46.000Z</time>
      </trkpt>
      <trkpt lat="45.45809" lon="4.7629">
        <ele>147</ele>
        <time>2024-05-21T07:30:47.000Z</time>
      </trkpt>
      <trkpt lat="45.45807" lon="4.76282">
        <ele>147</ele>
        <time>2024-05-21T07:30:48.000Z</time>
      </trkpt>
      <trkpt lat="45.45806" lon="4.76275">
        <ele>147</ele>
        <time>2024-05-21T07:30:49.000Z</time>
      </trkpt>
      <trkpt lat="45.45806" lon="4.76267">
        <ele>147</ele>
        <time>2024-05-21T07:30:50.000Z</time>
      </trkpt>
      <trkpt lat="45.45804" lon="4.7626">
        <ele>146.80000305176</ele>
        <time>2024-05-21T07:30:51.000Z</time>
      </trkpt>
      <trkpt lat="45.45803" lon="4.76253">
        <ele>146.80000305176</ele>
        <time>2024-05-21T07:30:52.000Z</time>
      </trkpt>
      <trkpt lat="45.45802" lon="4.76245">
        <ele>146.80000305176</ele>
        <time>2024-05-21T07:30:53.000Z</time>
      </trkpt>
      <trkpt lat="45.45802" lon="4.76238">
        <ele>146.80000305176</ele>
        <time>2024-05-21T07:30:54.000Z</time>
      </trkpt>
      <trkpt lat="45.45801" lon="4.76231">
        <ele>146.80000305176</ele>
        <time>2024-05-21T07:30:55.000Z</time>
      </trkpt>
      <trkpt lat="45.458" lon="4.76224">
        <ele>146.80000305176</ele>
        <time>2024-05-21T07:30:56.000Z</time>
      </trkpt>
      <trkpt lat="45.45799" lon="4.76217">
        <ele>147</ele>
        <time>2024-05-21T07:30:57.000Z</time>
      </trkpt>
      <trkpt lat="45.45798" lon="4.7621">
        <ele>147</ele>
        <time>2024-05-21T07:30:58.000Z</time>
      </trkpt>
      <trkpt lat="45.45797" lon="4.76203">
        <ele>147</ele>
        <time>2024-05-21T07:30:59.000Z</time>
      </trkpt>
      <trkpt lat="45.45796" lon="4.76196">
        <ele>147.19999694824</ele>
        <time>2024-05-21T07:31:00.000Z</time>
      </trkpt>
      <trkpt lat="45.45795" lon="4.76189">
        <ele>147.19999694824</ele>
        <time>2024-05-21T07:31:01.000Z</time>
      </trkpt>
      <trkpt lat="45.45794" lon="4.76183">
        <ele>147.19999694824</ele>
        <time>2024-05-21T07:31:02.000Z</time>
      </trkpt>
      <trkpt lat="45.45794" lon="4.76175">
        <ele>147.19999694824</ele>
        <time>2024-05-21T07:31:03.000Z</time>
      </trkpt>
      <trkpt lat="45.45794" lon="4.76171">
        <ele>147.19999694824</ele>
        <time>2024-05-21T07:31:04.000Z</time>
      </trkpt>
      <trkpt lat="45.45794" lon="4.76166">
        <ele>147.19999694824</ele>
        <time>2024-05-21T07:31:05.000Z</time>
      </trkpt>
      <trkpt lat="45.45794" lon="4.76161">
        <ele>147.19999694824</ele>
        <time>2024-05-21T07:31:06.000Z</time>
      </trkpt>
      <trkpt lat="45.45795" lon="4.76158">
        <ele>147.39999389648</ele>
        <time>2024-05-21T07:31:07.000Z</time>
      </trkpt>
      <trkpt lat="45.45797" lon="4.76154">
        <ele>147.60000610352</ele>
        <time>2024-05-21T07:31:08.000Z</time>
      </trkpt>
      <trkpt lat="45.45799" lon="4.76152">
        <ele>147.80000305176</ele>
        <time>2024-05-21T07:31:09.000Z</time>
      </trkpt>
      <trkpt lat="45.45801" lon="4.76151">
        <ele>147.80000305176</ele>
        <time>2024-05-21T07:31:10.000Z</time>
      </trkpt>
      <trkpt lat="45.45803" lon="4.76149">
        <ele>147.80000305176</ele>
        <time>2024-05-21T07:31:11.000Z</time>
      </trkpt>
      <trkpt lat="45.45805" lon="4.76147">
        <ele>147.80000305176</ele>
        <time>2024-05-21T07:31:12.000Z</time>
      </trkpt>
      <trkpt lat="45.45808" lon="4.76146">
        <ele>147.80000305176</ele>
        <time>2024-05-21T07:31:13.000Z</time>
      </trkpt>
      <trkpt lat="45.4581" lon="4.76144">
        <ele>147.80000305176</ele>
        <time>2024-05-21T07:31:14.000Z</time>
      </trkpt>
      <trkpt lat="45.45812" lon="4.76144">
        <ele>147.80000305176</ele>
        <time>2024-05-21T07:31:15.000Z</time>
      </trkpt>
      <trkpt lat="45.45814" lon="4.76146">
        <ele>147.80000305176</ele>
        <time>2024-05-21T07:31:16.000Z</time>
      </trkpt>
      <trkpt lat="45.45815" lon="4.76149">
        <ele>147.60000610352</ele>
        <time>2024-05-21T07:31:17.000Z</time>
      </trkpt>
      <trkpt lat="45.45816" lon="4.76153">
        <ele>147.60000610352</ele>
        <time>2024-05-21T07:31:18.000Z</time>
      </trkpt>
      <trkpt lat="45.45818" lon="4.76156">
        <ele>147.60000610352</ele>
        <time>2024-05-21T07:31:19.000Z</time>
      </trkpt>
      <trkpt lat="45.45819" lon="4.76158">
        <ele>147.60000610352</ele>
        <time>2024-05-21T07:31:20.000Z</time>
      </trkpt>
      <trkpt lat="45.45822" lon="4.76159">
        <ele>147.60000610352</ele>
        <time>2024-05-21T07:31:21.000Z</time>
      </trkpt>
      <trkpt lat="45.45825" lon="4.76158">
        <ele>147.39999389648</ele>
        <time>2024-05-21T07:31:22.000Z</time>
      </trkpt>
      <trkpt lat="45.45827" lon="4.76156">
        <ele>147.39999389648</ele>
        <time>2024-05-21T07:31:23.000Z</time>
      </trkpt>
      <trkpt lat="45.45829" lon="4.76153">
        <ele>147.39999389648</ele>
        <time>2024-05-21T07:31:24.000Z</time>
      </trkpt>
      <trkpt lat="45.45832" lon="4.76149">
        <ele>147.39999389648</ele>
        <time>2024-05-21T07:31:25.000Z</time>
      </trkpt>
      <trkpt lat="45.45835" lon="4.76145">
        <ele>147.39999389648</ele>
        <time>2024-05-21T07:31:26.000Z</time>
      </trkpt>
      <trkpt lat="45.45837" lon="4.7614">
        <ele>147.39999389648</ele>
        <time>2024-05-21T07:31:27.000Z</time>
      </trkpt>
      <trkpt lat="45.4584" lon="4.76136">
        <ele>147.39999389648</ele>
        <time>2024-05-21T07:31:28.000Z</time>
      </trkpt>
      <trkpt lat="45.45843" lon="4.76131">
        <ele>147.39999389648</ele>
        <time>2024-05-21T07:31:29.000Z</time>
      </trkpt>
      <trkpt lat="45.45847" lon="4.76127">
        <ele>147.39999389648</ele>
        <time>2024-05-21T07:31:30.000Z</time>
      </trkpt>
      <trkpt lat="45.4585" lon="4.76122">
        <ele>147.60000610352</ele>
        <time>2024-05-21T07:31:31.000Z</time>
      </trkpt>
      <trkpt lat="45.45853" lon="4.76118">
        <ele>147.60000610352</ele>
        <time>2024-05-21T07:31:32.000Z</time>
      </trkpt>
      <trkpt lat="45.45857" lon="4.76112">
        <ele>147.60000610352</ele>
        <time>2024-05-21T07:31:33.000Z</time>
      </trkpt>
      <trkpt lat="45.4586" lon="4.76109">
        <ele>147.60000610352</ele>
        <time>2024-05-21T07:31:34.000Z</time>
      </trkpt>
      <trkpt lat="45.45863" lon="4.76104">
        <ele>147.80000305176</ele>
        <time>2024-05-21T07:31:35.000Z</time>
      </trkpt>
      <trkpt lat="45.45865" lon="4.761">
        <ele>148</ele>
        <time>2024-05-21T07:31:36.000Z</time>
      </trkpt>
      <trkpt lat="45.45868" lon="4.76096">
        <ele>148</ele>
        <time>2024-05-21T07:31:37.000Z</time>
      </trkpt>
      <trkpt lat="45.4587" lon="4.76092">
        <ele>148.19999694824</ele>
        <time>2024-05-21T07:31:38.000Z</time>
      </trkpt>
      <trkpt lat="45.4587" lon="4.76087">
        <ele>148.39999389648</ele>
        <time>2024-05-21T07:31:39.000Z</time>
      </trkpt>
      <trkpt lat="45.4587" lon="4.76083">
        <ele>148.39999389648</ele>
        <time>2024-05-21T07:31:40.000Z</time>
      </trkpt>
      <trkpt lat="45.45871" lon="4.76079">
        <ele>148.60000610352</ele>
        <time>2024-05-21T07:31:41.000Z</time>
      </trkpt>
      <trkpt lat="45.4587" lon="4.76075">
        <ele>148.80000305176</ele>
        <time>2024-05-21T07:31:42.000Z</time>
      </trkpt>
      <trkpt lat="45.45869" lon="4.7607">
        <ele>148.80000305176</ele>
        <time>2024-05-21T07:31:43.000Z</time>
      </trkpt>
      <trkpt lat="45.45868" lon="4.76066">
        <ele>148.80000305176</ele>
        <time>2024-05-21T07:31:44.000Z</time>
      </trkpt>
      <trkpt lat="45.45866" lon="4.76062">
        <ele>148.80000305176</ele>
        <time>2024-05-21T07:31:45.000Z</time>
      </trkpt>
      <trkpt lat="45.45864" lon="4.76058">
        <ele>148.80000305176</ele>
        <time>2024-05-21T07:31:46.000Z</time>
      </trkpt>
      <trkpt lat="45.45862" lon="4.76054">
        <ele>148.80000305176</ele>
        <time>2024-05-21T07:31:47.000Z</time>
      </trkpt>
      <trkpt lat="45.4586" lon="4.76049">
        <ele>148.80000305176</ele>
        <time>2024-05-21T07:31:48.000Z</time>
      </trkpt>
      <trkpt lat="45.45858" lon="4.76044">
        <ele>148.80000305176</ele>
        <time>2024-05-21T07:31:49.000Z</time>
      </trkpt>
      <trkpt lat="45.45857" lon="4.7604">
        <ele>148.80000305176</ele>
        <time>2024-05-21T07:31:50.000Z</time>
      </trkpt>
      <trkpt lat="45.45854" lon="4.76035">
        <ele>148.60000610352</ele>
        <time>2024-05-21T07:31:51.000Z</time>
      </trkpt>
      <trkpt lat="45.45852" lon="4.76029">
        <ele>148.60000610352</ele>
        <time>2024-05-21T07:31:52.000Z</time>
      </trkpt>
      <trkpt lat="45.4585" lon="4.76025">
        <ele>148.60000610352</ele>
        <time>2024-05-21T07:31:53.000Z</time>
      </trkpt>
      <trkpt lat="45.45848" lon="4.7602">
        <ele>148.60000610352</ele>
        <time>2024-05-21T07:31:54.000Z</time>
      </trkpt>
      <trkpt lat="45.45846" lon="4.76016">
        <ele>148.60000610352</ele>
        <time>2024-05-21T07:31:55.000Z</time>
      </trkpt>
      <trkpt lat="45.45845" lon="4.76012">
        <ele>148.80000305176</ele>
        <time>2024-05-21T07:31:56.000Z</time>
      </trkpt>
      <trkpt lat="45.45843" lon="4.76008">
        <ele>148.80000305176</ele>
        <time>2024-05-21T07:31:57.000Z</time>
      </trkpt>
      <trkpt lat="45.45841" lon="4.76004">
        <ele>148.80000305176</ele>
        <time>2024-05-21T07:31:58.000Z</time>
      </trkpt>
      <trkpt lat="45.4584" lon="4.76">
        <ele>148.80000305176</ele>
        <time>2024-05-21T07:31:59.000Z</time>
      </trkpt>
      <trkpt lat="45.45838" lon="4.75996">
        <ele>148.80000305176</ele>
        <time>2024-05-21T07:32:00.000Z</time>
      </trkpt>
      <trkpt lat="45.45836" lon="4.75991">
        <ele>148.80000305176</ele>
        <time>2024-05-21T07:32:01.000Z</time>
      </trkpt>
      <trkpt lat="45.45834" lon="4.75989">
        <ele>148.80000305176</ele>
        <time>2024-05-21T07:32:02.000Z</time>
      </trkpt>
      <trkpt lat="45.45832" lon="4.75986">
        <ele>148.80000305176</ele>
        <time>2024-05-21T07:32:03.000Z</time>
      </trkpt>
      <trkpt lat="45.4583" lon="4.75983">
        <ele>148.80000305176</ele>
        <time>2024-05-21T07:32:04.000Z</time>
      </trkpt>
      <trkpt lat="45.45827" lon="4.75982">
        <ele>148.80000305176</ele>
        <time>2024-05-21T07:32:05.000Z</time>
      </trkpt>
      <trkpt lat="45.45824" lon="4.75981">
        <ele>148.80000305176</ele>
        <time>2024-05-21T07:32:06.000Z</time>
      </trkpt>
      <trkpt lat="45.45821" lon="4.75981">
        <ele>148.80000305176</ele>
        <time>2024-05-21T07:32:07.000Z</time>
      </trkpt>
      <trkpt lat="45.45817" lon="4.75981">
        <ele>148.80000305176</ele>
        <time>2024-05-21T07:32:08.000Z</time>
      </trkpt>
      <trkpt lat="45.45812" lon="4.75982">
        <ele>148.80000305176</ele>
        <time>2024-05-21T07:32:09.000Z</time>
      </trkpt>
      <trkpt lat="45.45809" lon="4.75982">
        <ele>148.60000610352</ele>
        <time>2024-05-21T07:32:10.000Z</time>
      </trkpt>
      <trkpt lat="45.45805" lon="4.75983">
        <ele>148.39999389648</ele>
        <time>2024-05-21T07:32:11.000Z</time>
      </trkpt>
      <trkpt lat="45.458" lon="4.75983">
        <ele>148.19999694824</ele>
        <time>2024-05-21T07:32:12.000Z</time>
      </trkpt>
      <trkpt lat="45.45796" lon="4.75984">
        <ele>148.19999694824</ele>
        <time>2024-05-21T07:32:13.000Z</time>
      </trkpt>
      <trkpt lat="45.45792" lon="4.75984">
        <ele>148.19999694824</ele>
        <time>2024-05-21T07:32:14.000Z</time>
      </trkpt>
      <trkpt lat="45.45787" lon="4.75985">
        <ele>148</ele>
        <time>2024-05-21T07:32:15.000Z</time>
      </trkpt>
      <trkpt lat="45.45782" lon="4.75986">
        <ele>147.80000305176</ele>
        <time>2024-05-21T07:32:16.000Z</time>
      </trkpt>
      <trkpt lat="45.45778" lon="4.75986">
        <ele>147.80000305176</ele>
        <time>2024-05-21T07:32:17.000Z</time>
      </trkpt>
      <trkpt lat="45.45774" lon="4.75987">
        <ele>147.80000305176</ele>
        <time>2024-05-21T07:32:18.000Z</time>
      </trkpt>
      <trkpt lat="45.45769" lon="4.75987">
        <ele>147.80000305176</ele>
        <time>2024-05-21T07:32:19.000Z</time>
      </trkpt>
      <trkpt lat="45.45766" lon="4.75986">
        <ele>147.80000305176</ele>
        <time>2024-05-21T07:32:20.000Z</time>
      </trkpt>
      <trkpt lat="45.45762" lon="4.75984">
        <ele>147.80000305176</ele>
        <time>2024-05-21T07:32:21.000Z</time>
      </trkpt>
      <trkpt lat="45.45759" lon="4.75981">
        <ele>147.80000305176</ele>
        <time>2024-05-21T07:32:22.000Z</time>
      </trkpt>
      <trkpt lat="45.45758" lon="4.75979">
        <ele>147.60000610352</ele>
        <time>2024-05-21T07:32:23.000Z</time>
      </trkpt>
      <trkpt lat="45.45756" lon="4.75977">
        <ele>147.60000610352</ele>
        <time>2024-05-21T07:32:24.000Z</time>
      </trkpt>
      <trkpt lat="45.45754" lon="4.75976">
        <ele>147.60000610352</ele>
        <time>2024-05-21T07:32:25.000Z</time>
      </trkpt>
      <trkpt lat="45.45752" lon="4.75975">
        <ele>147.60000610352</ele>
        <time>2024-05-21T07:32:26.000Z</time>
      </trkpt>
      <trkpt lat="45.4575" lon="4.75974">
        <ele>147.60000610352</ele>
        <time>2024-05-21T07:32:27.000Z</time>
      </trkpt>
      <trkpt lat="45.45749" lon="4.75973">
        <ele>147.60000610352</ele>
        <time>2024-05-21T07:32:28.000Z</time>
      </trkpt>
      <trkpt lat="45.45747" lon="4.75971">
        <ele>147.60000610352</ele>
        <time>2024-05-21T07:32:29.000Z</time>
      </trkpt>
      <trkpt lat="45.45745" lon="4.7597">
        <ele>147.60000610352</ele>
        <time>2024-05-21T07:32:30.000Z</time>
      </trkpt>
      <trkpt lat="45.45743" lon="4.75967">
        <ele>147.60000610352</ele>
        <time>2024-05-21T07:32:31.000Z</time>
      </trkpt>
      <trkpt lat="45.45742" lon="4.75965">
        <ele>147.60000610352</ele>
        <time>2024-05-21T07:32:32.000Z</time>
      </trkpt>
      <trkpt lat="45.4574" lon="4.75963">
        <ele>147.60000610352</ele>
        <time>2024-05-21T07:32:33.000Z</time>
      </trkpt>
      <trkpt lat="45.45738" lon="4.75959">
        <ele>147.60000610352</ele>
        <time>2024-05-21T07:32:34.000Z</time>
      </trkpt>
      <trkpt lat="45.45737" lon="4.75956">
        <ele>147.39999389648</ele>
        <time>2024-05-21T07:32:35.000Z</time>
      </trkpt>
      <trkpt lat="45.45736" lon="4.75953">
        <ele>147.39999389648</ele>
        <time>2024-05-21T07:32:36.000Z</time>
      </trkpt>
      <trkpt lat="45.45734" lon="4.7595">
        <ele>147.39999389648</ele>
        <time>2024-05-21T07:32:37.000Z</time>
      </trkpt>
      <trkpt lat="45.45733" lon="4.75947">
        <ele>147.39999389648</ele>
        <time>2024-05-21T07:32:38.000Z</time>
      </trkpt>
      <trkpt lat="45.45732" lon="4.75944">
        <ele>147.39999389648</ele>
        <time>2024-05-21T07:32:39.000Z</time>
      </trkpt>
      <trkpt lat="45.4573" lon="4.75942">
        <ele>147.39999389648</ele>
        <time>2024-05-21T07:32:40.000Z</time>
      </trkpt>
      <trkpt lat="45.45729" lon="4.7594">
        <ele>147.39999389648</ele>
        <time>2024-05-21T07:32:41.000Z</time>
      </trkpt>
      <trkpt lat="45.45728" lon="4.75939">
        <ele>147.39999389648</ele>
        <time>2024-05-21T07:32:42.000Z</time>
      </trkpt>
      <trkpt lat="45.45726" lon="4.75937">
        <ele>147.39999389648</ele>
        <time>2024-05-21T07:32:43.000Z</time>
      </trkpt>
      <trkpt lat="45.45724" lon="4.75937">
        <ele>147.39999389648</ele>
        <time>2024-05-21T07:32:44.000Z</time>
      </trkpt>
      <trkpt lat="45.45723" lon="4.75938">
        <ele>147.39999389648</ele>
        <time>2024-05-21T07:32:45.000Z</time>
      </trkpt>
      <trkpt lat="45.45721" lon="4.75938">
        <ele>147.39999389648</ele>
        <time>2024-05-21T07:32:46.000Z</time>
      </trkpt>
      <trkpt lat="45.4572" lon="4.75939">
        <ele>147.39999389648</ele>
        <time>2024-05-21T07:32:47.000Z</time>
      </trkpt>
      <trkpt lat="45.45718" lon="4.75939">
        <ele>147.39999389648</ele>
        <time>2024-05-21T07:32:48.000Z</time>
      </trkpt>
      <trkpt lat="45.45717" lon="4.75938">
        <ele>147.39999389648</ele>
        <time>2024-05-21T07:32:49.000Z</time>
      </trkpt>
      <trkpt lat="45.45716" lon="4.75937">
        <ele>147.39999389648</ele>
        <time>2024-05-21T07:32:50.000Z</time>
      </trkpt>
      <trkpt lat="45.45716" lon="4.75935">
        <ele>147.60000610352</ele>
        <time>2024-05-21T07:32:51.000Z</time>
      </trkpt>
      <trkpt lat="45.45715" lon="4.75932">
        <ele>147.60000610352</ele>
        <time>2024-05-21T07:32:52.000Z</time>
      </trkpt>
      <trkpt lat="45.45714" lon="4.75929">
        <ele>147.60000610352</ele>
        <time>2024-05-21T07:32:53.000Z</time>
      </trkpt>
      <trkpt lat="45.45714" lon="4.75926">
        <ele>147.60000610352</ele>
        <time>2024-05-21T07:32:54.000Z</time>
      </trkpt>
      <trkpt lat="45.45713" lon="4.75922">
        <ele>147.60000610352</ele>
        <time>2024-05-21T07:32:55.000Z</time>
      </trkpt>
      <trkpt lat="45.45712" lon="4.75918">
        <ele>147.60000610352</ele>
        <time>2024-05-21T07:32:56.000Z</time>
      </trkpt>
      <trkpt lat="45.45711" lon="4.75914">
        <ele>147.60000610352</ele>
        <time>2024-05-21T07:32:57.000Z</time>
      </trkpt>
      <trkpt lat="45.4571" lon="4.75908">
        <ele>147.39999389648</ele>
        <time>2024-05-21T07:32:58.000Z</time>
      </trkpt>
      <trkpt lat="45.4571" lon="4.75903">
        <ele>147.19999694824</ele>
        <time>2024-05-21T07:32:59.000Z</time>
      </trkpt>
      <trkpt lat="45.45709" lon="4.75897">
        <ele>147</ele>
        <time>2024-05-21T07:33:00.000Z</time>
      </trkpt>
      <trkpt lat="45.45708" lon="4.7589">
        <ele>146.80000305176</ele>
        <time>2024-05-21T07:33:01.000Z</time>
      </trkpt>
      <trkpt lat="45.45707" lon="4.75883">
        <ele>146.80000305176</ele>
        <time>2024-05-21T07:33:02.000Z</time>
      </trkpt>
      <trkpt lat="45.45706" lon="4.75878">
        <ele>146.80000305176</ele>
        <time>2024-05-21T07:33:03.000Z</time>
      </trkpt>
      <trkpt lat="45.45704" lon="4.75872">
        <ele>146.80000305176</ele>
        <time>2024-05-21T07:33:04.000Z</time>
      </trkpt>
      <trkpt lat="45.45703" lon="4.75865">
        <ele>146.80000305176</ele>
        <time>2024-05-21T07:33:05.000Z</time>
      </trkpt>
      <trkpt lat="45.45702" lon="4.75859">
        <ele>146.80000305176</ele>
        <time>2024-05-21T07:33:06.000Z</time>
      </trkpt>
      <trkpt lat="45.45701" lon="4.75852">
        <ele>146.80000305176</ele>
        <time>2024-05-21T07:33:07.000Z</time>
      </trkpt>
      <trkpt lat="45.45699" lon="4.75844">
        <ele>146.60000610352</ele>
        <time>2024-05-21T07:33:08.000Z</time>
      </trkpt>
      <trkpt lat="45.45698" lon="4.75839">
        <ele>146.60000610352</ele>
        <time>2024-05-21T07:33:09.000Z</time>
      </trkpt>
      <trkpt lat="45.45697" lon="4.75832">
        <ele>146.60000610352</ele>
        <time>2024-05-21T07:33:10.000Z</time>
      </trkpt>
      <trkpt lat="45.45696" lon="4.75824">
        <ele>146.60000610352</ele>
        <time>2024-05-21T07:33:11.000Z</time>
      </trkpt>
      <trkpt lat="45.45695" lon="4.75819">
        <ele>146.60000610352</ele>
        <time>2024-05-21T07:33:12.000Z</time>
      </trkpt>
      <trkpt lat="45.45693" lon="4.75811">
        <ele>146.80000305176</ele>
        <time>2024-05-21T07:33:13.000Z</time>
      </trkpt>
      <trkpt lat="45.45692" lon="4.75806">
        <ele>146.80000305176</ele>
        <time>2024-05-21T07:33:14.000Z</time>
      </trkpt>
      <trkpt lat="45.45691" lon="4.75799">
        <ele>146.80000305176</ele>
        <time>2024-05-21T07:33:15.000Z</time>
      </trkpt>
      <trkpt lat="45.45689" lon="4.75792">
        <ele>146.80000305176</ele>
        <time>2024-05-21T07:33:16.000Z</time>
      </trkpt>
      <trkpt lat="45.45688" lon="4.75785">
        <ele>146.80000305176</ele>
        <time>2024-05-21T07:33:17.000Z</time>
      </trkpt>
      <trkpt lat="45.45687" lon="4.75779">
        <ele>146.80000305176</ele>
        <time>2024-05-21T07:33:18.000Z</time>
      </trkpt>
      <trkpt lat="45.45686" lon="4.75772">
        <ele>146.80000305176</ele>
        <time>2024-05-21T07:33:19.000Z</time>
      </trkpt>
      <trkpt lat="45.45684" lon="4.75765">
        <ele>146.80000305176</ele>
        <time>2024-05-21T07:33:20.000Z</time>
      </trkpt>
      <trkpt lat="45.45682" lon="4.75758">
        <ele>146.80000305176</ele>
        <time>2024-05-21T07:33:21.000Z</time>
      </trkpt>
      <trkpt lat="45.4568" lon="4.75751">
        <ele>146.80000305176</ele>
        <time>2024-05-21T07:33:22.000Z</time>
      </trkpt>
      <trkpt lat="45.45678" lon="4.75744">
        <ele>146.60000610352</ele>
        <time>2024-05-21T07:33:23.000Z</time>
      </trkpt>
      <trkpt lat="45.45675" lon="4.75738">
        <ele>146.39999389648</ele>
        <time>2024-05-21T07:33:24.000Z</time>
      </trkpt>
      <trkpt lat="45.45672" lon="4.75731">
        <ele>146.39999389648</ele>
        <time>2024-05-21T07:33:25.000Z</time>
      </trkpt>
      <trkpt lat="45.4567" lon="4.75725">
        <ele>146.39999389648</ele>
        <time>2024-05-21T07:33:26.000Z</time>
      </trkpt>
      <trkpt lat="45.45667" lon="4.75719">
        <ele>146.39999389648</ele>
        <time>2024-05-21T07:33:27.000Z</time>
      </trkpt>
      <trkpt lat="45.45665" lon="4.75712">
        <ele>146.39999389648</ele>
        <time>2024-05-21T07:33:28.000Z</time>
      </trkpt>
      <trkpt lat="45.45663" lon="4.75706">
        <ele>146.39999389648</ele>
        <time>2024-05-21T07:33:29.000Z</time>
      </trkpt>
      <trkpt lat="45.4566" lon="4.75699">
        <ele>146.39999389648</ele>
        <time>2024-05-21T07:33:30.000Z</time>
      </trkpt>
      <trkpt lat="45.45657" lon="4.75691">
        <ele>146.39999389648</ele>
        <time>2024-05-21T07:33:31.000Z</time>
      </trkpt>
      <trkpt lat="45.45655" lon="4.75687">
        <ele>146.39999389648</ele>
        <time>2024-05-21T07:33:32.000Z</time>
      </trkpt>
      <trkpt lat="45.45652" lon="4.75681">
        <ele>146.39999389648</ele>
        <time>2024-05-21T07:33:33.000Z</time>
      </trkpt>
      <trkpt lat="45.45649" lon="4.75674">
        <ele>146.39999389648</ele>
        <time>2024-05-21T07:33:34.000Z</time>
      </trkpt>
      <trkpt lat="45.45648" lon="4.7567">
        <ele>146.60000610352</ele>
        <time>2024-05-21T07:33:35.000Z</time>
      </trkpt>
      <trkpt lat="45.45646" lon="4.75664">
        <ele>146.80000305176</ele>
        <time>2024-05-21T07:33:36.000Z</time>
      </trkpt>
      <trkpt lat="45.45643" lon="4.75658">
        <ele>147</ele>
        <time>2024-05-21T07:33:37.000Z</time>
      </trkpt>
      <trkpt lat="45.45642" lon="4.75654">
        <ele>147.19999694824</ele>
        <time>2024-05-21T07:33:38.000Z</time>
      </trkpt>
      <trkpt lat="45.4564" lon="4.75649">
        <ele>147.60000610352</ele>
        <time>2024-05-21T07:33:39.000Z</time>
      </trkpt>
      <trkpt lat="45.45638" lon="4.75643">
        <ele>147.80000305176</ele>
        <time>2024-05-21T07:33:40.000Z</time>
      </trkpt>
      <trkpt lat="45.45636" lon="4.75639">
        <ele>148</ele>
        <time>2024-05-21T07:33:41.000Z</time>
      </trkpt>
      <trkpt lat="45.45634" lon="4.75634">
        <ele>148.19999694824</ele>
        <time>2024-05-21T07:33:42.000Z</time>
      </trkpt>
      <trkpt lat="45.45632" lon="4.75629">
        <ele>148.19999694824</ele>
        <time>2024-05-21T07:33:43.000Z</time>
      </trkpt>
      <trkpt lat="45.4563" lon="4.75623">
        <ele>148.19999694824</ele>
        <time>2024-05-21T07:33:44.000Z</time>
      </trkpt>
      <trkpt lat="45.45627" lon="4.75618">
        <ele>148.19999694824</ele>
        <time>2024-05-21T07:33:45.000Z</time>
      </trkpt>
      <trkpt lat="45.45625" lon="4.75613">
        <ele>148.19999694824</ele>
        <time>2024-05-21T07:33:46.000Z</time>
      </trkpt>
      <trkpt lat="45.45623" lon="4.75607">
        <ele>148.19999694824</ele>
        <time>2024-05-21T07:33:47.000Z</time>
      </trkpt>
      <trkpt lat="45.45621" lon="4.75601">
        <ele>148.19999694824</ele>
        <time>2024-05-21T07:33:48.000Z</time>
      </trkpt>
      <trkpt lat="45.45619" lon="4.75593">
        <ele>148</ele>
        <time>2024-05-21T07:33:49.000Z</time>
      </trkpt>
      <trkpt lat="45.45617" lon="4.75588">
        <ele>148</ele>
        <time>2024-05-21T07:33:50.000Z</time>
      </trkpt>
      <trkpt lat="45.45615" lon="4.75582">
        <ele>148</ele>
        <time>2024-05-21T07:33:51.000Z</time>
      </trkpt>
      <trkpt lat="45.45612" lon="4.75574">
        <ele>147.80000305176</ele>
        <time>2024-05-21T07:33:52.000Z</time>
      </trkpt>
      <trkpt lat="45.4561" lon="4.75568">
        <ele>147.80000305176</ele>
        <time>2024-05-21T07:33:53.000Z</time>
      </trkpt>
      <trkpt lat="45.45608" lon="4.75563">
        <ele>147.80000305176</ele>
        <time>2024-05-21T07:33:54.000Z</time>
      </trkpt>
      <trkpt lat="45.45605" lon="4.75556">
        <ele>147.80000305176</ele>
        <time>2024-05-21T07:33:55.000Z</time>
      </trkpt>
      <trkpt lat="45.45603" lon="4.75551">
        <ele>147.80000305176</ele>
        <time>2024-05-21T07:33:56.000Z</time>
      </trkpt>
      <trkpt lat="45.456" lon="4.75546">
        <ele>147.80000305176</ele>
        <time>2024-05-21T07:33:57.000Z</time>
      </trkpt>
      <trkpt lat="45.45598" lon="4.75541">
        <ele>147.80000305176</ele>
        <time>2024-05-21T07:33:58.000Z</time>
      </trkpt>
      <trkpt lat="45.45597" lon="4.75538">
        <ele>147.80000305176</ele>
        <time>2024-05-21T07:33:59.000Z</time>
      </trkpt>
      <trkpt lat="45.45596" lon="4.75536">
        <ele>147.80000305176</ele>
        <time>2024-05-21T07:34:00.000Z</time>
      </trkpt>
      <trkpt lat="45.45595" lon="4.75535">
        <ele>147.80000305176</ele>
        <time>2024-05-21T07:34:01.000Z</time>
      </trkpt>
      <trkpt lat="45.45595" lon="4.75535">
        <ele>148</ele>
        <time>2024-05-21T07:34:02.000Z</time>
      </trkpt>
      <trkpt lat="45.45595" lon="4.75535">
        <ele>148.19999694824</ele>
        <time>2024-05-21T07:34:03.000Z</time>
      </trkpt>
      <trkpt lat="45.45591" lon="4.75529">
        <ele>148.60000610352</ele>
        <time>2024-05-21T07:34:24.000Z</time>
      </trkpt>
      <trkpt lat="45.4559" lon="4.75527">
        <ele>148.60000610352</ele>
        <time>2024-05-21T07:34:25.000Z</time>
      </trkpt>
      <trkpt lat="45.45588" lon="4.75523">
        <ele>148.39999389648</ele>
        <time>2024-05-21T07:34:26.000Z</time>
      </trkpt>
      <trkpt lat="45.45586" lon="4.7552">
        <ele>148.39999389648</ele>
        <time>2024-05-21T07:34:27.000Z</time>
      </trkpt>
      <trkpt lat="45.45584" lon="4.75517">
        <ele>148.39999389648</ele>
        <time>2024-05-21T07:34:28.000Z</time>
      </trkpt>
      <trkpt lat="45.45581" lon="4.75514">
        <ele>148.19999694824</ele>
        <time>2024-05-21T07:34:29.000Z</time>
      </trkpt>
      <trkpt lat="45.45579" lon="4.7551">
        <ele>148.19999694824</ele>
        <time>2024-05-21T07:34:30.000Z</time>
      </trkpt>
      <trkpt lat="45.45577" lon="4.75507">
        <ele>148.19999694824</ele>
        <time>2024-05-21T07:34:31.000Z</time>
      </trkpt>
      <trkpt lat="45.45574" lon="4.75504">
        <ele>148.19999694824</ele>
        <time>2024-05-21T07:34:32.000Z</time>
      </trkpt>
      <trkpt lat="45.4557" lon="4.75499">
        <ele>148.19999694824</ele>
        <time>2024-05-21T07:34:33.000Z</time>
      </trkpt>
      <trkpt lat="45.45567" lon="4.75495">
        <ele>148.19999694824</ele>
        <time>2024-05-21T07:34:34.000Z</time>
      </trkpt>
      <trkpt lat="45.45564" lon="4.75491">
        <ele>148.19999694824</ele>
        <time>2024-05-21T07:34:35.000Z</time>
      </trkpt>
      <trkpt lat="45.45561" lon="4.75487">
        <ele>148.19999694824</ele>
        <time>2024-05-21T07:34:36.000Z</time>
      </trkpt>
      <trkpt lat="45.45558" lon="4.75484">
        <ele>148.19999694824</ele>
        <time>2024-05-21T07:34:37.000Z</time>
      </trkpt>
      <trkpt lat="45.45555" lon="4.75479">
        <ele>148.19999694824</ele>
        <time>2024-05-21T07:34:38.000Z</time>
      </trkpt>
      <trkpt lat="45.45551" lon="4.75475">
        <ele>148.19999694824</ele>
        <time>2024-05-21T07:34:39.000Z</time>
      </trkpt>
      <trkpt lat="45.45548" lon="4.75472">
        <ele>148.19999694824</ele>
        <time>2024-05-21T07:34:40.000Z</time>
      </trkpt>
      <trkpt lat="45.45544" lon="4.75468">
        <ele>148.19999694824</ele>
        <time>2024-05-21T07:34:41.000Z</time>
      </trkpt>
      <trkpt lat="45.4554" lon="4.75464">
        <ele>148.19999694824</ele>
        <time>2024-05-21T07:34:42.000Z</time>
      </trkpt>
      <trkpt lat="45.45537" lon="4.75461">
        <ele>148.19999694824</ele>
        <time>2024-05-21T07:34:43.000Z</time>
      </trkpt>
      <trkpt lat="45.45532" lon="4.75457">
        <ele>148</ele>
        <time>2024-05-21T07:34:44.000Z</time>
      </trkpt>
      <trkpt lat="45.45528" lon="4.75455">
        <ele>148</ele>
        <time>2024-05-21T07:34:45.000Z</time>
      </trkpt>
      <trkpt lat="45.45524" lon="4.75452">
        <ele>148</ele>
        <time>2024-05-21T07:34:46.000Z</time>
      </trkpt>
      <trkpt lat="45.4552" lon="4.7545">
        <ele>148</ele>
        <time>2024-05-21T07:34:47.000Z</time>
      </trkpt>
      <trkpt lat="45.45515" lon="4.75446">
        <ele>147.80000305176</ele>
        <time>2024-05-21T07:34:48.000Z</time>
      </trkpt>
      <trkpt lat="45.45511" lon="4.75443">
        <ele>147.80000305176</ele>
        <time>2024-05-21T07:34:49.000Z</time>
      </trkpt>
      <trkpt lat="45.45505" lon="4.75439">
        <ele>147.80000305176</ele>
        <time>2024-05-21T07:34:50.000Z</time>
      </trkpt>
      <trkpt lat="45.45501" lon="4.75436">
        <ele>147.80000305176</ele>
        <time>2024-05-21T07:34:51.000Z</time>
      </trkpt>
      <trkpt lat="45.45497" lon="4.75435">
        <ele>147.80000305176</ele>
        <time>2024-05-21T07:34:52.000Z</time>
      </trkpt>
      <trkpt lat="45.45492" lon="4.75432">
        <ele>147.80000305176</ele>
        <time>2024-05-21T07:34:53.000Z</time>
      </trkpt>
      <trkpt lat="45.45487" lon="4.75431">
        <ele>147.80000305176</ele>
        <time>2024-05-21T07:34:54.000Z</time>
      </trkpt>
      <trkpt lat="45.45483" lon="4.7543">
        <ele>147.80000305176</ele>
        <time>2024-05-21T07:34:55.000Z</time>
      </trkpt>
      <trkpt lat="45.45478" lon="4.75428">
        <ele>147.80000305176</ele>
        <time>2024-05-21T07:34:56.000Z</time>
      </trkpt>
      <trkpt lat="45.45472" lon="4.75427">
        <ele>147.80000305176</ele>
        <time>2024-05-21T07:34:57.000Z</time>
      </trkpt>
      <trkpt lat="45.45468" lon="4.75426">
        <ele>147.80000305176</ele>
        <time>2024-05-21T07:34:58.000Z</time>
      </trkpt>
      <trkpt lat="45.45463" lon="4.75425">
        <ele>147.80000305176</ele>
        <time>2024-05-21T07:34:59.000Z</time>
      </trkpt>
      <trkpt lat="45.45459" lon="4.75424">
        <ele>147.80000305176</ele>
        <time>2024-05-21T07:35:00.000Z</time>
      </trkpt>
      <trkpt lat="45.45454" lon="4.75423">
        <ele>147.80000305176</ele>
        <time>2024-05-21T07:35:01.000Z</time>
      </trkpt>
      <trkpt lat="45.45448" lon="4.75421">
        <ele>147.80000305176</ele>
        <time>2024-05-21T07:35:02.000Z</time>
      </trkpt>
      <trkpt lat="45.45443" lon="4.7542">
        <ele>148</ele>
        <time>2024-05-21T07:35:03.000Z</time>
      </trkpt>
      <trkpt lat="45.45439" lon="4.7542">
        <ele>148</ele>
        <time>2024-05-21T07:35:04.000Z</time>
      </trkpt>
      <trkpt lat="45.45433" lon="4.75419">
        <ele>148</ele>
        <time>2024-05-21T07:35:05.000Z</time>
      </trkpt>
      <trkpt lat="45.45429" lon="4.75418">
        <ele>148</ele>
        <time>2024-05-21T07:35:06.000Z</time>
      </trkpt>
      <trkpt lat="45.45424" lon="4.75417">
        <ele>148</ele>
        <time>2024-05-21T07:35:07.000Z</time>
      </trkpt>
      <trkpt lat="45.45419" lon="4.75417">
        <ele>148</ele>
        <time>2024-05-21T07:35:08.000Z</time>
      </trkpt>
      <trkpt lat="45.45414" lon="4.75416">
        <ele>148.19999694824</ele>
        <time>2024-05-21T07:35:09.000Z</time>
      </trkpt>
      <trkpt lat="45.45409" lon="4.75415">
        <ele>148.19999694824</ele>
        <time>2024-05-21T07:35:10.000Z</time>
      </trkpt>
      <trkpt lat="45.45404" lon="4.75415">
        <ele>148.39999389648</ele>
        <time>2024-05-21T07:35:11.000Z</time>
      </trkpt>
      <trkpt lat="45.45399" lon="4.75415">
        <ele>148.39999389648</ele>
        <time>2024-05-21T07:35:12.000Z</time>
      </trkpt>
      <trkpt lat="45.45395" lon="4.75415">
        <ele>148.60000610352</ele>
        <time>2024-05-21T07:35:13.000Z</time>
      </trkpt>
      <trkpt lat="45.45391" lon="4.75415">
        <ele>148.60000610352</ele>
        <time>2024-05-21T07:35:14.000Z</time>
      </trkpt>
      <trkpt lat="45.45387" lon="4.75415">
        <ele>148.80000305176</ele>
        <time>2024-05-21T07:35:15.000Z</time>
      </trkpt>
      <trkpt lat="45.45381" lon="4.75415">
        <ele>149</ele>
        <time>2024-05-21T07:35:16.000Z</time>
      </trkpt>
      <trkpt lat="45.45378" lon="4.75415">
        <ele>149</ele>
        <time>2024-05-21T07:35:17.000Z</time>
      </trkpt>
      <trkpt lat="45.45373" lon="4.75415">
        <ele>149</ele>
        <time>2024-05-21T07:35:18.000Z</time>
      </trkpt>
      <trkpt lat="45.45367" lon="4.75414">
        <ele>149</ele>
        <time>2024-05-21T07:35:19.000Z</time>
      </trkpt>
      <trkpt lat="45.45363" lon="4.75413">
        <ele>149</ele>
        <time>2024-05-21T07:35:20.000Z</time>
      </trkpt>
      <trkpt lat="45.45359" lon="4.75413">
        <ele>149</ele>
        <time>2024-05-21T07:35:21.000Z</time>
      </trkpt>
      <trkpt lat="45.45353" lon="4.75412">
        <ele>149</ele>
        <time>2024-05-21T07:35:22.000Z</time>
      </trkpt>
      <trkpt lat="45.45348" lon="4.75412">
        <ele>149</ele>
        <time>2024-05-21T07:35:23.000Z</time>
      </trkpt>
      <trkpt lat="45.45343" lon="4.75412">
        <ele>149</ele>
        <time>2024-05-21T07:35:24.000Z</time>
      </trkpt>
      <trkpt lat="45.45336" lon="4.75412">
        <ele>149</ele>
        <time>2024-05-21T07:35:25.000Z</time>
      </trkpt>
      <trkpt lat="45.45332" lon="4.75412">
        <ele>148.80000305176</ele>
        <time>2024-05-21T07:35:26.000Z</time>
      </trkpt>
      <trkpt lat="45.45326" lon="4.75411">
        <ele>148.80000305176</ele>
        <time>2024-05-21T07:35:27.000Z</time>
      </trkpt>
      <trkpt lat="45.45319" lon="4.7541">
        <ele>148.80000305176</ele>
        <time>2024-05-21T07:35:28.000Z</time>
      </trkpt>
      <trkpt lat="45.45314" lon="4.7541">
        <ele>148.60000610352</ele>
        <time>2024-05-21T07:35:29.000Z</time>
      </trkpt>
      <trkpt lat="45.45309" lon="4.75409">
        <ele>148.60000610352</ele>
        <time>2024-05-21T07:35:30.000Z</time>
      </trkpt>
      <trkpt lat="45.45303" lon="4.75408">
        <ele>148.60000610352</ele>
        <time>2024-05-21T07:35:31.000Z</time>
      </trkpt>
      <trkpt lat="45.45296" lon="4.75407">
        <ele>148.60000610352</ele>
        <time>2024-05-21T07:35:32.000Z</time>
      </trkpt>
      <trkpt lat="45.45292" lon="4.75406">
        <ele>148.60000610352</ele>
        <time>2024-05-21T07:35:33.000Z</time>
      </trkpt>
      <trkpt lat="45.45285" lon="4.75405">
        <ele>148.80000305176</ele>
        <time>2024-05-21T07:35:34.000Z</time>
      </trkpt>
      <trkpt lat="45.45279" lon="4.75405">
        <ele>148.80000305176</ele>
        <time>2024-05-21T07:35:35.000Z</time>
      </trkpt>
      <trkpt lat="45.45275" lon="4.75404">
        <ele>148.80000305176</ele>
        <time>2024-05-21T07:35:36.000Z</time>
      </trkpt>
      <trkpt lat="45.4527" lon="4.75403">
        <ele>148.80000305176</ele>
        <time>2024-05-21T07:35:37.000Z</time>
      </trkpt>
      <trkpt lat="45.45264" lon="4.75402">
        <ele>149</ele>
        <time>2024-05-21T07:35:38.000Z</time>
      </trkpt>
      <trkpt lat="45.45259" lon="4.75402">
        <ele>149</ele>
        <time>2024-05-21T07:35:39.000Z</time>
      </trkpt>
      <trkpt lat="45.45253" lon="4.75402">
        <ele>149</ele>
        <time>2024-05-21T07:35:40.000Z</time>
      </trkpt>
      <trkpt lat="45.45247" lon="4.75401">
        <ele>149</ele>
        <time>2024-05-21T07:35:41.000Z</time>
      </trkpt>
      <trkpt lat="45.45243" lon="4.75401">
        <ele>149.39999389648</ele>
        <time>2024-05-21T07:35:42.000Z</time>
      </trkpt>
      <trkpt lat="45.45238" lon="4.754">
        <ele>149.39999389648</ele>
        <time>2024-05-21T07:35:43.000Z</time>
      </trkpt>
      <trkpt lat="45.45231" lon="4.754">
        <ele>149.39999389648</ele>
        <time>2024-05-21T07:35:44.000Z</time>
      </trkpt>
      <trkpt lat="45.45227" lon="4.75399">
        <ele>149.60000610352</ele>
        <time>2024-05-21T07:35:45.000Z</time>
      </trkpt>
      <trkpt lat="45.45221" lon="4.75399">
        <ele>149.60000610352</ele>
        <time>2024-05-21T07:35:46.000Z</time>
      </trkpt>
      <trkpt lat="45.45216" lon="4.75398">
        <ele>149.60000610352</ele>
        <time>2024-05-21T07:35:47.000Z</time>
      </trkpt>
      <trkpt lat="45.45211" lon="4.75398">
        <ele>149.60000610352</ele>
        <time>2024-05-21T07:35:48.000Z</time>
      </trkpt>
      <trkpt lat="45.45206" lon="4.75397">
        <ele>149.60000610352</ele>
        <time>2024-05-21T07:35:49.000Z</time>
      </trkpt>
      <trkpt lat="45.452" lon="4.75397">
        <ele>149.80000305176</ele>
        <time>2024-05-21T07:35:50.000Z</time>
      </trkpt>
      <trkpt lat="45.45195" lon="4.75396">
        <ele>149.80000305176</ele>
        <time>2024-05-21T07:35:51.000Z</time>
      </trkpt>
      <trkpt lat="45.4519" lon="4.75396">
        <ele>149.80000305176</ele>
        <time>2024-05-21T07:35:52.000Z</time>
      </trkpt>
      <trkpt lat="45.45184" lon="4.75395">
        <ele>149.80000305176</ele>
        <time>2024-05-21T07:35:53.000Z</time>
      </trkpt>
      <trkpt lat="45.45179" lon="4.75394">
        <ele>149.80000305176</ele>
        <time>2024-05-21T07:35:54.000Z</time>
      </trkpt>
      <trkpt lat="45.45173" lon="4.75394">
        <ele>149.80000305176</ele>
        <time>2024-05-21T07:35:55.000Z</time>
      </trkpt>
      <trkpt lat="45.45169" lon="4.75393">
        <ele>149.80000305176</ele>
        <time>2024-05-21T07:35:56.000Z</time>
      </trkpt>
      <trkpt lat="45.45164" lon="4.75393">
        <ele>149.80000305176</ele>
        <time>2024-05-21T07:35:57.000Z</time>
      </trkpt>
      <trkpt lat="45.45159" lon="4.75392">
        <ele>149.80000305176</ele>
        <time>2024-05-21T07:35:58.000Z</time>
      </trkpt>
      <trkpt lat="45.45154" lon="4.75392">
        <ele>149.80000305176</ele>
        <time>2024-05-21T07:35:59.000Z</time>
      </trkpt>
      <trkpt lat="45.45149" lon="4.75391">
        <ele>149.80000305176</ele>
        <time>2024-05-21T07:36:00.000Z</time>
      </trkpt>
      <trkpt lat="45.45143" lon="4.75391">
        <ele>149.80000305176</ele>
        <time>2024-05-21T07:36:01.000Z</time>
      </trkpt>
      <trkpt lat="45.45138" lon="4.7539">
        <ele>150</ele>
        <time>2024-05-21T07:36:02.000Z</time>
      </trkpt>
      <trkpt lat="45.45133" lon="4.7539">
        <ele>150</ele>
        <time>2024-05-21T07:36:03.000Z</time>
      </trkpt>
      <trkpt lat="45.45128" lon="4.75389">
        <ele>150</ele>
        <time>2024-05-21T07:36:04.000Z</time>
      </trkpt>
      <trkpt lat="45.45123" lon="4.75389">
        <ele>150</ele>
        <time>2024-05-21T07:36:05.000Z</time>
      </trkpt>
      <trkpt lat="45.45116" lon="4.75388">
        <ele>150</ele>
        <time>2024-05-21T07:36:06.000Z</time>
      </trkpt>
      <trkpt lat="45.45111" lon="4.75388">
        <ele>150</ele>
        <time>2024-05-21T07:36:07.000Z</time>
      </trkpt>
      <trkpt lat="45.45106" lon="4.75387">
        <ele>150.19999694824</ele>
        <time>2024-05-21T07:36:08.000Z</time>
      </trkpt>
      <trkpt lat="45.45102" lon="4.75387">
        <ele>150.19999694824</ele>
        <time>2024-05-21T07:36:09.000Z</time>
      </trkpt>
      <trkpt lat="45.45095" lon="4.75386">
        <ele>150.19999694824</ele>
        <time>2024-05-21T07:36:10.000Z</time>
      </trkpt>
      <trkpt lat="45.45091" lon="4.75385">
        <ele>150.19999694824</ele>
        <time>2024-05-21T07:36:11.000Z</time>
      </trkpt>
      <trkpt lat="45.45086" lon="4.75385">
        <ele>150.19999694824</ele>
        <time>2024-05-21T07:36:12.000Z</time>
      </trkpt>
      <trkpt lat="45.45081" lon="4.75384">
        <ele>150.19999694824</ele>
        <time>2024-05-21T07:36:13.000Z</time>
      </trkpt>
      <trkpt lat="45.45075" lon="4.75383">
        <ele>150.19999694824</ele>
        <time>2024-05-21T07:36:14.000Z</time>
      </trkpt>
      <trkpt lat="45.45069" lon="4.75382">
        <ele>150.19999694824</ele>
        <time>2024-05-21T07:36:15.000Z</time>
      </trkpt>
      <trkpt lat="45.45064" lon="4.75381">
        <ele>150.19999694824</ele>
        <time>2024-05-21T07:36:16.000Z</time>
      </trkpt>
      <trkpt lat="45.45057" lon="4.7538">
        <ele>150.19999694824</ele>
        <time>2024-05-21T07:36:17.000Z</time>
      </trkpt>
      <trkpt lat="45.45051" lon="4.75379">
        <ele>150.19999694824</ele>
        <time>2024-05-21T07:36:18.000Z</time>
      </trkpt>
      <trkpt lat="45.45047" lon="4.75378">
        <ele>150.19999694824</ele>
        <time>2024-05-21T07:36:19.000Z</time>
      </trkpt>
      <trkpt lat="45.45041" lon="4.75378">
        <ele>150</ele>
        <time>2024-05-21T07:36:20.000Z</time>
      </trkpt>
      <trkpt lat="45.45035" lon="4.75377">
        <ele>150</ele>
        <time>2024-05-21T07:36:21.000Z</time>
      </trkpt>
      <trkpt lat="45.45029" lon="4.75377">
        <ele>150</ele>
        <time>2024-05-21T07:36:22.000Z</time>
      </trkpt>
      <trkpt lat="45.45022" lon="4.75376">
        <ele>150</ele>
        <time>2024-05-21T07:36:23.000Z</time>
      </trkpt>
      <trkpt lat="45.45018" lon="4.75376">
        <ele>150</ele>
        <time>2024-05-21T07:36:24.000Z</time>
      </trkpt>
      <trkpt lat="45.45012" lon="4.75375">
        <ele>150</ele>
        <time>2024-05-21T07:36:25.000Z</time>
      </trkpt>
      <trkpt lat="45.45006" lon="4.75375">
        <ele>150</ele>
        <time>2024-05-21T07:36:26.000Z</time>
      </trkpt>
      <trkpt lat="45.45001" lon="4.75374">
        <ele>149.80000305176</ele>
        <time>2024-05-21T07:36:27.000Z</time>
      </trkpt>
      <trkpt lat="45.44995" lon="4.75374">
        <ele>149.80000305176</ele>
        <time>2024-05-21T07:36:28.000Z</time>
      </trkpt>
      <trkpt lat="45.44989" lon="4.75373">
        <ele>149.80000305176</ele>
        <time>2024-05-21T07:36:29.000Z</time>
      </trkpt>
      <trkpt lat="45.44982" lon="4.75372">
        <ele>149.80000305176</ele>
        <time>2024-05-21T07:36:30.000Z</time>
      </trkpt>
      <trkpt lat="45.44977" lon="4.75372">
        <ele>149.80000305176</ele>
        <time>2024-05-21T07:36:31.000Z</time>
      </trkpt>
      <trkpt lat="45.4497" lon="4.75371">
        <ele>149.80000305176</ele>
        <time>2024-05-21T07:36:32.000Z</time>
      </trkpt>
      <trkpt lat="45.44965" lon="4.75371">
        <ele>149.80000305176</ele>
        <time>2024-05-21T07:36:33.000Z</time>
      </trkpt>
      <trkpt lat="45.4496" lon="4.7537">
        <ele>149.80000305176</ele>
        <time>2024-05-21T07:36:34.000Z</time>
      </trkpt>
      <trkpt lat="45.44953" lon="4.7537">
        <ele>149.80000305176</ele>
        <time>2024-05-21T07:36:35.000Z</time>
      </trkpt>
      <trkpt lat="45.44947" lon="4.7537">
        <ele>149.80000305176</ele>
        <time>2024-05-21T07:36:36.000Z</time>
      </trkpt>
      <trkpt lat="45.44942" lon="4.7537">
        <ele>149.80000305176</ele>
        <time>2024-05-21T07:36:37.000Z</time>
      </trkpt>
      <trkpt lat="45.44935" lon="4.7537">
        <ele>149.80000305176</ele>
        <time>2024-05-21T07:36:38.000Z</time>
      </trkpt>
      <trkpt lat="45.4493" lon="4.7537">
        <ele>149.80000305176</ele>
        <time>2024-05-21T07:36:39.000Z</time>
      </trkpt>
      <trkpt lat="45.44925" lon="4.7537">
        <ele>149.80000305176</ele>
        <time>2024-05-21T07:36:40.000Z</time>
      </trkpt>
      <trkpt lat="45.44919" lon="4.75369">
        <ele>149.80000305176</ele>
        <time>2024-05-21T07:36:41.000Z</time>
      </trkpt>
      <trkpt lat="45.44911" lon="4.75369">
        <ele>149.80000305176</ele>
        <time>2024-05-21T07:36:42.000Z</time>
      </trkpt>
      <trkpt lat="45.44907" lon="4.75369">
        <ele>149.80000305176</ele>
        <time>2024-05-21T07:36:43.000Z</time>
      </trkpt>
      <trkpt lat="45.449" lon="4.75369">
        <ele>149.80000305176</ele>
        <time>2024-05-21T07:36:44.000Z</time>
      </trkpt>
      <trkpt lat="45.44895" lon="4.75368">
        <ele>149.80000305176</ele>
        <time>2024-05-21T07:36:45.000Z</time>
      </trkpt>
      <trkpt lat="45.4489" lon="4.75368">
        <ele>149.80000305176</ele>
        <time>2024-05-21T07:36:46.000Z</time>
      </trkpt>
      <trkpt lat="45.44883" lon="4.75367">
        <ele>149.60000610352</ele>
        <time>2024-05-21T07:36:47.000Z</time>
      </trkpt>
      <trkpt lat="45.44879" lon="4.75367">
        <ele>149.60000610352</ele>
        <time>2024-05-21T07:36:48.000Z</time>
      </trkpt>
      <trkpt lat="45.44874" lon="4.75368">
        <ele>149.60000610352</ele>
        <time>2024-05-21T07:36:49.000Z</time>
      </trkpt>
      <trkpt lat="45.44869" lon="4.75368">
        <ele>149.39999389648</ele>
        <time>2024-05-21T07:36:50.000Z</time>
      </trkpt>
      <trkpt lat="45.44862" lon="4.75369">
        <ele>149.39999389648</ele>
        <time>2024-05-21T07:36:51.000Z</time>
      </trkpt>
      <trkpt lat="45.44857" lon="4.75369">
        <ele>149.60000610352</ele>
        <time>2024-05-21T07:36:52.000Z</time>
      </trkpt>
      <trkpt lat="45.44851" lon="4.7537">
        <ele>149.60000610352</ele>
        <time>2024-05-21T07:36:53.000Z</time>
      </trkpt>
      <trkpt lat="45.44847" lon="4.7537">
        <ele>149.60000610352</ele>
        <time>2024-05-21T07:36:54.000Z</time>
      </trkpt>
      <trkpt lat="45.44841" lon="4.75371">
        <ele>149.60000610352</ele>
        <time>2024-05-21T07:36:55.000Z</time>
      </trkpt>
      <trkpt lat="45.44834" lon="4.75371">
        <ele>149.60000610352</ele>
        <time>2024-05-21T07:36:56.000Z</time>
      </trkpt>
      <trkpt lat="45.4483" lon="4.75372">
        <ele>149.60000610352</ele>
        <time>2024-05-21T07:36:57.000Z</time>
      </trkpt>
      <trkpt lat="45.44824" lon="4.75373">
        <ele>149.60000610352</ele>
        <time>2024-05-21T07:36:58.000Z</time>
      </trkpt>
      <trkpt lat="45.44818" lon="4.75374">
        <ele>149.60000610352</ele>
        <time>2024-05-21T07:36:59.000Z</time>
      </trkpt>
      <trkpt lat="45.44811" lon="4.75376">
        <ele>149.60000610352</ele>
        <time>2024-05-21T07:37:00.000Z</time>
      </trkpt>
      <trkpt lat="45.44805" lon="4.75377">
        <ele>149.60000610352</ele>
        <time>2024-05-21T07:37:01.000Z</time>
      </trkpt>
      <trkpt lat="45.44799" lon="4.75378">
        <ele>149.60000610352</ele>
        <time>2024-05-21T07:37:02.000Z</time>
      </trkpt>
      <trkpt lat="45.44793" lon="4.75379">
        <ele>149.60000610352</ele>
        <time>2024-05-21T07:37:03.000Z</time>
      </trkpt>
      <trkpt lat="45.44787" lon="4.7538">
        <ele>149.60000610352</ele>
        <time>2024-05-21T07:37:04.000Z</time>
      </trkpt>
      <trkpt lat="45.44781" lon="4.75382">
        <ele>149.39999389648</ele>
        <time>2024-05-21T07:37:05.000Z</time>
      </trkpt>
      <trkpt lat="45.44775" lon="4.75383">
        <ele>149.39999389648</ele>
        <time>2024-05-21T07:37:06.000Z</time>
      </trkpt>
      <trkpt lat="45.4477" lon="4.75384">
        <ele>149.39999389648</ele>
        <time>2024-05-21T07:37:07.000Z</time>
      </trkpt>
      <trkpt lat="45.44763" lon="4.75386">
        <ele>149.60000610352</ele>
        <time>2024-05-21T07:37:08.000Z</time>
      </trkpt>
      <trkpt lat="45.44757" lon="4.75388">
        <ele>149.60000610352</ele>
        <time>2024-05-21T07:37:09.000Z</time>
      </trkpt>
      <trkpt lat="45.44751" lon="4.7539">
        <ele>149.39999389648</ele>
        <time>2024-05-21T07:37:10.000Z</time>
      </trkpt>
      <trkpt lat="45.44745" lon="4.75392">
        <ele>149.39999389648</ele>
        <time>2024-05-21T07:37:11.000Z</time>
      </trkpt>
      <trkpt lat="45.44739" lon="4.75394">
        <ele>149.39999389648</ele>
        <time>2024-05-21T07:37:12.000Z</time>
      </trkpt>
      <trkpt lat="45.44734" lon="4.75396">
        <ele>149.39999389648</ele>
        <time>2024-05-21T07:37:13.000Z</time>
      </trkpt>
      <trkpt lat="45.44726" lon="4.75399">
        <ele>149.39999389648</ele>
        <time>2024-05-21T07:37:14.000Z</time>
      </trkpt>
      <trkpt lat="45.44721" lon="4.754">
        <ele>149.39999389648</ele>
        <time>2024-05-21T07:37:15.000Z</time>
      </trkpt>
      <trkpt lat="45.44715" lon="4.75402">
        <ele>149.39999389648</ele>
        <time>2024-05-21T07:37:16.000Z</time>
      </trkpt>
      <trkpt lat="45.44708" lon="4.75404">
        <ele>149.19999694824</ele>
        <time>2024-05-21T07:37:17.000Z</time>
      </trkpt>
      <trkpt lat="45.44702" lon="4.75407">
        <ele>149.19999694824</ele>
        <time>2024-05-21T07:37:18.000Z</time>
      </trkpt>
      <trkpt lat="45.44697" lon="4.75409">
        <ele>149.19999694824</ele>
        <time>2024-05-21T07:37:19.000Z</time>
      </trkpt>
      <trkpt lat="45.4469" lon="4.75412">
        <ele>149.19999694824</ele>
        <time>2024-05-21T07:37:20.000Z</time>
      </trkpt>
      <trkpt lat="45.44685" lon="4.75413">
        <ele>149.19999694824</ele>
        <time>2024-05-21T07:37:21.000Z</time>
      </trkpt>
      <trkpt lat="45.44679" lon="4.75416">
        <ele>149.19999694824</ele>
        <time>2024-05-21T07:37:22.000Z</time>
      </trkpt>
      <trkpt lat="45.44673" lon="4.75418">
        <ele>149.19999694824</ele>
        <time>2024-05-21T07:37:23.000Z</time>
      </trkpt>
      <trkpt lat="45.44668" lon="4.75421">
        <ele>149.19999694824</ele>
        <time>2024-05-21T07:37:24.000Z</time>
      </trkpt>
      <trkpt lat="45.44662" lon="4.75424">
        <ele>149.19999694824</ele>
        <time>2024-05-21T07:37:25.000Z</time>
      </trkpt>
      <trkpt lat="45.44655" lon="4.75427">
        <ele>149.19999694824</ele>
        <time>2024-05-21T07:37:26.000Z</time>
      </trkpt>
      <trkpt lat="45.44649" lon="4.75428">
        <ele>149.19999694824</ele>
        <time>2024-05-21T07:37:27.000Z</time>
      </trkpt>
      <trkpt lat="45.44644" lon="4.7543">
        <ele>149.19999694824</ele>
        <time>2024-05-21T07:37:28.000Z</time>
      </trkpt>
      <trkpt lat="45.44638" lon="4.75433">
        <ele>149.19999694824</ele>
        <time>2024-05-21T07:37:29.000Z</time>
      </trkpt>
      <trkpt lat="45.44631" lon="4.75435">
        <ele>149.19999694824</ele>
        <time>2024-05-21T07:37:30.000Z</time>
      </trkpt>
      <trkpt lat="45.44627" lon="4.75437">
        <ele>149.19999694824</ele>
        <time>2024-05-21T07:37:31.000Z</time>
      </trkpt>
      <trkpt lat="45.44621" lon="4.7544">
        <ele>149.19999694824</ele>
        <time>2024-05-21T07:37:32.000Z</time>
      </trkpt>
      <trkpt lat="45.44614" lon="4.75443">
        <ele>149.19999694824</ele>
        <time>2024-05-21T07:37:33.000Z</time>
      </trkpt>
      <trkpt lat="45.44609" lon="4.75444">
        <ele>149.19999694824</ele>
        <time>2024-05-21T07:37:34.000Z</time>
      </trkpt>
      <trkpt lat="45.44602" lon="4.75447">
        <ele>149.19999694824</ele>
        <time>2024-05-21T07:37:35.000Z</time>
      </trkpt>
      <trkpt lat="45.44596" lon="4.75449">
        <ele>149.19999694824</ele>
        <time>2024-05-21T07:37:36.000Z</time>
      </trkpt>
      <trkpt lat="45.44592" lon="4.75451">
        <ele>149.19999694824</ele>
        <time>2024-05-21T07:37:37.000Z</time>
      </trkpt>
      <trkpt lat="45.44586" lon="4.75454">
        <ele>149.19999694824</ele>
        <time>2024-05-21T07:37:38.000Z</time>
      </trkpt>
      <trkpt lat="45.4458" lon="4.75457">
        <ele>149.19999694824</ele>
        <time>2024-05-21T07:37:39.000Z</time>
      </trkpt>
      <trkpt lat="45.44574" lon="4.75459">
        <ele>149.39999389648</ele>
        <time>2024-05-21T07:37:40.000Z</time>
      </trkpt>
      <trkpt lat="45.44568" lon="4.75461">
        <ele>149.39999389648</ele>
        <time>2024-05-21T07:37:41.000Z</time>
      </trkpt>
      <trkpt lat="45.44561" lon="4.75465">
        <ele>149.39999389648</ele>
        <time>2024-05-21T07:37:42.000Z</time>
      </trkpt>
      <trkpt lat="45.44555" lon="4.75468">
        <ele>149.39999389648</ele>
        <time>2024-05-21T07:37:43.000Z</time>
      </trkpt>
      <trkpt lat="45.44549" lon="4.7547">
        <ele>149.39999389648</ele>
        <time>2024-05-21T07:37:44.000Z</time>
      </trkpt>
      <trkpt lat="45.44543" lon="4.75473">
        <ele>149.39999389648</ele>
        <time>2024-05-21T07:37:45.000Z</time>
      </trkpt>
      <trkpt lat="45.44538" lon="4.75476">
        <ele>149.39999389648</ele>
        <time>2024-05-21T07:37:46.000Z</time>
      </trkpt>
      <trkpt lat="45.44533" lon="4.75478">
        <ele>149.39999389648</ele>
        <time>2024-05-21T07:37:47.000Z</time>
      </trkpt>
      <trkpt lat="45.44527" lon="4.75481">
        <ele>149.39999389648</ele>
        <time>2024-05-21T07:37:48.000Z</time>
      </trkpt>
      <trkpt lat="45.4452" lon="4.75483">
        <ele>149.39999389648</ele>
        <time>2024-05-21T07:37:49.000Z</time>
      </trkpt>
      <trkpt lat="45.44514" lon="4.75486">
        <ele>149.39999389648</ele>
        <time>2024-05-21T07:37:50.000Z</time>
      </trkpt>
      <trkpt lat="45.44508" lon="4.75488">
        <ele>149.39999389648</ele>
        <time>2024-05-21T07:37:51.000Z</time>
      </trkpt>
      <trkpt lat="45.44502" lon="4.7549">
        <ele>149.39999389648</ele>
        <time>2024-05-21T07:37:52.000Z</time>
      </trkpt>
      <trkpt lat="45.44497" lon="4.75492">
        <ele>149.39999389648</ele>
        <time>2024-05-21T07:37:53.000Z</time>
      </trkpt>
      <trkpt lat="45.4449" lon="4.75494">
        <ele>149.39999389648</ele>
        <time>2024-05-21T07:37:54.000Z</time>
      </trkpt>
      <trkpt lat="45.44485" lon="4.75495">
        <ele>149.39999389648</ele>
        <time>2024-05-21T07:37:55.000Z</time>
      </trkpt>
      <trkpt lat="45.44479" lon="4.75496">
        <ele>149.39999389648</ele>
        <time>2024-05-21T07:37:56.000Z</time>
      </trkpt>
      <trkpt lat="45.44474" lon="4.75496">
        <ele>149.39999389648</ele>
        <time>2024-05-21T07:37:57.000Z</time>
      </trkpt>
      <trkpt lat="45.44467" lon="4.75496">
        <ele>149.39999389648</ele>
        <time>2024-05-21T07:37:58.000Z</time>
      </trkpt>
      <trkpt lat="45.44461" lon="4.75495">
        <ele>149.39999389648</ele>
        <time>2024-05-21T07:37:59.000Z</time>
      </trkpt>
      <trkpt lat="45.44455" lon="4.75495">
        <ele>149.39999389648</ele>
        <time>2024-05-21T07:38:00.000Z</time>
      </trkpt>
      <trkpt lat="45.44447" lon="4.75495">
        <ele>149.39999389648</ele>
        <time>2024-05-21T07:38:01.000Z</time>
      </trkpt>
      <trkpt lat="45.44441" lon="4.75494">
        <ele>149.39999389648</ele>
        <time>2024-05-21T07:38:02.000Z</time>
      </trkpt>
      <trkpt lat="45.44434" lon="4.75494">
        <ele>149.39999389648</ele>
        <time>2024-05-21T07:38:03.000Z</time>
      </trkpt>
      <trkpt lat="45.44428" lon="4.75493">
        <ele>149.39999389648</ele>
        <time>2024-05-21T07:38:04.000Z</time>
      </trkpt>
      <trkpt lat="45.44423" lon="4.75494">
        <ele>149.39999389648</ele>
        <time>2024-05-21T07:38:05.000Z</time>
      </trkpt>
      <trkpt lat="45.44415" lon="4.75495">
        <ele>149.39999389648</ele>
        <time>2024-05-21T07:38:06.000Z</time>
      </trkpt>
      <trkpt lat="45.44408" lon="4.75496">
        <ele>149.19999694824</ele>
        <time>2024-05-21T07:38:07.000Z</time>
      </trkpt>
      <trkpt lat="45.44403" lon="4.75497">
        <ele>149.19999694824</ele>
        <time>2024-05-21T07:38:08.000Z</time>
      </trkpt>
      <trkpt lat="45.44396" lon="4.75499">
        <ele>149.19999694824</ele>
        <time>2024-05-21T07:38:09.000Z</time>
      </trkpt>
      <trkpt lat="45.44391" lon="4.75501">
        <ele>149.19999694824</ele>
        <time>2024-05-21T07:38:10.000Z</time>
      </trkpt>
      <trkpt lat="45.44386" lon="4.75504">
        <ele>149.19999694824</ele>
        <time>2024-05-21T07:38:11.000Z</time>
      </trkpt>
      <trkpt lat="45.4438" lon="4.75508">
        <ele>149.19999694824</ele>
        <time>2024-05-21T07:38:12.000Z</time>
      </trkpt>
      <trkpt lat="45.44375" lon="4.75512">
        <ele>149.19999694824</ele>
        <time>2024-05-21T07:38:13.000Z</time>
      </trkpt>
      <trkpt lat="45.4437" lon="4.75517">
        <ele>149.19999694824</ele>
        <time>2024-05-21T07:38:14.000Z</time>
      </trkpt>
      <trkpt lat="45.44365" lon="4.75522">
        <ele>149.19999694824</ele>
        <time>2024-05-21T07:38:15.000Z</time>
      </trkpt>
      <trkpt lat="45.4436" lon="4.75526">
        <ele>149.19999694824</ele>
        <time>2024-05-21T07:38:16.000Z</time>
      </trkpt>
      <trkpt lat="45.44356" lon="4.7553">
        <ele>149.19999694824</ele>
        <time>2024-05-21T07:38:17.000Z</time>
      </trkpt>
      <trkpt lat="45.4435" lon="4.75534">
        <ele>149.19999694824</ele>
        <time>2024-05-21T07:38:18.000Z</time>
      </trkpt>
      <trkpt lat="45.44346" lon="4.75538">
        <ele>149.19999694824</ele>
        <time>2024-05-21T07:38:19.000Z</time>
      </trkpt>
      <trkpt lat="45.4434" lon="4.75543">
        <ele>149.19999694824</ele>
        <time>2024-05-21T07:38:20.000Z</time>
      </trkpt>
      <trkpt lat="45.44334" lon="4.75548">
        <ele>149.39999389648</ele>
        <time>2024-05-21T07:38:21.000Z</time>
      </trkpt>
      <trkpt lat="45.44328" lon="4.75551">
        <ele>149.39999389648</ele>
        <time>2024-05-21T07:38:22.000Z</time>
      </trkpt>
      <trkpt lat="45.44321" lon="4.75554">
        <ele>149.39999389648</ele>
        <time>2024-05-21T07:38:23.000Z</time>
      </trkpt>
      <trkpt lat="45.44314" lon="4.75558">
        <ele>149.39999389648</ele>
        <time>2024-05-21T07:38:24.000Z</time>
      </trkpt>
      <trkpt lat="45.44309" lon="4.75559">
        <ele>149.39999389648</ele>
        <time>2024-05-21T07:38:25.000Z</time>
      </trkpt>
      <trkpt lat="45.44303" lon="4.75561">
        <ele>149.39999389648</ele>
        <time>2024-05-21T07:38:26.000Z</time>
      </trkpt>
      <trkpt lat="45.44295" lon="4.75564">
        <ele>149.39999389648</ele>
        <time>2024-05-21T07:38:27.000Z</time>
      </trkpt>
      <trkpt lat="45.44288" lon="4.75566">
        <ele>149.19999694824</ele>
        <time>2024-05-21T07:38:28.000Z</time>
      </trkpt>
      <trkpt lat="45.44283" lon="4.75568">
        <ele>149.19999694824</ele>
        <time>2024-05-21T07:38:29.000Z</time>
      </trkpt>
      <trkpt lat="45.44276" lon="4.75569">
        <ele>149.19999694824</ele>
        <time>2024-05-21T07:38:30.000Z</time>
      </trkpt>
      <trkpt lat="45.44269" lon="4.75569">
        <ele>149.19999694824</ele>
        <time>2024-05-21T07:38:31.000Z</time>
      </trkpt>
      <trkpt lat="45.44264" lon="4.75568">
        <ele>149.19999694824</ele>
        <time>2024-05-21T07:38:32.000Z</time>
      </trkpt>
      <trkpt lat="45.44257" lon="4.75567">
        <ele>149.19999694824</ele>
        <time>2024-05-21T07:38:33.000Z</time>
      </trkpt>
      <trkpt lat="45.4425" lon="4.75566">
        <ele>149.19999694824</ele>
        <time>2024-05-21T07:38:34.000Z</time>
      </trkpt>
      <trkpt lat="45.44245" lon="4.75564">
        <ele>149</ele>
        <time>2024-05-21T07:38:35.000Z</time>
      </trkpt>
      <trkpt lat="45.44238" lon="4.7556">
        <ele>149</ele>
        <time>2024-05-21T07:38:36.000Z</time>
      </trkpt>
      <trkpt lat="45.44234" lon="4.75557">
        <ele>148.80000305176</ele>
        <time>2024-05-21T07:38:37.000Z</time>
      </trkpt>
      <trkpt lat="45.44229" lon="4.75553">
        <ele>148.80000305176</ele>
        <time>2024-05-21T07:38:38.000Z</time>
      </trkpt>
      <trkpt lat="45.44223" lon="4.75548">
        <ele>148.80000305176</ele>
        <time>2024-05-21T07:38:39.000Z</time>
      </trkpt>
      <trkpt lat="45.44218" lon="4.75544">
        <ele>148.80000305176</ele>
        <time>2024-05-21T07:38:40.000Z</time>
      </trkpt>
      <trkpt lat="45.44212" lon="4.7554">
        <ele>148.80000305176</ele>
        <time>2024-05-21T07:38:41.000Z</time>
      </trkpt>
      <trkpt lat="45.44207" lon="4.75537">
        <ele>148.80000305176</ele>
        <time>2024-05-21T07:38:42.000Z</time>
      </trkpt>
      <trkpt lat="45.44201" lon="4.75534">
        <ele>148.80000305176</ele>
        <time>2024-05-21T07:38:43.000Z</time>
      </trkpt>
      <trkpt lat="45.44195" lon="4.75532">
        <ele>148.80000305176</ele>
        <time>2024-05-21T07:38:44.000Z</time>
      </trkpt>
      <trkpt lat="45.44188" lon="4.75531">
        <ele>148.80000305176</ele>
        <time>2024-05-21T07:38:45.000Z</time>
      </trkpt>
      <trkpt lat="45.44182" lon="4.75531">
        <ele>148.80000305176</ele>
        <time>2024-05-21T07:38:46.000Z</time>
      </trkpt>
      <trkpt lat="45.44175" lon="4.7553">
        <ele>148.80000305176</ele>
        <time>2024-05-21T07:38:47.000Z</time>
      </trkpt>
      <trkpt lat="45.44169" lon="4.7553">
        <ele>148.80000305176</ele>
        <time>2024-05-21T07:38:48.000Z</time>
      </trkpt>
      <trkpt lat="45.44163" lon="4.7553">
        <ele>148.80000305176</ele>
        <time>2024-05-21T07:38:49.000Z</time>
      </trkpt>
      <trkpt lat="45.44157" lon="4.75531">
        <ele>148.80000305176</ele>
        <time>2024-05-21T07:38:50.000Z</time>
      </trkpt>
      <trkpt lat="45.44151" lon="4.75533">
        <ele>148.80000305176</ele>
        <time>2024-05-21T07:38:51.000Z</time>
      </trkpt>
      <trkpt lat="45.44145" lon="4.75536">
        <ele>148.80000305176</ele>
        <time>2024-05-21T07:38:52.000Z</time>
      </trkpt>
      <trkpt lat="45.44139" lon="4.75539">
        <ele>148.80000305176</ele>
        <time>2024-05-21T07:38:53.000Z</time>
      </trkpt>
      <trkpt lat="45.44135" lon="4.75543">
        <ele>148.80000305176</ele>
        <time>2024-05-21T07:38:54.000Z</time>
      </trkpt>
      <trkpt lat="45.4413" lon="4.7555">
        <ele>148.80000305176</ele>
        <time>2024-05-21T07:38:55.000Z</time>
      </trkpt>
      <trkpt lat="45.44126" lon="4.75557">
        <ele>148.80000305176</ele>
        <time>2024-05-21T07:38:56.000Z</time>
      </trkpt>
      <trkpt lat="45.44123" lon="4.75564">
        <ele>148.80000305176</ele>
        <time>2024-05-21T07:38:57.000Z</time>
      </trkpt>
      <trkpt lat="45.4412" lon="4.75572">
        <ele>148.80000305176</ele>
        <time>2024-05-21T07:38:58.000Z</time>
      </trkpt>
      <trkpt lat="45.44117" lon="4.7558">
        <ele>148.80000305176</ele>
        <time>2024-05-21T07:38:59.000Z</time>
      </trkpt>
      <trkpt lat="45.44115" lon="4.75586">
        <ele>148.80000305176</ele>
        <time>2024-05-21T07:39:00.000Z</time>
      </trkpt>
      <trkpt lat="45.44112" lon="4.75595">
        <ele>148.80000305176</ele>
        <time>2024-05-21T07:39:01.000Z</time>
      </trkpt>
      <trkpt lat="45.44109" lon="4.756">
        <ele>148.80000305176</ele>
        <time>2024-05-21T07:39:02.000Z</time>
      </trkpt>
      <trkpt lat="45.44106" lon="4.75608">
        <ele>149</ele>
        <time>2024-05-21T07:39:03.000Z</time>
      </trkpt>
      <trkpt lat="45.44101" lon="4.75616">
        <ele>149</ele>
        <time>2024-05-21T07:39:04.000Z</time>
      </trkpt>
      <trkpt lat="45.44098" lon="4.75622">
        <ele>149</ele>
        <time>2024-05-21T07:39:05.000Z</time>
      </trkpt>
      <trkpt lat="45.44094" lon="4.75629">
        <ele>149</ele>
        <time>2024-05-21T07:39:06.000Z</time>
      </trkpt>
      <trkpt lat="45.4409" lon="4.75635">
        <ele>149.19999694824</ele>
        <time>2024-05-21T07:39:07.000Z</time>
      </trkpt>
      <trkpt lat="45.44086" lon="4.75641">
        <ele>149.19999694824</ele>
        <time>2024-05-21T07:39:08.000Z</time>
      </trkpt>
      <trkpt lat="45.4408" lon="4.75648">
        <ele>149.19999694824</ele>
        <time>2024-05-21T07:39:09.000Z</time>
      </trkpt>
      <trkpt lat="45.44075" lon="4.75654">
        <ele>149.39999389648</ele>
        <time>2024-05-21T07:39:10.000Z</time>
      </trkpt>
      <trkpt lat="45.4407" lon="4.75658">
        <ele>149.39999389648</ele>
        <time>2024-05-21T07:39:11.000Z</time>
      </trkpt>
      <trkpt lat="45.44063" lon="4.75662">
        <ele>149.39999389648</ele>
        <time>2024-05-21T07:39:12.000Z</time>
      </trkpt>
      <trkpt lat="45.44059" lon="4.75664">
        <ele>149.39999389648</ele>
        <time>2024-05-21T07:39:13.000Z</time>
      </trkpt>
      <trkpt lat="45.44053" lon="4.75666">
        <ele>149.19999694824</ele>
        <time>2024-05-21T07:39:14.000Z</time>
      </trkpt>
      <trkpt lat="45.44045" lon="4.75668">
        <ele>149.19999694824</ele>
        <time>2024-05-21T07:39:15.000Z</time>
      </trkpt>
      <trkpt lat="45.44041" lon="4.7567">
        <ele>149</ele>
        <time>2024-05-21T07:39:16.000Z</time>
      </trkpt>
      <trkpt lat="45.44035" lon="4.75671">
        <ele>148.80000305176</ele>
        <time>2024-05-21T07:39:17.000Z</time>
      </trkpt>
      <trkpt lat="45.44029" lon="4.75674">
        <ele>148.80000305176</ele>
        <time>2024-05-21T07:39:18.000Z</time>
      </trkpt>
      <trkpt lat="45.44023" lon="4.75676">
        <ele>148.80000305176</ele>
        <time>2024-05-21T07:39:19.000Z</time>
      </trkpt>
      <trkpt lat="45.44018" lon="4.75677">
        <ele>148.80000305176</ele>
        <time>2024-05-21T07:39:20.000Z</time>
      </trkpt>
      <trkpt lat="45.44011" lon="4.75678">
        <ele>148.80000305176</ele>
        <time>2024-05-21T07:39:21.000Z</time>
      </trkpt>
      <trkpt lat="45.44006" lon="4.75678">
        <ele>148.80000305176</ele>
        <time>2024-05-21T07:39:22.000Z</time>
      </trkpt>
      <trkpt lat="45.44" lon="4.75677">
        <ele>148.80000305176</ele>
        <time>2024-05-21T07:39:23.000Z</time>
      </trkpt>
      <trkpt lat="45.43995" lon="4.75676">
        <ele>148.80000305176</ele>
        <time>2024-05-21T07:39:24.000Z</time>
      </trkpt>
      <trkpt lat="45.43988" lon="4.75675">
        <ele>148.80000305176</ele>
        <time>2024-05-21T07:39:25.000Z</time>
      </trkpt>
      <trkpt lat="45.43982" lon="4.75674">
        <ele>148.80000305176</ele>
        <time>2024-05-21T07:39:26.000Z</time>
      </trkpt>
      <trkpt lat="45.43976" lon="4.75673">
        <ele>148.80000305176</ele>
        <time>2024-05-21T07:39:27.000Z</time>
      </trkpt>
      <trkpt lat="45.4397" lon="4.75672">
        <ele>148.80000305176</ele>
        <time>2024-05-21T07:39:28.000Z</time>
      </trkpt>
      <trkpt lat="45.43964" lon="4.75671">
        <ele>148.80000305176</ele>
        <time>2024-05-21T07:39:29.000Z</time>
      </trkpt>
      <trkpt lat="45.43958" lon="4.75669">
        <ele>149</ele>
        <time>2024-05-21T07:39:30.000Z</time>
      </trkpt>
      <trkpt lat="45.43952" lon="4.75667">
        <ele>149</ele>
        <time>2024-05-21T07:39:31.000Z</time>
      </trkpt>
      <trkpt lat="45.43947" lon="4.75665">
        <ele>149</ele>
        <time>2024-05-21T07:39:32.000Z</time>
      </trkpt>
      <trkpt lat="45.4394" lon="4.75663">
        <ele>149</ele>
        <time>2024-05-21T07:39:33.000Z</time>
      </trkpt>
      <trkpt lat="45.43934" lon="4.75661">
        <ele>149</ele>
        <time>2024-05-21T07:39:34.000Z</time>
      </trkpt>
      <trkpt lat="45.4393" lon="4.7566">
        <ele>148.80000305176</ele>
        <time>2024-05-21T07:39:35.000Z</time>
      </trkpt>
      <trkpt lat="45.43923" lon="4.75656">
        <ele>148.80000305176</ele>
        <time>2024-05-21T07:39:36.000Z</time>
      </trkpt>
      <trkpt lat="45.43917" lon="4.75653">
        <ele>148.80000305176</ele>
        <time>2024-05-21T07:39:37.000Z</time>
      </trkpt>
      <trkpt lat="45.43912" lon="4.75651">
        <ele>148.80000305176</ele>
        <time>2024-05-21T07:39:38.000Z</time>
      </trkpt>
      <trkpt lat="45.43906" lon="4.75648">
        <ele>148.80000305176</ele>
        <time>2024-05-21T07:39:39.000Z</time>
      </trkpt>
      <trkpt lat="45.439" lon="4.75646">
        <ele>148.60000610352</ele>
        <time>2024-05-21T07:39:40.000Z</time>
      </trkpt>
      <trkpt lat="45.43894" lon="4.75644">
        <ele>148.60000610352</ele>
        <time>2024-05-21T07:39:41.000Z</time>
      </trkpt>
      <trkpt lat="45.43887" lon="4.75643">
        <ele>148.60000610352</ele>
        <time>2024-05-21T07:39:42.000Z</time>
      </trkpt>
      <trkpt lat="45.43881" lon="4.75643">
        <ele>148.60000610352</ele>
        <time>2024-05-21T07:39:43.000Z</time>
      </trkpt>
      <trkpt lat="45.43876" lon="4.75642">
        <ele>148.80000305176</ele>
        <time>2024-05-21T07:39:44.000Z</time>
      </trkpt>
      <trkpt lat="45.4387" lon="4.75641">
        <ele>148.80000305176</ele>
        <time>2024-05-21T07:39:45.000Z</time>
      </trkpt>
      <trkpt lat="45.43864" lon="4.75642">
        <ele>148.80000305176</ele>
        <time>2024-05-21T07:39:46.000Z</time>
      </trkpt>
      <trkpt lat="45.43858" lon="4.75641">
        <ele>148.80000305176</ele>
        <time>2024-05-21T07:39:47.000Z</time>
      </trkpt>
      <trkpt lat="45.43852" lon="4.75642">
        <ele>148.80000305176</ele>
        <time>2024-05-21T07:39:48.000Z</time>
      </trkpt>
      <trkpt lat="45.43847" lon="4.75643">
        <ele>148.80000305176</ele>
        <time>2024-05-21T07:39:49.000Z</time>
      </trkpt>
      <trkpt lat="45.43841" lon="4.75643">
        <ele>148.80000305176</ele>
        <time>2024-05-21T07:39:50.000Z</time>
      </trkpt>
      <trkpt lat="45.43834" lon="4.75644">
        <ele>148.60000610352</ele>
        <time>2024-05-21T07:39:51.000Z</time>
      </trkpt>
      <trkpt lat="45.43829" lon="4.75645">
        <ele>148.60000610352</ele>
        <time>2024-05-21T07:39:52.000Z</time>
      </trkpt>
      <trkpt lat="45.43822" lon="4.75647">
        <ele>148.60000610352</ele>
        <time>2024-05-21T07:39:53.000Z</time>
      </trkpt>
      <trkpt lat="45.43816" lon="4.75649">
        <ele>148.60000610352</ele>
        <time>2024-05-21T07:39:54.000Z</time>
      </trkpt>
      <trkpt lat="45.43811" lon="4.7565">
        <ele>148.60000610352</ele>
        <time>2024-05-21T07:39:55.000Z</time>
      </trkpt>
      <trkpt lat="45.43805" lon="4.75653">
        <ele>148.60000610352</ele>
        <time>2024-05-21T07:39:56.000Z</time>
      </trkpt>
      <trkpt lat="45.43799" lon="4.75656">
        <ele>148.60000610352</ele>
        <time>2024-05-21T07:39:57.000Z</time>
      </trkpt>
      <trkpt lat="45.43794" lon="4.7566">
        <ele>148.60000610352</ele>
        <time>2024-05-21T07:39:58.000Z</time>
      </trkpt>
      <trkpt lat="45.43788" lon="4.75663">
        <ele>148.60000610352</ele>
        <time>2024-05-21T07:39:59.000Z</time>
      </trkpt>
      <trkpt lat="45.43783" lon="4.75666">
        <ele>148.80000305176</ele>
        <time>2024-05-21T07:40:00.000Z</time>
      </trkpt>
      <trkpt lat="45.43777" lon="4.75669">
        <ele>148.80000305176</ele>
        <time>2024-05-21T07:40:01.000Z</time>
      </trkpt>
      <trkpt lat="45.43773" lon="4.7567">
        <ele>148.80000305176</ele>
        <time>2024-05-21T07:40:02.000Z</time>
      </trkpt>
      <trkpt lat="45.43767" lon="4.75672">
        <ele>148.80000305176</ele>
        <time>2024-05-21T07:40:03.000Z</time>
      </trkpt>
      <trkpt lat="45.43762" lon="4.75674">
        <ele>148.80000305176</ele>
        <time>2024-05-21T07:40:04.000Z</time>
      </trkpt>
      <trkpt lat="45.43757" lon="4.75679">
        <ele>148.80000305176</ele>
        <time>2024-05-21T07:40:05.000Z</time>
      </trkpt>
      <trkpt lat="45.43751" lon="4.75683">
        <ele>148.80000305176</ele>
        <time>2024-05-21T07:40:06.000Z</time>
      </trkpt>
      <trkpt lat="45.43747" lon="4.75689">
        <ele>148.80000305176</ele>
        <time>2024-05-21T07:40:07.000Z</time>
      </trkpt>
      <trkpt lat="45.43742" lon="4.75692">
        <ele>148.80000305176</ele>
        <time>2024-05-21T07:40:08.000Z</time>
      </trkpt>
      <trkpt lat="45.43737" lon="4.75699">
        <ele>148.80000305176</ele>
        <time>2024-05-21T07:40:09.000Z</time>
      </trkpt>
      <trkpt lat="45.43734" lon="4.75705">
        <ele>149</ele>
        <time>2024-05-21T07:40:10.000Z</time>
      </trkpt>
      <trkpt lat="45.4373" lon="4.75712">
        <ele>149</ele>
        <time>2024-05-21T07:40:11.000Z</time>
      </trkpt>
      <trkpt lat="45.43725" lon="4.75719">
        <ele>149</ele>
        <time>2024-05-21T07:40:12.000Z</time>
      </trkpt>
      <trkpt lat="45.43721" lon="4.75725">
        <ele>149</ele>
        <time>2024-05-21T07:40:13.000Z</time>
      </trkpt>
      <trkpt lat="45.43717" lon="4.75731">
        <ele>149.19999694824</ele>
        <time>2024-05-21T07:40:14.000Z</time>
      </trkpt>
      <trkpt lat="45.4371" lon="4.75735">
        <ele>149.19999694824</ele>
        <time>2024-05-21T07:40:15.000Z</time>
      </trkpt>
      <trkpt lat="45.43705" lon="4.75739">
        <ele>149.19999694824</ele>
        <time>2024-05-21T07:40:16.000Z</time>
      </trkpt>
      <trkpt lat="45.437" lon="4.75741">
        <ele>149.19999694824</ele>
        <time>2024-05-21T07:40:17.000Z</time>
      </trkpt>
      <trkpt lat="45.43694" lon="4.75744">
        <ele>149</ele>
        <time>2024-05-21T07:40:18.000Z</time>
      </trkpt>
      <trkpt lat="45.43691" lon="4.75748">
        <ele>149</ele>
        <time>2024-05-21T07:40:19.000Z</time>
      </trkpt>
      <trkpt lat="45.43685" lon="4.75751">
        <ele>149</ele>
        <time>2024-05-21T07:40:20.000Z</time>
      </trkpt>
      <trkpt lat="45.43679" lon="4.75754">
        <ele>149</ele>
        <time>2024-05-21T07:40:21.000Z</time>
      </trkpt>
      <trkpt lat="45.43674" lon="4.75757">
        <ele>149</ele>
        <time>2024-05-21T07:40:22.000Z</time>
      </trkpt>
      <trkpt lat="45.43667" lon="4.75758">
        <ele>149</ele>
        <time>2024-05-21T07:40:23.000Z</time>
      </trkpt>
      <trkpt lat="45.43661" lon="4.75759">
        <ele>149</ele>
        <time>2024-05-21T07:40:24.000Z</time>
      </trkpt>
      <trkpt lat="45.43656" lon="4.7576">
        <ele>149</ele>
        <time>2024-05-21T07:40:25.000Z</time>
      </trkpt>
      <trkpt lat="45.4365" lon="4.75761">
        <ele>149</ele>
        <time>2024-05-21T07:40:26.000Z</time>
      </trkpt>
      <trkpt lat="45.43644" lon="4.75761">
        <ele>149</ele>
        <time>2024-05-21T07:40:27.000Z</time>
      </trkpt>
      <trkpt lat="45.43638" lon="4.75761">
        <ele>149</ele>
        <time>2024-05-21T07:40:28.000Z</time>
      </trkpt>
      <trkpt lat="45.43632" lon="4.75762">
        <ele>149</ele>
        <time>2024-05-21T07:40:29.000Z</time>
      </trkpt>
      <trkpt lat="45.43627" lon="4.75762">
        <ele>148.80000305176</ele>
        <time>2024-05-21T07:40:30.000Z</time>
      </trkpt>
      <trkpt lat="45.4362" lon="4.75762">
        <ele>148.80000305176</ele>
        <time>2024-05-21T07:40:31.000Z</time>
      </trkpt>
      <trkpt lat="45.43615" lon="4.75761">
        <ele>148.80000305176</ele>
        <time>2024-05-21T07:40:32.000Z</time>
      </trkpt>
      <trkpt lat="45.43609" lon="4.7576">
        <ele>148.80000305176</ele>
        <time>2024-05-21T07:40:33.000Z</time>
      </trkpt>
      <trkpt lat="45.43601" lon="4.75758">
        <ele>148.80000305176</ele>
        <time>2024-05-21T07:40:34.000Z</time>
      </trkpt>
      <trkpt lat="45.43597" lon="4.75757">
        <ele>148.80000305176</ele>
        <time>2024-05-21T07:40:35.000Z</time>
      </trkpt>
      <trkpt lat="45.43589" lon="4.75756">
        <ele>148.80000305176</ele>
        <time>2024-05-21T07:40:36.000Z</time>
      </trkpt>
      <trkpt lat="45.43583" lon="4.75754">
        <ele>148.80000305176</ele>
        <time>2024-05-21T07:40:37.000Z</time>
      </trkpt>
      <trkpt lat="45.43578" lon="4.75753">
        <ele>148.80000305176</ele>
        <time>2024-05-21T07:40:38.000Z</time>
      </trkpt>
      <trkpt lat="45.43571" lon="4.75751">
        <ele>148.80000305176</ele>
        <time>2024-05-21T07:40:39.000Z</time>
      </trkpt>
      <trkpt lat="45.43565" lon="4.75749">
        <ele>148.80000305176</ele>
        <time>2024-05-21T07:40:40.000Z</time>
      </trkpt>
      <trkpt lat="45.4356" lon="4.75748">
        <ele>148.80000305176</ele>
        <time>2024-05-21T07:40:41.000Z</time>
      </trkpt>
      <trkpt lat="45.43553" lon="4.75747">
        <ele>148.80000305176</ele>
        <time>2024-05-21T07:40:42.000Z</time>
      </trkpt>
      <trkpt lat="45.43547" lon="4.75745">
        <ele>148.60000610352</ele>
        <time>2024-05-21T07:40:43.000Z</time>
      </trkpt>
      <trkpt lat="45.43541" lon="4.75743">
        <ele>148.60000610352</ele>
        <time>2024-05-21T07:40:44.000Z</time>
      </trkpt>
      <trkpt lat="45.43535" lon="4.75741">
        <ele>148.60000610352</ele>
        <time>2024-05-21T07:40:45.000Z</time>
      </trkpt>
      <trkpt lat="45.43529" lon="4.75739">
        <ele>148.60000610352</ele>
        <time>2024-05-21T07:40:46.000Z</time>
      </trkpt>
      <trkpt lat="45.43524" lon="4.75738">
        <ele>148.60000610352</ele>
        <time>2024-05-21T07:40:47.000Z</time>
      </trkpt>
      <trkpt lat="45.43518" lon="4.75736">
        <ele>148.60000610352</ele>
        <time>2024-05-21T07:40:48.000Z</time>
      </trkpt>
      <trkpt lat="45.43512" lon="4.75733">
        <ele>148.60000610352</ele>
        <time>2024-05-21T07:40:49.000Z</time>
      </trkpt>
      <trkpt lat="45.43506" lon="4.75731">
        <ele>148.60000610352</ele>
        <time>2024-05-21T07:40:50.000Z</time>
      </trkpt>
      <trkpt lat="45.43499" lon="4.75728">
        <ele>148.60000610352</ele>
        <time>2024-05-21T07:40:51.000Z</time>
      </trkpt>
      <trkpt lat="45.43492" lon="4.75725">
        <ele>148.60000610352</ele>
        <time>2024-05-21T07:40:52.000Z</time>
      </trkpt>
      <trkpt lat="45.43486" lon="4.75723">
        <ele>148.60000610352</ele>
        <time>2024-05-21T07:40:53.000Z</time>
      </trkpt>
      <trkpt lat="45.4348" lon="4.7572">
        <ele>148.60000610352</ele>
        <time>2024-05-21T07:40:54.000Z</time>
      </trkpt>
      <trkpt lat="45.43474" lon="4.75717">
        <ele>148.60000610352</ele>
        <time>2024-05-21T07:40:55.000Z</time>
      </trkpt>
      <trkpt lat="45.43468" lon="4.75714">
        <ele>148.39999389648</ele>
        <time>2024-05-21T07:40:56.000Z</time>
      </trkpt>
      <trkpt lat="45.43463" lon="4.7571">
        <ele>148.39999389648</ele>
        <time>2024-05-21T07:40:57.000Z</time>
      </trkpt>
      <trkpt lat="45.43457" lon="4.75706">
        <ele>148.39999389648</ele>
        <time>2024-05-21T07:40:58.000Z</time>
      </trkpt>
      <trkpt lat="45.43453" lon="4.75703">
        <ele>148.39999389648</ele>
        <time>2024-05-21T07:40:59.000Z</time>
      </trkpt>
      <trkpt lat="45.43447" lon="4.75698">
        <ele>148.39999389648</ele>
        <time>2024-05-21T07:41:00.000Z</time>
      </trkpt>
      <trkpt lat="45.43441" lon="4.75693">
        <ele>148.39999389648</ele>
        <time>2024-05-21T07:41:01.000Z</time>
      </trkpt>
      <trkpt lat="45.43436" lon="4.75687">
        <ele>148.39999389648</ele>
        <time>2024-05-21T07:41:02.000Z</time>
      </trkpt>
      <trkpt lat="45.43431" lon="4.75681">
        <ele>148.60000610352</ele>
        <time>2024-05-21T07:41:03.000Z</time>
      </trkpt>
      <trkpt lat="45.43427" lon="4.75675">
        <ele>148.60000610352</ele>
        <time>2024-05-21T07:41:04.000Z</time>
      </trkpt>
      <trkpt lat="45.43423" lon="4.7567">
        <ele>148.60000610352</ele>
        <time>2024-05-21T07:41:05.000Z</time>
      </trkpt>
      <trkpt lat="45.43419" lon="4.75664">
        <ele>148.60000610352</ele>
        <time>2024-05-21T07:41:06.000Z</time>
      </trkpt>
      <trkpt lat="45.43414" lon="4.75656">
        <ele>148.60000610352</ele>
        <time>2024-05-21T07:41:07.000Z</time>
      </trkpt>
      <trkpt lat="45.43411" lon="4.7565">
        <ele>148.60000610352</ele>
        <time>2024-05-21T07:41:08.000Z</time>
      </trkpt>
      <trkpt lat="45.43406" lon="4.75642">
        <ele>148.60000610352</ele>
        <time>2024-05-21T07:41:09.000Z</time>
      </trkpt>
      <trkpt lat="45.43402" lon="4.75637">
        <ele>148.39999389648</ele>
        <time>2024-05-21T07:41:10.000Z</time>
      </trkpt>
      <trkpt lat="45.43398" lon="4.75631">
        <ele>148.39999389648</ele>
        <time>2024-05-21T07:41:11.000Z</time>
      </trkpt>
      <trkpt lat="45.43393" lon="4.75625">
        <ele>148.39999389648</ele>
        <time>2024-05-21T07:41:12.000Z</time>
      </trkpt>
      <trkpt lat="45.43386" lon="4.7562">
        <ele>148.39999389648</ele>
        <time>2024-05-21T07:41:13.000Z</time>
      </trkpt>
      <trkpt lat="45.43382" lon="4.75616">
        <ele>148.60000610352</ele>
        <time>2024-05-21T07:41:14.000Z</time>
      </trkpt>
      <trkpt lat="45.43375" lon="4.75611">
        <ele>148.60000610352</ele>
        <time>2024-05-21T07:41:15.000Z</time>
      </trkpt>
      <trkpt lat="45.43369" lon="4.75607">
        <ele>148.60000610352</ele>
        <time>2024-05-21T07:41:16.000Z</time>
      </trkpt>
      <trkpt lat="45.43364" lon="4.75604">
        <ele>148.60000610352</ele>
        <time>2024-05-21T07:41:17.000Z</time>
      </trkpt>
      <trkpt lat="45.43357" lon="4.75601">
        <ele>148.60000610352</ele>
        <time>2024-05-21T07:41:18.000Z</time>
      </trkpt>
      <trkpt lat="45.43351" lon="4.75597">
        <ele>148.60000610352</ele>
        <time>2024-05-21T07:41:19.000Z</time>
      </trkpt>
      <trkpt lat="45.43347" lon="4.75595">
        <ele>148.60000610352</ele>
        <time>2024-05-21T07:41:20.000Z</time>
      </trkpt>
      <trkpt lat="45.4334" lon="4.75592">
        <ele>148.39999389648</ele>
        <time>2024-05-21T07:41:21.000Z</time>
      </trkpt>
      <trkpt lat="45.43335" lon="4.75589">
        <ele>148.39999389648</ele>
        <time>2024-05-21T07:41:22.000Z</time>
      </trkpt>
      <trkpt lat="45.4333" lon="4.75586">
        <ele>148.39999389648</ele>
        <time>2024-05-21T07:41:23.000Z</time>
      </trkpt>
      <trkpt lat="45.43323" lon="4.75582">
        <ele>148.39999389648</ele>
        <time>2024-05-21T07:41:24.000Z</time>
      </trkpt>
      <trkpt lat="45.43318" lon="4.75579">
        <ele>148.39999389648</ele>
        <time>2024-05-21T07:41:25.000Z</time>
      </trkpt>
      <trkpt lat="45.43312" lon="4.75575">
        <ele>148.39999389648</ele>
        <time>2024-05-21T07:41:26.000Z</time>
      </trkpt>
      <trkpt lat="45.43305" lon="4.75571">
        <ele>148.39999389648</ele>
        <time>2024-05-21T07:41:27.000Z</time>
      </trkpt>
      <trkpt lat="45.43299" lon="4.75567">
        <ele>148.39999389648</ele>
        <time>2024-05-21T07:41:28.000Z</time>
      </trkpt>
      <trkpt lat="45.43295" lon="4.75564">
        <ele>148.39999389648</ele>
        <time>2024-05-21T07:41:29.000Z</time>
      </trkpt>
      <trkpt lat="45.43289" lon="4.7556">
        <ele>148.39999389648</ele>
        <time>2024-05-21T07:41:30.000Z</time>
      </trkpt>
      <trkpt lat="45.43284" lon="4.75557">
        <ele>148.39999389648</ele>
        <time>2024-05-21T07:41:31.000Z</time>
      </trkpt>
      <trkpt lat="45.43278" lon="4.75553">
        <ele>148.39999389648</ele>
        <time>2024-05-21T07:41:32.000Z</time>
      </trkpt>
      <trkpt lat="45.43273" lon="4.75549">
        <ele>148.39999389648</ele>
        <time>2024-05-21T07:41:33.000Z</time>
      </trkpt>
      <trkpt lat="45.43266" lon="4.75545">
        <ele>148.39999389648</ele>
        <time>2024-05-21T07:41:34.000Z</time>
      </trkpt>
      <trkpt lat="45.43262" lon="4.75542">
        <ele>148.39999389648</ele>
        <time>2024-05-21T07:41:35.000Z</time>
      </trkpt>
      <trkpt lat="45.43255" lon="4.75537">
        <ele>148.39999389648</ele>
        <time>2024-05-21T07:41:36.000Z</time>
      </trkpt>
      <trkpt lat="45.4325" lon="4.75533">
        <ele>148.39999389648</ele>
        <time>2024-05-21T07:41:37.000Z</time>
      </trkpt>
      <trkpt lat="45.43246" lon="4.75529">
        <ele>148.39999389648</ele>
        <time>2024-05-21T07:41:38.000Z</time>
      </trkpt>
      <trkpt lat="45.43241" lon="4.75525">
        <ele>148.39999389648</ele>
        <time>2024-05-21T07:41:39.000Z</time>
      </trkpt>
      <trkpt lat="45.43234" lon="4.7552">
        <ele>148.39999389648</ele>
        <time>2024-05-21T07:41:40.000Z</time>
      </trkpt>
      <trkpt lat="45.4323" lon="4.75516">
        <ele>148.39999389648</ele>
        <time>2024-05-21T07:41:41.000Z</time>
      </trkpt>
      <trkpt lat="45.43225" lon="4.75512">
        <ele>148.39999389648</ele>
        <time>2024-05-21T07:41:42.000Z</time>
      </trkpt>
      <trkpt lat="45.43218" lon="4.75507">
        <ele>148.60000610352</ele>
        <time>2024-05-21T07:41:43.000Z</time>
      </trkpt>
      <trkpt lat="45.43215" lon="4.75504">
        <ele>148.60000610352</ele>
        <time>2024-05-21T07:41:44.000Z</time>
      </trkpt>
      <trkpt lat="45.4321" lon="4.75499">
        <ele>148.60000610352</ele>
        <time>2024-05-21T07:41:45.000Z</time>
      </trkpt>
      <trkpt lat="45.43205" lon="4.75495">
        <ele>148.60000610352</ele>
        <time>2024-05-21T07:41:46.000Z</time>
      </trkpt>
      <trkpt lat="45.432" lon="4.7549">
        <ele>148.60000610352</ele>
        <time>2024-05-21T07:41:47.000Z</time>
      </trkpt>
      <trkpt lat="45.43195" lon="4.75484">
        <ele>148.39999389648</ele>
        <time>2024-05-21T07:41:48.000Z</time>
      </trkpt>
      <trkpt lat="45.43191" lon="4.75479">
        <ele>148.39999389648</ele>
        <time>2024-05-21T07:41:49.000Z</time>
      </trkpt>
      <trkpt lat="45.43187" lon="4.75474">
        <ele>148.39999389648</ele>
        <time>2024-05-21T07:41:50.000Z</time>
      </trkpt>
      <trkpt lat="45.43182" lon="4.75468">
        <ele>148.39999389648</ele>
        <time>2024-05-21T07:41:51.000Z</time>
      </trkpt>
      <trkpt lat="45.43177" lon="4.75463">
        <ele>148.39999389648</ele>
        <time>2024-05-21T07:41:52.000Z</time>
      </trkpt>
      <trkpt lat="45.43174" lon="4.75458">
        <ele>148.39999389648</ele>
        <time>2024-05-21T07:41:53.000Z</time>
      </trkpt>
      <trkpt lat="45.43169" lon="4.75453">
        <ele>148.39999389648</ele>
        <time>2024-05-21T07:41:54.000Z</time>
      </trkpt>
      <trkpt lat="45.43164" lon="4.75446">
        <ele>148.19999694824</ele>
        <time>2024-05-21T07:41:55.000Z</time>
      </trkpt>
      <trkpt lat="45.43159" lon="4.75441">
        <ele>148.19999694824</ele>
        <time>2024-05-21T07:41:56.000Z</time>
      </trkpt>
      <trkpt lat="45.43155" lon="4.75437">
        <ele>148.19999694824</ele>
        <time>2024-05-21T07:41:57.000Z</time>
      </trkpt>
      <trkpt lat="45.4315" lon="4.7543">
        <ele>148.19999694824</ele>
        <time>2024-05-21T07:41:58.000Z</time>
      </trkpt>
      <trkpt lat="45.43146" lon="4.75426">
        <ele>148.19999694824</ele>
        <time>2024-05-21T07:41:59.000Z</time>
      </trkpt>
      <trkpt lat="45.43141" lon="4.75421">
        <ele>148</ele>
        <time>2024-05-21T07:42:00.000Z</time>
      </trkpt>
      <trkpt lat="45.43137" lon="4.75415">
        <ele>148</ele>
        <time>2024-05-21T07:42:01.000Z</time>
      </trkpt>
      <trkpt lat="45.43132" lon="4.75409">
        <ele>148</ele>
        <time>2024-05-21T07:42:02.000Z</time>
      </trkpt>
      <trkpt lat="45.43128" lon="4.75404">
        <ele>148</ele>
        <time>2024-05-21T07:42:03.000Z</time>
      </trkpt>
      <trkpt lat="45.43123" lon="4.75397">
        <ele>148</ele>
        <time>2024-05-21T07:42:04.000Z</time>
      </trkpt>
      <trkpt lat="45.43119" lon="4.75391">
        <ele>148</ele>
        <time>2024-05-21T07:42:05.000Z</time>
      </trkpt>
      <trkpt lat="45.43116" lon="4.75386">
        <ele>148.19999694824</ele>
        <time>2024-05-21T07:42:06.000Z</time>
      </trkpt>
      <trkpt lat="45.43112" lon="4.75378">
        <ele>148.39999389648</ele>
        <time>2024-05-21T07:42:07.000Z</time>
      </trkpt>
      <trkpt lat="45.43108" lon="4.75371">
        <ele>148.39999389648</ele>
        <time>2024-05-21T07:42:08.000Z</time>
      </trkpt>
      <trkpt lat="45.43105" lon="4.75365">
        <ele>148.39999389648</ele>
        <time>2024-05-21T07:42:09.000Z</time>
      </trkpt>
      <trkpt lat="45.43101" lon="4.75357">
        <ele>148.60000610352</ele>
        <time>2024-05-21T07:42:10.000Z</time>
      </trkpt>
      <trkpt lat="45.43098" lon="4.75352">
        <ele>148.60000610352</ele>
        <time>2024-05-21T07:42:11.000Z</time>
      </trkpt>
      <trkpt lat="45.43093" lon="4.75344">
        <ele>148.39999389648</ele>
        <time>2024-05-21T07:42:12.000Z</time>
      </trkpt>
      <trkpt lat="45.4309" lon="4.75338">
        <ele>148.39999389648</ele>
        <time>2024-05-21T07:42:13.000Z</time>
      </trkpt>
      <trkpt lat="45.43086" lon="4.75332">
        <ele>148.60000610352</ele>
        <time>2024-05-21T07:42:14.000Z</time>
      </trkpt>
      <trkpt lat="45.43083" lon="4.75324">
        <ele>148.60000610352</ele>
        <time>2024-05-21T07:42:15.000Z</time>
      </trkpt>
      <trkpt lat="45.43079" lon="4.75317">
        <ele>148.60000610352</ele>
        <time>2024-05-21T07:42:16.000Z</time>
      </trkpt>
      <trkpt lat="45.43074" lon="4.75309">
        <ele>148.60000610352</ele>
        <time>2024-05-21T07:42:17.000Z</time>
      </trkpt>
      <trkpt lat="45.4307" lon="4.75302">
        <ele>148.60000610352</ele>
        <time>2024-05-21T07:42:18.000Z</time>
      </trkpt>
      <trkpt lat="45.43067" lon="4.75297">
        <ele>148.60000610352</ele>
        <time>2024-05-21T07:42:19.000Z</time>
      </trkpt>
      <trkpt lat="45.43063" lon="4.75289">
        <ele>148.60000610352</ele>
        <time>2024-05-21T07:42:20.000Z</time>
      </trkpt>
      <trkpt lat="45.43059" lon="4.75282">
        <ele>148.60000610352</ele>
        <time>2024-05-21T07:42:21.000Z</time>
      </trkpt>
      <trkpt lat="45.43056" lon="4.75276">
        <ele>148.60000610352</ele>
        <time>2024-05-21T07:42:22.000Z</time>
      </trkpt>
      <trkpt lat="45.43052" lon="4.75269">
        <ele>148.60000610352</ele>
        <time>2024-05-21T07:42:23.000Z</time>
      </trkpt>
      <trkpt lat="45.43047" lon="4.75261">
        <ele>148.60000610352</ele>
        <time>2024-05-21T07:42:24.000Z</time>
      </trkpt>
      <trkpt lat="45.43044" lon="4.75256">
        <ele>148.60000610352</ele>
        <time>2024-05-21T07:42:25.000Z</time>
      </trkpt>
      <trkpt lat="45.4304" lon="4.75249">
        <ele>148.60000610352</ele>
        <time>2024-05-21T07:42:26.000Z</time>
      </trkpt>
      <trkpt lat="45.43035" lon="4.75241">
        <ele>148.60000610352</ele>
        <time>2024-05-21T07:42:27.000Z</time>
      </trkpt>
      <trkpt lat="45.43031" lon="4.75236">
        <ele>148.60000610352</ele>
        <time>2024-05-21T07:42:28.000Z</time>
      </trkpt>
      <trkpt lat="45.43027" lon="4.75229">
        <ele>148.60000610352</ele>
        <time>2024-05-21T07:42:29.000Z</time>
      </trkpt>
      <trkpt lat="45.43023" lon="4.75222">
        <ele>148.60000610352</ele>
        <time>2024-05-21T07:42:30.000Z</time>
      </trkpt>
      <trkpt lat="45.43019" lon="4.75216">
        <ele>148.60000610352</ele>
        <time>2024-05-21T07:42:31.000Z</time>
      </trkpt>
      <trkpt lat="45.43015" lon="4.7521">
        <ele>148.60000610352</ele>
        <time>2024-05-21T07:42:32.000Z</time>
      </trkpt>
      <trkpt lat="45.43011" lon="4.75203">
        <ele>148.60000610352</ele>
        <time>2024-05-21T07:42:33.000Z</time>
      </trkpt>
      <trkpt lat="45.43007" lon="4.75196">
        <ele>148.60000610352</ele>
        <time>2024-05-21T07:42:34.000Z</time>
      </trkpt>
      <trkpt lat="45.43003" lon="4.7519">
        <ele>148.60000610352</ele>
        <time>2024-05-21T07:42:35.000Z</time>
      </trkpt>
      <trkpt lat="45.42998" lon="4.75183">
        <ele>148.60000610352</ele>
        <time>2024-05-21T07:42:36.000Z</time>
      </trkpt>
      <trkpt lat="45.42994" lon="4.75177">
        <ele>148.60000610352</ele>
        <time>2024-05-21T07:42:37.000Z</time>
      </trkpt>
      <trkpt lat="45.4299" lon="4.75171">
        <ele>148.60000610352</ele>
        <time>2024-05-21T07:42:38.000Z</time>
      </trkpt>
      <trkpt lat="45.42985" lon="4.75165">
        <ele>148.60000610352</ele>
        <time>2024-05-21T07:42:39.000Z</time>
      </trkpt>
      <trkpt lat="45.42981" lon="4.75158">
        <ele>148.60000610352</ele>
        <time>2024-05-21T07:42:40.000Z</time>
      </trkpt>
      <trkpt lat="45.42976" lon="4.75152">
        <ele>148.60000610352</ele>
        <time>2024-05-21T07:42:41.000Z</time>
      </trkpt>
      <trkpt lat="45.42971" lon="4.75145">
        <ele>148.60000610352</ele>
        <time>2024-05-21T07:42:42.000Z</time>
      </trkpt>
      <trkpt lat="45.42968" lon="4.7514">
        <ele>148.60000610352</ele>
        <time>2024-05-21T07:42:43.000Z</time>
      </trkpt>
      <trkpt lat="45.42962" lon="4.75133">
        <ele>148.60000610352</ele>
        <time>2024-05-21T07:42:44.000Z</time>
      </trkpt>
      <trkpt lat="45.42958" lon="4.75127">
        <ele>148.60000610352</ele>
        <time>2024-05-21T07:42:45.000Z</time>
      </trkpt>
      <trkpt lat="45.42954" lon="4.75122">
        <ele>148.60000610352</ele>
        <time>2024-05-21T07:42:46.000Z</time>
      </trkpt>
      <trkpt lat="45.4295" lon="4.75116">
        <ele>148.60000610352</ele>
        <time>2024-05-21T07:42:47.000Z</time>
      </trkpt>
      <trkpt lat="45.42945" lon="4.75109">
        <ele>148.39999389648</ele>
        <time>2024-05-21T07:42:48.000Z</time>
      </trkpt>
      <trkpt lat="45.42941" lon="4.75104">
        <ele>148.39999389648</ele>
        <time>2024-05-21T07:42:49.000Z</time>
      </trkpt>
      <trkpt lat="45.42936" lon="4.75097">
        <ele>148.39999389648</ele>
        <time>2024-05-21T07:42:50.000Z</time>
      </trkpt>
      <trkpt lat="45.42932" lon="4.75092">
        <ele>148.39999389648</ele>
        <time>2024-05-21T07:42:51.000Z</time>
      </trkpt>
      <trkpt lat="45.42927" lon="4.75086">
        <ele>148.39999389648</ele>
        <time>2024-05-21T07:42:52.000Z</time>
      </trkpt>
      <trkpt lat="45.42922" lon="4.75079">
        <ele>148.19999694824</ele>
        <time>2024-05-21T07:42:53.000Z</time>
      </trkpt>
      <trkpt lat="45.42918" lon="4.75074">
        <ele>148.19999694824</ele>
        <time>2024-05-21T07:42:54.000Z</time>
      </trkpt>
      <trkpt lat="45.42913" lon="4.75068">
        <ele>148.19999694824</ele>
        <time>2024-05-21T07:42:55.000Z</time>
      </trkpt>
      <trkpt lat="45.42909" lon="4.75062">
        <ele>148.19999694824</ele>
        <time>2024-05-21T07:42:56.000Z</time>
      </trkpt>
      <trkpt lat="45.42904" lon="4.75057">
        <ele>148.19999694824</ele>
        <time>2024-05-21T07:42:57.000Z</time>
      </trkpt>
      <trkpt lat="45.42899" lon="4.75051">
        <ele>148.19999694824</ele>
        <time>2024-05-21T07:42:58.000Z</time>
      </trkpt>
      <trkpt lat="45.42895" lon="4.75046">
        <ele>148.19999694824</ele>
        <time>2024-05-21T07:42:59.000Z</time>
      </trkpt>
      <trkpt lat="45.42889" lon="4.75039">
        <ele>148.39999389648</ele>
        <time>2024-05-21T07:43:00.000Z</time>
      </trkpt>
      <trkpt lat="45.42885" lon="4.75035">
        <ele>148.39999389648</ele>
        <time>2024-05-21T07:43:01.000Z</time>
      </trkpt>
      <trkpt lat="45.4288" lon="4.75028">
        <ele>148.39999389648</ele>
        <time>2024-05-21T07:43:02.000Z</time>
      </trkpt>
      <trkpt lat="45.42875" lon="4.75022">
        <ele>148.39999389648</ele>
        <time>2024-05-21T07:43:03.000Z</time>
      </trkpt>
      <trkpt lat="45.42871" lon="4.75018">
        <ele>148.39999389648</ele>
        <time>2024-05-21T07:43:04.000Z</time>
      </trkpt>
      <trkpt lat="45.42866" lon="4.75012">
        <ele>148.39999389648</ele>
        <time>2024-05-21T07:43:05.000Z</time>
      </trkpt>
      <trkpt lat="45.42861" lon="4.75006">
        <ele>148.39999389648</ele>
        <time>2024-05-21T07:43:06.000Z</time>
      </trkpt>
      <trkpt lat="45.42856" lon="4.75001">
        <ele>148.39999389648</ele>
        <time>2024-05-21T07:43:07.000Z</time>
      </trkpt>
      <trkpt lat="45.42852" lon="4.74996">
        <ele>148.39999389648</ele>
        <time>2024-05-21T07:43:08.000Z</time>
      </trkpt>
      <trkpt lat="45.42847" lon="4.74989">
        <ele>148.39999389648</ele>
        <time>2024-05-21T07:43:09.000Z</time>
      </trkpt>
      <trkpt lat="45.42843" lon="4.74985">
        <ele>148.39999389648</ele>
        <time>2024-05-21T07:43:10.000Z</time>
      </trkpt>
      <trkpt lat="45.42838" lon="4.7498">
        <ele>148.39999389648</ele>
        <time>2024-05-21T07:43:11.000Z</time>
      </trkpt>
      <trkpt lat="45.42833" lon="4.74973">
        <ele>148.39999389648</ele>
        <time>2024-05-21T07:43:12.000Z</time>
      </trkpt>
      <trkpt lat="45.42829" lon="4.74968">
        <ele>148.39999389648</ele>
        <time>2024-05-21T07:43:13.000Z</time>
      </trkpt>
      <trkpt lat="45.42824" lon="4.74962">
        <ele>148.39999389648</ele>
        <time>2024-05-21T07:43:14.000Z</time>
      </trkpt>
      <trkpt lat="45.4282" lon="4.74958">
        <ele>148.39999389648</ele>
        <time>2024-05-21T07:43:15.000Z</time>
      </trkpt>
      <trkpt lat="45.42815" lon="4.74952">
        <ele>148.39999389648</ele>
        <time>2024-05-21T07:43:16.000Z</time>
      </trkpt>
      <trkpt lat="45.42811" lon="4.74947">
        <ele>148.39999389648</ele>
        <time>2024-05-21T07:43:17.000Z</time>
      </trkpt>
      <trkpt lat="45.42806" lon="4.7494">
        <ele>148.39999389648</ele>
        <time>2024-05-21T07:43:18.000Z</time>
      </trkpt>
      <trkpt lat="45.42802" lon="4.74936">
        <ele>148.19999694824</ele>
        <time>2024-05-21T07:43:19.000Z</time>
      </trkpt>
      <trkpt lat="45.42797" lon="4.7493">
        <ele>148.19999694824</ele>
        <time>2024-05-21T07:43:20.000Z</time>
      </trkpt>
      <trkpt lat="45.42792" lon="4.74924">
        <ele>148.19999694824</ele>
        <time>2024-05-21T07:43:21.000Z</time>
      </trkpt>
      <trkpt lat="45.42788" lon="4.74919">
        <ele>148.19999694824</ele>
        <time>2024-05-21T07:43:22.000Z</time>
      </trkpt>
      <trkpt lat="45.42783" lon="4.74913">
        <ele>148.19999694824</ele>
        <time>2024-05-21T07:43:23.000Z</time>
      </trkpt>
      <trkpt lat="45.42778" lon="4.74907">
        <ele>148.19999694824</ele>
        <time>2024-05-21T07:43:24.000Z</time>
      </trkpt>
      <trkpt lat="45.42774" lon="4.74902">
        <ele>148.19999694824</ele>
        <time>2024-05-21T07:43:25.000Z</time>
      </trkpt>
      <trkpt lat="45.42769" lon="4.74897">
        <ele>148.19999694824</ele>
        <time>2024-05-21T07:43:26.000Z</time>
      </trkpt>
      <trkpt lat="45.42765" lon="4.74891">
        <ele>148.19999694824</ele>
        <time>2024-05-21T07:43:27.000Z</time>
      </trkpt>
      <trkpt lat="45.4276" lon="4.74885">
        <ele>148.19999694824</ele>
        <time>2024-05-21T07:43:28.000Z</time>
      </trkpt>
      <trkpt lat="45.42755" lon="4.74879">
        <ele>148.19999694824</ele>
        <time>2024-05-21T07:43:29.000Z</time>
      </trkpt>
      <trkpt lat="45.4275" lon="4.74872">
        <ele>148.19999694824</ele>
        <time>2024-05-21T07:43:30.000Z</time>
      </trkpt>
      <trkpt lat="45.42746" lon="4.74868">
        <ele>148.19999694824</ele>
        <time>2024-05-21T07:43:31.000Z</time>
      </trkpt>
      <trkpt lat="45.42741" lon="4.74862">
        <ele>148.19999694824</ele>
        <time>2024-05-21T07:43:32.000Z</time>
      </trkpt>
      <trkpt lat="45.42736" lon="4.74855">
        <ele>148.19999694824</ele>
        <time>2024-05-21T07:43:33.000Z</time>
      </trkpt>
      <trkpt lat="45.42732" lon="4.7485">
        <ele>148.19999694824</ele>
        <time>2024-05-21T07:43:34.000Z</time>
      </trkpt>
      <trkpt lat="45.42727" lon="4.74844">
        <ele>148.19999694824</ele>
        <time>2024-05-21T07:43:35.000Z</time>
      </trkpt>
      <trkpt lat="45.42727" lon="4.74844">
        <ele>148.19999694824</ele>
        <time>2024-05-21T07:43:36.000Z</time>
      </trkpt>
      <trkpt lat="45.42717" lon="4.74832">
        <ele>148.19999694824</ele>
        <time>2024-05-21T07:43:37.000Z</time>
      </trkpt>
      <trkpt lat="45.42714" lon="4.74827">
        <ele>148.19999694824</ele>
        <time>2024-05-21T07:43:38.000Z</time>
      </trkpt>
      <trkpt lat="45.42709" lon="4.74822">
        <ele>148.19999694824</ele>
        <time>2024-05-21T07:43:39.000Z</time>
      </trkpt>
      <trkpt lat="45.42704" lon="4.74816">
        <ele>148.19999694824</ele>
        <time>2024-05-21T07:43:40.000Z</time>
      </trkpt>
      <trkpt lat="45.427" lon="4.7481">
        <ele>148.19999694824</ele>
        <time>2024-05-21T07:43:41.000Z</time>
      </trkpt>
      <trkpt lat="45.42695" lon="4.74805">
        <ele>148.19999694824</ele>
        <time>2024-05-21T07:43:42.000Z</time>
      </trkpt>
      <trkpt lat="45.42689" lon="4.74798">
        <ele>148.19999694824</ele>
        <time>2024-05-21T07:43:43.000Z</time>
      </trkpt>
      <trkpt lat="45.42685" lon="4.74794">
        <ele>148.19999694824</ele>
        <time>2024-05-21T07:43:44.000Z</time>
      </trkpt>
      <trkpt lat="45.42681" lon="4.74788">
        <ele>148.19999694824</ele>
        <time>2024-05-21T07:43:45.000Z</time>
      </trkpt>
      <trkpt lat="45.42675" lon="4.74781">
        <ele>148</ele>
        <time>2024-05-21T07:43:46.000Z</time>
      </trkpt>
      <trkpt lat="45.42671" lon="4.74777">
        <ele>148</ele>
        <time>2024-05-21T07:43:47.000Z</time>
      </trkpt>
      <trkpt lat="45.42666" lon="4.74771">
        <ele>148</ele>
        <time>2024-05-21T07:43:48.000Z</time>
      </trkpt>
      <trkpt lat="45.42661" lon="4.74764">
        <ele>148</ele>
        <time>2024-05-21T07:43:49.000Z</time>
      </trkpt>
      <trkpt lat="45.42657" lon="4.7476">
        <ele>148</ele>
        <time>2024-05-21T07:43:50.000Z</time>
      </trkpt>
      <trkpt lat="45.42652" lon="4.74754">
        <ele>148</ele>
        <time>2024-05-21T07:43:51.000Z</time>
      </trkpt>
      <trkpt lat="45.42647" lon="4.74749">
        <ele>148</ele>
        <time>2024-05-21T07:43:52.000Z</time>
      </trkpt>
      <trkpt lat="45.42644" lon="4.74744">
        <ele>148.19999694824</ele>
        <time>2024-05-21T07:43:53.000Z</time>
      </trkpt>
      <trkpt lat="45.42639" lon="4.74738">
        <ele>148.19999694824</ele>
        <time>2024-05-21T07:43:54.000Z</time>
      </trkpt>
      <trkpt lat="45.42634" lon="4.74733">
        <ele>148.19999694824</ele>
        <time>2024-05-21T07:43:55.000Z</time>
      </trkpt>
      <trkpt lat="45.4263" lon="4.74727">
        <ele>148</ele>
        <time>2024-05-21T07:43:56.000Z</time>
      </trkpt>
      <trkpt lat="45.42624" lon="4.74721">
        <ele>148</ele>
        <time>2024-05-21T07:43:57.000Z</time>
      </trkpt>
      <trkpt lat="45.4262" lon="4.74716">
        <ele>148</ele>
        <time>2024-05-21T07:43:58.000Z</time>
      </trkpt>
      <trkpt lat="45.42616" lon="4.7471">
        <ele>148</ele>
        <time>2024-05-21T07:43:59.000Z</time>
      </trkpt>
      <trkpt lat="45.4261" lon="4.74704">
        <ele>148</ele>
        <time>2024-05-21T07:44:00.000Z</time>
      </trkpt>
      <trkpt lat="45.42607" lon="4.74699">
        <ele>147.80000305176</ele>
        <time>2024-05-21T07:44:01.000Z</time>
      </trkpt>
      <trkpt lat="45.42602" lon="4.74693">
        <ele>147.80000305176</ele>
        <time>2024-05-21T07:44:02.000Z</time>
      </trkpt>
      <trkpt lat="45.42598" lon="4.74688">
        <ele>147.80000305176</ele>
        <time>2024-05-21T07:44:03.000Z</time>
      </trkpt>
      <trkpt lat="45.42593" lon="4.74682">
        <ele>147.80000305176</ele>
        <time>2024-05-21T07:44:04.000Z</time>
      </trkpt>
      <trkpt lat="45.42588" lon="4.74676">
        <ele>147.80000305176</ele>
        <time>2024-05-21T07:44:05.000Z</time>
      </trkpt>
      <trkpt lat="45.42584" lon="4.74672">
        <ele>147.80000305176</ele>
        <time>2024-05-21T07:44:06.000Z</time>
      </trkpt>
      <trkpt lat="45.4258" lon="4.74667">
        <ele>147.80000305176</ele>
        <time>2024-05-21T07:44:07.000Z</time>
      </trkpt>
      <trkpt lat="45.42575" lon="4.74661">
        <ele>147.80000305176</ele>
        <time>2024-05-21T07:44:08.000Z</time>
      </trkpt>
      <trkpt lat="45.42571" lon="4.74656">
        <ele>148</ele>
        <time>2024-05-21T07:44:09.000Z</time>
      </trkpt>
      <trkpt lat="45.42566" lon="4.7465">
        <ele>148</ele>
        <time>2024-05-21T07:44:10.000Z</time>
      </trkpt>
      <trkpt lat="45.42561" lon="4.74644">
        <ele>148</ele>
        <time>2024-05-21T07:44:11.000Z</time>
      </trkpt>
      <trkpt lat="45.42556" lon="4.74638">
        <ele>148</ele>
        <time>2024-05-21T07:44:12.000Z</time>
      </trkpt>
      <trkpt lat="45.42552" lon="4.74633">
        <ele>148</ele>
        <time>2024-05-21T07:44:13.000Z</time>
      </trkpt>
      <trkpt lat="45.42548" lon="4.74628">
        <ele>148</ele>
        <time>2024-05-21T07:44:14.000Z</time>
      </trkpt>
      <trkpt lat="45.42543" lon="4.74622">
        <ele>147.80000305176</ele>
        <time>2024-05-21T07:44:15.000Z</time>
      </trkpt>
      <trkpt lat="45.42538" lon="4.74616">
        <ele>147.80000305176</ele>
        <time>2024-05-21T07:44:16.000Z</time>
      </trkpt>
      <trkpt lat="45.42533" lon="4.7461">
        <ele>147.80000305176</ele>
        <time>2024-05-21T07:44:17.000Z</time>
      </trkpt>
      <trkpt lat="45.42528" lon="4.74603">
        <ele>147.80000305176</ele>
        <time>2024-05-21T07:44:18.000Z</time>
      </trkpt>
      <trkpt lat="45.42524" lon="4.74598">
        <ele>147.80000305176</ele>
        <time>2024-05-21T07:44:19.000Z</time>
      </trkpt>
      <trkpt lat="45.4252" lon="4.74592">
        <ele>147.80000305176</ele>
        <time>2024-05-21T07:44:20.000Z</time>
      </trkpt>
      <trkpt lat="45.42514" lon="4.74585">
        <ele>147.60000610352</ele>
        <time>2024-05-21T07:44:21.000Z</time>
      </trkpt>
      <trkpt lat="45.4251" lon="4.7458">
        <ele>147.60000610352</ele>
        <time>2024-05-21T07:44:22.000Z</time>
      </trkpt>
      <trkpt lat="45.42506" lon="4.74575">
        <ele>147.60000610352</ele>
        <time>2024-05-21T07:44:23.000Z</time>
      </trkpt>
      <trkpt lat="45.42501" lon="4.74569">
        <ele>147.60000610352</ele>
        <time>2024-05-21T07:44:24.000Z</time>
      </trkpt>
      <trkpt lat="45.42497" lon="4.74564">
        <ele>147.60000610352</ele>
        <time>2024-05-21T07:44:25.000Z</time>
      </trkpt>
      <trkpt lat="45.42492" lon="4.74558">
        <ele>147.60000610352</ele>
        <time>2024-05-21T07:44:26.000Z</time>
      </trkpt>
      <trkpt lat="45.42486" lon="4.74551">
        <ele>147.60000610352</ele>
        <time>2024-05-21T07:44:27.000Z</time>
      </trkpt>
      <trkpt lat="45.42482" lon="4.74546">
        <ele>147.60000610352</ele>
        <time>2024-05-21T07:44:28.000Z</time>
      </trkpt>
      <trkpt lat="45.42477" lon="4.74541">
        <ele>147.60000610352</ele>
        <time>2024-05-21T07:44:29.000Z</time>
      </trkpt>
      <trkpt lat="45.42472" lon="4.74534">
        <ele>147.60000610352</ele>
        <time>2024-05-21T07:44:30.000Z</time>
      </trkpt>
      <trkpt lat="45.42468" lon="4.74529">
        <ele>147.60000610352</ele>
        <time>2024-05-21T07:44:31.000Z</time>
      </trkpt>
      <trkpt lat="45.42463" lon="4.74523">
        <ele>147.60000610352</ele>
        <time>2024-05-21T07:44:32.000Z</time>
      </trkpt>
      <trkpt lat="45.42459" lon="4.74517">
        <ele>147.60000610352</ele>
        <time>2024-05-21T07:44:33.000Z</time>
      </trkpt>
      <trkpt lat="45.42454" lon="4.74512">
        <ele>147.60000610352</ele>
        <time>2024-05-21T07:44:34.000Z</time>
      </trkpt>
      <trkpt lat="45.4245" lon="4.74506">
        <ele>147.60000610352</ele>
        <time>2024-05-21T07:44:35.000Z</time>
      </trkpt>
      <trkpt lat="45.42444" lon="4.745">
        <ele>147.60000610352</ele>
        <time>2024-05-21T07:44:36.000Z</time>
      </trkpt>
      <trkpt lat="45.4244" lon="4.74495">
        <ele>147.60000610352</ele>
        <time>2024-05-21T07:44:37.000Z</time>
      </trkpt>
      <trkpt lat="45.42436" lon="4.74489">
        <ele>147.60000610352</ele>
        <time>2024-05-21T07:44:38.000Z</time>
      </trkpt>
      <trkpt lat="45.42431" lon="4.74483">
        <ele>147.60000610352</ele>
        <time>2024-05-21T07:44:39.000Z</time>
      </trkpt>
      <trkpt lat="45.42427" lon="4.74477">
        <ele>147.60000610352</ele>
        <time>2024-05-21T07:44:40.000Z</time>
      </trkpt>
      <trkpt lat="45.42422" lon="4.74472">
        <ele>147.60000610352</ele>
        <time>2024-05-21T07:44:41.000Z</time>
      </trkpt>
      <trkpt lat="45.42417" lon="4.74467">
        <ele>147.39999389648</ele>
        <time>2024-05-21T07:44:42.000Z</time>
      </trkpt>
      <trkpt lat="45.42413" lon="4.74462">
        <ele>147.39999389648</ele>
        <time>2024-05-21T07:44:43.000Z</time>
      </trkpt>
      <trkpt lat="45.42408" lon="4.74456">
        <ele>147.39999389648</ele>
        <time>2024-05-21T07:44:44.000Z</time>
      </trkpt>
      <trkpt lat="45.42403" lon="4.7445">
        <ele>147.39999389648</ele>
        <time>2024-05-21T07:44:45.000Z</time>
      </trkpt>
      <trkpt lat="45.42398" lon="4.74445">
        <ele>147.60000610352</ele>
        <time>2024-05-21T07:44:46.000Z</time>
      </trkpt>
      <trkpt lat="45.42394" lon="4.7444">
        <ele>147.39999389648</ele>
        <time>2024-05-21T07:44:47.000Z</time>
      </trkpt>
      <trkpt lat="45.42389" lon="4.74434">
        <ele>147.60000610352</ele>
        <time>2024-05-21T07:44:48.000Z</time>
      </trkpt>
      <trkpt lat="45.42385" lon="4.74428">
        <ele>147.60000610352</ele>
        <time>2024-05-21T07:44:49.000Z</time>
      </trkpt>
      <trkpt lat="45.4238" lon="4.74423">
        <ele>147.60000610352</ele>
        <time>2024-05-21T07:44:50.000Z</time>
      </trkpt>
      <trkpt lat="45.42375" lon="4.74417">
        <ele>147.39999389648</ele>
        <time>2024-05-21T07:44:51.000Z</time>
      </trkpt>
      <trkpt lat="45.42371" lon="4.74412">
        <ele>147.39999389648</ele>
        <time>2024-05-21T07:44:52.000Z</time>
      </trkpt>
      <trkpt lat="45.42366" lon="4.74406">
        <ele>147.39999389648</ele>
        <time>2024-05-21T07:44:53.000Z</time>
      </trkpt>
      <trkpt lat="45.4236" lon="4.74399">
        <ele>147.39999389648</ele>
        <time>2024-05-21T07:44:54.000Z</time>
      </trkpt>
      <trkpt lat="45.42357" lon="4.74394">
        <ele>147.39999389648</ele>
        <time>2024-05-21T07:44:55.000Z</time>
      </trkpt>
      <trkpt lat="45.42352" lon="4.74389">
        <ele>147.39999389648</ele>
        <time>2024-05-21T07:44:56.000Z</time>
      </trkpt>
      <trkpt lat="45.42347" lon="4.74382">
        <ele>147.39999389648</ele>
        <time>2024-05-21T07:44:57.000Z</time>
      </trkpt>
      <trkpt lat="45.42342" lon="4.74375">
        <ele>147.39999389648</ele>
        <time>2024-05-21T07:44:58.000Z</time>
      </trkpt>
      <trkpt lat="45.42338" lon="4.7437">
        <ele>147.39999389648</ele>
        <time>2024-05-21T07:44:59.000Z</time>
      </trkpt>
      <trkpt lat="45.42334" lon="4.74365">
        <ele>147.39999389648</ele>
        <time>2024-05-21T07:45:00.000Z</time>
      </trkpt>
      <trkpt lat="45.42329" lon="4.74359">
        <ele>147.39999389648</ele>
        <time>2024-05-21T07:45:01.000Z</time>
      </trkpt>
      <trkpt lat="45.42324" lon="4.74353">
        <ele>147.39999389648</ele>
        <time>2024-05-21T07:45:02.000Z</time>
      </trkpt>
      <trkpt lat="45.42319" lon="4.74346">
        <ele>147.39999389648</ele>
        <time>2024-05-21T07:45:03.000Z</time>
      </trkpt>
      <trkpt lat="45.42314" lon="4.74341">
        <ele>147.39999389648</ele>
        <time>2024-05-21T07:45:04.000Z</time>
      </trkpt>
      <trkpt lat="45.4231" lon="4.74336">
        <ele>147.39999389648</ele>
        <time>2024-05-21T07:45:05.000Z</time>
      </trkpt>
      <trkpt lat="45.42305" lon="4.74331">
        <ele>147.39999389648</ele>
        <time>2024-05-21T07:45:06.000Z</time>
      </trkpt>
      <trkpt lat="45.42299" lon="4.74324">
        <ele>147.39999389648</ele>
        <time>2024-05-21T07:45:07.000Z</time>
      </trkpt>
      <trkpt lat="45.42295" lon="4.7432">
        <ele>147.39999389648</ele>
        <time>2024-05-21T07:45:08.000Z</time>
      </trkpt>
      <trkpt lat="45.4229" lon="4.74313">
        <ele>147.19999694824</ele>
        <time>2024-05-21T07:45:09.000Z</time>
      </trkpt>
      <trkpt lat="45.42285" lon="4.74307">
        <ele>147.19999694824</ele>
        <time>2024-05-21T07:45:10.000Z</time>
      </trkpt>
      <trkpt lat="45.42281" lon="4.74302">
        <ele>147.19999694824</ele>
        <time>2024-05-21T07:45:11.000Z</time>
      </trkpt>
      <trkpt lat="45.42276" lon="4.74297">
        <ele>147.19999694824</ele>
        <time>2024-05-21T07:45:12.000Z</time>
      </trkpt>
      <trkpt lat="45.42271" lon="4.7429">
        <ele>147.19999694824</ele>
        <time>2024-05-21T07:45:13.000Z</time>
      </trkpt>
      <trkpt lat="45.42266" lon="4.74284">
        <ele>147.19999694824</ele>
        <time>2024-05-21T07:45:14.000Z</time>
      </trkpt>
      <trkpt lat="45.42261" lon="4.74279">
        <ele>147.19999694824</ele>
        <time>2024-05-21T07:45:15.000Z</time>
      </trkpt>
      <trkpt lat="45.42256" lon="4.74274">
        <ele>147.19999694824</ele>
        <time>2024-05-21T07:45:16.000Z</time>
      </trkpt>
      <trkpt lat="45.42252" lon="4.7427">
        <ele>147.19999694824</ele>
        <time>2024-05-21T07:45:17.000Z</time>
      </trkpt>
      <trkpt lat="45.42246" lon="4.74264">
        <ele>147.19999694824</ele>
        <time>2024-05-21T07:45:18.000Z</time>
      </trkpt>
      <trkpt lat="45.42241" lon="4.74259">
        <ele>147.39999389648</ele>
        <time>2024-05-21T07:45:19.000Z</time>
      </trkpt>
      <trkpt lat="45.42235" lon="4.74254">
        <ele>147.39999389648</ele>
        <time>2024-05-21T07:45:20.000Z</time>
      </trkpt>
      <trkpt lat="45.4223" lon="4.7425">
        <ele>147.39999389648</ele>
        <time>2024-05-21T07:45:21.000Z</time>
      </trkpt>
      <trkpt lat="45.42225" lon="4.74245">
        <ele>147.39999389648</ele>
        <time>2024-05-21T07:45:22.000Z</time>
      </trkpt>
      <trkpt lat="45.42219" lon="4.74241">
        <ele>147.39999389648</ele>
        <time>2024-05-21T07:45:23.000Z</time>
      </trkpt>
      <trkpt lat="45.42214" lon="4.74236">
        <ele>147.39999389648</ele>
        <time>2024-05-21T07:45:24.000Z</time>
      </trkpt>
      <trkpt lat="45.42209" lon="4.74231">
        <ele>147.39999389648</ele>
        <time>2024-05-21T07:45:25.000Z</time>
      </trkpt>
      <trkpt lat="45.42204" lon="4.74226">
        <ele>147.39999389648</ele>
        <time>2024-05-21T07:45:26.000Z</time>
      </trkpt>
      <trkpt lat="45.42199" lon="4.74223">
        <ele>147.19999694824</ele>
        <time>2024-05-21T07:45:27.000Z</time>
      </trkpt>
      <trkpt lat="45.42194" lon="4.74218">
        <ele>147.19999694824</ele>
        <time>2024-05-21T07:45:28.000Z</time>
      </trkpt>
      <trkpt lat="45.42187" lon="4.74213">
        <ele>147.19999694824</ele>
        <time>2024-05-21T07:45:29.000Z</time>
      </trkpt>
      <trkpt lat="45.42182" lon="4.74209">
        <ele>147.19999694824</ele>
        <time>2024-05-21T07:45:30.000Z</time>
      </trkpt>
      <trkpt lat="45.42177" lon="4.74205">
        <ele>147.19999694824</ele>
        <time>2024-05-21T07:45:31.000Z</time>
      </trkpt>
      <trkpt lat="45.42172" lon="4.74201">
        <ele>147.39999389648</ele>
        <time>2024-05-21T07:45:32.000Z</time>
      </trkpt>
      <trkpt lat="45.42167" lon="4.74197">
        <ele>147.39999389648</ele>
        <time>2024-05-21T07:45:33.000Z</time>
      </trkpt>
      <trkpt lat="45.4216" lon="4.74192">
        <ele>147.39999389648</ele>
        <time>2024-05-21T07:45:34.000Z</time>
      </trkpt>
      <trkpt lat="45.42156" lon="4.74188">
        <ele>147.39999389648</ele>
        <time>2024-05-21T07:45:35.000Z</time>
      </trkpt>
      <trkpt lat="45.4215" lon="4.74184">
        <ele>147.39999389648</ele>
        <time>2024-05-21T07:45:36.000Z</time>
      </trkpt>
      <trkpt lat="45.42144" lon="4.74179">
        <ele>147.39999389648</ele>
        <time>2024-05-21T07:45:37.000Z</time>
      </trkpt>
      <trkpt lat="45.42138" lon="4.74175">
        <ele>147.39999389648</ele>
        <time>2024-05-21T07:45:38.000Z</time>
      </trkpt>
      <trkpt lat="45.42132" lon="4.74171">
        <ele>147.39999389648</ele>
        <time>2024-05-21T07:45:39.000Z</time>
      </trkpt>
      <trkpt lat="45.42127" lon="4.74167">
        <ele>147.19999694824</ele>
        <time>2024-05-21T07:45:40.000Z</time>
      </trkpt>
      <trkpt lat="45.42122" lon="4.74165">
        <ele>147.19999694824</ele>
        <time>2024-05-21T07:45:41.000Z</time>
      </trkpt>
      <trkpt lat="45.42115" lon="4.7416">
        <ele>147.19999694824</ele>
        <time>2024-05-21T07:45:42.000Z</time>
      </trkpt>
      <trkpt lat="45.4211" lon="4.74157">
        <ele>147.19999694824</ele>
        <time>2024-05-21T07:45:43.000Z</time>
      </trkpt>
      <trkpt lat="45.42105" lon="4.74154">
        <ele>147.19999694824</ele>
        <time>2024-05-21T07:45:44.000Z</time>
      </trkpt>
      <trkpt lat="45.42098" lon="4.74151">
        <ele>147.19999694824</ele>
        <time>2024-05-21T07:45:45.000Z</time>
      </trkpt>
      <trkpt lat="45.42093" lon="4.74148">
        <ele>147.19999694824</ele>
        <time>2024-05-21T07:45:46.000Z</time>
      </trkpt>
      <trkpt lat="45.42087" lon="4.74145">
        <ele>147.19999694824</ele>
        <time>2024-05-21T07:45:47.000Z</time>
      </trkpt>
      <trkpt lat="45.42081" lon="4.74141">
        <ele>147.19999694824</ele>
        <time>2024-05-21T07:45:48.000Z</time>
      </trkpt>
      <trkpt lat="45.42077" lon="4.74139">
        <ele>147.19999694824</ele>
        <time>2024-05-21T07:45:49.000Z</time>
      </trkpt>
      <trkpt lat="45.4207" lon="4.74135">
        <ele>147.19999694824</ele>
        <time>2024-05-21T07:45:50.000Z</time>
      </trkpt>
      <trkpt lat="45.42064" lon="4.74132">
        <ele>147</ele>
        <time>2024-05-21T07:45:51.000Z</time>
      </trkpt>
      <trkpt lat="45.42058" lon="4.74129">
        <ele>147</ele>
        <time>2024-05-21T07:45:52.000Z</time>
      </trkpt>
      <trkpt lat="45.42052" lon="4.74126">
        <ele>147</ele>
        <time>2024-05-21T07:45:53.000Z</time>
      </trkpt>
      <trkpt lat="45.42047" lon="4.74122">
        <ele>147</ele>
        <time>2024-05-21T07:45:54.000Z</time>
      </trkpt>
      <trkpt lat="45.42041" lon="4.74119">
        <ele>147</ele>
        <time>2024-05-21T07:45:55.000Z</time>
      </trkpt>
      <trkpt lat="45.42035" lon="4.74116">
        <ele>147</ele>
        <time>2024-05-21T07:45:56.000Z</time>
      </trkpt>
      <trkpt lat="45.42029" lon="4.74113">
        <ele>147</ele>
        <time>2024-05-21T07:45:57.000Z</time>
      </trkpt>
      <trkpt lat="45.42023" lon="4.7411">
        <ele>147</ele>
        <time>2024-05-21T07:45:58.000Z</time>
      </trkpt>
      <trkpt lat="45.42017" lon="4.74107">
        <ele>147</ele>
        <time>2024-05-21T07:45:59.000Z</time>
      </trkpt>
      <trkpt lat="45.42011" lon="4.74105">
        <ele>147</ele>
        <time>2024-05-21T07:46:00.000Z</time>
      </trkpt>
      <trkpt lat="45.42006" lon="4.74103">
        <ele>147</ele>
        <time>2024-05-21T07:46:01.000Z</time>
      </trkpt>
      <trkpt lat="45.41999" lon="4.741">
        <ele>147</ele>
        <time>2024-05-21T07:46:02.000Z</time>
      </trkpt>
      <trkpt lat="45.41993" lon="4.74097">
        <ele>147</ele>
        <time>2024-05-21T07:46:03.000Z</time>
      </trkpt>
      <trkpt lat="45.41987" lon="4.74095">
        <ele>147</ele>
        <time>2024-05-21T07:46:04.000Z</time>
      </trkpt>
      <trkpt lat="45.41981" lon="4.74092">
        <ele>147</ele>
        <time>2024-05-21T07:46:05.000Z</time>
      </trkpt>
      <trkpt lat="45.41975" lon="4.74089">
        <ele>147</ele>
        <time>2024-05-21T07:46:06.000Z</time>
      </trkpt>
      <trkpt lat="45.41969" lon="4.74086">
        <ele>147</ele>
        <time>2024-05-21T07:46:07.000Z</time>
      </trkpt>
      <trkpt lat="45.41965" lon="4.74084">
        <ele>146.80000305176</ele>
        <time>2024-05-21T07:46:08.000Z</time>
      </trkpt>
      <trkpt lat="45.41958" lon="4.74081">
        <ele>146.80000305176</ele>
        <time>2024-05-21T07:46:09.000Z</time>
      </trkpt>
      <trkpt lat="45.41952" lon="4.74079">
        <ele>146.80000305176</ele>
        <time>2024-05-21T07:46:10.000Z</time>
      </trkpt>
      <trkpt lat="45.41947" lon="4.74078">
        <ele>146.80000305176</ele>
        <time>2024-05-21T07:46:11.000Z</time>
      </trkpt>
      <trkpt lat="45.4194" lon="4.74075">
        <ele>146.80000305176</ele>
        <time>2024-05-21T07:46:12.000Z</time>
      </trkpt>
      <trkpt lat="45.41934" lon="4.74073">
        <ele>146.80000305176</ele>
        <time>2024-05-21T07:46:13.000Z</time>
      </trkpt>
      <trkpt lat="45.41928" lon="4.7407">
        <ele>146.80000305176</ele>
        <time>2024-05-21T07:46:14.000Z</time>
      </trkpt>
      <trkpt lat="45.41922" lon="4.74068">
        <ele>146.80000305176</ele>
        <time>2024-05-21T07:46:15.000Z</time>
      </trkpt>
      <trkpt lat="45.41916" lon="4.74066">
        <ele>146.80000305176</ele>
        <time>2024-05-21T07:46:16.000Z</time>
      </trkpt>
      <trkpt lat="45.41911" lon="4.74064">
        <ele>146.80000305176</ele>
        <time>2024-05-21T07:46:17.000Z</time>
      </trkpt>
      <trkpt lat="45.41905" lon="4.74062">
        <ele>146.80000305176</ele>
        <time>2024-05-21T07:46:18.000Z</time>
      </trkpt>
      <trkpt lat="45.41899" lon="4.7406">
        <ele>146.80000305176</ele>
        <time>2024-05-21T07:46:19.000Z</time>
      </trkpt>
      <trkpt lat="45.41893" lon="4.74058">
        <ele>146.80000305176</ele>
        <time>2024-05-21T07:46:20.000Z</time>
      </trkpt>
      <trkpt lat="45.41887" lon="4.74057">
        <ele>146.80000305176</ele>
        <time>2024-05-21T07:46:21.000Z</time>
      </trkpt>
      <trkpt lat="45.41881" lon="4.74055">
        <ele>146.80000305176</ele>
        <time>2024-05-21T07:46:22.000Z</time>
      </trkpt>
      <trkpt lat="45.41875" lon="4.74053">
        <ele>146.80000305176</ele>
        <time>2024-05-21T07:46:23.000Z</time>
      </trkpt>
      <trkpt lat="45.41869" lon="4.74051">
        <ele>147</ele>
        <time>2024-05-21T07:46:24.000Z</time>
      </trkpt>
      <trkpt lat="45.41863" lon="4.74049">
        <ele>147</ele>
        <time>2024-05-21T07:46:25.000Z</time>
      </trkpt>
      <trkpt lat="45.41857" lon="4.74047">
        <ele>147</ele>
        <time>2024-05-21T07:46:26.000Z</time>
      </trkpt>
      <trkpt lat="45.41852" lon="4.74046">
        <ele>147</ele>
        <time>2024-05-21T07:46:27.000Z</time>
      </trkpt>
      <trkpt lat="45.41845" lon="4.74044">
        <ele>146.80000305176</ele>
        <time>2024-05-21T07:46:28.000Z</time>
      </trkpt>
      <trkpt lat="45.41841" lon="4.74043">
        <ele>146.80000305176</ele>
        <time>2024-05-21T07:46:29.000Z</time>
      </trkpt>
      <trkpt lat="45.41836" lon="4.74042">
        <ele>146.60000610352</ele>
        <time>2024-05-21T07:46:30.000Z</time>
      </trkpt>
      <trkpt lat="45.41831" lon="4.7404">
        <ele>146.39999389648</ele>
        <time>2024-05-21T07:46:31.000Z</time>
      </trkpt>
      <trkpt lat="45.41826" lon="4.74039">
        <ele>146.39999389648</ele>
        <time>2024-05-21T07:46:32.000Z</time>
      </trkpt>
      <trkpt lat="45.41821" lon="4.74038">
        <ele>146.39999389648</ele>
        <time>2024-05-21T07:46:33.000Z</time>
      </trkpt>
      <trkpt lat="45.41815" lon="4.74037">
        <ele>146.39999389648</ele>
        <time>2024-05-21T07:46:34.000Z</time>
      </trkpt>
      <trkpt lat="45.4181" lon="4.74036">
        <ele>146.39999389648</ele>
        <time>2024-05-21T07:46:35.000Z</time>
      </trkpt>
      <trkpt lat="45.41805" lon="4.74034">
        <ele>146.39999389648</ele>
        <time>2024-05-21T07:46:36.000Z</time>
      </trkpt>
      <trkpt lat="45.41801" lon="4.74033">
        <ele>146.60000610352</ele>
        <time>2024-05-21T07:46:37.000Z</time>
      </trkpt>
      <trkpt lat="45.41796" lon="4.74032">
        <ele>146.39999389648</ele>
        <time>2024-05-21T07:46:38.000Z</time>
      </trkpt>
      <trkpt lat="45.41792" lon="4.74031">
        <ele>146.60000610352</ele>
        <time>2024-05-21T07:46:39.000Z</time>
      </trkpt>
      <trkpt lat="45.41788" lon="4.7403">
        <ele>146.60000610352</ele>
        <time>2024-05-21T07:46:40.000Z</time>
      </trkpt>
      <trkpt lat="45.41784" lon="4.74029">
        <ele>146.39999389648</ele>
        <time>2024-05-21T07:46:41.000Z</time>
      </trkpt>
      <trkpt lat="45.41781" lon="4.74028">
        <ele>146.39999389648</ele>
        <time>2024-05-21T07:46:42.000Z</time>
      </trkpt>
      <trkpt lat="45.41777" lon="4.74026">
        <ele>146.60000610352</ele>
        <time>2024-05-21T07:46:43.000Z</time>
      </trkpt>
      <trkpt lat="45.41775" lon="4.74024">
        <ele>146.60000610352</ele>
        <time>2024-05-21T07:46:44.000Z</time>
      </trkpt>
      <trkpt lat="45.41773" lon="4.74022">
        <ele>146.60000610352</ele>
        <time>2024-05-21T07:46:45.000Z</time>
      </trkpt>
      <trkpt lat="45.4177" lon="4.7402">
        <ele>146.60000610352</ele>
        <time>2024-05-21T07:46:46.000Z</time>
      </trkpt>
      <trkpt lat="45.41768" lon="4.74019">
        <ele>146.60000610352</ele>
        <time>2024-05-21T07:46:47.000Z</time>
      </trkpt>
      <trkpt lat="45.41767" lon="4.74018">
        <ele>146.60000610352</ele>
        <time>2024-05-21T07:46:48.000Z</time>
      </trkpt>
      <trkpt lat="45.41767" lon="4.74018">
        <ele>146.60000610352</ele>
        <time>2024-05-21T07:46:49.000Z</time>
      </trkpt>
      <trkpt lat="45.41767" lon="4.74018">
        <ele>146.39999389648</ele>
        <time>2024-05-21T07:46:50.000Z</time>
      </trkpt>
      <trkpt lat="45.41755" lon="4.74021">
        <ele>146</ele>
        <time>2024-05-21T07:50:55.000Z</time>
      </trkpt>
      <trkpt lat="45.41753" lon="4.74021">
        <ele>146.39999389648</ele>
        <time>2024-05-21T07:50:56.000Z</time>
      </trkpt>
      <trkpt lat="45.41751" lon="4.74021">
        <ele>146.19999694824</ele>
        <time>2024-05-21T07:50:57.000Z</time>
      </trkpt>
      <trkpt lat="45.41748" lon="4.74021">
        <ele>146.19999694824</ele>
        <time>2024-05-21T07:50:58.000Z</time>
      </trkpt>
      <trkpt lat="45.41745" lon="4.74021">
        <ele>146.19999694824</ele>
        <time>2024-05-21T07:50:59.000Z</time>
      </trkpt>
      <trkpt lat="45.41742" lon="4.7402">
        <ele>146</ele>
        <time>2024-05-21T07:51:00.000Z</time>
      </trkpt>
      <trkpt lat="45.41738" lon="4.7402">
        <ele>146</ele>
        <time>2024-05-21T07:51:01.000Z</time>
      </trkpt>
      <trkpt lat="45.41734" lon="4.74019">
        <ele>146</ele>
        <time>2024-05-21T07:51:02.000Z</time>
      </trkpt>
      <trkpt lat="45.4173" lon="4.74019">
        <ele>146.19999694824</ele>
        <time>2024-05-21T07:51:03.000Z</time>
      </trkpt>
      <trkpt lat="45.41726" lon="4.74019">
        <ele>146.19999694824</ele>
        <time>2024-05-21T07:51:04.000Z</time>
      </trkpt>
      <trkpt lat="45.41721" lon="4.74018">
        <ele>146.19999694824</ele>
        <time>2024-05-21T07:51:05.000Z</time>
      </trkpt>
      <trkpt lat="45.41718" lon="4.74018">
        <ele>146.19999694824</ele>
        <time>2024-05-21T07:51:06.000Z</time>
      </trkpt>
      <trkpt lat="45.41713" lon="4.74017">
        <ele>146.19999694824</ele>
        <time>2024-05-21T07:51:07.000Z</time>
      </trkpt>
      <trkpt lat="45.41707" lon="4.74016">
        <ele>146.19999694824</ele>
        <time>2024-05-21T07:51:08.000Z</time>
      </trkpt>
      <trkpt lat="45.41702" lon="4.74016">
        <ele>146.19999694824</ele>
        <time>2024-05-21T07:51:09.000Z</time>
      </trkpt>
      <trkpt lat="45.41696" lon="4.74015">
        <ele>146.19999694824</ele>
        <time>2024-05-21T07:51:10.000Z</time>
      </trkpt>
      <trkpt lat="45.41691" lon="4.74015">
        <ele>146.19999694824</ele>
        <time>2024-05-21T07:51:11.000Z</time>
      </trkpt>
      <trkpt lat="45.41685" lon="4.74014">
        <ele>146.19999694824</ele>
        <time>2024-05-21T07:51:12.000Z</time>
      </trkpt>
      <trkpt lat="45.4168" lon="4.74014">
        <ele>146.19999694824</ele>
        <time>2024-05-21T07:51:13.000Z</time>
      </trkpt>
      <trkpt lat="45.41675" lon="4.74014">
        <ele>146.19999694824</ele>
        <time>2024-05-21T07:51:14.000Z</time>
      </trkpt>
      <trkpt lat="45.41669" lon="4.74013">
        <ele>146.19999694824</ele>
        <time>2024-05-21T07:51:15.000Z</time>
      </trkpt>
      <trkpt lat="45.41664" lon="4.74013">
        <ele>146.19999694824</ele>
        <time>2024-05-21T07:51:16.000Z</time>
      </trkpt>
      <trkpt lat="45.41659" lon="4.74012">
        <ele>146.39999389648</ele>
        <time>2024-05-21T07:51:17.000Z</time>
      </trkpt>
      <trkpt lat="45.41653" lon="4.74012">
        <ele>146.39999389648</ele>
        <time>2024-05-21T07:51:18.000Z</time>
      </trkpt>
      <trkpt lat="45.41648" lon="4.74011">
        <ele>146.39999389648</ele>
        <time>2024-05-21T07:51:19.000Z</time>
      </trkpt>
      <trkpt lat="45.41643" lon="4.7401">
        <ele>146.39999389648</ele>
        <time>2024-05-21T07:51:20.000Z</time>
      </trkpt>
      <trkpt lat="45.41639" lon="4.74009">
        <ele>146.60000610352</ele>
        <time>2024-05-21T07:51:21.000Z</time>
      </trkpt>
      <trkpt lat="45.41632" lon="4.74007">
        <ele>146.60000610352</ele>
        <time>2024-05-21T07:51:22.000Z</time>
      </trkpt>
      <trkpt lat="45.41627" lon="4.74006">
        <ele>146.60000610352</ele>
        <time>2024-05-21T07:51:23.000Z</time>
      </trkpt>
      <trkpt lat="45.41621" lon="4.74005">
        <ele>146.60000610352</ele>
        <time>2024-05-21T07:51:24.000Z</time>
      </trkpt>
      <trkpt lat="45.41616" lon="4.74006">
        <ele>146.60000610352</ele>
        <time>2024-05-21T07:51:25.000Z</time>
      </trkpt>
      <trkpt lat="45.41611" lon="4.74007">
        <ele>146.60000610352</ele>
        <time>2024-05-21T07:51:26.000Z</time>
      </trkpt>
      <trkpt lat="45.41605" lon="4.74008">
        <ele>146.60000610352</ele>
        <time>2024-05-21T07:51:27.000Z</time>
      </trkpt>
      <trkpt lat="45.416" lon="4.74009">
        <ele>146.60000610352</ele>
        <time>2024-05-21T07:51:28.000Z</time>
      </trkpt>
      <trkpt lat="45.41595" lon="4.7401">
        <ele>146.60000610352</ele>
        <time>2024-05-21T07:51:29.000Z</time>
      </trkpt>
      <trkpt lat="45.41589" lon="4.7401">
        <ele>146.60000610352</ele>
        <time>2024-05-21T07:51:30.000Z</time>
      </trkpt>
      <trkpt lat="45.41584" lon="4.74009">
        <ele>146.60000610352</ele>
        <time>2024-05-21T07:51:31.000Z</time>
      </trkpt>
      <trkpt lat="45.41578" lon="4.7401">
        <ele>146.60000610352</ele>
        <time>2024-05-21T07:51:32.000Z</time>
      </trkpt>
      <trkpt lat="45.41573" lon="4.7401">
        <ele>146.60000610352</ele>
        <time>2024-05-21T07:51:33.000Z</time>
      </trkpt>
      <trkpt lat="45.41568" lon="4.7401">
        <ele>146.60000610352</ele>
        <time>2024-05-21T07:51:34.000Z</time>
      </trkpt>
      <trkpt lat="45.41562" lon="4.7401">
        <ele>146.60000610352</ele>
        <time>2024-05-21T07:51:35.000Z</time>
      </trkpt>
      <trkpt lat="45.41557" lon="4.74011">
        <ele>146.80000305176</ele>
        <time>2024-05-21T07:51:36.000Z</time>
      </trkpt>
      <trkpt lat="45.41552" lon="4.74011">
        <ele>146.80000305176</ele>
        <time>2024-05-21T07:51:37.000Z</time>
      </trkpt>
      <trkpt lat="45.41547" lon="4.74011">
        <ele>146.80000305176</ele>
        <time>2024-05-21T07:51:38.000Z</time>
      </trkpt>
      <trkpt lat="45.41541" lon="4.74012">
        <ele>146.80000305176</ele>
        <time>2024-05-21T07:51:39.000Z</time>
      </trkpt>
      <trkpt lat="45.41535" lon="4.74012">
        <ele>146.80000305176</ele>
        <time>2024-05-21T07:51:40.000Z</time>
      </trkpt>
      <trkpt lat="45.41529" lon="4.74012">
        <ele>146.80000305176</ele>
        <time>2024-05-21T07:51:41.000Z</time>
      </trkpt>
      <trkpt lat="45.41524" lon="4.74013">
        <ele>146.80000305176</ele>
        <time>2024-05-21T07:51:42.000Z</time>
      </trkpt>
      <trkpt lat="45.41518" lon="4.74013">
        <ele>146.80000305176</ele>
        <time>2024-05-21T07:51:43.000Z</time>
      </trkpt>
      <trkpt lat="45.41513" lon="4.74014">
        <ele>146.60000610352</ele>
        <time>2024-05-21T07:51:44.000Z</time>
      </trkpt>
      <trkpt lat="45.41507" lon="4.74015">
        <ele>146.60000610352</ele>
        <time>2024-05-21T07:51:45.000Z</time>
      </trkpt>
      <trkpt lat="45.41502" lon="4.74015">
        <ele>146.60000610352</ele>
        <time>2024-05-21T07:51:46.000Z</time>
      </trkpt>
      <trkpt lat="45.41496" lon="4.74014">
        <ele>146.60000610352</ele>
        <time>2024-05-21T07:51:47.000Z</time>
      </trkpt>
      <trkpt lat="45.41492" lon="4.74013">
        <ele>146.60000610352</ele>
        <time>2024-05-21T07:51:48.000Z</time>
      </trkpt>
      <trkpt lat="45.41487" lon="4.74009">
        <ele>146.60000610352</ele>
        <time>2024-05-21T07:51:49.000Z</time>
      </trkpt>
      <trkpt lat="45.41482" lon="4.74004">
        <ele>146.60000610352</ele>
        <time>2024-05-21T07:51:50.000Z</time>
      </trkpt>
      <trkpt lat="45.41479" lon="4.74">
        <ele>146.60000610352</ele>
        <time>2024-05-21T07:51:51.000Z</time>
      </trkpt>
      <trkpt lat="45.41477" lon="4.73993">
        <ele>146.80000305176</ele>
        <time>2024-05-21T07:51:52.000Z</time>
      </trkpt>
      <trkpt lat="45.41475" lon="4.73984">
        <ele>146.80000305176</ele>
        <time>2024-05-21T07:51:53.000Z</time>
      </trkpt>
      <trkpt lat="45.41474" lon="4.73976">
        <ele>146.80000305176</ele>
        <time>2024-05-21T07:51:54.000Z</time>
      </trkpt>
      <trkpt lat="45.41474" lon="4.73969">
        <ele>146.80000305176</ele>
        <time>2024-05-21T07:51:55.000Z</time>
      </trkpt>
      <trkpt lat="45.41474" lon="4.73961">
        <ele>146.80000305176</ele>
        <time>2024-05-21T07:51:56.000Z</time>
      </trkpt>
      <trkpt lat="45.41474" lon="4.73954">
        <ele>146.80000305176</ele>
        <time>2024-05-21T07:51:57.000Z</time>
      </trkpt>
      <trkpt lat="45.41474" lon="4.73947">
        <ele>146.80000305176</ele>
        <time>2024-05-21T07:51:58.000Z</time>
      </trkpt>
      <trkpt lat="45.41474" lon="4.73939">
        <ele>147</ele>
        <time>2024-05-21T07:51:59.000Z</time>
      </trkpt>
      <trkpt lat="45.41473" lon="4.73932">
        <ele>147</ele>
        <time>2024-05-21T07:52:00.000Z</time>
      </trkpt>
      <trkpt lat="45.41473" lon="4.73924">
        <ele>147</ele>
        <time>2024-05-21T07:52:01.000Z</time>
      </trkpt>
      <trkpt lat="45.41472" lon="4.73916">
        <ele>147</ele>
        <time>2024-05-21T07:52:02.000Z</time>
      </trkpt>
      <trkpt lat="45.41471" lon="4.73909">
        <ele>147</ele>
        <time>2024-05-21T07:52:03.000Z</time>
      </trkpt>
      <trkpt lat="45.41471" lon="4.73902">
        <ele>147</ele>
        <time>2024-05-21T07:52:04.000Z</time>
      </trkpt>
      <trkpt lat="45.4147" lon="4.73893">
        <ele>147</ele>
        <time>2024-05-21T07:52:05.000Z</time>
      </trkpt>
      <trkpt lat="45.41469" lon="4.73885">
        <ele>147</ele>
        <time>2024-05-21T07:52:06.000Z</time>
      </trkpt>
      <trkpt lat="45.41468" lon="4.73877">
        <ele>147.19999694824</ele>
        <time>2024-05-21T07:52:07.000Z</time>
      </trkpt>
      <trkpt lat="45.41466" lon="4.7387">
        <ele>147.19999694824</ele>
        <time>2024-05-21T07:52:08.000Z</time>
      </trkpt>
      <trkpt lat="45.41465" lon="4.73863">
        <ele>147.19999694824</ele>
        <time>2024-05-21T07:52:09.000Z</time>
      </trkpt>
      <trkpt lat="45.41464" lon="4.73857">
        <ele>147.19999694824</ele>
        <time>2024-05-21T07:52:10.000Z</time>
      </trkpt>
      <trkpt lat="45.41462" lon="4.73849">
        <ele>147.19999694824</ele>
        <time>2024-05-21T07:52:11.000Z</time>
      </trkpt>
      <trkpt lat="45.4146" lon="4.73841">
        <ele>147.39999389648</ele>
        <time>2024-05-21T07:52:12.000Z</time>
      </trkpt>
      <trkpt lat="45.41459" lon="4.73835">
        <ele>147.39999389648</ele>
        <time>2024-05-21T07:52:13.000Z</time>
      </trkpt>
      <trkpt lat="45.41457" lon="4.73826">
        <ele>147.39999389648</ele>
        <time>2024-05-21T07:52:14.000Z</time>
      </trkpt>
      <trkpt lat="45.41455" lon="4.73818">
        <ele>147.39999389648</ele>
        <time>2024-05-21T07:52:15.000Z</time>
      </trkpt>
      <trkpt lat="45.41453" lon="4.73811">
        <ele>147.60000610352</ele>
        <time>2024-05-21T07:52:16.000Z</time>
      </trkpt>
      <trkpt lat="45.41451" lon="4.73803">
        <ele>147.60000610352</ele>
        <time>2024-05-21T07:52:17.000Z</time>
      </trkpt>
      <trkpt lat="45.4145" lon="4.73797">
        <ele>147.60000610352</ele>
        <time>2024-05-21T07:52:18.000Z</time>
      </trkpt>
      <trkpt lat="45.41447" lon="4.73789">
        <ele>147.60000610352</ele>
        <time>2024-05-21T07:52:19.000Z</time>
      </trkpt>
      <trkpt lat="45.41446" lon="4.73781">
        <ele>147.60000610352</ele>
        <time>2024-05-21T07:52:20.000Z</time>
      </trkpt>
      <trkpt lat="45.41444" lon="4.73775">
        <ele>147.60000610352</ele>
        <time>2024-05-21T07:52:21.000Z</time>
      </trkpt>
      <trkpt lat="45.41442" lon="4.73767">
        <ele>147.60000610352</ele>
        <time>2024-05-21T07:52:22.000Z</time>
      </trkpt>
      <trkpt lat="45.41441" lon="4.7376">
        <ele>147.60000610352</ele>
        <time>2024-05-21T07:52:23.000Z</time>
      </trkpt>
      <trkpt lat="45.41438" lon="4.73754">
        <ele>147.60000610352</ele>
        <time>2024-05-21T07:52:24.000Z</time>
      </trkpt>
      <trkpt lat="45.41435" lon="4.73751">
        <ele>147.39999389648</ele>
        <time>2024-05-21T07:52:25.000Z</time>
      </trkpt>
      <trkpt lat="45.41431" lon="4.73749">
        <ele>147.39999389648</ele>
        <time>2024-05-21T07:52:26.000Z</time>
      </trkpt>
      <trkpt lat="45.41428" lon="4.73749">
        <ele>147.39999389648</ele>
        <time>2024-05-21T07:52:27.000Z</time>
      </trkpt>
      <trkpt lat="45.41425" lon="4.73749">
        <ele>147.39999389648</ele>
        <time>2024-05-21T07:52:28.000Z</time>
      </trkpt>
      <trkpt lat="45.41421" lon="4.7375">
        <ele>147.39999389648</ele>
        <time>2024-05-21T07:52:29.000Z</time>
      </trkpt>
      <trkpt lat="45.41418" lon="4.73749">
        <ele>147.60000610352</ele>
        <time>2024-05-21T07:52:30.000Z</time>
      </trkpt>
      <trkpt lat="45.41415" lon="4.73749">
        <ele>147.80000305176</ele>
        <time>2024-05-21T07:52:31.000Z</time>
      </trkpt>
      <trkpt lat="45.41412" lon="4.73749">
        <ele>147.80000305176</ele>
        <time>2024-05-21T07:52:32.000Z</time>
      </trkpt>
      <trkpt lat="45.41408" lon="4.73749">
        <ele>147.80000305176</ele>
        <time>2024-05-21T07:52:33.000Z</time>
      </trkpt>
      <trkpt lat="45.41406" lon="4.7375">
        <ele>147.80000305176</ele>
        <time>2024-05-21T07:52:34.000Z</time>
      </trkpt>
      <trkpt lat="45.41404" lon="4.73751">
        <ele>147.80000305176</ele>
        <time>2024-05-21T07:52:35.000Z</time>
      </trkpt>
      <trkpt lat="45.41402" lon="4.73755">
        <ele>147.80000305176</ele>
        <time>2024-05-21T07:52:36.000Z</time>
      </trkpt>
      <trkpt lat="45.41402" lon="4.7376">
        <ele>147.80000305176</ele>
        <time>2024-05-21T07:52:37.000Z</time>
      </trkpt>
      <trkpt lat="45.41403" lon="4.73766">
        <ele>147.80000305176</ele>
        <time>2024-05-21T07:52:38.000Z</time>
      </trkpt>
      <trkpt lat="45.41404" lon="4.73771">
        <ele>147.60000610352</ele>
        <time>2024-05-21T07:52:39.000Z</time>
      </trkpt>
      <trkpt lat="45.41405" lon="4.73778">
        <ele>147.39999389648</ele>
        <time>2024-05-21T07:52:40.000Z</time>
      </trkpt>
      <trkpt lat="45.41407" lon="4.73784">
        <ele>147.39999389648</ele>
        <time>2024-05-21T07:52:41.000Z</time>
      </trkpt>
      <trkpt lat="45.41408" lon="4.7379">
        <ele>147</ele>
        <time>2024-05-21T07:52:42.000Z</time>
      </trkpt>
      <trkpt lat="45.41409" lon="4.73797">
        <ele>147</ele>
        <time>2024-05-21T07:52:43.000Z</time>
      </trkpt>
      <trkpt lat="45.4141" lon="4.73804">
        <ele>147</ele>
        <time>2024-05-21T07:52:44.000Z</time>
      </trkpt>
      <trkpt lat="45.41412" lon="4.73811">
        <ele>146.80000305176</ele>
        <time>2024-05-21T07:52:45.000Z</time>
      </trkpt>
      <trkpt lat="45.41413" lon="4.73818">
        <ele>146.80000305176</ele>
        <time>2024-05-21T07:52:46.000Z</time>
      </trkpt>
      <trkpt lat="45.41414" lon="4.73825">
        <ele>146.80000305176</ele>
        <time>2024-05-21T07:52:47.000Z</time>
      </trkpt>
      <trkpt lat="45.41415" lon="4.73832">
        <ele>146.80000305176</ele>
        <time>2024-05-21T07:52:48.000Z</time>
      </trkpt>
      <trkpt lat="45.41417" lon="4.73839">
        <ele>146.80000305176</ele>
        <time>2024-05-21T07:52:49.000Z</time>
      </trkpt>
      <trkpt lat="45.41418" lon="4.73847">
        <ele>146.80000305176</ele>
        <time>2024-05-21T07:52:50.000Z</time>
      </trkpt>
      <trkpt lat="45.41419" lon="4.73853">
        <ele>147</ele>
        <time>2024-05-21T07:52:51.000Z</time>
      </trkpt>
      <trkpt lat="45.4142" lon="4.73861">
        <ele>147</ele>
        <time>2024-05-21T07:52:52.000Z</time>
      </trkpt>
      <trkpt lat="45.41421" lon="4.73868">
        <ele>147</ele>
        <time>2024-05-21T07:52:53.000Z</time>
      </trkpt>
      <trkpt lat="45.41422" lon="4.73875">
        <ele>147</ele>
        <time>2024-05-21T07:52:54.000Z</time>
      </trkpt>
      <trkpt lat="45.41423" lon="4.73884">
        <ele>147</ele>
        <time>2024-05-21T07:52:55.000Z</time>
      </trkpt>
      <trkpt lat="45.41424" lon="4.73891">
        <ele>147</ele>
        <time>2024-05-21T07:52:56.000Z</time>
      </trkpt>
      <trkpt lat="45.41424" lon="4.73899">
        <ele>147</ele>
        <time>2024-05-21T07:52:57.000Z</time>
      </trkpt>
      <trkpt lat="45.41424" lon="4.73907">
        <ele>147</ele>
        <time>2024-05-21T07:52:58.000Z</time>
      </trkpt>
      <trkpt lat="45.41424" lon="4.73915">
        <ele>147</ele>
        <time>2024-05-21T07:52:59.000Z</time>
      </trkpt>
      <trkpt lat="45.41424" lon="4.73923">
        <ele>147</ele>
        <time>2024-05-21T07:53:00.000Z</time>
      </trkpt>
      <trkpt lat="45.41424" lon="4.73931">
        <ele>147</ele>
        <time>2024-05-21T07:53:01.000Z</time>
      </trkpt>
      <trkpt lat="45.41424" lon="4.73939">
        <ele>147</ele>
        <time>2024-05-21T07:53:02.000Z</time>
      </trkpt>
      <trkpt lat="45.41423" lon="4.73948">
        <ele>147</ele>
        <time>2024-05-21T07:53:03.000Z</time>
      </trkpt>
      <trkpt lat="45.41422" lon="4.73956">
        <ele>147</ele>
        <time>2024-05-21T07:53:04.000Z</time>
      </trkpt>
      <trkpt lat="45.41421" lon="4.73964">
        <ele>147</ele>
        <time>2024-05-21T07:53:05.000Z</time>
      </trkpt>
      <trkpt lat="45.4142" lon="4.73972">
        <ele>147</ele>
        <time>2024-05-21T07:53:06.000Z</time>
      </trkpt>
      <trkpt lat="45.41419" lon="4.7398">
        <ele>146.80000305176</ele>
        <time>2024-05-21T07:53:07.000Z</time>
      </trkpt>
      <trkpt lat="45.41417" lon="4.73988">
        <ele>146.80000305176</ele>
        <time>2024-05-21T07:53:08.000Z</time>
      </trkpt>
      <trkpt lat="45.41415" lon="4.73996">
        <ele>146.80000305176</ele>
        <time>2024-05-21T07:53:09.000Z</time>
      </trkpt>
      <trkpt lat="45.41412" lon="4.74003">
        <ele>146.80000305176</ele>
        <time>2024-05-21T07:53:10.000Z</time>
      </trkpt>
      <trkpt lat="45.4141" lon="4.74011">
        <ele>146.60000610352</ele>
        <time>2024-05-21T07:53:11.000Z</time>
      </trkpt>
      <trkpt lat="45.41407" lon="4.74016">
        <ele>146.60000610352</ele>
        <time>2024-05-21T07:53:12.000Z</time>
      </trkpt>
      <trkpt lat="45.41403" lon="4.74023">
        <ele>146.60000610352</ele>
        <time>2024-05-21T07:53:13.000Z</time>
      </trkpt>
      <trkpt lat="45.41398" lon="4.74027">
        <ele>146.60000610352</ele>
        <time>2024-05-21T07:53:14.000Z</time>
      </trkpt>
      <trkpt lat="45.41394" lon="4.7403">
        <ele>146.60000610352</ele>
        <time>2024-05-21T07:53:15.000Z</time>
      </trkpt>
      <trkpt lat="45.41387" lon="4.74032">
        <ele>146.60000610352</ele>
        <time>2024-05-21T07:53:16.000Z</time>
      </trkpt>
      <trkpt lat="45.41381" lon="4.74033">
        <ele>146.60000610352</ele>
        <time>2024-05-21T07:53:17.000Z</time>
      </trkpt>
      <trkpt lat="45.41376" lon="4.74035">
        <ele>146.60000610352</ele>
        <time>2024-05-21T07:53:18.000Z</time>
      </trkpt>
      <trkpt lat="45.4137" lon="4.74036">
        <ele>146.60000610352</ele>
        <time>2024-05-21T07:53:19.000Z</time>
      </trkpt>
      <trkpt lat="45.41365" lon="4.74037">
        <ele>146.60000610352</ele>
        <time>2024-05-21T07:53:20.000Z</time>
      </trkpt>
      <trkpt lat="45.4136" lon="4.74037">
        <ele>146.60000610352</ele>
        <time>2024-05-21T07:53:21.000Z</time>
      </trkpt>
      <trkpt lat="45.41353" lon="4.74038">
        <ele>146.60000610352</ele>
        <time>2024-05-21T07:53:22.000Z</time>
      </trkpt>
      <trkpt lat="45.41348" lon="4.74039">
        <ele>146.60000610352</ele>
        <time>2024-05-21T07:53:23.000Z</time>
      </trkpt>
      <trkpt lat="45.41342" lon="4.74041">
        <ele>146.60000610352</ele>
        <time>2024-05-21T07:53:24.000Z</time>
      </trkpt>
      <trkpt lat="45.41337" lon="4.74041">
        <ele>146.60000610352</ele>
        <time>2024-05-21T07:53:25.000Z</time>
      </trkpt>
      <trkpt lat="45.41331" lon="4.74042">
        <ele>146.60000610352</ele>
        <time>2024-05-21T07:53:26.000Z</time>
      </trkpt>
      <trkpt lat="45.41325" lon="4.74043">
        <ele>146.60000610352</ele>
        <time>2024-05-21T07:53:27.000Z</time>
      </trkpt>
      <trkpt lat="45.41319" lon="4.74044">
        <ele>146.80000305176</ele>
        <time>2024-05-21T07:53:28.000Z</time>
      </trkpt>
      <trkpt lat="45.41314" lon="4.74045">
        <ele>146.80000305176</ele>
        <time>2024-05-21T07:53:29.000Z</time>
      </trkpt>
      <trkpt lat="45.41308" lon="4.74046">
        <ele>146.80000305176</ele>
        <time>2024-05-21T07:53:30.000Z</time>
      </trkpt>
      <trkpt lat="45.41302" lon="4.74047">
        <ele>146.80000305176</ele>
        <time>2024-05-21T07:53:31.000Z</time>
      </trkpt>
      <trkpt lat="45.41296" lon="4.74048">
        <ele>146.60000610352</ele>
        <time>2024-05-21T07:53:32.000Z</time>
      </trkpt>
      <trkpt lat="45.41291" lon="4.74049">
        <ele>146.60000610352</ele>
        <time>2024-05-21T07:53:33.000Z</time>
      </trkpt>
      <trkpt lat="45.41285" lon="4.74049">
        <ele>146.60000610352</ele>
        <time>2024-05-21T07:53:34.000Z</time>
      </trkpt>
      <trkpt lat="45.4128" lon="4.7405">
        <ele>146.60000610352</ele>
        <time>2024-05-21T07:53:35.000Z</time>
      </trkpt>
      <trkpt lat="45.41275" lon="4.74051">
        <ele>146.60000610352</ele>
        <time>2024-05-21T07:53:36.000Z</time>
      </trkpt>
      <trkpt lat="45.41269" lon="4.74052">
        <ele>146.60000610352</ele>
        <time>2024-05-21T07:53:37.000Z</time>
      </trkpt>
      <trkpt lat="45.41263" lon="4.74053">
        <ele>146.60000610352</ele>
        <time>2024-05-21T07:53:38.000Z</time>
      </trkpt>
      <trkpt lat="45.41257" lon="4.74054">
        <ele>146.60000610352</ele>
        <time>2024-05-21T07:53:39.000Z</time>
      </trkpt>
      <trkpt lat="45.41252" lon="4.74055">
        <ele>146.60000610352</ele>
        <time>2024-05-21T07:53:40.000Z</time>
      </trkpt>
      <trkpt lat="45.41246" lon="4.74056">
        <ele>146.60000610352</ele>
        <time>2024-05-21T07:53:41.000Z</time>
      </trkpt>
      <trkpt lat="45.41241" lon="4.74057">
        <ele>146.60000610352</ele>
        <time>2024-05-21T07:53:42.000Z</time>
      </trkpt>
      <trkpt lat="45.41236" lon="4.74056">
        <ele>146.80000305176</ele>
        <time>2024-05-21T07:53:43.000Z</time>
      </trkpt>
      <trkpt lat="45.41231" lon="4.74052">
        <ele>146.60000610352</ele>
        <time>2024-05-21T07:53:44.000Z</time>
      </trkpt>
      <trkpt lat="45.41228" lon="4.74047">
        <ele>146.60000610352</ele>
        <time>2024-05-21T07:53:45.000Z</time>
      </trkpt>
      <trkpt lat="45.41225" lon="4.74039">
        <ele>146.60000610352</ele>
        <time>2024-05-21T07:53:46.000Z</time>
      </trkpt>
      <trkpt lat="45.41224" lon="4.7403">
        <ele>146.60000610352</ele>
        <time>2024-05-21T07:53:47.000Z</time>
      </trkpt>
      <trkpt lat="45.41223" lon="4.74021">
        <ele>146.39999389648</ele>
        <time>2024-05-21T07:53:48.000Z</time>
      </trkpt>
      <trkpt lat="45.41221" lon="4.74012">
        <ele>146</ele>
        <time>2024-05-21T07:53:49.000Z</time>
      </trkpt>
      <trkpt lat="45.41219" lon="4.74004">
        <ele>145.60000610352</ele>
        <time>2024-05-21T07:53:50.000Z</time>
      </trkpt>
      <trkpt lat="45.41216" lon="4.73999">
        <ele>145</ele>
        <time>2024-05-21T07:53:51.000Z</time>
      </trkpt>
      <trkpt lat="45.41211" lon="4.73995">
        <ele>144.39999389648</ele>
        <time>2024-05-21T07:53:52.000Z</time>
      </trkpt>
      <trkpt lat="45.41205" lon="4.73993">
        <ele>144.19999694824</ele>
        <time>2024-05-21T07:53:53.000Z</time>
      </trkpt>
      <trkpt lat="45.41199" lon="4.73994">
        <ele>144</ele>
        <time>2024-05-21T07:53:54.000Z</time>
      </trkpt>
      <trkpt lat="45.41193" lon="4.73995">
        <ele>143.80000305176</ele>
        <time>2024-05-21T07:53:55.000Z</time>
      </trkpt>
      <trkpt lat="45.41187" lon="4.73997">
        <ele>143.39999389648</ele>
        <time>2024-05-21T07:53:56.000Z</time>
      </trkpt>
      <trkpt lat="45.41182" lon="4.73999">
        <ele>143.39999389648</ele>
        <time>2024-05-21T07:53:57.000Z</time>
      </trkpt>
      <trkpt lat="45.41177" lon="4.74001">
        <ele>143.19999694824</ele>
        <time>2024-05-21T07:53:58.000Z</time>
      </trkpt>
      <trkpt lat="45.41171" lon="4.74002">
        <ele>143</ele>
        <time>2024-05-21T07:53:59.000Z</time>
      </trkpt>
      <trkpt lat="45.41165" lon="4.74004">
        <ele>143</ele>
        <time>2024-05-21T07:54:00.000Z</time>
      </trkpt>
      <trkpt lat="45.41159" lon="4.74005">
        <ele>143</ele>
        <time>2024-05-21T07:54:01.000Z</time>
      </trkpt>
      <trkpt lat="45.41153" lon="4.74006">
        <ele>143</ele>
        <time>2024-05-21T07:54:02.000Z</time>
      </trkpt>
      <trkpt lat="45.41148" lon="4.74007">
        <ele>143</ele>
        <time>2024-05-21T07:54:03.000Z</time>
      </trkpt>
      <trkpt lat="45.41142" lon="4.74008">
        <ele>143</ele>
        <time>2024-05-21T07:54:04.000Z</time>
      </trkpt>
      <trkpt lat="45.41135" lon="4.74009">
        <ele>143</ele>
        <time>2024-05-21T07:54:05.000Z</time>
      </trkpt>
      <trkpt lat="45.4113" lon="4.7401">
        <ele>143</ele>
        <time>2024-05-21T07:54:06.000Z</time>
      </trkpt>
      <trkpt lat="45.41125" lon="4.74011">
        <ele>143</ele>
        <time>2024-05-21T07:54:07.000Z</time>
      </trkpt>
      <trkpt lat="45.41118" lon="4.74012">
        <ele>143</ele>
        <time>2024-05-21T07:54:08.000Z</time>
      </trkpt>
      <trkpt lat="45.41113" lon="4.74013">
        <ele>143</ele>
        <time>2024-05-21T07:54:09.000Z</time>
      </trkpt>
      <trkpt lat="45.41107" lon="4.74015">
        <ele>143</ele>
        <time>2024-05-21T07:54:10.000Z</time>
      </trkpt>
      <trkpt lat="45.41102" lon="4.74016">
        <ele>143.19999694824</ele>
        <time>2024-05-21T07:54:11.000Z</time>
      </trkpt>
      <trkpt lat="45.41096" lon="4.74017">
        <ele>143.19999694824</ele>
        <time>2024-05-21T07:54:12.000Z</time>
      </trkpt>
      <trkpt lat="45.41091" lon="4.74019">
        <ele>143.19999694824</ele>
        <time>2024-05-21T07:54:13.000Z</time>
      </trkpt>
      <trkpt lat="45.41084" lon="4.74021">
        <ele>143.19999694824</ele>
        <time>2024-05-21T07:54:14.000Z</time>
      </trkpt>
      <trkpt lat="45.41079" lon="4.74022">
        <ele>143.19999694824</ele>
        <time>2024-05-21T07:54:15.000Z</time>
      </trkpt>
      <trkpt lat="45.41073" lon="4.74023">
        <ele>143.39999389648</ele>
        <time>2024-05-21T07:54:16.000Z</time>
      </trkpt>
      <trkpt lat="45.41066" lon="4.74025">
        <ele>143.19999694824</ele>
        <time>2024-05-21T07:54:17.000Z</time>
      </trkpt>
      <trkpt lat="45.41062" lon="4.74027">
        <ele>143.19999694824</ele>
        <time>2024-05-21T07:54:18.000Z</time>
      </trkpt>
      <trkpt lat="45.41056" lon="4.74029">
        <ele>143.39999389648</ele>
        <time>2024-05-21T07:54:19.000Z</time>
      </trkpt>
      <trkpt lat="45.4105" lon="4.7403">
        <ele>143.39999389648</ele>
        <time>2024-05-21T07:54:20.000Z</time>
      </trkpt>
      <trkpt lat="45.41043" lon="4.74032">
        <ele>143.39999389648</ele>
        <time>2024-05-21T07:54:21.000Z</time>
      </trkpt>
      <trkpt lat="45.41039" lon="4.74034">
        <ele>143.39999389648</ele>
        <time>2024-05-21T07:54:22.000Z</time>
      </trkpt>
      <trkpt lat="45.41032" lon="4.74036">
        <ele>143.39999389648</ele>
        <time>2024-05-21T07:54:23.000Z</time>
      </trkpt>
      <trkpt lat="45.41026" lon="4.74038">
        <ele>143.39999389648</ele>
        <time>2024-05-21T07:54:24.000Z</time>
      </trkpt>
      <trkpt lat="45.41021" lon="4.7404">
        <ele>143.39999389648</ele>
        <time>2024-05-21T07:54:25.000Z</time>
      </trkpt>
      <trkpt lat="45.41014" lon="4.74043">
        <ele>143.19999694824</ele>
        <time>2024-05-21T07:54:26.000Z</time>
      </trkpt>
      <trkpt lat="45.4101" lon="4.74044">
        <ele>143.19999694824</ele>
        <time>2024-05-21T07:54:27.000Z</time>
      </trkpt>
      <trkpt lat="45.41004" lon="4.74046">
        <ele>143.19999694824</ele>
        <time>2024-05-21T07:54:28.000Z</time>
      </trkpt>
      <trkpt lat="45.40997" lon="4.74049">
        <ele>143</ele>
        <time>2024-05-21T07:54:29.000Z</time>
      </trkpt>
      <trkpt lat="45.40992" lon="4.74051">
        <ele>143</ele>
        <time>2024-05-21T07:54:30.000Z</time>
      </trkpt>
      <trkpt lat="45.40986" lon="4.74054">
        <ele>143</ele>
        <time>2024-05-21T07:54:31.000Z</time>
      </trkpt>
      <trkpt lat="45.40979" lon="4.74057">
        <ele>143</ele>
        <time>2024-05-21T07:54:32.000Z</time>
      </trkpt>
      <trkpt lat="45.40975" lon="4.74059">
        <ele>143</ele>
        <time>2024-05-21T07:54:33.000Z</time>
      </trkpt>
      <trkpt lat="45.40969" lon="4.74062">
        <ele>143.19999694824</ele>
        <time>2024-05-21T07:54:34.000Z</time>
      </trkpt>
      <trkpt lat="45.40963" lon="4.74065">
        <ele>143.19999694824</ele>
        <time>2024-05-21T07:54:35.000Z</time>
      </trkpt>
      <trkpt lat="45.40957" lon="4.74067">
        <ele>143.19999694824</ele>
        <time>2024-05-21T07:54:36.000Z</time>
      </trkpt>
      <trkpt lat="45.40952" lon="4.7407">
        <ele>143.19999694824</ele>
        <time>2024-05-21T07:54:37.000Z</time>
      </trkpt>
      <trkpt lat="45.40946" lon="4.74073">
        <ele>143</ele>
        <time>2024-05-21T07:54:38.000Z</time>
      </trkpt>
      <trkpt lat="45.4094" lon="4.74076">
        <ele>143</ele>
        <time>2024-05-21T07:54:39.000Z</time>
      </trkpt>
      <trkpt lat="45.40935" lon="4.74079">
        <ele>143</ele>
        <time>2024-05-21T07:54:40.000Z</time>
      </trkpt>
      <trkpt lat="45.40929" lon="4.74082">
        <ele>143</ele>
        <time>2024-05-21T07:54:41.000Z</time>
      </trkpt>
      <trkpt lat="45.40923" lon="4.74085">
        <ele>143</ele>
        <time>2024-05-21T07:54:42.000Z</time>
      </trkpt>
      <trkpt lat="45.40917" lon="4.74087">
        <ele>143</ele>
        <time>2024-05-21T07:54:43.000Z</time>
      </trkpt>
      <trkpt lat="45.40912" lon="4.74091">
        <ele>143</ele>
        <time>2024-05-21T07:54:44.000Z</time>
      </trkpt>
      <trkpt lat="45.40906" lon="4.74094">
        <ele>143</ele>
        <time>2024-05-21T07:54:45.000Z</time>
      </trkpt>
      <trkpt lat="45.40901" lon="4.74098">
        <ele>143</ele>
        <time>2024-05-21T07:54:46.000Z</time>
      </trkpt>
      <trkpt lat="45.40896" lon="4.74101">
        <ele>143.19999694824</ele>
        <time>2024-05-21T07:54:47.000Z</time>
      </trkpt>
      <trkpt lat="45.4089" lon="4.74104">
        <ele>143.19999694824</ele>
        <time>2024-05-21T07:54:48.000Z</time>
      </trkpt>
      <trkpt lat="45.40885" lon="4.74107">
        <ele>143.19999694824</ele>
        <time>2024-05-21T07:54:49.000Z</time>
      </trkpt>
      <trkpt lat="45.40879" lon="4.7411">
        <ele>143.19999694824</ele>
        <time>2024-05-21T07:54:50.000Z</time>
      </trkpt>
      <trkpt lat="45.40874" lon="4.74114">
        <ele>143.19999694824</ele>
        <time>2024-05-21T07:54:51.000Z</time>
      </trkpt>
      <trkpt lat="45.40869" lon="4.74117">
        <ele>143.19999694824</ele>
        <time>2024-05-21T07:54:52.000Z</time>
      </trkpt>
      <trkpt lat="45.40863" lon="4.7412">
        <ele>143.19999694824</ele>
        <time>2024-05-21T07:54:53.000Z</time>
      </trkpt>
      <trkpt lat="45.40858" lon="4.74124">
        <ele>143.19999694824</ele>
        <time>2024-05-21T07:54:54.000Z</time>
      </trkpt>
      <trkpt lat="45.40853" lon="4.74127">
        <ele>143.19999694824</ele>
        <time>2024-05-21T07:54:55.000Z</time>
      </trkpt>
      <trkpt lat="45.40847" lon="4.7413">
        <ele>143.19999694824</ele>
        <time>2024-05-21T07:54:56.000Z</time>
      </trkpt>
      <trkpt lat="45.40842" lon="4.74134">
        <ele>143.19999694824</ele>
        <time>2024-05-21T07:54:57.000Z</time>
      </trkpt>
      <trkpt lat="45.40837" lon="4.74137">
        <ele>143.19999694824</ele>
        <time>2024-05-21T07:54:58.000Z</time>
      </trkpt>
      <trkpt lat="45.40833" lon="4.7414">
        <ele>143</ele>
        <time>2024-05-21T07:54:59.000Z</time>
      </trkpt>
      <trkpt lat="45.40828" lon="4.74144">
        <ele>143</ele>
        <time>2024-05-21T07:55:00.000Z</time>
      </trkpt>
      <trkpt lat="45.40824" lon="4.74147">
        <ele>142.60000610352</ele>
        <time>2024-05-21T07:55:01.000Z</time>
      </trkpt>
      <trkpt lat="45.40819" lon="4.7415">
        <ele>142.60000610352</ele>
        <time>2024-05-21T07:55:02.000Z</time>
      </trkpt>
      <trkpt lat="45.40814" lon="4.74152">
        <ele>142.39999389648</ele>
        <time>2024-05-21T07:55:03.000Z</time>
      </trkpt>
      <trkpt lat="45.40809" lon="4.74155">
        <ele>142.39999389648</ele>
        <time>2024-05-21T07:55:04.000Z</time>
      </trkpt>
      <trkpt lat="45.40803" lon="4.74159">
        <ele>142.39999389648</ele>
        <time>2024-05-21T07:55:05.000Z</time>
      </trkpt>
      <trkpt lat="45.40798" lon="4.74162">
        <ele>142.39999389648</ele>
        <time>2024-05-21T07:55:06.000Z</time>
      </trkpt>
      <trkpt lat="45.40792" lon="4.74166">
        <ele>142.39999389648</ele>
        <time>2024-05-21T07:55:07.000Z</time>
      </trkpt>
      <trkpt lat="45.40787" lon="4.74169">
        <ele>141.39999389648</ele>
        <time>2024-05-21T07:55:08.000Z</time>
      </trkpt>
      <trkpt lat="45.40783" lon="4.74172">
        <ele>141.39999389648</ele>
        <time>2024-05-21T07:55:09.000Z</time>
      </trkpt>
      <trkpt lat="45.40778" lon="4.74175">
        <ele>141.39999389648</ele>
        <time>2024-05-21T07:55:10.000Z</time>
      </trkpt>
      <trkpt lat="45.40774" lon="4.74178">
        <ele>141.39999389648</ele>
        <time>2024-05-21T07:55:11.000Z</time>
      </trkpt>
      <trkpt lat="45.4077" lon="4.74181">
        <ele>141.80000305176</ele>
        <time>2024-05-21T07:55:12.000Z</time>
      </trkpt>
      <trkpt lat="45.40766" lon="4.74184">
        <ele>142.19999694824</ele>
        <time>2024-05-21T07:55:13.000Z</time>
      </trkpt>
      <trkpt lat="45.40761" lon="4.74187">
        <ele>142.39999389648</ele>
        <time>2024-05-21T07:55:14.000Z</time>
      </trkpt>
      <trkpt lat="45.40757" lon="4.74191">
        <ele>142.60000610352</ele>
        <time>2024-05-21T07:55:15.000Z</time>
      </trkpt>
      <trkpt lat="45.40752" lon="4.74194">
        <ele>142.80000305176</ele>
        <time>2024-05-21T07:55:16.000Z</time>
      </trkpt>
      <trkpt lat="45.40747" lon="4.74198">
        <ele>143</ele>
        <time>2024-05-21T07:55:17.000Z</time>
      </trkpt>
      <trkpt lat="45.40742" lon="4.74202">
        <ele>143</ele>
        <time>2024-05-21T07:55:18.000Z</time>
      </trkpt>
      <trkpt lat="45.40737" lon="4.74205">
        <ele>143</ele>
        <time>2024-05-21T07:55:19.000Z</time>
      </trkpt>
      <trkpt lat="45.40732" lon="4.74209">
        <ele>143</ele>
        <time>2024-05-21T07:55:20.000Z</time>
      </trkpt>
      <trkpt lat="45.40728" lon="4.74213">
        <ele>143</ele>
        <time>2024-05-21T07:55:21.000Z</time>
      </trkpt>
      <trkpt lat="45.40723" lon="4.74216">
        <ele>143</ele>
        <time>2024-05-21T07:55:22.000Z</time>
      </trkpt>
      <trkpt lat="45.40718" lon="4.7422">
        <ele>143</ele>
        <time>2024-05-21T07:55:23.000Z</time>
      </trkpt>
      <trkpt lat="45.40713" lon="4.74224">
        <ele>143</ele>
        <time>2024-05-21T07:55:24.000Z</time>
      </trkpt>
      <trkpt lat="45.40708" lon="4.74228">
        <ele>143</ele>
        <time>2024-05-21T07:55:25.000Z</time>
      </trkpt>
      <trkpt lat="45.40703" lon="4.74231">
        <ele>143.19999694824</ele>
        <time>2024-05-21T07:55:26.000Z</time>
      </trkpt>
      <trkpt lat="45.40697" lon="4.74234">
        <ele>143.19999694824</ele>
        <time>2024-05-21T07:55:27.000Z</time>
      </trkpt>
      <trkpt lat="45.40692" lon="4.74237">
        <ele>143.19999694824</ele>
        <time>2024-05-21T07:55:28.000Z</time>
      </trkpt>
      <trkpt lat="45.40687" lon="4.7424">
        <ele>143.19999694824</ele>
        <time>2024-05-21T07:55:29.000Z</time>
      </trkpt>
      <trkpt lat="45.40682" lon="4.74243">
        <ele>143.19999694824</ele>
        <time>2024-05-21T07:55:30.000Z</time>
      </trkpt>
      <trkpt lat="45.40677" lon="4.74247">
        <ele>143</ele>
        <time>2024-05-21T07:55:31.000Z</time>
      </trkpt>
      <trkpt lat="45.40671" lon="4.7425">
        <ele>143</ele>
        <time>2024-05-21T07:55:32.000Z</time>
      </trkpt>
      <trkpt lat="45.40666" lon="4.74254">
        <ele>143</ele>
        <time>2024-05-21T07:55:33.000Z</time>
      </trkpt>
      <trkpt lat="45.4066" lon="4.74257">
        <ele>143</ele>
        <time>2024-05-21T07:55:34.000Z</time>
      </trkpt>
      <trkpt lat="45.40655" lon="4.74261">
        <ele>142.80000305176</ele>
        <time>2024-05-21T07:55:35.000Z</time>
      </trkpt>
      <trkpt lat="45.40649" lon="4.74264">
        <ele>142.80000305176</ele>
        <time>2024-05-21T07:55:36.000Z</time>
      </trkpt>
      <trkpt lat="45.40643" lon="4.74267">
        <ele>142.80000305176</ele>
        <time>2024-05-21T07:55:37.000Z</time>
      </trkpt>
      <trkpt lat="45.40638" lon="4.7427">
        <ele>142.80000305176</ele>
        <time>2024-05-21T07:55:38.000Z</time>
      </trkpt>
      <trkpt lat="45.40632" lon="4.74273">
        <ele>142.80000305176</ele>
        <time>2024-05-21T07:55:39.000Z</time>
      </trkpt>
      <trkpt lat="45.40627" lon="4.74277">
        <ele>142.80000305176</ele>
        <time>2024-05-21T07:55:40.000Z</time>
      </trkpt>
      <trkpt lat="45.40621" lon="4.74281">
        <ele>142.60000610352</ele>
        <time>2024-05-21T07:55:41.000Z</time>
      </trkpt>
      <trkpt lat="45.40615" lon="4.74284">
        <ele>142.60000610352</ele>
        <time>2024-05-21T07:55:42.000Z</time>
      </trkpt>
      <trkpt lat="45.4061" lon="4.74288">
        <ele>142.60000610352</ele>
        <time>2024-05-21T07:55:43.000Z</time>
      </trkpt>
      <trkpt lat="45.40604" lon="4.74293">
        <ele>142.39999389648</ele>
        <time>2024-05-21T07:55:44.000Z</time>
      </trkpt>
      <trkpt lat="45.40599" lon="4.74296">
        <ele>142.39999389648</ele>
        <time>2024-05-21T07:55:45.000Z</time>
      </trkpt>
      <trkpt lat="45.40593" lon="4.743">
        <ele>142.39999389648</ele>
        <time>2024-05-21T07:55:46.000Z</time>
      </trkpt>
      <trkpt lat="45.40587" lon="4.74304">
        <ele>142.39999389648</ele>
        <time>2024-05-21T07:55:47.000Z</time>
      </trkpt>
      <trkpt lat="45.40582" lon="4.74308">
        <ele>142.39999389648</ele>
        <time>2024-05-21T07:55:48.000Z</time>
      </trkpt>
      <trkpt lat="45.40576" lon="4.74312">
        <ele>142.39999389648</ele>
        <time>2024-05-21T07:55:49.000Z</time>
      </trkpt>
      <trkpt lat="45.4057" lon="4.74316">
        <ele>142.39999389648</ele>
        <time>2024-05-21T07:55:50.000Z</time>
      </trkpt>
      <trkpt lat="45.40565" lon="4.74319">
        <ele>142.39999389648</ele>
        <time>2024-05-21T07:55:51.000Z</time>
      </trkpt>
      <trkpt lat="45.40559" lon="4.74323">
        <ele>142.39999389648</ele>
        <time>2024-05-21T07:55:52.000Z</time>
      </trkpt>
      <trkpt lat="45.40554" lon="4.74327">
        <ele>142.39999389648</ele>
        <time>2024-05-21T07:55:53.000Z</time>
      </trkpt>
      <trkpt lat="45.40548" lon="4.74331">
        <ele>142.39999389648</ele>
        <time>2024-05-21T07:55:54.000Z</time>
      </trkpt>
      <trkpt lat="45.40543" lon="4.74334">
        <ele>142.39999389648</ele>
        <time>2024-05-21T07:55:55.000Z</time>
      </trkpt>
      <trkpt lat="45.40537" lon="4.74338">
        <ele>142.39999389648</ele>
        <time>2024-05-21T07:55:56.000Z</time>
      </trkpt>
      <trkpt lat="45.40532" lon="4.74343">
        <ele>142.39999389648</ele>
        <time>2024-05-21T07:55:57.000Z</time>
      </trkpt>
      <trkpt lat="45.40526" lon="4.74347">
        <ele>142.39999389648</ele>
        <time>2024-05-21T07:55:58.000Z</time>
      </trkpt>
      <trkpt lat="45.40521" lon="4.74351">
        <ele>142.19999694824</ele>
        <time>2024-05-21T07:55:59.000Z</time>
      </trkpt>
      <trkpt lat="45.40515" lon="4.74356">
        <ele>142.19999694824</ele>
        <time>2024-05-21T07:56:00.000Z</time>
      </trkpt>
      <trkpt lat="45.4051" lon="4.7436">
        <ele>142.19999694824</ele>
        <time>2024-05-21T07:56:01.000Z</time>
      </trkpt>
      <trkpt lat="45.40505" lon="4.74364">
        <ele>142</ele>
        <time>2024-05-21T07:56:02.000Z</time>
      </trkpt>
      <trkpt lat="45.40499" lon="4.74368">
        <ele>142</ele>
        <time>2024-05-21T07:56:03.000Z</time>
      </trkpt>
      <trkpt lat="45.40494" lon="4.74373">
        <ele>142</ele>
        <time>2024-05-21T07:56:04.000Z</time>
      </trkpt>
      <trkpt lat="45.40488" lon="4.74377">
        <ele>142</ele>
        <time>2024-05-21T07:56:05.000Z</time>
      </trkpt>
      <trkpt lat="45.40483" lon="4.74382">
        <ele>142</ele>
        <time>2024-05-21T07:56:06.000Z</time>
      </trkpt>
      <trkpt lat="45.40478" lon="4.74387">
        <ele>142</ele>
        <time>2024-05-21T07:56:07.000Z</time>
      </trkpt>
      <trkpt lat="45.40473" lon="4.74391">
        <ele>142</ele>
        <time>2024-05-21T07:56:08.000Z</time>
      </trkpt>
      <trkpt lat="45.40468" lon="4.74395">
        <ele>142.19999694824</ele>
        <time>2024-05-21T07:56:09.000Z</time>
      </trkpt>
      <trkpt lat="45.40463" lon="4.744">
        <ele>142.19999694824</ele>
        <time>2024-05-21T07:56:10.000Z</time>
      </trkpt>
      <trkpt lat="45.40458" lon="4.74405">
        <ele>142.19999694824</ele>
        <time>2024-05-21T07:56:11.000Z</time>
      </trkpt>
      <trkpt lat="45.40453" lon="4.7441">
        <ele>142.19999694824</ele>
        <time>2024-05-21T07:56:12.000Z</time>
      </trkpt>
      <trkpt lat="45.40448" lon="4.74415">
        <ele>142.39999389648</ele>
        <time>2024-05-21T07:56:13.000Z</time>
      </trkpt>
      <trkpt lat="45.40442" lon="4.74421">
        <ele>142.39999389648</ele>
        <time>2024-05-21T07:56:14.000Z</time>
      </trkpt>
      <trkpt lat="45.40437" lon="4.74426">
        <ele>142.39999389648</ele>
        <time>2024-05-21T07:56:15.000Z</time>
      </trkpt>
      <trkpt lat="45.40431" lon="4.74431">
        <ele>142.39999389648</ele>
        <time>2024-05-21T07:56:16.000Z</time>
      </trkpt>
      <trkpt lat="45.40426" lon="4.74436">
        <ele>142.39999389648</ele>
        <time>2024-05-21T07:56:17.000Z</time>
      </trkpt>
      <trkpt lat="45.40421" lon="4.74442">
        <ele>142.39999389648</ele>
        <time>2024-05-21T07:56:18.000Z</time>
      </trkpt>
      <trkpt lat="45.40416" lon="4.74447">
        <ele>142.39999389648</ele>
        <time>2024-05-21T07:56:19.000Z</time>
      </trkpt>
      <trkpt lat="45.40411" lon="4.74453">
        <ele>142.19999694824</ele>
        <time>2024-05-21T07:56:20.000Z</time>
      </trkpt>
      <trkpt lat="45.40405" lon="4.74458">
        <ele>142.19999694824</ele>
        <time>2024-05-21T07:56:21.000Z</time>
      </trkpt>
      <trkpt lat="45.40401" lon="4.74462">
        <ele>142.19999694824</ele>
        <time>2024-05-21T07:56:22.000Z</time>
      </trkpt>
      <trkpt lat="45.40396" lon="4.74467">
        <ele>142.19999694824</ele>
        <time>2024-05-21T07:56:23.000Z</time>
      </trkpt>
      <trkpt lat="45.4039" lon="4.74474">
        <ele>142.19999694824</ele>
        <time>2024-05-21T07:56:24.000Z</time>
      </trkpt>
      <trkpt lat="45.40385" lon="4.74479">
        <ele>142.19999694824</ele>
        <time>2024-05-21T07:56:25.000Z</time>
      </trkpt>
      <trkpt lat="45.4038" lon="4.74484">
        <ele>142.19999694824</ele>
        <time>2024-05-21T07:56:26.000Z</time>
      </trkpt>
      <trkpt lat="45.40375" lon="4.74489">
        <ele>142.19999694824</ele>
        <time>2024-05-21T07:56:27.000Z</time>
      </trkpt>
      <trkpt lat="45.4037" lon="4.74494">
        <ele>142.19999694824</ele>
        <time>2024-05-21T07:56:28.000Z</time>
      </trkpt>
      <trkpt lat="45.40365" lon="4.745">
        <ele>142.19999694824</ele>
        <time>2024-05-21T07:56:29.000Z</time>
      </trkpt>
      <trkpt lat="45.40361" lon="4.74505">
        <ele>142.39999389648</ele>
        <time>2024-05-21T07:56:30.000Z</time>
      </trkpt>
      <trkpt lat="45.40356" lon="4.7451">
        <ele>142.39999389648</ele>
        <time>2024-05-21T07:56:31.000Z</time>
      </trkpt>
      <trkpt lat="45.40351" lon="4.74516">
        <ele>142.39999389648</ele>
        <time>2024-05-21T07:56:32.000Z</time>
      </trkpt>
      <trkpt lat="45.40346" lon="4.74521">
        <ele>142.60000610352</ele>
        <time>2024-05-21T07:56:33.000Z</time>
      </trkpt>
      <trkpt lat="45.40341" lon="4.74526">
        <ele>142.60000610352</ele>
        <time>2024-05-21T07:56:34.000Z</time>
      </trkpt>
      <trkpt lat="45.40336" lon="4.74531">
        <ele>142.60000610352</ele>
        <time>2024-05-21T07:56:35.000Z</time>
      </trkpt>
      <trkpt lat="45.40332" lon="4.74536">
        <ele>142.60000610352</ele>
        <time>2024-05-21T07:56:36.000Z</time>
      </trkpt>
      <trkpt lat="45.40327" lon="4.74541">
        <ele>142.60000610352</ele>
        <time>2024-05-21T07:56:37.000Z</time>
      </trkpt>
      <trkpt lat="45.40322" lon="4.74547">
        <ele>142.80000305176</ele>
        <time>2024-05-21T07:56:38.000Z</time>
      </trkpt>
      <trkpt lat="45.40317" lon="4.74551">
        <ele>142.80000305176</ele>
        <time>2024-05-21T07:56:39.000Z</time>
      </trkpt>
      <trkpt lat="45.40312" lon="4.74556">
        <ele>142.80000305176</ele>
        <time>2024-05-21T07:56:40.000Z</time>
      </trkpt>
      <trkpt lat="45.40307" lon="4.74561">
        <ele>142.80000305176</ele>
        <time>2024-05-21T07:56:41.000Z</time>
      </trkpt>
      <trkpt lat="45.40301" lon="4.74566">
        <ele>142.80000305176</ele>
        <time>2024-05-21T07:56:42.000Z</time>
      </trkpt>
      <trkpt lat="45.40296" lon="4.7457">
        <ele>142.80000305176</ele>
        <time>2024-05-21T07:56:43.000Z</time>
      </trkpt>
      <trkpt lat="45.40292" lon="4.74574">
        <ele>142.80000305176</ele>
        <time>2024-05-21T07:56:44.000Z</time>
      </trkpt>
      <trkpt lat="45.40287" lon="4.74579">
        <ele>142.80000305176</ele>
        <time>2024-05-21T07:56:45.000Z</time>
      </trkpt>
      <trkpt lat="45.40282" lon="4.74584">
        <ele>142.80000305176</ele>
        <time>2024-05-21T07:56:46.000Z</time>
      </trkpt>
      <trkpt lat="45.40277" lon="4.74589">
        <ele>142.80000305176</ele>
        <time>2024-05-21T07:56:47.000Z</time>
      </trkpt>
      <trkpt lat="45.40271" lon="4.74595">
        <ele>143</ele>
        <time>2024-05-21T07:56:48.000Z</time>
      </trkpt>
      <trkpt lat="45.40266" lon="4.74599">
        <ele>143</ele>
        <time>2024-05-21T07:56:49.000Z</time>
      </trkpt>
      <trkpt lat="45.40263" lon="4.74603">
        <ele>143</ele>
        <time>2024-05-21T07:56:50.000Z</time>
      </trkpt>
      <trkpt lat="45.40257" lon="4.74609">
        <ele>143</ele>
        <time>2024-05-21T07:56:51.000Z</time>
      </trkpt>
      <trkpt lat="45.40252" lon="4.74614">
        <ele>143</ele>
        <time>2024-05-21T07:56:52.000Z</time>
      </trkpt>
      <trkpt lat="45.40246" lon="4.74618">
        <ele>143</ele>
        <time>2024-05-21T07:56:53.000Z</time>
      </trkpt>
      <trkpt lat="45.40241" lon="4.74623">
        <ele>143.19999694824</ele>
        <time>2024-05-21T07:56:54.000Z</time>
      </trkpt>
      <trkpt lat="45.40236" lon="4.74627">
        <ele>143.19999694824</ele>
        <time>2024-05-21T07:56:55.000Z</time>
      </trkpt>
      <trkpt lat="45.40232" lon="4.74631">
        <ele>143.19999694824</ele>
        <time>2024-05-21T07:56:56.000Z</time>
      </trkpt>
      <trkpt lat="45.40227" lon="4.74637">
        <ele>143.19999694824</ele>
        <time>2024-05-21T07:56:57.000Z</time>
      </trkpt>
      <trkpt lat="45.40222" lon="4.74642">
        <ele>143.19999694824</ele>
        <time>2024-05-21T07:56:58.000Z</time>
      </trkpt>
      <trkpt lat="45.40217" lon="4.74647">
        <ele>143.19999694824</ele>
        <time>2024-05-21T07:56:59.000Z</time>
      </trkpt>
      <trkpt lat="45.40212" lon="4.74651">
        <ele>143.19999694824</ele>
        <time>2024-05-21T07:57:00.000Z</time>
      </trkpt>
      <trkpt lat="45.40207" lon="4.74656">
        <ele>143.19999694824</ele>
        <time>2024-05-21T07:57:01.000Z</time>
      </trkpt>
      <trkpt lat="45.40203" lon="4.7466">
        <ele>143.19999694824</ele>
        <time>2024-05-21T07:57:02.000Z</time>
      </trkpt>
      <trkpt lat="45.40197" lon="4.74666">
        <ele>143.19999694824</ele>
        <time>2024-05-21T07:57:03.000Z</time>
      </trkpt>
      <trkpt lat="45.40192" lon="4.74671">
        <ele>143.19999694824</ele>
        <time>2024-05-21T07:57:04.000Z</time>
      </trkpt>
      <trkpt lat="45.40188" lon="4.74675">
        <ele>143.19999694824</ele>
        <time>2024-05-21T07:57:05.000Z</time>
      </trkpt>
      <trkpt lat="45.40184" lon="4.74679">
        <ele>143.19999694824</ele>
        <time>2024-05-21T07:57:06.000Z</time>
      </trkpt>
      <trkpt lat="45.40178" lon="4.74685">
        <ele>143.19999694824</ele>
        <time>2024-05-21T07:57:07.000Z</time>
      </trkpt>
      <trkpt lat="45.40173" lon="4.7469">
        <ele>143.19999694824</ele>
        <time>2024-05-21T07:57:08.000Z</time>
      </trkpt>
      <trkpt lat="45.40168" lon="4.74694">
        <ele>143.19999694824</ele>
        <time>2024-05-21T07:57:09.000Z</time>
      </trkpt>
      <trkpt lat="45.40163" lon="4.74699">
        <ele>143.19999694824</ele>
        <time>2024-05-21T07:57:10.000Z</time>
      </trkpt>
      <trkpt lat="45.40158" lon="4.74704">
        <ele>143.19999694824</ele>
        <time>2024-05-21T07:57:11.000Z</time>
      </trkpt>
      <trkpt lat="45.40154" lon="4.74708">
        <ele>143.19999694824</ele>
        <time>2024-05-21T07:57:12.000Z</time>
      </trkpt>
      <trkpt lat="45.40149" lon="4.74713">
        <ele>143.19999694824</ele>
        <time>2024-05-21T07:57:13.000Z</time>
      </trkpt>
      <trkpt lat="45.40146" lon="4.74716">
        <ele>143</ele>
        <time>2024-05-21T07:57:14.000Z</time>
      </trkpt>
      <trkpt lat="45.40141" lon="4.74721">
        <ele>143</ele>
        <time>2024-05-21T07:57:15.000Z</time>
      </trkpt>
      <trkpt lat="45.40136" lon="4.74724">
        <ele>143</ele>
        <time>2024-05-21T07:57:16.000Z</time>
      </trkpt>
      <trkpt lat="45.40132" lon="4.74727">
        <ele>143</ele>
        <time>2024-05-21T07:57:17.000Z</time>
      </trkpt>
      <trkpt lat="45.40127" lon="4.74733">
        <ele>143</ele>
        <time>2024-05-21T07:57:18.000Z</time>
      </trkpt>
      <trkpt lat="45.40122" lon="4.74737">
        <ele>142.80000305176</ele>
        <time>2024-05-21T07:57:19.000Z</time>
      </trkpt>
      <trkpt lat="45.40117" lon="4.74742">
        <ele>142.80000305176</ele>
        <time>2024-05-21T07:57:20.000Z</time>
      </trkpt>
      <trkpt lat="45.40112" lon="4.74746">
        <ele>142.80000305176</ele>
        <time>2024-05-21T07:57:21.000Z</time>
      </trkpt>
      <trkpt lat="45.40107" lon="4.74752">
        <ele>142.60000610352</ele>
        <time>2024-05-21T07:57:22.000Z</time>
      </trkpt>
      <trkpt lat="45.40102" lon="4.74757">
        <ele>142.60000610352</ele>
        <time>2024-05-21T07:57:23.000Z</time>
      </trkpt>
      <trkpt lat="45.40099" lon="4.74764">
        <ele>142.60000610352</ele>
        <time>2024-05-21T07:57:24.000Z</time>
      </trkpt>
      <trkpt lat="45.40096" lon="4.74772">
        <ele>142.60000610352</ele>
        <time>2024-05-21T07:57:25.000Z</time>
      </trkpt>
      <trkpt lat="45.40096" lon="4.74779">
        <ele>142.60000610352</ele>
        <time>2024-05-21T07:57:26.000Z</time>
      </trkpt>
      <trkpt lat="45.40097" lon="4.74787">
        <ele>142.60000610352</ele>
        <time>2024-05-21T07:57:27.000Z</time>
      </trkpt>
      <trkpt lat="45.401" lon="4.74795">
        <ele>142.80000305176</ele>
        <time>2024-05-21T07:57:28.000Z</time>
      </trkpt>
      <trkpt lat="45.40103" lon="4.74803">
        <ele>142.80000305176</ele>
        <time>2024-05-21T07:57:29.000Z</time>
      </trkpt>
      <trkpt lat="45.40105" lon="4.7481">
        <ele>142.80000305176</ele>
        <time>2024-05-21T07:57:30.000Z</time>
      </trkpt>
      <trkpt lat="45.40106" lon="4.74818">
        <ele>143</ele>
        <time>2024-05-21T07:57:31.000Z</time>
      </trkpt>
      <trkpt lat="45.40106" lon="4.74824">
        <ele>143.19999694824</ele>
        <time>2024-05-21T07:57:32.000Z</time>
      </trkpt>
      <trkpt lat="45.40104" lon="4.74833">
        <ele>143.19999694824</ele>
        <time>2024-05-21T07:57:33.000Z</time>
      </trkpt>
      <trkpt lat="45.40101" lon="4.74839">
        <ele>143.39999389648</ele>
        <time>2024-05-21T07:57:34.000Z</time>
      </trkpt>
      <trkpt lat="45.40098" lon="4.74844">
        <ele>143.39999389648</ele>
        <time>2024-05-21T07:57:35.000Z</time>
      </trkpt>
      <trkpt lat="45.40095" lon="4.74849">
        <ele>143.39999389648</ele>
        <time>2024-05-21T07:57:36.000Z</time>
      </trkpt>
      <trkpt lat="45.40092" lon="4.74853">
        <ele>143.80000305176</ele>
        <time>2024-05-21T07:57:37.000Z</time>
      </trkpt>
      <trkpt lat="45.40089" lon="4.74858">
        <ele>144</ele>
        <time>2024-05-21T07:57:38.000Z</time>
      </trkpt>
      <trkpt lat="45.40086" lon="4.74864">
        <ele>144.39999389648</ele>
        <time>2024-05-21T07:57:39.000Z</time>
      </trkpt>
      <trkpt lat="45.40083" lon="4.74869">
        <ele>144.80000305176</ele>
        <time>2024-05-21T07:57:40.000Z</time>
      </trkpt>
      <trkpt lat="45.4008" lon="4.74873">
        <ele>145.19999694824</ele>
        <time>2024-05-21T07:57:41.000Z</time>
      </trkpt>
      <trkpt lat="45.40076" lon="4.74878">
        <ele>145.39999389648</ele>
        <time>2024-05-21T07:57:42.000Z</time>
      </trkpt>
      <trkpt lat="45.40073" lon="4.74883">
        <ele>145.80000305176</ele>
        <time>2024-05-21T07:57:43.000Z</time>
      </trkpt>
      <trkpt lat="45.40069" lon="4.74888">
        <ele>145.80000305176</ele>
        <time>2024-05-21T07:57:44.000Z</time>
      </trkpt>
      <trkpt lat="45.40065" lon="4.74892">
        <ele>146</ele>
        <time>2024-05-21T07:57:45.000Z</time>
      </trkpt>
      <trkpt lat="45.40061" lon="4.74896">
        <ele>146</ele>
        <time>2024-05-21T07:57:46.000Z</time>
      </trkpt>
      <trkpt lat="45.40057" lon="4.749">
        <ele>146</ele>
        <time>2024-05-21T07:57:47.000Z</time>
      </trkpt>
      <trkpt lat="45.40053" lon="4.74904">
        <ele>146</ele>
        <time>2024-05-21T07:57:48.000Z</time>
      </trkpt>
      <trkpt lat="45.40048" lon="4.74909">
        <ele>146.19999694824</ele>
        <time>2024-05-21T07:57:49.000Z</time>
      </trkpt>
      <trkpt lat="45.40043" lon="4.74914">
        <ele>146.19999694824</ele>
        <time>2024-05-21T07:57:50.000Z</time>
      </trkpt>
      <trkpt lat="45.40039" lon="4.74918">
        <ele>146.39999389648</ele>
        <time>2024-05-21T07:57:51.000Z</time>
      </trkpt>
      <trkpt lat="45.40034" lon="4.74923">
        <ele>146.39999389648</ele>
        <time>2024-05-21T07:57:52.000Z</time>
      </trkpt>
      <trkpt lat="45.40029" lon="4.74927">
        <ele>146.39999389648</ele>
        <time>2024-05-21T07:57:53.000Z</time>
      </trkpt>
      <trkpt lat="45.40025" lon="4.74932">
        <ele>146.39999389648</ele>
        <time>2024-05-21T07:57:54.000Z</time>
      </trkpt>
      <trkpt lat="45.4002" lon="4.74936">
        <ele>146.39999389648</ele>
        <time>2024-05-21T07:57:55.000Z</time>
      </trkpt>
      <trkpt lat="45.40015" lon="4.74941">
        <ele>146.39999389648</ele>
        <time>2024-05-21T07:57:56.000Z</time>
      </trkpt>
      <trkpt lat="45.40011" lon="4.74946">
        <ele>146.39999389648</ele>
        <time>2024-05-21T07:57:57.000Z</time>
      </trkpt>
      <trkpt lat="45.40006" lon="4.74951">
        <ele>146.39999389648</ele>
        <time>2024-05-21T07:57:58.000Z</time>
      </trkpt>
      <trkpt lat="45.40001" lon="4.74955">
        <ele>146.39999389648</ele>
        <time>2024-05-21T07:57:59.000Z</time>
      </trkpt>
      <trkpt lat="45.39996" lon="4.7496">
        <ele>146.39999389648</ele>
        <time>2024-05-21T07:58:00.000Z</time>
      </trkpt>
      <trkpt lat="45.39991" lon="4.74965">
        <ele>146.39999389648</ele>
        <time>2024-05-21T07:58:01.000Z</time>
      </trkpt>
      <trkpt lat="45.39986" lon="4.7497">
        <ele>146.39999389648</ele>
        <time>2024-05-21T07:58:02.000Z</time>
      </trkpt>
      <trkpt lat="45.39981" lon="4.74974">
        <ele>146.39999389648</ele>
        <time>2024-05-21T07:58:03.000Z</time>
      </trkpt>
      <trkpt lat="45.39976" lon="4.74979">
        <ele>146.39999389648</ele>
        <time>2024-05-21T07:58:04.000Z</time>
      </trkpt>
      <trkpt lat="45.39972" lon="4.74983">
        <ele>146.39999389648</ele>
        <time>2024-05-21T07:58:05.000Z</time>
      </trkpt>
      <trkpt lat="45.39966" lon="4.74989">
        <ele>146.39999389648</ele>
        <time>2024-05-21T07:58:06.000Z</time>
      </trkpt>
      <trkpt lat="45.39961" lon="4.74994">
        <ele>146.39999389648</ele>
        <time>2024-05-21T07:58:07.000Z</time>
      </trkpt>
      <trkpt lat="45.39955" lon="4.74999">
        <ele>146.39999389648</ele>
        <time>2024-05-21T07:58:08.000Z</time>
      </trkpt>
      <trkpt lat="45.39952" lon="4.75003">
        <ele>146.39999389648</ele>
        <time>2024-05-21T07:58:09.000Z</time>
      </trkpt>
      <trkpt lat="45.39946" lon="4.75008">
        <ele>146.39999389648</ele>
        <time>2024-05-21T07:58:10.000Z</time>
      </trkpt>
      <trkpt lat="45.3994" lon="4.75014">
        <ele>146.39999389648</ele>
        <time>2024-05-21T07:58:11.000Z</time>
      </trkpt>
      <trkpt lat="45.39935" lon="4.75018">
        <ele>146.39999389648</ele>
        <time>2024-05-21T07:58:12.000Z</time>
      </trkpt>
      <trkpt lat="45.3993" lon="4.75023">
        <ele>146.19999694824</ele>
        <time>2024-05-21T07:58:13.000Z</time>
      </trkpt>
      <trkpt lat="45.39925" lon="4.75028">
        <ele>146.39999389648</ele>
        <time>2024-05-21T07:58:14.000Z</time>
      </trkpt>
      <trkpt lat="45.39921" lon="4.75033">
        <ele>146.39999389648</ele>
        <time>2024-05-21T07:58:15.000Z</time>
      </trkpt>
      <trkpt lat="45.39916" lon="4.75038">
        <ele>146.39999389648</ele>
        <time>2024-05-21T07:58:16.000Z</time>
      </trkpt>
      <trkpt lat="45.39911" lon="4.75042">
        <ele>146.39999389648</ele>
        <time>2024-05-21T07:58:17.000Z</time>
      </trkpt>
      <trkpt lat="45.39906" lon="4.75047">
        <ele>146.39999389648</ele>
        <time>2024-05-21T07:58:18.000Z</time>
      </trkpt>
      <trkpt lat="45.399" lon="4.75052">
        <ele>146.39999389648</ele>
        <time>2024-05-21T07:58:19.000Z</time>
      </trkpt>
      <trkpt lat="45.39895" lon="4.75056">
        <ele>146.60000610352</ele>
        <time>2024-05-21T07:58:20.000Z</time>
      </trkpt>
      <trkpt lat="45.39889" lon="4.7506">
        <ele>146.60000610352</ele>
        <time>2024-05-21T07:58:21.000Z</time>
      </trkpt>
      <trkpt lat="45.39884" lon="4.75064">
        <ele>146.80000305176</ele>
        <time>2024-05-21T07:58:22.000Z</time>
      </trkpt>
      <trkpt lat="45.39878" lon="4.75067">
        <ele>146.80000305176</ele>
        <time>2024-05-21T07:58:23.000Z</time>
      </trkpt>
      <trkpt lat="45.39872" lon="4.75071">
        <ele>146.80000305176</ele>
        <time>2024-05-21T07:58:24.000Z</time>
      </trkpt>
      <trkpt lat="45.39866" lon="4.75074">
        <ele>146.80000305176</ele>
        <time>2024-05-21T07:58:25.000Z</time>
      </trkpt>
      <trkpt lat="45.3986" lon="4.75078">
        <ele>146.80000305176</ele>
        <time>2024-05-21T07:58:26.000Z</time>
      </trkpt>
      <trkpt lat="45.39855" lon="4.75082">
        <ele>146.60000610352</ele>
        <time>2024-05-21T07:58:27.000Z</time>
      </trkpt>
      <trkpt lat="45.39849" lon="4.75086">
        <ele>146.60000610352</ele>
        <time>2024-05-21T07:58:28.000Z</time>
      </trkpt>
      <trkpt lat="45.39843" lon="4.75089">
        <ele>146.60000610352</ele>
        <time>2024-05-21T07:58:29.000Z</time>
      </trkpt>
      <trkpt lat="45.39838" lon="4.75093">
        <ele>146.60000610352</ele>
        <time>2024-05-21T07:58:30.000Z</time>
      </trkpt>
      <trkpt lat="45.39832" lon="4.75097">
        <ele>146.60000610352</ele>
        <time>2024-05-21T07:58:31.000Z</time>
      </trkpt>
      <trkpt lat="45.39826" lon="4.75101">
        <ele>146.39999389648</ele>
        <time>2024-05-21T07:58:32.000Z</time>
      </trkpt>
      <trkpt lat="45.3982" lon="4.75105">
        <ele>146.39999389648</ele>
        <time>2024-05-21T07:58:33.000Z</time>
      </trkpt>
      <trkpt lat="45.39815" lon="4.75109">
        <ele>146.39999389648</ele>
        <time>2024-05-21T07:58:34.000Z</time>
      </trkpt>
      <trkpt lat="45.39809" lon="4.75114">
        <ele>146.39999389648</ele>
        <time>2024-05-21T07:58:35.000Z</time>
      </trkpt>
      <trkpt lat="45.39804" lon="4.75119">
        <ele>146.60000610352</ele>
        <time>2024-05-21T07:58:36.000Z</time>
      </trkpt>
      <trkpt lat="45.39799" lon="4.75125">
        <ele>146.60000610352</ele>
        <time>2024-05-21T07:58:37.000Z</time>
      </trkpt>
      <trkpt lat="45.39795" lon="4.75131">
        <ele>146.39999389648</ele>
        <time>2024-05-21T07:58:38.000Z</time>
      </trkpt>
      <trkpt lat="45.39791" lon="4.75138">
        <ele>146.39999389648</ele>
        <time>2024-05-21T07:58:39.000Z</time>
      </trkpt>
      <trkpt lat="45.39786" lon="4.75144">
        <ele>146.39999389648</ele>
        <time>2024-05-21T07:58:40.000Z</time>
      </trkpt>
      <trkpt lat="45.39782" lon="4.7515">
        <ele>146.39999389648</ele>
        <time>2024-05-21T07:58:41.000Z</time>
      </trkpt>
      <trkpt lat="45.39777" lon="4.75155">
        <ele>146.39999389648</ele>
        <time>2024-05-21T07:58:42.000Z</time>
      </trkpt>
      <trkpt lat="45.39771" lon="4.7516">
        <ele>146.39999389648</ele>
        <time>2024-05-21T07:58:43.000Z</time>
      </trkpt>
      <trkpt lat="45.39766" lon="4.75165">
        <ele>146.39999389648</ele>
        <time>2024-05-21T07:58:44.000Z</time>
      </trkpt>
      <trkpt lat="45.39761" lon="4.7517">
        <ele>146.39999389648</ele>
        <time>2024-05-21T07:58:45.000Z</time>
      </trkpt>
      <trkpt lat="45.39755" lon="4.75174">
        <ele>146.39999389648</ele>
        <time>2024-05-21T07:58:46.000Z</time>
      </trkpt>
      <trkpt lat="45.3975" lon="4.75179">
        <ele>146.39999389648</ele>
        <time>2024-05-21T07:58:47.000Z</time>
      </trkpt>
      <trkpt lat="45.39745" lon="4.75184">
        <ele>146.39999389648</ele>
        <time>2024-05-21T07:58:48.000Z</time>
      </trkpt>
      <trkpt lat="45.39739" lon="4.75189">
        <ele>146.39999389648</ele>
        <time>2024-05-21T07:58:49.000Z</time>
      </trkpt>
      <trkpt lat="45.39735" lon="4.75192">
        <ele>146.39999389648</ele>
        <time>2024-05-21T07:58:50.000Z</time>
      </trkpt>
      <trkpt lat="45.39728" lon="4.75197">
        <ele>146.19999694824</ele>
        <time>2024-05-21T07:58:51.000Z</time>
      </trkpt>
      <trkpt lat="45.39722" lon="4.75201">
        <ele>146.19999694824</ele>
        <time>2024-05-21T07:58:52.000Z</time>
      </trkpt>
      <trkpt lat="45.39718" lon="4.75203">
        <ele>146.19999694824</ele>
        <time>2024-05-21T07:58:53.000Z</time>
      </trkpt>
      <trkpt lat="45.39711" lon="4.75207">
        <ele>146.19999694824</ele>
        <time>2024-05-21T07:58:54.000Z</time>
      </trkpt>
      <trkpt lat="45.39704" lon="4.75209">
        <ele>146.19999694824</ele>
        <time>2024-05-21T07:58:55.000Z</time>
      </trkpt>
      <trkpt lat="45.39698" lon="4.7521">
        <ele>146.19999694824</ele>
        <time>2024-05-21T07:58:56.000Z</time>
      </trkpt>
      <trkpt lat="45.39692" lon="4.75211">
        <ele>146.19999694824</ele>
        <time>2024-05-21T07:58:57.000Z</time>
      </trkpt>
      <trkpt lat="45.39686" lon="4.75213">
        <ele>146.19999694824</ele>
        <time>2024-05-21T07:58:58.000Z</time>
      </trkpt>
      <trkpt lat="45.3968" lon="4.75214">
        <ele>146.19999694824</ele>
        <time>2024-05-21T07:58:59.000Z</time>
      </trkpt>
      <trkpt lat="45.39673" lon="4.75215">
        <ele>146.19999694824</ele>
        <time>2024-05-21T07:59:00.000Z</time>
      </trkpt>
      <trkpt lat="45.39667" lon="4.75216">
        <ele>146.19999694824</ele>
        <time>2024-05-21T07:59:01.000Z</time>
      </trkpt>
      <trkpt lat="45.39661" lon="4.75216">
        <ele>146.19999694824</ele>
        <time>2024-05-21T07:59:02.000Z</time>
      </trkpt>
      <trkpt lat="45.39654" lon="4.75217">
        <ele>146.19999694824</ele>
        <time>2024-05-21T07:59:03.000Z</time>
      </trkpt>
      <trkpt lat="45.39648" lon="4.75219">
        <ele>146.19999694824</ele>
        <time>2024-05-21T07:59:04.000Z</time>
      </trkpt>
      <trkpt lat="45.39642" lon="4.75221">
        <ele>146.19999694824</ele>
        <time>2024-05-21T07:59:05.000Z</time>
      </trkpt>
      <trkpt lat="45.39636" lon="4.75225">
        <ele>146.19999694824</ele>
        <time>2024-05-21T07:59:06.000Z</time>
      </trkpt>
      <trkpt lat="45.3963" lon="4.75229">
        <ele>146.19999694824</ele>
        <time>2024-05-21T07:59:07.000Z</time>
      </trkpt>
      <trkpt lat="45.39624" lon="4.75233">
        <ele>146.19999694824</ele>
        <time>2024-05-21T07:59:08.000Z</time>
      </trkpt>
      <trkpt lat="45.39618" lon="4.75236">
        <ele>146.19999694824</ele>
        <time>2024-05-21T07:59:09.000Z</time>
      </trkpt>
      <trkpt lat="45.39612" lon="4.7524">
        <ele>146.19999694824</ele>
        <time>2024-05-21T07:59:10.000Z</time>
      </trkpt>
      <trkpt lat="45.39607" lon="4.75244">
        <ele>146</ele>
        <time>2024-05-21T07:59:11.000Z</time>
      </trkpt>
      <trkpt lat="45.39601" lon="4.75248">
        <ele>146</ele>
        <time>2024-05-21T07:59:12.000Z</time>
      </trkpt>
      <trkpt lat="45.39596" lon="4.75252">
        <ele>146</ele>
        <time>2024-05-21T07:59:13.000Z</time>
      </trkpt>
      <trkpt lat="45.39592" lon="4.75255">
        <ele>146</ele>
        <time>2024-05-21T07:59:14.000Z</time>
      </trkpt>
      <trkpt lat="45.39585" lon="4.7526">
        <ele>146</ele>
        <time>2024-05-21T07:59:15.000Z</time>
      </trkpt>
      <trkpt lat="45.39579" lon="4.75264">
        <ele>146</ele>
        <time>2024-05-21T07:59:16.000Z</time>
      </trkpt>
      <trkpt lat="45.39575" lon="4.75268">
        <ele>146.19999694824</ele>
        <time>2024-05-21T07:59:17.000Z</time>
      </trkpt>
      <trkpt lat="45.39569" lon="4.75274">
        <ele>146.19999694824</ele>
        <time>2024-05-21T07:59:18.000Z</time>
      </trkpt>
      <trkpt lat="45.39564" lon="4.7528">
        <ele>146.19999694824</ele>
        <time>2024-05-21T07:59:19.000Z</time>
      </trkpt>
      <trkpt lat="45.3956" lon="4.75287">
        <ele>146.19999694824</ele>
        <time>2024-05-21T07:59:20.000Z</time>
      </trkpt>
      <trkpt lat="45.39556" lon="4.75293">
        <ele>146.19999694824</ele>
        <time>2024-05-21T07:59:21.000Z</time>
      </trkpt>
      <trkpt lat="45.39552" lon="4.753">
        <ele>146.19999694824</ele>
        <time>2024-05-21T07:59:22.000Z</time>
      </trkpt>
      <trkpt lat="45.39547" lon="4.75305">
        <ele>146.19999694824</ele>
        <time>2024-05-21T07:59:23.000Z</time>
      </trkpt>
      <trkpt lat="45.39542" lon="4.7531">
        <ele>146.19999694824</ele>
        <time>2024-05-21T07:59:24.000Z</time>
      </trkpt>
      <trkpt lat="45.39537" lon="4.75315">
        <ele>146.19999694824</ele>
        <time>2024-05-21T07:59:25.000Z</time>
      </trkpt>
      <trkpt lat="45.39532" lon="4.75318">
        <ele>146.19999694824</ele>
        <time>2024-05-21T07:59:26.000Z</time>
      </trkpt>
      <trkpt lat="45.39525" lon="4.75322">
        <ele>146.19999694824</ele>
        <time>2024-05-21T07:59:27.000Z</time>
      </trkpt>
      <trkpt lat="45.3952" lon="4.75326">
        <ele>146.19999694824</ele>
        <time>2024-05-21T07:59:28.000Z</time>
      </trkpt>
      <trkpt lat="45.39514" lon="4.75329">
        <ele>146.19999694824</ele>
        <time>2024-05-21T07:59:29.000Z</time>
      </trkpt>
      <trkpt lat="45.39508" lon="4.75332">
        <ele>146.19999694824</ele>
        <time>2024-05-21T07:59:30.000Z</time>
      </trkpt>
      <trkpt lat="45.39502" lon="4.75335">
        <ele>146.19999694824</ele>
        <time>2024-05-21T07:59:31.000Z</time>
      </trkpt>
      <trkpt lat="45.39497" lon="4.75338">
        <ele>146</ele>
        <time>2024-05-21T07:59:32.000Z</time>
      </trkpt>
      <trkpt lat="45.3949" lon="4.7534">
        <ele>146</ele>
        <time>2024-05-21T07:59:33.000Z</time>
      </trkpt>
      <trkpt lat="45.39485" lon="4.75343">
        <ele>146</ele>
        <time>2024-05-21T07:59:34.000Z</time>
      </trkpt>
      <trkpt lat="45.3948" lon="4.75344">
        <ele>146</ele>
        <time>2024-05-21T07:59:35.000Z</time>
      </trkpt>
      <trkpt lat="45.39474" lon="4.75346">
        <ele>146</ele>
        <time>2024-05-21T07:59:36.000Z</time>
      </trkpt>
      <trkpt lat="45.39466" lon="4.75348">
        <ele>146</ele>
        <time>2024-05-21T07:59:37.000Z</time>
      </trkpt>
      <trkpt lat="45.3946" lon="4.7535">
        <ele>146</ele>
        <time>2024-05-21T07:59:38.000Z</time>
      </trkpt>
      <trkpt lat="45.39454" lon="4.75351">
        <ele>146</ele>
        <time>2024-05-21T07:59:39.000Z</time>
      </trkpt>
      <trkpt lat="45.39448" lon="4.75353">
        <ele>146</ele>
        <time>2024-05-21T07:59:40.000Z</time>
      </trkpt>
      <trkpt lat="45.39442" lon="4.75354">
        <ele>146</ele>
        <time>2024-05-21T07:59:41.000Z</time>
      </trkpt>
      <trkpt lat="45.39436" lon="4.75356">
        <ele>146</ele>
        <time>2024-05-21T07:59:42.000Z</time>
      </trkpt>
      <trkpt lat="45.3943" lon="4.75357">
        <ele>146</ele>
        <time>2024-05-21T07:59:43.000Z</time>
      </trkpt>
      <trkpt lat="45.39423" lon="4.75359">
        <ele>146</ele>
        <time>2024-05-21T07:59:44.000Z</time>
      </trkpt>
      <trkpt lat="45.39417" lon="4.7536">
        <ele>146</ele>
        <time>2024-05-21T07:59:45.000Z</time>
      </trkpt>
      <trkpt lat="45.39411" lon="4.75361">
        <ele>146</ele>
        <time>2024-05-21T07:59:46.000Z</time>
      </trkpt>
      <trkpt lat="45.39405" lon="4.75363">
        <ele>146</ele>
        <time>2024-05-21T07:59:47.000Z</time>
      </trkpt>
      <trkpt lat="45.39398" lon="4.75364">
        <ele>146</ele>
        <time>2024-05-21T07:59:48.000Z</time>
      </trkpt>
      <trkpt lat="45.39392" lon="4.75366">
        <ele>145.80000305176</ele>
        <time>2024-05-21T07:59:49.000Z</time>
      </trkpt>
      <trkpt lat="45.39386" lon="4.75368">
        <ele>145.80000305176</ele>
        <time>2024-05-21T07:59:50.000Z</time>
      </trkpt>
      <trkpt lat="45.3938" lon="4.7537">
        <ele>145.80000305176</ele>
        <time>2024-05-21T07:59:51.000Z</time>
      </trkpt>
      <trkpt lat="45.39374" lon="4.75373">
        <ele>145.80000305176</ele>
        <time>2024-05-21T07:59:52.000Z</time>
      </trkpt>
      <trkpt lat="45.39368" lon="4.75375">
        <ele>145.80000305176</ele>
        <time>2024-05-21T07:59:53.000Z</time>
      </trkpt>
      <trkpt lat="45.39363" lon="4.75378">
        <ele>145.80000305176</ele>
        <time>2024-05-21T07:59:54.000Z</time>
      </trkpt>
      <trkpt lat="45.39357" lon="4.75381">
        <ele>145.80000305176</ele>
        <time>2024-05-21T07:59:55.000Z</time>
      </trkpt>
      <trkpt lat="45.39352" lon="4.75384">
        <ele>146</ele>
        <time>2024-05-21T07:59:56.000Z</time>
      </trkpt>
      <trkpt lat="45.39346" lon="4.75388">
        <ele>146</ele>
        <time>2024-05-21T07:59:57.000Z</time>
      </trkpt>
      <trkpt lat="45.3934" lon="4.75391">
        <ele>146</ele>
        <time>2024-05-21T07:59:58.000Z</time>
      </trkpt>
      <trkpt lat="45.39334" lon="4.75394">
        <ele>146</ele>
        <time>2024-05-21T07:59:59.000Z</time>
      </trkpt>
      <trkpt lat="45.39327" lon="4.75397">
        <ele>145.80000305176</ele>
        <time>2024-05-21T08:00:00.000Z</time>
      </trkpt>
      <trkpt lat="45.39321" lon="4.754">
        <ele>145.80000305176</ele>
        <time>2024-05-21T08:00:01.000Z</time>
      </trkpt>
      <trkpt lat="45.39315" lon="4.75404">
        <ele>145.80000305176</ele>
        <time>2024-05-21T08:00:02.000Z</time>
      </trkpt>
      <trkpt lat="45.3931" lon="4.75408">
        <ele>145.80000305176</ele>
        <time>2024-05-21T08:00:03.000Z</time>
      </trkpt>
      <trkpt lat="45.39304" lon="4.75412">
        <ele>145.80000305176</ele>
        <time>2024-05-21T08:00:04.000Z</time>
      </trkpt>
      <trkpt lat="45.39299" lon="4.75417">
        <ele>145.80000305176</ele>
        <time>2024-05-21T08:00:05.000Z</time>
      </trkpt>
      <trkpt lat="45.39293" lon="4.75422">
        <ele>145.80000305176</ele>
        <time>2024-05-21T08:00:06.000Z</time>
      </trkpt>
      <trkpt lat="45.39288" lon="4.75427">
        <ele>145.80000305176</ele>
        <time>2024-05-21T08:00:07.000Z</time>
      </trkpt>
      <trkpt lat="45.39283" lon="4.75433">
        <ele>145.80000305176</ele>
        <time>2024-05-21T08:00:08.000Z</time>
      </trkpt>
      <trkpt lat="45.39278" lon="4.75438">
        <ele>145.80000305176</ele>
        <time>2024-05-21T08:00:09.000Z</time>
      </trkpt>
      <trkpt lat="45.39273" lon="4.75443">
        <ele>145.80000305176</ele>
        <time>2024-05-21T08:00:10.000Z</time>
      </trkpt>
      <trkpt lat="45.39268" lon="4.75447">
        <ele>146</ele>
        <time>2024-05-21T08:00:11.000Z</time>
      </trkpt>
      <trkpt lat="45.39262" lon="4.75451">
        <ele>146</ele>
        <time>2024-05-21T08:00:12.000Z</time>
      </trkpt>
      <trkpt lat="45.39257" lon="4.75455">
        <ele>146</ele>
        <time>2024-05-21T08:00:13.000Z</time>
      </trkpt>
      <trkpt lat="45.39252" lon="4.75458">
        <ele>146</ele>
        <time>2024-05-21T08:00:14.000Z</time>
      </trkpt>
      <trkpt lat="45.39245" lon="4.75461">
        <ele>146</ele>
        <time>2024-05-21T08:00:15.000Z</time>
      </trkpt>
      <trkpt lat="45.39239" lon="4.75464">
        <ele>146</ele>
        <time>2024-05-21T08:00:16.000Z</time>
      </trkpt>
      <trkpt lat="45.39233" lon="4.75466">
        <ele>146.19999694824</ele>
        <time>2024-05-21T08:00:17.000Z</time>
      </trkpt>
      <trkpt lat="45.39228" lon="4.75468">
        <ele>146.19999694824</ele>
        <time>2024-05-21T08:00:18.000Z</time>
      </trkpt>
      <trkpt lat="45.39222" lon="4.75469">
        <ele>146.19999694824</ele>
        <time>2024-05-21T08:00:19.000Z</time>
      </trkpt>
      <trkpt lat="45.39214" lon="4.75471">
        <ele>146.19999694824</ele>
        <time>2024-05-21T08:00:20.000Z</time>
      </trkpt>
      <trkpt lat="45.39208" lon="4.75471">
        <ele>146.19999694824</ele>
        <time>2024-05-21T08:00:21.000Z</time>
      </trkpt>
      <trkpt lat="45.39202" lon="4.75471">
        <ele>146</ele>
        <time>2024-05-21T08:00:22.000Z</time>
      </trkpt>
      <trkpt lat="45.39195" lon="4.75471">
        <ele>146</ele>
        <time>2024-05-21T08:00:23.000Z</time>
      </trkpt>
      <trkpt lat="45.39189" lon="4.75471">
        <ele>145.80000305176</ele>
        <time>2024-05-21T08:00:24.000Z</time>
      </trkpt>
      <trkpt lat="45.39183" lon="4.75471">
        <ele>145.80000305176</ele>
        <time>2024-05-21T08:00:25.000Z</time>
      </trkpt>
      <trkpt lat="45.39177" lon="4.75472">
        <ele>145.80000305176</ele>
        <time>2024-05-21T08:00:26.000Z</time>
      </trkpt>
      <trkpt lat="45.39171" lon="4.75472">
        <ele>145.60000610352</ele>
        <time>2024-05-21T08:00:27.000Z</time>
      </trkpt>
      <trkpt lat="45.39164" lon="4.75472">
        <ele>145.60000610352</ele>
        <time>2024-05-21T08:00:28.000Z</time>
      </trkpt>
      <trkpt lat="45.39158" lon="4.75473">
        <ele>145.60000610352</ele>
        <time>2024-05-21T08:00:29.000Z</time>
      </trkpt>
      <trkpt lat="45.39152" lon="4.75474">
        <ele>145.60000610352</ele>
        <time>2024-05-21T08:00:30.000Z</time>
      </trkpt>
      <trkpt lat="45.39146" lon="4.75476">
        <ele>145.60000610352</ele>
        <time>2024-05-21T08:00:31.000Z</time>
      </trkpt>
      <trkpt lat="45.39141" lon="4.75477">
        <ele>145.60000610352</ele>
        <time>2024-05-21T08:00:32.000Z</time>
      </trkpt>
      <trkpt lat="45.39135" lon="4.75479">
        <ele>145.80000305176</ele>
        <time>2024-05-21T08:00:33.000Z</time>
      </trkpt>
      <trkpt lat="45.39129" lon="4.75482">
        <ele>145.80000305176</ele>
        <time>2024-05-21T08:00:34.000Z</time>
      </trkpt>
      <trkpt lat="45.39124" lon="4.75484">
        <ele>145.80000305176</ele>
        <time>2024-05-21T08:00:35.000Z</time>
      </trkpt>
      <trkpt lat="45.39118" lon="4.75486">
        <ele>145.80000305176</ele>
        <time>2024-05-21T08:00:36.000Z</time>
      </trkpt>
      <trkpt lat="45.39112" lon="4.75489">
        <ele>145.80000305176</ele>
        <time>2024-05-21T08:00:37.000Z</time>
      </trkpt>
      <trkpt lat="45.39106" lon="4.75491">
        <ele>145.80000305176</ele>
        <time>2024-05-21T08:00:38.000Z</time>
      </trkpt>
      <trkpt lat="45.391" lon="4.75493">
        <ele>145.80000305176</ele>
        <time>2024-05-21T08:00:39.000Z</time>
      </trkpt>
      <trkpt lat="45.39094" lon="4.75495">
        <ele>145.80000305176</ele>
        <time>2024-05-21T08:00:40.000Z</time>
      </trkpt>
      <trkpt lat="45.39087" lon="4.75497">
        <ele>145.80000305176</ele>
        <time>2024-05-21T08:00:41.000Z</time>
      </trkpt>
      <trkpt lat="45.39081" lon="4.75499">
        <ele>145.80000305176</ele>
        <time>2024-05-21T08:00:42.000Z</time>
      </trkpt>
      <trkpt lat="45.39075" lon="4.75501">
        <ele>145.80000305176</ele>
        <time>2024-05-21T08:00:43.000Z</time>
      </trkpt>
      <trkpt lat="45.39069" lon="4.75503">
        <ele>145.80000305176</ele>
        <time>2024-05-21T08:00:44.000Z</time>
      </trkpt>
      <trkpt lat="45.39063" lon="4.75506">
        <ele>145.80000305176</ele>
        <time>2024-05-21T08:00:45.000Z</time>
      </trkpt>
      <trkpt lat="45.39057" lon="4.7551">
        <ele>145.80000305176</ele>
        <time>2024-05-21T08:00:46.000Z</time>
      </trkpt>
      <trkpt lat="45.39052" lon="4.75514">
        <ele>145.80000305176</ele>
        <time>2024-05-21T08:00:47.000Z</time>
      </trkpt>
      <trkpt lat="45.39047" lon="4.75519">
        <ele>145.80000305176</ele>
        <time>2024-05-21T08:00:48.000Z</time>
      </trkpt>
      <trkpt lat="45.39042" lon="4.75524">
        <ele>146</ele>
        <time>2024-05-21T08:00:49.000Z</time>
      </trkpt>
      <trkpt lat="45.39037" lon="4.75529">
        <ele>146</ele>
        <time>2024-05-21T08:00:50.000Z</time>
      </trkpt>
      <trkpt lat="45.39032" lon="4.75534">
        <ele>146</ele>
        <time>2024-05-21T08:00:51.000Z</time>
      </trkpt>
      <trkpt lat="45.39026" lon="4.75538">
        <ele>146</ele>
        <time>2024-05-21T08:00:52.000Z</time>
      </trkpt>
      <trkpt lat="45.3902" lon="4.75542">
        <ele>146</ele>
        <time>2024-05-21T08:00:53.000Z</time>
      </trkpt>
      <trkpt lat="45.39015" lon="4.75545">
        <ele>146</ele>
        <time>2024-05-21T08:00:54.000Z</time>
      </trkpt>
      <trkpt lat="45.39009" lon="4.75547">
        <ele>146</ele>
        <time>2024-05-21T08:00:55.000Z</time>
      </trkpt>
      <trkpt lat="45.39002" lon="4.75548">
        <ele>146</ele>
        <time>2024-05-21T08:00:56.000Z</time>
      </trkpt>
      <trkpt lat="45.38996" lon="4.75549">
        <ele>146</ele>
        <time>2024-05-21T08:00:57.000Z</time>
      </trkpt>
      <trkpt lat="45.3899" lon="4.7555">
        <ele>146.19999694824</ele>
        <time>2024-05-21T08:00:58.000Z</time>
      </trkpt>
      <trkpt lat="45.38984" lon="4.75549">
        <ele>146.19999694824</ele>
        <time>2024-05-21T08:00:59.000Z</time>
      </trkpt>
      <trkpt lat="45.38978" lon="4.75549">
        <ele>146.19999694824</ele>
        <time>2024-05-21T08:01:00.000Z</time>
      </trkpt>
      <trkpt lat="45.38971" lon="4.75548">
        <ele>146.19999694824</ele>
        <time>2024-05-21T08:01:01.000Z</time>
      </trkpt>
      <trkpt lat="45.38965" lon="4.75548">
        <ele>146.19999694824</ele>
        <time>2024-05-21T08:01:02.000Z</time>
      </trkpt>
      <trkpt lat="45.38958" lon="4.75547">
        <ele>146.19999694824</ele>
        <time>2024-05-21T08:01:03.000Z</time>
      </trkpt>
      <trkpt lat="45.38952" lon="4.75547">
        <ele>146.19999694824</ele>
        <time>2024-05-21T08:01:04.000Z</time>
      </trkpt>
      <trkpt lat="45.38945" lon="4.75546">
        <ele>146.39999389648</ele>
        <time>2024-05-21T08:01:05.000Z</time>
      </trkpt>
      <trkpt lat="45.38939" lon="4.75546">
        <ele>146.39999389648</ele>
        <time>2024-05-21T08:01:06.000Z</time>
      </trkpt>
      <trkpt lat="45.38932" lon="4.75547">
        <ele>146.39999389648</ele>
        <time>2024-05-21T08:01:07.000Z</time>
      </trkpt>
      <trkpt lat="45.38926" lon="4.75549">
        <ele>146.19999694824</ele>
        <time>2024-05-21T08:01:08.000Z</time>
      </trkpt>
      <trkpt lat="45.38919" lon="4.7555">
        <ele>146.19999694824</ele>
        <time>2024-05-21T08:01:09.000Z</time>
      </trkpt>
      <trkpt lat="45.38913" lon="4.75552">
        <ele>146.19999694824</ele>
        <time>2024-05-21T08:01:10.000Z</time>
      </trkpt>
      <trkpt lat="45.38906" lon="4.75554">
        <ele>146.19999694824</ele>
        <time>2024-05-21T08:01:11.000Z</time>
      </trkpt>
      <trkpt lat="45.389" lon="4.75556">
        <ele>146.19999694824</ele>
        <time>2024-05-21T08:01:12.000Z</time>
      </trkpt>
      <trkpt lat="45.38894" lon="4.75558">
        <ele>146.19999694824</ele>
        <time>2024-05-21T08:01:13.000Z</time>
      </trkpt>
      <trkpt lat="45.38888" lon="4.7556">
        <ele>146</ele>
        <time>2024-05-21T08:01:14.000Z</time>
      </trkpt>
      <trkpt lat="45.38881" lon="4.75562">
        <ele>146</ele>
        <time>2024-05-21T08:01:15.000Z</time>
      </trkpt>
      <trkpt lat="45.38875" lon="4.75563">
        <ele>146</ele>
        <time>2024-05-21T08:01:16.000Z</time>
      </trkpt>
      <trkpt lat="45.38869" lon="4.75565">
        <ele>146</ele>
        <time>2024-05-21T08:01:17.000Z</time>
      </trkpt>
      <trkpt lat="45.38863" lon="4.75566">
        <ele>146</ele>
        <time>2024-05-21T08:01:18.000Z</time>
      </trkpt>
      <trkpt lat="45.38856" lon="4.75568">
        <ele>146</ele>
        <time>2024-05-21T08:01:19.000Z</time>
      </trkpt>
      <trkpt lat="45.3885" lon="4.7557">
        <ele>146</ele>
        <time>2024-05-21T08:01:20.000Z</time>
      </trkpt>
      <trkpt lat="45.38844" lon="4.75571">
        <ele>146</ele>
        <time>2024-05-21T08:01:21.000Z</time>
      </trkpt>
      <trkpt lat="45.38838" lon="4.75573">
        <ele>146</ele>
        <time>2024-05-21T08:01:22.000Z</time>
      </trkpt>
      <trkpt lat="45.38833" lon="4.75574">
        <ele>146</ele>
        <time>2024-05-21T08:01:23.000Z</time>
      </trkpt>
      <trkpt lat="45.38827" lon="4.75576">
        <ele>146</ele>
        <time>2024-05-21T08:01:24.000Z</time>
      </trkpt>
      <trkpt lat="45.38821" lon="4.75578">
        <ele>146</ele>
        <time>2024-05-21T08:01:25.000Z</time>
      </trkpt>
      <trkpt lat="45.38815" lon="4.75579">
        <ele>146.19999694824</ele>
        <time>2024-05-21T08:01:26.000Z</time>
      </trkpt>
      <trkpt lat="45.38809" lon="4.75581">
        <ele>146.19999694824</ele>
        <time>2024-05-21T08:01:27.000Z</time>
      </trkpt>
      <trkpt lat="45.38802" lon="4.75582">
        <ele>146.19999694824</ele>
        <time>2024-05-21T08:01:28.000Z</time>
      </trkpt>
      <trkpt lat="45.38796" lon="4.75583">
        <ele>146.19999694824</ele>
        <time>2024-05-21T08:01:29.000Z</time>
      </trkpt>
      <trkpt lat="45.3879" lon="4.75584">
        <ele>146.19999694824</ele>
        <time>2024-05-21T08:01:30.000Z</time>
      </trkpt>
      <trkpt lat="45.38784" lon="4.75585">
        <ele>146.19999694824</ele>
        <time>2024-05-21T08:01:31.000Z</time>
      </trkpt>
      <trkpt lat="45.38778" lon="4.75586">
        <ele>146.19999694824</ele>
        <time>2024-05-21T08:01:32.000Z</time>
      </trkpt>
      <trkpt lat="45.38772" lon="4.75587">
        <ele>146.19999694824</ele>
        <time>2024-05-21T08:01:33.000Z</time>
      </trkpt>
      <trkpt lat="45.38765" lon="4.75588">
        <ele>146.19999694824</ele>
        <time>2024-05-21T08:01:34.000Z</time>
      </trkpt>
      <trkpt lat="45.38759" lon="4.75589">
        <ele>146.19999694824</ele>
        <time>2024-05-21T08:01:35.000Z</time>
      </trkpt>
      <trkpt lat="45.38753" lon="4.75591">
        <ele>146.19999694824</ele>
        <time>2024-05-21T08:01:36.000Z</time>
      </trkpt>
      <trkpt lat="45.38747" lon="4.75591">
        <ele>146.19999694824</ele>
        <time>2024-05-21T08:01:37.000Z</time>
      </trkpt>
      <trkpt lat="45.3874" lon="4.75592">
        <ele>146.19999694824</ele>
        <time>2024-05-21T08:01:38.000Z</time>
      </trkpt>
      <trkpt lat="45.38734" lon="4.75594">
        <ele>146</ele>
        <time>2024-05-21T08:01:39.000Z</time>
      </trkpt>
      <trkpt lat="45.38728" lon="4.75595">
        <ele>146</ele>
        <time>2024-05-21T08:01:40.000Z</time>
      </trkpt>
      <trkpt lat="45.38721" lon="4.75596">
        <ele>146</ele>
        <time>2024-05-21T08:01:41.000Z</time>
      </trkpt>
      <trkpt lat="45.38715" lon="4.75596">
        <ele>146</ele>
        <time>2024-05-21T08:01:42.000Z</time>
      </trkpt>
      <trkpt lat="45.38709" lon="4.75597">
        <ele>146</ele>
        <time>2024-05-21T08:01:43.000Z</time>
      </trkpt>
      <trkpt lat="45.38702" lon="4.75598">
        <ele>146</ele>
        <time>2024-05-21T08:01:44.000Z</time>
      </trkpt>
      <trkpt lat="45.38696" lon="4.75599">
        <ele>146</ele>
        <time>2024-05-21T08:01:45.000Z</time>
      </trkpt>
      <trkpt lat="45.3869" lon="4.75599">
        <ele>146</ele>
        <time>2024-05-21T08:01:46.000Z</time>
      </trkpt>
      <trkpt lat="45.38684" lon="4.756">
        <ele>146</ele>
        <time>2024-05-21T08:01:47.000Z</time>
      </trkpt>
      <trkpt lat="45.38678" lon="4.756">
        <ele>146</ele>
        <time>2024-05-21T08:01:48.000Z</time>
      </trkpt>
      <trkpt lat="45.38672" lon="4.756">
        <ele>146</ele>
        <time>2024-05-21T08:01:49.000Z</time>
      </trkpt>
      <trkpt lat="45.38666" lon="4.756">
        <ele>146</ele>
        <time>2024-05-21T08:01:50.000Z</time>
      </trkpt>
      <trkpt lat="45.3866" lon="4.75599">
        <ele>146.19999694824</ele>
        <time>2024-05-21T08:01:51.000Z</time>
      </trkpt>
      <trkpt lat="45.38653" lon="4.75599">
        <ele>146.19999694824</ele>
        <time>2024-05-21T08:01:52.000Z</time>
      </trkpt>
      <trkpt lat="45.38647" lon="4.75599">
        <ele>146.19999694824</ele>
        <time>2024-05-21T08:01:53.000Z</time>
      </trkpt>
      <trkpt lat="45.38641" lon="4.75598">
        <ele>146.19999694824</ele>
        <time>2024-05-21T08:01:54.000Z</time>
      </trkpt>
      <trkpt lat="45.38635" lon="4.75597">
        <ele>146.19999694824</ele>
        <time>2024-05-21T08:01:55.000Z</time>
      </trkpt>
      <trkpt lat="45.38629" lon="4.75596">
        <ele>146.19999694824</ele>
        <time>2024-05-21T08:01:56.000Z</time>
      </trkpt>
      <trkpt lat="45.38623" lon="4.75595">
        <ele>146.19999694824</ele>
        <time>2024-05-21T08:01:57.000Z</time>
      </trkpt>
      <trkpt lat="45.38616" lon="4.75594">
        <ele>146.19999694824</ele>
        <time>2024-05-21T08:01:58.000Z</time>
      </trkpt>
      <trkpt lat="45.3861" lon="4.75593">
        <ele>146.19999694824</ele>
        <time>2024-05-21T08:01:59.000Z</time>
      </trkpt>
      <trkpt lat="45.38604" lon="4.75592">
        <ele>146.19999694824</ele>
        <time>2024-05-21T08:02:00.000Z</time>
      </trkpt>
      <trkpt lat="45.38598" lon="4.75591">
        <ele>146.19999694824</ele>
        <time>2024-05-21T08:02:01.000Z</time>
      </trkpt>
      <trkpt lat="45.38592" lon="4.75589">
        <ele>146</ele>
        <time>2024-05-21T08:02:02.000Z</time>
      </trkpt>
      <trkpt lat="45.38586" lon="4.75588">
        <ele>145.80000305176</ele>
        <time>2024-05-21T08:02:03.000Z</time>
      </trkpt>
      <trkpt lat="45.3858" lon="4.75587">
        <ele>145.60000610352</ele>
        <time>2024-05-21T08:02:04.000Z</time>
      </trkpt>
      <trkpt lat="45.38575" lon="4.75585">
        <ele>145.60000610352</ele>
        <time>2024-05-21T08:02:05.000Z</time>
      </trkpt>
      <trkpt lat="45.3857" lon="4.75584">
        <ele>145.60000610352</ele>
        <time>2024-05-21T08:02:06.000Z</time>
      </trkpt>
      <trkpt lat="45.38565" lon="4.75582">
        <ele>145.60000610352</ele>
        <time>2024-05-21T08:02:07.000Z</time>
      </trkpt>
      <trkpt lat="45.3856" lon="4.7558">
        <ele>145.60000610352</ele>
        <time>2024-05-21T08:02:08.000Z</time>
      </trkpt>
      <trkpt lat="45.38554" lon="4.75579">
        <ele>145.60000610352</ele>
        <time>2024-05-21T08:02:09.000Z</time>
      </trkpt>
      <trkpt lat="45.38548" lon="4.75577">
        <ele>145.80000305176</ele>
        <time>2024-05-21T08:02:10.000Z</time>
      </trkpt>
      <trkpt lat="45.38543" lon="4.75575">
        <ele>145.80000305176</ele>
        <time>2024-05-21T08:02:11.000Z</time>
      </trkpt>
      <trkpt lat="45.38538" lon="4.75573">
        <ele>145.80000305176</ele>
        <time>2024-05-21T08:02:12.000Z</time>
      </trkpt>
      <trkpt lat="45.38532" lon="4.75571">
        <ele>145.80000305176</ele>
        <time>2024-05-21T08:02:13.000Z</time>
      </trkpt>
      <trkpt lat="45.38527" lon="4.75568">
        <ele>145.80000305176</ele>
        <time>2024-05-21T08:02:14.000Z</time>
      </trkpt>
      <trkpt lat="45.38521" lon="4.75566">
        <ele>145.80000305176</ele>
        <time>2024-05-21T08:02:15.000Z</time>
      </trkpt>
      <trkpt lat="45.38516" lon="4.75564">
        <ele>146</ele>
        <time>2024-05-21T08:02:16.000Z</time>
      </trkpt>
      <trkpt lat="45.3851" lon="4.75562">
        <ele>146</ele>
        <time>2024-05-21T08:02:17.000Z</time>
      </trkpt>
      <trkpt lat="45.38505" lon="4.7556">
        <ele>146</ele>
        <time>2024-05-21T08:02:18.000Z</time>
      </trkpt>
      <trkpt lat="45.38499" lon="4.75558">
        <ele>146</ele>
        <time>2024-05-21T08:02:19.000Z</time>
      </trkpt>
      <trkpt lat="45.38493" lon="4.75555">
        <ele>146</ele>
        <time>2024-05-21T08:02:20.000Z</time>
      </trkpt>
      <trkpt lat="45.38488" lon="4.75553">
        <ele>146</ele>
        <time>2024-05-21T08:02:21.000Z</time>
      </trkpt>
      <trkpt lat="45.38482" lon="4.7555">
        <ele>146</ele>
        <time>2024-05-21T08:02:22.000Z</time>
      </trkpt>
      <trkpt lat="45.38476" lon="4.75547">
        <ele>146</ele>
        <time>2024-05-21T08:02:23.000Z</time>
      </trkpt>
      <trkpt lat="45.38471" lon="4.75544">
        <ele>146</ele>
        <time>2024-05-21T08:02:24.000Z</time>
      </trkpt>
      <trkpt lat="45.38465" lon="4.75541">
        <ele>146</ele>
        <time>2024-05-21T08:02:25.000Z</time>
      </trkpt>
      <trkpt lat="45.3846" lon="4.75538">
        <ele>146</ele>
        <time>2024-05-21T08:02:26.000Z</time>
      </trkpt>
      <trkpt lat="45.38454" lon="4.75535">
        <ele>146</ele>
        <time>2024-05-21T08:02:27.000Z</time>
      </trkpt>
      <trkpt lat="45.38448" lon="4.75532">
        <ele>146.19999694824</ele>
        <time>2024-05-21T08:02:28.000Z</time>
      </trkpt>
      <trkpt lat="45.38443" lon="4.75528">
        <ele>146.19999694824</ele>
        <time>2024-05-21T08:02:29.000Z</time>
      </trkpt>
      <trkpt lat="45.38437" lon="4.75524">
        <ele>146.19999694824</ele>
        <time>2024-05-21T08:02:30.000Z</time>
      </trkpt>
      <trkpt lat="45.38432" lon="4.75521">
        <ele>146.19999694824</ele>
        <time>2024-05-21T08:02:31.000Z</time>
      </trkpt>
      <trkpt lat="45.38426" lon="4.75517">
        <ele>146.19999694824</ele>
        <time>2024-05-21T08:02:32.000Z</time>
      </trkpt>
      <trkpt lat="45.38421" lon="4.75513">
        <ele>146.19999694824</ele>
        <time>2024-05-21T08:02:33.000Z</time>
      </trkpt>
      <trkpt lat="45.38415" lon="4.75509">
        <ele>146.19999694824</ele>
        <time>2024-05-21T08:02:34.000Z</time>
      </trkpt>
      <trkpt lat="45.38409" lon="4.75505">
        <ele>146.19999694824</ele>
        <time>2024-05-21T08:02:35.000Z</time>
      </trkpt>
      <trkpt lat="45.38404" lon="4.75501">
        <ele>146.19999694824</ele>
        <time>2024-05-21T08:02:36.000Z</time>
      </trkpt>
      <trkpt lat="45.38398" lon="4.75497">
        <ele>145.80000305176</ele>
        <time>2024-05-21T08:02:37.000Z</time>
      </trkpt>
      <trkpt lat="45.38392" lon="4.75493">
        <ele>145.80000305176</ele>
        <time>2024-05-21T08:02:38.000Z</time>
      </trkpt>
      <trkpt lat="45.38387" lon="4.75489">
        <ele>145.80000305176</ele>
        <time>2024-05-21T08:02:39.000Z</time>
      </trkpt>
      <trkpt lat="45.38381" lon="4.75485">
        <ele>145.80000305176</ele>
        <time>2024-05-21T08:02:40.000Z</time>
      </trkpt>
      <trkpt lat="45.38375" lon="4.75481">
        <ele>145.80000305176</ele>
        <time>2024-05-21T08:02:41.000Z</time>
      </trkpt>
      <trkpt lat="45.3837" lon="4.75478">
        <ele>145.80000305176</ele>
        <time>2024-05-21T08:02:42.000Z</time>
      </trkpt>
      <trkpt lat="45.38364" lon="4.75474">
        <ele>145.80000305176</ele>
        <time>2024-05-21T08:02:43.000Z</time>
      </trkpt>
      <trkpt lat="45.38359" lon="4.7547">
        <ele>146</ele>
        <time>2024-05-21T08:02:44.000Z</time>
      </trkpt>
      <trkpt lat="45.38353" lon="4.75465">
        <ele>146</ele>
        <time>2024-05-21T08:02:45.000Z</time>
      </trkpt>
      <trkpt lat="45.38348" lon="4.75461">
        <ele>146</ele>
        <time>2024-05-21T08:02:46.000Z</time>
      </trkpt>
      <trkpt lat="45.38343" lon="4.75456">
        <ele>146</ele>
        <time>2024-05-21T08:02:47.000Z</time>
      </trkpt>
      <trkpt lat="45.38337" lon="4.75452">
        <ele>146</ele>
        <time>2024-05-21T08:02:48.000Z</time>
      </trkpt>
      <trkpt lat="45.38332" lon="4.75449">
        <ele>146.19999694824</ele>
        <time>2024-05-21T08:02:49.000Z</time>
      </trkpt>
      <trkpt lat="45.38327" lon="4.75445">
        <ele>146.19999694824</ele>
        <time>2024-05-21T08:02:50.000Z</time>
      </trkpt>
      <trkpt lat="45.38321" lon="4.75441">
        <ele>146</ele>
        <time>2024-05-21T08:02:51.000Z</time>
      </trkpt>
      <trkpt lat="45.38316" lon="4.75437">
        <ele>146.19999694824</ele>
        <time>2024-05-21T08:02:52.000Z</time>
      </trkpt>
      <trkpt lat="45.38311" lon="4.75434">
        <ele>146.19999694824</ele>
        <time>2024-05-21T08:02:53.000Z</time>
      </trkpt>
      <trkpt lat="45.38307" lon="4.7543">
        <ele>146.19999694824</ele>
        <time>2024-05-21T08:02:54.000Z</time>
      </trkpt>
      <trkpt lat="45.38302" lon="4.75427">
        <ele>146.19999694824</ele>
        <time>2024-05-21T08:02:55.000Z</time>
      </trkpt>
      <trkpt lat="45.38297" lon="4.75425">
        <ele>146.19999694824</ele>
        <time>2024-05-21T08:02:56.000Z</time>
      </trkpt>
      <trkpt lat="45.38293" lon="4.75423">
        <ele>146.19999694824</ele>
        <time>2024-05-21T08:02:57.000Z</time>
      </trkpt>
      <trkpt lat="45.38289" lon="4.75421">
        <ele>146.19999694824</ele>
        <time>2024-05-21T08:02:58.000Z</time>
      </trkpt>
      <trkpt lat="45.38285" lon="4.7542">
        <ele>146.19999694824</ele>
        <time>2024-05-21T08:02:59.000Z</time>
      </trkpt>
      <trkpt lat="45.38282" lon="4.7542">
        <ele>146.19999694824</ele>
        <time>2024-05-21T08:03:00.000Z</time>
      </trkpt>
      <trkpt lat="45.38279" lon="4.7542">
        <ele>146.39999389648</ele>
        <time>2024-05-21T08:03:01.000Z</time>
      </trkpt>
      <trkpt lat="45.38275" lon="4.7542">
        <ele>146.39999389648</ele>
        <time>2024-05-21T08:03:02.000Z</time>
      </trkpt>
      <trkpt lat="45.38272" lon="4.7542">
        <ele>146.39999389648</ele>
        <time>2024-05-21T08:03:03.000Z</time>
      </trkpt>
      <trkpt lat="45.38268" lon="4.75421">
        <ele>146.39999389648</ele>
        <time>2024-05-21T08:03:04.000Z</time>
      </trkpt>
      <trkpt lat="45.38263" lon="4.75422">
        <ele>146.39999389648</ele>
        <time>2024-05-21T08:03:05.000Z</time>
      </trkpt>
      <trkpt lat="45.38259" lon="4.75424">
        <ele>146.39999389648</ele>
        <time>2024-05-21T08:03:06.000Z</time>
      </trkpt>
      <trkpt lat="45.38254" lon="4.75427">
        <ele>146.39999389648</ele>
        <time>2024-05-21T08:03:07.000Z</time>
      </trkpt>
      <trkpt lat="45.38249" lon="4.75431">
        <ele>146.19999694824</ele>
        <time>2024-05-21T08:03:08.000Z</time>
      </trkpt>
      <trkpt lat="45.38245" lon="4.75435">
        <ele>146</ele>
        <time>2024-05-21T08:03:09.000Z</time>
      </trkpt>
      <trkpt lat="45.3824" lon="4.75439">
        <ele>145.80000305176</ele>
        <time>2024-05-21T08:03:10.000Z</time>
      </trkpt>
      <trkpt lat="45.38235" lon="4.75442">
        <ele>145.80000305176</ele>
        <time>2024-05-21T08:03:11.000Z</time>
      </trkpt>
      <trkpt lat="45.38231" lon="4.75446">
        <ele>145.80000305176</ele>
        <time>2024-05-21T08:03:12.000Z</time>
      </trkpt>
      <trkpt lat="45.38226" lon="4.7545">
        <ele>145.80000305176</ele>
        <time>2024-05-21T08:03:13.000Z</time>
      </trkpt>
      <trkpt lat="45.38221" lon="4.75454">
        <ele>145.80000305176</ele>
        <time>2024-05-21T08:03:14.000Z</time>
      </trkpt>
      <trkpt lat="45.38216" lon="4.75458">
        <ele>146</ele>
        <time>2024-05-21T08:03:15.000Z</time>
      </trkpt>
      <trkpt lat="45.38211" lon="4.75462">
        <ele>146</ele>
        <time>2024-05-21T08:03:16.000Z</time>
      </trkpt>
      <trkpt lat="45.38206" lon="4.75466">
        <ele>146</ele>
        <time>2024-05-21T08:03:17.000Z</time>
      </trkpt>
      <trkpt lat="45.38201" lon="4.75471">
        <ele>146</ele>
        <time>2024-05-21T08:03:18.000Z</time>
      </trkpt>
      <trkpt lat="45.38196" lon="4.75475">
        <ele>146</ele>
        <time>2024-05-21T08:03:19.000Z</time>
      </trkpt>
      <trkpt lat="45.38191" lon="4.7548">
        <ele>146</ele>
        <time>2024-05-21T08:03:20.000Z</time>
      </trkpt>
      <trkpt lat="45.38185" lon="4.75484">
        <ele>146</ele>
        <time>2024-05-21T08:03:21.000Z</time>
      </trkpt>
      <trkpt lat="45.3818" lon="4.75488">
        <ele>146</ele>
        <time>2024-05-21T08:03:22.000Z</time>
      </trkpt>
      <trkpt lat="45.38175" lon="4.75493">
        <ele>146</ele>
        <time>2024-05-21T08:03:23.000Z</time>
      </trkpt>
      <trkpt lat="45.3817" lon="4.75497">
        <ele>145.80000305176</ele>
        <time>2024-05-21T08:03:24.000Z</time>
      </trkpt>
      <trkpt lat="45.38164" lon="4.75501">
        <ele>146</ele>
        <time>2024-05-21T08:03:25.000Z</time>
      </trkpt>
      <trkpt lat="45.38159" lon="4.75506">
        <ele>146</ele>
        <time>2024-05-21T08:03:26.000Z</time>
      </trkpt>
      <trkpt lat="45.38154" lon="4.7551">
        <ele>146</ele>
        <time>2024-05-21T08:03:27.000Z</time>
      </trkpt>
      <trkpt lat="45.38149" lon="4.75515">
        <ele>145.80000305176</ele>
        <time>2024-05-21T08:03:28.000Z</time>
      </trkpt>
      <trkpt lat="45.38144" lon="4.7552">
        <ele>145.80000305176</ele>
        <time>2024-05-21T08:03:29.000Z</time>
      </trkpt>
      <trkpt lat="45.3814" lon="4.75525">
        <ele>146</ele>
        <time>2024-05-21T08:03:30.000Z</time>
      </trkpt>
      <trkpt lat="45.38136" lon="4.75531">
        <ele>146</ele>
        <time>2024-05-21T08:03:31.000Z</time>
      </trkpt>
      <trkpt lat="45.38132" lon="4.75536">
        <ele>146</ele>
        <time>2024-05-21T08:03:32.000Z</time>
      </trkpt>
      <trkpt lat="45.38129" lon="4.75542">
        <ele>146</ele>
        <time>2024-05-21T08:03:33.000Z</time>
      </trkpt>
      <trkpt lat="45.38128" lon="4.7555">
        <ele>146</ele>
        <time>2024-05-21T08:03:34.000Z</time>
      </trkpt>
      <trkpt lat="45.38128" lon="4.75558">
        <ele>146</ele>
        <time>2024-05-21T08:03:35.000Z</time>
      </trkpt>
      <trkpt lat="45.38128" lon="4.75568">
        <ele>146</ele>
        <time>2024-05-21T08:03:36.000Z</time>
      </trkpt>
      <trkpt lat="45.3813" lon="4.75574">
        <ele>146.19999694824</ele>
        <time>2024-05-21T08:03:37.000Z</time>
      </trkpt>
      <trkpt lat="45.38131" lon="4.75581">
        <ele>146.19999694824</ele>
        <time>2024-05-21T08:03:38.000Z</time>
      </trkpt>
      <trkpt lat="45.38133" lon="4.75588">
        <ele>146.19999694824</ele>
        <time>2024-05-21T08:03:39.000Z</time>
      </trkpt>
      <trkpt lat="45.38135" lon="4.75595">
        <ele>146.19999694824</ele>
        <time>2024-05-21T08:03:40.000Z</time>
      </trkpt>
      <trkpt lat="45.38136" lon="4.75602">
        <ele>146.19999694824</ele>
        <time>2024-05-21T08:03:41.000Z</time>
      </trkpt>
      <trkpt lat="45.38137" lon="4.7561">
        <ele>146.19999694824</ele>
        <time>2024-05-21T08:03:42.000Z</time>
      </trkpt>
      <trkpt lat="45.38137" lon="4.75617">
        <ele>146.19999694824</ele>
        <time>2024-05-21T08:03:43.000Z</time>
      </trkpt>
      <trkpt lat="45.38136" lon="4.75623">
        <ele>146.39999389648</ele>
        <time>2024-05-21T08:03:44.000Z</time>
      </trkpt>
      <trkpt lat="45.38133" lon="4.75628">
        <ele>146.39999389648</ele>
        <time>2024-05-21T08:03:45.000Z</time>
      </trkpt>
      <trkpt lat="45.38128" lon="4.75631">
        <ele>146.39999389648</ele>
        <time>2024-05-21T08:03:46.000Z</time>
      </trkpt>
      <trkpt lat="45.38124" lon="4.75631">
        <ele>146.39999389648</ele>
        <time>2024-05-21T08:03:47.000Z</time>
      </trkpt>
      <trkpt lat="45.38121" lon="4.75627">
        <ele>146.19999694824</ele>
        <time>2024-05-21T08:03:48.000Z</time>
      </trkpt>
      <trkpt lat="45.38118" lon="4.75622">
        <ele>146.19999694824</ele>
        <time>2024-05-21T08:03:49.000Z</time>
      </trkpt>
      <trkpt lat="45.38116" lon="4.75617">
        <ele>146.19999694824</ele>
        <time>2024-05-21T08:03:50.000Z</time>
      </trkpt>
      <trkpt lat="45.38115" lon="4.75611">
        <ele>146.19999694824</ele>
        <time>2024-05-21T08:03:51.000Z</time>
      </trkpt>
      <trkpt lat="45.38114" lon="4.75605">
        <ele>146.19999694824</ele>
        <time>2024-05-21T08:03:52.000Z</time>
      </trkpt>
      <trkpt lat="45.38114" lon="4.75599">
        <ele>146.39999389648</ele>
        <time>2024-05-21T08:03:53.000Z</time>
      </trkpt>
      <trkpt lat="45.38114" lon="4.75593">
        <ele>146.60000610352</ele>
        <time>2024-05-21T08:03:54.000Z</time>
      </trkpt>
      <trkpt lat="45.38112" lon="4.75589">
        <ele>146.80000305176</ele>
        <time>2024-05-21T08:03:55.000Z</time>
      </trkpt>
      <trkpt lat="45.38109" lon="4.75587">
        <ele>147</ele>
        <time>2024-05-21T08:03:56.000Z</time>
      </trkpt>
      <trkpt lat="45.38106" lon="4.75588">
        <ele>147.19999694824</ele>
        <time>2024-05-21T08:03:57.000Z</time>
      </trkpt>
      <trkpt lat="45.38104" lon="4.75592">
        <ele>147.60000610352</ele>
        <time>2024-05-21T08:03:58.000Z</time>
      </trkpt>
      <trkpt lat="45.38103" lon="4.75597">
        <ele>147.60000610352</ele>
        <time>2024-05-21T08:03:59.000Z</time>
      </trkpt>
      <trkpt lat="45.38101" lon="4.75602">
        <ele>147.80000305176</ele>
        <time>2024-05-21T08:04:00.000Z</time>
      </trkpt>
      <trkpt lat="45.38101" lon="4.75607">
        <ele>148</ele>
        <time>2024-05-21T08:04:01.000Z</time>
      </trkpt>
      <trkpt lat="45.381" lon="4.75612">
        <ele>148.39999389648</ele>
        <time>2024-05-21T08:04:02.000Z</time>
      </trkpt>
      <trkpt lat="45.38098" lon="4.75617">
        <ele>148.60000610352</ele>
        <time>2024-05-21T08:04:03.000Z</time>
      </trkpt>
      <trkpt lat="45.38097" lon="4.75622">
        <ele>148.80000305176</ele>
        <time>2024-05-21T08:04:04.000Z</time>
      </trkpt>
      <trkpt lat="45.38095" lon="4.75628">
        <ele>149</ele>
        <time>2024-05-21T08:04:05.000Z</time>
      </trkpt>
      <trkpt lat="45.38093" lon="4.75633">
        <ele>149.19999694824</ele>
        <time>2024-05-21T08:04:06.000Z</time>
      </trkpt>
      <trkpt lat="45.38092" lon="4.75638">
        <ele>149.39999389648</ele>
        <time>2024-05-21T08:04:07.000Z</time>
      </trkpt>
      <trkpt lat="45.38091" lon="4.75643">
        <ele>149.60000610352</ele>
        <time>2024-05-21T08:04:08.000Z</time>
      </trkpt>
      <trkpt lat="45.38089" lon="4.75648">
        <ele>149.80000305176</ele>
        <time>2024-05-21T08:04:09.000Z</time>
      </trkpt>
      <trkpt lat="45.38088" lon="4.75653">
        <ele>150</ele>
        <time>2024-05-21T08:04:10.000Z</time>
      </trkpt>
      <trkpt lat="45.38087" lon="4.75658">
        <ele>150.19999694824</ele>
        <time>2024-05-21T08:04:11.000Z</time>
      </trkpt>
      <trkpt lat="45.38086" lon="4.75663">
        <ele>150.19999694824</ele>
        <time>2024-05-21T08:04:12.000Z</time>
      </trkpt>
      <trkpt lat="45.38085" lon="4.75668">
        <ele>150.39999389648</ele>
        <time>2024-05-21T08:04:13.000Z</time>
      </trkpt>
      <trkpt lat="45.38083" lon="4.75673">
        <ele>150.39999389648</ele>
        <time>2024-05-21T08:04:14.000Z</time>
      </trkpt>
      <trkpt lat="45.38082" lon="4.75679">
        <ele>150.60000610352</ele>
        <time>2024-05-21T08:04:15.000Z</time>
      </trkpt>
      <trkpt lat="45.38081" lon="4.75684">
        <ele>150.60000610352</ele>
        <time>2024-05-21T08:04:16.000Z</time>
      </trkpt>
      <trkpt lat="45.3808" lon="4.7569">
        <ele>150.60000610352</ele>
        <time>2024-05-21T08:04:17.000Z</time>
      </trkpt>
      <trkpt lat="45.38079" lon="4.75696">
        <ele>150.60000610352</ele>
        <time>2024-05-21T08:04:18.000Z</time>
      </trkpt>
      <trkpt lat="45.38078" lon="4.75702">
        <ele>150.60000610352</ele>
        <time>2024-05-21T08:04:19.000Z</time>
      </trkpt>
      <trkpt lat="45.38076" lon="4.75709">
        <ele>150.60000610352</ele>
        <time>2024-05-21T08:04:20.000Z</time>
      </trkpt>
      <trkpt lat="45.38075" lon="4.75716">
        <ele>150.39999389648</ele>
        <time>2024-05-21T08:04:21.000Z</time>
      </trkpt>
      <trkpt lat="45.38074" lon="4.75722">
        <ele>150.39999389648</ele>
        <time>2024-05-21T08:04:22.000Z</time>
      </trkpt>
      <trkpt lat="45.38073" lon="4.75728">
        <ele>150.39999389648</ele>
        <time>2024-05-21T08:04:23.000Z</time>
      </trkpt>
      <trkpt lat="45.38072" lon="4.75733">
        <ele>150.39999389648</ele>
        <time>2024-05-21T08:04:24.000Z</time>
      </trkpt>
      <trkpt lat="45.3807" lon="4.7574">
        <ele>150.19999694824</ele>
        <time>2024-05-21T08:04:25.000Z</time>
      </trkpt>
      <trkpt lat="45.38069" lon="4.75746">
        <ele>150.19999694824</ele>
        <time>2024-05-21T08:04:26.000Z</time>
      </trkpt>
      <trkpt lat="45.38068" lon="4.75753">
        <ele>150.19999694824</ele>
        <time>2024-05-21T08:04:27.000Z</time>
      </trkpt>
      <trkpt lat="45.38067" lon="4.75759">
        <ele>150.19999694824</ele>
        <time>2024-05-21T08:04:28.000Z</time>
      </trkpt>
      <trkpt lat="45.38066" lon="4.75767">
        <ele>150.19999694824</ele>
        <time>2024-05-21T08:04:29.000Z</time>
      </trkpt>
      <trkpt lat="45.38064" lon="4.75773">
        <ele>150.19999694824</ele>
        <time>2024-05-21T08:04:30.000Z</time>
      </trkpt>
      <trkpt lat="45.38064" lon="4.75779">
        <ele>150.19999694824</ele>
        <time>2024-05-21T08:04:31.000Z</time>
      </trkpt>
      <trkpt lat="45.38062" lon="4.75787">
        <ele>150</ele>
        <time>2024-05-21T08:04:32.000Z</time>
      </trkpt>
      <trkpt lat="45.38061" lon="4.75794">
        <ele>150</ele>
        <time>2024-05-21T08:04:33.000Z</time>
      </trkpt>
      <trkpt lat="45.3806" lon="4.75799">
        <ele>149.80000305176</ele>
        <time>2024-05-21T08:04:34.000Z</time>
      </trkpt>
      <trkpt lat="45.38058" lon="4.75807">
        <ele>149.80000305176</ele>
        <time>2024-05-21T08:04:35.000Z</time>
      </trkpt>
      <trkpt lat="45.38057" lon="4.75813">
        <ele>149.80000305176</ele>
        <time>2024-05-21T08:04:36.000Z</time>
      </trkpt>
      <trkpt lat="45.38056" lon="4.7582">
        <ele>150</ele>
        <time>2024-05-21T08:04:37.000Z</time>
      </trkpt>
      <trkpt lat="45.38055" lon="4.75826">
        <ele>150.19999694824</ele>
        <time>2024-05-21T08:04:38.000Z</time>
      </trkpt>
      <trkpt lat="45.38053" lon="4.75833">
        <ele>150.19999694824</ele>
        <time>2024-05-21T08:04:39.000Z</time>
      </trkpt>
      <trkpt lat="45.38052" lon="4.7584">
        <ele>150.19999694824</ele>
        <time>2024-05-21T08:04:40.000Z</time>
      </trkpt>
      <trkpt lat="45.38051" lon="4.75847">
        <ele>150.19999694824</ele>
        <time>2024-05-21T08:04:41.000Z</time>
      </trkpt>
      <trkpt lat="45.3805" lon="4.75854">
        <ele>150.19999694824</ele>
        <time>2024-05-21T08:04:42.000Z</time>
      </trkpt>
      <trkpt lat="45.38049" lon="4.75859">
        <ele>150.19999694824</ele>
        <time>2024-05-21T08:04:43.000Z</time>
      </trkpt>
      <trkpt lat="45.38047" lon="4.75868">
        <ele>150</ele>
        <time>2024-05-21T08:04:44.000Z</time>
      </trkpt>
      <trkpt lat="45.38046" lon="4.75873">
        <ele>150</ele>
        <time>2024-05-21T08:04:45.000Z</time>
      </trkpt>
      <trkpt lat="45.38045" lon="4.75879">
        <ele>150</ele>
        <time>2024-05-21T08:04:46.000Z</time>
      </trkpt>
      <trkpt lat="45.38043" lon="4.75887">
        <ele>150</ele>
        <time>2024-05-21T08:04:47.000Z</time>
      </trkpt>
      <trkpt lat="45.38042" lon="4.75893">
        <ele>150</ele>
        <time>2024-05-21T08:04:48.000Z</time>
      </trkpt>
      <trkpt lat="45.38041" lon="4.75899">
        <ele>150.19999694824</ele>
        <time>2024-05-21T08:04:49.000Z</time>
      </trkpt>
      <trkpt lat="45.3804" lon="4.75906">
        <ele>150.19999694824</ele>
        <time>2024-05-21T08:04:50.000Z</time>
      </trkpt>
      <trkpt lat="45.3804" lon="4.75912">
        <ele>150.19999694824</ele>
        <time>2024-05-21T08:04:51.000Z</time>
      </trkpt>
      <trkpt lat="45.3804" lon="4.75918">
        <ele>150.19999694824</ele>
        <time>2024-05-21T08:04:52.000Z</time>
      </trkpt>
      <trkpt lat="45.3804" lon="4.75925">
        <ele>150.19999694824</ele>
        <time>2024-05-21T08:04:53.000Z</time>
      </trkpt>
      <trkpt lat="45.3804" lon="4.75932">
        <ele>150.19999694824</ele>
        <time>2024-05-21T08:04:54.000Z</time>
      </trkpt>
      <trkpt lat="45.38039" lon="4.7594">
        <ele>150.19999694824</ele>
        <time>2024-05-21T08:04:55.000Z</time>
      </trkpt>
      <trkpt lat="45.38037" lon="4.75948">
        <ele>149.80000305176</ele>
        <time>2024-05-21T08:04:56.000Z</time>
      </trkpt>
      <trkpt lat="45.38035" lon="4.75954">
        <ele>149.60000610352</ele>
        <time>2024-05-21T08:04:57.000Z</time>
      </trkpt>
      <trkpt lat="45.38032" lon="4.75963">
        <ele>149.19999694824</ele>
        <time>2024-05-21T08:04:58.000Z</time>
      </trkpt>
      <trkpt lat="45.38029" lon="4.7597">
        <ele>148.80000305176</ele>
        <time>2024-05-21T08:04:59.000Z</time>
      </trkpt>
      <trkpt lat="45.38026" lon="4.75976">
        <ele>148.60000610352</ele>
        <time>2024-05-21T08:05:00.000Z</time>
      </trkpt>
      <trkpt lat="45.38021" lon="4.75984">
        <ele>148.39999389648</ele>
        <time>2024-05-21T08:05:01.000Z</time>
      </trkpt>
      <trkpt lat="45.38016" lon="4.75991">
        <ele>148</ele>
        <time>2024-05-21T08:05:02.000Z</time>
      </trkpt>
      <trkpt lat="45.38012" lon="4.75996">
        <ele>147.80000305176</ele>
        <time>2024-05-21T08:05:03.000Z</time>
      </trkpt>
      <trkpt lat="45.38006" lon="4.76003">
        <ele>147.19999694824</ele>
        <time>2024-05-21T08:05:04.000Z</time>
      </trkpt>
      <trkpt lat="45.38001" lon="4.76009">
        <ele>146.80000305176</ele>
        <time>2024-05-21T08:05:05.000Z</time>
      </trkpt>
      <trkpt lat="45.37996" lon="4.76013">
        <ele>146.80000305176</ele>
        <time>2024-05-21T08:05:06.000Z</time>
      </trkpt>
      <trkpt lat="45.3799" lon="4.76018">
        <ele>146.39999389648</ele>
        <time>2024-05-21T08:05:07.000Z</time>
      </trkpt>
      <trkpt lat="45.37983" lon="4.76022">
        <ele>146.19999694824</ele>
        <time>2024-05-21T08:05:08.000Z</time>
      </trkpt>
      <trkpt lat="45.37975" lon="4.76026">
        <ele>145.80000305176</ele>
        <time>2024-05-21T08:05:09.000Z</time>
      </trkpt>
      <trkpt lat="45.37968" lon="4.7603">
        <ele>145.19999694824</ele>
        <time>2024-05-21T08:05:10.000Z</time>
      </trkpt>
      <trkpt lat="45.37959" lon="4.76035">
        <ele>145.19999694824</ele>
        <time>2024-05-21T08:05:11.000Z</time>
      </trkpt>
      <trkpt lat="45.37951" lon="4.7604">
        <ele>144.60000610352</ele>
        <time>2024-05-21T08:05:12.000Z</time>
      </trkpt>
      <trkpt lat="45.37944" lon="4.76044">
        <ele>144.39999389648</ele>
        <time>2024-05-21T08:05:13.000Z</time>
      </trkpt>
      <trkpt lat="45.37934" lon="4.7605">
        <ele>144</ele>
        <time>2024-05-21T08:05:14.000Z</time>
      </trkpt>
      <trkpt lat="45.37925" lon="4.76055">
        <ele>143.39999389648</ele>
        <time>2024-05-21T08:05:15.000Z</time>
      </trkpt>
      <trkpt lat="45.37916" lon="4.7606">
        <ele>142.80000305176</ele>
        <time>2024-05-21T08:05:16.000Z</time>
      </trkpt>
      <trkpt lat="45.37908" lon="4.76065">
        <ele>142.39999389648</ele>
        <time>2024-05-21T08:05:17.000Z</time>
      </trkpt>
      <trkpt lat="45.37899" lon="4.7607">
        <ele>142</ele>
        <time>2024-05-21T08:05:18.000Z</time>
      </trkpt>
      <trkpt lat="45.37893" lon="4.76073">
        <ele>141.60000610352</ele>
        <time>2024-05-21T08:05:19.000Z</time>
      </trkpt>
      <trkpt lat="45.37883" lon="4.76079">
        <ele>141.39999389648</ele>
        <time>2024-05-21T08:05:20.000Z</time>
      </trkpt>
      <trkpt lat="45.37875" lon="4.76083">
        <ele>141.39999389648</ele>
        <time>2024-05-21T08:05:21.000Z</time>
      </trkpt>
      <trkpt lat="45.37869" lon="4.76087">
        <ele>141.39999389648</ele>
        <time>2024-05-21T08:05:22.000Z</time>
      </trkpt>
      <trkpt lat="45.3786" lon="4.76092">
        <ele>141.39999389648</ele>
        <time>2024-05-21T08:05:23.000Z</time>
      </trkpt>
      <trkpt lat="45.37853" lon="4.76097">
        <ele>141.39999389648</ele>
        <time>2024-05-21T08:05:24.000Z</time>
      </trkpt>
      <trkpt lat="45.37848" lon="4.761">
        <ele>141.39999389648</ele>
        <time>2024-05-21T08:05:25.000Z</time>
      </trkpt>
      <trkpt lat="45.3784" lon="4.76105">
        <ele>141.60000610352</ele>
        <time>2024-05-21T08:05:26.000Z</time>
      </trkpt>
      <trkpt lat="45.37833" lon="4.76109">
        <ele>141.60000610352</ele>
        <time>2024-05-21T08:05:27.000Z</time>
      </trkpt>
      <trkpt lat="45.37827" lon="4.76112">
        <ele>141.80000305176</ele>
        <time>2024-05-21T08:05:28.000Z</time>
      </trkpt>
      <trkpt lat="45.37821" lon="4.76115">
        <ele>141.80000305176</ele>
        <time>2024-05-21T08:05:29.000Z</time>
      </trkpt>
      <trkpt lat="45.37813" lon="4.76119">
        <ele>141.80000305176</ele>
        <time>2024-05-21T08:05:30.000Z</time>
      </trkpt>
      <trkpt lat="45.37806" lon="4.76123">
        <ele>141.80000305176</ele>
        <time>2024-05-21T08:05:31.000Z</time>
      </trkpt>
      <trkpt lat="45.378" lon="4.76127">
        <ele>141.80000305176</ele>
        <time>2024-05-21T08:05:32.000Z</time>
      </trkpt>
      <trkpt lat="45.37794" lon="4.76131">
        <ele>141.80000305176</ele>
        <time>2024-05-21T08:05:33.000Z</time>
      </trkpt>
      <trkpt lat="45.37789" lon="4.76134">
        <ele>141.80000305176</ele>
        <time>2024-05-21T08:05:34.000Z</time>
      </trkpt>
      <trkpt lat="45.37781" lon="4.76138">
        <ele>141.80000305176</ele>
        <time>2024-05-21T08:05:35.000Z</time>
      </trkpt>
      <trkpt lat="45.37775" lon="4.76141">
        <ele>141.80000305176</ele>
        <time>2024-05-21T08:05:36.000Z</time>
      </trkpt>
      <trkpt lat="45.37769" lon="4.76144">
        <ele>141.80000305176</ele>
        <time>2024-05-21T08:05:37.000Z</time>
      </trkpt>
      <trkpt lat="45.37762" lon="4.76149">
        <ele>141.80000305176</ele>
        <time>2024-05-21T08:05:38.000Z</time>
      </trkpt>
      <trkpt lat="45.37756" lon="4.76152">
        <ele>141.80000305176</ele>
        <time>2024-05-21T08:05:39.000Z</time>
      </trkpt>
      <trkpt lat="45.3775" lon="4.76156">
        <ele>141.80000305176</ele>
        <time>2024-05-21T08:05:40.000Z</time>
      </trkpt>
      <trkpt lat="45.37743" lon="4.76159">
        <ele>142</ele>
        <time>2024-05-21T08:05:41.000Z</time>
      </trkpt>
      <trkpt lat="45.37737" lon="4.76163">
        <ele>142</ele>
        <time>2024-05-21T08:05:42.000Z</time>
      </trkpt>
      <trkpt lat="45.37731" lon="4.76166">
        <ele>142</ele>
        <time>2024-05-21T08:05:43.000Z</time>
      </trkpt>
      <trkpt lat="45.37725" lon="4.7617">
        <ele>142</ele>
        <time>2024-05-21T08:05:44.000Z</time>
      </trkpt>
      <trkpt lat="45.37719" lon="4.76174">
        <ele>142</ele>
        <time>2024-05-21T08:05:45.000Z</time>
      </trkpt>
      <trkpt lat="45.37713" lon="4.76177">
        <ele>142</ele>
        <time>2024-05-21T08:05:46.000Z</time>
      </trkpt>
      <trkpt lat="45.37707" lon="4.76181">
        <ele>142.19999694824</ele>
        <time>2024-05-21T08:05:47.000Z</time>
      </trkpt>
      <trkpt lat="45.377" lon="4.76185">
        <ele>142.19999694824</ele>
        <time>2024-05-21T08:05:48.000Z</time>
      </trkpt>
      <trkpt lat="45.37694" lon="4.76189">
        <ele>142.19999694824</ele>
        <time>2024-05-21T08:05:49.000Z</time>
      </trkpt>
      <trkpt lat="45.37689" lon="4.76192">
        <ele>142.19999694824</ele>
        <time>2024-05-21T08:05:50.000Z</time>
      </trkpt>
      <trkpt lat="45.37683" lon="4.76196">
        <ele>142.19999694824</ele>
        <time>2024-05-21T08:05:51.000Z</time>
      </trkpt>
      <trkpt lat="45.37676" lon="4.762">
        <ele>142.19999694824</ele>
        <time>2024-05-21T08:05:52.000Z</time>
      </trkpt>
      <trkpt lat="45.3767" lon="4.76204">
        <ele>142.19999694824</ele>
        <time>2024-05-21T08:05:53.000Z</time>
      </trkpt>
      <trkpt lat="45.37664" lon="4.76208">
        <ele>142.19999694824</ele>
        <time>2024-05-21T08:05:54.000Z</time>
      </trkpt>
      <trkpt lat="45.37659" lon="4.76211">
        <ele>142.19999694824</ele>
        <time>2024-05-21T08:05:55.000Z</time>
      </trkpt>
      <trkpt lat="45.37652" lon="4.76216">
        <ele>142.19999694824</ele>
        <time>2024-05-21T08:05:56.000Z</time>
      </trkpt>
      <trkpt lat="45.37646" lon="4.7622">
        <ele>142.19999694824</ele>
        <time>2024-05-21T08:05:57.000Z</time>
      </trkpt>
      <trkpt lat="45.37639" lon="4.76224">
        <ele>142.19999694824</ele>
        <time>2024-05-21T08:05:58.000Z</time>
      </trkpt>
      <trkpt lat="45.37634" lon="4.76228">
        <ele>142.19999694824</ele>
        <time>2024-05-21T08:05:59.000Z</time>
      </trkpt>
      <trkpt lat="45.37628" lon="4.76233">
        <ele>142</ele>
        <time>2024-05-21T08:06:00.000Z</time>
      </trkpt>
      <trkpt lat="45.37622" lon="4.76236">
        <ele>142</ele>
        <time>2024-05-21T08:06:01.000Z</time>
      </trkpt>
      <trkpt lat="45.37616" lon="4.76241">
        <ele>142</ele>
        <time>2024-05-21T08:06:02.000Z</time>
      </trkpt>
      <trkpt lat="45.3761" lon="4.76245">
        <ele>142</ele>
        <time>2024-05-21T08:06:03.000Z</time>
      </trkpt>
      <trkpt lat="45.37604" lon="4.76249">
        <ele>142</ele>
        <time>2024-05-21T08:06:04.000Z</time>
      </trkpt>
      <trkpt lat="45.37599" lon="4.76253">
        <ele>141.80000305176</ele>
        <time>2024-05-21T08:06:05.000Z</time>
      </trkpt>
      <trkpt lat="45.37593" lon="4.76257">
        <ele>141.80000305176</ele>
        <time>2024-05-21T08:06:06.000Z</time>
      </trkpt>
      <trkpt lat="45.37587" lon="4.76261">
        <ele>141.80000305176</ele>
        <time>2024-05-21T08:06:07.000Z</time>
      </trkpt>
      <trkpt lat="45.3758" lon="4.76264">
        <ele>141.80000305176</ele>
        <time>2024-05-21T08:06:08.000Z</time>
      </trkpt>
      <trkpt lat="45.37574" lon="4.76268">
        <ele>141.80000305176</ele>
        <time>2024-05-21T08:06:09.000Z</time>
      </trkpt>
      <trkpt lat="45.37568" lon="4.76272">
        <ele>142</ele>
        <time>2024-05-21T08:06:10.000Z</time>
      </trkpt>
      <trkpt lat="45.37563" lon="4.76275">
        <ele>142</ele>
        <time>2024-05-21T08:06:11.000Z</time>
      </trkpt>
      <trkpt lat="45.37558" lon="4.76279">
        <ele>142</ele>
        <time>2024-05-21T08:06:12.000Z</time>
      </trkpt>
      <trkpt lat="45.3755" lon="4.76284">
        <ele>142</ele>
        <time>2024-05-21T08:06:13.000Z</time>
      </trkpt>
      <trkpt lat="45.37545" lon="4.76287">
        <ele>142.19999694824</ele>
        <time>2024-05-21T08:06:14.000Z</time>
      </trkpt>
      <trkpt lat="45.37539" lon="4.76291">
        <ele>142.19999694824</ele>
        <time>2024-05-21T08:06:15.000Z</time>
      </trkpt>
      <trkpt lat="45.37533" lon="4.76295">
        <ele>142.19999694824</ele>
        <time>2024-05-21T08:06:16.000Z</time>
      </trkpt>
      <trkpt lat="45.37528" lon="4.76299">
        <ele>142.19999694824</ele>
        <time>2024-05-21T08:06:17.000Z</time>
      </trkpt>
      <trkpt lat="45.3752" lon="4.76304">
        <ele>142.19999694824</ele>
        <time>2024-05-21T08:06:18.000Z</time>
      </trkpt>
      <trkpt lat="45.37514" lon="4.76308">
        <ele>142.19999694824</ele>
        <time>2024-05-21T08:06:19.000Z</time>
      </trkpt>
      <trkpt lat="45.37508" lon="4.76311">
        <ele>142.19999694824</ele>
        <time>2024-05-21T08:06:20.000Z</time>
      </trkpt>
      <trkpt lat="45.37502" lon="4.76315">
        <ele>142.19999694824</ele>
        <time>2024-05-21T08:06:21.000Z</time>
      </trkpt>
      <trkpt lat="45.37496" lon="4.76319">
        <ele>142.19999694824</ele>
        <time>2024-05-21T08:06:22.000Z</time>
      </trkpt>
      <trkpt lat="45.3749" lon="4.76323">
        <ele>142.19999694824</ele>
        <time>2024-05-21T08:06:23.000Z</time>
      </trkpt>
      <trkpt lat="45.37484" lon="4.76327">
        <ele>142.19999694824</ele>
        <time>2024-05-21T08:06:24.000Z</time>
      </trkpt>
      <trkpt lat="45.37479" lon="4.76331">
        <ele>142.19999694824</ele>
        <time>2024-05-21T08:06:25.000Z</time>
      </trkpt>
      <trkpt lat="45.37473" lon="4.76336">
        <ele>142.19999694824</ele>
        <time>2024-05-21T08:06:26.000Z</time>
      </trkpt>
      <trkpt lat="45.37467" lon="4.7634">
        <ele>142.19999694824</ele>
        <time>2024-05-21T08:06:27.000Z</time>
      </trkpt>
      <trkpt lat="45.37461" lon="4.76343">
        <ele>142.19999694824</ele>
        <time>2024-05-21T08:06:28.000Z</time>
      </trkpt>
      <trkpt lat="45.37455" lon="4.76347">
        <ele>142.19999694824</ele>
        <time>2024-05-21T08:06:29.000Z</time>
      </trkpt>
      <trkpt lat="45.3745" lon="4.76352">
        <ele>142.19999694824</ele>
        <time>2024-05-21T08:06:30.000Z</time>
      </trkpt>
      <trkpt lat="45.37444" lon="4.76356">
        <ele>142.19999694824</ele>
        <time>2024-05-21T08:06:31.000Z</time>
      </trkpt>
      <trkpt lat="45.37438" lon="4.7636">
        <ele>142.19999694824</ele>
        <time>2024-05-21T08:06:32.000Z</time>
      </trkpt>
      <trkpt lat="45.37434" lon="4.76364">
        <ele>142.19999694824</ele>
        <time>2024-05-21T08:06:33.000Z</time>
      </trkpt>
      <trkpt lat="45.37428" lon="4.76368">
        <ele>142.39999389648</ele>
        <time>2024-05-21T08:06:34.000Z</time>
      </trkpt>
      <trkpt lat="45.37422" lon="4.76373">
        <ele>142.39999389648</ele>
        <time>2024-05-21T08:06:35.000Z</time>
      </trkpt>
      <trkpt lat="45.37416" lon="4.76378">
        <ele>142.39999389648</ele>
        <time>2024-05-21T08:06:36.000Z</time>
      </trkpt>
      <trkpt lat="45.3741" lon="4.76382">
        <ele>142.39999389648</ele>
        <time>2024-05-21T08:06:37.000Z</time>
      </trkpt>
      <trkpt lat="45.37405" lon="4.76387">
        <ele>142.39999389648</ele>
        <time>2024-05-21T08:06:38.000Z</time>
      </trkpt>
      <trkpt lat="45.37399" lon="4.76391">
        <ele>142.39999389648</ele>
        <time>2024-05-21T08:06:39.000Z</time>
      </trkpt>
      <trkpt lat="45.37393" lon="4.76395">
        <ele>142.39999389648</ele>
        <time>2024-05-21T08:06:40.000Z</time>
      </trkpt>
      <trkpt lat="45.37387" lon="4.764">
        <ele>142.39999389648</ele>
        <time>2024-05-21T08:06:41.000Z</time>
      </trkpt>
      <trkpt lat="45.37381" lon="4.76404">
        <ele>142.39999389648</ele>
        <time>2024-05-21T08:06:42.000Z</time>
      </trkpt>
      <trkpt lat="45.37375" lon="4.76408">
        <ele>142.19999694824</ele>
        <time>2024-05-21T08:06:43.000Z</time>
      </trkpt>
      <trkpt lat="45.3737" lon="4.76413">
        <ele>142.19999694824</ele>
        <time>2024-05-21T08:06:44.000Z</time>
      </trkpt>
      <trkpt lat="45.37364" lon="4.76418">
        <ele>142.19999694824</ele>
        <time>2024-05-21T08:06:45.000Z</time>
      </trkpt>
      <trkpt lat="45.37359" lon="4.76423">
        <ele>142.19999694824</ele>
        <time>2024-05-21T08:06:46.000Z</time>
      </trkpt>
      <trkpt lat="45.37353" lon="4.76427">
        <ele>142.19999694824</ele>
        <time>2024-05-21T08:06:47.000Z</time>
      </trkpt>
      <trkpt lat="45.37348" lon="4.76432">
        <ele>142.19999694824</ele>
        <time>2024-05-21T08:06:48.000Z</time>
      </trkpt>
      <trkpt lat="45.37342" lon="4.76437">
        <ele>142.19999694824</ele>
        <time>2024-05-21T08:06:49.000Z</time>
      </trkpt>
      <trkpt lat="45.37336" lon="4.76441">
        <ele>142.19999694824</ele>
        <time>2024-05-21T08:06:50.000Z</time>
      </trkpt>
      <trkpt lat="45.3733" lon="4.76446">
        <ele>142.19999694824</ele>
        <time>2024-05-21T08:06:51.000Z</time>
      </trkpt>
      <trkpt lat="45.37324" lon="4.7645">
        <ele>142.19999694824</ele>
        <time>2024-05-21T08:06:52.000Z</time>
      </trkpt>
      <trkpt lat="45.37319" lon="4.76454">
        <ele>142.19999694824</ele>
        <time>2024-05-21T08:06:53.000Z</time>
      </trkpt>
      <trkpt lat="45.37313" lon="4.76459">
        <ele>142.19999694824</ele>
        <time>2024-05-21T08:06:54.000Z</time>
      </trkpt>
      <trkpt lat="45.37307" lon="4.76463">
        <ele>142.19999694824</ele>
        <time>2024-05-21T08:06:55.000Z</time>
      </trkpt>
      <trkpt lat="45.37302" lon="4.76468">
        <ele>142.19999694824</ele>
        <time>2024-05-21T08:06:56.000Z</time>
      </trkpt>
      <trkpt lat="45.37296" lon="4.76473">
        <ele>142.39999389648</ele>
        <time>2024-05-21T08:06:57.000Z</time>
      </trkpt>
      <trkpt lat="45.37291" lon="4.76477">
        <ele>142.39999389648</ele>
        <time>2024-05-21T08:06:58.000Z</time>
      </trkpt>
      <trkpt lat="45.37285" lon="4.76481">
        <ele>142.39999389648</ele>
        <time>2024-05-21T08:06:59.000Z</time>
      </trkpt>
      <trkpt lat="45.3728" lon="4.76486">
        <ele>142.60000610352</ele>
        <time>2024-05-21T08:07:00.000Z</time>
      </trkpt>
      <trkpt lat="45.37274" lon="4.76491">
        <ele>142.60000610352</ele>
        <time>2024-05-21T08:07:01.000Z</time>
      </trkpt>
      <trkpt lat="45.37268" lon="4.76495">
        <ele>142.60000610352</ele>
        <time>2024-05-21T08:07:02.000Z</time>
      </trkpt>
      <trkpt lat="45.37263" lon="4.765">
        <ele>142.60000610352</ele>
        <time>2024-05-21T08:07:03.000Z</time>
      </trkpt>
      <trkpt lat="45.37257" lon="4.76505">
        <ele>142.60000610352</ele>
        <time>2024-05-21T08:07:04.000Z</time>
      </trkpt>
      <trkpt lat="45.37252" lon="4.7651">
        <ele>142.60000610352</ele>
        <time>2024-05-21T08:07:05.000Z</time>
      </trkpt>
      <trkpt lat="45.37246" lon="4.76514">
        <ele>142.60000610352</ele>
        <time>2024-05-21T08:07:06.000Z</time>
      </trkpt>
      <trkpt lat="45.37241" lon="4.76519">
        <ele>142.60000610352</ele>
        <time>2024-05-21T08:07:07.000Z</time>
      </trkpt>
      <trkpt lat="45.37235" lon="4.76524">
        <ele>142.60000610352</ele>
        <time>2024-05-21T08:07:08.000Z</time>
      </trkpt>
      <trkpt lat="45.3723" lon="4.76529">
        <ele>142.60000610352</ele>
        <time>2024-05-21T08:07:09.000Z</time>
      </trkpt>
      <trkpt lat="45.37224" lon="4.76534">
        <ele>142.60000610352</ele>
        <time>2024-05-21T08:07:10.000Z</time>
      </trkpt>
      <trkpt lat="45.37218" lon="4.76539">
        <ele>142.60000610352</ele>
        <time>2024-05-21T08:07:11.000Z</time>
      </trkpt>
      <trkpt lat="45.37212" lon="4.76544">
        <ele>142.60000610352</ele>
        <time>2024-05-21T08:07:12.000Z</time>
      </trkpt>
      <trkpt lat="45.37206" lon="4.76549">
        <ele>142.60000610352</ele>
        <time>2024-05-21T08:07:13.000Z</time>
      </trkpt>
      <trkpt lat="45.37201" lon="4.76554">
        <ele>142.60000610352</ele>
        <time>2024-05-21T08:07:14.000Z</time>
      </trkpt>
      <trkpt lat="45.37195" lon="4.76559">
        <ele>142.60000610352</ele>
        <time>2024-05-21T08:07:15.000Z</time>
      </trkpt>
      <trkpt lat="45.3719" lon="4.76563">
        <ele>142.39999389648</ele>
        <time>2024-05-21T08:07:16.000Z</time>
      </trkpt>
      <trkpt lat="45.37185" lon="4.76568">
        <ele>142.19999694824</ele>
        <time>2024-05-21T08:07:17.000Z</time>
      </trkpt>
      <trkpt lat="45.37178" lon="4.76574">
        <ele>142.19999694824</ele>
        <time>2024-05-21T08:07:18.000Z</time>
      </trkpt>
      <trkpt lat="45.37172" lon="4.76579">
        <ele>142.19999694824</ele>
        <time>2024-05-21T08:07:19.000Z</time>
      </trkpt>
      <trkpt lat="45.37167" lon="4.76584">
        <ele>142.19999694824</ele>
        <time>2024-05-21T08:07:20.000Z</time>
      </trkpt>
      <trkpt lat="45.37162" lon="4.76589">
        <ele>142.39999389648</ele>
        <time>2024-05-21T08:07:21.000Z</time>
      </trkpt>
      <trkpt lat="45.37156" lon="4.76594">
        <ele>142.39999389648</ele>
        <time>2024-05-21T08:07:22.000Z</time>
      </trkpt>
      <trkpt lat="45.3715" lon="4.76599">
        <ele>142.39999389648</ele>
        <time>2024-05-21T08:07:23.000Z</time>
      </trkpt>
      <trkpt lat="45.37145" lon="4.76604">
        <ele>142.39999389648</ele>
        <time>2024-05-21T08:07:24.000Z</time>
      </trkpt>
      <trkpt lat="45.37139" lon="4.76609">
        <ele>142.39999389648</ele>
        <time>2024-05-21T08:07:25.000Z</time>
      </trkpt>
      <trkpt lat="45.37133" lon="4.76614">
        <ele>142.39999389648</ele>
        <time>2024-05-21T08:07:26.000Z</time>
      </trkpt>
      <trkpt lat="45.37128" lon="4.76619">
        <ele>142.39999389648</ele>
        <time>2024-05-21T08:07:27.000Z</time>
      </trkpt>
      <trkpt lat="45.37122" lon="4.76624">
        <ele>142.39999389648</ele>
        <time>2024-05-21T08:07:28.000Z</time>
      </trkpt>
      <trkpt lat="45.37116" lon="4.76629">
        <ele>142.39999389648</ele>
        <time>2024-05-21T08:07:29.000Z</time>
      </trkpt>
      <trkpt lat="45.37111" lon="4.76634">
        <ele>142.39999389648</ele>
        <time>2024-05-21T08:07:30.000Z</time>
      </trkpt>
      <trkpt lat="45.37105" lon="4.76639">
        <ele>142.39999389648</ele>
        <time>2024-05-21T08:07:31.000Z</time>
      </trkpt>
      <trkpt lat="45.37099" lon="4.76644">
        <ele>142.39999389648</ele>
        <time>2024-05-21T08:07:32.000Z</time>
      </trkpt>
      <trkpt lat="45.37094" lon="4.76649">
        <ele>142.39999389648</ele>
        <time>2024-05-21T08:07:33.000Z</time>
      </trkpt>
      <trkpt lat="45.37088" lon="4.76654">
        <ele>142.39999389648</ele>
        <time>2024-05-21T08:07:34.000Z</time>
      </trkpt>
      <trkpt lat="45.37083" lon="4.76659">
        <ele>142.39999389648</ele>
        <time>2024-05-21T08:07:35.000Z</time>
      </trkpt>
      <trkpt lat="45.37077" lon="4.76664">
        <ele>142.39999389648</ele>
        <time>2024-05-21T08:07:36.000Z</time>
      </trkpt>
      <trkpt lat="45.37071" lon="4.76669">
        <ele>142.39999389648</ele>
        <time>2024-05-21T08:07:37.000Z</time>
      </trkpt>
      <trkpt lat="45.37065" lon="4.76674">
        <ele>142.39999389648</ele>
        <time>2024-05-21T08:07:38.000Z</time>
      </trkpt>
      <trkpt lat="45.3706" lon="4.76679">
        <ele>142.39999389648</ele>
        <time>2024-05-21T08:07:39.000Z</time>
      </trkpt>
      <trkpt lat="45.37055" lon="4.76684">
        <ele>142.39999389648</ele>
        <time>2024-05-21T08:07:40.000Z</time>
      </trkpt>
      <trkpt lat="45.37049" lon="4.7669">
        <ele>142.39999389648</ele>
        <time>2024-05-21T08:07:41.000Z</time>
      </trkpt>
      <trkpt lat="45.37044" lon="4.76695">
        <ele>142.39999389648</ele>
        <time>2024-05-21T08:07:42.000Z</time>
      </trkpt>
      <trkpt lat="45.37038" lon="4.767">
        <ele>142.39999389648</ele>
        <time>2024-05-21T08:07:43.000Z</time>
      </trkpt>
      <trkpt lat="45.37033" lon="4.76705">
        <ele>142.39999389648</ele>
        <time>2024-05-21T08:07:44.000Z</time>
      </trkpt>
      <trkpt lat="45.37027" lon="4.7671">
        <ele>142.39999389648</ele>
        <time>2024-05-21T08:07:45.000Z</time>
      </trkpt>
      <trkpt lat="45.37022" lon="4.76715">
        <ele>142.39999389648</ele>
        <time>2024-05-21T08:07:46.000Z</time>
      </trkpt>
      <trkpt lat="45.37016" lon="4.7672">
        <ele>142.39999389648</ele>
        <time>2024-05-21T08:07:47.000Z</time>
      </trkpt>
      <trkpt lat="45.37011" lon="4.76726">
        <ele>142.39999389648</ele>
        <time>2024-05-21T08:07:48.000Z</time>
      </trkpt>
      <trkpt lat="45.37006" lon="4.76731">
        <ele>142.39999389648</ele>
        <time>2024-05-21T08:07:49.000Z</time>
      </trkpt>
      <trkpt lat="45.37001" lon="4.76736">
        <ele>142.39999389648</ele>
        <time>2024-05-21T08:07:50.000Z</time>
      </trkpt>
      <trkpt lat="45.36995" lon="4.76741">
        <ele>142.39999389648</ele>
        <time>2024-05-21T08:07:51.000Z</time>
      </trkpt>
      <trkpt lat="45.3699" lon="4.76746">
        <ele>142.39999389648</ele>
        <time>2024-05-21T08:07:52.000Z</time>
      </trkpt>
      <trkpt lat="45.36985" lon="4.76751">
        <ele>142.39999389648</ele>
        <time>2024-05-21T08:07:53.000Z</time>
      </trkpt>
      <trkpt lat="45.36979" lon="4.76756">
        <ele>142.39999389648</ele>
        <time>2024-05-21T08:07:54.000Z</time>
      </trkpt>
      <trkpt lat="45.36974" lon="4.76761">
        <ele>142.39999389648</ele>
        <time>2024-05-21T08:07:55.000Z</time>
      </trkpt>
      <trkpt lat="45.36969" lon="4.76767">
        <ele>142.39999389648</ele>
        <time>2024-05-21T08:07:56.000Z</time>
      </trkpt>
      <trkpt lat="45.36964" lon="4.76772">
        <ele>142.39999389648</ele>
        <time>2024-05-21T08:07:57.000Z</time>
      </trkpt>
      <trkpt lat="45.36958" lon="4.76777">
        <ele>142.39999389648</ele>
        <time>2024-05-21T08:07:58.000Z</time>
      </trkpt>
      <trkpt lat="45.36954" lon="4.76781">
        <ele>142.39999389648</ele>
        <time>2024-05-21T08:07:59.000Z</time>
      </trkpt>
      <trkpt lat="45.36948" lon="4.76786">
        <ele>142.39999389648</ele>
        <time>2024-05-21T08:08:00.000Z</time>
      </trkpt>
      <trkpt lat="45.36942" lon="4.76792">
        <ele>142.39999389648</ele>
        <time>2024-05-21T08:08:01.000Z</time>
      </trkpt>
      <trkpt lat="45.36936" lon="4.76797">
        <ele>142.39999389648</ele>
        <time>2024-05-21T08:08:02.000Z</time>
      </trkpt>
      <trkpt lat="45.36931" lon="4.76802">
        <ele>142.39999389648</ele>
        <time>2024-05-21T08:08:03.000Z</time>
      </trkpt>
      <trkpt lat="45.36925" lon="4.76807">
        <ele>142.39999389648</ele>
        <time>2024-05-21T08:08:04.000Z</time>
      </trkpt>
      <trkpt lat="45.36919" lon="4.76813">
        <ele>142.39999389648</ele>
        <time>2024-05-21T08:08:05.000Z</time>
      </trkpt>
      <trkpt lat="45.36914" lon="4.76818">
        <ele>142.39999389648</ele>
        <time>2024-05-21T08:08:06.000Z</time>
      </trkpt>
      <trkpt lat="45.36908" lon="4.76823">
        <ele>142.39999389648</ele>
        <time>2024-05-21T08:08:07.000Z</time>
      </trkpt>
      <trkpt lat="45.36902" lon="4.76828">
        <ele>142.39999389648</ele>
        <time>2024-05-21T08:08:08.000Z</time>
      </trkpt>
      <trkpt lat="45.36897" lon="4.76834">
        <ele>142.60000610352</ele>
        <time>2024-05-21T08:08:09.000Z</time>
      </trkpt>
      <trkpt lat="45.36891" lon="4.76839">
        <ele>142.60000610352</ele>
        <time>2024-05-21T08:08:10.000Z</time>
      </trkpt>
      <trkpt lat="45.36885" lon="4.76844">
        <ele>142.60000610352</ele>
        <time>2024-05-21T08:08:11.000Z</time>
      </trkpt>
      <trkpt lat="45.3688" lon="4.76849">
        <ele>142.60000610352</ele>
        <time>2024-05-21T08:08:12.000Z</time>
      </trkpt>
      <trkpt lat="45.36874" lon="4.76854">
        <ele>142.60000610352</ele>
        <time>2024-05-21T08:08:13.000Z</time>
      </trkpt>
      <trkpt lat="45.36868" lon="4.76859">
        <ele>142.39999389648</ele>
        <time>2024-05-21T08:08:14.000Z</time>
      </trkpt>
      <trkpt lat="45.36863" lon="4.76864">
        <ele>142.39999389648</ele>
        <time>2024-05-21T08:08:15.000Z</time>
      </trkpt>
      <trkpt lat="45.36857" lon="4.76869">
        <ele>142.39999389648</ele>
        <time>2024-05-21T08:08:16.000Z</time>
      </trkpt>
      <trkpt lat="45.36851" lon="4.76874">
        <ele>142.39999389648</ele>
        <time>2024-05-21T08:08:17.000Z</time>
      </trkpt>
      <trkpt lat="45.36846" lon="4.76879">
        <ele>142.39999389648</ele>
        <time>2024-05-21T08:08:18.000Z</time>
      </trkpt>
      <trkpt lat="45.3684" lon="4.76884">
        <ele>142.39999389648</ele>
        <time>2024-05-21T08:08:19.000Z</time>
      </trkpt>
      <trkpt lat="45.36834" lon="4.76889">
        <ele>142.39999389648</ele>
        <time>2024-05-21T08:08:20.000Z</time>
      </trkpt>
      <trkpt lat="45.3683" lon="4.76893">
        <ele>142.39999389648</ele>
        <time>2024-05-21T08:08:21.000Z</time>
      </trkpt>
      <trkpt lat="45.36824" lon="4.76899">
        <ele>142.19999694824</ele>
        <time>2024-05-21T08:08:22.000Z</time>
      </trkpt>
      <trkpt lat="45.36819" lon="4.76904">
        <ele>142.19999694824</ele>
        <time>2024-05-21T08:08:23.000Z</time>
      </trkpt>
      <trkpt lat="45.36813" lon="4.76909">
        <ele>142.19999694824</ele>
        <time>2024-05-21T08:08:24.000Z</time>
      </trkpt>
      <trkpt lat="45.36807" lon="4.76914">
        <ele>142.19999694824</ele>
        <time>2024-05-21T08:08:25.000Z</time>
      </trkpt>
      <trkpt lat="45.36802" lon="4.76918">
        <ele>142.19999694824</ele>
        <time>2024-05-21T08:08:26.000Z</time>
      </trkpt>
      <trkpt lat="45.36796" lon="4.76923">
        <ele>142.19999694824</ele>
        <time>2024-05-21T08:08:27.000Z</time>
      </trkpt>
      <trkpt lat="45.3679" lon="4.76928">
        <ele>142.19999694824</ele>
        <time>2024-05-21T08:08:28.000Z</time>
      </trkpt>
      <trkpt lat="45.36785" lon="4.76933">
        <ele>142.19999694824</ele>
        <time>2024-05-21T08:08:29.000Z</time>
      </trkpt>
      <trkpt lat="45.36779" lon="4.76938">
        <ele>142.19999694824</ele>
        <time>2024-05-21T08:08:30.000Z</time>
      </trkpt>
      <trkpt lat="45.36774" lon="4.76943">
        <ele>142.19999694824</ele>
        <time>2024-05-21T08:08:31.000Z</time>
      </trkpt>
      <trkpt lat="45.36768" lon="4.76948">
        <ele>142.19999694824</ele>
        <time>2024-05-21T08:08:32.000Z</time>
      </trkpt>
      <trkpt lat="45.36762" lon="4.76953">
        <ele>142.19999694824</ele>
        <time>2024-05-21T08:08:33.000Z</time>
      </trkpt>
      <trkpt lat="45.36757" lon="4.76957">
        <ele>142.19999694824</ele>
        <time>2024-05-21T08:08:34.000Z</time>
      </trkpt>
      <trkpt lat="45.36752" lon="4.76963">
        <ele>142.19999694824</ele>
        <time>2024-05-21T08:08:35.000Z</time>
      </trkpt>
      <trkpt lat="45.36746" lon="4.76968">
        <ele>142.19999694824</ele>
        <time>2024-05-21T08:08:36.000Z</time>
      </trkpt>
      <trkpt lat="45.36741" lon="4.76973">
        <ele>142.19999694824</ele>
        <time>2024-05-21T08:08:37.000Z</time>
      </trkpt>
      <trkpt lat="45.36735" lon="4.76978">
        <ele>142.19999694824</ele>
        <time>2024-05-21T08:08:38.000Z</time>
      </trkpt>
      <trkpt lat="45.3673" lon="4.76983">
        <ele>142.39999389648</ele>
        <time>2024-05-21T08:08:39.000Z</time>
      </trkpt>
      <trkpt lat="45.36725" lon="4.76989">
        <ele>142.39999389648</ele>
        <time>2024-05-21T08:08:40.000Z</time>
      </trkpt>
      <trkpt lat="45.36719" lon="4.76994">
        <ele>142.39999389648</ele>
        <time>2024-05-21T08:08:41.000Z</time>
      </trkpt>
      <trkpt lat="45.36715" lon="4.76998">
        <ele>142.39999389648</ele>
        <time>2024-05-21T08:08:42.000Z</time>
      </trkpt>
      <trkpt lat="45.36709" lon="4.77004">
        <ele>142.39999389648</ele>
        <time>2024-05-21T08:08:43.000Z</time>
      </trkpt>
      <trkpt lat="45.36703" lon="4.77009">
        <ele>142.19999694824</ele>
        <time>2024-05-21T08:08:44.000Z</time>
      </trkpt>
      <trkpt lat="45.36698" lon="4.77014">
        <ele>142.19999694824</ele>
        <time>2024-05-21T08:08:45.000Z</time>
      </trkpt>
      <trkpt lat="45.36692" lon="4.77019">
        <ele>142.19999694824</ele>
        <time>2024-05-21T08:08:46.000Z</time>
      </trkpt>
      <trkpt lat="45.36687" lon="4.77024">
        <ele>142.19999694824</ele>
        <time>2024-05-21T08:08:47.000Z</time>
      </trkpt>
      <trkpt lat="45.36682" lon="4.77028">
        <ele>142.19999694824</ele>
        <time>2024-05-21T08:08:48.000Z</time>
      </trkpt>
      <trkpt lat="45.36676" lon="4.77033">
        <ele>142.19999694824</ele>
        <time>2024-05-21T08:08:49.000Z</time>
      </trkpt>
      <trkpt lat="45.36671" lon="4.77038">
        <ele>142</ele>
        <time>2024-05-21T08:08:50.000Z</time>
      </trkpt>
      <trkpt lat="45.36665" lon="4.77043">
        <ele>142</ele>
        <time>2024-05-21T08:08:51.000Z</time>
      </trkpt>
      <trkpt lat="45.36659" lon="4.77048">
        <ele>142</ele>
        <time>2024-05-21T08:08:52.000Z</time>
      </trkpt>
      <trkpt lat="45.36654" lon="4.77053">
        <ele>142</ele>
        <time>2024-05-21T08:08:53.000Z</time>
      </trkpt>
      <trkpt lat="45.36649" lon="4.77058">
        <ele>142.19999694824</ele>
        <time>2024-05-21T08:08:54.000Z</time>
      </trkpt>
      <trkpt lat="45.36644" lon="4.77063">
        <ele>142.19999694824</ele>
        <time>2024-05-21T08:08:55.000Z</time>
      </trkpt>
      <trkpt lat="45.36638" lon="4.77068">
        <ele>142.19999694824</ele>
        <time>2024-05-21T08:08:56.000Z</time>
      </trkpt>
      <trkpt lat="45.36633" lon="4.77072">
        <ele>142.19999694824</ele>
        <time>2024-05-21T08:08:57.000Z</time>
      </trkpt>
      <trkpt lat="45.36627" lon="4.77077">
        <ele>142.19999694824</ele>
        <time>2024-05-21T08:08:58.000Z</time>
      </trkpt>
      <trkpt lat="45.36622" lon="4.77081">
        <ele>142.19999694824</ele>
        <time>2024-05-21T08:08:59.000Z</time>
      </trkpt>
      <trkpt lat="45.36616" lon="4.77087">
        <ele>142.19999694824</ele>
        <time>2024-05-21T08:09:00.000Z</time>
      </trkpt>
      <trkpt lat="45.3661" lon="4.77093">
        <ele>142.19999694824</ele>
        <time>2024-05-21T08:09:01.000Z</time>
      </trkpt>
      <trkpt lat="45.36605" lon="4.77097">
        <ele>142.19999694824</ele>
        <time>2024-05-21T08:09:02.000Z</time>
      </trkpt>
      <trkpt lat="45.366" lon="4.77103">
        <ele>142.19999694824</ele>
        <time>2024-05-21T08:09:03.000Z</time>
      </trkpt>
      <trkpt lat="45.36594" lon="4.77107">
        <ele>142.19999694824</ele>
        <time>2024-05-21T08:09:04.000Z</time>
      </trkpt>
      <trkpt lat="45.36588" lon="4.77112">
        <ele>142.19999694824</ele>
        <time>2024-05-21T08:09:05.000Z</time>
      </trkpt>
      <trkpt lat="45.36583" lon="4.77117">
        <ele>142.19999694824</ele>
        <time>2024-05-21T08:09:06.000Z</time>
      </trkpt>
      <trkpt lat="45.36577" lon="4.77122">
        <ele>142</ele>
        <time>2024-05-21T08:09:07.000Z</time>
      </trkpt>
      <trkpt lat="45.36572" lon="4.77127">
        <ele>142</ele>
        <time>2024-05-21T08:09:08.000Z</time>
      </trkpt>
      <trkpt lat="45.36567" lon="4.77132">
        <ele>142</ele>
        <time>2024-05-21T08:09:09.000Z</time>
      </trkpt>
      <trkpt lat="45.36561" lon="4.77137">
        <ele>142</ele>
        <time>2024-05-21T08:09:10.000Z</time>
      </trkpt>
      <trkpt lat="45.36556" lon="4.77142">
        <ele>142</ele>
        <time>2024-05-21T08:09:11.000Z</time>
      </trkpt>
      <trkpt lat="45.3655" lon="4.77147">
        <ele>142</ele>
        <time>2024-05-21T08:09:12.000Z</time>
      </trkpt>
      <trkpt lat="45.36545" lon="4.77153">
        <ele>142</ele>
        <time>2024-05-21T08:09:13.000Z</time>
      </trkpt>
      <trkpt lat="45.3654" lon="4.77158">
        <ele>142</ele>
        <time>2024-05-21T08:09:14.000Z</time>
      </trkpt>
      <trkpt lat="45.36536" lon="4.77162">
        <ele>142</ele>
        <time>2024-05-21T08:09:15.000Z</time>
      </trkpt>
      <trkpt lat="45.36529" lon="4.77168">
        <ele>142</ele>
        <time>2024-05-21T08:09:16.000Z</time>
      </trkpt>
      <trkpt lat="45.36524" lon="4.77173">
        <ele>142</ele>
        <time>2024-05-21T08:09:17.000Z</time>
      </trkpt>
      <trkpt lat="45.36518" lon="4.77178">
        <ele>142</ele>
        <time>2024-05-21T08:09:18.000Z</time>
      </trkpt>
      <trkpt lat="45.36513" lon="4.77183">
        <ele>142</ele>
        <time>2024-05-21T08:09:19.000Z</time>
      </trkpt>
      <trkpt lat="45.36508" lon="4.77187">
        <ele>142</ele>
        <time>2024-05-21T08:09:20.000Z</time>
      </trkpt>
      <trkpt lat="45.36502" lon="4.77193">
        <ele>142</ele>
        <time>2024-05-21T08:09:21.000Z</time>
      </trkpt>
      <trkpt lat="45.36497" lon="4.77198">
        <ele>142.19999694824</ele>
        <time>2024-05-21T08:09:22.000Z</time>
      </trkpt>
      <trkpt lat="45.36491" lon="4.77203">
        <ele>142.19999694824</ele>
        <time>2024-05-21T08:09:23.000Z</time>
      </trkpt>
      <trkpt lat="45.36485" lon="4.77208">
        <ele>142.19999694824</ele>
        <time>2024-05-21T08:09:24.000Z</time>
      </trkpt>
      <trkpt lat="45.36481" lon="4.77212">
        <ele>142.19999694824</ele>
        <time>2024-05-21T08:09:25.000Z</time>
      </trkpt>
      <trkpt lat="45.36475" lon="4.77217">
        <ele>142.19999694824</ele>
        <time>2024-05-21T08:09:26.000Z</time>
      </trkpt>
      <trkpt lat="45.36468" lon="4.77223">
        <ele>142.19999694824</ele>
        <time>2024-05-21T08:09:27.000Z</time>
      </trkpt>
      <trkpt lat="45.36463" lon="4.77228">
        <ele>142.19999694824</ele>
        <time>2024-05-21T08:09:28.000Z</time>
      </trkpt>
      <trkpt lat="45.36457" lon="4.77233">
        <ele>142.19999694824</ele>
        <time>2024-05-21T08:09:29.000Z</time>
      </trkpt>
      <trkpt lat="45.36452" lon="4.77238">
        <ele>142.39999389648</ele>
        <time>2024-05-21T08:09:30.000Z</time>
      </trkpt>
      <trkpt lat="45.36446" lon="4.77243">
        <ele>142.39999389648</ele>
        <time>2024-05-21T08:09:31.000Z</time>
      </trkpt>
      <trkpt lat="45.3644" lon="4.77248">
        <ele>142.39999389648</ele>
        <time>2024-05-21T08:09:32.000Z</time>
      </trkpt>
      <trkpt lat="45.36435" lon="4.77253">
        <ele>142.39999389648</ele>
        <time>2024-05-21T08:09:33.000Z</time>
      </trkpt>
      <trkpt lat="45.3643" lon="4.77258">
        <ele>142.39999389648</ele>
        <time>2024-05-21T08:09:34.000Z</time>
      </trkpt>
      <trkpt lat="45.36426" lon="4.77262">
        <ele>142.39999389648</ele>
        <time>2024-05-21T08:09:35.000Z</time>
      </trkpt>
      <trkpt lat="45.3642" lon="4.77269">
        <ele>142.39999389648</ele>
        <time>2024-05-21T08:09:36.000Z</time>
      </trkpt>
      <trkpt lat="45.36414" lon="4.77274">
        <ele>142.39999389648</ele>
        <time>2024-05-21T08:09:37.000Z</time>
      </trkpt>
      <trkpt lat="45.3641" lon="4.77278">
        <ele>142.39999389648</ele>
        <time>2024-05-21T08:09:38.000Z</time>
      </trkpt>
      <trkpt lat="45.36405" lon="4.77284">
        <ele>142.39999389648</ele>
        <time>2024-05-21T08:09:39.000Z</time>
      </trkpt>
      <trkpt lat="45.36398" lon="4.7729">
        <ele>142.39999389648</ele>
        <time>2024-05-21T08:09:40.000Z</time>
      </trkpt>
      <trkpt lat="45.36394" lon="4.77294">
        <ele>142.39999389648</ele>
        <time>2024-05-21T08:09:41.000Z</time>
      </trkpt>
      <trkpt lat="45.36388" lon="4.773">
        <ele>142.39999389648</ele>
        <time>2024-05-21T08:09:42.000Z</time>
      </trkpt>
      <trkpt lat="45.36382" lon="4.77304">
        <ele>142.39999389648</ele>
        <time>2024-05-21T08:09:43.000Z</time>
      </trkpt>
      <trkpt lat="45.36378" lon="4.77308">
        <ele>142.39999389648</ele>
        <time>2024-05-21T08:09:44.000Z</time>
      </trkpt>
      <trkpt lat="45.36372" lon="4.77314">
        <ele>142.39999389648</ele>
        <time>2024-05-21T08:09:45.000Z</time>
      </trkpt>
      <trkpt lat="45.36367" lon="4.77318">
        <ele>142.19999694824</ele>
        <time>2024-05-21T08:09:46.000Z</time>
      </trkpt>
      <trkpt lat="45.36362" lon="4.77323">
        <ele>142.19999694824</ele>
        <time>2024-05-21T08:09:47.000Z</time>
      </trkpt>
      <trkpt lat="45.36355" lon="4.77329">
        <ele>142.19999694824</ele>
        <time>2024-05-21T08:09:48.000Z</time>
      </trkpt>
      <trkpt lat="45.3635" lon="4.77334">
        <ele>142.19999694824</ele>
        <time>2024-05-21T08:09:49.000Z</time>
      </trkpt>
      <trkpt lat="45.36345" lon="4.77338">
        <ele>142.19999694824</ele>
        <time>2024-05-21T08:09:50.000Z</time>
      </trkpt>
      <trkpt lat="45.36339" lon="4.77344">
        <ele>142.19999694824</ele>
        <time>2024-05-21T08:09:51.000Z</time>
      </trkpt>
      <trkpt lat="45.36333" lon="4.7735">
        <ele>142.19999694824</ele>
        <time>2024-05-21T08:09:52.000Z</time>
      </trkpt>
      <trkpt lat="45.36329" lon="4.77354">
        <ele>142.19999694824</ele>
        <time>2024-05-21T08:09:53.000Z</time>
      </trkpt>
      <trkpt lat="45.36323" lon="4.77358">
        <ele>142.19999694824</ele>
        <time>2024-05-21T08:09:54.000Z</time>
      </trkpt>
      <trkpt lat="45.36318" lon="4.77363">
        <ele>142.19999694824</ele>
        <time>2024-05-21T08:09:55.000Z</time>
      </trkpt>
      <trkpt lat="45.36312" lon="4.77368">
        <ele>142.19999694824</ele>
        <time>2024-05-21T08:09:56.000Z</time>
      </trkpt>
      <trkpt lat="45.36306" lon="4.77374">
        <ele>142.19999694824</ele>
        <time>2024-05-21T08:09:57.000Z</time>
      </trkpt>
      <trkpt lat="45.36301" lon="4.77379">
        <ele>142.19999694824</ele>
        <time>2024-05-21T08:09:58.000Z</time>
      </trkpt>
      <trkpt lat="45.36296" lon="4.77384">
        <ele>142.19999694824</ele>
        <time>2024-05-21T08:09:59.000Z</time>
      </trkpt>
      <trkpt lat="45.36289" lon="4.7739">
        <ele>142.19999694824</ele>
        <time>2024-05-21T08:10:00.000Z</time>
      </trkpt>
      <trkpt lat="45.36284" lon="4.77395">
        <ele>142.19999694824</ele>
        <time>2024-05-21T08:10:01.000Z</time>
      </trkpt>
      <trkpt lat="45.3628" lon="4.77399">
        <ele>142</ele>
        <time>2024-05-21T08:10:02.000Z</time>
      </trkpt>
      <trkpt lat="45.36274" lon="4.77405">
        <ele>142</ele>
        <time>2024-05-21T08:10:03.000Z</time>
      </trkpt>
      <trkpt lat="45.36268" lon="4.77411">
        <ele>142</ele>
        <time>2024-05-21T08:10:04.000Z</time>
      </trkpt>
      <trkpt lat="45.36264" lon="4.77415">
        <ele>142</ele>
        <time>2024-05-21T08:10:05.000Z</time>
      </trkpt>
      <trkpt lat="45.36257" lon="4.7742">
        <ele>142</ele>
        <time>2024-05-21T08:10:06.000Z</time>
      </trkpt>
      <trkpt lat="45.36253" lon="4.77425">
        <ele>142</ele>
        <time>2024-05-21T08:10:07.000Z</time>
      </trkpt>
      <trkpt lat="45.36247" lon="4.77429">
        <ele>142</ele>
        <time>2024-05-21T08:10:08.000Z</time>
      </trkpt>
      <trkpt lat="45.36242" lon="4.77434">
        <ele>141.80000305176</ele>
        <time>2024-05-21T08:10:09.000Z</time>
      </trkpt>
      <trkpt lat="45.36235" lon="4.7744">
        <ele>141.80000305176</ele>
        <time>2024-05-21T08:10:10.000Z</time>
      </trkpt>
      <trkpt lat="45.36231" lon="4.77444">
        <ele>141.80000305176</ele>
        <time>2024-05-21T08:10:11.000Z</time>
      </trkpt>
      <trkpt lat="45.36224" lon="4.7745">
        <ele>141.80000305176</ele>
        <time>2024-05-21T08:10:12.000Z</time>
      </trkpt>
      <trkpt lat="45.3622" lon="4.77454">
        <ele>141.80000305176</ele>
        <time>2024-05-21T08:10:13.000Z</time>
      </trkpt>
      <trkpt lat="45.36215" lon="4.77459">
        <ele>141.80000305176</ele>
        <time>2024-05-21T08:10:14.000Z</time>
      </trkpt>
      <trkpt lat="45.36209" lon="4.77463">
        <ele>142</ele>
        <time>2024-05-21T08:10:15.000Z</time>
      </trkpt>
      <trkpt lat="45.36204" lon="4.77468">
        <ele>142</ele>
        <time>2024-05-21T08:10:16.000Z</time>
      </trkpt>
      <trkpt lat="45.36199" lon="4.77474">
        <ele>142</ele>
        <time>2024-05-21T08:10:17.000Z</time>
      </trkpt>
      <trkpt lat="45.36193" lon="4.77479">
        <ele>142</ele>
        <time>2024-05-21T08:10:18.000Z</time>
      </trkpt>
      <trkpt lat="45.36187" lon="4.77484">
        <ele>141.80000305176</ele>
        <time>2024-05-21T08:10:19.000Z</time>
      </trkpt>
      <trkpt lat="45.36182" lon="4.77488">
        <ele>141.80000305176</ele>
        <time>2024-05-21T08:10:20.000Z</time>
      </trkpt>
      <trkpt lat="45.36175" lon="4.77493">
        <ele>141.80000305176</ele>
        <time>2024-05-21T08:10:21.000Z</time>
      </trkpt>
      <trkpt lat="45.36171" lon="4.77497">
        <ele>141.80000305176</ele>
        <time>2024-05-21T08:10:22.000Z</time>
      </trkpt>
      <trkpt lat="45.36165" lon="4.77501">
        <ele>141.80000305176</ele>
        <time>2024-05-21T08:10:23.000Z</time>
      </trkpt>
      <trkpt lat="45.36159" lon="4.77506">
        <ele>141.80000305176</ele>
        <time>2024-05-21T08:10:24.000Z</time>
      </trkpt>
      <trkpt lat="45.36152" lon="4.7751">
        <ele>142</ele>
        <time>2024-05-21T08:10:25.000Z</time>
      </trkpt>
      <trkpt lat="45.36148" lon="4.77514">
        <ele>142</ele>
        <time>2024-05-21T08:10:26.000Z</time>
      </trkpt>
      <trkpt lat="45.36141" lon="4.77519">
        <ele>142</ele>
        <time>2024-05-21T08:10:27.000Z</time>
      </trkpt>
      <trkpt lat="45.36135" lon="4.77523">
        <ele>142</ele>
        <time>2024-05-21T08:10:28.000Z</time>
      </trkpt>
      <trkpt lat="45.36131" lon="4.77527">
        <ele>142</ele>
        <time>2024-05-21T08:10:29.000Z</time>
      </trkpt>
      <trkpt lat="45.36125" lon="4.77531">
        <ele>142</ele>
        <time>2024-05-21T08:10:30.000Z</time>
      </trkpt>
      <trkpt lat="45.36118" lon="4.77537">
        <ele>142</ele>
        <time>2024-05-21T08:10:31.000Z</time>
      </trkpt>
      <trkpt lat="45.36114" lon="4.77541">
        <ele>142</ele>
        <time>2024-05-21T08:10:32.000Z</time>
      </trkpt>
      <trkpt lat="45.36108" lon="4.77546">
        <ele>142</ele>
        <time>2024-05-21T08:10:33.000Z</time>
      </trkpt>
      <trkpt lat="45.36102" lon="4.77552">
        <ele>142</ele>
        <time>2024-05-21T08:10:34.000Z</time>
      </trkpt>
      <trkpt lat="45.36096" lon="4.77557">
        <ele>141.80000305176</ele>
        <time>2024-05-21T08:10:35.000Z</time>
      </trkpt>
      <trkpt lat="45.36092" lon="4.7756">
        <ele>141.80000305176</ele>
        <time>2024-05-21T08:10:36.000Z</time>
      </trkpt>
      <trkpt lat="45.36085" lon="4.77566">
        <ele>141.80000305176</ele>
        <time>2024-05-21T08:10:37.000Z</time>
      </trkpt>
      <trkpt lat="45.3608" lon="4.77571">
        <ele>141.60000610352</ele>
        <time>2024-05-21T08:10:38.000Z</time>
      </trkpt>
      <trkpt lat="45.36075" lon="4.77575">
        <ele>141.60000610352</ele>
        <time>2024-05-21T08:10:39.000Z</time>
      </trkpt>
      <trkpt lat="45.36069" lon="4.77581">
        <ele>141.60000610352</ele>
        <time>2024-05-21T08:10:40.000Z</time>
      </trkpt>
      <trkpt lat="45.36063" lon="4.77586">
        <ele>141.60000610352</ele>
        <time>2024-05-21T08:10:41.000Z</time>
      </trkpt>
      <trkpt lat="45.36059" lon="4.7759">
        <ele>141.60000610352</ele>
        <time>2024-05-21T08:10:42.000Z</time>
      </trkpt>
      <trkpt lat="45.36053" lon="4.77595">
        <ele>141.80000305176</ele>
        <time>2024-05-21T08:10:43.000Z</time>
      </trkpt>
      <trkpt lat="45.36048" lon="4.776">
        <ele>141.80000305176</ele>
        <time>2024-05-21T08:10:44.000Z</time>
      </trkpt>
      <trkpt lat="45.36042" lon="4.77605">
        <ele>141.80000305176</ele>
        <time>2024-05-21T08:10:45.000Z</time>
      </trkpt>
      <trkpt lat="45.36038" lon="4.77609">
        <ele>141.80000305176</ele>
        <time>2024-05-21T08:10:46.000Z</time>
      </trkpt>
      <trkpt lat="45.36031" lon="4.77614">
        <ele>141.80000305176</ele>
        <time>2024-05-21T08:10:47.000Z</time>
      </trkpt>
      <trkpt lat="45.36027" lon="4.77618">
        <ele>141.80000305176</ele>
        <time>2024-05-21T08:10:48.000Z</time>
      </trkpt>
      <trkpt lat="45.36021" lon="4.77624">
        <ele>141.80000305176</ele>
        <time>2024-05-21T08:10:49.000Z</time>
      </trkpt>
      <trkpt lat="45.36017" lon="4.77628">
        <ele>141.80000305176</ele>
        <time>2024-05-21T08:10:50.000Z</time>
      </trkpt>
      <trkpt lat="45.36011" lon="4.77633">
        <ele>141.80000305176</ele>
        <time>2024-05-21T08:10:51.000Z</time>
      </trkpt>
      <trkpt lat="45.36004" lon="4.77639">
        <ele>141.80000305176</ele>
        <time>2024-05-21T08:10:52.000Z</time>
      </trkpt>
      <trkpt lat="45.35999" lon="4.77643">
        <ele>141.80000305176</ele>
        <time>2024-05-21T08:10:53.000Z</time>
      </trkpt>
      <trkpt lat="45.35994" lon="4.77647">
        <ele>141.80000305176</ele>
        <time>2024-05-21T08:10:54.000Z</time>
      </trkpt>
      <trkpt lat="45.35988" lon="4.77653">
        <ele>141.80000305176</ele>
        <time>2024-05-21T08:10:55.000Z</time>
      </trkpt>
      <trkpt lat="45.35984" lon="4.77657">
        <ele>141.80000305176</ele>
        <time>2024-05-21T08:10:56.000Z</time>
      </trkpt>
      <trkpt lat="45.35979" lon="4.77662">
        <ele>141.80000305176</ele>
        <time>2024-05-21T08:10:57.000Z</time>
      </trkpt>
      <trkpt lat="45.35973" lon="4.77666">
        <ele>141.80000305176</ele>
        <time>2024-05-21T08:10:58.000Z</time>
      </trkpt>
      <trkpt lat="45.35967" lon="4.77671">
        <ele>141.80000305176</ele>
        <time>2024-05-21T08:10:59.000Z</time>
      </trkpt>
      <trkpt lat="45.35962" lon="4.77676">
        <ele>141.80000305176</ele>
        <time>2024-05-21T08:11:00.000Z</time>
      </trkpt>
      <trkpt lat="45.35955" lon="4.77682">
        <ele>141.80000305176</ele>
        <time>2024-05-21T08:11:01.000Z</time>
      </trkpt>
      <trkpt lat="45.35951" lon="4.77686">
        <ele>141.80000305176</ele>
        <time>2024-05-21T08:11:02.000Z</time>
      </trkpt>
      <trkpt lat="45.35946" lon="4.77691">
        <ele>141.80000305176</ele>
        <time>2024-05-21T08:11:03.000Z</time>
      </trkpt>
      <trkpt lat="45.3594" lon="4.77697">
        <ele>141.80000305176</ele>
        <time>2024-05-21T08:11:04.000Z</time>
      </trkpt>
      <trkpt lat="45.35935" lon="4.77702">
        <ele>141.80000305176</ele>
        <time>2024-05-21T08:11:05.000Z</time>
      </trkpt>
      <trkpt lat="45.3593" lon="4.77706">
        <ele>141.80000305176</ele>
        <time>2024-05-21T08:11:06.000Z</time>
      </trkpt>
      <trkpt lat="45.35924" lon="4.77711">
        <ele>141.80000305176</ele>
        <time>2024-05-21T08:11:07.000Z</time>
      </trkpt>
      <trkpt lat="45.3592" lon="4.77715">
        <ele>141.80000305176</ele>
        <time>2024-05-21T08:11:08.000Z</time>
      </trkpt>
      <trkpt lat="45.35915" lon="4.7772">
        <ele>141.80000305176</ele>
        <time>2024-05-21T08:11:09.000Z</time>
      </trkpt>
      <trkpt lat="45.3591" lon="4.77725">
        <ele>142</ele>
        <time>2024-05-21T08:11:10.000Z</time>
      </trkpt>
      <trkpt lat="45.35905" lon="4.77729">
        <ele>142</ele>
        <time>2024-05-21T08:11:11.000Z</time>
      </trkpt>
      <trkpt lat="45.359" lon="4.77734">
        <ele>142</ele>
        <time>2024-05-21T08:11:12.000Z</time>
      </trkpt>
      <trkpt lat="45.35895" lon="4.7774">
        <ele>142</ele>
        <time>2024-05-21T08:11:13.000Z</time>
      </trkpt>
      <trkpt lat="45.3589" lon="4.77745">
        <ele>142.19999694824</ele>
        <time>2024-05-21T08:11:14.000Z</time>
      </trkpt>
      <trkpt lat="45.35885" lon="4.7775">
        <ele>142.19999694824</ele>
        <time>2024-05-21T08:11:15.000Z</time>
      </trkpt>
      <trkpt lat="45.3588" lon="4.77755">
        <ele>142.19999694824</ele>
        <time>2024-05-21T08:11:16.000Z</time>
      </trkpt>
      <trkpt lat="45.35873" lon="4.7776">
        <ele>142.19999694824</ele>
        <time>2024-05-21T08:11:17.000Z</time>
      </trkpt>
      <trkpt lat="45.35869" lon="4.77764">
        <ele>142.19999694824</ele>
        <time>2024-05-21T08:11:18.000Z</time>
      </trkpt>
      <trkpt lat="45.35862" lon="4.7777">
        <ele>142.19999694824</ele>
        <time>2024-05-21T08:11:19.000Z</time>
      </trkpt>
      <trkpt lat="45.35857" lon="4.77775">
        <ele>142.19999694824</ele>
        <time>2024-05-21T08:11:20.000Z</time>
      </trkpt>
      <trkpt lat="45.35852" lon="4.77779">
        <ele>142.19999694824</ele>
        <time>2024-05-21T08:11:21.000Z</time>
      </trkpt>
      <trkpt lat="45.35847" lon="4.77784">
        <ele>142.19999694824</ele>
        <time>2024-05-21T08:11:22.000Z</time>
      </trkpt>
      <trkpt lat="45.35841" lon="4.7779">
        <ele>142.19999694824</ele>
        <time>2024-05-21T08:11:23.000Z</time>
      </trkpt>
      <trkpt lat="45.35836" lon="4.77794">
        <ele>142</ele>
        <time>2024-05-21T08:11:24.000Z</time>
      </trkpt>
      <trkpt lat="45.3583" lon="4.778">
        <ele>142</ele>
        <time>2024-05-21T08:11:25.000Z</time>
      </trkpt>
      <trkpt lat="45.35824" lon="4.77805">
        <ele>142</ele>
        <time>2024-05-21T08:11:26.000Z</time>
      </trkpt>
      <trkpt lat="45.3582" lon="4.77809">
        <ele>142</ele>
        <time>2024-05-21T08:11:27.000Z</time>
      </trkpt>
      <trkpt lat="45.35813" lon="4.77815">
        <ele>142</ele>
        <time>2024-05-21T08:11:28.000Z</time>
      </trkpt>
      <trkpt lat="45.35808" lon="4.7782">
        <ele>142</ele>
        <time>2024-05-21T08:11:29.000Z</time>
      </trkpt>
      <trkpt lat="45.35804" lon="4.77825">
        <ele>142</ele>
        <time>2024-05-21T08:11:30.000Z</time>
      </trkpt>
      <trkpt lat="45.35797" lon="4.77831">
        <ele>142</ele>
        <time>2024-05-21T08:11:31.000Z</time>
      </trkpt>
      <trkpt lat="45.35791" lon="4.77836">
        <ele>142</ele>
        <time>2024-05-21T08:11:32.000Z</time>
      </trkpt>
      <trkpt lat="45.35787" lon="4.7784">
        <ele>142</ele>
        <time>2024-05-21T08:11:33.000Z</time>
      </trkpt>
      <trkpt lat="45.35782" lon="4.77845">
        <ele>142</ele>
        <time>2024-05-21T08:11:34.000Z</time>
      </trkpt>
      <trkpt lat="45.35776" lon="4.77852">
        <ele>142</ele>
        <time>2024-05-21T08:11:35.000Z</time>
      </trkpt>
      <trkpt lat="45.35771" lon="4.77856">
        <ele>142</ele>
        <time>2024-05-21T08:11:36.000Z</time>
      </trkpt>
      <trkpt lat="45.35766" lon="4.7786">
        <ele>141.80000305176</ele>
        <time>2024-05-21T08:11:37.000Z</time>
      </trkpt>
      <trkpt lat="45.3576" lon="4.77865">
        <ele>141.80000305176</ele>
        <time>2024-05-21T08:11:38.000Z</time>
      </trkpt>
      <trkpt lat="45.35755" lon="4.7787">
        <ele>141.80000305176</ele>
        <time>2024-05-21T08:11:39.000Z</time>
      </trkpt>
      <trkpt lat="45.35749" lon="4.77875">
        <ele>141.80000305176</ele>
        <time>2024-05-21T08:11:40.000Z</time>
      </trkpt>
      <trkpt lat="45.35743" lon="4.77881">
        <ele>141.80000305176</ele>
        <time>2024-05-21T08:11:41.000Z</time>
      </trkpt>
      <trkpt lat="45.35738" lon="4.77886">
        <ele>141.80000305176</ele>
        <time>2024-05-21T08:11:42.000Z</time>
      </trkpt>
      <trkpt lat="45.35733" lon="4.7789">
        <ele>141.80000305176</ele>
        <time>2024-05-21T08:11:43.000Z</time>
      </trkpt>
      <trkpt lat="45.35727" lon="4.77896">
        <ele>141.60000610352</ele>
        <time>2024-05-21T08:11:44.000Z</time>
      </trkpt>
      <trkpt lat="45.35722" lon="4.77901">
        <ele>141.60000610352</ele>
        <time>2024-05-21T08:11:45.000Z</time>
      </trkpt>
      <trkpt lat="45.35718" lon="4.77905">
        <ele>141.60000610352</ele>
        <time>2024-05-21T08:11:46.000Z</time>
      </trkpt>
      <trkpt lat="45.35711" lon="4.77911">
        <ele>141.60000610352</ele>
        <time>2024-05-21T08:11:47.000Z</time>
      </trkpt>
      <trkpt lat="45.35706" lon="4.77916">
        <ele>141.60000610352</ele>
        <time>2024-05-21T08:11:48.000Z</time>
      </trkpt>
      <trkpt lat="45.35702" lon="4.77919">
        <ele>141.60000610352</ele>
        <time>2024-05-21T08:11:49.000Z</time>
      </trkpt>
      <trkpt lat="45.35695" lon="4.77925">
        <ele>141.60000610352</ele>
        <time>2024-05-21T08:11:50.000Z</time>
      </trkpt>
      <trkpt lat="45.35689" lon="4.7793">
        <ele>141.60000610352</ele>
        <time>2024-05-21T08:11:51.000Z</time>
      </trkpt>
      <trkpt lat="45.35685" lon="4.77933">
        <ele>141.60000610352</ele>
        <time>2024-05-21T08:11:52.000Z</time>
      </trkpt>
      <trkpt lat="45.3568" lon="4.77938">
        <ele>141.80000305176</ele>
        <time>2024-05-21T08:11:53.000Z</time>
      </trkpt>
      <trkpt lat="45.35675" lon="4.77943">
        <ele>141.80000305176</ele>
        <time>2024-05-21T08:11:54.000Z</time>
      </trkpt>
      <trkpt lat="45.35669" lon="4.77948">
        <ele>141.80000305176</ele>
        <time>2024-05-21T08:11:55.000Z</time>
      </trkpt>
      <trkpt lat="45.35662" lon="4.77952">
        <ele>141.80000305176</ele>
        <time>2024-05-21T08:11:56.000Z</time>
      </trkpt>
      <trkpt lat="45.35657" lon="4.77957">
        <ele>141.80000305176</ele>
        <time>2024-05-21T08:11:57.000Z</time>
      </trkpt>
      <trkpt lat="45.35653" lon="4.77961">
        <ele>141.80000305176</ele>
        <time>2024-05-21T08:11:58.000Z</time>
      </trkpt>
      <trkpt lat="45.35646" lon="4.77967">
        <ele>141.80000305176</ele>
        <time>2024-05-21T08:11:59.000Z</time>
      </trkpt>
      <trkpt lat="45.35641" lon="4.77969">
        <ele>141.80000305176</ele>
        <time>2024-05-21T08:12:00.000Z</time>
      </trkpt>
      <trkpt lat="45.35636" lon="4.77973">
        <ele>141.80000305176</ele>
        <time>2024-05-21T08:12:01.000Z</time>
      </trkpt>
      <trkpt lat="45.35629" lon="4.77978">
        <ele>141.80000305176</ele>
        <time>2024-05-21T08:12:02.000Z</time>
      </trkpt>
      <trkpt lat="45.35624" lon="4.77982">
        <ele>141.80000305176</ele>
        <time>2024-05-21T08:12:03.000Z</time>
      </trkpt>
      <trkpt lat="45.35618" lon="4.77986">
        <ele>141.80000305176</ele>
        <time>2024-05-21T08:12:04.000Z</time>
      </trkpt>
      <trkpt lat="45.35611" lon="4.77991">
        <ele>141.80000305176</ele>
        <time>2024-05-21T08:12:05.000Z</time>
      </trkpt>
      <trkpt lat="45.35606" lon="4.77995">
        <ele>141.80000305176</ele>
        <time>2024-05-21T08:12:06.000Z</time>
      </trkpt>
      <trkpt lat="45.35601" lon="4.77998">
        <ele>141.80000305176</ele>
        <time>2024-05-21T08:12:07.000Z</time>
      </trkpt>
      <trkpt lat="45.35594" lon="4.78003">
        <ele>141.80000305176</ele>
        <time>2024-05-21T08:12:08.000Z</time>
      </trkpt>
      <trkpt lat="45.3559" lon="4.78006">
        <ele>141.80000305176</ele>
        <time>2024-05-21T08:12:09.000Z</time>
      </trkpt>
      <trkpt lat="45.35584" lon="4.78011">
        <ele>141.80000305176</ele>
        <time>2024-05-21T08:12:10.000Z</time>
      </trkpt>
      <trkpt lat="45.35577" lon="4.78015">
        <ele>141.80000305176</ele>
        <time>2024-05-21T08:12:11.000Z</time>
      </trkpt>
      <trkpt lat="45.35571" lon="4.78019">
        <ele>141.80000305176</ele>
        <time>2024-05-21T08:12:12.000Z</time>
      </trkpt>
      <trkpt lat="45.35567" lon="4.78022">
        <ele>141.80000305176</ele>
        <time>2024-05-21T08:12:13.000Z</time>
      </trkpt>
      <trkpt lat="45.35561" lon="4.78026">
        <ele>141.80000305176</ele>
        <time>2024-05-21T08:12:14.000Z</time>
      </trkpt>
      <trkpt lat="45.35555" lon="4.7803">
        <ele>141.80000305176</ele>
        <time>2024-05-21T08:12:15.000Z</time>
      </trkpt>
      <trkpt lat="45.35549" lon="4.78034">
        <ele>141.80000305176</ele>
        <time>2024-05-21T08:12:16.000Z</time>
      </trkpt>
      <trkpt lat="45.35544" lon="4.78037">
        <ele>141.80000305176</ele>
        <time>2024-05-21T08:12:17.000Z</time>
      </trkpt>
      <trkpt lat="45.35536" lon="4.78042">
        <ele>142</ele>
        <time>2024-05-21T08:12:18.000Z</time>
      </trkpt>
      <trkpt lat="45.35531" lon="4.78046">
        <ele>142</ele>
        <time>2024-05-21T08:12:19.000Z</time>
      </trkpt>
      <trkpt lat="45.35524" lon="4.78049">
        <ele>142</ele>
        <time>2024-05-21T08:12:20.000Z</time>
      </trkpt>
      <trkpt lat="45.35518" lon="4.78052">
        <ele>142</ele>
        <time>2024-05-21T08:12:21.000Z</time>
      </trkpt>
      <trkpt lat="45.35513" lon="4.78055">
        <ele>142</ele>
        <time>2024-05-21T08:12:22.000Z</time>
      </trkpt>
      <trkpt lat="45.35506" lon="4.78059">
        <ele>142</ele>
        <time>2024-05-21T08:12:23.000Z</time>
      </trkpt>
      <trkpt lat="45.355" lon="4.78063">
        <ele>142</ele>
        <time>2024-05-21T08:12:24.000Z</time>
      </trkpt>
      <trkpt lat="45.35495" lon="4.78065">
        <ele>141.80000305176</ele>
        <time>2024-05-21T08:12:25.000Z</time>
      </trkpt>
      <trkpt lat="45.35489" lon="4.78069">
        <ele>141.80000305176</ele>
        <time>2024-05-21T08:12:26.000Z</time>
      </trkpt>
      <trkpt lat="45.35482" lon="4.78072">
        <ele>141.80000305176</ele>
        <time>2024-05-21T08:12:27.000Z</time>
      </trkpt>
      <trkpt lat="45.35476" lon="4.78075">
        <ele>141.80000305176</ele>
        <time>2024-05-21T08:12:28.000Z</time>
      </trkpt>
      <trkpt lat="45.3547" lon="4.78078">
        <ele>141.80000305176</ele>
        <time>2024-05-21T08:12:29.000Z</time>
      </trkpt>
      <trkpt lat="45.35464" lon="4.78081">
        <ele>141.80000305176</ele>
        <time>2024-05-21T08:12:30.000Z</time>
      </trkpt>
      <trkpt lat="45.35458" lon="4.78084">
        <ele>141.80000305176</ele>
        <time>2024-05-21T08:12:31.000Z</time>
      </trkpt>
      <trkpt lat="45.35452" lon="4.78087">
        <ele>141.80000305176</ele>
        <time>2024-05-21T08:12:32.000Z</time>
      </trkpt>
      <trkpt lat="45.35446" lon="4.7809">
        <ele>141.80000305176</ele>
        <time>2024-05-21T08:12:33.000Z</time>
      </trkpt>
      <trkpt lat="45.35441" lon="4.78092">
        <ele>141.80000305176</ele>
        <time>2024-05-21T08:12:34.000Z</time>
      </trkpt>
      <trkpt lat="45.35435" lon="4.78095">
        <ele>141.80000305176</ele>
        <time>2024-05-21T08:12:35.000Z</time>
      </trkpt>
      <trkpt lat="45.35429" lon="4.78098">
        <ele>141.80000305176</ele>
        <time>2024-05-21T08:12:36.000Z</time>
      </trkpt>
      <trkpt lat="45.35423" lon="4.781">
        <ele>141.80000305176</ele>
        <time>2024-05-21T08:12:37.000Z</time>
      </trkpt>
      <trkpt lat="45.35418" lon="4.78103">
        <ele>141.80000305176</ele>
        <time>2024-05-21T08:12:38.000Z</time>
      </trkpt>
      <trkpt lat="45.35412" lon="4.78106">
        <ele>141.80000305176</ele>
        <time>2024-05-21T08:12:39.000Z</time>
      </trkpt>
      <trkpt lat="45.35406" lon="4.78108">
        <ele>141.80000305176</ele>
        <time>2024-05-21T08:12:40.000Z</time>
      </trkpt>
      <trkpt lat="45.35402" lon="4.7811">
        <ele>141.80000305176</ele>
        <time>2024-05-21T08:12:41.000Z</time>
      </trkpt>
      <trkpt lat="45.35395" lon="4.78113">
        <ele>141.60000610352</ele>
        <time>2024-05-21T08:12:42.000Z</time>
      </trkpt>
      <trkpt lat="45.35391" lon="4.78115">
        <ele>141.39999389648</ele>
        <time>2024-05-21T08:12:43.000Z</time>
      </trkpt>
      <trkpt lat="45.35385" lon="4.78117">
        <ele>141</ele>
        <time>2024-05-21T08:12:44.000Z</time>
      </trkpt>
      <trkpt lat="45.35379" lon="4.7812">
        <ele>140.80000305176</ele>
        <time>2024-05-21T08:12:45.000Z</time>
      </trkpt>
      <trkpt lat="45.35375" lon="4.78121">
        <ele>140.80000305176</ele>
        <time>2024-05-21T08:12:46.000Z</time>
      </trkpt>
      <trkpt lat="45.35369" lon="4.78123">
        <ele>140.80000305176</ele>
        <time>2024-05-21T08:12:47.000Z</time>
      </trkpt>
      <trkpt lat="45.35364" lon="4.78125">
        <ele>140.80000305176</ele>
        <time>2024-05-21T08:12:48.000Z</time>
      </trkpt>
      <trkpt lat="45.3536" lon="4.78127">
        <ele>141</ele>
        <time>2024-05-21T08:12:49.000Z</time>
      </trkpt>
      <trkpt lat="45.35355" lon="4.78129">
        <ele>141.19999694824</ele>
        <time>2024-05-21T08:12:50.000Z</time>
      </trkpt>
      <trkpt lat="45.3535" lon="4.78131">
        <ele>141.19999694824</ele>
        <time>2024-05-21T08:12:51.000Z</time>
      </trkpt>
      <trkpt lat="45.35346" lon="4.78133">
        <ele>141.39999389648</ele>
        <time>2024-05-21T08:12:52.000Z</time>
      </trkpt>
      <trkpt lat="45.35341" lon="4.78135">
        <ele>141.39999389648</ele>
        <time>2024-05-21T08:12:53.000Z</time>
      </trkpt>
      <trkpt lat="45.35336" lon="4.78138">
        <ele>141.39999389648</ele>
        <time>2024-05-21T08:12:54.000Z</time>
      </trkpt>
      <trkpt lat="45.35331" lon="4.78141">
        <ele>141.39999389648</ele>
        <time>2024-05-21T08:12:55.000Z</time>
      </trkpt>
      <trkpt lat="45.35326" lon="4.78146">
        <ele>141.60000610352</ele>
        <time>2024-05-21T08:12:56.000Z</time>
      </trkpt>
      <trkpt lat="45.35322" lon="4.7815">
        <ele>141.60000610352</ele>
        <time>2024-05-21T08:12:57.000Z</time>
      </trkpt>
      <trkpt lat="45.35319" lon="4.78155">
        <ele>141.60000610352</ele>
        <time>2024-05-21T08:12:58.000Z</time>
      </trkpt>
      <trkpt lat="45.35316" lon="4.78161">
        <ele>141.80000305176</ele>
        <time>2024-05-21T08:12:59.000Z</time>
      </trkpt>
      <trkpt lat="45.35314" lon="4.78167">
        <ele>141.80000305176</ele>
        <time>2024-05-21T08:13:00.000Z</time>
      </trkpt>
      <trkpt lat="45.35311" lon="4.78174">
        <ele>142</ele>
        <time>2024-05-21T08:13:01.000Z</time>
      </trkpt>
      <trkpt lat="45.3531" lon="4.78179">
        <ele>142</ele>
        <time>2024-05-21T08:13:02.000Z</time>
      </trkpt>
      <trkpt lat="45.35307" lon="4.78186">
        <ele>142</ele>
        <time>2024-05-21T08:13:03.000Z</time>
      </trkpt>
      <trkpt lat="45.35305" lon="4.78192">
        <ele>142</ele>
        <time>2024-05-21T08:13:04.000Z</time>
      </trkpt>
      <trkpt lat="45.35302" lon="4.78199">
        <ele>142</ele>
        <time>2024-05-21T08:13:05.000Z</time>
      </trkpt>
      <trkpt lat="45.35299" lon="4.78203">
        <ele>142</ele>
        <time>2024-05-21T08:13:06.000Z</time>
      </trkpt>
      <trkpt lat="45.35295" lon="4.78208">
        <ele>142</ele>
        <time>2024-05-21T08:13:07.000Z</time>
      </trkpt>
      <trkpt lat="45.3529" lon="4.78211">
        <ele>142</ele>
        <time>2024-05-21T08:13:08.000Z</time>
      </trkpt>
      <trkpt lat="45.35285" lon="4.78213">
        <ele>142</ele>
        <time>2024-05-21T08:13:09.000Z</time>
      </trkpt>
      <trkpt lat="45.3528" lon="4.78215">
        <ele>142</ele>
        <time>2024-05-21T08:13:10.000Z</time>
      </trkpt>
      <trkpt lat="45.35275" lon="4.78215">
        <ele>142.19999694824</ele>
        <time>2024-05-21T08:13:11.000Z</time>
      </trkpt>
      <trkpt lat="45.3527" lon="4.78214">
        <ele>142.19999694824</ele>
        <time>2024-05-21T08:13:12.000Z</time>
      </trkpt>
      <trkpt lat="45.35264" lon="4.78212">
        <ele>142.19999694824</ele>
        <time>2024-05-21T08:13:13.000Z</time>
      </trkpt>
      <trkpt lat="45.3526" lon="4.78207">
        <ele>142.19999694824</ele>
        <time>2024-05-21T08:13:14.000Z</time>
      </trkpt>
      <trkpt lat="45.35255" lon="4.78202">
        <ele>142</ele>
        <time>2024-05-21T08:13:15.000Z</time>
      </trkpt>
      <trkpt lat="45.35251" lon="4.78196">
        <ele>142</ele>
        <time>2024-05-21T08:13:16.000Z</time>
      </trkpt>
      <trkpt lat="45.35247" lon="4.78191">
        <ele>142</ele>
        <time>2024-05-21T08:13:17.000Z</time>
      </trkpt>
      <trkpt lat="45.35242" lon="4.78186">
        <ele>142</ele>
        <time>2024-05-21T08:13:18.000Z</time>
      </trkpt>
      <trkpt lat="45.35238" lon="4.78181">
        <ele>142</ele>
        <time>2024-05-21T08:13:19.000Z</time>
      </trkpt>
      <trkpt lat="45.35232" lon="4.78177">
        <ele>141.80000305176</ele>
        <time>2024-05-21T08:13:20.000Z</time>
      </trkpt>
      <trkpt lat="45.35227" lon="4.78175">
        <ele>141.80000305176</ele>
        <time>2024-05-21T08:13:21.000Z</time>
      </trkpt>
      <trkpt lat="45.35222" lon="4.78173">
        <ele>141.60000610352</ele>
        <time>2024-05-21T08:13:22.000Z</time>
      </trkpt>
      <trkpt lat="45.35216" lon="4.78172">
        <ele>141.60000610352</ele>
        <time>2024-05-21T08:13:23.000Z</time>
      </trkpt>
      <trkpt lat="45.35211" lon="4.78172">
        <ele>141.60000610352</ele>
        <time>2024-05-21T08:13:24.000Z</time>
      </trkpt>
      <trkpt lat="45.35206" lon="4.78172">
        <ele>141.60000610352</ele>
        <time>2024-05-21T08:13:25.000Z</time>
      </trkpt>
      <trkpt lat="45.352" lon="4.78172">
        <ele>141.80000305176</ele>
        <time>2024-05-21T08:13:26.000Z</time>
      </trkpt>
      <trkpt lat="45.35195" lon="4.78172">
        <ele>141.80000305176</ele>
        <time>2024-05-21T08:13:27.000Z</time>
      </trkpt>
      <trkpt lat="45.3519" lon="4.78173">
        <ele>141.80000305176</ele>
        <time>2024-05-21T08:13:28.000Z</time>
      </trkpt>
      <trkpt lat="45.35184" lon="4.78175">
        <ele>141.80000305176</ele>
        <time>2024-05-21T08:13:29.000Z</time>
      </trkpt>
      <trkpt lat="45.35178" lon="4.78176">
        <ele>142</ele>
        <time>2024-05-21T08:13:30.000Z</time>
      </trkpt>
      <trkpt lat="45.35173" lon="4.78177">
        <ele>142</ele>
        <time>2024-05-21T08:13:31.000Z</time>
      </trkpt>
      <trkpt lat="45.35167" lon="4.78177">
        <ele>142</ele>
        <time>2024-05-21T08:13:32.000Z</time>
      </trkpt>
      <trkpt lat="45.35161" lon="4.78179">
        <ele>142</ele>
        <time>2024-05-21T08:13:33.000Z</time>
      </trkpt>
      <trkpt lat="45.35154" lon="4.7818">
        <ele>142</ele>
        <time>2024-05-21T08:13:34.000Z</time>
      </trkpt>
      <trkpt lat="45.35148" lon="4.78181">
        <ele>141.80000305176</ele>
        <time>2024-05-21T08:13:35.000Z</time>
      </trkpt>
      <trkpt lat="45.35142" lon="4.78182">
        <ele>141.80000305176</ele>
        <time>2024-05-21T08:13:36.000Z</time>
      </trkpt>
      <trkpt lat="45.35136" lon="4.78183">
        <ele>142</ele>
        <time>2024-05-21T08:13:37.000Z</time>
      </trkpt>
      <trkpt lat="45.3513" lon="4.78184">
        <ele>141.80000305176</ele>
        <time>2024-05-21T08:13:38.000Z</time>
      </trkpt>
      <trkpt lat="45.35124" lon="4.78185">
        <ele>141.80000305176</ele>
        <time>2024-05-21T08:13:39.000Z</time>
      </trkpt>
      <trkpt lat="45.35118" lon="4.78186">
        <ele>141.80000305176</ele>
        <time>2024-05-21T08:13:40.000Z</time>
      </trkpt>
      <trkpt lat="45.35112" lon="4.78188">
        <ele>141.80000305176</ele>
        <time>2024-05-21T08:13:41.000Z</time>
      </trkpt>
      <trkpt lat="45.35106" lon="4.78189">
        <ele>141.80000305176</ele>
        <time>2024-05-21T08:13:42.000Z</time>
      </trkpt>
      <trkpt lat="45.35098" lon="4.7819">
        <ele>141.80000305176</ele>
        <time>2024-05-21T08:13:43.000Z</time>
      </trkpt>
      <trkpt lat="45.35092" lon="4.78191">
        <ele>141.80000305176</ele>
        <time>2024-05-21T08:13:44.000Z</time>
      </trkpt>
      <trkpt lat="45.35087" lon="4.78192">
        <ele>141.80000305176</ele>
        <time>2024-05-21T08:13:45.000Z</time>
      </trkpt>
      <trkpt lat="45.35081" lon="4.78194">
        <ele>141.80000305176</ele>
        <time>2024-05-21T08:13:46.000Z</time>
      </trkpt>
      <trkpt lat="45.35075" lon="4.78195">
        <ele>141.80000305176</ele>
        <time>2024-05-21T08:13:47.000Z</time>
      </trkpt>
      <trkpt lat="45.35069" lon="4.78196">
        <ele>142</ele>
        <time>2024-05-21T08:13:48.000Z</time>
      </trkpt>
      <trkpt lat="45.35061" lon="4.78196">
        <ele>142</ele>
        <time>2024-05-21T08:13:49.000Z</time>
      </trkpt>
      <trkpt lat="45.35056" lon="4.78197">
        <ele>142</ele>
        <time>2024-05-21T08:13:50.000Z</time>
      </trkpt>
      <trkpt lat="45.3505" lon="4.78198">
        <ele>142</ele>
        <time>2024-05-21T08:13:51.000Z</time>
      </trkpt>
      <trkpt lat="45.35042" lon="4.78199">
        <ele>142</ele>
        <time>2024-05-21T08:13:52.000Z</time>
      </trkpt>
      <trkpt lat="45.35036" lon="4.782">
        <ele>142</ele>
        <time>2024-05-21T08:13:53.000Z</time>
      </trkpt>
      <trkpt lat="45.35031" lon="4.78201">
        <ele>142</ele>
        <time>2024-05-21T08:13:54.000Z</time>
      </trkpt>
      <trkpt lat="45.35024" lon="4.78202">
        <ele>142</ele>
        <time>2024-05-21T08:13:55.000Z</time>
      </trkpt>
      <trkpt lat="45.35018" lon="4.78203">
        <ele>142</ele>
        <time>2024-05-21T08:13:56.000Z</time>
      </trkpt>
      <trkpt lat="45.35012" lon="4.78203">
        <ele>141.80000305176</ele>
        <time>2024-05-21T08:13:57.000Z</time>
      </trkpt>
      <trkpt lat="45.35004" lon="4.78204">
        <ele>141.80000305176</ele>
        <time>2024-05-21T08:13:58.000Z</time>
      </trkpt>
      <trkpt lat="45.34999" lon="4.78204">
        <ele>141.80000305176</ele>
        <time>2024-05-21T08:13:59.000Z</time>
      </trkpt>
      <trkpt lat="45.34993" lon="4.78205">
        <ele>141.80000305176</ele>
        <time>2024-05-21T08:14:00.000Z</time>
      </trkpt>
      <trkpt lat="45.34985" lon="4.78206">
        <ele>141.80000305176</ele>
        <time>2024-05-21T08:14:01.000Z</time>
      </trkpt>
      <trkpt lat="45.3498" lon="4.78206">
        <ele>141.80000305176</ele>
        <time>2024-05-21T08:14:02.000Z</time>
      </trkpt>
      <trkpt lat="45.34973" lon="4.78207">
        <ele>141.80000305176</ele>
        <time>2024-05-21T08:14:03.000Z</time>
      </trkpt>
      <trkpt lat="45.34967" lon="4.78207">
        <ele>141.80000305176</ele>
        <time>2024-05-21T08:14:04.000Z</time>
      </trkpt>
      <trkpt lat="45.3496" lon="4.78208">
        <ele>141.80000305176</ele>
        <time>2024-05-21T08:14:05.000Z</time>
      </trkpt>
      <trkpt lat="45.34954" lon="4.78208">
        <ele>141.80000305176</ele>
        <time>2024-05-21T08:14:06.000Z</time>
      </trkpt>
      <trkpt lat="45.34946" lon="4.78208">
        <ele>142</ele>
        <time>2024-05-21T08:14:07.000Z</time>
      </trkpt>
      <trkpt lat="45.34941" lon="4.78209">
        <ele>142</ele>
        <time>2024-05-21T08:14:08.000Z</time>
      </trkpt>
      <trkpt lat="45.34935" lon="4.78209">
        <ele>142</ele>
        <time>2024-05-21T08:14:09.000Z</time>
      </trkpt>
      <trkpt lat="45.34929" lon="4.7821">
        <ele>142</ele>
        <time>2024-05-21T08:14:10.000Z</time>
      </trkpt>
      <trkpt lat="45.34922" lon="4.78211">
        <ele>142</ele>
        <time>2024-05-21T08:14:11.000Z</time>
      </trkpt>
      <trkpt lat="45.34916" lon="4.78211">
        <ele>142</ele>
        <time>2024-05-21T08:14:12.000Z</time>
      </trkpt>
      <trkpt lat="45.34908" lon="4.78211">
        <ele>142</ele>
        <time>2024-05-21T08:14:13.000Z</time>
      </trkpt>
      <trkpt lat="45.34903" lon="4.78212">
        <ele>142</ele>
        <time>2024-05-21T08:14:14.000Z</time>
      </trkpt>
      <trkpt lat="45.34897" lon="4.78213">
        <ele>142</ele>
        <time>2024-05-21T08:14:15.000Z</time>
      </trkpt>
      <trkpt lat="45.34889" lon="4.78213">
        <ele>142</ele>
        <time>2024-05-21T08:14:16.000Z</time>
      </trkpt>
      <trkpt lat="45.34884" lon="4.78214">
        <ele>142</ele>
        <time>2024-05-21T08:14:17.000Z</time>
      </trkpt>
      <trkpt lat="45.34878" lon="4.78215">
        <ele>142</ele>
        <time>2024-05-21T08:14:18.000Z</time>
      </trkpt>
      <trkpt lat="45.34871" lon="4.78216">
        <ele>142</ele>
        <time>2024-05-21T08:14:19.000Z</time>
      </trkpt>
      <trkpt lat="45.34865" lon="4.78217">
        <ele>142</ele>
        <time>2024-05-21T08:14:20.000Z</time>
      </trkpt>
      <trkpt lat="45.34859" lon="4.78218">
        <ele>142</ele>
        <time>2024-05-21T08:14:21.000Z</time>
      </trkpt>
      <trkpt lat="45.34851" lon="4.78219">
        <ele>142</ele>
        <time>2024-05-21T08:14:22.000Z</time>
      </trkpt>
      <trkpt lat="45.34846" lon="4.78219">
        <ele>142</ele>
        <time>2024-05-21T08:14:23.000Z</time>
      </trkpt>
      <trkpt lat="45.34839" lon="4.78219">
        <ele>142</ele>
        <time>2024-05-21T08:14:24.000Z</time>
      </trkpt>
      <trkpt lat="45.34833" lon="4.78219">
        <ele>142</ele>
        <time>2024-05-21T08:14:25.000Z</time>
      </trkpt>
      <trkpt lat="45.34825" lon="4.78219">
        <ele>142</ele>
        <time>2024-05-21T08:14:26.000Z</time>
      </trkpt>
      <trkpt lat="45.3482" lon="4.7822">
        <ele>142</ele>
        <time>2024-05-21T08:14:27.000Z</time>
      </trkpt>
      <trkpt lat="45.34813" lon="4.78221">
        <ele>141.80000305176</ele>
        <time>2024-05-21T08:14:28.000Z</time>
      </trkpt>
      <trkpt lat="45.34806" lon="4.78222">
        <ele>141.80000305176</ele>
        <time>2024-05-21T08:14:29.000Z</time>
      </trkpt>
      <trkpt lat="45.34801" lon="4.78223">
        <ele>141.80000305176</ele>
        <time>2024-05-21T08:14:30.000Z</time>
      </trkpt>
      <trkpt lat="45.34794" lon="4.78224">
        <ele>141.80000305176</ele>
        <time>2024-05-21T08:14:31.000Z</time>
      </trkpt>
      <trkpt lat="45.34788" lon="4.78225">
        <ele>141.80000305176</ele>
        <time>2024-05-21T08:14:32.000Z</time>
      </trkpt>
      <trkpt lat="45.34782" lon="4.78226">
        <ele>141.80000305176</ele>
        <time>2024-05-21T08:14:33.000Z</time>
      </trkpt>
      <trkpt lat="45.34774" lon="4.78227">
        <ele>141.60000610352</ele>
        <time>2024-05-21T08:14:34.000Z</time>
      </trkpt>
      <trkpt lat="45.34769" lon="4.78228">
        <ele>141.60000610352</ele>
        <time>2024-05-21T08:14:35.000Z</time>
      </trkpt>
      <trkpt lat="45.34763" lon="4.78229">
        <ele>141.39999389648</ele>
        <time>2024-05-21T08:14:36.000Z</time>
      </trkpt>
      <trkpt lat="45.34757" lon="4.7823">
        <ele>141.39999389648</ele>
        <time>2024-05-21T08:14:37.000Z</time>
      </trkpt>
      <trkpt lat="45.3475" lon="4.78232">
        <ele>141.39999389648</ele>
        <time>2024-05-21T08:14:38.000Z</time>
      </trkpt>
      <trkpt lat="45.34744" lon="4.78233">
        <ele>141.39999389648</ele>
        <time>2024-05-21T08:14:39.000Z</time>
      </trkpt>
      <trkpt lat="45.34737" lon="4.78235">
        <ele>141.60000610352</ele>
        <time>2024-05-21T08:14:40.000Z</time>
      </trkpt>
      <trkpt lat="45.34731" lon="4.78236">
        <ele>141.80000305176</ele>
        <time>2024-05-21T08:14:41.000Z</time>
      </trkpt>
      <trkpt lat="45.34725" lon="4.78237">
        <ele>141.80000305176</ele>
        <time>2024-05-21T08:14:42.000Z</time>
      </trkpt>
      <trkpt lat="45.34718" lon="4.78238">
        <ele>141.80000305176</ele>
        <time>2024-05-21T08:14:43.000Z</time>
      </trkpt>
      <trkpt lat="45.34711" lon="4.78239">
        <ele>141.80000305176</ele>
        <time>2024-05-21T08:14:44.000Z</time>
      </trkpt>
      <trkpt lat="45.34706" lon="4.7824">
        <ele>141.80000305176</ele>
        <time>2024-05-21T08:14:45.000Z</time>
      </trkpt>
      <trkpt lat="45.34699" lon="4.78241">
        <ele>141.80000305176</ele>
        <time>2024-05-21T08:14:46.000Z</time>
      </trkpt>
      <trkpt lat="45.34693" lon="4.78242">
        <ele>141.80000305176</ele>
        <time>2024-05-21T08:14:47.000Z</time>
      </trkpt>
      <trkpt lat="45.34687" lon="4.78243">
        <ele>141.80000305176</ele>
        <time>2024-05-21T08:14:48.000Z</time>
      </trkpt>
      <trkpt lat="45.3468" lon="4.78244">
        <ele>141.80000305176</ele>
        <time>2024-05-21T08:14:49.000Z</time>
      </trkpt>
      <trkpt lat="45.34674" lon="4.78245">
        <ele>141.80000305176</ele>
        <time>2024-05-21T08:14:50.000Z</time>
      </trkpt>
      <trkpt lat="45.34668" lon="4.78247">
        <ele>141.80000305176</ele>
        <time>2024-05-21T08:14:51.000Z</time>
      </trkpt>
      <trkpt lat="45.34661" lon="4.78248">
        <ele>141.80000305176</ele>
        <time>2024-05-21T08:14:52.000Z</time>
      </trkpt>
      <trkpt lat="45.34654" lon="4.7825">
        <ele>141.80000305176</ele>
        <time>2024-05-21T08:14:53.000Z</time>
      </trkpt>
      <trkpt lat="45.34647" lon="4.78251">
        <ele>141.60000610352</ele>
        <time>2024-05-21T08:14:54.000Z</time>
      </trkpt>
      <trkpt lat="45.34642" lon="4.78252">
        <ele>141.60000610352</ele>
        <time>2024-05-21T08:14:55.000Z</time>
      </trkpt>
      <trkpt lat="45.34635" lon="4.78253">
        <ele>141.60000610352</ele>
        <time>2024-05-21T08:14:56.000Z</time>
      </trkpt>
      <trkpt lat="45.34629" lon="4.78253">
        <ele>141.60000610352</ele>
        <time>2024-05-21T08:14:57.000Z</time>
      </trkpt>
      <trkpt lat="45.34623" lon="4.78254">
        <ele>141.60000610352</ele>
        <time>2024-05-21T08:14:58.000Z</time>
      </trkpt>
      <trkpt lat="45.34616" lon="4.78256">
        <ele>141.60000610352</ele>
        <time>2024-05-21T08:14:59.000Z</time>
      </trkpt>
      <trkpt lat="45.34609" lon="4.78257">
        <ele>141.60000610352</ele>
        <time>2024-05-21T08:15:00.000Z</time>
      </trkpt>
      <trkpt lat="45.34604" lon="4.78258">
        <ele>141.60000610352</ele>
        <time>2024-05-21T08:15:01.000Z</time>
      </trkpt>
      <trkpt lat="45.34597" lon="4.7826">
        <ele>141.60000610352</ele>
        <time>2024-05-21T08:15:02.000Z</time>
      </trkpt>
      <trkpt lat="45.34591" lon="4.78262">
        <ele>141.60000610352</ele>
        <time>2024-05-21T08:15:03.000Z</time>
      </trkpt>
      <trkpt lat="45.34585" lon="4.78263">
        <ele>141.39999389648</ele>
        <time>2024-05-21T08:15:04.000Z</time>
      </trkpt>
      <trkpt lat="45.34578" lon="4.78264">
        <ele>141.39999389648</ele>
        <time>2024-05-21T08:15:05.000Z</time>
      </trkpt>
      <trkpt lat="45.34572" lon="4.78265">
        <ele>141.39999389648</ele>
        <time>2024-05-21T08:15:06.000Z</time>
      </trkpt>
      <trkpt lat="45.34567" lon="4.78265">
        <ele>141.39999389648</ele>
        <time>2024-05-21T08:15:07.000Z</time>
      </trkpt>
      <trkpt lat="45.3456" lon="4.78266">
        <ele>141.39999389648</ele>
        <time>2024-05-21T08:15:08.000Z</time>
      </trkpt>
      <trkpt lat="45.34554" lon="4.78267">
        <ele>141.39999389648</ele>
        <time>2024-05-21T08:15:09.000Z</time>
      </trkpt>
      <trkpt lat="45.34549" lon="4.78268">
        <ele>141.19999694824</ele>
        <time>2024-05-21T08:15:10.000Z</time>
      </trkpt>
      <trkpt lat="45.34542" lon="4.78269">
        <ele>141.19999694824</ele>
        <time>2024-05-21T08:15:11.000Z</time>
      </trkpt>
      <trkpt lat="45.34536" lon="4.7827">
        <ele>141.19999694824</ele>
        <time>2024-05-21T08:15:12.000Z</time>
      </trkpt>
      <trkpt lat="45.34532" lon="4.78271">
        <ele>141.19999694824</ele>
        <time>2024-05-21T08:15:13.000Z</time>
      </trkpt>
      <trkpt lat="45.34525" lon="4.78272">
        <ele>141.19999694824</ele>
        <time>2024-05-21T08:15:14.000Z</time>
      </trkpt>
      <trkpt lat="45.34519" lon="4.78273">
        <ele>141.19999694824</ele>
        <time>2024-05-21T08:15:15.000Z</time>
      </trkpt>
      <trkpt lat="45.34513" lon="4.78273">
        <ele>141.19999694824</ele>
        <time>2024-05-21T08:15:16.000Z</time>
      </trkpt>
      <trkpt lat="45.34507" lon="4.78274">
        <ele>141.39999389648</ele>
        <time>2024-05-21T08:15:17.000Z</time>
      </trkpt>
      <trkpt lat="45.34501" lon="4.78276">
        <ele>141.39999389648</ele>
        <time>2024-05-21T08:15:18.000Z</time>
      </trkpt>
      <trkpt lat="45.34495" lon="4.78277">
        <ele>141.39999389648</ele>
        <time>2024-05-21T08:15:19.000Z</time>
      </trkpt>
      <trkpt lat="45.34489" lon="4.78278">
        <ele>141.39999389648</ele>
        <time>2024-05-21T08:15:20.000Z</time>
      </trkpt>
      <trkpt lat="45.34483" lon="4.78279">
        <ele>141.39999389648</ele>
        <time>2024-05-21T08:15:21.000Z</time>
      </trkpt>
      <trkpt lat="45.34477" lon="4.7828">
        <ele>141.39999389648</ele>
        <time>2024-05-21T08:15:22.000Z</time>
      </trkpt>
      <trkpt lat="45.34471" lon="4.78282">
        <ele>141.39999389648</ele>
        <time>2024-05-21T08:15:23.000Z</time>
      </trkpt>
      <trkpt lat="45.34466" lon="4.78283">
        <ele>141.39999389648</ele>
        <time>2024-05-21T08:15:24.000Z</time>
      </trkpt>
      <trkpt lat="45.3446" lon="4.78284">
        <ele>141.39999389648</ele>
        <time>2024-05-21T08:15:25.000Z</time>
      </trkpt>
      <trkpt lat="45.34453" lon="4.78285">
        <ele>141.39999389648</ele>
        <time>2024-05-21T08:15:26.000Z</time>
      </trkpt>
      <trkpt lat="45.34447" lon="4.78286">
        <ele>141.39999389648</ele>
        <time>2024-05-21T08:15:27.000Z</time>
      </trkpt>
      <trkpt lat="45.34442" lon="4.78286">
        <ele>141.39999389648</ele>
        <time>2024-05-21T08:15:28.000Z</time>
      </trkpt>
      <trkpt lat="45.34434" lon="4.78288">
        <ele>141.39999389648</ele>
        <time>2024-05-21T08:15:29.000Z</time>
      </trkpt>
      <trkpt lat="45.34428" lon="4.78289">
        <ele>141.39999389648</ele>
        <time>2024-05-21T08:15:30.000Z</time>
      </trkpt>
      <trkpt lat="45.34422" lon="4.78289">
        <ele>141.39999389648</ele>
        <time>2024-05-21T08:15:31.000Z</time>
      </trkpt>
      <trkpt lat="45.34416" lon="4.7829">
        <ele>141.39999389648</ele>
        <time>2024-05-21T08:15:32.000Z</time>
      </trkpt>
      <trkpt lat="45.3441" lon="4.78291">
        <ele>141.39999389648</ele>
        <time>2024-05-21T08:15:33.000Z</time>
      </trkpt>
      <trkpt lat="45.34403" lon="4.78292">
        <ele>141.39999389648</ele>
        <time>2024-05-21T08:15:34.000Z</time>
      </trkpt>
      <trkpt lat="45.34397" lon="4.78293">
        <ele>141.19999694824</ele>
        <time>2024-05-21T08:15:35.000Z</time>
      </trkpt>
      <trkpt lat="45.34391" lon="4.78294">
        <ele>141.19999694824</ele>
        <time>2024-05-21T08:15:36.000Z</time>
      </trkpt>
      <trkpt lat="45.34385" lon="4.78295">
        <ele>141.19999694824</ele>
        <time>2024-05-21T08:15:37.000Z</time>
      </trkpt>
      <trkpt lat="45.34379" lon="4.78296">
        <ele>141.19999694824</ele>
        <time>2024-05-21T08:15:38.000Z</time>
      </trkpt>
      <trkpt lat="45.34373" lon="4.78298">
        <ele>141.19999694824</ele>
        <time>2024-05-21T08:15:39.000Z</time>
      </trkpt>
      <trkpt lat="45.34368" lon="4.78299">
        <ele>141.19999694824</ele>
        <time>2024-05-21T08:15:40.000Z</time>
      </trkpt>
      <trkpt lat="45.34361" lon="4.783">
        <ele>141.19999694824</ele>
        <time>2024-05-21T08:15:41.000Z</time>
      </trkpt>
      <trkpt lat="45.34355" lon="4.78301">
        <ele>141.19999694824</ele>
        <time>2024-05-21T08:15:42.000Z</time>
      </trkpt>
      <trkpt lat="45.34349" lon="4.78302">
        <ele>141.19999694824</ele>
        <time>2024-05-21T08:15:43.000Z</time>
      </trkpt>
      <trkpt lat="45.34343" lon="4.78303">
        <ele>141.19999694824</ele>
        <time>2024-05-21T08:15:44.000Z</time>
      </trkpt>
      <trkpt lat="45.34337" lon="4.78304">
        <ele>141.19999694824</ele>
        <time>2024-05-21T08:15:45.000Z</time>
      </trkpt>
      <trkpt lat="45.34331" lon="4.78306">
        <ele>141.19999694824</ele>
        <time>2024-05-21T08:15:46.000Z</time>
      </trkpt>
      <trkpt lat="45.34325" lon="4.78308">
        <ele>141.19999694824</ele>
        <time>2024-05-21T08:15:47.000Z</time>
      </trkpt>
      <trkpt lat="45.34321" lon="4.78309">
        <ele>141.19999694824</ele>
        <time>2024-05-21T08:15:48.000Z</time>
      </trkpt>
      <trkpt lat="45.34315" lon="4.7831">
        <ele>141.39999389648</ele>
        <time>2024-05-21T08:15:49.000Z</time>
      </trkpt>
      <trkpt lat="45.34309" lon="4.78311">
        <ele>141.39999389648</ele>
        <time>2024-05-21T08:15:50.000Z</time>
      </trkpt>
      <trkpt lat="45.34303" lon="4.78311">
        <ele>141.39999389648</ele>
        <time>2024-05-21T08:15:51.000Z</time>
      </trkpt>
      <trkpt lat="45.34297" lon="4.78312">
        <ele>141.39999389648</ele>
        <time>2024-05-21T08:15:52.000Z</time>
      </trkpt>
      <trkpt lat="45.34289" lon="4.78313">
        <ele>141.39999389648</ele>
        <time>2024-05-21T08:15:53.000Z</time>
      </trkpt>
      <trkpt lat="45.34283" lon="4.78314">
        <ele>141.19999694824</ele>
        <time>2024-05-21T08:15:54.000Z</time>
      </trkpt>
      <trkpt lat="45.34279" lon="4.78315">
        <ele>141.19999694824</ele>
        <time>2024-05-21T08:15:55.000Z</time>
      </trkpt>
      <trkpt lat="45.34271" lon="4.78316">
        <ele>141.19999694824</ele>
        <time>2024-05-21T08:15:56.000Z</time>
      </trkpt>
      <trkpt lat="45.34265" lon="4.78317">
        <ele>141.19999694824</ele>
        <time>2024-05-21T08:15:57.000Z</time>
      </trkpt>
      <trkpt lat="45.34261" lon="4.78318">
        <ele>141.19999694824</ele>
        <time>2024-05-21T08:15:58.000Z</time>
      </trkpt>
      <trkpt lat="45.34253" lon="4.78319">
        <ele>141.19999694824</ele>
        <time>2024-05-21T08:15:59.000Z</time>
      </trkpt>
      <trkpt lat="45.34247" lon="4.7832">
        <ele>141.19999694824</ele>
        <time>2024-05-21T08:16:00.000Z</time>
      </trkpt>
      <trkpt lat="45.34241" lon="4.78321">
        <ele>141</ele>
        <time>2024-05-21T08:16:01.000Z</time>
      </trkpt>
      <trkpt lat="45.34235" lon="4.78322">
        <ele>141</ele>
        <time>2024-05-21T08:16:02.000Z</time>
      </trkpt>
      <trkpt lat="45.34229" lon="4.78322">
        <ele>141</ele>
        <time>2024-05-21T08:16:03.000Z</time>
      </trkpt>
      <trkpt lat="45.34224" lon="4.78323">
        <ele>141</ele>
        <time>2024-05-21T08:16:04.000Z</time>
      </trkpt>
      <trkpt lat="45.34218" lon="4.78325">
        <ele>141</ele>
        <time>2024-05-21T08:16:05.000Z</time>
      </trkpt>
      <trkpt lat="45.34211" lon="4.78326">
        <ele>141.19999694824</ele>
        <time>2024-05-21T08:16:06.000Z</time>
      </trkpt>
      <trkpt lat="45.34205" lon="4.78327">
        <ele>141.19999694824</ele>
        <time>2024-05-21T08:16:07.000Z</time>
      </trkpt>
      <trkpt lat="45.34199" lon="4.78328">
        <ele>141.19999694824</ele>
        <time>2024-05-21T08:16:08.000Z</time>
      </trkpt>
      <trkpt lat="45.34193" lon="4.78329">
        <ele>141.19999694824</ele>
        <time>2024-05-21T08:16:09.000Z</time>
      </trkpt>
      <trkpt lat="45.34187" lon="4.7833">
        <ele>141.19999694824</ele>
        <time>2024-05-21T08:16:10.000Z</time>
      </trkpt>
      <trkpt lat="45.34181" lon="4.78331">
        <ele>141.19999694824</ele>
        <time>2024-05-21T08:16:11.000Z</time>
      </trkpt>
      <trkpt lat="45.34175" lon="4.78332">
        <ele>141.19999694824</ele>
        <time>2024-05-21T08:16:12.000Z</time>
      </trkpt>
      <trkpt lat="45.34169" lon="4.78333">
        <ele>141.19999694824</ele>
        <time>2024-05-21T08:16:13.000Z</time>
      </trkpt>
      <trkpt lat="45.34163" lon="4.78334">
        <ele>141.19999694824</ele>
        <time>2024-05-21T08:16:14.000Z</time>
      </trkpt>
      <trkpt lat="45.34158" lon="4.78335">
        <ele>141.39999389648</ele>
        <time>2024-05-21T08:16:15.000Z</time>
      </trkpt>
      <trkpt lat="45.34153" lon="4.78335">
        <ele>141.39999389648</ele>
        <time>2024-05-21T08:16:16.000Z</time>
      </trkpt>
      <trkpt lat="45.34146" lon="4.78336">
        <ele>141.39999389648</ele>
        <time>2024-05-21T08:16:17.000Z</time>
      </trkpt>
      <trkpt lat="45.3414" lon="4.78337">
        <ele>141.39999389648</ele>
        <time>2024-05-21T08:16:18.000Z</time>
      </trkpt>
      <trkpt lat="45.34134" lon="4.78338">
        <ele>141.39999389648</ele>
        <time>2024-05-21T08:16:19.000Z</time>
      </trkpt>
      <trkpt lat="45.34128" lon="4.78339">
        <ele>141.39999389648</ele>
        <time>2024-05-21T08:16:20.000Z</time>
      </trkpt>
      <trkpt lat="45.34122" lon="4.7834">
        <ele>141.39999389648</ele>
        <time>2024-05-21T08:16:21.000Z</time>
      </trkpt>
      <trkpt lat="45.34116" lon="4.78341">
        <ele>141.39999389648</ele>
        <time>2024-05-21T08:16:22.000Z</time>
      </trkpt>
      <trkpt lat="45.3411" lon="4.78342">
        <ele>141.39999389648</ele>
        <time>2024-05-21T08:16:23.000Z</time>
      </trkpt>
      <trkpt lat="45.34104" lon="4.78343">
        <ele>141.39999389648</ele>
        <time>2024-05-21T08:16:24.000Z</time>
      </trkpt>
      <trkpt lat="45.34098" lon="4.78344">
        <ele>141.39999389648</ele>
        <time>2024-05-21T08:16:25.000Z</time>
      </trkpt>
      <trkpt lat="45.34092" lon="4.78345">
        <ele>141.19999694824</ele>
        <time>2024-05-21T08:16:26.000Z</time>
      </trkpt>
      <trkpt lat="45.34086" lon="4.78346">
        <ele>141.19999694824</ele>
        <time>2024-05-21T08:16:27.000Z</time>
      </trkpt>
      <trkpt lat="45.3408" lon="4.78348">
        <ele>141.19999694824</ele>
        <time>2024-05-21T08:16:28.000Z</time>
      </trkpt>
      <trkpt lat="45.34074" lon="4.78349">
        <ele>141</ele>
        <time>2024-05-21T08:16:29.000Z</time>
      </trkpt>
      <trkpt lat="45.34069" lon="4.78352">
        <ele>141</ele>
        <time>2024-05-21T08:16:30.000Z</time>
      </trkpt>
      <trkpt lat="45.34064" lon="4.78357">
        <ele>141</ele>
        <time>2024-05-21T08:16:31.000Z</time>
      </trkpt>
      <trkpt lat="45.34061" lon="4.78361">
        <ele>141</ele>
        <time>2024-05-21T08:16:32.000Z</time>
      </trkpt>
      <trkpt lat="45.34058" lon="4.78367">
        <ele>141</ele>
        <time>2024-05-21T08:16:33.000Z</time>
      </trkpt>
      <trkpt lat="45.34056" lon="4.78373">
        <ele>141.19999694824</ele>
        <time>2024-05-21T08:16:34.000Z</time>
      </trkpt>
      <trkpt lat="45.34055" lon="4.7838">
        <ele>141.60000610352</ele>
        <time>2024-05-21T08:16:35.000Z</time>
      </trkpt>
      <trkpt lat="45.34053" lon="4.78386">
        <ele>141.60000610352</ele>
        <time>2024-05-21T08:16:36.000Z</time>
      </trkpt>
      <trkpt lat="45.34052" lon="4.78393">
        <ele>141.80000305176</ele>
        <time>2024-05-21T08:16:37.000Z</time>
      </trkpt>
      <trkpt lat="45.34052" lon="4.78398">
        <ele>142.19999694824</ele>
        <time>2024-05-21T08:16:38.000Z</time>
      </trkpt>
      <trkpt lat="45.34051" lon="4.78402">
        <ele>142.80000305176</ele>
        <time>2024-05-21T08:16:39.000Z</time>
      </trkpt>
      <trkpt lat="45.3405" lon="4.78407">
        <ele>143.19999694824</ele>
        <time>2024-05-21T08:16:40.000Z</time>
      </trkpt>
      <trkpt lat="45.3405" lon="4.78411">
        <ele>143.60000610352</ele>
        <time>2024-05-21T08:16:41.000Z</time>
      </trkpt>
      <trkpt lat="45.34049" lon="4.78415">
        <ele>144</ele>
        <time>2024-05-21T08:16:42.000Z</time>
      </trkpt>
      <trkpt lat="45.34049" lon="4.78419">
        <ele>144.60000610352</ele>
        <time>2024-05-21T08:16:43.000Z</time>
      </trkpt>
      <trkpt lat="45.34048" lon="4.78423">
        <ele>145</ele>
        <time>2024-05-21T08:16:44.000Z</time>
      </trkpt>
      <trkpt lat="45.34048" lon="4.78426">
        <ele>145.39999389648</ele>
        <time>2024-05-21T08:16:45.000Z</time>
      </trkpt>
      <trkpt lat="45.34047" lon="4.78429">
        <ele>145.80000305176</ele>
        <time>2024-05-21T08:16:46.000Z</time>
      </trkpt>
      <trkpt lat="45.34046" lon="4.78433">
        <ele>146.19999694824</ele>
        <time>2024-05-21T08:16:47.000Z</time>
      </trkpt>
      <trkpt lat="45.34044" lon="4.78435">
        <ele>146.39999389648</ele>
        <time>2024-05-21T08:16:48.000Z</time>
      </trkpt>
      <trkpt lat="45.34042" lon="4.78439">
        <ele>146.60000610352</ele>
        <time>2024-05-21T08:16:49.000Z</time>
      </trkpt>
      <trkpt lat="45.34039" lon="4.78441">
        <ele>146.80000305176</ele>
        <time>2024-05-21T08:16:50.000Z</time>
      </trkpt>
      <trkpt lat="45.34037" lon="4.78443">
        <ele>146.80000305176</ele>
        <time>2024-05-21T08:16:51.000Z</time>
      </trkpt>
      <trkpt lat="45.34034" lon="4.78444">
        <ele>146.80000305176</ele>
        <time>2024-05-21T08:16:52.000Z</time>
      </trkpt>
      <trkpt lat="45.3403" lon="4.78446">
        <ele>146.80000305176</ele>
        <time>2024-05-21T08:16:53.000Z</time>
      </trkpt>
      <trkpt lat="45.34027" lon="4.78447">
        <ele>146.80000305176</ele>
        <time>2024-05-21T08:16:54.000Z</time>
      </trkpt>
      <trkpt lat="45.34023" lon="4.78447">
        <ele>146.80000305176</ele>
        <time>2024-05-21T08:16:55.000Z</time>
      </trkpt>
      <trkpt lat="45.34019" lon="4.78448">
        <ele>146.80000305176</ele>
        <time>2024-05-21T08:16:56.000Z</time>
      </trkpt>
      <trkpt lat="45.34014" lon="4.78448">
        <ele>146.80000305176</ele>
        <time>2024-05-21T08:16:57.000Z</time>
      </trkpt>
      <trkpt lat="45.34011" lon="4.78448">
        <ele>146.80000305176</ele>
        <time>2024-05-21T08:16:58.000Z</time>
      </trkpt>
      <trkpt lat="45.34006" lon="4.78448">
        <ele>146.80000305176</ele>
        <time>2024-05-21T08:16:59.000Z</time>
      </trkpt>
      <trkpt lat="45.34002" lon="4.78447">
        <ele>146.80000305176</ele>
        <time>2024-05-21T08:17:00.000Z</time>
      </trkpt>
      <trkpt lat="45.33998" lon="4.78445">
        <ele>146.80000305176</ele>
        <time>2024-05-21T08:17:01.000Z</time>
      </trkpt>
      <trkpt lat="45.33994" lon="4.78442">
        <ele>146.80000305176</ele>
        <time>2024-05-21T08:17:02.000Z</time>
      </trkpt>
      <trkpt lat="45.3399" lon="4.78437">
        <ele>146.80000305176</ele>
        <time>2024-05-21T08:17:03.000Z</time>
      </trkpt>
      <trkpt lat="45.33988" lon="4.78431">
        <ele>146.60000610352</ele>
        <time>2024-05-21T08:17:04.000Z</time>
      </trkpt>
      <trkpt lat="45.33985" lon="4.78424">
        <ele>146.60000610352</ele>
        <time>2024-05-21T08:17:05.000Z</time>
      </trkpt>
      <trkpt lat="45.33983" lon="4.78412">
        <ele>146.39999389648</ele>
        <time>2024-05-21T08:17:06.000Z</time>
      </trkpt>
      <trkpt lat="45.33982" lon="4.78404">
        <ele>145.80000305176</ele>
        <time>2024-05-21T08:17:07.000Z</time>
      </trkpt>
      <trkpt lat="45.33981" lon="4.78394">
        <ele>145.19999694824</ele>
        <time>2024-05-21T08:17:08.000Z</time>
      </trkpt>
      <trkpt lat="45.33979" lon="4.78383">
        <ele>144.39999389648</ele>
        <time>2024-05-21T08:17:09.000Z</time>
      </trkpt>
      <trkpt lat="45.33976" lon="4.78374">
        <ele>143.39999389648</ele>
        <time>2024-05-21T08:17:10.000Z</time>
      </trkpt>
      <trkpt lat="45.33971" lon="4.78366">
        <ele>142.80000305176</ele>
        <time>2024-05-21T08:17:11.000Z</time>
      </trkpt>
      <trkpt lat="45.33966" lon="4.78364">
        <ele>142.39999389648</ele>
        <time>2024-05-21T08:17:12.000Z</time>
      </trkpt>
      <trkpt lat="45.33958" lon="4.78364">
        <ele>142</ele>
        <time>2024-05-21T08:17:13.000Z</time>
      </trkpt>
      <trkpt lat="45.33953" lon="4.78365">
        <ele>141.39999389648</ele>
        <time>2024-05-21T08:17:14.000Z</time>
      </trkpt>
      <trkpt lat="45.33947" lon="4.78366">
        <ele>141.39999389648</ele>
        <time>2024-05-21T08:17:15.000Z</time>
      </trkpt>
      <trkpt lat="45.33941" lon="4.78368">
        <ele>141</ele>
        <time>2024-05-21T08:17:16.000Z</time>
      </trkpt>
      <trkpt lat="45.33936" lon="4.78369">
        <ele>141</ele>
        <time>2024-05-21T08:17:17.000Z</time>
      </trkpt>
      <trkpt lat="45.3393" lon="4.7837">
        <ele>141</ele>
        <time>2024-05-21T08:17:18.000Z</time>
      </trkpt>
      <trkpt lat="45.33924" lon="4.78371">
        <ele>141</ele>
        <time>2024-05-21T08:17:19.000Z</time>
      </trkpt>
      <trkpt lat="45.33917" lon="4.78372">
        <ele>141.19999694824</ele>
        <time>2024-05-21T08:17:20.000Z</time>
      </trkpt>
      <trkpt lat="45.33911" lon="4.78373">
        <ele>141.39999389648</ele>
        <time>2024-05-21T08:17:21.000Z</time>
      </trkpt>
      <trkpt lat="45.33907" lon="4.78373">
        <ele>141.39999389648</ele>
        <time>2024-05-21T08:17:22.000Z</time>
      </trkpt>
      <trkpt lat="45.33901" lon="4.78375">
        <ele>141.39999389648</ele>
        <time>2024-05-21T08:17:23.000Z</time>
      </trkpt>
      <trkpt lat="45.33893" lon="4.78376">
        <ele>141.60000610352</ele>
        <time>2024-05-21T08:17:24.000Z</time>
      </trkpt>
      <trkpt lat="45.33888" lon="4.78377">
        <ele>141.80000305176</ele>
        <time>2024-05-21T08:17:25.000Z</time>
      </trkpt>
      <trkpt lat="45.33881" lon="4.78377">
        <ele>141.80000305176</ele>
        <time>2024-05-21T08:17:26.000Z</time>
      </trkpt>
      <trkpt lat="45.33875" lon="4.78378">
        <ele>141.80000305176</ele>
        <time>2024-05-21T08:17:27.000Z</time>
      </trkpt>
      <trkpt lat="45.33869" lon="4.78379">
        <ele>141.80000305176</ele>
        <time>2024-05-21T08:17:28.000Z</time>
      </trkpt>
      <trkpt lat="45.33862" lon="4.78381">
        <ele>141.60000610352</ele>
        <time>2024-05-21T08:17:29.000Z</time>
      </trkpt>
      <trkpt lat="45.33856" lon="4.78382">
        <ele>141.60000610352</ele>
        <time>2024-05-21T08:17:30.000Z</time>
      </trkpt>
      <trkpt lat="45.33851" lon="4.78383">
        <ele>141.60000610352</ele>
        <time>2024-05-21T08:17:31.000Z</time>
      </trkpt>
      <trkpt lat="45.33844" lon="4.78384">
        <ele>141.60000610352</ele>
        <time>2024-05-21T08:17:32.000Z</time>
      </trkpt>
      <trkpt lat="45.33837" lon="4.78385">
        <ele>141.60000610352</ele>
        <time>2024-05-21T08:17:33.000Z</time>
      </trkpt>
      <trkpt lat="45.33832" lon="4.78386">
        <ele>141.60000610352</ele>
        <time>2024-05-21T08:17:34.000Z</time>
      </trkpt>
      <trkpt lat="45.33825" lon="4.78387">
        <ele>141.60000610352</ele>
        <time>2024-05-21T08:17:35.000Z</time>
      </trkpt>
      <trkpt lat="45.3382" lon="4.78388">
        <ele>141.60000610352</ele>
        <time>2024-05-21T08:17:36.000Z</time>
      </trkpt>
      <trkpt lat="45.33813" lon="4.78389">
        <ele>141.60000610352</ele>
        <time>2024-05-21T08:17:37.000Z</time>
      </trkpt>
      <trkpt lat="45.33806" lon="4.7839">
        <ele>141.39999389648</ele>
        <time>2024-05-21T08:17:38.000Z</time>
      </trkpt>
      <trkpt lat="45.33801" lon="4.78391">
        <ele>141.39999389648</ele>
        <time>2024-05-21T08:17:39.000Z</time>
      </trkpt>
      <trkpt lat="45.33794" lon="4.78392">
        <ele>141.39999389648</ele>
        <time>2024-05-21T08:17:40.000Z</time>
      </trkpt>
      <trkpt lat="45.33788" lon="4.78394">
        <ele>141.39999389648</ele>
        <time>2024-05-21T08:17:41.000Z</time>
      </trkpt>
      <trkpt lat="45.33781" lon="4.78395">
        <ele>141.39999389648</ele>
        <time>2024-05-21T08:17:42.000Z</time>
      </trkpt>
      <trkpt lat="45.33776" lon="4.78396">
        <ele>141.39999389648</ele>
        <time>2024-05-21T08:17:43.000Z</time>
      </trkpt>
      <trkpt lat="45.33768" lon="4.78397">
        <ele>141.39999389648</ele>
        <time>2024-05-21T08:17:44.000Z</time>
      </trkpt>
      <trkpt lat="45.33762" lon="4.78398">
        <ele>141.39999389648</ele>
        <time>2024-05-21T08:17:45.000Z</time>
      </trkpt>
      <trkpt lat="45.33757" lon="4.78398">
        <ele>141.60000610352</ele>
        <time>2024-05-21T08:17:46.000Z</time>
      </trkpt>
      <trkpt lat="45.33751" lon="4.78399">
        <ele>141.60000610352</ele>
        <time>2024-05-21T08:17:47.000Z</time>
      </trkpt>
      <trkpt lat="45.33744" lon="4.784">
        <ele>141.60000610352</ele>
        <time>2024-05-21T08:17:48.000Z</time>
      </trkpt>
      <trkpt lat="45.33739" lon="4.78401">
        <ele>141.60000610352</ele>
        <time>2024-05-21T08:17:49.000Z</time>
      </trkpt>
      <trkpt lat="45.33731" lon="4.78402">
        <ele>141.60000610352</ele>
        <time>2024-05-21T08:17:50.000Z</time>
      </trkpt>
      <trkpt lat="45.33725" lon="4.78403">
        <ele>141.60000610352</ele>
        <time>2024-05-21T08:17:51.000Z</time>
      </trkpt>
      <trkpt lat="45.3372" lon="4.78404">
        <ele>141.60000610352</ele>
        <time>2024-05-21T08:17:52.000Z</time>
      </trkpt>
      <trkpt lat="45.33712" lon="4.78405">
        <ele>141.60000610352</ele>
        <time>2024-05-21T08:17:53.000Z</time>
      </trkpt>
      <trkpt lat="45.33707" lon="4.78406">
        <ele>141.60000610352</ele>
        <time>2024-05-21T08:17:54.000Z</time>
      </trkpt>
      <trkpt lat="45.337" lon="4.78408">
        <ele>141.60000610352</ele>
        <time>2024-05-21T08:17:55.000Z</time>
      </trkpt>
      <trkpt lat="45.33695" lon="4.78408">
        <ele>141.60000610352</ele>
        <time>2024-05-21T08:17:56.000Z</time>
      </trkpt>
      <trkpt lat="45.33689" lon="4.78409">
        <ele>141.60000610352</ele>
        <time>2024-05-21T08:17:57.000Z</time>
      </trkpt>
      <trkpt lat="45.33683" lon="4.78411">
        <ele>141.60000610352</ele>
        <time>2024-05-21T08:17:58.000Z</time>
      </trkpt>
      <trkpt lat="45.33677" lon="4.78412">
        <ele>141.60000610352</ele>
        <time>2024-05-21T08:17:59.000Z</time>
      </trkpt>
      <trkpt lat="45.33671" lon="4.78413">
        <ele>141.60000610352</ele>
        <time>2024-05-21T08:18:00.000Z</time>
      </trkpt>
      <trkpt lat="45.33664" lon="4.78414">
        <ele>141.80000305176</ele>
        <time>2024-05-21T08:18:01.000Z</time>
      </trkpt>
      <trkpt lat="45.33658" lon="4.78415">
        <ele>141.80000305176</ele>
        <time>2024-05-21T08:18:02.000Z</time>
      </trkpt>
      <trkpt lat="45.33652" lon="4.78416">
        <ele>141.80000305176</ele>
        <time>2024-05-21T08:18:03.000Z</time>
      </trkpt>
      <trkpt lat="45.33645" lon="4.78417">
        <ele>141.80000305176</ele>
        <time>2024-05-21T08:18:04.000Z</time>
      </trkpt>
      <trkpt lat="45.33638" lon="4.78418">
        <ele>141.80000305176</ele>
        <time>2024-05-21T08:18:05.000Z</time>
      </trkpt>
      <trkpt lat="45.33633" lon="4.78419">
        <ele>141.80000305176</ele>
        <time>2024-05-21T08:18:06.000Z</time>
      </trkpt>
      <trkpt lat="45.33627" lon="4.7842">
        <ele>141.80000305176</ele>
        <time>2024-05-21T08:18:07.000Z</time>
      </trkpt>
      <trkpt lat="45.33621" lon="4.78421">
        <ele>141.60000610352</ele>
        <time>2024-05-21T08:18:08.000Z</time>
      </trkpt>
      <trkpt lat="45.33615" lon="4.78422">
        <ele>141.60000610352</ele>
        <time>2024-05-21T08:18:09.000Z</time>
      </trkpt>
      <trkpt lat="45.33608" lon="4.78424">
        <ele>141.60000610352</ele>
        <time>2024-05-21T08:18:10.000Z</time>
      </trkpt>
      <trkpt lat="45.33602" lon="4.78425">
        <ele>141.60000610352</ele>
        <time>2024-05-21T08:18:11.000Z</time>
      </trkpt>
      <trkpt lat="45.33596" lon="4.78426">
        <ele>141.60000610352</ele>
        <time>2024-05-21T08:18:12.000Z</time>
      </trkpt>
      <trkpt lat="45.3359" lon="4.78426">
        <ele>141.60000610352</ele>
        <time>2024-05-21T08:18:13.000Z</time>
      </trkpt>
      <trkpt lat="45.33584" lon="4.78428">
        <ele>141.60000610352</ele>
        <time>2024-05-21T08:18:14.000Z</time>
      </trkpt>
      <trkpt lat="45.33578" lon="4.78429">
        <ele>141.60000610352</ele>
        <time>2024-05-21T08:18:15.000Z</time>
      </trkpt>
      <trkpt lat="45.33571" lon="4.7843">
        <ele>141.60000610352</ele>
        <time>2024-05-21T08:18:16.000Z</time>
      </trkpt>
      <trkpt lat="45.33565" lon="4.78431">
        <ele>141.80000305176</ele>
        <time>2024-05-21T08:18:17.000Z</time>
      </trkpt>
      <trkpt lat="45.33559" lon="4.78432">
        <ele>141.80000305176</ele>
        <time>2024-05-21T08:18:18.000Z</time>
      </trkpt>
      <trkpt lat="45.33553" lon="4.78433">
        <ele>141.80000305176</ele>
        <time>2024-05-21T08:18:19.000Z</time>
      </trkpt>
      <trkpt lat="45.33547" lon="4.78434">
        <ele>141.80000305176</ele>
        <time>2024-05-21T08:18:20.000Z</time>
      </trkpt>
      <trkpt lat="45.33541" lon="4.78435">
        <ele>141.80000305176</ele>
        <time>2024-05-21T08:18:21.000Z</time>
      </trkpt>
      <trkpt lat="45.33535" lon="4.78436">
        <ele>141.80000305176</ele>
        <time>2024-05-21T08:18:22.000Z</time>
      </trkpt>
      <trkpt lat="45.33529" lon="4.78437">
        <ele>141.60000610352</ele>
        <time>2024-05-21T08:18:23.000Z</time>
      </trkpt>
      <trkpt lat="45.33523" lon="4.78438">
        <ele>141.60000610352</ele>
        <time>2024-05-21T08:18:24.000Z</time>
      </trkpt>
      <trkpt lat="45.33517" lon="4.7844">
        <ele>141.60000610352</ele>
        <time>2024-05-21T08:18:25.000Z</time>
      </trkpt>
      <trkpt lat="45.33511" lon="4.78441">
        <ele>141.60000610352</ele>
        <time>2024-05-21T08:18:26.000Z</time>
      </trkpt>
      <trkpt lat="45.33504" lon="4.78442">
        <ele>141.60000610352</ele>
        <time>2024-05-21T08:18:27.000Z</time>
      </trkpt>
      <trkpt lat="45.33499" lon="4.78443">
        <ele>141.60000610352</ele>
        <time>2024-05-21T08:18:28.000Z</time>
      </trkpt>
      <trkpt lat="45.33492" lon="4.78444">
        <ele>141.60000610352</ele>
        <time>2024-05-21T08:18:29.000Z</time>
      </trkpt>
      <trkpt lat="45.33486" lon="4.78445">
        <ele>141.60000610352</ele>
        <time>2024-05-21T08:18:30.000Z</time>
      </trkpt>
      <trkpt lat="45.3348" lon="4.78446">
        <ele>141.60000610352</ele>
        <time>2024-05-21T08:18:31.000Z</time>
      </trkpt>
      <trkpt lat="45.33474" lon="4.78446">
        <ele>141.60000610352</ele>
        <time>2024-05-21T08:18:32.000Z</time>
      </trkpt>
      <trkpt lat="45.33468" lon="4.78447">
        <ele>141.60000610352</ele>
        <time>2024-05-21T08:18:33.000Z</time>
      </trkpt>
      <trkpt lat="45.33462" lon="4.78447">
        <ele>141.60000610352</ele>
        <time>2024-05-21T08:18:34.000Z</time>
      </trkpt>
      <trkpt lat="45.33456" lon="4.78448">
        <ele>141.60000610352</ele>
        <time>2024-05-21T08:18:35.000Z</time>
      </trkpt>
      <trkpt lat="45.3345" lon="4.7845">
        <ele>141.60000610352</ele>
        <time>2024-05-21T08:18:36.000Z</time>
      </trkpt>
      <trkpt lat="45.33444" lon="4.78451">
        <ele>141.60000610352</ele>
        <time>2024-05-21T08:18:37.000Z</time>
      </trkpt>
      <trkpt lat="45.33437" lon="4.78452">
        <ele>141.60000610352</ele>
        <time>2024-05-21T08:18:38.000Z</time>
      </trkpt>
      <trkpt lat="45.33431" lon="4.78453">
        <ele>141.60000610352</ele>
        <time>2024-05-21T08:18:39.000Z</time>
      </trkpt>
      <trkpt lat="45.33425" lon="4.78454">
        <ele>141.80000305176</ele>
        <time>2024-05-21T08:18:40.000Z</time>
      </trkpt>
      <trkpt lat="45.33419" lon="4.78454">
        <ele>141.80000305176</ele>
        <time>2024-05-21T08:18:41.000Z</time>
      </trkpt>
      <trkpt lat="45.33414" lon="4.78455">
        <ele>141.80000305176</ele>
        <time>2024-05-21T08:18:42.000Z</time>
      </trkpt>
      <trkpt lat="45.33407" lon="4.78456">
        <ele>141.80000305176</ele>
        <time>2024-05-21T08:18:43.000Z</time>
      </trkpt>
      <trkpt lat="45.33401" lon="4.78458">
        <ele>141.80000305176</ele>
        <time>2024-05-21T08:18:44.000Z</time>
      </trkpt>
      <trkpt lat="45.33395" lon="4.78459">
        <ele>141.80000305176</ele>
        <time>2024-05-21T08:18:45.000Z</time>
      </trkpt>
      <trkpt lat="45.33389" lon="4.7846">
        <ele>141.60000610352</ele>
        <time>2024-05-21T08:18:46.000Z</time>
      </trkpt>
      <trkpt lat="45.33383" lon="4.78461">
        <ele>141.60000610352</ele>
        <time>2024-05-21T08:18:47.000Z</time>
      </trkpt>
      <trkpt lat="45.33377" lon="4.78462">
        <ele>141.60000610352</ele>
        <time>2024-05-21T08:18:48.000Z</time>
      </trkpt>
      <trkpt lat="45.33371" lon="4.78463">
        <ele>141.60000610352</ele>
        <time>2024-05-21T08:18:49.000Z</time>
      </trkpt>
      <trkpt lat="45.33365" lon="4.78464">
        <ele>141.60000610352</ele>
        <time>2024-05-21T08:18:50.000Z</time>
      </trkpt>
      <trkpt lat="45.33359" lon="4.78465">
        <ele>141.60000610352</ele>
        <time>2024-05-21T08:18:51.000Z</time>
      </trkpt>
      <trkpt lat="45.33352" lon="4.78466">
        <ele>141.80000305176</ele>
        <time>2024-05-21T08:18:52.000Z</time>
      </trkpt>
      <trkpt lat="45.33346" lon="4.78468">
        <ele>141.80000305176</ele>
        <time>2024-05-21T08:18:53.000Z</time>
      </trkpt>
      <trkpt lat="45.3334" lon="4.78469">
        <ele>141.80000305176</ele>
        <time>2024-05-21T08:18:54.000Z</time>
      </trkpt>
      <trkpt lat="45.33333" lon="4.7847">
        <ele>141.80000305176</ele>
        <time>2024-05-21T08:18:55.000Z</time>
      </trkpt>
      <trkpt lat="45.33327" lon="4.78471">
        <ele>142</ele>
        <time>2024-05-21T08:18:56.000Z</time>
      </trkpt>
      <trkpt lat="45.3332" lon="4.78473">
        <ele>142</ele>
        <time>2024-05-21T08:18:57.000Z</time>
      </trkpt>
      <trkpt lat="45.33314" lon="4.78474">
        <ele>142</ele>
        <time>2024-05-21T08:18:58.000Z</time>
      </trkpt>
      <trkpt lat="45.33308" lon="4.78475">
        <ele>142</ele>
        <time>2024-05-21T08:18:59.000Z</time>
      </trkpt>
      <trkpt lat="45.33301" lon="4.78476">
        <ele>142</ele>
        <time>2024-05-21T08:19:00.000Z</time>
      </trkpt>
      <trkpt lat="45.33294" lon="4.78477">
        <ele>141.80000305176</ele>
        <time>2024-05-21T08:19:01.000Z</time>
      </trkpt>
      <trkpt lat="45.33288" lon="4.78479">
        <ele>141.80000305176</ele>
        <time>2024-05-21T08:19:02.000Z</time>
      </trkpt>
      <trkpt lat="45.33283" lon="4.78479">
        <ele>141.80000305176</ele>
        <time>2024-05-21T08:19:03.000Z</time>
      </trkpt>
      <trkpt lat="45.33275" lon="4.78481">
        <ele>141.80000305176</ele>
        <time>2024-05-21T08:19:04.000Z</time>
      </trkpt>
      <trkpt lat="45.3327" lon="4.78482">
        <ele>141.80000305176</ele>
        <time>2024-05-21T08:19:05.000Z</time>
      </trkpt>
      <trkpt lat="45.33263" lon="4.78483">
        <ele>141.60000610352</ele>
        <time>2024-05-21T08:19:06.000Z</time>
      </trkpt>
      <trkpt lat="45.33256" lon="4.78484">
        <ele>141.80000305176</ele>
        <time>2024-05-21T08:19:07.000Z</time>
      </trkpt>
      <trkpt lat="45.33249" lon="4.78485">
        <ele>141.80000305176</ele>
        <time>2024-05-21T08:19:08.000Z</time>
      </trkpt>
      <trkpt lat="45.33244" lon="4.78486">
        <ele>141.80000305176</ele>
        <time>2024-05-21T08:19:09.000Z</time>
      </trkpt>
      <trkpt lat="45.33238" lon="4.78487">
        <ele>141.80000305176</ele>
        <time>2024-05-21T08:19:10.000Z</time>
      </trkpt>
      <trkpt lat="45.33231" lon="4.78488">
        <ele>141.80000305176</ele>
        <time>2024-05-21T08:19:11.000Z</time>
      </trkpt>
      <trkpt lat="45.33225" lon="4.78489">
        <ele>141.80000305176</ele>
        <time>2024-05-21T08:19:12.000Z</time>
      </trkpt>
      <trkpt lat="45.33219" lon="4.7849">
        <ele>141.80000305176</ele>
        <time>2024-05-21T08:19:13.000Z</time>
      </trkpt>
      <trkpt lat="45.33213" lon="4.78491">
        <ele>142</ele>
        <time>2024-05-21T08:19:14.000Z</time>
      </trkpt>
      <trkpt lat="45.33206" lon="4.78492">
        <ele>142</ele>
        <time>2024-05-21T08:19:15.000Z</time>
      </trkpt>
      <trkpt lat="45.332" lon="4.78494">
        <ele>142</ele>
        <time>2024-05-21T08:19:16.000Z</time>
      </trkpt>
      <trkpt lat="45.33192" lon="4.78495">
        <ele>142</ele>
        <time>2024-05-21T08:19:17.000Z</time>
      </trkpt>
      <trkpt lat="45.33187" lon="4.78496">
        <ele>142</ele>
        <time>2024-05-21T08:19:18.000Z</time>
      </trkpt>
      <trkpt lat="45.3318" lon="4.78498">
        <ele>142</ele>
        <time>2024-05-21T08:19:19.000Z</time>
      </trkpt>
      <trkpt lat="45.33175" lon="4.78498">
        <ele>142</ele>
        <time>2024-05-21T08:19:20.000Z</time>
      </trkpt>
      <trkpt lat="45.33168" lon="4.785">
        <ele>142</ele>
        <time>2024-05-21T08:19:21.000Z</time>
      </trkpt>
      <trkpt lat="45.33162" lon="4.78501">
        <ele>142</ele>
        <time>2024-05-21T08:19:22.000Z</time>
      </trkpt>
      <trkpt lat="45.33155" lon="4.78502">
        <ele>141.80000305176</ele>
        <time>2024-05-21T08:19:23.000Z</time>
      </trkpt>
      <trkpt lat="45.33149" lon="4.78503">
        <ele>142</ele>
        <time>2024-05-21T08:19:24.000Z</time>
      </trkpt>
      <trkpt lat="45.33143" lon="4.78504">
        <ele>142</ele>
        <time>2024-05-21T08:19:25.000Z</time>
      </trkpt>
      <trkpt lat="45.33137" lon="4.78505">
        <ele>141.80000305176</ele>
        <time>2024-05-21T08:19:26.000Z</time>
      </trkpt>
      <trkpt lat="45.3313" lon="4.78506">
        <ele>141.80000305176</ele>
        <time>2024-05-21T08:19:27.000Z</time>
      </trkpt>
      <trkpt lat="45.33124" lon="4.78507">
        <ele>141.80000305176</ele>
        <time>2024-05-21T08:19:28.000Z</time>
      </trkpt>
      <trkpt lat="45.33118" lon="4.78508">
        <ele>141.80000305176</ele>
        <time>2024-05-21T08:19:29.000Z</time>
      </trkpt>
      <trkpt lat="45.33112" lon="4.78509">
        <ele>141.80000305176</ele>
        <time>2024-05-21T08:19:30.000Z</time>
      </trkpt>
      <trkpt lat="45.33105" lon="4.7851">
        <ele>141.80000305176</ele>
        <time>2024-05-21T08:19:31.000Z</time>
      </trkpt>
      <trkpt lat="45.33099" lon="4.78511">
        <ele>141.60000610352</ele>
        <time>2024-05-21T08:19:32.000Z</time>
      </trkpt>
      <trkpt lat="45.33092" lon="4.78512">
        <ele>141.60000610352</ele>
        <time>2024-05-21T08:19:33.000Z</time>
      </trkpt>
      <trkpt lat="45.33086" lon="4.78513">
        <ele>141.60000610352</ele>
        <time>2024-05-21T08:19:34.000Z</time>
      </trkpt>
      <trkpt lat="45.3308" lon="4.78514">
        <ele>141.60000610352</ele>
        <time>2024-05-21T08:19:35.000Z</time>
      </trkpt>
      <trkpt lat="45.33073" lon="4.78514">
        <ele>141.80000305176</ele>
        <time>2024-05-21T08:19:36.000Z</time>
      </trkpt>
      <trkpt lat="45.33067" lon="4.78516">
        <ele>141.80000305176</ele>
        <time>2024-05-21T08:19:37.000Z</time>
      </trkpt>
      <trkpt lat="45.33061" lon="4.78517">
        <ele>141.80000305176</ele>
        <time>2024-05-21T08:19:38.000Z</time>
      </trkpt>
      <trkpt lat="45.33055" lon="4.78518">
        <ele>141.80000305176</ele>
        <time>2024-05-21T08:19:39.000Z</time>
      </trkpt>
      <trkpt lat="45.33049" lon="4.78519">
        <ele>141.80000305176</ele>
        <time>2024-05-21T08:19:40.000Z</time>
      </trkpt>
      <trkpt lat="45.33042" lon="4.7852">
        <ele>142</ele>
        <time>2024-05-21T08:19:41.000Z</time>
      </trkpt>
      <trkpt lat="45.33036" lon="4.78521">
        <ele>142</ele>
        <time>2024-05-21T08:19:42.000Z</time>
      </trkpt>
      <trkpt lat="45.3303" lon="4.78522">
        <ele>142</ele>
        <time>2024-05-21T08:19:43.000Z</time>
      </trkpt>
      <trkpt lat="45.33024" lon="4.78523">
        <ele>142</ele>
        <time>2024-05-21T08:19:44.000Z</time>
      </trkpt>
      <trkpt lat="45.33018" lon="4.78523">
        <ele>142.19999694824</ele>
        <time>2024-05-21T08:19:45.000Z</time>
      </trkpt>
      <trkpt lat="45.33012" lon="4.78524">
        <ele>142.19999694824</ele>
        <time>2024-05-21T08:19:46.000Z</time>
      </trkpt>
      <trkpt lat="45.33006" lon="4.78524">
        <ele>142.39999389648</ele>
        <time>2024-05-21T08:19:47.000Z</time>
      </trkpt>
      <trkpt lat="45.33001" lon="4.78525">
        <ele>142.39999389648</ele>
        <time>2024-05-21T08:19:48.000Z</time>
      </trkpt>
      <trkpt lat="45.32995" lon="4.78525">
        <ele>142.60000610352</ele>
        <time>2024-05-21T08:19:49.000Z</time>
      </trkpt>
      <trkpt lat="45.3299" lon="4.78526">
        <ele>142.60000610352</ele>
        <time>2024-05-21T08:19:50.000Z</time>
      </trkpt>
      <trkpt lat="45.32986" lon="4.78527">
        <ele>142.60000610352</ele>
        <time>2024-05-21T08:19:51.000Z</time>
      </trkpt>
      <trkpt lat="45.32982" lon="4.78527">
        <ele>142.80000305176</ele>
        <time>2024-05-21T08:19:52.000Z</time>
      </trkpt>
      <trkpt lat="45.32978" lon="4.78528">
        <ele>143</ele>
        <time>2024-05-21T08:19:53.000Z</time>
      </trkpt>
      <trkpt lat="45.32973" lon="4.78527">
        <ele>143.19999694824</ele>
        <time>2024-05-21T08:19:54.000Z</time>
      </trkpt>
      <trkpt lat="45.32969" lon="4.78527">
        <ele>143.39999389648</ele>
        <time>2024-05-21T08:19:55.000Z</time>
      </trkpt>
      <trkpt lat="45.32965" lon="4.78527">
        <ele>143.39999389648</ele>
        <time>2024-05-21T08:19:56.000Z</time>
      </trkpt>
      <trkpt lat="45.32962" lon="4.78525">
        <ele>143.39999389648</ele>
        <time>2024-05-21T08:19:57.000Z</time>
      </trkpt>
      <trkpt lat="45.32959" lon="4.78521">
        <ele>143.60000610352</ele>
        <time>2024-05-21T08:19:58.000Z</time>
      </trkpt>
      <trkpt lat="45.32956" lon="4.78516">
        <ele>143.80000305176</ele>
        <time>2024-05-21T08:19:59.000Z</time>
      </trkpt>
      <trkpt lat="45.32954" lon="4.78511">
        <ele>143.80000305176</ele>
        <time>2024-05-21T08:20:00.000Z</time>
      </trkpt>
      <trkpt lat="45.32951" lon="4.78505">
        <ele>143.80000305176</ele>
        <time>2024-05-21T08:20:01.000Z</time>
      </trkpt>
      <trkpt lat="45.32948" lon="4.78499">
        <ele>143.80000305176</ele>
        <time>2024-05-21T08:20:02.000Z</time>
      </trkpt>
      <trkpt lat="45.32945" lon="4.78493">
        <ele>143.60000610352</ele>
        <time>2024-05-21T08:20:03.000Z</time>
      </trkpt>
      <trkpt lat="45.32943" lon="4.78487">
        <ele>143.39999389648</ele>
        <time>2024-05-21T08:20:04.000Z</time>
      </trkpt>
      <trkpt lat="45.3294" lon="4.7848">
        <ele>143.39999389648</ele>
        <time>2024-05-21T08:20:05.000Z</time>
      </trkpt>
      <trkpt lat="45.32937" lon="4.78474">
        <ele>143.19999694824</ele>
        <time>2024-05-21T08:20:06.000Z</time>
      </trkpt>
      <trkpt lat="45.32934" lon="4.78468">
        <ele>143.19999694824</ele>
        <time>2024-05-21T08:20:07.000Z</time>
      </trkpt>
      <trkpt lat="45.32931" lon="4.78462">
        <ele>143.19999694824</ele>
        <time>2024-05-21T08:20:08.000Z</time>
      </trkpt>
      <trkpt lat="45.32928" lon="4.78456">
        <ele>143.19999694824</ele>
        <time>2024-05-21T08:20:09.000Z</time>
      </trkpt>
      <trkpt lat="45.32925" lon="4.7845">
        <ele>143.19999694824</ele>
        <time>2024-05-21T08:20:10.000Z</time>
      </trkpt>
      <trkpt lat="45.32923" lon="4.78444">
        <ele>143.19999694824</ele>
        <time>2024-05-21T08:20:11.000Z</time>
      </trkpt>
      <trkpt lat="45.3292" lon="4.78438">
        <ele>143.19999694824</ele>
        <time>2024-05-21T08:20:12.000Z</time>
      </trkpt>
      <trkpt lat="45.32916" lon="4.78432">
        <ele>143.19999694824</ele>
        <time>2024-05-21T08:20:13.000Z</time>
      </trkpt>
      <trkpt lat="45.32913" lon="4.78426">
        <ele>143.19999694824</ele>
        <time>2024-05-21T08:20:14.000Z</time>
      </trkpt>
      <trkpt lat="45.3291" lon="4.7842">
        <ele>143.19999694824</ele>
        <time>2024-05-21T08:20:15.000Z</time>
      </trkpt>
      <trkpt lat="45.32907" lon="4.78413">
        <ele>143</ele>
        <time>2024-05-21T08:20:16.000Z</time>
      </trkpt>
      <trkpt lat="45.32903" lon="4.78408">
        <ele>142.80000305176</ele>
        <time>2024-05-21T08:20:17.000Z</time>
      </trkpt>
      <trkpt lat="45.329" lon="4.78401">
        <ele>142.60000610352</ele>
        <time>2024-05-21T08:20:18.000Z</time>
      </trkpt>
      <trkpt lat="45.32896" lon="4.78394">
        <ele>142.19999694824</ele>
        <time>2024-05-21T08:20:19.000Z</time>
      </trkpt>
      <trkpt lat="45.32892" lon="4.78387">
        <ele>142.19999694824</ele>
        <time>2024-05-21T08:20:20.000Z</time>
      </trkpt>
      <trkpt lat="45.32888" lon="4.7838">
        <ele>142.19999694824</ele>
        <time>2024-05-21T08:20:21.000Z</time>
      </trkpt>
      <trkpt lat="45.32885" lon="4.78372">
        <ele>142.19999694824</ele>
        <time>2024-05-21T08:20:22.000Z</time>
      </trkpt>
      <trkpt lat="45.32882" lon="4.78364">
        <ele>142.19999694824</ele>
        <time>2024-05-21T08:20:23.000Z</time>
      </trkpt>
      <trkpt lat="45.32879" lon="4.78354">
        <ele>142.19999694824</ele>
        <time>2024-05-21T08:20:24.000Z</time>
      </trkpt>
      <trkpt lat="45.32877" lon="4.78344">
        <ele>141.80000305176</ele>
        <time>2024-05-21T08:20:25.000Z</time>
      </trkpt>
      <trkpt lat="45.32874" lon="4.78335">
        <ele>141.39999389648</ele>
        <time>2024-05-21T08:20:26.000Z</time>
      </trkpt>
      <trkpt lat="45.32871" lon="4.78326">
        <ele>141.19999694824</ele>
        <time>2024-05-21T08:20:27.000Z</time>
      </trkpt>
      <trkpt lat="45.32868" lon="4.78317">
        <ele>140.80000305176</ele>
        <time>2024-05-21T08:20:28.000Z</time>
      </trkpt>
      <trkpt lat="45.32865" lon="4.78309">
        <ele>140.60000610352</ele>
        <time>2024-05-21T08:20:29.000Z</time>
      </trkpt>
      <trkpt lat="45.32863" lon="4.78301">
        <ele>140.60000610352</ele>
        <time>2024-05-21T08:20:30.000Z</time>
      </trkpt>
      <trkpt lat="45.3286" lon="4.78293">
        <ele>140.60000610352</ele>
        <time>2024-05-21T08:20:31.000Z</time>
      </trkpt>
      <trkpt lat="45.32858" lon="4.78285">
        <ele>140.60000610352</ele>
        <time>2024-05-21T08:20:32.000Z</time>
      </trkpt>
      <trkpt lat="45.32856" lon="4.78277">
        <ele>140.60000610352</ele>
        <time>2024-05-21T08:20:33.000Z</time>
      </trkpt>
      <trkpt lat="45.32853" lon="4.78269">
        <ele>140.60000610352</ele>
        <time>2024-05-21T08:20:34.000Z</time>
      </trkpt>
      <trkpt lat="45.32851" lon="4.78261">
        <ele>140.60000610352</ele>
        <time>2024-05-21T08:20:35.000Z</time>
      </trkpt>
      <trkpt lat="45.32849" lon="4.78254">
        <ele>140.80000305176</ele>
        <time>2024-05-21T08:20:36.000Z</time>
      </trkpt>
      <trkpt lat="45.32846" lon="4.78246">
        <ele>140.80000305176</ele>
        <time>2024-05-21T08:20:37.000Z</time>
      </trkpt>
      <trkpt lat="45.32844" lon="4.78238">
        <ele>140.80000305176</ele>
        <time>2024-05-21T08:20:38.000Z</time>
      </trkpt>
      <trkpt lat="45.32842" lon="4.7823">
        <ele>141</ele>
        <time>2024-05-21T08:20:39.000Z</time>
      </trkpt>
      <trkpt lat="45.3284" lon="4.78223">
        <ele>141</ele>
        <time>2024-05-21T08:20:40.000Z</time>
      </trkpt>
      <trkpt lat="45.32838" lon="4.78215">
        <ele>141</ele>
        <time>2024-05-21T08:20:41.000Z</time>
      </trkpt>
      <trkpt lat="45.32836" lon="4.78208">
        <ele>141</ele>
        <time>2024-05-21T08:20:42.000Z</time>
      </trkpt>
      <trkpt lat="45.32834" lon="4.78201">
        <ele>141</ele>
        <time>2024-05-21T08:20:43.000Z</time>
      </trkpt>
      <trkpt lat="45.32832" lon="4.78194">
        <ele>141</ele>
        <time>2024-05-21T08:20:44.000Z</time>
      </trkpt>
      <trkpt lat="45.3283" lon="4.78187">
        <ele>141</ele>
        <time>2024-05-21T08:20:45.000Z</time>
      </trkpt>
      <trkpt lat="45.32829" lon="4.78181">
        <ele>141.19999694824</ele>
        <time>2024-05-21T08:20:46.000Z</time>
      </trkpt>
      <trkpt lat="45.32828" lon="4.78175">
        <ele>141.19999694824</ele>
        <time>2024-05-21T08:20:47.000Z</time>
      </trkpt>
      <trkpt lat="45.32827" lon="4.78171">
        <ele>141.19999694824</ele>
        <time>2024-05-21T08:20:48.000Z</time>
      </trkpt>
      <trkpt lat="45.32826" lon="4.78168">
        <ele>141.19999694824</ele>
        <time>2024-05-21T08:20:49.000Z</time>
      </trkpt>
      <trkpt lat="45.32825" lon="4.78165">
        <ele>141.39999389648</ele>
        <time>2024-05-21T08:20:50.000Z</time>
      </trkpt>
      <trkpt lat="45.32822" lon="4.78163">
        <ele>141.60000610352</ele>
        <time>2024-05-21T08:20:51.000Z</time>
      </trkpt>
      <trkpt lat="45.3282" lon="4.78161">
        <ele>141.80000305176</ele>
        <time>2024-05-21T08:20:52.000Z</time>
      </trkpt>
      <trkpt lat="45.32816" lon="4.78161">
        <ele>141.80000305176</ele>
        <time>2024-05-21T08:20:53.000Z</time>
      </trkpt>
      <trkpt lat="45.32812" lon="4.78162">
        <ele>141.80000305176</ele>
        <time>2024-05-21T08:20:54.000Z</time>
      </trkpt>
      <trkpt lat="45.32809" lon="4.78163">
        <ele>141.60000610352</ele>
        <time>2024-05-21T08:20:55.000Z</time>
      </trkpt>
      <trkpt lat="45.32804" lon="4.78164">
        <ele>141.60000610352</ele>
        <time>2024-05-21T08:20:56.000Z</time>
      </trkpt>
      <trkpt lat="45.328" lon="4.78166">
        <ele>141.39999389648</ele>
        <time>2024-05-21T08:20:57.000Z</time>
      </trkpt>
      <trkpt lat="45.32796" lon="4.78168">
        <ele>141.19999694824</ele>
        <time>2024-05-21T08:20:58.000Z</time>
      </trkpt>
      <trkpt lat="45.32791" lon="4.7817">
        <ele>141.19999694824</ele>
        <time>2024-05-21T08:20:59.000Z</time>
      </trkpt>
      <trkpt lat="45.32786" lon="4.78171">
        <ele>141</ele>
        <time>2024-05-21T08:21:00.000Z</time>
      </trkpt>
      <trkpt lat="45.32781" lon="4.78173">
        <ele>141</ele>
        <time>2024-05-21T08:21:01.000Z</time>
      </trkpt>
      <trkpt lat="45.32777" lon="4.78175">
        <ele>141</ele>
        <time>2024-05-21T08:21:02.000Z</time>
      </trkpt>
      <trkpt lat="45.32772" lon="4.78177">
        <ele>141</ele>
        <time>2024-05-21T08:21:03.000Z</time>
      </trkpt>
      <trkpt lat="45.32767" lon="4.78179">
        <ele>141</ele>
        <time>2024-05-21T08:21:04.000Z</time>
      </trkpt>
      <trkpt lat="45.32762" lon="4.78181">
        <ele>141</ele>
        <time>2024-05-21T08:21:05.000Z</time>
      </trkpt>
      <trkpt lat="45.32757" lon="4.78183">
        <ele>141</ele>
        <time>2024-05-21T08:21:06.000Z</time>
      </trkpt>
      <trkpt lat="45.32752" lon="4.78186">
        <ele>141</ele>
        <time>2024-05-21T08:21:07.000Z</time>
      </trkpt>
      <trkpt lat="45.32747" lon="4.78188">
        <ele>141</ele>
        <time>2024-05-21T08:21:08.000Z</time>
      </trkpt>
      <trkpt lat="45.32742" lon="4.78189">
        <ele>141</ele>
        <time>2024-05-21T08:21:09.000Z</time>
      </trkpt>
      <trkpt lat="45.32737" lon="4.78191">
        <ele>141</ele>
        <time>2024-05-21T08:21:10.000Z</time>
      </trkpt>
      <trkpt lat="45.32732" lon="4.78193">
        <ele>141</ele>
        <time>2024-05-21T08:21:11.000Z</time>
      </trkpt>
      <trkpt lat="45.32727" lon="4.78195">
        <ele>141</ele>
        <time>2024-05-21T08:21:12.000Z</time>
      </trkpt>
      <trkpt lat="45.32722" lon="4.78198">
        <ele>141</ele>
        <time>2024-05-21T08:21:13.000Z</time>
      </trkpt>
      <trkpt lat="45.32717" lon="4.78199">
        <ele>141</ele>
        <time>2024-05-21T08:21:14.000Z</time>
      </trkpt>
      <trkpt lat="45.32712" lon="4.78201">
        <ele>141.19999694824</ele>
        <time>2024-05-21T08:21:15.000Z</time>
      </trkpt>
      <trkpt lat="45.32707" lon="4.78204">
        <ele>141.19999694824</ele>
        <time>2024-05-21T08:21:16.000Z</time>
      </trkpt>
      <trkpt lat="45.32702" lon="4.78206">
        <ele>141.19999694824</ele>
        <time>2024-05-21T08:21:17.000Z</time>
      </trkpt>
      <trkpt lat="45.32697" lon="4.78208">
        <ele>141.39999389648</ele>
        <time>2024-05-21T08:21:18.000Z</time>
      </trkpt>
      <trkpt lat="45.32692" lon="4.7821">
        <ele>141.39999389648</ele>
        <time>2024-05-21T08:21:19.000Z</time>
      </trkpt>
      <trkpt lat="45.32686" lon="4.78212">
        <ele>141.39999389648</ele>
        <time>2024-05-21T08:21:20.000Z</time>
      </trkpt>
      <trkpt lat="45.32681" lon="4.78214">
        <ele>141.39999389648</ele>
        <time>2024-05-21T08:21:21.000Z</time>
      </trkpt>
      <trkpt lat="45.32676" lon="4.78216">
        <ele>141.39999389648</ele>
        <time>2024-05-21T08:21:22.000Z</time>
      </trkpt>
      <trkpt lat="45.32671" lon="4.78218">
        <ele>141.39999389648</ele>
        <time>2024-05-21T08:21:23.000Z</time>
      </trkpt>
      <trkpt lat="45.32666" lon="4.7822">
        <ele>141.39999389648</ele>
        <time>2024-05-21T08:21:24.000Z</time>
      </trkpt>
      <trkpt lat="45.3266" lon="4.78221">
        <ele>141.39999389648</ele>
        <time>2024-05-21T08:21:25.000Z</time>
      </trkpt>
      <trkpt lat="45.32655" lon="4.78222">
        <ele>141.39999389648</ele>
        <time>2024-05-21T08:21:26.000Z</time>
      </trkpt>
      <trkpt lat="45.32649" lon="4.78222">
        <ele>141.39999389648</ele>
        <time>2024-05-21T08:21:27.000Z</time>
      </trkpt>
      <trkpt lat="45.32644" lon="4.78222">
        <ele>141.39999389648</ele>
        <time>2024-05-21T08:21:28.000Z</time>
      </trkpt>
      <trkpt lat="45.32638" lon="4.78221">
        <ele>141.39999389648</ele>
        <time>2024-05-21T08:21:29.000Z</time>
      </trkpt>
      <trkpt lat="45.32633" lon="4.78219">
        <ele>141.39999389648</ele>
        <time>2024-05-21T08:21:30.000Z</time>
      </trkpt>
      <trkpt lat="45.32628" lon="4.78216">
        <ele>141.19999694824</ele>
        <time>2024-05-21T08:21:31.000Z</time>
      </trkpt>
      <trkpt lat="45.32623" lon="4.78212">
        <ele>141.39999389648</ele>
        <time>2024-05-21T08:21:32.000Z</time>
      </trkpt>
      <trkpt lat="45.32618" lon="4.78208">
        <ele>141.39999389648</ele>
        <time>2024-05-21T08:21:33.000Z</time>
      </trkpt>
      <trkpt lat="45.32614" lon="4.78204">
        <ele>141.39999389648</ele>
        <time>2024-05-21T08:21:34.000Z</time>
      </trkpt>
      <trkpt lat="45.32609" lon="4.78199">
        <ele>141.39999389648</ele>
        <time>2024-05-21T08:21:35.000Z</time>
      </trkpt>
      <trkpt lat="45.32604" lon="4.78194">
        <ele>141.39999389648</ele>
        <time>2024-05-21T08:21:36.000Z</time>
      </trkpt>
      <trkpt lat="45.32599" lon="4.78189">
        <ele>141.39999389648</ele>
        <time>2024-05-21T08:21:37.000Z</time>
      </trkpt>
      <trkpt lat="45.32594" lon="4.78185">
        <ele>141.19999694824</ele>
        <time>2024-05-21T08:21:38.000Z</time>
      </trkpt>
      <trkpt lat="45.32589" lon="4.78181">
        <ele>141.19999694824</ele>
        <time>2024-05-21T08:21:39.000Z</time>
      </trkpt>
      <trkpt lat="45.32584" lon="4.78177">
        <ele>141.19999694824</ele>
        <time>2024-05-21T08:21:40.000Z</time>
      </trkpt>
      <trkpt lat="45.32579" lon="4.78174">
        <ele>141</ele>
        <time>2024-05-21T08:21:41.000Z</time>
      </trkpt>
      <trkpt lat="45.32573" lon="4.78171">
        <ele>141</ele>
        <time>2024-05-21T08:21:42.000Z</time>
      </trkpt>
      <trkpt lat="45.32568" lon="4.78169">
        <ele>141</ele>
        <time>2024-05-21T08:21:43.000Z</time>
      </trkpt>
      <trkpt lat="45.32562" lon="4.78167">
        <ele>140.80000305176</ele>
        <time>2024-05-21T08:21:44.000Z</time>
      </trkpt>
      <trkpt lat="45.32557" lon="4.78165">
        <ele>140.80000305176</ele>
        <time>2024-05-21T08:21:45.000Z</time>
      </trkpt>
      <trkpt lat="45.32551" lon="4.78165">
        <ele>140.80000305176</ele>
        <time>2024-05-21T08:21:46.000Z</time>
      </trkpt>
      <trkpt lat="45.32545" lon="4.78165">
        <ele>140.80000305176</ele>
        <time>2024-05-21T08:21:47.000Z</time>
      </trkpt>
      <trkpt lat="45.3254" lon="4.78165">
        <ele>140.80000305176</ele>
        <time>2024-05-21T08:21:48.000Z</time>
      </trkpt>
      <trkpt lat="45.32534" lon="4.78165">
        <ele>140.80000305176</ele>
        <time>2024-05-21T08:21:49.000Z</time>
      </trkpt>
      <trkpt lat="45.32528" lon="4.78166">
        <ele>140.80000305176</ele>
        <time>2024-05-21T08:21:50.000Z</time>
      </trkpt>
      <trkpt lat="45.32523" lon="4.78166">
        <ele>140.80000305176</ele>
        <time>2024-05-21T08:21:51.000Z</time>
      </trkpt>
      <trkpt lat="45.32517" lon="4.78167">
        <ele>140.80000305176</ele>
        <time>2024-05-21T08:21:52.000Z</time>
      </trkpt>
      <trkpt lat="45.32512" lon="4.78168">
        <ele>140.80000305176</ele>
        <time>2024-05-21T08:21:53.000Z</time>
      </trkpt>
      <trkpt lat="45.32506" lon="4.78169">
        <ele>140.80000305176</ele>
        <time>2024-05-21T08:21:54.000Z</time>
      </trkpt>
      <trkpt lat="45.32501" lon="4.78169">
        <ele>141</ele>
        <time>2024-05-21T08:21:55.000Z</time>
      </trkpt>
      <trkpt lat="45.32495" lon="4.7817">
        <ele>141</ele>
        <time>2024-05-21T08:21:56.000Z</time>
      </trkpt>
      <trkpt lat="45.3249" lon="4.7817">
        <ele>141</ele>
        <time>2024-05-21T08:21:57.000Z</time>
      </trkpt>
      <trkpt lat="45.32485" lon="4.7817">
        <ele>141</ele>
        <time>2024-05-21T08:21:58.000Z</time>
      </trkpt>
      <trkpt lat="45.3248" lon="4.7817">
        <ele>141</ele>
        <time>2024-05-21T08:21:59.000Z</time>
      </trkpt>
      <trkpt lat="45.32475" lon="4.78168">
        <ele>141</ele>
        <time>2024-05-21T08:22:00.000Z</time>
      </trkpt>
      <trkpt lat="45.32471" lon="4.78167">
        <ele>141</ele>
        <time>2024-05-21T08:22:01.000Z</time>
      </trkpt>
      <trkpt lat="45.32466" lon="4.78165">
        <ele>141</ele>
        <time>2024-05-21T08:22:02.000Z</time>
      </trkpt>
      <trkpt lat="45.32463" lon="4.78161">
        <ele>141</ele>
        <time>2024-05-21T08:22:03.000Z</time>
      </trkpt>
      <trkpt lat="45.32459" lon="4.78157">
        <ele>141</ele>
        <time>2024-05-21T08:22:04.000Z</time>
      </trkpt>
      <trkpt lat="45.32456" lon="4.78152">
        <ele>141.39999389648</ele>
        <time>2024-05-21T08:22:05.000Z</time>
      </trkpt>
      <trkpt lat="45.32453" lon="4.78148">
        <ele>141.60000610352</ele>
        <time>2024-05-21T08:22:06.000Z</time>
      </trkpt>
      <trkpt lat="45.32451" lon="4.78143">
        <ele>141.60000610352</ele>
        <time>2024-05-21T08:22:07.000Z</time>
      </trkpt>
      <trkpt lat="45.32449" lon="4.78139">
        <ele>141.60000610352</ele>
        <time>2024-05-21T08:22:08.000Z</time>
      </trkpt>
      <trkpt lat="45.32446" lon="4.78134">
        <ele>141.60000610352</ele>
        <time>2024-05-21T08:22:09.000Z</time>
      </trkpt>
      <trkpt lat="45.32445" lon="4.78129">
        <ele>141.60000610352</ele>
        <time>2024-05-21T08:22:10.000Z</time>
      </trkpt>
      <trkpt lat="45.32444" lon="4.78123">
        <ele>141.60000610352</ele>
        <time>2024-05-21T08:22:11.000Z</time>
      </trkpt>
      <trkpt lat="45.32444" lon="4.78118">
        <ele>141.80000305176</ele>
        <time>2024-05-21T08:22:12.000Z</time>
      </trkpt>
      <trkpt lat="45.32444" lon="4.78113">
        <ele>141.80000305176</ele>
        <time>2024-05-21T08:22:13.000Z</time>
      </trkpt>
      <trkpt lat="45.32443" lon="4.78108">
        <ele>142</ele>
        <time>2024-05-21T08:22:14.000Z</time>
      </trkpt>
      <trkpt lat="45.32442" lon="4.78103">
        <ele>142</ele>
        <time>2024-05-21T08:22:15.000Z</time>
      </trkpt>
      <trkpt lat="45.3244" lon="4.78097">
        <ele>142</ele>
        <time>2024-05-21T08:22:16.000Z</time>
      </trkpt>
      <trkpt lat="45.32439" lon="4.78091">
        <ele>142</ele>
        <time>2024-05-21T08:22:17.000Z</time>
      </trkpt>
      <trkpt lat="45.32438" lon="4.78086">
        <ele>142</ele>
        <time>2024-05-21T08:22:18.000Z</time>
      </trkpt>
      <trkpt lat="45.32436" lon="4.7808">
        <ele>142</ele>
        <time>2024-05-21T08:22:19.000Z</time>
      </trkpt>
      <trkpt lat="45.32435" lon="4.78075">
        <ele>142</ele>
        <time>2024-05-21T08:22:20.000Z</time>
      </trkpt>
      <trkpt lat="45.32434" lon="4.7807">
        <ele>142</ele>
        <time>2024-05-21T08:22:21.000Z</time>
      </trkpt>
      <trkpt lat="45.32432" lon="4.78066">
        <ele>142</ele>
        <time>2024-05-21T08:22:22.000Z</time>
      </trkpt>
      <trkpt lat="45.32429" lon="4.78064">
        <ele>142</ele>
        <time>2024-05-21T08:22:23.000Z</time>
      </trkpt>
      <trkpt lat="45.32426" lon="4.78065">
        <ele>142</ele>
        <time>2024-05-21T08:22:24.000Z</time>
      </trkpt>
      <trkpt lat="45.32424" lon="4.78069">
        <ele>142</ele>
        <time>2024-05-21T08:22:25.000Z</time>
      </trkpt>
      <trkpt lat="45.32424" lon="4.78074">
        <ele>142</ele>
        <time>2024-05-21T08:22:26.000Z</time>
      </trkpt>
      <trkpt lat="45.32424" lon="4.7808">
        <ele>142</ele>
        <time>2024-05-21T08:22:27.000Z</time>
      </trkpt>
      <trkpt lat="45.32425" lon="4.78085">
        <ele>142</ele>
        <time>2024-05-21T08:22:28.000Z</time>
      </trkpt>
      <trkpt lat="45.32427" lon="4.78091">
        <ele>142</ele>
        <time>2024-05-21T08:22:29.000Z</time>
      </trkpt>
      <trkpt lat="45.32427" lon="4.78097">
        <ele>141.80000305176</ele>
        <time>2024-05-21T08:22:30.000Z</time>
      </trkpt>
      <trkpt lat="45.32426" lon="4.78102">
        <ele>141.60000610352</ele>
        <time>2024-05-21T08:22:31.000Z</time>
      </trkpt>
      <trkpt lat="45.32424" lon="4.78106">
        <ele>141.60000610352</ele>
        <time>2024-05-21T08:22:32.000Z</time>
      </trkpt>
      <trkpt lat="45.32421" lon="4.78109">
        <ele>141.60000610352</ele>
        <time>2024-05-21T08:22:33.000Z</time>
      </trkpt>
      <trkpt lat="45.32417" lon="4.78109">
        <ele>141.60000610352</ele>
        <time>2024-05-21T08:22:34.000Z</time>
      </trkpt>
      <trkpt lat="45.32413" lon="4.78108">
        <ele>141.60000610352</ele>
        <time>2024-05-21T08:22:35.000Z</time>
      </trkpt>
      <trkpt lat="45.32409" lon="4.78106">
        <ele>141.60000610352</ele>
        <time>2024-05-21T08:22:36.000Z</time>
      </trkpt>
      <trkpt lat="45.32405" lon="4.78104">
        <ele>141.60000610352</ele>
        <time>2024-05-21T08:22:37.000Z</time>
      </trkpt>
      <trkpt lat="45.32401" lon="4.78102">
        <ele>141.39999389648</ele>
        <time>2024-05-21T08:22:38.000Z</time>
      </trkpt>
      <trkpt lat="45.32396" lon="4.78099">
        <ele>141.39999389648</ele>
        <time>2024-05-21T08:22:39.000Z</time>
      </trkpt>
      <trkpt lat="45.32392" lon="4.78097">
        <ele>141.19999694824</ele>
        <time>2024-05-21T08:22:40.000Z</time>
      </trkpt>
      <trkpt lat="45.32387" lon="4.78095">
        <ele>141.19999694824</ele>
        <time>2024-05-21T08:22:41.000Z</time>
      </trkpt>
      <trkpt lat="45.32382" lon="4.78093">
        <ele>141</ele>
        <time>2024-05-21T08:22:42.000Z</time>
      </trkpt>
      <trkpt lat="45.32376" lon="4.78091">
        <ele>141</ele>
        <time>2024-05-21T08:22:43.000Z</time>
      </trkpt>
      <trkpt lat="45.32371" lon="4.78088">
        <ele>141</ele>
        <time>2024-05-21T08:22:44.000Z</time>
      </trkpt>
      <trkpt lat="45.32366" lon="4.78086">
        <ele>141</ele>
        <time>2024-05-21T08:22:45.000Z</time>
      </trkpt>
      <trkpt lat="45.3236" lon="4.78084">
        <ele>141</ele>
        <time>2024-05-21T08:22:46.000Z</time>
      </trkpt>
      <trkpt lat="45.32355" lon="4.78082">
        <ele>141</ele>
        <time>2024-05-21T08:22:47.000Z</time>
      </trkpt>
      <trkpt lat="45.32349" lon="4.78079">
        <ele>141</ele>
        <time>2024-05-21T08:22:48.000Z</time>
      </trkpt>
      <trkpt lat="45.32344" lon="4.78077">
        <ele>141</ele>
        <time>2024-05-21T08:22:49.000Z</time>
      </trkpt>
      <trkpt lat="45.32338" lon="4.78075">
        <ele>141</ele>
        <time>2024-05-21T08:22:50.000Z</time>
      </trkpt>
      <trkpt lat="45.32333" lon="4.78073">
        <ele>141</ele>
        <time>2024-05-21T08:22:51.000Z</time>
      </trkpt>
      <trkpt lat="45.32327" lon="4.78071">
        <ele>140.80000305176</ele>
        <time>2024-05-21T08:22:52.000Z</time>
      </trkpt>
      <trkpt lat="45.32322" lon="4.7807">
        <ele>140.60000610352</ele>
        <time>2024-05-21T08:22:53.000Z</time>
      </trkpt>
      <trkpt lat="45.32317" lon="4.7807">
        <ele>140.60000610352</ele>
        <time>2024-05-21T08:22:54.000Z</time>
      </trkpt>
      <trkpt lat="45.32311" lon="4.78068">
        <ele>140.60000610352</ele>
        <time>2024-05-21T08:22:55.000Z</time>
      </trkpt>
      <trkpt lat="45.32306" lon="4.78067">
        <ele>140.60000610352</ele>
        <time>2024-05-21T08:22:56.000Z</time>
      </trkpt>
      <trkpt lat="45.32301" lon="4.78065">
        <ele>140.60000610352</ele>
        <time>2024-05-21T08:22:57.000Z</time>
      </trkpt>
      <trkpt lat="45.32295" lon="4.78064">
        <ele>140.60000610352</ele>
        <time>2024-05-21T08:22:58.000Z</time>
      </trkpt>
      <trkpt lat="45.3229" lon="4.78063">
        <ele>140.80000305176</ele>
        <time>2024-05-21T08:22:59.000Z</time>
      </trkpt>
      <trkpt lat="45.32284" lon="4.78061">
        <ele>140.80000305176</ele>
        <time>2024-05-21T08:23:00.000Z</time>
      </trkpt>
      <trkpt lat="45.32279" lon="4.7806">
        <ele>140.80000305176</ele>
        <time>2024-05-21T08:23:01.000Z</time>
      </trkpt>
      <trkpt lat="45.32273" lon="4.78059">
        <ele>140.80000305176</ele>
        <time>2024-05-21T08:23:02.000Z</time>
      </trkpt>
      <trkpt lat="45.32268" lon="4.78058">
        <ele>140.80000305176</ele>
        <time>2024-05-21T08:23:03.000Z</time>
      </trkpt>
      <trkpt lat="45.32262" lon="4.78056">
        <ele>140.80000305176</ele>
        <time>2024-05-21T08:23:04.000Z</time>
      </trkpt>
      <trkpt lat="45.32256" lon="4.78055">
        <ele>140.80000305176</ele>
        <time>2024-05-21T08:23:05.000Z</time>
      </trkpt>
      <trkpt lat="45.32249" lon="4.78053">
        <ele>140.80000305176</ele>
        <time>2024-05-21T08:23:06.000Z</time>
      </trkpt>
      <trkpt lat="45.32243" lon="4.78051">
        <ele>140.60000610352</ele>
        <time>2024-05-21T08:23:07.000Z</time>
      </trkpt>
      <trkpt lat="45.32237" lon="4.78049">
        <ele>140.39999389648</ele>
        <time>2024-05-21T08:23:08.000Z</time>
      </trkpt>
      <trkpt lat="45.32231" lon="4.78046">
        <ele>140.39999389648</ele>
        <time>2024-05-21T08:23:09.000Z</time>
      </trkpt>
      <trkpt lat="45.32225" lon="4.78043">
        <ele>140.19999694824</ele>
        <time>2024-05-21T08:23:10.000Z</time>
      </trkpt>
      <trkpt lat="45.3222" lon="4.7804">
        <ele>140</ele>
        <time>2024-05-21T08:23:11.000Z</time>
      </trkpt>
      <trkpt lat="45.32215" lon="4.78037">
        <ele>140</ele>
        <time>2024-05-21T08:23:12.000Z</time>
      </trkpt>
      <trkpt lat="45.32209" lon="4.78034">
        <ele>140</ele>
        <time>2024-05-21T08:23:13.000Z</time>
      </trkpt>
      <trkpt lat="45.32204" lon="4.7803">
        <ele>140</ele>
        <time>2024-05-21T08:23:14.000Z</time>
      </trkpt>
      <trkpt lat="45.32199" lon="4.78027">
        <ele>140.19999694824</ele>
        <time>2024-05-21T08:23:15.000Z</time>
      </trkpt>
      <trkpt lat="45.32193" lon="4.78025">
        <ele>140.19999694824</ele>
        <time>2024-05-21T08:23:16.000Z</time>
      </trkpt>
      <trkpt lat="45.32188" lon="4.78022">
        <ele>140.39999389648</ele>
        <time>2024-05-21T08:23:17.000Z</time>
      </trkpt>
      <trkpt lat="45.32183" lon="4.7802">
        <ele>140.39999389648</ele>
        <time>2024-05-21T08:23:18.000Z</time>
      </trkpt>
      <trkpt lat="45.32177" lon="4.78018">
        <ele>140.39999389648</ele>
        <time>2024-05-21T08:23:19.000Z</time>
      </trkpt>
      <trkpt lat="45.32172" lon="4.78015">
        <ele>140.39999389648</ele>
        <time>2024-05-21T08:23:20.000Z</time>
      </trkpt>
      <trkpt lat="45.32167" lon="4.78013">
        <ele>140.39999389648</ele>
        <time>2024-05-21T08:23:21.000Z</time>
      </trkpt>
      <trkpt lat="45.32163" lon="4.7801">
        <ele>140.19999694824</ele>
        <time>2024-05-21T08:23:22.000Z</time>
      </trkpt>
      <trkpt lat="45.32158" lon="4.78008">
        <ele>140.19999694824</ele>
        <time>2024-05-21T08:23:23.000Z</time>
      </trkpt>
      <trkpt lat="45.32153" lon="4.78005">
        <ele>140</ele>
        <time>2024-05-21T08:23:24.000Z</time>
      </trkpt>
      <trkpt lat="45.32148" lon="4.78003">
        <ele>140</ele>
        <time>2024-05-21T08:23:25.000Z</time>
      </trkpt>
      <trkpt lat="45.32143" lon="4.78">
        <ele>140</ele>
        <time>2024-05-21T08:23:26.000Z</time>
      </trkpt>
      <trkpt lat="45.32138" lon="4.77998">
        <ele>139.80000305176</ele>
        <time>2024-05-21T08:23:27.000Z</time>
      </trkpt>
      <trkpt lat="45.32133" lon="4.77996">
        <ele>139.60000610352</ele>
        <time>2024-05-21T08:23:28.000Z</time>
      </trkpt>
      <trkpt lat="45.32128" lon="4.77993">
        <ele>139.39999389648</ele>
        <time>2024-05-21T08:23:29.000Z</time>
      </trkpt>
      <trkpt lat="45.32123" lon="4.77991">
        <ele>139.39999389648</ele>
        <time>2024-05-21T08:23:30.000Z</time>
      </trkpt>
      <trkpt lat="45.32117" lon="4.77988">
        <ele>139.39999389648</ele>
        <time>2024-05-21T08:23:31.000Z</time>
      </trkpt>
      <trkpt lat="45.32112" lon="4.77986">
        <ele>139.39999389648</ele>
        <time>2024-05-21T08:23:32.000Z</time>
      </trkpt>
      <trkpt lat="45.32107" lon="4.77983">
        <ele>139.19999694824</ele>
        <time>2024-05-21T08:23:33.000Z</time>
      </trkpt>
      <trkpt lat="45.32101" lon="4.77981">
        <ele>139.19999694824</ele>
        <time>2024-05-21T08:23:34.000Z</time>
      </trkpt>
      <trkpt lat="45.32096" lon="4.77978">
        <ele>139</ele>
        <time>2024-05-21T08:23:35.000Z</time>
      </trkpt>
      <trkpt lat="45.32091" lon="4.77976">
        <ele>139</ele>
        <time>2024-05-21T08:23:36.000Z</time>
      </trkpt>
      <trkpt lat="45.32085" lon="4.77974">
        <ele>139</ele>
        <time>2024-05-21T08:23:37.000Z</time>
      </trkpt>
      <trkpt lat="45.3208" lon="4.77971">
        <ele>139</ele>
        <time>2024-05-21T08:23:38.000Z</time>
      </trkpt>
      <trkpt lat="45.32074" lon="4.77969">
        <ele>139</ele>
        <time>2024-05-21T08:23:39.000Z</time>
      </trkpt>
      <trkpt lat="45.32068" lon="4.77966">
        <ele>139</ele>
        <time>2024-05-21T08:23:40.000Z</time>
      </trkpt>
      <trkpt lat="45.32063" lon="4.77964">
        <ele>139</ele>
        <time>2024-05-21T08:23:41.000Z</time>
      </trkpt>
      <trkpt lat="45.32057" lon="4.77962">
        <ele>139</ele>
        <time>2024-05-21T08:23:42.000Z</time>
      </trkpt>
      <trkpt lat="45.32051" lon="4.7796">
        <ele>139</ele>
        <time>2024-05-21T08:23:43.000Z</time>
      </trkpt>
      <trkpt lat="45.32045" lon="4.77958">
        <ele>139</ele>
        <time>2024-05-21T08:23:44.000Z</time>
      </trkpt>
      <trkpt lat="45.32039" lon="4.77956">
        <ele>139</ele>
        <time>2024-05-21T08:23:45.000Z</time>
      </trkpt>
      <trkpt lat="45.32033" lon="4.77955">
        <ele>139</ele>
        <time>2024-05-21T08:23:46.000Z</time>
      </trkpt>
      <trkpt lat="45.32028" lon="4.77953">
        <ele>139</ele>
        <time>2024-05-21T08:23:47.000Z</time>
      </trkpt>
      <trkpt lat="45.32022" lon="4.77952">
        <ele>139</ele>
        <time>2024-05-21T08:23:48.000Z</time>
      </trkpt>
      <trkpt lat="45.32015" lon="4.77951">
        <ele>139</ele>
        <time>2024-05-21T08:23:49.000Z</time>
      </trkpt>
      <trkpt lat="45.32009" lon="4.77949">
        <ele>139</ele>
        <time>2024-05-21T08:23:50.000Z</time>
      </trkpt>
      <trkpt lat="45.32003" lon="4.77948">
        <ele>139</ele>
        <time>2024-05-21T08:23:51.000Z</time>
      </trkpt>
      <trkpt lat="45.31997" lon="4.77947">
        <ele>139</ele>
        <time>2024-05-21T08:23:52.000Z</time>
      </trkpt>
      <trkpt lat="45.31991" lon="4.77946">
        <ele>139</ele>
        <time>2024-05-21T08:23:53.000Z</time>
      </trkpt>
      <trkpt lat="45.31985" lon="4.77945">
        <ele>139</ele>
        <time>2024-05-21T08:23:54.000Z</time>
      </trkpt>
      <trkpt lat="45.3198" lon="4.77943">
        <ele>139</ele>
        <time>2024-05-21T08:23:55.000Z</time>
      </trkpt>
      <trkpt lat="45.31974" lon="4.77942">
        <ele>138.80000305176</ele>
        <time>2024-05-21T08:23:56.000Z</time>
      </trkpt>
      <trkpt lat="45.31968" lon="4.77941">
        <ele>138.80000305176</ele>
        <time>2024-05-21T08:23:57.000Z</time>
      </trkpt>
      <trkpt lat="45.31962" lon="4.77941">
        <ele>138.80000305176</ele>
        <time>2024-05-21T08:23:58.000Z</time>
      </trkpt>
      <trkpt lat="45.31956" lon="4.7794">
        <ele>138.80000305176</ele>
        <time>2024-05-21T08:23:59.000Z</time>
      </trkpt>
      <trkpt lat="45.3195" lon="4.77939">
        <ele>138.80000305176</ele>
        <time>2024-05-21T08:24:00.000Z</time>
      </trkpt>
      <trkpt lat="45.31944" lon="4.77938">
        <ele>138.80000305176</ele>
        <time>2024-05-21T08:24:01.000Z</time>
      </trkpt>
      <trkpt lat="45.31939" lon="4.77937">
        <ele>139</ele>
        <time>2024-05-21T08:24:02.000Z</time>
      </trkpt>
      <trkpt lat="45.31933" lon="4.77936">
        <ele>139</ele>
        <time>2024-05-21T08:24:03.000Z</time>
      </trkpt>
      <trkpt lat="45.31927" lon="4.77935">
        <ele>139</ele>
        <time>2024-05-21T08:24:04.000Z</time>
      </trkpt>
      <trkpt lat="45.31921" lon="4.77934">
        <ele>138.80000305176</ele>
        <time>2024-05-21T08:24:05.000Z</time>
      </trkpt>
      <trkpt lat="45.31915" lon="4.77933">
        <ele>138.80000305176</ele>
        <time>2024-05-21T08:24:06.000Z</time>
      </trkpt>
      <trkpt lat="45.31909" lon="4.77932">
        <ele>138.80000305176</ele>
        <time>2024-05-21T08:24:07.000Z</time>
      </trkpt>
      <trkpt lat="45.31903" lon="4.77931">
        <ele>138.60000610352</ele>
        <time>2024-05-21T08:24:08.000Z</time>
      </trkpt>
      <trkpt lat="45.31897" lon="4.77929">
        <ele>138.39999389648</ele>
        <time>2024-05-21T08:24:09.000Z</time>
      </trkpt>
      <trkpt lat="45.31891" lon="4.77928">
        <ele>138.39999389648</ele>
        <time>2024-05-21T08:24:10.000Z</time>
      </trkpt>
      <trkpt lat="45.31885" lon="4.77927">
        <ele>138.39999389648</ele>
        <time>2024-05-21T08:24:11.000Z</time>
      </trkpt>
      <trkpt lat="45.31879" lon="4.77925">
        <ele>138.39999389648</ele>
        <time>2024-05-21T08:24:12.000Z</time>
      </trkpt>
      <trkpt lat="45.31873" lon="4.77924">
        <ele>138.60000610352</ele>
        <time>2024-05-21T08:24:13.000Z</time>
      </trkpt>
      <trkpt lat="45.31867" lon="4.77922">
        <ele>138.60000610352</ele>
        <time>2024-05-21T08:24:14.000Z</time>
      </trkpt>
      <trkpt lat="45.31861" lon="4.7792">
        <ele>138.80000305176</ele>
        <time>2024-05-21T08:24:15.000Z</time>
      </trkpt>
      <trkpt lat="45.31855" lon="4.77919">
        <ele>138.80000305176</ele>
        <time>2024-05-21T08:24:16.000Z</time>
      </trkpt>
      <trkpt lat="45.31849" lon="4.77916">
        <ele>138.80000305176</ele>
        <time>2024-05-21T08:24:17.000Z</time>
      </trkpt>
      <trkpt lat="45.31843" lon="4.77915">
        <ele>138.80000305176</ele>
        <time>2024-05-21T08:24:18.000Z</time>
      </trkpt>
      <trkpt lat="45.31837" lon="4.77913">
        <ele>139</ele>
        <time>2024-05-21T08:24:19.000Z</time>
      </trkpt>
      <trkpt lat="45.31831" lon="4.77911">
        <ele>139</ele>
        <time>2024-05-21T08:24:20.000Z</time>
      </trkpt>
      <trkpt lat="45.31826" lon="4.77909">
        <ele>139</ele>
        <time>2024-05-21T08:24:21.000Z</time>
      </trkpt>
      <trkpt lat="45.3182" lon="4.77907">
        <ele>138.80000305176</ele>
        <time>2024-05-21T08:24:22.000Z</time>
      </trkpt>
      <trkpt lat="45.31815" lon="4.77905">
        <ele>138.80000305176</ele>
        <time>2024-05-21T08:24:23.000Z</time>
      </trkpt>
      <trkpt lat="45.31809" lon="4.77903">
        <ele>138.80000305176</ele>
        <time>2024-05-21T08:24:24.000Z</time>
      </trkpt>
      <trkpt lat="45.31804" lon="4.77901">
        <ele>138.80000305176</ele>
        <time>2024-05-21T08:24:25.000Z</time>
      </trkpt>
      <trkpt lat="45.31799" lon="4.77899">
        <ele>138.80000305176</ele>
        <time>2024-05-21T08:24:26.000Z</time>
      </trkpt>
      <trkpt lat="45.31794" lon="4.77897">
        <ele>138.80000305176</ele>
        <time>2024-05-21T08:24:27.000Z</time>
      </trkpt>
      <trkpt lat="45.31789" lon="4.77896">
        <ele>138.80000305176</ele>
        <time>2024-05-21T08:24:28.000Z</time>
      </trkpt>
      <trkpt lat="45.31784" lon="4.77894">
        <ele>138.60000610352</ele>
        <time>2024-05-21T08:24:29.000Z</time>
      </trkpt>
      <trkpt lat="45.3178" lon="4.77892">
        <ele>138.60000610352</ele>
        <time>2024-05-21T08:24:30.000Z</time>
      </trkpt>
      <trkpt lat="45.31775" lon="4.77891">
        <ele>138.60000610352</ele>
        <time>2024-05-21T08:24:31.000Z</time>
      </trkpt>
      <trkpt lat="45.31772" lon="4.77889">
        <ele>138.60000610352</ele>
        <time>2024-05-21T08:24:32.000Z</time>
      </trkpt>
      <trkpt lat="45.31768" lon="4.77887">
        <ele>138.60000610352</ele>
        <time>2024-05-21T08:24:33.000Z</time>
      </trkpt>
      <trkpt lat="45.31765" lon="4.77885">
        <ele>138.60000610352</ele>
        <time>2024-05-21T08:24:34.000Z</time>
      </trkpt>
      <trkpt lat="45.31763" lon="4.77883">
        <ele>138.60000610352</ele>
        <time>2024-05-21T08:24:35.000Z</time>
      </trkpt>
      <trkpt lat="45.31762" lon="4.77882">
        <ele>138.60000610352</ele>
        <time>2024-05-21T08:24:36.000Z</time>
      </trkpt>
      <trkpt lat="45.3176" lon="4.77881">
        <ele>138.80000305176</ele>
        <time>2024-05-21T08:24:37.000Z</time>
      </trkpt>
      <trkpt lat="45.3176" lon="4.77881">
        <ele>139.19999694824</ele>
        <time>2024-05-21T08:24:38.000Z</time>
      </trkpt>
      <trkpt lat="45.3176" lon="4.77881">
        <ele>139.19999694824</ele>
        <time>2024-05-21T08:24:39.000Z</time>
      </trkpt>
      <trkpt lat="45.31757" lon="4.7788">
        <ele>139.19999694824</ele>
        <time>2024-05-21T08:24:51.000Z</time>
      </trkpt>
      <trkpt lat="45.31756" lon="4.7788">
        <ele>139.19999694824</ele>
        <time>2024-05-21T08:24:52.000Z</time>
      </trkpt>
      <trkpt lat="45.31755" lon="4.7788">
        <ele>139.19999694824</ele>
        <time>2024-05-21T08:24:53.000Z</time>
      </trkpt>
      <trkpt lat="45.31753" lon="4.7788">
        <ele>139.19999694824</ele>
        <time>2024-05-21T08:24:54.000Z</time>
      </trkpt>
      <trkpt lat="45.31752" lon="4.77881">
        <ele>139.19999694824</ele>
        <time>2024-05-21T08:24:55.000Z</time>
      </trkpt>
      <trkpt lat="45.3175" lon="4.77883">
        <ele>139.19999694824</ele>
        <time>2024-05-21T08:24:56.000Z</time>
      </trkpt>
      <trkpt lat="45.3175" lon="4.77886">
        <ele>139.19999694824</ele>
        <time>2024-05-21T08:24:57.000Z</time>
      </trkpt>
      <trkpt lat="45.3175" lon="4.77889">
        <ele>139.19999694824</ele>
        <time>2024-05-21T08:24:58.000Z</time>
      </trkpt>
      <trkpt lat="45.3175" lon="4.77892">
        <ele>139</ele>
        <time>2024-05-21T08:24:59.000Z</time>
      </trkpt>
      <trkpt lat="45.3175" lon="4.77895">
        <ele>139</ele>
        <time>2024-05-21T08:25:00.000Z</time>
      </trkpt>
      <trkpt lat="45.3175" lon="4.77899">
        <ele>139</ele>
        <time>2024-05-21T08:25:01.000Z</time>
      </trkpt>
      <trkpt lat="45.3175" lon="4.77903">
        <ele>138.80000305176</ele>
        <time>2024-05-21T08:25:02.000Z</time>
      </trkpt>
      <trkpt lat="45.31749" lon="4.77909">
        <ele>138.80000305176</ele>
        <time>2024-05-21T08:25:03.000Z</time>
      </trkpt>
      <trkpt lat="45.31749" lon="4.77914">
        <ele>138.80000305176</ele>
        <time>2024-05-21T08:25:04.000Z</time>
      </trkpt>
      <trkpt lat="45.31749" lon="4.7792">
        <ele>138.80000305176</ele>
        <time>2024-05-21T08:25:05.000Z</time>
      </trkpt>
      <trkpt lat="45.3175" lon="4.77927">
        <ele>138.80000305176</ele>
        <time>2024-05-21T08:25:06.000Z</time>
      </trkpt>
      <trkpt lat="45.3175" lon="4.77934">
        <ele>138.80000305176</ele>
        <time>2024-05-21T08:25:07.000Z</time>
      </trkpt>
      <trkpt lat="45.3175" lon="4.77941">
        <ele>138.60000610352</ele>
        <time>2024-05-21T08:25:08.000Z</time>
      </trkpt>
      <trkpt lat="45.3175" lon="4.77948">
        <ele>138.39999389648</ele>
        <time>2024-05-21T08:25:09.000Z</time>
      </trkpt>
      <trkpt lat="45.31751" lon="4.77955">
        <ele>138.39999389648</ele>
        <time>2024-05-21T08:25:10.000Z</time>
      </trkpt>
      <trkpt lat="45.31751" lon="4.77962">
        <ele>138</ele>
        <time>2024-05-21T08:25:11.000Z</time>
      </trkpt>
      <trkpt lat="45.31751" lon="4.7797">
        <ele>138</ele>
        <time>2024-05-21T08:25:12.000Z</time>
      </trkpt>
      <trkpt lat="45.31751" lon="4.77977">
        <ele>138</ele>
        <time>2024-05-21T08:25:13.000Z</time>
      </trkpt>
      <trkpt lat="45.31751" lon="4.77985">
        <ele>138</ele>
        <time>2024-05-21T08:25:14.000Z</time>
      </trkpt>
      <trkpt lat="45.31751" lon="4.77992">
        <ele>138</ele>
        <time>2024-05-21T08:25:15.000Z</time>
      </trkpt>
      <trkpt lat="45.31751" lon="4.78">
        <ele>138</ele>
        <time>2024-05-21T08:25:16.000Z</time>
      </trkpt>
      <trkpt lat="45.31751" lon="4.78007">
        <ele>138</ele>
        <time>2024-05-21T08:25:17.000Z</time>
      </trkpt>
      <trkpt lat="45.31751" lon="4.78015">
        <ele>138.39999389648</ele>
        <time>2024-05-21T08:25:18.000Z</time>
      </trkpt>
      <trkpt lat="45.31751" lon="4.78023">
        <ele>138.39999389648</ele>
        <time>2024-05-21T08:25:19.000Z</time>
      </trkpt>
      <trkpt lat="45.31751" lon="4.7803">
        <ele>138.39999389648</ele>
        <time>2024-05-21T08:25:20.000Z</time>
      </trkpt>
      <trkpt lat="45.31752" lon="4.78038">
        <ele>138.39999389648</ele>
        <time>2024-05-21T08:25:21.000Z</time>
      </trkpt>
      <trkpt lat="45.31752" lon="4.78046">
        <ele>138.39999389648</ele>
        <time>2024-05-21T08:25:22.000Z</time>
      </trkpt>
      <trkpt lat="45.31752" lon="4.78053">
        <ele>138.60000610352</ele>
        <time>2024-05-21T08:25:23.000Z</time>
      </trkpt>
      <trkpt lat="45.31752" lon="4.78061">
        <ele>138.60000610352</ele>
        <time>2024-05-21T08:25:24.000Z</time>
      </trkpt>
      <trkpt lat="45.31752" lon="4.78069">
        <ele>138.60000610352</ele>
        <time>2024-05-21T08:25:25.000Z</time>
      </trkpt>
      <trkpt lat="45.31752" lon="4.78077">
        <ele>138.60000610352</ele>
        <time>2024-05-21T08:25:26.000Z</time>
      </trkpt>
      <trkpt lat="45.31753" lon="4.78084">
        <ele>138.60000610352</ele>
        <time>2024-05-21T08:25:27.000Z</time>
      </trkpt>
      <trkpt lat="45.31752" lon="4.78092">
        <ele>138.60000610352</ele>
        <time>2024-05-21T08:25:28.000Z</time>
      </trkpt>
      <trkpt lat="45.31752" lon="4.781">
        <ele>138.60000610352</ele>
        <time>2024-05-21T08:25:29.000Z</time>
      </trkpt>
      <trkpt lat="45.31752" lon="4.78107">
        <ele>138.60000610352</ele>
        <time>2024-05-21T08:25:30.000Z</time>
      </trkpt>
      <trkpt lat="45.31752" lon="4.78114">
        <ele>138.60000610352</ele>
        <time>2024-05-21T08:25:31.000Z</time>
      </trkpt>
      <trkpt lat="45.31752" lon="4.78122">
        <ele>138.60000610352</ele>
        <time>2024-05-21T08:25:32.000Z</time>
      </trkpt>
      <trkpt lat="45.31752" lon="4.7813">
        <ele>138.80000305176</ele>
        <time>2024-05-21T08:25:33.000Z</time>
      </trkpt>
      <trkpt lat="45.31752" lon="4.78137">
        <ele>138.80000305176</ele>
        <time>2024-05-21T08:25:34.000Z</time>
      </trkpt>
      <trkpt lat="45.31752" lon="4.78145">
        <ele>138.80000305176</ele>
        <time>2024-05-21T08:25:35.000Z</time>
      </trkpt>
      <trkpt lat="45.31752" lon="4.78153">
        <ele>138.80000305176</ele>
        <time>2024-05-21T08:25:36.000Z</time>
      </trkpt>
      <trkpt lat="45.31752" lon="4.78161">
        <ele>138.80000305176</ele>
        <time>2024-05-21T08:25:37.000Z</time>
      </trkpt>
      <trkpt lat="45.31752" lon="4.78168">
        <ele>138.80000305176</ele>
        <time>2024-05-21T08:25:38.000Z</time>
      </trkpt>
      <trkpt lat="45.31752" lon="4.78175">
        <ele>138.60000610352</ele>
        <time>2024-05-21T08:25:39.000Z</time>
      </trkpt>
      <trkpt lat="45.31752" lon="4.78183">
        <ele>138.60000610352</ele>
        <time>2024-05-21T08:25:40.000Z</time>
      </trkpt>
      <trkpt lat="45.31752" lon="4.7819">
        <ele>138.60000610352</ele>
        <time>2024-05-21T08:25:41.000Z</time>
      </trkpt>
      <trkpt lat="45.31752" lon="4.78197">
        <ele>138.60000610352</ele>
        <time>2024-05-21T08:25:42.000Z</time>
      </trkpt>
      <trkpt lat="45.31752" lon="4.78205">
        <ele>138.80000305176</ele>
        <time>2024-05-21T08:25:43.000Z</time>
      </trkpt>
      <trkpt lat="45.31752" lon="4.78212">
        <ele>138.80000305176</ele>
        <time>2024-05-21T08:25:44.000Z</time>
      </trkpt>
      <trkpt lat="45.31752" lon="4.78219">
        <ele>139</ele>
        <time>2024-05-21T08:25:45.000Z</time>
      </trkpt>
      <trkpt lat="45.31752" lon="4.78226">
        <ele>139.39999389648</ele>
        <time>2024-05-21T08:25:46.000Z</time>
      </trkpt>
      <trkpt lat="45.31752" lon="4.78234">
        <ele>139.39999389648</ele>
        <time>2024-05-21T08:25:47.000Z</time>
      </trkpt>
      <trkpt lat="45.31752" lon="4.78242">
        <ele>139.39999389648</ele>
        <time>2024-05-21T08:25:48.000Z</time>
      </trkpt>
      <trkpt lat="45.31751" lon="4.78249">
        <ele>139.39999389648</ele>
        <time>2024-05-21T08:25:49.000Z</time>
      </trkpt>
      <trkpt lat="45.31751" lon="4.78256">
        <ele>139.39999389648</ele>
        <time>2024-05-21T08:25:50.000Z</time>
      </trkpt>
      <trkpt lat="45.31751" lon="4.78264">
        <ele>139.39999389648</ele>
        <time>2024-05-21T08:25:51.000Z</time>
      </trkpt>
      <trkpt lat="45.31751" lon="4.78272">
        <ele>139.39999389648</ele>
        <time>2024-05-21T08:25:52.000Z</time>
      </trkpt>
      <trkpt lat="45.31751" lon="4.78279">
        <ele>139.39999389648</ele>
        <time>2024-05-21T08:25:53.000Z</time>
      </trkpt>
      <trkpt lat="45.3175" lon="4.78287">
        <ele>139.39999389648</ele>
        <time>2024-05-21T08:25:54.000Z</time>
      </trkpt>
      <trkpt lat="45.3175" lon="4.78295">
        <ele>139.39999389648</ele>
        <time>2024-05-21T08:25:55.000Z</time>
      </trkpt>
      <trkpt lat="45.3175" lon="4.78302">
        <ele>139.39999389648</ele>
        <time>2024-05-21T08:25:56.000Z</time>
      </trkpt>
      <trkpt lat="45.3175" lon="4.7831">
        <ele>139.39999389648</ele>
        <time>2024-05-21T08:25:57.000Z</time>
      </trkpt>
      <trkpt lat="45.31749" lon="4.78318">
        <ele>139.39999389648</ele>
        <time>2024-05-21T08:25:58.000Z</time>
      </trkpt>
      <trkpt lat="45.31749" lon="4.78325">
        <ele>139.60000610352</ele>
        <time>2024-05-21T08:25:59.000Z</time>
      </trkpt>
      <trkpt lat="45.31748" lon="4.78333">
        <ele>139.60000610352</ele>
        <time>2024-05-21T08:26:00.000Z</time>
      </trkpt>
      <trkpt lat="45.31748" lon="4.7834">
        <ele>139.80000305176</ele>
        <time>2024-05-21T08:26:01.000Z</time>
      </trkpt>
      <trkpt lat="45.31747" lon="4.78347">
        <ele>139.80000305176</ele>
        <time>2024-05-21T08:26:02.000Z</time>
      </trkpt>
      <trkpt lat="45.31745" lon="4.78353">
        <ele>139.80000305176</ele>
        <time>2024-05-21T08:26:03.000Z</time>
      </trkpt>
      <trkpt lat="45.31741" lon="4.78359">
        <ele>139.80000305176</ele>
        <time>2024-05-21T08:26:04.000Z</time>
      </trkpt>
      <trkpt lat="45.31737" lon="4.78363">
        <ele>139.80000305176</ele>
        <time>2024-05-21T08:26:05.000Z</time>
      </trkpt>
      <trkpt lat="45.31732" lon="4.78366">
        <ele>139.80000305176</ele>
        <time>2024-05-21T08:26:06.000Z</time>
      </trkpt>
      <trkpt lat="45.31728" lon="4.7837">
        <ele>140</ele>
        <time>2024-05-21T08:26:07.000Z</time>
      </trkpt>
      <trkpt lat="45.31724" lon="4.78374">
        <ele>140</ele>
        <time>2024-05-21T08:26:08.000Z</time>
      </trkpt>
      <trkpt lat="45.31721" lon="4.78379">
        <ele>140</ele>
        <time>2024-05-21T08:26:09.000Z</time>
      </trkpt>
      <trkpt lat="45.31717" lon="4.78384">
        <ele>140</ele>
        <time>2024-05-21T08:26:10.000Z</time>
      </trkpt>
      <trkpt lat="45.31714" lon="4.78389">
        <ele>140.19999694824</ele>
        <time>2024-05-21T08:26:11.000Z</time>
      </trkpt>
      <trkpt lat="45.31711" lon="4.78395">
        <ele>140.19999694824</ele>
        <time>2024-05-21T08:26:12.000Z</time>
      </trkpt>
      <trkpt lat="45.31709" lon="4.78401">
        <ele>140.19999694824</ele>
        <time>2024-05-21T08:26:13.000Z</time>
      </trkpt>
      <trkpt lat="45.31706" lon="4.78407">
        <ele>140.39999389648</ele>
        <time>2024-05-21T08:26:14.000Z</time>
      </trkpt>
      <trkpt lat="45.31703" lon="4.78413">
        <ele>140.39999389648</ele>
        <time>2024-05-21T08:26:15.000Z</time>
      </trkpt>
      <trkpt lat="45.31701" lon="4.78419">
        <ele>140.39999389648</ele>
        <time>2024-05-21T08:26:16.000Z</time>
      </trkpt>
      <trkpt lat="45.31698" lon="4.78425">
        <ele>140.39999389648</ele>
        <time>2024-05-21T08:26:17.000Z</time>
      </trkpt>
      <trkpt lat="45.31696" lon="4.78431">
        <ele>140</ele>
        <time>2024-05-21T08:26:18.000Z</time>
      </trkpt>
      <trkpt lat="45.31693" lon="4.78437">
        <ele>140</ele>
        <time>2024-05-21T08:26:19.000Z</time>
      </trkpt>
      <trkpt lat="45.3169" lon="4.78443">
        <ele>140</ele>
        <time>2024-05-21T08:26:20.000Z</time>
      </trkpt>
      <trkpt lat="45.31688" lon="4.78449">
        <ele>140</ele>
        <time>2024-05-21T08:26:21.000Z</time>
      </trkpt>
      <trkpt lat="45.31685" lon="4.78455">
        <ele>140</ele>
        <time>2024-05-21T08:26:22.000Z</time>
      </trkpt>
      <trkpt lat="45.31682" lon="4.78461">
        <ele>140</ele>
        <time>2024-05-21T08:26:23.000Z</time>
      </trkpt>
      <trkpt lat="45.3168" lon="4.78468">
        <ele>140.19999694824</ele>
        <time>2024-05-21T08:26:24.000Z</time>
      </trkpt>
      <trkpt lat="45.31677" lon="4.78474">
        <ele>140.19999694824</ele>
        <time>2024-05-21T08:26:25.000Z</time>
      </trkpt>
      <trkpt lat="45.31675" lon="4.7848">
        <ele>140.39999389648</ele>
        <time>2024-05-21T08:26:26.000Z</time>
      </trkpt>
      <trkpt lat="45.31672" lon="4.78487">
        <ele>140.39999389648</ele>
        <time>2024-05-21T08:26:27.000Z</time>
      </trkpt>
      <trkpt lat="45.3167" lon="4.78493">
        <ele>140.39999389648</ele>
        <time>2024-05-21T08:26:28.000Z</time>
      </trkpt>
      <trkpt lat="45.31667" lon="4.785">
        <ele>140.39999389648</ele>
        <time>2024-05-21T08:26:29.000Z</time>
      </trkpt>
      <trkpt lat="45.31664" lon="4.78507">
        <ele>140.39999389648</ele>
        <time>2024-05-21T08:26:30.000Z</time>
      </trkpt>
      <trkpt lat="45.31662" lon="4.78513">
        <ele>140.19999694824</ele>
        <time>2024-05-21T08:26:31.000Z</time>
      </trkpt>
      <trkpt lat="45.31659" lon="4.78519">
        <ele>140.19999694824</ele>
        <time>2024-05-21T08:26:32.000Z</time>
      </trkpt>
      <trkpt lat="45.31656" lon="4.78527">
        <ele>140.19999694824</ele>
        <time>2024-05-21T08:26:33.000Z</time>
      </trkpt>
      <trkpt lat="45.31654" lon="4.78532">
        <ele>140.19999694824</ele>
        <time>2024-05-21T08:26:34.000Z</time>
      </trkpt>
      <trkpt lat="45.31651" lon="4.78538">
        <ele>140.19999694824</ele>
        <time>2024-05-21T08:26:35.000Z</time>
      </trkpt>
      <trkpt lat="45.31649" lon="4.78545">
        <ele>140.19999694824</ele>
        <time>2024-05-21T08:26:36.000Z</time>
      </trkpt>
      <trkpt lat="45.31646" lon="4.78551">
        <ele>140.19999694824</ele>
        <time>2024-05-21T08:26:37.000Z</time>
      </trkpt>
      <trkpt lat="45.31643" lon="4.78558">
        <ele>140.19999694824</ele>
        <time>2024-05-21T08:26:38.000Z</time>
      </trkpt>
      <trkpt lat="45.3164" lon="4.78565">
        <ele>140.39999389648</ele>
        <time>2024-05-21T08:26:39.000Z</time>
      </trkpt>
      <trkpt lat="45.31638" lon="4.78571">
        <ele>140.39999389648</ele>
        <time>2024-05-21T08:26:40.000Z</time>
      </trkpt>
      <trkpt lat="45.31636" lon="4.78577">
        <ele>140.39999389648</ele>
        <time>2024-05-21T08:26:41.000Z</time>
      </trkpt>
      <trkpt lat="45.31633" lon="4.78583">
        <ele>140.60000610352</ele>
        <time>2024-05-21T08:26:42.000Z</time>
      </trkpt>
      <trkpt lat="45.3163" lon="4.78589">
        <ele>140.60000610352</ele>
        <time>2024-05-21T08:26:43.000Z</time>
      </trkpt>
      <trkpt lat="45.31628" lon="4.78596">
        <ele>140.60000610352</ele>
        <time>2024-05-21T08:26:44.000Z</time>
      </trkpt>
      <trkpt lat="45.31625" lon="4.78603">
        <ele>140.39999389648</ele>
        <time>2024-05-21T08:26:45.000Z</time>
      </trkpt>
      <trkpt lat="45.31622" lon="4.78609">
        <ele>140.60000610352</ele>
        <time>2024-05-21T08:26:46.000Z</time>
      </trkpt>
      <trkpt lat="45.3162" lon="4.78615">
        <ele>140.60000610352</ele>
        <time>2024-05-21T08:26:47.000Z</time>
      </trkpt>
      <trkpt lat="45.31617" lon="4.78623">
        <ele>140.60000610352</ele>
        <time>2024-05-21T08:26:48.000Z</time>
      </trkpt>
      <trkpt lat="45.31615" lon="4.78628">
        <ele>140.39999389648</ele>
        <time>2024-05-21T08:26:49.000Z</time>
      </trkpt>
      <trkpt lat="45.31612" lon="4.78635">
        <ele>140.39999389648</ele>
        <time>2024-05-21T08:26:50.000Z</time>
      </trkpt>
      <trkpt lat="45.31609" lon="4.78642">
        <ele>140.39999389648</ele>
        <time>2024-05-21T08:26:51.000Z</time>
      </trkpt>
      <trkpt lat="45.31607" lon="4.78648">
        <ele>140.19999694824</ele>
        <time>2024-05-21T08:26:52.000Z</time>
      </trkpt>
      <trkpt lat="45.31605" lon="4.78654">
        <ele>140.19999694824</ele>
        <time>2024-05-21T08:26:53.000Z</time>
      </trkpt>
      <trkpt lat="45.31602" lon="4.78661">
        <ele>140.19999694824</ele>
        <time>2024-05-21T08:26:54.000Z</time>
      </trkpt>
      <trkpt lat="45.316" lon="4.78668">
        <ele>140.19999694824</ele>
        <time>2024-05-21T08:26:55.000Z</time>
      </trkpt>
      <trkpt lat="45.31598" lon="4.78675">
        <ele>140.19999694824</ele>
        <time>2024-05-21T08:26:56.000Z</time>
      </trkpt>
      <trkpt lat="45.31596" lon="4.78682">
        <ele>140.39999389648</ele>
        <time>2024-05-21T08:26:57.000Z</time>
      </trkpt>
      <trkpt lat="45.31593" lon="4.78688">
        <ele>140.39999389648</ele>
        <time>2024-05-21T08:26:58.000Z</time>
      </trkpt>
      <trkpt lat="45.31591" lon="4.78695">
        <ele>140.39999389648</ele>
        <time>2024-05-21T08:26:59.000Z</time>
      </trkpt>
      <trkpt lat="45.31589" lon="4.78702">
        <ele>140.39999389648</ele>
        <time>2024-05-21T08:27:00.000Z</time>
      </trkpt>
      <trkpt lat="45.31586" lon="4.78711">
        <ele>140.39999389648</ele>
        <time>2024-05-21T08:27:01.000Z</time>
      </trkpt>
      <trkpt lat="45.31585" lon="4.78716">
        <ele>140.39999389648</ele>
        <time>2024-05-21T08:27:02.000Z</time>
      </trkpt>
      <trkpt lat="45.31583" lon="4.78725">
        <ele>140.60000610352</ele>
        <time>2024-05-21T08:27:03.000Z</time>
      </trkpt>
      <trkpt lat="45.31581" lon="4.78732">
        <ele>140.80000305176</ele>
        <time>2024-05-21T08:27:04.000Z</time>
      </trkpt>
      <trkpt lat="45.31579" lon="4.78739">
        <ele>140.80000305176</ele>
        <time>2024-05-21T08:27:05.000Z</time>
      </trkpt>
      <trkpt lat="45.31577" lon="4.78745">
        <ele>141</ele>
        <time>2024-05-21T08:27:06.000Z</time>
      </trkpt>
      <trkpt lat="45.31576" lon="4.78752">
        <ele>141</ele>
        <time>2024-05-21T08:27:07.000Z</time>
      </trkpt>
      <trkpt lat="45.31574" lon="4.7876">
        <ele>141</ele>
        <time>2024-05-21T08:27:08.000Z</time>
      </trkpt>
      <trkpt lat="45.31573" lon="4.78767">
        <ele>141</ele>
        <time>2024-05-21T08:27:09.000Z</time>
      </trkpt>
      <trkpt lat="45.31571" lon="4.78775">
        <ele>141</ele>
        <time>2024-05-21T08:27:10.000Z</time>
      </trkpt>
      <trkpt lat="45.3157" lon="4.78782">
        <ele>141.19999694824</ele>
        <time>2024-05-21T08:27:11.000Z</time>
      </trkpt>
      <trkpt lat="45.31568" lon="4.78789">
        <ele>141.19999694824</ele>
        <time>2024-05-21T08:27:12.000Z</time>
      </trkpt>
      <trkpt lat="45.31566" lon="4.78797">
        <ele>141.19999694824</ele>
        <time>2024-05-21T08:27:13.000Z</time>
      </trkpt>
      <trkpt lat="45.31564" lon="4.78804">
        <ele>141.19999694824</ele>
        <time>2024-05-21T08:27:14.000Z</time>
      </trkpt>
      <trkpt lat="45.31562" lon="4.78811">
        <ele>141.39999389648</ele>
        <time>2024-05-21T08:27:15.000Z</time>
      </trkpt>
      <trkpt lat="45.3156" lon="4.78818">
        <ele>141.39999389648</ele>
        <time>2024-05-21T08:27:16.000Z</time>
      </trkpt>
      <trkpt lat="45.31556" lon="4.78825">
        <ele>141.39999389648</ele>
        <time>2024-05-21T08:27:17.000Z</time>
      </trkpt>
      <trkpt lat="45.31553" lon="4.78831">
        <ele>141.39999389648</ele>
        <time>2024-05-21T08:27:18.000Z</time>
      </trkpt>
      <trkpt lat="45.31549" lon="4.78837">
        <ele>141.19999694824</ele>
        <time>2024-05-21T08:27:19.000Z</time>
      </trkpt>
      <trkpt lat="45.31545" lon="4.78842">
        <ele>141.19999694824</ele>
        <time>2024-05-21T08:27:20.000Z</time>
      </trkpt>
      <trkpt lat="45.3154" lon="4.78847">
        <ele>141</ele>
        <time>2024-05-21T08:27:21.000Z</time>
      </trkpt>
      <trkpt lat="45.31536" lon="4.78852">
        <ele>141</ele>
        <time>2024-05-21T08:27:22.000Z</time>
      </trkpt>
      <trkpt lat="45.31531" lon="4.78856">
        <ele>140.80000305176</ele>
        <time>2024-05-21T08:27:23.000Z</time>
      </trkpt>
      <trkpt lat="45.31526" lon="4.7886">
        <ele>140.80000305176</ele>
        <time>2024-05-21T08:27:24.000Z</time>
      </trkpt>
      <trkpt lat="45.31521" lon="4.78863">
        <ele>140.80000305176</ele>
        <time>2024-05-21T08:27:25.000Z</time>
      </trkpt>
      <trkpt lat="45.31516" lon="4.78866">
        <ele>140.80000305176</ele>
        <time>2024-05-21T08:27:26.000Z</time>
      </trkpt>
      <trkpt lat="45.3151" lon="4.78869">
        <ele>140.80000305176</ele>
        <time>2024-05-21T08:27:27.000Z</time>
      </trkpt>
      <trkpt lat="45.31505" lon="4.78873">
        <ele>140.80000305176</ele>
        <time>2024-05-21T08:27:28.000Z</time>
      </trkpt>
      <trkpt lat="45.315" lon="4.78876">
        <ele>141.19999694824</ele>
        <time>2024-05-21T08:27:29.000Z</time>
      </trkpt>
      <trkpt lat="45.31495" lon="4.78879">
        <ele>141.19999694824</ele>
        <time>2024-05-21T08:27:30.000Z</time>
      </trkpt>
      <trkpt lat="45.31489" lon="4.78882">
        <ele>141.19999694824</ele>
        <time>2024-05-21T08:27:31.000Z</time>
      </trkpt>
      <trkpt lat="45.31484" lon="4.78886">
        <ele>141.19999694824</ele>
        <time>2024-05-21T08:27:32.000Z</time>
      </trkpt>
      <trkpt lat="45.31479" lon="4.78889">
        <ele>141.19999694824</ele>
        <time>2024-05-21T08:27:33.000Z</time>
      </trkpt>
      <trkpt lat="45.31474" lon="4.78892">
        <ele>141.19999694824</ele>
        <time>2024-05-21T08:27:34.000Z</time>
      </trkpt>
      <trkpt lat="45.31469" lon="4.78896">
        <ele>141</ele>
        <time>2024-05-21T08:27:35.000Z</time>
      </trkpt>
      <trkpt lat="45.31464" lon="4.78899">
        <ele>141</ele>
        <time>2024-05-21T08:27:36.000Z</time>
      </trkpt>
      <trkpt lat="45.31459" lon="4.78902">
        <ele>141</ele>
        <time>2024-05-21T08:27:37.000Z</time>
      </trkpt>
      <trkpt lat="45.31454" lon="4.78905">
        <ele>141</ele>
        <time>2024-05-21T08:27:38.000Z</time>
      </trkpt>
      <trkpt lat="45.31449" lon="4.78908">
        <ele>141.19999694824</ele>
        <time>2024-05-21T08:27:39.000Z</time>
      </trkpt>
      <trkpt lat="45.31444" lon="4.78912">
        <ele>141.19999694824</ele>
        <time>2024-05-21T08:27:40.000Z</time>
      </trkpt>
      <trkpt lat="45.31439" lon="4.78915">
        <ele>141.39999389648</ele>
        <time>2024-05-21T08:27:41.000Z</time>
      </trkpt>
      <trkpt lat="45.31434" lon="4.78918">
        <ele>141.39999389648</ele>
        <time>2024-05-21T08:27:42.000Z</time>
      </trkpt>
      <trkpt lat="45.31429" lon="4.78922">
        <ele>141.39999389648</ele>
        <time>2024-05-21T08:27:43.000Z</time>
      </trkpt>
      <trkpt lat="45.31424" lon="4.78925">
        <ele>141.39999389648</ele>
        <time>2024-05-21T08:27:44.000Z</time>
      </trkpt>
      <trkpt lat="45.31419" lon="4.78928">
        <ele>141.39999389648</ele>
        <time>2024-05-21T08:27:45.000Z</time>
      </trkpt>
      <trkpt lat="45.31414" lon="4.78932">
        <ele>141.39999389648</ele>
        <time>2024-05-21T08:27:46.000Z</time>
      </trkpt>
      <trkpt lat="45.31409" lon="4.78935">
        <ele>141.39999389648</ele>
        <time>2024-05-21T08:27:47.000Z</time>
      </trkpt>
      <trkpt lat="45.31403" lon="4.78939">
        <ele>141.39999389648</ele>
        <time>2024-05-21T08:27:48.000Z</time>
      </trkpt>
      <trkpt lat="45.31398" lon="4.78942">
        <ele>141.19999694824</ele>
        <time>2024-05-21T08:27:49.000Z</time>
      </trkpt>
      <trkpt lat="45.31393" lon="4.78946">
        <ele>141.19999694824</ele>
        <time>2024-05-21T08:27:50.000Z</time>
      </trkpt>
      <trkpt lat="45.31388" lon="4.78949">
        <ele>141.19999694824</ele>
        <time>2024-05-21T08:27:51.000Z</time>
      </trkpt>
      <trkpt lat="45.31383" lon="4.78953">
        <ele>141.19999694824</ele>
        <time>2024-05-21T08:27:52.000Z</time>
      </trkpt>
      <trkpt lat="45.31378" lon="4.78956">
        <ele>141.19999694824</ele>
        <time>2024-05-21T08:27:53.000Z</time>
      </trkpt>
      <trkpt lat="45.31373" lon="4.7896">
        <ele>141.19999694824</ele>
        <time>2024-05-21T08:27:54.000Z</time>
      </trkpt>
      <trkpt lat="45.31368" lon="4.78963">
        <ele>141.19999694824</ele>
        <time>2024-05-21T08:27:55.000Z</time>
      </trkpt>
      <trkpt lat="45.31362" lon="4.78967">
        <ele>141.39999389648</ele>
        <time>2024-05-21T08:27:56.000Z</time>
      </trkpt>
      <trkpt lat="45.31357" lon="4.7897">
        <ele>141.39999389648</ele>
        <time>2024-05-21T08:27:57.000Z</time>
      </trkpt>
      <trkpt lat="45.31353" lon="4.78973">
        <ele>141.39999389648</ele>
        <time>2024-05-21T08:27:58.000Z</time>
      </trkpt>
      <trkpt lat="45.31348" lon="4.78976">
        <ele>141.39999389648</ele>
        <time>2024-05-21T08:27:59.000Z</time>
      </trkpt>
      <trkpt lat="45.31343" lon="4.78979">
        <ele>141.39999389648</ele>
        <time>2024-05-21T08:28:00.000Z</time>
      </trkpt>
      <trkpt lat="45.31337" lon="4.78983">
        <ele>141.39999389648</ele>
        <time>2024-05-21T08:28:01.000Z</time>
      </trkpt>
      <trkpt lat="45.31331" lon="4.78987">
        <ele>141.39999389648</ele>
        <time>2024-05-21T08:28:02.000Z</time>
      </trkpt>
      <trkpt lat="45.31326" lon="4.7899">
        <ele>141.39999389648</ele>
        <time>2024-05-21T08:28:03.000Z</time>
      </trkpt>
      <trkpt lat="45.31321" lon="4.78993">
        <ele>141.39999389648</ele>
        <time>2024-05-21T08:28:04.000Z</time>
      </trkpt>
      <trkpt lat="45.31315" lon="4.78997">
        <ele>141.39999389648</ele>
        <time>2024-05-21T08:28:05.000Z</time>
      </trkpt>
      <trkpt lat="45.31309" lon="4.79001">
        <ele>141.39999389648</ele>
        <time>2024-05-21T08:28:06.000Z</time>
      </trkpt>
      <trkpt lat="45.31304" lon="4.79005">
        <ele>141.39999389648</ele>
        <time>2024-05-21T08:28:07.000Z</time>
      </trkpt>
      <trkpt lat="45.31299" lon="4.79008">
        <ele>141.39999389648</ele>
        <time>2024-05-21T08:28:08.000Z</time>
      </trkpt>
      <trkpt lat="45.31294" lon="4.79012">
        <ele>141.39999389648</ele>
        <time>2024-05-21T08:28:09.000Z</time>
      </trkpt>
      <trkpt lat="45.31288" lon="4.79015">
        <ele>141.39999389648</ele>
        <time>2024-05-21T08:28:10.000Z</time>
      </trkpt>
      <trkpt lat="45.31283" lon="4.79019">
        <ele>141.39999389648</ele>
        <time>2024-05-21T08:28:11.000Z</time>
      </trkpt>
      <trkpt lat="45.31277" lon="4.79022">
        <ele>141.39999389648</ele>
        <time>2024-05-21T08:28:12.000Z</time>
      </trkpt>
      <trkpt lat="45.31273" lon="4.79025">
        <ele>141.39999389648</ele>
        <time>2024-05-21T08:28:13.000Z</time>
      </trkpt>
      <trkpt lat="45.31267" lon="4.79029">
        <ele>141.39999389648</ele>
        <time>2024-05-21T08:28:14.000Z</time>
      </trkpt>
      <trkpt lat="45.31262" lon="4.79033">
        <ele>141.39999389648</ele>
        <time>2024-05-21T08:28:15.000Z</time>
      </trkpt>
      <trkpt lat="45.31256" lon="4.79036">
        <ele>141.39999389648</ele>
        <time>2024-05-21T08:28:16.000Z</time>
      </trkpt>
      <trkpt lat="45.31251" lon="4.7904">
        <ele>141.39999389648</ele>
        <time>2024-05-21T08:28:17.000Z</time>
      </trkpt>
      <trkpt lat="45.31246" lon="4.79044">
        <ele>141.39999389648</ele>
        <time>2024-05-21T08:28:18.000Z</time>
      </trkpt>
      <trkpt lat="45.31242" lon="4.79047">
        <ele>141.39999389648</ele>
        <time>2024-05-21T08:28:19.000Z</time>
      </trkpt>
      <trkpt lat="45.31237" lon="4.7905">
        <ele>141.39999389648</ele>
        <time>2024-05-21T08:28:20.000Z</time>
      </trkpt>
      <trkpt lat="45.31231" lon="4.79054">
        <ele>141.39999389648</ele>
        <time>2024-05-21T08:28:21.000Z</time>
      </trkpt>
      <trkpt lat="45.31226" lon="4.79057">
        <ele>141.39999389648</ele>
        <time>2024-05-21T08:28:22.000Z</time>
      </trkpt>
      <trkpt lat="45.3122" lon="4.79061">
        <ele>141.39999389648</ele>
        <time>2024-05-21T08:28:23.000Z</time>
      </trkpt>
      <trkpt lat="45.31216" lon="4.79064">
        <ele>141.39999389648</ele>
        <time>2024-05-21T08:28:24.000Z</time>
      </trkpt>
      <trkpt lat="45.3121" lon="4.79068">
        <ele>141.39999389648</ele>
        <time>2024-05-21T08:28:25.000Z</time>
      </trkpt>
      <trkpt lat="45.31206" lon="4.7907">
        <ele>141.39999389648</ele>
        <time>2024-05-21T08:28:26.000Z</time>
      </trkpt>
      <trkpt lat="45.31199" lon="4.79075">
        <ele>141.19999694824</ele>
        <time>2024-05-21T08:28:27.000Z</time>
      </trkpt>
      <trkpt lat="45.31195" lon="4.79078">
        <ele>141</ele>
        <time>2024-05-21T08:28:28.000Z</time>
      </trkpt>
      <trkpt lat="45.31189" lon="4.79082">
        <ele>141</ele>
        <time>2024-05-21T08:28:29.000Z</time>
      </trkpt>
      <trkpt lat="45.31183" lon="4.79085">
        <ele>141</ele>
        <time>2024-05-21T08:28:30.000Z</time>
      </trkpt>
      <trkpt lat="45.31179" lon="4.79087">
        <ele>141</ele>
        <time>2024-05-21T08:28:31.000Z</time>
      </trkpt>
      <trkpt lat="45.31174" lon="4.79091">
        <ele>141</ele>
        <time>2024-05-21T08:28:32.000Z</time>
      </trkpt>
      <trkpt lat="45.31168" lon="4.79095">
        <ele>141</ele>
        <time>2024-05-21T08:28:33.000Z</time>
      </trkpt>
      <trkpt lat="45.31164" lon="4.79097">
        <ele>141</ele>
        <time>2024-05-21T08:28:34.000Z</time>
      </trkpt>
      <trkpt lat="45.31158" lon="4.79101">
        <ele>141</ele>
        <time>2024-05-21T08:28:35.000Z</time>
      </trkpt>
      <trkpt lat="45.31153" lon="4.79105">
        <ele>141</ele>
        <time>2024-05-21T08:28:36.000Z</time>
      </trkpt>
      <trkpt lat="45.31148" lon="4.79108">
        <ele>141</ele>
        <time>2024-05-21T08:28:37.000Z</time>
      </trkpt>
      <trkpt lat="45.31143" lon="4.79111">
        <ele>141</ele>
        <time>2024-05-21T08:28:38.000Z</time>
      </trkpt>
      <trkpt lat="45.31137" lon="4.79115">
        <ele>141</ele>
        <time>2024-05-21T08:28:39.000Z</time>
      </trkpt>
      <trkpt lat="45.31132" lon="4.79119">
        <ele>141.19999694824</ele>
        <time>2024-05-21T08:28:40.000Z</time>
      </trkpt>
      <trkpt lat="45.31128" lon="4.79122">
        <ele>141.19999694824</ele>
        <time>2024-05-21T08:28:41.000Z</time>
      </trkpt>
      <trkpt lat="45.31123" lon="4.79126">
        <ele>141.19999694824</ele>
        <time>2024-05-21T08:28:42.000Z</time>
      </trkpt>
      <trkpt lat="45.31118" lon="4.79129">
        <ele>141.19999694824</ele>
        <time>2024-05-21T08:28:43.000Z</time>
      </trkpt>
      <trkpt lat="45.31112" lon="4.79132">
        <ele>141.19999694824</ele>
        <time>2024-05-21T08:28:44.000Z</time>
      </trkpt>
      <trkpt lat="45.31107" lon="4.79136">
        <ele>141.19999694824</ele>
        <time>2024-05-21T08:28:45.000Z</time>
      </trkpt>
      <trkpt lat="45.31102" lon="4.79139">
        <ele>141</ele>
        <time>2024-05-21T08:28:46.000Z</time>
      </trkpt>
      <trkpt lat="45.31097" lon="4.79142">
        <ele>141</ele>
        <time>2024-05-21T08:28:47.000Z</time>
      </trkpt>
      <trkpt lat="45.31092" lon="4.79146">
        <ele>141</ele>
        <time>2024-05-21T08:28:48.000Z</time>
      </trkpt>
      <trkpt lat="45.31088" lon="4.79148">
        <ele>141</ele>
        <time>2024-05-21T08:28:49.000Z</time>
      </trkpt>
      <trkpt lat="45.31083" lon="4.79151">
        <ele>140.80000305176</ele>
        <time>2024-05-21T08:28:50.000Z</time>
      </trkpt>
      <trkpt lat="45.31077" lon="4.79156">
        <ele>140.80000305176</ele>
        <time>2024-05-21T08:28:51.000Z</time>
      </trkpt>
      <trkpt lat="45.31072" lon="4.79159">
        <ele>140.80000305176</ele>
        <time>2024-05-21T08:28:52.000Z</time>
      </trkpt>
      <trkpt lat="45.31068" lon="4.79162">
        <ele>140.80000305176</ele>
        <time>2024-05-21T08:28:53.000Z</time>
      </trkpt>
      <trkpt lat="45.31063" lon="4.79166">
        <ele>140.80000305176</ele>
        <time>2024-05-21T08:28:54.000Z</time>
      </trkpt>
      <trkpt lat="45.31058" lon="4.7917">
        <ele>140.80000305176</ele>
        <time>2024-05-21T08:28:55.000Z</time>
      </trkpt>
      <trkpt lat="45.31053" lon="4.79174">
        <ele>140.80000305176</ele>
        <time>2024-05-21T08:28:56.000Z</time>
      </trkpt>
      <trkpt lat="45.31047" lon="4.79179">
        <ele>140.80000305176</ele>
        <time>2024-05-21T08:28:57.000Z</time>
      </trkpt>
      <trkpt lat="45.31042" lon="4.79183">
        <ele>140.80000305176</ele>
        <time>2024-05-21T08:28:58.000Z</time>
      </trkpt>
      <trkpt lat="45.31037" lon="4.79187">
        <ele>140.80000305176</ele>
        <time>2024-05-21T08:28:59.000Z</time>
      </trkpt>
      <trkpt lat="45.31033" lon="4.79192">
        <ele>140.80000305176</ele>
        <time>2024-05-21T08:29:00.000Z</time>
      </trkpt>
      <trkpt lat="45.31028" lon="4.79196">
        <ele>140.80000305176</ele>
        <time>2024-05-21T08:29:01.000Z</time>
      </trkpt>
      <trkpt lat="45.31025" lon="4.792">
        <ele>140.80000305176</ele>
        <time>2024-05-21T08:29:02.000Z</time>
      </trkpt>
      <trkpt lat="45.3102" lon="4.79204">
        <ele>141</ele>
        <time>2024-05-21T08:29:03.000Z</time>
      </trkpt>
      <trkpt lat="45.31016" lon="4.79208">
        <ele>141.19999694824</ele>
        <time>2024-05-21T08:29:04.000Z</time>
      </trkpt>
      <trkpt lat="45.31012" lon="4.79212">
        <ele>141.19999694824</ele>
        <time>2024-05-21T08:29:05.000Z</time>
      </trkpt>
      <trkpt lat="45.31006" lon="4.79218">
        <ele>141.19999694824</ele>
        <time>2024-05-21T08:29:06.000Z</time>
      </trkpt>
      <trkpt lat="45.31002" lon="4.79222">
        <ele>141.19999694824</ele>
        <time>2024-05-21T08:29:07.000Z</time>
      </trkpt>
      <trkpt lat="45.30998" lon="4.79226">
        <ele>141.19999694824</ele>
        <time>2024-05-21T08:29:08.000Z</time>
      </trkpt>
      <trkpt lat="45.30994" lon="4.79231">
        <ele>141.19999694824</ele>
        <time>2024-05-21T08:29:09.000Z</time>
      </trkpt>
      <trkpt lat="45.30988" lon="4.79236">
        <ele>141.19999694824</ele>
        <time>2024-05-21T08:29:10.000Z</time>
      </trkpt>
      <trkpt lat="45.30984" lon="4.7924">
        <ele>141.19999694824</ele>
        <time>2024-05-21T08:29:11.000Z</time>
      </trkpt>
      <trkpt lat="45.30979" lon="4.79245">
        <ele>141.19999694824</ele>
        <time>2024-05-21T08:29:12.000Z</time>
      </trkpt>
      <trkpt lat="45.30975" lon="4.79249">
        <ele>141</ele>
        <time>2024-05-21T08:29:13.000Z</time>
      </trkpt>
      <trkpt lat="45.3097" lon="4.79254">
        <ele>141</ele>
        <time>2024-05-21T08:29:14.000Z</time>
      </trkpt>
      <trkpt lat="45.30966" lon="4.79258">
        <ele>141</ele>
        <time>2024-05-21T08:29:15.000Z</time>
      </trkpt>
      <trkpt lat="45.30961" lon="4.79263">
        <ele>141</ele>
        <time>2024-05-21T08:29:16.000Z</time>
      </trkpt>
      <trkpt lat="45.30956" lon="4.79267">
        <ele>141</ele>
        <time>2024-05-21T08:29:17.000Z</time>
      </trkpt>
      <trkpt lat="45.30952" lon="4.79271">
        <ele>141</ele>
        <time>2024-05-21T08:29:18.000Z</time>
      </trkpt>
      <trkpt lat="45.30947" lon="4.79275">
        <ele>141</ele>
        <time>2024-05-21T08:29:19.000Z</time>
      </trkpt>
      <trkpt lat="45.30942" lon="4.79279">
        <ele>140.80000305176</ele>
        <time>2024-05-21T08:29:20.000Z</time>
      </trkpt>
      <trkpt lat="45.30937" lon="4.79283">
        <ele>140.80000305176</ele>
        <time>2024-05-21T08:29:21.000Z</time>
      </trkpt>
      <trkpt lat="45.30931" lon="4.79287">
        <ele>140.80000305176</ele>
        <time>2024-05-21T08:29:22.000Z</time>
      </trkpt>
      <trkpt lat="45.30927" lon="4.7929">
        <ele>140.60000610352</ele>
        <time>2024-05-21T08:29:23.000Z</time>
      </trkpt>
      <trkpt lat="45.30922" lon="4.79294">
        <ele>140.60000610352</ele>
        <time>2024-05-21T08:29:24.000Z</time>
      </trkpt>
      <trkpt lat="45.30916" lon="4.79299">
        <ele>140.60000610352</ele>
        <time>2024-05-21T08:29:25.000Z</time>
      </trkpt>
      <trkpt lat="45.30911" lon="4.79302">
        <ele>140.60000610352</ele>
        <time>2024-05-21T08:29:26.000Z</time>
      </trkpt>
      <trkpt lat="45.30905" lon="4.79306">
        <ele>140.39999389648</ele>
        <time>2024-05-21T08:29:27.000Z</time>
      </trkpt>
      <trkpt lat="45.30901" lon="4.79309">
        <ele>140.39999389648</ele>
        <time>2024-05-21T08:29:28.000Z</time>
      </trkpt>
      <trkpt lat="45.30896" lon="4.79313">
        <ele>140.39999389648</ele>
        <time>2024-05-21T08:29:29.000Z</time>
      </trkpt>
      <trkpt lat="45.3089" lon="4.79318">
        <ele>140.39999389648</ele>
        <time>2024-05-21T08:29:30.000Z</time>
      </trkpt>
      <trkpt lat="45.30885" lon="4.79321">
        <ele>140.39999389648</ele>
        <time>2024-05-21T08:29:31.000Z</time>
      </trkpt>
      <trkpt lat="45.30881" lon="4.79324">
        <ele>140.60000610352</ele>
        <time>2024-05-21T08:29:32.000Z</time>
      </trkpt>
      <trkpt lat="45.30875" lon="4.79329">
        <ele>140.80000305176</ele>
        <time>2024-05-21T08:29:33.000Z</time>
      </trkpt>
      <trkpt lat="45.3087" lon="4.79332">
        <ele>140.80000305176</ele>
        <time>2024-05-21T08:29:34.000Z</time>
      </trkpt>
      <trkpt lat="45.30866" lon="4.79335">
        <ele>140.80000305176</ele>
        <time>2024-05-21T08:29:35.000Z</time>
      </trkpt>
      <trkpt lat="45.30861" lon="4.7934">
        <ele>141</ele>
        <time>2024-05-21T08:29:36.000Z</time>
      </trkpt>
      <trkpt lat="45.30856" lon="4.79343">
        <ele>141</ele>
        <time>2024-05-21T08:29:37.000Z</time>
      </trkpt>
      <trkpt lat="45.30851" lon="4.79346">
        <ele>141</ele>
        <time>2024-05-21T08:29:38.000Z</time>
      </trkpt>
      <trkpt lat="45.30845" lon="4.79351">
        <ele>141</ele>
        <time>2024-05-21T08:29:39.000Z</time>
      </trkpt>
      <trkpt lat="45.3084" lon="4.79354">
        <ele>141</ele>
        <time>2024-05-21T08:29:40.000Z</time>
      </trkpt>
      <trkpt lat="45.30837" lon="4.79357">
        <ele>141</ele>
        <time>2024-05-21T08:29:41.000Z</time>
      </trkpt>
      <trkpt lat="45.30831" lon="4.79362">
        <ele>140.80000305176</ele>
        <time>2024-05-21T08:29:42.000Z</time>
      </trkpt>
      <trkpt lat="45.30827" lon="4.79366">
        <ele>140.60000610352</ele>
        <time>2024-05-21T08:29:43.000Z</time>
      </trkpt>
      <trkpt lat="45.30823" lon="4.79369">
        <ele>140.39999389648</ele>
        <time>2024-05-21T08:29:44.000Z</time>
      </trkpt>
      <trkpt lat="45.30819" lon="4.79372">
        <ele>140.39999389648</ele>
        <time>2024-05-21T08:29:45.000Z</time>
      </trkpt>
      <trkpt lat="45.30815" lon="4.79373">
        <ele>140.39999389648</ele>
        <time>2024-05-21T08:29:46.000Z</time>
      </trkpt>
      <trkpt lat="45.3081" lon="4.79374">
        <ele>140.39999389648</ele>
        <time>2024-05-21T08:29:47.000Z</time>
      </trkpt>
      <trkpt lat="45.30806" lon="4.79375">
        <ele>140.60000610352</ele>
        <time>2024-05-21T08:29:48.000Z</time>
      </trkpt>
      <trkpt lat="45.308" lon="4.79374">
        <ele>140.80000305176</ele>
        <time>2024-05-21T08:29:49.000Z</time>
      </trkpt>
      <trkpt lat="45.30796" lon="4.79373">
        <ele>140.80000305176</ele>
        <time>2024-05-21T08:29:50.000Z</time>
      </trkpt>
      <trkpt lat="45.30792" lon="4.79372">
        <ele>140.80000305176</ele>
        <time>2024-05-21T08:29:51.000Z</time>
      </trkpt>
      <trkpt lat="45.30787" lon="4.79372">
        <ele>140.80000305176</ele>
        <time>2024-05-21T08:29:52.000Z</time>
      </trkpt>
      <trkpt lat="45.30784" lon="4.79375">
        <ele>140.80000305176</ele>
        <time>2024-05-21T08:29:53.000Z</time>
      </trkpt>
      <trkpt lat="45.30781" lon="4.7938">
        <ele>140.80000305176</ele>
        <time>2024-05-21T08:29:54.000Z</time>
      </trkpt>
      <trkpt lat="45.30779" lon="4.79388">
        <ele>140.80000305176</ele>
        <time>2024-05-21T08:29:55.000Z</time>
      </trkpt>
      <trkpt lat="45.30778" lon="4.79393">
        <ele>140.80000305176</ele>
        <time>2024-05-21T08:29:56.000Z</time>
      </trkpt>
      <trkpt lat="45.30775" lon="4.79401">
        <ele>140.80000305176</ele>
        <time>2024-05-21T08:29:57.000Z</time>
      </trkpt>
      <trkpt lat="45.30772" lon="4.79406">
        <ele>140.80000305176</ele>
        <time>2024-05-21T08:29:58.000Z</time>
      </trkpt>
      <trkpt lat="45.30769" lon="4.79409">
        <ele>140.60000610352</ele>
        <time>2024-05-21T08:29:59.000Z</time>
      </trkpt>
      <trkpt lat="45.30763" lon="4.79414">
        <ele>140.60000610352</ele>
        <time>2024-05-21T08:30:00.000Z</time>
      </trkpt>
      <trkpt lat="45.3076" lon="4.79417">
        <ele>140.39999389648</ele>
        <time>2024-05-21T08:30:01.000Z</time>
      </trkpt>
      <trkpt lat="45.30755" lon="4.7942">
        <ele>140.39999389648</ele>
        <time>2024-05-21T08:30:02.000Z</time>
      </trkpt>
      <trkpt lat="45.3075" lon="4.79424">
        <ele>140.39999389648</ele>
        <time>2024-05-21T08:30:03.000Z</time>
      </trkpt>
      <trkpt lat="45.30746" lon="4.79427">
        <ele>140.39999389648</ele>
        <time>2024-05-21T08:30:04.000Z</time>
      </trkpt>
      <trkpt lat="45.30741" lon="4.79431">
        <ele>140.39999389648</ele>
        <time>2024-05-21T08:30:05.000Z</time>
      </trkpt>
      <trkpt lat="45.30737" lon="4.79434">
        <ele>140.39999389648</ele>
        <time>2024-05-21T08:30:06.000Z</time>
      </trkpt>
      <trkpt lat="45.30733" lon="4.79437">
        <ele>140.39999389648</ele>
        <time>2024-05-21T08:30:07.000Z</time>
      </trkpt>
      <trkpt lat="45.30729" lon="4.7944">
        <ele>140.60000610352</ele>
        <time>2024-05-21T08:30:08.000Z</time>
      </trkpt>
      <trkpt lat="45.30725" lon="4.79442">
        <ele>141</ele>
        <time>2024-05-21T08:30:09.000Z</time>
      </trkpt>
      <trkpt lat="45.30721" lon="4.79445">
        <ele>141</ele>
        <time>2024-05-21T08:30:10.000Z</time>
      </trkpt>
      <trkpt lat="45.30718" lon="4.79448">
        <ele>141.60000610352</ele>
        <time>2024-05-21T08:30:11.000Z</time>
      </trkpt>
      <trkpt lat="45.30715" lon="4.7945">
        <ele>141.60000610352</ele>
        <time>2024-05-21T08:30:12.000Z</time>
      </trkpt>
      <trkpt lat="45.30711" lon="4.79454">
        <ele>142</ele>
        <time>2024-05-21T08:30:13.000Z</time>
      </trkpt>
      <trkpt lat="45.30707" lon="4.79457">
        <ele>142</ele>
        <time>2024-05-21T08:30:14.000Z</time>
      </trkpt>
      <trkpt lat="45.30705" lon="4.79459">
        <ele>142</ele>
        <time>2024-05-21T08:30:15.000Z</time>
      </trkpt>
      <trkpt lat="45.307" lon="4.79463">
        <ele>142.19999694824</ele>
        <time>2024-05-21T08:30:16.000Z</time>
      </trkpt>
      <trkpt lat="45.30696" lon="4.79465">
        <ele>142.39999389648</ele>
        <time>2024-05-21T08:30:17.000Z</time>
      </trkpt>
      <trkpt lat="45.30692" lon="4.79468">
        <ele>142.60000610352</ele>
        <time>2024-05-21T08:30:18.000Z</time>
      </trkpt>
      <trkpt lat="45.30688" lon="4.79471">
        <ele>142.80000305176</ele>
        <time>2024-05-21T08:30:19.000Z</time>
      </trkpt>
      <trkpt lat="45.30685" lon="4.79473">
        <ele>143</ele>
        <time>2024-05-21T08:30:20.000Z</time>
      </trkpt>
      <trkpt lat="45.30681" lon="4.79476">
        <ele>143</ele>
        <time>2024-05-21T08:30:21.000Z</time>
      </trkpt>
      <trkpt lat="45.30677" lon="4.79479">
        <ele>143.39999389648</ele>
        <time>2024-05-21T08:30:22.000Z</time>
      </trkpt>
      <trkpt lat="45.30674" lon="4.79481">
        <ele>143.60000610352</ele>
        <time>2024-05-21T08:30:23.000Z</time>
      </trkpt>
      <trkpt lat="45.3067" lon="4.79484">
        <ele>143.80000305176</ele>
        <time>2024-05-21T08:30:24.000Z</time>
      </trkpt>
      <trkpt lat="45.30666" lon="4.79487">
        <ele>144</ele>
        <time>2024-05-21T08:30:25.000Z</time>
      </trkpt>
      <trkpt lat="45.30664" lon="4.79488">
        <ele>144</ele>
        <time>2024-05-21T08:30:26.000Z</time>
      </trkpt>
      <trkpt lat="45.30659" lon="4.79491">
        <ele>144.19999694824</ele>
        <time>2024-05-21T08:30:27.000Z</time>
      </trkpt>
      <trkpt lat="45.30657" lon="4.79493">
        <ele>144.39999389648</ele>
        <time>2024-05-21T08:30:28.000Z</time>
      </trkpt>
      <trkpt lat="45.30653" lon="4.79496">
        <ele>144.60000610352</ele>
        <time>2024-05-21T08:30:29.000Z</time>
      </trkpt>
      <trkpt lat="45.3065" lon="4.795">
        <ele>144.80000305176</ele>
        <time>2024-05-21T08:30:30.000Z</time>
      </trkpt>
      <trkpt lat="45.30646" lon="4.79504">
        <ele>144.80000305176</ele>
        <time>2024-05-21T08:30:31.000Z</time>
      </trkpt>
      <trkpt lat="45.30644" lon="4.79506">
        <ele>145.19999694824</ele>
        <time>2024-05-21T08:30:32.000Z</time>
      </trkpt>
      <trkpt lat="45.30641" lon="4.79511">
        <ele>145.39999389648</ele>
        <time>2024-05-21T08:30:33.000Z</time>
      </trkpt>
      <trkpt lat="45.30639" lon="4.79514">
        <ele>145.39999389648</ele>
        <time>2024-05-21T08:30:34.000Z</time>
      </trkpt>
      <trkpt lat="45.30636" lon="4.79518">
        <ele>145.80000305176</ele>
        <time>2024-05-21T08:30:35.000Z</time>
      </trkpt>
      <trkpt lat="45.30633" lon="4.79522">
        <ele>145.80000305176</ele>
        <time>2024-05-21T08:30:36.000Z</time>
      </trkpt>
      <trkpt lat="45.30631" lon="4.79526">
        <ele>146</ele>
        <time>2024-05-21T08:30:37.000Z</time>
      </trkpt>
      <trkpt lat="45.30629" lon="4.79531">
        <ele>146.19999694824</ele>
        <time>2024-05-21T08:30:38.000Z</time>
      </trkpt>
      <trkpt lat="45.30627" lon="4.79535">
        <ele>146.60000610352</ele>
        <time>2024-05-21T08:30:39.000Z</time>
      </trkpt>
      <trkpt lat="45.30626" lon="4.79539">
        <ele>146.60000610352</ele>
        <time>2024-05-21T08:30:40.000Z</time>
      </trkpt>
      <trkpt lat="45.30624" lon="4.79545">
        <ele>146.80000305176</ele>
        <time>2024-05-21T08:30:41.000Z</time>
      </trkpt>
      <trkpt lat="45.30622" lon="4.7955">
        <ele>146.80000305176</ele>
        <time>2024-05-21T08:30:42.000Z</time>
      </trkpt>
      <trkpt lat="45.30622" lon="4.79554">
        <ele>147</ele>
        <time>2024-05-21T08:30:43.000Z</time>
      </trkpt>
      <trkpt lat="45.30621" lon="4.7956">
        <ele>147</ele>
        <time>2024-05-21T08:30:44.000Z</time>
      </trkpt>
      <trkpt lat="45.3062" lon="4.79564">
        <ele>147</ele>
        <time>2024-05-21T08:30:45.000Z</time>
      </trkpt>
      <trkpt lat="45.3062" lon="4.79569">
        <ele>147.19999694824</ele>
        <time>2024-05-21T08:30:46.000Z</time>
      </trkpt>
      <trkpt lat="45.30619" lon="4.79575">
        <ele>147.39999389648</ele>
        <time>2024-05-21T08:30:47.000Z</time>
      </trkpt>
      <trkpt lat="45.30619" lon="4.79579">
        <ele>147.39999389648</ele>
        <time>2024-05-21T08:30:48.000Z</time>
      </trkpt>
      <trkpt lat="45.30619" lon="4.79585">
        <ele>147.39999389648</ele>
        <time>2024-05-21T08:30:49.000Z</time>
      </trkpt>
      <trkpt lat="45.30619" lon="4.7959">
        <ele>147.60000610352</ele>
        <time>2024-05-21T08:30:50.000Z</time>
      </trkpt>
      <trkpt lat="45.3062" lon="4.79597">
        <ele>147.80000305176</ele>
        <time>2024-05-21T08:30:51.000Z</time>
      </trkpt>
      <trkpt lat="45.3062" lon="4.79601">
        <ele>147.80000305176</ele>
        <time>2024-05-21T08:30:52.000Z</time>
      </trkpt>
      <trkpt lat="45.30621" lon="4.79607">
        <ele>148</ele>
        <time>2024-05-21T08:30:53.000Z</time>
      </trkpt>
      <trkpt lat="45.30623" lon="4.79613">
        <ele>148</ele>
        <time>2024-05-21T08:30:54.000Z</time>
      </trkpt>
      <trkpt lat="45.30624" lon="4.79619">
        <ele>148</ele>
        <time>2024-05-21T08:30:55.000Z</time>
      </trkpt>
      <trkpt lat="45.30627" lon="4.79626">
        <ele>148.19999694824</ele>
        <time>2024-05-21T08:30:56.000Z</time>
      </trkpt>
      <trkpt lat="45.30629" lon="4.79631">
        <ele>148.19999694824</ele>
        <time>2024-05-21T08:30:57.000Z</time>
      </trkpt>
      <trkpt lat="45.30631" lon="4.79636">
        <ele>148.19999694824</ele>
        <time>2024-05-21T08:30:58.000Z</time>
      </trkpt>
      <trkpt lat="45.30634" lon="4.79643">
        <ele>148.19999694824</ele>
        <time>2024-05-21T08:30:59.000Z</time>
      </trkpt>
      <trkpt lat="45.30636" lon="4.79649">
        <ele>148.19999694824</ele>
        <time>2024-05-21T08:31:00.000Z</time>
      </trkpt>
      <trkpt lat="45.30638" lon="4.79654">
        <ele>148.19999694824</ele>
        <time>2024-05-21T08:31:01.000Z</time>
      </trkpt>
      <trkpt lat="45.3064" lon="4.79662">
        <ele>148.19999694824</ele>
        <time>2024-05-21T08:31:02.000Z</time>
      </trkpt>
      <trkpt lat="45.30643" lon="4.79668">
        <ele>148.39999389648</ele>
        <time>2024-05-21T08:31:03.000Z</time>
      </trkpt>
      <trkpt lat="45.30644" lon="4.79673">
        <ele>148.39999389648</ele>
        <time>2024-05-21T08:31:04.000Z</time>
      </trkpt>
      <trkpt lat="45.30647" lon="4.79681">
        <ele>148.39999389648</ele>
        <time>2024-05-21T08:31:05.000Z</time>
      </trkpt>
      <trkpt lat="45.3065" lon="4.79687">
        <ele>148.39999389648</ele>
        <time>2024-05-21T08:31:06.000Z</time>
      </trkpt>
      <trkpt lat="45.30652" lon="4.79692">
        <ele>148.39999389648</ele>
        <time>2024-05-21T08:31:07.000Z</time>
      </trkpt>
      <trkpt lat="45.30655" lon="4.797">
        <ele>148.39999389648</ele>
        <time>2024-05-21T08:31:08.000Z</time>
      </trkpt>
      <trkpt lat="45.30657" lon="4.79707">
        <ele>148.39999389648</ele>
        <time>2024-05-21T08:31:09.000Z</time>
      </trkpt>
      <trkpt lat="45.30659" lon="4.79712">
        <ele>148.39999389648</ele>
        <time>2024-05-21T08:31:10.000Z</time>
      </trkpt>
      <trkpt lat="45.30662" lon="4.79719">
        <ele>148.39999389648</ele>
        <time>2024-05-21T08:31:11.000Z</time>
      </trkpt>
      <trkpt lat="45.30664" lon="4.79726">
        <ele>148.39999389648</ele>
        <time>2024-05-21T08:31:12.000Z</time>
      </trkpt>
      <trkpt lat="45.30667" lon="4.79733">
        <ele>148.39999389648</ele>
        <time>2024-05-21T08:31:13.000Z</time>
      </trkpt>
      <trkpt lat="45.3067" lon="4.79741">
        <ele>148.19999694824</ele>
        <time>2024-05-21T08:31:14.000Z</time>
      </trkpt>
      <trkpt lat="45.30673" lon="4.79748">
        <ele>148.19999694824</ele>
        <time>2024-05-21T08:31:15.000Z</time>
      </trkpt>
      <trkpt lat="45.30675" lon="4.79755">
        <ele>148.19999694824</ele>
        <time>2024-05-21T08:31:16.000Z</time>
      </trkpt>
      <trkpt lat="45.30678" lon="4.79762">
        <ele>148.19999694824</ele>
        <time>2024-05-21T08:31:17.000Z</time>
      </trkpt>
      <trkpt lat="45.3068" lon="4.79769">
        <ele>148</ele>
        <time>2024-05-21T08:31:18.000Z</time>
      </trkpt>
      <trkpt lat="45.30682" lon="4.79775">
        <ele>148</ele>
        <time>2024-05-21T08:31:19.000Z</time>
      </trkpt>
      <trkpt lat="45.30685" lon="4.79783">
        <ele>148</ele>
        <time>2024-05-21T08:31:20.000Z</time>
      </trkpt>
      <trkpt lat="45.30687" lon="4.79789">
        <ele>148</ele>
        <time>2024-05-21T08:31:21.000Z</time>
      </trkpt>
      <trkpt lat="45.3069" lon="4.79796">
        <ele>148</ele>
        <time>2024-05-21T08:31:22.000Z</time>
      </trkpt>
      <trkpt lat="45.30693" lon="4.79804">
        <ele>147.80000305176</ele>
        <time>2024-05-21T08:31:23.000Z</time>
      </trkpt>
      <trkpt lat="45.30696" lon="4.79811">
        <ele>147.80000305176</ele>
        <time>2024-05-21T08:31:24.000Z</time>
      </trkpt>
      <trkpt lat="45.30697" lon="4.79817">
        <ele>147.60000610352</ele>
        <time>2024-05-21T08:31:25.000Z</time>
      </trkpt>
      <trkpt lat="45.30701" lon="4.79825">
        <ele>147.60000610352</ele>
        <time>2024-05-21T08:31:26.000Z</time>
      </trkpt>
      <trkpt lat="45.30704" lon="4.79832">
        <ele>147.60000610352</ele>
        <time>2024-05-21T08:31:27.000Z</time>
      </trkpt>
      <trkpt lat="45.30706" lon="4.79838">
        <ele>147.60000610352</ele>
        <time>2024-05-21T08:31:28.000Z</time>
      </trkpt>
      <trkpt lat="45.30708" lon="4.79844">
        <ele>147.60000610352</ele>
        <time>2024-05-21T08:31:29.000Z</time>
      </trkpt>
      <trkpt lat="45.30711" lon="4.79851">
        <ele>147.60000610352</ele>
        <time>2024-05-21T08:31:30.000Z</time>
      </trkpt>
      <trkpt lat="45.30713" lon="4.79858">
        <ele>147.60000610352</ele>
        <time>2024-05-21T08:31:31.000Z</time>
      </trkpt>
      <trkpt lat="45.30715" lon="4.79864">
        <ele>147.80000305176</ele>
        <time>2024-05-21T08:31:32.000Z</time>
      </trkpt>
      <trkpt lat="45.30718" lon="4.79872">
        <ele>147.80000305176</ele>
        <time>2024-05-21T08:31:33.000Z</time>
      </trkpt>
      <trkpt lat="45.3072" lon="4.79878">
        <ele>147.80000305176</ele>
        <time>2024-05-21T08:31:34.000Z</time>
      </trkpt>
      <trkpt lat="45.30723" lon="4.79885">
        <ele>147.80000305176</ele>
        <time>2024-05-21T08:31:35.000Z</time>
      </trkpt>
      <trkpt lat="45.30725" lon="4.79892">
        <ele>147.80000305176</ele>
        <time>2024-05-21T08:31:36.000Z</time>
      </trkpt>
      <trkpt lat="45.30728" lon="4.79898">
        <ele>147.60000610352</ele>
        <time>2024-05-21T08:31:37.000Z</time>
      </trkpt>
      <trkpt lat="45.30731" lon="4.79906">
        <ele>147.60000610352</ele>
        <time>2024-05-21T08:31:38.000Z</time>
      </trkpt>
      <trkpt lat="45.30734" lon="4.79914">
        <ele>147.60000610352</ele>
        <time>2024-05-21T08:31:39.000Z</time>
      </trkpt>
      <trkpt lat="45.30736" lon="4.79921">
        <ele>147.39999389648</ele>
        <time>2024-05-21T08:31:40.000Z</time>
      </trkpt>
      <trkpt lat="45.30738" lon="4.79927">
        <ele>147.19999694824</ele>
        <time>2024-05-21T08:31:41.000Z</time>
      </trkpt>
      <trkpt lat="45.30742" lon="4.79937">
        <ele>147</ele>
        <time>2024-05-21T08:31:42.000Z</time>
      </trkpt>
      <trkpt lat="45.30744" lon="4.79943">
        <ele>147</ele>
        <time>2024-05-21T08:31:43.000Z</time>
      </trkpt>
      <trkpt lat="45.30748" lon="4.79952">
        <ele>147</ele>
        <time>2024-05-21T08:31:44.000Z</time>
      </trkpt>
      <trkpt lat="45.3075" lon="4.7996">
        <ele>146.39999389648</ele>
        <time>2024-05-21T08:31:45.000Z</time>
      </trkpt>
      <trkpt lat="45.30753" lon="4.79965">
        <ele>146.39999389648</ele>
        <time>2024-05-21T08:31:46.000Z</time>
      </trkpt>
      <trkpt lat="45.30755" lon="4.79973">
        <ele>146.19999694824</ele>
        <time>2024-05-21T08:31:47.000Z</time>
      </trkpt>
      <trkpt lat="45.30757" lon="4.79979">
        <ele>146</ele>
        <time>2024-05-21T08:31:48.000Z</time>
      </trkpt>
      <trkpt lat="45.30759" lon="4.79984">
        <ele>145.80000305176</ele>
        <time>2024-05-21T08:31:49.000Z</time>
      </trkpt>
      <trkpt lat="45.30762" lon="4.79992">
        <ele>145.80000305176</ele>
        <time>2024-05-21T08:31:50.000Z</time>
      </trkpt>
      <trkpt lat="45.30764" lon="4.79999">
        <ele>145.80000305176</ele>
        <time>2024-05-21T08:31:51.000Z</time>
      </trkpt>
      <trkpt lat="45.30766" lon="4.80005">
        <ele>145.39999389648</ele>
        <time>2024-05-21T08:31:52.000Z</time>
      </trkpt>
      <trkpt lat="45.30768" lon="4.80012">
        <ele>145.19999694824</ele>
        <time>2024-05-21T08:31:53.000Z</time>
      </trkpt>
      <trkpt lat="45.3077" lon="4.80019">
        <ele>144.80000305176</ele>
        <time>2024-05-21T08:31:54.000Z</time>
      </trkpt>
      <trkpt lat="45.30772" lon="4.80026">
        <ele>144.80000305176</ele>
        <time>2024-05-21T08:31:55.000Z</time>
      </trkpt>
      <trkpt lat="45.30775" lon="4.80035">
        <ele>144.80000305176</ele>
        <time>2024-05-21T08:31:56.000Z</time>
      </trkpt>
      <trkpt lat="45.30776" lon="4.80041">
        <ele>144.19999694824</ele>
        <time>2024-05-21T08:31:57.000Z</time>
      </trkpt>
      <trkpt lat="45.30778" lon="4.80048">
        <ele>144.19999694824</ele>
        <time>2024-05-21T08:31:58.000Z</time>
      </trkpt>
      <trkpt lat="45.3078" lon="4.80057">
        <ele>144</ele>
        <time>2024-05-21T08:31:59.000Z</time>
      </trkpt>
      <trkpt lat="45.30782" lon="4.80065">
        <ele>144</ele>
        <time>2024-05-21T08:32:00.000Z</time>
      </trkpt>
      <trkpt lat="45.30783" lon="4.80074">
        <ele>143.80000305176</ele>
        <time>2024-05-21T08:32:01.000Z</time>
      </trkpt>
      <trkpt lat="45.30784" lon="4.8008">
        <ele>143.60000610352</ele>
        <time>2024-05-21T08:32:02.000Z</time>
      </trkpt>
      <trkpt lat="45.30786" lon="4.8009">
        <ele>143.19999694824</ele>
        <time>2024-05-21T08:32:03.000Z</time>
      </trkpt>
      <trkpt lat="45.30787" lon="4.80097">
        <ele>143</ele>
        <time>2024-05-21T08:32:04.000Z</time>
      </trkpt>
      <trkpt lat="45.30788" lon="4.80107">
        <ele>142.60000610352</ele>
        <time>2024-05-21T08:32:05.000Z</time>
      </trkpt>
      <trkpt lat="45.30789" lon="4.80116">
        <ele>142.39999389648</ele>
        <time>2024-05-21T08:32:06.000Z</time>
      </trkpt>
      <trkpt lat="45.3079" lon="4.80124">
        <ele>142.19999694824</ele>
        <time>2024-05-21T08:32:07.000Z</time>
      </trkpt>
      <trkpt lat="45.30791" lon="4.80131">
        <ele>142</ele>
        <time>2024-05-21T08:32:08.000Z</time>
      </trkpt>
      <trkpt lat="45.30792" lon="4.80139">
        <ele>142</ele>
        <time>2024-05-21T08:32:09.000Z</time>
      </trkpt>
      <trkpt lat="45.30793" lon="4.80149">
        <ele>141.80000305176</ele>
        <time>2024-05-21T08:32:10.000Z</time>
      </trkpt>
      <trkpt lat="45.30793" lon="4.80157">
        <ele>141.60000610352</ele>
        <time>2024-05-21T08:32:11.000Z</time>
      </trkpt>
      <trkpt lat="45.30792" lon="4.80163">
        <ele>141.60000610352</ele>
        <time>2024-05-21T08:32:12.000Z</time>
      </trkpt>
      <trkpt lat="45.30789" lon="4.80171">
        <ele>141.19999694824</ele>
        <time>2024-05-21T08:32:13.000Z</time>
      </trkpt>
      <trkpt lat="45.30785" lon="4.80175">
        <ele>141</ele>
        <time>2024-05-21T08:32:14.000Z</time>
      </trkpt>
      <trkpt lat="45.3078" lon="4.80179">
        <ele>140.60000610352</ele>
        <time>2024-05-21T08:32:15.000Z</time>
      </trkpt>
      <trkpt lat="45.30776" lon="4.8018">
        <ele>140.19999694824</ele>
        <time>2024-05-21T08:32:16.000Z</time>
      </trkpt>
      <trkpt lat="45.30773" lon="4.80181">
        <ele>140</ele>
        <time>2024-05-21T08:32:17.000Z</time>
      </trkpt>
      <trkpt lat="45.3077" lon="4.80178">
        <ele>140</ele>
        <time>2024-05-21T08:32:18.000Z</time>
      </trkpt>
      <trkpt lat="45.30769" lon="4.80175">
        <ele>140</ele>
        <time>2024-05-21T08:32:19.000Z</time>
      </trkpt>
      <trkpt lat="45.30769" lon="4.8017">
        <ele>140</ele>
        <time>2024-05-21T08:32:20.000Z</time>
      </trkpt>
      <trkpt lat="45.30769" lon="4.80166">
        <ele>140.19999694824</ele>
        <time>2024-05-21T08:32:21.000Z</time>
      </trkpt>
      <trkpt lat="45.30769" lon="4.8016">
        <ele>140.60000610352</ele>
        <time>2024-05-21T08:32:22.000Z</time>
      </trkpt>
      <trkpt lat="45.30769" lon="4.80156">
        <ele>140.80000305176</ele>
        <time>2024-05-21T08:32:23.000Z</time>
      </trkpt>
      <trkpt lat="45.30767" lon="4.80151">
        <ele>141</ele>
        <time>2024-05-21T08:32:24.000Z</time>
      </trkpt>
      <trkpt lat="45.30764" lon="4.80149">
        <ele>141</ele>
        <time>2024-05-21T08:32:25.000Z</time>
      </trkpt>
      <trkpt lat="45.30761" lon="4.8015">
        <ele>141</ele>
        <time>2024-05-21T08:32:26.000Z</time>
      </trkpt>
      <trkpt lat="45.30757" lon="4.80151">
        <ele>141</ele>
        <time>2024-05-21T08:32:27.000Z</time>
      </trkpt>
      <trkpt lat="45.30755" lon="4.80153">
        <ele>141</ele>
        <time>2024-05-21T08:32:28.000Z</time>
      </trkpt>
      <trkpt lat="45.30751" lon="4.80155">
        <ele>141</ele>
        <time>2024-05-21T08:32:29.000Z</time>
      </trkpt>
      <trkpt lat="45.30747" lon="4.80158">
        <ele>140.80000305176</ele>
        <time>2024-05-21T08:32:30.000Z</time>
      </trkpt>
      <trkpt lat="45.30744" lon="4.8016">
        <ele>140.80000305176</ele>
        <time>2024-05-21T08:32:31.000Z</time>
      </trkpt>
      <trkpt lat="45.3074" lon="4.80163">
        <ele>140.80000305176</ele>
        <time>2024-05-21T08:32:32.000Z</time>
      </trkpt>
      <trkpt lat="45.30736" lon="4.80166">
        <ele>140.80000305176</ele>
        <time>2024-05-21T08:32:33.000Z</time>
      </trkpt>
      <trkpt lat="45.30732" lon="4.80168">
        <ele>140.80000305176</ele>
        <time>2024-05-21T08:32:34.000Z</time>
      </trkpt>
      <trkpt lat="45.30728" lon="4.80171">
        <ele>140.80000305176</ele>
        <time>2024-05-21T08:32:35.000Z</time>
      </trkpt>
      <trkpt lat="45.30725" lon="4.80173">
        <ele>140.80000305176</ele>
        <time>2024-05-21T08:32:36.000Z</time>
      </trkpt>
      <trkpt lat="45.30721" lon="4.80175">
        <ele>140.80000305176</ele>
        <time>2024-05-21T08:32:37.000Z</time>
      </trkpt>
      <trkpt lat="45.30716" lon="4.80179">
        <ele>140.80000305176</ele>
        <time>2024-05-21T08:32:38.000Z</time>
      </trkpt>
      <trkpt lat="45.30712" lon="4.80182">
        <ele>140.80000305176</ele>
        <time>2024-05-21T08:32:39.000Z</time>
      </trkpt>
      <trkpt lat="45.30708" lon="4.80185">
        <ele>140.60000610352</ele>
        <time>2024-05-21T08:32:40.000Z</time>
      </trkpt>
      <trkpt lat="45.30706" lon="4.80186">
        <ele>140.60000610352</ele>
        <time>2024-05-21T08:32:41.000Z</time>
      </trkpt>
      <trkpt lat="45.30701" lon="4.80189">
        <ele>140.60000610352</ele>
        <time>2024-05-21T08:32:42.000Z</time>
      </trkpt>
      <trkpt lat="45.30697" lon="4.80192">
        <ele>140.60000610352</ele>
        <time>2024-05-21T08:32:43.000Z</time>
      </trkpt>
      <trkpt lat="45.30694" lon="4.80194">
        <ele>140.60000610352</ele>
        <time>2024-05-21T08:32:44.000Z</time>
      </trkpt>
      <trkpt lat="45.30689" lon="4.80197">
        <ele>140.60000610352</ele>
        <time>2024-05-21T08:32:45.000Z</time>
      </trkpt>
      <trkpt lat="45.30684" lon="4.802">
        <ele>140.60000610352</ele>
        <time>2024-05-21T08:32:46.000Z</time>
      </trkpt>
      <trkpt lat="45.30681" lon="4.80203">
        <ele>140.60000610352</ele>
        <time>2024-05-21T08:32:47.000Z</time>
      </trkpt>
      <trkpt lat="45.30675" lon="4.80207">
        <ele>140.60000610352</ele>
        <time>2024-05-21T08:32:48.000Z</time>
      </trkpt>
      <trkpt lat="45.30671" lon="4.8021">
        <ele>140.60000610352</ele>
        <time>2024-05-21T08:32:49.000Z</time>
      </trkpt>
      <trkpt lat="45.30666" lon="4.80214">
        <ele>140.60000610352</ele>
        <time>2024-05-21T08:32:50.000Z</time>
      </trkpt>
      <trkpt lat="45.30662" lon="4.80217">
        <ele>140.80000305176</ele>
        <time>2024-05-21T08:32:51.000Z</time>
      </trkpt>
      <trkpt lat="45.30657" lon="4.8022">
        <ele>140.80000305176</ele>
        <time>2024-05-21T08:32:52.000Z</time>
      </trkpt>
      <trkpt lat="45.30653" lon="4.80223">
        <ele>140.80000305176</ele>
        <time>2024-05-21T08:32:53.000Z</time>
      </trkpt>
      <trkpt lat="45.30647" lon="4.80228">
        <ele>140.80000305176</ele>
        <time>2024-05-21T08:32:54.000Z</time>
      </trkpt>
      <trkpt lat="45.30642" lon="4.80231">
        <ele>140.80000305176</ele>
        <time>2024-05-21T08:32:55.000Z</time>
      </trkpt>
      <trkpt lat="45.30637" lon="4.80235">
        <ele>140.80000305176</ele>
        <time>2024-05-21T08:32:56.000Z</time>
      </trkpt>
      <trkpt lat="45.30632" lon="4.80238">
        <ele>140.80000305176</ele>
        <time>2024-05-21T08:32:57.000Z</time>
      </trkpt>
      <trkpt lat="45.30627" lon="4.80242">
        <ele>140.80000305176</ele>
        <time>2024-05-21T08:32:58.000Z</time>
      </trkpt>
      <trkpt lat="45.30623" lon="4.80245">
        <ele>140.80000305176</ele>
        <time>2024-05-21T08:32:59.000Z</time>
      </trkpt>
      <trkpt lat="45.30617" lon="4.80249">
        <ele>140.80000305176</ele>
        <time>2024-05-21T08:33:00.000Z</time>
      </trkpt>
      <trkpt lat="45.30612" lon="4.80252">
        <ele>140.80000305176</ele>
        <time>2024-05-21T08:33:01.000Z</time>
      </trkpt>
      <trkpt lat="45.30607" lon="4.80255">
        <ele>140.80000305176</ele>
        <time>2024-05-21T08:33:02.000Z</time>
      </trkpt>
      <trkpt lat="45.30603" lon="4.80259">
        <ele>140.80000305176</ele>
        <time>2024-05-21T08:33:03.000Z</time>
      </trkpt>
      <trkpt lat="45.30598" lon="4.80262">
        <ele>140.80000305176</ele>
        <time>2024-05-21T08:33:04.000Z</time>
      </trkpt>
      <trkpt lat="45.30594" lon="4.80265">
        <ele>140.80000305176</ele>
        <time>2024-05-21T08:33:05.000Z</time>
      </trkpt>
      <trkpt lat="45.30589" lon="4.8027">
        <ele>140.80000305176</ele>
        <time>2024-05-21T08:33:06.000Z</time>
      </trkpt>
      <trkpt lat="45.30583" lon="4.80274">
        <ele>140.80000305176</ele>
        <time>2024-05-21T08:33:07.000Z</time>
      </trkpt>
      <trkpt lat="45.30579" lon="4.80277">
        <ele>140.60000610352</ele>
        <time>2024-05-21T08:33:08.000Z</time>
      </trkpt>
      <trkpt lat="45.30573" lon="4.80281">
        <ele>140.60000610352</ele>
        <time>2024-05-21T08:33:09.000Z</time>
      </trkpt>
      <trkpt lat="45.30568" lon="4.80285">
        <ele>140.60000610352</ele>
        <time>2024-05-21T08:33:10.000Z</time>
      </trkpt>
      <trkpt lat="45.30564" lon="4.80289">
        <ele>140.60000610352</ele>
        <time>2024-05-21T08:33:11.000Z</time>
      </trkpt>
      <trkpt lat="45.3056" lon="4.80292">
        <ele>140.60000610352</ele>
        <time>2024-05-21T08:33:12.000Z</time>
      </trkpt>
      <trkpt lat="45.30555" lon="4.80295">
        <ele>140.60000610352</ele>
        <time>2024-05-21T08:33:13.000Z</time>
      </trkpt>
      <trkpt lat="45.3055" lon="4.80299">
        <ele>140.60000610352</ele>
        <time>2024-05-21T08:33:14.000Z</time>
      </trkpt>
      <trkpt lat="45.30545" lon="4.80303">
        <ele>140.39999389648</ele>
        <time>2024-05-21T08:33:15.000Z</time>
      </trkpt>
      <trkpt lat="45.3054" lon="4.80306">
        <ele>140.19999694824</ele>
        <time>2024-05-21T08:33:16.000Z</time>
      </trkpt>
      <trkpt lat="45.30537" lon="4.80309">
        <ele>140.19999694824</ele>
        <time>2024-05-21T08:33:17.000Z</time>
      </trkpt>
      <trkpt lat="45.30531" lon="4.80313">
        <ele>140.19999694824</ele>
        <time>2024-05-21T08:33:18.000Z</time>
      </trkpt>
      <trkpt lat="45.30528" lon="4.80316">
        <ele>140.19999694824</ele>
        <time>2024-05-21T08:33:19.000Z</time>
      </trkpt>
      <trkpt lat="45.30524" lon="4.80319">
        <ele>140.39999389648</ele>
        <time>2024-05-21T08:33:20.000Z</time>
      </trkpt>
      <trkpt lat="45.3052" lon="4.80321">
        <ele>140.39999389648</ele>
        <time>2024-05-21T08:33:21.000Z</time>
      </trkpt>
      <trkpt lat="45.30516" lon="4.80324">
        <ele>140.39999389648</ele>
        <time>2024-05-21T08:33:22.000Z</time>
      </trkpt>
      <trkpt lat="45.30511" lon="4.80328">
        <ele>140.39999389648</ele>
        <time>2024-05-21T08:33:23.000Z</time>
      </trkpt>
      <trkpt lat="45.30507" lon="4.80331">
        <ele>140.39999389648</ele>
        <time>2024-05-21T08:33:24.000Z</time>
      </trkpt>
      <trkpt lat="45.30502" lon="4.80334">
        <ele>140.39999389648</ele>
        <time>2024-05-21T08:33:25.000Z</time>
      </trkpt>
      <trkpt lat="45.30498" lon="4.80337">
        <ele>140.60000610352</ele>
        <time>2024-05-21T08:33:26.000Z</time>
      </trkpt>
      <trkpt lat="45.30494" lon="4.8034">
        <ele>140.60000610352</ele>
        <time>2024-05-21T08:33:27.000Z</time>
      </trkpt>
      <trkpt lat="45.30489" lon="4.80345">
        <ele>140.60000610352</ele>
        <time>2024-05-21T08:33:28.000Z</time>
      </trkpt>
      <trkpt lat="45.30485" lon="4.80348">
        <ele>140.60000610352</ele>
        <time>2024-05-21T08:33:29.000Z</time>
      </trkpt>
      <trkpt lat="45.30479" lon="4.80352">
        <ele>140.39999389648</ele>
        <time>2024-05-21T08:33:30.000Z</time>
      </trkpt>
      <trkpt lat="45.30475" lon="4.80355">
        <ele>140.39999389648</ele>
        <time>2024-05-21T08:33:31.000Z</time>
      </trkpt>
      <trkpt lat="45.3047" lon="4.80359">
        <ele>140.39999389648</ele>
        <time>2024-05-21T08:33:32.000Z</time>
      </trkpt>
      <trkpt lat="45.30466" lon="4.80362">
        <ele>140.19999694824</ele>
        <time>2024-05-21T08:33:33.000Z</time>
      </trkpt>
      <trkpt lat="45.3046" lon="4.80366">
        <ele>140.19999694824</ele>
        <time>2024-05-21T08:33:34.000Z</time>
      </trkpt>
      <trkpt lat="45.30455" lon="4.80369">
        <ele>140.19999694824</ele>
        <time>2024-05-21T08:33:35.000Z</time>
      </trkpt>
      <trkpt lat="45.30451" lon="4.80372">
        <ele>140</ele>
        <time>2024-05-21T08:33:36.000Z</time>
      </trkpt>
      <trkpt lat="45.30446" lon="4.80375">
        <ele>140</ele>
        <time>2024-05-21T08:33:37.000Z</time>
      </trkpt>
      <trkpt lat="45.30441" lon="4.80378">
        <ele>140</ele>
        <time>2024-05-21T08:33:38.000Z</time>
      </trkpt>
      <trkpt lat="45.30436" lon="4.8038">
        <ele>140</ele>
        <time>2024-05-21T08:33:39.000Z</time>
      </trkpt>
      <trkpt lat="45.30432" lon="4.80383">
        <ele>140</ele>
        <time>2024-05-21T08:33:40.000Z</time>
      </trkpt>
      <trkpt lat="45.30427" lon="4.80386">
        <ele>140.19999694824</ele>
        <time>2024-05-21T08:33:41.000Z</time>
      </trkpt>
      <trkpt lat="45.30423" lon="4.80389">
        <ele>140.19999694824</ele>
        <time>2024-05-21T08:33:42.000Z</time>
      </trkpt>
      <trkpt lat="45.30417" lon="4.80391">
        <ele>140.19999694824</ele>
        <time>2024-05-21T08:33:43.000Z</time>
      </trkpt>
      <trkpt lat="45.30412" lon="4.80393">
        <ele>140.19999694824</ele>
        <time>2024-05-21T08:33:44.000Z</time>
      </trkpt>
      <trkpt lat="45.30409" lon="4.80394">
        <ele>140.19999694824</ele>
        <time>2024-05-21T08:33:45.000Z</time>
      </trkpt>
      <trkpt lat="45.30404" lon="4.80394">
        <ele>140.19999694824</ele>
        <time>2024-05-21T08:33:46.000Z</time>
      </trkpt>
      <trkpt lat="45.30398" lon="4.80395">
        <ele>140.19999694824</ele>
        <time>2024-05-21T08:33:47.000Z</time>
      </trkpt>
      <trkpt lat="45.30392" lon="4.80395">
        <ele>140.19999694824</ele>
        <time>2024-05-21T08:33:48.000Z</time>
      </trkpt>
      <trkpt lat="45.30388" lon="4.80395">
        <ele>140</ele>
        <time>2024-05-21T08:33:49.000Z</time>
      </trkpt>
      <trkpt lat="45.30382" lon="4.80394">
        <ele>140</ele>
        <time>2024-05-21T08:33:50.000Z</time>
      </trkpt>
      <trkpt lat="45.30377" lon="4.80394">
        <ele>140</ele>
        <time>2024-05-21T08:33:51.000Z</time>
      </trkpt>
      <trkpt lat="45.30371" lon="4.80392">
        <ele>140</ele>
        <time>2024-05-21T08:33:52.000Z</time>
      </trkpt>
      <trkpt lat="45.30366" lon="4.8039">
        <ele>140.19999694824</ele>
        <time>2024-05-21T08:33:53.000Z</time>
      </trkpt>
      <trkpt lat="45.30362" lon="4.80388">
        <ele>140.19999694824</ele>
        <time>2024-05-21T08:33:54.000Z</time>
      </trkpt>
      <trkpt lat="45.30356" lon="4.80384">
        <ele>140.19999694824</ele>
        <time>2024-05-21T08:33:55.000Z</time>
      </trkpt>
      <trkpt lat="45.30351" lon="4.80379">
        <ele>140.19999694824</ele>
        <time>2024-05-21T08:33:56.000Z</time>
      </trkpt>
      <trkpt lat="45.30347" lon="4.80376">
        <ele>140.39999389648</ele>
        <time>2024-05-21T08:33:57.000Z</time>
      </trkpt>
      <trkpt lat="45.30342" lon="4.8037">
        <ele>140.39999389648</ele>
        <time>2024-05-21T08:33:58.000Z</time>
      </trkpt>
      <trkpt lat="45.30337" lon="4.80366">
        <ele>140.39999389648</ele>
        <time>2024-05-21T08:33:59.000Z</time>
      </trkpt>
      <trkpt lat="45.30334" lon="4.80362">
        <ele>140.39999389648</ele>
        <time>2024-05-21T08:34:00.000Z</time>
      </trkpt>
      <trkpt lat="45.30329" lon="4.80358">
        <ele>140.39999389648</ele>
        <time>2024-05-21T08:34:01.000Z</time>
      </trkpt>
      <trkpt lat="45.30324" lon="4.80354">
        <ele>140.39999389648</ele>
        <time>2024-05-21T08:34:02.000Z</time>
      </trkpt>
      <trkpt lat="45.30319" lon="4.8035">
        <ele>140.39999389648</ele>
        <time>2024-05-21T08:34:03.000Z</time>
      </trkpt>
      <trkpt lat="45.30314" lon="4.80345">
        <ele>140.39999389648</ele>
        <time>2024-05-21T08:34:04.000Z</time>
      </trkpt>
      <trkpt lat="45.30308" lon="4.8034">
        <ele>140.39999389648</ele>
        <time>2024-05-21T08:34:05.000Z</time>
      </trkpt>
      <trkpt lat="45.30303" lon="4.80337">
        <ele>140.39999389648</ele>
        <time>2024-05-21T08:34:06.000Z</time>
      </trkpt>
      <trkpt lat="45.30299" lon="4.80334">
        <ele>140.39999389648</ele>
        <time>2024-05-21T08:34:07.000Z</time>
      </trkpt>
      <trkpt lat="45.30293" lon="4.8033">
        <ele>140.39999389648</ele>
        <time>2024-05-21T08:34:08.000Z</time>
      </trkpt>
      <trkpt lat="45.30288" lon="4.80326">
        <ele>140.39999389648</ele>
        <time>2024-05-21T08:34:09.000Z</time>
      </trkpt>
      <trkpt lat="45.30283" lon="4.80323">
        <ele>140.39999389648</ele>
        <time>2024-05-21T08:34:10.000Z</time>
      </trkpt>
      <trkpt lat="45.30277" lon="4.8032">
        <ele>140.39999389648</ele>
        <time>2024-05-21T08:34:11.000Z</time>
      </trkpt>
      <trkpt lat="45.30272" lon="4.80318">
        <ele>140.39999389648</ele>
        <time>2024-05-21T08:34:12.000Z</time>
      </trkpt>
      <trkpt lat="45.30266" lon="4.80315">
        <ele>140.39999389648</ele>
        <time>2024-05-21T08:34:13.000Z</time>
      </trkpt>
      <trkpt lat="45.30261" lon="4.80313">
        <ele>140.19999694824</ele>
        <time>2024-05-21T08:34:14.000Z</time>
      </trkpt>
      <trkpt lat="45.30256" lon="4.80311">
        <ele>140.19999694824</ele>
        <time>2024-05-21T08:34:15.000Z</time>
      </trkpt>
      <trkpt lat="45.30251" lon="4.8031">
        <ele>140.19999694824</ele>
        <time>2024-05-21T08:34:16.000Z</time>
      </trkpt>
      <trkpt lat="45.30247" lon="4.80308">
        <ele>140.19999694824</ele>
        <time>2024-05-21T08:34:17.000Z</time>
      </trkpt>
      <trkpt lat="45.3024" lon="4.80306">
        <ele>140.39999389648</ele>
        <time>2024-05-21T08:34:18.000Z</time>
      </trkpt>
      <trkpt lat="45.30235" lon="4.80304">
        <ele>140.39999389648</ele>
        <time>2024-05-21T08:34:19.000Z</time>
      </trkpt>
      <trkpt lat="45.3023" lon="4.80302">
        <ele>140.39999389648</ele>
        <time>2024-05-21T08:34:20.000Z</time>
      </trkpt>
      <trkpt lat="45.30224" lon="4.803">
        <ele>140.39999389648</ele>
        <time>2024-05-21T08:34:21.000Z</time>
      </trkpt>
      <trkpt lat="45.30219" lon="4.80299">
        <ele>140.39999389648</ele>
        <time>2024-05-21T08:34:22.000Z</time>
      </trkpt>
      <trkpt lat="45.30215" lon="4.80299">
        <ele>140</ele>
        <time>2024-05-21T08:34:23.000Z</time>
      </trkpt>
      <trkpt lat="45.30208" lon="4.80299">
        <ele>140</ele>
        <time>2024-05-21T08:34:24.000Z</time>
      </trkpt>
      <trkpt lat="45.30202" lon="4.803">
        <ele>140</ele>
        <time>2024-05-21T08:34:25.000Z</time>
      </trkpt>
      <trkpt lat="45.30197" lon="4.80301">
        <ele>140</ele>
        <time>2024-05-21T08:34:26.000Z</time>
      </trkpt>
      <trkpt lat="45.30191" lon="4.80303">
        <ele>139.80000305176</ele>
        <time>2024-05-21T08:34:27.000Z</time>
      </trkpt>
      <trkpt lat="45.30185" lon="4.80306">
        <ele>139.80000305176</ele>
        <time>2024-05-21T08:34:28.000Z</time>
      </trkpt>
      <trkpt lat="45.30181" lon="4.80308">
        <ele>139.80000305176</ele>
        <time>2024-05-21T08:34:29.000Z</time>
      </trkpt>
      <trkpt lat="45.30174" lon="4.80312">
        <ele>139.80000305176</ele>
        <time>2024-05-21T08:34:30.000Z</time>
      </trkpt>
      <trkpt lat="45.30169" lon="4.80316">
        <ele>139.80000305176</ele>
        <time>2024-05-21T08:34:31.000Z</time>
      </trkpt>
      <trkpt lat="45.30164" lon="4.8032">
        <ele>139.80000305176</ele>
        <time>2024-05-21T08:34:32.000Z</time>
      </trkpt>
      <trkpt lat="45.30159" lon="4.80325">
        <ele>139.80000305176</ele>
        <time>2024-05-21T08:34:33.000Z</time>
      </trkpt>
      <trkpt lat="45.30154" lon="4.8033">
        <ele>139.80000305176</ele>
        <time>2024-05-21T08:34:34.000Z</time>
      </trkpt>
      <trkpt lat="45.30149" lon="4.80335">
        <ele>139.60000610352</ele>
        <time>2024-05-21T08:34:35.000Z</time>
      </trkpt>
      <trkpt lat="45.30145" lon="4.80341">
        <ele>139.80000305176</ele>
        <time>2024-05-21T08:34:36.000Z</time>
      </trkpt>
      <trkpt lat="45.30141" lon="4.80346">
        <ele>139.80000305176</ele>
        <time>2024-05-21T08:34:37.000Z</time>
      </trkpt>
      <trkpt lat="45.30136" lon="4.80351">
        <ele>139.60000610352</ele>
        <time>2024-05-21T08:34:38.000Z</time>
      </trkpt>
      <trkpt lat="45.30129" lon="4.80358">
        <ele>139.60000610352</ele>
        <time>2024-05-21T08:34:39.000Z</time>
      </trkpt>
      <trkpt lat="45.30125" lon="4.80362">
        <ele>139.60000610352</ele>
        <time>2024-05-21T08:34:40.000Z</time>
      </trkpt>
      <trkpt lat="45.30118" lon="4.80367">
        <ele>139.60000610352</ele>
        <time>2024-05-21T08:34:41.000Z</time>
      </trkpt>
      <trkpt lat="45.30111" lon="4.80373">
        <ele>139.39999389648</ele>
        <time>2024-05-21T08:34:42.000Z</time>
      </trkpt>
      <trkpt lat="45.30104" lon="4.80378">
        <ele>139</ele>
        <time>2024-05-21T08:34:43.000Z</time>
      </trkpt>
      <trkpt lat="45.30099" lon="4.80382">
        <ele>138.60000610352</ele>
        <time>2024-05-21T08:34:44.000Z</time>
      </trkpt>
      <trkpt lat="45.30093" lon="4.80388">
        <ele>138.19999694824</ele>
        <time>2024-05-21T08:34:45.000Z</time>
      </trkpt>
      <trkpt lat="45.30086" lon="4.80394">
        <ele>137.80000305176</ele>
        <time>2024-05-21T08:34:46.000Z</time>
      </trkpt>
      <trkpt lat="45.30079" lon="4.80402">
        <ele>137.39999389648</ele>
        <time>2024-05-21T08:34:47.000Z</time>
      </trkpt>
      <trkpt lat="45.30073" lon="4.80409">
        <ele>137.19999694824</ele>
        <time>2024-05-21T08:34:48.000Z</time>
      </trkpt>
      <trkpt lat="45.30067" lon="4.80415">
        <ele>137</ele>
        <time>2024-05-21T08:34:49.000Z</time>
      </trkpt>
      <trkpt lat="45.30063" lon="4.8042">
        <ele>137</ele>
        <time>2024-05-21T08:34:50.000Z</time>
      </trkpt>
      <trkpt lat="45.30056" lon="4.80427">
        <ele>137</ele>
        <time>2024-05-21T08:34:51.000Z</time>
      </trkpt>
      <trkpt lat="45.30051" lon="4.80434">
        <ele>137</ele>
        <time>2024-05-21T08:34:52.000Z</time>
      </trkpt>
      <trkpt lat="45.30046" lon="4.80439">
        <ele>137</ele>
        <time>2024-05-21T08:34:53.000Z</time>
      </trkpt>
      <trkpt lat="45.30041" lon="4.80444">
        <ele>137</ele>
        <time>2024-05-21T08:34:54.000Z</time>
      </trkpt>
      <trkpt lat="45.30034" lon="4.80451">
        <ele>137.19999694824</ele>
        <time>2024-05-21T08:34:55.000Z</time>
      </trkpt>
      <trkpt lat="45.3003" lon="4.80456">
        <ele>137.19999694824</ele>
        <time>2024-05-21T08:34:56.000Z</time>
      </trkpt>
      <trkpt lat="45.30024" lon="4.80463">
        <ele>137.19999694824</ele>
        <time>2024-05-21T08:34:57.000Z</time>
      </trkpt>
      <trkpt lat="45.30018" lon="4.80468">
        <ele>137.19999694824</ele>
        <time>2024-05-21T08:34:58.000Z</time>
      </trkpt>
      <trkpt lat="45.30013" lon="4.80475">
        <ele>137.19999694824</ele>
        <time>2024-05-21T08:34:59.000Z</time>
      </trkpt>
      <trkpt lat="45.30007" lon="4.80481">
        <ele>137.19999694824</ele>
        <time>2024-05-21T08:35:00.000Z</time>
      </trkpt>
      <trkpt lat="45.30001" lon="4.80487">
        <ele>137.19999694824</ele>
        <time>2024-05-21T08:35:01.000Z</time>
      </trkpt>
      <trkpt lat="45.29996" lon="4.80493">
        <ele>137.19999694824</ele>
        <time>2024-05-21T08:35:02.000Z</time>
      </trkpt>
      <trkpt lat="45.29991" lon="4.80498">
        <ele>137.19999694824</ele>
        <time>2024-05-21T08:35:03.000Z</time>
      </trkpt>
      <trkpt lat="45.29986" lon="4.80504">
        <ele>137</ele>
        <time>2024-05-21T08:35:04.000Z</time>
      </trkpt>
      <trkpt lat="45.29981" lon="4.80509">
        <ele>137</ele>
        <time>2024-05-21T08:35:05.000Z</time>
      </trkpt>
      <trkpt lat="45.29976" lon="4.80514">
        <ele>137</ele>
        <time>2024-05-21T08:35:06.000Z</time>
      </trkpt>
      <trkpt lat="45.2997" lon="4.8052">
        <ele>137</ele>
        <time>2024-05-21T08:35:07.000Z</time>
      </trkpt>
      <trkpt lat="45.29965" lon="4.80527">
        <ele>137</ele>
        <time>2024-05-21T08:35:08.000Z</time>
      </trkpt>
      <trkpt lat="45.2996" lon="4.80532">
        <ele>137</ele>
        <time>2024-05-21T08:35:09.000Z</time>
      </trkpt>
      <trkpt lat="45.29954" lon="4.80538">
        <ele>137</ele>
        <time>2024-05-21T08:35:10.000Z</time>
      </trkpt>
      <trkpt lat="45.29949" lon="4.80544">
        <ele>137</ele>
        <time>2024-05-21T08:35:11.000Z</time>
      </trkpt>
      <trkpt lat="45.29944" lon="4.8055">
        <ele>137</ele>
        <time>2024-05-21T08:35:12.000Z</time>
      </trkpt>
      <trkpt lat="45.29938" lon="4.80555">
        <ele>137</ele>
        <time>2024-05-21T08:35:13.000Z</time>
      </trkpt>
      <trkpt lat="45.29933" lon="4.80561">
        <ele>137</ele>
        <time>2024-05-21T08:35:14.000Z</time>
      </trkpt>
      <trkpt lat="45.29928" lon="4.80566">
        <ele>137</ele>
        <time>2024-05-21T08:35:15.000Z</time>
      </trkpt>
      <trkpt lat="45.29923" lon="4.80572">
        <ele>137</ele>
        <time>2024-05-21T08:35:16.000Z</time>
      </trkpt>
      <trkpt lat="45.29918" lon="4.80577">
        <ele>137</ele>
        <time>2024-05-21T08:35:17.000Z</time>
      </trkpt>
      <trkpt lat="45.29913" lon="4.80582">
        <ele>137</ele>
        <time>2024-05-21T08:35:18.000Z</time>
      </trkpt>
      <trkpt lat="45.29908" lon="4.80588">
        <ele>137</ele>
        <time>2024-05-21T08:35:19.000Z</time>
      </trkpt>
      <trkpt lat="45.29903" lon="4.80593">
        <ele>137</ele>
        <time>2024-05-21T08:35:20.000Z</time>
      </trkpt>
      <trkpt lat="45.29898" lon="4.80598">
        <ele>137</ele>
        <time>2024-05-21T08:35:21.000Z</time>
      </trkpt>
      <trkpt lat="45.29894" lon="4.80604">
        <ele>137</ele>
        <time>2024-05-21T08:35:22.000Z</time>
      </trkpt>
      <trkpt lat="45.2989" lon="4.80608">
        <ele>137</ele>
        <time>2024-05-21T08:35:23.000Z</time>
      </trkpt>
      <trkpt lat="45.29884" lon="4.80614">
        <ele>137</ele>
        <time>2024-05-21T08:35:24.000Z</time>
      </trkpt>
      <trkpt lat="45.29879" lon="4.8062">
        <ele>137.19999694824</ele>
        <time>2024-05-21T08:35:25.000Z</time>
      </trkpt>
      <trkpt lat="45.29875" lon="4.80623">
        <ele>137</ele>
        <time>2024-05-21T08:35:26.000Z</time>
      </trkpt>
      <trkpt lat="45.2987" lon="4.80628">
        <ele>137</ele>
        <time>2024-05-21T08:35:27.000Z</time>
      </trkpt>
      <trkpt lat="45.29865" lon="4.80633">
        <ele>137</ele>
        <time>2024-05-21T08:35:28.000Z</time>
      </trkpt>
      <trkpt lat="45.2986" lon="4.80639">
        <ele>137</ele>
        <time>2024-05-21T08:35:29.000Z</time>
      </trkpt>
      <trkpt lat="45.29854" lon="4.80645">
        <ele>137</ele>
        <time>2024-05-21T08:35:30.000Z</time>
      </trkpt>
      <trkpt lat="45.29847" lon="4.80651">
        <ele>136.60000610352</ele>
        <time>2024-05-21T08:35:31.000Z</time>
      </trkpt>
      <trkpt lat="45.29842" lon="4.80656">
        <ele>136.39999389648</ele>
        <time>2024-05-21T08:35:32.000Z</time>
      </trkpt>
      <trkpt lat="45.29839" lon="4.8066">
        <ele>136</ele>
        <time>2024-05-21T08:35:33.000Z</time>
      </trkpt>
      <trkpt lat="45.29833" lon="4.80667">
        <ele>135.80000305176</ele>
        <time>2024-05-21T08:35:34.000Z</time>
      </trkpt>
      <trkpt lat="45.29828" lon="4.80672">
        <ele>135.80000305176</ele>
        <time>2024-05-21T08:35:35.000Z</time>
      </trkpt>
      <trkpt lat="45.29824" lon="4.80676">
        <ele>135.80000305176</ele>
        <time>2024-05-21T08:35:36.000Z</time>
      </trkpt>
      <trkpt lat="45.29819" lon="4.80682">
        <ele>135.80000305176</ele>
        <time>2024-05-21T08:35:37.000Z</time>
      </trkpt>
      <trkpt lat="45.29815" lon="4.80686">
        <ele>136</ele>
        <time>2024-05-21T08:35:38.000Z</time>
      </trkpt>
      <trkpt lat="45.2981" lon="4.80691">
        <ele>136.19999694824</ele>
        <time>2024-05-21T08:35:39.000Z</time>
      </trkpt>
      <trkpt lat="45.29804" lon="4.80697">
        <ele>136.60000610352</ele>
        <time>2024-05-21T08:35:40.000Z</time>
      </trkpt>
      <trkpt lat="45.29799" lon="4.80701">
        <ele>136.60000610352</ele>
        <time>2024-05-21T08:35:41.000Z</time>
      </trkpt>
      <trkpt lat="45.29795" lon="4.80706">
        <ele>136.60000610352</ele>
        <time>2024-05-21T08:35:42.000Z</time>
      </trkpt>
      <trkpt lat="45.2979" lon="4.80712">
        <ele>136.60000610352</ele>
        <time>2024-05-21T08:35:43.000Z</time>
      </trkpt>
      <trkpt lat="45.29784" lon="4.80717">
        <ele>136.60000610352</ele>
        <time>2024-05-21T08:35:44.000Z</time>
      </trkpt>
      <trkpt lat="45.2978" lon="4.80721">
        <ele>136.60000610352</ele>
        <time>2024-05-21T08:35:45.000Z</time>
      </trkpt>
      <trkpt lat="45.29776" lon="4.80726">
        <ele>136.60000610352</ele>
        <time>2024-05-21T08:35:46.000Z</time>
      </trkpt>
      <trkpt lat="45.29769" lon="4.80732">
        <ele>136.80000305176</ele>
        <time>2024-05-21T08:35:47.000Z</time>
      </trkpt>
      <trkpt lat="45.29765" lon="4.80736">
        <ele>136.80000305176</ele>
        <time>2024-05-21T08:35:48.000Z</time>
      </trkpt>
      <trkpt lat="45.2976" lon="4.80741">
        <ele>136.80000305176</ele>
        <time>2024-05-21T08:35:49.000Z</time>
      </trkpt>
      <trkpt lat="45.29755" lon="4.80746">
        <ele>136.80000305176</ele>
        <time>2024-05-21T08:35:50.000Z</time>
      </trkpt>
      <trkpt lat="45.29751" lon="4.80751">
        <ele>136.80000305176</ele>
        <time>2024-05-21T08:35:51.000Z</time>
      </trkpt>
      <trkpt lat="45.29745" lon="4.80758">
        <ele>137</ele>
        <time>2024-05-21T08:35:52.000Z</time>
      </trkpt>
      <trkpt lat="45.2974" lon="4.80763">
        <ele>137</ele>
        <time>2024-05-21T08:35:53.000Z</time>
      </trkpt>
      <trkpt lat="45.29736" lon="4.80767">
        <ele>137</ele>
        <time>2024-05-21T08:35:54.000Z</time>
      </trkpt>
      <trkpt lat="45.2973" lon="4.80772">
        <ele>137</ele>
        <time>2024-05-21T08:35:55.000Z</time>
      </trkpt>
      <trkpt lat="45.29726" lon="4.80777">
        <ele>136.80000305176</ele>
        <time>2024-05-21T08:35:56.000Z</time>
      </trkpt>
      <trkpt lat="45.29722" lon="4.80781">
        <ele>136.80000305176</ele>
        <time>2024-05-21T08:35:57.000Z</time>
      </trkpt>
      <trkpt lat="45.29716" lon="4.80787">
        <ele>136.80000305176</ele>
        <time>2024-05-21T08:35:58.000Z</time>
      </trkpt>
      <trkpt lat="45.29711" lon="4.80792">
        <ele>136.80000305176</ele>
        <time>2024-05-21T08:35:59.000Z</time>
      </trkpt>
      <trkpt lat="45.29707" lon="4.80795">
        <ele>136.80000305176</ele>
        <time>2024-05-21T08:36:00.000Z</time>
      </trkpt>
      <trkpt lat="45.29701" lon="4.80801">
        <ele>136.80000305176</ele>
        <time>2024-05-21T08:36:01.000Z</time>
      </trkpt>
      <trkpt lat="45.29696" lon="4.80805">
        <ele>137</ele>
        <time>2024-05-21T08:36:02.000Z</time>
      </trkpt>
      <trkpt lat="45.29691" lon="4.8081">
        <ele>137</ele>
        <time>2024-05-21T08:36:03.000Z</time>
      </trkpt>
      <trkpt lat="45.29685" lon="4.80815">
        <ele>137</ele>
        <time>2024-05-21T08:36:04.000Z</time>
      </trkpt>
      <trkpt lat="45.29679" lon="4.8082">
        <ele>137</ele>
        <time>2024-05-21T08:36:05.000Z</time>
      </trkpt>
      <trkpt lat="45.29675" lon="4.80824">
        <ele>137</ele>
        <time>2024-05-21T08:36:06.000Z</time>
      </trkpt>
      <trkpt lat="45.29669" lon="4.80829">
        <ele>136.80000305176</ele>
        <time>2024-05-21T08:36:07.000Z</time>
      </trkpt>
      <trkpt lat="45.29665" lon="4.80832">
        <ele>136.60000610352</ele>
        <time>2024-05-21T08:36:08.000Z</time>
      </trkpt>
      <trkpt lat="45.2966" lon="4.80836">
        <ele>136.39999389648</ele>
        <time>2024-05-21T08:36:09.000Z</time>
      </trkpt>
      <trkpt lat="45.29656" lon="4.8084">
        <ele>136.39999389648</ele>
        <time>2024-05-21T08:36:10.000Z</time>
      </trkpt>
      <trkpt lat="45.29652" lon="4.80844">
        <ele>136.39999389648</ele>
        <time>2024-05-21T08:36:11.000Z</time>
      </trkpt>
      <trkpt lat="45.29648" lon="4.80848">
        <ele>136.39999389648</ele>
        <time>2024-05-21T08:36:12.000Z</time>
      </trkpt>
      <trkpt lat="45.29643" lon="4.80852">
        <ele>136.39999389648</ele>
        <time>2024-05-21T08:36:13.000Z</time>
      </trkpt>
      <trkpt lat="45.29638" lon="4.80856">
        <ele>136.39999389648</ele>
        <time>2024-05-21T08:36:14.000Z</time>
      </trkpt>
      <trkpt lat="45.29633" lon="4.8086">
        <ele>136.39999389648</ele>
        <time>2024-05-21T08:36:15.000Z</time>
      </trkpt>
      <trkpt lat="45.29628" lon="4.80864">
        <ele>136.39999389648</ele>
        <time>2024-05-21T08:36:16.000Z</time>
      </trkpt>
      <trkpt lat="45.29622" lon="4.80869">
        <ele>136.39999389648</ele>
        <time>2024-05-21T08:36:17.000Z</time>
      </trkpt>
      <trkpt lat="45.29618" lon="4.80872">
        <ele>136.39999389648</ele>
        <time>2024-05-21T08:36:18.000Z</time>
      </trkpt>
      <trkpt lat="45.29612" lon="4.80876">
        <ele>136.60000610352</ele>
        <time>2024-05-21T08:36:19.000Z</time>
      </trkpt>
      <trkpt lat="45.29608" lon="4.80878">
        <ele>136.80000305176</ele>
        <time>2024-05-21T08:36:20.000Z</time>
      </trkpt>
      <trkpt lat="45.29603" lon="4.80881">
        <ele>136.80000305176</ele>
        <time>2024-05-21T08:36:21.000Z</time>
      </trkpt>
      <trkpt lat="45.29598" lon="4.80885">
        <ele>136.80000305176</ele>
        <time>2024-05-21T08:36:22.000Z</time>
      </trkpt>
      <trkpt lat="45.29592" lon="4.80888">
        <ele>136.80000305176</ele>
        <time>2024-05-21T08:36:23.000Z</time>
      </trkpt>
      <trkpt lat="45.29587" lon="4.80892">
        <ele>136.80000305176</ele>
        <time>2024-05-21T08:36:24.000Z</time>
      </trkpt>
      <trkpt lat="45.2958" lon="4.80897">
        <ele>137</ele>
        <time>2024-05-21T08:36:25.000Z</time>
      </trkpt>
      <trkpt lat="45.29574" lon="4.80901">
        <ele>137</ele>
        <time>2024-05-21T08:36:26.000Z</time>
      </trkpt>
      <trkpt lat="45.2957" lon="4.80904">
        <ele>137</ele>
        <time>2024-05-21T08:36:27.000Z</time>
      </trkpt>
      <trkpt lat="45.29564" lon="4.80908">
        <ele>137</ele>
        <time>2024-05-21T08:36:28.000Z</time>
      </trkpt>
      <trkpt lat="45.29559" lon="4.80912">
        <ele>137</ele>
        <time>2024-05-21T08:36:29.000Z</time>
      </trkpt>
      <trkpt lat="45.29554" lon="4.80914">
        <ele>137</ele>
        <time>2024-05-21T08:36:30.000Z</time>
      </trkpt>
      <trkpt lat="45.29549" lon="4.80918">
        <ele>137</ele>
        <time>2024-05-21T08:36:31.000Z</time>
      </trkpt>
      <trkpt lat="45.29542" lon="4.80922">
        <ele>137</ele>
        <time>2024-05-21T08:36:32.000Z</time>
      </trkpt>
      <trkpt lat="45.29536" lon="4.80926">
        <ele>137</ele>
        <time>2024-05-21T08:36:33.000Z</time>
      </trkpt>
      <trkpt lat="45.2953" lon="4.8093">
        <ele>137.19999694824</ele>
        <time>2024-05-21T08:36:34.000Z</time>
      </trkpt>
      <trkpt lat="45.29525" lon="4.80933">
        <ele>137.19999694824</ele>
        <time>2024-05-21T08:36:35.000Z</time>
      </trkpt>
      <trkpt lat="45.29519" lon="4.80935">
        <ele>137.19999694824</ele>
        <time>2024-05-21T08:36:36.000Z</time>
      </trkpt>
      <trkpt lat="45.29513" lon="4.80939">
        <ele>137.19999694824</ele>
        <time>2024-05-21T08:36:37.000Z</time>
      </trkpt>
      <trkpt lat="45.29508" lon="4.80941">
        <ele>137.39999389648</ele>
        <time>2024-05-21T08:36:38.000Z</time>
      </trkpt>
      <trkpt lat="45.29504" lon="4.80944">
        <ele>137.39999389648</ele>
        <time>2024-05-21T08:36:39.000Z</time>
      </trkpt>
      <trkpt lat="45.29498" lon="4.80947">
        <ele>137.39999389648</ele>
        <time>2024-05-21T08:36:40.000Z</time>
      </trkpt>
      <trkpt lat="45.29491" lon="4.80952">
        <ele>137.39999389648</ele>
        <time>2024-05-21T08:36:41.000Z</time>
      </trkpt>
      <trkpt lat="45.29486" lon="4.80955">
        <ele>137.39999389648</ele>
        <time>2024-05-21T08:36:42.000Z</time>
      </trkpt>
      <trkpt lat="45.2948" lon="4.80958">
        <ele>137.39999389648</ele>
        <time>2024-05-21T08:36:43.000Z</time>
      </trkpt>
      <trkpt lat="45.29474" lon="4.80961">
        <ele>137.39999389648</ele>
        <time>2024-05-21T08:36:44.000Z</time>
      </trkpt>
      <trkpt lat="45.29468" lon="4.80964">
        <ele>137.39999389648</ele>
        <time>2024-05-21T08:36:45.000Z</time>
      </trkpt>
      <trkpt lat="45.29464" lon="4.80967">
        <ele>137.19999694824</ele>
        <time>2024-05-21T08:36:46.000Z</time>
      </trkpt>
      <trkpt lat="45.29457" lon="4.8097">
        <ele>137.19999694824</ele>
        <time>2024-05-21T08:36:47.000Z</time>
      </trkpt>
      <trkpt lat="45.29453" lon="4.80973">
        <ele>137.19999694824</ele>
        <time>2024-05-21T08:36:48.000Z</time>
      </trkpt>
      <trkpt lat="45.29446" lon="4.80976">
        <ele>137</ele>
        <time>2024-05-21T08:36:49.000Z</time>
      </trkpt>
      <trkpt lat="45.29441" lon="4.80979">
        <ele>137</ele>
        <time>2024-05-21T08:36:50.000Z</time>
      </trkpt>
      <trkpt lat="45.29436" lon="4.80981">
        <ele>137</ele>
        <time>2024-05-21T08:36:51.000Z</time>
      </trkpt>
      <trkpt lat="45.29429" lon="4.80984">
        <ele>137</ele>
        <time>2024-05-21T08:36:52.000Z</time>
      </trkpt>
      <trkpt lat="45.29424" lon="4.80986">
        <ele>137</ele>
        <time>2024-05-21T08:36:53.000Z</time>
      </trkpt>
      <trkpt lat="45.29418" lon="4.80989">
        <ele>137</ele>
        <time>2024-05-21T08:36:54.000Z</time>
      </trkpt>
      <trkpt lat="45.29412" lon="4.80992">
        <ele>137</ele>
        <time>2024-05-21T08:36:55.000Z</time>
      </trkpt>
      <trkpt lat="45.29405" lon="4.80995">
        <ele>137</ele>
        <time>2024-05-21T08:36:56.000Z</time>
      </trkpt>
      <trkpt lat="45.29399" lon="4.80998">
        <ele>137</ele>
        <time>2024-05-21T08:36:57.000Z</time>
      </trkpt>
      <trkpt lat="45.29393" lon="4.81">
        <ele>137</ele>
        <time>2024-05-21T08:36:58.000Z</time>
      </trkpt>
      <trkpt lat="45.29387" lon="4.81003">
        <ele>137</ele>
        <time>2024-05-21T08:36:59.000Z</time>
      </trkpt>
      <trkpt lat="45.29381" lon="4.81005">
        <ele>137</ele>
        <time>2024-05-21T08:37:00.000Z</time>
      </trkpt>
      <trkpt lat="45.29376" lon="4.81007">
        <ele>137</ele>
        <time>2024-05-21T08:37:01.000Z</time>
      </trkpt>
      <trkpt lat="45.2937" lon="4.81009">
        <ele>137</ele>
        <time>2024-05-21T08:37:02.000Z</time>
      </trkpt>
      <trkpt lat="45.29364" lon="4.81012">
        <ele>137</ele>
        <time>2024-05-21T08:37:03.000Z</time>
      </trkpt>
      <trkpt lat="45.2936" lon="4.81014">
        <ele>137</ele>
        <time>2024-05-21T08:37:04.000Z</time>
      </trkpt>
      <trkpt lat="45.29353" lon="4.81017">
        <ele>137</ele>
        <time>2024-05-21T08:37:05.000Z</time>
      </trkpt>
      <trkpt lat="45.29348" lon="4.8102">
        <ele>137</ele>
        <time>2024-05-21T08:37:06.000Z</time>
      </trkpt>
      <trkpt lat="45.29342" lon="4.81024">
        <ele>137</ele>
        <time>2024-05-21T08:37:07.000Z</time>
      </trkpt>
      <trkpt lat="45.29337" lon="4.81027">
        <ele>137.19999694824</ele>
        <time>2024-05-21T08:37:08.000Z</time>
      </trkpt>
      <trkpt lat="45.29333" lon="4.8103">
        <ele>137.19999694824</ele>
        <time>2024-05-21T08:37:09.000Z</time>
      </trkpt>
      <trkpt lat="45.29328" lon="4.81034">
        <ele>137.39999389648</ele>
        <time>2024-05-21T08:37:10.000Z</time>
      </trkpt>
      <trkpt lat="45.29324" lon="4.81037">
        <ele>137.60000610352</ele>
        <time>2024-05-21T08:37:11.000Z</time>
      </trkpt>
      <trkpt lat="45.2932" lon="4.81039">
        <ele>138</ele>
        <time>2024-05-21T08:37:12.000Z</time>
      </trkpt>
      <trkpt lat="45.29316" lon="4.81041">
        <ele>138.19999694824</ele>
        <time>2024-05-21T08:37:13.000Z</time>
      </trkpt>
      <trkpt lat="45.29311" lon="4.81043">
        <ele>138.60000610352</ele>
        <time>2024-05-21T08:37:14.000Z</time>
      </trkpt>
      <trkpt lat="45.29307" lon="4.81046">
        <ele>138.80000305176</ele>
        <time>2024-05-21T08:37:15.000Z</time>
      </trkpt>
      <trkpt lat="45.29302" lon="4.81049">
        <ele>139.19999694824</ele>
        <time>2024-05-21T08:37:16.000Z</time>
      </trkpt>
      <trkpt lat="45.29298" lon="4.81051">
        <ele>139.39999389648</ele>
        <time>2024-05-21T08:37:17.000Z</time>
      </trkpt>
      <trkpt lat="45.29294" lon="4.81053">
        <ele>139.60000610352</ele>
        <time>2024-05-21T08:37:18.000Z</time>
      </trkpt>
      <trkpt lat="45.2929" lon="4.81054">
        <ele>139.60000610352</ele>
        <time>2024-05-21T08:37:19.000Z</time>
      </trkpt>
      <trkpt lat="45.29284" lon="4.81056">
        <ele>140</ele>
        <time>2024-05-21T08:37:20.000Z</time>
      </trkpt>
      <trkpt lat="45.29281" lon="4.81057">
        <ele>140</ele>
        <time>2024-05-21T08:37:21.000Z</time>
      </trkpt>
      <trkpt lat="45.29276" lon="4.81059">
        <ele>140</ele>
        <time>2024-05-21T08:37:22.000Z</time>
      </trkpt>
      <trkpt lat="45.29271" lon="4.8106">
        <ele>140</ele>
        <time>2024-05-21T08:37:23.000Z</time>
      </trkpt>
      <trkpt lat="45.29267" lon="4.81061">
        <ele>140</ele>
        <time>2024-05-21T08:37:24.000Z</time>
      </trkpt>
      <trkpt lat="45.29262" lon="4.81063">
        <ele>140</ele>
        <time>2024-05-21T08:37:25.000Z</time>
      </trkpt>
      <trkpt lat="45.29257" lon="4.81064">
        <ele>140</ele>
        <time>2024-05-21T08:37:26.000Z</time>
      </trkpt>
      <trkpt lat="45.29254" lon="4.81065">
        <ele>140</ele>
        <time>2024-05-21T08:37:27.000Z</time>
      </trkpt>
      <trkpt lat="45.29249" lon="4.81067">
        <ele>140</ele>
        <time>2024-05-21T08:37:28.000Z</time>
      </trkpt>
      <trkpt lat="45.29244" lon="4.81069">
        <ele>140</ele>
        <time>2024-05-21T08:37:29.000Z</time>
      </trkpt>
      <trkpt lat="45.29241" lon="4.8107">
        <ele>140</ele>
        <time>2024-05-21T08:37:30.000Z</time>
      </trkpt>
      <trkpt lat="45.29237" lon="4.81072">
        <ele>140</ele>
        <time>2024-05-21T08:37:31.000Z</time>
      </trkpt>
      <trkpt lat="45.29232" lon="4.81074">
        <ele>140</ele>
        <time>2024-05-21T08:37:32.000Z</time>
      </trkpt>
      <trkpt lat="45.29228" lon="4.81076">
        <ele>140</ele>
        <time>2024-05-21T08:37:33.000Z</time>
      </trkpt>
      <trkpt lat="45.29223" lon="4.81078">
        <ele>140</ele>
        <time>2024-05-21T08:37:34.000Z</time>
      </trkpt>
      <trkpt lat="45.29219" lon="4.8108">
        <ele>140</ele>
        <time>2024-05-21T08:37:35.000Z</time>
      </trkpt>
      <trkpt lat="45.29215" lon="4.81081">
        <ele>140</ele>
        <time>2024-05-21T08:37:36.000Z</time>
      </trkpt>
      <trkpt lat="45.29211" lon="4.81082">
        <ele>140</ele>
        <time>2024-05-21T08:37:37.000Z</time>
      </trkpt>
      <trkpt lat="45.29205" lon="4.81084">
        <ele>140</ele>
        <time>2024-05-21T08:37:38.000Z</time>
      </trkpt>
      <trkpt lat="45.29201" lon="4.81085">
        <ele>140</ele>
        <time>2024-05-21T08:37:39.000Z</time>
      </trkpt>
      <trkpt lat="45.29196" lon="4.81086">
        <ele>140</ele>
        <time>2024-05-21T08:37:40.000Z</time>
      </trkpt>
      <trkpt lat="45.2919" lon="4.81088">
        <ele>140</ele>
        <time>2024-05-21T08:37:41.000Z</time>
      </trkpt>
      <trkpt lat="45.29185" lon="4.81088">
        <ele>140</ele>
        <time>2024-05-21T08:37:42.000Z</time>
      </trkpt>
      <trkpt lat="45.29181" lon="4.81089">
        <ele>139.80000305176</ele>
        <time>2024-05-21T08:37:43.000Z</time>
      </trkpt>
      <trkpt lat="45.29176" lon="4.8109">
        <ele>139.80000305176</ele>
        <time>2024-05-21T08:37:44.000Z</time>
      </trkpt>
      <trkpt lat="45.29171" lon="4.8109">
        <ele>139.80000305176</ele>
        <time>2024-05-21T08:37:45.000Z</time>
      </trkpt>
      <trkpt lat="45.29166" lon="4.81091">
        <ele>139.80000305176</ele>
        <time>2024-05-21T08:37:46.000Z</time>
      </trkpt>
      <trkpt lat="45.2916" lon="4.81092">
        <ele>139.80000305176</ele>
        <time>2024-05-21T08:37:47.000Z</time>
      </trkpt>
      <trkpt lat="45.29155" lon="4.81093">
        <ele>139.60000610352</ele>
        <time>2024-05-21T08:37:48.000Z</time>
      </trkpt>
      <trkpt lat="45.29151" lon="4.81093">
        <ele>139.60000610352</ele>
        <time>2024-05-21T08:37:49.000Z</time>
      </trkpt>
      <trkpt lat="45.29145" lon="4.81094">
        <ele>139.60000610352</ele>
        <time>2024-05-21T08:37:50.000Z</time>
      </trkpt>
      <trkpt lat="45.29142" lon="4.81094">
        <ele>139.60000610352</ele>
        <time>2024-05-21T08:37:51.000Z</time>
      </trkpt>
      <trkpt lat="45.29137" lon="4.81095">
        <ele>139.60000610352</ele>
        <time>2024-05-21T08:37:52.000Z</time>
      </trkpt>
      <trkpt lat="45.29132" lon="4.81096">
        <ele>139.60000610352</ele>
        <time>2024-05-21T08:37:53.000Z</time>
      </trkpt>
      <trkpt lat="45.29127" lon="4.81097">
        <ele>139.60000610352</ele>
        <time>2024-05-21T08:37:54.000Z</time>
      </trkpt>
      <trkpt lat="45.29122" lon="4.81097">
        <ele>139.60000610352</ele>
        <time>2024-05-21T08:37:55.000Z</time>
      </trkpt>
      <trkpt lat="45.29117" lon="4.81098">
        <ele>139.60000610352</ele>
        <time>2024-05-21T08:37:56.000Z</time>
      </trkpt>
      <trkpt lat="45.29112" lon="4.81099">
        <ele>139.80000305176</ele>
        <time>2024-05-21T08:37:57.000Z</time>
      </trkpt>
      <trkpt lat="45.29107" lon="4.811">
        <ele>139.60000610352</ele>
        <time>2024-05-21T08:37:58.000Z</time>
      </trkpt>
      <trkpt lat="45.29102" lon="4.811">
        <ele>139.60000610352</ele>
        <time>2024-05-21T08:37:59.000Z</time>
      </trkpt>
      <trkpt lat="45.29097" lon="4.81101">
        <ele>139.60000610352</ele>
        <time>2024-05-21T08:38:00.000Z</time>
      </trkpt>
      <trkpt lat="45.29092" lon="4.81101">
        <ele>139.60000610352</ele>
        <time>2024-05-21T08:38:01.000Z</time>
      </trkpt>
      <trkpt lat="45.29087" lon="4.81101">
        <ele>139.60000610352</ele>
        <time>2024-05-21T08:38:02.000Z</time>
      </trkpt>
      <trkpt lat="45.29082" lon="4.81102">
        <ele>139.60000610352</ele>
        <time>2024-05-21T08:38:03.000Z</time>
      </trkpt>
      <trkpt lat="45.29077" lon="4.81102">
        <ele>139.60000610352</ele>
        <time>2024-05-21T08:38:04.000Z</time>
      </trkpt>
      <trkpt lat="45.29072" lon="4.81103">
        <ele>139.60000610352</ele>
        <time>2024-05-21T08:38:05.000Z</time>
      </trkpt>
      <trkpt lat="45.29067" lon="4.81103">
        <ele>139.60000610352</ele>
        <time>2024-05-21T08:38:06.000Z</time>
      </trkpt>
      <trkpt lat="45.29061" lon="4.81104">
        <ele>139.60000610352</ele>
        <time>2024-05-21T08:38:07.000Z</time>
      </trkpt>
      <trkpt lat="45.29056" lon="4.81105">
        <ele>139.80000305176</ele>
        <time>2024-05-21T08:38:08.000Z</time>
      </trkpt>
      <trkpt lat="45.29051" lon="4.81106">
        <ele>139.80000305176</ele>
        <time>2024-05-21T08:38:09.000Z</time>
      </trkpt>
      <trkpt lat="45.29046" lon="4.81107">
        <ele>139.80000305176</ele>
        <time>2024-05-21T08:38:10.000Z</time>
      </trkpt>
      <trkpt lat="45.2904" lon="4.81108">
        <ele>139.80000305176</ele>
        <time>2024-05-21T08:38:11.000Z</time>
      </trkpt>
      <trkpt lat="45.29035" lon="4.81109">
        <ele>139.80000305176</ele>
        <time>2024-05-21T08:38:12.000Z</time>
      </trkpt>
      <trkpt lat="45.2903" lon="4.81109">
        <ele>140</ele>
        <time>2024-05-21T08:38:13.000Z</time>
      </trkpt>
      <trkpt lat="45.29025" lon="4.8111">
        <ele>140</ele>
        <time>2024-05-21T08:38:14.000Z</time>
      </trkpt>
      <trkpt lat="45.29019" lon="4.81111">
        <ele>140</ele>
        <time>2024-05-21T08:38:15.000Z</time>
      </trkpt>
      <trkpt lat="45.29014" lon="4.81111">
        <ele>140</ele>
        <time>2024-05-21T08:38:16.000Z</time>
      </trkpt>
      <trkpt lat="45.29009" lon="4.81112">
        <ele>140</ele>
        <time>2024-05-21T08:38:17.000Z</time>
      </trkpt>
      <trkpt lat="45.29003" lon="4.81112">
        <ele>140</ele>
        <time>2024-05-21T08:38:18.000Z</time>
      </trkpt>
      <trkpt lat="45.28998" lon="4.81112">
        <ele>139.80000305176</ele>
        <time>2024-05-21T08:38:19.000Z</time>
      </trkpt>
      <trkpt lat="45.28992" lon="4.81113">
        <ele>139.80000305176</ele>
        <time>2024-05-21T08:38:20.000Z</time>
      </trkpt>
      <trkpt lat="45.28987" lon="4.81113">
        <ele>139.80000305176</ele>
        <time>2024-05-21T08:38:21.000Z</time>
      </trkpt>
      <trkpt lat="45.28982" lon="4.81113">
        <ele>139.80000305176</ele>
        <time>2024-05-21T08:38:22.000Z</time>
      </trkpt>
      <trkpt lat="45.28977" lon="4.81113">
        <ele>139.80000305176</ele>
        <time>2024-05-21T08:38:23.000Z</time>
      </trkpt>
      <trkpt lat="45.28971" lon="4.81113">
        <ele>139.80000305176</ele>
        <time>2024-05-21T08:38:24.000Z</time>
      </trkpt>
      <trkpt lat="45.28966" lon="4.81113">
        <ele>139.80000305176</ele>
        <time>2024-05-21T08:38:25.000Z</time>
      </trkpt>
      <trkpt lat="45.2896" lon="4.81114">
        <ele>139.80000305176</ele>
        <time>2024-05-21T08:38:26.000Z</time>
      </trkpt>
      <trkpt lat="45.28955" lon="4.81114">
        <ele>139.80000305176</ele>
        <time>2024-05-21T08:38:27.000Z</time>
      </trkpt>
      <trkpt lat="45.2895" lon="4.81115">
        <ele>139.60000610352</ele>
        <time>2024-05-21T08:38:28.000Z</time>
      </trkpt>
      <trkpt lat="45.28944" lon="4.81115">
        <ele>139.60000610352</ele>
        <time>2024-05-21T08:38:29.000Z</time>
      </trkpt>
      <trkpt lat="45.28939" lon="4.81116">
        <ele>139.60000610352</ele>
        <time>2024-05-21T08:38:30.000Z</time>
      </trkpt>
      <trkpt lat="45.28933" lon="4.81116">
        <ele>139.60000610352</ele>
        <time>2024-05-21T08:38:31.000Z</time>
      </trkpt>
      <trkpt lat="45.28928" lon="4.81116">
        <ele>139.60000610352</ele>
        <time>2024-05-21T08:38:32.000Z</time>
      </trkpt>
      <trkpt lat="45.28923" lon="4.81116">
        <ele>139.60000610352</ele>
        <time>2024-05-21T08:38:33.000Z</time>
      </trkpt>
      <trkpt lat="45.28917" lon="4.81117">
        <ele>139.60000610352</ele>
        <time>2024-05-21T08:38:34.000Z</time>
      </trkpt>
      <trkpt lat="45.28912" lon="4.81117">
        <ele>139.60000610352</ele>
        <time>2024-05-21T08:38:35.000Z</time>
      </trkpt>
      <trkpt lat="45.28906" lon="4.81117">
        <ele>139.60000610352</ele>
        <time>2024-05-21T08:38:36.000Z</time>
      </trkpt>
      <trkpt lat="45.28901" lon="4.81117">
        <ele>139.60000610352</ele>
        <time>2024-05-21T08:38:37.000Z</time>
      </trkpt>
      <trkpt lat="45.28895" lon="4.81118">
        <ele>139.60000610352</ele>
        <time>2024-05-21T08:38:38.000Z</time>
      </trkpt>
      <trkpt lat="45.2889" lon="4.81118">
        <ele>139.39999389648</ele>
        <time>2024-05-21T08:38:39.000Z</time>
      </trkpt>
      <trkpt lat="45.28884" lon="4.81118">
        <ele>139.39999389648</ele>
        <time>2024-05-21T08:38:40.000Z</time>
      </trkpt>
      <trkpt lat="45.28879" lon="4.81119">
        <ele>139.19999694824</ele>
        <time>2024-05-21T08:38:41.000Z</time>
      </trkpt>
      <trkpt lat="45.28873" lon="4.81119">
        <ele>139.19999694824</ele>
        <time>2024-05-21T08:38:42.000Z</time>
      </trkpt>
      <trkpt lat="45.28867" lon="4.8112">
        <ele>139.19999694824</ele>
        <time>2024-05-21T08:38:43.000Z</time>
      </trkpt>
      <trkpt lat="45.28862" lon="4.8112">
        <ele>139.19999694824</ele>
        <time>2024-05-21T08:38:44.000Z</time>
      </trkpt>
      <trkpt lat="45.28856" lon="4.81121">
        <ele>139.39999389648</ele>
        <time>2024-05-21T08:38:45.000Z</time>
      </trkpt>
      <trkpt lat="45.28851" lon="4.81121">
        <ele>139.39999389648</ele>
        <time>2024-05-21T08:38:46.000Z</time>
      </trkpt>
      <trkpt lat="45.28845" lon="4.81121">
        <ele>139.39999389648</ele>
        <time>2024-05-21T08:38:47.000Z</time>
      </trkpt>
      <trkpt lat="45.2884" lon="4.81121">
        <ele>139.39999389648</ele>
        <time>2024-05-21T08:38:48.000Z</time>
      </trkpt>
      <trkpt lat="45.28835" lon="4.81121">
        <ele>139.39999389648</ele>
        <time>2024-05-21T08:38:49.000Z</time>
      </trkpt>
      <trkpt lat="45.28829" lon="4.81122">
        <ele>139.39999389648</ele>
        <time>2024-05-21T08:38:50.000Z</time>
      </trkpt>
      <trkpt lat="45.28824" lon="4.81122">
        <ele>139.39999389648</ele>
        <time>2024-05-21T08:38:51.000Z</time>
      </trkpt>
      <trkpt lat="45.28818" lon="4.81122">
        <ele>139.39999389648</ele>
        <time>2024-05-21T08:38:52.000Z</time>
      </trkpt>
      <trkpt lat="45.28813" lon="4.81122">
        <ele>139.19999694824</ele>
        <time>2024-05-21T08:38:53.000Z</time>
      </trkpt>
      <trkpt lat="45.28807" lon="4.81121">
        <ele>139.19999694824</ele>
        <time>2024-05-21T08:38:54.000Z</time>
      </trkpt>
      <trkpt lat="45.28802" lon="4.81121">
        <ele>139.19999694824</ele>
        <time>2024-05-21T08:38:55.000Z</time>
      </trkpt>
      <trkpt lat="45.28796" lon="4.8112">
        <ele>139.19999694824</ele>
        <time>2024-05-21T08:38:56.000Z</time>
      </trkpt>
      <trkpt lat="45.28791" lon="4.81121">
        <ele>139.19999694824</ele>
        <time>2024-05-21T08:38:57.000Z</time>
      </trkpt>
      <trkpt lat="45.28785" lon="4.8112">
        <ele>139.19999694824</ele>
        <time>2024-05-21T08:38:58.000Z</time>
      </trkpt>
      <trkpt lat="45.28779" lon="4.8112">
        <ele>139.39999389648</ele>
        <time>2024-05-21T08:38:59.000Z</time>
      </trkpt>
      <trkpt lat="45.28774" lon="4.81119">
        <ele>139.39999389648</ele>
        <time>2024-05-21T08:39:00.000Z</time>
      </trkpt>
      <trkpt lat="45.28768" lon="4.81119">
        <ele>139.39999389648</ele>
        <time>2024-05-21T08:39:01.000Z</time>
      </trkpt>
      <trkpt lat="45.28762" lon="4.81119">
        <ele>139.39999389648</ele>
        <time>2024-05-21T08:39:02.000Z</time>
      </trkpt>
      <trkpt lat="45.28756" lon="4.81119">
        <ele>139.39999389648</ele>
        <time>2024-05-21T08:39:03.000Z</time>
      </trkpt>
      <trkpt lat="45.2875" lon="4.81118">
        <ele>139.19999694824</ele>
        <time>2024-05-21T08:39:04.000Z</time>
      </trkpt>
      <trkpt lat="45.28744" lon="4.81118">
        <ele>139.19999694824</ele>
        <time>2024-05-21T08:39:05.000Z</time>
      </trkpt>
      <trkpt lat="45.28737" lon="4.81118">
        <ele>139.19999694824</ele>
        <time>2024-05-21T08:39:06.000Z</time>
      </trkpt>
      <trkpt lat="45.2873" lon="4.81119">
        <ele>139.19999694824</ele>
        <time>2024-05-21T08:39:07.000Z</time>
      </trkpt>
      <trkpt lat="45.28724" lon="4.81119">
        <ele>138.80000305176</ele>
        <time>2024-05-21T08:39:08.000Z</time>
      </trkpt>
      <trkpt lat="45.28717" lon="4.8112">
        <ele>138.60000610352</ele>
        <time>2024-05-21T08:39:09.000Z</time>
      </trkpt>
      <trkpt lat="45.2871" lon="4.8112">
        <ele>138.39999389648</ele>
        <time>2024-05-21T08:39:10.000Z</time>
      </trkpt>
      <trkpt lat="45.28704" lon="4.8112">
        <ele>138.19999694824</ele>
        <time>2024-05-21T08:39:11.000Z</time>
      </trkpt>
      <trkpt lat="45.28697" lon="4.8112">
        <ele>138.19999694824</ele>
        <time>2024-05-21T08:39:12.000Z</time>
      </trkpt>
      <trkpt lat="45.2869" lon="4.81119">
        <ele>138.19999694824</ele>
        <time>2024-05-21T08:39:13.000Z</time>
      </trkpt>
      <trkpt lat="45.28683" lon="4.81119">
        <ele>138</ele>
        <time>2024-05-21T08:39:14.000Z</time>
      </trkpt>
      <trkpt lat="45.28677" lon="4.81119">
        <ele>138</ele>
        <time>2024-05-21T08:39:15.000Z</time>
      </trkpt>
      <trkpt lat="45.28671" lon="4.81119">
        <ele>138</ele>
        <time>2024-05-21T08:39:16.000Z</time>
      </trkpt>
      <trkpt lat="45.28665" lon="4.81119">
        <ele>138</ele>
        <time>2024-05-21T08:39:17.000Z</time>
      </trkpt>
      <trkpt lat="45.28659" lon="4.81119">
        <ele>138</ele>
        <time>2024-05-21T08:39:18.000Z</time>
      </trkpt>
      <trkpt lat="45.28652" lon="4.81119">
        <ele>138</ele>
        <time>2024-05-21T08:39:19.000Z</time>
      </trkpt>
      <trkpt lat="45.28646" lon="4.8112">
        <ele>138</ele>
        <time>2024-05-21T08:39:20.000Z</time>
      </trkpt>
      <trkpt lat="45.2864" lon="4.8112">
        <ele>138</ele>
        <time>2024-05-21T08:39:21.000Z</time>
      </trkpt>
      <trkpt lat="45.28633" lon="4.81121">
        <ele>138</ele>
        <time>2024-05-21T08:39:22.000Z</time>
      </trkpt>
      <trkpt lat="45.28625" lon="4.81121">
        <ele>138</ele>
        <time>2024-05-21T08:39:23.000Z</time>
      </trkpt>
      <trkpt lat="45.28619" lon="4.81121">
        <ele>138</ele>
        <time>2024-05-21T08:39:24.000Z</time>
      </trkpt>
      <trkpt lat="45.28612" lon="4.81121">
        <ele>138.19999694824</ele>
        <time>2024-05-21T08:39:25.000Z</time>
      </trkpt>
      <trkpt lat="45.28606" lon="4.81121">
        <ele>138.19999694824</ele>
        <time>2024-05-21T08:39:26.000Z</time>
      </trkpt>
      <trkpt lat="45.286" lon="4.81119">
        <ele>138</ele>
        <time>2024-05-21T08:39:27.000Z</time>
      </trkpt>
      <trkpt lat="45.28593" lon="4.81117">
        <ele>138</ele>
        <time>2024-05-21T08:39:28.000Z</time>
      </trkpt>
      <trkpt lat="45.28587" lon="4.81115">
        <ele>138</ele>
        <time>2024-05-21T08:39:29.000Z</time>
      </trkpt>
      <trkpt lat="45.28581" lon="4.81113">
        <ele>138</ele>
        <time>2024-05-21T08:39:30.000Z</time>
      </trkpt>
      <trkpt lat="45.28575" lon="4.81112">
        <ele>138</ele>
        <time>2024-05-21T08:39:31.000Z</time>
      </trkpt>
      <trkpt lat="45.28568" lon="4.81111">
        <ele>138</ele>
        <time>2024-05-21T08:39:32.000Z</time>
      </trkpt>
      <trkpt lat="45.28562" lon="4.8111">
        <ele>138.19999694824</ele>
        <time>2024-05-21T08:39:33.000Z</time>
      </trkpt>
      <trkpt lat="45.28556" lon="4.8111">
        <ele>138.19999694824</ele>
        <time>2024-05-21T08:39:34.000Z</time>
      </trkpt>
      <trkpt lat="45.2855" lon="4.8111">
        <ele>138.19999694824</ele>
        <time>2024-05-21T08:39:35.000Z</time>
      </trkpt>
      <trkpt lat="45.28543" lon="4.8111">
        <ele>138.19999694824</ele>
        <time>2024-05-21T08:39:36.000Z</time>
      </trkpt>
      <trkpt lat="45.28537" lon="4.8111">
        <ele>138.19999694824</ele>
        <time>2024-05-21T08:39:37.000Z</time>
      </trkpt>
      <trkpt lat="45.2853" lon="4.8111">
        <ele>138.19999694824</ele>
        <time>2024-05-21T08:39:38.000Z</time>
      </trkpt>
      <trkpt lat="45.28525" lon="4.8111">
        <ele>138.19999694824</ele>
        <time>2024-05-21T08:39:39.000Z</time>
      </trkpt>
      <trkpt lat="45.28519" lon="4.8111">
        <ele>138.19999694824</ele>
        <time>2024-05-21T08:39:40.000Z</time>
      </trkpt>
      <trkpt lat="45.28512" lon="4.81109">
        <ele>138.19999694824</ele>
        <time>2024-05-21T08:39:41.000Z</time>
      </trkpt>
      <trkpt lat="45.28504" lon="4.81109">
        <ele>138.19999694824</ele>
        <time>2024-05-21T08:39:42.000Z</time>
      </trkpt>
      <trkpt lat="45.28497" lon="4.81108">
        <ele>138.19999694824</ele>
        <time>2024-05-21T08:39:43.000Z</time>
      </trkpt>
      <trkpt lat="45.2849" lon="4.81108">
        <ele>138.19999694824</ele>
        <time>2024-05-21T08:39:44.000Z</time>
      </trkpt>
      <trkpt lat="45.28483" lon="4.81106">
        <ele>138</ele>
        <time>2024-05-21T08:39:45.000Z</time>
      </trkpt>
      <trkpt lat="45.28475" lon="4.81106">
        <ele>137.60000610352</ele>
        <time>2024-05-21T08:39:46.000Z</time>
      </trkpt>
      <trkpt lat="45.28468" lon="4.81105">
        <ele>137</ele>
        <time>2024-05-21T08:39:47.000Z</time>
      </trkpt>
      <trkpt lat="45.2846" lon="4.81105">
        <ele>137</ele>
        <time>2024-05-21T08:39:48.000Z</time>
      </trkpt>
      <trkpt lat="45.28453" lon="4.81104">
        <ele>136.80000305176</ele>
        <time>2024-05-21T08:39:49.000Z</time>
      </trkpt>
      <trkpt lat="45.28445" lon="4.81104">
        <ele>136.39999389648</ele>
        <time>2024-05-21T08:39:50.000Z</time>
      </trkpt>
      <trkpt lat="45.28437" lon="4.81104">
        <ele>136.39999389648</ele>
        <time>2024-05-21T08:39:51.000Z</time>
      </trkpt>
      <trkpt lat="45.2843" lon="4.81104">
        <ele>136.19999694824</ele>
        <time>2024-05-21T08:39:52.000Z</time>
      </trkpt>
      <trkpt lat="45.28422" lon="4.81103">
        <ele>135.80000305176</ele>
        <time>2024-05-21T08:39:53.000Z</time>
      </trkpt>
      <trkpt lat="45.28414" lon="4.81104">
        <ele>135.80000305176</ele>
        <time>2024-05-21T08:39:54.000Z</time>
      </trkpt>
      <trkpt lat="45.28407" lon="4.81106">
        <ele>135.39999389648</ele>
        <time>2024-05-21T08:39:55.000Z</time>
      </trkpt>
      <trkpt lat="45.28399" lon="4.81109">
        <ele>135.19999694824</ele>
        <time>2024-05-21T08:39:56.000Z</time>
      </trkpt>
      <trkpt lat="45.28392" lon="4.8111">
        <ele>135.19999694824</ele>
        <time>2024-05-21T08:39:57.000Z</time>
      </trkpt>
      <trkpt lat="45.28385" lon="4.81111">
        <ele>135.19999694824</ele>
        <time>2024-05-21T08:39:58.000Z</time>
      </trkpt>
      <trkpt lat="45.28377" lon="4.81111">
        <ele>135.19999694824</ele>
        <time>2024-05-21T08:39:59.000Z</time>
      </trkpt>
      <trkpt lat="45.2837" lon="4.81112">
        <ele>135.19999694824</ele>
        <time>2024-05-21T08:40:00.000Z</time>
      </trkpt>
      <trkpt lat="45.28363" lon="4.81112">
        <ele>135.19999694824</ele>
        <time>2024-05-21T08:40:01.000Z</time>
      </trkpt>
      <trkpt lat="45.28356" lon="4.81112">
        <ele>135.19999694824</ele>
        <time>2024-05-21T08:40:02.000Z</time>
      </trkpt>
      <trkpt lat="45.28348" lon="4.81112">
        <ele>135.19999694824</ele>
        <time>2024-05-21T08:40:03.000Z</time>
      </trkpt>
      <trkpt lat="45.28341" lon="4.81113">
        <ele>135.19999694824</ele>
        <time>2024-05-21T08:40:04.000Z</time>
      </trkpt>
      <trkpt lat="45.28334" lon="4.81113">
        <ele>135.19999694824</ele>
        <time>2024-05-21T08:40:05.000Z</time>
      </trkpt>
      <trkpt lat="45.28327" lon="4.81114">
        <ele>135</ele>
        <time>2024-05-21T08:40:06.000Z</time>
      </trkpt>
      <trkpt lat="45.2832" lon="4.81116">
        <ele>135</ele>
        <time>2024-05-21T08:40:07.000Z</time>
      </trkpt>
      <trkpt lat="45.28313" lon="4.81117">
        <ele>135</ele>
        <time>2024-05-21T08:40:08.000Z</time>
      </trkpt>
      <trkpt lat="45.28306" lon="4.81118">
        <ele>135</ele>
        <time>2024-05-21T08:40:09.000Z</time>
      </trkpt>
      <trkpt lat="45.28299" lon="4.81119">
        <ele>135</ele>
        <time>2024-05-21T08:40:10.000Z</time>
      </trkpt>
      <trkpt lat="45.28291" lon="4.81119">
        <ele>135.19999694824</ele>
        <time>2024-05-21T08:40:11.000Z</time>
      </trkpt>
      <trkpt lat="45.28285" lon="4.8112">
        <ele>135.19999694824</ele>
        <time>2024-05-21T08:40:12.000Z</time>
      </trkpt>
      <trkpt lat="45.28279" lon="4.8112">
        <ele>135.19999694824</ele>
        <time>2024-05-21T08:40:13.000Z</time>
      </trkpt>
      <trkpt lat="45.28272" lon="4.81119">
        <ele>135.19999694824</ele>
        <time>2024-05-21T08:40:14.000Z</time>
      </trkpt>
      <trkpt lat="45.28265" lon="4.8112">
        <ele>135.19999694824</ele>
        <time>2024-05-21T08:40:15.000Z</time>
      </trkpt>
      <trkpt lat="45.28258" lon="4.81122">
        <ele>135</ele>
        <time>2024-05-21T08:40:16.000Z</time>
      </trkpt>
      <trkpt lat="45.28253" lon="4.81123">
        <ele>135.19999694824</ele>
        <time>2024-05-21T08:40:17.000Z</time>
      </trkpt>
      <trkpt lat="45.28246" lon="4.81124">
        <ele>135.19999694824</ele>
        <time>2024-05-21T08:40:18.000Z</time>
      </trkpt>
      <trkpt lat="45.2824" lon="4.81126">
        <ele>135.19999694824</ele>
        <time>2024-05-21T08:40:19.000Z</time>
      </trkpt>
      <trkpt lat="45.28234" lon="4.81127">
        <ele>135.19999694824</ele>
        <time>2024-05-21T08:40:20.000Z</time>
      </trkpt>
      <trkpt lat="45.28227" lon="4.81128">
        <ele>135.19999694824</ele>
        <time>2024-05-21T08:40:21.000Z</time>
      </trkpt>
      <trkpt lat="45.28221" lon="4.81129">
        <ele>135.19999694824</ele>
        <time>2024-05-21T08:40:22.000Z</time>
      </trkpt>
      <trkpt lat="45.28216" lon="4.81131">
        <ele>135.19999694824</ele>
        <time>2024-05-21T08:40:23.000Z</time>
      </trkpt>
      <trkpt lat="45.2821" lon="4.81132">
        <ele>135.19999694824</ele>
        <time>2024-05-21T08:40:24.000Z</time>
      </trkpt>
      <trkpt lat="45.28203" lon="4.81133">
        <ele>135.39999389648</ele>
        <time>2024-05-21T08:40:25.000Z</time>
      </trkpt>
      <trkpt lat="45.28196" lon="4.81133">
        <ele>135.39999389648</ele>
        <time>2024-05-21T08:40:26.000Z</time>
      </trkpt>
      <trkpt lat="45.2819" lon="4.81134">
        <ele>135.39999389648</ele>
        <time>2024-05-21T08:40:27.000Z</time>
      </trkpt>
      <trkpt lat="45.28183" lon="4.81135">
        <ele>135.39999389648</ele>
        <time>2024-05-21T08:40:28.000Z</time>
      </trkpt>
      <trkpt lat="45.28176" lon="4.81136">
        <ele>135.39999389648</ele>
        <time>2024-05-21T08:40:29.000Z</time>
      </trkpt>
      <trkpt lat="45.2817" lon="4.81138">
        <ele>135.39999389648</ele>
        <time>2024-05-21T08:40:30.000Z</time>
      </trkpt>
      <trkpt lat="45.28163" lon="4.8114">
        <ele>135.39999389648</ele>
        <time>2024-05-21T08:40:31.000Z</time>
      </trkpt>
      <trkpt lat="45.28156" lon="4.81142">
        <ele>135.39999389648</ele>
        <time>2024-05-21T08:40:32.000Z</time>
      </trkpt>
      <trkpt lat="45.2815" lon="4.81143">
        <ele>135.39999389648</ele>
        <time>2024-05-21T08:40:33.000Z</time>
      </trkpt>
      <trkpt lat="45.28143" lon="4.81145">
        <ele>135.39999389648</ele>
        <time>2024-05-21T08:40:34.000Z</time>
      </trkpt>
      <trkpt lat="45.28136" lon="4.81147">
        <ele>135.39999389648</ele>
        <time>2024-05-21T08:40:35.000Z</time>
      </trkpt>
      <trkpt lat="45.28129" lon="4.81148">
        <ele>135.39999389648</ele>
        <time>2024-05-21T08:40:36.000Z</time>
      </trkpt>
      <trkpt lat="45.28124" lon="4.81149">
        <ele>135.60000610352</ele>
        <time>2024-05-21T08:40:37.000Z</time>
      </trkpt>
      <trkpt lat="45.28118" lon="4.81149">
        <ele>135.80000305176</ele>
        <time>2024-05-21T08:40:38.000Z</time>
      </trkpt>
      <trkpt lat="45.28113" lon="4.8115">
        <ele>135.80000305176</ele>
        <time>2024-05-21T08:40:39.000Z</time>
      </trkpt>
      <trkpt lat="45.28107" lon="4.81151">
        <ele>136</ele>
        <time>2024-05-21T08:40:40.000Z</time>
      </trkpt>
      <trkpt lat="45.28101" lon="4.81151">
        <ele>136</ele>
        <time>2024-05-21T08:40:41.000Z</time>
      </trkpt>
      <trkpt lat="45.28093" lon="4.81151">
        <ele>136</ele>
        <time>2024-05-21T08:40:42.000Z</time>
      </trkpt>
      <trkpt lat="45.28086" lon="4.81152">
        <ele>136</ele>
        <time>2024-05-21T08:40:43.000Z</time>
      </trkpt>
      <trkpt lat="45.2808" lon="4.81152">
        <ele>135.80000305176</ele>
        <time>2024-05-21T08:40:44.000Z</time>
      </trkpt>
      <trkpt lat="45.28073" lon="4.81153">
        <ele>135.60000610352</ele>
        <time>2024-05-21T08:40:45.000Z</time>
      </trkpt>
      <trkpt lat="45.28066" lon="4.81155">
        <ele>135.39999389648</ele>
        <time>2024-05-21T08:40:46.000Z</time>
      </trkpt>
      <trkpt lat="45.28058" lon="4.81157">
        <ele>135.39999389648</ele>
        <time>2024-05-21T08:40:47.000Z</time>
      </trkpt>
      <trkpt lat="45.28051" lon="4.81158">
        <ele>135.19999694824</ele>
        <time>2024-05-21T08:40:48.000Z</time>
      </trkpt>
      <trkpt lat="45.28044" lon="4.8116">
        <ele>135.19999694824</ele>
        <time>2024-05-21T08:40:49.000Z</time>
      </trkpt>
      <trkpt lat="45.28037" lon="4.81161">
        <ele>135.19999694824</ele>
        <time>2024-05-21T08:40:50.000Z</time>
      </trkpt>
      <trkpt lat="45.28031" lon="4.81162">
        <ele>135.19999694824</ele>
        <time>2024-05-21T08:40:51.000Z</time>
      </trkpt>
      <trkpt lat="45.28024" lon="4.81163">
        <ele>135</ele>
        <time>2024-05-21T08:40:52.000Z</time>
      </trkpt>
      <trkpt lat="45.28018" lon="4.81164">
        <ele>135</ele>
        <time>2024-05-21T08:40:53.000Z</time>
      </trkpt>
      <trkpt lat="45.28011" lon="4.81165">
        <ele>135</ele>
        <time>2024-05-21T08:40:54.000Z</time>
      </trkpt>
      <trkpt lat="45.28004" lon="4.81167">
        <ele>135</ele>
        <time>2024-05-21T08:40:55.000Z</time>
      </trkpt>
      <trkpt lat="45.27997" lon="4.81169">
        <ele>135</ele>
        <time>2024-05-21T08:40:56.000Z</time>
      </trkpt>
      <trkpt lat="45.2799" lon="4.81171">
        <ele>135</ele>
        <time>2024-05-21T08:40:57.000Z</time>
      </trkpt>
      <trkpt lat="45.27984" lon="4.8117">
        <ele>135</ele>
        <time>2024-05-21T08:40:58.000Z</time>
      </trkpt>
      <trkpt lat="45.27978" lon="4.81171">
        <ele>135.19999694824</ele>
        <time>2024-05-21T08:40:59.000Z</time>
      </trkpt>
      <trkpt lat="45.27973" lon="4.81171">
        <ele>135.19999694824</ele>
        <time>2024-05-21T08:41:00.000Z</time>
      </trkpt>
      <trkpt lat="45.27966" lon="4.81172">
        <ele>135.19999694824</ele>
        <time>2024-05-21T08:41:01.000Z</time>
      </trkpt>
      <trkpt lat="45.2796" lon="4.81173">
        <ele>135.19999694824</ele>
        <time>2024-05-21T08:41:02.000Z</time>
      </trkpt>
      <trkpt lat="45.27953" lon="4.81175">
        <ele>135.39999389648</ele>
        <time>2024-05-21T08:41:03.000Z</time>
      </trkpt>
      <trkpt lat="45.27947" lon="4.81177">
        <ele>135.60000610352</ele>
        <time>2024-05-21T08:41:04.000Z</time>
      </trkpt>
      <trkpt lat="45.27941" lon="4.81179">
        <ele>135.60000610352</ele>
        <time>2024-05-21T08:41:05.000Z</time>
      </trkpt>
      <trkpt lat="45.27937" lon="4.81181">
        <ele>136</ele>
        <time>2024-05-21T08:41:06.000Z</time>
      </trkpt>
      <trkpt lat="45.27931" lon="4.81182">
        <ele>136</ele>
        <time>2024-05-21T08:41:07.000Z</time>
      </trkpt>
      <trkpt lat="45.27925" lon="4.81183">
        <ele>136</ele>
        <time>2024-05-21T08:41:08.000Z</time>
      </trkpt>
      <trkpt lat="45.2792" lon="4.81182">
        <ele>136.19999694824</ele>
        <time>2024-05-21T08:41:09.000Z</time>
      </trkpt>
      <trkpt lat="45.27914" lon="4.81182">
        <ele>136.19999694824</ele>
        <time>2024-05-21T08:41:10.000Z</time>
      </trkpt>
      <trkpt lat="45.27908" lon="4.81181">
        <ele>136.19999694824</ele>
        <time>2024-05-21T08:41:11.000Z</time>
      </trkpt>
      <trkpt lat="45.27901" lon="4.81181">
        <ele>136.19999694824</ele>
        <time>2024-05-21T08:41:12.000Z</time>
      </trkpt>
      <trkpt lat="45.27895" lon="4.8118">
        <ele>136</ele>
        <time>2024-05-21T08:41:13.000Z</time>
      </trkpt>
      <trkpt lat="45.27888" lon="4.81179">
        <ele>135.80000305176</ele>
        <time>2024-05-21T08:41:14.000Z</time>
      </trkpt>
      <trkpt lat="45.27882" lon="4.81178">
        <ele>135.60000610352</ele>
        <time>2024-05-21T08:41:15.000Z</time>
      </trkpt>
      <trkpt lat="45.27875" lon="4.81177">
        <ele>135.60000610352</ele>
        <time>2024-05-21T08:41:16.000Z</time>
      </trkpt>
      <trkpt lat="45.27868" lon="4.81177">
        <ele>135.60000610352</ele>
        <time>2024-05-21T08:41:17.000Z</time>
      </trkpt>
      <trkpt lat="45.27861" lon="4.81177">
        <ele>135.39999389648</ele>
        <time>2024-05-21T08:41:18.000Z</time>
      </trkpt>
      <trkpt lat="45.27854" lon="4.81177">
        <ele>135.39999389648</ele>
        <time>2024-05-21T08:41:19.000Z</time>
      </trkpt>
      <trkpt lat="45.27847" lon="4.81177">
        <ele>135.39999389648</ele>
        <time>2024-05-21T08:41:20.000Z</time>
      </trkpt>
      <trkpt lat="45.2784" lon="4.81177">
        <ele>135.39999389648</ele>
        <time>2024-05-21T08:41:21.000Z</time>
      </trkpt>
      <trkpt lat="45.27833" lon="4.81177">
        <ele>135.39999389648</ele>
        <time>2024-05-21T08:41:22.000Z</time>
      </trkpt>
      <trkpt lat="45.27827" lon="4.81178">
        <ele>135.39999389648</ele>
        <time>2024-05-21T08:41:23.000Z</time>
      </trkpt>
      <trkpt lat="45.2782" lon="4.81178">
        <ele>135.39999389648</ele>
        <time>2024-05-21T08:41:24.000Z</time>
      </trkpt>
      <trkpt lat="45.27814" lon="4.81179">
        <ele>135.39999389648</ele>
        <time>2024-05-21T08:41:25.000Z</time>
      </trkpt>
      <trkpt lat="45.27807" lon="4.81181">
        <ele>135.39999389648</ele>
        <time>2024-05-21T08:41:26.000Z</time>
      </trkpt>
      <trkpt lat="45.27801" lon="4.81182">
        <ele>135.39999389648</ele>
        <time>2024-05-21T08:41:27.000Z</time>
      </trkpt>
      <trkpt lat="45.27795" lon="4.81181">
        <ele>135.60000610352</ele>
        <time>2024-05-21T08:41:28.000Z</time>
      </trkpt>
      <trkpt lat="45.27789" lon="4.81181">
        <ele>135.80000305176</ele>
        <time>2024-05-21T08:41:29.000Z</time>
      </trkpt>
      <trkpt lat="45.27783" lon="4.8118">
        <ele>135.80000305176</ele>
        <time>2024-05-21T08:41:30.000Z</time>
      </trkpt>
      <trkpt lat="45.27776" lon="4.81178">
        <ele>135.80000305176</ele>
        <time>2024-05-21T08:41:31.000Z</time>
      </trkpt>
      <trkpt lat="45.27769" lon="4.81177">
        <ele>135.80000305176</ele>
        <time>2024-05-21T08:41:32.000Z</time>
      </trkpt>
      <trkpt lat="45.27764" lon="4.81177">
        <ele>135.60000610352</ele>
        <time>2024-05-21T08:41:33.000Z</time>
      </trkpt>
      <trkpt lat="45.27756" lon="4.81177">
        <ele>135.39999389648</ele>
        <time>2024-05-21T08:41:34.000Z</time>
      </trkpt>
      <trkpt lat="45.2775" lon="4.81177">
        <ele>135.19999694824</ele>
        <time>2024-05-21T08:41:35.000Z</time>
      </trkpt>
      <trkpt lat="45.27743" lon="4.81177">
        <ele>135.19999694824</ele>
        <time>2024-05-21T08:41:36.000Z</time>
      </trkpt>
      <trkpt lat="45.27736" lon="4.81177">
        <ele>135.19999694824</ele>
        <time>2024-05-21T08:41:37.000Z</time>
      </trkpt>
      <trkpt lat="45.2773" lon="4.81179">
        <ele>135</ele>
        <time>2024-05-21T08:41:38.000Z</time>
      </trkpt>
      <trkpt lat="45.27724" lon="4.81179">
        <ele>135</ele>
        <time>2024-05-21T08:41:39.000Z</time>
      </trkpt>
      <trkpt lat="45.27716" lon="4.81179">
        <ele>135</ele>
        <time>2024-05-21T08:41:40.000Z</time>
      </trkpt>
      <trkpt lat="45.27709" lon="4.81178">
        <ele>135</ele>
        <time>2024-05-21T08:41:41.000Z</time>
      </trkpt>
      <trkpt lat="45.27702" lon="4.81178">
        <ele>135</ele>
        <time>2024-05-21T08:41:42.000Z</time>
      </trkpt>
      <trkpt lat="45.27695" lon="4.81178">
        <ele>135</ele>
        <time>2024-05-21T08:41:43.000Z</time>
      </trkpt>
      <trkpt lat="45.27687" lon="4.81178">
        <ele>135</ele>
        <time>2024-05-21T08:41:44.000Z</time>
      </trkpt>
      <trkpt lat="45.2768" lon="4.81179">
        <ele>135</ele>
        <time>2024-05-21T08:41:45.000Z</time>
      </trkpt>
      <trkpt lat="45.27673" lon="4.81179">
        <ele>135</ele>
        <time>2024-05-21T08:41:46.000Z</time>
      </trkpt>
      <trkpt lat="45.27667" lon="4.81177">
        <ele>135</ele>
        <time>2024-05-21T08:41:47.000Z</time>
      </trkpt>
      <trkpt lat="45.2766" lon="4.81176">
        <ele>135</ele>
        <time>2024-05-21T08:41:48.000Z</time>
      </trkpt>
      <trkpt lat="45.27654" lon="4.81176">
        <ele>135</ele>
        <time>2024-05-21T08:41:49.000Z</time>
      </trkpt>
      <trkpt lat="45.27647" lon="4.81177">
        <ele>135</ele>
        <time>2024-05-21T08:41:50.000Z</time>
      </trkpt>
      <trkpt lat="45.27641" lon="4.81177">
        <ele>135</ele>
        <time>2024-05-21T08:41:51.000Z</time>
      </trkpt>
      <trkpt lat="45.27635" lon="4.81176">
        <ele>134.80000305176</ele>
        <time>2024-05-21T08:41:52.000Z</time>
      </trkpt>
      <trkpt lat="45.27629" lon="4.81176">
        <ele>134.80000305176</ele>
        <time>2024-05-21T08:41:53.000Z</time>
      </trkpt>
      <trkpt lat="45.27621" lon="4.81176">
        <ele>134.80000305176</ele>
        <time>2024-05-21T08:41:54.000Z</time>
      </trkpt>
      <trkpt lat="45.27615" lon="4.81177">
        <ele>134.80000305176</ele>
        <time>2024-05-21T08:41:55.000Z</time>
      </trkpt>
      <trkpt lat="45.27608" lon="4.81177">
        <ele>134.80000305176</ele>
        <time>2024-05-21T08:41:56.000Z</time>
      </trkpt>
      <trkpt lat="45.27602" lon="4.81176">
        <ele>134.80000305176</ele>
        <time>2024-05-21T08:41:57.000Z</time>
      </trkpt>
      <trkpt lat="45.27597" lon="4.81176">
        <ele>134.80000305176</ele>
        <time>2024-05-21T08:41:58.000Z</time>
      </trkpt>
      <trkpt lat="45.27589" lon="4.81175">
        <ele>135.19999694824</ele>
        <time>2024-05-21T08:41:59.000Z</time>
      </trkpt>
      <trkpt lat="45.27583" lon="4.81175">
        <ele>135.19999694824</ele>
        <time>2024-05-21T08:42:00.000Z</time>
      </trkpt>
      <trkpt lat="45.27577" lon="4.81175">
        <ele>135.19999694824</ele>
        <time>2024-05-21T08:42:01.000Z</time>
      </trkpt>
      <trkpt lat="45.27571" lon="4.81174">
        <ele>135.19999694824</ele>
        <time>2024-05-21T08:42:02.000Z</time>
      </trkpt>
      <trkpt lat="45.27564" lon="4.81174">
        <ele>135.19999694824</ele>
        <time>2024-05-21T08:42:03.000Z</time>
      </trkpt>
      <trkpt lat="45.27558" lon="4.81174">
        <ele>135.19999694824</ele>
        <time>2024-05-21T08:42:04.000Z</time>
      </trkpt>
      <trkpt lat="45.27551" lon="4.81175">
        <ele>135.19999694824</ele>
        <time>2024-05-21T08:42:05.000Z</time>
      </trkpt>
      <trkpt lat="45.27544" lon="4.81175">
        <ele>135.19999694824</ele>
        <time>2024-05-21T08:42:06.000Z</time>
      </trkpt>
      <trkpt lat="45.27538" lon="4.81175">
        <ele>135.19999694824</ele>
        <time>2024-05-21T08:42:07.000Z</time>
      </trkpt>
      <trkpt lat="45.27531" lon="4.81175">
        <ele>135</ele>
        <time>2024-05-21T08:42:08.000Z</time>
      </trkpt>
      <trkpt lat="45.27525" lon="4.81174">
        <ele>134.80000305176</ele>
        <time>2024-05-21T08:42:09.000Z</time>
      </trkpt>
      <trkpt lat="45.2752" lon="4.81173">
        <ele>134.80000305176</ele>
        <time>2024-05-21T08:42:10.000Z</time>
      </trkpt>
      <trkpt lat="45.27512" lon="4.81172">
        <ele>134.60000610352</ele>
        <time>2024-05-21T08:42:11.000Z</time>
      </trkpt>
      <trkpt lat="45.27505" lon="4.81171">
        <ele>134.60000610352</ele>
        <time>2024-05-21T08:42:12.000Z</time>
      </trkpt>
      <trkpt lat="45.27497" lon="4.81171">
        <ele>134.60000610352</ele>
        <time>2024-05-21T08:42:13.000Z</time>
      </trkpt>
      <trkpt lat="45.2749" lon="4.81171">
        <ele>134.60000610352</ele>
        <time>2024-05-21T08:42:14.000Z</time>
      </trkpt>
      <trkpt lat="45.27484" lon="4.81171">
        <ele>134.60000610352</ele>
        <time>2024-05-21T08:42:15.000Z</time>
      </trkpt>
      <trkpt lat="45.27478" lon="4.81172">
        <ele>134.60000610352</ele>
        <time>2024-05-21T08:42:16.000Z</time>
      </trkpt>
      <trkpt lat="45.27472" lon="4.81173">
        <ele>134.60000610352</ele>
        <time>2024-05-21T08:42:17.000Z</time>
      </trkpt>
      <trkpt lat="45.27465" lon="4.81173">
        <ele>134.60000610352</ele>
        <time>2024-05-21T08:42:18.000Z</time>
      </trkpt>
      <trkpt lat="45.27459" lon="4.81174">
        <ele>134.39999389648</ele>
        <time>2024-05-21T08:42:19.000Z</time>
      </trkpt>
      <trkpt lat="45.27453" lon="4.81174">
        <ele>134.39999389648</ele>
        <time>2024-05-21T08:42:20.000Z</time>
      </trkpt>
      <trkpt lat="45.27447" lon="4.81173">
        <ele>134.39999389648</ele>
        <time>2024-05-21T08:42:21.000Z</time>
      </trkpt>
      <trkpt lat="45.27441" lon="4.81172">
        <ele>134.19999694824</ele>
        <time>2024-05-21T08:42:22.000Z</time>
      </trkpt>
      <trkpt lat="45.27435" lon="4.81171">
        <ele>134.19999694824</ele>
        <time>2024-05-21T08:42:23.000Z</time>
      </trkpt>
      <trkpt lat="45.27428" lon="4.81171">
        <ele>134.19999694824</ele>
        <time>2024-05-21T08:42:24.000Z</time>
      </trkpt>
      <trkpt lat="45.27423" lon="4.81171">
        <ele>134.19999694824</ele>
        <time>2024-05-21T08:42:25.000Z</time>
      </trkpt>
      <trkpt lat="45.27415" lon="4.8117">
        <ele>134.19999694824</ele>
        <time>2024-05-21T08:42:26.000Z</time>
      </trkpt>
      <trkpt lat="45.27409" lon="4.8117">
        <ele>134.39999389648</ele>
        <time>2024-05-21T08:42:27.000Z</time>
      </trkpt>
      <trkpt lat="45.27402" lon="4.8117">
        <ele>134.39999389648</ele>
        <time>2024-05-21T08:42:28.000Z</time>
      </trkpt>
      <trkpt lat="45.27396" lon="4.8117">
        <ele>134.39999389648</ele>
        <time>2024-05-21T08:42:29.000Z</time>
      </trkpt>
      <trkpt lat="45.27389" lon="4.81171">
        <ele>134.39999389648</ele>
        <time>2024-05-21T08:42:30.000Z</time>
      </trkpt>
      <trkpt lat="45.27382" lon="4.81172">
        <ele>134.39999389648</ele>
        <time>2024-05-21T08:42:31.000Z</time>
      </trkpt>
      <trkpt lat="45.27377" lon="4.81172">
        <ele>134.39999389648</ele>
        <time>2024-05-21T08:42:32.000Z</time>
      </trkpt>
      <trkpt lat="45.27372" lon="4.81173">
        <ele>134.60000610352</ele>
        <time>2024-05-21T08:42:33.000Z</time>
      </trkpt>
      <trkpt lat="45.27366" lon="4.81173">
        <ele>134.60000610352</ele>
        <time>2024-05-21T08:42:34.000Z</time>
      </trkpt>
      <trkpt lat="45.27361" lon="4.81173">
        <ele>134.80000305176</ele>
        <time>2024-05-21T08:42:35.000Z</time>
      </trkpt>
      <trkpt lat="45.27355" lon="4.81173">
        <ele>135.19999694824</ele>
        <time>2024-05-21T08:42:36.000Z</time>
      </trkpt>
      <trkpt lat="45.27348" lon="4.81174">
        <ele>135.60000610352</ele>
        <time>2024-05-21T08:42:37.000Z</time>
      </trkpt>
      <trkpt lat="45.27343" lon="4.81175">
        <ele>135.60000610352</ele>
        <time>2024-05-21T08:42:38.000Z</time>
      </trkpt>
      <trkpt lat="45.27337" lon="4.81176">
        <ele>136</ele>
        <time>2024-05-21T08:42:39.000Z</time>
      </trkpt>
      <trkpt lat="45.27331" lon="4.81176">
        <ele>136</ele>
        <time>2024-05-21T08:42:40.000Z</time>
      </trkpt>
      <trkpt lat="45.27326" lon="4.81177">
        <ele>136</ele>
        <time>2024-05-21T08:42:41.000Z</time>
      </trkpt>
      <trkpt lat="45.27322" lon="4.81177">
        <ele>136.19999694824</ele>
        <time>2024-05-21T08:42:42.000Z</time>
      </trkpt>
      <trkpt lat="45.27315" lon="4.81178">
        <ele>136.39999389648</ele>
        <time>2024-05-21T08:42:43.000Z</time>
      </trkpt>
      <trkpt lat="45.2731" lon="4.81179">
        <ele>136.80000305176</ele>
        <time>2024-05-21T08:42:44.000Z</time>
      </trkpt>
      <trkpt lat="45.27305" lon="4.8118">
        <ele>137</ele>
        <time>2024-05-21T08:42:45.000Z</time>
      </trkpt>
      <trkpt lat="45.273" lon="4.8118">
        <ele>137.39999389648</ele>
        <time>2024-05-21T08:42:46.000Z</time>
      </trkpt>
      <trkpt lat="45.27295" lon="4.81181">
        <ele>137.60000610352</ele>
        <time>2024-05-21T08:42:47.000Z</time>
      </trkpt>
      <trkpt lat="45.2729" lon="4.81181">
        <ele>137.80000305176</ele>
        <time>2024-05-21T08:42:48.000Z</time>
      </trkpt>
      <trkpt lat="45.27285" lon="4.81182">
        <ele>137.80000305176</ele>
        <time>2024-05-21T08:42:49.000Z</time>
      </trkpt>
      <trkpt lat="45.2728" lon="4.81182">
        <ele>138</ele>
        <time>2024-05-21T08:42:50.000Z</time>
      </trkpt>
      <trkpt lat="45.27275" lon="4.81183">
        <ele>138</ele>
        <time>2024-05-21T08:42:51.000Z</time>
      </trkpt>
      <trkpt lat="45.27271" lon="4.81183">
        <ele>138.39999389648</ele>
        <time>2024-05-21T08:42:52.000Z</time>
      </trkpt>
      <trkpt lat="45.27266" lon="4.81183">
        <ele>138.39999389648</ele>
        <time>2024-05-21T08:42:53.000Z</time>
      </trkpt>
      <trkpt lat="45.27262" lon="4.81184">
        <ele>138.60000610352</ele>
        <time>2024-05-21T08:42:54.000Z</time>
      </trkpt>
      <trkpt lat="45.27257" lon="4.81184">
        <ele>138.60000610352</ele>
        <time>2024-05-21T08:42:55.000Z</time>
      </trkpt>
      <trkpt lat="45.27252" lon="4.81185">
        <ele>138.80000305176</ele>
        <time>2024-05-21T08:42:56.000Z</time>
      </trkpt>
      <trkpt lat="45.27248" lon="4.81185">
        <ele>139</ele>
        <time>2024-05-21T08:42:57.000Z</time>
      </trkpt>
      <trkpt lat="45.27243" lon="4.81185">
        <ele>139.19999694824</ele>
        <time>2024-05-21T08:42:58.000Z</time>
      </trkpt>
      <trkpt lat="45.27238" lon="4.81186">
        <ele>139.19999694824</ele>
        <time>2024-05-21T08:42:59.000Z</time>
      </trkpt>
      <trkpt lat="45.27233" lon="4.81186">
        <ele>139.39999389648</ele>
        <time>2024-05-21T08:43:00.000Z</time>
      </trkpt>
      <trkpt lat="45.27229" lon="4.81186">
        <ele>139.39999389648</ele>
        <time>2024-05-21T08:43:01.000Z</time>
      </trkpt>
      <trkpt lat="45.27225" lon="4.81186">
        <ele>139.39999389648</ele>
        <time>2024-05-21T08:43:02.000Z</time>
      </trkpt>
      <trkpt lat="45.2722" lon="4.81187">
        <ele>139.60000610352</ele>
        <time>2024-05-21T08:43:03.000Z</time>
      </trkpt>
      <trkpt lat="45.27216" lon="4.81187">
        <ele>139.80000305176</ele>
        <time>2024-05-21T08:43:04.000Z</time>
      </trkpt>
      <trkpt lat="45.27212" lon="4.81188">
        <ele>140</ele>
        <time>2024-05-21T08:43:05.000Z</time>
      </trkpt>
      <trkpt lat="45.27207" lon="4.81188">
        <ele>140.19999694824</ele>
        <time>2024-05-21T08:43:06.000Z</time>
      </trkpt>
      <trkpt lat="45.27203" lon="4.81188">
        <ele>140.39999389648</ele>
        <time>2024-05-21T08:43:07.000Z</time>
      </trkpt>
      <trkpt lat="45.27199" lon="4.81188">
        <ele>140.39999389648</ele>
        <time>2024-05-21T08:43:08.000Z</time>
      </trkpt>
      <trkpt lat="45.27195" lon="4.81189">
        <ele>140.39999389648</ele>
        <time>2024-05-21T08:43:09.000Z</time>
      </trkpt>
      <trkpt lat="45.27191" lon="4.81189">
        <ele>140.60000610352</ele>
        <time>2024-05-21T08:43:10.000Z</time>
      </trkpt>
      <trkpt lat="45.27187" lon="4.81189">
        <ele>140.80000305176</ele>
        <time>2024-05-21T08:43:11.000Z</time>
      </trkpt>
      <trkpt lat="45.27183" lon="4.81189">
        <ele>141</ele>
        <time>2024-05-21T08:43:12.000Z</time>
      </trkpt>
      <trkpt lat="45.27179" lon="4.81189">
        <ele>141.19999694824</ele>
        <time>2024-05-21T08:43:13.000Z</time>
      </trkpt>
      <trkpt lat="45.27175" lon="4.8119">
        <ele>141.19999694824</ele>
        <time>2024-05-21T08:43:14.000Z</time>
      </trkpt>
      <trkpt lat="45.27171" lon="4.8119">
        <ele>141.19999694824</ele>
        <time>2024-05-21T08:43:15.000Z</time>
      </trkpt>
      <trkpt lat="45.27165" lon="4.81191">
        <ele>141.19999694824</ele>
        <time>2024-05-21T08:43:16.000Z</time>
      </trkpt>
      <trkpt lat="45.27159" lon="4.8119">
        <ele>141</ele>
        <time>2024-05-21T08:43:17.000Z</time>
      </trkpt>
      <trkpt lat="45.27153" lon="4.8119">
        <ele>140.60000610352</ele>
        <time>2024-05-21T08:43:18.000Z</time>
      </trkpt>
      <trkpt lat="45.27148" lon="4.81189">
        <ele>140.19999694824</ele>
        <time>2024-05-21T08:43:19.000Z</time>
      </trkpt>
      <trkpt lat="45.27142" lon="4.81188">
        <ele>139.80000305176</ele>
        <time>2024-05-21T08:43:20.000Z</time>
      </trkpt>
      <trkpt lat="45.27135" lon="4.81189">
        <ele>139.60000610352</ele>
        <time>2024-05-21T08:43:21.000Z</time>
      </trkpt>
      <trkpt lat="45.27129" lon="4.81189">
        <ele>139.39999389648</ele>
        <time>2024-05-21T08:43:22.000Z</time>
      </trkpt>
      <trkpt lat="45.27122" lon="4.81188">
        <ele>139.19999694824</ele>
        <time>2024-05-21T08:43:23.000Z</time>
      </trkpt>
      <trkpt lat="45.27115" lon="4.81189">
        <ele>139</ele>
        <time>2024-05-21T08:43:24.000Z</time>
      </trkpt>
      <trkpt lat="45.27109" lon="4.8119">
        <ele>138.60000610352</ele>
        <time>2024-05-21T08:43:25.000Z</time>
      </trkpt>
      <trkpt lat="45.27102" lon="4.81191">
        <ele>138.19999694824</ele>
        <time>2024-05-21T08:43:26.000Z</time>
      </trkpt>
      <trkpt lat="45.27096" lon="4.81192">
        <ele>137.80000305176</ele>
        <time>2024-05-21T08:43:27.000Z</time>
      </trkpt>
      <trkpt lat="45.27088" lon="4.81193">
        <ele>137.60000610352</ele>
        <time>2024-05-21T08:43:28.000Z</time>
      </trkpt>
      <trkpt lat="45.27081" lon="4.81194">
        <ele>137.19999694824</ele>
        <time>2024-05-21T08:43:29.000Z</time>
      </trkpt>
      <trkpt lat="45.27073" lon="4.81195">
        <ele>137</ele>
        <time>2024-05-21T08:43:30.000Z</time>
      </trkpt>
      <trkpt lat="45.27065" lon="4.81196">
        <ele>136.80000305176</ele>
        <time>2024-05-21T08:43:31.000Z</time>
      </trkpt>
      <trkpt lat="45.27058" lon="4.81197">
        <ele>136.60000610352</ele>
        <time>2024-05-21T08:43:32.000Z</time>
      </trkpt>
      <trkpt lat="45.27052" lon="4.81197">
        <ele>136.60000610352</ele>
        <time>2024-05-21T08:43:33.000Z</time>
      </trkpt>
      <trkpt lat="45.27043" lon="4.81198">
        <ele>136.39999389648</ele>
        <time>2024-05-21T08:43:34.000Z</time>
      </trkpt>
      <trkpt lat="45.27035" lon="4.81199">
        <ele>136.39999389648</ele>
        <time>2024-05-21T08:43:35.000Z</time>
      </trkpt>
      <trkpt lat="45.27028" lon="4.81198">
        <ele>136.19999694824</ele>
        <time>2024-05-21T08:43:36.000Z</time>
      </trkpt>
      <trkpt lat="45.27021" lon="4.81197">
        <ele>136.19999694824</ele>
        <time>2024-05-21T08:43:37.000Z</time>
      </trkpt>
      <trkpt lat="45.27014" lon="4.81196">
        <ele>136.19999694824</ele>
        <time>2024-05-21T08:43:38.000Z</time>
      </trkpt>
      <trkpt lat="45.27007" lon="4.81195">
        <ele>136.19999694824</ele>
        <time>2024-05-21T08:43:39.000Z</time>
      </trkpt>
      <trkpt lat="45.27" lon="4.81194">
        <ele>136.19999694824</ele>
        <time>2024-05-21T08:43:40.000Z</time>
      </trkpt>
      <trkpt lat="45.26993" lon="4.81193">
        <ele>136</ele>
        <time>2024-05-21T08:43:41.000Z</time>
      </trkpt>
      <trkpt lat="45.26986" lon="4.81192">
        <ele>136</ele>
        <time>2024-05-21T08:43:42.000Z</time>
      </trkpt>
      <trkpt lat="45.26979" lon="4.81192">
        <ele>136</ele>
        <time>2024-05-21T08:43:43.000Z</time>
      </trkpt>
      <trkpt lat="45.26972" lon="4.81193">
        <ele>136</ele>
        <time>2024-05-21T08:43:44.000Z</time>
      </trkpt>
      <trkpt lat="45.26965" lon="4.81195">
        <ele>136</ele>
        <time>2024-05-21T08:43:45.000Z</time>
      </trkpt>
      <trkpt lat="45.26959" lon="4.81196">
        <ele>136</ele>
        <time>2024-05-21T08:43:46.000Z</time>
      </trkpt>
      <trkpt lat="45.26952" lon="4.81196">
        <ele>136</ele>
        <time>2024-05-21T08:43:47.000Z</time>
      </trkpt>
      <trkpt lat="45.26947" lon="4.81195">
        <ele>135.80000305176</ele>
        <time>2024-05-21T08:43:48.000Z</time>
      </trkpt>
      <trkpt lat="45.26939" lon="4.81194">
        <ele>136</ele>
        <time>2024-05-21T08:43:49.000Z</time>
      </trkpt>
      <trkpt lat="45.26932" lon="4.81194">
        <ele>136</ele>
        <time>2024-05-21T08:43:50.000Z</time>
      </trkpt>
      <trkpt lat="45.26925" lon="4.81194">
        <ele>136</ele>
        <time>2024-05-21T08:43:51.000Z</time>
      </trkpt>
      <trkpt lat="45.26919" lon="4.81194">
        <ele>136</ele>
        <time>2024-05-21T08:43:52.000Z</time>
      </trkpt>
      <trkpt lat="45.26912" lon="4.81194">
        <ele>136</ele>
        <time>2024-05-21T08:43:53.000Z</time>
      </trkpt>
      <trkpt lat="45.26905" lon="4.81195">
        <ele>136.19999694824</ele>
        <time>2024-05-21T08:43:54.000Z</time>
      </trkpt>
      <trkpt lat="45.269" lon="4.81196">
        <ele>136.19999694824</ele>
        <time>2024-05-21T08:43:55.000Z</time>
      </trkpt>
      <trkpt lat="45.26892" lon="4.81196">
        <ele>136.19999694824</ele>
        <time>2024-05-21T08:43:56.000Z</time>
      </trkpt>
      <trkpt lat="45.26885" lon="4.81197">
        <ele>136.19999694824</ele>
        <time>2024-05-21T08:43:57.000Z</time>
      </trkpt>
      <trkpt lat="45.2688" lon="4.81198">
        <ele>136.19999694824</ele>
        <time>2024-05-21T08:43:58.000Z</time>
      </trkpt>
      <trkpt lat="45.26872" lon="4.81199">
        <ele>136</ele>
        <time>2024-05-21T08:43:59.000Z</time>
      </trkpt>
      <trkpt lat="45.26866" lon="4.812">
        <ele>136</ele>
        <time>2024-05-21T08:44:00.000Z</time>
      </trkpt>
      <trkpt lat="45.2686" lon="4.81201">
        <ele>136</ele>
        <time>2024-05-21T08:44:01.000Z</time>
      </trkpt>
      <trkpt lat="45.26854" lon="4.81202">
        <ele>135.80000305176</ele>
        <time>2024-05-21T08:44:02.000Z</time>
      </trkpt>
      <trkpt lat="45.26848" lon="4.81203">
        <ele>135.80000305176</ele>
        <time>2024-05-21T08:44:03.000Z</time>
      </trkpt>
      <trkpt lat="45.26841" lon="4.81204">
        <ele>135.80000305176</ele>
        <time>2024-05-21T08:44:04.000Z</time>
      </trkpt>
      <trkpt lat="45.26834" lon="4.81206">
        <ele>135.60000610352</ele>
        <time>2024-05-21T08:44:05.000Z</time>
      </trkpt>
      <trkpt lat="45.26828" lon="4.81208">
        <ele>135.60000610352</ele>
        <time>2024-05-21T08:44:06.000Z</time>
      </trkpt>
      <trkpt lat="45.26823" lon="4.81209">
        <ele>135.39999389648</ele>
        <time>2024-05-21T08:44:07.000Z</time>
      </trkpt>
      <trkpt lat="45.26815" lon="4.81211">
        <ele>135.39999389648</ele>
        <time>2024-05-21T08:44:08.000Z</time>
      </trkpt>
      <trkpt lat="45.26808" lon="4.81212">
        <ele>135.39999389648</ele>
        <time>2024-05-21T08:44:09.000Z</time>
      </trkpt>
      <trkpt lat="45.26802" lon="4.81213">
        <ele>135.39999389648</ele>
        <time>2024-05-21T08:44:10.000Z</time>
      </trkpt>
      <trkpt lat="45.26795" lon="4.81214">
        <ele>135.39999389648</ele>
        <time>2024-05-21T08:44:11.000Z</time>
      </trkpt>
      <trkpt lat="45.26789" lon="4.81215">
        <ele>135.39999389648</ele>
        <time>2024-05-21T08:44:12.000Z</time>
      </trkpt>
      <trkpt lat="45.26782" lon="4.81216">
        <ele>135.39999389648</ele>
        <time>2024-05-21T08:44:13.000Z</time>
      </trkpt>
      <trkpt lat="45.26775" lon="4.81218">
        <ele>135.39999389648</ele>
        <time>2024-05-21T08:44:14.000Z</time>
      </trkpt>
      <trkpt lat="45.26768" lon="4.81219">
        <ele>135.39999389648</ele>
        <time>2024-05-21T08:44:15.000Z</time>
      </trkpt>
      <trkpt lat="45.26762" lon="4.81221">
        <ele>135.19999694824</ele>
        <time>2024-05-21T08:44:16.000Z</time>
      </trkpt>
      <trkpt lat="45.26755" lon="4.81222">
        <ele>135.19999694824</ele>
        <time>2024-05-21T08:44:17.000Z</time>
      </trkpt>
      <trkpt lat="45.26749" lon="4.81223">
        <ele>135.19999694824</ele>
        <time>2024-05-21T08:44:18.000Z</time>
      </trkpt>
      <trkpt lat="45.26743" lon="4.81225">
        <ele>135.19999694824</ele>
        <time>2024-05-21T08:44:19.000Z</time>
      </trkpt>
      <trkpt lat="45.26736" lon="4.81227">
        <ele>135.39999389648</ele>
        <time>2024-05-21T08:44:20.000Z</time>
      </trkpt>
      <trkpt lat="45.2673" lon="4.81228">
        <ele>135.39999389648</ele>
        <time>2024-05-21T08:44:21.000Z</time>
      </trkpt>
      <trkpt lat="45.26724" lon="4.81231">
        <ele>135.39999389648</ele>
        <time>2024-05-21T08:44:22.000Z</time>
      </trkpt>
      <trkpt lat="45.26718" lon="4.81233">
        <ele>135.39999389648</ele>
        <time>2024-05-21T08:44:23.000Z</time>
      </trkpt>
      <trkpt lat="45.26712" lon="4.81237">
        <ele>135.39999389648</ele>
        <time>2024-05-21T08:44:24.000Z</time>
      </trkpt>
      <trkpt lat="45.26707" lon="4.81239">
        <ele>135.39999389648</ele>
        <time>2024-05-21T08:44:25.000Z</time>
      </trkpt>
      <trkpt lat="45.267" lon="4.81243">
        <ele>135.39999389648</ele>
        <time>2024-05-21T08:44:26.000Z</time>
      </trkpt>
      <trkpt lat="45.26694" lon="4.81245">
        <ele>135.39999389648</ele>
        <time>2024-05-21T08:44:27.000Z</time>
      </trkpt>
      <trkpt lat="45.26688" lon="4.81248">
        <ele>135.39999389648</ele>
        <time>2024-05-21T08:44:28.000Z</time>
      </trkpt>
      <trkpt lat="45.26682" lon="4.81251">
        <ele>135.39999389648</ele>
        <time>2024-05-21T08:44:29.000Z</time>
      </trkpt>
      <trkpt lat="45.26676" lon="4.81253">
        <ele>135.39999389648</ele>
        <time>2024-05-21T08:44:30.000Z</time>
      </trkpt>
      <trkpt lat="45.2667" lon="4.81256">
        <ele>135.39999389648</ele>
        <time>2024-05-21T08:44:31.000Z</time>
      </trkpt>
      <trkpt lat="45.26664" lon="4.8126">
        <ele>135.39999389648</ele>
        <time>2024-05-21T08:44:32.000Z</time>
      </trkpt>
      <trkpt lat="45.26659" lon="4.81264">
        <ele>135.19999694824</ele>
        <time>2024-05-21T08:44:33.000Z</time>
      </trkpt>
      <trkpt lat="45.26653" lon="4.81268">
        <ele>135</ele>
        <time>2024-05-21T08:44:34.000Z</time>
      </trkpt>
      <trkpt lat="45.26647" lon="4.81271">
        <ele>135</ele>
        <time>2024-05-21T08:44:35.000Z</time>
      </trkpt>
      <trkpt lat="45.26641" lon="4.81273">
        <ele>135</ele>
        <time>2024-05-21T08:44:36.000Z</time>
      </trkpt>
      <trkpt lat="45.26635" lon="4.81274">
        <ele>134.80000305176</ele>
        <time>2024-05-21T08:44:37.000Z</time>
      </trkpt>
      <trkpt lat="45.26628" lon="4.81274">
        <ele>134.60000610352</ele>
        <time>2024-05-21T08:44:38.000Z</time>
      </trkpt>
      <trkpt lat="45.26622" lon="4.81274">
        <ele>134.39999389648</ele>
        <time>2024-05-21T08:44:39.000Z</time>
      </trkpt>
      <trkpt lat="45.26615" lon="4.81274">
        <ele>134.39999389648</ele>
        <time>2024-05-21T08:44:40.000Z</time>
      </trkpt>
      <trkpt lat="45.2661" lon="4.81273">
        <ele>134.39999389648</ele>
        <time>2024-05-21T08:44:41.000Z</time>
      </trkpt>
      <trkpt lat="45.26604" lon="4.81271">
        <ele>134.39999389648</ele>
        <time>2024-05-21T08:44:42.000Z</time>
      </trkpt>
      <trkpt lat="45.26596" lon="4.81269">
        <ele>134.39999389648</ele>
        <time>2024-05-21T08:44:43.000Z</time>
      </trkpt>
      <trkpt lat="45.2659" lon="4.81267">
        <ele>134.60000610352</ele>
        <time>2024-05-21T08:44:44.000Z</time>
      </trkpt>
      <trkpt lat="45.26585" lon="4.81264">
        <ele>134.80000305176</ele>
        <time>2024-05-21T08:44:45.000Z</time>
      </trkpt>
      <trkpt lat="45.26579" lon="4.81261">
        <ele>135</ele>
        <time>2024-05-21T08:44:46.000Z</time>
      </trkpt>
      <trkpt lat="45.26574" lon="4.81258">
        <ele>135</ele>
        <time>2024-05-21T08:44:47.000Z</time>
      </trkpt>
      <trkpt lat="45.26569" lon="4.81254">
        <ele>135.19999694824</ele>
        <time>2024-05-21T08:44:48.000Z</time>
      </trkpt>
      <trkpt lat="45.26563" lon="4.81251">
        <ele>135.39999389648</ele>
        <time>2024-05-21T08:44:49.000Z</time>
      </trkpt>
      <trkpt lat="45.26558" lon="4.81247">
        <ele>135.60000610352</ele>
        <time>2024-05-21T08:44:50.000Z</time>
      </trkpt>
      <trkpt lat="45.26552" lon="4.81244">
        <ele>135.60000610352</ele>
        <time>2024-05-21T08:44:51.000Z</time>
      </trkpt>
      <trkpt lat="45.26546" lon="4.81242">
        <ele>135.60000610352</ele>
        <time>2024-05-21T08:44:52.000Z</time>
      </trkpt>
      <trkpt lat="45.2654" lon="4.8124">
        <ele>135.60000610352</ele>
        <time>2024-05-21T08:44:53.000Z</time>
      </trkpt>
      <trkpt lat="45.26533" lon="4.81238">
        <ele>135.19999694824</ele>
        <time>2024-05-21T08:44:54.000Z</time>
      </trkpt>
      <trkpt lat="45.26527" lon="4.81237">
        <ele>135</ele>
        <time>2024-05-21T08:44:55.000Z</time>
      </trkpt>
      <trkpt lat="45.2652" lon="4.81236">
        <ele>134.80000305176</ele>
        <time>2024-05-21T08:44:56.000Z</time>
      </trkpt>
      <trkpt lat="45.26514" lon="4.81234">
        <ele>134.80000305176</ele>
        <time>2024-05-21T08:44:57.000Z</time>
      </trkpt>
      <trkpt lat="45.26507" lon="4.81234">
        <ele>134.60000610352</ele>
        <time>2024-05-21T08:44:58.000Z</time>
      </trkpt>
      <trkpt lat="45.26501" lon="4.81233">
        <ele>134.60000610352</ele>
        <time>2024-05-21T08:44:59.000Z</time>
      </trkpt>
      <trkpt lat="45.26494" lon="4.81233">
        <ele>134.60000610352</ele>
        <time>2024-05-21T08:45:00.000Z</time>
      </trkpt>
      <trkpt lat="45.26488" lon="4.81232">
        <ele>134.60000610352</ele>
        <time>2024-05-21T08:45:01.000Z</time>
      </trkpt>
      <trkpt lat="45.26481" lon="4.81231">
        <ele>134.60000610352</ele>
        <time>2024-05-21T08:45:02.000Z</time>
      </trkpt>
      <trkpt lat="45.26474" lon="4.8123">
        <ele>134.60000610352</ele>
        <time>2024-05-21T08:45:03.000Z</time>
      </trkpt>
      <trkpt lat="45.26468" lon="4.8123">
        <ele>134.60000610352</ele>
        <time>2024-05-21T08:45:04.000Z</time>
      </trkpt>
      <trkpt lat="45.26462" lon="4.81229">
        <ele>134.60000610352</ele>
        <time>2024-05-21T08:45:05.000Z</time>
      </trkpt>
      <trkpt lat="45.26457" lon="4.81228">
        <ele>134.60000610352</ele>
        <time>2024-05-21T08:45:06.000Z</time>
      </trkpt>
      <trkpt lat="45.2645" lon="4.81227">
        <ele>134.60000610352</ele>
        <time>2024-05-21T08:45:07.000Z</time>
      </trkpt>
      <trkpt lat="45.26445" lon="4.81226">
        <ele>134.60000610352</ele>
        <time>2024-05-21T08:45:08.000Z</time>
      </trkpt>
      <trkpt lat="45.26436" lon="4.81225">
        <ele>134.60000610352</ele>
        <time>2024-05-21T08:45:09.000Z</time>
      </trkpt>
      <trkpt lat="45.26429" lon="4.81224">
        <ele>134.60000610352</ele>
        <time>2024-05-21T08:45:10.000Z</time>
      </trkpt>
      <trkpt lat="45.26423" lon="4.81224">
        <ele>134.60000610352</ele>
        <time>2024-05-21T08:45:11.000Z</time>
      </trkpt>
      <trkpt lat="45.26416" lon="4.81223">
        <ele>134.60000610352</ele>
        <time>2024-05-21T08:45:12.000Z</time>
      </trkpt>
      <trkpt lat="45.26409" lon="4.81223">
        <ele>134.60000610352</ele>
        <time>2024-05-21T08:45:13.000Z</time>
      </trkpt>
      <trkpt lat="45.26402" lon="4.81223">
        <ele>134.39999389648</ele>
        <time>2024-05-21T08:45:14.000Z</time>
      </trkpt>
      <trkpt lat="45.26396" lon="4.81224">
        <ele>134.39999389648</ele>
        <time>2024-05-21T08:45:15.000Z</time>
      </trkpt>
      <trkpt lat="45.26389" lon="4.81224">
        <ele>134.39999389648</ele>
        <time>2024-05-21T08:45:16.000Z</time>
      </trkpt>
      <trkpt lat="45.26382" lon="4.81224">
        <ele>134.39999389648</ele>
        <time>2024-05-21T08:45:17.000Z</time>
      </trkpt>
      <trkpt lat="45.26375" lon="4.81225">
        <ele>134.60000610352</ele>
        <time>2024-05-21T08:45:18.000Z</time>
      </trkpt>
      <trkpt lat="45.26369" lon="4.81226">
        <ele>134.60000610352</ele>
        <time>2024-05-21T08:45:19.000Z</time>
      </trkpt>
      <trkpt lat="45.26363" lon="4.81227">
        <ele>134.60000610352</ele>
        <time>2024-05-21T08:45:20.000Z</time>
      </trkpt>
      <trkpt lat="45.26356" lon="4.81227">
        <ele>134.60000610352</ele>
        <time>2024-05-21T08:45:21.000Z</time>
      </trkpt>
      <trkpt lat="45.26349" lon="4.81227">
        <ele>134.60000610352</ele>
        <time>2024-05-21T08:45:22.000Z</time>
      </trkpt>
      <trkpt lat="45.26343" lon="4.81228">
        <ele>134.60000610352</ele>
        <time>2024-05-21T08:45:23.000Z</time>
      </trkpt>
      <trkpt lat="45.26337" lon="4.81228">
        <ele>134.39999389648</ele>
        <time>2024-05-21T08:45:24.000Z</time>
      </trkpt>
      <trkpt lat="45.26329" lon="4.81228">
        <ele>134.39999389648</ele>
        <time>2024-05-21T08:45:25.000Z</time>
      </trkpt>
      <trkpt lat="45.26324" lon="4.81228">
        <ele>134.39999389648</ele>
        <time>2024-05-21T08:45:26.000Z</time>
      </trkpt>
      <trkpt lat="45.26317" lon="4.81228">
        <ele>134.19999694824</ele>
        <time>2024-05-21T08:45:27.000Z</time>
      </trkpt>
      <trkpt lat="45.26311" lon="4.81227">
        <ele>134.19999694824</ele>
        <time>2024-05-21T08:45:28.000Z</time>
      </trkpt>
      <trkpt lat="45.26305" lon="4.81225">
        <ele>134.19999694824</ele>
        <time>2024-05-21T08:45:29.000Z</time>
      </trkpt>
      <trkpt lat="45.26299" lon="4.81224">
        <ele>134.19999694824</ele>
        <time>2024-05-21T08:45:30.000Z</time>
      </trkpt>
      <trkpt lat="45.26291" lon="4.81222">
        <ele>134.19999694824</ele>
        <time>2024-05-21T08:45:31.000Z</time>
      </trkpt>
      <trkpt lat="45.26284" lon="4.81221">
        <ele>134.19999694824</ele>
        <time>2024-05-21T08:45:32.000Z</time>
      </trkpt>
      <trkpt lat="45.26277" lon="4.81219">
        <ele>134.19999694824</ele>
        <time>2024-05-21T08:45:33.000Z</time>
      </trkpt>
      <trkpt lat="45.2627" lon="4.81218">
        <ele>134.19999694824</ele>
        <time>2024-05-21T08:45:34.000Z</time>
      </trkpt>
      <trkpt lat="45.26266" lon="4.81216">
        <ele>134.19999694824</ele>
        <time>2024-05-21T08:45:35.000Z</time>
      </trkpt>
      <trkpt lat="45.26258" lon="4.81214">
        <ele>134.19999694824</ele>
        <time>2024-05-21T08:45:36.000Z</time>
      </trkpt>
      <trkpt lat="45.26252" lon="4.81212">
        <ele>134.19999694824</ele>
        <time>2024-05-21T08:45:37.000Z</time>
      </trkpt>
      <trkpt lat="45.26245" lon="4.81212">
        <ele>134.19999694824</ele>
        <time>2024-05-21T08:45:38.000Z</time>
      </trkpt>
      <trkpt lat="45.26238" lon="4.81212">
        <ele>134.19999694824</ele>
        <time>2024-05-21T08:45:39.000Z</time>
      </trkpt>
      <trkpt lat="45.26231" lon="4.81212">
        <ele>134.19999694824</ele>
        <time>2024-05-21T08:45:40.000Z</time>
      </trkpt>
      <trkpt lat="45.26225" lon="4.8121">
        <ele>134.19999694824</ele>
        <time>2024-05-21T08:45:41.000Z</time>
      </trkpt>
      <trkpt lat="45.26218" lon="4.81208">
        <ele>134.19999694824</ele>
        <time>2024-05-21T08:45:42.000Z</time>
      </trkpt>
      <trkpt lat="45.26212" lon="4.81205">
        <ele>134.19999694824</ele>
        <time>2024-05-21T08:45:43.000Z</time>
      </trkpt>
      <trkpt lat="45.26206" lon="4.81201">
        <ele>134.39999389648</ele>
        <time>2024-05-21T08:45:44.000Z</time>
      </trkpt>
      <trkpt lat="45.26201" lon="4.81199">
        <ele>134.39999389648</ele>
        <time>2024-05-21T08:45:45.000Z</time>
      </trkpt>
      <trkpt lat="45.26195" lon="4.81196">
        <ele>134.39999389648</ele>
        <time>2024-05-21T08:45:46.000Z</time>
      </trkpt>
      <trkpt lat="45.26188" lon="4.81194">
        <ele>134.39999389648</ele>
        <time>2024-05-21T08:45:47.000Z</time>
      </trkpt>
      <trkpt lat="45.26181" lon="4.81193">
        <ele>134.39999389648</ele>
        <time>2024-05-21T08:45:48.000Z</time>
      </trkpt>
      <trkpt lat="45.26175" lon="4.81192">
        <ele>134.39999389648</ele>
        <time>2024-05-21T08:45:49.000Z</time>
      </trkpt>
      <trkpt lat="45.26168" lon="4.81191">
        <ele>134.39999389648</ele>
        <time>2024-05-21T08:45:50.000Z</time>
      </trkpt>
      <trkpt lat="45.26161" lon="4.81189">
        <ele>134.19999694824</ele>
        <time>2024-05-21T08:45:51.000Z</time>
      </trkpt>
      <trkpt lat="45.26155" lon="4.81188">
        <ele>134.19999694824</ele>
        <time>2024-05-21T08:45:52.000Z</time>
      </trkpt>
      <trkpt lat="45.26149" lon="4.81186">
        <ele>134.19999694824</ele>
        <time>2024-05-21T08:45:53.000Z</time>
      </trkpt>
      <trkpt lat="45.26142" lon="4.81184">
        <ele>134.19999694824</ele>
        <time>2024-05-21T08:45:54.000Z</time>
      </trkpt>
      <trkpt lat="45.26136" lon="4.81181">
        <ele>134.19999694824</ele>
        <time>2024-05-21T08:45:55.000Z</time>
      </trkpt>
      <trkpt lat="45.2613" lon="4.81179">
        <ele>134.19999694824</ele>
        <time>2024-05-21T08:45:56.000Z</time>
      </trkpt>
      <trkpt lat="45.26124" lon="4.81176">
        <ele>134.19999694824</ele>
        <time>2024-05-21T08:45:57.000Z</time>
      </trkpt>
      <trkpt lat="45.26117" lon="4.81175">
        <ele>134</ele>
        <time>2024-05-21T08:45:58.000Z</time>
      </trkpt>
      <trkpt lat="45.26111" lon="4.81173">
        <ele>134</ele>
        <time>2024-05-21T08:45:59.000Z</time>
      </trkpt>
      <trkpt lat="45.26105" lon="4.81172">
        <ele>134</ele>
        <time>2024-05-21T08:46:00.000Z</time>
      </trkpt>
      <trkpt lat="45.26098" lon="4.8117">
        <ele>134</ele>
        <time>2024-05-21T08:46:01.000Z</time>
      </trkpt>
      <trkpt lat="45.26092" lon="4.81168">
        <ele>134</ele>
        <time>2024-05-21T08:46:02.000Z</time>
      </trkpt>
      <trkpt lat="45.26085" lon="4.81167">
        <ele>134</ele>
        <time>2024-05-21T08:46:03.000Z</time>
      </trkpt>
      <trkpt lat="45.2608" lon="4.81167">
        <ele>134</ele>
        <time>2024-05-21T08:46:04.000Z</time>
      </trkpt>
      <trkpt lat="45.26072" lon="4.81165">
        <ele>134</ele>
        <time>2024-05-21T08:46:05.000Z</time>
      </trkpt>
      <trkpt lat="45.26067" lon="4.81163">
        <ele>134</ele>
        <time>2024-05-21T08:46:06.000Z</time>
      </trkpt>
      <trkpt lat="45.2606" lon="4.81161">
        <ele>134</ele>
        <time>2024-05-21T08:46:07.000Z</time>
      </trkpt>
      <trkpt lat="45.26054" lon="4.81159">
        <ele>134</ele>
        <time>2024-05-21T08:46:08.000Z</time>
      </trkpt>
      <trkpt lat="45.26048" lon="4.81157">
        <ele>134</ele>
        <time>2024-05-21T08:46:09.000Z</time>
      </trkpt>
      <trkpt lat="45.26042" lon="4.81155">
        <ele>134</ele>
        <time>2024-05-21T08:46:10.000Z</time>
      </trkpt>
      <trkpt lat="45.26036" lon="4.81152">
        <ele>134</ele>
        <time>2024-05-21T08:46:11.000Z</time>
      </trkpt>
      <trkpt lat="45.2603" lon="4.8115">
        <ele>134.19999694824</ele>
        <time>2024-05-21T08:46:12.000Z</time>
      </trkpt>
      <trkpt lat="45.26025" lon="4.81147">
        <ele>134.19999694824</ele>
        <time>2024-05-21T08:46:13.000Z</time>
      </trkpt>
      <trkpt lat="45.26021" lon="4.81144">
        <ele>134.39999389648</ele>
        <time>2024-05-21T08:46:14.000Z</time>
      </trkpt>
      <trkpt lat="45.26014" lon="4.8114">
        <ele>134.60000610352</ele>
        <time>2024-05-21T08:46:15.000Z</time>
      </trkpt>
      <trkpt lat="45.26009" lon="4.81137">
        <ele>134.80000305176</ele>
        <time>2024-05-21T08:46:16.000Z</time>
      </trkpt>
      <trkpt lat="45.26004" lon="4.81135">
        <ele>134.80000305176</ele>
        <time>2024-05-21T08:46:17.000Z</time>
      </trkpt>
      <trkpt lat="45.25998" lon="4.81131">
        <ele>134.80000305176</ele>
        <time>2024-05-21T08:46:18.000Z</time>
      </trkpt>
      <trkpt lat="45.25992" lon="4.81128">
        <ele>134.80000305176</ele>
        <time>2024-05-21T08:46:19.000Z</time>
      </trkpt>
      <trkpt lat="45.25987" lon="4.81125">
        <ele>134.80000305176</ele>
        <time>2024-05-21T08:46:20.000Z</time>
      </trkpt>
      <trkpt lat="45.25981" lon="4.81122">
        <ele>134.80000305176</ele>
        <time>2024-05-21T08:46:21.000Z</time>
      </trkpt>
      <trkpt lat="45.25975" lon="4.81118">
        <ele>134.80000305176</ele>
        <time>2024-05-21T08:46:22.000Z</time>
      </trkpt>
      <trkpt lat="45.25969" lon="4.81115">
        <ele>134.80000305176</ele>
        <time>2024-05-21T08:46:23.000Z</time>
      </trkpt>
      <trkpt lat="45.25962" lon="4.81111">
        <ele>134.80000305176</ele>
        <time>2024-05-21T08:46:24.000Z</time>
      </trkpt>
      <trkpt lat="45.25955" lon="4.81108">
        <ele>134.80000305176</ele>
        <time>2024-05-21T08:46:25.000Z</time>
      </trkpt>
      <trkpt lat="45.25951" lon="4.81106">
        <ele>134.80000305176</ele>
        <time>2024-05-21T08:46:26.000Z</time>
      </trkpt>
      <trkpt lat="45.25944" lon="4.81103">
        <ele>134.80000305176</ele>
        <time>2024-05-21T08:46:27.000Z</time>
      </trkpt>
      <trkpt lat="45.25939" lon="4.811">
        <ele>134.80000305176</ele>
        <time>2024-05-21T08:46:28.000Z</time>
      </trkpt>
      <trkpt lat="45.25934" lon="4.81099">
        <ele>134.80000305176</ele>
        <time>2024-05-21T08:46:29.000Z</time>
      </trkpt>
      <trkpt lat="45.25928" lon="4.81096">
        <ele>134.80000305176</ele>
        <time>2024-05-21T08:46:30.000Z</time>
      </trkpt>
      <trkpt lat="45.25922" lon="4.81093">
        <ele>134.80000305176</ele>
        <time>2024-05-21T08:46:31.000Z</time>
      </trkpt>
      <trkpt lat="45.25917" lon="4.8109">
        <ele>135</ele>
        <time>2024-05-21T08:46:32.000Z</time>
      </trkpt>
      <trkpt lat="45.2591" lon="4.81087">
        <ele>135</ele>
        <time>2024-05-21T08:46:33.000Z</time>
      </trkpt>
      <trkpt lat="45.25905" lon="4.81085">
        <ele>135</ele>
        <time>2024-05-21T08:46:34.000Z</time>
      </trkpt>
      <trkpt lat="45.25899" lon="4.81082">
        <ele>135</ele>
        <time>2024-05-21T08:46:35.000Z</time>
      </trkpt>
      <trkpt lat="45.25893" lon="4.81079">
        <ele>135</ele>
        <time>2024-05-21T08:46:36.000Z</time>
      </trkpt>
      <trkpt lat="45.25887" lon="4.81076">
        <ele>135</ele>
        <time>2024-05-21T08:46:37.000Z</time>
      </trkpt>
      <trkpt lat="45.25881" lon="4.81074">
        <ele>135</ele>
        <time>2024-05-21T08:46:38.000Z</time>
      </trkpt>
      <trkpt lat="45.25875" lon="4.81073">
        <ele>135</ele>
        <time>2024-05-21T08:46:39.000Z</time>
      </trkpt>
      <trkpt lat="45.25868" lon="4.81072">
        <ele>134.80000305176</ele>
        <time>2024-05-21T08:46:40.000Z</time>
      </trkpt>
      <trkpt lat="45.25862" lon="4.81071">
        <ele>134.80000305176</ele>
        <time>2024-05-21T08:46:41.000Z</time>
      </trkpt>
      <trkpt lat="45.25856" lon="4.8107">
        <ele>134.60000610352</ele>
        <time>2024-05-21T08:46:42.000Z</time>
      </trkpt>
      <trkpt lat="45.25849" lon="4.81068">
        <ele>134.39999389648</ele>
        <time>2024-05-21T08:46:43.000Z</time>
      </trkpt>
      <trkpt lat="45.25843" lon="4.81066">
        <ele>134.19999694824</ele>
        <time>2024-05-21T08:46:44.000Z</time>
      </trkpt>
      <trkpt lat="45.25837" lon="4.81063">
        <ele>134.19999694824</ele>
        <time>2024-05-21T08:46:45.000Z</time>
      </trkpt>
      <trkpt lat="45.25831" lon="4.8106">
        <ele>134.19999694824</ele>
        <time>2024-05-21T08:46:46.000Z</time>
      </trkpt>
      <trkpt lat="45.25825" lon="4.81055">
        <ele>134.19999694824</ele>
        <time>2024-05-21T08:46:47.000Z</time>
      </trkpt>
      <trkpt lat="45.25818" lon="4.81051">
        <ele>134.19999694824</ele>
        <time>2024-05-21T08:46:48.000Z</time>
      </trkpt>
      <trkpt lat="45.25812" lon="4.81047">
        <ele>134.19999694824</ele>
        <time>2024-05-21T08:46:49.000Z</time>
      </trkpt>
      <trkpt lat="45.25807" lon="4.81044">
        <ele>134.19999694824</ele>
        <time>2024-05-21T08:46:50.000Z</time>
      </trkpt>
      <trkpt lat="45.258" lon="4.81041">
        <ele>134.39999389648</ele>
        <time>2024-05-21T08:46:51.000Z</time>
      </trkpt>
      <trkpt lat="45.25794" lon="4.81039">
        <ele>134.39999389648</ele>
        <time>2024-05-21T08:46:52.000Z</time>
      </trkpt>
      <trkpt lat="45.25788" lon="4.81038">
        <ele>134.39999389648</ele>
        <time>2024-05-21T08:46:53.000Z</time>
      </trkpt>
      <trkpt lat="45.25781" lon="4.81036">
        <ele>134.39999389648</ele>
        <time>2024-05-21T08:46:54.000Z</time>
      </trkpt>
      <trkpt lat="45.25774" lon="4.81034">
        <ele>134.39999389648</ele>
        <time>2024-05-21T08:46:55.000Z</time>
      </trkpt>
      <trkpt lat="45.25767" lon="4.81032">
        <ele>134.39999389648</ele>
        <time>2024-05-21T08:46:56.000Z</time>
      </trkpt>
      <trkpt lat="45.25761" lon="4.81029">
        <ele>134.39999389648</ele>
        <time>2024-05-21T08:46:57.000Z</time>
      </trkpt>
      <trkpt lat="45.25754" lon="4.81027">
        <ele>134.39999389648</ele>
        <time>2024-05-21T08:46:58.000Z</time>
      </trkpt>
      <trkpt lat="45.25749" lon="4.81023">
        <ele>134.19999694824</ele>
        <time>2024-05-21T08:46:59.000Z</time>
      </trkpt>
      <trkpt lat="45.25742" lon="4.81018">
        <ele>134.19999694824</ele>
        <time>2024-05-21T08:47:00.000Z</time>
      </trkpt>
      <trkpt lat="45.25738" lon="4.81014">
        <ele>134.19999694824</ele>
        <time>2024-05-21T08:47:01.000Z</time>
      </trkpt>
      <trkpt lat="45.2573" lon="4.81009">
        <ele>134</ele>
        <time>2024-05-21T08:47:02.000Z</time>
      </trkpt>
      <trkpt lat="45.25724" lon="4.81005">
        <ele>134</ele>
        <time>2024-05-21T08:47:03.000Z</time>
      </trkpt>
      <trkpt lat="45.25719" lon="4.81001">
        <ele>134</ele>
        <time>2024-05-21T08:47:04.000Z</time>
      </trkpt>
      <trkpt lat="45.25713" lon="4.80997">
        <ele>134</ele>
        <time>2024-05-21T08:47:05.000Z</time>
      </trkpt>
      <trkpt lat="45.25707" lon="4.80994">
        <ele>134</ele>
        <time>2024-05-21T08:47:06.000Z</time>
      </trkpt>
      <trkpt lat="45.25702" lon="4.80991">
        <ele>134</ele>
        <time>2024-05-21T08:47:07.000Z</time>
      </trkpt>
      <trkpt lat="45.25697" lon="4.80989">
        <ele>134.19999694824</ele>
        <time>2024-05-21T08:47:08.000Z</time>
      </trkpt>
      <trkpt lat="45.2569" lon="4.80985">
        <ele>134.19999694824</ele>
        <time>2024-05-21T08:47:09.000Z</time>
      </trkpt>
      <trkpt lat="45.25685" lon="4.80982">
        <ele>134.19999694824</ele>
        <time>2024-05-21T08:47:10.000Z</time>
      </trkpt>
      <trkpt lat="45.25681" lon="4.80979">
        <ele>134.19999694824</ele>
        <time>2024-05-21T08:47:11.000Z</time>
      </trkpt>
      <trkpt lat="45.25674" lon="4.80976">
        <ele>134.19999694824</ele>
        <time>2024-05-21T08:47:12.000Z</time>
      </trkpt>
      <trkpt lat="45.25668" lon="4.80973">
        <ele>134.19999694824</ele>
        <time>2024-05-21T08:47:13.000Z</time>
      </trkpt>
      <trkpt lat="45.25662" lon="4.8097">
        <ele>134.19999694824</ele>
        <time>2024-05-21T08:47:14.000Z</time>
      </trkpt>
      <trkpt lat="45.25656" lon="4.80968">
        <ele>134.19999694824</ele>
        <time>2024-05-21T08:47:15.000Z</time>
      </trkpt>
      <trkpt lat="45.2565" lon="4.80966">
        <ele>134.19999694824</ele>
        <time>2024-05-21T08:47:16.000Z</time>
      </trkpt>
      <trkpt lat="45.25644" lon="4.80964">
        <ele>134.19999694824</ele>
        <time>2024-05-21T08:47:17.000Z</time>
      </trkpt>
      <trkpt lat="45.25637" lon="4.80962">
        <ele>134.19999694824</ele>
        <time>2024-05-21T08:47:18.000Z</time>
      </trkpt>
      <trkpt lat="45.25631" lon="4.8096">
        <ele>134.19999694824</ele>
        <time>2024-05-21T08:47:19.000Z</time>
      </trkpt>
      <trkpt lat="45.25625" lon="4.80958">
        <ele>134</ele>
        <time>2024-05-21T08:47:20.000Z</time>
      </trkpt>
      <trkpt lat="45.25619" lon="4.80956">
        <ele>134</ele>
        <time>2024-05-21T08:47:21.000Z</time>
      </trkpt>
      <trkpt lat="45.25613" lon="4.80954">
        <ele>134</ele>
        <time>2024-05-21T08:47:22.000Z</time>
      </trkpt>
      <trkpt lat="45.25607" lon="4.80952">
        <ele>134</ele>
        <time>2024-05-21T08:47:23.000Z</time>
      </trkpt>
      <trkpt lat="45.25601" lon="4.80949">
        <ele>134</ele>
        <time>2024-05-21T08:47:24.000Z</time>
      </trkpt>
      <trkpt lat="45.25596" lon="4.80948">
        <ele>134</ele>
        <time>2024-05-21T08:47:25.000Z</time>
      </trkpt>
      <trkpt lat="45.25588" lon="4.80946">
        <ele>134</ele>
        <time>2024-05-21T08:47:26.000Z</time>
      </trkpt>
      <trkpt lat="45.25582" lon="4.80943">
        <ele>134</ele>
        <time>2024-05-21T08:47:27.000Z</time>
      </trkpt>
      <trkpt lat="45.25576" lon="4.80941">
        <ele>134</ele>
        <time>2024-05-21T08:47:28.000Z</time>
      </trkpt>
      <trkpt lat="45.2557" lon="4.80938">
        <ele>134.19999694824</ele>
        <time>2024-05-21T08:47:29.000Z</time>
      </trkpt>
      <trkpt lat="45.25564" lon="4.80937">
        <ele>134.19999694824</ele>
        <time>2024-05-21T08:47:30.000Z</time>
      </trkpt>
      <trkpt lat="45.25558" lon="4.80935">
        <ele>134.19999694824</ele>
        <time>2024-05-21T08:47:31.000Z</time>
      </trkpt>
      <trkpt lat="45.25553" lon="4.80934">
        <ele>134.39999389648</ele>
        <time>2024-05-21T08:47:32.000Z</time>
      </trkpt>
      <trkpt lat="45.25548" lon="4.80932">
        <ele>134.39999389648</ele>
        <time>2024-05-21T08:47:33.000Z</time>
      </trkpt>
      <trkpt lat="45.25541" lon="4.8093">
        <ele>134.39999389648</ele>
        <time>2024-05-21T08:47:34.000Z</time>
      </trkpt>
      <trkpt lat="45.25535" lon="4.80927">
        <ele>134.39999389648</ele>
        <time>2024-05-21T08:47:35.000Z</time>
      </trkpt>
      <trkpt lat="45.2553" lon="4.80925">
        <ele>134.60000610352</ele>
        <time>2024-05-21T08:47:36.000Z</time>
      </trkpt>
      <trkpt lat="45.25524" lon="4.80922">
        <ele>134.80000305176</ele>
        <time>2024-05-21T08:47:37.000Z</time>
      </trkpt>
      <trkpt lat="45.25518" lon="4.80919">
        <ele>134.80000305176</ele>
        <time>2024-05-21T08:47:38.000Z</time>
      </trkpt>
      <trkpt lat="45.25512" lon="4.80916">
        <ele>134.80000305176</ele>
        <time>2024-05-21T08:47:39.000Z</time>
      </trkpt>
      <trkpt lat="45.25508" lon="4.80914">
        <ele>134.80000305176</ele>
        <time>2024-05-21T08:47:40.000Z</time>
      </trkpt>
      <trkpt lat="45.25503" lon="4.80912">
        <ele>134.80000305176</ele>
        <time>2024-05-21T08:47:41.000Z</time>
      </trkpt>
      <trkpt lat="45.25496" lon="4.8091">
        <ele>134.80000305176</ele>
        <time>2024-05-21T08:47:42.000Z</time>
      </trkpt>
      <trkpt lat="45.25491" lon="4.8091">
        <ele>134.80000305176</ele>
        <time>2024-05-21T08:47:43.000Z</time>
      </trkpt>
      <trkpt lat="45.25486" lon="4.80909">
        <ele>134.80000305176</ele>
        <time>2024-05-21T08:47:44.000Z</time>
      </trkpt>
      <trkpt lat="45.2548" lon="4.80909">
        <ele>135</ele>
        <time>2024-05-21T08:47:45.000Z</time>
      </trkpt>
      <trkpt lat="45.25474" lon="4.80908">
        <ele>135</ele>
        <time>2024-05-21T08:47:46.000Z</time>
      </trkpt>
      <trkpt lat="45.25468" lon="4.80907">
        <ele>135</ele>
        <time>2024-05-21T08:47:47.000Z</time>
      </trkpt>
      <trkpt lat="45.25463" lon="4.80906">
        <ele>135</ele>
        <time>2024-05-21T08:47:48.000Z</time>
      </trkpt>
      <trkpt lat="45.25457" lon="4.80905">
        <ele>134.80000305176</ele>
        <time>2024-05-21T08:47:49.000Z</time>
      </trkpt>
      <trkpt lat="45.2545" lon="4.80904">
        <ele>134.80000305176</ele>
        <time>2024-05-21T08:47:50.000Z</time>
      </trkpt>
      <trkpt lat="45.25444" lon="4.80903">
        <ele>134.80000305176</ele>
        <time>2024-05-21T08:47:51.000Z</time>
      </trkpt>
      <trkpt lat="45.25439" lon="4.80903">
        <ele>134.80000305176</ele>
        <time>2024-05-21T08:47:52.000Z</time>
      </trkpt>
      <trkpt lat="45.25432" lon="4.80903">
        <ele>134.80000305176</ele>
        <time>2024-05-21T08:47:53.000Z</time>
      </trkpt>
      <trkpt lat="45.25428" lon="4.80903">
        <ele>135</ele>
        <time>2024-05-21T08:47:54.000Z</time>
      </trkpt>
      <trkpt lat="45.25421" lon="4.80902">
        <ele>135</ele>
        <time>2024-05-21T08:47:55.000Z</time>
      </trkpt>
      <trkpt lat="45.25413" lon="4.809">
        <ele>135</ele>
        <time>2024-05-21T08:47:56.000Z</time>
      </trkpt>
      <trkpt lat="45.25407" lon="4.80898">
        <ele>135</ele>
        <time>2024-05-21T08:47:57.000Z</time>
      </trkpt>
      <trkpt lat="45.254" lon="4.80895">
        <ele>134.60000610352</ele>
        <time>2024-05-21T08:47:58.000Z</time>
      </trkpt>
      <trkpt lat="45.25391" lon="4.80892">
        <ele>133.80000305176</ele>
        <time>2024-05-21T08:47:59.000Z</time>
      </trkpt>
      <trkpt lat="45.25385" lon="4.80892">
        <ele>133.60000610352</ele>
        <time>2024-05-21T08:48:00.000Z</time>
      </trkpt>
      <trkpt lat="45.25378" lon="4.80892">
        <ele>133.39999389648</ele>
        <time>2024-05-21T08:48:01.000Z</time>
      </trkpt>
      <trkpt lat="45.25371" lon="4.80896">
        <ele>133.39999389648</ele>
        <time>2024-05-21T08:48:02.000Z</time>
      </trkpt>
      <trkpt lat="45.25366" lon="4.80901">
        <ele>133.39999389648</ele>
        <time>2024-05-21T08:48:03.000Z</time>
      </trkpt>
      <trkpt lat="45.25362" lon="4.80907">
        <ele>133.39999389648</ele>
        <time>2024-05-21T08:48:04.000Z</time>
      </trkpt>
      <trkpt lat="45.25359" lon="4.80915">
        <ele>133.39999389648</ele>
        <time>2024-05-21T08:48:05.000Z</time>
      </trkpt>
      <trkpt lat="45.25355" lon="4.80922">
        <ele>133.39999389648</ele>
        <time>2024-05-21T08:48:06.000Z</time>
      </trkpt>
      <trkpt lat="45.25351" lon="4.80928">
        <ele>133</ele>
        <time>2024-05-21T08:48:07.000Z</time>
      </trkpt>
      <trkpt lat="45.25346" lon="4.80934">
        <ele>133</ele>
        <time>2024-05-21T08:48:08.000Z</time>
      </trkpt>
      <trkpt lat="45.25341" lon="4.80938">
        <ele>133</ele>
        <time>2024-05-21T08:48:09.000Z</time>
      </trkpt>
      <trkpt lat="45.25336" lon="4.80942">
        <ele>133</ele>
        <time>2024-05-21T08:48:10.000Z</time>
      </trkpt>
      <trkpt lat="45.2533" lon="4.80946">
        <ele>133</ele>
        <time>2024-05-21T08:48:11.000Z</time>
      </trkpt>
      <trkpt lat="45.25325" lon="4.80949">
        <ele>133</ele>
        <time>2024-05-21T08:48:12.000Z</time>
      </trkpt>
      <trkpt lat="45.25319" lon="4.80952">
        <ele>133.19999694824</ele>
        <time>2024-05-21T08:48:13.000Z</time>
      </trkpt>
      <trkpt lat="45.25313" lon="4.80954">
        <ele>133.19999694824</ele>
        <time>2024-05-21T08:48:14.000Z</time>
      </trkpt>
      <trkpt lat="45.25307" lon="4.80955">
        <ele>133.39999389648</ele>
        <time>2024-05-21T08:48:15.000Z</time>
      </trkpt>
      <trkpt lat="45.25303" lon="4.80957">
        <ele>133.80000305176</ele>
        <time>2024-05-21T08:48:16.000Z</time>
      </trkpt>
      <trkpt lat="45.25296" lon="4.80959">
        <ele>134</ele>
        <time>2024-05-21T08:48:17.000Z</time>
      </trkpt>
      <trkpt lat="45.25292" lon="4.8096">
        <ele>134</ele>
        <time>2024-05-21T08:48:18.000Z</time>
      </trkpt>
      <trkpt lat="45.25287" lon="4.80961">
        <ele>134.19999694824</ele>
        <time>2024-05-21T08:48:19.000Z</time>
      </trkpt>
      <trkpt lat="45.25282" lon="4.80962">
        <ele>134.19999694824</ele>
        <time>2024-05-21T08:48:20.000Z</time>
      </trkpt>
      <trkpt lat="45.25278" lon="4.80963">
        <ele>134.39999389648</ele>
        <time>2024-05-21T08:48:21.000Z</time>
      </trkpt>
      <trkpt lat="45.25275" lon="4.80963">
        <ele>134.60000610352</ele>
        <time>2024-05-21T08:48:22.000Z</time>
      </trkpt>
      <trkpt lat="45.25271" lon="4.80964">
        <ele>135</ele>
        <time>2024-05-21T08:48:23.000Z</time>
      </trkpt>
      <trkpt lat="45.25267" lon="4.80964">
        <ele>135.39999389648</ele>
        <time>2024-05-21T08:48:24.000Z</time>
      </trkpt>
      <trkpt lat="45.25263" lon="4.80965">
        <ele>136</ele>
        <time>2024-05-21T08:48:25.000Z</time>
      </trkpt>
      <trkpt lat="45.25259" lon="4.80966">
        <ele>136.39999389648</ele>
        <time>2024-05-21T08:48:26.000Z</time>
      </trkpt>
      <trkpt lat="45.25256" lon="4.80966">
        <ele>136.80000305176</ele>
        <time>2024-05-21T08:48:27.000Z</time>
      </trkpt>
      <trkpt lat="45.25253" lon="4.80966">
        <ele>137.19999694824</ele>
        <time>2024-05-21T08:48:28.000Z</time>
      </trkpt>
      <trkpt lat="45.25249" lon="4.80966">
        <ele>137.60000610352</ele>
        <time>2024-05-21T08:48:29.000Z</time>
      </trkpt>
      <trkpt lat="45.25245" lon="4.80966">
        <ele>137.80000305176</ele>
        <time>2024-05-21T08:48:30.000Z</time>
      </trkpt>
      <trkpt lat="45.25241" lon="4.80966">
        <ele>138</ele>
        <time>2024-05-21T08:48:31.000Z</time>
      </trkpt>
      <trkpt lat="45.25238" lon="4.80966">
        <ele>138.19999694824</ele>
        <time>2024-05-21T08:48:32.000Z</time>
      </trkpt>
      <trkpt lat="45.25234" lon="4.80966">
        <ele>138.19999694824</ele>
        <time>2024-05-21T08:48:33.000Z</time>
      </trkpt>
      <trkpt lat="45.25232" lon="4.80965">
        <ele>138.19999694824</ele>
        <time>2024-05-21T08:48:34.000Z</time>
      </trkpt>
      <trkpt lat="45.25228" lon="4.80965">
        <ele>138.39999389648</ele>
        <time>2024-05-21T08:48:35.000Z</time>
      </trkpt>
      <trkpt lat="45.25225" lon="4.80966">
        <ele>138.39999389648</ele>
        <time>2024-05-21T08:48:36.000Z</time>
      </trkpt>
      <trkpt lat="45.25222" lon="4.80967">
        <ele>138.60000610352</ele>
        <time>2024-05-21T08:48:37.000Z</time>
      </trkpt>
      <trkpt lat="45.25219" lon="4.8097">
        <ele>138.80000305176</ele>
        <time>2024-05-21T08:48:38.000Z</time>
      </trkpt>
      <trkpt lat="45.25216" lon="4.80973">
        <ele>138.80000305176</ele>
        <time>2024-05-21T08:48:39.000Z</time>
      </trkpt>
      <trkpt lat="45.25214" lon="4.80977">
        <ele>139</ele>
        <time>2024-05-21T08:48:40.000Z</time>
      </trkpt>
      <trkpt lat="45.25213" lon="4.80983">
        <ele>139</ele>
        <time>2024-05-21T08:48:41.000Z</time>
      </trkpt>
      <trkpt lat="45.25212" lon="4.8099">
        <ele>139</ele>
        <time>2024-05-21T08:48:42.000Z</time>
      </trkpt>
      <trkpt lat="45.25212" lon="4.80996">
        <ele>139</ele>
        <time>2024-05-21T08:48:43.000Z</time>
      </trkpt>
      <trkpt lat="45.25213" lon="4.81002">
        <ele>138.80000305176</ele>
        <time>2024-05-21T08:48:44.000Z</time>
      </trkpt>
      <trkpt lat="45.25213" lon="4.81008">
        <ele>138.80000305176</ele>
        <time>2024-05-21T08:48:45.000Z</time>
      </trkpt>
      <trkpt lat="45.25213" lon="4.81013">
        <ele>138.80000305176</ele>
        <time>2024-05-21T08:48:46.000Z</time>
      </trkpt>
      <trkpt lat="45.25213" lon="4.81021">
        <ele>138.80000305176</ele>
        <time>2024-05-21T08:48:47.000Z</time>
      </trkpt>
      <trkpt lat="45.25212" lon="4.81028">
        <ele>138.80000305176</ele>
        <time>2024-05-21T08:48:48.000Z</time>
      </trkpt>
      <trkpt lat="45.25212" lon="4.81033">
        <ele>139</ele>
        <time>2024-05-21T08:48:49.000Z</time>
      </trkpt>
      <trkpt lat="45.25211" lon="4.81041">
        <ele>139.19999694824</ele>
        <time>2024-05-21T08:48:50.000Z</time>
      </trkpt>
      <trkpt lat="45.2521" lon="4.81047">
        <ele>139.19999694824</ele>
        <time>2024-05-21T08:48:51.000Z</time>
      </trkpt>
      <trkpt lat="45.25207" lon="4.81053">
        <ele>139.19999694824</ele>
        <time>2024-05-21T08:48:52.000Z</time>
      </trkpt>
      <trkpt lat="45.25204" lon="4.81058">
        <ele>139.19999694824</ele>
        <time>2024-05-21T08:48:53.000Z</time>
      </trkpt>
      <trkpt lat="45.252" lon="4.81062">
        <ele>139.19999694824</ele>
        <time>2024-05-21T08:48:54.000Z</time>
      </trkpt>
      <trkpt lat="45.25197" lon="4.81066">
        <ele>139.19999694824</ele>
        <time>2024-05-21T08:48:55.000Z</time>
      </trkpt>
      <trkpt lat="45.25193" lon="4.81069">
        <ele>139.19999694824</ele>
        <time>2024-05-21T08:48:56.000Z</time>
      </trkpt>
      <trkpt lat="45.25189" lon="4.81072">
        <ele>139.19999694824</ele>
        <time>2024-05-21T08:48:57.000Z</time>
      </trkpt>
      <trkpt lat="45.25187" lon="4.81074">
        <ele>139.39999389648</ele>
        <time>2024-05-21T08:48:58.000Z</time>
      </trkpt>
      <trkpt lat="45.25183" lon="4.81077">
        <ele>139.39999389648</ele>
        <time>2024-05-21T08:48:59.000Z</time>
      </trkpt>
      <trkpt lat="45.2518" lon="4.81079">
        <ele>139.60000610352</ele>
        <time>2024-05-21T08:49:00.000Z</time>
      </trkpt>
      <trkpt lat="45.25176" lon="4.81082">
        <ele>139.80000305176</ele>
        <time>2024-05-21T08:49:01.000Z</time>
      </trkpt>
      <trkpt lat="45.25172" lon="4.81085">
        <ele>140</ele>
        <time>2024-05-21T08:49:02.000Z</time>
      </trkpt>
      <trkpt lat="45.25168" lon="4.8109">
        <ele>140</ele>
        <time>2024-05-21T08:49:03.000Z</time>
      </trkpt>
      <trkpt lat="45.25165" lon="4.81093">
        <ele>140</ele>
        <time>2024-05-21T08:49:04.000Z</time>
      </trkpt>
      <trkpt lat="45.25161" lon="4.81098">
        <ele>140</ele>
        <time>2024-05-21T08:49:05.000Z</time>
      </trkpt>
      <trkpt lat="45.25157" lon="4.81101">
        <ele>140</ele>
        <time>2024-05-21T08:49:06.000Z</time>
      </trkpt>
      <trkpt lat="45.25154" lon="4.81103">
        <ele>140</ele>
        <time>2024-05-21T08:49:07.000Z</time>
      </trkpt>
      <trkpt lat="45.2515" lon="4.81104">
        <ele>139.80000305176</ele>
        <time>2024-05-21T08:49:08.000Z</time>
      </trkpt>
      <trkpt lat="45.25145" lon="4.81102">
        <ele>139.60000610352</ele>
        <time>2024-05-21T08:49:09.000Z</time>
      </trkpt>
      <trkpt lat="45.25142" lon="4.811">
        <ele>139.39999389648</ele>
        <time>2024-05-21T08:49:10.000Z</time>
      </trkpt>
      <trkpt lat="45.25137" lon="4.81095">
        <ele>138.80000305176</ele>
        <time>2024-05-21T08:49:11.000Z</time>
      </trkpt>
      <trkpt lat="45.25133" lon="4.81092">
        <ele>138.80000305176</ele>
        <time>2024-05-21T08:49:12.000Z</time>
      </trkpt>
      <trkpt lat="45.25129" lon="4.81089">
        <ele>138.39999389648</ele>
        <time>2024-05-21T08:49:13.000Z</time>
      </trkpt>
      <trkpt lat="45.25125" lon="4.81085">
        <ele>138</ele>
        <time>2024-05-21T08:49:14.000Z</time>
      </trkpt>
      <trkpt lat="45.2512" lon="4.8108">
        <ele>137.80000305176</ele>
        <time>2024-05-21T08:49:15.000Z</time>
      </trkpt>
      <trkpt lat="45.25116" lon="4.81077">
        <ele>137.80000305176</ele>
        <time>2024-05-21T08:49:16.000Z</time>
      </trkpt>
      <trkpt lat="45.2511" lon="4.81072">
        <ele>137.80000305176</ele>
        <time>2024-05-21T08:49:17.000Z</time>
      </trkpt>
      <trkpt lat="45.25105" lon="4.81068">
        <ele>137.80000305176</ele>
        <time>2024-05-21T08:49:18.000Z</time>
      </trkpt>
      <trkpt lat="45.25101" lon="4.81065">
        <ele>137.80000305176</ele>
        <time>2024-05-21T08:49:19.000Z</time>
      </trkpt>
      <trkpt lat="45.25097" lon="4.8106">
        <ele>137.60000610352</ele>
        <time>2024-05-21T08:49:20.000Z</time>
      </trkpt>
      <trkpt lat="45.25091" lon="4.81055">
        <ele>137.80000305176</ele>
        <time>2024-05-21T08:49:21.000Z</time>
      </trkpt>
      <trkpt lat="45.25087" lon="4.81052">
        <ele>137.60000610352</ele>
        <time>2024-05-21T08:49:22.000Z</time>
      </trkpt>
      <trkpt lat="45.25081" lon="4.81048">
        <ele>137.60000610352</ele>
        <time>2024-05-21T08:49:23.000Z</time>
      </trkpt>
      <trkpt lat="45.25076" lon="4.81045">
        <ele>137.60000610352</ele>
        <time>2024-05-21T08:49:24.000Z</time>
      </trkpt>
      <trkpt lat="45.25072" lon="4.81042">
        <ele>137.39999389648</ele>
        <time>2024-05-21T08:49:25.000Z</time>
      </trkpt>
      <trkpt lat="45.25066" lon="4.81038">
        <ele>137.39999389648</ele>
        <time>2024-05-21T08:49:26.000Z</time>
      </trkpt>
      <trkpt lat="45.25061" lon="4.81034">
        <ele>137.39999389648</ele>
        <time>2024-05-21T08:49:27.000Z</time>
      </trkpt>
      <trkpt lat="45.25058" lon="4.81031">
        <ele>137.39999389648</ele>
        <time>2024-05-21T08:49:28.000Z</time>
      </trkpt>
      <trkpt lat="45.25052" lon="4.81026">
        <ele>137.39999389648</ele>
        <time>2024-05-21T08:49:29.000Z</time>
      </trkpt>
      <trkpt lat="45.25047" lon="4.81023">
        <ele>137.39999389648</ele>
        <time>2024-05-21T08:49:30.000Z</time>
      </trkpt>
      <trkpt lat="45.25043" lon="4.8102">
        <ele>137.39999389648</ele>
        <time>2024-05-21T08:49:31.000Z</time>
      </trkpt>
      <trkpt lat="45.25038" lon="4.81016">
        <ele>137.39999389648</ele>
        <time>2024-05-21T08:49:32.000Z</time>
      </trkpt>
      <trkpt lat="45.25033" lon="4.81012">
        <ele>137.60000610352</ele>
        <time>2024-05-21T08:49:33.000Z</time>
      </trkpt>
      <trkpt lat="45.25029" lon="4.81009">
        <ele>137.60000610352</ele>
        <time>2024-05-21T08:49:34.000Z</time>
      </trkpt>
      <trkpt lat="45.25023" lon="4.81005">
        <ele>137.60000610352</ele>
        <time>2024-05-21T08:49:35.000Z</time>
      </trkpt>
      <trkpt lat="45.25019" lon="4.81002">
        <ele>137.60000610352</ele>
        <time>2024-05-21T08:49:36.000Z</time>
      </trkpt>
      <trkpt lat="45.25015" lon="4.80999">
        <ele>137.60000610352</ele>
        <time>2024-05-21T08:49:37.000Z</time>
      </trkpt>
      <trkpt lat="45.2501" lon="4.80995">
        <ele>137.80000305176</ele>
        <time>2024-05-21T08:49:38.000Z</time>
      </trkpt>
      <trkpt lat="45.25005" lon="4.80992">
        <ele>137.80000305176</ele>
        <time>2024-05-21T08:49:39.000Z</time>
      </trkpt>
      <trkpt lat="45.25002" lon="4.80989">
        <ele>138.19999694824</ele>
        <time>2024-05-21T08:49:40.000Z</time>
      </trkpt>
      <trkpt lat="45.24998" lon="4.80986">
        <ele>138.19999694824</ele>
        <time>2024-05-21T08:49:41.000Z</time>
      </trkpt>
      <trkpt lat="45.24993" lon="4.80982">
        <ele>138.39999389648</ele>
        <time>2024-05-21T08:49:42.000Z</time>
      </trkpt>
      <trkpt lat="45.24989" lon="4.80978">
        <ele>138.39999389648</ele>
        <time>2024-05-21T08:49:43.000Z</time>
      </trkpt>
      <trkpt lat="45.24985" lon="4.80974">
        <ele>138.80000305176</ele>
        <time>2024-05-21T08:49:44.000Z</time>
      </trkpt>
      <trkpt lat="45.24981" lon="4.80971">
        <ele>139</ele>
        <time>2024-05-21T08:49:45.000Z</time>
      </trkpt>
      <trkpt lat="45.24978" lon="4.80968">
        <ele>139</ele>
        <time>2024-05-21T08:49:46.000Z</time>
      </trkpt>
      <trkpt lat="45.24973" lon="4.80963">
        <ele>139.39999389648</ele>
        <time>2024-05-21T08:49:47.000Z</time>
      </trkpt>
      <trkpt lat="45.24969" lon="4.80958">
        <ele>139.39999389648</ele>
        <time>2024-05-21T08:49:48.000Z</time>
      </trkpt>
      <trkpt lat="45.24965" lon="4.80954">
        <ele>139.39999389648</ele>
        <time>2024-05-21T08:49:49.000Z</time>
      </trkpt>
      <trkpt lat="45.2496" lon="4.8095">
        <ele>139.60000610352</ele>
        <time>2024-05-21T08:49:50.000Z</time>
      </trkpt>
      <trkpt lat="45.24956" lon="4.80947">
        <ele>139.60000610352</ele>
        <time>2024-05-21T08:49:51.000Z</time>
      </trkpt>
      <trkpt lat="45.24952" lon="4.80944">
        <ele>139.60000610352</ele>
        <time>2024-05-21T08:49:52.000Z</time>
      </trkpt>
      <trkpt lat="45.24946" lon="4.8094">
        <ele>139.60000610352</ele>
        <time>2024-05-21T08:49:53.000Z</time>
      </trkpt>
      <trkpt lat="45.2494" lon="4.80936">
        <ele>139.39999389648</ele>
        <time>2024-05-21T08:49:54.000Z</time>
      </trkpt>
      <trkpt lat="45.24936" lon="4.80934">
        <ele>139.39999389648</ele>
        <time>2024-05-21T08:49:55.000Z</time>
      </trkpt>
      <trkpt lat="45.24929" lon="4.80929">
        <ele>139.19999694824</ele>
        <time>2024-05-21T08:49:56.000Z</time>
      </trkpt>
      <trkpt lat="45.24924" lon="4.80926">
        <ele>139.19999694824</ele>
        <time>2024-05-21T08:49:57.000Z</time>
      </trkpt>
      <trkpt lat="45.24919" lon="4.80923">
        <ele>139</ele>
        <time>2024-05-21T08:49:58.000Z</time>
      </trkpt>
      <trkpt lat="45.24913" lon="4.80919">
        <ele>139</ele>
        <time>2024-05-21T08:49:59.000Z</time>
      </trkpt>
      <trkpt lat="45.24908" lon="4.80915">
        <ele>138.80000305176</ele>
        <time>2024-05-21T08:50:00.000Z</time>
      </trkpt>
      <trkpt lat="45.24902" lon="4.80912">
        <ele>138.60000610352</ele>
        <time>2024-05-21T08:50:01.000Z</time>
      </trkpt>
      <trkpt lat="45.24898" lon="4.80909">
        <ele>138.60000610352</ele>
        <time>2024-05-21T08:50:02.000Z</time>
      </trkpt>
      <trkpt lat="45.24892" lon="4.80905">
        <ele>138.60000610352</ele>
        <time>2024-05-21T08:50:03.000Z</time>
      </trkpt>
      <trkpt lat="45.24887" lon="4.80901">
        <ele>138.60000610352</ele>
        <time>2024-05-21T08:50:04.000Z</time>
      </trkpt>
      <trkpt lat="45.24881" lon="4.80897">
        <ele>138.60000610352</ele>
        <time>2024-05-21T08:50:05.000Z</time>
      </trkpt>
      <trkpt lat="45.24876" lon="4.80894">
        <ele>138.80000305176</ele>
        <time>2024-05-21T08:50:06.000Z</time>
      </trkpt>
      <trkpt lat="45.24872" lon="4.80891">
        <ele>138.80000305176</ele>
        <time>2024-05-21T08:50:07.000Z</time>
      </trkpt>
      <trkpt lat="45.24865" lon="4.80886">
        <ele>139</ele>
        <time>2024-05-21T08:50:08.000Z</time>
      </trkpt>
      <trkpt lat="45.2486" lon="4.80883">
        <ele>139</ele>
        <time>2024-05-21T08:50:09.000Z</time>
      </trkpt>
      <trkpt lat="45.24855" lon="4.80879">
        <ele>139</ele>
        <time>2024-05-21T08:50:10.000Z</time>
      </trkpt>
      <trkpt lat="45.24849" lon="4.80875">
        <ele>139</ele>
        <time>2024-05-21T08:50:11.000Z</time>
      </trkpt>
      <trkpt lat="45.24844" lon="4.80872">
        <ele>138.80000305176</ele>
        <time>2024-05-21T08:50:12.000Z</time>
      </trkpt>
      <trkpt lat="45.24839" lon="4.80868">
        <ele>138.80000305176</ele>
        <time>2024-05-21T08:50:13.000Z</time>
      </trkpt>
      <trkpt lat="45.24833" lon="4.80864">
        <ele>138.80000305176</ele>
        <time>2024-05-21T08:50:14.000Z</time>
      </trkpt>
      <trkpt lat="45.24828" lon="4.8086">
        <ele>138.80000305176</ele>
        <time>2024-05-21T08:50:15.000Z</time>
      </trkpt>
      <trkpt lat="45.24822" lon="4.80856">
        <ele>138.80000305176</ele>
        <time>2024-05-21T08:50:16.000Z</time>
      </trkpt>
      <trkpt lat="45.24817" lon="4.80852">
        <ele>138.80000305176</ele>
        <time>2024-05-21T08:50:17.000Z</time>
      </trkpt>
      <trkpt lat="45.24812" lon="4.80848">
        <ele>138.80000305176</ele>
        <time>2024-05-21T08:50:18.000Z</time>
      </trkpt>
      <trkpt lat="45.24807" lon="4.80844">
        <ele>138.80000305176</ele>
        <time>2024-05-21T08:50:19.000Z</time>
      </trkpt>
      <trkpt lat="45.24801" lon="4.80841">
        <ele>138.80000305176</ele>
        <time>2024-05-21T08:50:20.000Z</time>
      </trkpt>
      <trkpt lat="45.24796" lon="4.80837">
        <ele>138.80000305176</ele>
        <time>2024-05-21T08:50:21.000Z</time>
      </trkpt>
      <trkpt lat="45.24791" lon="4.80833">
        <ele>138.80000305176</ele>
        <time>2024-05-21T08:50:22.000Z</time>
      </trkpt>
      <trkpt lat="45.24786" lon="4.80829">
        <ele>138.80000305176</ele>
        <time>2024-05-21T08:50:23.000Z</time>
      </trkpt>
      <trkpt lat="45.24782" lon="4.80826">
        <ele>138.80000305176</ele>
        <time>2024-05-21T08:50:24.000Z</time>
      </trkpt>
      <trkpt lat="45.24777" lon="4.80822">
        <ele>138.80000305176</ele>
        <time>2024-05-21T08:50:25.000Z</time>
      </trkpt>
      <trkpt lat="45.24773" lon="4.80818">
        <ele>138.80000305176</ele>
        <time>2024-05-21T08:50:26.000Z</time>
      </trkpt>
      <trkpt lat="45.24768" lon="4.80814">
        <ele>138.80000305176</ele>
        <time>2024-05-21T08:50:27.000Z</time>
      </trkpt>
      <trkpt lat="45.24762" lon="4.8081">
        <ele>139</ele>
        <time>2024-05-21T08:50:28.000Z</time>
      </trkpt>
      <trkpt lat="45.24756" lon="4.80806">
        <ele>139.19999694824</ele>
        <time>2024-05-21T08:50:29.000Z</time>
      </trkpt>
      <trkpt lat="45.24751" lon="4.80802">
        <ele>139.19999694824</ele>
        <time>2024-05-21T08:50:30.000Z</time>
      </trkpt>
      <trkpt lat="45.24746" lon="4.80798">
        <ele>139.19999694824</ele>
        <time>2024-05-21T08:50:31.000Z</time>
      </trkpt>
      <trkpt lat="45.24741" lon="4.80795">
        <ele>139.39999389648</ele>
        <time>2024-05-21T08:50:32.000Z</time>
      </trkpt>
      <trkpt lat="45.24737" lon="4.80791">
        <ele>139.60000610352</ele>
        <time>2024-05-21T08:50:33.000Z</time>
      </trkpt>
      <trkpt lat="45.24732" lon="4.80788">
        <ele>139.80000305176</ele>
        <time>2024-05-21T08:50:34.000Z</time>
      </trkpt>
      <trkpt lat="45.24727" lon="4.80784">
        <ele>139.80000305176</ele>
        <time>2024-05-21T08:50:35.000Z</time>
      </trkpt>
      <trkpt lat="45.24723" lon="4.8078">
        <ele>140</ele>
        <time>2024-05-21T08:50:36.000Z</time>
      </trkpt>
      <trkpt lat="45.24718" lon="4.80776">
        <ele>140</ele>
        <time>2024-05-21T08:50:37.000Z</time>
      </trkpt>
      <trkpt lat="45.24713" lon="4.80773">
        <ele>140.19999694824</ele>
        <time>2024-05-21T08:50:38.000Z</time>
      </trkpt>
      <trkpt lat="45.24708" lon="4.80769">
        <ele>140.19999694824</ele>
        <time>2024-05-21T08:50:39.000Z</time>
      </trkpt>
      <trkpt lat="45.24704" lon="4.80766">
        <ele>140.60000610352</ele>
        <time>2024-05-21T08:50:40.000Z</time>
      </trkpt>
      <trkpt lat="45.24699" lon="4.80763">
        <ele>140.80000305176</ele>
        <time>2024-05-21T08:50:41.000Z</time>
      </trkpt>
      <trkpt lat="45.24694" lon="4.80758">
        <ele>140.80000305176</ele>
        <time>2024-05-21T08:50:42.000Z</time>
      </trkpt>
      <trkpt lat="45.24689" lon="4.80754">
        <ele>140.80000305176</ele>
        <time>2024-05-21T08:50:43.000Z</time>
      </trkpt>
      <trkpt lat="45.24684" lon="4.8075">
        <ele>140.80000305176</ele>
        <time>2024-05-21T08:50:44.000Z</time>
      </trkpt>
      <trkpt lat="45.24679" lon="4.80746">
        <ele>140.80000305176</ele>
        <time>2024-05-21T08:50:45.000Z</time>
      </trkpt>
      <trkpt lat="45.24675" lon="4.80743">
        <ele>140.80000305176</ele>
        <time>2024-05-21T08:50:46.000Z</time>
      </trkpt>
      <trkpt lat="45.24668" lon="4.80739">
        <ele>140.80000305176</ele>
        <time>2024-05-21T08:50:47.000Z</time>
      </trkpt>
      <trkpt lat="45.24663" lon="4.80736">
        <ele>140.80000305176</ele>
        <time>2024-05-21T08:50:48.000Z</time>
      </trkpt>
      <trkpt lat="45.24658" lon="4.80732">
        <ele>141</ele>
        <time>2024-05-21T08:50:49.000Z</time>
      </trkpt>
      <trkpt lat="45.24653" lon="4.80728">
        <ele>141</ele>
        <time>2024-05-21T08:50:50.000Z</time>
      </trkpt>
      <trkpt lat="45.24648" lon="4.80724">
        <ele>141</ele>
        <time>2024-05-21T08:50:51.000Z</time>
      </trkpt>
      <trkpt lat="45.24643" lon="4.8072">
        <ele>141.19999694824</ele>
        <time>2024-05-21T08:50:52.000Z</time>
      </trkpt>
      <trkpt lat="45.24638" lon="4.80717">
        <ele>141.19999694824</ele>
        <time>2024-05-21T08:50:53.000Z</time>
      </trkpt>
      <trkpt lat="45.24633" lon="4.80713">
        <ele>141.39999389648</ele>
        <time>2024-05-21T08:50:54.000Z</time>
      </trkpt>
      <trkpt lat="45.24628" lon="4.80709">
        <ele>141.39999389648</ele>
        <time>2024-05-21T08:50:55.000Z</time>
      </trkpt>
      <trkpt lat="45.24622" lon="4.80706">
        <ele>141.39999389648</ele>
        <time>2024-05-21T08:50:56.000Z</time>
      </trkpt>
      <trkpt lat="45.24617" lon="4.80702">
        <ele>141.39999389648</ele>
        <time>2024-05-21T08:50:57.000Z</time>
      </trkpt>
      <trkpt lat="45.24612" lon="4.80699">
        <ele>141.39999389648</ele>
        <time>2024-05-21T08:50:58.000Z</time>
      </trkpt>
      <trkpt lat="45.24608" lon="4.80695">
        <ele>141.39999389648</ele>
        <time>2024-05-21T08:50:59.000Z</time>
      </trkpt>
      <trkpt lat="45.24603" lon="4.80691">
        <ele>141.39999389648</ele>
        <time>2024-05-21T08:51:00.000Z</time>
      </trkpt>
      <trkpt lat="45.24598" lon="4.80688">
        <ele>141.39999389648</ele>
        <time>2024-05-21T08:51:01.000Z</time>
      </trkpt>
      <trkpt lat="45.24593" lon="4.80684">
        <ele>141.39999389648</ele>
        <time>2024-05-21T08:51:02.000Z</time>
      </trkpt>
      <trkpt lat="45.24587" lon="4.80681">
        <ele>141.39999389648</ele>
        <time>2024-05-21T08:51:03.000Z</time>
      </trkpt>
      <trkpt lat="45.24583" lon="4.80678">
        <ele>141.39999389648</ele>
        <time>2024-05-21T08:51:04.000Z</time>
      </trkpt>
      <trkpt lat="45.24578" lon="4.80674">
        <ele>141.39999389648</ele>
        <time>2024-05-21T08:51:05.000Z</time>
      </trkpt>
      <trkpt lat="45.24573" lon="4.80671">
        <ele>141.39999389648</ele>
        <time>2024-05-21T08:51:06.000Z</time>
      </trkpt>
      <trkpt lat="45.24569" lon="4.80668">
        <ele>141.39999389648</ele>
        <time>2024-05-21T08:51:07.000Z</time>
      </trkpt>
      <trkpt lat="45.24563" lon="4.80665">
        <ele>141.80000305176</ele>
        <time>2024-05-21T08:51:08.000Z</time>
      </trkpt>
      <trkpt lat="45.24558" lon="4.80662">
        <ele>142</ele>
        <time>2024-05-21T08:51:09.000Z</time>
      </trkpt>
      <trkpt lat="45.24553" lon="4.8066">
        <ele>142</ele>
        <time>2024-05-21T08:51:10.000Z</time>
      </trkpt>
      <trkpt lat="45.24548" lon="4.80658">
        <ele>142</ele>
        <time>2024-05-21T08:51:11.000Z</time>
      </trkpt>
      <trkpt lat="45.24542" lon="4.80656">
        <ele>142</ele>
        <time>2024-05-21T08:51:12.000Z</time>
      </trkpt>
      <trkpt lat="45.24537" lon="4.80655">
        <ele>142</ele>
        <time>2024-05-21T08:51:13.000Z</time>
      </trkpt>
      <trkpt lat="45.24531" lon="4.80653">
        <ele>142</ele>
        <time>2024-05-21T08:51:14.000Z</time>
      </trkpt>
      <trkpt lat="45.24526" lon="4.80651">
        <ele>142</ele>
        <time>2024-05-21T08:51:15.000Z</time>
      </trkpt>
      <trkpt lat="45.24521" lon="4.80649">
        <ele>141.80000305176</ele>
        <time>2024-05-21T08:51:16.000Z</time>
      </trkpt>
      <trkpt lat="45.24515" lon="4.80648">
        <ele>142</ele>
        <time>2024-05-21T08:51:17.000Z</time>
      </trkpt>
      <trkpt lat="45.2451" lon="4.80646">
        <ele>142</ele>
        <time>2024-05-21T08:51:18.000Z</time>
      </trkpt>
      <trkpt lat="45.24505" lon="4.80645">
        <ele>142</ele>
        <time>2024-05-21T08:51:19.000Z</time>
      </trkpt>
      <trkpt lat="45.245" lon="4.80643">
        <ele>142</ele>
        <time>2024-05-21T08:51:20.000Z</time>
      </trkpt>
      <trkpt lat="45.24495" lon="4.80642">
        <ele>142</ele>
        <time>2024-05-21T08:51:21.000Z</time>
      </trkpt>
      <trkpt lat="45.2449" lon="4.8064">
        <ele>142</ele>
        <time>2024-05-21T08:51:22.000Z</time>
      </trkpt>
      <trkpt lat="45.24485" lon="4.80638">
        <ele>142</ele>
        <time>2024-05-21T08:51:23.000Z</time>
      </trkpt>
      <trkpt lat="45.24481" lon="4.80636">
        <ele>141.80000305176</ele>
        <time>2024-05-21T08:51:24.000Z</time>
      </trkpt>
      <trkpt lat="45.24476" lon="4.80635">
        <ele>141.80000305176</ele>
        <time>2024-05-21T08:51:25.000Z</time>
      </trkpt>
      <trkpt lat="45.24472" lon="4.80634">
        <ele>141.60000610352</ele>
        <time>2024-05-21T08:51:26.000Z</time>
      </trkpt>
      <trkpt lat="45.24467" lon="4.80633">
        <ele>141.60000610352</ele>
        <time>2024-05-21T08:51:27.000Z</time>
      </trkpt>
      <trkpt lat="45.24464" lon="4.80632">
        <ele>141.60000610352</ele>
        <time>2024-05-21T08:51:28.000Z</time>
      </trkpt>
      <trkpt lat="45.2446" lon="4.8063">
        <ele>141.60000610352</ele>
        <time>2024-05-21T08:51:29.000Z</time>
      </trkpt>
      <trkpt lat="45.24457" lon="4.80628">
        <ele>141.60000610352</ele>
        <time>2024-05-21T08:51:30.000Z</time>
      </trkpt>
      <trkpt lat="45.24454" lon="4.80627">
        <ele>141.60000610352</ele>
        <time>2024-05-21T08:51:31.000Z</time>
      </trkpt>
      <trkpt lat="45.2445" lon="4.80626">
        <ele>141.80000305176</ele>
        <time>2024-05-21T08:51:32.000Z</time>
      </trkpt>
      <trkpt lat="45.24446" lon="4.80625">
        <ele>141.80000305176</ele>
        <time>2024-05-21T08:51:33.000Z</time>
      </trkpt>
      <trkpt lat="45.24442" lon="4.80623">
        <ele>141.80000305176</ele>
        <time>2024-05-21T08:51:34.000Z</time>
      </trkpt>
      <trkpt lat="45.24438" lon="4.80623">
        <ele>141.80000305176</ele>
        <time>2024-05-21T08:51:35.000Z</time>
      </trkpt>
      <trkpt lat="45.24434" lon="4.80623">
        <ele>141.80000305176</ele>
        <time>2024-05-21T08:51:36.000Z</time>
      </trkpt>
      <trkpt lat="45.24431" lon="4.80622">
        <ele>141.80000305176</ele>
        <time>2024-05-21T08:51:37.000Z</time>
      </trkpt>
      <trkpt lat="45.24429" lon="4.80621">
        <ele>142</ele>
        <time>2024-05-21T08:51:38.000Z</time>
      </trkpt>
      <trkpt lat="45.24426" lon="4.8062">
        <ele>142</ele>
        <time>2024-05-21T08:51:39.000Z</time>
      </trkpt>
      <trkpt lat="45.24424" lon="4.8062">
        <ele>142</ele>
        <time>2024-05-21T08:51:40.000Z</time>
      </trkpt>
      <trkpt lat="45.24421" lon="4.80619">
        <ele>142.19999694824</ele>
        <time>2024-05-21T08:51:41.000Z</time>
      </trkpt>
      <trkpt lat="45.24417" lon="4.80618">
        <ele>142.19999694824</ele>
        <time>2024-05-21T08:51:42.000Z</time>
      </trkpt>
      <trkpt lat="45.24413" lon="4.80617">
        <ele>142.19999694824</ele>
        <time>2024-05-21T08:51:43.000Z</time>
      </trkpt>
      <trkpt lat="45.24409" lon="4.80616">
        <ele>142.19999694824</ele>
        <time>2024-05-21T08:51:44.000Z</time>
      </trkpt>
      <trkpt lat="45.24405" lon="4.80615">
        <ele>142.19999694824</ele>
        <time>2024-05-21T08:51:45.000Z</time>
      </trkpt>
      <trkpt lat="45.244" lon="4.80613">
        <ele>142.19999694824</ele>
        <time>2024-05-21T08:51:46.000Z</time>
      </trkpt>
      <trkpt lat="45.24396" lon="4.80612">
        <ele>142</ele>
        <time>2024-05-21T08:51:47.000Z</time>
      </trkpt>
      <trkpt lat="45.24391" lon="4.80611">
        <ele>141.80000305176</ele>
        <time>2024-05-21T08:51:48.000Z</time>
      </trkpt>
      <trkpt lat="45.24386" lon="4.8061">
        <ele>141.80000305176</ele>
        <time>2024-05-21T08:51:49.000Z</time>
      </trkpt>
      <trkpt lat="45.24381" lon="4.80609">
        <ele>141.60000610352</ele>
        <time>2024-05-21T08:51:50.000Z</time>
      </trkpt>
      <trkpt lat="45.24376" lon="4.80607">
        <ele>141.39999389648</ele>
        <time>2024-05-21T08:51:51.000Z</time>
      </trkpt>
      <trkpt lat="45.24371" lon="4.80605">
        <ele>141.19999694824</ele>
        <time>2024-05-21T08:51:52.000Z</time>
      </trkpt>
      <trkpt lat="45.24365" lon="4.80604">
        <ele>141.19999694824</ele>
        <time>2024-05-21T08:51:53.000Z</time>
      </trkpt>
      <trkpt lat="45.24358" lon="4.80601">
        <ele>141</ele>
        <time>2024-05-21T08:51:54.000Z</time>
      </trkpt>
      <trkpt lat="45.24352" lon="4.80599">
        <ele>141</ele>
        <time>2024-05-21T08:51:55.000Z</time>
      </trkpt>
      <trkpt lat="45.24346" lon="4.80597">
        <ele>140.80000305176</ele>
        <time>2024-05-21T08:51:56.000Z</time>
      </trkpt>
      <trkpt lat="45.2434" lon="4.80595">
        <ele>140.60000610352</ele>
        <time>2024-05-21T08:51:57.000Z</time>
      </trkpt>
      <trkpt lat="45.24334" lon="4.80594">
        <ele>140.39999389648</ele>
        <time>2024-05-21T08:51:58.000Z</time>
      </trkpt>
      <trkpt lat="45.24328" lon="4.80592">
        <ele>140</ele>
        <time>2024-05-21T08:51:59.000Z</time>
      </trkpt>
      <trkpt lat="45.24322" lon="4.8059">
        <ele>140</ele>
        <time>2024-05-21T08:52:00.000Z</time>
      </trkpt>
      <trkpt lat="45.24316" lon="4.80588">
        <ele>139.60000610352</ele>
        <time>2024-05-21T08:52:01.000Z</time>
      </trkpt>
      <trkpt lat="45.2431" lon="4.80586">
        <ele>139.39999389648</ele>
        <time>2024-05-21T08:52:02.000Z</time>
      </trkpt>
      <trkpt lat="45.24305" lon="4.80585">
        <ele>139.19999694824</ele>
        <time>2024-05-21T08:52:03.000Z</time>
      </trkpt>
      <trkpt lat="45.24299" lon="4.80583">
        <ele>139.19999694824</ele>
        <time>2024-05-21T08:52:04.000Z</time>
      </trkpt>
      <trkpt lat="45.24294" lon="4.80582">
        <ele>139.19999694824</ele>
        <time>2024-05-21T08:52:05.000Z</time>
      </trkpt>
      <trkpt lat="45.24288" lon="4.8058">
        <ele>139.19999694824</ele>
        <time>2024-05-21T08:52:06.000Z</time>
      </trkpt>
      <trkpt lat="45.24283" lon="4.80578">
        <ele>139.19999694824</ele>
        <time>2024-05-21T08:52:07.000Z</time>
      </trkpt>
      <trkpt lat="45.24278" lon="4.80576">
        <ele>139</ele>
        <time>2024-05-21T08:52:08.000Z</time>
      </trkpt>
      <trkpt lat="45.24273" lon="4.80574">
        <ele>139</ele>
        <time>2024-05-21T08:52:09.000Z</time>
      </trkpt>
      <trkpt lat="45.24268" lon="4.80572">
        <ele>139</ele>
        <time>2024-05-21T08:52:10.000Z</time>
      </trkpt>
      <trkpt lat="45.24263" lon="4.8057">
        <ele>139</ele>
        <time>2024-05-21T08:52:11.000Z</time>
      </trkpt>
      <trkpt lat="45.24258" lon="4.80568">
        <ele>139</ele>
        <time>2024-05-21T08:52:12.000Z</time>
      </trkpt>
      <trkpt lat="45.24253" lon="4.80567">
        <ele>139</ele>
        <time>2024-05-21T08:52:13.000Z</time>
      </trkpt>
      <trkpt lat="45.24247" lon="4.80565">
        <ele>139</ele>
        <time>2024-05-21T08:52:14.000Z</time>
      </trkpt>
      <trkpt lat="45.24243" lon="4.80564">
        <ele>139</ele>
        <time>2024-05-21T08:52:15.000Z</time>
      </trkpt>
      <trkpt lat="45.24238" lon="4.80562">
        <ele>138.80000305176</ele>
        <time>2024-05-21T08:52:16.000Z</time>
      </trkpt>
      <trkpt lat="45.24234" lon="4.80561">
        <ele>138.80000305176</ele>
        <time>2024-05-21T08:52:17.000Z</time>
      </trkpt>
      <trkpt lat="45.24229" lon="4.8056">
        <ele>138.80000305176</ele>
        <time>2024-05-21T08:52:18.000Z</time>
      </trkpt>
      <trkpt lat="45.24225" lon="4.80558">
        <ele>138.80000305176</ele>
        <time>2024-05-21T08:52:19.000Z</time>
      </trkpt>
      <trkpt lat="45.24221" lon="4.80557">
        <ele>138.80000305176</ele>
        <time>2024-05-21T08:52:20.000Z</time>
      </trkpt>
      <trkpt lat="45.24218" lon="4.80556">
        <ele>138.80000305176</ele>
        <time>2024-05-21T08:52:21.000Z</time>
      </trkpt>
      <trkpt lat="45.24216" lon="4.80556">
        <ele>139</ele>
        <time>2024-05-21T08:52:22.000Z</time>
      </trkpt>
      <trkpt lat="45.24214" lon="4.80556">
        <ele>139.19999694824</ele>
        <time>2024-05-21T08:52:23.000Z</time>
      </trkpt>
      <trkpt lat="45.24213" lon="4.80556">
        <ele>139.39999389648</ele>
        <time>2024-05-21T08:52:24.000Z</time>
      </trkpt>
      <trkpt lat="45.24213" lon="4.80555">
        <ele>139.39999389648</ele>
        <time>2024-05-21T08:52:25.000Z</time>
      </trkpt>
      <trkpt lat="45.24212" lon="4.80554">
        <ele>139.39999389648</ele>
        <time>2024-05-21T08:52:26.000Z</time>
      </trkpt>
      <trkpt lat="45.24213" lon="4.80552">
        <ele>139.39999389648</ele>
        <time>2024-05-21T08:52:27.000Z</time>
      </trkpt>
      <trkpt lat="45.24213" lon="4.8055">
        <ele>139.60000610352</ele>
        <time>2024-05-21T08:52:28.000Z</time>
      </trkpt>
      <trkpt lat="45.24214" lon="4.80547">
        <ele>139.60000610352</ele>
        <time>2024-05-21T08:52:29.000Z</time>
      </trkpt>
      <trkpt lat="45.24215" lon="4.80543">
        <ele>139.60000610352</ele>
        <time>2024-05-21T08:52:30.000Z</time>
      </trkpt>
      <trkpt lat="45.24215" lon="4.80539">
        <ele>139.60000610352</ele>
        <time>2024-05-21T08:52:31.000Z</time>
      </trkpt>
      <trkpt lat="45.24216" lon="4.80535">
        <ele>139.60000610352</ele>
        <time>2024-05-21T08:52:32.000Z</time>
      </trkpt>
      <trkpt lat="45.24217" lon="4.80531">
        <ele>139.60000610352</ele>
        <time>2024-05-21T08:52:33.000Z</time>
      </trkpt>
      <trkpt lat="45.24217" lon="4.80526">
        <ele>139.39999389648</ele>
        <time>2024-05-21T08:52:34.000Z</time>
      </trkpt>
      <trkpt lat="45.24218" lon="4.80521">
        <ele>139.39999389648</ele>
        <time>2024-05-21T08:52:35.000Z</time>
      </trkpt>
      <trkpt lat="45.24218" lon="4.80517">
        <ele>139.39999389648</ele>
        <time>2024-05-21T08:52:36.000Z</time>
      </trkpt>
      <trkpt lat="45.24219" lon="4.80514">
        <ele>139.39999389648</ele>
        <time>2024-05-21T08:52:37.000Z</time>
      </trkpt>
      <trkpt lat="45.24219" lon="4.80511">
        <ele>139.39999389648</ele>
        <time>2024-05-21T08:52:38.000Z</time>
      </trkpt>
      <trkpt lat="45.24219" lon="4.8051">
        <ele>139.39999389648</ele>
        <time>2024-05-21T08:52:39.000Z</time>
      </trkpt>
      <trkpt lat="45.24219" lon="4.8051">
        <ele>139.39999389648</ele>
        <time>2024-05-21T08:52:40.000Z</time>
      </trkpt>
      <trkpt lat="45.24219" lon="4.8051">
        <ele>139.39999389648</ele>
        <time>2024-05-21T08:52:41.000Z</time>
      </trkpt>
      <trkpt lat="45.24216" lon="4.80513">
        <ele>139.39999389648</ele>
        <time>2024-05-21T08:55:34.000Z</time>
      </trkpt>
      <trkpt lat="45.24216" lon="4.80515">
        <ele>139.39999389648</ele>
        <time>2024-05-21T08:55:35.000Z</time>
      </trkpt>
      <trkpt lat="45.24217" lon="4.80518">
        <ele>139.39999389648</ele>
        <time>2024-05-21T08:55:36.000Z</time>
      </trkpt>
      <trkpt lat="45.24217" lon="4.80521">
        <ele>139.39999389648</ele>
        <time>2024-05-21T08:55:37.000Z</time>
      </trkpt>
      <trkpt lat="45.24217" lon="4.80524">
        <ele>139.39999389648</ele>
        <time>2024-05-21T08:55:38.000Z</time>
      </trkpt>
      <trkpt lat="45.24217" lon="4.80528">
        <ele>139.60000610352</ele>
        <time>2024-05-21T08:55:39.000Z</time>
      </trkpt>
      <trkpt lat="45.24216" lon="4.80531">
        <ele>139.60000610352</ele>
        <time>2024-05-21T08:55:40.000Z</time>
      </trkpt>
      <trkpt lat="45.24215" lon="4.80534">
        <ele>139.60000610352</ele>
        <time>2024-05-21T08:55:41.000Z</time>
      </trkpt>
      <trkpt lat="45.24215" lon="4.80537">
        <ele>139.60000610352</ele>
        <time>2024-05-21T08:55:42.000Z</time>
      </trkpt>
      <trkpt lat="45.24215" lon="4.8054">
        <ele>139.80000305176</ele>
        <time>2024-05-21T08:55:43.000Z</time>
      </trkpt>
      <trkpt lat="45.24216" lon="4.80542">
        <ele>139.80000305176</ele>
        <time>2024-05-21T08:55:44.000Z</time>
      </trkpt>
      <trkpt lat="45.24216" lon="4.80545">
        <ele>139.80000305176</ele>
        <time>2024-05-21T08:55:45.000Z</time>
      </trkpt>
      <trkpt lat="45.24216" lon="4.80549">
        <ele>140</ele>
        <time>2024-05-21T08:55:46.000Z</time>
      </trkpt>
      <trkpt lat="45.24215" lon="4.80552">
        <ele>140.19999694824</ele>
        <time>2024-05-21T08:55:47.000Z</time>
      </trkpt>
      <trkpt lat="45.24215" lon="4.80554">
        <ele>140.39999389648</ele>
        <time>2024-05-21T08:55:48.000Z</time>
      </trkpt>
      <trkpt lat="45.24214" lon="4.80557">
        <ele>140.39999389648</ele>
        <time>2024-05-21T08:55:49.000Z</time>
      </trkpt>
      <trkpt lat="45.24212" lon="4.80558">
        <ele>140.39999389648</ele>
        <time>2024-05-21T08:55:50.000Z</time>
      </trkpt>
      <trkpt lat="45.24209" lon="4.80558">
        <ele>140.39999389648</ele>
        <time>2024-05-21T08:55:51.000Z</time>
      </trkpt>
      <trkpt lat="45.24205" lon="4.80557">
        <ele>140.39999389648</ele>
        <time>2024-05-21T08:55:52.000Z</time>
      </trkpt>
      <trkpt lat="45.24202" lon="4.80557">
        <ele>140.19999694824</ele>
        <time>2024-05-21T08:55:53.000Z</time>
      </trkpt>
      <trkpt lat="45.24198" lon="4.80556">
        <ele>140.19999694824</ele>
        <time>2024-05-21T08:55:54.000Z</time>
      </trkpt>
      <trkpt lat="45.24195" lon="4.80556">
        <ele>140.19999694824</ele>
        <time>2024-05-21T08:55:55.000Z</time>
      </trkpt>
      <trkpt lat="45.24191" lon="4.80556">
        <ele>140.19999694824</ele>
        <time>2024-05-21T08:55:56.000Z</time>
      </trkpt>
      <trkpt lat="45.24187" lon="4.80555">
        <ele>140.19999694824</ele>
        <time>2024-05-21T08:55:57.000Z</time>
      </trkpt>
      <trkpt lat="45.24183" lon="4.80555">
        <ele>140.39999389648</ele>
        <time>2024-05-21T08:55:58.000Z</time>
      </trkpt>
      <trkpt lat="45.2418" lon="4.80555">
        <ele>140.39999389648</ele>
        <time>2024-05-21T08:55:59.000Z</time>
      </trkpt>
      <trkpt lat="45.24176" lon="4.80555">
        <ele>140.39999389648</ele>
        <time>2024-05-21T08:56:00.000Z</time>
      </trkpt>
      <trkpt lat="45.24172" lon="4.80554">
        <ele>140.39999389648</ele>
        <time>2024-05-21T08:56:01.000Z</time>
      </trkpt>
      <trkpt lat="45.24168" lon="4.80554">
        <ele>140.60000610352</ele>
        <time>2024-05-21T08:56:02.000Z</time>
      </trkpt>
      <trkpt lat="45.24164" lon="4.80553">
        <ele>140.60000610352</ele>
        <time>2024-05-21T08:56:03.000Z</time>
      </trkpt>
      <trkpt lat="45.2416" lon="4.80553">
        <ele>140.60000610352</ele>
        <time>2024-05-21T08:56:04.000Z</time>
      </trkpt>
      <trkpt lat="45.24155" lon="4.80551">
        <ele>140.60000610352</ele>
        <time>2024-05-21T08:56:05.000Z</time>
      </trkpt>
      <trkpt lat="45.24151" lon="4.80551">
        <ele>140.60000610352</ele>
        <time>2024-05-21T08:56:06.000Z</time>
      </trkpt>
      <trkpt lat="45.24147" lon="4.8055">
        <ele>140.60000610352</ele>
        <time>2024-05-21T08:56:07.000Z</time>
      </trkpt>
      <trkpt lat="45.24143" lon="4.8055">
        <ele>140.60000610352</ele>
        <time>2024-05-21T08:56:08.000Z</time>
      </trkpt>
      <trkpt lat="45.24139" lon="4.80549">
        <ele>140.60000610352</ele>
        <time>2024-05-21T08:56:09.000Z</time>
      </trkpt>
      <trkpt lat="45.24134" lon="4.80548">
        <ele>140.60000610352</ele>
        <time>2024-05-21T08:56:10.000Z</time>
      </trkpt>
      <trkpt lat="45.2413" lon="4.80548">
        <ele>140.60000610352</ele>
        <time>2024-05-21T08:56:11.000Z</time>
      </trkpt>
      <trkpt lat="45.24125" lon="4.80548">
        <ele>140.80000305176</ele>
        <time>2024-05-21T08:56:12.000Z</time>
      </trkpt>
      <trkpt lat="45.2412" lon="4.80548">
        <ele>140.80000305176</ele>
        <time>2024-05-21T08:56:13.000Z</time>
      </trkpt>
      <trkpt lat="45.24116" lon="4.80548">
        <ele>140.80000305176</ele>
        <time>2024-05-21T08:56:14.000Z</time>
      </trkpt>
      <trkpt lat="45.24111" lon="4.80547">
        <ele>141</ele>
        <time>2024-05-21T08:56:15.000Z</time>
      </trkpt>
      <trkpt lat="45.24107" lon="4.80548">
        <ele>141</ele>
        <time>2024-05-21T08:56:16.000Z</time>
      </trkpt>
      <trkpt lat="45.24103" lon="4.80548">
        <ele>141.39999389648</ele>
        <time>2024-05-21T08:56:17.000Z</time>
      </trkpt>
      <trkpt lat="45.24099" lon="4.80548">
        <ele>141.39999389648</ele>
        <time>2024-05-21T08:56:18.000Z</time>
      </trkpt>
      <trkpt lat="45.24095" lon="4.80547">
        <ele>141.39999389648</ele>
        <time>2024-05-21T08:56:19.000Z</time>
      </trkpt>
      <trkpt lat="45.24091" lon="4.80547">
        <ele>141.39999389648</ele>
        <time>2024-05-21T08:56:20.000Z</time>
      </trkpt>
      <trkpt lat="45.24087" lon="4.80547">
        <ele>141.39999389648</ele>
        <time>2024-05-21T08:56:21.000Z</time>
      </trkpt>
      <trkpt lat="45.24084" lon="4.80548">
        <ele>141.39999389648</ele>
        <time>2024-05-21T08:56:22.000Z</time>
      </trkpt>
      <trkpt lat="45.2408" lon="4.80549">
        <ele>141.60000610352</ele>
        <time>2024-05-21T08:56:23.000Z</time>
      </trkpt>
      <trkpt lat="45.24076" lon="4.80549">
        <ele>141.60000610352</ele>
        <time>2024-05-21T08:56:24.000Z</time>
      </trkpt>
      <trkpt lat="45.24072" lon="4.8055">
        <ele>141.60000610352</ele>
        <time>2024-05-21T08:56:25.000Z</time>
      </trkpt>
      <trkpt lat="45.24067" lon="4.80551">
        <ele>141.60000610352</ele>
        <time>2024-05-21T08:56:26.000Z</time>
      </trkpt>
      <trkpt lat="45.24063" lon="4.80551">
        <ele>141.19999694824</ele>
        <time>2024-05-21T08:56:27.000Z</time>
      </trkpt>
      <trkpt lat="45.24059" lon="4.80551">
        <ele>141</ele>
        <time>2024-05-21T08:56:28.000Z</time>
      </trkpt>
      <trkpt lat="45.24054" lon="4.80551">
        <ele>140.80000305176</ele>
        <time>2024-05-21T08:56:29.000Z</time>
      </trkpt>
      <trkpt lat="45.2405" lon="4.8055">
        <ele>140.39999389648</ele>
        <time>2024-05-21T08:56:30.000Z</time>
      </trkpt>
      <trkpt lat="45.24045" lon="4.8055">
        <ele>140.39999389648</ele>
        <time>2024-05-21T08:56:31.000Z</time>
      </trkpt>
      <trkpt lat="45.24041" lon="4.8055">
        <ele>140.39999389648</ele>
        <time>2024-05-21T08:56:32.000Z</time>
      </trkpt>
      <trkpt lat="45.24036" lon="4.8055">
        <ele>140.19999694824</ele>
        <time>2024-05-21T08:56:33.000Z</time>
      </trkpt>
      <trkpt lat="45.24032" lon="4.8055">
        <ele>140.19999694824</ele>
        <time>2024-05-21T08:56:34.000Z</time>
      </trkpt>
      <trkpt lat="45.24028" lon="4.8055">
        <ele>140.19999694824</ele>
        <time>2024-05-21T08:56:35.000Z</time>
      </trkpt>
      <trkpt lat="45.24023" lon="4.8055">
        <ele>140.19999694824</ele>
        <time>2024-05-21T08:56:36.000Z</time>
      </trkpt>
      <trkpt lat="45.24018" lon="4.8055">
        <ele>140.19999694824</ele>
        <time>2024-05-21T08:56:37.000Z</time>
      </trkpt>
      <trkpt lat="45.24013" lon="4.8055">
        <ele>140.19999694824</ele>
        <time>2024-05-21T08:56:38.000Z</time>
      </trkpt>
      <trkpt lat="45.24008" lon="4.8055">
        <ele>140</ele>
        <time>2024-05-21T08:56:39.000Z</time>
      </trkpt>
      <trkpt lat="45.24003" lon="4.8055">
        <ele>140</ele>
        <time>2024-05-21T08:56:40.000Z</time>
      </trkpt>
      <trkpt lat="45.23998" lon="4.8055">
        <ele>139.80000305176</ele>
        <time>2024-05-21T08:56:41.000Z</time>
      </trkpt>
      <trkpt lat="45.23993" lon="4.8055">
        <ele>139.60000610352</ele>
        <time>2024-05-21T08:56:42.000Z</time>
      </trkpt>
      <trkpt lat="45.23988" lon="4.8055">
        <ele>139.60000610352</ele>
        <time>2024-05-21T08:56:43.000Z</time>
      </trkpt>
      <trkpt lat="45.23982" lon="4.8055">
        <ele>139.60000610352</ele>
        <time>2024-05-21T08:56:44.000Z</time>
      </trkpt>
      <trkpt lat="45.23976" lon="4.80552">
        <ele>139.39999389648</ele>
        <time>2024-05-21T08:56:45.000Z</time>
      </trkpt>
      <trkpt lat="45.23971" lon="4.80556">
        <ele>139.19999694824</ele>
        <time>2024-05-21T08:56:46.000Z</time>
      </trkpt>
      <trkpt lat="45.23966" lon="4.8056">
        <ele>139</ele>
        <time>2024-05-21T08:56:47.000Z</time>
      </trkpt>
      <trkpt lat="45.23961" lon="4.80566">
        <ele>138.80000305176</ele>
        <time>2024-05-21T08:56:48.000Z</time>
      </trkpt>
      <trkpt lat="45.23957" lon="4.80572">
        <ele>138.39999389648</ele>
        <time>2024-05-21T08:56:49.000Z</time>
      </trkpt>
      <trkpt lat="45.23953" lon="4.80578">
        <ele>137.80000305176</ele>
        <time>2024-05-21T08:56:50.000Z</time>
      </trkpt>
      <trkpt lat="45.23948" lon="4.80585">
        <ele>137.80000305176</ele>
        <time>2024-05-21T08:56:51.000Z</time>
      </trkpt>
      <trkpt lat="45.23943" lon="4.80591">
        <ele>136.80000305176</ele>
        <time>2024-05-21T08:56:52.000Z</time>
      </trkpt>
      <trkpt lat="45.23938" lon="4.80597">
        <ele>136.39999389648</ele>
        <time>2024-05-21T08:56:53.000Z</time>
      </trkpt>
      <trkpt lat="45.23933" lon="4.80603">
        <ele>135.80000305176</ele>
        <time>2024-05-21T08:56:54.000Z</time>
      </trkpt>
      <trkpt lat="45.23928" lon="4.80609">
        <ele>135.19999694824</ele>
        <time>2024-05-21T08:56:55.000Z</time>
      </trkpt>
      <trkpt lat="45.23923" lon="4.80615">
        <ele>135</ele>
        <time>2024-05-21T08:56:56.000Z</time>
      </trkpt>
      <trkpt lat="45.23919" lon="4.8062">
        <ele>134.60000610352</ele>
        <time>2024-05-21T08:56:57.000Z</time>
      </trkpt>
      <trkpt lat="45.23916" lon="4.80624">
        <ele>134.60000610352</ele>
        <time>2024-05-21T08:56:58.000Z</time>
      </trkpt>
      <trkpt lat="45.23912" lon="4.80628">
        <ele>134.60000610352</ele>
        <time>2024-05-21T08:56:59.000Z</time>
      </trkpt>
      <trkpt lat="45.23909" lon="4.80631">
        <ele>134.60000610352</ele>
        <time>2024-05-21T08:57:00.000Z</time>
      </trkpt>
      <trkpt lat="45.23905" lon="4.80634">
        <ele>134.60000610352</ele>
        <time>2024-05-21T08:57:01.000Z</time>
      </trkpt>
      <trkpt lat="45.23902" lon="4.80637">
        <ele>134.60000610352</ele>
        <time>2024-05-21T08:57:02.000Z</time>
      </trkpt>
      <trkpt lat="45.23898" lon="4.80639">
        <ele>134.60000610352</ele>
        <time>2024-05-21T08:57:03.000Z</time>
      </trkpt>
      <trkpt lat="45.23894" lon="4.80642">
        <ele>134.80000305176</ele>
        <time>2024-05-21T08:57:04.000Z</time>
      </trkpt>
      <trkpt lat="45.23891" lon="4.80644">
        <ele>134.80000305176</ele>
        <time>2024-05-21T08:57:05.000Z</time>
      </trkpt>
      <trkpt lat="45.23887" lon="4.80646">
        <ele>134.80000305176</ele>
        <time>2024-05-21T08:57:06.000Z</time>
      </trkpt>
      <trkpt lat="45.23884" lon="4.80648">
        <ele>134.80000305176</ele>
        <time>2024-05-21T08:57:07.000Z</time>
      </trkpt>
      <trkpt lat="45.23881" lon="4.80649">
        <ele>134.80000305176</ele>
        <time>2024-05-21T08:57:08.000Z</time>
      </trkpt>
      <trkpt lat="45.23877" lon="4.8065">
        <ele>134.80000305176</ele>
        <time>2024-05-21T08:57:09.000Z</time>
      </trkpt>
      <trkpt lat="45.23872" lon="4.80652">
        <ele>135</ele>
        <time>2024-05-21T08:57:10.000Z</time>
      </trkpt>
      <trkpt lat="45.23868" lon="4.80653">
        <ele>135</ele>
        <time>2024-05-21T08:57:11.000Z</time>
      </trkpt>
      <trkpt lat="45.23864" lon="4.80655">
        <ele>135</ele>
        <time>2024-05-21T08:57:12.000Z</time>
      </trkpt>
      <trkpt lat="45.23861" lon="4.80656">
        <ele>135</ele>
        <time>2024-05-21T08:57:13.000Z</time>
      </trkpt>
      <trkpt lat="45.23857" lon="4.80657">
        <ele>135</ele>
        <time>2024-05-21T08:57:14.000Z</time>
      </trkpt>
      <trkpt lat="45.23854" lon="4.80657">
        <ele>135</ele>
        <time>2024-05-21T08:57:15.000Z</time>
      </trkpt>
      <trkpt lat="45.23851" lon="4.80655">
        <ele>135</ele>
        <time>2024-05-21T08:57:16.000Z</time>
      </trkpt>
      <trkpt lat="45.23849" lon="4.80652">
        <ele>135</ele>
        <time>2024-05-21T08:57:17.000Z</time>
      </trkpt>
      <trkpt lat="45.23847" lon="4.80649">
        <ele>135</ele>
        <time>2024-05-21T08:57:18.000Z</time>
      </trkpt>
      <trkpt lat="45.23844" lon="4.80645">
        <ele>135</ele>
        <time>2024-05-21T08:57:19.000Z</time>
      </trkpt>
      <trkpt lat="45.23841" lon="4.80641">
        <ele>135.19999694824</ele>
        <time>2024-05-21T08:57:20.000Z</time>
      </trkpt>
      <trkpt lat="45.23838" lon="4.80638">
        <ele>135.19999694824</ele>
        <time>2024-05-21T08:57:21.000Z</time>
      </trkpt>
      <trkpt lat="45.23835" lon="4.80634">
        <ele>135.19999694824</ele>
        <time>2024-05-21T08:57:22.000Z</time>
      </trkpt>
      <trkpt lat="45.23831" lon="4.8063">
        <ele>135.19999694824</ele>
        <time>2024-05-21T08:57:23.000Z</time>
      </trkpt>
      <trkpt lat="45.23828" lon="4.80627">
        <ele>135.19999694824</ele>
        <time>2024-05-21T08:57:24.000Z</time>
      </trkpt>
      <trkpt lat="45.23824" lon="4.80623">
        <ele>135.19999694824</ele>
        <time>2024-05-21T08:57:25.000Z</time>
      </trkpt>
      <trkpt lat="45.23821" lon="4.8062">
        <ele>135.19999694824</ele>
        <time>2024-05-21T08:57:26.000Z</time>
      </trkpt>
      <trkpt lat="45.23817" lon="4.80615">
        <ele>135</ele>
        <time>2024-05-21T08:57:27.000Z</time>
      </trkpt>
      <trkpt lat="45.23812" lon="4.80612">
        <ele>135</ele>
        <time>2024-05-21T08:57:28.000Z</time>
      </trkpt>
      <trkpt lat="45.23809" lon="4.80607">
        <ele>135</ele>
        <time>2024-05-21T08:57:29.000Z</time>
      </trkpt>
      <trkpt lat="45.23805" lon="4.80603">
        <ele>135</ele>
        <time>2024-05-21T08:57:30.000Z</time>
      </trkpt>
      <trkpt lat="45.23801" lon="4.806">
        <ele>135</ele>
        <time>2024-05-21T08:57:31.000Z</time>
      </trkpt>
      <trkpt lat="45.23797" lon="4.80597">
        <ele>135</ele>
        <time>2024-05-21T08:57:32.000Z</time>
      </trkpt>
      <trkpt lat="45.23792" lon="4.80592">
        <ele>135</ele>
        <time>2024-05-21T08:57:33.000Z</time>
      </trkpt>
      <trkpt lat="45.23788" lon="4.80588">
        <ele>135</ele>
        <time>2024-05-21T08:57:34.000Z</time>
      </trkpt>
      <trkpt lat="45.23784" lon="4.80585">
        <ele>135</ele>
        <time>2024-05-21T08:57:35.000Z</time>
      </trkpt>
      <trkpt lat="45.23779" lon="4.80581">
        <ele>135.19999694824</ele>
        <time>2024-05-21T08:57:36.000Z</time>
      </trkpt>
      <trkpt lat="45.23775" lon="4.80577">
        <ele>135.19999694824</ele>
        <time>2024-05-21T08:57:37.000Z</time>
      </trkpt>
      <trkpt lat="45.23771" lon="4.80573">
        <ele>135.19999694824</ele>
        <time>2024-05-21T08:57:38.000Z</time>
      </trkpt>
      <trkpt lat="45.23767" lon="4.8057">
        <ele>135.19999694824</ele>
        <time>2024-05-21T08:57:39.000Z</time>
      </trkpt>
      <trkpt lat="45.23763" lon="4.80566">
        <ele>135.19999694824</ele>
        <time>2024-05-21T08:57:40.000Z</time>
      </trkpt>
      <trkpt lat="45.23758" lon="4.80563">
        <ele>135.19999694824</ele>
        <time>2024-05-21T08:57:41.000Z</time>
      </trkpt>
      <trkpt lat="45.23754" lon="4.80559">
        <ele>135.39999389648</ele>
        <time>2024-05-21T08:57:42.000Z</time>
      </trkpt>
      <trkpt lat="45.23749" lon="4.80556">
        <ele>135.39999389648</ele>
        <time>2024-05-21T08:57:43.000Z</time>
      </trkpt>
      <trkpt lat="45.23745" lon="4.80552">
        <ele>135.39999389648</ele>
        <time>2024-05-21T08:57:44.000Z</time>
      </trkpt>
      <trkpt lat="45.23741" lon="4.80549">
        <ele>135.39999389648</ele>
        <time>2024-05-21T08:57:45.000Z</time>
      </trkpt>
      <trkpt lat="45.23737" lon="4.80545">
        <ele>135.60000610352</ele>
        <time>2024-05-21T08:57:46.000Z</time>
      </trkpt>
      <trkpt lat="45.23732" lon="4.80541">
        <ele>135.60000610352</ele>
        <time>2024-05-21T08:57:47.000Z</time>
      </trkpt>
      <trkpt lat="45.23727" lon="4.80536">
        <ele>135.60000610352</ele>
        <time>2024-05-21T08:57:48.000Z</time>
      </trkpt>
      <trkpt lat="45.23722" lon="4.80532">
        <ele>135.60000610352</ele>
        <time>2024-05-21T08:57:49.000Z</time>
      </trkpt>
      <trkpt lat="45.23716" lon="4.80529">
        <ele>135.60000610352</ele>
        <time>2024-05-21T08:57:50.000Z</time>
      </trkpt>
      <trkpt lat="45.23712" lon="4.80527">
        <ele>135.60000610352</ele>
        <time>2024-05-21T08:57:51.000Z</time>
      </trkpt>
      <trkpt lat="45.23706" lon="4.80524">
        <ele>135.60000610352</ele>
        <time>2024-05-21T08:57:52.000Z</time>
      </trkpt>
      <trkpt lat="45.23701" lon="4.80521">
        <ele>135.60000610352</ele>
        <time>2024-05-21T08:57:53.000Z</time>
      </trkpt>
      <trkpt lat="45.23694" lon="4.80517">
        <ele>135.60000610352</ele>
        <time>2024-05-21T08:57:54.000Z</time>
      </trkpt>
      <trkpt lat="45.23689" lon="4.80514">
        <ele>135.60000610352</ele>
        <time>2024-05-21T08:57:55.000Z</time>
      </trkpt>
      <trkpt lat="45.23684" lon="4.80512">
        <ele>135.60000610352</ele>
        <time>2024-05-21T08:57:56.000Z</time>
      </trkpt>
      <trkpt lat="45.23679" lon="4.80511">
        <ele>135.60000610352</ele>
        <time>2024-05-21T08:57:57.000Z</time>
      </trkpt>
      <trkpt lat="45.23673" lon="4.8051">
        <ele>135.60000610352</ele>
        <time>2024-05-21T08:57:58.000Z</time>
      </trkpt>
      <trkpt lat="45.23668" lon="4.80509">
        <ele>135.60000610352</ele>
        <time>2024-05-21T08:57:59.000Z</time>
      </trkpt>
      <trkpt lat="45.23662" lon="4.80508">
        <ele>135.60000610352</ele>
        <time>2024-05-21T08:58:00.000Z</time>
      </trkpt>
      <trkpt lat="45.23656" lon="4.80507">
        <ele>135.60000610352</ele>
        <time>2024-05-21T08:58:01.000Z</time>
      </trkpt>
      <trkpt lat="45.23651" lon="4.80505">
        <ele>135.80000305176</ele>
        <time>2024-05-21T08:58:02.000Z</time>
      </trkpt>
      <trkpt lat="45.23645" lon="4.80504">
        <ele>135.80000305176</ele>
        <time>2024-05-21T08:58:03.000Z</time>
      </trkpt>
      <trkpt lat="45.23639" lon="4.80502">
        <ele>135.80000305176</ele>
        <time>2024-05-21T08:58:04.000Z</time>
      </trkpt>
      <trkpt lat="45.23634" lon="4.80501">
        <ele>135.80000305176</ele>
        <time>2024-05-21T08:58:05.000Z</time>
      </trkpt>
      <trkpt lat="45.23628" lon="4.805">
        <ele>135.80000305176</ele>
        <time>2024-05-21T08:58:06.000Z</time>
      </trkpt>
      <trkpt lat="45.23623" lon="4.80499">
        <ele>135.80000305176</ele>
        <time>2024-05-21T08:58:07.000Z</time>
      </trkpt>
      <trkpt lat="45.23616" lon="4.80497">
        <ele>135.80000305176</ele>
        <time>2024-05-21T08:58:08.000Z</time>
      </trkpt>
      <trkpt lat="45.23611" lon="4.80496">
        <ele>135.80000305176</ele>
        <time>2024-05-21T08:58:09.000Z</time>
      </trkpt>
      <trkpt lat="45.23605" lon="4.80495">
        <ele>135.80000305176</ele>
        <time>2024-05-21T08:58:10.000Z</time>
      </trkpt>
      <trkpt lat="45.236" lon="4.80494">
        <ele>135.80000305176</ele>
        <time>2024-05-21T08:58:11.000Z</time>
      </trkpt>
      <trkpt lat="45.23594" lon="4.80493">
        <ele>135.80000305176</ele>
        <time>2024-05-21T08:58:12.000Z</time>
      </trkpt>
      <trkpt lat="45.2359" lon="4.80491">
        <ele>135.80000305176</ele>
        <time>2024-05-21T08:58:13.000Z</time>
      </trkpt>
      <trkpt lat="45.23584" lon="4.8049">
        <ele>135.80000305176</ele>
        <time>2024-05-21T08:58:14.000Z</time>
      </trkpt>
      <trkpt lat="45.23577" lon="4.80488">
        <ele>136</ele>
        <time>2024-05-21T08:58:15.000Z</time>
      </trkpt>
      <trkpt lat="45.23572" lon="4.80487">
        <ele>136</ele>
        <time>2024-05-21T08:58:16.000Z</time>
      </trkpt>
      <trkpt lat="45.23566" lon="4.80486">
        <ele>136</ele>
        <time>2024-05-21T08:58:17.000Z</time>
      </trkpt>
      <trkpt lat="45.2356" lon="4.80484">
        <ele>136</ele>
        <time>2024-05-21T08:58:18.000Z</time>
      </trkpt>
      <trkpt lat="45.23554" lon="4.80483">
        <ele>136</ele>
        <time>2024-05-21T08:58:19.000Z</time>
      </trkpt>
      <trkpt lat="45.23549" lon="4.80482">
        <ele>136</ele>
        <time>2024-05-21T08:58:20.000Z</time>
      </trkpt>
      <trkpt lat="45.23544" lon="4.80481">
        <ele>136</ele>
        <time>2024-05-21T08:58:21.000Z</time>
      </trkpt>
      <trkpt lat="45.23539" lon="4.8048">
        <ele>136</ele>
        <time>2024-05-21T08:58:22.000Z</time>
      </trkpt>
      <trkpt lat="45.23534" lon="4.80479">
        <ele>136</ele>
        <time>2024-05-21T08:58:23.000Z</time>
      </trkpt>
      <trkpt lat="45.23528" lon="4.80477">
        <ele>136</ele>
        <time>2024-05-21T08:58:24.000Z</time>
      </trkpt>
      <trkpt lat="45.23523" lon="4.80474">
        <ele>136</ele>
        <time>2024-05-21T08:58:25.000Z</time>
      </trkpt>
      <trkpt lat="45.23518" lon="4.80472">
        <ele>136</ele>
        <time>2024-05-21T08:58:26.000Z</time>
      </trkpt>
      <trkpt lat="45.23513" lon="4.8047">
        <ele>136</ele>
        <time>2024-05-21T08:58:27.000Z</time>
      </trkpt>
      <trkpt lat="45.23505" lon="4.80468">
        <ele>136</ele>
        <time>2024-05-21T08:58:28.000Z</time>
      </trkpt>
      <trkpt lat="45.23499" lon="4.80466">
        <ele>136</ele>
        <time>2024-05-21T08:58:29.000Z</time>
      </trkpt>
      <trkpt lat="45.23494" lon="4.80465">
        <ele>136</ele>
        <time>2024-05-21T08:58:30.000Z</time>
      </trkpt>
      <trkpt lat="45.23487" lon="4.80463">
        <ele>135.80000305176</ele>
        <time>2024-05-21T08:58:31.000Z</time>
      </trkpt>
      <trkpt lat="45.23481" lon="4.80462">
        <ele>135.60000610352</ele>
        <time>2024-05-21T08:58:32.000Z</time>
      </trkpt>
      <trkpt lat="45.23475" lon="4.8046">
        <ele>135.60000610352</ele>
        <time>2024-05-21T08:58:33.000Z</time>
      </trkpt>
      <trkpt lat="45.2347" lon="4.80459">
        <ele>135.60000610352</ele>
        <time>2024-05-21T08:58:34.000Z</time>
      </trkpt>
      <trkpt lat="45.23464" lon="4.80457">
        <ele>135.39999389648</ele>
        <time>2024-05-21T08:58:35.000Z</time>
      </trkpt>
      <trkpt lat="45.23458" lon="4.80456">
        <ele>135.39999389648</ele>
        <time>2024-05-21T08:58:36.000Z</time>
      </trkpt>
      <trkpt lat="45.23452" lon="4.80453">
        <ele>135.39999389648</ele>
        <time>2024-05-21T08:58:37.000Z</time>
      </trkpt>
      <trkpt lat="45.23447" lon="4.80452">
        <ele>135.39999389648</ele>
        <time>2024-05-21T08:58:38.000Z</time>
      </trkpt>
      <trkpt lat="45.23441" lon="4.80451">
        <ele>135.39999389648</ele>
        <time>2024-05-21T08:58:39.000Z</time>
      </trkpt>
      <trkpt lat="45.23435" lon="4.8045">
        <ele>135.39999389648</ele>
        <time>2024-05-21T08:58:40.000Z</time>
      </trkpt>
      <trkpt lat="45.23429" lon="4.80449">
        <ele>135.39999389648</ele>
        <time>2024-05-21T08:58:41.000Z</time>
      </trkpt>
      <trkpt lat="45.23423" lon="4.80447">
        <ele>135.39999389648</ele>
        <time>2024-05-21T08:58:42.000Z</time>
      </trkpt>
      <trkpt lat="45.23417" lon="4.80446">
        <ele>135.19999694824</ele>
        <time>2024-05-21T08:58:43.000Z</time>
      </trkpt>
      <trkpt lat="45.23411" lon="4.80443">
        <ele>135.19999694824</ele>
        <time>2024-05-21T08:58:44.000Z</time>
      </trkpt>
      <trkpt lat="45.23405" lon="4.80441">
        <ele>135.19999694824</ele>
        <time>2024-05-21T08:58:45.000Z</time>
      </trkpt>
      <trkpt lat="45.234" lon="4.80439">
        <ele>135.19999694824</ele>
        <time>2024-05-21T08:58:46.000Z</time>
      </trkpt>
      <trkpt lat="45.23394" lon="4.80437">
        <ele>135.19999694824</ele>
        <time>2024-05-21T08:58:47.000Z</time>
      </trkpt>
      <trkpt lat="45.23389" lon="4.80436">
        <ele>135</ele>
        <time>2024-05-21T08:58:48.000Z</time>
      </trkpt>
      <trkpt lat="45.23383" lon="4.80434">
        <ele>135</ele>
        <time>2024-05-21T08:58:49.000Z</time>
      </trkpt>
      <trkpt lat="45.23377" lon="4.80432">
        <ele>134.80000305176</ele>
        <time>2024-05-21T08:58:50.000Z</time>
      </trkpt>
      <trkpt lat="45.23372" lon="4.8043">
        <ele>134.60000610352</ele>
        <time>2024-05-21T08:58:51.000Z</time>
      </trkpt>
      <trkpt lat="45.23366" lon="4.80429">
        <ele>134.60000610352</ele>
        <time>2024-05-21T08:58:52.000Z</time>
      </trkpt>
      <trkpt lat="45.23362" lon="4.80427">
        <ele>134.39999389648</ele>
        <time>2024-05-21T08:58:53.000Z</time>
      </trkpt>
      <trkpt lat="45.23358" lon="4.80426">
        <ele>134.39999389648</ele>
        <time>2024-05-21T08:58:54.000Z</time>
      </trkpt>
      <trkpt lat="45.23356" lon="4.80425">
        <ele>134.39999389648</ele>
        <time>2024-05-21T08:58:55.000Z</time>
      </trkpt>
      <trkpt lat="45.23355" lon="4.80424">
        <ele>134.39999389648</ele>
        <time>2024-05-21T08:58:56.000Z</time>
      </trkpt>
      <trkpt lat="45.23355" lon="4.80424">
        <ele>134.60000610352</ele>
        <time>2024-05-21T08:58:57.000Z</time>
      </trkpt>
      <trkpt lat="45.23355" lon="4.80424">
        <ele>134.60000610352</ele>
        <time>2024-05-21T08:58:58.000Z</time>
      </trkpt>
      <trkpt lat="45.23355" lon="4.80424">
        <ele>135</ele>
        <time>2024-05-21T08:58:59.000Z</time>
      </trkpt>
      <trkpt lat="45.2335" lon="4.80424">
        <ele>134</ele>
        <time>2024-05-21T09:00:02.000Z</time>
      </trkpt>
      <trkpt lat="45.23348" lon="4.80424">
        <ele>134</ele>
        <time>2024-05-21T09:00:03.000Z</time>
      </trkpt>
      <trkpt lat="45.23346" lon="4.80424">
        <ele>134</ele>
        <time>2024-05-21T09:00:04.000Z</time>
      </trkpt>
      <trkpt lat="45.23343" lon="4.80424">
        <ele>133.80000305176</ele>
        <time>2024-05-21T09:00:05.000Z</time>
      </trkpt>
      <trkpt lat="45.2334" lon="4.80424">
        <ele>133.80000305176</ele>
        <time>2024-05-21T09:00:06.000Z</time>
      </trkpt>
      <trkpt lat="45.23337" lon="4.80423">
        <ele>133.60000610352</ele>
        <time>2024-05-21T09:00:07.000Z</time>
      </trkpt>
      <trkpt lat="45.23334" lon="4.80423">
        <ele>133.60000610352</ele>
        <time>2024-05-21T09:00:08.000Z</time>
      </trkpt>
      <trkpt lat="45.2333" lon="4.80422">
        <ele>133.60000610352</ele>
        <time>2024-05-21T09:00:09.000Z</time>
      </trkpt>
      <trkpt lat="45.23325" lon="4.80422">
        <ele>133.60000610352</ele>
        <time>2024-05-21T09:00:10.000Z</time>
      </trkpt>
      <trkpt lat="45.23321" lon="4.80422">
        <ele>133.39999389648</ele>
        <time>2024-05-21T09:00:11.000Z</time>
      </trkpt>
      <trkpt lat="45.23316" lon="4.80422">
        <ele>133.19999694824</ele>
        <time>2024-05-21T09:00:12.000Z</time>
      </trkpt>
      <trkpt lat="45.23311" lon="4.80422">
        <ele>133.19999694824</ele>
        <time>2024-05-21T09:00:13.000Z</time>
      </trkpt>
      <trkpt lat="45.23306" lon="4.80422">
        <ele>133</ele>
        <time>2024-05-21T09:00:14.000Z</time>
      </trkpt>
      <trkpt lat="45.23301" lon="4.80423">
        <ele>132.80000305176</ele>
        <time>2024-05-21T09:00:15.000Z</time>
      </trkpt>
      <trkpt lat="45.23296" lon="4.80424">
        <ele>132.60000610352</ele>
        <time>2024-05-21T09:00:16.000Z</time>
      </trkpt>
      <trkpt lat="45.23291" lon="4.80425">
        <ele>132.39999389648</ele>
        <time>2024-05-21T09:00:17.000Z</time>
      </trkpt>
      <trkpt lat="45.23287" lon="4.80428">
        <ele>132.39999389648</ele>
        <time>2024-05-21T09:00:18.000Z</time>
      </trkpt>
      <trkpt lat="45.23282" lon="4.8043">
        <ele>132.39999389648</ele>
        <time>2024-05-21T09:00:19.000Z</time>
      </trkpt>
      <trkpt lat="45.23278" lon="4.80433">
        <ele>132.39999389648</ele>
        <time>2024-05-21T09:00:20.000Z</time>
      </trkpt>
      <trkpt lat="45.23274" lon="4.80435">
        <ele>132.39999389648</ele>
        <time>2024-05-21T09:00:21.000Z</time>
      </trkpt>
      <trkpt lat="45.2327" lon="4.80436">
        <ele>132.39999389648</ele>
        <time>2024-05-21T09:00:22.000Z</time>
      </trkpt>
      <trkpt lat="45.23266" lon="4.80438">
        <ele>132.80000305176</ele>
        <time>2024-05-21T09:00:23.000Z</time>
      </trkpt>
      <trkpt lat="45.23262" lon="4.8044">
        <ele>132.80000305176</ele>
        <time>2024-05-21T09:00:24.000Z</time>
      </trkpt>
      <trkpt lat="45.23257" lon="4.8044">
        <ele>133</ele>
        <time>2024-05-21T09:00:25.000Z</time>
      </trkpt>
      <trkpt lat="45.23253" lon="4.80441">
        <ele>133</ele>
        <time>2024-05-21T09:00:26.000Z</time>
      </trkpt>
      <trkpt lat="45.23248" lon="4.80441">
        <ele>133.19999694824</ele>
        <time>2024-05-21T09:00:27.000Z</time>
      </trkpt>
      <trkpt lat="45.23243" lon="4.8044">
        <ele>133.19999694824</ele>
        <time>2024-05-21T09:00:28.000Z</time>
      </trkpt>
      <trkpt lat="45.23238" lon="4.8044">
        <ele>133.19999694824</ele>
        <time>2024-05-21T09:00:29.000Z</time>
      </trkpt>
      <trkpt lat="45.23233" lon="4.8044">
        <ele>133.19999694824</ele>
        <time>2024-05-21T09:00:30.000Z</time>
      </trkpt>
      <trkpt lat="45.23227" lon="4.80441">
        <ele>133.19999694824</ele>
        <time>2024-05-21T09:00:31.000Z</time>
      </trkpt>
      <trkpt lat="45.23222" lon="4.80441">
        <ele>133</ele>
        <time>2024-05-21T09:00:32.000Z</time>
      </trkpt>
      <trkpt lat="45.23218" lon="4.8044">
        <ele>133</ele>
        <time>2024-05-21T09:00:33.000Z</time>
      </trkpt>
      <trkpt lat="45.23213" lon="4.80438">
        <ele>133</ele>
        <time>2024-05-21T09:00:34.000Z</time>
      </trkpt>
      <trkpt lat="45.23207" lon="4.80438">
        <ele>133</ele>
        <time>2024-05-21T09:00:35.000Z</time>
      </trkpt>
      <trkpt lat="45.23201" lon="4.80436">
        <ele>133</ele>
        <time>2024-05-21T09:00:36.000Z</time>
      </trkpt>
      <trkpt lat="45.23196" lon="4.80436">
        <ele>133</ele>
        <time>2024-05-21T09:00:37.000Z</time>
      </trkpt>
      <trkpt lat="45.2319" lon="4.80435">
        <ele>133.19999694824</ele>
        <time>2024-05-21T09:00:38.000Z</time>
      </trkpt>
      <trkpt lat="45.23184" lon="4.80435">
        <ele>133.19999694824</ele>
        <time>2024-05-21T09:00:39.000Z</time>
      </trkpt>
      <trkpt lat="45.23179" lon="4.80435">
        <ele>133.19999694824</ele>
        <time>2024-05-21T09:00:40.000Z</time>
      </trkpt>
      <trkpt lat="45.23174" lon="4.80435">
        <ele>133.19999694824</ele>
        <time>2024-05-21T09:00:41.000Z</time>
      </trkpt>
      <trkpt lat="45.23169" lon="4.80435">
        <ele>133.19999694824</ele>
        <time>2024-05-21T09:00:42.000Z</time>
      </trkpt>
      <trkpt lat="45.23163" lon="4.80435">
        <ele>133.19999694824</ele>
        <time>2024-05-21T09:00:43.000Z</time>
      </trkpt>
      <trkpt lat="45.23158" lon="4.80435">
        <ele>133.19999694824</ele>
        <time>2024-05-21T09:00:44.000Z</time>
      </trkpt>
      <trkpt lat="45.23151" lon="4.80434">
        <ele>133.19999694824</ele>
        <time>2024-05-21T09:00:45.000Z</time>
      </trkpt>
      <trkpt lat="45.23144" lon="4.80434">
        <ele>133.19999694824</ele>
        <time>2024-05-21T09:00:46.000Z</time>
      </trkpt>
      <trkpt lat="45.23137" lon="4.80433">
        <ele>133.19999694824</ele>
        <time>2024-05-21T09:00:47.000Z</time>
      </trkpt>
      <trkpt lat="45.23131" lon="4.80432">
        <ele>133.19999694824</ele>
        <time>2024-05-21T09:00:48.000Z</time>
      </trkpt>
      <trkpt lat="45.23124" lon="4.80432">
        <ele>133</ele>
        <time>2024-05-21T09:00:49.000Z</time>
      </trkpt>
      <trkpt lat="45.23117" lon="4.80431">
        <ele>133</ele>
        <time>2024-05-21T09:00:50.000Z</time>
      </trkpt>
      <trkpt lat="45.23111" lon="4.80429">
        <ele>133</ele>
        <time>2024-05-21T09:00:51.000Z</time>
      </trkpt>
      <trkpt lat="45.23104" lon="4.80427">
        <ele>133</ele>
        <time>2024-05-21T09:00:52.000Z</time>
      </trkpt>
      <trkpt lat="45.23098" lon="4.80426">
        <ele>132.60000610352</ele>
        <time>2024-05-21T09:00:53.000Z</time>
      </trkpt>
      <trkpt lat="45.23093" lon="4.80424">
        <ele>132.39999389648</ele>
        <time>2024-05-21T09:00:54.000Z</time>
      </trkpt>
      <trkpt lat="45.23086" lon="4.80423">
        <ele>132.39999389648</ele>
        <time>2024-05-21T09:00:55.000Z</time>
      </trkpt>
      <trkpt lat="45.2308" lon="4.80423">
        <ele>132.39999389648</ele>
        <time>2024-05-21T09:00:56.000Z</time>
      </trkpt>
      <trkpt lat="45.23074" lon="4.80424">
        <ele>132.39999389648</ele>
        <time>2024-05-21T09:00:57.000Z</time>
      </trkpt>
      <trkpt lat="45.23069" lon="4.80426">
        <ele>132.39999389648</ele>
        <time>2024-05-21T09:00:58.000Z</time>
      </trkpt>
      <trkpt lat="45.23064" lon="4.80426">
        <ele>132.39999389648</ele>
        <time>2024-05-21T09:00:59.000Z</time>
      </trkpt>
      <trkpt lat="45.2306" lon="4.80426">
        <ele>132.60000610352</ele>
        <time>2024-05-21T09:01:00.000Z</time>
      </trkpt>
      <trkpt lat="45.23056" lon="4.80425">
        <ele>133.19999694824</ele>
        <time>2024-05-21T09:01:01.000Z</time>
      </trkpt>
      <trkpt lat="45.23052" lon="4.80424">
        <ele>133.80000305176</ele>
        <time>2024-05-21T09:01:02.000Z</time>
      </trkpt>
      <trkpt lat="45.23048" lon="4.80423">
        <ele>134.19999694824</ele>
        <time>2024-05-21T09:01:03.000Z</time>
      </trkpt>
      <trkpt lat="45.23045" lon="4.80422">
        <ele>134.60000610352</ele>
        <time>2024-05-21T09:01:04.000Z</time>
      </trkpt>
      <trkpt lat="45.23041" lon="4.8042">
        <ele>134.60000610352</ele>
        <time>2024-05-21T09:01:05.000Z</time>
      </trkpt>
      <trkpt lat="45.23037" lon="4.80417">
        <ele>134.80000305176</ele>
        <time>2024-05-21T09:01:06.000Z</time>
      </trkpt>
      <trkpt lat="45.23032" lon="4.80415">
        <ele>135</ele>
        <time>2024-05-21T09:01:07.000Z</time>
      </trkpt>
      <trkpt lat="45.23028" lon="4.80413">
        <ele>135.19999694824</ele>
        <time>2024-05-21T09:01:08.000Z</time>
      </trkpt>
      <trkpt lat="45.23024" lon="4.80412">
        <ele>135.19999694824</ele>
        <time>2024-05-21T09:01:09.000Z</time>
      </trkpt>
      <trkpt lat="45.2302" lon="4.80411">
        <ele>135.19999694824</ele>
        <time>2024-05-21T09:01:10.000Z</time>
      </trkpt>
      <trkpt lat="45.23015" lon="4.8041">
        <ele>135.19999694824</ele>
        <time>2024-05-21T09:01:11.000Z</time>
      </trkpt>
      <trkpt lat="45.2301" lon="4.8041">
        <ele>135.19999694824</ele>
        <time>2024-05-21T09:01:12.000Z</time>
      </trkpt>
      <trkpt lat="45.23005" lon="4.80409">
        <ele>135.19999694824</ele>
        <time>2024-05-21T09:01:13.000Z</time>
      </trkpt>
      <trkpt lat="45.23" lon="4.80409">
        <ele>135</ele>
        <time>2024-05-21T09:01:14.000Z</time>
      </trkpt>
      <trkpt lat="45.22995" lon="4.80408">
        <ele>135</ele>
        <time>2024-05-21T09:01:15.000Z</time>
      </trkpt>
      <trkpt lat="45.22989" lon="4.80408">
        <ele>135</ele>
        <time>2024-05-21T09:01:16.000Z</time>
      </trkpt>
      <trkpt lat="45.22984" lon="4.80408">
        <ele>135</ele>
        <time>2024-05-21T09:01:17.000Z</time>
      </trkpt>
      <trkpt lat="45.22979" lon="4.80407">
        <ele>135</ele>
        <time>2024-05-21T09:01:18.000Z</time>
      </trkpt>
      <trkpt lat="45.22974" lon="4.80406">
        <ele>135</ele>
        <time>2024-05-21T09:01:19.000Z</time>
      </trkpt>
      <trkpt lat="45.22969" lon="4.80406">
        <ele>135</ele>
        <time>2024-05-21T09:01:20.000Z</time>
      </trkpt>
      <trkpt lat="45.22963" lon="4.80405">
        <ele>135</ele>
        <time>2024-05-21T09:01:21.000Z</time>
      </trkpt>
      <trkpt lat="45.22958" lon="4.80405">
        <ele>134.80000305176</ele>
        <time>2024-05-21T09:01:22.000Z</time>
      </trkpt>
      <trkpt lat="45.22952" lon="4.80405">
        <ele>134.80000305176</ele>
        <time>2024-05-21T09:01:23.000Z</time>
      </trkpt>
      <trkpt lat="45.22947" lon="4.80404">
        <ele>134.80000305176</ele>
        <time>2024-05-21T09:01:24.000Z</time>
      </trkpt>
      <trkpt lat="45.22941" lon="4.80405">
        <ele>134.80000305176</ele>
        <time>2024-05-21T09:01:25.000Z</time>
      </trkpt>
      <trkpt lat="45.22935" lon="4.80405">
        <ele>134.80000305176</ele>
        <time>2024-05-21T09:01:26.000Z</time>
      </trkpt>
      <trkpt lat="45.2293" lon="4.80405">
        <ele>134.80000305176</ele>
        <time>2024-05-21T09:01:27.000Z</time>
      </trkpt>
      <trkpt lat="45.22924" lon="4.80405">
        <ele>134.80000305176</ele>
        <time>2024-05-21T09:01:28.000Z</time>
      </trkpt>
      <trkpt lat="45.22919" lon="4.80405">
        <ele>134.80000305176</ele>
        <time>2024-05-21T09:01:29.000Z</time>
      </trkpt>
      <trkpt lat="45.22913" lon="4.80405">
        <ele>134.80000305176</ele>
        <time>2024-05-21T09:01:30.000Z</time>
      </trkpt>
      <trkpt lat="45.22907" lon="4.80406">
        <ele>134.80000305176</ele>
        <time>2024-05-21T09:01:31.000Z</time>
      </trkpt>
      <trkpt lat="45.22902" lon="4.80406">
        <ele>134.80000305176</ele>
        <time>2024-05-21T09:01:32.000Z</time>
      </trkpt>
      <trkpt lat="45.22896" lon="4.80407">
        <ele>134.80000305176</ele>
        <time>2024-05-21T09:01:33.000Z</time>
      </trkpt>
      <trkpt lat="45.2289" lon="4.80408">
        <ele>134.80000305176</ele>
        <time>2024-05-21T09:01:34.000Z</time>
      </trkpt>
      <trkpt lat="45.22884" lon="4.80408">
        <ele>134.80000305176</ele>
        <time>2024-05-21T09:01:35.000Z</time>
      </trkpt>
      <trkpt lat="45.22878" lon="4.80409">
        <ele>134.80000305176</ele>
        <time>2024-05-21T09:01:36.000Z</time>
      </trkpt>
      <trkpt lat="45.22872" lon="4.8041">
        <ele>134.80000305176</ele>
        <time>2024-05-21T09:01:37.000Z</time>
      </trkpt>
      <trkpt lat="45.22866" lon="4.8041">
        <ele>134.80000305176</ele>
        <time>2024-05-21T09:01:38.000Z</time>
      </trkpt>
      <trkpt lat="45.2286" lon="4.8041">
        <ele>134.80000305176</ele>
        <time>2024-05-21T09:01:39.000Z</time>
      </trkpt>
      <trkpt lat="45.22854" lon="4.80411">
        <ele>134.80000305176</ele>
        <time>2024-05-21T09:01:40.000Z</time>
      </trkpt>
      <trkpt lat="45.22849" lon="4.80412">
        <ele>134.80000305176</ele>
        <time>2024-05-21T09:01:41.000Z</time>
      </trkpt>
      <trkpt lat="45.22843" lon="4.80414">
        <ele>134.80000305176</ele>
        <time>2024-05-21T09:01:42.000Z</time>
      </trkpt>
      <trkpt lat="45.22837" lon="4.80415">
        <ele>134.80000305176</ele>
        <time>2024-05-21T09:01:43.000Z</time>
      </trkpt>
      <trkpt lat="45.22831" lon="4.80416">
        <ele>134.80000305176</ele>
        <time>2024-05-21T09:01:44.000Z</time>
      </trkpt>
      <trkpt lat="45.22826" lon="4.80418">
        <ele>134.80000305176</ele>
        <time>2024-05-21T09:01:45.000Z</time>
      </trkpt>
      <trkpt lat="45.2282" lon="4.80419">
        <ele>135</ele>
        <time>2024-05-21T09:01:46.000Z</time>
      </trkpt>
      <trkpt lat="45.22814" lon="4.80421">
        <ele>135</ele>
        <time>2024-05-21T09:01:47.000Z</time>
      </trkpt>
      <trkpt lat="45.22808" lon="4.80422">
        <ele>135</ele>
        <time>2024-05-21T09:01:48.000Z</time>
      </trkpt>
      <trkpt lat="45.22803" lon="4.80423">
        <ele>135</ele>
        <time>2024-05-21T09:01:49.000Z</time>
      </trkpt>
      <trkpt lat="45.22797" lon="4.80425">
        <ele>135</ele>
        <time>2024-05-21T09:01:50.000Z</time>
      </trkpt>
      <trkpt lat="45.22792" lon="4.80426">
        <ele>135</ele>
        <time>2024-05-21T09:01:51.000Z</time>
      </trkpt>
      <trkpt lat="45.22786" lon="4.80428">
        <ele>135</ele>
        <time>2024-05-21T09:01:52.000Z</time>
      </trkpt>
      <trkpt lat="45.22781" lon="4.8043">
        <ele>135.19999694824</ele>
        <time>2024-05-21T09:01:53.000Z</time>
      </trkpt>
      <trkpt lat="45.22775" lon="4.80432">
        <ele>135</ele>
        <time>2024-05-21T09:01:54.000Z</time>
      </trkpt>
      <trkpt lat="45.22769" lon="4.80434">
        <ele>135</ele>
        <time>2024-05-21T09:01:55.000Z</time>
      </trkpt>
      <trkpt lat="45.22763" lon="4.80436">
        <ele>135</ele>
        <time>2024-05-21T09:01:56.000Z</time>
      </trkpt>
      <trkpt lat="45.22758" lon="4.80439">
        <ele>135</ele>
        <time>2024-05-21T09:01:57.000Z</time>
      </trkpt>
      <trkpt lat="45.22752" lon="4.80441">
        <ele>135</ele>
        <time>2024-05-21T09:01:58.000Z</time>
      </trkpt>
      <trkpt lat="45.22746" lon="4.80443">
        <ele>135</ele>
        <time>2024-05-21T09:01:59.000Z</time>
      </trkpt>
      <trkpt lat="45.2274" lon="4.80445">
        <ele>135</ele>
        <time>2024-05-21T09:02:00.000Z</time>
      </trkpt>
      <trkpt lat="45.22734" lon="4.80447">
        <ele>135</ele>
        <time>2024-05-21T09:02:01.000Z</time>
      </trkpt>
      <trkpt lat="45.22728" lon="4.80449">
        <ele>135</ele>
        <time>2024-05-21T09:02:02.000Z</time>
      </trkpt>
      <trkpt lat="45.22722" lon="4.80452">
        <ele>135</ele>
        <time>2024-05-21T09:02:03.000Z</time>
      </trkpt>
      <trkpt lat="45.22715" lon="4.80454">
        <ele>135</ele>
        <time>2024-05-21T09:02:04.000Z</time>
      </trkpt>
      <trkpt lat="45.2271" lon="4.80456">
        <ele>135</ele>
        <time>2024-05-21T09:02:05.000Z</time>
      </trkpt>
      <trkpt lat="45.22705" lon="4.80458">
        <ele>135</ele>
        <time>2024-05-21T09:02:06.000Z</time>
      </trkpt>
      <trkpt lat="45.22699" lon="4.8046">
        <ele>135</ele>
        <time>2024-05-21T09:02:07.000Z</time>
      </trkpt>
      <trkpt lat="45.22692" lon="4.80462">
        <ele>135</ele>
        <time>2024-05-21T09:02:08.000Z</time>
      </trkpt>
      <trkpt lat="45.22687" lon="4.80464">
        <ele>135</ele>
        <time>2024-05-21T09:02:09.000Z</time>
      </trkpt>
      <trkpt lat="45.22679" lon="4.80466">
        <ele>135</ele>
        <time>2024-05-21T09:02:10.000Z</time>
      </trkpt>
      <trkpt lat="45.22674" lon="4.80468">
        <ele>135</ele>
        <time>2024-05-21T09:02:11.000Z</time>
      </trkpt>
      <trkpt lat="45.22669" lon="4.8047">
        <ele>135</ele>
        <time>2024-05-21T09:02:12.000Z</time>
      </trkpt>
      <trkpt lat="45.22663" lon="4.80472">
        <ele>135</ele>
        <time>2024-05-21T09:02:13.000Z</time>
      </trkpt>
      <trkpt lat="45.22657" lon="4.80475">
        <ele>134.80000305176</ele>
        <time>2024-05-21T09:02:14.000Z</time>
      </trkpt>
      <trkpt lat="45.22651" lon="4.80478">
        <ele>134.60000610352</ele>
        <time>2024-05-21T09:02:15.000Z</time>
      </trkpt>
      <trkpt lat="45.22646" lon="4.8048">
        <ele>134.60000610352</ele>
        <time>2024-05-21T09:02:16.000Z</time>
      </trkpt>
      <trkpt lat="45.2264" lon="4.80483">
        <ele>134.60000610352</ele>
        <time>2024-05-21T09:02:17.000Z</time>
      </trkpt>
      <trkpt lat="45.22635" lon="4.80485">
        <ele>134.60000610352</ele>
        <time>2024-05-21T09:02:18.000Z</time>
      </trkpt>
      <trkpt lat="45.22629" lon="4.80488">
        <ele>134.60000610352</ele>
        <time>2024-05-21T09:02:19.000Z</time>
      </trkpt>
      <trkpt lat="45.22623" lon="4.8049">
        <ele>134.39999389648</ele>
        <time>2024-05-21T09:02:20.000Z</time>
      </trkpt>
      <trkpt lat="45.22617" lon="4.80492">
        <ele>134.19999694824</ele>
        <time>2024-05-21T09:02:21.000Z</time>
      </trkpt>
      <trkpt lat="45.22611" lon="4.80494">
        <ele>134.19999694824</ele>
        <time>2024-05-21T09:02:22.000Z</time>
      </trkpt>
      <trkpt lat="45.22606" lon="4.80497">
        <ele>134.19999694824</ele>
        <time>2024-05-21T09:02:23.000Z</time>
      </trkpt>
      <trkpt lat="45.226" lon="4.80499">
        <ele>134.19999694824</ele>
        <time>2024-05-21T09:02:24.000Z</time>
      </trkpt>
      <trkpt lat="45.22594" lon="4.80503">
        <ele>134.19999694824</ele>
        <time>2024-05-21T09:02:25.000Z</time>
      </trkpt>
      <trkpt lat="45.22589" lon="4.80506">
        <ele>134.19999694824</ele>
        <time>2024-05-21T09:02:26.000Z</time>
      </trkpt>
      <trkpt lat="45.22583" lon="4.8051">
        <ele>134.19999694824</ele>
        <time>2024-05-21T09:02:27.000Z</time>
      </trkpt>
      <trkpt lat="45.22579" lon="4.80513">
        <ele>134</ele>
        <time>2024-05-21T09:02:28.000Z</time>
      </trkpt>
      <trkpt lat="45.22574" lon="4.80517">
        <ele>134</ele>
        <time>2024-05-21T09:02:29.000Z</time>
      </trkpt>
      <trkpt lat="45.22568" lon="4.8052">
        <ele>134.19999694824</ele>
        <time>2024-05-21T09:02:30.000Z</time>
      </trkpt>
      <trkpt lat="45.22561" lon="4.80524">
        <ele>134.19999694824</ele>
        <time>2024-05-21T09:02:31.000Z</time>
      </trkpt>
      <trkpt lat="45.22556" lon="4.80527">
        <ele>134</ele>
        <time>2024-05-21T09:02:32.000Z</time>
      </trkpt>
      <trkpt lat="45.2255" lon="4.80529">
        <ele>134</ele>
        <time>2024-05-21T09:02:33.000Z</time>
      </trkpt>
      <trkpt lat="45.22544" lon="4.80532">
        <ele>134</ele>
        <time>2024-05-21T09:02:34.000Z</time>
      </trkpt>
      <trkpt lat="45.22537" lon="4.80534">
        <ele>134</ele>
        <time>2024-05-21T09:02:35.000Z</time>
      </trkpt>
      <trkpt lat="45.22531" lon="4.80537">
        <ele>134</ele>
        <time>2024-05-21T09:02:36.000Z</time>
      </trkpt>
      <trkpt lat="45.22525" lon="4.8054">
        <ele>133.80000305176</ele>
        <time>2024-05-21T09:02:37.000Z</time>
      </trkpt>
      <trkpt lat="45.22519" lon="4.80543">
        <ele>133.80000305176</ele>
        <time>2024-05-21T09:02:38.000Z</time>
      </trkpt>
      <trkpt lat="45.22514" lon="4.80546">
        <ele>133.60000610352</ele>
        <time>2024-05-21T09:02:39.000Z</time>
      </trkpt>
      <trkpt lat="45.22508" lon="4.8055">
        <ele>133.60000610352</ele>
        <time>2024-05-21T09:02:40.000Z</time>
      </trkpt>
      <trkpt lat="45.22502" lon="4.80553">
        <ele>133.60000610352</ele>
        <time>2024-05-21T09:02:41.000Z</time>
      </trkpt>
      <trkpt lat="45.22496" lon="4.80557">
        <ele>133.60000610352</ele>
        <time>2024-05-21T09:02:42.000Z</time>
      </trkpt>
      <trkpt lat="45.22491" lon="4.80561">
        <ele>133.60000610352</ele>
        <time>2024-05-21T09:02:43.000Z</time>
      </trkpt>
      <trkpt lat="45.22485" lon="4.80564">
        <ele>133.60000610352</ele>
        <time>2024-05-21T09:02:44.000Z</time>
      </trkpt>
      <trkpt lat="45.22479" lon="4.80567">
        <ele>133.80000305176</ele>
        <time>2024-05-21T09:02:45.000Z</time>
      </trkpt>
      <trkpt lat="45.22473" lon="4.8057">
        <ele>133.80000305176</ele>
        <time>2024-05-21T09:02:46.000Z</time>
      </trkpt>
      <trkpt lat="45.22469" lon="4.80573">
        <ele>133.80000305176</ele>
        <time>2024-05-21T09:02:47.000Z</time>
      </trkpt>
      <trkpt lat="45.22462" lon="4.80577">
        <ele>133.80000305176</ele>
        <time>2024-05-21T09:02:48.000Z</time>
      </trkpt>
      <trkpt lat="45.22456" lon="4.8058">
        <ele>133.80000305176</ele>
        <time>2024-05-21T09:02:49.000Z</time>
      </trkpt>
      <trkpt lat="45.2245" lon="4.80583">
        <ele>133.80000305176</ele>
        <time>2024-05-21T09:02:50.000Z</time>
      </trkpt>
      <trkpt lat="45.22445" lon="4.80586">
        <ele>133.80000305176</ele>
        <time>2024-05-21T09:02:51.000Z</time>
      </trkpt>
      <trkpt lat="45.22439" lon="4.80589">
        <ele>133.80000305176</ele>
        <time>2024-05-21T09:02:52.000Z</time>
      </trkpt>
      <trkpt lat="45.22433" lon="4.80593">
        <ele>133.80000305176</ele>
        <time>2024-05-21T09:02:53.000Z</time>
      </trkpt>
      <trkpt lat="45.22427" lon="4.80596">
        <ele>133.80000305176</ele>
        <time>2024-05-21T09:02:54.000Z</time>
      </trkpt>
      <trkpt lat="45.22422" lon="4.80598">
        <ele>133.60000610352</ele>
        <time>2024-05-21T09:02:55.000Z</time>
      </trkpt>
      <trkpt lat="45.22416" lon="4.80601">
        <ele>133.60000610352</ele>
        <time>2024-05-21T09:02:56.000Z</time>
      </trkpt>
      <trkpt lat="45.2241" lon="4.80604">
        <ele>133.39999389648</ele>
        <time>2024-05-21T09:02:57.000Z</time>
      </trkpt>
      <trkpt lat="45.22405" lon="4.80608">
        <ele>133.39999389648</ele>
        <time>2024-05-21T09:02:58.000Z</time>
      </trkpt>
      <trkpt lat="45.22399" lon="4.80611">
        <ele>133.39999389648</ele>
        <time>2024-05-21T09:02:59.000Z</time>
      </trkpt>
      <trkpt lat="45.22393" lon="4.80614">
        <ele>133.39999389648</ele>
        <time>2024-05-21T09:03:00.000Z</time>
      </trkpt>
      <trkpt lat="45.22387" lon="4.80618">
        <ele>133.39999389648</ele>
        <time>2024-05-21T09:03:01.000Z</time>
      </trkpt>
      <trkpt lat="45.22381" lon="4.80621">
        <ele>133.39999389648</ele>
        <time>2024-05-21T09:03:02.000Z</time>
      </trkpt>
      <trkpt lat="45.22376" lon="4.80623">
        <ele>133.39999389648</ele>
        <time>2024-05-21T09:03:03.000Z</time>
      </trkpt>
      <trkpt lat="45.22369" lon="4.80627">
        <ele>133.39999389648</ele>
        <time>2024-05-21T09:03:04.000Z</time>
      </trkpt>
      <trkpt lat="45.22363" lon="4.80631">
        <ele>133.19999694824</ele>
        <time>2024-05-21T09:03:05.000Z</time>
      </trkpt>
      <trkpt lat="45.22357" lon="4.80634">
        <ele>133</ele>
        <time>2024-05-21T09:03:06.000Z</time>
      </trkpt>
      <trkpt lat="45.22351" lon="4.80637">
        <ele>133</ele>
        <time>2024-05-21T09:03:07.000Z</time>
      </trkpt>
      <trkpt lat="45.22345" lon="4.8064">
        <ele>132.80000305176</ele>
        <time>2024-05-21T09:03:08.000Z</time>
      </trkpt>
      <trkpt lat="45.22339" lon="4.80642">
        <ele>132.80000305176</ele>
        <time>2024-05-21T09:03:09.000Z</time>
      </trkpt>
      <trkpt lat="45.22335" lon="4.80644">
        <ele>132.80000305176</ele>
        <time>2024-05-21T09:03:10.000Z</time>
      </trkpt>
      <trkpt lat="45.22328" lon="4.80648">
        <ele>132.80000305176</ele>
        <time>2024-05-21T09:03:11.000Z</time>
      </trkpt>
      <trkpt lat="45.22322" lon="4.80651">
        <ele>132.80000305176</ele>
        <time>2024-05-21T09:03:12.000Z</time>
      </trkpt>
      <trkpt lat="45.22315" lon="4.80655">
        <ele>132.60000610352</ele>
        <time>2024-05-21T09:03:13.000Z</time>
      </trkpt>
      <trkpt lat="45.22309" lon="4.80658">
        <ele>132.60000610352</ele>
        <time>2024-05-21T09:03:14.000Z</time>
      </trkpt>
      <trkpt lat="45.22303" lon="4.80662">
        <ele>132.60000610352</ele>
        <time>2024-05-21T09:03:15.000Z</time>
      </trkpt>
      <trkpt lat="45.22296" lon="4.80665">
        <ele>132.60000610352</ele>
        <time>2024-05-21T09:03:16.000Z</time>
      </trkpt>
      <trkpt lat="45.2229" lon="4.80668">
        <ele>132.19999694824</ele>
        <time>2024-05-21T09:03:17.000Z</time>
      </trkpt>
      <trkpt lat="45.22284" lon="4.80671">
        <ele>132.19999694824</ele>
        <time>2024-05-21T09:03:18.000Z</time>
      </trkpt>
      <trkpt lat="45.22278" lon="4.80674">
        <ele>132.19999694824</ele>
        <time>2024-05-21T09:03:19.000Z</time>
      </trkpt>
      <trkpt lat="45.22272" lon="4.80677">
        <ele>132.19999694824</ele>
        <time>2024-05-21T09:03:20.000Z</time>
      </trkpt>
      <trkpt lat="45.22266" lon="4.8068">
        <ele>132.19999694824</ele>
        <time>2024-05-21T09:03:21.000Z</time>
      </trkpt>
      <trkpt lat="45.22261" lon="4.80682">
        <ele>132.19999694824</ele>
        <time>2024-05-21T09:03:22.000Z</time>
      </trkpt>
      <trkpt lat="45.22254" lon="4.80686">
        <ele>132.19999694824</ele>
        <time>2024-05-21T09:03:23.000Z</time>
      </trkpt>
      <trkpt lat="45.22249" lon="4.80688">
        <ele>132.39999389648</ele>
        <time>2024-05-21T09:03:24.000Z</time>
      </trkpt>
      <trkpt lat="45.22244" lon="4.8069">
        <ele>132.39999389648</ele>
        <time>2024-05-21T09:03:25.000Z</time>
      </trkpt>
      <trkpt lat="45.22238" lon="4.80694">
        <ele>132.60000610352</ele>
        <time>2024-05-21T09:03:26.000Z</time>
      </trkpt>
      <trkpt lat="45.22232" lon="4.80696">
        <ele>132.60000610352</ele>
        <time>2024-05-21T09:03:27.000Z</time>
      </trkpt>
      <trkpt lat="45.22226" lon="4.80699">
        <ele>132.60000610352</ele>
        <time>2024-05-21T09:03:28.000Z</time>
      </trkpt>
      <trkpt lat="45.2222" lon="4.80703">
        <ele>132.60000610352</ele>
        <time>2024-05-21T09:03:29.000Z</time>
      </trkpt>
      <trkpt lat="45.22215" lon="4.80705">
        <ele>132.60000610352</ele>
        <time>2024-05-21T09:03:30.000Z</time>
      </trkpt>
      <trkpt lat="45.22208" lon="4.80708">
        <ele>132.60000610352</ele>
        <time>2024-05-21T09:03:31.000Z</time>
      </trkpt>
      <trkpt lat="45.22202" lon="4.80711">
        <ele>132.39999389648</ele>
        <time>2024-05-21T09:03:32.000Z</time>
      </trkpt>
      <trkpt lat="45.22197" lon="4.80714">
        <ele>132.39999389648</ele>
        <time>2024-05-21T09:03:33.000Z</time>
      </trkpt>
      <trkpt lat="45.2219" lon="4.80716">
        <ele>132.19999694824</ele>
        <time>2024-05-21T09:03:34.000Z</time>
      </trkpt>
      <trkpt lat="45.22184" lon="4.80719">
        <ele>132.19999694824</ele>
        <time>2024-05-21T09:03:35.000Z</time>
      </trkpt>
      <trkpt lat="45.22178" lon="4.80721">
        <ele>132.19999694824</ele>
        <time>2024-05-21T09:03:36.000Z</time>
      </trkpt>
      <trkpt lat="45.22173" lon="4.80724">
        <ele>132.19999694824</ele>
        <time>2024-05-21T09:03:37.000Z</time>
      </trkpt>
      <trkpt lat="45.22168" lon="4.80726">
        <ele>132.19999694824</ele>
        <time>2024-05-21T09:03:38.000Z</time>
      </trkpt>
      <trkpt lat="45.22161" lon="4.80728">
        <ele>132.19999694824</ele>
        <time>2024-05-21T09:03:39.000Z</time>
      </trkpt>
      <trkpt lat="45.22155" lon="4.8073">
        <ele>132</ele>
        <time>2024-05-21T09:03:40.000Z</time>
      </trkpt>
      <trkpt lat="45.2215" lon="4.80732">
        <ele>132</ele>
        <time>2024-05-21T09:03:41.000Z</time>
      </trkpt>
      <trkpt lat="45.22144" lon="4.80734">
        <ele>132</ele>
        <time>2024-05-21T09:03:42.000Z</time>
      </trkpt>
      <trkpt lat="45.22139" lon="4.80735">
        <ele>131.80000305176</ele>
        <time>2024-05-21T09:03:43.000Z</time>
      </trkpt>
      <trkpt lat="45.22133" lon="4.80738">
        <ele>131.80000305176</ele>
        <time>2024-05-21T09:03:44.000Z</time>
      </trkpt>
      <trkpt lat="45.22127" lon="4.80741">
        <ele>131.60000610352</ele>
        <time>2024-05-21T09:03:45.000Z</time>
      </trkpt>
      <trkpt lat="45.22122" lon="4.80745">
        <ele>131.39999389648</ele>
        <time>2024-05-21T09:03:46.000Z</time>
      </trkpt>
      <trkpt lat="45.22115" lon="4.80748">
        <ele>131.39999389648</ele>
        <time>2024-05-21T09:03:47.000Z</time>
      </trkpt>
      <trkpt lat="45.22109" lon="4.80751">
        <ele>131.39999389648</ele>
        <time>2024-05-21T09:03:48.000Z</time>
      </trkpt>
      <trkpt lat="45.22103" lon="4.80754">
        <ele>131.39999389648</ele>
        <time>2024-05-21T09:03:49.000Z</time>
      </trkpt>
      <trkpt lat="45.22097" lon="4.80757">
        <ele>131.39999389648</ele>
        <time>2024-05-21T09:03:50.000Z</time>
      </trkpt>
      <trkpt lat="45.22092" lon="4.8076">
        <ele>131.39999389648</ele>
        <time>2024-05-21T09:03:51.000Z</time>
      </trkpt>
      <trkpt lat="45.22086" lon="4.80762">
        <ele>131.60000610352</ele>
        <time>2024-05-21T09:03:52.000Z</time>
      </trkpt>
      <trkpt lat="45.22082" lon="4.80765">
        <ele>131.60000610352</ele>
        <time>2024-05-21T09:03:53.000Z</time>
      </trkpt>
      <trkpt lat="45.22076" lon="4.80767">
        <ele>131.60000610352</ele>
        <time>2024-05-21T09:03:54.000Z</time>
      </trkpt>
      <trkpt lat="45.22069" lon="4.80769">
        <ele>131.80000305176</ele>
        <time>2024-05-21T09:03:55.000Z</time>
      </trkpt>
      <trkpt lat="45.22063" lon="4.80774">
        <ele>131.80000305176</ele>
        <time>2024-05-21T09:03:56.000Z</time>
      </trkpt>
      <trkpt lat="45.22058" lon="4.80778">
        <ele>131.80000305176</ele>
        <time>2024-05-21T09:03:57.000Z</time>
      </trkpt>
      <trkpt lat="45.22053" lon="4.80781">
        <ele>131.80000305176</ele>
        <time>2024-05-21T09:03:58.000Z</time>
      </trkpt>
      <trkpt lat="45.22047" lon="4.80784">
        <ele>132</ele>
        <time>2024-05-21T09:03:59.000Z</time>
      </trkpt>
      <trkpt lat="45.22042" lon="4.80786">
        <ele>132</ele>
        <time>2024-05-21T09:04:00.000Z</time>
      </trkpt>
      <trkpt lat="45.22036" lon="4.80787">
        <ele>132.19999694824</ele>
        <time>2024-05-21T09:04:01.000Z</time>
      </trkpt>
      <trkpt lat="45.22031" lon="4.80787">
        <ele>132</ele>
        <time>2024-05-21T09:04:02.000Z</time>
      </trkpt>
      <trkpt lat="45.22024" lon="4.80788">
        <ele>132</ele>
        <time>2024-05-21T09:04:03.000Z</time>
      </trkpt>
      <trkpt lat="45.22018" lon="4.80789">
        <ele>132</ele>
        <time>2024-05-21T09:04:04.000Z</time>
      </trkpt>
      <trkpt lat="45.22012" lon="4.80792">
        <ele>132</ele>
        <time>2024-05-21T09:04:05.000Z</time>
      </trkpt>
      <trkpt lat="45.22006" lon="4.80794">
        <ele>131.80000305176</ele>
        <time>2024-05-21T09:04:06.000Z</time>
      </trkpt>
      <trkpt lat="45.22" lon="4.80796">
        <ele>131.80000305176</ele>
        <time>2024-05-21T09:04:07.000Z</time>
      </trkpt>
      <trkpt lat="45.21995" lon="4.80798">
        <ele>131.60000610352</ele>
        <time>2024-05-21T09:04:08.000Z</time>
      </trkpt>
      <trkpt lat="45.21989" lon="4.808">
        <ele>131.60000610352</ele>
        <time>2024-05-21T09:04:09.000Z</time>
      </trkpt>
      <trkpt lat="45.21983" lon="4.80802">
        <ele>131.60000610352</ele>
        <time>2024-05-21T09:04:10.000Z</time>
      </trkpt>
      <trkpt lat="45.21978" lon="4.80804">
        <ele>131.60000610352</ele>
        <time>2024-05-21T09:04:11.000Z</time>
      </trkpt>
      <trkpt lat="45.21972" lon="4.80807">
        <ele>131.60000610352</ele>
        <time>2024-05-21T09:04:12.000Z</time>
      </trkpt>
      <trkpt lat="45.21966" lon="4.80809">
        <ele>131.39999389648</ele>
        <time>2024-05-21T09:04:13.000Z</time>
      </trkpt>
      <trkpt lat="45.21959" lon="4.80811">
        <ele>131.39999389648</ele>
        <time>2024-05-21T09:04:14.000Z</time>
      </trkpt>
      <trkpt lat="45.21955" lon="4.80812">
        <ele>131.39999389648</ele>
        <time>2024-05-21T09:04:15.000Z</time>
      </trkpt>
      <trkpt lat="45.21949" lon="4.80812">
        <ele>131.39999389648</ele>
        <time>2024-05-21T09:04:16.000Z</time>
      </trkpt>
      <trkpt lat="45.21943" lon="4.80813">
        <ele>131.60000610352</ele>
        <time>2024-05-21T09:04:17.000Z</time>
      </trkpt>
      <trkpt lat="45.21938" lon="4.80815">
        <ele>131.80000305176</ele>
        <time>2024-05-21T09:04:18.000Z</time>
      </trkpt>
      <trkpt lat="45.21933" lon="4.80818">
        <ele>132</ele>
        <time>2024-05-21T09:04:19.000Z</time>
      </trkpt>
      <trkpt lat="45.21928" lon="4.8082">
        <ele>132</ele>
        <time>2024-05-21T09:04:20.000Z</time>
      </trkpt>
      <trkpt lat="45.21923" lon="4.80823">
        <ele>132</ele>
        <time>2024-05-21T09:04:21.000Z</time>
      </trkpt>
      <trkpt lat="45.21919" lon="4.80826">
        <ele>132</ele>
        <time>2024-05-21T09:04:22.000Z</time>
      </trkpt>
      <trkpt lat="45.21913" lon="4.8083">
        <ele>132</ele>
        <time>2024-05-21T09:04:23.000Z</time>
      </trkpt>
      <trkpt lat="45.21909" lon="4.80834">
        <ele>131.80000305176</ele>
        <time>2024-05-21T09:04:24.000Z</time>
      </trkpt>
      <trkpt lat="45.21905" lon="4.80838">
        <ele>131.80000305176</ele>
        <time>2024-05-21T09:04:25.000Z</time>
      </trkpt>
      <trkpt lat="45.21901" lon="4.80842">
        <ele>131.80000305176</ele>
        <time>2024-05-21T09:04:26.000Z</time>
      </trkpt>
      <trkpt lat="45.21898" lon="4.80845">
        <ele>131.80000305176</ele>
        <time>2024-05-21T09:04:27.000Z</time>
      </trkpt>
      <trkpt lat="45.21894" lon="4.80847">
        <ele>131.80000305176</ele>
        <time>2024-05-21T09:04:28.000Z</time>
      </trkpt>
      <trkpt lat="45.21889" lon="4.80847">
        <ele>131.80000305176</ele>
        <time>2024-05-21T09:04:29.000Z</time>
      </trkpt>
      <trkpt lat="45.21885" lon="4.80847">
        <ele>132</ele>
        <time>2024-05-21T09:04:30.000Z</time>
      </trkpt>
      <trkpt lat="45.2188" lon="4.80845">
        <ele>132</ele>
        <time>2024-05-21T09:04:31.000Z</time>
      </trkpt>
      <trkpt lat="45.21875" lon="4.80844">
        <ele>132</ele>
        <time>2024-05-21T09:04:32.000Z</time>
      </trkpt>
      <trkpt lat="45.21871" lon="4.80844">
        <ele>132</ele>
        <time>2024-05-21T09:04:33.000Z</time>
      </trkpt>
      <trkpt lat="45.21867" lon="4.80844">
        <ele>132</ele>
        <time>2024-05-21T09:04:34.000Z</time>
      </trkpt>
      <trkpt lat="45.21862" lon="4.80844">
        <ele>132</ele>
        <time>2024-05-21T09:04:35.000Z</time>
      </trkpt>
      <trkpt lat="45.21857" lon="4.80844">
        <ele>132</ele>
        <time>2024-05-21T09:04:36.000Z</time>
      </trkpt>
      <trkpt lat="45.21851" lon="4.80845">
        <ele>132</ele>
        <time>2024-05-21T09:04:37.000Z</time>
      </trkpt>
      <trkpt lat="45.21846" lon="4.80847">
        <ele>132</ele>
        <time>2024-05-21T09:04:38.000Z</time>
      </trkpt>
      <trkpt lat="45.2184" lon="4.80849">
        <ele>132.19999694824</ele>
        <time>2024-05-21T09:04:39.000Z</time>
      </trkpt>
      <trkpt lat="45.21837" lon="4.8085">
        <ele>132.39999389648</ele>
        <time>2024-05-21T09:04:40.000Z</time>
      </trkpt>
      <trkpt lat="45.21832" lon="4.80852">
        <ele>132.80000305176</ele>
        <time>2024-05-21T09:04:41.000Z</time>
      </trkpt>
      <trkpt lat="45.21828" lon="4.80852">
        <ele>132.80000305176</ele>
        <time>2024-05-21T09:04:42.000Z</time>
      </trkpt>
      <trkpt lat="45.21824" lon="4.80852">
        <ele>133</ele>
        <time>2024-05-21T09:04:43.000Z</time>
      </trkpt>
      <trkpt lat="45.21819" lon="4.80853">
        <ele>133.19999694824</ele>
        <time>2024-05-21T09:04:44.000Z</time>
      </trkpt>
      <trkpt lat="45.21815" lon="4.80855">
        <ele>133.60000610352</ele>
        <time>2024-05-21T09:04:45.000Z</time>
      </trkpt>
      <trkpt lat="45.21811" lon="4.80856">
        <ele>133.60000610352</ele>
        <time>2024-05-21T09:04:46.000Z</time>
      </trkpt>
      <trkpt lat="45.21805" lon="4.80857">
        <ele>133.60000610352</ele>
        <time>2024-05-21T09:04:47.000Z</time>
      </trkpt>
      <trkpt lat="45.218" lon="4.80858">
        <ele>133.60000610352</ele>
        <time>2024-05-21T09:04:48.000Z</time>
      </trkpt>
      <trkpt lat="45.21794" lon="4.8086">
        <ele>133.60000610352</ele>
        <time>2024-05-21T09:04:49.000Z</time>
      </trkpt>
      <trkpt lat="45.21788" lon="4.80861">
        <ele>133.60000610352</ele>
        <time>2024-05-21T09:04:50.000Z</time>
      </trkpt>
      <trkpt lat="45.21783" lon="4.80863">
        <ele>133.60000610352</ele>
        <time>2024-05-21T09:04:51.000Z</time>
      </trkpt>
      <trkpt lat="45.21778" lon="4.80864">
        <ele>133.60000610352</ele>
        <time>2024-05-21T09:04:52.000Z</time>
      </trkpt>
      <trkpt lat="45.21772" lon="4.80865">
        <ele>133.60000610352</ele>
        <time>2024-05-21T09:04:53.000Z</time>
      </trkpt>
      <trkpt lat="45.21765" lon="4.80866">
        <ele>133.60000610352</ele>
        <time>2024-05-21T09:04:54.000Z</time>
      </trkpt>
      <trkpt lat="45.21758" lon="4.80868">
        <ele>133.60000610352</ele>
        <time>2024-05-21T09:04:55.000Z</time>
      </trkpt>
      <trkpt lat="45.21752" lon="4.8087">
        <ele>133.60000610352</ele>
        <time>2024-05-21T09:04:56.000Z</time>
      </trkpt>
      <trkpt lat="45.21746" lon="4.80871">
        <ele>133.39999389648</ele>
        <time>2024-05-21T09:04:57.000Z</time>
      </trkpt>
      <trkpt lat="45.2174" lon="4.80871">
        <ele>133.39999389648</ele>
        <time>2024-05-21T09:04:58.000Z</time>
      </trkpt>
      <trkpt lat="45.21734" lon="4.80874">
        <ele>133.39999389648</ele>
        <time>2024-05-21T09:04:59.000Z</time>
      </trkpt>
      <trkpt lat="45.21727" lon="4.80876">
        <ele>133.39999389648</ele>
        <time>2024-05-21T09:05:00.000Z</time>
      </trkpt>
      <trkpt lat="45.21722" lon="4.80877">
        <ele>133.39999389648</ele>
        <time>2024-05-21T09:05:01.000Z</time>
      </trkpt>
      <trkpt lat="45.21715" lon="4.80879">
        <ele>133.39999389648</ele>
        <time>2024-05-21T09:05:02.000Z</time>
      </trkpt>
      <trkpt lat="45.21709" lon="4.80879">
        <ele>133.39999389648</ele>
        <time>2024-05-21T09:05:03.000Z</time>
      </trkpt>
      <trkpt lat="45.21704" lon="4.80881">
        <ele>133.39999389648</ele>
        <time>2024-05-21T09:05:04.000Z</time>
      </trkpt>
      <trkpt lat="45.21699" lon="4.80882">
        <ele>133.39999389648</ele>
        <time>2024-05-21T09:05:05.000Z</time>
      </trkpt>
      <trkpt lat="45.21694" lon="4.80884">
        <ele>133.39999389648</ele>
        <time>2024-05-21T09:05:06.000Z</time>
      </trkpt>
      <trkpt lat="45.21688" lon="4.80887">
        <ele>133.39999389648</ele>
        <time>2024-05-21T09:05:07.000Z</time>
      </trkpt>
      <trkpt lat="45.21681" lon="4.80888">
        <ele>133.39999389648</ele>
        <time>2024-05-21T09:05:08.000Z</time>
      </trkpt>
      <trkpt lat="45.21672" lon="4.8089">
        <ele>133</ele>
        <time>2024-05-21T09:05:09.000Z</time>
      </trkpt>
      <trkpt lat="45.21665" lon="4.80891">
        <ele>132.80000305176</ele>
        <time>2024-05-21T09:05:10.000Z</time>
      </trkpt>
      <trkpt lat="45.2166" lon="4.80891">
        <ele>132.80000305176</ele>
        <time>2024-05-21T09:05:11.000Z</time>
      </trkpt>
      <trkpt lat="45.21651" lon="4.80893">
        <ele>132.80000305176</ele>
        <time>2024-05-21T09:05:12.000Z</time>
      </trkpt>
      <trkpt lat="45.21646" lon="4.80895">
        <ele>132.80000305176</ele>
        <time>2024-05-21T09:05:13.000Z</time>
      </trkpt>
      <trkpt lat="45.21641" lon="4.80895">
        <ele>132.80000305176</ele>
        <time>2024-05-21T09:05:14.000Z</time>
      </trkpt>
      <trkpt lat="45.21634" lon="4.80896">
        <ele>132.80000305176</ele>
        <time>2024-05-21T09:05:15.000Z</time>
      </trkpt>
      <trkpt lat="45.21626" lon="4.80899">
        <ele>132.80000305176</ele>
        <time>2024-05-21T09:05:16.000Z</time>
      </trkpt>
      <trkpt lat="45.2162" lon="4.80902">
        <ele>132.60000610352</ele>
        <time>2024-05-21T09:05:17.000Z</time>
      </trkpt>
      <trkpt lat="45.21615" lon="4.80904">
        <ele>132.60000610352</ele>
        <time>2024-05-21T09:05:18.000Z</time>
      </trkpt>
      <trkpt lat="45.2161" lon="4.80906">
        <ele>132.60000610352</ele>
        <time>2024-05-21T09:05:19.000Z</time>
      </trkpt>
      <trkpt lat="45.21603" lon="4.80907">
        <ele>132.60000610352</ele>
        <time>2024-05-21T09:05:20.000Z</time>
      </trkpt>
      <trkpt lat="45.21599" lon="4.80908">
        <ele>132.60000610352</ele>
        <time>2024-05-21T09:05:21.000Z</time>
      </trkpt>
      <trkpt lat="45.21593" lon="4.80909">
        <ele>132.60000610352</ele>
        <time>2024-05-21T09:05:22.000Z</time>
      </trkpt>
      <trkpt lat="45.21586" lon="4.80911">
        <ele>132.60000610352</ele>
        <time>2024-05-21T09:05:23.000Z</time>
      </trkpt>
      <trkpt lat="45.2158" lon="4.80912">
        <ele>132.60000610352</ele>
        <time>2024-05-21T09:05:24.000Z</time>
      </trkpt>
      <trkpt lat="45.21574" lon="4.80913">
        <ele>132.80000305176</ele>
        <time>2024-05-21T09:05:25.000Z</time>
      </trkpt>
      <trkpt lat="45.21568" lon="4.80914">
        <ele>132.80000305176</ele>
        <time>2024-05-21T09:05:26.000Z</time>
      </trkpt>
      <trkpt lat="45.21562" lon="4.80915">
        <ele>132.80000305176</ele>
        <time>2024-05-21T09:05:27.000Z</time>
      </trkpt>
      <trkpt lat="45.21557" lon="4.80916">
        <ele>133</ele>
        <time>2024-05-21T09:05:28.000Z</time>
      </trkpt>
      <trkpt lat="45.2155" lon="4.80918">
        <ele>133</ele>
        <time>2024-05-21T09:05:29.000Z</time>
      </trkpt>
      <trkpt lat="45.21545" lon="4.80918">
        <ele>133</ele>
        <time>2024-05-21T09:05:30.000Z</time>
      </trkpt>
      <trkpt lat="45.21539" lon="4.80919">
        <ele>133.19999694824</ele>
        <time>2024-05-21T09:05:31.000Z</time>
      </trkpt>
      <trkpt lat="45.21534" lon="4.8092">
        <ele>133.39999389648</ele>
        <time>2024-05-21T09:05:32.000Z</time>
      </trkpt>
      <trkpt lat="45.21529" lon="4.80921">
        <ele>133.39999389648</ele>
        <time>2024-05-21T09:05:33.000Z</time>
      </trkpt>
      <trkpt lat="45.21522" lon="4.80921">
        <ele>133.39999389648</ele>
        <time>2024-05-21T09:05:34.000Z</time>
      </trkpt>
      <trkpt lat="45.21516" lon="4.80922">
        <ele>133.39999389648</ele>
        <time>2024-05-21T09:05:35.000Z</time>
      </trkpt>
      <trkpt lat="45.2151" lon="4.80923">
        <ele>133.39999389648</ele>
        <time>2024-05-21T09:05:36.000Z</time>
      </trkpt>
      <trkpt lat="45.21506" lon="4.80924">
        <ele>133.39999389648</ele>
        <time>2024-05-21T09:05:37.000Z</time>
      </trkpt>
      <trkpt lat="45.215" lon="4.80926">
        <ele>133.19999694824</ele>
        <time>2024-05-21T09:05:38.000Z</time>
      </trkpt>
      <trkpt lat="45.21494" lon="4.80928">
        <ele>133.19999694824</ele>
        <time>2024-05-21T09:05:39.000Z</time>
      </trkpt>
      <trkpt lat="45.21489" lon="4.8093">
        <ele>133</ele>
        <time>2024-05-21T09:05:40.000Z</time>
      </trkpt>
      <trkpt lat="45.21482" lon="4.80933">
        <ele>132.80000305176</ele>
        <time>2024-05-21T09:05:41.000Z</time>
      </trkpt>
      <trkpt lat="45.21477" lon="4.80935">
        <ele>132.60000610352</ele>
        <time>2024-05-21T09:05:42.000Z</time>
      </trkpt>
      <trkpt lat="45.21471" lon="4.80937">
        <ele>132.39999389648</ele>
        <time>2024-05-21T09:05:43.000Z</time>
      </trkpt>
      <trkpt lat="45.21463" lon="4.80939">
        <ele>132.19999694824</ele>
        <time>2024-05-21T09:05:44.000Z</time>
      </trkpt>
      <trkpt lat="45.21457" lon="4.80941">
        <ele>132.19999694824</ele>
        <time>2024-05-21T09:05:45.000Z</time>
      </trkpt>
      <trkpt lat="45.21452" lon="4.80942">
        <ele>132.19999694824</ele>
        <time>2024-05-21T09:05:46.000Z</time>
      </trkpt>
      <trkpt lat="45.21446" lon="4.80944">
        <ele>132</ele>
        <time>2024-05-21T09:05:47.000Z</time>
      </trkpt>
      <trkpt lat="45.21439" lon="4.80945">
        <ele>131.80000305176</ele>
        <time>2024-05-21T09:05:48.000Z</time>
      </trkpt>
      <trkpt lat="45.21432" lon="4.80946">
        <ele>131.80000305176</ele>
        <time>2024-05-21T09:05:49.000Z</time>
      </trkpt>
      <trkpt lat="45.21426" lon="4.80948">
        <ele>131.80000305176</ele>
        <time>2024-05-21T09:05:50.000Z</time>
      </trkpt>
      <trkpt lat="45.21419" lon="4.8095">
        <ele>131.39999389648</ele>
        <time>2024-05-21T09:05:51.000Z</time>
      </trkpt>
      <trkpt lat="45.21412" lon="4.80951">
        <ele>131.39999389648</ele>
        <time>2024-05-21T09:05:52.000Z</time>
      </trkpt>
      <trkpt lat="45.21406" lon="4.80952">
        <ele>131.39999389648</ele>
        <time>2024-05-21T09:05:53.000Z</time>
      </trkpt>
      <trkpt lat="45.21399" lon="4.80954">
        <ele>131.39999389648</ele>
        <time>2024-05-21T09:05:54.000Z</time>
      </trkpt>
      <trkpt lat="45.21392" lon="4.80956">
        <ele>131.39999389648</ele>
        <time>2024-05-21T09:05:55.000Z</time>
      </trkpt>
      <trkpt lat="45.21386" lon="4.80958">
        <ele>131.39999389648</ele>
        <time>2024-05-21T09:05:56.000Z</time>
      </trkpt>
      <trkpt lat="45.2138" lon="4.8096">
        <ele>131.39999389648</ele>
        <time>2024-05-21T09:05:57.000Z</time>
      </trkpt>
      <trkpt lat="45.21374" lon="4.80962">
        <ele>131.39999389648</ele>
        <time>2024-05-21T09:05:58.000Z</time>
      </trkpt>
      <trkpt lat="45.21369" lon="4.80963">
        <ele>131.60000610352</ele>
        <time>2024-05-21T09:05:59.000Z</time>
      </trkpt>
      <trkpt lat="45.21363" lon="4.80965">
        <ele>132</ele>
        <time>2024-05-21T09:06:00.000Z</time>
      </trkpt>
      <trkpt lat="45.21358" lon="4.80966">
        <ele>132.19999694824</ele>
        <time>2024-05-21T09:06:01.000Z</time>
      </trkpt>
      <trkpt lat="45.21353" lon="4.80968">
        <ele>132.60000610352</ele>
        <time>2024-05-21T09:06:02.000Z</time>
      </trkpt>
      <trkpt lat="45.21347" lon="4.8097">
        <ele>132.80000305176</ele>
        <time>2024-05-21T09:06:03.000Z</time>
      </trkpt>
      <trkpt lat="45.21341" lon="4.80971">
        <ele>132.80000305176</ele>
        <time>2024-05-21T09:06:04.000Z</time>
      </trkpt>
      <trkpt lat="45.21335" lon="4.80973">
        <ele>132.80000305176</ele>
        <time>2024-05-21T09:06:05.000Z</time>
      </trkpt>
      <trkpt lat="45.21329" lon="4.80974">
        <ele>132.80000305176</ele>
        <time>2024-05-21T09:06:06.000Z</time>
      </trkpt>
      <trkpt lat="45.21324" lon="4.80976">
        <ele>132.80000305176</ele>
        <time>2024-05-21T09:06:07.000Z</time>
      </trkpt>
      <trkpt lat="45.21318" lon="4.80977">
        <ele>132.80000305176</ele>
        <time>2024-05-21T09:06:08.000Z</time>
      </trkpt>
      <trkpt lat="45.21312" lon="4.80978">
        <ele>132.80000305176</ele>
        <time>2024-05-21T09:06:09.000Z</time>
      </trkpt>
      <trkpt lat="45.21306" lon="4.80979">
        <ele>132.80000305176</ele>
        <time>2024-05-21T09:06:10.000Z</time>
      </trkpt>
      <trkpt lat="45.213" lon="4.8098">
        <ele>132.80000305176</ele>
        <time>2024-05-21T09:06:11.000Z</time>
      </trkpt>
      <trkpt lat="45.21294" lon="4.80982">
        <ele>132.80000305176</ele>
        <time>2024-05-21T09:06:12.000Z</time>
      </trkpt>
      <trkpt lat="45.21288" lon="4.80983">
        <ele>132.80000305176</ele>
        <time>2024-05-21T09:06:13.000Z</time>
      </trkpt>
      <trkpt lat="45.21282" lon="4.80984">
        <ele>132.80000305176</ele>
        <time>2024-05-21T09:06:14.000Z</time>
      </trkpt>
      <trkpt lat="45.21276" lon="4.80986">
        <ele>132.80000305176</ele>
        <time>2024-05-21T09:06:15.000Z</time>
      </trkpt>
      <trkpt lat="45.2127" lon="4.80987">
        <ele>132.80000305176</ele>
        <time>2024-05-21T09:06:16.000Z</time>
      </trkpt>
      <trkpt lat="45.21264" lon="4.80988">
        <ele>132.80000305176</ele>
        <time>2024-05-21T09:06:17.000Z</time>
      </trkpt>
      <trkpt lat="45.21258" lon="4.80989">
        <ele>132.80000305176</ele>
        <time>2024-05-21T09:06:18.000Z</time>
      </trkpt>
      <trkpt lat="45.21252" lon="4.80991">
        <ele>132.80000305176</ele>
        <time>2024-05-21T09:06:19.000Z</time>
      </trkpt>
      <trkpt lat="45.21246" lon="4.80993">
        <ele>132.80000305176</ele>
        <time>2024-05-21T09:06:20.000Z</time>
      </trkpt>
      <trkpt lat="45.21241" lon="4.80995">
        <ele>132.80000305176</ele>
        <time>2024-05-21T09:06:21.000Z</time>
      </trkpt>
      <trkpt lat="45.21235" lon="4.80996">
        <ele>132.80000305176</ele>
        <time>2024-05-21T09:06:22.000Z</time>
      </trkpt>
      <trkpt lat="45.2123" lon="4.80998">
        <ele>132.80000305176</ele>
        <time>2024-05-21T09:06:23.000Z</time>
      </trkpt>
      <trkpt lat="45.21224" lon="4.81">
        <ele>132.80000305176</ele>
        <time>2024-05-21T09:06:24.000Z</time>
      </trkpt>
      <trkpt lat="45.21219" lon="4.81002">
        <ele>132.80000305176</ele>
        <time>2024-05-21T09:06:25.000Z</time>
      </trkpt>
      <trkpt lat="45.21213" lon="4.81004">
        <ele>132.80000305176</ele>
        <time>2024-05-21T09:06:26.000Z</time>
      </trkpt>
      <trkpt lat="45.21207" lon="4.81006">
        <ele>132.80000305176</ele>
        <time>2024-05-21T09:06:27.000Z</time>
      </trkpt>
      <trkpt lat="45.21201" lon="4.81009">
        <ele>132.80000305176</ele>
        <time>2024-05-21T09:06:28.000Z</time>
      </trkpt>
      <trkpt lat="45.21195" lon="4.81011">
        <ele>132.80000305176</ele>
        <time>2024-05-21T09:06:29.000Z</time>
      </trkpt>
      <trkpt lat="45.21189" lon="4.81013">
        <ele>132.80000305176</ele>
        <time>2024-05-21T09:06:30.000Z</time>
      </trkpt>
      <trkpt lat="45.21183" lon="4.81016">
        <ele>132.80000305176</ele>
        <time>2024-05-21T09:06:31.000Z</time>
      </trkpt>
      <trkpt lat="45.21177" lon="4.81018">
        <ele>132.80000305176</ele>
        <time>2024-05-21T09:06:32.000Z</time>
      </trkpt>
      <trkpt lat="45.21171" lon="4.81021">
        <ele>132.60000610352</ele>
        <time>2024-05-21T09:06:33.000Z</time>
      </trkpt>
      <trkpt lat="45.21165" lon="4.81023">
        <ele>132.39999389648</ele>
        <time>2024-05-21T09:06:34.000Z</time>
      </trkpt>
      <trkpt lat="45.21159" lon="4.81026">
        <ele>132.19999694824</ele>
        <time>2024-05-21T09:06:35.000Z</time>
      </trkpt>
      <trkpt lat="45.21153" lon="4.81028">
        <ele>132.19999694824</ele>
        <time>2024-05-21T09:06:36.000Z</time>
      </trkpt>
      <trkpt lat="45.21147" lon="4.81031">
        <ele>132.19999694824</ele>
        <time>2024-05-21T09:06:37.000Z</time>
      </trkpt>
      <trkpt lat="45.21141" lon="4.81034">
        <ele>132.19999694824</ele>
        <time>2024-05-21T09:06:38.000Z</time>
      </trkpt>
      <trkpt lat="45.21135" lon="4.81036">
        <ele>132.19999694824</ele>
        <time>2024-05-21T09:06:39.000Z</time>
      </trkpt>
      <trkpt lat="45.21129" lon="4.81039">
        <ele>132.19999694824</ele>
        <time>2024-05-21T09:06:40.000Z</time>
      </trkpt>
      <trkpt lat="45.21123" lon="4.81042">
        <ele>132.19999694824</ele>
        <time>2024-05-21T09:06:41.000Z</time>
      </trkpt>
      <trkpt lat="45.21117" lon="4.81045">
        <ele>132.19999694824</ele>
        <time>2024-05-21T09:06:42.000Z</time>
      </trkpt>
      <trkpt lat="45.21112" lon="4.81048">
        <ele>132.19999694824</ele>
        <time>2024-05-21T09:06:43.000Z</time>
      </trkpt>
      <trkpt lat="45.21106" lon="4.81052">
        <ele>132.19999694824</ele>
        <time>2024-05-21T09:06:44.000Z</time>
      </trkpt>
      <trkpt lat="45.211" lon="4.81055">
        <ele>132.19999694824</ele>
        <time>2024-05-21T09:06:45.000Z</time>
      </trkpt>
      <trkpt lat="45.21094" lon="4.81058">
        <ele>132.19999694824</ele>
        <time>2024-05-21T09:06:46.000Z</time>
      </trkpt>
      <trkpt lat="45.21088" lon="4.81061">
        <ele>132.19999694824</ele>
        <time>2024-05-21T09:06:47.000Z</time>
      </trkpt>
      <trkpt lat="45.21082" lon="4.81063">
        <ele>132.19999694824</ele>
        <time>2024-05-21T09:06:48.000Z</time>
      </trkpt>
      <trkpt lat="45.21076" lon="4.81067">
        <ele>132.19999694824</ele>
        <time>2024-05-21T09:06:49.000Z</time>
      </trkpt>
      <trkpt lat="45.2107" lon="4.8107">
        <ele>132.19999694824</ele>
        <time>2024-05-21T09:06:50.000Z</time>
      </trkpt>
      <trkpt lat="45.21064" lon="4.81073">
        <ele>132.19999694824</ele>
        <time>2024-05-21T09:06:51.000Z</time>
      </trkpt>
      <trkpt lat="45.21058" lon="4.81075">
        <ele>132.19999694824</ele>
        <time>2024-05-21T09:06:52.000Z</time>
      </trkpt>
      <trkpt lat="45.21052" lon="4.81078">
        <ele>132.19999694824</ele>
        <time>2024-05-21T09:06:53.000Z</time>
      </trkpt>
      <trkpt lat="45.21047" lon="4.81082">
        <ele>132.19999694824</ele>
        <time>2024-05-21T09:06:54.000Z</time>
      </trkpt>
      <trkpt lat="45.21041" lon="4.81085">
        <ele>132.19999694824</ele>
        <time>2024-05-21T09:06:55.000Z</time>
      </trkpt>
      <trkpt lat="45.21035" lon="4.81088">
        <ele>132.19999694824</ele>
        <time>2024-05-21T09:06:56.000Z</time>
      </trkpt>
      <trkpt lat="45.21029" lon="4.81091">
        <ele>132.19999694824</ele>
        <time>2024-05-21T09:06:57.000Z</time>
      </trkpt>
      <trkpt lat="45.21023" lon="4.81094">
        <ele>132.19999694824</ele>
        <time>2024-05-21T09:06:58.000Z</time>
      </trkpt>
      <trkpt lat="45.21018" lon="4.81097">
        <ele>132.19999694824</ele>
        <time>2024-05-21T09:06:59.000Z</time>
      </trkpt>
      <trkpt lat="45.21012" lon="4.811">
        <ele>132.19999694824</ele>
        <time>2024-05-21T09:07:00.000Z</time>
      </trkpt>
      <trkpt lat="45.21006" lon="4.81103">
        <ele>132.19999694824</ele>
        <time>2024-05-21T09:07:01.000Z</time>
      </trkpt>
      <trkpt lat="45.21" lon="4.81107">
        <ele>132.19999694824</ele>
        <time>2024-05-21T09:07:02.000Z</time>
      </trkpt>
      <trkpt lat="45.20995" lon="4.8111">
        <ele>132.19999694824</ele>
        <time>2024-05-21T09:07:03.000Z</time>
      </trkpt>
      <trkpt lat="45.20989" lon="4.81114">
        <ele>132.19999694824</ele>
        <time>2024-05-21T09:07:04.000Z</time>
      </trkpt>
      <trkpt lat="45.20983" lon="4.81117">
        <ele>132.19999694824</ele>
        <time>2024-05-21T09:07:05.000Z</time>
      </trkpt>
      <trkpt lat="45.20977" lon="4.8112">
        <ele>132.19999694824</ele>
        <time>2024-05-21T09:07:06.000Z</time>
      </trkpt>
      <trkpt lat="45.20972" lon="4.81123">
        <ele>132</ele>
        <time>2024-05-21T09:07:07.000Z</time>
      </trkpt>
      <trkpt lat="45.20966" lon="4.81126">
        <ele>132</ele>
        <time>2024-05-21T09:07:08.000Z</time>
      </trkpt>
      <trkpt lat="45.2096" lon="4.8113">
        <ele>132</ele>
        <time>2024-05-21T09:07:09.000Z</time>
      </trkpt>
      <trkpt lat="45.20954" lon="4.81134">
        <ele>131.80000305176</ele>
        <time>2024-05-21T09:07:10.000Z</time>
      </trkpt>
      <trkpt lat="45.20949" lon="4.81138">
        <ele>131.80000305176</ele>
        <time>2024-05-21T09:07:11.000Z</time>
      </trkpt>
      <trkpt lat="45.20944" lon="4.81141">
        <ele>131.80000305176</ele>
        <time>2024-05-21T09:07:12.000Z</time>
      </trkpt>
      <trkpt lat="45.20938" lon="4.81144">
        <ele>132</ele>
        <time>2024-05-21T09:07:13.000Z</time>
      </trkpt>
      <trkpt lat="45.20933" lon="4.81147">
        <ele>132</ele>
        <time>2024-05-21T09:07:14.000Z</time>
      </trkpt>
      <trkpt lat="45.20926" lon="4.8115">
        <ele>132</ele>
        <time>2024-05-21T09:07:15.000Z</time>
      </trkpt>
      <trkpt lat="45.2092" lon="4.81152">
        <ele>132</ele>
        <time>2024-05-21T09:07:16.000Z</time>
      </trkpt>
      <trkpt lat="45.20914" lon="4.81155">
        <ele>132</ele>
        <time>2024-05-21T09:07:17.000Z</time>
      </trkpt>
      <trkpt lat="45.20908" lon="4.81158">
        <ele>132</ele>
        <time>2024-05-21T09:07:18.000Z</time>
      </trkpt>
      <trkpt lat="45.20902" lon="4.81162">
        <ele>131.80000305176</ele>
        <time>2024-05-21T09:07:19.000Z</time>
      </trkpt>
      <trkpt lat="45.20897" lon="4.81166">
        <ele>131.80000305176</ele>
        <time>2024-05-21T09:07:20.000Z</time>
      </trkpt>
      <trkpt lat="45.20892" lon="4.81171">
        <ele>132</ele>
        <time>2024-05-21T09:07:21.000Z</time>
      </trkpt>
      <trkpt lat="45.20887" lon="4.81177">
        <ele>131.80000305176</ele>
        <time>2024-05-21T09:07:22.000Z</time>
      </trkpt>
      <trkpt lat="45.20883" lon="4.81183">
        <ele>131.80000305176</ele>
        <time>2024-05-21T09:07:23.000Z</time>
      </trkpt>
      <trkpt lat="45.20877" lon="4.81189">
        <ele>131.60000610352</ele>
        <time>2024-05-21T09:07:24.000Z</time>
      </trkpt>
      <trkpt lat="45.20872" lon="4.81195">
        <ele>131.60000610352</ele>
        <time>2024-05-21T09:07:25.000Z</time>
      </trkpt>
      <trkpt lat="45.20867" lon="4.81201">
        <ele>131.60000610352</ele>
        <time>2024-05-21T09:07:26.000Z</time>
      </trkpt>
      <trkpt lat="45.20863" lon="4.81206">
        <ele>131.60000610352</ele>
        <time>2024-05-21T09:07:27.000Z</time>
      </trkpt>
      <trkpt lat="45.20857" lon="4.81211">
        <ele>131.60000610352</ele>
        <time>2024-05-21T09:07:28.000Z</time>
      </trkpt>
      <trkpt lat="45.20852" lon="4.81217">
        <ele>131.60000610352</ele>
        <time>2024-05-21T09:07:29.000Z</time>
      </trkpt>
      <trkpt lat="45.20846" lon="4.81222">
        <ele>131.60000610352</ele>
        <time>2024-05-21T09:07:30.000Z</time>
      </trkpt>
      <trkpt lat="45.2084" lon="4.81226">
        <ele>131.39999389648</ele>
        <time>2024-05-21T09:07:31.000Z</time>
      </trkpt>
      <trkpt lat="45.20834" lon="4.81229">
        <ele>131</ele>
        <time>2024-05-21T09:07:32.000Z</time>
      </trkpt>
      <trkpt lat="45.20829" lon="4.81233">
        <ele>130.39999389648</ele>
        <time>2024-05-21T09:07:33.000Z</time>
      </trkpt>
      <trkpt lat="45.20823" lon="4.81235">
        <ele>130.39999389648</ele>
        <time>2024-05-21T09:07:34.000Z</time>
      </trkpt>
      <trkpt lat="45.20818" lon="4.81238">
        <ele>130.39999389648</ele>
        <time>2024-05-21T09:07:35.000Z</time>
      </trkpt>
      <trkpt lat="45.20812" lon="4.81241">
        <ele>130.19999694824</ele>
        <time>2024-05-21T09:07:36.000Z</time>
      </trkpt>
      <trkpt lat="45.20805" lon="4.81245">
        <ele>130.19999694824</ele>
        <time>2024-05-21T09:07:37.000Z</time>
      </trkpt>
      <trkpt lat="45.20799" lon="4.81249">
        <ele>130.19999694824</ele>
        <time>2024-05-21T09:07:38.000Z</time>
      </trkpt>
      <trkpt lat="45.20793" lon="4.81253">
        <ele>130.39999389648</ele>
        <time>2024-05-21T09:07:39.000Z</time>
      </trkpt>
      <trkpt lat="45.20787" lon="4.81257">
        <ele>130.39999389648</ele>
        <time>2024-05-21T09:07:40.000Z</time>
      </trkpt>
      <trkpt lat="45.20781" lon="4.8126">
        <ele>130.60000610352</ele>
        <time>2024-05-21T09:07:41.000Z</time>
      </trkpt>
      <trkpt lat="45.20775" lon="4.81262">
        <ele>131</ele>
        <time>2024-05-21T09:07:42.000Z</time>
      </trkpt>
      <trkpt lat="45.20769" lon="4.81266">
        <ele>131.19999694824</ele>
        <time>2024-05-21T09:07:43.000Z</time>
      </trkpt>
      <trkpt lat="45.20763" lon="4.81268">
        <ele>131.60000610352</ele>
        <time>2024-05-21T09:07:44.000Z</time>
      </trkpt>
      <trkpt lat="45.20757" lon="4.8127">
        <ele>131.80000305176</ele>
        <time>2024-05-21T09:07:45.000Z</time>
      </trkpt>
      <trkpt lat="45.20751" lon="4.81272">
        <ele>131.80000305176</ele>
        <time>2024-05-21T09:07:46.000Z</time>
      </trkpt>
      <trkpt lat="45.20745" lon="4.81274">
        <ele>132</ele>
        <time>2024-05-21T09:07:47.000Z</time>
      </trkpt>
      <trkpt lat="45.2074" lon="4.81275">
        <ele>132</ele>
        <time>2024-05-21T09:07:48.000Z</time>
      </trkpt>
      <trkpt lat="45.20734" lon="4.81277">
        <ele>132</ele>
        <time>2024-05-21T09:07:49.000Z</time>
      </trkpt>
      <trkpt lat="45.20728" lon="4.8128">
        <ele>132</ele>
        <time>2024-05-21T09:07:50.000Z</time>
      </trkpt>
      <trkpt lat="45.20722" lon="4.81284">
        <ele>132.19999694824</ele>
        <time>2024-05-21T09:07:51.000Z</time>
      </trkpt>
      <trkpt lat="45.20715" lon="4.81286">
        <ele>132.19999694824</ele>
        <time>2024-05-21T09:07:52.000Z</time>
      </trkpt>
      <trkpt lat="45.20709" lon="4.81289">
        <ele>132.19999694824</ele>
        <time>2024-05-21T09:07:53.000Z</time>
      </trkpt>
      <trkpt lat="45.20703" lon="4.81292">
        <ele>132.19999694824</ele>
        <time>2024-05-21T09:07:54.000Z</time>
      </trkpt>
      <trkpt lat="45.20697" lon="4.81295">
        <ele>132</ele>
        <time>2024-05-21T09:07:55.000Z</time>
      </trkpt>
      <trkpt lat="45.20691" lon="4.81298">
        <ele>132</ele>
        <time>2024-05-21T09:07:56.000Z</time>
      </trkpt>
      <trkpt lat="45.20685" lon="4.81301">
        <ele>132</ele>
        <time>2024-05-21T09:07:57.000Z</time>
      </trkpt>
      <trkpt lat="45.2068" lon="4.81304">
        <ele>132</ele>
        <time>2024-05-21T09:07:58.000Z</time>
      </trkpt>
      <trkpt lat="45.20674" lon="4.81307">
        <ele>132</ele>
        <time>2024-05-21T09:07:59.000Z</time>
      </trkpt>
      <trkpt lat="45.20668" lon="4.81311">
        <ele>132.19999694824</ele>
        <time>2024-05-21T09:08:00.000Z</time>
      </trkpt>
      <trkpt lat="45.20662" lon="4.81314">
        <ele>132.19999694824</ele>
        <time>2024-05-21T09:08:01.000Z</time>
      </trkpt>
      <trkpt lat="45.20656" lon="4.81318">
        <ele>132.19999694824</ele>
        <time>2024-05-21T09:08:02.000Z</time>
      </trkpt>
      <trkpt lat="45.20651" lon="4.81321">
        <ele>132.19999694824</ele>
        <time>2024-05-21T09:08:03.000Z</time>
      </trkpt>
      <trkpt lat="45.20645" lon="4.81325">
        <ele>132.19999694824</ele>
        <time>2024-05-21T09:08:04.000Z</time>
      </trkpt>
      <trkpt lat="45.20639" lon="4.81328">
        <ele>132.19999694824</ele>
        <time>2024-05-21T09:08:05.000Z</time>
      </trkpt>
      <trkpt lat="45.20634" lon="4.81333">
        <ele>132</ele>
        <time>2024-05-21T09:08:06.000Z</time>
      </trkpt>
      <trkpt lat="45.20628" lon="4.81338">
        <ele>131.80000305176</ele>
        <time>2024-05-21T09:08:07.000Z</time>
      </trkpt>
      <trkpt lat="45.20623" lon="4.81343">
        <ele>131.60000610352</ele>
        <time>2024-05-21T09:08:08.000Z</time>
      </trkpt>
      <trkpt lat="45.20618" lon="4.81348">
        <ele>131.60000610352</ele>
        <time>2024-05-21T09:08:09.000Z</time>
      </trkpt>
      <trkpt lat="45.20612" lon="4.81353">
        <ele>131.60000610352</ele>
        <time>2024-05-21T09:08:10.000Z</time>
      </trkpt>
      <trkpt lat="45.20606" lon="4.81355">
        <ele>131.60000610352</ele>
        <time>2024-05-21T09:08:11.000Z</time>
      </trkpt>
      <trkpt lat="45.20599" lon="4.81357">
        <ele>131.39999389648</ele>
        <time>2024-05-21T09:08:12.000Z</time>
      </trkpt>
      <trkpt lat="45.20593" lon="4.81358">
        <ele>131.19999694824</ele>
        <time>2024-05-21T09:08:13.000Z</time>
      </trkpt>
      <trkpt lat="45.20586" lon="4.81359">
        <ele>130.80000305176</ele>
        <time>2024-05-21T09:08:14.000Z</time>
      </trkpt>
      <trkpt lat="45.20579" lon="4.81361">
        <ele>130.60000610352</ele>
        <time>2024-05-21T09:08:15.000Z</time>
      </trkpt>
      <trkpt lat="45.20573" lon="4.81365">
        <ele>130.19999694824</ele>
        <time>2024-05-21T09:08:16.000Z</time>
      </trkpt>
      <trkpt lat="45.20569" lon="4.81372">
        <ele>130.19999694824</ele>
        <time>2024-05-21T09:08:17.000Z</time>
      </trkpt>
      <trkpt lat="45.20565" lon="4.81378">
        <ele>130.19999694824</ele>
        <time>2024-05-21T09:08:18.000Z</time>
      </trkpt>
      <trkpt lat="45.2056" lon="4.81384">
        <ele>130.19999694824</ele>
        <time>2024-05-21T09:08:19.000Z</time>
      </trkpt>
      <trkpt lat="45.20555" lon="4.81387">
        <ele>130.39999389648</ele>
        <time>2024-05-21T09:08:20.000Z</time>
      </trkpt>
      <trkpt lat="45.2055" lon="4.81389">
        <ele>130.80000305176</ele>
        <time>2024-05-21T09:08:21.000Z</time>
      </trkpt>
      <trkpt lat="45.20545" lon="4.8139">
        <ele>130.80000305176</ele>
        <time>2024-05-21T09:08:22.000Z</time>
      </trkpt>
      <trkpt lat="45.20539" lon="4.81391">
        <ele>131</ele>
        <time>2024-05-21T09:08:23.000Z</time>
      </trkpt>
      <trkpt lat="45.20532" lon="4.81392">
        <ele>131</ele>
        <time>2024-05-21T09:08:24.000Z</time>
      </trkpt>
      <trkpt lat="45.20526" lon="4.81392">
        <ele>131</ele>
        <time>2024-05-21T09:08:25.000Z</time>
      </trkpt>
      <trkpt lat="45.20519" lon="4.81392">
        <ele>130.80000305176</ele>
        <time>2024-05-21T09:08:26.000Z</time>
      </trkpt>
      <trkpt lat="45.20512" lon="4.81392">
        <ele>130.80000305176</ele>
        <time>2024-05-21T09:08:27.000Z</time>
      </trkpt>
      <trkpt lat="45.20506" lon="4.81393">
        <ele>130.80000305176</ele>
        <time>2024-05-21T09:08:28.000Z</time>
      </trkpt>
      <trkpt lat="45.20499" lon="4.81393">
        <ele>131</ele>
        <time>2024-05-21T09:08:29.000Z</time>
      </trkpt>
      <trkpt lat="45.20492" lon="4.81394">
        <ele>131</ele>
        <time>2024-05-21T09:08:30.000Z</time>
      </trkpt>
      <trkpt lat="45.20486" lon="4.81394">
        <ele>131</ele>
        <time>2024-05-21T09:08:31.000Z</time>
      </trkpt>
      <trkpt lat="45.20479" lon="4.81394">
        <ele>131</ele>
        <time>2024-05-21T09:08:32.000Z</time>
      </trkpt>
      <trkpt lat="45.20472" lon="4.81394">
        <ele>131</ele>
        <time>2024-05-21T09:08:33.000Z</time>
      </trkpt>
      <trkpt lat="45.20465" lon="4.81394">
        <ele>131</ele>
        <time>2024-05-21T09:08:34.000Z</time>
      </trkpt>
      <trkpt lat="45.20459" lon="4.81393">
        <ele>131</ele>
        <time>2024-05-21T09:08:35.000Z</time>
      </trkpt>
      <trkpt lat="45.20452" lon="4.81393">
        <ele>131</ele>
        <time>2024-05-21T09:08:36.000Z</time>
      </trkpt>
      <trkpt lat="45.20446" lon="4.81393">
        <ele>131</ele>
        <time>2024-05-21T09:08:37.000Z</time>
      </trkpt>
      <trkpt lat="45.2044" lon="4.81392">
        <ele>131</ele>
        <time>2024-05-21T09:08:38.000Z</time>
      </trkpt>
      <trkpt lat="45.20433" lon="4.81392">
        <ele>131</ele>
        <time>2024-05-21T09:08:39.000Z</time>
      </trkpt>
      <trkpt lat="45.20426" lon="4.81391">
        <ele>131</ele>
        <time>2024-05-21T09:08:40.000Z</time>
      </trkpt>
      <trkpt lat="45.2042" lon="4.81391">
        <ele>131</ele>
        <time>2024-05-21T09:08:41.000Z</time>
      </trkpt>
      <trkpt lat="45.20413" lon="4.81391">
        <ele>131</ele>
        <time>2024-05-21T09:08:42.000Z</time>
      </trkpt>
      <trkpt lat="45.20407" lon="4.8139">
        <ele>131</ele>
        <time>2024-05-21T09:08:43.000Z</time>
      </trkpt>
      <trkpt lat="45.204" lon="4.8139">
        <ele>131</ele>
        <time>2024-05-21T09:08:44.000Z</time>
      </trkpt>
      <trkpt lat="45.20394" lon="4.81391">
        <ele>131</ele>
        <time>2024-05-21T09:08:45.000Z</time>
      </trkpt>
      <trkpt lat="45.20387" lon="4.81391">
        <ele>131</ele>
        <time>2024-05-21T09:08:46.000Z</time>
      </trkpt>
      <trkpt lat="45.20381" lon="4.81392">
        <ele>131</ele>
        <time>2024-05-21T09:08:47.000Z</time>
      </trkpt>
      <trkpt lat="45.20375" lon="4.81392">
        <ele>131</ele>
        <time>2024-05-21T09:08:48.000Z</time>
      </trkpt>
      <trkpt lat="45.20369" lon="4.81392">
        <ele>131</ele>
        <time>2024-05-21T09:08:49.000Z</time>
      </trkpt>
      <trkpt lat="45.20362" lon="4.81392">
        <ele>131</ele>
        <time>2024-05-21T09:08:50.000Z</time>
      </trkpt>
      <trkpt lat="45.20356" lon="4.81391">
        <ele>131</ele>
        <time>2024-05-21T09:08:51.000Z</time>
      </trkpt>
      <trkpt lat="45.2035" lon="4.81391">
        <ele>131</ele>
        <time>2024-05-21T09:08:52.000Z</time>
      </trkpt>
      <trkpt lat="45.20344" lon="4.8139">
        <ele>131</ele>
        <time>2024-05-21T09:08:53.000Z</time>
      </trkpt>
      <trkpt lat="45.20338" lon="4.8139">
        <ele>131</ele>
        <time>2024-05-21T09:08:54.000Z</time>
      </trkpt>
      <trkpt lat="45.20332" lon="4.8139">
        <ele>130.60000610352</ele>
        <time>2024-05-21T09:08:55.000Z</time>
      </trkpt>
      <trkpt lat="45.20326" lon="4.81389">
        <ele>130.39999389648</ele>
        <time>2024-05-21T09:08:56.000Z</time>
      </trkpt>
      <trkpt lat="45.2032" lon="4.81388">
        <ele>130.19999694824</ele>
        <time>2024-05-21T09:08:57.000Z</time>
      </trkpt>
      <trkpt lat="45.20314" lon="4.81386">
        <ele>129.80000305176</ele>
        <time>2024-05-21T09:08:58.000Z</time>
      </trkpt>
      <trkpt lat="45.20308" lon="4.81384">
        <ele>130</ele>
        <time>2024-05-21T09:08:59.000Z</time>
      </trkpt>
      <trkpt lat="45.20302" lon="4.81381">
        <ele>130</ele>
        <time>2024-05-21T09:09:00.000Z</time>
      </trkpt>
      <trkpt lat="45.20297" lon="4.81378">
        <ele>130</ele>
        <time>2024-05-21T09:09:01.000Z</time>
      </trkpt>
      <trkpt lat="45.20292" lon="4.81374">
        <ele>130</ele>
        <time>2024-05-21T09:09:02.000Z</time>
      </trkpt>
      <trkpt lat="45.20286" lon="4.81371">
        <ele>130.19999694824</ele>
        <time>2024-05-21T09:09:03.000Z</time>
      </trkpt>
      <trkpt lat="45.20281" lon="4.81368">
        <ele>130.19999694824</ele>
        <time>2024-05-21T09:09:04.000Z</time>
      </trkpt>
      <trkpt lat="45.20276" lon="4.81364">
        <ele>130.39999389648</ele>
        <time>2024-05-21T09:09:05.000Z</time>
      </trkpt>
      <trkpt lat="45.2027" lon="4.8136">
        <ele>130.60000610352</ele>
        <time>2024-05-21T09:09:06.000Z</time>
      </trkpt>
      <trkpt lat="45.20265" lon="4.81356">
        <ele>130.80000305176</ele>
        <time>2024-05-21T09:09:07.000Z</time>
      </trkpt>
      <trkpt lat="45.2026" lon="4.81352">
        <ele>131.19999694824</ele>
        <time>2024-05-21T09:09:08.000Z</time>
      </trkpt>
      <trkpt lat="45.20255" lon="4.81349">
        <ele>131.39999389648</ele>
        <time>2024-05-21T09:09:09.000Z</time>
      </trkpt>
      <trkpt lat="45.2025" lon="4.81346">
        <ele>131.60000610352</ele>
        <time>2024-05-21T09:09:10.000Z</time>
      </trkpt>
      <trkpt lat="45.20244" lon="4.81344">
        <ele>131.60000610352</ele>
        <time>2024-05-21T09:09:11.000Z</time>
      </trkpt>
      <trkpt lat="45.20238" lon="4.81341">
        <ele>131.80000305176</ele>
        <time>2024-05-21T09:09:12.000Z</time>
      </trkpt>
      <trkpt lat="45.20233" lon="4.81338">
        <ele>131.80000305176</ele>
        <time>2024-05-21T09:09:13.000Z</time>
      </trkpt>
      <trkpt lat="45.20227" lon="4.81334">
        <ele>131.80000305176</ele>
        <time>2024-05-21T09:09:14.000Z</time>
      </trkpt>
      <trkpt lat="45.20222" lon="4.8133">
        <ele>131.80000305176</ele>
        <time>2024-05-21T09:09:15.000Z</time>
      </trkpt>
      <trkpt lat="45.20217" lon="4.81326">
        <ele>131.60000610352</ele>
        <time>2024-05-21T09:09:16.000Z</time>
      </trkpt>
      <trkpt lat="45.20211" lon="4.81322">
        <ele>131.60000610352</ele>
        <time>2024-05-21T09:09:17.000Z</time>
      </trkpt>
      <trkpt lat="45.20206" lon="4.81317">
        <ele>131.60000610352</ele>
        <time>2024-05-21T09:09:18.000Z</time>
      </trkpt>
      <trkpt lat="45.20201" lon="4.81313">
        <ele>131.60000610352</ele>
        <time>2024-05-21T09:09:19.000Z</time>
      </trkpt>
      <trkpt lat="45.20195" lon="4.81308">
        <ele>131.39999389648</ele>
        <time>2024-05-21T09:09:20.000Z</time>
      </trkpt>
      <trkpt lat="45.2019" lon="4.81303">
        <ele>131.39999389648</ele>
        <time>2024-05-21T09:09:21.000Z</time>
      </trkpt>
      <trkpt lat="45.20186" lon="4.81298">
        <ele>131.39999389648</ele>
        <time>2024-05-21T09:09:22.000Z</time>
      </trkpt>
      <trkpt lat="45.20181" lon="4.81292">
        <ele>131.39999389648</ele>
        <time>2024-05-21T09:09:23.000Z</time>
      </trkpt>
      <trkpt lat="45.20176" lon="4.81287">
        <ele>131.39999389648</ele>
        <time>2024-05-21T09:09:24.000Z</time>
      </trkpt>
      <trkpt lat="45.20172" lon="4.81281">
        <ele>131.39999389648</ele>
        <time>2024-05-21T09:09:25.000Z</time>
      </trkpt>
      <trkpt lat="45.20168" lon="4.81275">
        <ele>131.39999389648</ele>
        <time>2024-05-21T09:09:26.000Z</time>
      </trkpt>
      <trkpt lat="45.20163" lon="4.81269">
        <ele>131.39999389648</ele>
        <time>2024-05-21T09:09:27.000Z</time>
      </trkpt>
      <trkpt lat="45.20159" lon="4.81263">
        <ele>131.60000610352</ele>
        <time>2024-05-21T09:09:28.000Z</time>
      </trkpt>
      <trkpt lat="45.20155" lon="4.81256">
        <ele>131.60000610352</ele>
        <time>2024-05-21T09:09:29.000Z</time>
      </trkpt>
      <trkpt lat="45.20151" lon="4.8125">
        <ele>131.80000305176</ele>
        <time>2024-05-21T09:09:30.000Z</time>
      </trkpt>
      <trkpt lat="45.20146" lon="4.81244">
        <ele>131.80000305176</ele>
        <time>2024-05-21T09:09:31.000Z</time>
      </trkpt>
      <trkpt lat="45.20142" lon="4.81238">
        <ele>131.80000305176</ele>
        <time>2024-05-21T09:09:32.000Z</time>
      </trkpt>
      <trkpt lat="45.20138" lon="4.81232">
        <ele>132</ele>
        <time>2024-05-21T09:09:33.000Z</time>
      </trkpt>
      <trkpt lat="45.20133" lon="4.81226">
        <ele>132</ele>
        <time>2024-05-21T09:09:34.000Z</time>
      </trkpt>
      <trkpt lat="45.20129" lon="4.81221">
        <ele>132</ele>
        <time>2024-05-21T09:09:35.000Z</time>
      </trkpt>
      <trkpt lat="45.20125" lon="4.81215">
        <ele>132</ele>
        <time>2024-05-21T09:09:36.000Z</time>
      </trkpt>
      <trkpt lat="45.20121" lon="4.81209">
        <ele>132</ele>
        <time>2024-05-21T09:09:37.000Z</time>
      </trkpt>
      <trkpt lat="45.20116" lon="4.81204">
        <ele>132</ele>
        <time>2024-05-21T09:09:38.000Z</time>
      </trkpt>
      <trkpt lat="45.20112" lon="4.81199">
        <ele>132</ele>
        <time>2024-05-21T09:09:39.000Z</time>
      </trkpt>
      <trkpt lat="45.20108" lon="4.81193">
        <ele>132</ele>
        <time>2024-05-21T09:09:40.000Z</time>
      </trkpt>
      <trkpt lat="45.20104" lon="4.81187">
        <ele>132</ele>
        <time>2024-05-21T09:09:41.000Z</time>
      </trkpt>
      <trkpt lat="45.201" lon="4.81181">
        <ele>132.19999694824</ele>
        <time>2024-05-21T09:09:42.000Z</time>
      </trkpt>
      <trkpt lat="45.20097" lon="4.81175">
        <ele>132.39999389648</ele>
        <time>2024-05-21T09:09:43.000Z</time>
      </trkpt>
      <trkpt lat="45.20093" lon="4.81168">
        <ele>132.60000610352</ele>
        <time>2024-05-21T09:09:44.000Z</time>
      </trkpt>
      <trkpt lat="45.20089" lon="4.8116">
        <ele>132.80000305176</ele>
        <time>2024-05-21T09:09:45.000Z</time>
      </trkpt>
      <trkpt lat="45.20086" lon="4.81153">
        <ele>132.80000305176</ele>
        <time>2024-05-21T09:09:46.000Z</time>
      </trkpt>
      <trkpt lat="45.20082" lon="4.81146">
        <ele>132.80000305176</ele>
        <time>2024-05-21T09:09:47.000Z</time>
      </trkpt>
      <trkpt lat="45.20078" lon="4.81139">
        <ele>132.80000305176</ele>
        <time>2024-05-21T09:09:48.000Z</time>
      </trkpt>
      <trkpt lat="45.20075" lon="4.81132">
        <ele>132.60000610352</ele>
        <time>2024-05-21T09:09:49.000Z</time>
      </trkpt>
      <trkpt lat="45.20071" lon="4.81125">
        <ele>132.19999694824</ele>
        <time>2024-05-21T09:09:50.000Z</time>
      </trkpt>
      <trkpt lat="45.20067" lon="4.81117">
        <ele>132.19999694824</ele>
        <time>2024-05-21T09:09:51.000Z</time>
      </trkpt>
      <trkpt lat="45.20063" lon="4.81109">
        <ele>132.19999694824</ele>
        <time>2024-05-21T09:09:52.000Z</time>
      </trkpt>
      <trkpt lat="45.2006" lon="4.81102">
        <ele>132.19999694824</ele>
        <time>2024-05-21T09:09:53.000Z</time>
      </trkpt>
      <trkpt lat="45.20056" lon="4.81095">
        <ele>132</ele>
        <time>2024-05-21T09:09:54.000Z</time>
      </trkpt>
      <trkpt lat="45.20052" lon="4.81088">
        <ele>132</ele>
        <time>2024-05-21T09:09:55.000Z</time>
      </trkpt>
      <trkpt lat="45.20049" lon="4.8108">
        <ele>132</ele>
        <time>2024-05-21T09:09:56.000Z</time>
      </trkpt>
      <trkpt lat="45.20045" lon="4.81073">
        <ele>132</ele>
        <time>2024-05-21T09:09:57.000Z</time>
      </trkpt>
      <trkpt lat="45.20041" lon="4.81066">
        <ele>132</ele>
        <time>2024-05-21T09:09:58.000Z</time>
      </trkpt>
      <trkpt lat="45.20037" lon="4.81058">
        <ele>132</ele>
        <time>2024-05-21T09:09:59.000Z</time>
      </trkpt>
      <trkpt lat="45.20033" lon="4.81051">
        <ele>132</ele>
        <time>2024-05-21T09:10:00.000Z</time>
      </trkpt>
      <trkpt lat="45.2003" lon="4.81043">
        <ele>132</ele>
        <time>2024-05-21T09:10:01.000Z</time>
      </trkpt>
      <trkpt lat="45.20026" lon="4.81036">
        <ele>132</ele>
        <time>2024-05-21T09:10:02.000Z</time>
      </trkpt>
      <trkpt lat="45.20023" lon="4.81029">
        <ele>132</ele>
        <time>2024-05-21T09:10:03.000Z</time>
      </trkpt>
      <trkpt lat="45.2002" lon="4.81023">
        <ele>132</ele>
        <time>2024-05-21T09:10:04.000Z</time>
      </trkpt>
      <trkpt lat="45.20016" lon="4.81014">
        <ele>132</ele>
        <time>2024-05-21T09:10:05.000Z</time>
      </trkpt>
      <trkpt lat="45.20013" lon="4.81007">
        <ele>132</ele>
        <time>2024-05-21T09:10:06.000Z</time>
      </trkpt>
      <trkpt lat="45.20009" lon="4.81">
        <ele>131.80000305176</ele>
        <time>2024-05-21T09:10:07.000Z</time>
      </trkpt>
      <trkpt lat="45.20006" lon="4.80994">
        <ele>131.80000305176</ele>
        <time>2024-05-21T09:10:08.000Z</time>
      </trkpt>
      <trkpt lat="45.20002" lon="4.80987">
        <ele>131.60000610352</ele>
        <time>2024-05-21T09:10:09.000Z</time>
      </trkpt>
      <trkpt lat="45.19998" lon="4.80979">
        <ele>131.60000610352</ele>
        <time>2024-05-21T09:10:10.000Z</time>
      </trkpt>
      <trkpt lat="45.19993" lon="4.80972">
        <ele>131.39999389648</ele>
        <time>2024-05-21T09:10:11.000Z</time>
      </trkpt>
      <trkpt lat="45.19989" lon="4.80965">
        <ele>131.39999389648</ele>
        <time>2024-05-21T09:10:12.000Z</time>
      </trkpt>
      <trkpt lat="45.19985" lon="4.80959">
        <ele>131.39999389648</ele>
        <time>2024-05-21T09:10:13.000Z</time>
      </trkpt>
      <trkpt lat="45.19981" lon="4.80952">
        <ele>131.19999694824</ele>
        <time>2024-05-21T09:10:14.000Z</time>
      </trkpt>
      <trkpt lat="45.19976" lon="4.80945">
        <ele>131</ele>
        <time>2024-05-21T09:10:15.000Z</time>
      </trkpt>
      <trkpt lat="45.19971" lon="4.80938">
        <ele>130.80000305176</ele>
        <time>2024-05-21T09:10:16.000Z</time>
      </trkpt>
      <trkpt lat="45.19966" lon="4.80931">
        <ele>130.80000305176</ele>
        <time>2024-05-21T09:10:17.000Z</time>
      </trkpt>
      <trkpt lat="45.19961" lon="4.80923">
        <ele>130.80000305176</ele>
        <time>2024-05-21T09:10:18.000Z</time>
      </trkpt>
      <trkpt lat="45.19956" lon="4.80916">
        <ele>130.80000305176</ele>
        <time>2024-05-21T09:10:19.000Z</time>
      </trkpt>
      <trkpt lat="45.1995" lon="4.80909">
        <ele>130.80000305176</ele>
        <time>2024-05-21T09:10:20.000Z</time>
      </trkpt>
      <trkpt lat="45.19945" lon="4.80903">
        <ele>130.60000610352</ele>
        <time>2024-05-21T09:10:21.000Z</time>
      </trkpt>
      <trkpt lat="45.1994" lon="4.80896">
        <ele>130.39999389648</ele>
        <time>2024-05-21T09:10:22.000Z</time>
      </trkpt>
      <trkpt lat="45.19935" lon="4.80891">
        <ele>130.39999389648</ele>
        <time>2024-05-21T09:10:23.000Z</time>
      </trkpt>
      <trkpt lat="45.19929" lon="4.80884">
        <ele>130.19999694824</ele>
        <time>2024-05-21T09:10:24.000Z</time>
      </trkpt>
      <trkpt lat="45.19924" lon="4.80878">
        <ele>130.19999694824</ele>
        <time>2024-05-21T09:10:25.000Z</time>
      </trkpt>
      <trkpt lat="45.19918" lon="4.80872">
        <ele>130.19999694824</ele>
        <time>2024-05-21T09:10:26.000Z</time>
      </trkpt>
      <trkpt lat="45.19914" lon="4.80867">
        <ele>130</ele>
        <time>2024-05-21T09:10:27.000Z</time>
      </trkpt>
      <trkpt lat="45.19908" lon="4.8086">
        <ele>130</ele>
        <time>2024-05-21T09:10:28.000Z</time>
      </trkpt>
      <trkpt lat="45.19902" lon="4.80855">
        <ele>130</ele>
        <time>2024-05-21T09:10:29.000Z</time>
      </trkpt>
      <trkpt lat="45.19898" lon="4.8085">
        <ele>129.80000305176</ele>
        <time>2024-05-21T09:10:30.000Z</time>
      </trkpt>
      <trkpt lat="45.19893" lon="4.80844">
        <ele>129.80000305176</ele>
        <time>2024-05-21T09:10:31.000Z</time>
      </trkpt>
      <trkpt lat="45.19888" lon="4.80838">
        <ele>129.80000305176</ele>
        <time>2024-05-21T09:10:32.000Z</time>
      </trkpt>
      <trkpt lat="45.19884" lon="4.80831">
        <ele>129.80000305176</ele>
        <time>2024-05-21T09:10:33.000Z</time>
      </trkpt>
      <trkpt lat="45.19878" lon="4.80824">
        <ele>129.80000305176</ele>
        <time>2024-05-21T09:10:34.000Z</time>
      </trkpt>
      <trkpt lat="45.19875" lon="4.80819">
        <ele>129.60000610352</ele>
        <time>2024-05-21T09:10:35.000Z</time>
      </trkpt>
      <trkpt lat="45.1987" lon="4.80814">
        <ele>129.60000610352</ele>
        <time>2024-05-21T09:10:36.000Z</time>
      </trkpt>
      <trkpt lat="45.19865" lon="4.80808">
        <ele>129.60000610352</ele>
        <time>2024-05-21T09:10:37.000Z</time>
      </trkpt>
      <trkpt lat="45.1986" lon="4.80804">
        <ele>129.60000610352</ele>
        <time>2024-05-21T09:10:38.000Z</time>
      </trkpt>
      <trkpt lat="45.19853" lon="4.80799">
        <ele>129.80000305176</ele>
        <time>2024-05-21T09:10:39.000Z</time>
      </trkpt>
      <trkpt lat="45.19849" lon="4.80797">
        <ele>130</ele>
        <time>2024-05-21T09:10:40.000Z</time>
      </trkpt>
      <trkpt lat="45.19843" lon="4.80794">
        <ele>130.39999389648</ele>
        <time>2024-05-21T09:10:41.000Z</time>
      </trkpt>
      <trkpt lat="45.19836" lon="4.80792">
        <ele>130.60000610352</ele>
        <time>2024-05-21T09:10:42.000Z</time>
      </trkpt>
      <trkpt lat="45.19831" lon="4.8079">
        <ele>130.60000610352</ele>
        <time>2024-05-21T09:10:43.000Z</time>
      </trkpt>
      <trkpt lat="45.19825" lon="4.80788">
        <ele>130.60000610352</ele>
        <time>2024-05-21T09:10:44.000Z</time>
      </trkpt>
      <trkpt lat="45.1982" lon="4.80787">
        <ele>130.60000610352</ele>
        <time>2024-05-21T09:10:45.000Z</time>
      </trkpt>
      <trkpt lat="45.19814" lon="4.80785">
        <ele>130.80000305176</ele>
        <time>2024-05-21T09:10:46.000Z</time>
      </trkpt>
      <trkpt lat="45.19809" lon="4.80784">
        <ele>131</ele>
        <time>2024-05-21T09:10:47.000Z</time>
      </trkpt>
      <trkpt lat="45.19804" lon="4.80784">
        <ele>131.19999694824</ele>
        <time>2024-05-21T09:10:48.000Z</time>
      </trkpt>
      <trkpt lat="45.19799" lon="4.80784">
        <ele>131.60000610352</ele>
        <time>2024-05-21T09:10:49.000Z</time>
      </trkpt>
      <trkpt lat="45.19793" lon="4.80784">
        <ele>131.80000305176</ele>
        <time>2024-05-21T09:10:50.000Z</time>
      </trkpt>
      <trkpt lat="45.19789" lon="4.80784">
        <ele>132</ele>
        <time>2024-05-21T09:10:51.000Z</time>
      </trkpt>
      <trkpt lat="45.19784" lon="4.80785">
        <ele>132.39999389648</ele>
        <time>2024-05-21T09:10:52.000Z</time>
      </trkpt>
      <trkpt lat="45.19779" lon="4.80785">
        <ele>132.60000610352</ele>
        <time>2024-05-21T09:10:53.000Z</time>
      </trkpt>
      <trkpt lat="45.19775" lon="4.80785">
        <ele>132.80000305176</ele>
        <time>2024-05-21T09:10:54.000Z</time>
      </trkpt>
      <trkpt lat="45.1977" lon="4.80784">
        <ele>133</ele>
        <time>2024-05-21T09:10:55.000Z</time>
      </trkpt>
      <trkpt lat="45.19766" lon="4.80784">
        <ele>133.19999694824</ele>
        <time>2024-05-21T09:10:56.000Z</time>
      </trkpt>
      <trkpt lat="45.19761" lon="4.80784">
        <ele>133.19999694824</ele>
        <time>2024-05-21T09:10:57.000Z</time>
      </trkpt>
      <trkpt lat="45.19756" lon="4.80783">
        <ele>133.19999694824</ele>
        <time>2024-05-21T09:10:58.000Z</time>
      </trkpt>
      <trkpt lat="45.19751" lon="4.80783">
        <ele>133.19999694824</ele>
        <time>2024-05-21T09:10:59.000Z</time>
      </trkpt>
      <trkpt lat="45.19746" lon="4.80781">
        <ele>133.19999694824</ele>
        <time>2024-05-21T09:11:00.000Z</time>
      </trkpt>
      <trkpt lat="45.19741" lon="4.80779">
        <ele>133.19999694824</ele>
        <time>2024-05-21T09:11:01.000Z</time>
      </trkpt>
      <trkpt lat="45.19735" lon="4.80777">
        <ele>133</ele>
        <time>2024-05-21T09:11:02.000Z</time>
      </trkpt>
      <trkpt lat="45.19729" lon="4.80776">
        <ele>133</ele>
        <time>2024-05-21T09:11:03.000Z</time>
      </trkpt>
      <trkpt lat="45.19724" lon="4.80774">
        <ele>133</ele>
        <time>2024-05-21T09:11:04.000Z</time>
      </trkpt>
      <trkpt lat="45.19719" lon="4.80772">
        <ele>132.80000305176</ele>
        <time>2024-05-21T09:11:05.000Z</time>
      </trkpt>
      <trkpt lat="45.19713" lon="4.80771">
        <ele>132.80000305176</ele>
        <time>2024-05-21T09:11:06.000Z</time>
      </trkpt>
      <trkpt lat="45.19707" lon="4.80771">
        <ele>132.80000305176</ele>
        <time>2024-05-21T09:11:07.000Z</time>
      </trkpt>
      <trkpt lat="45.19702" lon="4.80771">
        <ele>132.60000610352</ele>
        <time>2024-05-21T09:11:08.000Z</time>
      </trkpt>
      <trkpt lat="45.19696" lon="4.80771">
        <ele>132.60000610352</ele>
        <time>2024-05-21T09:11:09.000Z</time>
      </trkpt>
      <trkpt lat="45.1969" lon="4.80771">
        <ele>132.39999389648</ele>
        <time>2024-05-21T09:11:10.000Z</time>
      </trkpt>
      <trkpt lat="45.19684" lon="4.8077">
        <ele>132.39999389648</ele>
        <time>2024-05-21T09:11:11.000Z</time>
      </trkpt>
      <trkpt lat="45.19679" lon="4.8077">
        <ele>132.39999389648</ele>
        <time>2024-05-21T09:11:12.000Z</time>
      </trkpt>
      <trkpt lat="45.19672" lon="4.80769">
        <ele>132.39999389648</ele>
        <time>2024-05-21T09:11:13.000Z</time>
      </trkpt>
      <trkpt lat="45.19667" lon="4.80769">
        <ele>132.19999694824</ele>
        <time>2024-05-21T09:11:14.000Z</time>
      </trkpt>
      <trkpt lat="45.19661" lon="4.80768">
        <ele>132.19999694824</ele>
        <time>2024-05-21T09:11:15.000Z</time>
      </trkpt>
      <trkpt lat="45.19655" lon="4.80767">
        <ele>132</ele>
        <time>2024-05-21T09:11:16.000Z</time>
      </trkpt>
      <trkpt lat="45.1965" lon="4.80767">
        <ele>131.80000305176</ele>
        <time>2024-05-21T09:11:17.000Z</time>
      </trkpt>
      <trkpt lat="45.19644" lon="4.80766">
        <ele>131.60000610352</ele>
        <time>2024-05-21T09:11:18.000Z</time>
      </trkpt>
      <trkpt lat="45.19637" lon="4.80765">
        <ele>131.39999389648</ele>
        <time>2024-05-21T09:11:19.000Z</time>
      </trkpt>
      <trkpt lat="45.19631" lon="4.80765">
        <ele>131.39999389648</ele>
        <time>2024-05-21T09:11:20.000Z</time>
      </trkpt>
      <trkpt lat="45.19625" lon="4.80764">
        <ele>131.19999694824</ele>
        <time>2024-05-21T09:11:21.000Z</time>
      </trkpt>
      <trkpt lat="45.19619" lon="4.80763">
        <ele>131</ele>
        <time>2024-05-21T09:11:22.000Z</time>
      </trkpt>
      <trkpt lat="45.19613" lon="4.80763">
        <ele>131</ele>
        <time>2024-05-21T09:11:23.000Z</time>
      </trkpt>
      <trkpt lat="45.19607" lon="4.80763">
        <ele>131</ele>
        <time>2024-05-21T09:11:24.000Z</time>
      </trkpt>
      <trkpt lat="45.196" lon="4.80763">
        <ele>131</ele>
        <time>2024-05-21T09:11:25.000Z</time>
      </trkpt>
      <trkpt lat="45.19594" lon="4.80763">
        <ele>131</ele>
        <time>2024-05-21T09:11:26.000Z</time>
      </trkpt>
      <trkpt lat="45.19588" lon="4.80763">
        <ele>131.60000610352</ele>
        <time>2024-05-21T09:11:27.000Z</time>
      </trkpt>
      <trkpt lat="45.19582" lon="4.80763">
        <ele>131.60000610352</ele>
        <time>2024-05-21T09:11:28.000Z</time>
      </trkpt>
      <trkpt lat="45.19576" lon="4.80763">
        <ele>131.60000610352</ele>
        <time>2024-05-21T09:11:29.000Z</time>
      </trkpt>
      <trkpt lat="45.1957" lon="4.80764">
        <ele>131.60000610352</ele>
        <time>2024-05-21T09:11:30.000Z</time>
      </trkpt>
      <trkpt lat="45.19563" lon="4.80764">
        <ele>131.60000610352</ele>
        <time>2024-05-21T09:11:31.000Z</time>
      </trkpt>
      <trkpt lat="45.19557" lon="4.80764">
        <ele>131.60000610352</ele>
        <time>2024-05-21T09:11:32.000Z</time>
      </trkpt>
      <trkpt lat="45.19551" lon="4.80764">
        <ele>131.60000610352</ele>
        <time>2024-05-21T09:11:33.000Z</time>
      </trkpt>
      <trkpt lat="45.19545" lon="4.80765">
        <ele>131.60000610352</ele>
        <time>2024-05-21T09:11:34.000Z</time>
      </trkpt>
      <trkpt lat="45.19539" lon="4.80765">
        <ele>131.60000610352</ele>
        <time>2024-05-21T09:11:35.000Z</time>
      </trkpt>
      <trkpt lat="45.19533" lon="4.80765">
        <ele>131.60000610352</ele>
        <time>2024-05-21T09:11:36.000Z</time>
      </trkpt>
      <trkpt lat="45.19527" lon="4.80766">
        <ele>131.60000610352</ele>
        <time>2024-05-21T09:11:37.000Z</time>
      </trkpt>
      <trkpt lat="45.1952" lon="4.80766">
        <ele>131.60000610352</ele>
        <time>2024-05-21T09:11:38.000Z</time>
      </trkpt>
      <trkpt lat="45.19514" lon="4.80767">
        <ele>131.60000610352</ele>
        <time>2024-05-21T09:11:39.000Z</time>
      </trkpt>
      <trkpt lat="45.19508" lon="4.80767">
        <ele>131.60000610352</ele>
        <time>2024-05-21T09:11:40.000Z</time>
      </trkpt>
      <trkpt lat="45.19502" lon="4.80766">
        <ele>131.39999389648</ele>
        <time>2024-05-21T09:11:41.000Z</time>
      </trkpt>
      <trkpt lat="45.19496" lon="4.80764">
        <ele>131.39999389648</ele>
        <time>2024-05-21T09:11:42.000Z</time>
      </trkpt>
      <trkpt lat="45.19491" lon="4.80761">
        <ele>131.39999389648</ele>
        <time>2024-05-21T09:11:43.000Z</time>
      </trkpt>
      <trkpt lat="45.19485" lon="4.80759">
        <ele>131.39999389648</ele>
        <time>2024-05-21T09:11:44.000Z</time>
      </trkpt>
      <trkpt lat="45.19479" lon="4.80757">
        <ele>131.39999389648</ele>
        <time>2024-05-21T09:11:45.000Z</time>
      </trkpt>
      <trkpt lat="45.19473" lon="4.80755">
        <ele>131.39999389648</ele>
        <time>2024-05-21T09:11:46.000Z</time>
      </trkpt>
      <trkpt lat="45.19467" lon="4.80755">
        <ele>131.39999389648</ele>
        <time>2024-05-21T09:11:47.000Z</time>
      </trkpt>
      <trkpt lat="45.19461" lon="4.80756">
        <ele>131.60000610352</ele>
        <time>2024-05-21T09:11:48.000Z</time>
      </trkpt>
      <trkpt lat="45.19455" lon="4.80757">
        <ele>131.80000305176</ele>
        <time>2024-05-21T09:11:49.000Z</time>
      </trkpt>
      <trkpt lat="45.19449" lon="4.80759">
        <ele>132</ele>
        <time>2024-05-21T09:11:50.000Z</time>
      </trkpt>
      <trkpt lat="45.19443" lon="4.8076">
        <ele>132</ele>
        <time>2024-05-21T09:11:51.000Z</time>
      </trkpt>
      <trkpt lat="45.19437" lon="4.80761">
        <ele>132</ele>
        <time>2024-05-21T09:11:52.000Z</time>
      </trkpt>
      <trkpt lat="45.19432" lon="4.80763">
        <ele>132</ele>
        <time>2024-05-21T09:11:53.000Z</time>
      </trkpt>
      <trkpt lat="45.19426" lon="4.80764">
        <ele>132</ele>
        <time>2024-05-21T09:11:54.000Z</time>
      </trkpt>
      <trkpt lat="45.1942" lon="4.80766">
        <ele>132</ele>
        <time>2024-05-21T09:11:55.000Z</time>
      </trkpt>
      <trkpt lat="45.19414" lon="4.80768">
        <ele>132.19999694824</ele>
        <time>2024-05-21T09:11:56.000Z</time>
      </trkpt>
      <trkpt lat="45.19408" lon="4.80771">
        <ele>132.19999694824</ele>
        <time>2024-05-21T09:11:57.000Z</time>
      </trkpt>
      <trkpt lat="45.19402" lon="4.80773">
        <ele>132.19999694824</ele>
        <time>2024-05-21T09:11:58.000Z</time>
      </trkpt>
      <trkpt lat="45.19396" lon="4.80775">
        <ele>132.19999694824</ele>
        <time>2024-05-21T09:11:59.000Z</time>
      </trkpt>
      <trkpt lat="45.1939" lon="4.80778">
        <ele>132.19999694824</ele>
        <time>2024-05-21T09:12:00.000Z</time>
      </trkpt>
      <trkpt lat="45.19384" lon="4.8078">
        <ele>132.19999694824</ele>
        <time>2024-05-21T09:12:01.000Z</time>
      </trkpt>
      <trkpt lat="45.19378" lon="4.80783">
        <ele>132.19999694824</ele>
        <time>2024-05-21T09:12:02.000Z</time>
      </trkpt>
      <trkpt lat="45.19371" lon="4.80786">
        <ele>132.19999694824</ele>
        <time>2024-05-21T09:12:03.000Z</time>
      </trkpt>
      <trkpt lat="45.19365" lon="4.80788">
        <ele>132.19999694824</ele>
        <time>2024-05-21T09:12:04.000Z</time>
      </trkpt>
      <trkpt lat="45.19359" lon="4.80791">
        <ele>132.19999694824</ele>
        <time>2024-05-21T09:12:05.000Z</time>
      </trkpt>
      <trkpt lat="45.19353" lon="4.80794">
        <ele>132</ele>
        <time>2024-05-21T09:12:06.000Z</time>
      </trkpt>
      <trkpt lat="45.19347" lon="4.80796">
        <ele>132</ele>
        <time>2024-05-21T09:12:07.000Z</time>
      </trkpt>
      <trkpt lat="45.19341" lon="4.80799">
        <ele>132</ele>
        <time>2024-05-21T09:12:08.000Z</time>
      </trkpt>
      <trkpt lat="45.19335" lon="4.80802">
        <ele>132</ele>
        <time>2024-05-21T09:12:09.000Z</time>
      </trkpt>
      <trkpt lat="45.19329" lon="4.80805">
        <ele>132</ele>
        <time>2024-05-21T09:12:10.000Z</time>
      </trkpt>
      <trkpt lat="45.19323" lon="4.80809">
        <ele>132</ele>
        <time>2024-05-21T09:12:11.000Z</time>
      </trkpt>
      <trkpt lat="45.19317" lon="4.80812">
        <ele>132</ele>
        <time>2024-05-21T09:12:12.000Z</time>
      </trkpt>
      <trkpt lat="45.19311" lon="4.80815">
        <ele>132</ele>
        <time>2024-05-21T09:12:13.000Z</time>
      </trkpt>
      <trkpt lat="45.19306" lon="4.80819">
        <ele>132</ele>
        <time>2024-05-21T09:12:14.000Z</time>
      </trkpt>
      <trkpt lat="45.193" lon="4.80823">
        <ele>132</ele>
        <time>2024-05-21T09:12:15.000Z</time>
      </trkpt>
      <trkpt lat="45.19294" lon="4.80827">
        <ele>132</ele>
        <time>2024-05-21T09:12:16.000Z</time>
      </trkpt>
      <trkpt lat="45.19289" lon="4.80831">
        <ele>132</ele>
        <time>2024-05-21T09:12:17.000Z</time>
      </trkpt>
      <trkpt lat="45.19283" lon="4.80836">
        <ele>132</ele>
        <time>2024-05-21T09:12:18.000Z</time>
      </trkpt>
      <trkpt lat="45.19277" lon="4.8084">
        <ele>132</ele>
        <time>2024-05-21T09:12:19.000Z</time>
      </trkpt>
      <trkpt lat="45.19272" lon="4.80844">
        <ele>132</ele>
        <time>2024-05-21T09:12:20.000Z</time>
      </trkpt>
      <trkpt lat="45.19267" lon="4.80849">
        <ele>132</ele>
        <time>2024-05-21T09:12:21.000Z</time>
      </trkpt>
      <trkpt lat="45.19261" lon="4.80853">
        <ele>132</ele>
        <time>2024-05-21T09:12:22.000Z</time>
      </trkpt>
      <trkpt lat="45.19255" lon="4.80856">
        <ele>131.80000305176</ele>
        <time>2024-05-21T09:12:23.000Z</time>
      </trkpt>
      <trkpt lat="45.19249" lon="4.8086">
        <ele>131.80000305176</ele>
        <time>2024-05-21T09:12:24.000Z</time>
      </trkpt>
      <trkpt lat="45.19244" lon="4.80864">
        <ele>131.80000305176</ele>
        <time>2024-05-21T09:12:25.000Z</time>
      </trkpt>
      <trkpt lat="45.19238" lon="4.80868">
        <ele>131.80000305176</ele>
        <time>2024-05-21T09:12:26.000Z</time>
      </trkpt>
      <trkpt lat="45.19232" lon="4.80872">
        <ele>131.80000305176</ele>
        <time>2024-05-21T09:12:27.000Z</time>
      </trkpt>
      <trkpt lat="45.19226" lon="4.80875">
        <ele>131.80000305176</ele>
        <time>2024-05-21T09:12:28.000Z</time>
      </trkpt>
      <trkpt lat="45.19221" lon="4.80879">
        <ele>131.80000305176</ele>
        <time>2024-05-21T09:12:29.000Z</time>
      </trkpt>
      <trkpt lat="45.19215" lon="4.80883">
        <ele>131.80000305176</ele>
        <time>2024-05-21T09:12:30.000Z</time>
      </trkpt>
      <trkpt lat="45.19209" lon="4.80887">
        <ele>131.80000305176</ele>
        <time>2024-05-21T09:12:31.000Z</time>
      </trkpt>
      <trkpt lat="45.19203" lon="4.80891">
        <ele>131.80000305176</ele>
        <time>2024-05-21T09:12:32.000Z</time>
      </trkpt>
      <trkpt lat="45.19197" lon="4.80895">
        <ele>131.80000305176</ele>
        <time>2024-05-21T09:12:33.000Z</time>
      </trkpt>
      <trkpt lat="45.19192" lon="4.80899">
        <ele>131.80000305176</ele>
        <time>2024-05-21T09:12:34.000Z</time>
      </trkpt>
      <trkpt lat="45.19186" lon="4.80903">
        <ele>131.80000305176</ele>
        <time>2024-05-21T09:12:35.000Z</time>
      </trkpt>
      <trkpt lat="45.1918" lon="4.80907">
        <ele>131.80000305176</ele>
        <time>2024-05-21T09:12:36.000Z</time>
      </trkpt>
      <trkpt lat="45.19174" lon="4.80911">
        <ele>131.80000305176</ele>
        <time>2024-05-21T09:12:37.000Z</time>
      </trkpt>
      <trkpt lat="45.19168" lon="4.80915">
        <ele>131.80000305176</ele>
        <time>2024-05-21T09:12:38.000Z</time>
      </trkpt>
      <trkpt lat="45.19163" lon="4.80919">
        <ele>131.80000305176</ele>
        <time>2024-05-21T09:12:39.000Z</time>
      </trkpt>
      <trkpt lat="45.19157" lon="4.80923">
        <ele>131.80000305176</ele>
        <time>2024-05-21T09:12:40.000Z</time>
      </trkpt>
      <trkpt lat="45.19151" lon="4.80927">
        <ele>131.80000305176</ele>
        <time>2024-05-21T09:12:41.000Z</time>
      </trkpt>
      <trkpt lat="45.19146" lon="4.80931">
        <ele>131.80000305176</ele>
        <time>2024-05-21T09:12:42.000Z</time>
      </trkpt>
      <trkpt lat="45.1914" lon="4.80935">
        <ele>131.80000305176</ele>
        <time>2024-05-21T09:12:43.000Z</time>
      </trkpt>
      <trkpt lat="45.19134" lon="4.80939">
        <ele>131.80000305176</ele>
        <time>2024-05-21T09:12:44.000Z</time>
      </trkpt>
      <trkpt lat="45.19128" lon="4.80942">
        <ele>131.80000305176</ele>
        <time>2024-05-21T09:12:45.000Z</time>
      </trkpt>
      <trkpt lat="45.19122" lon="4.80947">
        <ele>131.80000305176</ele>
        <time>2024-05-21T09:12:46.000Z</time>
      </trkpt>
      <trkpt lat="45.19116" lon="4.8095">
        <ele>131.80000305176</ele>
        <time>2024-05-21T09:12:47.000Z</time>
      </trkpt>
      <trkpt lat="45.1911" lon="4.80954">
        <ele>131.80000305176</ele>
        <time>2024-05-21T09:12:48.000Z</time>
      </trkpt>
      <trkpt lat="45.19104" lon="4.80959">
        <ele>131.80000305176</ele>
        <time>2024-05-21T09:12:49.000Z</time>
      </trkpt>
      <trkpt lat="45.19098" lon="4.80963">
        <ele>131.80000305176</ele>
        <time>2024-05-21T09:12:50.000Z</time>
      </trkpt>
      <trkpt lat="45.19092" lon="4.80967">
        <ele>131.80000305176</ele>
        <time>2024-05-21T09:12:51.000Z</time>
      </trkpt>
      <trkpt lat="45.19087" lon="4.80971">
        <ele>131.80000305176</ele>
        <time>2024-05-21T09:12:52.000Z</time>
      </trkpt>
      <trkpt lat="45.19081" lon="4.80975">
        <ele>131.60000610352</ele>
        <time>2024-05-21T09:12:53.000Z</time>
      </trkpt>
      <trkpt lat="45.19075" lon="4.80979">
        <ele>131.60000610352</ele>
        <time>2024-05-21T09:12:54.000Z</time>
      </trkpt>
      <trkpt lat="45.19069" lon="4.80983">
        <ele>131.60000610352</ele>
        <time>2024-05-21T09:12:55.000Z</time>
      </trkpt>
      <trkpt lat="45.19063" lon="4.80987">
        <ele>131.60000610352</ele>
        <time>2024-05-21T09:12:56.000Z</time>
      </trkpt>
      <trkpt lat="45.19057" lon="4.80991">
        <ele>131.60000610352</ele>
        <time>2024-05-21T09:12:57.000Z</time>
      </trkpt>
      <trkpt lat="45.19051" lon="4.80995">
        <ele>131.60000610352</ele>
        <time>2024-05-21T09:12:58.000Z</time>
      </trkpt>
      <trkpt lat="45.19045" lon="4.80999">
        <ele>131.60000610352</ele>
        <time>2024-05-21T09:12:59.000Z</time>
      </trkpt>
      <trkpt lat="45.19039" lon="4.81003">
        <ele>131.60000610352</ele>
        <time>2024-05-21T09:13:00.000Z</time>
      </trkpt>
      <trkpt lat="45.19033" lon="4.81007">
        <ele>131.60000610352</ele>
        <time>2024-05-21T09:13:01.000Z</time>
      </trkpt>
      <trkpt lat="45.19027" lon="4.81011">
        <ele>131.60000610352</ele>
        <time>2024-05-21T09:13:02.000Z</time>
      </trkpt>
      <trkpt lat="45.19022" lon="4.81015">
        <ele>131.39999389648</ele>
        <time>2024-05-21T09:13:03.000Z</time>
      </trkpt>
      <trkpt lat="45.19016" lon="4.81019">
        <ele>131.39999389648</ele>
        <time>2024-05-21T09:13:04.000Z</time>
      </trkpt>
      <trkpt lat="45.1901" lon="4.81023">
        <ele>131.39999389648</ele>
        <time>2024-05-21T09:13:05.000Z</time>
      </trkpt>
      <trkpt lat="45.19004" lon="4.81027">
        <ele>131.39999389648</ele>
        <time>2024-05-21T09:13:06.000Z</time>
      </trkpt>
      <trkpt lat="45.18999" lon="4.81032">
        <ele>131.39999389648</ele>
        <time>2024-05-21T09:13:07.000Z</time>
      </trkpt>
      <trkpt lat="45.18993" lon="4.81036">
        <ele>131.39999389648</ele>
        <time>2024-05-21T09:13:08.000Z</time>
      </trkpt>
      <trkpt lat="45.18987" lon="4.8104">
        <ele>131.39999389648</ele>
        <time>2024-05-21T09:13:09.000Z</time>
      </trkpt>
      <trkpt lat="45.18981" lon="4.81044">
        <ele>131.39999389648</ele>
        <time>2024-05-21T09:13:10.000Z</time>
      </trkpt>
      <trkpt lat="45.18975" lon="4.81048">
        <ele>131.39999389648</ele>
        <time>2024-05-21T09:13:11.000Z</time>
      </trkpt>
      <trkpt lat="45.18969" lon="4.81052">
        <ele>131.39999389648</ele>
        <time>2024-05-21T09:13:12.000Z</time>
      </trkpt>
      <trkpt lat="45.18963" lon="4.81055">
        <ele>131.39999389648</ele>
        <time>2024-05-21T09:13:13.000Z</time>
      </trkpt>
      <trkpt lat="45.18957" lon="4.81059">
        <ele>131.39999389648</ele>
        <time>2024-05-21T09:13:14.000Z</time>
      </trkpt>
      <trkpt lat="45.18951" lon="4.81063">
        <ele>131.39999389648</ele>
        <time>2024-05-21T09:13:15.000Z</time>
      </trkpt>
      <trkpt lat="45.18946" lon="4.81067">
        <ele>131.60000610352</ele>
        <time>2024-05-21T09:13:16.000Z</time>
      </trkpt>
      <trkpt lat="45.1894" lon="4.81071">
        <ele>131.60000610352</ele>
        <time>2024-05-21T09:13:17.000Z</time>
      </trkpt>
      <trkpt lat="45.18935" lon="4.81075">
        <ele>131.60000610352</ele>
        <time>2024-05-21T09:13:18.000Z</time>
      </trkpt>
      <trkpt lat="45.18929" lon="4.81079">
        <ele>131.60000610352</ele>
        <time>2024-05-21T09:13:19.000Z</time>
      </trkpt>
      <trkpt lat="45.18923" lon="4.81083">
        <ele>131.60000610352</ele>
        <time>2024-05-21T09:13:20.000Z</time>
      </trkpt>
      <trkpt lat="45.18917" lon="4.81087">
        <ele>131.60000610352</ele>
        <time>2024-05-21T09:13:21.000Z</time>
      </trkpt>
      <trkpt lat="45.18911" lon="4.81092">
        <ele>131.60000610352</ele>
        <time>2024-05-21T09:13:22.000Z</time>
      </trkpt>
      <trkpt lat="45.18906" lon="4.81096">
        <ele>131.60000610352</ele>
        <time>2024-05-21T09:13:23.000Z</time>
      </trkpt>
      <trkpt lat="45.189" lon="4.81099">
        <ele>131.60000610352</ele>
        <time>2024-05-21T09:13:24.000Z</time>
      </trkpt>
      <trkpt lat="45.18894" lon="4.81103">
        <ele>131.39999389648</ele>
        <time>2024-05-21T09:13:25.000Z</time>
      </trkpt>
      <trkpt lat="45.18888" lon="4.81106">
        <ele>131.39999389648</ele>
        <time>2024-05-21T09:13:26.000Z</time>
      </trkpt>
      <trkpt lat="45.18882" lon="4.8111">
        <ele>131.39999389648</ele>
        <time>2024-05-21T09:13:27.000Z</time>
      </trkpt>
      <trkpt lat="45.18877" lon="4.81114">
        <ele>131.39999389648</ele>
        <time>2024-05-21T09:13:28.000Z</time>
      </trkpt>
      <trkpt lat="45.18871" lon="4.81118">
        <ele>131.39999389648</ele>
        <time>2024-05-21T09:13:29.000Z</time>
      </trkpt>
      <trkpt lat="45.18865" lon="4.81121">
        <ele>131.39999389648</ele>
        <time>2024-05-21T09:13:30.000Z</time>
      </trkpt>
      <trkpt lat="45.18859" lon="4.81125">
        <ele>131.39999389648</ele>
        <time>2024-05-21T09:13:31.000Z</time>
      </trkpt>
      <trkpt lat="45.18854" lon="4.81129">
        <ele>131.39999389648</ele>
        <time>2024-05-21T09:13:32.000Z</time>
      </trkpt>
      <trkpt lat="45.18848" lon="4.81132">
        <ele>131.39999389648</ele>
        <time>2024-05-21T09:13:33.000Z</time>
      </trkpt>
      <trkpt lat="45.18842" lon="4.81135">
        <ele>131.39999389648</ele>
        <time>2024-05-21T09:13:34.000Z</time>
      </trkpt>
      <trkpt lat="45.18837" lon="4.81139">
        <ele>131.39999389648</ele>
        <time>2024-05-21T09:13:35.000Z</time>
      </trkpt>
      <trkpt lat="45.18831" lon="4.81143">
        <ele>131.39999389648</ele>
        <time>2024-05-21T09:13:36.000Z</time>
      </trkpt>
      <trkpt lat="45.18826" lon="4.81146">
        <ele>131.39999389648</ele>
        <time>2024-05-21T09:13:37.000Z</time>
      </trkpt>
      <trkpt lat="45.1882" lon="4.8115">
        <ele>131.39999389648</ele>
        <time>2024-05-21T09:13:38.000Z</time>
      </trkpt>
      <trkpt lat="45.18814" lon="4.81153">
        <ele>131.39999389648</ele>
        <time>2024-05-21T09:13:39.000Z</time>
      </trkpt>
      <trkpt lat="45.18808" lon="4.81157">
        <ele>131.39999389648</ele>
        <time>2024-05-21T09:13:40.000Z</time>
      </trkpt>
      <trkpt lat="45.18803" lon="4.8116">
        <ele>131.19999694824</ele>
        <time>2024-05-21T09:13:41.000Z</time>
      </trkpt>
      <trkpt lat="45.18798" lon="4.81163">
        <ele>131</ele>
        <time>2024-05-21T09:13:42.000Z</time>
      </trkpt>
      <trkpt lat="45.18791" lon="4.81166">
        <ele>131</ele>
        <time>2024-05-21T09:13:43.000Z</time>
      </trkpt>
      <trkpt lat="45.18786" lon="4.81169">
        <ele>131</ele>
        <time>2024-05-21T09:13:44.000Z</time>
      </trkpt>
      <trkpt lat="45.18779" lon="4.81173">
        <ele>131</ele>
        <time>2024-05-21T09:13:45.000Z</time>
      </trkpt>
      <trkpt lat="45.18774" lon="4.81176">
        <ele>131</ele>
        <time>2024-05-21T09:13:46.000Z</time>
      </trkpt>
      <trkpt lat="45.18768" lon="4.8118">
        <ele>131</ele>
        <time>2024-05-21T09:13:47.000Z</time>
      </trkpt>
      <trkpt lat="45.18763" lon="4.81183">
        <ele>131</ele>
        <time>2024-05-21T09:13:48.000Z</time>
      </trkpt>
      <trkpt lat="45.18757" lon="4.81186">
        <ele>130.80000305176</ele>
        <time>2024-05-21T09:13:49.000Z</time>
      </trkpt>
      <trkpt lat="45.18751" lon="4.81189">
        <ele>130.80000305176</ele>
        <time>2024-05-21T09:13:50.000Z</time>
      </trkpt>
      <trkpt lat="45.18746" lon="4.81192">
        <ele>130.80000305176</ele>
        <time>2024-05-21T09:13:51.000Z</time>
      </trkpt>
      <trkpt lat="45.1874" lon="4.81195">
        <ele>130.80000305176</ele>
        <time>2024-05-21T09:13:52.000Z</time>
      </trkpt>
      <trkpt lat="45.18734" lon="4.81198">
        <ele>130.80000305176</ele>
        <time>2024-05-21T09:13:53.000Z</time>
      </trkpt>
      <trkpt lat="45.18728" lon="4.81201">
        <ele>130.80000305176</ele>
        <time>2024-05-21T09:13:54.000Z</time>
      </trkpt>
      <trkpt lat="45.18723" lon="4.81204">
        <ele>130.80000305176</ele>
        <time>2024-05-21T09:13:55.000Z</time>
      </trkpt>
      <trkpt lat="45.18718" lon="4.81207">
        <ele>130.80000305176</ele>
        <time>2024-05-21T09:13:56.000Z</time>
      </trkpt>
      <trkpt lat="45.18713" lon="4.81209">
        <ele>130.60000610352</ele>
        <time>2024-05-21T09:13:57.000Z</time>
      </trkpt>
      <trkpt lat="45.18708" lon="4.81212">
        <ele>130.60000610352</ele>
        <time>2024-05-21T09:13:58.000Z</time>
      </trkpt>
      <trkpt lat="45.18703" lon="4.81215">
        <ele>130.60000610352</ele>
        <time>2024-05-21T09:13:59.000Z</time>
      </trkpt>
      <trkpt lat="45.18698" lon="4.81218">
        <ele>130.60000610352</ele>
        <time>2024-05-21T09:14:00.000Z</time>
      </trkpt>
      <trkpt lat="45.18694" lon="4.81221">
        <ele>130.60000610352</ele>
        <time>2024-05-21T09:14:01.000Z</time>
      </trkpt>
      <trkpt lat="45.18689" lon="4.81223">
        <ele>130.60000610352</ele>
        <time>2024-05-21T09:14:02.000Z</time>
      </trkpt>
      <trkpt lat="45.18685" lon="4.81225">
        <ele>130.60000610352</ele>
        <time>2024-05-21T09:14:03.000Z</time>
      </trkpt>
      <trkpt lat="45.1868" lon="4.81229">
        <ele>130.60000610352</ele>
        <time>2024-05-21T09:14:04.000Z</time>
      </trkpt>
      <trkpt lat="45.18677" lon="4.81233">
        <ele>130.60000610352</ele>
        <time>2024-05-21T09:14:05.000Z</time>
      </trkpt>
      <trkpt lat="45.18673" lon="4.81237">
        <ele>130.80000305176</ele>
        <time>2024-05-21T09:14:06.000Z</time>
      </trkpt>
      <trkpt lat="45.1867" lon="4.8124">
        <ele>130.80000305176</ele>
        <time>2024-05-21T09:14:07.000Z</time>
      </trkpt>
      <trkpt lat="45.18666" lon="4.81243">
        <ele>130.80000305176</ele>
        <time>2024-05-21T09:14:08.000Z</time>
      </trkpt>
      <trkpt lat="45.18662" lon="4.81245">
        <ele>130.80000305176</ele>
        <time>2024-05-21T09:14:09.000Z</time>
      </trkpt>
      <trkpt lat="45.18659" lon="4.81247">
        <ele>130.80000305176</ele>
        <time>2024-05-21T09:14:10.000Z</time>
      </trkpt>
      <trkpt lat="45.18656" lon="4.8125">
        <ele>130.80000305176</ele>
        <time>2024-05-21T09:14:11.000Z</time>
      </trkpt>
      <trkpt lat="45.18655" lon="4.81255">
        <ele>130.60000610352</ele>
        <time>2024-05-21T09:14:12.000Z</time>
      </trkpt>
      <trkpt lat="45.18655" lon="4.8126">
        <ele>130.80000305176</ele>
        <time>2024-05-21T09:14:13.000Z</time>
      </trkpt>
      <trkpt lat="45.18657" lon="4.81266">
        <ele>130.80000305176</ele>
        <time>2024-05-21T09:14:14.000Z</time>
      </trkpt>
      <trkpt lat="45.18658" lon="4.81271">
        <ele>130.80000305176</ele>
        <time>2024-05-21T09:14:15.000Z</time>
      </trkpt>
      <trkpt lat="45.1866" lon="4.81276">
        <ele>130.80000305176</ele>
        <time>2024-05-21T09:14:16.000Z</time>
      </trkpt>
      <trkpt lat="45.18661" lon="4.81281">
        <ele>130.80000305176</ele>
        <time>2024-05-21T09:14:17.000Z</time>
      </trkpt>
      <trkpt lat="45.18662" lon="4.81286">
        <ele>130.80000305176</ele>
        <time>2024-05-21T09:14:18.000Z</time>
      </trkpt>
      <trkpt lat="45.18663" lon="4.81291">
        <ele>131</ele>
        <time>2024-05-21T09:14:19.000Z</time>
      </trkpt>
      <trkpt lat="45.18664" lon="4.81296">
        <ele>131.19999694824</ele>
        <time>2024-05-21T09:14:20.000Z</time>
      </trkpt>
      <trkpt lat="45.18665" lon="4.81301">
        <ele>131.60000610352</ele>
        <time>2024-05-21T09:14:21.000Z</time>
      </trkpt>
      <trkpt lat="45.18666" lon="4.81306">
        <ele>131.60000610352</ele>
        <time>2024-05-21T09:14:22.000Z</time>
      </trkpt>
      <trkpt lat="45.18667" lon="4.81311">
        <ele>131.80000305176</ele>
        <time>2024-05-21T09:14:23.000Z</time>
      </trkpt>
      <trkpt lat="45.18668" lon="4.81316">
        <ele>132</ele>
        <time>2024-05-21T09:14:24.000Z</time>
      </trkpt>
      <trkpt lat="45.18668" lon="4.81321">
        <ele>132.19999694824</ele>
        <time>2024-05-21T09:14:25.000Z</time>
      </trkpt>
      <trkpt lat="45.18668" lon="4.81326">
        <ele>132.39999389648</ele>
        <time>2024-05-21T09:14:26.000Z</time>
      </trkpt>
      <trkpt lat="45.18668" lon="4.81331">
        <ele>132.80000305176</ele>
        <time>2024-05-21T09:14:27.000Z</time>
      </trkpt>
      <trkpt lat="45.18669" lon="4.81335">
        <ele>133.19999694824</ele>
        <time>2024-05-21T09:14:28.000Z</time>
      </trkpt>
      <trkpt lat="45.18671" lon="4.81339">
        <ele>133.39999389648</ele>
        <time>2024-05-21T09:14:29.000Z</time>
      </trkpt>
      <trkpt lat="45.18672" lon="4.81343">
        <ele>133.80000305176</ele>
        <time>2024-05-21T09:14:30.000Z</time>
      </trkpt>
      <trkpt lat="45.18674" lon="4.81346">
        <ele>134.19999694824</ele>
        <time>2024-05-21T09:14:31.000Z</time>
      </trkpt>
      <trkpt lat="45.18676" lon="4.8135">
        <ele>134.39999389648</ele>
        <time>2024-05-21T09:14:32.000Z</time>
      </trkpt>
      <trkpt lat="45.18678" lon="4.81353">
        <ele>134.80000305176</ele>
        <time>2024-05-21T09:14:33.000Z</time>
      </trkpt>
      <trkpt lat="45.18681" lon="4.81356">
        <ele>135</ele>
        <time>2024-05-21T09:14:34.000Z</time>
      </trkpt>
      <trkpt lat="45.18683" lon="4.8136">
        <ele>135.19999694824</ele>
        <time>2024-05-21T09:14:35.000Z</time>
      </trkpt>
      <trkpt lat="45.18684" lon="4.81364">
        <ele>135.19999694824</ele>
        <time>2024-05-21T09:14:36.000Z</time>
      </trkpt>
      <trkpt lat="45.18684" lon="4.81368">
        <ele>135.39999389648</ele>
        <time>2024-05-21T09:14:37.000Z</time>
      </trkpt>
      <trkpt lat="45.18684" lon="4.81373">
        <ele>135.39999389648</ele>
        <time>2024-05-21T09:14:38.000Z</time>
      </trkpt>
      <trkpt lat="45.18684" lon="4.81377">
        <ele>135.60000610352</ele>
        <time>2024-05-21T09:14:39.000Z</time>
      </trkpt>
      <trkpt lat="45.18684" lon="4.81381">
        <ele>135.60000610352</ele>
        <time>2024-05-21T09:14:40.000Z</time>
      </trkpt>
      <trkpt lat="45.18684" lon="4.81384">
        <ele>135.60000610352</ele>
        <time>2024-05-21T09:14:41.000Z</time>
      </trkpt>
      <trkpt lat="45.18683" lon="4.81388">
        <ele>135.60000610352</ele>
        <time>2024-05-21T09:14:42.000Z</time>
      </trkpt>
      <trkpt lat="45.18682" lon="4.81392">
        <ele>135.60000610352</ele>
        <time>2024-05-21T09:14:43.000Z</time>
      </trkpt>
      <trkpt lat="45.1868" lon="4.81394">
        <ele>135.60000610352</ele>
        <time>2024-05-21T09:14:44.000Z</time>
      </trkpt>
      <trkpt lat="45.18678" lon="4.81395">
        <ele>135.39999389648</ele>
        <time>2024-05-21T09:14:45.000Z</time>
      </trkpt>
      <trkpt lat="45.18675" lon="4.81395">
        <ele>135.39999389648</ele>
        <time>2024-05-21T09:14:46.000Z</time>
      </trkpt>
      <trkpt lat="45.18672" lon="4.81395">
        <ele>135.39999389648</ele>
        <time>2024-05-21T09:14:47.000Z</time>
      </trkpt>
      <trkpt lat="45.18668" lon="4.81395">
        <ele>135.39999389648</ele>
        <time>2024-05-21T09:14:48.000Z</time>
      </trkpt>
      <trkpt lat="45.18664" lon="4.81395">
        <ele>135.39999389648</ele>
        <time>2024-05-21T09:14:49.000Z</time>
      </trkpt>
      <trkpt lat="45.18661" lon="4.81395">
        <ele>135.19999694824</ele>
        <time>2024-05-21T09:14:50.000Z</time>
      </trkpt>
      <trkpt lat="45.18656" lon="4.81395">
        <ele>135</ele>
        <time>2024-05-21T09:14:51.000Z</time>
      </trkpt>
      <trkpt lat="45.18652" lon="4.81395">
        <ele>135</ele>
        <time>2024-05-21T09:14:52.000Z</time>
      </trkpt>
      <trkpt lat="45.18648" lon="4.81395">
        <ele>135</ele>
        <time>2024-05-21T09:14:53.000Z</time>
      </trkpt>
      <trkpt lat="45.18643" lon="4.81395">
        <ele>135</ele>
        <time>2024-05-21T09:14:54.000Z</time>
      </trkpt>
      <trkpt lat="45.18639" lon="4.81395">
        <ele>135</ele>
        <time>2024-05-21T09:14:55.000Z</time>
      </trkpt>
      <trkpt lat="45.18635" lon="4.81395">
        <ele>135.19999694824</ele>
        <time>2024-05-21T09:14:56.000Z</time>
      </trkpt>
      <trkpt lat="45.1863" lon="4.81395">
        <ele>135.19999694824</ele>
        <time>2024-05-21T09:14:57.000Z</time>
      </trkpt>
      <trkpt lat="45.18625" lon="4.81394">
        <ele>135.19999694824</ele>
        <time>2024-05-21T09:14:58.000Z</time>
      </trkpt>
      <trkpt lat="45.18621" lon="4.81394">
        <ele>135.19999694824</ele>
        <time>2024-05-21T09:14:59.000Z</time>
      </trkpt>
      <trkpt lat="45.18616" lon="4.81393">
        <ele>135.39999389648</ele>
        <time>2024-05-21T09:15:00.000Z</time>
      </trkpt>
      <trkpt lat="45.18612" lon="4.81392">
        <ele>135.60000610352</ele>
        <time>2024-05-21T09:15:01.000Z</time>
      </trkpt>
      <trkpt lat="45.18608" lon="4.81392">
        <ele>135.80000305176</ele>
        <time>2024-05-21T09:15:02.000Z</time>
      </trkpt>
      <trkpt lat="45.18603" lon="4.81392">
        <ele>135.80000305176</ele>
        <time>2024-05-21T09:15:03.000Z</time>
      </trkpt>
      <trkpt lat="45.18599" lon="4.81392">
        <ele>135.80000305176</ele>
        <time>2024-05-21T09:15:04.000Z</time>
      </trkpt>
      <trkpt lat="45.18594" lon="4.81392">
        <ele>135.80000305176</ele>
        <time>2024-05-21T09:15:05.000Z</time>
      </trkpt>
      <trkpt lat="45.18589" lon="4.81392">
        <ele>135.80000305176</ele>
        <time>2024-05-21T09:15:06.000Z</time>
      </trkpt>
      <trkpt lat="45.18585" lon="4.81392">
        <ele>135.80000305176</ele>
        <time>2024-05-21T09:15:07.000Z</time>
      </trkpt>
      <trkpt lat="45.1858" lon="4.81392">
        <ele>135.80000305176</ele>
        <time>2024-05-21T09:15:08.000Z</time>
      </trkpt>
      <trkpt lat="45.18575" lon="4.81392">
        <ele>135.80000305176</ele>
        <time>2024-05-21T09:15:09.000Z</time>
      </trkpt>
      <trkpt lat="45.1857" lon="4.81392">
        <ele>135.80000305176</ele>
        <time>2024-05-21T09:15:10.000Z</time>
      </trkpt>
      <trkpt lat="45.18566" lon="4.81391">
        <ele>136</ele>
        <time>2024-05-21T09:15:11.000Z</time>
      </trkpt>
      <trkpt lat="45.18561" lon="4.81391">
        <ele>136</ele>
        <time>2024-05-21T09:15:12.000Z</time>
      </trkpt>
      <trkpt lat="45.18556" lon="4.81391">
        <ele>136</ele>
        <time>2024-05-21T09:15:13.000Z</time>
      </trkpt>
      <trkpt lat="45.18551" lon="4.8139">
        <ele>136</ele>
        <time>2024-05-21T09:15:14.000Z</time>
      </trkpt>
      <trkpt lat="45.18546" lon="4.8139">
        <ele>136</ele>
        <time>2024-05-21T09:15:15.000Z</time>
      </trkpt>
      <trkpt lat="45.18541" lon="4.8139">
        <ele>136</ele>
        <time>2024-05-21T09:15:16.000Z</time>
      </trkpt>
      <trkpt lat="45.18536" lon="4.8139">
        <ele>136</ele>
        <time>2024-05-21T09:15:17.000Z</time>
      </trkpt>
      <trkpt lat="45.18531" lon="4.81389">
        <ele>136</ele>
        <time>2024-05-21T09:15:18.000Z</time>
      </trkpt>
      <trkpt lat="45.18526" lon="4.8139">
        <ele>136</ele>
        <time>2024-05-21T09:15:19.000Z</time>
      </trkpt>
      <trkpt lat="45.18521" lon="4.8139">
        <ele>136</ele>
        <time>2024-05-21T09:15:20.000Z</time>
      </trkpt>
      <trkpt lat="45.18516" lon="4.8139">
        <ele>136.19999694824</ele>
        <time>2024-05-21T09:15:21.000Z</time>
      </trkpt>
      <trkpt lat="45.18511" lon="4.81391">
        <ele>136</ele>
        <time>2024-05-21T09:15:22.000Z</time>
      </trkpt>
      <trkpt lat="45.18506" lon="4.81391">
        <ele>136.19999694824</ele>
        <time>2024-05-21T09:15:23.000Z</time>
      </trkpt>
      <trkpt lat="45.18501" lon="4.81391">
        <ele>136</ele>
        <time>2024-05-21T09:15:24.000Z</time>
      </trkpt>
      <trkpt lat="45.18496" lon="4.81391">
        <ele>136</ele>
        <time>2024-05-21T09:15:25.000Z</time>
      </trkpt>
      <trkpt lat="45.18491" lon="4.81391">
        <ele>135.80000305176</ele>
        <time>2024-05-21T09:15:26.000Z</time>
      </trkpt>
      <trkpt lat="45.18486" lon="4.81391">
        <ele>135.80000305176</ele>
        <time>2024-05-21T09:15:27.000Z</time>
      </trkpt>
      <trkpt lat="45.18481" lon="4.81391">
        <ele>135.80000305176</ele>
        <time>2024-05-21T09:15:28.000Z</time>
      </trkpt>
      <trkpt lat="45.18475" lon="4.8139">
        <ele>135.80000305176</ele>
        <time>2024-05-21T09:15:29.000Z</time>
      </trkpt>
      <trkpt lat="45.1847" lon="4.8139">
        <ele>135.80000305176</ele>
        <time>2024-05-21T09:15:30.000Z</time>
      </trkpt>
      <trkpt lat="45.18465" lon="4.81389">
        <ele>136</ele>
        <time>2024-05-21T09:15:31.000Z</time>
      </trkpt>
      <trkpt lat="45.1846" lon="4.81388">
        <ele>136</ele>
        <time>2024-05-21T09:15:32.000Z</time>
      </trkpt>
      <trkpt lat="45.18456" lon="4.81386">
        <ele>136</ele>
        <time>2024-05-21T09:15:33.000Z</time>
      </trkpt>
      <trkpt lat="45.18452" lon="4.81383">
        <ele>136.19999694824</ele>
        <time>2024-05-21T09:15:34.000Z</time>
      </trkpt>
      <trkpt lat="45.18449" lon="4.81379">
        <ele>136.19999694824</ele>
        <time>2024-05-21T09:15:35.000Z</time>
      </trkpt>
      <trkpt lat="45.18446" lon="4.81374">
        <ele>136.19999694824</ele>
        <time>2024-05-21T09:15:36.000Z</time>
      </trkpt>
      <trkpt lat="45.18444" lon="4.81369">
        <ele>136.39999389648</ele>
        <time>2024-05-21T09:15:37.000Z</time>
      </trkpt>
      <trkpt lat="45.18442" lon="4.81363">
        <ele>136.60000610352</ele>
        <time>2024-05-21T09:15:38.000Z</time>
      </trkpt>
      <trkpt lat="45.18441" lon="4.81357">
        <ele>136.60000610352</ele>
        <time>2024-05-21T09:15:39.000Z</time>
      </trkpt>
      <trkpt lat="45.18441" lon="4.81351">
        <ele>136.80000305176</ele>
        <time>2024-05-21T09:15:40.000Z</time>
      </trkpt>
      <trkpt lat="45.1844" lon="4.81346">
        <ele>137</ele>
        <time>2024-05-21T09:15:41.000Z</time>
      </trkpt>
      <trkpt lat="45.18439" lon="4.8134">
        <ele>137</ele>
        <time>2024-05-21T09:15:42.000Z</time>
      </trkpt>
      <trkpt lat="45.18438" lon="4.81335">
        <ele>137.39999389648</ele>
        <time>2024-05-21T09:15:43.000Z</time>
      </trkpt>
      <trkpt lat="45.18437" lon="4.81329">
        <ele>137.39999389648</ele>
        <time>2024-05-21T09:15:44.000Z</time>
      </trkpt>
      <trkpt lat="45.18436" lon="4.81323">
        <ele>137.80000305176</ele>
        <time>2024-05-21T09:15:45.000Z</time>
      </trkpt>
      <trkpt lat="45.18434" lon="4.81317">
        <ele>137.80000305176</ele>
        <time>2024-05-21T09:15:46.000Z</time>
      </trkpt>
      <trkpt lat="45.18433" lon="4.81311">
        <ele>138</ele>
        <time>2024-05-21T09:15:47.000Z</time>
      </trkpt>
      <trkpt lat="45.18432" lon="4.81306">
        <ele>138</ele>
        <time>2024-05-21T09:15:48.000Z</time>
      </trkpt>
      <trkpt lat="45.18431" lon="4.813">
        <ele>138</ele>
        <time>2024-05-21T09:15:49.000Z</time>
      </trkpt>
      <trkpt lat="45.1843" lon="4.81294">
        <ele>138.39999389648</ele>
        <time>2024-05-21T09:15:50.000Z</time>
      </trkpt>
      <trkpt lat="45.18429" lon="4.81289">
        <ele>138.39999389648</ele>
        <time>2024-05-21T09:15:51.000Z</time>
      </trkpt>
      <trkpt lat="45.18428" lon="4.81283">
        <ele>138.60000610352</ele>
        <time>2024-05-21T09:15:52.000Z</time>
      </trkpt>
      <trkpt lat="45.18427" lon="4.81277">
        <ele>138.80000305176</ele>
        <time>2024-05-21T09:15:53.000Z</time>
      </trkpt>
      <trkpt lat="45.18426" lon="4.81272">
        <ele>138.80000305176</ele>
        <time>2024-05-21T09:15:54.000Z</time>
      </trkpt>
      <trkpt lat="45.18425" lon="4.81266">
        <ele>139.19999694824</ele>
        <time>2024-05-21T09:15:55.000Z</time>
      </trkpt>
      <trkpt lat="45.18424" lon="4.81261">
        <ele>139.19999694824</ele>
        <time>2024-05-21T09:15:56.000Z</time>
      </trkpt>
      <trkpt lat="45.18422" lon="4.81256">
        <ele>139.39999389648</ele>
        <time>2024-05-21T09:15:57.000Z</time>
      </trkpt>
      <trkpt lat="45.18421" lon="4.81251">
        <ele>139.39999389648</ele>
        <time>2024-05-21T09:15:58.000Z</time>
      </trkpt>
      <trkpt lat="45.1842" lon="4.81245">
        <ele>139.80000305176</ele>
        <time>2024-05-21T09:15:59.000Z</time>
      </trkpt>
      <trkpt lat="45.18419" lon="4.8124">
        <ele>140</ele>
        <time>2024-05-21T09:16:00.000Z</time>
      </trkpt>
      <trkpt lat="45.18418" lon="4.81234">
        <ele>140</ele>
        <time>2024-05-21T09:16:01.000Z</time>
      </trkpt>
      <trkpt lat="45.18417" lon="4.81228">
        <ele>140.19999694824</ele>
        <time>2024-05-21T09:16:02.000Z</time>
      </trkpt>
      <trkpt lat="45.18416" lon="4.81222">
        <ele>140.19999694824</ele>
        <time>2024-05-21T09:16:03.000Z</time>
      </trkpt>
      <trkpt lat="45.18415" lon="4.81216">
        <ele>140.19999694824</ele>
        <time>2024-05-21T09:16:04.000Z</time>
      </trkpt>
      <trkpt lat="45.18414" lon="4.8121">
        <ele>140.19999694824</ele>
        <time>2024-05-21T09:16:05.000Z</time>
      </trkpt>
      <trkpt lat="45.18413" lon="4.81204">
        <ele>140.19999694824</ele>
        <time>2024-05-21T09:16:06.000Z</time>
      </trkpt>
      <trkpt lat="45.18412" lon="4.81198">
        <ele>140.19999694824</ele>
        <time>2024-05-21T09:16:07.000Z</time>
      </trkpt>
      <trkpt lat="45.1841" lon="4.81191">
        <ele>140.19999694824</ele>
        <time>2024-05-21T09:16:08.000Z</time>
      </trkpt>
      <trkpt lat="45.18409" lon="4.81185">
        <ele>140.19999694824</ele>
        <time>2024-05-21T09:16:09.000Z</time>
      </trkpt>
      <trkpt lat="45.18408" lon="4.81179">
        <ele>140.19999694824</ele>
        <time>2024-05-21T09:16:10.000Z</time>
      </trkpt>
      <trkpt lat="45.18407" lon="4.81172">
        <ele>140.19999694824</ele>
        <time>2024-05-21T09:16:11.000Z</time>
      </trkpt>
      <trkpt lat="45.18406" lon="4.81165">
        <ele>140.19999694824</ele>
        <time>2024-05-21T09:16:12.000Z</time>
      </trkpt>
      <trkpt lat="45.18404" lon="4.81158">
        <ele>140.39999389648</ele>
        <time>2024-05-21T09:16:13.000Z</time>
      </trkpt>
      <trkpt lat="45.18403" lon="4.81151">
        <ele>140.39999389648</ele>
        <time>2024-05-21T09:16:14.000Z</time>
      </trkpt>
      <trkpt lat="45.18402" lon="4.81144">
        <ele>140.39999389648</ele>
        <time>2024-05-21T09:16:15.000Z</time>
      </trkpt>
      <trkpt lat="45.184" lon="4.81137">
        <ele>140.39999389648</ele>
        <time>2024-05-21T09:16:16.000Z</time>
      </trkpt>
      <trkpt lat="45.18399" lon="4.81129">
        <ele>140.19999694824</ele>
        <time>2024-05-21T09:16:17.000Z</time>
      </trkpt>
      <trkpt lat="45.18397" lon="4.81122">
        <ele>140</ele>
        <time>2024-05-21T09:16:18.000Z</time>
      </trkpt>
      <trkpt lat="45.18396" lon="4.81114">
        <ele>139.60000610352</ele>
        <time>2024-05-21T09:16:19.000Z</time>
      </trkpt>
      <trkpt lat="45.18394" lon="4.81107">
        <ele>139.39999389648</ele>
        <time>2024-05-21T09:16:20.000Z</time>
      </trkpt>
      <trkpt lat="45.18393" lon="4.81099">
        <ele>139</ele>
        <time>2024-05-21T09:16:21.000Z</time>
      </trkpt>
      <trkpt lat="45.18391" lon="4.81091">
        <ele>139</ele>
        <time>2024-05-21T09:16:22.000Z</time>
      </trkpt>
      <trkpt lat="45.1839" lon="4.81082">
        <ele>138.80000305176</ele>
        <time>2024-05-21T09:16:23.000Z</time>
      </trkpt>
      <trkpt lat="45.18388" lon="4.81074">
        <ele>138.60000610352</ele>
        <time>2024-05-21T09:16:24.000Z</time>
      </trkpt>
      <trkpt lat="45.18387" lon="4.81066">
        <ele>138.39999389648</ele>
        <time>2024-05-21T09:16:25.000Z</time>
      </trkpt>
      <trkpt lat="45.18385" lon="4.81058">
        <ele>138.19999694824</ele>
        <time>2024-05-21T09:16:26.000Z</time>
      </trkpt>
      <trkpt lat="45.18384" lon="4.8105">
        <ele>138</ele>
        <time>2024-05-21T09:16:27.000Z</time>
      </trkpt>
      <trkpt lat="45.18383" lon="4.81042">
        <ele>137.80000305176</ele>
        <time>2024-05-21T09:16:28.000Z</time>
      </trkpt>
      <trkpt lat="45.18381" lon="4.81034">
        <ele>137.60000610352</ele>
        <time>2024-05-21T09:16:29.000Z</time>
      </trkpt>
      <trkpt lat="45.1838" lon="4.81025">
        <ele>137.19999694824</ele>
        <time>2024-05-21T09:16:30.000Z</time>
      </trkpt>
      <trkpt lat="45.18378" lon="4.81016">
        <ele>137</ele>
        <time>2024-05-21T09:16:31.000Z</time>
      </trkpt>
      <trkpt lat="45.18376" lon="4.81007">
        <ele>136.80000305176</ele>
        <time>2024-05-21T09:16:32.000Z</time>
      </trkpt>
      <trkpt lat="45.18375" lon="4.80998">
        <ele>136.39999389648</ele>
        <time>2024-05-21T09:16:33.000Z</time>
      </trkpt>
      <trkpt lat="45.18374" lon="4.80989">
        <ele>136</ele>
        <time>2024-05-21T09:16:34.000Z</time>
      </trkpt>
      <trkpt lat="45.18373" lon="4.8098">
        <ele>135.80000305176</ele>
        <time>2024-05-21T09:16:35.000Z</time>
      </trkpt>
      <trkpt lat="45.18372" lon="4.80971">
        <ele>135.60000610352</ele>
        <time>2024-05-21T09:16:36.000Z</time>
      </trkpt>
      <trkpt lat="45.18371" lon="4.80961">
        <ele>135.60000610352</ele>
        <time>2024-05-21T09:16:37.000Z</time>
      </trkpt>
      <trkpt lat="45.1837" lon="4.80952">
        <ele>135.19999694824</ele>
        <time>2024-05-21T09:16:38.000Z</time>
      </trkpt>
      <trkpt lat="45.1837" lon="4.80942">
        <ele>135</ele>
        <time>2024-05-21T09:16:39.000Z</time>
      </trkpt>
      <trkpt lat="45.1837" lon="4.80933">
        <ele>134.60000610352</ele>
        <time>2024-05-21T09:16:40.000Z</time>
      </trkpt>
      <trkpt lat="45.1837" lon="4.80924">
        <ele>134.39999389648</ele>
        <time>2024-05-21T09:16:41.000Z</time>
      </trkpt>
      <trkpt lat="45.1837" lon="4.80915">
        <ele>134</ele>
        <time>2024-05-21T09:16:42.000Z</time>
      </trkpt>
      <trkpt lat="45.18371" lon="4.80906">
        <ele>134</ele>
        <time>2024-05-21T09:16:43.000Z</time>
      </trkpt>
      <trkpt lat="45.18371" lon="4.80898">
        <ele>133.80000305176</ele>
        <time>2024-05-21T09:16:44.000Z</time>
      </trkpt>
      <trkpt lat="45.18372" lon="4.80889">
        <ele>133.39999389648</ele>
        <time>2024-05-21T09:16:45.000Z</time>
      </trkpt>
      <trkpt lat="45.18373" lon="4.80881">
        <ele>133.19999694824</ele>
        <time>2024-05-21T09:16:46.000Z</time>
      </trkpt>
      <trkpt lat="45.18374" lon="4.80874">
        <ele>133.19999694824</ele>
        <time>2024-05-21T09:16:47.000Z</time>
      </trkpt>
      <trkpt lat="45.18374" lon="4.80867">
        <ele>133.19999694824</ele>
        <time>2024-05-21T09:16:48.000Z</time>
      </trkpt>
      <trkpt lat="45.18373" lon="4.80862">
        <ele>133.19999694824</ele>
        <time>2024-05-21T09:16:49.000Z</time>
      </trkpt>
      <trkpt lat="45.18371" lon="4.80859">
        <ele>133</ele>
        <time>2024-05-21T09:16:50.000Z</time>
      </trkpt>
      <trkpt lat="45.18369" lon="4.80858">
        <ele>133</ele>
        <time>2024-05-21T09:16:51.000Z</time>
      </trkpt>
      <trkpt lat="45.18366" lon="4.8086">
        <ele>132.80000305176</ele>
        <time>2024-05-21T09:16:52.000Z</time>
      </trkpt>
      <trkpt lat="45.18364" lon="4.80862">
        <ele>132.80000305176</ele>
        <time>2024-05-21T09:16:53.000Z</time>
      </trkpt>
      <trkpt lat="45.18362" lon="4.80865">
        <ele>132.80000305176</ele>
        <time>2024-05-21T09:16:54.000Z</time>
      </trkpt>
      <trkpt lat="45.1836" lon="4.80869">
        <ele>132.80000305176</ele>
        <time>2024-05-21T09:16:55.000Z</time>
      </trkpt>
      <trkpt lat="45.18358" lon="4.80873">
        <ele>132.80000305176</ele>
        <time>2024-05-21T09:16:56.000Z</time>
      </trkpt>
      <trkpt lat="45.18356" lon="4.80878">
        <ele>132.80000305176</ele>
        <time>2024-05-21T09:16:57.000Z</time>
      </trkpt>
      <trkpt lat="45.18353" lon="4.80883">
        <ele>132.80000305176</ele>
        <time>2024-05-21T09:16:58.000Z</time>
      </trkpt>
      <trkpt lat="45.18351" lon="4.80889">
        <ele>132.60000610352</ele>
        <time>2024-05-21T09:16:59.000Z</time>
      </trkpt>
      <trkpt lat="45.18348" lon="4.80895">
        <ele>132.60000610352</ele>
        <time>2024-05-21T09:17:00.000Z</time>
      </trkpt>
      <trkpt lat="45.18346" lon="4.80901">
        <ele>132</ele>
        <time>2024-05-21T09:17:01.000Z</time>
      </trkpt>
      <trkpt lat="45.18344" lon="4.80906">
        <ele>132.19999694824</ele>
        <time>2024-05-21T09:17:02.000Z</time>
      </trkpt>
      <trkpt lat="45.18343" lon="4.80911">
        <ele>132.19999694824</ele>
        <time>2024-05-21T09:17:03.000Z</time>
      </trkpt>
      <trkpt lat="45.18341" lon="4.80915">
        <ele>132.19999694824</ele>
        <time>2024-05-21T09:17:04.000Z</time>
      </trkpt>
      <trkpt lat="45.1834" lon="4.80917">
        <ele>132.19999694824</ele>
        <time>2024-05-21T09:17:05.000Z</time>
      </trkpt>
      <trkpt lat="45.18338" lon="4.8092">
        <ele>132.39999389648</ele>
        <time>2024-05-21T09:17:06.000Z</time>
      </trkpt>
      <trkpt lat="45.18337" lon="4.80923">
        <ele>132.80000305176</ele>
        <time>2024-05-21T09:17:07.000Z</time>
      </trkpt>
      <trkpt lat="45.18335" lon="4.80926">
        <ele>133</ele>
        <time>2024-05-21T09:17:08.000Z</time>
      </trkpt>
      <trkpt lat="45.18333" lon="4.8093">
        <ele>133</ele>
        <time>2024-05-21T09:17:09.000Z</time>
      </trkpt>
      <trkpt lat="45.18331" lon="4.80936">
        <ele>133</ele>
        <time>2024-05-21T09:17:10.000Z</time>
      </trkpt>
      <trkpt lat="45.18329" lon="4.80941">
        <ele>133</ele>
        <time>2024-05-21T09:17:11.000Z</time>
      </trkpt>
      <trkpt lat="45.18327" lon="4.80947">
        <ele>132.80000305176</ele>
        <time>2024-05-21T09:17:12.000Z</time>
      </trkpt>
      <trkpt lat="45.18325" lon="4.80953">
        <ele>132.60000610352</ele>
        <time>2024-05-21T09:17:13.000Z</time>
      </trkpt>
      <trkpt lat="45.18323" lon="4.80958">
        <ele>132.39999389648</ele>
        <time>2024-05-21T09:17:14.000Z</time>
      </trkpt>
      <trkpt lat="45.1832" lon="4.80964">
        <ele>132</ele>
        <time>2024-05-21T09:17:15.000Z</time>
      </trkpt>
      <trkpt lat="45.18318" lon="4.8097">
        <ele>132</ele>
        <time>2024-05-21T09:17:16.000Z</time>
      </trkpt>
      <trkpt lat="45.18315" lon="4.80974">
        <ele>131.80000305176</ele>
        <time>2024-05-21T09:17:17.000Z</time>
      </trkpt>
      <trkpt lat="45.18313" lon="4.8098">
        <ele>131.80000305176</ele>
        <time>2024-05-21T09:17:18.000Z</time>
      </trkpt>
      <trkpt lat="45.18311" lon="4.80985">
        <ele>131.80000305176</ele>
        <time>2024-05-21T09:17:19.000Z</time>
      </trkpt>
      <trkpt lat="45.18309" lon="4.8099">
        <ele>131.80000305176</ele>
        <time>2024-05-21T09:17:20.000Z</time>
      </trkpt>
      <trkpt lat="45.18308" lon="4.80995">
        <ele>131.80000305176</ele>
        <time>2024-05-21T09:17:21.000Z</time>
      </trkpt>
      <trkpt lat="45.18306" lon="4.81">
        <ele>131.80000305176</ele>
        <time>2024-05-21T09:17:22.000Z</time>
      </trkpt>
      <trkpt lat="45.18304" lon="4.81005">
        <ele>131.80000305176</ele>
        <time>2024-05-21T09:17:23.000Z</time>
      </trkpt>
      <trkpt lat="45.18302" lon="4.81011">
        <ele>131.80000305176</ele>
        <time>2024-05-21T09:17:24.000Z</time>
      </trkpt>
      <trkpt lat="45.18301" lon="4.81017">
        <ele>132</ele>
        <time>2024-05-21T09:17:25.000Z</time>
      </trkpt>
      <trkpt lat="45.18299" lon="4.81023">
        <ele>132</ele>
        <time>2024-05-21T09:17:26.000Z</time>
      </trkpt>
      <trkpt lat="45.18299" lon="4.81028">
        <ele>132</ele>
        <time>2024-05-21T09:17:27.000Z</time>
      </trkpt>
      <trkpt lat="45.18299" lon="4.81033">
        <ele>132</ele>
        <time>2024-05-21T09:17:28.000Z</time>
      </trkpt>
      <trkpt lat="45.183" lon="4.81039">
        <ele>132.19999694824</ele>
        <time>2024-05-21T09:17:29.000Z</time>
      </trkpt>
      <trkpt lat="45.183" lon="4.81046">
        <ele>132.19999694824</ele>
        <time>2024-05-21T09:17:30.000Z</time>
      </trkpt>
      <trkpt lat="45.183" lon="4.81053">
        <ele>132.19999694824</ele>
        <time>2024-05-21T09:17:31.000Z</time>
      </trkpt>
      <trkpt lat="45.18301" lon="4.8106">
        <ele>132.19999694824</ele>
        <time>2024-05-21T09:17:32.000Z</time>
      </trkpt>
      <trkpt lat="45.18301" lon="4.81067">
        <ele>132.19999694824</ele>
        <time>2024-05-21T09:17:33.000Z</time>
      </trkpt>
      <trkpt lat="45.18301" lon="4.81073">
        <ele>132.19999694824</ele>
        <time>2024-05-21T09:17:34.000Z</time>
      </trkpt>
      <trkpt lat="45.18302" lon="4.81079">
        <ele>132.19999694824</ele>
        <time>2024-05-21T09:17:35.000Z</time>
      </trkpt>
      <trkpt lat="45.18303" lon="4.81085">
        <ele>132.19999694824</ele>
        <time>2024-05-21T09:17:36.000Z</time>
      </trkpt>
      <trkpt lat="45.18304" lon="4.81091">
        <ele>132.19999694824</ele>
        <time>2024-05-21T09:17:37.000Z</time>
      </trkpt>
      <trkpt lat="45.18304" lon="4.81096">
        <ele>132.39999389648</ele>
        <time>2024-05-21T09:17:38.000Z</time>
      </trkpt>
      <trkpt lat="45.18304" lon="4.81101">
        <ele>132.39999389648</ele>
        <time>2024-05-21T09:17:39.000Z</time>
      </trkpt>
      <trkpt lat="45.18304" lon="4.81107">
        <ele>132.39999389648</ele>
        <time>2024-05-21T09:17:40.000Z</time>
      </trkpt>
      <trkpt lat="45.18305" lon="4.81112">
        <ele>132.39999389648</ele>
        <time>2024-05-21T09:17:41.000Z</time>
      </trkpt>
      <trkpt lat="45.18304" lon="4.81116">
        <ele>132.39999389648</ele>
        <time>2024-05-21T09:17:42.000Z</time>
      </trkpt>
      <trkpt lat="45.18303" lon="4.81119">
        <ele>132.39999389648</ele>
        <time>2024-05-21T09:17:43.000Z</time>
      </trkpt>
      <trkpt lat="45.183" lon="4.8112">
        <ele>132.39999389648</ele>
        <time>2024-05-21T09:17:44.000Z</time>
      </trkpt>
      <trkpt lat="45.18297" lon="4.81119">
        <ele>132.39999389648</ele>
        <time>2024-05-21T09:17:45.000Z</time>
      </trkpt>
      <trkpt lat="45.18292" lon="4.8112">
        <ele>132.39999389648</ele>
        <time>2024-05-21T09:17:46.000Z</time>
      </trkpt>
      <trkpt lat="45.18288" lon="4.8112">
        <ele>132.19999694824</ele>
        <time>2024-05-21T09:17:47.000Z</time>
      </trkpt>
      <trkpt lat="45.18283" lon="4.8112">
        <ele>132.19999694824</ele>
        <time>2024-05-21T09:17:48.000Z</time>
      </trkpt>
      <trkpt lat="45.18278" lon="4.81121">
        <ele>131.80000305176</ele>
        <time>2024-05-21T09:17:49.000Z</time>
      </trkpt>
      <trkpt lat="45.18273" lon="4.81121">
        <ele>131.60000610352</ele>
        <time>2024-05-21T09:17:50.000Z</time>
      </trkpt>
      <trkpt lat="45.18268" lon="4.81121">
        <ele>131.39999389648</ele>
        <time>2024-05-21T09:17:51.000Z</time>
      </trkpt>
      <trkpt lat="45.18263" lon="4.81121">
        <ele>131.19999694824</ele>
        <time>2024-05-21T09:17:52.000Z</time>
      </trkpt>
      <trkpt lat="45.18258" lon="4.81121">
        <ele>131</ele>
        <time>2024-05-21T09:17:53.000Z</time>
      </trkpt>
      <trkpt lat="45.18253" lon="4.81121">
        <ele>130.80000305176</ele>
        <time>2024-05-21T09:17:54.000Z</time>
      </trkpt>
      <trkpt lat="45.18248" lon="4.81121">
        <ele>130.80000305176</ele>
        <time>2024-05-21T09:17:55.000Z</time>
      </trkpt>
      <trkpt lat="45.18244" lon="4.81121">
        <ele>130.80000305176</ele>
        <time>2024-05-21T09:17:56.000Z</time>
      </trkpt>
      <trkpt lat="45.18239" lon="4.81121">
        <ele>130.80000305176</ele>
        <time>2024-05-21T09:17:57.000Z</time>
      </trkpt>
      <trkpt lat="45.18233" lon="4.81121">
        <ele>130.80000305176</ele>
        <time>2024-05-21T09:17:58.000Z</time>
      </trkpt>
      <trkpt lat="45.18229" lon="4.8112">
        <ele>130.80000305176</ele>
        <time>2024-05-21T09:17:59.000Z</time>
      </trkpt>
      <trkpt lat="45.18224" lon="4.8112">
        <ele>130.80000305176</ele>
        <time>2024-05-21T09:18:00.000Z</time>
      </trkpt>
      <trkpt lat="45.18219" lon="4.8112">
        <ele>131</ele>
        <time>2024-05-21T09:18:01.000Z</time>
      </trkpt>
      <trkpt lat="45.18214" lon="4.8112">
        <ele>131</ele>
        <time>2024-05-21T09:18:02.000Z</time>
      </trkpt>
      <trkpt lat="45.18209" lon="4.8112">
        <ele>131</ele>
        <time>2024-05-21T09:18:03.000Z</time>
      </trkpt>
      <trkpt lat="45.18204" lon="4.8112">
        <ele>131.19999694824</ele>
        <time>2024-05-21T09:18:04.000Z</time>
      </trkpt>
      <trkpt lat="45.18198" lon="4.81119">
        <ele>131.19999694824</ele>
        <time>2024-05-21T09:18:05.000Z</time>
      </trkpt>
      <trkpt lat="45.18193" lon="4.81119">
        <ele>131.19999694824</ele>
        <time>2024-05-21T09:18:06.000Z</time>
      </trkpt>
      <trkpt lat="45.18188" lon="4.81119">
        <ele>131.19999694824</ele>
        <time>2024-05-21T09:18:07.000Z</time>
      </trkpt>
      <trkpt lat="45.18183" lon="4.81119">
        <ele>131.19999694824</ele>
        <time>2024-05-21T09:18:08.000Z</time>
      </trkpt>
      <trkpt lat="45.18179" lon="4.81118">
        <ele>131.39999389648</ele>
        <time>2024-05-21T09:18:09.000Z</time>
      </trkpt>
      <trkpt lat="45.18174" lon="4.81117">
        <ele>131.39999389648</ele>
        <time>2024-05-21T09:18:10.000Z</time>
      </trkpt>
      <trkpt lat="45.18169" lon="4.81117">
        <ele>131.39999389648</ele>
        <time>2024-05-21T09:18:11.000Z</time>
      </trkpt>
      <trkpt lat="45.18164" lon="4.81116">
        <ele>131.39999389648</ele>
        <time>2024-05-21T09:18:12.000Z</time>
      </trkpt>
      <trkpt lat="45.18159" lon="4.81115">
        <ele>131.39999389648</ele>
        <time>2024-05-21T09:18:13.000Z</time>
      </trkpt>
      <trkpt lat="45.18153" lon="4.81114">
        <ele>131.39999389648</ele>
        <time>2024-05-21T09:18:14.000Z</time>
      </trkpt>
      <trkpt lat="45.18149" lon="4.81113">
        <ele>131.39999389648</ele>
        <time>2024-05-21T09:18:15.000Z</time>
      </trkpt>
      <trkpt lat="45.18144" lon="4.81112">
        <ele>131.39999389648</ele>
        <time>2024-05-21T09:18:16.000Z</time>
      </trkpt>
      <trkpt lat="45.18139" lon="4.81111">
        <ele>131.39999389648</ele>
        <time>2024-05-21T09:18:17.000Z</time>
      </trkpt>
      <trkpt lat="45.18134" lon="4.8111">
        <ele>131.39999389648</ele>
        <time>2024-05-21T09:18:18.000Z</time>
      </trkpt>
      <trkpt lat="45.18129" lon="4.81109">
        <ele>131.39999389648</ele>
        <time>2024-05-21T09:18:19.000Z</time>
      </trkpt>
      <trkpt lat="45.18124" lon="4.81107">
        <ele>131.39999389648</ele>
        <time>2024-05-21T09:18:20.000Z</time>
      </trkpt>
      <trkpt lat="45.18119" lon="4.81107">
        <ele>131.39999389648</ele>
        <time>2024-05-21T09:18:21.000Z</time>
      </trkpt>
      <trkpt lat="45.18114" lon="4.81106">
        <ele>131.39999389648</ele>
        <time>2024-05-21T09:18:22.000Z</time>
      </trkpt>
      <trkpt lat="45.18109" lon="4.81105">
        <ele>131.39999389648</ele>
        <time>2024-05-21T09:18:23.000Z</time>
      </trkpt>
      <trkpt lat="45.18103" lon="4.81104">
        <ele>131.39999389648</ele>
        <time>2024-05-21T09:18:24.000Z</time>
      </trkpt>
      <trkpt lat="45.18099" lon="4.81103">
        <ele>131.39999389648</ele>
        <time>2024-05-21T09:18:25.000Z</time>
      </trkpt>
      <trkpt lat="45.18093" lon="4.81102">
        <ele>131.39999389648</ele>
        <time>2024-05-21T09:18:26.000Z</time>
      </trkpt>
      <trkpt lat="45.18088" lon="4.81101">
        <ele>131.19999694824</ele>
        <time>2024-05-21T09:18:27.000Z</time>
      </trkpt>
      <trkpt lat="45.18083" lon="4.81099">
        <ele>131.19999694824</ele>
        <time>2024-05-21T09:18:28.000Z</time>
      </trkpt>
      <trkpt lat="45.18077" lon="4.81098">
        <ele>131.19999694824</ele>
        <time>2024-05-21T09:18:29.000Z</time>
      </trkpt>
      <trkpt lat="45.18072" lon="4.81096">
        <ele>131.19999694824</ele>
        <time>2024-05-21T09:18:30.000Z</time>
      </trkpt>
      <trkpt lat="45.18067" lon="4.81094">
        <ele>131.39999389648</ele>
        <time>2024-05-21T09:18:31.000Z</time>
      </trkpt>
      <trkpt lat="45.18061" lon="4.81093">
        <ele>131.39999389648</ele>
        <time>2024-05-21T09:18:32.000Z</time>
      </trkpt>
      <trkpt lat="45.18056" lon="4.81091">
        <ele>131.19999694824</ele>
        <time>2024-05-21T09:18:33.000Z</time>
      </trkpt>
      <trkpt lat="45.18052" lon="4.8109">
        <ele>131.19999694824</ele>
        <time>2024-05-21T09:18:34.000Z</time>
      </trkpt>
      <trkpt lat="45.18045" lon="4.81088">
        <ele>131.19999694824</ele>
        <time>2024-05-21T09:18:35.000Z</time>
      </trkpt>
      <trkpt lat="45.1804" lon="4.81086">
        <ele>131</ele>
        <time>2024-05-21T09:18:36.000Z</time>
      </trkpt>
      <trkpt lat="45.18035" lon="4.81084">
        <ele>131</ele>
        <time>2024-05-21T09:18:37.000Z</time>
      </trkpt>
      <trkpt lat="45.1803" lon="4.81082">
        <ele>131</ele>
        <time>2024-05-21T09:18:38.000Z</time>
      </trkpt>
      <trkpt lat="45.18024" lon="4.8108">
        <ele>131</ele>
        <time>2024-05-21T09:18:39.000Z</time>
      </trkpt>
      <trkpt lat="45.18019" lon="4.81079">
        <ele>131</ele>
        <time>2024-05-21T09:18:40.000Z</time>
      </trkpt>
      <trkpt lat="45.18014" lon="4.81077">
        <ele>131</ele>
        <time>2024-05-21T09:18:41.000Z</time>
      </trkpt>
      <trkpt lat="45.18009" lon="4.81075">
        <ele>131</ele>
        <time>2024-05-21T09:18:42.000Z</time>
      </trkpt>
      <trkpt lat="45.18004" lon="4.81073">
        <ele>131</ele>
        <time>2024-05-21T09:18:43.000Z</time>
      </trkpt>
      <trkpt lat="45.17999" lon="4.81071">
        <ele>131.19999694824</ele>
        <time>2024-05-21T09:18:44.000Z</time>
      </trkpt>
      <trkpt lat="45.17994" lon="4.81069">
        <ele>131.19999694824</ele>
        <time>2024-05-21T09:18:45.000Z</time>
      </trkpt>
      <trkpt lat="45.17989" lon="4.81066">
        <ele>131.19999694824</ele>
        <time>2024-05-21T09:18:46.000Z</time>
      </trkpt>
      <trkpt lat="45.17983" lon="4.81064">
        <ele>131.19999694824</ele>
        <time>2024-05-21T09:18:47.000Z</time>
      </trkpt>
      <trkpt lat="45.17978" lon="4.81061">
        <ele>131.19999694824</ele>
        <time>2024-05-21T09:18:48.000Z</time>
      </trkpt>
      <trkpt lat="45.17973" lon="4.81059">
        <ele>131.19999694824</ele>
        <time>2024-05-21T09:18:49.000Z</time>
      </trkpt>
      <trkpt lat="45.17967" lon="4.81057">
        <ele>131.19999694824</ele>
        <time>2024-05-21T09:18:50.000Z</time>
      </trkpt>
      <trkpt lat="45.17961" lon="4.81054">
        <ele>131.39999389648</ele>
        <time>2024-05-21T09:18:51.000Z</time>
      </trkpt>
      <trkpt lat="45.17956" lon="4.81052">
        <ele>131.39999389648</ele>
        <time>2024-05-21T09:18:52.000Z</time>
      </trkpt>
      <trkpt lat="45.17951" lon="4.81049">
        <ele>131.39999389648</ele>
        <time>2024-05-21T09:18:53.000Z</time>
      </trkpt>
      <trkpt lat="45.17945" lon="4.81046">
        <ele>131.60000610352</ele>
        <time>2024-05-21T09:18:54.000Z</time>
      </trkpt>
      <trkpt lat="45.17941" lon="4.81044">
        <ele>131.60000610352</ele>
        <time>2024-05-21T09:18:55.000Z</time>
      </trkpt>
      <trkpt lat="45.17935" lon="4.81041">
        <ele>131.60000610352</ele>
        <time>2024-05-21T09:18:56.000Z</time>
      </trkpt>
      <trkpt lat="45.1793" lon="4.81038">
        <ele>131.39999389648</ele>
        <time>2024-05-21T09:18:57.000Z</time>
      </trkpt>
      <trkpt lat="45.17926" lon="4.81036">
        <ele>131.39999389648</ele>
        <time>2024-05-21T09:18:58.000Z</time>
      </trkpt>
      <trkpt lat="45.1792" lon="4.81033">
        <ele>131.19999694824</ele>
        <time>2024-05-21T09:18:59.000Z</time>
      </trkpt>
      <trkpt lat="45.17915" lon="4.81031">
        <ele>131.19999694824</ele>
        <time>2024-05-21T09:19:00.000Z</time>
      </trkpt>
      <trkpt lat="45.1791" lon="4.81028">
        <ele>131.19999694824</ele>
        <time>2024-05-21T09:19:01.000Z</time>
      </trkpt>
      <trkpt lat="45.17905" lon="4.81025">
        <ele>131.19999694824</ele>
        <time>2024-05-21T09:19:02.000Z</time>
      </trkpt>
      <trkpt lat="45.179" lon="4.81023">
        <ele>131.19999694824</ele>
        <time>2024-05-21T09:19:03.000Z</time>
      </trkpt>
      <trkpt lat="45.17895" lon="4.8102">
        <ele>131.19999694824</ele>
        <time>2024-05-21T09:19:04.000Z</time>
      </trkpt>
      <trkpt lat="45.17889" lon="4.81017">
        <ele>131.19999694824</ele>
        <time>2024-05-21T09:19:05.000Z</time>
      </trkpt>
      <trkpt lat="45.17883" lon="4.81013">
        <ele>131.19999694824</ele>
        <time>2024-05-21T09:19:06.000Z</time>
      </trkpt>
      <trkpt lat="45.17878" lon="4.81011">
        <ele>131.19999694824</ele>
        <time>2024-05-21T09:19:07.000Z</time>
      </trkpt>
      <trkpt lat="45.17874" lon="4.81008">
        <ele>131.19999694824</ele>
        <time>2024-05-21T09:19:08.000Z</time>
      </trkpt>
      <trkpt lat="45.17869" lon="4.81005">
        <ele>131.19999694824</ele>
        <time>2024-05-21T09:19:09.000Z</time>
      </trkpt>
      <trkpt lat="45.17864" lon="4.81002">
        <ele>131.19999694824</ele>
        <time>2024-05-21T09:19:10.000Z</time>
      </trkpt>
      <trkpt lat="45.17859" lon="4.81">
        <ele>131.19999694824</ele>
        <time>2024-05-21T09:19:11.000Z</time>
      </trkpt>
      <trkpt lat="45.17853" lon="4.80997">
        <ele>131</ele>
        <time>2024-05-21T09:19:12.000Z</time>
      </trkpt>
      <trkpt lat="45.17848" lon="4.80994">
        <ele>131</ele>
        <time>2024-05-21T09:19:13.000Z</time>
      </trkpt>
      <trkpt lat="45.17843" lon="4.80991">
        <ele>131</ele>
        <time>2024-05-21T09:19:14.000Z</time>
      </trkpt>
      <trkpt lat="45.17838" lon="4.80988">
        <ele>131</ele>
        <time>2024-05-21T09:19:15.000Z</time>
      </trkpt>
      <trkpt lat="45.17833" lon="4.80986">
        <ele>131</ele>
        <time>2024-05-21T09:19:16.000Z</time>
      </trkpt>
      <trkpt lat="45.17828" lon="4.80983">
        <ele>131</ele>
        <time>2024-05-21T09:19:17.000Z</time>
      </trkpt>
      <trkpt lat="45.17823" lon="4.8098">
        <ele>131</ele>
        <time>2024-05-21T09:19:18.000Z</time>
      </trkpt>
      <trkpt lat="45.17817" lon="4.80977">
        <ele>131.19999694824</ele>
        <time>2024-05-21T09:19:19.000Z</time>
      </trkpt>
      <trkpt lat="45.17812" lon="4.80974">
        <ele>131.39999389648</ele>
        <time>2024-05-21T09:19:20.000Z</time>
      </trkpt>
      <trkpt lat="45.17807" lon="4.80972">
        <ele>131.39999389648</ele>
        <time>2024-05-21T09:19:21.000Z</time>
      </trkpt>
      <trkpt lat="45.17802" lon="4.80969">
        <ele>131.39999389648</ele>
        <time>2024-05-21T09:19:22.000Z</time>
      </trkpt>
      <trkpt lat="45.17797" lon="4.80966">
        <ele>131.39999389648</ele>
        <time>2024-05-21T09:19:23.000Z</time>
      </trkpt>
      <trkpt lat="45.17792" lon="4.80963">
        <ele>131.39999389648</ele>
        <time>2024-05-21T09:19:24.000Z</time>
      </trkpt>
      <trkpt lat="45.17786" lon="4.8096">
        <ele>131.39999389648</ele>
        <time>2024-05-21T09:19:25.000Z</time>
      </trkpt>
      <trkpt lat="45.17781" lon="4.80957">
        <ele>131.19999694824</ele>
        <time>2024-05-21T09:19:26.000Z</time>
      </trkpt>
      <trkpt lat="45.17776" lon="4.80955">
        <ele>131.19999694824</ele>
        <time>2024-05-21T09:19:27.000Z</time>
      </trkpt>
      <trkpt lat="45.17771" lon="4.80952">
        <ele>131.19999694824</ele>
        <time>2024-05-21T09:19:28.000Z</time>
      </trkpt>
      <trkpt lat="45.17766" lon="4.80949">
        <ele>131.19999694824</ele>
        <time>2024-05-21T09:19:29.000Z</time>
      </trkpt>
      <trkpt lat="45.17761" lon="4.80946">
        <ele>131.19999694824</ele>
        <time>2024-05-21T09:19:30.000Z</time>
      </trkpt>
      <trkpt lat="45.17755" lon="4.80943">
        <ele>131.19999694824</ele>
        <time>2024-05-21T09:19:31.000Z</time>
      </trkpt>
      <trkpt lat="45.1775" lon="4.80941">
        <ele>131.19999694824</ele>
        <time>2024-05-21T09:19:32.000Z</time>
      </trkpt>
      <trkpt lat="45.17745" lon="4.80938">
        <ele>131.19999694824</ele>
        <time>2024-05-21T09:19:33.000Z</time>
      </trkpt>
      <trkpt lat="45.1774" lon="4.80935">
        <ele>131.19999694824</ele>
        <time>2024-05-21T09:19:34.000Z</time>
      </trkpt>
      <trkpt lat="45.17734" lon="4.80932">
        <ele>131.19999694824</ele>
        <time>2024-05-21T09:19:35.000Z</time>
      </trkpt>
      <trkpt lat="45.17729" lon="4.80929">
        <ele>131.19999694824</ele>
        <time>2024-05-21T09:19:36.000Z</time>
      </trkpt>
      <trkpt lat="45.17724" lon="4.80926">
        <ele>131.19999694824</ele>
        <time>2024-05-21T09:19:37.000Z</time>
      </trkpt>
      <trkpt lat="45.17719" lon="4.80923">
        <ele>131.19999694824</ele>
        <time>2024-05-21T09:19:38.000Z</time>
      </trkpt>
      <trkpt lat="45.17714" lon="4.80921">
        <ele>131.19999694824</ele>
        <time>2024-05-21T09:19:39.000Z</time>
      </trkpt>
      <trkpt lat="45.17709" lon="4.80918">
        <ele>131.19999694824</ele>
        <time>2024-05-21T09:19:40.000Z</time>
      </trkpt>
      <trkpt lat="45.17704" lon="4.80915">
        <ele>131.19999694824</ele>
        <time>2024-05-21T09:19:41.000Z</time>
      </trkpt>
      <trkpt lat="45.17699" lon="4.80912">
        <ele>131.19999694824</ele>
        <time>2024-05-21T09:19:42.000Z</time>
      </trkpt>
      <trkpt lat="45.17693" lon="4.80909">
        <ele>131.19999694824</ele>
        <time>2024-05-21T09:19:43.000Z</time>
      </trkpt>
      <trkpt lat="45.17688" lon="4.80907">
        <ele>131.19999694824</ele>
        <time>2024-05-21T09:19:44.000Z</time>
      </trkpt>
      <trkpt lat="45.17683" lon="4.80904">
        <ele>131.19999694824</ele>
        <time>2024-05-21T09:19:45.000Z</time>
      </trkpt>
      <trkpt lat="45.17678" lon="4.80901">
        <ele>131.19999694824</ele>
        <time>2024-05-21T09:19:46.000Z</time>
      </trkpt>
      <trkpt lat="45.17673" lon="4.80898">
        <ele>131.19999694824</ele>
        <time>2024-05-21T09:19:47.000Z</time>
      </trkpt>
      <trkpt lat="45.17667" lon="4.80895">
        <ele>131.19999694824</ele>
        <time>2024-05-21T09:19:48.000Z</time>
      </trkpt>
      <trkpt lat="45.17662" lon="4.80892">
        <ele>131.19999694824</ele>
        <time>2024-05-21T09:19:49.000Z</time>
      </trkpt>
      <trkpt lat="45.17657" lon="4.80889">
        <ele>131.19999694824</ele>
        <time>2024-05-21T09:19:50.000Z</time>
      </trkpt>
      <trkpt lat="45.17652" lon="4.80886">
        <ele>131.19999694824</ele>
        <time>2024-05-21T09:19:51.000Z</time>
      </trkpt>
      <trkpt lat="45.17646" lon="4.80883">
        <ele>131.19999694824</ele>
        <time>2024-05-21T09:19:52.000Z</time>
      </trkpt>
      <trkpt lat="45.17641" lon="4.8088">
        <ele>131.19999694824</ele>
        <time>2024-05-21T09:19:53.000Z</time>
      </trkpt>
      <trkpt lat="45.17636" lon="4.80878">
        <ele>131.19999694824</ele>
        <time>2024-05-21T09:19:54.000Z</time>
      </trkpt>
      <trkpt lat="45.17631" lon="4.80875">
        <ele>131.19999694824</ele>
        <time>2024-05-21T09:19:55.000Z</time>
      </trkpt>
      <trkpt lat="45.17626" lon="4.80872">
        <ele>131.19999694824</ele>
        <time>2024-05-21T09:19:56.000Z</time>
      </trkpt>
      <trkpt lat="45.1762" lon="4.80869">
        <ele>131.19999694824</ele>
        <time>2024-05-21T09:19:57.000Z</time>
      </trkpt>
      <trkpt lat="45.17615" lon="4.80866">
        <ele>131.19999694824</ele>
        <time>2024-05-21T09:19:58.000Z</time>
      </trkpt>
      <trkpt lat="45.1761" lon="4.80864">
        <ele>131.19999694824</ele>
        <time>2024-05-21T09:19:59.000Z</time>
      </trkpt>
      <trkpt lat="45.17604" lon="4.80861">
        <ele>131.19999694824</ele>
        <time>2024-05-21T09:20:00.000Z</time>
      </trkpt>
      <trkpt lat="45.17599" lon="4.80858">
        <ele>131.19999694824</ele>
        <time>2024-05-21T09:20:01.000Z</time>
      </trkpt>
      <trkpt lat="45.17594" lon="4.80855">
        <ele>131.19999694824</ele>
        <time>2024-05-21T09:20:02.000Z</time>
      </trkpt>
      <trkpt lat="45.17589" lon="4.80853">
        <ele>131.19999694824</ele>
        <time>2024-05-21T09:20:03.000Z</time>
      </trkpt>
      <trkpt lat="45.17584" lon="4.80849">
        <ele>131.19999694824</ele>
        <time>2024-05-21T09:20:04.000Z</time>
      </trkpt>
      <trkpt lat="45.17579" lon="4.80846">
        <ele>131.19999694824</ele>
        <time>2024-05-21T09:20:05.000Z</time>
      </trkpt>
      <trkpt lat="45.17574" lon="4.80843">
        <ele>131.19999694824</ele>
        <time>2024-05-21T09:20:06.000Z</time>
      </trkpt>
      <trkpt lat="45.17569" lon="4.8084">
        <ele>131.19999694824</ele>
        <time>2024-05-21T09:20:07.000Z</time>
      </trkpt>
      <trkpt lat="45.17564" lon="4.80838">
        <ele>131.19999694824</ele>
        <time>2024-05-21T09:20:08.000Z</time>
      </trkpt>
      <trkpt lat="45.17559" lon="4.80834">
        <ele>131.19999694824</ele>
        <time>2024-05-21T09:20:09.000Z</time>
      </trkpt>
      <trkpt lat="45.17554" lon="4.80832">
        <ele>131.19999694824</ele>
        <time>2024-05-21T09:20:10.000Z</time>
      </trkpt>
      <trkpt lat="45.17549" lon="4.80829">
        <ele>131.19999694824</ele>
        <time>2024-05-21T09:20:11.000Z</time>
      </trkpt>
      <trkpt lat="45.17543" lon="4.80827">
        <ele>131.19999694824</ele>
        <time>2024-05-21T09:20:12.000Z</time>
      </trkpt>
      <trkpt lat="45.17538" lon="4.80824">
        <ele>131.19999694824</ele>
        <time>2024-05-21T09:20:13.000Z</time>
      </trkpt>
      <trkpt lat="45.17533" lon="4.80822">
        <ele>131.19999694824</ele>
        <time>2024-05-21T09:20:14.000Z</time>
      </trkpt>
      <trkpt lat="45.17528" lon="4.80819">
        <ele>131.19999694824</ele>
        <time>2024-05-21T09:20:15.000Z</time>
      </trkpt>
      <trkpt lat="45.17523" lon="4.80816">
        <ele>131</ele>
        <time>2024-05-21T09:20:16.000Z</time>
      </trkpt>
      <trkpt lat="45.17518" lon="4.80813">
        <ele>131</ele>
        <time>2024-05-21T09:20:17.000Z</time>
      </trkpt>
      <trkpt lat="45.17512" lon="4.80811">
        <ele>131</ele>
        <time>2024-05-21T09:20:18.000Z</time>
      </trkpt>
      <trkpt lat="45.17507" lon="4.80808">
        <ele>131</ele>
        <time>2024-05-21T09:20:19.000Z</time>
      </trkpt>
      <trkpt lat="45.17502" lon="4.80805">
        <ele>131</ele>
        <time>2024-05-21T09:20:20.000Z</time>
      </trkpt>
      <trkpt lat="45.17497" lon="4.80803">
        <ele>131</ele>
        <time>2024-05-21T09:20:21.000Z</time>
      </trkpt>
      <trkpt lat="45.17492" lon="4.808">
        <ele>131</ele>
        <time>2024-05-21T09:20:22.000Z</time>
      </trkpt>
      <trkpt lat="45.17487" lon="4.80798">
        <ele>131</ele>
        <time>2024-05-21T09:20:23.000Z</time>
      </trkpt>
      <trkpt lat="45.17482" lon="4.80795">
        <ele>130.80000305176</ele>
        <time>2024-05-21T09:20:24.000Z</time>
      </trkpt>
      <trkpt lat="45.17477" lon="4.80792">
        <ele>130.80000305176</ele>
        <time>2024-05-21T09:20:25.000Z</time>
      </trkpt>
      <trkpt lat="45.17472" lon="4.80789">
        <ele>130.80000305176</ele>
        <time>2024-05-21T09:20:26.000Z</time>
      </trkpt>
      <trkpt lat="45.17467" lon="4.80787">
        <ele>130.60000610352</ele>
        <time>2024-05-21T09:20:27.000Z</time>
      </trkpt>
      <trkpt lat="45.17462" lon="4.80784">
        <ele>130.60000610352</ele>
        <time>2024-05-21T09:20:28.000Z</time>
      </trkpt>
      <trkpt lat="45.17457" lon="4.80781">
        <ele>130.60000610352</ele>
        <time>2024-05-21T09:20:29.000Z</time>
      </trkpt>
      <trkpt lat="45.17452" lon="4.80779">
        <ele>130.60000610352</ele>
        <time>2024-05-21T09:20:30.000Z</time>
      </trkpt>
      <trkpt lat="45.17447" lon="4.80776">
        <ele>130.60000610352</ele>
        <time>2024-05-21T09:20:31.000Z</time>
      </trkpt>
      <trkpt lat="45.17443" lon="4.80773">
        <ele>130.60000610352</ele>
        <time>2024-05-21T09:20:32.000Z</time>
      </trkpt>
      <trkpt lat="45.17438" lon="4.8077">
        <ele>130.39999389648</ele>
        <time>2024-05-21T09:20:33.000Z</time>
      </trkpt>
      <trkpt lat="45.17434" lon="4.80768">
        <ele>130.39999389648</ele>
        <time>2024-05-21T09:20:34.000Z</time>
      </trkpt>
      <trkpt lat="45.17431" lon="4.80765">
        <ele>130.39999389648</ele>
        <time>2024-05-21T09:20:35.000Z</time>
      </trkpt>
      <trkpt lat="45.17428" lon="4.80762">
        <ele>130.39999389648</ele>
        <time>2024-05-21T09:20:36.000Z</time>
      </trkpt>
      <trkpt lat="45.17426" lon="4.80759">
        <ele>130.39999389648</ele>
        <time>2024-05-21T09:20:37.000Z</time>
      </trkpt>
      <trkpt lat="45.17425" lon="4.80756">
        <ele>130.60000610352</ele>
        <time>2024-05-21T09:20:38.000Z</time>
      </trkpt>
      <trkpt lat="45.17425" lon="4.80752">
        <ele>130.80000305176</ele>
        <time>2024-05-21T09:20:39.000Z</time>
      </trkpt>
      <trkpt lat="45.17425" lon="4.80749">
        <ele>131</ele>
        <time>2024-05-21T09:20:40.000Z</time>
      </trkpt>
      <trkpt lat="45.17424" lon="4.80746">
        <ele>131</ele>
        <time>2024-05-21T09:20:41.000Z</time>
      </trkpt>
      <trkpt lat="45.17421" lon="4.80743">
        <ele>131.19999694824</ele>
        <time>2024-05-21T09:20:42.000Z</time>
      </trkpt>
      <trkpt lat="45.17418" lon="4.80742">
        <ele>131.19999694824</ele>
        <time>2024-05-21T09:20:43.000Z</time>
      </trkpt>
      <trkpt lat="45.17414" lon="4.80742">
        <ele>131.19999694824</ele>
        <time>2024-05-21T09:20:44.000Z</time>
      </trkpt>
      <trkpt lat="45.1741" lon="4.80741">
        <ele>131.19999694824</ele>
        <time>2024-05-21T09:20:45.000Z</time>
      </trkpt>
      <trkpt lat="45.17406" lon="4.8074">
        <ele>131.19999694824</ele>
        <time>2024-05-21T09:20:46.000Z</time>
      </trkpt>
      <trkpt lat="45.17402" lon="4.80738">
        <ele>131</ele>
        <time>2024-05-21T09:20:47.000Z</time>
      </trkpt>
      <trkpt lat="45.17398" lon="4.80736">
        <ele>131</ele>
        <time>2024-05-21T09:20:48.000Z</time>
      </trkpt>
      <trkpt lat="45.17394" lon="4.80734">
        <ele>131</ele>
        <time>2024-05-21T09:20:49.000Z</time>
      </trkpt>
      <trkpt lat="45.1739" lon="4.80732">
        <ele>131</ele>
        <time>2024-05-21T09:20:50.000Z</time>
      </trkpt>
      <trkpt lat="45.17387" lon="4.80729">
        <ele>131</ele>
        <time>2024-05-21T09:20:51.000Z</time>
      </trkpt>
      <trkpt lat="45.17383" lon="4.80724">
        <ele>131</ele>
        <time>2024-05-21T09:20:52.000Z</time>
      </trkpt>
      <trkpt lat="45.17381" lon="4.80719">
        <ele>131.19999694824</ele>
        <time>2024-05-21T09:20:53.000Z</time>
      </trkpt>
      <trkpt lat="45.1738" lon="4.80712">
        <ele>131.19999694824</ele>
        <time>2024-05-21T09:20:54.000Z</time>
      </trkpt>
      <trkpt lat="45.1738" lon="4.80705">
        <ele>131</ele>
        <time>2024-05-21T09:20:55.000Z</time>
      </trkpt>
      <trkpt lat="45.1738" lon="4.80698">
        <ele>130.80000305176</ele>
        <time>2024-05-21T09:20:56.000Z</time>
      </trkpt>
      <trkpt lat="45.1738" lon="4.80691">
        <ele>130.80000305176</ele>
        <time>2024-05-21T09:20:57.000Z</time>
      </trkpt>
      <trkpt lat="45.1738" lon="4.80684">
        <ele>130.80000305176</ele>
        <time>2024-05-21T09:20:58.000Z</time>
      </trkpt>
      <trkpt lat="45.1738" lon="4.80677">
        <ele>130.80000305176</ele>
        <time>2024-05-21T09:20:59.000Z</time>
      </trkpt>
      <trkpt lat="45.17379" lon="4.8067">
        <ele>130.80000305176</ele>
        <time>2024-05-21T09:21:00.000Z</time>
      </trkpt>
      <trkpt lat="45.17377" lon="4.80663">
        <ele>131</ele>
        <time>2024-05-21T09:21:01.000Z</time>
      </trkpt>
      <trkpt lat="45.17376" lon="4.80657">
        <ele>131</ele>
        <time>2024-05-21T09:21:02.000Z</time>
      </trkpt>
      <trkpt lat="45.17374" lon="4.8065">
        <ele>131</ele>
        <time>2024-05-21T09:21:03.000Z</time>
      </trkpt>
      <trkpt lat="45.17373" lon="4.80644">
        <ele>131</ele>
        <time>2024-05-21T09:21:04.000Z</time>
      </trkpt>
      <trkpt lat="45.17371" lon="4.80637">
        <ele>131.39999389648</ele>
        <time>2024-05-21T09:21:05.000Z</time>
      </trkpt>
      <trkpt lat="45.17369" lon="4.80631">
        <ele>131.39999389648</ele>
        <time>2024-05-21T09:21:06.000Z</time>
      </trkpt>
      <trkpt lat="45.17368" lon="4.80624">
        <ele>131.60000610352</ele>
        <time>2024-05-21T09:21:07.000Z</time>
      </trkpt>
      <trkpt lat="45.17366" lon="4.80618">
        <ele>131.80000305176</ele>
        <time>2024-05-21T09:21:08.000Z</time>
      </trkpt>
      <trkpt lat="45.17365" lon="4.80611">
        <ele>131.80000305176</ele>
        <time>2024-05-21T09:21:09.000Z</time>
      </trkpt>
      <trkpt lat="45.17363" lon="4.80605">
        <ele>131.80000305176</ele>
        <time>2024-05-21T09:21:10.000Z</time>
      </trkpt>
      <trkpt lat="45.17361" lon="4.80599">
        <ele>131.80000305176</ele>
        <time>2024-05-21T09:21:11.000Z</time>
      </trkpt>
      <trkpt lat="45.1736" lon="4.80593">
        <ele>131.80000305176</ele>
        <time>2024-05-21T09:21:12.000Z</time>
      </trkpt>
      <trkpt lat="45.17358" lon="4.80587">
        <ele>132</ele>
        <time>2024-05-21T09:21:13.000Z</time>
      </trkpt>
      <trkpt lat="45.17357" lon="4.8058">
        <ele>132.19999694824</ele>
        <time>2024-05-21T09:21:14.000Z</time>
      </trkpt>
      <trkpt lat="45.17355" lon="4.80574">
        <ele>132.39999389648</ele>
        <time>2024-05-21T09:21:15.000Z</time>
      </trkpt>
      <trkpt lat="45.17353" lon="4.80568">
        <ele>132.60000610352</ele>
        <time>2024-05-21T09:21:16.000Z</time>
      </trkpt>
      <trkpt lat="45.1735" lon="4.80563">
        <ele>132.80000305176</ele>
        <time>2024-05-21T09:21:17.000Z</time>
      </trkpt>
      <trkpt lat="45.17347" lon="4.80558">
        <ele>133</ele>
        <time>2024-05-21T09:21:18.000Z</time>
      </trkpt>
      <trkpt lat="45.17344" lon="4.80554">
        <ele>133</ele>
        <time>2024-05-21T09:21:19.000Z</time>
      </trkpt>
      <trkpt lat="45.1734" lon="4.80551">
        <ele>133.19999694824</ele>
        <time>2024-05-21T09:21:20.000Z</time>
      </trkpt>
      <trkpt lat="45.17336" lon="4.80548">
        <ele>133.39999389648</ele>
        <time>2024-05-21T09:21:21.000Z</time>
      </trkpt>
      <trkpt lat="45.17332" lon="4.80546">
        <ele>133.60000610352</ele>
        <time>2024-05-21T09:21:22.000Z</time>
      </trkpt>
      <trkpt lat="45.17328" lon="4.80545">
        <ele>133.80000305176</ele>
        <time>2024-05-21T09:21:23.000Z</time>
      </trkpt>
      <trkpt lat="45.17324" lon="4.80544">
        <ele>133.80000305176</ele>
        <time>2024-05-21T09:21:24.000Z</time>
      </trkpt>
      <trkpt lat="45.17319" lon="4.80544">
        <ele>134.19999694824</ele>
        <time>2024-05-21T09:21:25.000Z</time>
      </trkpt>
      <trkpt lat="45.17315" lon="4.80544">
        <ele>134.19999694824</ele>
        <time>2024-05-21T09:21:26.000Z</time>
      </trkpt>
      <trkpt lat="45.17311" lon="4.80544">
        <ele>134.19999694824</ele>
        <time>2024-05-21T09:21:27.000Z</time>
      </trkpt>
      <trkpt lat="45.17306" lon="4.80544">
        <ele>134.39999389648</ele>
        <time>2024-05-21T09:21:28.000Z</time>
      </trkpt>
      <trkpt lat="45.17302" lon="4.80544">
        <ele>134.60000610352</ele>
        <time>2024-05-21T09:21:29.000Z</time>
      </trkpt>
      <trkpt lat="45.17298" lon="4.80543">
        <ele>134.80000305176</ele>
        <time>2024-05-21T09:21:30.000Z</time>
      </trkpt>
      <trkpt lat="45.17294" lon="4.80542">
        <ele>134.80000305176</ele>
        <time>2024-05-21T09:21:31.000Z</time>
      </trkpt>
      <trkpt lat="45.17291" lon="4.80541">
        <ele>135</ele>
        <time>2024-05-21T09:21:32.000Z</time>
      </trkpt>
      <trkpt lat="45.17287" lon="4.80541">
        <ele>135.19999694824</ele>
        <time>2024-05-21T09:21:33.000Z</time>
      </trkpt>
      <trkpt lat="45.17283" lon="4.80541">
        <ele>135.39999389648</ele>
        <time>2024-05-21T09:21:34.000Z</time>
      </trkpt>
      <trkpt lat="45.17279" lon="4.8054">
        <ele>135.60000610352</ele>
        <time>2024-05-21T09:21:35.000Z</time>
      </trkpt>
      <trkpt lat="45.17274" lon="4.8054">
        <ele>135.80000305176</ele>
        <time>2024-05-21T09:21:36.000Z</time>
      </trkpt>
      <trkpt lat="45.1727" lon="4.80539">
        <ele>136</ele>
        <time>2024-05-21T09:21:37.000Z</time>
      </trkpt>
      <trkpt lat="45.17267" lon="4.80539">
        <ele>136.19999694824</ele>
        <time>2024-05-21T09:21:38.000Z</time>
      </trkpt>
      <trkpt lat="45.17263" lon="4.80538">
        <ele>136.19999694824</ele>
        <time>2024-05-21T09:21:39.000Z</time>
      </trkpt>
      <trkpt lat="45.17259" lon="4.80538">
        <ele>136.39999389648</ele>
        <time>2024-05-21T09:21:40.000Z</time>
      </trkpt>
      <trkpt lat="45.17254" lon="4.80537">
        <ele>136.60000610352</ele>
        <time>2024-05-21T09:21:41.000Z</time>
      </trkpt>
      <trkpt lat="45.1725" lon="4.80537">
        <ele>136.80000305176</ele>
        <time>2024-05-21T09:21:42.000Z</time>
      </trkpt>
      <trkpt lat="45.17246" lon="4.80536">
        <ele>136.80000305176</ele>
        <time>2024-05-21T09:21:43.000Z</time>
      </trkpt>
      <trkpt lat="45.17242" lon="4.80535">
        <ele>137</ele>
        <time>2024-05-21T09:21:44.000Z</time>
      </trkpt>
      <trkpt lat="45.17239" lon="4.80534">
        <ele>137.19999694824</ele>
        <time>2024-05-21T09:21:45.000Z</time>
      </trkpt>
      <trkpt lat="45.17235" lon="4.80534">
        <ele>137.19999694824</ele>
        <time>2024-05-21T09:21:46.000Z</time>
      </trkpt>
      <trkpt lat="45.17231" lon="4.80534">
        <ele>137.39999389648</ele>
        <time>2024-05-21T09:21:47.000Z</time>
      </trkpt>
      <trkpt lat="45.17226" lon="4.80533">
        <ele>137.60000610352</ele>
        <time>2024-05-21T09:21:48.000Z</time>
      </trkpt>
      <trkpt lat="45.17222" lon="4.80532">
        <ele>137.80000305176</ele>
        <time>2024-05-21T09:21:49.000Z</time>
      </trkpt>
      <trkpt lat="45.17217" lon="4.80532">
        <ele>137.80000305176</ele>
        <time>2024-05-21T09:21:50.000Z</time>
      </trkpt>
      <trkpt lat="45.17213" lon="4.80532">
        <ele>138</ele>
        <time>2024-05-21T09:21:51.000Z</time>
      </trkpt>
      <trkpt lat="45.17208" lon="4.80531">
        <ele>138</ele>
        <time>2024-05-21T09:21:52.000Z</time>
      </trkpt>
      <trkpt lat="45.17204" lon="4.80531">
        <ele>138.19999694824</ele>
        <time>2024-05-21T09:21:53.000Z</time>
      </trkpt>
      <trkpt lat="45.172" lon="4.8053">
        <ele>138.39999389648</ele>
        <time>2024-05-21T09:21:54.000Z</time>
      </trkpt>
      <trkpt lat="45.17196" lon="4.8053">
        <ele>138.60000610352</ele>
        <time>2024-05-21T09:21:55.000Z</time>
      </trkpt>
      <trkpt lat="45.17192" lon="4.8053">
        <ele>138.80000305176</ele>
        <time>2024-05-21T09:21:56.000Z</time>
      </trkpt>
      <trkpt lat="45.17187" lon="4.80529">
        <ele>138.80000305176</ele>
        <time>2024-05-21T09:21:57.000Z</time>
      </trkpt>
      <trkpt lat="45.17183" lon="4.80529">
        <ele>138.80000305176</ele>
        <time>2024-05-21T09:21:58.000Z</time>
      </trkpt>
      <trkpt lat="45.17178" lon="4.80529">
        <ele>139</ele>
        <time>2024-05-21T09:21:59.000Z</time>
      </trkpt>
      <trkpt lat="45.17174" lon="4.80528">
        <ele>139.39999389648</ele>
        <time>2024-05-21T09:22:00.000Z</time>
      </trkpt>
      <trkpt lat="45.1717" lon="4.80528">
        <ele>139.60000610352</ele>
        <time>2024-05-21T09:22:01.000Z</time>
      </trkpt>
      <trkpt lat="45.17166" lon="4.80528">
        <ele>139.80000305176</ele>
        <time>2024-05-21T09:22:02.000Z</time>
      </trkpt>
      <trkpt lat="45.17162" lon="4.80528">
        <ele>139.80000305176</ele>
        <time>2024-05-21T09:22:03.000Z</time>
      </trkpt>
      <trkpt lat="45.17157" lon="4.80528">
        <ele>140</ele>
        <time>2024-05-21T09:22:04.000Z</time>
      </trkpt>
      <trkpt lat="45.17153" lon="4.80527">
        <ele>140.19999694824</ele>
        <time>2024-05-21T09:22:05.000Z</time>
      </trkpt>
      <trkpt lat="45.17149" lon="4.80527">
        <ele>140.19999694824</ele>
        <time>2024-05-21T09:22:06.000Z</time>
      </trkpt>
      <trkpt lat="45.17145" lon="4.80526">
        <ele>140.19999694824</ele>
        <time>2024-05-21T09:22:07.000Z</time>
      </trkpt>
      <trkpt lat="45.17141" lon="4.80526">
        <ele>140.39999389648</ele>
        <time>2024-05-21T09:22:08.000Z</time>
      </trkpt>
      <trkpt lat="45.17137" lon="4.80526">
        <ele>140.60000610352</ele>
        <time>2024-05-21T09:22:09.000Z</time>
      </trkpt>
      <trkpt lat="45.17133" lon="4.80525">
        <ele>140.60000610352</ele>
        <time>2024-05-21T09:22:10.000Z</time>
      </trkpt>
      <trkpt lat="45.17129" lon="4.80524">
        <ele>140.80000305176</ele>
        <time>2024-05-21T09:22:11.000Z</time>
      </trkpt>
      <trkpt lat="45.17125" lon="4.80523">
        <ele>140.80000305176</ele>
        <time>2024-05-21T09:22:12.000Z</time>
      </trkpt>
      <trkpt lat="45.17122" lon="4.80521">
        <ele>140.80000305176</ele>
        <time>2024-05-21T09:22:13.000Z</time>
      </trkpt>
      <trkpt lat="45.17119" lon="4.80518">
        <ele>141</ele>
        <time>2024-05-21T09:22:14.000Z</time>
      </trkpt>
      <trkpt lat="45.17117" lon="4.80514">
        <ele>141</ele>
        <time>2024-05-21T09:22:15.000Z</time>
      </trkpt>
      <trkpt lat="45.17115" lon="4.8051">
        <ele>141</ele>
        <time>2024-05-21T09:22:16.000Z</time>
      </trkpt>
      <trkpt lat="45.17114" lon="4.80507">
        <ele>141.19999694824</ele>
        <time>2024-05-21T09:22:17.000Z</time>
      </trkpt>
      <trkpt lat="45.17112" lon="4.80504">
        <ele>141.19999694824</ele>
        <time>2024-05-21T09:22:18.000Z</time>
      </trkpt>
      <trkpt lat="45.1711" lon="4.80502">
        <ele>141.39999389648</ele>
        <time>2024-05-21T09:22:19.000Z</time>
      </trkpt>
      <trkpt lat="45.17108" lon="4.80501">
        <ele>141.60000610352</ele>
        <time>2024-05-21T09:22:20.000Z</time>
      </trkpt>
      <trkpt lat="45.17104" lon="4.80501">
        <ele>141.60000610352</ele>
        <time>2024-05-21T09:22:21.000Z</time>
      </trkpt>
      <trkpt lat="45.171" lon="4.80502">
        <ele>141.60000610352</ele>
        <time>2024-05-21T09:22:22.000Z</time>
      </trkpt>
      <trkpt lat="45.17096" lon="4.80503">
        <ele>141.60000610352</ele>
        <time>2024-05-21T09:22:23.000Z</time>
      </trkpt>
      <trkpt lat="45.17092" lon="4.80504">
        <ele>141.60000610352</ele>
        <time>2024-05-21T09:22:24.000Z</time>
      </trkpt>
      <trkpt lat="45.17088" lon="4.80505">
        <ele>141.60000610352</ele>
        <time>2024-05-21T09:22:25.000Z</time>
      </trkpt>
      <trkpt lat="45.17083" lon="4.80506">
        <ele>141.60000610352</ele>
        <time>2024-05-21T09:22:26.000Z</time>
      </trkpt>
      <trkpt lat="45.17079" lon="4.80507">
        <ele>141.80000305176</ele>
        <time>2024-05-21T09:22:27.000Z</time>
      </trkpt>
      <trkpt lat="45.17074" lon="4.80508">
        <ele>141.80000305176</ele>
        <time>2024-05-21T09:22:28.000Z</time>
      </trkpt>
      <trkpt lat="45.1707" lon="4.80509">
        <ele>141.80000305176</ele>
        <time>2024-05-21T09:22:29.000Z</time>
      </trkpt>
      <trkpt lat="45.17065" lon="4.8051">
        <ele>141.80000305176</ele>
        <time>2024-05-21T09:22:30.000Z</time>
      </trkpt>
      <trkpt lat="45.17061" lon="4.80511">
        <ele>141.80000305176</ele>
        <time>2024-05-21T09:22:31.000Z</time>
      </trkpt>
      <trkpt lat="45.17056" lon="4.80511">
        <ele>142</ele>
        <time>2024-05-21T09:22:32.000Z</time>
      </trkpt>
      <trkpt lat="45.17052" lon="4.80513">
        <ele>142</ele>
        <time>2024-05-21T09:22:33.000Z</time>
      </trkpt>
      <trkpt lat="45.17047" lon="4.80514">
        <ele>142</ele>
        <time>2024-05-21T09:22:34.000Z</time>
      </trkpt>
      <trkpt lat="45.17042" lon="4.80515">
        <ele>142</ele>
        <time>2024-05-21T09:22:35.000Z</time>
      </trkpt>
      <trkpt lat="45.17038" lon="4.80516">
        <ele>142.19999694824</ele>
        <time>2024-05-21T09:22:36.000Z</time>
      </trkpt>
      <trkpt lat="45.17033" lon="4.80517">
        <ele>142.19999694824</ele>
        <time>2024-05-21T09:22:37.000Z</time>
      </trkpt>
      <trkpt lat="45.17028" lon="4.80519">
        <ele>142.19999694824</ele>
        <time>2024-05-21T09:22:38.000Z</time>
      </trkpt>
      <trkpt lat="45.17024" lon="4.80519">
        <ele>142.19999694824</ele>
        <time>2024-05-21T09:22:39.000Z</time>
      </trkpt>
      <trkpt lat="45.17019" lon="4.80521">
        <ele>142.19999694824</ele>
        <time>2024-05-21T09:22:40.000Z</time>
      </trkpt>
      <trkpt lat="45.17015" lon="4.80522">
        <ele>142.19999694824</ele>
        <time>2024-05-21T09:22:41.000Z</time>
      </trkpt>
      <trkpt lat="45.1701" lon="4.80523">
        <ele>142.19999694824</ele>
        <time>2024-05-21T09:22:42.000Z</time>
      </trkpt>
      <trkpt lat="45.17006" lon="4.80524">
        <ele>142.19999694824</ele>
        <time>2024-05-21T09:22:43.000Z</time>
      </trkpt>
      <trkpt lat="45.17002" lon="4.80526">
        <ele>142.39999389648</ele>
        <time>2024-05-21T09:22:44.000Z</time>
      </trkpt>
      <trkpt lat="45.16998" lon="4.80527">
        <ele>142.39999389648</ele>
        <time>2024-05-21T09:22:45.000Z</time>
      </trkpt>
      <trkpt lat="45.16993" lon="4.80528">
        <ele>142.60000610352</ele>
        <time>2024-05-21T09:22:46.000Z</time>
      </trkpt>
      <trkpt lat="45.16989" lon="4.8053">
        <ele>142.80000305176</ele>
        <time>2024-05-21T09:22:47.000Z</time>
      </trkpt>
      <trkpt lat="45.16985" lon="4.80531">
        <ele>143</ele>
        <time>2024-05-21T09:22:48.000Z</time>
      </trkpt>
      <trkpt lat="45.16981" lon="4.80532">
        <ele>143.19999694824</ele>
        <time>2024-05-21T09:22:49.000Z</time>
      </trkpt>
      <trkpt lat="45.16976" lon="4.80533">
        <ele>143.39999389648</ele>
        <time>2024-05-21T09:22:50.000Z</time>
      </trkpt>
      <trkpt lat="45.16972" lon="4.80535">
        <ele>143.60000610352</ele>
        <time>2024-05-21T09:22:51.000Z</time>
      </trkpt>
      <trkpt lat="45.16969" lon="4.80536">
        <ele>143.80000305176</ele>
        <time>2024-05-21T09:22:52.000Z</time>
      </trkpt>
      <trkpt lat="45.16965" lon="4.80537">
        <ele>143.80000305176</ele>
        <time>2024-05-21T09:22:53.000Z</time>
      </trkpt>
      <trkpt lat="45.16961" lon="4.80539">
        <ele>143.80000305176</ele>
        <time>2024-05-21T09:22:54.000Z</time>
      </trkpt>
      <trkpt lat="45.16956" lon="4.8054">
        <ele>144</ele>
        <time>2024-05-21T09:22:55.000Z</time>
      </trkpt>
      <trkpt lat="45.16952" lon="4.80542">
        <ele>144</ele>
        <time>2024-05-21T09:22:56.000Z</time>
      </trkpt>
      <trkpt lat="45.16948" lon="4.80544">
        <ele>144.19999694824</ele>
        <time>2024-05-21T09:22:57.000Z</time>
      </trkpt>
      <trkpt lat="45.16944" lon="4.80546">
        <ele>144.19999694824</ele>
        <time>2024-05-21T09:22:58.000Z</time>
      </trkpt>
      <trkpt lat="45.1694" lon="4.80548">
        <ele>144.19999694824</ele>
        <time>2024-05-21T09:22:59.000Z</time>
      </trkpt>
      <trkpt lat="45.16936" lon="4.8055">
        <ele>144.19999694824</ele>
        <time>2024-05-21T09:23:00.000Z</time>
      </trkpt>
      <trkpt lat="45.16932" lon="4.80552">
        <ele>144.19999694824</ele>
        <time>2024-05-21T09:23:01.000Z</time>
      </trkpt>
      <trkpt lat="45.16929" lon="4.80555">
        <ele>144.39999389648</ele>
        <time>2024-05-21T09:23:02.000Z</time>
      </trkpt>
      <trkpt lat="45.16925" lon="4.80557">
        <ele>144.39999389648</ele>
        <time>2024-05-21T09:23:03.000Z</time>
      </trkpt>
      <trkpt lat="45.16921" lon="4.8056">
        <ele>144.39999389648</ele>
        <time>2024-05-21T09:23:04.000Z</time>
      </trkpt>
      <trkpt lat="45.16917" lon="4.80562">
        <ele>144.39999389648</ele>
        <time>2024-05-21T09:23:05.000Z</time>
      </trkpt>
      <trkpt lat="45.16913" lon="4.80565">
        <ele>144.60000610352</ele>
        <time>2024-05-21T09:23:06.000Z</time>
      </trkpt>
      <trkpt lat="45.1691" lon="4.80568">
        <ele>144.60000610352</ele>
        <time>2024-05-21T09:23:07.000Z</time>
      </trkpt>
      <trkpt lat="45.16906" lon="4.8057">
        <ele>144.60000610352</ele>
        <time>2024-05-21T09:23:08.000Z</time>
      </trkpt>
      <trkpt lat="45.16901" lon="4.80573">
        <ele>144.80000305176</ele>
        <time>2024-05-21T09:23:09.000Z</time>
      </trkpt>
      <trkpt lat="45.16897" lon="4.80576">
        <ele>144.80000305176</ele>
        <time>2024-05-21T09:23:10.000Z</time>
      </trkpt>
      <trkpt lat="45.16893" lon="4.80579">
        <ele>144.80000305176</ele>
        <time>2024-05-21T09:23:11.000Z</time>
      </trkpt>
      <trkpt lat="45.16889" lon="4.80582">
        <ele>144.80000305176</ele>
        <time>2024-05-21T09:23:12.000Z</time>
      </trkpt>
      <trkpt lat="45.16885" lon="4.80586">
        <ele>144.80000305176</ele>
        <time>2024-05-21T09:23:13.000Z</time>
      </trkpt>
      <trkpt lat="45.1688" lon="4.80589">
        <ele>144.80000305176</ele>
        <time>2024-05-21T09:23:14.000Z</time>
      </trkpt>
      <trkpt lat="45.16876" lon="4.80593">
        <ele>144.80000305176</ele>
        <time>2024-05-21T09:23:15.000Z</time>
      </trkpt>
      <trkpt lat="45.16871" lon="4.80597">
        <ele>144.80000305176</ele>
        <time>2024-05-21T09:23:16.000Z</time>
      </trkpt>
      <trkpt lat="45.16867" lon="4.806">
        <ele>144.80000305176</ele>
        <time>2024-05-21T09:23:17.000Z</time>
      </trkpt>
      <trkpt lat="45.16863" lon="4.80603">
        <ele>144.80000305176</ele>
        <time>2024-05-21T09:23:18.000Z</time>
      </trkpt>
      <trkpt lat="45.16859" lon="4.80606">
        <ele>144.80000305176</ele>
        <time>2024-05-21T09:23:19.000Z</time>
      </trkpt>
      <trkpt lat="45.16855" lon="4.80608">
        <ele>144.80000305176</ele>
        <time>2024-05-21T09:23:20.000Z</time>
      </trkpt>
      <trkpt lat="45.16851" lon="4.80609">
        <ele>144.80000305176</ele>
        <time>2024-05-21T09:23:21.000Z</time>
      </trkpt>
      <trkpt lat="45.16847" lon="4.80608">
        <ele>144.80000305176</ele>
        <time>2024-05-21T09:23:22.000Z</time>
      </trkpt>
      <trkpt lat="45.16845" lon="4.80605">
        <ele>144.80000305176</ele>
        <time>2024-05-21T09:23:23.000Z</time>
      </trkpt>
      <trkpt lat="45.16844" lon="4.80601">
        <ele>144.80000305176</ele>
        <time>2024-05-21T09:23:24.000Z</time>
      </trkpt>
      <trkpt lat="45.16842" lon="4.80597">
        <ele>145</ele>
        <time>2024-05-21T09:23:25.000Z</time>
      </trkpt>
      <trkpt lat="45.1684" lon="4.80592">
        <ele>145</ele>
        <time>2024-05-21T09:23:26.000Z</time>
      </trkpt>
      <trkpt lat="45.16837" lon="4.80589">
        <ele>145</ele>
        <time>2024-05-21T09:23:27.000Z</time>
      </trkpt>
      <trkpt lat="45.16833" lon="4.80587">
        <ele>145</ele>
        <time>2024-05-21T09:23:28.000Z</time>
      </trkpt>
      <trkpt lat="45.1683" lon="4.80586">
        <ele>145</ele>
        <time>2024-05-21T09:23:29.000Z</time>
      </trkpt>
      <trkpt lat="45.16826" lon="4.80587">
        <ele>145</ele>
        <time>2024-05-21T09:23:30.000Z</time>
      </trkpt>
      <trkpt lat="45.16823" lon="4.80588">
        <ele>145</ele>
        <time>2024-05-21T09:23:31.000Z</time>
      </trkpt>
      <trkpt lat="45.1682" lon="4.80587">
        <ele>145.39999389648</ele>
        <time>2024-05-21T09:23:32.000Z</time>
      </trkpt>
      <trkpt lat="45.16818" lon="4.80587">
        <ele>145.60000610352</ele>
        <time>2024-05-21T09:23:33.000Z</time>
      </trkpt>
      <trkpt lat="45.16815" lon="4.80587">
        <ele>146</ele>
        <time>2024-05-21T09:23:34.000Z</time>
      </trkpt>
      <trkpt lat="45.16813" lon="4.80587">
        <ele>146.60000610352</ele>
        <time>2024-05-21T09:23:35.000Z</time>
      </trkpt>
      <trkpt lat="45.1681" lon="4.80588">
        <ele>147</ele>
        <time>2024-05-21T09:23:36.000Z</time>
      </trkpt>
      <trkpt lat="45.16807" lon="4.80589">
        <ele>147.19999694824</ele>
        <time>2024-05-21T09:23:37.000Z</time>
      </trkpt>
      <trkpt lat="45.16804" lon="4.80591">
        <ele>147.39999389648</ele>
        <time>2024-05-21T09:23:38.000Z</time>
      </trkpt>
      <trkpt lat="45.16801" lon="4.80593">
        <ele>147.39999389648</ele>
        <time>2024-05-21T09:23:39.000Z</time>
      </trkpt>
      <trkpt lat="45.16797" lon="4.80595">
        <ele>147.39999389648</ele>
        <time>2024-05-21T09:23:40.000Z</time>
      </trkpt>
      <trkpt lat="45.16793" lon="4.80597">
        <ele>147.39999389648</ele>
        <time>2024-05-21T09:23:41.000Z</time>
      </trkpt>
      <trkpt lat="45.16789" lon="4.806">
        <ele>147.39999389648</ele>
        <time>2024-05-21T09:23:42.000Z</time>
      </trkpt>
      <trkpt lat="45.16785" lon="4.80603">
        <ele>147.19999694824</ele>
        <time>2024-05-21T09:23:43.000Z</time>
      </trkpt>
      <trkpt lat="45.16782" lon="4.80605">
        <ele>147.19999694824</ele>
        <time>2024-05-21T09:23:44.000Z</time>
      </trkpt>
      <trkpt lat="45.16777" lon="4.80608">
        <ele>147.19999694824</ele>
        <time>2024-05-21T09:23:45.000Z</time>
      </trkpt>
      <trkpt lat="45.16773" lon="4.80612">
        <ele>147.19999694824</ele>
        <time>2024-05-21T09:23:46.000Z</time>
      </trkpt>
      <trkpt lat="45.1677" lon="4.80616">
        <ele>147.19999694824</ele>
        <time>2024-05-21T09:23:47.000Z</time>
      </trkpt>
      <trkpt lat="45.16767" lon="4.80621">
        <ele>147.19999694824</ele>
        <time>2024-05-21T09:23:48.000Z</time>
      </trkpt>
      <trkpt lat="45.16764" lon="4.80626">
        <ele>147.19999694824</ele>
        <time>2024-05-21T09:23:49.000Z</time>
      </trkpt>
      <trkpt lat="45.16761" lon="4.80632">
        <ele>147.19999694824</ele>
        <time>2024-05-21T09:23:50.000Z</time>
      </trkpt>
      <trkpt lat="45.16758" lon="4.80638">
        <ele>147</ele>
        <time>2024-05-21T09:23:51.000Z</time>
      </trkpt>
      <trkpt lat="45.16755" lon="4.80643">
        <ele>147</ele>
        <time>2024-05-21T09:23:52.000Z</time>
      </trkpt>
      <trkpt lat="45.16751" lon="4.80647">
        <ele>147</ele>
        <time>2024-05-21T09:23:53.000Z</time>
      </trkpt>
      <trkpt lat="45.16747" lon="4.8065">
        <ele>147</ele>
        <time>2024-05-21T09:23:54.000Z</time>
      </trkpt>
      <trkpt lat="45.16743" lon="4.80653">
        <ele>147</ele>
        <time>2024-05-21T09:23:55.000Z</time>
      </trkpt>
      <trkpt lat="45.16739" lon="4.80655">
        <ele>147.19999694824</ele>
        <time>2024-05-21T09:23:56.000Z</time>
      </trkpt>
      <trkpt lat="45.16735" lon="4.80657">
        <ele>147.19999694824</ele>
        <time>2024-05-21T09:23:57.000Z</time>
      </trkpt>
      <trkpt lat="45.16731" lon="4.8066">
        <ele>147.39999389648</ele>
        <time>2024-05-21T09:23:58.000Z</time>
      </trkpt>
      <trkpt lat="45.16727" lon="4.80663">
        <ele>147.60000610352</ele>
        <time>2024-05-21T09:23:59.000Z</time>
      </trkpt>
      <trkpt lat="45.16723" lon="4.80666">
        <ele>147.80000305176</ele>
        <time>2024-05-21T09:24:00.000Z</time>
      </trkpt>
      <trkpt lat="45.16718" lon="4.8067">
        <ele>147.80000305176</ele>
        <time>2024-05-21T09:24:01.000Z</time>
      </trkpt>
      <trkpt lat="45.16714" lon="4.80673">
        <ele>147.80000305176</ele>
        <time>2024-05-21T09:24:02.000Z</time>
      </trkpt>
      <trkpt lat="45.1671" lon="4.80675">
        <ele>147.80000305176</ele>
        <time>2024-05-21T09:24:03.000Z</time>
      </trkpt>
      <trkpt lat="45.16706" lon="4.80678">
        <ele>147.80000305176</ele>
        <time>2024-05-21T09:24:04.000Z</time>
      </trkpt>
      <trkpt lat="45.16702" lon="4.80681">
        <ele>147.80000305176</ele>
        <time>2024-05-21T09:24:05.000Z</time>
      </trkpt>
      <trkpt lat="45.16697" lon="4.80684">
        <ele>147.80000305176</ele>
        <time>2024-05-21T09:24:06.000Z</time>
      </trkpt>
      <trkpt lat="45.16693" lon="4.80686">
        <ele>148</ele>
        <time>2024-05-21T09:24:07.000Z</time>
      </trkpt>
      <trkpt lat="45.16689" lon="4.80689">
        <ele>148.19999694824</ele>
        <time>2024-05-21T09:24:08.000Z</time>
      </trkpt>
      <trkpt lat="45.16685" lon="4.80692">
        <ele>148.19999694824</ele>
        <time>2024-05-21T09:24:09.000Z</time>
      </trkpt>
      <trkpt lat="45.16681" lon="4.80695">
        <ele>148.39999389648</ele>
        <time>2024-05-21T09:24:10.000Z</time>
      </trkpt>
      <trkpt lat="45.16678" lon="4.80698">
        <ele>148.39999389648</ele>
        <time>2024-05-21T09:24:11.000Z</time>
      </trkpt>
      <trkpt lat="45.16674" lon="4.807">
        <ele>148.60000610352</ele>
        <time>2024-05-21T09:24:12.000Z</time>
      </trkpt>
      <trkpt lat="45.1667" lon="4.80703">
        <ele>148.80000305176</ele>
        <time>2024-05-21T09:24:13.000Z</time>
      </trkpt>
      <trkpt lat="45.16666" lon="4.80706">
        <ele>148.80000305176</ele>
        <time>2024-05-21T09:24:14.000Z</time>
      </trkpt>
      <trkpt lat="45.16662" lon="4.80709">
        <ele>149.19999694824</ele>
        <time>2024-05-21T09:24:15.000Z</time>
      </trkpt>
      <trkpt lat="45.16658" lon="4.80712">
        <ele>149.19999694824</ele>
        <time>2024-05-21T09:24:16.000Z</time>
      </trkpt>
      <trkpt lat="45.16654" lon="4.80715">
        <ele>149.19999694824</ele>
        <time>2024-05-21T09:24:17.000Z</time>
      </trkpt>
      <trkpt lat="45.1665" lon="4.80718">
        <ele>149.19999694824</ele>
        <time>2024-05-21T09:24:18.000Z</time>
      </trkpt>
      <trkpt lat="45.16645" lon="4.80722">
        <ele>149.19999694824</ele>
        <time>2024-05-21T09:24:19.000Z</time>
      </trkpt>
      <trkpt lat="45.16641" lon="4.80725">
        <ele>149</ele>
        <time>2024-05-21T09:24:20.000Z</time>
      </trkpt>
      <trkpt lat="45.16636" lon="4.80729">
        <ele>148.80000305176</ele>
        <time>2024-05-21T09:24:21.000Z</time>
      </trkpt>
      <trkpt lat="45.16631" lon="4.80732">
        <ele>148.80000305176</ele>
        <time>2024-05-21T09:24:22.000Z</time>
      </trkpt>
      <trkpt lat="45.16627" lon="4.80737">
        <ele>148.60000610352</ele>
        <time>2024-05-21T09:24:23.000Z</time>
      </trkpt>
      <trkpt lat="45.16622" lon="4.8074">
        <ele>148.60000610352</ele>
        <time>2024-05-21T09:24:24.000Z</time>
      </trkpt>
      <trkpt lat="45.16618" lon="4.80744">
        <ele>148.39999389648</ele>
        <time>2024-05-21T09:24:25.000Z</time>
      </trkpt>
      <trkpt lat="45.16613" lon="4.80748">
        <ele>148.19999694824</ele>
        <time>2024-05-21T09:24:26.000Z</time>
      </trkpt>
      <trkpt lat="45.16609" lon="4.80751">
        <ele>148.19999694824</ele>
        <time>2024-05-21T09:24:27.000Z</time>
      </trkpt>
      <trkpt lat="45.16604" lon="4.80754">
        <ele>148.19999694824</ele>
        <time>2024-05-21T09:24:28.000Z</time>
      </trkpt>
      <trkpt lat="45.16599" lon="4.80756">
        <ele>148</ele>
        <time>2024-05-21T09:24:29.000Z</time>
      </trkpt>
      <trkpt lat="45.16595" lon="4.80754">
        <ele>148</ele>
        <time>2024-05-21T09:24:30.000Z</time>
      </trkpt>
      <trkpt lat="45.16593" lon="4.80751">
        <ele>148</ele>
        <time>2024-05-21T09:24:31.000Z</time>
      </trkpt>
      <trkpt lat="45.16591" lon="4.80747">
        <ele>148</ele>
        <time>2024-05-21T09:24:32.000Z</time>
      </trkpt>
      <trkpt lat="45.16591" lon="4.80743">
        <ele>148.19999694824</ele>
        <time>2024-05-21T09:24:33.000Z</time>
      </trkpt>
      <trkpt lat="45.16591" lon="4.8074">
        <ele>148.19999694824</ele>
        <time>2024-05-21T09:24:34.000Z</time>
      </trkpt>
      <trkpt lat="45.16592" lon="4.80738">
        <ele>148.60000610352</ele>
        <time>2024-05-21T09:24:35.000Z</time>
      </trkpt>
      <trkpt lat="45.16592" lon="4.80735">
        <ele>149.19999694824</ele>
        <time>2024-05-21T09:24:36.000Z</time>
      </trkpt>
      <trkpt lat="45.16593" lon="4.80733">
        <ele>149.60000610352</ele>
        <time>2024-05-21T09:24:37.000Z</time>
      </trkpt>
      <trkpt lat="45.16593" lon="4.8073">
        <ele>150</ele>
        <time>2024-05-21T09:24:38.000Z</time>
      </trkpt>
      <trkpt lat="45.16592" lon="4.80728">
        <ele>150.39999389648</ele>
        <time>2024-05-21T09:24:39.000Z</time>
      </trkpt>
      <trkpt lat="45.16591" lon="4.80727">
        <ele>150.80000305176</ele>
        <time>2024-05-21T09:24:40.000Z</time>
      </trkpt>
      <trkpt lat="45.16589" lon="4.80727">
        <ele>151.39999389648</ele>
        <time>2024-05-21T09:24:41.000Z</time>
      </trkpt>
      <trkpt lat="45.16587" lon="4.80726">
        <ele>151.80000305176</ele>
        <time>2024-05-21T09:24:42.000Z</time>
      </trkpt>
      <trkpt lat="45.16585" lon="4.80726">
        <ele>152.19999694824</ele>
        <time>2024-05-21T09:24:43.000Z</time>
      </trkpt>
      <trkpt lat="45.16583" lon="4.80725">
        <ele>152.60000610352</ele>
        <time>2024-05-21T09:24:44.000Z</time>
      </trkpt>
      <trkpt lat="45.16582" lon="4.80724">
        <ele>153</ele>
        <time>2024-05-21T09:24:45.000Z</time>
      </trkpt>
      <trkpt lat="45.16581" lon="4.80722">
        <ele>153.39999389648</ele>
        <time>2024-05-21T09:24:46.000Z</time>
      </trkpt>
      <trkpt lat="45.16579" lon="4.80721">
        <ele>153.80000305176</ele>
        <time>2024-05-21T09:24:47.000Z</time>
      </trkpt>
      <trkpt lat="45.16578" lon="4.8072">
        <ele>154.19999694824</ele>
        <time>2024-05-21T09:24:48.000Z</time>
      </trkpt>
      <trkpt lat="45.16575" lon="4.80719">
        <ele>154.60000610352</ele>
        <time>2024-05-21T09:24:49.000Z</time>
      </trkpt>
      <trkpt lat="45.16573" lon="4.80718">
        <ele>155</ele>
        <time>2024-05-21T09:24:50.000Z</time>
      </trkpt>
      <trkpt lat="45.16572" lon="4.80717">
        <ele>155.19999694824</ele>
        <time>2024-05-21T09:24:51.000Z</time>
      </trkpt>
      <trkpt lat="45.1657" lon="4.80717">
        <ele>155.60000610352</ele>
        <time>2024-05-21T09:24:52.000Z</time>
      </trkpt>
      <trkpt lat="45.16569" lon="4.80717">
        <ele>156</ele>
        <time>2024-05-21T09:24:53.000Z</time>
      </trkpt>
      <trkpt lat="45.16567" lon="4.80718">
        <ele>156.19999694824</ele>
        <time>2024-05-21T09:24:54.000Z</time>
      </trkpt>
      <trkpt lat="45.16565" lon="4.80718">
        <ele>156.60000610352</ele>
        <time>2024-05-21T09:24:55.000Z</time>
      </trkpt>
      <trkpt lat="45.16563" lon="4.80719">
        <ele>156.80000305176</ele>
        <time>2024-05-21T09:24:56.000Z</time>
      </trkpt>
      <trkpt lat="45.16562" lon="4.80719">
        <ele>157.19999694824</ele>
        <time>2024-05-21T09:24:57.000Z</time>
      </trkpt>
      <trkpt lat="45.16561" lon="4.8072">
        <ele>157.60000610352</ele>
        <time>2024-05-21T09:24:58.000Z</time>
      </trkpt>
      <trkpt lat="45.16559" lon="4.80721">
        <ele>157.80000305176</ele>
        <time>2024-05-21T09:24:59.000Z</time>
      </trkpt>
      <trkpt lat="45.16558" lon="4.80723">
        <ele>158.19999694824</ele>
        <time>2024-05-21T09:25:00.000Z</time>
      </trkpt>
      <trkpt lat="45.16557" lon="4.80724">
        <ele>158.60000610352</ele>
        <time>2024-05-21T09:25:01.000Z</time>
      </trkpt>
      <trkpt lat="45.16556" lon="4.80727">
        <ele>158.60000610352</ele>
        <time>2024-05-21T09:25:02.000Z</time>
      </trkpt>
      <trkpt lat="45.16555" lon="4.8073">
        <ele>158.80000305176</ele>
        <time>2024-05-21T09:25:03.000Z</time>
      </trkpt>
      <trkpt lat="45.16554" lon="4.80733">
        <ele>158.80000305176</ele>
        <time>2024-05-21T09:25:04.000Z</time>
      </trkpt>
      <trkpt lat="45.16554" lon="4.80735">
        <ele>159</ele>
        <time>2024-05-21T09:25:05.000Z</time>
      </trkpt>
      <trkpt lat="45.16553" lon="4.80738">
        <ele>159</ele>
        <time>2024-05-21T09:25:06.000Z</time>
      </trkpt>
      <trkpt lat="45.16553" lon="4.8074">
        <ele>159.39999389648</ele>
        <time>2024-05-21T09:25:07.000Z</time>
      </trkpt>
      <trkpt lat="45.16552" lon="4.80743">
        <ele>159.60000610352</ele>
        <time>2024-05-21T09:25:08.000Z</time>
      </trkpt>
      <trkpt lat="45.16551" lon="4.80744">
        <ele>160</ele>
        <time>2024-05-21T09:25:09.000Z</time>
      </trkpt>
      <trkpt lat="45.1655" lon="4.80746">
        <ele>160.19999694824</ele>
        <time>2024-05-21T09:25:10.000Z</time>
      </trkpt>
      <trkpt lat="45.16549" lon="4.80749">
        <ele>160.60000610352</ele>
        <time>2024-05-21T09:25:11.000Z</time>
      </trkpt>
      <trkpt lat="45.16547" lon="4.8075">
        <ele>160.80000305176</ele>
        <time>2024-05-21T09:25:12.000Z</time>
      </trkpt>
      <trkpt lat="45.16545" lon="4.80751">
        <ele>161.19999694824</ele>
        <time>2024-05-21T09:25:13.000Z</time>
      </trkpt>
      <trkpt lat="45.16543" lon="4.80751">
        <ele>161.39999389648</ele>
        <time>2024-05-21T09:25:14.000Z</time>
      </trkpt>
      <trkpt lat="45.16541" lon="4.80751">
        <ele>161.60000610352</ele>
        <time>2024-05-21T09:25:15.000Z</time>
      </trkpt>
      <trkpt lat="45.16539" lon="4.80751">
        <ele>161.80000305176</ele>
        <time>2024-05-21T09:25:16.000Z</time>
      </trkpt>
      <trkpt lat="45.16537" lon="4.80752">
        <ele>162</ele>
        <time>2024-05-21T09:25:17.000Z</time>
      </trkpt>
      <trkpt lat="45.16535" lon="4.80752">
        <ele>162.19999694824</ele>
        <time>2024-05-21T09:25:18.000Z</time>
      </trkpt>
      <trkpt lat="45.16533" lon="4.80752">
        <ele>162.39999389648</ele>
        <time>2024-05-21T09:25:19.000Z</time>
      </trkpt>
      <trkpt lat="45.16531" lon="4.80752">
        <ele>162.60000610352</ele>
        <time>2024-05-21T09:25:20.000Z</time>
      </trkpt>
      <trkpt lat="45.16529" lon="4.80752">
        <ele>163</ele>
        <time>2024-05-21T09:25:21.000Z</time>
      </trkpt>
      <trkpt lat="45.16527" lon="4.80752">
        <ele>163.19999694824</ele>
        <time>2024-05-21T09:25:22.000Z</time>
      </trkpt>
      <trkpt lat="45.16525" lon="4.80752">
        <ele>163.39999389648</ele>
        <time>2024-05-21T09:25:23.000Z</time>
      </trkpt>
      <trkpt lat="45.16524" lon="4.80751">
        <ele>163.60000610352</ele>
        <time>2024-05-21T09:25:24.000Z</time>
      </trkpt>
      <trkpt lat="45.16522" lon="4.80751">
        <ele>163.80000305176</ele>
        <time>2024-05-21T09:25:25.000Z</time>
      </trkpt>
      <trkpt lat="45.1652" lon="4.80751">
        <ele>164</ele>
        <time>2024-05-21T09:25:26.000Z</time>
      </trkpt>
      <trkpt lat="45.16518" lon="4.80751">
        <ele>164.19999694824</ele>
        <time>2024-05-21T09:25:27.000Z</time>
      </trkpt>
      <trkpt lat="45.16516" lon="4.80751">
        <ele>164.39999389648</ele>
        <time>2024-05-21T09:25:28.000Z</time>
      </trkpt>
      <trkpt lat="45.16513" lon="4.80751">
        <ele>164.60000610352</ele>
        <time>2024-05-21T09:25:29.000Z</time>
      </trkpt>
      <trkpt lat="45.16511" lon="4.80752">
        <ele>164.60000610352</ele>
        <time>2024-05-21T09:25:30.000Z</time>
      </trkpt>
      <trkpt lat="45.16508" lon="4.80752">
        <ele>164.80000305176</ele>
        <time>2024-05-21T09:25:31.000Z</time>
      </trkpt>
      <trkpt lat="45.16505" lon="4.80752">
        <ele>164.80000305176</ele>
        <time>2024-05-21T09:25:32.000Z</time>
      </trkpt>
      <trkpt lat="45.16502" lon="4.80752">
        <ele>164.80000305176</ele>
        <time>2024-05-21T09:25:33.000Z</time>
      </trkpt>
      <trkpt lat="45.16498" lon="4.80753">
        <ele>164.80000305176</ele>
        <time>2024-05-21T09:25:34.000Z</time>
      </trkpt>
      <trkpt lat="45.16493" lon="4.80753">
        <ele>164.80000305176</ele>
        <time>2024-05-21T09:25:35.000Z</time>
      </trkpt>
      <trkpt lat="45.16488" lon="4.80754">
        <ele>164.60000610352</ele>
        <time>2024-05-21T09:25:36.000Z</time>
      </trkpt>
      <trkpt lat="45.16483" lon="4.80755">
        <ele>164</ele>
        <time>2024-05-21T09:25:37.000Z</time>
      </trkpt>
      <trkpt lat="45.16478" lon="4.80757">
        <ele>163.39999389648</ele>
        <time>2024-05-21T09:25:38.000Z</time>
      </trkpt>
      <trkpt lat="45.16473" lon="4.80759">
        <ele>162.60000610352</ele>
        <time>2024-05-21T09:25:39.000Z</time>
      </trkpt>
      <trkpt lat="45.16467" lon="4.80761">
        <ele>162.19999694824</ele>
        <time>2024-05-21T09:25:40.000Z</time>
      </trkpt>
      <trkpt lat="45.16462" lon="4.80764">
        <ele>161.60000610352</ele>
        <time>2024-05-21T09:25:41.000Z</time>
      </trkpt>
      <trkpt lat="45.16457" lon="4.80768">
        <ele>161</ele>
        <time>2024-05-21T09:25:42.000Z</time>
      </trkpt>
      <trkpt lat="45.16452" lon="4.80771">
        <ele>160.19999694824</ele>
        <time>2024-05-21T09:25:43.000Z</time>
      </trkpt>
      <trkpt lat="45.16447" lon="4.80773">
        <ele>159.39999389648</ele>
        <time>2024-05-21T09:25:44.000Z</time>
      </trkpt>
      <trkpt lat="45.16442" lon="4.80775">
        <ele>158.80000305176</ele>
        <time>2024-05-21T09:25:45.000Z</time>
      </trkpt>
      <trkpt lat="45.16436" lon="4.80777">
        <ele>158</ele>
        <time>2024-05-21T09:25:46.000Z</time>
      </trkpt>
      <trkpt lat="45.16431" lon="4.80778">
        <ele>157.80000305176</ele>
        <time>2024-05-21T09:25:47.000Z</time>
      </trkpt>
      <trkpt lat="45.16425" lon="4.8078">
        <ele>157</ele>
        <time>2024-05-21T09:25:48.000Z</time>
      </trkpt>
      <trkpt lat="45.1642" lon="4.80783">
        <ele>156.60000610352</ele>
        <time>2024-05-21T09:25:49.000Z</time>
      </trkpt>
      <trkpt lat="45.16415" lon="4.80785">
        <ele>155.80000305176</ele>
        <time>2024-05-21T09:25:50.000Z</time>
      </trkpt>
      <trkpt lat="45.1641" lon="4.80787">
        <ele>155.19999694824</ele>
        <time>2024-05-21T09:25:51.000Z</time>
      </trkpt>
      <trkpt lat="45.16405" lon="4.80791">
        <ele>154.19999694824</ele>
        <time>2024-05-21T09:25:52.000Z</time>
      </trkpt>
      <trkpt lat="45.16401" lon="4.80795">
        <ele>153.60000610352</ele>
        <time>2024-05-21T09:25:53.000Z</time>
      </trkpt>
      <trkpt lat="45.16398" lon="4.80802">
        <ele>152.60000610352</ele>
        <time>2024-05-21T09:25:54.000Z</time>
      </trkpt>
      <trkpt lat="45.16396" lon="4.80809">
        <ele>151.60000610352</ele>
        <time>2024-05-21T09:25:55.000Z</time>
      </trkpt>
      <trkpt lat="45.16395" lon="4.80817">
        <ele>150.60000610352</ele>
        <time>2024-05-21T09:25:56.000Z</time>
      </trkpt>
      <trkpt lat="45.16395" lon="4.80825">
        <ele>149.60000610352</ele>
        <time>2024-05-21T09:25:57.000Z</time>
      </trkpt>
      <trkpt lat="45.16397" lon="4.80834">
        <ele>148.39999389648</ele>
        <time>2024-05-21T09:25:58.000Z</time>
      </trkpt>
      <trkpt lat="45.16399" lon="4.80842">
        <ele>148</ele>
        <time>2024-05-21T09:25:59.000Z</time>
      </trkpt>
      <trkpt lat="45.16399" lon="4.80851">
        <ele>147.19999694824</ele>
        <time>2024-05-21T09:26:00.000Z</time>
      </trkpt>
      <trkpt lat="45.16398" lon="4.8086">
        <ele>146.19999694824</ele>
        <time>2024-05-21T09:26:01.000Z</time>
      </trkpt>
      <trkpt lat="45.16396" lon="4.80868">
        <ele>145.80000305176</ele>
        <time>2024-05-21T09:26:02.000Z</time>
      </trkpt>
      <trkpt lat="45.16392" lon="4.80876">
        <ele>145.19999694824</ele>
        <time>2024-05-21T09:26:03.000Z</time>
      </trkpt>
      <trkpt lat="45.16387" lon="4.80882">
        <ele>144.80000305176</ele>
        <time>2024-05-21T09:26:04.000Z</time>
      </trkpt>
      <trkpt lat="45.16382" lon="4.80887">
        <ele>144</ele>
        <time>2024-05-21T09:26:05.000Z</time>
      </trkpt>
      <trkpt lat="45.16376" lon="4.80891">
        <ele>143.39999389648</ele>
        <time>2024-05-21T09:26:06.000Z</time>
      </trkpt>
      <trkpt lat="45.16371" lon="4.80894">
        <ele>143.19999694824</ele>
        <time>2024-05-21T09:26:07.000Z</time>
      </trkpt>
      <trkpt lat="45.16366" lon="4.80897">
        <ele>142.80000305176</ele>
        <time>2024-05-21T09:26:08.000Z</time>
      </trkpt>
      <trkpt lat="45.16362" lon="4.80899">
        <ele>142.60000610352</ele>
        <time>2024-05-21T09:26:09.000Z</time>
      </trkpt>
      <trkpt lat="45.16359" lon="4.80903">
        <ele>142.60000610352</ele>
        <time>2024-05-21T09:26:10.000Z</time>
      </trkpt>
      <trkpt lat="45.16357" lon="4.80908">
        <ele>142.39999389648</ele>
        <time>2024-05-21T09:26:11.000Z</time>
      </trkpt>
      <trkpt lat="45.16356" lon="4.80914">
        <ele>142.39999389648</ele>
        <time>2024-05-21T09:26:12.000Z</time>
      </trkpt>
      <trkpt lat="45.16357" lon="4.8092">
        <ele>142.60000610352</ele>
        <time>2024-05-21T09:26:13.000Z</time>
      </trkpt>
      <trkpt lat="45.16359" lon="4.80925">
        <ele>142.39999389648</ele>
        <time>2024-05-21T09:26:14.000Z</time>
      </trkpt>
      <trkpt lat="45.1636" lon="4.80931">
        <ele>142.19999694824</ele>
        <time>2024-05-21T09:26:15.000Z</time>
      </trkpt>
      <trkpt lat="45.16361" lon="4.80936">
        <ele>141.60000610352</ele>
        <time>2024-05-21T09:26:16.000Z</time>
      </trkpt>
      <trkpt lat="45.16362" lon="4.80941">
        <ele>141.19999694824</ele>
        <time>2024-05-21T09:26:17.000Z</time>
      </trkpt>
      <trkpt lat="45.16362" lon="4.80945">
        <ele>140.80000305176</ele>
        <time>2024-05-21T09:26:18.000Z</time>
      </trkpt>
      <trkpt lat="45.16362" lon="4.80948">
        <ele>140.80000305176</ele>
        <time>2024-05-21T09:26:19.000Z</time>
      </trkpt>
      <trkpt lat="45.1636" lon="4.80951">
        <ele>140.80000305176</ele>
        <time>2024-05-21T09:26:20.000Z</time>
      </trkpt>
      <trkpt lat="45.16358" lon="4.80952">
        <ele>140.80000305176</ele>
        <time>2024-05-21T09:26:21.000Z</time>
      </trkpt>
      <trkpt lat="45.16355" lon="4.80955">
        <ele>141</ele>
        <time>2024-05-21T09:26:22.000Z</time>
      </trkpt>
      <trkpt lat="45.16351" lon="4.80956">
        <ele>141</ele>
        <time>2024-05-21T09:26:23.000Z</time>
      </trkpt>
      <trkpt lat="45.16348" lon="4.80958">
        <ele>141</ele>
        <time>2024-05-21T09:26:24.000Z</time>
      </trkpt>
      <trkpt lat="45.16344" lon="4.8096">
        <ele>141</ele>
        <time>2024-05-21T09:26:25.000Z</time>
      </trkpt>
      <trkpt lat="45.1634" lon="4.80962">
        <ele>141</ele>
        <time>2024-05-21T09:26:26.000Z</time>
      </trkpt>
      <trkpt lat="45.16336" lon="4.80965">
        <ele>141</ele>
        <time>2024-05-21T09:26:27.000Z</time>
      </trkpt>
      <trkpt lat="45.16332" lon="4.80967">
        <ele>141</ele>
        <time>2024-05-21T09:26:28.000Z</time>
      </trkpt>
      <trkpt lat="45.16328" lon="4.8097">
        <ele>140.80000305176</ele>
        <time>2024-05-21T09:26:29.000Z</time>
      </trkpt>
      <trkpt lat="45.16323" lon="4.80972">
        <ele>140.80000305176</ele>
        <time>2024-05-21T09:26:30.000Z</time>
      </trkpt>
      <trkpt lat="45.16319" lon="4.80975">
        <ele>140.80000305176</ele>
        <time>2024-05-21T09:26:31.000Z</time>
      </trkpt>
      <trkpt lat="45.16314" lon="4.80978">
        <ele>140.60000610352</ele>
        <time>2024-05-21T09:26:32.000Z</time>
      </trkpt>
      <trkpt lat="45.16309" lon="4.80981">
        <ele>140.60000610352</ele>
        <time>2024-05-21T09:26:33.000Z</time>
      </trkpt>
      <trkpt lat="45.16304" lon="4.80984">
        <ele>140.60000610352</ele>
        <time>2024-05-21T09:26:34.000Z</time>
      </trkpt>
      <trkpt lat="45.16299" lon="4.80986">
        <ele>140.39999389648</ele>
        <time>2024-05-21T09:26:35.000Z</time>
      </trkpt>
      <trkpt lat="45.16294" lon="4.80989">
        <ele>140.19999694824</ele>
        <time>2024-05-21T09:26:36.000Z</time>
      </trkpt>
      <trkpt lat="45.16288" lon="4.80992">
        <ele>140.19999694824</ele>
        <time>2024-05-21T09:26:37.000Z</time>
      </trkpt>
      <trkpt lat="45.16283" lon="4.80995">
        <ele>140</ele>
        <time>2024-05-21T09:26:38.000Z</time>
      </trkpt>
      <trkpt lat="45.16278" lon="4.80999">
        <ele>140</ele>
        <time>2024-05-21T09:26:39.000Z</time>
      </trkpt>
      <trkpt lat="45.16272" lon="4.81003">
        <ele>139.80000305176</ele>
        <time>2024-05-21T09:26:40.000Z</time>
      </trkpt>
      <trkpt lat="45.16268" lon="4.81006">
        <ele>139.80000305176</ele>
        <time>2024-05-21T09:26:41.000Z</time>
      </trkpt>
      <trkpt lat="45.16263" lon="4.8101">
        <ele>139.60000610352</ele>
        <time>2024-05-21T09:26:42.000Z</time>
      </trkpt>
      <trkpt lat="45.16259" lon="4.81014">
        <ele>139.39999389648</ele>
        <time>2024-05-21T09:26:43.000Z</time>
      </trkpt>
      <trkpt lat="45.16254" lon="4.81019">
        <ele>139.39999389648</ele>
        <time>2024-05-21T09:26:44.000Z</time>
      </trkpt>
      <trkpt lat="45.1625" lon="4.81025">
        <ele>139.39999389648</ele>
        <time>2024-05-21T09:26:45.000Z</time>
      </trkpt>
      <trkpt lat="45.16245" lon="4.81031">
        <ele>139.39999389648</ele>
        <time>2024-05-21T09:26:46.000Z</time>
      </trkpt>
      <trkpt lat="45.16242" lon="4.81038">
        <ele>139.19999694824</ele>
        <time>2024-05-21T09:26:47.000Z</time>
      </trkpt>
      <trkpt lat="45.16238" lon="4.81045">
        <ele>139</ele>
        <time>2024-05-21T09:26:48.000Z</time>
      </trkpt>
      <trkpt lat="45.16234" lon="4.81052">
        <ele>138.80000305176</ele>
        <time>2024-05-21T09:26:49.000Z</time>
      </trkpt>
      <trkpt lat="45.1623" lon="4.81058">
        <ele>138.60000610352</ele>
        <time>2024-05-21T09:26:50.000Z</time>
      </trkpt>
      <trkpt lat="45.16226" lon="4.81065">
        <ele>138.39999389648</ele>
        <time>2024-05-21T09:26:51.000Z</time>
      </trkpt>
      <trkpt lat="45.16223" lon="4.81072">
        <ele>138.19999694824</ele>
        <time>2024-05-21T09:26:52.000Z</time>
      </trkpt>
      <trkpt lat="45.16219" lon="4.81078">
        <ele>138.19999694824</ele>
        <time>2024-05-21T09:26:53.000Z</time>
      </trkpt>
      <trkpt lat="45.16215" lon="4.81084">
        <ele>138.19999694824</ele>
        <time>2024-05-21T09:26:54.000Z</time>
      </trkpt>
      <trkpt lat="45.1621" lon="4.81088">
        <ele>138</ele>
        <time>2024-05-21T09:26:55.000Z</time>
      </trkpt>
      <trkpt lat="45.16205" lon="4.81092">
        <ele>137.80000305176</ele>
        <time>2024-05-21T09:26:56.000Z</time>
      </trkpt>
      <trkpt lat="45.162" lon="4.81095">
        <ele>137.80000305176</ele>
        <time>2024-05-21T09:26:57.000Z</time>
      </trkpt>
      <trkpt lat="45.16196" lon="4.81098">
        <ele>137.80000305176</ele>
        <time>2024-05-21T09:26:58.000Z</time>
      </trkpt>
      <trkpt lat="45.16191" lon="4.81102">
        <ele>137.80000305176</ele>
        <time>2024-05-21T09:26:59.000Z</time>
      </trkpt>
      <trkpt lat="45.16187" lon="4.81107">
        <ele>137.60000610352</ele>
        <time>2024-05-21T09:27:00.000Z</time>
      </trkpt>
      <trkpt lat="45.16184" lon="4.81112">
        <ele>137.60000610352</ele>
        <time>2024-05-21T09:27:01.000Z</time>
      </trkpt>
      <trkpt lat="45.16181" lon="4.81117">
        <ele>137.60000610352</ele>
        <time>2024-05-21T09:27:02.000Z</time>
      </trkpt>
      <trkpt lat="45.16177" lon="4.81122">
        <ele>137.80000305176</ele>
        <time>2024-05-21T09:27:03.000Z</time>
      </trkpt>
      <trkpt lat="45.16173" lon="4.81125">
        <ele>137.80000305176</ele>
        <time>2024-05-21T09:27:04.000Z</time>
      </trkpt>
      <trkpt lat="45.16169" lon="4.81129">
        <ele>138</ele>
        <time>2024-05-21T09:27:05.000Z</time>
      </trkpt>
      <trkpt lat="45.16166" lon="4.81132">
        <ele>138</ele>
        <time>2024-05-21T09:27:06.000Z</time>
      </trkpt>
      <trkpt lat="45.16162" lon="4.81136">
        <ele>138</ele>
        <time>2024-05-21T09:27:07.000Z</time>
      </trkpt>
      <trkpt lat="45.16159" lon="4.8114">
        <ele>138</ele>
        <time>2024-05-21T09:27:08.000Z</time>
      </trkpt>
      <trkpt lat="45.16155" lon="4.81145">
        <ele>138</ele>
        <time>2024-05-21T09:27:09.000Z</time>
      </trkpt>
      <trkpt lat="45.16152" lon="4.8115">
        <ele>138</ele>
        <time>2024-05-21T09:27:10.000Z</time>
      </trkpt>
      <trkpt lat="45.16148" lon="4.81155">
        <ele>138</ele>
        <time>2024-05-21T09:27:11.000Z</time>
      </trkpt>
      <trkpt lat="45.16145" lon="4.81159">
        <ele>138</ele>
        <time>2024-05-21T09:27:12.000Z</time>
      </trkpt>
      <trkpt lat="45.16141" lon="4.81165">
        <ele>138</ele>
        <time>2024-05-21T09:27:13.000Z</time>
      </trkpt>
      <trkpt lat="45.16138" lon="4.8117">
        <ele>138</ele>
        <time>2024-05-21T09:27:14.000Z</time>
      </trkpt>
      <trkpt lat="45.16134" lon="4.81175">
        <ele>138</ele>
        <time>2024-05-21T09:27:15.000Z</time>
      </trkpt>
      <trkpt lat="45.16131" lon="4.8118">
        <ele>138</ele>
        <time>2024-05-21T09:27:16.000Z</time>
      </trkpt>
      <trkpt lat="45.16127" lon="4.81185">
        <ele>138</ele>
        <time>2024-05-21T09:27:17.000Z</time>
      </trkpt>
      <trkpt lat="45.16124" lon="4.8119">
        <ele>138</ele>
        <time>2024-05-21T09:27:18.000Z</time>
      </trkpt>
      <trkpt lat="45.1612" lon="4.81195">
        <ele>137.80000305176</ele>
        <time>2024-05-21T09:27:19.000Z</time>
      </trkpt>
      <trkpt lat="45.16117" lon="4.812">
        <ele>138</ele>
        <time>2024-05-21T09:27:20.000Z</time>
      </trkpt>
      <trkpt lat="45.16113" lon="4.81205">
        <ele>138</ele>
        <time>2024-05-21T09:27:21.000Z</time>
      </trkpt>
      <trkpt lat="45.1611" lon="4.81211">
        <ele>138</ele>
        <time>2024-05-21T09:27:22.000Z</time>
      </trkpt>
      <trkpt lat="45.16106" lon="4.81216">
        <ele>137.80000305176</ele>
        <time>2024-05-21T09:27:23.000Z</time>
      </trkpt>
      <trkpt lat="45.16103" lon="4.81222">
        <ele>137.80000305176</ele>
        <time>2024-05-21T09:27:24.000Z</time>
      </trkpt>
      <trkpt lat="45.161" lon="4.81227">
        <ele>137.80000305176</ele>
        <time>2024-05-21T09:27:25.000Z</time>
      </trkpt>
      <trkpt lat="45.16097" lon="4.81232">
        <ele>138</ele>
        <time>2024-05-21T09:27:26.000Z</time>
      </trkpt>
      <trkpt lat="45.16094" lon="4.81237">
        <ele>138</ele>
        <time>2024-05-21T09:27:27.000Z</time>
      </trkpt>
      <trkpt lat="45.16091" lon="4.81243">
        <ele>138</ele>
        <time>2024-05-21T09:27:28.000Z</time>
      </trkpt>
      <trkpt lat="45.16088" lon="4.8125">
        <ele>138</ele>
        <time>2024-05-21T09:27:29.000Z</time>
      </trkpt>
      <trkpt lat="45.16085" lon="4.81256">
        <ele>138</ele>
        <time>2024-05-21T09:27:30.000Z</time>
      </trkpt>
      <trkpt lat="45.16082" lon="4.81261">
        <ele>138</ele>
        <time>2024-05-21T09:27:31.000Z</time>
      </trkpt>
      <trkpt lat="45.16079" lon="4.81266">
        <ele>138.19999694824</ele>
        <time>2024-05-21T09:27:32.000Z</time>
      </trkpt>
      <trkpt lat="45.16076" lon="4.81271">
        <ele>138.19999694824</ele>
        <time>2024-05-21T09:27:33.000Z</time>
      </trkpt>
      <trkpt lat="45.16072" lon="4.81277">
        <ele>138.39999389648</ele>
        <time>2024-05-21T09:27:34.000Z</time>
      </trkpt>
      <trkpt lat="45.16069" lon="4.81282">
        <ele>138.39999389648</ele>
        <time>2024-05-21T09:27:35.000Z</time>
      </trkpt>
      <trkpt lat="45.16066" lon="4.81288">
        <ele>138.39999389648</ele>
        <time>2024-05-21T09:27:36.000Z</time>
      </trkpt>
      <trkpt lat="45.16063" lon="4.81294">
        <ele>138.39999389648</ele>
        <time>2024-05-21T09:27:37.000Z</time>
      </trkpt>
      <trkpt lat="45.1606" lon="4.81299">
        <ele>138.39999389648</ele>
        <time>2024-05-21T09:27:38.000Z</time>
      </trkpt>
      <trkpt lat="45.16057" lon="4.81305">
        <ele>138.39999389648</ele>
        <time>2024-05-21T09:27:39.000Z</time>
      </trkpt>
      <trkpt lat="45.16054" lon="4.81311">
        <ele>138.60000610352</ele>
        <time>2024-05-21T09:27:40.000Z</time>
      </trkpt>
      <trkpt lat="45.16052" lon="4.81317">
        <ele>138.60000610352</ele>
        <time>2024-05-21T09:27:41.000Z</time>
      </trkpt>
      <trkpt lat="45.16049" lon="4.81323">
        <ele>138.60000610352</ele>
        <time>2024-05-21T09:27:42.000Z</time>
      </trkpt>
      <trkpt lat="45.16047" lon="4.8133">
        <ele>138.60000610352</ele>
        <time>2024-05-21T09:27:43.000Z</time>
      </trkpt>
      <trkpt lat="45.16044" lon="4.81337">
        <ele>138.60000610352</ele>
        <time>2024-05-21T09:27:44.000Z</time>
      </trkpt>
      <trkpt lat="45.16042" lon="4.81345">
        <ele>138.60000610352</ele>
        <time>2024-05-21T09:27:45.000Z</time>
      </trkpt>
      <trkpt lat="45.16041" lon="4.81353">
        <ele>138.39999389648</ele>
        <time>2024-05-21T09:27:46.000Z</time>
      </trkpt>
      <trkpt lat="45.1604" lon="4.8136">
        <ele>138.39999389648</ele>
        <time>2024-05-21T09:27:47.000Z</time>
      </trkpt>
      <trkpt lat="45.1604" lon="4.81368">
        <ele>138.39999389648</ele>
        <time>2024-05-21T09:27:48.000Z</time>
      </trkpt>
      <trkpt lat="45.16038" lon="4.81376">
        <ele>138</ele>
        <time>2024-05-21T09:27:49.000Z</time>
      </trkpt>
      <trkpt lat="45.16037" lon="4.81384">
        <ele>138</ele>
        <time>2024-05-21T09:27:50.000Z</time>
      </trkpt>
      <trkpt lat="45.16037" lon="4.81392">
        <ele>137.80000305176</ele>
        <time>2024-05-21T09:27:51.000Z</time>
      </trkpt>
      <trkpt lat="45.16035" lon="4.81399">
        <ele>137.19999694824</ele>
        <time>2024-05-21T09:27:52.000Z</time>
      </trkpt>
      <trkpt lat="45.16033" lon="4.81407">
        <ele>137.19999694824</ele>
        <time>2024-05-21T09:27:53.000Z</time>
      </trkpt>
      <trkpt lat="45.16031" lon="4.81414">
        <ele>137.19999694824</ele>
        <time>2024-05-21T09:27:54.000Z</time>
      </trkpt>
      <trkpt lat="45.16028" lon="4.81422">
        <ele>137</ele>
        <time>2024-05-21T09:27:55.000Z</time>
      </trkpt>
      <trkpt lat="45.16025" lon="4.81429">
        <ele>137</ele>
        <time>2024-05-21T09:27:56.000Z</time>
      </trkpt>
      <trkpt lat="45.16022" lon="4.81436">
        <ele>137</ele>
        <time>2024-05-21T09:27:57.000Z</time>
      </trkpt>
      <trkpt lat="45.16019" lon="4.81443">
        <ele>136.80000305176</ele>
        <time>2024-05-21T09:27:58.000Z</time>
      </trkpt>
      <trkpt lat="45.16016" lon="4.8145">
        <ele>136.60000610352</ele>
        <time>2024-05-21T09:27:59.000Z</time>
      </trkpt>
      <trkpt lat="45.16013" lon="4.81457">
        <ele>136.60000610352</ele>
        <time>2024-05-21T09:28:00.000Z</time>
      </trkpt>
      <trkpt lat="45.16009" lon="4.81465">
        <ele>136.39999389648</ele>
        <time>2024-05-21T09:28:01.000Z</time>
      </trkpt>
      <trkpt lat="45.16006" lon="4.81474">
        <ele>136.19999694824</ele>
        <time>2024-05-21T09:28:02.000Z</time>
      </trkpt>
      <trkpt lat="45.16002" lon="4.81483">
        <ele>136</ele>
        <time>2024-05-21T09:28:03.000Z</time>
      </trkpt>
      <trkpt lat="45.15999" lon="4.81493">
        <ele>135.39999389648</ele>
        <time>2024-05-21T09:28:04.000Z</time>
      </trkpt>
      <trkpt lat="45.15995" lon="4.81503">
        <ele>135</ele>
        <time>2024-05-21T09:28:05.000Z</time>
      </trkpt>
      <trkpt lat="45.15991" lon="4.81513">
        <ele>134.60000610352</ele>
        <time>2024-05-21T09:28:06.000Z</time>
      </trkpt>
      <trkpt lat="45.15987" lon="4.81524">
        <ele>134</ele>
        <time>2024-05-21T09:28:07.000Z</time>
      </trkpt>
      <trkpt lat="45.15982" lon="4.81535">
        <ele>133.39999389648</ele>
        <time>2024-05-21T09:28:08.000Z</time>
      </trkpt>
      <trkpt lat="45.15978" lon="4.81546">
        <ele>132.80000305176</ele>
        <time>2024-05-21T09:28:09.000Z</time>
      </trkpt>
      <trkpt lat="45.15973" lon="4.81558">
        <ele>132.19999694824</ele>
        <time>2024-05-21T09:28:10.000Z</time>
      </trkpt>
      <trkpt lat="45.15969" lon="4.81569">
        <ele>131.19999694824</ele>
        <time>2024-05-21T09:28:11.000Z</time>
      </trkpt>
      <trkpt lat="45.15965" lon="4.8158">
        <ele>130.60000610352</ele>
        <time>2024-05-21T09:28:12.000Z</time>
      </trkpt>
      <trkpt lat="45.1596" lon="4.81591">
        <ele>130.19999694824</ele>
        <time>2024-05-21T09:28:13.000Z</time>
      </trkpt>
      <trkpt lat="45.15956" lon="4.81602">
        <ele>130</ele>
        <time>2024-05-21T09:28:14.000Z</time>
      </trkpt>
      <trkpt lat="45.15952" lon="4.81612">
        <ele>129.80000305176</ele>
        <time>2024-05-21T09:28:15.000Z</time>
      </trkpt>
      <trkpt lat="45.15948" lon="4.81622">
        <ele>129.80000305176</ele>
        <time>2024-05-21T09:28:16.000Z</time>
      </trkpt>
      <trkpt lat="45.15944" lon="4.81632">
        <ele>129.60000610352</ele>
        <time>2024-05-21T09:28:17.000Z</time>
      </trkpt>
      <trkpt lat="45.15941" lon="4.81642">
        <ele>129.39999389648</ele>
        <time>2024-05-21T09:28:18.000Z</time>
      </trkpt>
      <trkpt lat="45.15937" lon="4.81651">
        <ele>129.39999389648</ele>
        <time>2024-05-21T09:28:19.000Z</time>
      </trkpt>
      <trkpt lat="45.15935" lon="4.8166">
        <ele>129.39999389648</ele>
        <time>2024-05-21T09:28:20.000Z</time>
      </trkpt>
      <trkpt lat="45.15931" lon="4.81669">
        <ele>129.19999694824</ele>
        <time>2024-05-21T09:28:21.000Z</time>
      </trkpt>
      <trkpt lat="45.15929" lon="4.81679">
        <ele>129.19999694824</ele>
        <time>2024-05-21T09:28:22.000Z</time>
      </trkpt>
      <trkpt lat="45.15926" lon="4.81688">
        <ele>129.19999694824</ele>
        <time>2024-05-21T09:28:23.000Z</time>
      </trkpt>
      <trkpt lat="45.15925" lon="4.81697">
        <ele>129.19999694824</ele>
        <time>2024-05-21T09:28:24.000Z</time>
      </trkpt>
      <trkpt lat="45.15924" lon="4.81706">
        <ele>129.19999694824</ele>
        <time>2024-05-21T09:28:25.000Z</time>
      </trkpt>
      <trkpt lat="45.15925" lon="4.81715">
        <ele>129</ele>
        <time>2024-05-21T09:28:26.000Z</time>
      </trkpt>
      <trkpt lat="45.15926" lon="4.81722">
        <ele>129</ele>
        <time>2024-05-21T09:28:27.000Z</time>
      </trkpt>
      <trkpt lat="45.15928" lon="4.81732">
        <ele>129</ele>
        <time>2024-05-21T09:28:28.000Z</time>
      </trkpt>
      <trkpt lat="45.15931" lon="4.81741">
        <ele>129</ele>
        <time>2024-05-21T09:28:29.000Z</time>
      </trkpt>
      <trkpt lat="45.15932" lon="4.81749">
        <ele>129</ele>
        <time>2024-05-21T09:28:30.000Z</time>
      </trkpt>
      <trkpt lat="45.15934" lon="4.81758">
        <ele>128.80000305176</ele>
        <time>2024-05-21T09:28:31.000Z</time>
      </trkpt>
      <trkpt lat="45.15934" lon="4.81767">
        <ele>128.80000305176</ele>
        <time>2024-05-21T09:28:32.000Z</time>
      </trkpt>
      <trkpt lat="45.15934" lon="4.81776">
        <ele>128.80000305176</ele>
        <time>2024-05-21T09:28:33.000Z</time>
      </trkpt>
      <trkpt lat="45.15934" lon="4.81785">
        <ele>128.60000610352</ele>
        <time>2024-05-21T09:28:34.000Z</time>
      </trkpt>
      <trkpt lat="45.15934" lon="4.81794">
        <ele>128.39999389648</ele>
        <time>2024-05-21T09:28:35.000Z</time>
      </trkpt>
      <trkpt lat="45.15934" lon="4.81803">
        <ele>128.39999389648</ele>
        <time>2024-05-21T09:28:36.000Z</time>
      </trkpt>
      <trkpt lat="45.15933" lon="4.81812">
        <ele>128.39999389648</ele>
        <time>2024-05-21T09:28:37.000Z</time>
      </trkpt>
      <trkpt lat="45.15931" lon="4.81822">
        <ele>128.39999389648</ele>
        <time>2024-05-21T09:28:38.000Z</time>
      </trkpt>
      <trkpt lat="45.1593" lon="4.81832">
        <ele>128.19999694824</ele>
        <time>2024-05-21T09:28:39.000Z</time>
      </trkpt>
      <trkpt lat="45.15928" lon="4.81841">
        <ele>128.19999694824</ele>
        <time>2024-05-21T09:28:40.000Z</time>
      </trkpt>
      <trkpt lat="45.15926" lon="4.8185">
        <ele>128</ele>
        <time>2024-05-21T09:28:41.000Z</time>
      </trkpt>
      <trkpt lat="45.15925" lon="4.81859">
        <ele>127.80000305176</ele>
        <time>2024-05-21T09:28:42.000Z</time>
      </trkpt>
      <trkpt lat="45.15924" lon="4.81868">
        <ele>127.80000305176</ele>
        <time>2024-05-21T09:28:43.000Z</time>
      </trkpt>
      <trkpt lat="45.15923" lon="4.81878">
        <ele>127.80000305176</ele>
        <time>2024-05-21T09:28:44.000Z</time>
      </trkpt>
      <trkpt lat="45.15922" lon="4.81887">
        <ele>127.80000305176</ele>
        <time>2024-05-21T09:28:45.000Z</time>
      </trkpt>
      <trkpt lat="45.1592" lon="4.81897">
        <ele>127.80000305176</ele>
        <time>2024-05-21T09:28:46.000Z</time>
      </trkpt>
      <trkpt lat="45.15919" lon="4.81907">
        <ele>127.80000305176</ele>
        <time>2024-05-21T09:28:47.000Z</time>
      </trkpt>
      <trkpt lat="45.15918" lon="4.81916">
        <ele>127.59999847412</ele>
        <time>2024-05-21T09:28:48.000Z</time>
      </trkpt>
      <trkpt lat="45.15917" lon="4.81925">
        <ele>127.59999847412</ele>
        <time>2024-05-21T09:28:49.000Z</time>
      </trkpt>
      <trkpt lat="45.15916" lon="4.81934">
        <ele>127.59999847412</ele>
        <time>2024-05-21T09:28:50.000Z</time>
      </trkpt>
      <trkpt lat="45.15916" lon="4.81943">
        <ele>127.59999847412</ele>
        <time>2024-05-21T09:28:51.000Z</time>
      </trkpt>
      <trkpt lat="45.15915" lon="4.81952">
        <ele>127.59999847412</ele>
        <time>2024-05-21T09:28:52.000Z</time>
      </trkpt>
      <trkpt lat="45.15913" lon="4.81961">
        <ele>127.59999847412</ele>
        <time>2024-05-21T09:28:53.000Z</time>
      </trkpt>
      <trkpt lat="45.15912" lon="4.81969">
        <ele>127.59999847412</ele>
        <time>2024-05-21T09:28:54.000Z</time>
      </trkpt>
      <trkpt lat="45.15911" lon="4.81978">
        <ele>127.59999847412</ele>
        <time>2024-05-21T09:28:55.000Z</time>
      </trkpt>
      <trkpt lat="45.1591" lon="4.81987">
        <ele>127.59999847412</ele>
        <time>2024-05-21T09:28:56.000Z</time>
      </trkpt>
      <trkpt lat="45.15908" lon="4.81996">
        <ele>127.80000305176</ele>
        <time>2024-05-21T09:28:57.000Z</time>
      </trkpt>
      <trkpt lat="45.15906" lon="4.82005">
        <ele>127.80000305176</ele>
        <time>2024-05-21T09:28:58.000Z</time>
      </trkpt>
      <trkpt lat="45.15905" lon="4.82013">
        <ele>127.80000305176</ele>
        <time>2024-05-21T09:28:59.000Z</time>
      </trkpt>
      <trkpt lat="45.15903" lon="4.82022">
        <ele>127.80000305176</ele>
        <time>2024-05-21T09:29:00.000Z</time>
      </trkpt>
      <trkpt lat="45.15902" lon="4.82031">
        <ele>127.80000305176</ele>
        <time>2024-05-21T09:29:01.000Z</time>
      </trkpt>
      <trkpt lat="45.159" lon="4.8204">
        <ele>127.80000305176</ele>
        <time>2024-05-21T09:29:02.000Z</time>
      </trkpt>
      <trkpt lat="45.15899" lon="4.82049">
        <ele>128</ele>
        <time>2024-05-21T09:29:03.000Z</time>
      </trkpt>
      <trkpt lat="45.15897" lon="4.82057">
        <ele>128</ele>
        <time>2024-05-21T09:29:04.000Z</time>
      </trkpt>
      <trkpt lat="45.15896" lon="4.82066">
        <ele>128</ele>
        <time>2024-05-21T09:29:05.000Z</time>
      </trkpt>
      <trkpt lat="45.15894" lon="4.82074">
        <ele>128</ele>
        <time>2024-05-21T09:29:06.000Z</time>
      </trkpt>
      <trkpt lat="45.15893" lon="4.82083">
        <ele>128</ele>
        <time>2024-05-21T09:29:07.000Z</time>
      </trkpt>
      <trkpt lat="45.15891" lon="4.82091">
        <ele>128</ele>
        <time>2024-05-21T09:29:08.000Z</time>
      </trkpt>
      <trkpt lat="45.15889" lon="4.821">
        <ele>128</ele>
        <time>2024-05-21T09:29:09.000Z</time>
      </trkpt>
      <trkpt lat="45.15887" lon="4.82109">
        <ele>128</ele>
        <time>2024-05-21T09:29:10.000Z</time>
      </trkpt>
      <trkpt lat="45.15885" lon="4.82117">
        <ele>128</ele>
        <time>2024-05-21T09:29:11.000Z</time>
      </trkpt>
      <trkpt lat="45.15883" lon="4.82125">
        <ele>127.80000305176</ele>
        <time>2024-05-21T09:29:12.000Z</time>
      </trkpt>
      <trkpt lat="45.15881" lon="4.82133">
        <ele>127.80000305176</ele>
        <time>2024-05-21T09:29:13.000Z</time>
      </trkpt>
      <trkpt lat="45.15879" lon="4.82142">
        <ele>127.80000305176</ele>
        <time>2024-05-21T09:29:14.000Z</time>
      </trkpt>
      <trkpt lat="45.15877" lon="4.8215">
        <ele>127.80000305176</ele>
        <time>2024-05-21T09:29:15.000Z</time>
      </trkpt>
      <trkpt lat="45.15875" lon="4.82158">
        <ele>127.80000305176</ele>
        <time>2024-05-21T09:29:16.000Z</time>
      </trkpt>
      <trkpt lat="45.15873" lon="4.82166">
        <ele>127.80000305176</ele>
        <time>2024-05-21T09:29:17.000Z</time>
      </trkpt>
      <trkpt lat="45.15871" lon="4.82174">
        <ele>127.80000305176</ele>
        <time>2024-05-21T09:29:18.000Z</time>
      </trkpt>
      <trkpt lat="45.15869" lon="4.82182">
        <ele>127.80000305176</ele>
        <time>2024-05-21T09:29:19.000Z</time>
      </trkpt>
      <trkpt lat="45.15867" lon="4.8219">
        <ele>127.80000305176</ele>
        <time>2024-05-21T09:29:20.000Z</time>
      </trkpt>
      <trkpt lat="45.15865" lon="4.82198">
        <ele>127.80000305176</ele>
        <time>2024-05-21T09:29:21.000Z</time>
      </trkpt>
      <trkpt lat="45.15863" lon="4.82206">
        <ele>127.80000305176</ele>
        <time>2024-05-21T09:29:22.000Z</time>
      </trkpt>
      <trkpt lat="45.15861" lon="4.82214">
        <ele>127.80000305176</ele>
        <time>2024-05-21T09:29:23.000Z</time>
      </trkpt>
      <trkpt lat="45.15858" lon="4.82223">
        <ele>127.80000305176</ele>
        <time>2024-05-21T09:29:24.000Z</time>
      </trkpt>
      <trkpt lat="45.15856" lon="4.82231">
        <ele>127.80000305176</ele>
        <time>2024-05-21T09:29:25.000Z</time>
      </trkpt>
      <trkpt lat="45.15853" lon="4.82239">
        <ele>127.80000305176</ele>
        <time>2024-05-21T09:29:26.000Z</time>
      </trkpt>
      <trkpt lat="45.1585" lon="4.82246">
        <ele>127.80000305176</ele>
        <time>2024-05-21T09:29:27.000Z</time>
      </trkpt>
      <trkpt lat="45.15847" lon="4.82254">
        <ele>127.80000305176</ele>
        <time>2024-05-21T09:29:28.000Z</time>
      </trkpt>
      <trkpt lat="45.15844" lon="4.82262">
        <ele>127.80000305176</ele>
        <time>2024-05-21T09:29:29.000Z</time>
      </trkpt>
      <trkpt lat="45.15842" lon="4.8227">
        <ele>127.80000305176</ele>
        <time>2024-05-21T09:29:30.000Z</time>
      </trkpt>
      <trkpt lat="45.15839" lon="4.82278">
        <ele>127.80000305176</ele>
        <time>2024-05-21T09:29:31.000Z</time>
      </trkpt>
      <trkpt lat="45.15835" lon="4.82286">
        <ele>127.59999847412</ele>
        <time>2024-05-21T09:29:32.000Z</time>
      </trkpt>
      <trkpt lat="45.15832" lon="4.82294">
        <ele>127.59999847412</ele>
        <time>2024-05-21T09:29:33.000Z</time>
      </trkpt>
      <trkpt lat="45.15829" lon="4.82301">
        <ele>127.59999847412</ele>
        <time>2024-05-21T09:29:34.000Z</time>
      </trkpt>
      <trkpt lat="45.15826" lon="4.82307">
        <ele>127.59999847412</ele>
        <time>2024-05-21T09:29:35.000Z</time>
      </trkpt>
      <trkpt lat="45.15822" lon="4.82317">
        <ele>127.59999847412</ele>
        <time>2024-05-21T09:29:36.000Z</time>
      </trkpt>
      <trkpt lat="45.15819" lon="4.82324">
        <ele>127.59999847412</ele>
        <time>2024-05-21T09:29:37.000Z</time>
      </trkpt>
      <trkpt lat="45.15815" lon="4.82331">
        <ele>127.40000152588</ele>
        <time>2024-05-21T09:29:38.000Z</time>
      </trkpt>
      <trkpt lat="45.15812" lon="4.82338">
        <ele>127.59999847412</ele>
        <time>2024-05-21T09:29:39.000Z</time>
      </trkpt>
      <trkpt lat="45.15809" lon="4.82345">
        <ele>127.59999847412</ele>
        <time>2024-05-21T09:29:40.000Z</time>
      </trkpt>
      <trkpt lat="45.15805" lon="4.82352">
        <ele>127.40000152588</ele>
        <time>2024-05-21T09:29:41.000Z</time>
      </trkpt>
      <trkpt lat="45.15802" lon="4.82358">
        <ele>127.59999847412</ele>
        <time>2024-05-21T09:29:42.000Z</time>
      </trkpt>
      <trkpt lat="45.15798" lon="4.82365">
        <ele>127.40000152588</ele>
        <time>2024-05-21T09:29:43.000Z</time>
      </trkpt>
      <trkpt lat="45.15794" lon="4.82372">
        <ele>127.59999847412</ele>
        <time>2024-05-21T09:29:44.000Z</time>
      </trkpt>
      <trkpt lat="45.1579" lon="4.82378">
        <ele>127.40000152588</ele>
        <time>2024-05-21T09:29:45.000Z</time>
      </trkpt>
      <trkpt lat="45.15786" lon="4.82384">
        <ele>127.40000152588</ele>
        <time>2024-05-21T09:29:46.000Z</time>
      </trkpt>
      <trkpt lat="45.15782" lon="4.8239">
        <ele>127.59999847412</ele>
        <time>2024-05-21T09:29:47.000Z</time>
      </trkpt>
      <trkpt lat="45.15777" lon="4.82395">
        <ele>127.59999847412</ele>
        <time>2024-05-21T09:29:48.000Z</time>
      </trkpt>
      <trkpt lat="45.15773" lon="4.824">
        <ele>127.59999847412</ele>
        <time>2024-05-21T09:29:49.000Z</time>
      </trkpt>
      <trkpt lat="45.15768" lon="4.82405">
        <ele>127.59999847412</ele>
        <time>2024-05-21T09:29:50.000Z</time>
      </trkpt>
      <trkpt lat="45.15763" lon="4.8241">
        <ele>127.59999847412</ele>
        <time>2024-05-21T09:29:51.000Z</time>
      </trkpt>
      <trkpt lat="45.15758" lon="4.82415">
        <ele>127.59999847412</ele>
        <time>2024-05-21T09:29:52.000Z</time>
      </trkpt>
      <trkpt lat="45.15753" lon="4.8242">
        <ele>127.59999847412</ele>
        <time>2024-05-21T09:29:53.000Z</time>
      </trkpt>
      <trkpt lat="45.15749" lon="4.82425">
        <ele>127.80000305176</ele>
        <time>2024-05-21T09:29:54.000Z</time>
      </trkpt>
      <trkpt lat="45.15744" lon="4.8243">
        <ele>127.80000305176</ele>
        <time>2024-05-21T09:29:55.000Z</time>
      </trkpt>
      <trkpt lat="45.15739" lon="4.82435">
        <ele>127.80000305176</ele>
        <time>2024-05-21T09:29:56.000Z</time>
      </trkpt>
      <trkpt lat="45.15734" lon="4.8244">
        <ele>127.80000305176</ele>
        <time>2024-05-21T09:29:57.000Z</time>
      </trkpt>
      <trkpt lat="45.1573" lon="4.82445">
        <ele>127.80000305176</ele>
        <time>2024-05-21T09:29:58.000Z</time>
      </trkpt>
      <trkpt lat="45.15725" lon="4.8245">
        <ele>127.80000305176</ele>
        <time>2024-05-21T09:29:59.000Z</time>
      </trkpt>
      <trkpt lat="45.1572" lon="4.82454">
        <ele>127.80000305176</ele>
        <time>2024-05-21T09:30:00.000Z</time>
      </trkpt>
      <trkpt lat="45.15715" lon="4.82459">
        <ele>127.80000305176</ele>
        <time>2024-05-21T09:30:01.000Z</time>
      </trkpt>
      <trkpt lat="45.1571" lon="4.82463">
        <ele>128</ele>
        <time>2024-05-21T09:30:02.000Z</time>
      </trkpt>
      <trkpt lat="45.15705" lon="4.82467">
        <ele>128</ele>
        <time>2024-05-21T09:30:03.000Z</time>
      </trkpt>
      <trkpt lat="45.15701" lon="4.8247">
        <ele>128</ele>
        <time>2024-05-21T09:30:04.000Z</time>
      </trkpt>
      <trkpt lat="45.15694" lon="4.82474">
        <ele>128</ele>
        <time>2024-05-21T09:30:05.000Z</time>
      </trkpt>
      <trkpt lat="45.15689" lon="4.82477">
        <ele>127.80000305176</ele>
        <time>2024-05-21T09:30:06.000Z</time>
      </trkpt>
      <trkpt lat="45.15683" lon="4.8248">
        <ele>127.80000305176</ele>
        <time>2024-05-21T09:30:07.000Z</time>
      </trkpt>
      <trkpt lat="45.15678" lon="4.82483">
        <ele>127.80000305176</ele>
        <time>2024-05-21T09:30:08.000Z</time>
      </trkpt>
      <trkpt lat="45.15672" lon="4.82485">
        <ele>127.80000305176</ele>
        <time>2024-05-21T09:30:09.000Z</time>
      </trkpt>
      <trkpt lat="45.15667" lon="4.82487">
        <ele>127.80000305176</ele>
        <time>2024-05-21T09:30:10.000Z</time>
      </trkpt>
      <trkpt lat="45.15662" lon="4.8249">
        <ele>127.80000305176</ele>
        <time>2024-05-21T09:30:11.000Z</time>
      </trkpt>
      <trkpt lat="45.15657" lon="4.82491">
        <ele>127.80000305176</ele>
        <time>2024-05-21T09:30:12.000Z</time>
      </trkpt>
      <trkpt lat="45.15651" lon="4.82493">
        <ele>127.80000305176</ele>
        <time>2024-05-21T09:30:13.000Z</time>
      </trkpt>
      <trkpt lat="45.15646" lon="4.82495">
        <ele>127.80000305176</ele>
        <time>2024-05-21T09:30:14.000Z</time>
      </trkpt>
      <trkpt lat="45.15642" lon="4.82497">
        <ele>127.80000305176</ele>
        <time>2024-05-21T09:30:15.000Z</time>
      </trkpt>
      <trkpt lat="45.15637" lon="4.82498">
        <ele>127.80000305176</ele>
        <time>2024-05-21T09:30:16.000Z</time>
      </trkpt>
      <trkpt lat="45.15632" lon="4.82499">
        <ele>127.80000305176</ele>
        <time>2024-05-21T09:30:17.000Z</time>
      </trkpt>
      <trkpt lat="45.15627" lon="4.82501">
        <ele>127.80000305176</ele>
        <time>2024-05-21T09:30:18.000Z</time>
      </trkpt>
      <trkpt lat="45.15622" lon="4.82502">
        <ele>127.80000305176</ele>
        <time>2024-05-21T09:30:19.000Z</time>
      </trkpt>
      <trkpt lat="45.15617" lon="4.82504">
        <ele>127.80000305176</ele>
        <time>2024-05-21T09:30:20.000Z</time>
      </trkpt>
      <trkpt lat="45.15612" lon="4.82505">
        <ele>127.80000305176</ele>
        <time>2024-05-21T09:30:21.000Z</time>
      </trkpt>
      <trkpt lat="45.15606" lon="4.82506">
        <ele>127.80000305176</ele>
        <time>2024-05-21T09:30:22.000Z</time>
      </trkpt>
      <trkpt lat="45.15601" lon="4.82507">
        <ele>127.59999847412</ele>
        <time>2024-05-21T09:30:23.000Z</time>
      </trkpt>
      <trkpt lat="45.15595" lon="4.82508">
        <ele>127.59999847412</ele>
        <time>2024-05-21T09:30:24.000Z</time>
      </trkpt>
      <trkpt lat="45.1559" lon="4.82509">
        <ele>127.59999847412</ele>
        <time>2024-05-21T09:30:25.000Z</time>
      </trkpt>
      <trkpt lat="45.15584" lon="4.82509">
        <ele>127.40000152588</ele>
        <time>2024-05-21T09:30:26.000Z</time>
      </trkpt>
      <trkpt lat="45.15578" lon="4.82509">
        <ele>127.40000152588</ele>
        <time>2024-05-21T09:30:27.000Z</time>
      </trkpt>
      <trkpt lat="45.15572" lon="4.8251">
        <ele>127.19999694824</ele>
        <time>2024-05-21T09:30:28.000Z</time>
      </trkpt>
      <trkpt lat="45.15567" lon="4.8251">
        <ele>127.19999694824</ele>
        <time>2024-05-21T09:30:29.000Z</time>
      </trkpt>
      <trkpt lat="45.15561" lon="4.82509">
        <ele>127.19999694824</ele>
        <time>2024-05-21T09:30:30.000Z</time>
      </trkpt>
      <trkpt lat="45.15555" lon="4.82509">
        <ele>127.19999694824</ele>
        <time>2024-05-21T09:30:31.000Z</time>
      </trkpt>
      <trkpt lat="45.15549" lon="4.82509">
        <ele>127.19999694824</ele>
        <time>2024-05-21T09:30:32.000Z</time>
      </trkpt>
      <trkpt lat="45.15543" lon="4.82509">
        <ele>127.40000152588</ele>
        <time>2024-05-21T09:30:33.000Z</time>
      </trkpt>
      <trkpt lat="45.15537" lon="4.82508">
        <ele>127.40000152588</ele>
        <time>2024-05-21T09:30:34.000Z</time>
      </trkpt>
      <trkpt lat="45.15531" lon="4.82508">
        <ele>127.40000152588</ele>
        <time>2024-05-21T09:30:35.000Z</time>
      </trkpt>
      <trkpt lat="45.15525" lon="4.82508">
        <ele>127.40000152588</ele>
        <time>2024-05-21T09:30:36.000Z</time>
      </trkpt>
      <trkpt lat="45.1552" lon="4.82507">
        <ele>127.19999694824</ele>
        <time>2024-05-21T09:30:37.000Z</time>
      </trkpt>
      <trkpt lat="45.15514" lon="4.82507">
        <ele>127.19999694824</ele>
        <time>2024-05-21T09:30:38.000Z</time>
      </trkpt>
      <trkpt lat="45.15506" lon="4.82506">
        <ele>127.19999694824</ele>
        <time>2024-05-21T09:30:39.000Z</time>
      </trkpt>
      <trkpt lat="45.155" lon="4.82505">
        <ele>127.19999694824</ele>
        <time>2024-05-21T09:30:40.000Z</time>
      </trkpt>
      <trkpt lat="45.15494" lon="4.82504">
        <ele>127.19999694824</ele>
        <time>2024-05-21T09:30:41.000Z</time>
      </trkpt>
      <trkpt lat="45.15488" lon="4.82503">
        <ele>127.19999694824</ele>
        <time>2024-05-21T09:30:42.000Z</time>
      </trkpt>
      <trkpt lat="45.15482" lon="4.82502">
        <ele>127.19999694824</ele>
        <time>2024-05-21T09:30:43.000Z</time>
      </trkpt>
      <trkpt lat="45.15476" lon="4.82501">
        <ele>127.19999694824</ele>
        <time>2024-05-21T09:30:44.000Z</time>
      </trkpt>
      <trkpt lat="45.1547" lon="4.825">
        <ele>127.19999694824</ele>
        <time>2024-05-21T09:30:45.000Z</time>
      </trkpt>
      <trkpt lat="45.15465" lon="4.82499">
        <ele>127.19999694824</ele>
        <time>2024-05-21T09:30:46.000Z</time>
      </trkpt>
      <trkpt lat="45.15458" lon="4.82497">
        <ele>127.19999694824</ele>
        <time>2024-05-21T09:30:47.000Z</time>
      </trkpt>
      <trkpt lat="45.15453" lon="4.82496">
        <ele>127.19999694824</ele>
        <time>2024-05-21T09:30:48.000Z</time>
      </trkpt>
      <trkpt lat="45.15446" lon="4.82494">
        <ele>127.40000152588</ele>
        <time>2024-05-21T09:30:49.000Z</time>
      </trkpt>
      <trkpt lat="45.15439" lon="4.82492">
        <ele>127.40000152588</ele>
        <time>2024-05-21T09:30:50.000Z</time>
      </trkpt>
      <trkpt lat="45.15433" lon="4.82489">
        <ele>127.40000152588</ele>
        <time>2024-05-21T09:30:51.000Z</time>
      </trkpt>
      <trkpt lat="45.15429" lon="4.82487">
        <ele>127.40000152588</ele>
        <time>2024-05-21T09:30:52.000Z</time>
      </trkpt>
      <trkpt lat="45.15422" lon="4.82485">
        <ele>127.40000152588</ele>
        <time>2024-05-21T09:30:53.000Z</time>
      </trkpt>
      <trkpt lat="45.15416" lon="4.82482">
        <ele>127.40000152588</ele>
        <time>2024-05-21T09:30:54.000Z</time>
      </trkpt>
      <trkpt lat="45.15411" lon="4.82481">
        <ele>127.40000152588</ele>
        <time>2024-05-21T09:30:55.000Z</time>
      </trkpt>
      <trkpt lat="45.15405" lon="4.82478">
        <ele>127.40000152588</ele>
        <time>2024-05-21T09:30:56.000Z</time>
      </trkpt>
      <trkpt lat="45.15399" lon="4.82476">
        <ele>127.40000152588</ele>
        <time>2024-05-21T09:30:57.000Z</time>
      </trkpt>
      <trkpt lat="45.15393" lon="4.82473">
        <ele>127.40000152588</ele>
        <time>2024-05-21T09:30:58.000Z</time>
      </trkpt>
      <trkpt lat="45.15387" lon="4.82471">
        <ele>127.40000152588</ele>
        <time>2024-05-21T09:30:59.000Z</time>
      </trkpt>
      <trkpt lat="45.15381" lon="4.82468">
        <ele>127.40000152588</ele>
        <time>2024-05-21T09:31:00.000Z</time>
      </trkpt>
      <trkpt lat="45.15375" lon="4.82465">
        <ele>127.40000152588</ele>
        <time>2024-05-21T09:31:01.000Z</time>
      </trkpt>
      <trkpt lat="45.15369" lon="4.82461">
        <ele>127.40000152588</ele>
        <time>2024-05-21T09:31:02.000Z</time>
      </trkpt>
      <trkpt lat="45.15364" lon="4.82459">
        <ele>127.40000152588</ele>
        <time>2024-05-21T09:31:03.000Z</time>
      </trkpt>
      <trkpt lat="45.15357" lon="4.82455">
        <ele>127.40000152588</ele>
        <time>2024-05-21T09:31:04.000Z</time>
      </trkpt>
      <trkpt lat="45.15351" lon="4.82452">
        <ele>127.40000152588</ele>
        <time>2024-05-21T09:31:05.000Z</time>
      </trkpt>
      <trkpt lat="45.15346" lon="4.82448">
        <ele>127.19999694824</ele>
        <time>2024-05-21T09:31:06.000Z</time>
      </trkpt>
      <trkpt lat="45.15339" lon="4.82443">
        <ele>127.19999694824</ele>
        <time>2024-05-21T09:31:07.000Z</time>
      </trkpt>
      <trkpt lat="45.15333" lon="4.82438">
        <ele>127.19999694824</ele>
        <time>2024-05-21T09:31:08.000Z</time>
      </trkpt>
      <trkpt lat="45.15328" lon="4.82434">
        <ele>127.19999694824</ele>
        <time>2024-05-21T09:31:09.000Z</time>
      </trkpt>
      <trkpt lat="45.15323" lon="4.82431">
        <ele>127</ele>
        <time>2024-05-21T09:31:10.000Z</time>
      </trkpt>
      <trkpt lat="45.15317" lon="4.82425">
        <ele>127</ele>
        <time>2024-05-21T09:31:11.000Z</time>
      </trkpt>
      <trkpt lat="45.15312" lon="4.82421">
        <ele>127</ele>
        <time>2024-05-21T09:31:12.000Z</time>
      </trkpt>
      <trkpt lat="45.15304" lon="4.82415">
        <ele>127</ele>
        <time>2024-05-21T09:31:13.000Z</time>
      </trkpt>
      <trkpt lat="45.15299" lon="4.8241">
        <ele>127</ele>
        <time>2024-05-21T09:31:14.000Z</time>
      </trkpt>
      <trkpt lat="45.15293" lon="4.82406">
        <ele>127</ele>
        <time>2024-05-21T09:31:15.000Z</time>
      </trkpt>
      <trkpt lat="45.15288" lon="4.82401">
        <ele>126.80000305176</ele>
        <time>2024-05-21T09:31:16.000Z</time>
      </trkpt>
      <trkpt lat="45.15282" lon="4.82397">
        <ele>126.80000305176</ele>
        <time>2024-05-21T09:31:17.000Z</time>
      </trkpt>
      <trkpt lat="45.15277" lon="4.82392">
        <ele>126.80000305176</ele>
        <time>2024-05-21T09:31:18.000Z</time>
      </trkpt>
      <trkpt lat="45.15271" lon="4.82387">
        <ele>126.80000305176</ele>
        <time>2024-05-21T09:31:19.000Z</time>
      </trkpt>
      <trkpt lat="45.15266" lon="4.82383">
        <ele>126.80000305176</ele>
        <time>2024-05-21T09:31:20.000Z</time>
      </trkpt>
      <trkpt lat="45.1526" lon="4.82378">
        <ele>126.80000305176</ele>
        <time>2024-05-21T09:31:21.000Z</time>
      </trkpt>
      <trkpt lat="45.15256" lon="4.82374">
        <ele>126.80000305176</ele>
        <time>2024-05-21T09:31:22.000Z</time>
      </trkpt>
      <trkpt lat="45.1525" lon="4.8237">
        <ele>126.80000305176</ele>
        <time>2024-05-21T09:31:23.000Z</time>
      </trkpt>
      <trkpt lat="45.15244" lon="4.82365">
        <ele>126.80000305176</ele>
        <time>2024-05-21T09:31:24.000Z</time>
      </trkpt>
      <trkpt lat="45.15238" lon="4.8236">
        <ele>126.80000305176</ele>
        <time>2024-05-21T09:31:25.000Z</time>
      </trkpt>
      <trkpt lat="45.15233" lon="4.82356">
        <ele>126.80000305176</ele>
        <time>2024-05-21T09:31:26.000Z</time>
      </trkpt>
      <trkpt lat="45.15227" lon="4.82352">
        <ele>126.80000305176</ele>
        <time>2024-05-21T09:31:27.000Z</time>
      </trkpt>
      <trkpt lat="45.15221" lon="4.82347">
        <ele>126.80000305176</ele>
        <time>2024-05-21T09:31:28.000Z</time>
      </trkpt>
      <trkpt lat="45.15216" lon="4.82343">
        <ele>126.59999847412</ele>
        <time>2024-05-21T09:31:29.000Z</time>
      </trkpt>
      <trkpt lat="45.1521" lon="4.82338">
        <ele>126.59999847412</ele>
        <time>2024-05-21T09:31:30.000Z</time>
      </trkpt>
      <trkpt lat="45.15205" lon="4.82334">
        <ele>126.59999847412</ele>
        <time>2024-05-21T09:31:31.000Z</time>
      </trkpt>
      <trkpt lat="45.15199" lon="4.82329">
        <ele>126.59999847412</ele>
        <time>2024-05-21T09:31:32.000Z</time>
      </trkpt>
      <trkpt lat="45.15194" lon="4.82325">
        <ele>126.59999847412</ele>
        <time>2024-05-21T09:31:33.000Z</time>
      </trkpt>
      <trkpt lat="45.15189" lon="4.82321">
        <ele>126.40000152588</ele>
        <time>2024-05-21T09:31:34.000Z</time>
      </trkpt>
      <trkpt lat="45.15183" lon="4.82316">
        <ele>126.40000152588</ele>
        <time>2024-05-21T09:31:35.000Z</time>
      </trkpt>
      <trkpt lat="45.15177" lon="4.82312">
        <ele>126.40000152588</ele>
        <time>2024-05-21T09:31:36.000Z</time>
      </trkpt>
      <trkpt lat="45.15172" lon="4.82307">
        <ele>126.40000152588</ele>
        <time>2024-05-21T09:31:37.000Z</time>
      </trkpt>
      <trkpt lat="45.15168" lon="4.82303">
        <ele>126.40000152588</ele>
        <time>2024-05-21T09:31:38.000Z</time>
      </trkpt>
      <trkpt lat="45.15161" lon="4.82297">
        <ele>126.19999694824</ele>
        <time>2024-05-21T09:31:39.000Z</time>
      </trkpt>
      <trkpt lat="45.15156" lon="4.82292">
        <ele>126.19999694824</ele>
        <time>2024-05-21T09:31:40.000Z</time>
      </trkpt>
      <trkpt lat="45.1515" lon="4.82287">
        <ele>126.19999694824</ele>
        <time>2024-05-21T09:31:41.000Z</time>
      </trkpt>
      <trkpt lat="45.15144" lon="4.82283">
        <ele>126.19999694824</ele>
        <time>2024-05-21T09:31:42.000Z</time>
      </trkpt>
      <trkpt lat="45.1514" lon="4.82279">
        <ele>126</ele>
        <time>2024-05-21T09:31:43.000Z</time>
      </trkpt>
      <trkpt lat="45.15133" lon="4.82274">
        <ele>126</ele>
        <time>2024-05-21T09:31:44.000Z</time>
      </trkpt>
      <trkpt lat="45.15128" lon="4.8227">
        <ele>126</ele>
        <time>2024-05-21T09:31:45.000Z</time>
      </trkpt>
      <trkpt lat="45.15123" lon="4.82266">
        <ele>126</ele>
        <time>2024-05-21T09:31:46.000Z</time>
      </trkpt>
      <trkpt lat="45.15118" lon="4.82261">
        <ele>126.19999694824</ele>
        <time>2024-05-21T09:31:47.000Z</time>
      </trkpt>
      <trkpt lat="45.15112" lon="4.82257">
        <ele>126.19999694824</ele>
        <time>2024-05-21T09:31:48.000Z</time>
      </trkpt>
      <trkpt lat="45.15106" lon="4.82253">
        <ele>126.19999694824</ele>
        <time>2024-05-21T09:31:49.000Z</time>
      </trkpt>
      <trkpt lat="45.151" lon="4.82248">
        <ele>126.19999694824</ele>
        <time>2024-05-21T09:31:50.000Z</time>
      </trkpt>
      <trkpt lat="45.15094" lon="4.82244">
        <ele>126.19999694824</ele>
        <time>2024-05-21T09:31:51.000Z</time>
      </trkpt>
      <trkpt lat="45.15089" lon="4.82239">
        <ele>126.19999694824</ele>
        <time>2024-05-21T09:31:52.000Z</time>
      </trkpt>
      <trkpt lat="45.15083" lon="4.82235">
        <ele>126.19999694824</ele>
        <time>2024-05-21T09:31:53.000Z</time>
      </trkpt>
      <trkpt lat="45.15078" lon="4.8223">
        <ele>126.19999694824</ele>
        <time>2024-05-21T09:31:54.000Z</time>
      </trkpt>
      <trkpt lat="45.15073" lon="4.82227">
        <ele>126.19999694824</ele>
        <time>2024-05-21T09:31:55.000Z</time>
      </trkpt>
      <trkpt lat="45.15067" lon="4.82221">
        <ele>126.19999694824</ele>
        <time>2024-05-21T09:31:56.000Z</time>
      </trkpt>
      <trkpt lat="45.15061" lon="4.82217">
        <ele>126.19999694824</ele>
        <time>2024-05-21T09:31:57.000Z</time>
      </trkpt>
      <trkpt lat="45.15056" lon="4.82212">
        <ele>126.19999694824</ele>
        <time>2024-05-21T09:31:58.000Z</time>
      </trkpt>
      <trkpt lat="45.1505" lon="4.82208">
        <ele>126.19999694824</ele>
        <time>2024-05-21T09:31:59.000Z</time>
      </trkpt>
      <trkpt lat="45.15045" lon="4.82204">
        <ele>126.19999694824</ele>
        <time>2024-05-21T09:32:00.000Z</time>
      </trkpt>
      <trkpt lat="45.1504" lon="4.822">
        <ele>126.19999694824</ele>
        <time>2024-05-21T09:32:01.000Z</time>
      </trkpt>
      <trkpt lat="45.15034" lon="4.82194">
        <ele>126</ele>
        <time>2024-05-21T09:32:02.000Z</time>
      </trkpt>
      <trkpt lat="45.15029" lon="4.82189">
        <ele>126.19999694824</ele>
        <time>2024-05-21T09:32:03.000Z</time>
      </trkpt>
      <trkpt lat="45.15023" lon="4.82185">
        <ele>126.19999694824</ele>
        <time>2024-05-21T09:32:04.000Z</time>
      </trkpt>
      <trkpt lat="45.15018" lon="4.82181">
        <ele>126.19999694824</ele>
        <time>2024-05-21T09:32:05.000Z</time>
      </trkpt>
      <trkpt lat="45.15013" lon="4.82176">
        <ele>126</ele>
        <time>2024-05-21T09:32:06.000Z</time>
      </trkpt>
      <trkpt lat="45.15008" lon="4.82171">
        <ele>126</ele>
        <time>2024-05-21T09:32:07.000Z</time>
      </trkpt>
      <trkpt lat="45.15004" lon="4.82167">
        <ele>126</ele>
        <time>2024-05-21T09:32:08.000Z</time>
      </trkpt>
      <trkpt lat="45.14998" lon="4.82162">
        <ele>126</ele>
        <time>2024-05-21T09:32:09.000Z</time>
      </trkpt>
      <trkpt lat="45.14992" lon="4.82156">
        <ele>126</ele>
        <time>2024-05-21T09:32:10.000Z</time>
      </trkpt>
      <trkpt lat="45.14987" lon="4.82151">
        <ele>126</ele>
        <time>2024-05-21T09:32:11.000Z</time>
      </trkpt>
      <trkpt lat="45.14982" lon="4.82146">
        <ele>126</ele>
        <time>2024-05-21T09:32:12.000Z</time>
      </trkpt>
      <trkpt lat="45.14976" lon="4.82141">
        <ele>126</ele>
        <time>2024-05-21T09:32:13.000Z</time>
      </trkpt>
      <trkpt lat="45.14971" lon="4.82136">
        <ele>126</ele>
        <time>2024-05-21T09:32:14.000Z</time>
      </trkpt>
      <trkpt lat="45.14967" lon="4.82133">
        <ele>126</ele>
        <time>2024-05-21T09:32:15.000Z</time>
      </trkpt>
      <trkpt lat="45.14961" lon="4.82127">
        <ele>126</ele>
        <time>2024-05-21T09:32:16.000Z</time>
      </trkpt>
      <trkpt lat="45.14956" lon="4.82123">
        <ele>126</ele>
        <time>2024-05-21T09:32:17.000Z</time>
      </trkpt>
      <trkpt lat="45.14951" lon="4.82118">
        <ele>126</ele>
        <time>2024-05-21T09:32:18.000Z</time>
      </trkpt>
      <trkpt lat="45.14945" lon="4.82113">
        <ele>126.19999694824</ele>
        <time>2024-05-21T09:32:19.000Z</time>
      </trkpt>
      <trkpt lat="45.14941" lon="4.8211">
        <ele>126.19999694824</ele>
        <time>2024-05-21T09:32:20.000Z</time>
      </trkpt>
      <trkpt lat="45.14935" lon="4.82104">
        <ele>126.19999694824</ele>
        <time>2024-05-21T09:32:21.000Z</time>
      </trkpt>
      <trkpt lat="45.1493" lon="4.821">
        <ele>126.19999694824</ele>
        <time>2024-05-21T09:32:22.000Z</time>
      </trkpt>
      <trkpt lat="45.14926" lon="4.82096">
        <ele>126.19999694824</ele>
        <time>2024-05-21T09:32:23.000Z</time>
      </trkpt>
      <trkpt lat="45.14919" lon="4.8209">
        <ele>126.19999694824</ele>
        <time>2024-05-21T09:32:24.000Z</time>
      </trkpt>
      <trkpt lat="45.14914" lon="4.82086">
        <ele>126.19999694824</ele>
        <time>2024-05-21T09:32:25.000Z</time>
      </trkpt>
      <trkpt lat="45.14908" lon="4.82081">
        <ele>126.19999694824</ele>
        <time>2024-05-21T09:32:26.000Z</time>
      </trkpt>
      <trkpt lat="45.14903" lon="4.82077">
        <ele>126.19999694824</ele>
        <time>2024-05-21T09:32:27.000Z</time>
      </trkpt>
      <trkpt lat="45.14899" lon="4.82073">
        <ele>126.19999694824</ele>
        <time>2024-05-21T09:32:28.000Z</time>
      </trkpt>
      <trkpt lat="45.14894" lon="4.82069">
        <ele>126.19999694824</ele>
        <time>2024-05-21T09:32:29.000Z</time>
      </trkpt>
      <trkpt lat="45.14889" lon="4.82064">
        <ele>126.19999694824</ele>
        <time>2024-05-21T09:32:30.000Z</time>
      </trkpt>
      <trkpt lat="45.14886" lon="4.82061">
        <ele>126.19999694824</ele>
        <time>2024-05-21T09:32:31.000Z</time>
      </trkpt>
      <trkpt lat="45.1488" lon="4.82055">
        <ele>126.19999694824</ele>
        <time>2024-05-21T09:32:32.000Z</time>
      </trkpt>
      <trkpt lat="45.14875" lon="4.8205">
        <ele>126.19999694824</ele>
        <time>2024-05-21T09:32:33.000Z</time>
      </trkpt>
      <trkpt lat="45.1487" lon="4.82044">
        <ele>126.40000152588</ele>
        <time>2024-05-21T09:32:34.000Z</time>
      </trkpt>
      <trkpt lat="45.14865" lon="4.8204">
        <ele>126.40000152588</ele>
        <time>2024-05-21T09:32:35.000Z</time>
      </trkpt>
      <trkpt lat="45.14861" lon="4.82036">
        <ele>126.40000152588</ele>
        <time>2024-05-21T09:32:36.000Z</time>
      </trkpt>
      <trkpt lat="45.14856" lon="4.82031">
        <ele>126.40000152588</ele>
        <time>2024-05-21T09:32:37.000Z</time>
      </trkpt>
      <trkpt lat="45.14851" lon="4.82026">
        <ele>126.40000152588</ele>
        <time>2024-05-21T09:32:38.000Z</time>
      </trkpt>
      <trkpt lat="45.14846" lon="4.82022">
        <ele>126.59999847412</ele>
        <time>2024-05-21T09:32:39.000Z</time>
      </trkpt>
      <trkpt lat="45.14841" lon="4.82017">
        <ele>126.59999847412</ele>
        <time>2024-05-21T09:32:40.000Z</time>
      </trkpt>
      <trkpt lat="45.14836" lon="4.82011">
        <ele>126.59999847412</ele>
        <time>2024-05-21T09:32:41.000Z</time>
      </trkpt>
      <trkpt lat="45.14832" lon="4.82008">
        <ele>126.59999847412</ele>
        <time>2024-05-21T09:32:42.000Z</time>
      </trkpt>
      <trkpt lat="45.14827" lon="4.82003">
        <ele>126.59999847412</ele>
        <time>2024-05-21T09:32:43.000Z</time>
      </trkpt>
      <trkpt lat="45.14822" lon="4.81999">
        <ele>126.59999847412</ele>
        <time>2024-05-21T09:32:44.000Z</time>
      </trkpt>
      <trkpt lat="45.14816" lon="4.81993">
        <ele>126.59999847412</ele>
        <time>2024-05-21T09:32:45.000Z</time>
      </trkpt>
      <trkpt lat="45.14812" lon="4.81989">
        <ele>126.59999847412</ele>
        <time>2024-05-21T09:32:46.000Z</time>
      </trkpt>
      <trkpt lat="45.14807" lon="4.81985">
        <ele>126.59999847412</ele>
        <time>2024-05-21T09:32:47.000Z</time>
      </trkpt>
      <trkpt lat="45.14803" lon="4.8198">
        <ele>126.59999847412</ele>
        <time>2024-05-21T09:32:48.000Z</time>
      </trkpt>
      <trkpt lat="45.14798" lon="4.81975">
        <ele>126.40000152588</ele>
        <time>2024-05-21T09:32:49.000Z</time>
      </trkpt>
      <trkpt lat="45.14792" lon="4.81969">
        <ele>126.40000152588</ele>
        <time>2024-05-21T09:32:50.000Z</time>
      </trkpt>
      <trkpt lat="45.14787" lon="4.81965">
        <ele>126.40000152588</ele>
        <time>2024-05-21T09:32:51.000Z</time>
      </trkpt>
      <trkpt lat="45.14782" lon="4.8196">
        <ele>126.40000152588</ele>
        <time>2024-05-21T09:32:52.000Z</time>
      </trkpt>
      <trkpt lat="45.14777" lon="4.81955">
        <ele>126.40000152588</ele>
        <time>2024-05-21T09:32:53.000Z</time>
      </trkpt>
      <trkpt lat="45.14772" lon="4.8195">
        <ele>126.40000152588</ele>
        <time>2024-05-21T09:32:54.000Z</time>
      </trkpt>
      <trkpt lat="45.14767" lon="4.81945">
        <ele>126.40000152588</ele>
        <time>2024-05-21T09:32:55.000Z</time>
      </trkpt>
      <trkpt lat="45.14761" lon="4.8194">
        <ele>126.40000152588</ele>
        <time>2024-05-21T09:32:56.000Z</time>
      </trkpt>
      <trkpt lat="45.14757" lon="4.81935">
        <ele>126.40000152588</ele>
        <time>2024-05-21T09:32:57.000Z</time>
      </trkpt>
      <trkpt lat="45.14751" lon="4.8193">
        <ele>126.19999694824</ele>
        <time>2024-05-21T09:32:58.000Z</time>
      </trkpt>
      <trkpt lat="45.14746" lon="4.81925">
        <ele>126.19999694824</ele>
        <time>2024-05-21T09:32:59.000Z</time>
      </trkpt>
      <trkpt lat="45.14741" lon="4.8192">
        <ele>126.19999694824</ele>
        <time>2024-05-21T09:33:00.000Z</time>
      </trkpt>
      <trkpt lat="45.14736" lon="4.81915">
        <ele>126.19999694824</ele>
        <time>2024-05-21T09:33:01.000Z</time>
      </trkpt>
      <trkpt lat="45.14731" lon="4.81909">
        <ele>126.19999694824</ele>
        <time>2024-05-21T09:33:02.000Z</time>
      </trkpt>
      <trkpt lat="45.14726" lon="4.81905">
        <ele>126.19999694824</ele>
        <time>2024-05-21T09:33:03.000Z</time>
      </trkpt>
      <trkpt lat="45.14722" lon="4.81901">
        <ele>126.19999694824</ele>
        <time>2024-05-21T09:33:04.000Z</time>
      </trkpt>
      <trkpt lat="45.14716" lon="4.81896">
        <ele>126.19999694824</ele>
        <time>2024-05-21T09:33:05.000Z</time>
      </trkpt>
      <trkpt lat="45.14712" lon="4.81891">
        <ele>126.19999694824</ele>
        <time>2024-05-21T09:33:06.000Z</time>
      </trkpt>
      <trkpt lat="45.14708" lon="4.81887">
        <ele>126.19999694824</ele>
        <time>2024-05-21T09:33:07.000Z</time>
      </trkpt>
      <trkpt lat="45.14703" lon="4.81883">
        <ele>126.19999694824</ele>
        <time>2024-05-21T09:33:08.000Z</time>
      </trkpt>
      <trkpt lat="45.14697" lon="4.81877">
        <ele>126.19999694824</ele>
        <time>2024-05-21T09:33:09.000Z</time>
      </trkpt>
      <trkpt lat="45.14693" lon="4.81873">
        <ele>126.19999694824</ele>
        <time>2024-05-21T09:33:10.000Z</time>
      </trkpt>
      <trkpt lat="45.14688" lon="4.81868">
        <ele>126.19999694824</ele>
        <time>2024-05-21T09:33:11.000Z</time>
      </trkpt>
      <trkpt lat="45.14683" lon="4.81863">
        <ele>126.19999694824</ele>
        <time>2024-05-21T09:33:12.000Z</time>
      </trkpt>
      <trkpt lat="45.14677" lon="4.81857">
        <ele>126.19999694824</ele>
        <time>2024-05-21T09:33:13.000Z</time>
      </trkpt>
      <trkpt lat="45.14673" lon="4.81852">
        <ele>126.19999694824</ele>
        <time>2024-05-21T09:33:14.000Z</time>
      </trkpt>
      <trkpt lat="45.14667" lon="4.81846">
        <ele>126.19999694824</ele>
        <time>2024-05-21T09:33:15.000Z</time>
      </trkpt>
      <trkpt lat="45.14664" lon="4.81841">
        <ele>126.19999694824</ele>
        <time>2024-05-21T09:33:16.000Z</time>
      </trkpt>
      <trkpt lat="45.14658" lon="4.81835">
        <ele>126.19999694824</ele>
        <time>2024-05-21T09:33:17.000Z</time>
      </trkpt>
      <trkpt lat="45.14654" lon="4.8183">
        <ele>126.19999694824</ele>
        <time>2024-05-21T09:33:18.000Z</time>
      </trkpt>
      <trkpt lat="45.14648" lon="4.81824">
        <ele>126</ele>
        <time>2024-05-21T09:33:19.000Z</time>
      </trkpt>
      <trkpt lat="45.14644" lon="4.8182">
        <ele>126</ele>
        <time>2024-05-21T09:33:20.000Z</time>
      </trkpt>
      <trkpt lat="45.14639" lon="4.81815">
        <ele>126</ele>
        <time>2024-05-21T09:33:21.000Z</time>
      </trkpt>
      <trkpt lat="45.14633" lon="4.8181">
        <ele>126</ele>
        <time>2024-05-21T09:33:22.000Z</time>
      </trkpt>
      <trkpt lat="45.14627" lon="4.81804">
        <ele>126</ele>
        <time>2024-05-21T09:33:23.000Z</time>
      </trkpt>
      <trkpt lat="45.14623" lon="4.81799">
        <ele>126</ele>
        <time>2024-05-21T09:33:24.000Z</time>
      </trkpt>
      <trkpt lat="45.14619" lon="4.81795">
        <ele>126</ele>
        <time>2024-05-21T09:33:25.000Z</time>
      </trkpt>
      <trkpt lat="45.14614" lon="4.8179">
        <ele>126</ele>
        <time>2024-05-21T09:33:26.000Z</time>
      </trkpt>
      <trkpt lat="45.14608" lon="4.81785">
        <ele>125.80000305176</ele>
        <time>2024-05-21T09:33:27.000Z</time>
      </trkpt>
      <trkpt lat="45.14604" lon="4.81779">
        <ele>125.80000305176</ele>
        <time>2024-05-21T09:33:28.000Z</time>
      </trkpt>
      <trkpt lat="45.14597" lon="4.81773">
        <ele>125.80000305176</ele>
        <time>2024-05-21T09:33:29.000Z</time>
      </trkpt>
      <trkpt lat="45.14591" lon="4.81767">
        <ele>125.80000305176</ele>
        <time>2024-05-21T09:33:30.000Z</time>
      </trkpt>
      <trkpt lat="45.14586" lon="4.81762">
        <ele>125.80000305176</ele>
        <time>2024-05-21T09:33:31.000Z</time>
      </trkpt>
      <trkpt lat="45.14582" lon="4.81758">
        <ele>125.80000305176</ele>
        <time>2024-05-21T09:33:32.000Z</time>
      </trkpt>
      <trkpt lat="45.14578" lon="4.81754">
        <ele>125.80000305176</ele>
        <time>2024-05-21T09:33:33.000Z</time>
      </trkpt>
      <trkpt lat="45.14573" lon="4.81749">
        <ele>125.80000305176</ele>
        <time>2024-05-21T09:33:34.000Z</time>
      </trkpt>
      <trkpt lat="45.14566" lon="4.81742">
        <ele>125.80000305176</ele>
        <time>2024-05-21T09:33:35.000Z</time>
      </trkpt>
      <trkpt lat="45.1456" lon="4.81737">
        <ele>125.59999847412</ele>
        <time>2024-05-21T09:33:36.000Z</time>
      </trkpt>
      <trkpt lat="45.14555" lon="4.81732">
        <ele>125.59999847412</ele>
        <time>2024-05-21T09:33:37.000Z</time>
      </trkpt>
      <trkpt lat="45.1455" lon="4.81726">
        <ele>125.59999847412</ele>
        <time>2024-05-21T09:33:38.000Z</time>
      </trkpt>
      <trkpt lat="45.14545" lon="4.81721">
        <ele>125.59999847412</ele>
        <time>2024-05-21T09:33:39.000Z</time>
      </trkpt>
      <trkpt lat="45.1454" lon="4.81716">
        <ele>125.59999847412</ele>
        <time>2024-05-21T09:33:40.000Z</time>
      </trkpt>
      <trkpt lat="45.14534" lon="4.8171">
        <ele>125.40000152588</ele>
        <time>2024-05-21T09:33:41.000Z</time>
      </trkpt>
      <trkpt lat="45.1453" lon="4.81706">
        <ele>125.40000152588</ele>
        <time>2024-05-21T09:33:42.000Z</time>
      </trkpt>
      <trkpt lat="45.14525" lon="4.81701">
        <ele>125.40000152588</ele>
        <time>2024-05-21T09:33:43.000Z</time>
      </trkpt>
      <trkpt lat="45.14521" lon="4.81696">
        <ele>125.40000152588</ele>
        <time>2024-05-21T09:33:44.000Z</time>
      </trkpt>
      <trkpt lat="45.14515" lon="4.81689">
        <ele>125.40000152588</ele>
        <time>2024-05-21T09:33:45.000Z</time>
      </trkpt>
      <trkpt lat="45.1451" lon="4.81684">
        <ele>125.19999694824</ele>
        <time>2024-05-21T09:33:46.000Z</time>
      </trkpt>
      <trkpt lat="45.14505" lon="4.81678">
        <ele>125.19999694824</ele>
        <time>2024-05-21T09:33:47.000Z</time>
      </trkpt>
      <trkpt lat="45.145" lon="4.81673">
        <ele>125.19999694824</ele>
        <time>2024-05-21T09:33:48.000Z</time>
      </trkpt>
      <trkpt lat="45.14496" lon="4.81669">
        <ele>125.19999694824</ele>
        <time>2024-05-21T09:33:49.000Z</time>
      </trkpt>
      <trkpt lat="45.1449" lon="4.81662">
        <ele>125.19999694824</ele>
        <time>2024-05-21T09:33:50.000Z</time>
      </trkpt>
      <trkpt lat="45.14486" lon="4.81658">
        <ele>125.19999694824</ele>
        <time>2024-05-21T09:33:51.000Z</time>
      </trkpt>
      <trkpt lat="45.14481" lon="4.81653">
        <ele>125.19999694824</ele>
        <time>2024-05-21T09:33:52.000Z</time>
      </trkpt>
      <trkpt lat="45.14477" lon="4.81648">
        <ele>125.40000152588</ele>
        <time>2024-05-21T09:33:53.000Z</time>
      </trkpt>
      <trkpt lat="45.14474" lon="4.81645">
        <ele>125.59999847412</ele>
        <time>2024-05-21T09:33:54.000Z</time>
      </trkpt>
      <trkpt lat="45.14469" lon="4.8164">
        <ele>125.59999847412</ele>
        <time>2024-05-21T09:33:55.000Z</time>
      </trkpt>
      <trkpt lat="45.14465" lon="4.81635">
        <ele>125.80000305176</ele>
        <time>2024-05-21T09:33:56.000Z</time>
      </trkpt>
      <trkpt lat="45.14461" lon="4.81632">
        <ele>125.80000305176</ele>
        <time>2024-05-21T09:33:57.000Z</time>
      </trkpt>
      <trkpt lat="45.14456" lon="4.81626">
        <ele>125.80000305176</ele>
        <time>2024-05-21T09:33:58.000Z</time>
      </trkpt>
      <trkpt lat="45.14452" lon="4.81621">
        <ele>125.80000305176</ele>
        <time>2024-05-21T09:33:59.000Z</time>
      </trkpt>
      <trkpt lat="45.14447" lon="4.81618">
        <ele>125.80000305176</ele>
        <time>2024-05-21T09:34:00.000Z</time>
      </trkpt>
      <trkpt lat="45.14442" lon="4.81613">
        <ele>125.80000305176</ele>
        <time>2024-05-21T09:34:01.000Z</time>
      </trkpt>
      <trkpt lat="45.14438" lon="4.81609">
        <ele>125.80000305176</ele>
        <time>2024-05-21T09:34:02.000Z</time>
      </trkpt>
      <trkpt lat="45.14433" lon="4.81604">
        <ele>125.80000305176</ele>
        <time>2024-05-21T09:34:03.000Z</time>
      </trkpt>
      <trkpt lat="45.14428" lon="4.816">
        <ele>125.80000305176</ele>
        <time>2024-05-21T09:34:04.000Z</time>
      </trkpt>
      <trkpt lat="45.14424" lon="4.81596">
        <ele>125.80000305176</ele>
        <time>2024-05-21T09:34:05.000Z</time>
      </trkpt>
      <trkpt lat="45.14419" lon="4.81592">
        <ele>125.80000305176</ele>
        <time>2024-05-21T09:34:06.000Z</time>
      </trkpt>
      <trkpt lat="45.14414" lon="4.81588">
        <ele>125.59999847412</ele>
        <time>2024-05-21T09:34:07.000Z</time>
      </trkpt>
      <trkpt lat="45.14409" lon="4.81583">
        <ele>125.59999847412</ele>
        <time>2024-05-21T09:34:08.000Z</time>
      </trkpt>
      <trkpt lat="45.14403" lon="4.81577">
        <ele>125.59999847412</ele>
        <time>2024-05-21T09:34:09.000Z</time>
      </trkpt>
      <trkpt lat="45.14399" lon="4.81573">
        <ele>125.40000152588</ele>
        <time>2024-05-21T09:34:10.000Z</time>
      </trkpt>
      <trkpt lat="45.14393" lon="4.81568">
        <ele>125.40000152588</ele>
        <time>2024-05-21T09:34:11.000Z</time>
      </trkpt>
      <trkpt lat="45.14389" lon="4.81564">
        <ele>125.40000152588</ele>
        <time>2024-05-21T09:34:12.000Z</time>
      </trkpt>
      <trkpt lat="45.14384" lon="4.81559">
        <ele>125.40000152588</ele>
        <time>2024-05-21T09:34:13.000Z</time>
      </trkpt>
      <trkpt lat="45.14379" lon="4.81554">
        <ele>125.40000152588</ele>
        <time>2024-05-21T09:34:14.000Z</time>
      </trkpt>
      <trkpt lat="45.14374" lon="4.8155">
        <ele>125.19999694824</ele>
        <time>2024-05-21T09:34:15.000Z</time>
      </trkpt>
      <trkpt lat="45.14369" lon="4.81545">
        <ele>125.19999694824</ele>
        <time>2024-05-21T09:34:16.000Z</time>
      </trkpt>
      <trkpt lat="45.14363" lon="4.81539">
        <ele>125.19999694824</ele>
        <time>2024-05-21T09:34:17.000Z</time>
      </trkpt>
      <trkpt lat="45.14359" lon="4.81535">
        <ele>125.40000152588</ele>
        <time>2024-05-21T09:34:18.000Z</time>
      </trkpt>
      <trkpt lat="45.14354" lon="4.81528">
        <ele>125.40000152588</ele>
        <time>2024-05-21T09:34:19.000Z</time>
      </trkpt>
      <trkpt lat="45.14349" lon="4.81523">
        <ele>125.40000152588</ele>
        <time>2024-05-21T09:34:20.000Z</time>
      </trkpt>
      <trkpt lat="45.14345" lon="4.81519">
        <ele>125.40000152588</ele>
        <time>2024-05-21T09:34:21.000Z</time>
      </trkpt>
      <trkpt lat="45.1434" lon="4.81514">
        <ele>125.40000152588</ele>
        <time>2024-05-21T09:34:22.000Z</time>
      </trkpt>
      <trkpt lat="45.14336" lon="4.8151">
        <ele>125.40000152588</ele>
        <time>2024-05-21T09:34:23.000Z</time>
      </trkpt>
      <trkpt lat="45.1433" lon="4.81505">
        <ele>125.40000152588</ele>
        <time>2024-05-21T09:34:24.000Z</time>
      </trkpt>
      <trkpt lat="45.14325" lon="4.815">
        <ele>125.40000152588</ele>
        <time>2024-05-21T09:34:25.000Z</time>
      </trkpt>
      <trkpt lat="45.14321" lon="4.81496">
        <ele>125.40000152588</ele>
        <time>2024-05-21T09:34:26.000Z</time>
      </trkpt>
      <trkpt lat="45.14315" lon="4.81489">
        <ele>125.40000152588</ele>
        <time>2024-05-21T09:34:27.000Z</time>
      </trkpt>
      <trkpt lat="45.1431" lon="4.81484">
        <ele>125.40000152588</ele>
        <time>2024-05-21T09:34:28.000Z</time>
      </trkpt>
      <trkpt lat="45.14305" lon="4.81479">
        <ele>125.40000152588</ele>
        <time>2024-05-21T09:34:29.000Z</time>
      </trkpt>
      <trkpt lat="45.14302" lon="4.81474">
        <ele>125.40000152588</ele>
        <time>2024-05-21T09:34:30.000Z</time>
      </trkpt>
      <trkpt lat="45.14296" lon="4.81467">
        <ele>125.40000152588</ele>
        <time>2024-05-21T09:34:31.000Z</time>
      </trkpt>
      <trkpt lat="45.14292" lon="4.81463">
        <ele>125.40000152588</ele>
        <time>2024-05-21T09:34:32.000Z</time>
      </trkpt>
      <trkpt lat="45.14288" lon="4.81458">
        <ele>125.40000152588</ele>
        <time>2024-05-21T09:34:33.000Z</time>
      </trkpt>
      <trkpt lat="45.14281" lon="4.81451">
        <ele>125.40000152588</ele>
        <time>2024-05-21T09:34:34.000Z</time>
      </trkpt>
      <trkpt lat="45.14276" lon="4.81445">
        <ele>125.40000152588</ele>
        <time>2024-05-21T09:34:35.000Z</time>
      </trkpt>
      <trkpt lat="45.14273" lon="4.81441">
        <ele>125.40000152588</ele>
        <time>2024-05-21T09:34:36.000Z</time>
      </trkpt>
      <trkpt lat="45.14268" lon="4.81436">
        <ele>125.40000152588</ele>
        <time>2024-05-21T09:34:37.000Z</time>
      </trkpt>
      <trkpt lat="45.14264" lon="4.81432">
        <ele>125.40000152588</ele>
        <time>2024-05-21T09:34:38.000Z</time>
      </trkpt>
      <trkpt lat="45.14259" lon="4.81426">
        <ele>125.40000152588</ele>
        <time>2024-05-21T09:34:39.000Z</time>
      </trkpt>
      <trkpt lat="45.14253" lon="4.81421">
        <ele>125.40000152588</ele>
        <time>2024-05-21T09:34:40.000Z</time>
      </trkpt>
      <trkpt lat="45.14249" lon="4.81415">
        <ele>125.80000305176</ele>
        <time>2024-05-21T09:34:41.000Z</time>
      </trkpt>
      <trkpt lat="45.14245" lon="4.81411">
        <ele>125.80000305176</ele>
        <time>2024-05-21T09:34:42.000Z</time>
      </trkpt>
      <trkpt lat="45.14241" lon="4.81406">
        <ele>126</ele>
        <time>2024-05-21T09:34:43.000Z</time>
      </trkpt>
      <trkpt lat="45.14237" lon="4.81402">
        <ele>126.19999694824</ele>
        <time>2024-05-21T09:34:44.000Z</time>
      </trkpt>
      <trkpt lat="45.14233" lon="4.81398">
        <ele>126.40000152588</ele>
        <time>2024-05-21T09:34:45.000Z</time>
      </trkpt>
      <trkpt lat="45.1423" lon="4.81395">
        <ele>126.59999847412</ele>
        <time>2024-05-21T09:34:46.000Z</time>
      </trkpt>
      <trkpt lat="45.14226" lon="4.8139">
        <ele>126.59999847412</ele>
        <time>2024-05-21T09:34:47.000Z</time>
      </trkpt>
      <trkpt lat="45.14222" lon="4.81386">
        <ele>127</ele>
        <time>2024-05-21T09:34:48.000Z</time>
      </trkpt>
      <trkpt lat="45.14217" lon="4.81381">
        <ele>127</ele>
        <time>2024-05-21T09:34:49.000Z</time>
      </trkpt>
      <trkpt lat="45.14214" lon="4.81377">
        <ele>127</ele>
        <time>2024-05-21T09:34:50.000Z</time>
      </trkpt>
      <trkpt lat="45.1421" lon="4.81372">
        <ele>127</ele>
        <time>2024-05-21T09:34:51.000Z</time>
      </trkpt>
      <trkpt lat="45.14206" lon="4.81368">
        <ele>127.40000152588</ele>
        <time>2024-05-21T09:34:52.000Z</time>
      </trkpt>
      <trkpt lat="45.14203" lon="4.81364">
        <ele>127.40000152588</ele>
        <time>2024-05-21T09:34:53.000Z</time>
      </trkpt>
      <trkpt lat="45.14199" lon="4.81359">
        <ele>127.59999847412</ele>
        <time>2024-05-21T09:34:54.000Z</time>
      </trkpt>
      <trkpt lat="45.14196" lon="4.81354">
        <ele>127.59999847412</ele>
        <time>2024-05-21T09:34:55.000Z</time>
      </trkpt>
      <trkpt lat="45.14192" lon="4.81348">
        <ele>127.59999847412</ele>
        <time>2024-05-21T09:34:56.000Z</time>
      </trkpt>
      <trkpt lat="45.1419" lon="4.81342">
        <ele>127.59999847412</ele>
        <time>2024-05-21T09:34:57.000Z</time>
      </trkpt>
      <trkpt lat="45.14189" lon="4.81334">
        <ele>127.59999847412</ele>
        <time>2024-05-21T09:34:58.000Z</time>
      </trkpt>
      <trkpt lat="45.14187" lon="4.81327">
        <ele>127.59999847412</ele>
        <time>2024-05-21T09:34:59.000Z</time>
      </trkpt>
      <trkpt lat="45.14184" lon="4.81318">
        <ele>127</ele>
        <time>2024-05-21T09:35:00.000Z</time>
      </trkpt>
      <trkpt lat="45.14179" lon="4.81309">
        <ele>126.40000152588</ele>
        <time>2024-05-21T09:35:01.000Z</time>
      </trkpt>
      <trkpt lat="45.14172" lon="4.81301">
        <ele>125.40000152588</ele>
        <time>2024-05-21T09:35:02.000Z</time>
      </trkpt>
      <trkpt lat="45.14166" lon="4.81294">
        <ele>124</ele>
        <time>2024-05-21T09:35:03.000Z</time>
      </trkpt>
      <trkpt lat="45.14159" lon="4.81288">
        <ele>123</ele>
        <time>2024-05-21T09:35:04.000Z</time>
      </trkpt>
      <trkpt lat="45.14153" lon="4.81282">
        <ele>122.80000305176</ele>
        <time>2024-05-21T09:35:05.000Z</time>
      </trkpt>
      <trkpt lat="45.14147" lon="4.81275">
        <ele>122.80000305176</ele>
        <time>2024-05-21T09:35:06.000Z</time>
      </trkpt>
      <trkpt lat="45.14143" lon="4.81269">
        <ele>122.80000305176</ele>
        <time>2024-05-21T09:35:07.000Z</time>
      </trkpt>
      <trkpt lat="45.14141" lon="4.81264">
        <ele>122.80000305176</ele>
        <time>2024-05-21T09:35:08.000Z</time>
      </trkpt>
      <trkpt lat="45.14137" lon="4.81257">
        <ele>122.80000305176</ele>
        <time>2024-05-21T09:35:09.000Z</time>
      </trkpt>
      <trkpt lat="45.14133" lon="4.81253">
        <ele>123.19999694824</ele>
        <time>2024-05-21T09:35:10.000Z</time>
      </trkpt>
      <trkpt lat="45.1413" lon="4.81252">
        <ele>123.40000152588</ele>
        <time>2024-05-21T09:35:11.000Z</time>
      </trkpt>
      <trkpt lat="45.14127" lon="4.81252">
        <ele>123.40000152588</ele>
        <time>2024-05-21T09:35:12.000Z</time>
      </trkpt>
      <trkpt lat="45.14124" lon="4.81253">
        <ele>124.40000152588</ele>
        <time>2024-05-21T09:35:13.000Z</time>
      </trkpt>
      <trkpt lat="45.14122" lon="4.81252">
        <ele>125</ele>
        <time>2024-05-21T09:35:14.000Z</time>
      </trkpt>
      <trkpt lat="45.1412" lon="4.81252">
        <ele>125.80000305176</ele>
        <time>2024-05-21T09:35:15.000Z</time>
      </trkpt>
      <trkpt lat="45.14118" lon="4.81251">
        <ele>126.40000152588</ele>
        <time>2024-05-21T09:35:16.000Z</time>
      </trkpt>
      <trkpt lat="45.14116" lon="4.8125">
        <ele>127</ele>
        <time>2024-05-21T09:35:17.000Z</time>
      </trkpt>
      <trkpt lat="45.14114" lon="4.81249">
        <ele>127.40000152588</ele>
        <time>2024-05-21T09:35:18.000Z</time>
      </trkpt>
      <trkpt lat="45.14113" lon="4.81247">
        <ele>127.80000305176</ele>
        <time>2024-05-21T09:35:19.000Z</time>
      </trkpt>
      <trkpt lat="45.14112" lon="4.81244">
        <ele>128.19999694824</ele>
        <time>2024-05-21T09:35:20.000Z</time>
      </trkpt>
      <trkpt lat="45.1411" lon="4.81242">
        <ele>128.60000610352</ele>
        <time>2024-05-21T09:35:21.000Z</time>
      </trkpt>
      <trkpt lat="45.14108" lon="4.81239">
        <ele>129</ele>
        <time>2024-05-21T09:35:22.000Z</time>
      </trkpt>
      <trkpt lat="45.14106" lon="4.81236">
        <ele>129.19999694824</ele>
        <time>2024-05-21T09:35:23.000Z</time>
      </trkpt>
      <trkpt lat="45.14104" lon="4.81234">
        <ele>129.39999389648</ele>
        <time>2024-05-21T09:35:24.000Z</time>
      </trkpt>
      <trkpt lat="45.14101" lon="4.81231">
        <ele>129.60000610352</ele>
        <time>2024-05-21T09:35:25.000Z</time>
      </trkpt>
      <trkpt lat="45.14099" lon="4.81229">
        <ele>129.60000610352</ele>
        <time>2024-05-21T09:35:26.000Z</time>
      </trkpt>
      <trkpt lat="45.14096" lon="4.81226">
        <ele>129.80000305176</ele>
        <time>2024-05-21T09:35:27.000Z</time>
      </trkpt>
      <trkpt lat="45.14093" lon="4.81223">
        <ele>129.80000305176</ele>
        <time>2024-05-21T09:35:28.000Z</time>
      </trkpt>
      <trkpt lat="45.1409" lon="4.8122">
        <ele>129.80000305176</ele>
        <time>2024-05-21T09:35:29.000Z</time>
      </trkpt>
      <trkpt lat="45.14087" lon="4.81217">
        <ele>129.80000305176</ele>
        <time>2024-05-21T09:35:30.000Z</time>
      </trkpt>
      <trkpt lat="45.14084" lon="4.81213">
        <ele>129.80000305176</ele>
        <time>2024-05-21T09:35:31.000Z</time>
      </trkpt>
      <trkpt lat="45.14081" lon="4.81209">
        <ele>129.80000305176</ele>
        <time>2024-05-21T09:35:32.000Z</time>
      </trkpt>
      <trkpt lat="45.14078" lon="4.81206">
        <ele>129.80000305176</ele>
        <time>2024-05-21T09:35:33.000Z</time>
      </trkpt>
      <trkpt lat="45.14075" lon="4.81202">
        <ele>129.80000305176</ele>
        <time>2024-05-21T09:35:34.000Z</time>
      </trkpt>
      <trkpt lat="45.14072" lon="4.81197">
        <ele>129.80000305176</ele>
        <time>2024-05-21T09:35:35.000Z</time>
      </trkpt>
      <trkpt lat="45.14069" lon="4.81193">
        <ele>129.80000305176</ele>
        <time>2024-05-21T09:35:36.000Z</time>
      </trkpt>
      <trkpt lat="45.14065" lon="4.81188">
        <ele>129.80000305176</ele>
        <time>2024-05-21T09:35:37.000Z</time>
      </trkpt>
      <trkpt lat="45.14062" lon="4.81183">
        <ele>129.80000305176</ele>
        <time>2024-05-21T09:35:38.000Z</time>
      </trkpt>
      <trkpt lat="45.14059" lon="4.81178">
        <ele>129.80000305176</ele>
        <time>2024-05-21T09:35:39.000Z</time>
      </trkpt>
      <trkpt lat="45.14055" lon="4.81172">
        <ele>129.80000305176</ele>
        <time>2024-05-21T09:35:40.000Z</time>
      </trkpt>
      <trkpt lat="45.14051" lon="4.81167">
        <ele>129.80000305176</ele>
        <time>2024-05-21T09:35:41.000Z</time>
      </trkpt>
      <trkpt lat="45.14047" lon="4.81162">
        <ele>129.80000305176</ele>
        <time>2024-05-21T09:35:42.000Z</time>
      </trkpt>
      <trkpt lat="45.14043" lon="4.81157">
        <ele>129.80000305176</ele>
        <time>2024-05-21T09:35:43.000Z</time>
      </trkpt>
      <trkpt lat="45.1404" lon="4.81153">
        <ele>129.80000305176</ele>
        <time>2024-05-21T09:35:44.000Z</time>
      </trkpt>
      <trkpt lat="45.14036" lon="4.81148">
        <ele>129.80000305176</ele>
        <time>2024-05-21T09:35:45.000Z</time>
      </trkpt>
      <trkpt lat="45.14032" lon="4.81143">
        <ele>129.80000305176</ele>
        <time>2024-05-21T09:35:46.000Z</time>
      </trkpt>
      <trkpt lat="45.14029" lon="4.81138">
        <ele>129.80000305176</ele>
        <time>2024-05-21T09:35:47.000Z</time>
      </trkpt>
      <trkpt lat="45.14025" lon="4.81133">
        <ele>129.80000305176</ele>
        <time>2024-05-21T09:35:48.000Z</time>
      </trkpt>
      <trkpt lat="45.14021" lon="4.81127">
        <ele>129.60000610352</ele>
        <time>2024-05-21T09:35:49.000Z</time>
      </trkpt>
      <trkpt lat="45.14017" lon="4.81123">
        <ele>129.60000610352</ele>
        <time>2024-05-21T09:35:50.000Z</time>
      </trkpt>
      <trkpt lat="45.14013" lon="4.81118">
        <ele>129.60000610352</ele>
        <time>2024-05-21T09:35:51.000Z</time>
      </trkpt>
      <trkpt lat="45.14009" lon="4.81112">
        <ele>129.60000610352</ele>
        <time>2024-05-21T09:35:52.000Z</time>
      </trkpt>
      <trkpt lat="45.14004" lon="4.81106">
        <ele>129.60000610352</ele>
        <time>2024-05-21T09:35:53.000Z</time>
      </trkpt>
      <trkpt lat="45.13999" lon="4.811">
        <ele>129.60000610352</ele>
        <time>2024-05-21T09:35:54.000Z</time>
      </trkpt>
      <trkpt lat="45.13995" lon="4.81094">
        <ele>129.60000610352</ele>
        <time>2024-05-21T09:35:55.000Z</time>
      </trkpt>
      <trkpt lat="45.13991" lon="4.81088">
        <ele>129.60000610352</ele>
        <time>2024-05-21T09:35:56.000Z</time>
      </trkpt>
      <trkpt lat="45.13987" lon="4.81083">
        <ele>129.39999389648</ele>
        <time>2024-05-21T09:35:57.000Z</time>
      </trkpt>
      <trkpt lat="45.13983" lon="4.81077">
        <ele>129.39999389648</ele>
        <time>2024-05-21T09:35:58.000Z</time>
      </trkpt>
      <trkpt lat="45.13979" lon="4.81071">
        <ele>129.39999389648</ele>
        <time>2024-05-21T09:35:59.000Z</time>
      </trkpt>
      <trkpt lat="45.13975" lon="4.81065">
        <ele>129.39999389648</ele>
        <time>2024-05-21T09:36:00.000Z</time>
      </trkpt>
      <trkpt lat="45.13972" lon="4.81059">
        <ele>129.39999389648</ele>
        <time>2024-05-21T09:36:01.000Z</time>
      </trkpt>
      <trkpt lat="45.13968" lon="4.81053">
        <ele>129.39999389648</ele>
        <time>2024-05-21T09:36:02.000Z</time>
      </trkpt>
      <trkpt lat="45.13963" lon="4.81046">
        <ele>129.39999389648</ele>
        <time>2024-05-21T09:36:03.000Z</time>
      </trkpt>
      <trkpt lat="45.13959" lon="4.81041">
        <ele>129.39999389648</ele>
        <time>2024-05-21T09:36:04.000Z</time>
      </trkpt>
      <trkpt lat="45.13955" lon="4.81036">
        <ele>129.39999389648</ele>
        <time>2024-05-21T09:36:05.000Z</time>
      </trkpt>
      <trkpt lat="45.1395" lon="4.81029">
        <ele>129.39999389648</ele>
        <time>2024-05-21T09:36:06.000Z</time>
      </trkpt>
      <trkpt lat="45.13946" lon="4.81024">
        <ele>129.39999389648</ele>
        <time>2024-05-21T09:36:07.000Z</time>
      </trkpt>
      <trkpt lat="45.13942" lon="4.81018">
        <ele>129.39999389648</ele>
        <time>2024-05-21T09:36:08.000Z</time>
      </trkpt>
      <trkpt lat="45.13938" lon="4.81012">
        <ele>129.19999694824</ele>
        <time>2024-05-21T09:36:09.000Z</time>
      </trkpt>
      <trkpt lat="45.13932" lon="4.81003">
        <ele>129.19999694824</ele>
        <time>2024-05-21T09:36:10.000Z</time>
      </trkpt>
      <trkpt lat="45.13929" lon="4.80998">
        <ele>129</ele>
        <time>2024-05-21T09:36:11.000Z</time>
      </trkpt>
      <trkpt lat="45.13925" lon="4.80991">
        <ele>128.80000305176</ele>
        <time>2024-05-21T09:36:12.000Z</time>
      </trkpt>
      <trkpt lat="45.13921" lon="4.80986">
        <ele>128.80000305176</ele>
        <time>2024-05-21T09:36:13.000Z</time>
      </trkpt>
      <trkpt lat="45.13917" lon="4.8098">
        <ele>128.80000305176</ele>
        <time>2024-05-21T09:36:14.000Z</time>
      </trkpt>
      <trkpt lat="45.13913" lon="4.80974">
        <ele>128.80000305176</ele>
        <time>2024-05-21T09:36:15.000Z</time>
      </trkpt>
      <trkpt lat="45.1391" lon="4.80968">
        <ele>128.80000305176</ele>
        <time>2024-05-21T09:36:16.000Z</time>
      </trkpt>
      <trkpt lat="45.13906" lon="4.80962">
        <ele>128.80000305176</ele>
        <time>2024-05-21T09:36:17.000Z</time>
      </trkpt>
      <trkpt lat="45.13902" lon="4.80956">
        <ele>128.80000305176</ele>
        <time>2024-05-21T09:36:18.000Z</time>
      </trkpt>
      <trkpt lat="45.13898" lon="4.80949">
        <ele>128.80000305176</ele>
        <time>2024-05-21T09:36:19.000Z</time>
      </trkpt>
      <trkpt lat="45.13894" lon="4.80943">
        <ele>128.80000305176</ele>
        <time>2024-05-21T09:36:20.000Z</time>
      </trkpt>
      <trkpt lat="45.1389" lon="4.80937">
        <ele>128.80000305176</ele>
        <time>2024-05-21T09:36:21.000Z</time>
      </trkpt>
      <trkpt lat="45.13886" lon="4.80931">
        <ele>128.80000305176</ele>
        <time>2024-05-21T09:36:22.000Z</time>
      </trkpt>
      <trkpt lat="45.13883" lon="4.80925">
        <ele>129</ele>
        <time>2024-05-21T09:36:23.000Z</time>
      </trkpt>
      <trkpt lat="45.13878" lon="4.80916">
        <ele>129</ele>
        <time>2024-05-21T09:36:24.000Z</time>
      </trkpt>
      <trkpt lat="45.13874" lon="4.80909">
        <ele>129</ele>
        <time>2024-05-21T09:36:25.000Z</time>
      </trkpt>
      <trkpt lat="45.13872" lon="4.80905">
        <ele>129</ele>
        <time>2024-05-21T09:36:26.000Z</time>
      </trkpt>
      <trkpt lat="45.1387" lon="4.80898">
        <ele>129</ele>
        <time>2024-05-21T09:36:27.000Z</time>
      </trkpt>
      <trkpt lat="45.13868" lon="4.80891">
        <ele>128.80000305176</ele>
        <time>2024-05-21T09:36:28.000Z</time>
      </trkpt>
      <trkpt lat="45.13866" lon="4.80884">
        <ele>128.60000610352</ele>
        <time>2024-05-21T09:36:29.000Z</time>
      </trkpt>
      <trkpt lat="45.13865" lon="4.80876">
        <ele>128.60000610352</ele>
        <time>2024-05-21T09:36:30.000Z</time>
      </trkpt>
      <trkpt lat="45.13862" lon="4.80871">
        <ele>128.60000610352</ele>
        <time>2024-05-21T09:36:31.000Z</time>
      </trkpt>
      <trkpt lat="45.1386" lon="4.80867">
        <ele>128.60000610352</ele>
        <time>2024-05-21T09:36:32.000Z</time>
      </trkpt>
      <trkpt lat="45.13857" lon="4.80862">
        <ele>128.60000610352</ele>
        <time>2024-05-21T09:36:33.000Z</time>
      </trkpt>
      <trkpt lat="45.13853" lon="4.80855">
        <ele>128.60000610352</ele>
        <time>2024-05-21T09:36:34.000Z</time>
      </trkpt>
      <trkpt lat="45.13852" lon="4.80851">
        <ele>128.60000610352</ele>
        <time>2024-05-21T09:36:35.000Z</time>
      </trkpt>
      <trkpt lat="45.13851" lon="4.80845">
        <ele>128.80000305176</ele>
        <time>2024-05-21T09:36:36.000Z</time>
      </trkpt>
      <trkpt lat="45.13849" lon="4.8084">
        <ele>128.80000305176</ele>
        <time>2024-05-21T09:36:37.000Z</time>
      </trkpt>
      <trkpt lat="45.13847" lon="4.80835">
        <ele>128.80000305176</ele>
        <time>2024-05-21T09:36:38.000Z</time>
      </trkpt>
      <trkpt lat="45.13845" lon="4.80829">
        <ele>128.80000305176</ele>
        <time>2024-05-21T09:36:39.000Z</time>
      </trkpt>
      <trkpt lat="45.13844" lon="4.80825">
        <ele>128.80000305176</ele>
        <time>2024-05-21T09:36:40.000Z</time>
      </trkpt>
      <trkpt lat="45.13842" lon="4.8082">
        <ele>129</ele>
        <time>2024-05-21T09:36:41.000Z</time>
      </trkpt>
      <trkpt lat="45.1384" lon="4.80814">
        <ele>129.19999694824</ele>
        <time>2024-05-21T09:36:42.000Z</time>
      </trkpt>
      <trkpt lat="45.13839" lon="4.8081">
        <ele>129.19999694824</ele>
        <time>2024-05-21T09:36:43.000Z</time>
      </trkpt>
      <trkpt lat="45.13838" lon="4.80806">
        <ele>129.19999694824</ele>
        <time>2024-05-21T09:36:44.000Z</time>
      </trkpt>
      <trkpt lat="45.13836" lon="4.80803">
        <ele>129.19999694824</ele>
        <time>2024-05-21T09:36:45.000Z</time>
      </trkpt>
      <trkpt lat="45.13836" lon="4.80799">
        <ele>129.39999389648</ele>
        <time>2024-05-21T09:36:46.000Z</time>
      </trkpt>
      <trkpt lat="45.13835" lon="4.80795">
        <ele>129.39999389648</ele>
        <time>2024-05-21T09:36:47.000Z</time>
      </trkpt>
      <trkpt lat="45.13836" lon="4.80791">
        <ele>129.39999389648</ele>
        <time>2024-05-21T09:36:48.000Z</time>
      </trkpt>
      <trkpt lat="45.13836" lon="4.80787">
        <ele>129.39999389648</ele>
        <time>2024-05-21T09:36:49.000Z</time>
      </trkpt>
      <trkpt lat="45.13835" lon="4.80783">
        <ele>129.39999389648</ele>
        <time>2024-05-21T09:36:50.000Z</time>
      </trkpt>
      <trkpt lat="45.13834" lon="4.80777">
        <ele>129.19999694824</ele>
        <time>2024-05-21T09:36:51.000Z</time>
      </trkpt>
      <trkpt lat="45.13834" lon="4.80772">
        <ele>129.19999694824</ele>
        <time>2024-05-21T09:36:52.000Z</time>
      </trkpt>
      <trkpt lat="45.13834" lon="4.80768">
        <ele>129.19999694824</ele>
        <time>2024-05-21T09:36:53.000Z</time>
      </trkpt>
      <trkpt lat="45.13833" lon="4.80765">
        <ele>129</ele>
        <time>2024-05-21T09:36:54.000Z</time>
      </trkpt>
      <trkpt lat="45.13833" lon="4.80762">
        <ele>129.19999694824</ele>
        <time>2024-05-21T09:36:55.000Z</time>
      </trkpt>
      <trkpt lat="45.13832" lon="4.80758">
        <ele>129</ele>
        <time>2024-05-21T09:36:56.000Z</time>
      </trkpt>
      <trkpt lat="45.13831" lon="4.80752">
        <ele>129</ele>
        <time>2024-05-21T09:36:57.000Z</time>
      </trkpt>
      <trkpt lat="45.1383" lon="4.80747">
        <ele>129</ele>
        <time>2024-05-21T09:36:58.000Z</time>
      </trkpt>
      <trkpt lat="45.13829" lon="4.80742">
        <ele>129</ele>
        <time>2024-05-21T09:36:59.000Z</time>
      </trkpt>
      <trkpt lat="45.13827" lon="4.80737">
        <ele>129</ele>
        <time>2024-05-21T09:37:00.000Z</time>
      </trkpt>
      <trkpt lat="45.13825" lon="4.80731">
        <ele>129</ele>
        <time>2024-05-21T09:37:01.000Z</time>
      </trkpt>
      <trkpt lat="45.13822" lon="4.80726">
        <ele>128.80000305176</ele>
        <time>2024-05-21T09:37:02.000Z</time>
      </trkpt>
      <trkpt lat="45.13819" lon="4.80721">
        <ele>128.80000305176</ele>
        <time>2024-05-21T09:37:03.000Z</time>
      </trkpt>
      <trkpt lat="45.13816" lon="4.80716">
        <ele>128.60000610352</ele>
        <time>2024-05-21T09:37:04.000Z</time>
      </trkpt>
      <trkpt lat="45.13814" lon="4.80712">
        <ele>128.60000610352</ele>
        <time>2024-05-21T09:37:05.000Z</time>
      </trkpt>
      <trkpt lat="45.13812" lon="4.80708">
        <ele>128.60000610352</ele>
        <time>2024-05-21T09:37:06.000Z</time>
      </trkpt>
      <trkpt lat="45.13808" lon="4.80701">
        <ele>128.60000610352</ele>
        <time>2024-05-21T09:37:07.000Z</time>
      </trkpt>
      <trkpt lat="45.13805" lon="4.80696">
        <ele>128.80000305176</ele>
        <time>2024-05-21T09:37:08.000Z</time>
      </trkpt>
      <trkpt lat="45.13802" lon="4.80691">
        <ele>128.80000305176</ele>
        <time>2024-05-21T09:37:09.000Z</time>
      </trkpt>
      <trkpt lat="45.138" lon="4.80686">
        <ele>128.80000305176</ele>
        <time>2024-05-21T09:37:10.000Z</time>
      </trkpt>
      <trkpt lat="45.13797" lon="4.80681">
        <ele>128.80000305176</ele>
        <time>2024-05-21T09:37:11.000Z</time>
      </trkpt>
      <trkpt lat="45.13794" lon="4.80676">
        <ele>128.80000305176</ele>
        <time>2024-05-21T09:37:12.000Z</time>
      </trkpt>
      <trkpt lat="45.1379" lon="4.80672">
        <ele>128.80000305176</ele>
        <time>2024-05-21T09:37:13.000Z</time>
      </trkpt>
      <trkpt lat="45.13787" lon="4.80668">
        <ele>128.60000610352</ele>
        <time>2024-05-21T09:37:14.000Z</time>
      </trkpt>
      <trkpt lat="45.13783" lon="4.80664">
        <ele>128.60000610352</ele>
        <time>2024-05-21T09:37:15.000Z</time>
      </trkpt>
      <trkpt lat="45.1378" lon="4.80659">
        <ele>128.60000610352</ele>
        <time>2024-05-21T09:37:16.000Z</time>
      </trkpt>
      <trkpt lat="45.13777" lon="4.80654">
        <ele>128.60000610352</ele>
        <time>2024-05-21T09:37:17.000Z</time>
      </trkpt>
      <trkpt lat="45.13773" lon="4.80649">
        <ele>128.39999389648</ele>
        <time>2024-05-21T09:37:18.000Z</time>
      </trkpt>
      <trkpt lat="45.13769" lon="4.80644">
        <ele>128.39999389648</ele>
        <time>2024-05-21T09:37:19.000Z</time>
      </trkpt>
      <trkpt lat="45.13765" lon="4.80641">
        <ele>128.39999389648</ele>
        <time>2024-05-21T09:37:20.000Z</time>
      </trkpt>
      <trkpt lat="45.13761" lon="4.80638">
        <ele>128.39999389648</ele>
        <time>2024-05-21T09:37:21.000Z</time>
      </trkpt>
      <trkpt lat="45.13758" lon="4.80634">
        <ele>128.39999389648</ele>
        <time>2024-05-21T09:37:22.000Z</time>
      </trkpt>
      <trkpt lat="45.13754" lon="4.8063">
        <ele>128.39999389648</ele>
        <time>2024-05-21T09:37:23.000Z</time>
      </trkpt>
      <trkpt lat="45.13751" lon="4.80624">
        <ele>128.39999389648</ele>
        <time>2024-05-21T09:37:24.000Z</time>
      </trkpt>
      <trkpt lat="45.13748" lon="4.80619">
        <ele>128.19999694824</ele>
        <time>2024-05-21T09:37:25.000Z</time>
      </trkpt>
      <trkpt lat="45.13745" lon="4.80613">
        <ele>128.19999694824</ele>
        <time>2024-05-21T09:37:26.000Z</time>
      </trkpt>
      <trkpt lat="45.13743" lon="4.80607">
        <ele>128</ele>
        <time>2024-05-21T09:37:27.000Z</time>
      </trkpt>
      <trkpt lat="45.1374" lon="4.80601">
        <ele>127.80000305176</ele>
        <time>2024-05-21T09:37:28.000Z</time>
      </trkpt>
      <trkpt lat="45.13737" lon="4.80595">
        <ele>127.80000305176</ele>
        <time>2024-05-21T09:37:29.000Z</time>
      </trkpt>
      <trkpt lat="45.13734" lon="4.80589">
        <ele>127.40000152588</ele>
        <time>2024-05-21T09:37:30.000Z</time>
      </trkpt>
      <trkpt lat="45.13731" lon="4.80582">
        <ele>127.40000152588</ele>
        <time>2024-05-21T09:37:31.000Z</time>
      </trkpt>
      <trkpt lat="45.13728" lon="4.80576">
        <ele>127.40000152588</ele>
        <time>2024-05-21T09:37:32.000Z</time>
      </trkpt>
      <trkpt lat="45.13724" lon="4.8057">
        <ele>127.40000152588</ele>
        <time>2024-05-21T09:37:33.000Z</time>
      </trkpt>
      <trkpt lat="45.13721" lon="4.80564">
        <ele>127.19999694824</ele>
        <time>2024-05-21T09:37:34.000Z</time>
      </trkpt>
      <trkpt lat="45.13717" lon="4.80557">
        <ele>127.19999694824</ele>
        <time>2024-05-21T09:37:35.000Z</time>
      </trkpt>
      <trkpt lat="45.13714" lon="4.80551">
        <ele>127.19999694824</ele>
        <time>2024-05-21T09:37:36.000Z</time>
      </trkpt>
      <trkpt lat="45.13711" lon="4.80546">
        <ele>127.19999694824</ele>
        <time>2024-05-21T09:37:37.000Z</time>
      </trkpt>
      <trkpt lat="45.13707" lon="4.80539">
        <ele>127.19999694824</ele>
        <time>2024-05-21T09:37:38.000Z</time>
      </trkpt>
      <trkpt lat="45.13704" lon="4.80532">
        <ele>127.19999694824</ele>
        <time>2024-05-21T09:37:39.000Z</time>
      </trkpt>
      <trkpt lat="45.13701" lon="4.80526">
        <ele>127.19999694824</ele>
        <time>2024-05-21T09:37:40.000Z</time>
      </trkpt>
      <trkpt lat="45.13697" lon="4.8052">
        <ele>127.19999694824</ele>
        <time>2024-05-21T09:37:41.000Z</time>
      </trkpt>
      <trkpt lat="45.13694" lon="4.80515">
        <ele>127.19999694824</ele>
        <time>2024-05-21T09:37:42.000Z</time>
      </trkpt>
      <trkpt lat="45.13691" lon="4.8051">
        <ele>127</ele>
        <time>2024-05-21T09:37:43.000Z</time>
      </trkpt>
      <trkpt lat="45.13687" lon="4.80505">
        <ele>127</ele>
        <time>2024-05-21T09:37:44.000Z</time>
      </trkpt>
      <trkpt lat="45.13684" lon="4.805">
        <ele>127</ele>
        <time>2024-05-21T09:37:45.000Z</time>
      </trkpt>
      <trkpt lat="45.1368" lon="4.80494">
        <ele>127.19999694824</ele>
        <time>2024-05-21T09:37:46.000Z</time>
      </trkpt>
      <trkpt lat="45.13677" lon="4.80489">
        <ele>127</ele>
        <time>2024-05-21T09:37:47.000Z</time>
      </trkpt>
      <trkpt lat="45.13673" lon="4.80484">
        <ele>127</ele>
        <time>2024-05-21T09:37:48.000Z</time>
      </trkpt>
      <trkpt lat="45.13669" lon="4.80479">
        <ele>127</ele>
        <time>2024-05-21T09:37:49.000Z</time>
      </trkpt>
      <trkpt lat="45.13665" lon="4.80475">
        <ele>127</ele>
        <time>2024-05-21T09:37:50.000Z</time>
      </trkpt>
      <trkpt lat="45.13662" lon="4.8047">
        <ele>127</ele>
        <time>2024-05-21T09:37:51.000Z</time>
      </trkpt>
      <trkpt lat="45.13658" lon="4.80466">
        <ele>127</ele>
        <time>2024-05-21T09:37:52.000Z</time>
      </trkpt>
      <trkpt lat="45.13654" lon="4.80461">
        <ele>127</ele>
        <time>2024-05-21T09:37:53.000Z</time>
      </trkpt>
      <trkpt lat="45.1365" lon="4.80457">
        <ele>127</ele>
        <time>2024-05-21T09:37:54.000Z</time>
      </trkpt>
      <trkpt lat="45.13646" lon="4.80453">
        <ele>127</ele>
        <time>2024-05-21T09:37:55.000Z</time>
      </trkpt>
      <trkpt lat="45.13642" lon="4.80449">
        <ele>127</ele>
        <time>2024-05-21T09:37:56.000Z</time>
      </trkpt>
      <trkpt lat="45.13638" lon="4.80444">
        <ele>127</ele>
        <time>2024-05-21T09:37:57.000Z</time>
      </trkpt>
      <trkpt lat="45.13634" lon="4.80441">
        <ele>127</ele>
        <time>2024-05-21T09:37:58.000Z</time>
      </trkpt>
      <trkpt lat="45.13629" lon="4.80436">
        <ele>127</ele>
        <time>2024-05-21T09:37:59.000Z</time>
      </trkpt>
      <trkpt lat="45.13625" lon="4.80432">
        <ele>126.80000305176</ele>
        <time>2024-05-21T09:38:00.000Z</time>
      </trkpt>
      <trkpt lat="45.13621" lon="4.80428">
        <ele>126.80000305176</ele>
        <time>2024-05-21T09:38:01.000Z</time>
      </trkpt>
      <trkpt lat="45.13616" lon="4.80424">
        <ele>126.80000305176</ele>
        <time>2024-05-21T09:38:02.000Z</time>
      </trkpt>
      <trkpt lat="45.13612" lon="4.8042">
        <ele>126.80000305176</ele>
        <time>2024-05-21T09:38:03.000Z</time>
      </trkpt>
      <trkpt lat="45.13607" lon="4.80417">
        <ele>126.80000305176</ele>
        <time>2024-05-21T09:38:04.000Z</time>
      </trkpt>
      <trkpt lat="45.13602" lon="4.80413">
        <ele>126.80000305176</ele>
        <time>2024-05-21T09:38:05.000Z</time>
      </trkpt>
      <trkpt lat="45.13597" lon="4.8041">
        <ele>126.59999847412</ele>
        <time>2024-05-21T09:38:06.000Z</time>
      </trkpt>
      <trkpt lat="45.13593" lon="4.80406">
        <ele>126.59999847412</ele>
        <time>2024-05-21T09:38:07.000Z</time>
      </trkpt>
      <trkpt lat="45.13588" lon="4.80403">
        <ele>126.80000305176</ele>
        <time>2024-05-21T09:38:08.000Z</time>
      </trkpt>
      <trkpt lat="45.13583" lon="4.804">
        <ele>126.80000305176</ele>
        <time>2024-05-21T09:38:09.000Z</time>
      </trkpt>
      <trkpt lat="45.13578" lon="4.80397">
        <ele>126.80000305176</ele>
        <time>2024-05-21T09:38:10.000Z</time>
      </trkpt>
      <trkpt lat="45.13574" lon="4.80393">
        <ele>126.80000305176</ele>
        <time>2024-05-21T09:38:11.000Z</time>
      </trkpt>
      <trkpt lat="45.13569" lon="4.80391">
        <ele>127</ele>
        <time>2024-05-21T09:38:12.000Z</time>
      </trkpt>
      <trkpt lat="45.13564" lon="4.80388">
        <ele>127</ele>
        <time>2024-05-21T09:38:13.000Z</time>
      </trkpt>
      <trkpt lat="45.1356" lon="4.80385">
        <ele>127</ele>
        <time>2024-05-21T09:38:14.000Z</time>
      </trkpt>
      <trkpt lat="45.13555" lon="4.80382">
        <ele>127</ele>
        <time>2024-05-21T09:38:15.000Z</time>
      </trkpt>
      <trkpt lat="45.1355" lon="4.80379">
        <ele>127</ele>
        <time>2024-05-21T09:38:16.000Z</time>
      </trkpt>
      <trkpt lat="45.13546" lon="4.80376">
        <ele>127</ele>
        <time>2024-05-21T09:38:17.000Z</time>
      </trkpt>
      <trkpt lat="45.13541" lon="4.80373">
        <ele>127</ele>
        <time>2024-05-21T09:38:18.000Z</time>
      </trkpt>
      <trkpt lat="45.13537" lon="4.80369">
        <ele>127</ele>
        <time>2024-05-21T09:38:19.000Z</time>
      </trkpt>
      <trkpt lat="45.13532" lon="4.80365">
        <ele>127</ele>
        <time>2024-05-21T09:38:20.000Z</time>
      </trkpt>
      <trkpt lat="45.13528" lon="4.80361">
        <ele>127</ele>
        <time>2024-05-21T09:38:21.000Z</time>
      </trkpt>
      <trkpt lat="45.13525" lon="4.80357">
        <ele>127</ele>
        <time>2024-05-21T09:38:22.000Z</time>
      </trkpt>
      <trkpt lat="45.13521" lon="4.80352">
        <ele>127</ele>
        <time>2024-05-21T09:38:23.000Z</time>
      </trkpt>
      <trkpt lat="45.13517" lon="4.80347">
        <ele>127</ele>
        <time>2024-05-21T09:38:24.000Z</time>
      </trkpt>
      <trkpt lat="45.13514" lon="4.80342">
        <ele>127</ele>
        <time>2024-05-21T09:38:25.000Z</time>
      </trkpt>
      <trkpt lat="45.13511" lon="4.80336">
        <ele>127</ele>
        <time>2024-05-21T09:38:26.000Z</time>
      </trkpt>
      <trkpt lat="45.13507" lon="4.80331">
        <ele>127</ele>
        <time>2024-05-21T09:38:27.000Z</time>
      </trkpt>
      <trkpt lat="45.13504" lon="4.80325">
        <ele>127</ele>
        <time>2024-05-21T09:38:28.000Z</time>
      </trkpt>
      <trkpt lat="45.13501" lon="4.8032">
        <ele>127</ele>
        <time>2024-05-21T09:38:29.000Z</time>
      </trkpt>
      <trkpt lat="45.13498" lon="4.80315">
        <ele>127</ele>
        <time>2024-05-21T09:38:30.000Z</time>
      </trkpt>
      <trkpt lat="45.13495" lon="4.80311">
        <ele>127</ele>
        <time>2024-05-21T09:38:31.000Z</time>
      </trkpt>
      <trkpt lat="45.13491" lon="4.80307">
        <ele>127</ele>
        <time>2024-05-21T09:38:32.000Z</time>
      </trkpt>
      <trkpt lat="45.13487" lon="4.80304">
        <ele>127</ele>
        <time>2024-05-21T09:38:33.000Z</time>
      </trkpt>
      <trkpt lat="45.13482" lon="4.80302">
        <ele>127</ele>
        <time>2024-05-21T09:38:34.000Z</time>
      </trkpt>
      <trkpt lat="45.13476" lon="4.80299">
        <ele>127</ele>
        <time>2024-05-21T09:38:35.000Z</time>
      </trkpt>
      <trkpt lat="45.1347" lon="4.80296">
        <ele>127</ele>
        <time>2024-05-21T09:38:36.000Z</time>
      </trkpt>
      <trkpt lat="45.13464" lon="4.80294">
        <ele>126.59999847412</ele>
        <time>2024-05-21T09:38:37.000Z</time>
      </trkpt>
      <trkpt lat="45.13459" lon="4.80293">
        <ele>125.80000305176</ele>
        <time>2024-05-21T09:38:38.000Z</time>
      </trkpt>
      <trkpt lat="45.13455" lon="4.80292">
        <ele>125.80000305176</ele>
        <time>2024-05-21T09:38:39.000Z</time>
      </trkpt>
      <trkpt lat="45.13451" lon="4.80292">
        <ele>125.80000305176</ele>
        <time>2024-05-21T09:38:40.000Z</time>
      </trkpt>
      <trkpt lat="45.13446" lon="4.80292">
        <ele>125.80000305176</ele>
        <time>2024-05-21T09:38:41.000Z</time>
      </trkpt>
      <trkpt lat="45.13442" lon="4.80293">
        <ele>126.19999694824</ele>
        <time>2024-05-21T09:38:42.000Z</time>
      </trkpt>
      <trkpt lat="45.13438" lon="4.80294">
        <ele>126.59999847412</ele>
        <time>2024-05-21T09:38:43.000Z</time>
      </trkpt>
      <trkpt lat="45.13435" lon="4.80294">
        <ele>127.19999694824</ele>
        <time>2024-05-21T09:38:44.000Z</time>
      </trkpt>
      <trkpt lat="45.1343" lon="4.80294">
        <ele>127.40000152588</ele>
        <time>2024-05-21T09:38:45.000Z</time>
      </trkpt>
      <trkpt lat="45.13426" lon="4.80293">
        <ele>127.40000152588</ele>
        <time>2024-05-21T09:38:46.000Z</time>
      </trkpt>
      <trkpt lat="45.13423" lon="4.80291">
        <ele>127.59999847412</ele>
        <time>2024-05-21T09:38:47.000Z</time>
      </trkpt>
      <trkpt lat="45.13418" lon="4.80289">
        <ele>127.59999847412</ele>
        <time>2024-05-21T09:38:48.000Z</time>
      </trkpt>
      <trkpt lat="45.13415" lon="4.80286">
        <ele>127.80000305176</ele>
        <time>2024-05-21T09:38:49.000Z</time>
      </trkpt>
      <trkpt lat="45.1341" lon="4.80282">
        <ele>127.80000305176</ele>
        <time>2024-05-21T09:38:50.000Z</time>
      </trkpt>
      <trkpt lat="45.13406" lon="4.80279">
        <ele>127.80000305176</ele>
        <time>2024-05-21T09:38:51.000Z</time>
      </trkpt>
      <trkpt lat="45.13403" lon="4.80277">
        <ele>127.80000305176</ele>
        <time>2024-05-21T09:38:52.000Z</time>
      </trkpt>
      <trkpt lat="45.13398" lon="4.80274">
        <ele>127.80000305176</ele>
        <time>2024-05-21T09:38:53.000Z</time>
      </trkpt>
      <trkpt lat="45.13394" lon="4.80271">
        <ele>127.80000305176</ele>
        <time>2024-05-21T09:38:54.000Z</time>
      </trkpt>
      <trkpt lat="45.1339" lon="4.80269">
        <ele>128</ele>
        <time>2024-05-21T09:38:55.000Z</time>
      </trkpt>
      <trkpt lat="45.13385" lon="4.80268">
        <ele>128.19999694824</ele>
        <time>2024-05-21T09:38:56.000Z</time>
      </trkpt>
      <trkpt lat="45.1338" lon="4.80267">
        <ele>128.19999694824</ele>
        <time>2024-05-21T09:38:57.000Z</time>
      </trkpt>
      <trkpt lat="45.13375" lon="4.80266">
        <ele>128.19999694824</ele>
        <time>2024-05-21T09:38:58.000Z</time>
      </trkpt>
      <trkpt lat="45.13369" lon="4.80265">
        <ele>128.19999694824</ele>
        <time>2024-05-21T09:38:59.000Z</time>
      </trkpt>
      <trkpt lat="45.13364" lon="4.80264">
        <ele>128.19999694824</ele>
        <time>2024-05-21T09:39:00.000Z</time>
      </trkpt>
      <trkpt lat="45.13358" lon="4.80264">
        <ele>128.19999694824</ele>
        <time>2024-05-21T09:39:01.000Z</time>
      </trkpt>
      <trkpt lat="45.13353" lon="4.80264">
        <ele>128.19999694824</ele>
        <time>2024-05-21T09:39:02.000Z</time>
      </trkpt>
      <trkpt lat="45.13347" lon="4.80265">
        <ele>128</ele>
        <time>2024-05-21T09:39:03.000Z</time>
      </trkpt>
      <trkpt lat="45.13342" lon="4.80265">
        <ele>128</ele>
        <time>2024-05-21T09:39:04.000Z</time>
      </trkpt>
      <trkpt lat="45.13337" lon="4.80266">
        <ele>128</ele>
        <time>2024-05-21T09:39:05.000Z</time>
      </trkpt>
      <trkpt lat="45.13331" lon="4.80266">
        <ele>128</ele>
        <time>2024-05-21T09:39:06.000Z</time>
      </trkpt>
      <trkpt lat="45.13326" lon="4.80266">
        <ele>128</ele>
        <time>2024-05-21T09:39:07.000Z</time>
      </trkpt>
      <trkpt lat="45.13321" lon="4.80265">
        <ele>128</ele>
        <time>2024-05-21T09:39:08.000Z</time>
      </trkpt>
      <trkpt lat="45.13316" lon="4.80264">
        <ele>128</ele>
        <time>2024-05-21T09:39:09.000Z</time>
      </trkpt>
      <trkpt lat="45.13309" lon="4.80262">
        <ele>128</ele>
        <time>2024-05-21T09:39:10.000Z</time>
      </trkpt>
      <trkpt lat="45.13304" lon="4.8026">
        <ele>128</ele>
        <time>2024-05-21T09:39:11.000Z</time>
      </trkpt>
      <trkpt lat="45.13298" lon="4.80259">
        <ele>128</ele>
        <time>2024-05-21T09:39:12.000Z</time>
      </trkpt>
      <trkpt lat="45.13293" lon="4.80257">
        <ele>128</ele>
        <time>2024-05-21T09:39:13.000Z</time>
      </trkpt>
      <trkpt lat="45.13287" lon="4.80256">
        <ele>127.80000305176</ele>
        <time>2024-05-21T09:39:14.000Z</time>
      </trkpt>
      <trkpt lat="45.13281" lon="4.80255">
        <ele>127.80000305176</ele>
        <time>2024-05-21T09:39:15.000Z</time>
      </trkpt>
      <trkpt lat="45.13276" lon="4.80254">
        <ele>127.80000305176</ele>
        <time>2024-05-21T09:39:16.000Z</time>
      </trkpt>
      <trkpt lat="45.13272" lon="4.80254">
        <ele>127.80000305176</ele>
        <time>2024-05-21T09:39:17.000Z</time>
      </trkpt>
      <trkpt lat="45.13266" lon="4.80254">
        <ele>127.80000305176</ele>
        <time>2024-05-21T09:39:18.000Z</time>
      </trkpt>
      <trkpt lat="45.1326" lon="4.80253">
        <ele>127.80000305176</ele>
        <time>2024-05-21T09:39:19.000Z</time>
      </trkpt>
      <trkpt lat="45.13255" lon="4.80254">
        <ele>127.80000305176</ele>
        <time>2024-05-21T09:39:20.000Z</time>
      </trkpt>
      <trkpt lat="45.13249" lon="4.80254">
        <ele>127.80000305176</ele>
        <time>2024-05-21T09:39:21.000Z</time>
      </trkpt>
      <trkpt lat="45.13243" lon="4.80254">
        <ele>127.59999847412</ele>
        <time>2024-05-21T09:39:22.000Z</time>
      </trkpt>
      <trkpt lat="45.13237" lon="4.80254">
        <ele>127.59999847412</ele>
        <time>2024-05-21T09:39:23.000Z</time>
      </trkpt>
      <trkpt lat="45.13231" lon="4.80253">
        <ele>127.59999847412</ele>
        <time>2024-05-21T09:39:24.000Z</time>
      </trkpt>
      <trkpt lat="45.13226" lon="4.80251">
        <ele>127.59999847412</ele>
        <time>2024-05-21T09:39:25.000Z</time>
      </trkpt>
      <trkpt lat="45.1322" lon="4.8025">
        <ele>127.59999847412</ele>
        <time>2024-05-21T09:39:26.000Z</time>
      </trkpt>
      <trkpt lat="45.13214" lon="4.80248">
        <ele>127.80000305176</ele>
        <time>2024-05-21T09:39:27.000Z</time>
      </trkpt>
      <trkpt lat="45.13208" lon="4.80247">
        <ele>127.80000305176</ele>
        <time>2024-05-21T09:39:28.000Z</time>
      </trkpt>
      <trkpt lat="45.13203" lon="4.80245">
        <ele>127.80000305176</ele>
        <time>2024-05-21T09:39:29.000Z</time>
      </trkpt>
      <trkpt lat="45.13197" lon="4.80244">
        <ele>127.59999847412</ele>
        <time>2024-05-21T09:39:30.000Z</time>
      </trkpt>
      <trkpt lat="45.13192" lon="4.80244">
        <ele>127.40000152588</ele>
        <time>2024-05-21T09:39:31.000Z</time>
      </trkpt>
      <trkpt lat="45.13187" lon="4.80244">
        <ele>127.40000152588</ele>
        <time>2024-05-21T09:39:32.000Z</time>
      </trkpt>
      <trkpt lat="45.13182" lon="4.80244">
        <ele>127.40000152588</ele>
        <time>2024-05-21T09:39:33.000Z</time>
      </trkpt>
      <trkpt lat="45.13177" lon="4.80244">
        <ele>127.40000152588</ele>
        <time>2024-05-21T09:39:34.000Z</time>
      </trkpt>
      <trkpt lat="45.13172" lon="4.80245">
        <ele>127.40000152588</ele>
        <time>2024-05-21T09:39:35.000Z</time>
      </trkpt>
      <trkpt lat="45.13167" lon="4.80245">
        <ele>127.19999694824</ele>
        <time>2024-05-21T09:39:36.000Z</time>
      </trkpt>
      <trkpt lat="45.13162" lon="4.80246">
        <ele>127.19999694824</ele>
        <time>2024-05-21T09:39:37.000Z</time>
      </trkpt>
      <trkpt lat="45.13157" lon="4.80247">
        <ele>127.19999694824</ele>
        <time>2024-05-21T09:39:38.000Z</time>
      </trkpt>
      <trkpt lat="45.13151" lon="4.80247">
        <ele>127.19999694824</ele>
        <time>2024-05-21T09:39:39.000Z</time>
      </trkpt>
      <trkpt lat="45.13146" lon="4.80247">
        <ele>127.19999694824</ele>
        <time>2024-05-21T09:39:40.000Z</time>
      </trkpt>
      <trkpt lat="45.13141" lon="4.80247">
        <ele>127</ele>
        <time>2024-05-21T09:39:41.000Z</time>
      </trkpt>
      <trkpt lat="45.13135" lon="4.80247">
        <ele>127</ele>
        <time>2024-05-21T09:39:42.000Z</time>
      </trkpt>
      <trkpt lat="45.1313" lon="4.80246">
        <ele>127</ele>
        <time>2024-05-21T09:39:43.000Z</time>
      </trkpt>
      <trkpt lat="45.13124" lon="4.80245">
        <ele>127</ele>
        <time>2024-05-21T09:39:44.000Z</time>
      </trkpt>
      <trkpt lat="45.13119" lon="4.80244">
        <ele>127</ele>
        <time>2024-05-21T09:39:45.000Z</time>
      </trkpt>
      <trkpt lat="45.13113" lon="4.80244">
        <ele>127</ele>
        <time>2024-05-21T09:39:46.000Z</time>
      </trkpt>
      <trkpt lat="45.13108" lon="4.80243">
        <ele>127</ele>
        <time>2024-05-21T09:39:47.000Z</time>
      </trkpt>
      <trkpt lat="45.13102" lon="4.80242">
        <ele>127</ele>
        <time>2024-05-21T09:39:48.000Z</time>
      </trkpt>
      <trkpt lat="45.13097" lon="4.80241">
        <ele>127</ele>
        <time>2024-05-21T09:39:49.000Z</time>
      </trkpt>
      <trkpt lat="45.13092" lon="4.8024">
        <ele>127</ele>
        <time>2024-05-21T09:39:50.000Z</time>
      </trkpt>
      <trkpt lat="45.13086" lon="4.80239">
        <ele>127</ele>
        <time>2024-05-21T09:39:51.000Z</time>
      </trkpt>
      <trkpt lat="45.13081" lon="4.80238">
        <ele>127.19999694824</ele>
        <time>2024-05-21T09:39:52.000Z</time>
      </trkpt>
      <trkpt lat="45.13076" lon="4.80238">
        <ele>127.19999694824</ele>
        <time>2024-05-21T09:39:53.000Z</time>
      </trkpt>
      <trkpt lat="45.1307" lon="4.80237">
        <ele>127.19999694824</ele>
        <time>2024-05-21T09:39:54.000Z</time>
      </trkpt>
      <trkpt lat="45.13065" lon="4.80236">
        <ele>127.40000152588</ele>
        <time>2024-05-21T09:39:55.000Z</time>
      </trkpt>
      <trkpt lat="45.13059" lon="4.80236">
        <ele>127.40000152588</ele>
        <time>2024-05-21T09:39:56.000Z</time>
      </trkpt>
      <trkpt lat="45.13054" lon="4.80235">
        <ele>127.40000152588</ele>
        <time>2024-05-21T09:39:57.000Z</time>
      </trkpt>
      <trkpt lat="45.1305" lon="4.80234">
        <ele>127.40000152588</ele>
        <time>2024-05-21T09:39:58.000Z</time>
      </trkpt>
      <trkpt lat="45.13045" lon="4.80233">
        <ele>127.40000152588</ele>
        <time>2024-05-21T09:39:59.000Z</time>
      </trkpt>
      <trkpt lat="45.13039" lon="4.80232">
        <ele>127.40000152588</ele>
        <time>2024-05-21T09:40:00.000Z</time>
      </trkpt>
      <trkpt lat="45.13034" lon="4.80231">
        <ele>127.40000152588</ele>
        <time>2024-05-21T09:40:01.000Z</time>
      </trkpt>
      <trkpt lat="45.13029" lon="4.8023">
        <ele>127.40000152588</ele>
        <time>2024-05-21T09:40:02.000Z</time>
      </trkpt>
      <trkpt lat="45.13023" lon="4.80229">
        <ele>127.40000152588</ele>
        <time>2024-05-21T09:40:03.000Z</time>
      </trkpt>
      <trkpt lat="45.13017" lon="4.80228">
        <ele>127.40000152588</ele>
        <time>2024-05-21T09:40:04.000Z</time>
      </trkpt>
      <trkpt lat="45.13012" lon="4.80227">
        <ele>127.40000152588</ele>
        <time>2024-05-21T09:40:05.000Z</time>
      </trkpt>
      <trkpt lat="45.13006" lon="4.80226">
        <ele>127.40000152588</ele>
        <time>2024-05-21T09:40:06.000Z</time>
      </trkpt>
      <trkpt lat="45.13001" lon="4.80225">
        <ele>127.40000152588</ele>
        <time>2024-05-21T09:40:07.000Z</time>
      </trkpt>
      <trkpt lat="45.12995" lon="4.80225">
        <ele>127.40000152588</ele>
        <time>2024-05-21T09:40:08.000Z</time>
      </trkpt>
      <trkpt lat="45.1299" lon="4.80224">
        <ele>127.40000152588</ele>
        <time>2024-05-21T09:40:09.000Z</time>
      </trkpt>
      <trkpt lat="45.12983" lon="4.80223">
        <ele>127.40000152588</ele>
        <time>2024-05-21T09:40:10.000Z</time>
      </trkpt>
      <trkpt lat="45.12978" lon="4.80222">
        <ele>127.40000152588</ele>
        <time>2024-05-21T09:40:11.000Z</time>
      </trkpt>
      <trkpt lat="45.12973" lon="4.8022">
        <ele>127.40000152588</ele>
        <time>2024-05-21T09:40:12.000Z</time>
      </trkpt>
      <trkpt lat="45.12968" lon="4.80219">
        <ele>127.40000152588</ele>
        <time>2024-05-21T09:40:13.000Z</time>
      </trkpt>
      <trkpt lat="45.12963" lon="4.80218">
        <ele>127.59999847412</ele>
        <time>2024-05-21T09:40:14.000Z</time>
      </trkpt>
      <trkpt lat="45.12957" lon="4.80217">
        <ele>127.59999847412</ele>
        <time>2024-05-21T09:40:15.000Z</time>
      </trkpt>
      <trkpt lat="45.12951" lon="4.80216">
        <ele>127.59999847412</ele>
        <time>2024-05-21T09:40:16.000Z</time>
      </trkpt>
      <trkpt lat="45.12945" lon="4.80215">
        <ele>127.59999847412</ele>
        <time>2024-05-21T09:40:17.000Z</time>
      </trkpt>
      <trkpt lat="45.1294" lon="4.80213">
        <ele>127.59999847412</ele>
        <time>2024-05-21T09:40:18.000Z</time>
      </trkpt>
      <trkpt lat="45.12935" lon="4.80212">
        <ele>127.59999847412</ele>
        <time>2024-05-21T09:40:19.000Z</time>
      </trkpt>
      <trkpt lat="45.1293" lon="4.80211">
        <ele>127.59999847412</ele>
        <time>2024-05-21T09:40:20.000Z</time>
      </trkpt>
      <trkpt lat="45.12925" lon="4.8021">
        <ele>127.59999847412</ele>
        <time>2024-05-21T09:40:21.000Z</time>
      </trkpt>
      <trkpt lat="45.12919" lon="4.80209">
        <ele>127.59999847412</ele>
        <time>2024-05-21T09:40:22.000Z</time>
      </trkpt>
      <trkpt lat="45.12914" lon="4.80208">
        <ele>127.59999847412</ele>
        <time>2024-05-21T09:40:23.000Z</time>
      </trkpt>
      <trkpt lat="45.12909" lon="4.80208">
        <ele>127.59999847412</ele>
        <time>2024-05-21T09:40:24.000Z</time>
      </trkpt>
      <trkpt lat="45.12903" lon="4.80206">
        <ele>127.59999847412</ele>
        <time>2024-05-21T09:40:25.000Z</time>
      </trkpt>
      <trkpt lat="45.12897" lon="4.80205">
        <ele>127.59999847412</ele>
        <time>2024-05-21T09:40:26.000Z</time>
      </trkpt>
      <trkpt lat="45.12892" lon="4.80204">
        <ele>127.80000305176</ele>
        <time>2024-05-21T09:40:27.000Z</time>
      </trkpt>
      <trkpt lat="45.12887" lon="4.80202">
        <ele>127.80000305176</ele>
        <time>2024-05-21T09:40:28.000Z</time>
      </trkpt>
      <trkpt lat="45.12881" lon="4.80201">
        <ele>127.80000305176</ele>
        <time>2024-05-21T09:40:29.000Z</time>
      </trkpt>
      <trkpt lat="45.12875" lon="4.80199">
        <ele>127.80000305176</ele>
        <time>2024-05-21T09:40:30.000Z</time>
      </trkpt>
      <trkpt lat="45.12869" lon="4.80198">
        <ele>127.80000305176</ele>
        <time>2024-05-21T09:40:31.000Z</time>
      </trkpt>
      <trkpt lat="45.12863" lon="4.80196">
        <ele>127.80000305176</ele>
        <time>2024-05-21T09:40:32.000Z</time>
      </trkpt>
      <trkpt lat="45.12857" lon="4.80194">
        <ele>127.80000305176</ele>
        <time>2024-05-21T09:40:33.000Z</time>
      </trkpt>
      <trkpt lat="45.12853" lon="4.80192">
        <ele>128</ele>
        <time>2024-05-21T09:40:34.000Z</time>
      </trkpt>
      <trkpt lat="45.12847" lon="4.80189">
        <ele>128</ele>
        <time>2024-05-21T09:40:35.000Z</time>
      </trkpt>
      <trkpt lat="45.12841" lon="4.80186">
        <ele>127.80000305176</ele>
        <time>2024-05-21T09:40:36.000Z</time>
      </trkpt>
      <trkpt lat="45.12836" lon="4.80184">
        <ele>127.80000305176</ele>
        <time>2024-05-21T09:40:37.000Z</time>
      </trkpt>
      <trkpt lat="45.1283" lon="4.80182">
        <ele>127.80000305176</ele>
        <time>2024-05-21T09:40:38.000Z</time>
      </trkpt>
      <trkpt lat="45.12824" lon="4.8018">
        <ele>127.59999847412</ele>
        <time>2024-05-21T09:40:39.000Z</time>
      </trkpt>
      <trkpt lat="45.12818" lon="4.80179">
        <ele>127.40000152588</ele>
        <time>2024-05-21T09:40:40.000Z</time>
      </trkpt>
      <trkpt lat="45.12811" lon="4.80178">
        <ele>127.40000152588</ele>
        <time>2024-05-21T09:40:41.000Z</time>
      </trkpt>
      <trkpt lat="45.12805" lon="4.80177">
        <ele>127.19999694824</ele>
        <time>2024-05-21T09:40:42.000Z</time>
      </trkpt>
      <trkpt lat="45.128" lon="4.80176">
        <ele>127</ele>
        <time>2024-05-21T09:40:43.000Z</time>
      </trkpt>
      <trkpt lat="45.12795" lon="4.80176">
        <ele>126.40000152588</ele>
        <time>2024-05-21T09:40:44.000Z</time>
      </trkpt>
      <trkpt lat="45.12791" lon="4.80176">
        <ele>126.40000152588</ele>
        <time>2024-05-21T09:40:45.000Z</time>
      </trkpt>
      <trkpt lat="45.12787" lon="4.80176">
        <ele>126.40000152588</ele>
        <time>2024-05-21T09:40:46.000Z</time>
      </trkpt>
      <trkpt lat="45.12782" lon="4.80175">
        <ele>126.40000152588</ele>
        <time>2024-05-21T09:40:47.000Z</time>
      </trkpt>
      <trkpt lat="45.12778" lon="4.80174">
        <ele>127</ele>
        <time>2024-05-21T09:40:48.000Z</time>
      </trkpt>
      <trkpt lat="45.12773" lon="4.80172">
        <ele>127.19999694824</ele>
        <time>2024-05-21T09:40:49.000Z</time>
      </trkpt>
      <trkpt lat="45.12769" lon="4.80171">
        <ele>127.40000152588</ele>
        <time>2024-05-21T09:40:50.000Z</time>
      </trkpt>
      <trkpt lat="45.12764" lon="4.80169">
        <ele>127.40000152588</ele>
        <time>2024-05-21T09:40:51.000Z</time>
      </trkpt>
      <trkpt lat="45.12758" lon="4.80168">
        <ele>127.40000152588</ele>
        <time>2024-05-21T09:40:52.000Z</time>
      </trkpt>
      <trkpt lat="45.12752" lon="4.80168">
        <ele>127.40000152588</ele>
        <time>2024-05-21T09:40:53.000Z</time>
      </trkpt>
      <trkpt lat="45.12745" lon="4.80167">
        <ele>127.40000152588</ele>
        <time>2024-05-21T09:40:54.000Z</time>
      </trkpt>
      <trkpt lat="45.12739" lon="4.80167">
        <ele>127.19999694824</ele>
        <time>2024-05-21T09:40:55.000Z</time>
      </trkpt>
      <trkpt lat="45.12734" lon="4.80167">
        <ele>126.80000305176</ele>
        <time>2024-05-21T09:40:56.000Z</time>
      </trkpt>
      <trkpt lat="45.12729" lon="4.80167">
        <ele>126.40000152588</ele>
        <time>2024-05-21T09:40:57.000Z</time>
      </trkpt>
      <trkpt lat="45.12725" lon="4.80168">
        <ele>126.40000152588</ele>
        <time>2024-05-21T09:40:58.000Z</time>
      </trkpt>
      <trkpt lat="45.12721" lon="4.80168">
        <ele>126.40000152588</ele>
        <time>2024-05-21T09:40:59.000Z</time>
      </trkpt>
      <trkpt lat="45.12718" lon="4.80168">
        <ele>126.40000152588</ele>
        <time>2024-05-21T09:41:00.000Z</time>
      </trkpt>
      <trkpt lat="45.12715" lon="4.80169">
        <ele>126.80000305176</ele>
        <time>2024-05-21T09:41:01.000Z</time>
      </trkpt>
      <trkpt lat="45.12712" lon="4.80169">
        <ele>127.19999694824</ele>
        <time>2024-05-21T09:41:02.000Z</time>
      </trkpt>
      <trkpt lat="45.12708" lon="4.80168">
        <ele>127.40000152588</ele>
        <time>2024-05-21T09:41:03.000Z</time>
      </trkpt>
      <trkpt lat="45.12704" lon="4.80168">
        <ele>127.59999847412</ele>
        <time>2024-05-21T09:41:04.000Z</time>
      </trkpt>
      <trkpt lat="45.127" lon="4.80167">
        <ele>127.80000305176</ele>
        <time>2024-05-21T09:41:05.000Z</time>
      </trkpt>
      <trkpt lat="45.12696" lon="4.80166">
        <ele>127.80000305176</ele>
        <time>2024-05-21T09:41:06.000Z</time>
      </trkpt>
      <trkpt lat="45.12692" lon="4.80165">
        <ele>127.80000305176</ele>
        <time>2024-05-21T09:41:07.000Z</time>
      </trkpt>
      <trkpt lat="45.12687" lon="4.80164">
        <ele>127.80000305176</ele>
        <time>2024-05-21T09:41:08.000Z</time>
      </trkpt>
      <trkpt lat="45.12682" lon="4.80163">
        <ele>127.80000305176</ele>
        <time>2024-05-21T09:41:09.000Z</time>
      </trkpt>
      <trkpt lat="45.12678" lon="4.80162">
        <ele>127.80000305176</ele>
        <time>2024-05-21T09:41:10.000Z</time>
      </trkpt>
      <trkpt lat="45.12673" lon="4.80161">
        <ele>127.80000305176</ele>
        <time>2024-05-21T09:41:11.000Z</time>
      </trkpt>
      <trkpt lat="45.12669" lon="4.80161">
        <ele>127.80000305176</ele>
        <time>2024-05-21T09:41:12.000Z</time>
      </trkpt>
      <trkpt lat="45.12664" lon="4.80161">
        <ele>127.80000305176</ele>
        <time>2024-05-21T09:41:13.000Z</time>
      </trkpt>
      <trkpt lat="45.12659" lon="4.80161">
        <ele>127.80000305176</ele>
        <time>2024-05-21T09:41:14.000Z</time>
      </trkpt>
      <trkpt lat="45.12655" lon="4.8016">
        <ele>127.80000305176</ele>
        <time>2024-05-21T09:41:15.000Z</time>
      </trkpt>
      <trkpt lat="45.12649" lon="4.80159">
        <ele>128</ele>
        <time>2024-05-21T09:41:16.000Z</time>
      </trkpt>
      <trkpt lat="45.12645" lon="4.80158">
        <ele>128</ele>
        <time>2024-05-21T09:41:17.000Z</time>
      </trkpt>
      <trkpt lat="45.12639" lon="4.80157">
        <ele>128</ele>
        <time>2024-05-21T09:41:18.000Z</time>
      </trkpt>
      <trkpt lat="45.12634" lon="4.80155">
        <ele>128</ele>
        <time>2024-05-21T09:41:19.000Z</time>
      </trkpt>
      <trkpt lat="45.12629" lon="4.80154">
        <ele>128</ele>
        <time>2024-05-21T09:41:20.000Z</time>
      </trkpt>
      <trkpt lat="45.12624" lon="4.80153">
        <ele>128</ele>
        <time>2024-05-21T09:41:21.000Z</time>
      </trkpt>
      <trkpt lat="45.12619" lon="4.80152">
        <ele>128</ele>
        <time>2024-05-21T09:41:22.000Z</time>
      </trkpt>
      <trkpt lat="45.12614" lon="4.80151">
        <ele>128</ele>
        <time>2024-05-21T09:41:23.000Z</time>
      </trkpt>
      <trkpt lat="45.12609" lon="4.8015">
        <ele>128</ele>
        <time>2024-05-21T09:41:24.000Z</time>
      </trkpt>
      <trkpt lat="45.12604" lon="4.80148">
        <ele>128</ele>
        <time>2024-05-21T09:41:25.000Z</time>
      </trkpt>
      <trkpt lat="45.12599" lon="4.80147">
        <ele>128</ele>
        <time>2024-05-21T09:41:26.000Z</time>
      </trkpt>
      <trkpt lat="45.12594" lon="4.80146">
        <ele>128</ele>
        <time>2024-05-21T09:41:27.000Z</time>
      </trkpt>
      <trkpt lat="45.12588" lon="4.80144">
        <ele>128.19999694824</ele>
        <time>2024-05-21T09:41:28.000Z</time>
      </trkpt>
      <trkpt lat="45.12583" lon="4.80143">
        <ele>128.19999694824</ele>
        <time>2024-05-21T09:41:29.000Z</time>
      </trkpt>
      <trkpt lat="45.12577" lon="4.80143">
        <ele>128.19999694824</ele>
        <time>2024-05-21T09:41:30.000Z</time>
      </trkpt>
      <trkpt lat="45.12572" lon="4.80143">
        <ele>128.19999694824</ele>
        <time>2024-05-21T09:41:31.000Z</time>
      </trkpt>
      <trkpt lat="45.12567" lon="4.80142">
        <ele>128</ele>
        <time>2024-05-21T09:41:32.000Z</time>
      </trkpt>
      <trkpt lat="45.12562" lon="4.80141">
        <ele>128</ele>
        <time>2024-05-21T09:41:33.000Z</time>
      </trkpt>
      <trkpt lat="45.12556" lon="4.8014">
        <ele>128</ele>
        <time>2024-05-21T09:41:34.000Z</time>
      </trkpt>
      <trkpt lat="45.12551" lon="4.80139">
        <ele>128</ele>
        <time>2024-05-21T09:41:35.000Z</time>
      </trkpt>
      <trkpt lat="45.12546" lon="4.80138">
        <ele>128</ele>
        <time>2024-05-21T09:41:36.000Z</time>
      </trkpt>
      <trkpt lat="45.12541" lon="4.80137">
        <ele>128</ele>
        <time>2024-05-21T09:41:37.000Z</time>
      </trkpt>
      <trkpt lat="45.12535" lon="4.80136">
        <ele>127.80000305176</ele>
        <time>2024-05-21T09:41:38.000Z</time>
      </trkpt>
      <trkpt lat="45.1253" lon="4.80136">
        <ele>127.80000305176</ele>
        <time>2024-05-21T09:41:39.000Z</time>
      </trkpt>
      <trkpt lat="45.12525" lon="4.80136">
        <ele>127.80000305176</ele>
        <time>2024-05-21T09:41:40.000Z</time>
      </trkpt>
      <trkpt lat="45.12517" lon="4.80135">
        <ele>127.80000305176</ele>
        <time>2024-05-21T09:41:41.000Z</time>
      </trkpt>
      <trkpt lat="45.12512" lon="4.80135">
        <ele>127.59999847412</ele>
        <time>2024-05-21T09:41:42.000Z</time>
      </trkpt>
      <trkpt lat="45.12506" lon="4.80134">
        <ele>127.40000152588</ele>
        <time>2024-05-21T09:41:43.000Z</time>
      </trkpt>
      <trkpt lat="45.12502" lon="4.80132">
        <ele>127.40000152588</ele>
        <time>2024-05-21T09:41:44.000Z</time>
      </trkpt>
      <trkpt lat="45.12497" lon="4.8013">
        <ele>127.19999694824</ele>
        <time>2024-05-21T09:41:45.000Z</time>
      </trkpt>
      <trkpt lat="45.12491" lon="4.80128">
        <ele>127.19999694824</ele>
        <time>2024-05-21T09:41:46.000Z</time>
      </trkpt>
      <trkpt lat="45.12486" lon="4.80126">
        <ele>127.19999694824</ele>
        <time>2024-05-21T09:41:47.000Z</time>
      </trkpt>
      <trkpt lat="45.12481" lon="4.80124">
        <ele>127.19999694824</ele>
        <time>2024-05-21T09:41:48.000Z</time>
      </trkpt>
      <trkpt lat="45.12474" lon="4.80123">
        <ele>127.19999694824</ele>
        <time>2024-05-21T09:41:49.000Z</time>
      </trkpt>
      <trkpt lat="45.12467" lon="4.80122">
        <ele>127.19999694824</ele>
        <time>2024-05-21T09:41:50.000Z</time>
      </trkpt>
      <trkpt lat="45.12463" lon="4.80121">
        <ele>127.19999694824</ele>
        <time>2024-05-21T09:41:51.000Z</time>
      </trkpt>
      <trkpt lat="45.12457" lon="4.80119">
        <ele>127.19999694824</ele>
        <time>2024-05-21T09:41:52.000Z</time>
      </trkpt>
      <trkpt lat="45.12452" lon="4.80118">
        <ele>127.40000152588</ele>
        <time>2024-05-21T09:41:53.000Z</time>
      </trkpt>
      <trkpt lat="45.12447" lon="4.80116">
        <ele>127.40000152588</ele>
        <time>2024-05-21T09:41:54.000Z</time>
      </trkpt>
      <trkpt lat="45.1244" lon="4.80113">
        <ele>127.40000152588</ele>
        <time>2024-05-21T09:41:55.000Z</time>
      </trkpt>
      <trkpt lat="45.12434" lon="4.80111">
        <ele>127.40000152588</ele>
        <time>2024-05-21T09:41:56.000Z</time>
      </trkpt>
      <trkpt lat="45.12429" lon="4.80109">
        <ele>127.40000152588</ele>
        <time>2024-05-21T09:41:57.000Z</time>
      </trkpt>
      <trkpt lat="45.12422" lon="4.80107">
        <ele>127.40000152588</ele>
        <time>2024-05-21T09:41:58.000Z</time>
      </trkpt>
      <trkpt lat="45.12415" lon="4.80105">
        <ele>127.40000152588</ele>
        <time>2024-05-21T09:41:59.000Z</time>
      </trkpt>
      <trkpt lat="45.12408" lon="4.80104">
        <ele>127.19999694824</ele>
        <time>2024-05-21T09:42:00.000Z</time>
      </trkpt>
      <trkpt lat="45.12402" lon="4.80104">
        <ele>127</ele>
        <time>2024-05-21T09:42:01.000Z</time>
      </trkpt>
      <trkpt lat="45.12395" lon="4.80104">
        <ele>126.40000152588</ele>
        <time>2024-05-21T09:42:02.000Z</time>
      </trkpt>
      <trkpt lat="45.12389" lon="4.80104">
        <ele>126.40000152588</ele>
        <time>2024-05-21T09:42:03.000Z</time>
      </trkpt>
      <trkpt lat="45.12382" lon="4.80103">
        <ele>126.40000152588</ele>
        <time>2024-05-21T09:42:04.000Z</time>
      </trkpt>
      <trkpt lat="45.12377" lon="4.80103">
        <ele>126.40000152588</ele>
        <time>2024-05-21T09:42:05.000Z</time>
      </trkpt>
      <trkpt lat="45.12371" lon="4.80102">
        <ele>126.40000152588</ele>
        <time>2024-05-21T09:42:06.000Z</time>
      </trkpt>
      <trkpt lat="45.12366" lon="4.801">
        <ele>126.59999847412</ele>
        <time>2024-05-21T09:42:07.000Z</time>
      </trkpt>
      <trkpt lat="45.12361" lon="4.80099">
        <ele>126.80000305176</ele>
        <time>2024-05-21T09:42:08.000Z</time>
      </trkpt>
      <trkpt lat="45.12355" lon="4.80098">
        <ele>127.19999694824</ele>
        <time>2024-05-21T09:42:09.000Z</time>
      </trkpt>
      <trkpt lat="45.12351" lon="4.80097">
        <ele>127.59999847412</ele>
        <time>2024-05-21T09:42:10.000Z</time>
      </trkpt>
      <trkpt lat="45.12346" lon="4.80096">
        <ele>127.59999847412</ele>
        <time>2024-05-21T09:42:11.000Z</time>
      </trkpt>
      <trkpt lat="45.12341" lon="4.80095">
        <ele>128</ele>
        <time>2024-05-21T09:42:12.000Z</time>
      </trkpt>
      <trkpt lat="45.12337" lon="4.80094">
        <ele>128</ele>
        <time>2024-05-21T09:42:13.000Z</time>
      </trkpt>
      <trkpt lat="45.12332" lon="4.80094">
        <ele>128</ele>
        <time>2024-05-21T09:42:14.000Z</time>
      </trkpt>
      <trkpt lat="45.12328" lon="4.80094">
        <ele>128.19999694824</ele>
        <time>2024-05-21T09:42:15.000Z</time>
      </trkpt>
      <trkpt lat="45.12323" lon="4.80094">
        <ele>128.19999694824</ele>
        <time>2024-05-21T09:42:16.000Z</time>
      </trkpt>
      <trkpt lat="45.12318" lon="4.80094">
        <ele>128.19999694824</ele>
        <time>2024-05-21T09:42:17.000Z</time>
      </trkpt>
      <trkpt lat="45.12314" lon="4.80094">
        <ele>128.39999389648</ele>
        <time>2024-05-21T09:42:18.000Z</time>
      </trkpt>
      <trkpt lat="45.12309" lon="4.80094">
        <ele>128.39999389648</ele>
        <time>2024-05-21T09:42:19.000Z</time>
      </trkpt>
      <trkpt lat="45.12304" lon="4.80094">
        <ele>128.39999389648</ele>
        <time>2024-05-21T09:42:20.000Z</time>
      </trkpt>
      <trkpt lat="45.12299" lon="4.80094">
        <ele>128.39999389648</ele>
        <time>2024-05-21T09:42:21.000Z</time>
      </trkpt>
      <trkpt lat="45.12295" lon="4.80094">
        <ele>128.39999389648</ele>
        <time>2024-05-21T09:42:22.000Z</time>
      </trkpt>
      <trkpt lat="45.1229" lon="4.80095">
        <ele>128.19999694824</ele>
        <time>2024-05-21T09:42:23.000Z</time>
      </trkpt>
      <trkpt lat="45.12285" lon="4.80096">
        <ele>128.39999389648</ele>
        <time>2024-05-21T09:42:24.000Z</time>
      </trkpt>
      <trkpt lat="45.1228" lon="4.80097">
        <ele>128.39999389648</ele>
        <time>2024-05-21T09:42:25.000Z</time>
      </trkpt>
      <trkpt lat="45.12275" lon="4.80098">
        <ele>128.19999694824</ele>
        <time>2024-05-21T09:42:26.000Z</time>
      </trkpt>
      <trkpt lat="45.12271" lon="4.80099">
        <ele>128.19999694824</ele>
        <time>2024-05-21T09:42:27.000Z</time>
      </trkpt>
      <trkpt lat="45.12266" lon="4.80099">
        <ele>128.39999389648</ele>
        <time>2024-05-21T09:42:28.000Z</time>
      </trkpt>
      <trkpt lat="45.12261" lon="4.801">
        <ele>128.39999389648</ele>
        <time>2024-05-21T09:42:29.000Z</time>
      </trkpt>
      <trkpt lat="45.12256" lon="4.80101">
        <ele>128.39999389648</ele>
        <time>2024-05-21T09:42:30.000Z</time>
      </trkpt>
      <trkpt lat="45.12251" lon="4.80102">
        <ele>128.39999389648</ele>
        <time>2024-05-21T09:42:31.000Z</time>
      </trkpt>
      <trkpt lat="45.12246" lon="4.80102">
        <ele>128.39999389648</ele>
        <time>2024-05-21T09:42:32.000Z</time>
      </trkpt>
      <trkpt lat="45.12241" lon="4.80103">
        <ele>128.39999389648</ele>
        <time>2024-05-21T09:42:33.000Z</time>
      </trkpt>
      <trkpt lat="45.12236" lon="4.80104">
        <ele>128.60000610352</ele>
        <time>2024-05-21T09:42:34.000Z</time>
      </trkpt>
      <trkpt lat="45.12231" lon="4.80105">
        <ele>128.60000610352</ele>
        <time>2024-05-21T09:42:35.000Z</time>
      </trkpt>
      <trkpt lat="45.12226" lon="4.80107">
        <ele>128.60000610352</ele>
        <time>2024-05-21T09:42:36.000Z</time>
      </trkpt>
      <trkpt lat="45.12222" lon="4.80108">
        <ele>128.80000305176</ele>
        <time>2024-05-21T09:42:37.000Z</time>
      </trkpt>
      <trkpt lat="45.12217" lon="4.80111">
        <ele>128.80000305176</ele>
        <time>2024-05-21T09:42:38.000Z</time>
      </trkpt>
      <trkpt lat="45.12212" lon="4.80113">
        <ele>128.80000305176</ele>
        <time>2024-05-21T09:42:39.000Z</time>
      </trkpt>
      <trkpt lat="45.12208" lon="4.80115">
        <ele>128.80000305176</ele>
        <time>2024-05-21T09:42:40.000Z</time>
      </trkpt>
      <trkpt lat="45.12203" lon="4.80116">
        <ele>129</ele>
        <time>2024-05-21T09:42:41.000Z</time>
      </trkpt>
      <trkpt lat="45.12198" lon="4.80118">
        <ele>129</ele>
        <time>2024-05-21T09:42:42.000Z</time>
      </trkpt>
      <trkpt lat="45.12193" lon="4.8012">
        <ele>129</ele>
        <time>2024-05-21T09:42:43.000Z</time>
      </trkpt>
      <trkpt lat="45.12188" lon="4.80123">
        <ele>129</ele>
        <time>2024-05-21T09:42:44.000Z</time>
      </trkpt>
      <trkpt lat="45.12183" lon="4.80127">
        <ele>128.80000305176</ele>
        <time>2024-05-21T09:42:45.000Z</time>
      </trkpt>
      <trkpt lat="45.12178" lon="4.8013">
        <ele>128.80000305176</ele>
        <time>2024-05-21T09:42:46.000Z</time>
      </trkpt>
      <trkpt lat="45.12173" lon="4.80134">
        <ele>128.60000610352</ele>
        <time>2024-05-21T09:42:47.000Z</time>
      </trkpt>
      <trkpt lat="45.12167" lon="4.80138">
        <ele>128.19999694824</ele>
        <time>2024-05-21T09:42:48.000Z</time>
      </trkpt>
      <trkpt lat="45.12162" lon="4.80142">
        <ele>128.19999694824</ele>
        <time>2024-05-21T09:42:49.000Z</time>
      </trkpt>
      <trkpt lat="45.12156" lon="4.80145">
        <ele>127.80000305176</ele>
        <time>2024-05-21T09:42:50.000Z</time>
      </trkpt>
      <trkpt lat="45.1215" lon="4.80148">
        <ele>127.59999847412</ele>
        <time>2024-05-21T09:42:51.000Z</time>
      </trkpt>
      <trkpt lat="45.12144" lon="4.80149">
        <ele>127.40000152588</ele>
        <time>2024-05-21T09:42:52.000Z</time>
      </trkpt>
      <trkpt lat="45.12138" lon="4.80152">
        <ele>127.19999694824</ele>
        <time>2024-05-21T09:42:53.000Z</time>
      </trkpt>
      <trkpt lat="45.12132" lon="4.80154">
        <ele>127.19999694824</ele>
        <time>2024-05-21T09:42:54.000Z</time>
      </trkpt>
      <trkpt lat="45.12126" lon="4.80156">
        <ele>126.59999847412</ele>
        <time>2024-05-21T09:42:55.000Z</time>
      </trkpt>
      <trkpt lat="45.1212" lon="4.80158">
        <ele>126.59999847412</ele>
        <time>2024-05-21T09:42:56.000Z</time>
      </trkpt>
      <trkpt lat="45.12115" lon="4.80161">
        <ele>126.40000152588</ele>
        <time>2024-05-21T09:42:57.000Z</time>
      </trkpt>
      <trkpt lat="45.12109" lon="4.80164">
        <ele>126.40000152588</ele>
        <time>2024-05-21T09:42:58.000Z</time>
      </trkpt>
      <trkpt lat="45.12104" lon="4.80168">
        <ele>126</ele>
        <time>2024-05-21T09:42:59.000Z</time>
      </trkpt>
      <trkpt lat="45.12099" lon="4.80171">
        <ele>126</ele>
        <time>2024-05-21T09:43:00.000Z</time>
      </trkpt>
      <trkpt lat="45.12095" lon="4.80174">
        <ele>126</ele>
        <time>2024-05-21T09:43:01.000Z</time>
      </trkpt>
      <trkpt lat="45.12091" lon="4.80176">
        <ele>126</ele>
        <time>2024-05-21T09:43:02.000Z</time>
      </trkpt>
      <trkpt lat="45.12087" lon="4.80178">
        <ele>126.19999694824</ele>
        <time>2024-05-21T09:43:03.000Z</time>
      </trkpt>
      <trkpt lat="45.12084" lon="4.80182">
        <ele>126.40000152588</ele>
        <time>2024-05-21T09:43:04.000Z</time>
      </trkpt>
      <trkpt lat="45.12081" lon="4.80186">
        <ele>126.59999847412</ele>
        <time>2024-05-21T09:43:05.000Z</time>
      </trkpt>
      <trkpt lat="45.12079" lon="4.80192">
        <ele>126.59999847412</ele>
        <time>2024-05-21T09:43:06.000Z</time>
      </trkpt>
      <trkpt lat="45.12077" lon="4.80198">
        <ele>126.59999847412</ele>
        <time>2024-05-21T09:43:07.000Z</time>
      </trkpt>
      <trkpt lat="45.12075" lon="4.80204">
        <ele>126.59999847412</ele>
        <time>2024-05-21T09:43:08.000Z</time>
      </trkpt>
      <trkpt lat="45.12074" lon="4.80211">
        <ele>126.59999847412</ele>
        <time>2024-05-21T09:43:09.000Z</time>
      </trkpt>
      <trkpt lat="45.12072" lon="4.80218">
        <ele>126.59999847412</ele>
        <time>2024-05-21T09:43:10.000Z</time>
      </trkpt>
      <trkpt lat="45.1207" lon="4.80226">
        <ele>126.19999694824</ele>
        <time>2024-05-21T09:43:11.000Z</time>
      </trkpt>
      <trkpt lat="45.12069" lon="4.80235">
        <ele>125.80000305176</ele>
        <time>2024-05-21T09:43:12.000Z</time>
      </trkpt>
      <trkpt lat="45.12067" lon="4.80244">
        <ele>125.59999847412</ele>
        <time>2024-05-21T09:43:13.000Z</time>
      </trkpt>
      <trkpt lat="45.12065" lon="4.80253">
        <ele>125.19999694824</ele>
        <time>2024-05-21T09:43:14.000Z</time>
      </trkpt>
      <trkpt lat="45.12063" lon="4.80262">
        <ele>125</ele>
        <time>2024-05-21T09:43:15.000Z</time>
      </trkpt>
      <trkpt lat="45.12061" lon="4.80271">
        <ele>124.59999847412</ele>
        <time>2024-05-21T09:43:16.000Z</time>
      </trkpt>
      <trkpt lat="45.12059" lon="4.80281">
        <ele>124.40000152588</ele>
        <time>2024-05-21T09:43:17.000Z</time>
      </trkpt>
      <trkpt lat="45.12057" lon="4.8029">
        <ele>124</ele>
        <time>2024-05-21T09:43:18.000Z</time>
      </trkpt>
      <trkpt lat="45.12056" lon="4.80301">
        <ele>124</ele>
        <time>2024-05-21T09:43:19.000Z</time>
      </trkpt>
      <trkpt lat="45.12054" lon="4.80311">
        <ele>123.80000305176</ele>
        <time>2024-05-21T09:43:20.000Z</time>
      </trkpt>
      <trkpt lat="45.12053" lon="4.80321">
        <ele>123.59999847412</ele>
        <time>2024-05-21T09:43:21.000Z</time>
      </trkpt>
      <trkpt lat="45.12053" lon="4.80332">
        <ele>123.40000152588</ele>
        <time>2024-05-21T09:43:22.000Z</time>
      </trkpt>
      <trkpt lat="45.12052" lon="4.80342">
        <ele>123.40000152588</ele>
        <time>2024-05-21T09:43:23.000Z</time>
      </trkpt>
      <trkpt lat="45.1205" lon="4.80352">
        <ele>123.40000152588</ele>
        <time>2024-05-21T09:43:24.000Z</time>
      </trkpt>
      <trkpt lat="45.12048" lon="4.80361">
        <ele>123.19999694824</ele>
        <time>2024-05-21T09:43:25.000Z</time>
      </trkpt>
      <trkpt lat="45.12045" lon="4.8037">
        <ele>123</ele>
        <time>2024-05-21T09:43:26.000Z</time>
      </trkpt>
      <trkpt lat="45.1204" lon="4.80379">
        <ele>123</ele>
        <time>2024-05-21T09:43:27.000Z</time>
      </trkpt>
      <trkpt lat="45.12035" lon="4.80386">
        <ele>123</ele>
        <time>2024-05-21T09:43:28.000Z</time>
      </trkpt>
      <trkpt lat="45.1203" lon="4.80393">
        <ele>123</ele>
        <time>2024-05-21T09:43:29.000Z</time>
      </trkpt>
      <trkpt lat="45.12025" lon="4.804">
        <ele>123</ele>
        <time>2024-05-21T09:43:30.000Z</time>
      </trkpt>
      <trkpt lat="45.1202" lon="4.80407">
        <ele>123</ele>
        <time>2024-05-21T09:43:31.000Z</time>
      </trkpt>
      <trkpt lat="45.12016" lon="4.80412">
        <ele>123</ele>
        <time>2024-05-21T09:43:32.000Z</time>
      </trkpt>
      <trkpt lat="45.12012" lon="4.80419">
        <ele>123.19999694824</ele>
        <time>2024-05-21T09:43:33.000Z</time>
      </trkpt>
      <trkpt lat="45.12007" lon="4.80426">
        <ele>123.19999694824</ele>
        <time>2024-05-21T09:43:34.000Z</time>
      </trkpt>
      <trkpt lat="45.12003" lon="4.80433">
        <ele>123.40000152588</ele>
        <time>2024-05-21T09:43:35.000Z</time>
      </trkpt>
      <trkpt lat="45.11999" lon="4.80441">
        <ele>123.40000152588</ele>
        <time>2024-05-21T09:43:36.000Z</time>
      </trkpt>
      <trkpt lat="45.11995" lon="4.80449">
        <ele>123.80000305176</ele>
        <time>2024-05-21T09:43:37.000Z</time>
      </trkpt>
      <trkpt lat="45.11991" lon="4.80456">
        <ele>124</ele>
        <time>2024-05-21T09:43:38.000Z</time>
      </trkpt>
      <trkpt lat="45.11986" lon="4.80463">
        <ele>124</ele>
        <time>2024-05-21T09:43:39.000Z</time>
      </trkpt>
      <trkpt lat="45.11981" lon="4.8047">
        <ele>124</ele>
        <time>2024-05-21T09:43:40.000Z</time>
      </trkpt>
      <trkpt lat="45.11976" lon="4.80476">
        <ele>124</ele>
        <time>2024-05-21T09:43:41.000Z</time>
      </trkpt>
      <trkpt lat="45.11971" lon="4.80482">
        <ele>123.80000305176</ele>
        <time>2024-05-21T09:43:42.000Z</time>
      </trkpt>
      <trkpt lat="45.11966" lon="4.80488">
        <ele>123.80000305176</ele>
        <time>2024-05-21T09:43:43.000Z</time>
      </trkpt>
      <trkpt lat="45.1196" lon="4.80495">
        <ele>123.80000305176</ele>
        <time>2024-05-21T09:43:44.000Z</time>
      </trkpt>
      <trkpt lat="45.11955" lon="4.80501">
        <ele>123.59999847412</ele>
        <time>2024-05-21T09:43:45.000Z</time>
      </trkpt>
      <trkpt lat="45.1195" lon="4.80507">
        <ele>123.59999847412</ele>
        <time>2024-05-21T09:43:46.000Z</time>
      </trkpt>
      <trkpt lat="45.11945" lon="4.80514">
        <ele>123.59999847412</ele>
        <time>2024-05-21T09:43:47.000Z</time>
      </trkpt>
      <trkpt lat="45.1194" lon="4.80521">
        <ele>123.40000152588</ele>
        <time>2024-05-21T09:43:48.000Z</time>
      </trkpt>
      <trkpt lat="45.11935" lon="4.80527">
        <ele>123.40000152588</ele>
        <time>2024-05-21T09:43:49.000Z</time>
      </trkpt>
      <trkpt lat="45.1193" lon="4.80534">
        <ele>123.40000152588</ele>
        <time>2024-05-21T09:43:50.000Z</time>
      </trkpt>
      <trkpt lat="45.11925" lon="4.8054">
        <ele>123.40000152588</ele>
        <time>2024-05-21T09:43:51.000Z</time>
      </trkpt>
      <trkpt lat="45.11919" lon="4.80546">
        <ele>123.40000152588</ele>
        <time>2024-05-21T09:43:52.000Z</time>
      </trkpt>
      <trkpt lat="45.11913" lon="4.80552">
        <ele>123.40000152588</ele>
        <time>2024-05-21T09:43:53.000Z</time>
      </trkpt>
      <trkpt lat="45.11907" lon="4.80557">
        <ele>123.40000152588</ele>
        <time>2024-05-21T09:43:54.000Z</time>
      </trkpt>
      <trkpt lat="45.11901" lon="4.80563">
        <ele>123.40000152588</ele>
        <time>2024-05-21T09:43:55.000Z</time>
      </trkpt>
      <trkpt lat="45.11896" lon="4.80568">
        <ele>123.40000152588</ele>
        <time>2024-05-21T09:43:56.000Z</time>
      </trkpt>
      <trkpt lat="45.1189" lon="4.80573">
        <ele>123.40000152588</ele>
        <time>2024-05-21T09:43:57.000Z</time>
      </trkpt>
      <trkpt lat="45.11884" lon="4.80578">
        <ele>123.59999847412</ele>
        <time>2024-05-21T09:43:58.000Z</time>
      </trkpt>
      <trkpt lat="45.11879" lon="4.80583">
        <ele>123.59999847412</ele>
        <time>2024-05-21T09:43:59.000Z</time>
      </trkpt>
      <trkpt lat="45.11874" lon="4.80589">
        <ele>123.59999847412</ele>
        <time>2024-05-21T09:44:00.000Z</time>
      </trkpt>
      <trkpt lat="45.11869" lon="4.80594">
        <ele>123.59999847412</ele>
        <time>2024-05-21T09:44:01.000Z</time>
      </trkpt>
      <trkpt lat="45.11863" lon="4.80599">
        <ele>123.80000305176</ele>
        <time>2024-05-21T09:44:02.000Z</time>
      </trkpt>
      <trkpt lat="45.11858" lon="4.80603">
        <ele>124</ele>
        <time>2024-05-21T09:44:03.000Z</time>
      </trkpt>
      <trkpt lat="45.11853" lon="4.80609">
        <ele>124</ele>
        <time>2024-05-21T09:44:04.000Z</time>
      </trkpt>
      <trkpt lat="45.11848" lon="4.80614">
        <ele>124</ele>
        <time>2024-05-21T09:44:05.000Z</time>
      </trkpt>
      <trkpt lat="45.11842" lon="4.80619">
        <ele>124</ele>
        <time>2024-05-21T09:44:06.000Z</time>
      </trkpt>
      <trkpt lat="45.11836" lon="4.80624">
        <ele>124</ele>
        <time>2024-05-21T09:44:07.000Z</time>
      </trkpt>
      <trkpt lat="45.1183" lon="4.80629">
        <ele>124</ele>
        <time>2024-05-21T09:44:08.000Z</time>
      </trkpt>
      <trkpt lat="45.11825" lon="4.80633">
        <ele>124</ele>
        <time>2024-05-21T09:44:09.000Z</time>
      </trkpt>
      <trkpt lat="45.11819" lon="4.80638">
        <ele>124</ele>
        <time>2024-05-21T09:44:10.000Z</time>
      </trkpt>
      <trkpt lat="45.11813" lon="4.80642">
        <ele>124</ele>
        <time>2024-05-21T09:44:11.000Z</time>
      </trkpt>
      <trkpt lat="45.11807" lon="4.80646">
        <ele>124</ele>
        <time>2024-05-21T09:44:12.000Z</time>
      </trkpt>
      <trkpt lat="45.11801" lon="4.80651">
        <ele>124</ele>
        <time>2024-05-21T09:44:13.000Z</time>
      </trkpt>
      <trkpt lat="45.11796" lon="4.80655">
        <ele>124</ele>
        <time>2024-05-21T09:44:14.000Z</time>
      </trkpt>
      <trkpt lat="45.11788" lon="4.80659">
        <ele>124.19999694824</ele>
        <time>2024-05-21T09:44:15.000Z</time>
      </trkpt>
      <trkpt lat="45.11782" lon="4.80663">
        <ele>124.19999694824</ele>
        <time>2024-05-21T09:44:16.000Z</time>
      </trkpt>
      <trkpt lat="45.11776" lon="4.80667">
        <ele>124.19999694824</ele>
        <time>2024-05-21T09:44:17.000Z</time>
      </trkpt>
      <trkpt lat="45.11771" lon="4.80671">
        <ele>124.19999694824</ele>
        <time>2024-05-21T09:44:18.000Z</time>
      </trkpt>
      <trkpt lat="45.11765" lon="4.80675">
        <ele>124.19999694824</ele>
        <time>2024-05-21T09:44:19.000Z</time>
      </trkpt>
      <trkpt lat="45.11759" lon="4.80679">
        <ele>124.19999694824</ele>
        <time>2024-05-21T09:44:20.000Z</time>
      </trkpt>
      <trkpt lat="45.11753" lon="4.80683">
        <ele>124.19999694824</ele>
        <time>2024-05-21T09:44:21.000Z</time>
      </trkpt>
      <trkpt lat="45.11747" lon="4.80686">
        <ele>124.19999694824</ele>
        <time>2024-05-21T09:44:22.000Z</time>
      </trkpt>
      <trkpt lat="45.11742" lon="4.8069">
        <ele>124.19999694824</ele>
        <time>2024-05-21T09:44:23.000Z</time>
      </trkpt>
      <trkpt lat="45.11737" lon="4.80693">
        <ele>124.40000152588</ele>
        <time>2024-05-21T09:44:24.000Z</time>
      </trkpt>
      <trkpt lat="45.11731" lon="4.80697">
        <ele>124.40000152588</ele>
        <time>2024-05-21T09:44:25.000Z</time>
      </trkpt>
      <trkpt lat="45.11725" lon="4.80702">
        <ele>124.40000152588</ele>
        <time>2024-05-21T09:44:26.000Z</time>
      </trkpt>
      <trkpt lat="45.1172" lon="4.80705">
        <ele>124.40000152588</ele>
        <time>2024-05-21T09:44:27.000Z</time>
      </trkpt>
      <trkpt lat="45.11713" lon="4.8071">
        <ele>124.40000152588</ele>
        <time>2024-05-21T09:44:28.000Z</time>
      </trkpt>
      <trkpt lat="45.11707" lon="4.80714">
        <ele>124.40000152588</ele>
        <time>2024-05-21T09:44:29.000Z</time>
      </trkpt>
      <trkpt lat="45.11701" lon="4.80717">
        <ele>124.40000152588</ele>
        <time>2024-05-21T09:44:30.000Z</time>
      </trkpt>
      <trkpt lat="45.11695" lon="4.80721">
        <ele>124.40000152588</ele>
        <time>2024-05-21T09:44:31.000Z</time>
      </trkpt>
      <trkpt lat="45.1169" lon="4.80725">
        <ele>124.40000152588</ele>
        <time>2024-05-21T09:44:32.000Z</time>
      </trkpt>
      <trkpt lat="45.11684" lon="4.80729">
        <ele>124.40000152588</ele>
        <time>2024-05-21T09:44:33.000Z</time>
      </trkpt>
      <trkpt lat="45.11678" lon="4.80734">
        <ele>124.40000152588</ele>
        <time>2024-05-21T09:44:34.000Z</time>
      </trkpt>
      <trkpt lat="45.11672" lon="4.80739">
        <ele>124.40000152588</ele>
        <time>2024-05-21T09:44:35.000Z</time>
      </trkpt>
      <trkpt lat="45.11667" lon="4.80743">
        <ele>124.40000152588</ele>
        <time>2024-05-21T09:44:36.000Z</time>
      </trkpt>
      <trkpt lat="45.11661" lon="4.80748">
        <ele>124.40000152588</ele>
        <time>2024-05-21T09:44:37.000Z</time>
      </trkpt>
      <trkpt lat="45.11655" lon="4.80752">
        <ele>124.40000152588</ele>
        <time>2024-05-21T09:44:38.000Z</time>
      </trkpt>
      <trkpt lat="45.1165" lon="4.80756">
        <ele>124.40000152588</ele>
        <time>2024-05-21T09:44:39.000Z</time>
      </trkpt>
      <trkpt lat="45.11644" lon="4.80761">
        <ele>124.40000152588</ele>
        <time>2024-05-21T09:44:40.000Z</time>
      </trkpt>
      <trkpt lat="45.11638" lon="4.80765">
        <ele>124.40000152588</ele>
        <time>2024-05-21T09:44:41.000Z</time>
      </trkpt>
      <trkpt lat="45.11633" lon="4.8077">
        <ele>124.40000152588</ele>
        <time>2024-05-21T09:44:42.000Z</time>
      </trkpt>
      <trkpt lat="45.11627" lon="4.80774">
        <ele>124.40000152588</ele>
        <time>2024-05-21T09:44:43.000Z</time>
      </trkpt>
      <trkpt lat="45.11621" lon="4.80778">
        <ele>124.40000152588</ele>
        <time>2024-05-21T09:44:44.000Z</time>
      </trkpt>
      <trkpt lat="45.11617" lon="4.80781">
        <ele>124.40000152588</ele>
        <time>2024-05-21T09:44:45.000Z</time>
      </trkpt>
      <trkpt lat="45.11611" lon="4.80786">
        <ele>124.40000152588</ele>
        <time>2024-05-21T09:44:46.000Z</time>
      </trkpt>
      <trkpt lat="45.11604" lon="4.80792">
        <ele>124.40000152588</ele>
        <time>2024-05-21T09:44:47.000Z</time>
      </trkpt>
      <trkpt lat="45.11599" lon="4.80797">
        <ele>124.40000152588</ele>
        <time>2024-05-21T09:44:48.000Z</time>
      </trkpt>
      <trkpt lat="45.11594" lon="4.80802">
        <ele>124.40000152588</ele>
        <time>2024-05-21T09:44:49.000Z</time>
      </trkpt>
      <trkpt lat="45.11588" lon="4.80806">
        <ele>124.40000152588</ele>
        <time>2024-05-21T09:44:50.000Z</time>
      </trkpt>
      <trkpt lat="45.11583" lon="4.80812">
        <ele>124.40000152588</ele>
        <time>2024-05-21T09:44:51.000Z</time>
      </trkpt>
      <trkpt lat="45.11577" lon="4.80817">
        <ele>124.40000152588</ele>
        <time>2024-05-21T09:44:52.000Z</time>
      </trkpt>
      <trkpt lat="45.11572" lon="4.80823">
        <ele>124.40000152588</ele>
        <time>2024-05-21T09:44:53.000Z</time>
      </trkpt>
      <trkpt lat="45.11567" lon="4.80828">
        <ele>124.40000152588</ele>
        <time>2024-05-21T09:44:54.000Z</time>
      </trkpt>
      <trkpt lat="45.11562" lon="4.80833">
        <ele>124.40000152588</ele>
        <time>2024-05-21T09:44:55.000Z</time>
      </trkpt>
      <trkpt lat="45.11556" lon="4.8084">
        <ele>124.40000152588</ele>
        <time>2024-05-21T09:44:56.000Z</time>
      </trkpt>
      <trkpt lat="45.1155" lon="4.80845">
        <ele>124.40000152588</ele>
        <time>2024-05-21T09:44:57.000Z</time>
      </trkpt>
      <trkpt lat="45.11545" lon="4.8085">
        <ele>124.40000152588</ele>
        <time>2024-05-21T09:44:58.000Z</time>
      </trkpt>
      <trkpt lat="45.11539" lon="4.80855">
        <ele>124.19999694824</ele>
        <time>2024-05-21T09:44:59.000Z</time>
      </trkpt>
      <trkpt lat="45.11533" lon="4.80859">
        <ele>124.19999694824</ele>
        <time>2024-05-21T09:45:00.000Z</time>
      </trkpt>
      <trkpt lat="45.11527" lon="4.80864">
        <ele>124.19999694824</ele>
        <time>2024-05-21T09:45:01.000Z</time>
      </trkpt>
      <trkpt lat="45.11522" lon="4.80868">
        <ele>124.19999694824</ele>
        <time>2024-05-21T09:45:02.000Z</time>
      </trkpt>
      <trkpt lat="45.11516" lon="4.80873">
        <ele>124.19999694824</ele>
        <time>2024-05-21T09:45:03.000Z</time>
      </trkpt>
      <trkpt lat="45.1151" lon="4.80877">
        <ele>124.19999694824</ele>
        <time>2024-05-21T09:45:04.000Z</time>
      </trkpt>
      <trkpt lat="45.11504" lon="4.80881">
        <ele>124.40000152588</ele>
        <time>2024-05-21T09:45:05.000Z</time>
      </trkpt>
      <trkpt lat="45.11498" lon="4.80886">
        <ele>124.40000152588</ele>
        <time>2024-05-21T09:45:06.000Z</time>
      </trkpt>
      <trkpt lat="45.11493" lon="4.8089">
        <ele>124.40000152588</ele>
        <time>2024-05-21T09:45:07.000Z</time>
      </trkpt>
      <trkpt lat="45.11487" lon="4.80895">
        <ele>124.40000152588</ele>
        <time>2024-05-21T09:45:08.000Z</time>
      </trkpt>
      <trkpt lat="45.11482" lon="4.809">
        <ele>124.40000152588</ele>
        <time>2024-05-21T09:45:09.000Z</time>
      </trkpt>
      <trkpt lat="45.11476" lon="4.80905">
        <ele>124.40000152588</ele>
        <time>2024-05-21T09:45:10.000Z</time>
      </trkpt>
      <trkpt lat="45.1147" lon="4.80911">
        <ele>124.40000152588</ele>
        <time>2024-05-21T09:45:11.000Z</time>
      </trkpt>
      <trkpt lat="45.11465" lon="4.80915">
        <ele>124.40000152588</ele>
        <time>2024-05-21T09:45:12.000Z</time>
      </trkpt>
      <trkpt lat="45.1146" lon="4.8092">
        <ele>124.40000152588</ele>
        <time>2024-05-21T09:45:13.000Z</time>
      </trkpt>
      <trkpt lat="45.11454" lon="4.80924">
        <ele>124.40000152588</ele>
        <time>2024-05-21T09:45:14.000Z</time>
      </trkpt>
      <trkpt lat="45.11449" lon="4.80929">
        <ele>124.40000152588</ele>
        <time>2024-05-21T09:45:15.000Z</time>
      </trkpt>
      <trkpt lat="45.11443" lon="4.80934">
        <ele>124.40000152588</ele>
        <time>2024-05-21T09:45:16.000Z</time>
      </trkpt>
      <trkpt lat="45.11437" lon="4.80938">
        <ele>124.40000152588</ele>
        <time>2024-05-21T09:45:17.000Z</time>
      </trkpt>
      <trkpt lat="45.11432" lon="4.80943">
        <ele>124.40000152588</ele>
        <time>2024-05-21T09:45:18.000Z</time>
      </trkpt>
      <trkpt lat="45.11427" lon="4.80948">
        <ele>124.40000152588</ele>
        <time>2024-05-21T09:45:19.000Z</time>
      </trkpt>
      <trkpt lat="45.11421" lon="4.80953">
        <ele>124.40000152588</ele>
        <time>2024-05-21T09:45:20.000Z</time>
      </trkpt>
      <trkpt lat="45.11415" lon="4.80957">
        <ele>124.40000152588</ele>
        <time>2024-05-21T09:45:21.000Z</time>
      </trkpt>
      <trkpt lat="45.1141" lon="4.80962">
        <ele>124.40000152588</ele>
        <time>2024-05-21T09:45:22.000Z</time>
      </trkpt>
      <trkpt lat="45.11404" lon="4.80967">
        <ele>124.40000152588</ele>
        <time>2024-05-21T09:45:23.000Z</time>
      </trkpt>
      <trkpt lat="45.11399" lon="4.80972">
        <ele>124.40000152588</ele>
        <time>2024-05-21T09:45:24.000Z</time>
      </trkpt>
      <trkpt lat="45.11393" lon="4.80978">
        <ele>124.40000152588</ele>
        <time>2024-05-21T09:45:25.000Z</time>
      </trkpt>
      <trkpt lat="45.11388" lon="4.80983">
        <ele>124.40000152588</ele>
        <time>2024-05-21T09:45:26.000Z</time>
      </trkpt>
      <trkpt lat="45.11382" lon="4.80988">
        <ele>124.40000152588</ele>
        <time>2024-05-21T09:45:27.000Z</time>
      </trkpt>
      <trkpt lat="45.11377" lon="4.80993">
        <ele>124.40000152588</ele>
        <time>2024-05-21T09:45:28.000Z</time>
      </trkpt>
      <trkpt lat="45.11372" lon="4.80999">
        <ele>124.40000152588</ele>
        <time>2024-05-21T09:45:29.000Z</time>
      </trkpt>
      <trkpt lat="45.11368" lon="4.81005">
        <ele>124.40000152588</ele>
        <time>2024-05-21T09:45:30.000Z</time>
      </trkpt>
      <trkpt lat="45.11363" lon="4.81011">
        <ele>124.40000152588</ele>
        <time>2024-05-21T09:45:31.000Z</time>
      </trkpt>
      <trkpt lat="45.11359" lon="4.81017">
        <ele>124.19999694824</ele>
        <time>2024-05-21T09:45:32.000Z</time>
      </trkpt>
      <trkpt lat="45.11355" lon="4.81024">
        <ele>123.80000305176</ele>
        <time>2024-05-21T09:45:33.000Z</time>
      </trkpt>
      <trkpt lat="45.11351" lon="4.81029">
        <ele>123.80000305176</ele>
        <time>2024-05-21T09:45:34.000Z</time>
      </trkpt>
      <trkpt lat="45.11347" lon="4.81034">
        <ele>123.80000305176</ele>
        <time>2024-05-21T09:45:35.000Z</time>
      </trkpt>
      <trkpt lat="45.11342" lon="4.81039">
        <ele>123.80000305176</ele>
        <time>2024-05-21T09:45:36.000Z</time>
      </trkpt>
      <trkpt lat="45.11337" lon="4.81042">
        <ele>123.80000305176</ele>
        <time>2024-05-21T09:45:37.000Z</time>
      </trkpt>
      <trkpt lat="45.11332" lon="4.81045">
        <ele>123.80000305176</ele>
        <time>2024-05-21T09:45:38.000Z</time>
      </trkpt>
      <trkpt lat="45.11327" lon="4.81048">
        <ele>123.59999847412</ele>
        <time>2024-05-21T09:45:39.000Z</time>
      </trkpt>
      <trkpt lat="45.11323" lon="4.8105">
        <ele>123.59999847412</ele>
        <time>2024-05-21T09:45:40.000Z</time>
      </trkpt>
      <trkpt lat="45.1132" lon="4.81053">
        <ele>123.59999847412</ele>
        <time>2024-05-21T09:45:41.000Z</time>
      </trkpt>
      <trkpt lat="45.11318" lon="4.81056">
        <ele>123.59999847412</ele>
        <time>2024-05-21T09:45:42.000Z</time>
      </trkpt>
      <trkpt lat="45.11317" lon="4.81061">
        <ele>123.59999847412</ele>
        <time>2024-05-21T09:45:43.000Z</time>
      </trkpt>
      <trkpt lat="45.11316" lon="4.81064">
        <ele>123.80000305176</ele>
        <time>2024-05-21T09:45:44.000Z</time>
      </trkpt>
      <trkpt lat="45.11314" lon="4.81067">
        <ele>124</ele>
        <time>2024-05-21T09:45:45.000Z</time>
      </trkpt>
      <trkpt lat="45.11313" lon="4.81068">
        <ele>124.19999694824</ele>
        <time>2024-05-21T09:45:46.000Z</time>
      </trkpt>
      <trkpt lat="45.11312" lon="4.81069">
        <ele>124.19999694824</ele>
        <time>2024-05-21T09:45:47.000Z</time>
      </trkpt>
      <trkpt lat="45.11311" lon="4.8107">
        <ele>124.19999694824</ele>
        <time>2024-05-21T09:45:48.000Z</time>
      </trkpt>
      <trkpt lat="45.11311" lon="4.8107">
        <ele>124.19999694824</ele>
        <time>2024-05-21T09:45:49.000Z</time>
      </trkpt>
      <trkpt lat="45.11311" lon="4.8107">
        <ele>124.19999694824</ele>
        <time>2024-05-21T09:45:50.000Z</time>
      </trkpt>
      <trkpt lat="45.1131" lon="4.81055">
        <ele>124.40000152588</ele>
        <time>2024-05-21T10:07:53.000Z</time>
      </trkpt>
      <trkpt lat="45.11309" lon="4.81055">
        <ele>124.40000152588</ele>
        <time>2024-05-21T10:07:54.000Z</time>
      </trkpt>
      <trkpt lat="45.11308" lon="4.81056">
        <ele>124.40000152588</ele>
        <time>2024-05-21T10:07:55.000Z</time>
      </trkpt>
      <trkpt lat="45.11307" lon="4.81056">
        <ele>124.40000152588</ele>
        <time>2024-05-21T10:07:56.000Z</time>
      </trkpt>
      <trkpt lat="45.11306" lon="4.81057">
        <ele>124.40000152588</ele>
        <time>2024-05-21T10:07:57.000Z</time>
      </trkpt>
      <trkpt lat="45.11304" lon="4.81058">
        <ele>124.40000152588</ele>
        <time>2024-05-21T10:07:58.000Z</time>
      </trkpt>
      <trkpt lat="45.11302" lon="4.81058">
        <ele>124.40000152588</ele>
        <time>2024-05-21T10:07:59.000Z</time>
      </trkpt>
      <trkpt lat="45.11299" lon="4.81059">
        <ele>124.40000152588</ele>
        <time>2024-05-21T10:08:00.000Z</time>
      </trkpt>
      <trkpt lat="45.11296" lon="4.81061">
        <ele>124.40000152588</ele>
        <time>2024-05-21T10:08:01.000Z</time>
      </trkpt>
      <trkpt lat="45.11293" lon="4.81062">
        <ele>124.40000152588</ele>
        <time>2024-05-21T10:08:02.000Z</time>
      </trkpt>
      <trkpt lat="45.1129" lon="4.81064">
        <ele>124.40000152588</ele>
        <time>2024-05-21T10:08:03.000Z</time>
      </trkpt>
      <trkpt lat="45.11287" lon="4.81065">
        <ele>124.40000152588</ele>
        <time>2024-05-21T10:08:04.000Z</time>
      </trkpt>
      <trkpt lat="45.11283" lon="4.81067">
        <ele>124.40000152588</ele>
        <time>2024-05-21T10:08:05.000Z</time>
      </trkpt>
      <trkpt lat="45.1128" lon="4.81069">
        <ele>124.40000152588</ele>
        <time>2024-05-21T10:08:06.000Z</time>
      </trkpt>
      <trkpt lat="45.11277" lon="4.8107">
        <ele>124.40000152588</ele>
        <time>2024-05-21T10:08:07.000Z</time>
      </trkpt>
      <trkpt lat="45.11273" lon="4.81071">
        <ele>124.40000152588</ele>
        <time>2024-05-21T10:08:08.000Z</time>
      </trkpt>
      <trkpt lat="45.1127" lon="4.81073">
        <ele>124.19999694824</ele>
        <time>2024-05-21T10:08:09.000Z</time>
      </trkpt>
      <trkpt lat="45.11267" lon="4.81075">
        <ele>124.19999694824</ele>
        <time>2024-05-21T10:08:10.000Z</time>
      </trkpt>
      <trkpt lat="45.11263" lon="4.81077">
        <ele>124.19999694824</ele>
        <time>2024-05-21T10:08:11.000Z</time>
      </trkpt>
      <trkpt lat="45.11259" lon="4.81079">
        <ele>124.19999694824</ele>
        <time>2024-05-21T10:08:12.000Z</time>
      </trkpt>
      <trkpt lat="45.11256" lon="4.81081">
        <ele>124.19999694824</ele>
        <time>2024-05-21T10:08:13.000Z</time>
      </trkpt>
      <trkpt lat="45.11253" lon="4.81084">
        <ele>124.40000152588</ele>
        <time>2024-05-21T10:08:14.000Z</time>
      </trkpt>
      <trkpt lat="45.11249" lon="4.81088">
        <ele>124.40000152588</ele>
        <time>2024-05-21T10:08:15.000Z</time>
      </trkpt>
      <trkpt lat="45.11246" lon="4.81092">
        <ele>124.59999847412</ele>
        <time>2024-05-21T10:08:16.000Z</time>
      </trkpt>
      <trkpt lat="45.11242" lon="4.81096">
        <ele>124.59999847412</ele>
        <time>2024-05-21T10:08:17.000Z</time>
      </trkpt>
      <trkpt lat="45.11238" lon="4.811">
        <ele>124.59999847412</ele>
        <time>2024-05-21T10:08:18.000Z</time>
      </trkpt>
      <trkpt lat="45.11234" lon="4.81103">
        <ele>124.59999847412</ele>
        <time>2024-05-21T10:08:19.000Z</time>
      </trkpt>
      <trkpt lat="45.1123" lon="4.81106">
        <ele>124.59999847412</ele>
        <time>2024-05-21T10:08:20.000Z</time>
      </trkpt>
      <trkpt lat="45.11227" lon="4.8111">
        <ele>124.59999847412</ele>
        <time>2024-05-21T10:08:21.000Z</time>
      </trkpt>
      <trkpt lat="45.11223" lon="4.81113">
        <ele>124.59999847412</ele>
        <time>2024-05-21T10:08:22.000Z</time>
      </trkpt>
      <trkpt lat="45.1122" lon="4.81117">
        <ele>124.59999847412</ele>
        <time>2024-05-21T10:08:23.000Z</time>
      </trkpt>
      <trkpt lat="45.11217" lon="4.81121">
        <ele>124.40000152588</ele>
        <time>2024-05-21T10:08:24.000Z</time>
      </trkpt>
      <trkpt lat="45.11214" lon="4.81125">
        <ele>124.40000152588</ele>
        <time>2024-05-21T10:08:25.000Z</time>
      </trkpt>
      <trkpt lat="45.11211" lon="4.81129">
        <ele>124.40000152588</ele>
        <time>2024-05-21T10:08:26.000Z</time>
      </trkpt>
      <trkpt lat="45.11207" lon="4.81133">
        <ele>124.40000152588</ele>
        <time>2024-05-21T10:08:27.000Z</time>
      </trkpt>
      <trkpt lat="45.11205" lon="4.81138">
        <ele>124.40000152588</ele>
        <time>2024-05-21T10:08:28.000Z</time>
      </trkpt>
      <trkpt lat="45.11202" lon="4.81142">
        <ele>124.40000152588</ele>
        <time>2024-05-21T10:08:29.000Z</time>
      </trkpt>
      <trkpt lat="45.11199" lon="4.81147">
        <ele>124.40000152588</ele>
        <time>2024-05-21T10:08:30.000Z</time>
      </trkpt>
      <trkpt lat="45.11196" lon="4.81151">
        <ele>124.40000152588</ele>
        <time>2024-05-21T10:08:31.000Z</time>
      </trkpt>
      <trkpt lat="45.11194" lon="4.81156">
        <ele>124.40000152588</ele>
        <time>2024-05-21T10:08:32.000Z</time>
      </trkpt>
      <trkpt lat="45.11191" lon="4.81161">
        <ele>124.40000152588</ele>
        <time>2024-05-21T10:08:33.000Z</time>
      </trkpt>
      <trkpt lat="45.11188" lon="4.81166">
        <ele>124.40000152588</ele>
        <time>2024-05-21T10:08:34.000Z</time>
      </trkpt>
      <trkpt lat="45.11186" lon="4.81172">
        <ele>124.40000152588</ele>
        <time>2024-05-21T10:08:35.000Z</time>
      </trkpt>
      <trkpt lat="45.11183" lon="4.81178">
        <ele>124.40000152588</ele>
        <time>2024-05-21T10:08:36.000Z</time>
      </trkpt>
      <trkpt lat="45.11181" lon="4.81183">
        <ele>124.40000152588</ele>
        <time>2024-05-21T10:08:37.000Z</time>
      </trkpt>
      <trkpt lat="45.11178" lon="4.81189">
        <ele>124.40000152588</ele>
        <time>2024-05-21T10:08:38.000Z</time>
      </trkpt>
      <trkpt lat="45.11176" lon="4.81194">
        <ele>124.40000152588</ele>
        <time>2024-05-21T10:08:39.000Z</time>
      </trkpt>
      <trkpt lat="45.11173" lon="4.812">
        <ele>124.40000152588</ele>
        <time>2024-05-21T10:08:40.000Z</time>
      </trkpt>
      <trkpt lat="45.11171" lon="4.81206">
        <ele>124.40000152588</ele>
        <time>2024-05-21T10:08:41.000Z</time>
      </trkpt>
      <trkpt lat="45.11167" lon="4.81211">
        <ele>124.40000152588</ele>
        <time>2024-05-21T10:08:42.000Z</time>
      </trkpt>
      <trkpt lat="45.11164" lon="4.81216">
        <ele>124.40000152588</ele>
        <time>2024-05-21T10:08:43.000Z</time>
      </trkpt>
      <trkpt lat="45.1116" lon="4.8122">
        <ele>124.19999694824</ele>
        <time>2024-05-21T10:08:44.000Z</time>
      </trkpt>
      <trkpt lat="45.11155" lon="4.81223">
        <ele>124.19999694824</ele>
        <time>2024-05-21T10:08:45.000Z</time>
      </trkpt>
      <trkpt lat="45.11151" lon="4.81225">
        <ele>124</ele>
        <time>2024-05-21T10:08:46.000Z</time>
      </trkpt>
      <trkpt lat="45.11146" lon="4.81227">
        <ele>124</ele>
        <time>2024-05-21T10:08:47.000Z</time>
      </trkpt>
      <trkpt lat="45.11141" lon="4.81228">
        <ele>124</ele>
        <time>2024-05-21T10:08:48.000Z</time>
      </trkpt>
      <trkpt lat="45.11136" lon="4.81229">
        <ele>124</ele>
        <time>2024-05-21T10:08:49.000Z</time>
      </trkpt>
      <trkpt lat="45.11131" lon="4.8123">
        <ele>124</ele>
        <time>2024-05-21T10:08:50.000Z</time>
      </trkpt>
      <trkpt lat="45.11127" lon="4.81231">
        <ele>124</ele>
        <time>2024-05-21T10:08:51.000Z</time>
      </trkpt>
      <trkpt lat="45.11122" lon="4.81232">
        <ele>124</ele>
        <time>2024-05-21T10:08:52.000Z</time>
      </trkpt>
      <trkpt lat="45.11117" lon="4.81233">
        <ele>124</ele>
        <time>2024-05-21T10:08:53.000Z</time>
      </trkpt>
      <trkpt lat="45.11112" lon="4.81233">
        <ele>124</ele>
        <time>2024-05-21T10:08:54.000Z</time>
      </trkpt>
      <trkpt lat="45.11108" lon="4.81234">
        <ele>124</ele>
        <time>2024-05-21T10:08:55.000Z</time>
      </trkpt>
      <trkpt lat="45.11103" lon="4.81235">
        <ele>124</ele>
        <time>2024-05-21T10:08:56.000Z</time>
      </trkpt>
      <trkpt lat="45.11098" lon="4.81235">
        <ele>124.19999694824</ele>
        <time>2024-05-21T10:08:57.000Z</time>
      </trkpt>
      <trkpt lat="45.11093" lon="4.81237">
        <ele>124.40000152588</ele>
        <time>2024-05-21T10:08:58.000Z</time>
      </trkpt>
      <trkpt lat="45.11088" lon="4.81237">
        <ele>124.40000152588</ele>
        <time>2024-05-21T10:08:59.000Z</time>
      </trkpt>
      <trkpt lat="45.11084" lon="4.81238">
        <ele>124.40000152588</ele>
        <time>2024-05-21T10:09:00.000Z</time>
      </trkpt>
      <trkpt lat="45.11079" lon="4.81239">
        <ele>124.40000152588</ele>
        <time>2024-05-21T10:09:01.000Z</time>
      </trkpt>
      <trkpt lat="45.11075" lon="4.81241">
        <ele>124.40000152588</ele>
        <time>2024-05-21T10:09:02.000Z</time>
      </trkpt>
      <trkpt lat="45.1107" lon="4.81242">
        <ele>124.40000152588</ele>
        <time>2024-05-21T10:09:03.000Z</time>
      </trkpt>
      <trkpt lat="45.11066" lon="4.81242">
        <ele>124.19999694824</ele>
        <time>2024-05-21T10:09:04.000Z</time>
      </trkpt>
      <trkpt lat="45.11062" lon="4.81243">
        <ele>124.19999694824</ele>
        <time>2024-05-21T10:09:05.000Z</time>
      </trkpt>
      <trkpt lat="45.11058" lon="4.81244">
        <ele>124.19999694824</ele>
        <time>2024-05-21T10:09:06.000Z</time>
      </trkpt>
      <trkpt lat="45.11053" lon="4.81246">
        <ele>124.19999694824</ele>
        <time>2024-05-21T10:09:07.000Z</time>
      </trkpt>
      <trkpt lat="45.11048" lon="4.81247">
        <ele>124.19999694824</ele>
        <time>2024-05-21T10:09:08.000Z</time>
      </trkpt>
      <trkpt lat="45.11044" lon="4.81248">
        <ele>124.19999694824</ele>
        <time>2024-05-21T10:09:09.000Z</time>
      </trkpt>
      <trkpt lat="45.11039" lon="4.8125">
        <ele>124.19999694824</ele>
        <time>2024-05-21T10:09:10.000Z</time>
      </trkpt>
      <trkpt lat="45.11034" lon="4.81252">
        <ele>124.19999694824</ele>
        <time>2024-05-21T10:09:11.000Z</time>
      </trkpt>
      <trkpt lat="45.11029" lon="4.81254">
        <ele>124.19999694824</ele>
        <time>2024-05-21T10:09:12.000Z</time>
      </trkpt>
      <trkpt lat="45.11024" lon="4.81257">
        <ele>124.19999694824</ele>
        <time>2024-05-21T10:09:13.000Z</time>
      </trkpt>
      <trkpt lat="45.11019" lon="4.8126">
        <ele>124</ele>
        <time>2024-05-21T10:09:14.000Z</time>
      </trkpt>
      <trkpt lat="45.11015" lon="4.81263">
        <ele>124</ele>
        <time>2024-05-21T10:09:15.000Z</time>
      </trkpt>
      <trkpt lat="45.11011" lon="4.81266">
        <ele>124</ele>
        <time>2024-05-21T10:09:16.000Z</time>
      </trkpt>
      <trkpt lat="45.11006" lon="4.8127">
        <ele>123.80000305176</ele>
        <time>2024-05-21T10:09:17.000Z</time>
      </trkpt>
      <trkpt lat="45.11002" lon="4.81274">
        <ele>123.80000305176</ele>
        <time>2024-05-21T10:09:18.000Z</time>
      </trkpt>
      <trkpt lat="45.10997" lon="4.81277">
        <ele>123.80000305176</ele>
        <time>2024-05-21T10:09:19.000Z</time>
      </trkpt>
      <trkpt lat="45.10993" lon="4.81281">
        <ele>123.80000305176</ele>
        <time>2024-05-21T10:09:20.000Z</time>
      </trkpt>
      <trkpt lat="45.10989" lon="4.81285">
        <ele>123.80000305176</ele>
        <time>2024-05-21T10:09:21.000Z</time>
      </trkpt>
      <trkpt lat="45.10985" lon="4.81289">
        <ele>123.80000305176</ele>
        <time>2024-05-21T10:09:22.000Z</time>
      </trkpt>
      <trkpt lat="45.1098" lon="4.81293">
        <ele>123.80000305176</ele>
        <time>2024-05-21T10:09:23.000Z</time>
      </trkpt>
      <trkpt lat="45.10976" lon="4.81297">
        <ele>123.80000305176</ele>
        <time>2024-05-21T10:09:24.000Z</time>
      </trkpt>
      <trkpt lat="45.10972" lon="4.81301">
        <ele>123.80000305176</ele>
        <time>2024-05-21T10:09:25.000Z</time>
      </trkpt>
      <trkpt lat="45.10967" lon="4.81305">
        <ele>123.80000305176</ele>
        <time>2024-05-21T10:09:26.000Z</time>
      </trkpt>
      <trkpt lat="45.10963" lon="4.81309">
        <ele>123.80000305176</ele>
        <time>2024-05-21T10:09:27.000Z</time>
      </trkpt>
      <trkpt lat="45.1096" lon="4.81314">
        <ele>123.80000305176</ele>
        <time>2024-05-21T10:09:28.000Z</time>
      </trkpt>
      <trkpt lat="45.10956" lon="4.81319">
        <ele>123.80000305176</ele>
        <time>2024-05-21T10:09:29.000Z</time>
      </trkpt>
      <trkpt lat="45.10953" lon="4.81324">
        <ele>123.80000305176</ele>
        <time>2024-05-21T10:09:30.000Z</time>
      </trkpt>
      <trkpt lat="45.10949" lon="4.81329">
        <ele>123.80000305176</ele>
        <time>2024-05-21T10:09:31.000Z</time>
      </trkpt>
      <trkpt lat="45.10946" lon="4.81334">
        <ele>123.80000305176</ele>
        <time>2024-05-21T10:09:32.000Z</time>
      </trkpt>
      <trkpt lat="45.10943" lon="4.81339">
        <ele>124</ele>
        <time>2024-05-21T10:09:33.000Z</time>
      </trkpt>
      <trkpt lat="45.10939" lon="4.81345">
        <ele>124</ele>
        <time>2024-05-21T10:09:34.000Z</time>
      </trkpt>
      <trkpt lat="45.10936" lon="4.81351">
        <ele>124</ele>
        <time>2024-05-21T10:09:35.000Z</time>
      </trkpt>
      <trkpt lat="45.10933" lon="4.81357">
        <ele>124</ele>
        <time>2024-05-21T10:09:36.000Z</time>
      </trkpt>
      <trkpt lat="45.10931" lon="4.81363">
        <ele>123.80000305176</ele>
        <time>2024-05-21T10:09:37.000Z</time>
      </trkpt>
      <trkpt lat="45.10928" lon="4.81369">
        <ele>123.80000305176</ele>
        <time>2024-05-21T10:09:38.000Z</time>
      </trkpt>
      <trkpt lat="45.10925" lon="4.81375">
        <ele>123.80000305176</ele>
        <time>2024-05-21T10:09:39.000Z</time>
      </trkpt>
      <trkpt lat="45.10923" lon="4.81381">
        <ele>123.80000305176</ele>
        <time>2024-05-21T10:09:40.000Z</time>
      </trkpt>
      <trkpt lat="45.1092" lon="4.81387">
        <ele>123.80000305176</ele>
        <time>2024-05-21T10:09:41.000Z</time>
      </trkpt>
      <trkpt lat="45.10917" lon="4.81393">
        <ele>123.80000305176</ele>
        <time>2024-05-21T10:09:42.000Z</time>
      </trkpt>
      <trkpt lat="45.10915" lon="4.81399">
        <ele>123.80000305176</ele>
        <time>2024-05-21T10:09:43.000Z</time>
      </trkpt>
      <trkpt lat="45.10912" lon="4.81405">
        <ele>123.80000305176</ele>
        <time>2024-05-21T10:09:44.000Z</time>
      </trkpt>
      <trkpt lat="45.10909" lon="4.81411">
        <ele>123.80000305176</ele>
        <time>2024-05-21T10:09:45.000Z</time>
      </trkpt>
      <trkpt lat="45.10906" lon="4.81418">
        <ele>123.80000305176</ele>
        <time>2024-05-21T10:09:46.000Z</time>
      </trkpt>
      <trkpt lat="45.10904" lon="4.81423">
        <ele>123.80000305176</ele>
        <time>2024-05-21T10:09:47.000Z</time>
      </trkpt>
      <trkpt lat="45.10902" lon="4.81429">
        <ele>123.80000305176</ele>
        <time>2024-05-21T10:09:48.000Z</time>
      </trkpt>
      <trkpt lat="45.10899" lon="4.81435">
        <ele>123.80000305176</ele>
        <time>2024-05-21T10:09:49.000Z</time>
      </trkpt>
      <trkpt lat="45.10896" lon="4.81441">
        <ele>123.80000305176</ele>
        <time>2024-05-21T10:09:50.000Z</time>
      </trkpt>
      <trkpt lat="45.10893" lon="4.81447">
        <ele>123.80000305176</ele>
        <time>2024-05-21T10:09:51.000Z</time>
      </trkpt>
      <trkpt lat="45.1089" lon="4.81453">
        <ele>123.80000305176</ele>
        <time>2024-05-21T10:09:52.000Z</time>
      </trkpt>
      <trkpt lat="45.10887" lon="4.81459">
        <ele>123.80000305176</ele>
        <time>2024-05-21T10:09:53.000Z</time>
      </trkpt>
      <trkpt lat="45.10884" lon="4.81464">
        <ele>123.80000305176</ele>
        <time>2024-05-21T10:09:54.000Z</time>
      </trkpt>
      <trkpt lat="45.1088" lon="4.81471">
        <ele>123.80000305176</ele>
        <time>2024-05-21T10:09:55.000Z</time>
      </trkpt>
      <trkpt lat="45.10877" lon="4.81477">
        <ele>123.59999847412</ele>
        <time>2024-05-21T10:09:56.000Z</time>
      </trkpt>
      <trkpt lat="45.10874" lon="4.81481">
        <ele>123.59999847412</ele>
        <time>2024-05-21T10:09:57.000Z</time>
      </trkpt>
      <trkpt lat="45.10871" lon="4.81487">
        <ele>123.59999847412</ele>
        <time>2024-05-21T10:09:58.000Z</time>
      </trkpt>
      <trkpt lat="45.10868" lon="4.81493">
        <ele>123.59999847412</ele>
        <time>2024-05-21T10:09:59.000Z</time>
      </trkpt>
      <trkpt lat="45.10865" lon="4.81499">
        <ele>123.59999847412</ele>
        <time>2024-05-21T10:10:00.000Z</time>
      </trkpt>
      <trkpt lat="45.10862" lon="4.81505">
        <ele>123.59999847412</ele>
        <time>2024-05-21T10:10:01.000Z</time>
      </trkpt>
      <trkpt lat="45.10858" lon="4.81512">
        <ele>123.40000152588</ele>
        <time>2024-05-21T10:10:02.000Z</time>
      </trkpt>
      <trkpt lat="45.10856" lon="4.81516">
        <ele>123.40000152588</ele>
        <time>2024-05-21T10:10:03.000Z</time>
      </trkpt>
      <trkpt lat="45.10853" lon="4.81522">
        <ele>123.59999847412</ele>
        <time>2024-05-21T10:10:04.000Z</time>
      </trkpt>
      <trkpt lat="45.1085" lon="4.81528">
        <ele>123.40000152588</ele>
        <time>2024-05-21T10:10:05.000Z</time>
      </trkpt>
      <trkpt lat="45.10846" lon="4.81535">
        <ele>123.40000152588</ele>
        <time>2024-05-21T10:10:06.000Z</time>
      </trkpt>
      <trkpt lat="45.10844" lon="4.81539">
        <ele>123.40000152588</ele>
        <time>2024-05-21T10:10:07.000Z</time>
      </trkpt>
      <trkpt lat="45.1084" lon="4.81546">
        <ele>123.40000152588</ele>
        <time>2024-05-21T10:10:08.000Z</time>
      </trkpt>
      <trkpt lat="45.10837" lon="4.81551">
        <ele>123.40000152588</ele>
        <time>2024-05-21T10:10:09.000Z</time>
      </trkpt>
      <trkpt lat="45.10834" lon="4.81556">
        <ele>123.40000152588</ele>
        <time>2024-05-21T10:10:10.000Z</time>
      </trkpt>
      <trkpt lat="45.10831" lon="4.81562">
        <ele>123.40000152588</ele>
        <time>2024-05-21T10:10:11.000Z</time>
      </trkpt>
      <trkpt lat="45.10827" lon="4.81569">
        <ele>123.40000152588</ele>
        <time>2024-05-21T10:10:12.000Z</time>
      </trkpt>
      <trkpt lat="45.10825" lon="4.81573">
        <ele>123.40000152588</ele>
        <time>2024-05-21T10:10:13.000Z</time>
      </trkpt>
      <trkpt lat="45.10822" lon="4.81579">
        <ele>123.40000152588</ele>
        <time>2024-05-21T10:10:14.000Z</time>
      </trkpt>
      <trkpt lat="45.10819" lon="4.81585">
        <ele>123.40000152588</ele>
        <time>2024-05-21T10:10:15.000Z</time>
      </trkpt>
      <trkpt lat="45.10816" lon="4.81591">
        <ele>123.40000152588</ele>
        <time>2024-05-21T10:10:16.000Z</time>
      </trkpt>
      <trkpt lat="45.10813" lon="4.81598">
        <ele>123.40000152588</ele>
        <time>2024-05-21T10:10:17.000Z</time>
      </trkpt>
      <trkpt lat="45.10811" lon="4.81604">
        <ele>123.40000152588</ele>
        <time>2024-05-21T10:10:18.000Z</time>
      </trkpt>
      <trkpt lat="45.10808" lon="4.81609">
        <ele>123.40000152588</ele>
        <time>2024-05-21T10:10:19.000Z</time>
      </trkpt>
      <trkpt lat="45.10805" lon="4.81615">
        <ele>123.19999694824</ele>
        <time>2024-05-21T10:10:20.000Z</time>
      </trkpt>
      <trkpt lat="45.10803" lon="4.8162">
        <ele>123</ele>
        <time>2024-05-21T10:10:21.000Z</time>
      </trkpt>
      <trkpt lat="45.108" lon="4.81626">
        <ele>123</ele>
        <time>2024-05-21T10:10:22.000Z</time>
      </trkpt>
      <trkpt lat="45.10797" lon="4.81632">
        <ele>123</ele>
        <time>2024-05-21T10:10:23.000Z</time>
      </trkpt>
      <trkpt lat="45.10793" lon="4.81638">
        <ele>123</ele>
        <time>2024-05-21T10:10:24.000Z</time>
      </trkpt>
      <trkpt lat="45.10791" lon="4.81643">
        <ele>123</ele>
        <time>2024-05-21T10:10:25.000Z</time>
      </trkpt>
      <trkpt lat="45.10788" lon="4.81649">
        <ele>123</ele>
        <time>2024-05-21T10:10:26.000Z</time>
      </trkpt>
      <trkpt lat="45.10785" lon="4.81655">
        <ele>123</ele>
        <time>2024-05-21T10:10:27.000Z</time>
      </trkpt>
      <trkpt lat="45.10781" lon="4.8166">
        <ele>123</ele>
        <time>2024-05-21T10:10:28.000Z</time>
      </trkpt>
      <trkpt lat="45.10778" lon="4.81666">
        <ele>123</ele>
        <time>2024-05-21T10:10:29.000Z</time>
      </trkpt>
      <trkpt lat="45.10774" lon="4.81671">
        <ele>123</ele>
        <time>2024-05-21T10:10:30.000Z</time>
      </trkpt>
      <trkpt lat="45.1077" lon="4.81676">
        <ele>123</ele>
        <time>2024-05-21T10:10:31.000Z</time>
      </trkpt>
      <trkpt lat="45.10766" lon="4.8168">
        <ele>123</ele>
        <time>2024-05-21T10:10:32.000Z</time>
      </trkpt>
      <trkpt lat="45.10761" lon="4.81686">
        <ele>123</ele>
        <time>2024-05-21T10:10:33.000Z</time>
      </trkpt>
      <trkpt lat="45.10758" lon="4.81689">
        <ele>123</ele>
        <time>2024-05-21T10:10:34.000Z</time>
      </trkpt>
      <trkpt lat="45.10754" lon="4.81694">
        <ele>123</ele>
        <time>2024-05-21T10:10:35.000Z</time>
      </trkpt>
      <trkpt lat="45.1075" lon="4.81698">
        <ele>123</ele>
        <time>2024-05-21T10:10:36.000Z</time>
      </trkpt>
      <trkpt lat="45.10747" lon="4.81703">
        <ele>123</ele>
        <time>2024-05-21T10:10:37.000Z</time>
      </trkpt>
      <trkpt lat="45.10743" lon="4.81707">
        <ele>123</ele>
        <time>2024-05-21T10:10:38.000Z</time>
      </trkpt>
      <trkpt lat="45.10739" lon="4.81712">
        <ele>123</ele>
        <time>2024-05-21T10:10:39.000Z</time>
      </trkpt>
      <trkpt lat="45.10735" lon="4.81716">
        <ele>123</ele>
        <time>2024-05-21T10:10:40.000Z</time>
      </trkpt>
      <trkpt lat="45.1073" lon="4.81721">
        <ele>123</ele>
        <time>2024-05-21T10:10:41.000Z</time>
      </trkpt>
      <trkpt lat="45.10726" lon="4.81725">
        <ele>123.19999694824</ele>
        <time>2024-05-21T10:10:42.000Z</time>
      </trkpt>
      <trkpt lat="45.10722" lon="4.81729">
        <ele>123.19999694824</ele>
        <time>2024-05-21T10:10:43.000Z</time>
      </trkpt>
      <trkpt lat="45.10717" lon="4.81735">
        <ele>123.19999694824</ele>
        <time>2024-05-21T10:10:44.000Z</time>
      </trkpt>
      <trkpt lat="45.10714" lon="4.81738">
        <ele>123.19999694824</ele>
        <time>2024-05-21T10:10:45.000Z</time>
      </trkpt>
      <trkpt lat="45.1071" lon="4.81743">
        <ele>123.19999694824</ele>
        <time>2024-05-21T10:10:46.000Z</time>
      </trkpt>
      <trkpt lat="45.10705" lon="4.81747">
        <ele>123.19999694824</ele>
        <time>2024-05-21T10:10:47.000Z</time>
      </trkpt>
      <trkpt lat="45.10701" lon="4.81752">
        <ele>123.19999694824</ele>
        <time>2024-05-21T10:10:48.000Z</time>
      </trkpt>
      <trkpt lat="45.10696" lon="4.81756">
        <ele>123.19999694824</ele>
        <time>2024-05-21T10:10:49.000Z</time>
      </trkpt>
      <trkpt lat="45.10691" lon="4.81761">
        <ele>123.19999694824</ele>
        <time>2024-05-21T10:10:50.000Z</time>
      </trkpt>
      <trkpt lat="45.10687" lon="4.81764">
        <ele>123.19999694824</ele>
        <time>2024-05-21T10:10:51.000Z</time>
      </trkpt>
      <trkpt lat="45.10682" lon="4.81769">
        <ele>123.19999694824</ele>
        <time>2024-05-21T10:10:52.000Z</time>
      </trkpt>
      <trkpt lat="45.10678" lon="4.81772">
        <ele>123</ele>
        <time>2024-05-21T10:10:53.000Z</time>
      </trkpt>
      <trkpt lat="45.10673" lon="4.81777">
        <ele>123</ele>
        <time>2024-05-21T10:10:54.000Z</time>
      </trkpt>
      <trkpt lat="45.10669" lon="4.81781">
        <ele>123</ele>
        <time>2024-05-21T10:10:55.000Z</time>
      </trkpt>
      <trkpt lat="45.10664" lon="4.81787">
        <ele>123</ele>
        <time>2024-05-21T10:10:56.000Z</time>
      </trkpt>
      <trkpt lat="45.1066" lon="4.8179">
        <ele>123</ele>
        <time>2024-05-21T10:10:57.000Z</time>
      </trkpt>
      <trkpt lat="45.10655" lon="4.81793">
        <ele>123</ele>
        <time>2024-05-21T10:10:58.000Z</time>
      </trkpt>
      <trkpt lat="45.1065" lon="4.81798">
        <ele>123</ele>
        <time>2024-05-21T10:10:59.000Z</time>
      </trkpt>
      <trkpt lat="45.10646" lon="4.81801">
        <ele>123</ele>
        <time>2024-05-21T10:11:00.000Z</time>
      </trkpt>
      <trkpt lat="45.10642" lon="4.81806">
        <ele>123</ele>
        <time>2024-05-21T10:11:01.000Z</time>
      </trkpt>
      <trkpt lat="45.10637" lon="4.81811">
        <ele>123.19999694824</ele>
        <time>2024-05-21T10:11:02.000Z</time>
      </trkpt>
      <trkpt lat="45.10633" lon="4.81815">
        <ele>123.19999694824</ele>
        <time>2024-05-21T10:11:03.000Z</time>
      </trkpt>
      <trkpt lat="45.10629" lon="4.81819">
        <ele>123.19999694824</ele>
        <time>2024-05-21T10:11:04.000Z</time>
      </trkpt>
      <trkpt lat="45.10624" lon="4.81824">
        <ele>123</ele>
        <time>2024-05-21T10:11:05.000Z</time>
      </trkpt>
      <trkpt lat="45.1062" lon="4.81829">
        <ele>123</ele>
        <time>2024-05-21T10:11:06.000Z</time>
      </trkpt>
      <trkpt lat="45.10616" lon="4.81833">
        <ele>123</ele>
        <time>2024-05-21T10:11:07.000Z</time>
      </trkpt>
      <trkpt lat="45.10611" lon="4.81838">
        <ele>123</ele>
        <time>2024-05-21T10:11:08.000Z</time>
      </trkpt>
      <trkpt lat="45.10607" lon="4.81842">
        <ele>123</ele>
        <time>2024-05-21T10:11:09.000Z</time>
      </trkpt>
      <trkpt lat="45.10603" lon="4.81847">
        <ele>122.80000305176</ele>
        <time>2024-05-21T10:11:10.000Z</time>
      </trkpt>
      <trkpt lat="45.10599" lon="4.81852">
        <ele>122.80000305176</ele>
        <time>2024-05-21T10:11:11.000Z</time>
      </trkpt>
      <trkpt lat="45.10595" lon="4.81857">
        <ele>122.80000305176</ele>
        <time>2024-05-21T10:11:12.000Z</time>
      </trkpt>
      <trkpt lat="45.10591" lon="4.81862">
        <ele>122.80000305176</ele>
        <time>2024-05-21T10:11:13.000Z</time>
      </trkpt>
      <trkpt lat="45.10587" lon="4.81867">
        <ele>122.80000305176</ele>
        <time>2024-05-21T10:11:14.000Z</time>
      </trkpt>
      <trkpt lat="45.10583" lon="4.81873">
        <ele>122.80000305176</ele>
        <time>2024-05-21T10:11:15.000Z</time>
      </trkpt>
      <trkpt lat="45.10578" lon="4.81879">
        <ele>122.59999847412</ele>
        <time>2024-05-21T10:11:16.000Z</time>
      </trkpt>
      <trkpt lat="45.10575" lon="4.81884">
        <ele>122.59999847412</ele>
        <time>2024-05-21T10:11:17.000Z</time>
      </trkpt>
      <trkpt lat="45.10571" lon="4.81889">
        <ele>122.59999847412</ele>
        <time>2024-05-21T10:11:18.000Z</time>
      </trkpt>
      <trkpt lat="45.10567" lon="4.81894">
        <ele>122.59999847412</ele>
        <time>2024-05-21T10:11:19.000Z</time>
      </trkpt>
      <trkpt lat="45.10563" lon="4.81899">
        <ele>122.59999847412</ele>
        <time>2024-05-21T10:11:20.000Z</time>
      </trkpt>
      <trkpt lat="45.10559" lon="4.81904">
        <ele>122.40000152588</ele>
        <time>2024-05-21T10:11:21.000Z</time>
      </trkpt>
      <trkpt lat="45.10555" lon="4.81908">
        <ele>122.40000152588</ele>
        <time>2024-05-21T10:11:22.000Z</time>
      </trkpt>
      <trkpt lat="45.1055" lon="4.81913">
        <ele>122.40000152588</ele>
        <time>2024-05-21T10:11:23.000Z</time>
      </trkpt>
      <trkpt lat="45.10545" lon="4.81917">
        <ele>122.40000152588</ele>
        <time>2024-05-21T10:11:24.000Z</time>
      </trkpt>
      <trkpt lat="45.10542" lon="4.8192">
        <ele>122.40000152588</ele>
        <time>2024-05-21T10:11:25.000Z</time>
      </trkpt>
      <trkpt lat="45.10538" lon="4.81925">
        <ele>122.40000152588</ele>
        <time>2024-05-21T10:11:26.000Z</time>
      </trkpt>
      <trkpt lat="45.10534" lon="4.81929">
        <ele>122.40000152588</ele>
        <time>2024-05-21T10:11:27.000Z</time>
      </trkpt>
      <trkpt lat="45.10529" lon="4.81933">
        <ele>122.40000152588</ele>
        <time>2024-05-21T10:11:28.000Z</time>
      </trkpt>
      <trkpt lat="45.10524" lon="4.81938">
        <ele>122.59999847412</ele>
        <time>2024-05-21T10:11:29.000Z</time>
      </trkpt>
      <trkpt lat="45.10521" lon="4.81941">
        <ele>122.59999847412</ele>
        <time>2024-05-21T10:11:30.000Z</time>
      </trkpt>
      <trkpt lat="45.10517" lon="4.81945">
        <ele>122.59999847412</ele>
        <time>2024-05-21T10:11:31.000Z</time>
      </trkpt>
      <trkpt lat="45.10511" lon="4.8195">
        <ele>122.59999847412</ele>
        <time>2024-05-21T10:11:32.000Z</time>
      </trkpt>
      <trkpt lat="45.10508" lon="4.81953">
        <ele>122.59999847412</ele>
        <time>2024-05-21T10:11:33.000Z</time>
      </trkpt>
      <trkpt lat="45.10503" lon="4.81958">
        <ele>122.59999847412</ele>
        <time>2024-05-21T10:11:34.000Z</time>
      </trkpt>
      <trkpt lat="45.10499" lon="4.81961">
        <ele>122.59999847412</ele>
        <time>2024-05-21T10:11:35.000Z</time>
      </trkpt>
      <trkpt lat="45.10495" lon="4.81965">
        <ele>122.59999847412</ele>
        <time>2024-05-21T10:11:36.000Z</time>
      </trkpt>
      <trkpt lat="45.10489" lon="4.8197">
        <ele>122.59999847412</ele>
        <time>2024-05-21T10:11:37.000Z</time>
      </trkpt>
      <trkpt lat="45.10485" lon="4.81974">
        <ele>122.59999847412</ele>
        <time>2024-05-21T10:11:38.000Z</time>
      </trkpt>
      <trkpt lat="45.10481" lon="4.81977">
        <ele>122.59999847412</ele>
        <time>2024-05-21T10:11:39.000Z</time>
      </trkpt>
      <trkpt lat="45.10477" lon="4.81981">
        <ele>122.59999847412</ele>
        <time>2024-05-21T10:11:40.000Z</time>
      </trkpt>
      <trkpt lat="45.10471" lon="4.81985">
        <ele>122.59999847412</ele>
        <time>2024-05-21T10:11:41.000Z</time>
      </trkpt>
      <trkpt lat="45.10467" lon="4.81989">
        <ele>122.40000152588</ele>
        <time>2024-05-21T10:11:42.000Z</time>
      </trkpt>
      <trkpt lat="45.10463" lon="4.81992">
        <ele>122.40000152588</ele>
        <time>2024-05-21T10:11:43.000Z</time>
      </trkpt>
      <trkpt lat="45.10458" lon="4.81996">
        <ele>122.40000152588</ele>
        <time>2024-05-21T10:11:44.000Z</time>
      </trkpt>
      <trkpt lat="45.10454" lon="4.82">
        <ele>122.59999847412</ele>
        <time>2024-05-21T10:11:45.000Z</time>
      </trkpt>
      <trkpt lat="45.10449" lon="4.82004">
        <ele>122.59999847412</ele>
        <time>2024-05-21T10:11:46.000Z</time>
      </trkpt>
      <trkpt lat="45.10445" lon="4.82006">
        <ele>122.59999847412</ele>
        <time>2024-05-21T10:11:47.000Z</time>
      </trkpt>
      <trkpt lat="45.10441" lon="4.8201">
        <ele>122.59999847412</ele>
        <time>2024-05-21T10:11:48.000Z</time>
      </trkpt>
      <trkpt lat="45.10436" lon="4.82014">
        <ele>122.59999847412</ele>
        <time>2024-05-21T10:11:49.000Z</time>
      </trkpt>
      <trkpt lat="45.10432" lon="4.82018">
        <ele>122.80000305176</ele>
        <time>2024-05-21T10:11:50.000Z</time>
      </trkpt>
      <trkpt lat="45.10427" lon="4.82022">
        <ele>122.80000305176</ele>
        <time>2024-05-21T10:11:51.000Z</time>
      </trkpt>
      <trkpt lat="45.10422" lon="4.82025">
        <ele>122.80000305176</ele>
        <time>2024-05-21T10:11:52.000Z</time>
      </trkpt>
      <trkpt lat="45.10418" lon="4.82029">
        <ele>122.80000305176</ele>
        <time>2024-05-21T10:11:53.000Z</time>
      </trkpt>
      <trkpt lat="45.10413" lon="4.82035">
        <ele>122.80000305176</ele>
        <time>2024-05-21T10:11:54.000Z</time>
      </trkpt>
      <trkpt lat="45.1041" lon="4.8204">
        <ele>122.80000305176</ele>
        <time>2024-05-21T10:11:55.000Z</time>
      </trkpt>
      <trkpt lat="45.10406" lon="4.82045">
        <ele>122.80000305176</ele>
        <time>2024-05-21T10:11:56.000Z</time>
      </trkpt>
      <trkpt lat="45.10402" lon="4.8205">
        <ele>122.59999847412</ele>
        <time>2024-05-21T10:11:57.000Z</time>
      </trkpt>
      <trkpt lat="45.10398" lon="4.82055">
        <ele>122.59999847412</ele>
        <time>2024-05-21T10:11:58.000Z</time>
      </trkpt>
      <trkpt lat="45.10393" lon="4.8206">
        <ele>122.59999847412</ele>
        <time>2024-05-21T10:11:59.000Z</time>
      </trkpt>
      <trkpt lat="45.10389" lon="4.82066">
        <ele>122.40000152588</ele>
        <time>2024-05-21T10:12:00.000Z</time>
      </trkpt>
      <trkpt lat="45.10385" lon="4.82071">
        <ele>122.40000152588</ele>
        <time>2024-05-21T10:12:01.000Z</time>
      </trkpt>
      <trkpt lat="45.10381" lon="4.82077">
        <ele>122.40000152588</ele>
        <time>2024-05-21T10:12:02.000Z</time>
      </trkpt>
      <trkpt lat="45.10377" lon="4.82082">
        <ele>122.40000152588</ele>
        <time>2024-05-21T10:12:03.000Z</time>
      </trkpt>
      <trkpt lat="45.10373" lon="4.82088">
        <ele>122.40000152588</ele>
        <time>2024-05-21T10:12:04.000Z</time>
      </trkpt>
      <trkpt lat="45.10369" lon="4.82093">
        <ele>122.19999694824</ele>
        <time>2024-05-21T10:12:05.000Z</time>
      </trkpt>
      <trkpt lat="45.10365" lon="4.82098">
        <ele>122.19999694824</ele>
        <time>2024-05-21T10:12:06.000Z</time>
      </trkpt>
      <trkpt lat="45.10361" lon="4.82103">
        <ele>122.19999694824</ele>
        <time>2024-05-21T10:12:07.000Z</time>
      </trkpt>
      <trkpt lat="45.10356" lon="4.82108">
        <ele>122.19999694824</ele>
        <time>2024-05-21T10:12:08.000Z</time>
      </trkpt>
      <trkpt lat="45.10352" lon="4.82113">
        <ele>122.19999694824</ele>
        <time>2024-05-21T10:12:09.000Z</time>
      </trkpt>
      <trkpt lat="45.1035" lon="4.82116">
        <ele>122</ele>
        <time>2024-05-21T10:12:10.000Z</time>
      </trkpt>
      <trkpt lat="45.10348" lon="4.82118">
        <ele>122</ele>
        <time>2024-05-21T10:12:11.000Z</time>
      </trkpt>
      <trkpt lat="45.10348" lon="4.82119">
        <ele>122</ele>
        <time>2024-05-21T10:12:12.000Z</time>
      </trkpt>
      <trkpt lat="45.10347" lon="4.8212">
        <ele>122</ele>
        <time>2024-05-21T10:12:13.000Z</time>
      </trkpt>
      <trkpt lat="45.10348" lon="4.82121">
        <ele>122.19999694824</ele>
        <time>2024-05-21T10:12:14.000Z</time>
      </trkpt>
      <trkpt lat="45.10349" lon="4.82122">
        <ele>122.40000152588</ele>
        <time>2024-05-21T10:12:15.000Z</time>
      </trkpt>
      <trkpt lat="45.1035" lon="4.82123">
        <ele>122.40000152588</ele>
        <time>2024-05-21T10:12:16.000Z</time>
      </trkpt>
      <trkpt lat="45.10351" lon="4.82125">
        <ele>122.40000152588</ele>
        <time>2024-05-21T10:12:17.000Z</time>
      </trkpt>
      <trkpt lat="45.10351" lon="4.82128">
        <ele>122.40000152588</ele>
        <time>2024-05-21T10:12:18.000Z</time>
      </trkpt>
      <trkpt lat="45.10351" lon="4.82131">
        <ele>122.40000152588</ele>
        <time>2024-05-21T10:12:19.000Z</time>
      </trkpt>
      <trkpt lat="45.10351" lon="4.82134">
        <ele>122.40000152588</ele>
        <time>2024-05-21T10:12:20.000Z</time>
      </trkpt>
      <trkpt lat="45.1035" lon="4.82138">
        <ele>122.19999694824</ele>
        <time>2024-05-21T10:12:21.000Z</time>
      </trkpt>
      <trkpt lat="45.10348" lon="4.82142">
        <ele>122.19999694824</ele>
        <time>2024-05-21T10:12:22.000Z</time>
      </trkpt>
      <trkpt lat="45.10346" lon="4.82146">
        <ele>122</ele>
        <time>2024-05-21T10:12:23.000Z</time>
      </trkpt>
      <trkpt lat="45.10344" lon="4.8215">
        <ele>122</ele>
        <time>2024-05-21T10:12:24.000Z</time>
      </trkpt>
      <trkpt lat="45.10341" lon="4.82154">
        <ele>121.80000305176</ele>
        <time>2024-05-21T10:12:25.000Z</time>
      </trkpt>
      <trkpt lat="45.10338" lon="4.82157">
        <ele>121.80000305176</ele>
        <time>2024-05-21T10:12:26.000Z</time>
      </trkpt>
      <trkpt lat="45.10335" lon="4.8216">
        <ele>121.59999847412</ele>
        <time>2024-05-21T10:12:27.000Z</time>
      </trkpt>
      <trkpt lat="45.10332" lon="4.82163">
        <ele>121.59999847412</ele>
        <time>2024-05-21T10:12:28.000Z</time>
      </trkpt>
      <trkpt lat="45.10328" lon="4.82167">
        <ele>121.59999847412</ele>
        <time>2024-05-21T10:12:29.000Z</time>
      </trkpt>
      <trkpt lat="45.10325" lon="4.8217">
        <ele>121.59999847412</ele>
        <time>2024-05-21T10:12:30.000Z</time>
      </trkpt>
      <trkpt lat="45.10322" lon="4.82173">
        <ele>121.59999847412</ele>
        <time>2024-05-21T10:12:31.000Z</time>
      </trkpt>
      <trkpt lat="45.10319" lon="4.82177">
        <ele>121.59999847412</ele>
        <time>2024-05-21T10:12:32.000Z</time>
      </trkpt>
      <trkpt lat="45.10315" lon="4.8218">
        <ele>121.59999847412</ele>
        <time>2024-05-21T10:12:33.000Z</time>
      </trkpt>
      <trkpt lat="45.10312" lon="4.82183">
        <ele>121.59999847412</ele>
        <time>2024-05-21T10:12:34.000Z</time>
      </trkpt>
      <trkpt lat="45.10308" lon="4.82186">
        <ele>121.59999847412</ele>
        <time>2024-05-21T10:12:35.000Z</time>
      </trkpt>
      <trkpt lat="45.10305" lon="4.82189">
        <ele>121.80000305176</ele>
        <time>2024-05-21T10:12:36.000Z</time>
      </trkpt>
      <trkpt lat="45.10301" lon="4.82192">
        <ele>121.80000305176</ele>
        <time>2024-05-21T10:12:37.000Z</time>
      </trkpt>
      <trkpt lat="45.10297" lon="4.82196">
        <ele>121.80000305176</ele>
        <time>2024-05-21T10:12:38.000Z</time>
      </trkpt>
      <trkpt lat="45.10294" lon="4.82201">
        <ele>122</ele>
        <time>2024-05-21T10:12:39.000Z</time>
      </trkpt>
      <trkpt lat="45.10291" lon="4.82206">
        <ele>122</ele>
        <time>2024-05-21T10:12:40.000Z</time>
      </trkpt>
      <trkpt lat="45.10287" lon="4.82211">
        <ele>122</ele>
        <time>2024-05-21T10:12:41.000Z</time>
      </trkpt>
      <trkpt lat="45.10283" lon="4.82215">
        <ele>122</ele>
        <time>2024-05-21T10:12:42.000Z</time>
      </trkpt>
      <trkpt lat="45.10281" lon="4.82219">
        <ele>122</ele>
        <time>2024-05-21T10:12:43.000Z</time>
      </trkpt>
      <trkpt lat="45.10277" lon="4.82223">
        <ele>122</ele>
        <time>2024-05-21T10:12:44.000Z</time>
      </trkpt>
      <trkpt lat="45.10274" lon="4.82228">
        <ele>122</ele>
        <time>2024-05-21T10:12:45.000Z</time>
      </trkpt>
      <trkpt lat="45.10271" lon="4.82233">
        <ele>122</ele>
        <time>2024-05-21T10:12:46.000Z</time>
      </trkpt>
      <trkpt lat="45.10269" lon="4.82238">
        <ele>122</ele>
        <time>2024-05-21T10:12:47.000Z</time>
      </trkpt>
      <trkpt lat="45.10266" lon="4.82245">
        <ele>122</ele>
        <time>2024-05-21T10:12:48.000Z</time>
      </trkpt>
      <trkpt lat="45.10264" lon="4.8225">
        <ele>122</ele>
        <time>2024-05-21T10:12:49.000Z</time>
      </trkpt>
      <trkpt lat="45.10261" lon="4.82256">
        <ele>122</ele>
        <time>2024-05-21T10:12:50.000Z</time>
      </trkpt>
      <trkpt lat="45.10259" lon="4.82262">
        <ele>122</ele>
        <time>2024-05-21T10:12:51.000Z</time>
      </trkpt>
      <trkpt lat="45.10258" lon="4.82267">
        <ele>122</ele>
        <time>2024-05-21T10:12:52.000Z</time>
      </trkpt>
      <trkpt lat="45.10256" lon="4.82274">
        <ele>122.19999694824</ele>
        <time>2024-05-21T10:12:53.000Z</time>
      </trkpt>
      <trkpt lat="45.10254" lon="4.8228">
        <ele>122.19999694824</ele>
        <time>2024-05-21T10:12:54.000Z</time>
      </trkpt>
      <trkpt lat="45.10252" lon="4.82285">
        <ele>122.19999694824</ele>
        <time>2024-05-21T10:12:55.000Z</time>
      </trkpt>
      <trkpt lat="45.1025" lon="4.82289">
        <ele>122.40000152588</ele>
        <time>2024-05-21T10:12:56.000Z</time>
      </trkpt>
      <trkpt lat="45.10246" lon="4.82293">
        <ele>122.40000152588</ele>
        <time>2024-05-21T10:12:57.000Z</time>
      </trkpt>
      <trkpt lat="45.10242" lon="4.82296">
        <ele>122.40000152588</ele>
        <time>2024-05-21T10:12:58.000Z</time>
      </trkpt>
      <trkpt lat="45.10237" lon="4.82298">
        <ele>122.40000152588</ele>
        <time>2024-05-21T10:12:59.000Z</time>
      </trkpt>
      <trkpt lat="45.10233" lon="4.823">
        <ele>122.40000152588</ele>
        <time>2024-05-21T10:13:00.000Z</time>
      </trkpt>
      <trkpt lat="45.10227" lon="4.82302">
        <ele>122.40000152588</ele>
        <time>2024-05-21T10:13:01.000Z</time>
      </trkpt>
      <trkpt lat="45.10222" lon="4.82304">
        <ele>122.40000152588</ele>
        <time>2024-05-21T10:13:02.000Z</time>
      </trkpt>
      <trkpt lat="45.10218" lon="4.82305">
        <ele>122.40000152588</ele>
        <time>2024-05-21T10:13:03.000Z</time>
      </trkpt>
      <trkpt lat="45.10213" lon="4.82307">
        <ele>122.40000152588</ele>
        <time>2024-05-21T10:13:04.000Z</time>
      </trkpt>
      <trkpt lat="45.10208" lon="4.82309">
        <ele>122.19999694824</ele>
        <time>2024-05-21T10:13:05.000Z</time>
      </trkpt>
      <trkpt lat="45.10202" lon="4.82312">
        <ele>122.19999694824</ele>
        <time>2024-05-21T10:13:06.000Z</time>
      </trkpt>
      <trkpt lat="45.10197" lon="4.82314">
        <ele>122.19999694824</ele>
        <time>2024-05-21T10:13:07.000Z</time>
      </trkpt>
      <trkpt lat="45.10192" lon="4.82317">
        <ele>122.19999694824</ele>
        <time>2024-05-21T10:13:08.000Z</time>
      </trkpt>
      <trkpt lat="45.10187" lon="4.8232">
        <ele>122.19999694824</ele>
        <time>2024-05-21T10:13:09.000Z</time>
      </trkpt>
      <trkpt lat="45.10182" lon="4.82322">
        <ele>122.19999694824</ele>
        <time>2024-05-21T10:13:10.000Z</time>
      </trkpt>
      <trkpt lat="45.10177" lon="4.82324">
        <ele>122.19999694824</ele>
        <time>2024-05-21T10:13:11.000Z</time>
      </trkpt>
      <trkpt lat="45.10173" lon="4.82325">
        <ele>122.40000152588</ele>
        <time>2024-05-21T10:13:12.000Z</time>
      </trkpt>
      <trkpt lat="45.10167" lon="4.82327">
        <ele>122.40000152588</ele>
        <time>2024-05-21T10:13:13.000Z</time>
      </trkpt>
      <trkpt lat="45.10162" lon="4.82328">
        <ele>122.40000152588</ele>
        <time>2024-05-21T10:13:14.000Z</time>
      </trkpt>
      <trkpt lat="45.10158" lon="4.8233">
        <ele>122.40000152588</ele>
        <time>2024-05-21T10:13:15.000Z</time>
      </trkpt>
      <trkpt lat="45.10152" lon="4.82334">
        <ele>122.40000152588</ele>
        <time>2024-05-21T10:13:16.000Z</time>
      </trkpt>
      <trkpt lat="45.10147" lon="4.82338">
        <ele>122.40000152588</ele>
        <time>2024-05-21T10:13:17.000Z</time>
      </trkpt>
      <trkpt lat="45.10143" lon="4.82342">
        <ele>122.40000152588</ele>
        <time>2024-05-21T10:13:18.000Z</time>
      </trkpt>
      <trkpt lat="45.10139" lon="4.82346">
        <ele>122.40000152588</ele>
        <time>2024-05-21T10:13:19.000Z</time>
      </trkpt>
      <trkpt lat="45.10134" lon="4.82351">
        <ele>122.40000152588</ele>
        <time>2024-05-21T10:13:20.000Z</time>
      </trkpt>
      <trkpt lat="45.10129" lon="4.82356">
        <ele>122.40000152588</ele>
        <time>2024-05-21T10:13:21.000Z</time>
      </trkpt>
      <trkpt lat="45.10125" lon="4.8236">
        <ele>122.19999694824</ele>
        <time>2024-05-21T10:13:22.000Z</time>
      </trkpt>
      <trkpt lat="45.10121" lon="4.82365">
        <ele>122.19999694824</ele>
        <time>2024-05-21T10:13:23.000Z</time>
      </trkpt>
      <trkpt lat="45.10117" lon="4.82369">
        <ele>122.19999694824</ele>
        <time>2024-05-21T10:13:24.000Z</time>
      </trkpt>
      <trkpt lat="45.10112" lon="4.82373">
        <ele>122.19999694824</ele>
        <time>2024-05-21T10:13:25.000Z</time>
      </trkpt>
      <trkpt lat="45.10108" lon="4.82376">
        <ele>122.19999694824</ele>
        <time>2024-05-21T10:13:26.000Z</time>
      </trkpt>
      <trkpt lat="45.10102" lon="4.8238">
        <ele>122.19999694824</ele>
        <time>2024-05-21T10:13:27.000Z</time>
      </trkpt>
      <trkpt lat="45.10097" lon="4.82383">
        <ele>122.19999694824</ele>
        <time>2024-05-21T10:13:28.000Z</time>
      </trkpt>
      <trkpt lat="45.10093" lon="4.82387">
        <ele>122.40000152588</ele>
        <time>2024-05-21T10:13:29.000Z</time>
      </trkpt>
      <trkpt lat="45.10087" lon="4.82392">
        <ele>122.40000152588</ele>
        <time>2024-05-21T10:13:30.000Z</time>
      </trkpt>
      <trkpt lat="45.10083" lon="4.82394">
        <ele>122.40000152588</ele>
        <time>2024-05-21T10:13:31.000Z</time>
      </trkpt>
      <trkpt lat="45.10077" lon="4.82397">
        <ele>122.40000152588</ele>
        <time>2024-05-21T10:13:32.000Z</time>
      </trkpt>
      <trkpt lat="45.10072" lon="4.824">
        <ele>122.40000152588</ele>
        <time>2024-05-21T10:13:33.000Z</time>
      </trkpt>
      <trkpt lat="45.10067" lon="4.82402">
        <ele>122.59999847412</ele>
        <time>2024-05-21T10:13:34.000Z</time>
      </trkpt>
      <trkpt lat="45.10063" lon="4.82405">
        <ele>122.59999847412</ele>
        <time>2024-05-21T10:13:35.000Z</time>
      </trkpt>
      <trkpt lat="45.10057" lon="4.82408">
        <ele>122.59999847412</ele>
        <time>2024-05-21T10:13:36.000Z</time>
      </trkpt>
      <trkpt lat="45.10052" lon="4.82411">
        <ele>122.59999847412</ele>
        <time>2024-05-21T10:13:37.000Z</time>
      </trkpt>
      <trkpt lat="45.10047" lon="4.82412">
        <ele>122.80000305176</ele>
        <time>2024-05-21T10:13:38.000Z</time>
      </trkpt>
      <trkpt lat="45.10042" lon="4.82414">
        <ele>122.80000305176</ele>
        <time>2024-05-21T10:13:39.000Z</time>
      </trkpt>
      <trkpt lat="45.10037" lon="4.82415">
        <ele>122.80000305176</ele>
        <time>2024-05-21T10:13:40.000Z</time>
      </trkpt>
      <trkpt lat="45.10032" lon="4.82417">
        <ele>122.80000305176</ele>
        <time>2024-05-21T10:13:41.000Z</time>
      </trkpt>
      <trkpt lat="45.10028" lon="4.82418">
        <ele>123</ele>
        <time>2024-05-21T10:13:42.000Z</time>
      </trkpt>
      <trkpt lat="45.10023" lon="4.8242">
        <ele>123</ele>
        <time>2024-05-21T10:13:43.000Z</time>
      </trkpt>
      <trkpt lat="45.10018" lon="4.8242">
        <ele>123</ele>
        <time>2024-05-21T10:13:44.000Z</time>
      </trkpt>
      <trkpt lat="45.10013" lon="4.82422">
        <ele>123</ele>
        <time>2024-05-21T10:13:45.000Z</time>
      </trkpt>
      <trkpt lat="45.10007" lon="4.82424">
        <ele>123</ele>
        <time>2024-05-21T10:13:46.000Z</time>
      </trkpt>
      <trkpt lat="45.10002" lon="4.82426">
        <ele>123</ele>
        <time>2024-05-21T10:13:47.000Z</time>
      </trkpt>
      <trkpt lat="45.09997" lon="4.82428">
        <ele>123</ele>
        <time>2024-05-21T10:13:48.000Z</time>
      </trkpt>
      <trkpt lat="45.09993" lon="4.8243">
        <ele>123</ele>
        <time>2024-05-21T10:13:49.000Z</time>
      </trkpt>
      <trkpt lat="45.09988" lon="4.82432">
        <ele>123</ele>
        <time>2024-05-21T10:13:50.000Z</time>
      </trkpt>
      <trkpt lat="45.09982" lon="4.82435">
        <ele>123</ele>
        <time>2024-05-21T10:13:51.000Z</time>
      </trkpt>
      <trkpt lat="45.09977" lon="4.82438">
        <ele>123</ele>
        <time>2024-05-21T10:13:52.000Z</time>
      </trkpt>
      <trkpt lat="45.09971" lon="4.8244">
        <ele>123</ele>
        <time>2024-05-21T10:13:53.000Z</time>
      </trkpt>
      <trkpt lat="45.09966" lon="4.82443">
        <ele>123</ele>
        <time>2024-05-21T10:13:54.000Z</time>
      </trkpt>
      <trkpt lat="45.0996" lon="4.82445">
        <ele>123</ele>
        <time>2024-05-21T10:13:55.000Z</time>
      </trkpt>
      <trkpt lat="45.09956" lon="4.82447">
        <ele>122.80000305176</ele>
        <time>2024-05-21T10:13:56.000Z</time>
      </trkpt>
      <trkpt lat="45.0995" lon="4.8245">
        <ele>122.59999847412</ele>
        <time>2024-05-21T10:13:57.000Z</time>
      </trkpt>
      <trkpt lat="45.09944" lon="4.82452">
        <ele>122.59999847412</ele>
        <time>2024-05-21T10:13:58.000Z</time>
      </trkpt>
      <trkpt lat="45.0994" lon="4.82453">
        <ele>122.59999847412</ele>
        <time>2024-05-21T10:13:59.000Z</time>
      </trkpt>
      <trkpt lat="45.09933" lon="4.82456">
        <ele>122.59999847412</ele>
        <time>2024-05-21T10:14:00.000Z</time>
      </trkpt>
      <trkpt lat="45.09928" lon="4.82457">
        <ele>122.59999847412</ele>
        <time>2024-05-21T10:14:01.000Z</time>
      </trkpt>
      <trkpt lat="45.09923" lon="4.82458">
        <ele>122.59999847412</ele>
        <time>2024-05-21T10:14:02.000Z</time>
      </trkpt>
      <trkpt lat="45.09918" lon="4.82459">
        <ele>122.59999847412</ele>
        <time>2024-05-21T10:14:03.000Z</time>
      </trkpt>
      <trkpt lat="45.09913" lon="4.82461">
        <ele>122.59999847412</ele>
        <time>2024-05-21T10:14:04.000Z</time>
      </trkpt>
      <trkpt lat="45.09908" lon="4.82463">
        <ele>122.59999847412</ele>
        <time>2024-05-21T10:14:05.000Z</time>
      </trkpt>
      <trkpt lat="45.09904" lon="4.82465">
        <ele>122.59999847412</ele>
        <time>2024-05-21T10:14:06.000Z</time>
      </trkpt>
      <trkpt lat="45.09898" lon="4.82467">
        <ele>122.59999847412</ele>
        <time>2024-05-21T10:14:07.000Z</time>
      </trkpt>
      <trkpt lat="45.09893" lon="4.82468">
        <ele>122.59999847412</ele>
        <time>2024-05-21T10:14:08.000Z</time>
      </trkpt>
      <trkpt lat="45.09888" lon="4.82471">
        <ele>122.59999847412</ele>
        <time>2024-05-21T10:14:09.000Z</time>
      </trkpt>
      <trkpt lat="45.09883" lon="4.82472">
        <ele>122.59999847412</ele>
        <time>2024-05-21T10:14:10.000Z</time>
      </trkpt>
      <trkpt lat="45.09879" lon="4.82474">
        <ele>122.80000305176</ele>
        <time>2024-05-21T10:14:11.000Z</time>
      </trkpt>
      <trkpt lat="45.09873" lon="4.82477">
        <ele>122.80000305176</ele>
        <time>2024-05-21T10:14:12.000Z</time>
      </trkpt>
      <trkpt lat="45.09869" lon="4.82479">
        <ele>122.80000305176</ele>
        <time>2024-05-21T10:14:13.000Z</time>
      </trkpt>
      <trkpt lat="45.09864" lon="4.8248">
        <ele>122.80000305176</ele>
        <time>2024-05-21T10:14:14.000Z</time>
      </trkpt>
      <trkpt lat="45.09859" lon="4.82482">
        <ele>122.80000305176</ele>
        <time>2024-05-21T10:14:15.000Z</time>
      </trkpt>
      <trkpt lat="45.09853" lon="4.82484">
        <ele>123</ele>
        <time>2024-05-21T10:14:16.000Z</time>
      </trkpt>
      <trkpt lat="45.0985" lon="4.82486">
        <ele>123</ele>
        <time>2024-05-21T10:14:17.000Z</time>
      </trkpt>
      <trkpt lat="45.09844" lon="4.82488">
        <ele>123</ele>
        <time>2024-05-21T10:14:18.000Z</time>
      </trkpt>
      <trkpt lat="45.09839" lon="4.82491">
        <ele>123</ele>
        <time>2024-05-21T10:14:19.000Z</time>
      </trkpt>
      <trkpt lat="45.09834" lon="4.82494">
        <ele>123</ele>
        <time>2024-05-21T10:14:20.000Z</time>
      </trkpt>
      <trkpt lat="45.09828" lon="4.82497">
        <ele>123</ele>
        <time>2024-05-21T10:14:21.000Z</time>
      </trkpt>
      <trkpt lat="45.09824" lon="4.82499">
        <ele>123</ele>
        <time>2024-05-21T10:14:22.000Z</time>
      </trkpt>
      <trkpt lat="45.09818" lon="4.82501">
        <ele>123</ele>
        <time>2024-05-21T10:14:23.000Z</time>
      </trkpt>
      <trkpt lat="45.09811" lon="4.82504">
        <ele>123</ele>
        <time>2024-05-21T10:14:24.000Z</time>
      </trkpt>
      <trkpt lat="45.09807" lon="4.82506">
        <ele>122.80000305176</ele>
        <time>2024-05-21T10:14:25.000Z</time>
      </trkpt>
      <trkpt lat="45.09801" lon="4.82509">
        <ele>122.59999847412</ele>
        <time>2024-05-21T10:14:26.000Z</time>
      </trkpt>
      <trkpt lat="45.09796" lon="4.82511">
        <ele>122.59999847412</ele>
        <time>2024-05-21T10:14:27.000Z</time>
      </trkpt>
      <trkpt lat="45.09791" lon="4.82514">
        <ele>122.59999847412</ele>
        <time>2024-05-21T10:14:28.000Z</time>
      </trkpt>
      <trkpt lat="45.09785" lon="4.82516">
        <ele>122.59999847412</ele>
        <time>2024-05-21T10:14:29.000Z</time>
      </trkpt>
      <trkpt lat="45.0978" lon="4.82518">
        <ele>122.59999847412</ele>
        <time>2024-05-21T10:14:30.000Z</time>
      </trkpt>
      <trkpt lat="45.09775" lon="4.82521">
        <ele>122.59999847412</ele>
        <time>2024-05-21T10:14:31.000Z</time>
      </trkpt>
      <trkpt lat="45.09771" lon="4.82524">
        <ele>122.59999847412</ele>
        <time>2024-05-21T10:14:32.000Z</time>
      </trkpt>
      <trkpt lat="45.09765" lon="4.82528">
        <ele>122.59999847412</ele>
        <time>2024-05-21T10:14:33.000Z</time>
      </trkpt>
      <trkpt lat="45.09761" lon="4.8253">
        <ele>122.59999847412</ele>
        <time>2024-05-21T10:14:34.000Z</time>
      </trkpt>
      <trkpt lat="45.09754" lon="4.82534">
        <ele>122.59999847412</ele>
        <time>2024-05-21T10:14:35.000Z</time>
      </trkpt>
      <trkpt lat="45.0975" lon="4.82537">
        <ele>122.40000152588</ele>
        <time>2024-05-21T10:14:36.000Z</time>
      </trkpt>
      <trkpt lat="45.09745" lon="4.82539">
        <ele>122.40000152588</ele>
        <time>2024-05-21T10:14:37.000Z</time>
      </trkpt>
      <trkpt lat="45.0974" lon="4.82541">
        <ele>122.40000152588</ele>
        <time>2024-05-21T10:14:38.000Z</time>
      </trkpt>
      <trkpt lat="45.09735" lon="4.82544">
        <ele>122.40000152588</ele>
        <time>2024-05-21T10:14:39.000Z</time>
      </trkpt>
      <trkpt lat="45.0973" lon="4.82546">
        <ele>122.40000152588</ele>
        <time>2024-05-21T10:14:40.000Z</time>
      </trkpt>
      <trkpt lat="45.09724" lon="4.82549">
        <ele>122.40000152588</ele>
        <time>2024-05-21T10:14:41.000Z</time>
      </trkpt>
      <trkpt lat="45.0972" lon="4.82551">
        <ele>122.40000152588</ele>
        <time>2024-05-21T10:14:42.000Z</time>
      </trkpt>
      <trkpt lat="45.09715" lon="4.82554">
        <ele>122.40000152588</ele>
        <time>2024-05-21T10:14:43.000Z</time>
      </trkpt>
      <trkpt lat="45.09709" lon="4.82557">
        <ele>122.40000152588</ele>
        <time>2024-05-21T10:14:44.000Z</time>
      </trkpt>
      <trkpt lat="45.09704" lon="4.82559">
        <ele>122.40000152588</ele>
        <time>2024-05-21T10:14:45.000Z</time>
      </trkpt>
      <trkpt lat="45.09701" lon="4.82562">
        <ele>122.19999694824</ele>
        <time>2024-05-21T10:14:46.000Z</time>
      </trkpt>
      <trkpt lat="45.09698" lon="4.82565">
        <ele>122.19999694824</ele>
        <time>2024-05-21T10:14:47.000Z</time>
      </trkpt>
      <trkpt lat="45.09696" lon="4.8257">
        <ele>122.40000152588</ele>
        <time>2024-05-21T10:14:48.000Z</time>
      </trkpt>
      <trkpt lat="45.09694" lon="4.82575">
        <ele>122.19999694824</ele>
        <time>2024-05-21T10:14:49.000Z</time>
      </trkpt>
      <trkpt lat="45.09692" lon="4.82581">
        <ele>122.19999694824</ele>
        <time>2024-05-21T10:14:50.000Z</time>
      </trkpt>
      <trkpt lat="45.0969" lon="4.82585">
        <ele>122.19999694824</ele>
        <time>2024-05-21T10:14:51.000Z</time>
      </trkpt>
      <trkpt lat="45.09687" lon="4.8259">
        <ele>122.19999694824</ele>
        <time>2024-05-21T10:14:52.000Z</time>
      </trkpt>
      <trkpt lat="45.09684" lon="4.82596">
        <ele>122.40000152588</ele>
        <time>2024-05-21T10:14:53.000Z</time>
      </trkpt>
      <trkpt lat="45.09681" lon="4.82601">
        <ele>122.40000152588</ele>
        <time>2024-05-21T10:14:54.000Z</time>
      </trkpt>
      <trkpt lat="45.09679" lon="4.82605">
        <ele>122.40000152588</ele>
        <time>2024-05-21T10:14:55.000Z</time>
      </trkpt>
      <trkpt lat="45.09676" lon="4.82608">
        <ele>122.40000152588</ele>
        <time>2024-05-21T10:14:56.000Z</time>
      </trkpt>
      <trkpt lat="45.09672" lon="4.8261">
        <ele>122.40000152588</ele>
        <time>2024-05-21T10:14:57.000Z</time>
      </trkpt>
      <trkpt lat="45.09668" lon="4.8261">
        <ele>122.40000152588</ele>
        <time>2024-05-21T10:14:58.000Z</time>
      </trkpt>
      <trkpt lat="45.09665" lon="4.82609">
        <ele>122.40000152588</ele>
        <time>2024-05-21T10:14:59.000Z</time>
      </trkpt>
      <trkpt lat="45.09661" lon="4.82608">
        <ele>122.59999847412</ele>
        <time>2024-05-21T10:15:00.000Z</time>
      </trkpt>
      <trkpt lat="45.09657" lon="4.82607">
        <ele>122.59999847412</ele>
        <time>2024-05-21T10:15:01.000Z</time>
      </trkpt>
      <trkpt lat="45.09653" lon="4.82607">
        <ele>122.59999847412</ele>
        <time>2024-05-21T10:15:02.000Z</time>
      </trkpt>
      <trkpt lat="45.09649" lon="4.82608">
        <ele>122.59999847412</ele>
        <time>2024-05-21T10:15:03.000Z</time>
      </trkpt>
      <trkpt lat="45.09646" lon="4.82612">
        <ele>122.59999847412</ele>
        <time>2024-05-21T10:15:04.000Z</time>
      </trkpt>
      <trkpt lat="45.09643" lon="4.82617">
        <ele>122.40000152588</ele>
        <time>2024-05-21T10:15:05.000Z</time>
      </trkpt>
      <trkpt lat="45.0964" lon="4.82623">
        <ele>122.40000152588</ele>
        <time>2024-05-21T10:15:06.000Z</time>
      </trkpt>
      <trkpt lat="45.09638" lon="4.82628">
        <ele>122.40000152588</ele>
        <time>2024-05-21T10:15:07.000Z</time>
      </trkpt>
      <trkpt lat="45.09636" lon="4.82633">
        <ele>122.40000152588</ele>
        <time>2024-05-21T10:15:08.000Z</time>
      </trkpt>
      <trkpt lat="45.09634" lon="4.82639">
        <ele>122.19999694824</ele>
        <time>2024-05-21T10:15:09.000Z</time>
      </trkpt>
      <trkpt lat="45.09632" lon="4.82645">
        <ele>122</ele>
        <time>2024-05-21T10:15:10.000Z</time>
      </trkpt>
      <trkpt lat="45.0963" lon="4.8265">
        <ele>122</ele>
        <time>2024-05-21T10:15:11.000Z</time>
      </trkpt>
      <trkpt lat="45.09627" lon="4.82655">
        <ele>122</ele>
        <time>2024-05-21T10:15:12.000Z</time>
      </trkpt>
      <trkpt lat="45.09624" lon="4.82661">
        <ele>122</ele>
        <time>2024-05-21T10:15:13.000Z</time>
      </trkpt>
      <trkpt lat="45.09622" lon="4.82666">
        <ele>122.19999694824</ele>
        <time>2024-05-21T10:15:14.000Z</time>
      </trkpt>
      <trkpt lat="45.09619" lon="4.82673">
        <ele>122.40000152588</ele>
        <time>2024-05-21T10:15:15.000Z</time>
      </trkpt>
      <trkpt lat="45.09618" lon="4.82678">
        <ele>122.40000152588</ele>
        <time>2024-05-21T10:15:16.000Z</time>
      </trkpt>
      <trkpt lat="45.09615" lon="4.82685">
        <ele>122.40000152588</ele>
        <time>2024-05-21T10:15:17.000Z</time>
      </trkpt>
      <trkpt lat="45.09612" lon="4.82691">
        <ele>122.59999847412</ele>
        <time>2024-05-21T10:15:18.000Z</time>
      </trkpt>
      <trkpt lat="45.0961" lon="4.82697">
        <ele>122.59999847412</ele>
        <time>2024-05-21T10:15:19.000Z</time>
      </trkpt>
      <trkpt lat="45.09608" lon="4.82702">
        <ele>122.59999847412</ele>
        <time>2024-05-21T10:15:20.000Z</time>
      </trkpt>
      <trkpt lat="45.09604" lon="4.82709">
        <ele>122.59999847412</ele>
        <time>2024-05-21T10:15:21.000Z</time>
      </trkpt>
      <trkpt lat="45.09602" lon="4.82713">
        <ele>122.59999847412</ele>
        <time>2024-05-21T10:15:22.000Z</time>
      </trkpt>
      <trkpt lat="45.09598" lon="4.82719">
        <ele>122.59999847412</ele>
        <time>2024-05-21T10:15:23.000Z</time>
      </trkpt>
      <trkpt lat="45.09594" lon="4.82725">
        <ele>122.59999847412</ele>
        <time>2024-05-21T10:15:24.000Z</time>
      </trkpt>
      <trkpt lat="45.09591" lon="4.82729">
        <ele>122.59999847412</ele>
        <time>2024-05-21T10:15:25.000Z</time>
      </trkpt>
      <trkpt lat="45.09587" lon="4.82734">
        <ele>122.59999847412</ele>
        <time>2024-05-21T10:15:26.000Z</time>
      </trkpt>
      <trkpt lat="45.09582" lon="4.82739">
        <ele>122.40000152588</ele>
        <time>2024-05-21T10:15:27.000Z</time>
      </trkpt>
      <trkpt lat="45.09578" lon="4.82743">
        <ele>122.40000152588</ele>
        <time>2024-05-21T10:15:28.000Z</time>
      </trkpt>
      <trkpt lat="45.09573" lon="4.82748">
        <ele>122.40000152588</ele>
        <time>2024-05-21T10:15:29.000Z</time>
      </trkpt>
      <trkpt lat="45.09568" lon="4.82752">
        <ele>122.40000152588</ele>
        <time>2024-05-21T10:15:30.000Z</time>
      </trkpt>
      <trkpt lat="45.09563" lon="4.82756">
        <ele>122.19999694824</ele>
        <time>2024-05-21T10:15:31.000Z</time>
      </trkpt>
      <trkpt lat="45.09558" lon="4.8276">
        <ele>122.19999694824</ele>
        <time>2024-05-21T10:15:32.000Z</time>
      </trkpt>
      <trkpt lat="45.09553" lon="4.82764">
        <ele>122.19999694824</ele>
        <time>2024-05-21T10:15:33.000Z</time>
      </trkpt>
      <trkpt lat="45.09548" lon="4.82767">
        <ele>122.19999694824</ele>
        <time>2024-05-21T10:15:34.000Z</time>
      </trkpt>
      <trkpt lat="45.09544" lon="4.82772">
        <ele>122.19999694824</ele>
        <time>2024-05-21T10:15:35.000Z</time>
      </trkpt>
      <trkpt lat="45.09539" lon="4.82778">
        <ele>122.19999694824</ele>
        <time>2024-05-21T10:15:36.000Z</time>
      </trkpt>
      <trkpt lat="45.09536" lon="4.82782">
        <ele>122.19999694824</ele>
        <time>2024-05-21T10:15:37.000Z</time>
      </trkpt>
      <trkpt lat="45.09532" lon="4.82787">
        <ele>122.19999694824</ele>
        <time>2024-05-21T10:15:38.000Z</time>
      </trkpt>
      <trkpt lat="45.09528" lon="4.82791">
        <ele>122.19999694824</ele>
        <time>2024-05-21T10:15:39.000Z</time>
      </trkpt>
      <trkpt lat="45.09523" lon="4.82796">
        <ele>122</ele>
        <time>2024-05-21T10:15:40.000Z</time>
      </trkpt>
      <trkpt lat="45.09519" lon="4.828">
        <ele>122</ele>
        <time>2024-05-21T10:15:41.000Z</time>
      </trkpt>
      <trkpt lat="45.09515" lon="4.82805">
        <ele>122</ele>
        <time>2024-05-21T10:15:42.000Z</time>
      </trkpt>
      <trkpt lat="45.09511" lon="4.82811">
        <ele>122</ele>
        <time>2024-05-21T10:15:43.000Z</time>
      </trkpt>
      <trkpt lat="45.09506" lon="4.82816">
        <ele>122</ele>
        <time>2024-05-21T10:15:44.000Z</time>
      </trkpt>
      <trkpt lat="45.09502" lon="4.8282">
        <ele>122</ele>
        <time>2024-05-21T10:15:45.000Z</time>
      </trkpt>
      <trkpt lat="45.09497" lon="4.82826">
        <ele>122</ele>
        <time>2024-05-21T10:15:46.000Z</time>
      </trkpt>
      <trkpt lat="45.09493" lon="4.82829">
        <ele>121.80000305176</ele>
        <time>2024-05-21T10:15:47.000Z</time>
      </trkpt>
      <trkpt lat="45.09488" lon="4.82833">
        <ele>121.80000305176</ele>
        <time>2024-05-21T10:15:48.000Z</time>
      </trkpt>
      <trkpt lat="45.09483" lon="4.82836">
        <ele>121.80000305176</ele>
        <time>2024-05-21T10:15:49.000Z</time>
      </trkpt>
      <trkpt lat="45.09478" lon="4.8284">
        <ele>121.59999847412</ele>
        <time>2024-05-21T10:15:50.000Z</time>
      </trkpt>
      <trkpt lat="45.09472" lon="4.82843">
        <ele>121.59999847412</ele>
        <time>2024-05-21T10:15:51.000Z</time>
      </trkpt>
      <trkpt lat="45.09466" lon="4.82847">
        <ele>121.59999847412</ele>
        <time>2024-05-21T10:15:52.000Z</time>
      </trkpt>
      <trkpt lat="45.0946" lon="4.82848">
        <ele>121.40000152588</ele>
        <time>2024-05-21T10:15:53.000Z</time>
      </trkpt>
      <trkpt lat="45.09456" lon="4.82849">
        <ele>121.40000152588</ele>
        <time>2024-05-21T10:15:54.000Z</time>
      </trkpt>
      <trkpt lat="45.0945" lon="4.82851">
        <ele>121.40000152588</ele>
        <time>2024-05-21T10:15:55.000Z</time>
      </trkpt>
      <trkpt lat="45.09445" lon="4.82852">
        <ele>121.40000152588</ele>
        <time>2024-05-21T10:15:56.000Z</time>
      </trkpt>
      <trkpt lat="45.09439" lon="4.82852">
        <ele>121.40000152588</ele>
        <time>2024-05-21T10:15:57.000Z</time>
      </trkpt>
      <trkpt lat="45.09434" lon="4.82853">
        <ele>121.40000152588</ele>
        <time>2024-05-21T10:15:58.000Z</time>
      </trkpt>
      <trkpt lat="45.09429" lon="4.82854">
        <ele>121.40000152588</ele>
        <time>2024-05-21T10:15:59.000Z</time>
      </trkpt>
      <trkpt lat="45.09423" lon="4.82855">
        <ele>121.40000152588</ele>
        <time>2024-05-21T10:16:00.000Z</time>
      </trkpt>
      <trkpt lat="45.09417" lon="4.82856">
        <ele>121.40000152588</ele>
        <time>2024-05-21T10:16:01.000Z</time>
      </trkpt>
      <trkpt lat="45.09412" lon="4.82857">
        <ele>121.40000152588</ele>
        <time>2024-05-21T10:16:02.000Z</time>
      </trkpt>
      <trkpt lat="45.09408" lon="4.82858">
        <ele>121.40000152588</ele>
        <time>2024-05-21T10:16:03.000Z</time>
      </trkpt>
      <trkpt lat="45.09401" lon="4.82859">
        <ele>121.40000152588</ele>
        <time>2024-05-21T10:16:04.000Z</time>
      </trkpt>
      <trkpt lat="45.09396" lon="4.8286">
        <ele>121.40000152588</ele>
        <time>2024-05-21T10:16:05.000Z</time>
      </trkpt>
      <trkpt lat="45.09392" lon="4.8286">
        <ele>121.59999847412</ele>
        <time>2024-05-21T10:16:06.000Z</time>
      </trkpt>
      <trkpt lat="45.09386" lon="4.82861">
        <ele>121.59999847412</ele>
        <time>2024-05-21T10:16:07.000Z</time>
      </trkpt>
      <trkpt lat="45.09381" lon="4.82861">
        <ele>121.59999847412</ele>
        <time>2024-05-21T10:16:08.000Z</time>
      </trkpt>
      <trkpt lat="45.09377" lon="4.82863">
        <ele>121.59999847412</ele>
        <time>2024-05-21T10:16:09.000Z</time>
      </trkpt>
      <trkpt lat="45.0937" lon="4.82864">
        <ele>121.59999847412</ele>
        <time>2024-05-21T10:16:10.000Z</time>
      </trkpt>
      <trkpt lat="45.09364" lon="4.82866">
        <ele>121.59999847412</ele>
        <time>2024-05-21T10:16:11.000Z</time>
      </trkpt>
      <trkpt lat="45.0936" lon="4.82867">
        <ele>121.59999847412</ele>
        <time>2024-05-21T10:16:12.000Z</time>
      </trkpt>
      <trkpt lat="45.09354" lon="4.82868">
        <ele>121.59999847412</ele>
        <time>2024-05-21T10:16:13.000Z</time>
      </trkpt>
      <trkpt lat="45.0935" lon="4.82869">
        <ele>121.59999847412</ele>
        <time>2024-05-21T10:16:14.000Z</time>
      </trkpt>
      <trkpt lat="45.09345" lon="4.8287">
        <ele>121.59999847412</ele>
        <time>2024-05-21T10:16:15.000Z</time>
      </trkpt>
      <trkpt lat="45.0934" lon="4.82872">
        <ele>121.59999847412</ele>
        <time>2024-05-21T10:16:16.000Z</time>
      </trkpt>
      <trkpt lat="45.09334" lon="4.82874">
        <ele>121.59999847412</ele>
        <time>2024-05-21T10:16:17.000Z</time>
      </trkpt>
      <trkpt lat="45.09328" lon="4.82875">
        <ele>121.59999847412</ele>
        <time>2024-05-21T10:16:18.000Z</time>
      </trkpt>
      <trkpt lat="45.09324" lon="4.82877">
        <ele>121.59999847412</ele>
        <time>2024-05-21T10:16:19.000Z</time>
      </trkpt>
      <trkpt lat="45.09318" lon="4.82879">
        <ele>121.80000305176</ele>
        <time>2024-05-21T10:16:20.000Z</time>
      </trkpt>
      <trkpt lat="45.09314" lon="4.82881">
        <ele>121.80000305176</ele>
        <time>2024-05-21T10:16:21.000Z</time>
      </trkpt>
      <trkpt lat="45.09309" lon="4.82883">
        <ele>121.80000305176</ele>
        <time>2024-05-21T10:16:22.000Z</time>
      </trkpt>
      <trkpt lat="45.09303" lon="4.82885">
        <ele>121.80000305176</ele>
        <time>2024-05-21T10:16:23.000Z</time>
      </trkpt>
      <trkpt lat="45.09298" lon="4.82887">
        <ele>121.80000305176</ele>
        <time>2024-05-21T10:16:24.000Z</time>
      </trkpt>
      <trkpt lat="45.09293" lon="4.82889">
        <ele>121.80000305176</ele>
        <time>2024-05-21T10:16:25.000Z</time>
      </trkpt>
      <trkpt lat="45.09287" lon="4.82892">
        <ele>121.59999847412</ele>
        <time>2024-05-21T10:16:26.000Z</time>
      </trkpt>
      <trkpt lat="45.09282" lon="4.82893">
        <ele>121.59999847412</ele>
        <time>2024-05-21T10:16:27.000Z</time>
      </trkpt>
      <trkpt lat="45.09276" lon="4.82895">
        <ele>121.59999847412</ele>
        <time>2024-05-21T10:16:28.000Z</time>
      </trkpt>
      <trkpt lat="45.09271" lon="4.82897">
        <ele>121.59999847412</ele>
        <time>2024-05-21T10:16:29.000Z</time>
      </trkpt>
      <trkpt lat="45.09266" lon="4.82899">
        <ele>121.59999847412</ele>
        <time>2024-05-21T10:16:30.000Z</time>
      </trkpt>
      <trkpt lat="45.0926" lon="4.82902">
        <ele>121.59999847412</ele>
        <time>2024-05-21T10:16:31.000Z</time>
      </trkpt>
      <trkpt lat="45.09255" lon="4.82905">
        <ele>121.59999847412</ele>
        <time>2024-05-21T10:16:32.000Z</time>
      </trkpt>
      <trkpt lat="45.0925" lon="4.82908">
        <ele>121.59999847412</ele>
        <time>2024-05-21T10:16:33.000Z</time>
      </trkpt>
      <trkpt lat="45.09244" lon="4.82914">
        <ele>121.80000305176</ele>
        <time>2024-05-21T10:16:34.000Z</time>
      </trkpt>
      <trkpt lat="45.09238" lon="4.82918">
        <ele>121.80000305176</ele>
        <time>2024-05-21T10:16:35.000Z</time>
      </trkpt>
      <trkpt lat="45.09235" lon="4.8292">
        <ele>121.80000305176</ele>
        <time>2024-05-21T10:16:36.000Z</time>
      </trkpt>
      <trkpt lat="45.09228" lon="4.82924">
        <ele>121.80000305176</ele>
        <time>2024-05-21T10:16:37.000Z</time>
      </trkpt>
      <trkpt lat="45.09224" lon="4.82927">
        <ele>121.80000305176</ele>
        <time>2024-05-21T10:16:38.000Z</time>
      </trkpt>
      <trkpt lat="45.09218" lon="4.82931">
        <ele>121.59999847412</ele>
        <time>2024-05-21T10:16:39.000Z</time>
      </trkpt>
      <trkpt lat="45.09211" lon="4.82936">
        <ele>121.59999847412</ele>
        <time>2024-05-21T10:16:40.000Z</time>
      </trkpt>
      <trkpt lat="45.09205" lon="4.82941">
        <ele>121.59999847412</ele>
        <time>2024-05-21T10:16:41.000Z</time>
      </trkpt>
      <trkpt lat="45.09201" lon="4.82945">
        <ele>121.59999847412</ele>
        <time>2024-05-21T10:16:42.000Z</time>
      </trkpt>
      <trkpt lat="45.09196" lon="4.82947">
        <ele>121.40000152588</ele>
        <time>2024-05-21T10:16:43.000Z</time>
      </trkpt>
      <trkpt lat="45.09191" lon="4.8295">
        <ele>121.19999694824</ele>
        <time>2024-05-21T10:16:44.000Z</time>
      </trkpt>
      <trkpt lat="45.09187" lon="4.82952">
        <ele>121.19999694824</ele>
        <time>2024-05-21T10:16:45.000Z</time>
      </trkpt>
      <trkpt lat="45.09181" lon="4.82954">
        <ele>121.19999694824</ele>
        <time>2024-05-21T10:16:46.000Z</time>
      </trkpt>
      <trkpt lat="45.09176" lon="4.82957">
        <ele>121</ele>
        <time>2024-05-21T10:16:47.000Z</time>
      </trkpt>
      <trkpt lat="45.09171" lon="4.82959">
        <ele>121</ele>
        <time>2024-05-21T10:16:48.000Z</time>
      </trkpt>
      <trkpt lat="45.09167" lon="4.82961">
        <ele>121</ele>
        <time>2024-05-21T10:16:49.000Z</time>
      </trkpt>
      <trkpt lat="45.09162" lon="4.82963">
        <ele>121</ele>
        <time>2024-05-21T10:16:50.000Z</time>
      </trkpt>
      <trkpt lat="45.09156" lon="4.82966">
        <ele>121</ele>
        <time>2024-05-21T10:16:51.000Z</time>
      </trkpt>
      <trkpt lat="45.09151" lon="4.82967">
        <ele>121</ele>
        <time>2024-05-21T10:16:52.000Z</time>
      </trkpt>
      <trkpt lat="45.09146" lon="4.82968">
        <ele>120.80000305176</ele>
        <time>2024-05-21T10:16:53.000Z</time>
      </trkpt>
      <trkpt lat="45.09141" lon="4.8297">
        <ele>120.80000305176</ele>
        <time>2024-05-21T10:16:54.000Z</time>
      </trkpt>
      <trkpt lat="45.09134" lon="4.82971">
        <ele>120.80000305176</ele>
        <time>2024-05-21T10:16:55.000Z</time>
      </trkpt>
      <trkpt lat="45.0913" lon="4.82972">
        <ele>120.80000305176</ele>
        <time>2024-05-21T10:16:56.000Z</time>
      </trkpt>
      <trkpt lat="45.09125" lon="4.82974">
        <ele>120.80000305176</ele>
        <time>2024-05-21T10:16:57.000Z</time>
      </trkpt>
      <trkpt lat="45.09119" lon="4.82976">
        <ele>120.80000305176</ele>
        <time>2024-05-21T10:16:58.000Z</time>
      </trkpt>
      <trkpt lat="45.09113" lon="4.82977">
        <ele>120.80000305176</ele>
        <time>2024-05-21T10:16:59.000Z</time>
      </trkpt>
      <trkpt lat="45.09108" lon="4.82979">
        <ele>120.80000305176</ele>
        <time>2024-05-21T10:17:00.000Z</time>
      </trkpt>
      <trkpt lat="45.09102" lon="4.8298">
        <ele>120.80000305176</ele>
        <time>2024-05-21T10:17:01.000Z</time>
      </trkpt>
      <trkpt lat="45.09097" lon="4.82982">
        <ele>120.80000305176</ele>
        <time>2024-05-21T10:17:02.000Z</time>
      </trkpt>
      <trkpt lat="45.09091" lon="4.82983">
        <ele>120.80000305176</ele>
        <time>2024-05-21T10:17:03.000Z</time>
      </trkpt>
      <trkpt lat="45.09086" lon="4.82984">
        <ele>120.80000305176</ele>
        <time>2024-05-21T10:17:04.000Z</time>
      </trkpt>
      <trkpt lat="45.09081" lon="4.82985">
        <ele>120.59999847412</ele>
        <time>2024-05-21T10:17:05.000Z</time>
      </trkpt>
      <trkpt lat="45.09075" lon="4.82987">
        <ele>120.59999847412</ele>
        <time>2024-05-21T10:17:06.000Z</time>
      </trkpt>
      <trkpt lat="45.09069" lon="4.82988">
        <ele>120.59999847412</ele>
        <time>2024-05-21T10:17:07.000Z</time>
      </trkpt>
      <trkpt lat="45.09064" lon="4.8299">
        <ele>120.59999847412</ele>
        <time>2024-05-21T10:17:08.000Z</time>
      </trkpt>
      <trkpt lat="45.09059" lon="4.82991">
        <ele>120.59999847412</ele>
        <time>2024-05-21T10:17:09.000Z</time>
      </trkpt>
      <trkpt lat="45.09054" lon="4.82993">
        <ele>120.59999847412</ele>
        <time>2024-05-21T10:17:10.000Z</time>
      </trkpt>
      <trkpt lat="45.09047" lon="4.82996">
        <ele>120.59999847412</ele>
        <time>2024-05-21T10:17:11.000Z</time>
      </trkpt>
      <trkpt lat="45.09043" lon="4.82997">
        <ele>120.80000305176</ele>
        <time>2024-05-21T10:17:12.000Z</time>
      </trkpt>
      <trkpt lat="45.09036" lon="4.83">
        <ele>120.80000305176</ele>
        <time>2024-05-21T10:17:13.000Z</time>
      </trkpt>
      <trkpt lat="45.09031" lon="4.83002">
        <ele>120.80000305176</ele>
        <time>2024-05-21T10:17:14.000Z</time>
      </trkpt>
      <trkpt lat="45.09026" lon="4.83004">
        <ele>120.80000305176</ele>
        <time>2024-05-21T10:17:15.000Z</time>
      </trkpt>
      <trkpt lat="45.0902" lon="4.83007">
        <ele>120.59999847412</ele>
        <time>2024-05-21T10:17:16.000Z</time>
      </trkpt>
      <trkpt lat="45.09015" lon="4.83009">
        <ele>120.59999847412</ele>
        <time>2024-05-21T10:17:17.000Z</time>
      </trkpt>
      <trkpt lat="45.0901" lon="4.83012">
        <ele>120.59999847412</ele>
        <time>2024-05-21T10:17:18.000Z</time>
      </trkpt>
      <trkpt lat="45.09005" lon="4.83015">
        <ele>120.59999847412</ele>
        <time>2024-05-21T10:17:19.000Z</time>
      </trkpt>
      <trkpt lat="45.09" lon="4.83017">
        <ele>120.59999847412</ele>
        <time>2024-05-21T10:17:20.000Z</time>
      </trkpt>
      <trkpt lat="45.08994" lon="4.83019">
        <ele>120.59999847412</ele>
        <time>2024-05-21T10:17:21.000Z</time>
      </trkpt>
      <trkpt lat="45.08989" lon="4.83021">
        <ele>120.59999847412</ele>
        <time>2024-05-21T10:17:22.000Z</time>
      </trkpt>
      <trkpt lat="45.08984" lon="4.83023">
        <ele>120.59999847412</ele>
        <time>2024-05-21T10:17:23.000Z</time>
      </trkpt>
      <trkpt lat="45.08978" lon="4.83024">
        <ele>120.59999847412</ele>
        <time>2024-05-21T10:17:24.000Z</time>
      </trkpt>
      <trkpt lat="45.08974" lon="4.83025">
        <ele>120.59999847412</ele>
        <time>2024-05-21T10:17:25.000Z</time>
      </trkpt>
      <trkpt lat="45.08969" lon="4.83026">
        <ele>120.59999847412</ele>
        <time>2024-05-21T10:17:26.000Z</time>
      </trkpt>
      <trkpt lat="45.08964" lon="4.83027">
        <ele>120.59999847412</ele>
        <time>2024-05-21T10:17:27.000Z</time>
      </trkpt>
      <trkpt lat="45.08958" lon="4.83028">
        <ele>120.80000305176</ele>
        <time>2024-05-21T10:17:28.000Z</time>
      </trkpt>
      <trkpt lat="45.08953" lon="4.83028">
        <ele>120.80000305176</ele>
        <time>2024-05-21T10:17:29.000Z</time>
      </trkpt>
      <trkpt lat="45.08947" lon="4.83029">
        <ele>120.80000305176</ele>
        <time>2024-05-21T10:17:30.000Z</time>
      </trkpt>
      <trkpt lat="45.0894" lon="4.83029">
        <ele>120.80000305176</ele>
        <time>2024-05-21T10:17:31.000Z</time>
      </trkpt>
      <trkpt lat="45.08935" lon="4.83029">
        <ele>120.80000305176</ele>
        <time>2024-05-21T10:17:32.000Z</time>
      </trkpt>
      <trkpt lat="45.08929" lon="4.83029">
        <ele>120.80000305176</ele>
        <time>2024-05-21T10:17:33.000Z</time>
      </trkpt>
      <trkpt lat="45.08925" lon="4.83029">
        <ele>120.59999847412</ele>
        <time>2024-05-21T10:17:34.000Z</time>
      </trkpt>
      <trkpt lat="45.08918" lon="4.8303">
        <ele>120.59999847412</ele>
        <time>2024-05-21T10:17:35.000Z</time>
      </trkpt>
      <trkpt lat="45.08914" lon="4.83032">
        <ele>120.59999847412</ele>
        <time>2024-05-21T10:17:36.000Z</time>
      </trkpt>
      <trkpt lat="45.08908" lon="4.83033">
        <ele>120.59999847412</ele>
        <time>2024-05-21T10:17:37.000Z</time>
      </trkpt>
      <trkpt lat="45.08903" lon="4.83033">
        <ele>120.59999847412</ele>
        <time>2024-05-21T10:17:38.000Z</time>
      </trkpt>
      <trkpt lat="45.08897" lon="4.83034">
        <ele>120.59999847412</ele>
        <time>2024-05-21T10:17:39.000Z</time>
      </trkpt>
      <trkpt lat="45.08891" lon="4.83035">
        <ele>120.59999847412</ele>
        <time>2024-05-21T10:17:40.000Z</time>
      </trkpt>
      <trkpt lat="45.08885" lon="4.83035">
        <ele>120.59999847412</ele>
        <time>2024-05-21T10:17:41.000Z</time>
      </trkpt>
      <trkpt lat="45.08881" lon="4.83036">
        <ele>120.80000305176</ele>
        <time>2024-05-21T10:17:42.000Z</time>
      </trkpt>
      <trkpt lat="45.08876" lon="4.83038">
        <ele>120.80000305176</ele>
        <time>2024-05-21T10:17:43.000Z</time>
      </trkpt>
      <trkpt lat="45.08871" lon="4.83039">
        <ele>121</ele>
        <time>2024-05-21T10:17:44.000Z</time>
      </trkpt>
      <trkpt lat="45.08865" lon="4.8304">
        <ele>121</ele>
        <time>2024-05-21T10:17:45.000Z</time>
      </trkpt>
      <trkpt lat="45.0886" lon="4.83041">
        <ele>121</ele>
        <time>2024-05-21T10:17:46.000Z</time>
      </trkpt>
      <trkpt lat="45.08854" lon="4.83042">
        <ele>121</ele>
        <time>2024-05-21T10:17:47.000Z</time>
      </trkpt>
      <trkpt lat="45.08847" lon="4.83043">
        <ele>121</ele>
        <time>2024-05-21T10:17:48.000Z</time>
      </trkpt>
      <trkpt lat="45.08843" lon="4.83044">
        <ele>121</ele>
        <time>2024-05-21T10:17:49.000Z</time>
      </trkpt>
      <trkpt lat="45.08836" lon="4.83045">
        <ele>121</ele>
        <time>2024-05-21T10:17:50.000Z</time>
      </trkpt>
      <trkpt lat="45.08831" lon="4.83045">
        <ele>120.80000305176</ele>
        <time>2024-05-21T10:17:51.000Z</time>
      </trkpt>
      <trkpt lat="45.08825" lon="4.83044">
        <ele>120.80000305176</ele>
        <time>2024-05-21T10:17:52.000Z</time>
      </trkpt>
      <trkpt lat="45.0882" lon="4.83043">
        <ele>120.80000305176</ele>
        <time>2024-05-21T10:17:53.000Z</time>
      </trkpt>
      <trkpt lat="45.08814" lon="4.83043">
        <ele>120.80000305176</ele>
        <time>2024-05-21T10:17:54.000Z</time>
      </trkpt>
      <trkpt lat="45.08809" lon="4.83043">
        <ele>120.80000305176</ele>
        <time>2024-05-21T10:17:55.000Z</time>
      </trkpt>
      <trkpt lat="45.08802" lon="4.83042">
        <ele>120.80000305176</ele>
        <time>2024-05-21T10:17:56.000Z</time>
      </trkpt>
      <trkpt lat="45.08796" lon="4.83042">
        <ele>120.80000305176</ele>
        <time>2024-05-21T10:17:57.000Z</time>
      </trkpt>
      <trkpt lat="45.0879" lon="4.83042">
        <ele>120.80000305176</ele>
        <time>2024-05-21T10:17:58.000Z</time>
      </trkpt>
      <trkpt lat="45.08786" lon="4.83041">
        <ele>120.80000305176</ele>
        <time>2024-05-21T10:17:59.000Z</time>
      </trkpt>
      <trkpt lat="45.08781" lon="4.83041">
        <ele>120.59999847412</ele>
        <time>2024-05-21T10:18:00.000Z</time>
      </trkpt>
      <trkpt lat="45.08775" lon="4.8304">
        <ele>120.40000152588</ele>
        <time>2024-05-21T10:18:01.000Z</time>
      </trkpt>
      <trkpt lat="45.0877" lon="4.83039">
        <ele>120.40000152588</ele>
        <time>2024-05-21T10:18:02.000Z</time>
      </trkpt>
      <trkpt lat="45.08764" lon="4.83038">
        <ele>120.40000152588</ele>
        <time>2024-05-21T10:18:03.000Z</time>
      </trkpt>
      <trkpt lat="45.08759" lon="4.83038">
        <ele>120.40000152588</ele>
        <time>2024-05-21T10:18:04.000Z</time>
      </trkpt>
      <trkpt lat="45.08752" lon="4.83037">
        <ele>120.40000152588</ele>
        <time>2024-05-21T10:18:05.000Z</time>
      </trkpt>
      <trkpt lat="45.08746" lon="4.83036">
        <ele>120.59999847412</ele>
        <time>2024-05-21T10:18:06.000Z</time>
      </trkpt>
      <trkpt lat="45.08741" lon="4.83036">
        <ele>120.59999847412</ele>
        <time>2024-05-21T10:18:07.000Z</time>
      </trkpt>
      <trkpt lat="45.08735" lon="4.83034">
        <ele>120.59999847412</ele>
        <time>2024-05-21T10:18:08.000Z</time>
      </trkpt>
      <trkpt lat="45.0873" lon="4.83033">
        <ele>120.80000305176</ele>
        <time>2024-05-21T10:18:09.000Z</time>
      </trkpt>
      <trkpt lat="45.08725" lon="4.83032">
        <ele>120.80000305176</ele>
        <time>2024-05-21T10:18:10.000Z</time>
      </trkpt>
      <trkpt lat="45.08719" lon="4.83031">
        <ele>120.80000305176</ele>
        <time>2024-05-21T10:18:11.000Z</time>
      </trkpt>
      <trkpt lat="45.08714" lon="4.83029">
        <ele>120.80000305176</ele>
        <time>2024-05-21T10:18:12.000Z</time>
      </trkpt>
      <trkpt lat="45.08709" lon="4.83028">
        <ele>120.80000305176</ele>
        <time>2024-05-21T10:18:13.000Z</time>
      </trkpt>
      <trkpt lat="45.08703" lon="4.83027">
        <ele>120.80000305176</ele>
        <time>2024-05-21T10:18:14.000Z</time>
      </trkpt>
      <trkpt lat="45.08699" lon="4.83026">
        <ele>120.80000305176</ele>
        <time>2024-05-21T10:18:15.000Z</time>
      </trkpt>
      <trkpt lat="45.08694" lon="4.83024">
        <ele>120.80000305176</ele>
        <time>2024-05-21T10:18:16.000Z</time>
      </trkpt>
      <trkpt lat="45.08688" lon="4.83022">
        <ele>120.80000305176</ele>
        <time>2024-05-21T10:18:17.000Z</time>
      </trkpt>
      <trkpt lat="45.08683" lon="4.8302">
        <ele>121</ele>
        <time>2024-05-21T10:18:18.000Z</time>
      </trkpt>
      <trkpt lat="45.08677" lon="4.83017">
        <ele>121</ele>
        <time>2024-05-21T10:18:19.000Z</time>
      </trkpt>
      <trkpt lat="45.08672" lon="4.83015">
        <ele>121</ele>
        <time>2024-05-21T10:18:20.000Z</time>
      </trkpt>
      <trkpt lat="45.08667" lon="4.83013">
        <ele>121</ele>
        <time>2024-05-21T10:18:21.000Z</time>
      </trkpt>
      <trkpt lat="45.08663" lon="4.83012">
        <ele>121</ele>
        <time>2024-05-21T10:18:22.000Z</time>
      </trkpt>
      <trkpt lat="45.08658" lon="4.8301">
        <ele>121</ele>
        <time>2024-05-21T10:18:23.000Z</time>
      </trkpt>
      <trkpt lat="45.08652" lon="4.83009">
        <ele>121</ele>
        <time>2024-05-21T10:18:24.000Z</time>
      </trkpt>
      <trkpt lat="45.08647" lon="4.83006">
        <ele>121</ele>
        <time>2024-05-21T10:18:25.000Z</time>
      </trkpt>
      <trkpt lat="45.08642" lon="4.83005">
        <ele>121</ele>
        <time>2024-05-21T10:18:26.000Z</time>
      </trkpt>
      <trkpt lat="45.08636" lon="4.83002">
        <ele>121</ele>
        <time>2024-05-21T10:18:27.000Z</time>
      </trkpt>
      <trkpt lat="45.08631" lon="4.83">
        <ele>121</ele>
        <time>2024-05-21T10:18:28.000Z</time>
      </trkpt>
      <trkpt lat="45.08626" lon="4.82998">
        <ele>121</ele>
        <time>2024-05-21T10:18:29.000Z</time>
      </trkpt>
      <trkpt lat="45.08621" lon="4.82997">
        <ele>121</ele>
        <time>2024-05-21T10:18:30.000Z</time>
      </trkpt>
      <trkpt lat="45.08616" lon="4.82995">
        <ele>121</ele>
        <time>2024-05-21T10:18:31.000Z</time>
      </trkpt>
      <trkpt lat="45.08611" lon="4.82993">
        <ele>121.19999694824</ele>
        <time>2024-05-21T10:18:32.000Z</time>
      </trkpt>
      <trkpt lat="45.08606" lon="4.82991">
        <ele>121.19999694824</ele>
        <time>2024-05-21T10:18:33.000Z</time>
      </trkpt>
      <trkpt lat="45.086" lon="4.82989">
        <ele>121.19999694824</ele>
        <time>2024-05-21T10:18:34.000Z</time>
      </trkpt>
      <trkpt lat="45.08596" lon="4.82987">
        <ele>121.19999694824</ele>
        <time>2024-05-21T10:18:35.000Z</time>
      </trkpt>
      <trkpt lat="45.0859" lon="4.82985">
        <ele>121.19999694824</ele>
        <time>2024-05-21T10:18:36.000Z</time>
      </trkpt>
      <trkpt lat="45.08585" lon="4.82983">
        <ele>121</ele>
        <time>2024-05-21T10:18:37.000Z</time>
      </trkpt>
      <trkpt lat="45.0858" lon="4.8298">
        <ele>120.80000305176</ele>
        <time>2024-05-21T10:18:38.000Z</time>
      </trkpt>
      <trkpt lat="45.08574" lon="4.82978">
        <ele>120.80000305176</ele>
        <time>2024-05-21T10:18:39.000Z</time>
      </trkpt>
      <trkpt lat="45.0857" lon="4.82975">
        <ele>120.59999847412</ele>
        <time>2024-05-21T10:18:40.000Z</time>
      </trkpt>
      <trkpt lat="45.08565" lon="4.82972">
        <ele>120.59999847412</ele>
        <time>2024-05-21T10:18:41.000Z</time>
      </trkpt>
      <trkpt lat="45.0856" lon="4.82968">
        <ele>120.40000152588</ele>
        <time>2024-05-21T10:18:42.000Z</time>
      </trkpt>
      <trkpt lat="45.08554" lon="4.82965">
        <ele>120.19999694824</ele>
        <time>2024-05-21T10:18:43.000Z</time>
      </trkpt>
      <trkpt lat="45.08549" lon="4.82962">
        <ele>120</ele>
        <time>2024-05-21T10:18:44.000Z</time>
      </trkpt>
      <trkpt lat="45.08544" lon="4.82959">
        <ele>119.80000305176</ele>
        <time>2024-05-21T10:18:45.000Z</time>
      </trkpt>
      <trkpt lat="45.08539" lon="4.82957">
        <ele>119.59999847412</ele>
        <time>2024-05-21T10:18:46.000Z</time>
      </trkpt>
      <trkpt lat="45.08533" lon="4.82954">
        <ele>119.40000152588</ele>
        <time>2024-05-21T10:18:47.000Z</time>
      </trkpt>
      <trkpt lat="45.08528" lon="4.82951">
        <ele>119.40000152588</ele>
        <time>2024-05-21T10:18:48.000Z</time>
      </trkpt>
      <trkpt lat="45.08524" lon="4.82948">
        <ele>119.40000152588</ele>
        <time>2024-05-21T10:18:49.000Z</time>
      </trkpt>
      <trkpt lat="45.08518" lon="4.82943">
        <ele>119.40000152588</ele>
        <time>2024-05-21T10:18:50.000Z</time>
      </trkpt>
      <trkpt lat="45.08513" lon="4.82939">
        <ele>119.40000152588</ele>
        <time>2024-05-21T10:18:51.000Z</time>
      </trkpt>
      <trkpt lat="45.0851" lon="4.82936">
        <ele>119.40000152588</ele>
        <time>2024-05-21T10:18:52.000Z</time>
      </trkpt>
      <trkpt lat="45.08505" lon="4.82932">
        <ele>119.40000152588</ele>
        <time>2024-05-21T10:18:53.000Z</time>
      </trkpt>
      <trkpt lat="45.085" lon="4.82927">
        <ele>119.40000152588</ele>
        <time>2024-05-21T10:18:54.000Z</time>
      </trkpt>
      <trkpt lat="45.08496" lon="4.82924">
        <ele>119.40000152588</ele>
        <time>2024-05-21T10:18:55.000Z</time>
      </trkpt>
      <trkpt lat="45.08491" lon="4.82919">
        <ele>119.40000152588</ele>
        <time>2024-05-21T10:18:56.000Z</time>
      </trkpt>
      <trkpt lat="45.08487" lon="4.82915">
        <ele>119.19999694824</ele>
        <time>2024-05-21T10:18:57.000Z</time>
      </trkpt>
      <trkpt lat="45.08482" lon="4.82911">
        <ele>119.19999694824</ele>
        <time>2024-05-21T10:18:58.000Z</time>
      </trkpt>
      <trkpt lat="45.08478" lon="4.82907">
        <ele>119.19999694824</ele>
        <time>2024-05-21T10:18:59.000Z</time>
      </trkpt>
      <trkpt lat="45.08474" lon="4.82904">
        <ele>119.19999694824</ele>
        <time>2024-05-21T10:19:00.000Z</time>
      </trkpt>
      <trkpt lat="45.08469" lon="4.829">
        <ele>119.40000152588</ele>
        <time>2024-05-21T10:19:01.000Z</time>
      </trkpt>
      <trkpt lat="45.08465" lon="4.82897">
        <ele>119.80000305176</ele>
        <time>2024-05-21T10:19:02.000Z</time>
      </trkpt>
      <trkpt lat="45.0846" lon="4.82893">
        <ele>119.80000305176</ele>
        <time>2024-05-21T10:19:03.000Z</time>
      </trkpt>
      <trkpt lat="45.08456" lon="4.8289">
        <ele>119.80000305176</ele>
        <time>2024-05-21T10:19:04.000Z</time>
      </trkpt>
      <trkpt lat="45.08452" lon="4.82886">
        <ele>120</ele>
        <time>2024-05-21T10:19:05.000Z</time>
      </trkpt>
      <trkpt lat="45.08448" lon="4.82882">
        <ele>120</ele>
        <time>2024-05-21T10:19:06.000Z</time>
      </trkpt>
      <trkpt lat="45.08446" lon="4.82877">
        <ele>120</ele>
        <time>2024-05-21T10:19:07.000Z</time>
      </trkpt>
      <trkpt lat="45.08445" lon="4.82872">
        <ele>120.19999694824</ele>
        <time>2024-05-21T10:19:08.000Z</time>
      </trkpt>
      <trkpt lat="45.08445" lon="4.82867">
        <ele>120.59999847412</ele>
        <time>2024-05-21T10:19:09.000Z</time>
      </trkpt>
      <trkpt lat="45.08446" lon="4.82863">
        <ele>120.80000305176</ele>
        <time>2024-05-21T10:19:10.000Z</time>
      </trkpt>
      <trkpt lat="45.08447" lon="4.82861">
        <ele>120.80000305176</ele>
        <time>2024-05-21T10:19:11.000Z</time>
      </trkpt>
      <trkpt lat="45.08449" lon="4.82857">
        <ele>121</ele>
        <time>2024-05-21T10:19:12.000Z</time>
      </trkpt>
      <trkpt lat="45.0845" lon="4.82855">
        <ele>121.19999694824</ele>
        <time>2024-05-21T10:19:13.000Z</time>
      </trkpt>
      <trkpt lat="45.08452" lon="4.82852">
        <ele>121.40000152588</ele>
        <time>2024-05-21T10:19:14.000Z</time>
      </trkpt>
      <trkpt lat="45.08454" lon="4.82849">
        <ele>121.59999847412</ele>
        <time>2024-05-21T10:19:15.000Z</time>
      </trkpt>
      <trkpt lat="45.08455" lon="4.82846">
        <ele>121.80000305176</ele>
        <time>2024-05-21T10:19:16.000Z</time>
      </trkpt>
      <trkpt lat="45.08456" lon="4.82844">
        <ele>121.80000305176</ele>
        <time>2024-05-21T10:19:17.000Z</time>
      </trkpt>
      <trkpt lat="45.08457" lon="4.82841">
        <ele>122</ele>
        <time>2024-05-21T10:19:18.000Z</time>
      </trkpt>
      <trkpt lat="45.08458" lon="4.82837">
        <ele>122</ele>
        <time>2024-05-21T10:19:19.000Z</time>
      </trkpt>
      <trkpt lat="45.08459" lon="4.82833">
        <ele>122</ele>
        <time>2024-05-21T10:19:20.000Z</time>
      </trkpt>
      <trkpt lat="45.0846" lon="4.82828">
        <ele>122</ele>
        <time>2024-05-21T10:19:21.000Z</time>
      </trkpt>
      <trkpt lat="45.08461" lon="4.82823">
        <ele>122</ele>
        <time>2024-05-21T10:19:22.000Z</time>
      </trkpt>
      <trkpt lat="45.08461" lon="4.82818">
        <ele>122</ele>
        <time>2024-05-21T10:19:23.000Z</time>
      </trkpt>
      <trkpt lat="45.08461" lon="4.82812">
        <ele>122</ele>
        <time>2024-05-21T10:19:24.000Z</time>
      </trkpt>
      <trkpt lat="45.08461" lon="4.82805">
        <ele>121.80000305176</ele>
        <time>2024-05-21T10:19:25.000Z</time>
      </trkpt>
      <trkpt lat="45.08461" lon="4.82799">
        <ele>121.80000305176</ele>
        <time>2024-05-21T10:19:26.000Z</time>
      </trkpt>
      <trkpt lat="45.08462" lon="4.82793">
        <ele>121.80000305176</ele>
        <time>2024-05-21T10:19:27.000Z</time>
      </trkpt>
      <trkpt lat="45.08462" lon="4.82787">
        <ele>121.80000305176</ele>
        <time>2024-05-21T10:19:28.000Z</time>
      </trkpt>
      <trkpt lat="45.08462" lon="4.82781">
        <ele>121.59999847412</ele>
        <time>2024-05-21T10:19:29.000Z</time>
      </trkpt>
      <trkpt lat="45.08463" lon="4.82772">
        <ele>121.59999847412</ele>
        <time>2024-05-21T10:19:30.000Z</time>
      </trkpt>
      <trkpt lat="45.08463" lon="4.82767">
        <ele>121.59999847412</ele>
        <time>2024-05-21T10:19:31.000Z</time>
      </trkpt>
      <trkpt lat="45.08463" lon="4.8276">
        <ele>121.59999847412</ele>
        <time>2024-05-21T10:19:32.000Z</time>
      </trkpt>
      <trkpt lat="45.08463" lon="4.82752">
        <ele>121.59999847412</ele>
        <time>2024-05-21T10:19:33.000Z</time>
      </trkpt>
      <trkpt lat="45.08463" lon="4.82744">
        <ele>121.59999847412</ele>
        <time>2024-05-21T10:19:34.000Z</time>
      </trkpt>
      <trkpt lat="45.08463" lon="4.82737">
        <ele>121.59999847412</ele>
        <time>2024-05-21T10:19:35.000Z</time>
      </trkpt>
      <trkpt lat="45.08463" lon="4.82729">
        <ele>121.40000152588</ele>
        <time>2024-05-21T10:19:36.000Z</time>
      </trkpt>
      <trkpt lat="45.08464" lon="4.82722">
        <ele>121.40000152588</ele>
        <time>2024-05-21T10:19:37.000Z</time>
      </trkpt>
      <trkpt lat="45.08464" lon="4.82717">
        <ele>121.40000152588</ele>
        <time>2024-05-21T10:19:38.000Z</time>
      </trkpt>
      <trkpt lat="45.08464" lon="4.8271">
        <ele>121.40000152588</ele>
        <time>2024-05-21T10:19:39.000Z</time>
      </trkpt>
      <trkpt lat="45.08465" lon="4.82701">
        <ele>121.40000152588</ele>
        <time>2024-05-21T10:19:40.000Z</time>
      </trkpt>
      <trkpt lat="45.08465" lon="4.82696">
        <ele>121.40000152588</ele>
        <time>2024-05-21T10:19:41.000Z</time>
      </trkpt>
      <trkpt lat="45.08465" lon="4.82688">
        <ele>121.40000152588</ele>
        <time>2024-05-21T10:19:42.000Z</time>
      </trkpt>
      <trkpt lat="45.08465" lon="4.82681">
        <ele>121.40000152588</ele>
        <time>2024-05-21T10:19:43.000Z</time>
      </trkpt>
      <trkpt lat="45.08464" lon="4.82674">
        <ele>121.59999847412</ele>
        <time>2024-05-21T10:19:44.000Z</time>
      </trkpt>
      <trkpt lat="45.08465" lon="4.82666">
        <ele>121.59999847412</ele>
        <time>2024-05-21T10:19:45.000Z</time>
      </trkpt>
      <trkpt lat="45.08465" lon="4.82657">
        <ele>121.59999847412</ele>
        <time>2024-05-21T10:19:46.000Z</time>
      </trkpt>
      <trkpt lat="45.08466" lon="4.82651">
        <ele>121.59999847412</ele>
        <time>2024-05-21T10:19:47.000Z</time>
      </trkpt>
      <trkpt lat="45.08466" lon="4.82642">
        <ele>121.59999847412</ele>
        <time>2024-05-21T10:19:48.000Z</time>
      </trkpt>
      <trkpt lat="45.08466" lon="4.82635">
        <ele>121.40000152588</ele>
        <time>2024-05-21T10:19:49.000Z</time>
      </trkpt>
      <trkpt lat="45.08466" lon="4.82627">
        <ele>121.19999694824</ele>
        <time>2024-05-21T10:19:50.000Z</time>
      </trkpt>
      <trkpt lat="45.08466" lon="4.82619">
        <ele>121.19999694824</ele>
        <time>2024-05-21T10:19:51.000Z</time>
      </trkpt>
      <trkpt lat="45.08466" lon="4.8261">
        <ele>121.19999694824</ele>
        <time>2024-05-21T10:19:52.000Z</time>
      </trkpt>
      <trkpt lat="45.08467" lon="4.82602">
        <ele>121</ele>
        <time>2024-05-21T10:19:53.000Z</time>
      </trkpt>
      <trkpt lat="45.08467" lon="4.82596">
        <ele>121</ele>
        <time>2024-05-21T10:19:54.000Z</time>
      </trkpt>
      <trkpt lat="45.08467" lon="4.82588">
        <ele>121</ele>
        <time>2024-05-21T10:19:55.000Z</time>
      </trkpt>
      <trkpt lat="45.08468" lon="4.82579">
        <ele>121</ele>
        <time>2024-05-21T10:19:56.000Z</time>
      </trkpt>
      <trkpt lat="45.08468" lon="4.82572">
        <ele>121</ele>
        <time>2024-05-21T10:19:57.000Z</time>
      </trkpt>
      <trkpt lat="45.08468" lon="4.82564">
        <ele>121</ele>
        <time>2024-05-21T10:19:58.000Z</time>
      </trkpt>
      <trkpt lat="45.08468" lon="4.82556">
        <ele>121</ele>
        <time>2024-05-21T10:19:59.000Z</time>
      </trkpt>
      <trkpt lat="45.08469" lon="4.82548">
        <ele>120.80000305176</ele>
        <time>2024-05-21T10:20:00.000Z</time>
      </trkpt>
      <trkpt lat="45.08469" lon="4.82539">
        <ele>120.80000305176</ele>
        <time>2024-05-21T10:20:01.000Z</time>
      </trkpt>
      <trkpt lat="45.08469" lon="4.82533">
        <ele>120.80000305176</ele>
        <time>2024-05-21T10:20:02.000Z</time>
      </trkpt>
      <trkpt lat="45.08469" lon="4.82525">
        <ele>120.80000305176</ele>
        <time>2024-05-21T10:20:03.000Z</time>
      </trkpt>
      <trkpt lat="45.08469" lon="4.82515">
        <ele>120.80000305176</ele>
        <time>2024-05-21T10:20:04.000Z</time>
      </trkpt>
      <trkpt lat="45.08469" lon="4.82507">
        <ele>121</ele>
        <time>2024-05-21T10:20:05.000Z</time>
      </trkpt>
      <trkpt lat="45.08469" lon="4.82499">
        <ele>121</ele>
        <time>2024-05-21T10:20:06.000Z</time>
      </trkpt>
      <trkpt lat="45.08469" lon="4.82492">
        <ele>121</ele>
        <time>2024-05-21T10:20:07.000Z</time>
      </trkpt>
      <trkpt lat="45.08469" lon="4.82484">
        <ele>121</ele>
        <time>2024-05-21T10:20:08.000Z</time>
      </trkpt>
      <trkpt lat="45.08469" lon="4.82476">
        <ele>121</ele>
        <time>2024-05-21T10:20:09.000Z</time>
      </trkpt>
      <trkpt lat="45.08469" lon="4.82468">
        <ele>121</ele>
        <time>2024-05-21T10:20:10.000Z</time>
      </trkpt>
      <trkpt lat="45.0847" lon="4.8246">
        <ele>121</ele>
        <time>2024-05-21T10:20:11.000Z</time>
      </trkpt>
      <trkpt lat="45.0847" lon="4.82452">
        <ele>121</ele>
        <time>2024-05-21T10:20:12.000Z</time>
      </trkpt>
      <trkpt lat="45.0847" lon="4.82444">
        <ele>121</ele>
        <time>2024-05-21T10:20:13.000Z</time>
      </trkpt>
      <trkpt lat="45.0847" lon="4.82436">
        <ele>121.19999694824</ele>
        <time>2024-05-21T10:20:14.000Z</time>
      </trkpt>
      <trkpt lat="45.0847" lon="4.82429">
        <ele>121.19999694824</ele>
        <time>2024-05-21T10:20:15.000Z</time>
      </trkpt>
      <trkpt lat="45.08471" lon="4.82422">
        <ele>121.19999694824</ele>
        <time>2024-05-21T10:20:16.000Z</time>
      </trkpt>
      <trkpt lat="45.08471" lon="4.82415">
        <ele>121.19999694824</ele>
        <time>2024-05-21T10:20:17.000Z</time>
      </trkpt>
      <trkpt lat="45.08472" lon="4.82408">
        <ele>121.19999694824</ele>
        <time>2024-05-21T10:20:18.000Z</time>
      </trkpt>
      <trkpt lat="45.08471" lon="4.82402">
        <ele>121.19999694824</ele>
        <time>2024-05-21T10:20:19.000Z</time>
      </trkpt>
      <trkpt lat="45.08468" lon="4.82398">
        <ele>121.19999694824</ele>
        <time>2024-05-21T10:20:20.000Z</time>
      </trkpt>
      <trkpt lat="45.08465" lon="4.82396">
        <ele>121.19999694824</ele>
        <time>2024-05-21T10:20:21.000Z</time>
      </trkpt>
      <trkpt lat="45.08461" lon="4.82395">
        <ele>121.40000152588</ele>
        <time>2024-05-21T10:20:22.000Z</time>
      </trkpt>
      <trkpt lat="45.08457" lon="4.82393">
        <ele>121.40000152588</ele>
        <time>2024-05-21T10:20:23.000Z</time>
      </trkpt>
      <trkpt lat="45.08453" lon="4.82392">
        <ele>121.40000152588</ele>
        <time>2024-05-21T10:20:24.000Z</time>
      </trkpt>
      <trkpt lat="45.08448" lon="4.82391">
        <ele>121.40000152588</ele>
        <time>2024-05-21T10:20:25.000Z</time>
      </trkpt>
      <trkpt lat="45.08444" lon="4.8239">
        <ele>121.40000152588</ele>
        <time>2024-05-21T10:20:26.000Z</time>
      </trkpt>
      <trkpt lat="45.08439" lon="4.82388">
        <ele>121.19999694824</ele>
        <time>2024-05-21T10:20:27.000Z</time>
      </trkpt>
      <trkpt lat="45.08434" lon="4.82387">
        <ele>121</ele>
        <time>2024-05-21T10:20:28.000Z</time>
      </trkpt>
      <trkpt lat="45.0843" lon="4.82385">
        <ele>121</ele>
        <time>2024-05-21T10:20:29.000Z</time>
      </trkpt>
      <trkpt lat="45.08425" lon="4.82384">
        <ele>121</ele>
        <time>2024-05-21T10:20:30.000Z</time>
      </trkpt>
      <trkpt lat="45.0842" lon="4.82383">
        <ele>121</ele>
        <time>2024-05-21T10:20:31.000Z</time>
      </trkpt>
      <trkpt lat="45.08415" lon="4.82381">
        <ele>121</ele>
        <time>2024-05-21T10:20:32.000Z</time>
      </trkpt>
      <trkpt lat="45.08411" lon="4.8238">
        <ele>121.19999694824</ele>
        <time>2024-05-21T10:20:33.000Z</time>
      </trkpt>
      <trkpt lat="45.08406" lon="4.82379">
        <ele>121.19999694824</ele>
        <time>2024-05-21T10:20:34.000Z</time>
      </trkpt>
      <trkpt lat="45.08401" lon="4.82377">
        <ele>121.19999694824</ele>
        <time>2024-05-21T10:20:35.000Z</time>
      </trkpt>
      <trkpt lat="45.08396" lon="4.82376">
        <ele>121.40000152588</ele>
        <time>2024-05-21T10:20:36.000Z</time>
      </trkpt>
      <trkpt lat="45.08391" lon="4.82374">
        <ele>121.40000152588</ele>
        <time>2024-05-21T10:20:37.000Z</time>
      </trkpt>
      <trkpt lat="45.08386" lon="4.82372">
        <ele>121.40000152588</ele>
        <time>2024-05-21T10:20:38.000Z</time>
      </trkpt>
      <trkpt lat="45.08381" lon="4.82371">
        <ele>121.40000152588</ele>
        <time>2024-05-21T10:20:39.000Z</time>
      </trkpt>
      <trkpt lat="45.08376" lon="4.82369">
        <ele>121.40000152588</ele>
        <time>2024-05-21T10:20:40.000Z</time>
      </trkpt>
      <trkpt lat="45.08371" lon="4.82368">
        <ele>121.40000152588</ele>
        <time>2024-05-21T10:20:41.000Z</time>
      </trkpt>
      <trkpt lat="45.08366" lon="4.82367">
        <ele>121.40000152588</ele>
        <time>2024-05-21T10:20:42.000Z</time>
      </trkpt>
      <trkpt lat="45.08361" lon="4.82366">
        <ele>121.40000152588</ele>
        <time>2024-05-21T10:20:43.000Z</time>
      </trkpt>
      <trkpt lat="45.08356" lon="4.82364">
        <ele>121.40000152588</ele>
        <time>2024-05-21T10:20:44.000Z</time>
      </trkpt>
      <trkpt lat="45.08351" lon="4.82363">
        <ele>121.40000152588</ele>
        <time>2024-05-21T10:20:45.000Z</time>
      </trkpt>
      <trkpt lat="45.08346" lon="4.82362">
        <ele>121.59999847412</ele>
        <time>2024-05-21T10:20:46.000Z</time>
      </trkpt>
      <trkpt lat="45.08341" lon="4.82361">
        <ele>121.59999847412</ele>
        <time>2024-05-21T10:20:47.000Z</time>
      </trkpt>
      <trkpt lat="45.08336" lon="4.8236">
        <ele>121.59999847412</ele>
        <time>2024-05-21T10:20:48.000Z</time>
      </trkpt>
      <trkpt lat="45.08331" lon="4.82359">
        <ele>121.59999847412</ele>
        <time>2024-05-21T10:20:49.000Z</time>
      </trkpt>
      <trkpt lat="45.08325" lon="4.82357">
        <ele>121.59999847412</ele>
        <time>2024-05-21T10:20:50.000Z</time>
      </trkpt>
      <trkpt lat="45.0832" lon="4.82356">
        <ele>121.59999847412</ele>
        <time>2024-05-21T10:20:51.000Z</time>
      </trkpt>
      <trkpt lat="45.08315" lon="4.82355">
        <ele>121.59999847412</ele>
        <time>2024-05-21T10:20:52.000Z</time>
      </trkpt>
      <trkpt lat="45.0831" lon="4.82353">
        <ele>121.59999847412</ele>
        <time>2024-05-21T10:20:53.000Z</time>
      </trkpt>
      <trkpt lat="45.08305" lon="4.82352">
        <ele>121.59999847412</ele>
        <time>2024-05-21T10:20:54.000Z</time>
      </trkpt>
      <trkpt lat="45.083" lon="4.82351">
        <ele>121.59999847412</ele>
        <time>2024-05-21T10:20:55.000Z</time>
      </trkpt>
      <trkpt lat="45.08295" lon="4.8235">
        <ele>121.59999847412</ele>
        <time>2024-05-21T10:20:56.000Z</time>
      </trkpt>
      <trkpt lat="45.0829" lon="4.82348">
        <ele>121.59999847412</ele>
        <time>2024-05-21T10:20:57.000Z</time>
      </trkpt>
      <trkpt lat="45.08285" lon="4.82347">
        <ele>121.59999847412</ele>
        <time>2024-05-21T10:20:58.000Z</time>
      </trkpt>
      <trkpt lat="45.0828" lon="4.82346">
        <ele>121.59999847412</ele>
        <time>2024-05-21T10:20:59.000Z</time>
      </trkpt>
      <trkpt lat="45.08275" lon="4.82345">
        <ele>121.40000152588</ele>
        <time>2024-05-21T10:21:00.000Z</time>
      </trkpt>
      <trkpt lat="45.0827" lon="4.82344">
        <ele>121.40000152588</ele>
        <time>2024-05-21T10:21:01.000Z</time>
      </trkpt>
      <trkpt lat="45.08265" lon="4.82343">
        <ele>121.40000152588</ele>
        <time>2024-05-21T10:21:02.000Z</time>
      </trkpt>
      <trkpt lat="45.08259" lon="4.82342">
        <ele>121.40000152588</ele>
        <time>2024-05-21T10:21:03.000Z</time>
      </trkpt>
      <trkpt lat="45.08254" lon="4.8234">
        <ele>121.40000152588</ele>
        <time>2024-05-21T10:21:04.000Z</time>
      </trkpt>
      <trkpt lat="45.08249" lon="4.82339">
        <ele>121.40000152588</ele>
        <time>2024-05-21T10:21:05.000Z</time>
      </trkpt>
      <trkpt lat="45.08244" lon="4.82338">
        <ele>121.59999847412</ele>
        <time>2024-05-21T10:21:06.000Z</time>
      </trkpt>
      <trkpt lat="45.08238" lon="4.82337">
        <ele>121.59999847412</ele>
        <time>2024-05-21T10:21:07.000Z</time>
      </trkpt>
      <trkpt lat="45.08233" lon="4.82335">
        <ele>121.59999847412</ele>
        <time>2024-05-21T10:21:08.000Z</time>
      </trkpt>
      <trkpt lat="45.08228" lon="4.82334">
        <ele>121.59999847412</ele>
        <time>2024-05-21T10:21:09.000Z</time>
      </trkpt>
      <trkpt lat="45.08222" lon="4.82333">
        <ele>121.59999847412</ele>
        <time>2024-05-21T10:21:10.000Z</time>
      </trkpt>
      <trkpt lat="45.08217" lon="4.82331">
        <ele>121.59999847412</ele>
        <time>2024-05-21T10:21:11.000Z</time>
      </trkpt>
      <trkpt lat="45.08211" lon="4.82329">
        <ele>121.59999847412</ele>
        <time>2024-05-21T10:21:12.000Z</time>
      </trkpt>
      <trkpt lat="45.08206" lon="4.82328">
        <ele>121.59999847412</ele>
        <time>2024-05-21T10:21:13.000Z</time>
      </trkpt>
      <trkpt lat="45.082" lon="4.82326">
        <ele>121.59999847412</ele>
        <time>2024-05-21T10:21:14.000Z</time>
      </trkpt>
      <trkpt lat="45.08195" lon="4.82325">
        <ele>121.59999847412</ele>
        <time>2024-05-21T10:21:15.000Z</time>
      </trkpt>
      <trkpt lat="45.08189" lon="4.82324">
        <ele>121.59999847412</ele>
        <time>2024-05-21T10:21:16.000Z</time>
      </trkpt>
      <trkpt lat="45.08184" lon="4.82322">
        <ele>121.59999847412</ele>
        <time>2024-05-21T10:21:17.000Z</time>
      </trkpt>
      <trkpt lat="45.08179" lon="4.82322">
        <ele>121.59999847412</ele>
        <time>2024-05-21T10:21:18.000Z</time>
      </trkpt>
      <trkpt lat="45.08173" lon="4.8232">
        <ele>121.59999847412</ele>
        <time>2024-05-21T10:21:19.000Z</time>
      </trkpt>
      <trkpt lat="45.08167" lon="4.82319">
        <ele>121.59999847412</ele>
        <time>2024-05-21T10:21:20.000Z</time>
      </trkpt>
      <trkpt lat="45.08162" lon="4.82317">
        <ele>121.40000152588</ele>
        <time>2024-05-21T10:21:21.000Z</time>
      </trkpt>
      <trkpt lat="45.08156" lon="4.82316">
        <ele>121.40000152588</ele>
        <time>2024-05-21T10:21:22.000Z</time>
      </trkpt>
      <trkpt lat="45.08151" lon="4.82314">
        <ele>121.40000152588</ele>
        <time>2024-05-21T10:21:23.000Z</time>
      </trkpt>
      <trkpt lat="45.08145" lon="4.82312">
        <ele>121.59999847412</ele>
        <time>2024-05-21T10:21:24.000Z</time>
      </trkpt>
      <trkpt lat="45.0814" lon="4.8231">
        <ele>121.59999847412</ele>
        <time>2024-05-21T10:21:25.000Z</time>
      </trkpt>
      <trkpt lat="45.08135" lon="4.82308">
        <ele>121.59999847412</ele>
        <time>2024-05-21T10:21:26.000Z</time>
      </trkpt>
      <trkpt lat="45.08129" lon="4.82306">
        <ele>121.59999847412</ele>
        <time>2024-05-21T10:21:27.000Z</time>
      </trkpt>
      <trkpt lat="45.08124" lon="4.82304">
        <ele>121.59999847412</ele>
        <time>2024-05-21T10:21:28.000Z</time>
      </trkpt>
      <trkpt lat="45.08118" lon="4.82302">
        <ele>121.80000305176</ele>
        <time>2024-05-21T10:21:29.000Z</time>
      </trkpt>
      <trkpt lat="45.08113" lon="4.823">
        <ele>121.80000305176</ele>
        <time>2024-05-21T10:21:30.000Z</time>
      </trkpt>
      <trkpt lat="45.08108" lon="4.82298">
        <ele>121.80000305176</ele>
        <time>2024-05-21T10:21:31.000Z</time>
      </trkpt>
      <trkpt lat="45.08103" lon="4.82295">
        <ele>121.80000305176</ele>
        <time>2024-05-21T10:21:32.000Z</time>
      </trkpt>
      <trkpt lat="45.08097" lon="4.82293">
        <ele>121.80000305176</ele>
        <time>2024-05-21T10:21:33.000Z</time>
      </trkpt>
      <trkpt lat="45.08092" lon="4.82291">
        <ele>121.80000305176</ele>
        <time>2024-05-21T10:21:34.000Z</time>
      </trkpt>
      <trkpt lat="45.08088" lon="4.82289">
        <ele>122</ele>
        <time>2024-05-21T10:21:35.000Z</time>
      </trkpt>
      <trkpt lat="45.08083" lon="4.82286">
        <ele>122.19999694824</ele>
        <time>2024-05-21T10:21:36.000Z</time>
      </trkpt>
      <trkpt lat="45.08078" lon="4.82284">
        <ele>122.19999694824</ele>
        <time>2024-05-21T10:21:37.000Z</time>
      </trkpt>
      <trkpt lat="45.08074" lon="4.82283">
        <ele>122.40000152588</ele>
        <time>2024-05-21T10:21:38.000Z</time>
      </trkpt>
      <trkpt lat="45.0807" lon="4.82281">
        <ele>122.40000152588</ele>
        <time>2024-05-21T10:21:39.000Z</time>
      </trkpt>
      <trkpt lat="45.08066" lon="4.82279">
        <ele>122.40000152588</ele>
        <time>2024-05-21T10:21:40.000Z</time>
      </trkpt>
      <trkpt lat="45.08061" lon="4.82277">
        <ele>122.40000152588</ele>
        <time>2024-05-21T10:21:41.000Z</time>
      </trkpt>
      <trkpt lat="45.08057" lon="4.82275">
        <ele>122.40000152588</ele>
        <time>2024-05-21T10:21:42.000Z</time>
      </trkpt>
      <trkpt lat="45.08051" lon="4.82273">
        <ele>122.40000152588</ele>
        <time>2024-05-21T10:21:43.000Z</time>
      </trkpt>
      <trkpt lat="45.08046" lon="4.82271">
        <ele>122.40000152588</ele>
        <time>2024-05-21T10:21:44.000Z</time>
      </trkpt>
      <trkpt lat="45.08041" lon="4.82269">
        <ele>122.40000152588</ele>
        <time>2024-05-21T10:21:45.000Z</time>
      </trkpt>
      <trkpt lat="45.08036" lon="4.82266">
        <ele>122</ele>
        <time>2024-05-21T10:21:46.000Z</time>
      </trkpt>
      <trkpt lat="45.0803" lon="4.82264">
        <ele>122</ele>
        <time>2024-05-21T10:21:47.000Z</time>
      </trkpt>
      <trkpt lat="45.08025" lon="4.82262">
        <ele>121.80000305176</ele>
        <time>2024-05-21T10:21:48.000Z</time>
      </trkpt>
      <trkpt lat="45.08019" lon="4.8226">
        <ele>121.80000305176</ele>
        <time>2024-05-21T10:21:49.000Z</time>
      </trkpt>
      <trkpt lat="45.08014" lon="4.82258">
        <ele>121.80000305176</ele>
        <time>2024-05-21T10:21:50.000Z</time>
      </trkpt>
      <trkpt lat="45.08008" lon="4.82256">
        <ele>121.80000305176</ele>
        <time>2024-05-21T10:21:51.000Z</time>
      </trkpt>
      <trkpt lat="45.08003" lon="4.82253">
        <ele>121.80000305176</ele>
        <time>2024-05-21T10:21:52.000Z</time>
      </trkpt>
      <trkpt lat="45.07998" lon="4.82252">
        <ele>121.80000305176</ele>
        <time>2024-05-21T10:21:53.000Z</time>
      </trkpt>
      <trkpt lat="45.07992" lon="4.8225">
        <ele>121.80000305176</ele>
        <time>2024-05-21T10:21:54.000Z</time>
      </trkpt>
      <trkpt lat="45.07987" lon="4.82248">
        <ele>121.59999847412</ele>
        <time>2024-05-21T10:21:55.000Z</time>
      </trkpt>
      <trkpt lat="45.07981" lon="4.82246">
        <ele>121.59999847412</ele>
        <time>2024-05-21T10:21:56.000Z</time>
      </trkpt>
      <trkpt lat="45.07976" lon="4.82244">
        <ele>121.40000152588</ele>
        <time>2024-05-21T10:21:57.000Z</time>
      </trkpt>
      <trkpt lat="45.07971" lon="4.82242">
        <ele>121.40000152588</ele>
        <time>2024-05-21T10:21:58.000Z</time>
      </trkpt>
      <trkpt lat="45.07965" lon="4.8224">
        <ele>121.19999694824</ele>
        <time>2024-05-21T10:21:59.000Z</time>
      </trkpt>
      <trkpt lat="45.0796" lon="4.82239">
        <ele>121.19999694824</ele>
        <time>2024-05-21T10:22:00.000Z</time>
      </trkpt>
      <trkpt lat="45.07955" lon="4.82237">
        <ele>121.19999694824</ele>
        <time>2024-05-21T10:22:01.000Z</time>
      </trkpt>
      <trkpt lat="45.0795" lon="4.82235">
        <ele>121.19999694824</ele>
        <time>2024-05-21T10:22:02.000Z</time>
      </trkpt>
      <trkpt lat="45.07945" lon="4.82233">
        <ele>121.40000152588</ele>
        <time>2024-05-21T10:22:03.000Z</time>
      </trkpt>
      <trkpt lat="45.0794" lon="4.82231">
        <ele>121.59999847412</ele>
        <time>2024-05-21T10:22:04.000Z</time>
      </trkpt>
      <trkpt lat="45.07935" lon="4.82229">
        <ele>121.59999847412</ele>
        <time>2024-05-21T10:22:05.000Z</time>
      </trkpt>
      <trkpt lat="45.0793" lon="4.82227">
        <ele>121.80000305176</ele>
        <time>2024-05-21T10:22:06.000Z</time>
      </trkpt>
      <trkpt lat="45.07926" lon="4.82226">
        <ele>122</ele>
        <time>2024-05-21T10:22:07.000Z</time>
      </trkpt>
      <trkpt lat="45.07921" lon="4.82225">
        <ele>122</ele>
        <time>2024-05-21T10:22:08.000Z</time>
      </trkpt>
      <trkpt lat="45.07916" lon="4.82223">
        <ele>122</ele>
        <time>2024-05-21T10:22:09.000Z</time>
      </trkpt>
      <trkpt lat="45.07911" lon="4.82222">
        <ele>122</ele>
        <time>2024-05-21T10:22:10.000Z</time>
      </trkpt>
      <trkpt lat="45.07905" lon="4.82221">
        <ele>122</ele>
        <time>2024-05-21T10:22:11.000Z</time>
      </trkpt>
      <trkpt lat="45.07899" lon="4.8222">
        <ele>122</ele>
        <time>2024-05-21T10:22:12.000Z</time>
      </trkpt>
      <trkpt lat="45.07894" lon="4.82219">
        <ele>121.80000305176</ele>
        <time>2024-05-21T10:22:13.000Z</time>
      </trkpt>
      <trkpt lat="45.07888" lon="4.82219">
        <ele>121.59999847412</ele>
        <time>2024-05-21T10:22:14.000Z</time>
      </trkpt>
      <trkpt lat="45.07883" lon="4.82219">
        <ele>121.59999847412</ele>
        <time>2024-05-21T10:22:15.000Z</time>
      </trkpt>
      <trkpt lat="45.07878" lon="4.82219">
        <ele>121.19999694824</ele>
        <time>2024-05-21T10:22:16.000Z</time>
      </trkpt>
      <trkpt lat="45.07872" lon="4.82218">
        <ele>121</ele>
        <time>2024-05-21T10:22:17.000Z</time>
      </trkpt>
      <trkpt lat="45.07867" lon="4.82219">
        <ele>121</ele>
        <time>2024-05-21T10:22:18.000Z</time>
      </trkpt>
      <trkpt lat="45.07861" lon="4.82219">
        <ele>121</ele>
        <time>2024-05-21T10:22:19.000Z</time>
      </trkpt>
      <trkpt lat="45.07856" lon="4.82219">
        <ele>120.80000305176</ele>
        <time>2024-05-21T10:22:20.000Z</time>
      </trkpt>
      <trkpt lat="45.0785" lon="4.82219">
        <ele>120.80000305176</ele>
        <time>2024-05-21T10:22:21.000Z</time>
      </trkpt>
      <trkpt lat="45.07845" lon="4.82218">
        <ele>120.80000305176</ele>
        <time>2024-05-21T10:22:22.000Z</time>
      </trkpt>
      <trkpt lat="45.0784" lon="4.82218">
        <ele>120.80000305176</ele>
        <time>2024-05-21T10:22:23.000Z</time>
      </trkpt>
      <trkpt lat="45.07834" lon="4.82218">
        <ele>121</ele>
        <time>2024-05-21T10:22:24.000Z</time>
      </trkpt>
      <trkpt lat="45.07829" lon="4.82218">
        <ele>121</ele>
        <time>2024-05-21T10:22:25.000Z</time>
      </trkpt>
      <trkpt lat="45.07824" lon="4.82218">
        <ele>121.19999694824</ele>
        <time>2024-05-21T10:22:26.000Z</time>
      </trkpt>
      <trkpt lat="45.07818" lon="4.82218">
        <ele>121.40000152588</ele>
        <time>2024-05-21T10:22:27.000Z</time>
      </trkpt>
      <trkpt lat="45.07813" lon="4.82218">
        <ele>121.40000152588</ele>
        <time>2024-05-21T10:22:28.000Z</time>
      </trkpt>
      <trkpt lat="45.07808" lon="4.82218">
        <ele>121.40000152588</ele>
        <time>2024-05-21T10:22:29.000Z</time>
      </trkpt>
      <trkpt lat="45.07803" lon="4.82218">
        <ele>121.40000152588</ele>
        <time>2024-05-21T10:22:30.000Z</time>
      </trkpt>
      <trkpt lat="45.07798" lon="4.82218">
        <ele>121.19999694824</ele>
        <time>2024-05-21T10:22:31.000Z</time>
      </trkpt>
      <trkpt lat="45.07793" lon="4.82218">
        <ele>121.19999694824</ele>
        <time>2024-05-21T10:22:32.000Z</time>
      </trkpt>
      <trkpt lat="45.07788" lon="4.82218">
        <ele>121.19999694824</ele>
        <time>2024-05-21T10:22:33.000Z</time>
      </trkpt>
      <trkpt lat="45.07783" lon="4.82218">
        <ele>121.19999694824</ele>
        <time>2024-05-21T10:22:34.000Z</time>
      </trkpt>
      <trkpt lat="45.07779" lon="4.82219">
        <ele>121.40000152588</ele>
        <time>2024-05-21T10:22:35.000Z</time>
      </trkpt>
      <trkpt lat="45.07774" lon="4.82219">
        <ele>121.40000152588</ele>
        <time>2024-05-21T10:22:36.000Z</time>
      </trkpt>
      <trkpt lat="45.07769" lon="4.82219">
        <ele>121.40000152588</ele>
        <time>2024-05-21T10:22:37.000Z</time>
      </trkpt>
      <trkpt lat="45.07763" lon="4.82219">
        <ele>121.40000152588</ele>
        <time>2024-05-21T10:22:38.000Z</time>
      </trkpt>
      <trkpt lat="45.07758" lon="4.82219">
        <ele>121.40000152588</ele>
        <time>2024-05-21T10:22:39.000Z</time>
      </trkpt>
      <trkpt lat="45.07753" lon="4.82219">
        <ele>121.40000152588</ele>
        <time>2024-05-21T10:22:40.000Z</time>
      </trkpt>
      <trkpt lat="45.07748" lon="4.8222">
        <ele>121.40000152588</ele>
        <time>2024-05-21T10:22:41.000Z</time>
      </trkpt>
      <trkpt lat="45.07742" lon="4.82221">
        <ele>121.40000152588</ele>
        <time>2024-05-21T10:22:42.000Z</time>
      </trkpt>
      <trkpt lat="45.07737" lon="4.82221">
        <ele>121.40000152588</ele>
        <time>2024-05-21T10:22:43.000Z</time>
      </trkpt>
      <trkpt lat="45.07732" lon="4.8222">
        <ele>121.40000152588</ele>
        <time>2024-05-21T10:22:44.000Z</time>
      </trkpt>
      <trkpt lat="45.07728" lon="4.82217">
        <ele>121.40000152588</ele>
        <time>2024-05-21T10:22:45.000Z</time>
      </trkpt>
      <trkpt lat="45.07725" lon="4.82213">
        <ele>121.40000152588</ele>
        <time>2024-05-21T10:22:46.000Z</time>
      </trkpt>
      <trkpt lat="45.07721" lon="4.82208">
        <ele>121.40000152588</ele>
        <time>2024-05-21T10:22:47.000Z</time>
      </trkpt>
      <trkpt lat="45.07716" lon="4.82205">
        <ele>121.19999694824</ele>
        <time>2024-05-21T10:22:48.000Z</time>
      </trkpt>
      <trkpt lat="45.07712" lon="4.82205">
        <ele>121.40000152588</ele>
        <time>2024-05-21T10:22:49.000Z</time>
      </trkpt>
      <trkpt lat="45.07709" lon="4.82208">
        <ele>121.40000152588</ele>
        <time>2024-05-21T10:22:50.000Z</time>
      </trkpt>
      <trkpt lat="45.07706" lon="4.82213">
        <ele>121.40000152588</ele>
        <time>2024-05-21T10:22:51.000Z</time>
      </trkpt>
      <trkpt lat="45.07704" lon="4.82218">
        <ele>121.40000152588</ele>
        <time>2024-05-21T10:22:52.000Z</time>
      </trkpt>
      <trkpt lat="45.07701" lon="4.82222">
        <ele>121.40000152588</ele>
        <time>2024-05-21T10:22:53.000Z</time>
      </trkpt>
      <trkpt lat="45.07698" lon="4.82225">
        <ele>121.40000152588</ele>
        <time>2024-05-21T10:22:54.000Z</time>
      </trkpt>
      <trkpt lat="45.07695" lon="4.82227">
        <ele>121.59999847412</ele>
        <time>2024-05-21T10:22:55.000Z</time>
      </trkpt>
      <trkpt lat="45.07692" lon="4.82228">
        <ele>121.59999847412</ele>
        <time>2024-05-21T10:22:56.000Z</time>
      </trkpt>
      <trkpt lat="45.07688" lon="4.82228">
        <ele>121.80000305176</ele>
        <time>2024-05-21T10:22:57.000Z</time>
      </trkpt>
      <trkpt lat="45.07686" lon="4.82227">
        <ele>122</ele>
        <time>2024-05-21T10:22:58.000Z</time>
      </trkpt>
      <trkpt lat="45.07684" lon="4.82224">
        <ele>122.40000152588</ele>
        <time>2024-05-21T10:22:59.000Z</time>
      </trkpt>
      <trkpt lat="45.07682" lon="4.8222">
        <ele>122.40000152588</ele>
        <time>2024-05-21T10:23:00.000Z</time>
      </trkpt>
      <trkpt lat="45.0768" lon="4.82215">
        <ele>122.59999847412</ele>
        <time>2024-05-21T10:23:01.000Z</time>
      </trkpt>
      <trkpt lat="45.07679" lon="4.8221">
        <ele>122.80000305176</ele>
        <time>2024-05-21T10:23:02.000Z</time>
      </trkpt>
      <trkpt lat="45.07678" lon="4.82205">
        <ele>122.80000305176</ele>
        <time>2024-05-21T10:23:03.000Z</time>
      </trkpt>
      <trkpt lat="45.07676" lon="4.82199">
        <ele>122.80000305176</ele>
        <time>2024-05-21T10:23:04.000Z</time>
      </trkpt>
      <trkpt lat="45.07675" lon="4.82194">
        <ele>122.80000305176</ele>
        <time>2024-05-21T10:23:05.000Z</time>
      </trkpt>
      <trkpt lat="45.07674" lon="4.82188">
        <ele>122.80000305176</ele>
        <time>2024-05-21T10:23:06.000Z</time>
      </trkpt>
      <trkpt lat="45.07672" lon="4.82183">
        <ele>123</ele>
        <time>2024-05-21T10:23:07.000Z</time>
      </trkpt>
      <trkpt lat="45.07671" lon="4.82177">
        <ele>123</ele>
        <time>2024-05-21T10:23:08.000Z</time>
      </trkpt>
      <trkpt lat="45.0767" lon="4.82171">
        <ele>123</ele>
        <time>2024-05-21T10:23:09.000Z</time>
      </trkpt>
      <trkpt lat="45.07668" lon="4.82165">
        <ele>123</ele>
        <time>2024-05-21T10:23:10.000Z</time>
      </trkpt>
      <trkpt lat="45.07666" lon="4.82158">
        <ele>123</ele>
        <time>2024-05-21T10:23:11.000Z</time>
      </trkpt>
      <trkpt lat="45.07665" lon="4.82152">
        <ele>123</ele>
        <time>2024-05-21T10:23:12.000Z</time>
      </trkpt>
      <trkpt lat="45.07663" lon="4.82146">
        <ele>123</ele>
        <time>2024-05-21T10:23:13.000Z</time>
      </trkpt>
      <trkpt lat="45.07662" lon="4.82139">
        <ele>123.19999694824</ele>
        <time>2024-05-21T10:23:14.000Z</time>
      </trkpt>
      <trkpt lat="45.0766" lon="4.82133">
        <ele>123.19999694824</ele>
        <time>2024-05-21T10:23:15.000Z</time>
      </trkpt>
      <trkpt lat="45.07659" lon="4.82126">
        <ele>123.19999694824</ele>
        <time>2024-05-21T10:23:16.000Z</time>
      </trkpt>
      <trkpt lat="45.07657" lon="4.8212">
        <ele>123.19999694824</ele>
        <time>2024-05-21T10:23:17.000Z</time>
      </trkpt>
      <trkpt lat="45.07655" lon="4.82113">
        <ele>123.19999694824</ele>
        <time>2024-05-21T10:23:18.000Z</time>
      </trkpt>
      <trkpt lat="45.07654" lon="4.82107">
        <ele>123.19999694824</ele>
        <time>2024-05-21T10:23:19.000Z</time>
      </trkpt>
      <trkpt lat="45.07652" lon="4.821">
        <ele>123.19999694824</ele>
        <time>2024-05-21T10:23:20.000Z</time>
      </trkpt>
      <trkpt lat="45.0765" lon="4.82093">
        <ele>123.19999694824</ele>
        <time>2024-05-21T10:23:21.000Z</time>
      </trkpt>
      <trkpt lat="45.07648" lon="4.82086">
        <ele>123.40000152588</ele>
        <time>2024-05-21T10:23:22.000Z</time>
      </trkpt>
      <trkpt lat="45.07646" lon="4.82079">
        <ele>123.40000152588</ele>
        <time>2024-05-21T10:23:23.000Z</time>
      </trkpt>
      <trkpt lat="45.07644" lon="4.82073">
        <ele>123.59999847412</ele>
        <time>2024-05-21T10:23:24.000Z</time>
      </trkpt>
      <trkpt lat="45.07642" lon="4.82066">
        <ele>123.59999847412</ele>
        <time>2024-05-21T10:23:25.000Z</time>
      </trkpt>
      <trkpt lat="45.0764" lon="4.82059">
        <ele>123.80000305176</ele>
        <time>2024-05-21T10:23:26.000Z</time>
      </trkpt>
      <trkpt lat="45.07639" lon="4.82052">
        <ele>123.80000305176</ele>
        <time>2024-05-21T10:23:27.000Z</time>
      </trkpt>
      <trkpt lat="45.07637" lon="4.82046">
        <ele>123.80000305176</ele>
        <time>2024-05-21T10:23:28.000Z</time>
      </trkpt>
      <trkpt lat="45.07636" lon="4.82039">
        <ele>123.80000305176</ele>
        <time>2024-05-21T10:23:29.000Z</time>
      </trkpt>
      <trkpt lat="45.07634" lon="4.82032">
        <ele>123.80000305176</ele>
        <time>2024-05-21T10:23:30.000Z</time>
      </trkpt>
      <trkpt lat="45.07632" lon="4.82025">
        <ele>123.80000305176</ele>
        <time>2024-05-21T10:23:31.000Z</time>
      </trkpt>
      <trkpt lat="45.0763" lon="4.82019">
        <ele>123.80000305176</ele>
        <time>2024-05-21T10:23:32.000Z</time>
      </trkpt>
      <trkpt lat="45.07628" lon="4.82012">
        <ele>123.80000305176</ele>
        <time>2024-05-21T10:23:33.000Z</time>
      </trkpt>
      <trkpt lat="45.07626" lon="4.82005">
        <ele>123.59999847412</ele>
        <time>2024-05-21T10:23:34.000Z</time>
      </trkpt>
      <trkpt lat="45.07624" lon="4.81998">
        <ele>123.59999847412</ele>
        <time>2024-05-21T10:23:35.000Z</time>
      </trkpt>
      <trkpt lat="45.07622" lon="4.81991">
        <ele>123.59999847412</ele>
        <time>2024-05-21T10:23:36.000Z</time>
      </trkpt>
      <trkpt lat="45.0762" lon="4.81985">
        <ele>123.59999847412</ele>
        <time>2024-05-21T10:23:37.000Z</time>
      </trkpt>
      <trkpt lat="45.07618" lon="4.81978">
        <ele>123.59999847412</ele>
        <time>2024-05-21T10:23:38.000Z</time>
      </trkpt>
      <trkpt lat="45.07616" lon="4.81971">
        <ele>123.40000152588</ele>
        <time>2024-05-21T10:23:39.000Z</time>
      </trkpt>
      <trkpt lat="45.07614" lon="4.81965">
        <ele>123.40000152588</ele>
        <time>2024-05-21T10:23:40.000Z</time>
      </trkpt>
      <trkpt lat="45.07612" lon="4.81958">
        <ele>123.40000152588</ele>
        <time>2024-05-21T10:23:41.000Z</time>
      </trkpt>
      <trkpt lat="45.0761" lon="4.81951">
        <ele>123.40000152588</ele>
        <time>2024-05-21T10:23:42.000Z</time>
      </trkpt>
      <trkpt lat="45.07609" lon="4.81944">
        <ele>123.40000152588</ele>
        <time>2024-05-21T10:23:43.000Z</time>
      </trkpt>
      <trkpt lat="45.07607" lon="4.81937">
        <ele>123.59999847412</ele>
        <time>2024-05-21T10:23:44.000Z</time>
      </trkpt>
      <trkpt lat="45.07605" lon="4.8193">
        <ele>124</ele>
        <time>2024-05-21T10:23:45.000Z</time>
      </trkpt>
      <trkpt lat="45.07603" lon="4.81923">
        <ele>124</ele>
        <time>2024-05-21T10:23:46.000Z</time>
      </trkpt>
      <trkpt lat="45.07601" lon="4.81916">
        <ele>124</ele>
        <time>2024-05-21T10:23:47.000Z</time>
      </trkpt>
      <trkpt lat="45.07599" lon="4.81909">
        <ele>124</ele>
        <time>2024-05-21T10:23:48.000Z</time>
      </trkpt>
      <trkpt lat="45.07598" lon="4.81903">
        <ele>124</ele>
        <time>2024-05-21T10:23:49.000Z</time>
      </trkpt>
      <trkpt lat="45.07596" lon="4.81896">
        <ele>124</ele>
        <time>2024-05-21T10:23:50.000Z</time>
      </trkpt>
      <trkpt lat="45.07594" lon="4.81889">
        <ele>124</ele>
        <time>2024-05-21T10:23:51.000Z</time>
      </trkpt>
      <trkpt lat="45.07592" lon="4.81882">
        <ele>124</ele>
        <time>2024-05-21T10:23:52.000Z</time>
      </trkpt>
      <trkpt lat="45.0759" lon="4.81875">
        <ele>124</ele>
        <time>2024-05-21T10:23:53.000Z</time>
      </trkpt>
      <trkpt lat="45.07589" lon="4.81868">
        <ele>124</ele>
        <time>2024-05-21T10:23:54.000Z</time>
      </trkpt>
      <trkpt lat="45.07587" lon="4.81862">
        <ele>124</ele>
        <time>2024-05-21T10:23:55.000Z</time>
      </trkpt>
      <trkpt lat="45.07585" lon="4.81855">
        <ele>124</ele>
        <time>2024-05-21T10:23:56.000Z</time>
      </trkpt>
      <trkpt lat="45.07583" lon="4.81848">
        <ele>124</ele>
        <time>2024-05-21T10:23:57.000Z</time>
      </trkpt>
      <trkpt lat="45.07581" lon="4.81841">
        <ele>124</ele>
        <time>2024-05-21T10:23:58.000Z</time>
      </trkpt>
      <trkpt lat="45.07579" lon="4.81835">
        <ele>124</ele>
        <time>2024-05-21T10:23:59.000Z</time>
      </trkpt>
      <trkpt lat="45.07577" lon="4.81828">
        <ele>124</ele>
        <time>2024-05-21T10:24:00.000Z</time>
      </trkpt>
      <trkpt lat="45.07575" lon="4.81821">
        <ele>124</ele>
        <time>2024-05-21T10:24:01.000Z</time>
      </trkpt>
      <trkpt lat="45.07574" lon="4.81815">
        <ele>124</ele>
        <time>2024-05-21T10:24:02.000Z</time>
      </trkpt>
      <trkpt lat="45.07572" lon="4.81809">
        <ele>124</ele>
        <time>2024-05-21T10:24:03.000Z</time>
      </trkpt>
      <trkpt lat="45.0757" lon="4.81803">
        <ele>124</ele>
        <time>2024-05-21T10:24:04.000Z</time>
      </trkpt>
      <trkpt lat="45.07569" lon="4.81796">
        <ele>124</ele>
        <time>2024-05-21T10:24:05.000Z</time>
      </trkpt>
      <trkpt lat="45.07567" lon="4.8179">
        <ele>124.19999694824</ele>
        <time>2024-05-21T10:24:06.000Z</time>
      </trkpt>
      <trkpt lat="45.07566" lon="4.81783">
        <ele>124.19999694824</ele>
        <time>2024-05-21T10:24:07.000Z</time>
      </trkpt>
      <trkpt lat="45.07564" lon="4.81777">
        <ele>124.40000152588</ele>
        <time>2024-05-21T10:24:08.000Z</time>
      </trkpt>
      <trkpt lat="45.07562" lon="4.8177">
        <ele>124.40000152588</ele>
        <time>2024-05-21T10:24:09.000Z</time>
      </trkpt>
      <trkpt lat="45.0756" lon="4.81764">
        <ele>124.40000152588</ele>
        <time>2024-05-21T10:24:10.000Z</time>
      </trkpt>
      <trkpt lat="45.07559" lon="4.81758">
        <ele>124.40000152588</ele>
        <time>2024-05-21T10:24:11.000Z</time>
      </trkpt>
      <trkpt lat="45.07558" lon="4.81752">
        <ele>124.40000152588</ele>
        <time>2024-05-21T10:24:12.000Z</time>
      </trkpt>
      <trkpt lat="45.07556" lon="4.81746">
        <ele>124.59999847412</ele>
        <time>2024-05-21T10:24:13.000Z</time>
      </trkpt>
      <trkpt lat="45.07554" lon="4.81739">
        <ele>124.59999847412</ele>
        <time>2024-05-21T10:24:14.000Z</time>
      </trkpt>
      <trkpt lat="45.07552" lon="4.81733">
        <ele>124.59999847412</ele>
        <time>2024-05-21T10:24:15.000Z</time>
      </trkpt>
      <trkpt lat="45.0755" lon="4.81726">
        <ele>124.40000152588</ele>
        <time>2024-05-21T10:24:16.000Z</time>
      </trkpt>
      <trkpt lat="45.07548" lon="4.81719">
        <ele>124.40000152588</ele>
        <time>2024-05-21T10:24:17.000Z</time>
      </trkpt>
      <trkpt lat="45.07546" lon="4.81712">
        <ele>124.19999694824</ele>
        <time>2024-05-21T10:24:18.000Z</time>
      </trkpt>
      <trkpt lat="45.07544" lon="4.81705">
        <ele>124.19999694824</ele>
        <time>2024-05-21T10:24:19.000Z</time>
      </trkpt>
      <trkpt lat="45.07542" lon="4.81699">
        <ele>124.19999694824</ele>
        <time>2024-05-21T10:24:20.000Z</time>
      </trkpt>
      <trkpt lat="45.07541" lon="4.81693">
        <ele>124.19999694824</ele>
        <time>2024-05-21T10:24:21.000Z</time>
      </trkpt>
      <trkpt lat="45.07539" lon="4.81687">
        <ele>124</ele>
        <time>2024-05-21T10:24:22.000Z</time>
      </trkpt>
      <trkpt lat="45.07538" lon="4.81682">
        <ele>124</ele>
        <time>2024-05-21T10:24:23.000Z</time>
      </trkpt>
      <trkpt lat="45.07537" lon="4.81678">
        <ele>124.19999694824</ele>
        <time>2024-05-21T10:24:24.000Z</time>
      </trkpt>
      <trkpt lat="45.07535" lon="4.81674">
        <ele>124.19999694824</ele>
        <time>2024-05-21T10:24:25.000Z</time>
      </trkpt>
      <trkpt lat="45.07534" lon="4.8167">
        <ele>124.19999694824</ele>
        <time>2024-05-21T10:24:26.000Z</time>
      </trkpt>
      <trkpt lat="45.07534" lon="4.81666">
        <ele>124.59999847412</ele>
        <time>2024-05-21T10:24:27.000Z</time>
      </trkpt>
      <trkpt lat="45.07533" lon="4.81663">
        <ele>124.80000305176</ele>
        <time>2024-05-21T10:24:28.000Z</time>
      </trkpt>
      <trkpt lat="45.07532" lon="4.8166">
        <ele>125</ele>
        <time>2024-05-21T10:24:29.000Z</time>
      </trkpt>
      <trkpt lat="45.07531" lon="4.81657">
        <ele>125.40000152588</ele>
        <time>2024-05-21T10:24:30.000Z</time>
      </trkpt>
      <trkpt lat="45.07529" lon="4.81654">
        <ele>125.80000305176</ele>
        <time>2024-05-21T10:24:31.000Z</time>
      </trkpt>
      <trkpt lat="45.07528" lon="4.81652">
        <ele>126.19999694824</ele>
        <time>2024-05-21T10:24:32.000Z</time>
      </trkpt>
      <trkpt lat="45.07525" lon="4.81653">
        <ele>126.40000152588</ele>
        <time>2024-05-21T10:24:33.000Z</time>
      </trkpt>
      <trkpt lat="45.07524" lon="4.81654">
        <ele>126.59999847412</ele>
        <time>2024-05-21T10:24:34.000Z</time>
      </trkpt>
      <trkpt lat="45.07521" lon="4.81656">
        <ele>127</ele>
        <time>2024-05-21T10:24:35.000Z</time>
      </trkpt>
      <trkpt lat="45.07519" lon="4.81658">
        <ele>127.19999694824</ele>
        <time>2024-05-21T10:24:36.000Z</time>
      </trkpt>
      <trkpt lat="45.07516" lon="4.8166">
        <ele>127.19999694824</ele>
        <time>2024-05-21T10:24:37.000Z</time>
      </trkpt>
      <trkpt lat="45.07512" lon="4.81662">
        <ele>127.19999694824</ele>
        <time>2024-05-21T10:24:38.000Z</time>
      </trkpt>
      <trkpt lat="45.07509" lon="4.81665">
        <ele>127.19999694824</ele>
        <time>2024-05-21T10:24:39.000Z</time>
      </trkpt>
      <trkpt lat="45.07505" lon="4.81668">
        <ele>127.19999694824</ele>
        <time>2024-05-21T10:24:40.000Z</time>
      </trkpt>
      <trkpt lat="45.07502" lon="4.81671">
        <ele>127.19999694824</ele>
        <time>2024-05-21T10:24:41.000Z</time>
      </trkpt>
      <trkpt lat="45.07498" lon="4.81673">
        <ele>127.19999694824</ele>
        <time>2024-05-21T10:24:42.000Z</time>
      </trkpt>
      <trkpt lat="45.07495" lon="4.81676">
        <ele>127.19999694824</ele>
        <time>2024-05-21T10:24:43.000Z</time>
      </trkpt>
      <trkpt lat="45.07491" lon="4.81678">
        <ele>127</ele>
        <time>2024-05-21T10:24:44.000Z</time>
      </trkpt>
      <trkpt lat="45.07488" lon="4.81681">
        <ele>127</ele>
        <time>2024-05-21T10:24:45.000Z</time>
      </trkpt>
      <trkpt lat="45.07484" lon="4.81684">
        <ele>127</ele>
        <time>2024-05-21T10:24:46.000Z</time>
      </trkpt>
      <trkpt lat="45.0748" lon="4.81687">
        <ele>127</ele>
        <time>2024-05-21T10:24:47.000Z</time>
      </trkpt>
      <trkpt lat="45.07477" lon="4.81689">
        <ele>127</ele>
        <time>2024-05-21T10:24:48.000Z</time>
      </trkpt>
      <trkpt lat="45.07473" lon="4.81692">
        <ele>127</ele>
        <time>2024-05-21T10:24:49.000Z</time>
      </trkpt>
      <trkpt lat="45.07469" lon="4.81695">
        <ele>127</ele>
        <time>2024-05-21T10:24:50.000Z</time>
      </trkpt>
      <trkpt lat="45.07465" lon="4.81697">
        <ele>127</ele>
        <time>2024-05-21T10:24:51.000Z</time>
      </trkpt>
      <trkpt lat="45.07461" lon="4.817">
        <ele>127</ele>
        <time>2024-05-21T10:24:52.000Z</time>
      </trkpt>
      <trkpt lat="45.07458" lon="4.81702">
        <ele>127.19999694824</ele>
        <time>2024-05-21T10:24:53.000Z</time>
      </trkpt>
      <trkpt lat="45.07454" lon="4.81705">
        <ele>127.19999694824</ele>
        <time>2024-05-21T10:24:54.000Z</time>
      </trkpt>
      <trkpt lat="45.0745" lon="4.81708">
        <ele>127.19999694824</ele>
        <time>2024-05-21T10:24:55.000Z</time>
      </trkpt>
      <trkpt lat="45.07446" lon="4.81711">
        <ele>127.19999694824</ele>
        <time>2024-05-21T10:24:56.000Z</time>
      </trkpt>
      <trkpt lat="45.07442" lon="4.81714">
        <ele>127.19999694824</ele>
        <time>2024-05-21T10:24:57.000Z</time>
      </trkpt>
      <trkpt lat="45.07438" lon="4.81716">
        <ele>127.19999694824</ele>
        <time>2024-05-21T10:24:58.000Z</time>
      </trkpt>
      <trkpt lat="45.07434" lon="4.81719">
        <ele>127.19999694824</ele>
        <time>2024-05-21T10:24:59.000Z</time>
      </trkpt>
      <trkpt lat="45.0743" lon="4.81722">
        <ele>127</ele>
        <time>2024-05-21T10:25:00.000Z</time>
      </trkpt>
      <trkpt lat="45.07427" lon="4.81724">
        <ele>127</ele>
        <time>2024-05-21T10:25:01.000Z</time>
      </trkpt>
      <trkpt lat="45.07423" lon="4.81727">
        <ele>127</ele>
        <time>2024-05-21T10:25:02.000Z</time>
      </trkpt>
      <trkpt lat="45.0742" lon="4.8173">
        <ele>127</ele>
        <time>2024-05-21T10:25:03.000Z</time>
      </trkpt>
      <trkpt lat="45.07417" lon="4.81733">
        <ele>126.80000305176</ele>
        <time>2024-05-21T10:25:04.000Z</time>
      </trkpt>
      <trkpt lat="45.07415" lon="4.81735">
        <ele>126.80000305176</ele>
        <time>2024-05-21T10:25:05.000Z</time>
      </trkpt>
      <trkpt lat="45.07415" lon="4.81737">
        <ele>126.80000305176</ele>
        <time>2024-05-21T10:25:06.000Z</time>
      </trkpt>
      <trkpt lat="45.07415" lon="4.81737">
        <ele>126.80000305176</ele>
        <time>2024-05-21T10:25:07.000Z</time>
      </trkpt>
      <trkpt lat="45.07416" lon="4.81736">
        <ele>126.80000305176</ele>
        <time>2024-05-21T10:25:08.000Z</time>
      </trkpt>
      <trkpt lat="45.07417" lon="4.81735">
        <ele>127</ele>
        <time>2024-05-21T10:25:09.000Z</time>
      </trkpt>
      <trkpt lat="45.07418" lon="4.81733">
        <ele>127.19999694824</ele>
        <time>2024-05-21T10:25:10.000Z</time>
      </trkpt>
      <trkpt lat="45.07418" lon="4.81733">
        <ele>127.40000152588</ele>
        <time>2024-05-21T10:25:11.000Z</time>
      </trkpt>
      <trkpt lat="45.07418" lon="4.81733">
        <ele>127.40000152588</ele>
        <time>2024-05-21T10:25:12.000Z</time>
      </trkpt>
      <trkpt lat="45.07418" lon="4.81733">
        <ele>127.40000152588</ele>
        <time>2024-05-21T10:25:13.000Z</time>
      </trkpt>
      <trkpt lat="45.07414" lon="4.81735">
        <ele>127.19999694824</ele>
        <time>2024-05-21T10:26:29.000Z</time>
      </trkpt>
      <trkpt lat="45.07412" lon="4.81737">
        <ele>127.40000152588</ele>
        <time>2024-05-21T10:26:30.000Z</time>
      </trkpt>
      <trkpt lat="45.0741" lon="4.81739">
        <ele>127.40000152588</ele>
        <time>2024-05-21T10:26:31.000Z</time>
      </trkpt>
      <trkpt lat="45.07408" lon="4.81742">
        <ele>127.19999694824</ele>
        <time>2024-05-21T10:26:32.000Z</time>
      </trkpt>
      <trkpt lat="45.07405" lon="4.81745">
        <ele>127.19999694824</ele>
        <time>2024-05-21T10:26:33.000Z</time>
      </trkpt>
      <trkpt lat="45.07402" lon="4.81748">
        <ele>127</ele>
        <time>2024-05-21T10:26:34.000Z</time>
      </trkpt>
      <trkpt lat="45.07398" lon="4.81751">
        <ele>127</ele>
        <time>2024-05-21T10:26:35.000Z</time>
      </trkpt>
      <trkpt lat="45.07395" lon="4.81754">
        <ele>126.80000305176</ele>
        <time>2024-05-21T10:26:36.000Z</time>
      </trkpt>
      <trkpt lat="45.07392" lon="4.81758">
        <ele>126.59999847412</ele>
        <time>2024-05-21T10:26:37.000Z</time>
      </trkpt>
      <trkpt lat="45.07389" lon="4.81762">
        <ele>126.59999847412</ele>
        <time>2024-05-21T10:26:38.000Z</time>
      </trkpt>
      <trkpt lat="45.07386" lon="4.81767">
        <ele>126.59999847412</ele>
        <time>2024-05-21T10:26:39.000Z</time>
      </trkpt>
      <trkpt lat="45.07383" lon="4.81771">
        <ele>126.59999847412</ele>
        <time>2024-05-21T10:26:40.000Z</time>
      </trkpt>
      <trkpt lat="45.07381" lon="4.81776">
        <ele>126.59999847412</ele>
        <time>2024-05-21T10:26:41.000Z</time>
      </trkpt>
      <trkpt lat="45.07378" lon="4.81782">
        <ele>126.40000152588</ele>
        <time>2024-05-21T10:26:42.000Z</time>
      </trkpt>
      <trkpt lat="45.07376" lon="4.81788">
        <ele>126.40000152588</ele>
        <time>2024-05-21T10:26:43.000Z</time>
      </trkpt>
      <trkpt lat="45.07374" lon="4.81793">
        <ele>126.40000152588</ele>
        <time>2024-05-21T10:26:44.000Z</time>
      </trkpt>
      <trkpt lat="45.07371" lon="4.81801">
        <ele>126.40000152588</ele>
        <time>2024-05-21T10:26:45.000Z</time>
      </trkpt>
      <trkpt lat="45.07369" lon="4.81808">
        <ele>126.19999694824</ele>
        <time>2024-05-21T10:26:46.000Z</time>
      </trkpt>
      <trkpt lat="45.07366" lon="4.81814">
        <ele>126</ele>
        <time>2024-05-21T10:26:47.000Z</time>
      </trkpt>
      <trkpt lat="45.07364" lon="4.81821">
        <ele>125.80000305176</ele>
        <time>2024-05-21T10:26:48.000Z</time>
      </trkpt>
      <trkpt lat="45.07363" lon="4.81827">
        <ele>125.80000305176</ele>
        <time>2024-05-21T10:26:49.000Z</time>
      </trkpt>
      <trkpt lat="45.07361" lon="4.81834">
        <ele>125.80000305176</ele>
        <time>2024-05-21T10:26:50.000Z</time>
      </trkpt>
      <trkpt lat="45.07359" lon="4.8184">
        <ele>125.80000305176</ele>
        <time>2024-05-21T10:26:51.000Z</time>
      </trkpt>
      <trkpt lat="45.07357" lon="4.81847">
        <ele>126</ele>
        <time>2024-05-21T10:26:52.000Z</time>
      </trkpt>
      <trkpt lat="45.07355" lon="4.81855">
        <ele>126</ele>
        <time>2024-05-21T10:26:53.000Z</time>
      </trkpt>
      <trkpt lat="45.07353" lon="4.81862">
        <ele>126.19999694824</ele>
        <time>2024-05-21T10:26:54.000Z</time>
      </trkpt>
      <trkpt lat="45.07351" lon="4.81869">
        <ele>126.19999694824</ele>
        <time>2024-05-21T10:26:55.000Z</time>
      </trkpt>
      <trkpt lat="45.07349" lon="4.81876">
        <ele>126.19999694824</ele>
        <time>2024-05-21T10:26:56.000Z</time>
      </trkpt>
      <trkpt lat="45.07347" lon="4.81884">
        <ele>126.19999694824</ele>
        <time>2024-05-21T10:26:57.000Z</time>
      </trkpt>
      <trkpt lat="45.07345" lon="4.81891">
        <ele>126.19999694824</ele>
        <time>2024-05-21T10:26:58.000Z</time>
      </trkpt>
      <trkpt lat="45.07343" lon="4.81898">
        <ele>126.19999694824</ele>
        <time>2024-05-21T10:26:59.000Z</time>
      </trkpt>
      <trkpt lat="45.07341" lon="4.81905">
        <ele>126.19999694824</ele>
        <time>2024-05-21T10:27:00.000Z</time>
      </trkpt>
      <trkpt lat="45.07339" lon="4.81912">
        <ele>126</ele>
        <time>2024-05-21T10:27:01.000Z</time>
      </trkpt>
      <trkpt lat="45.07337" lon="4.81919">
        <ele>126</ele>
        <time>2024-05-21T10:27:02.000Z</time>
      </trkpt>
      <trkpt lat="45.07335" lon="4.81926">
        <ele>126</ele>
        <time>2024-05-21T10:27:03.000Z</time>
      </trkpt>
      <trkpt lat="45.07333" lon="4.81933">
        <ele>126</ele>
        <time>2024-05-21T10:27:04.000Z</time>
      </trkpt>
      <trkpt lat="45.07331" lon="4.81941">
        <ele>126</ele>
        <time>2024-05-21T10:27:05.000Z</time>
      </trkpt>
      <trkpt lat="45.07329" lon="4.81948">
        <ele>126</ele>
        <time>2024-05-21T10:27:06.000Z</time>
      </trkpt>
      <trkpt lat="45.07327" lon="4.81956">
        <ele>126</ele>
        <time>2024-05-21T10:27:07.000Z</time>
      </trkpt>
      <trkpt lat="45.07325" lon="4.81963">
        <ele>126</ele>
        <time>2024-05-21T10:27:08.000Z</time>
      </trkpt>
      <trkpt lat="45.07323" lon="4.8197">
        <ele>126</ele>
        <time>2024-05-21T10:27:09.000Z</time>
      </trkpt>
      <trkpt lat="45.07321" lon="4.81977">
        <ele>125.80000305176</ele>
        <time>2024-05-21T10:27:10.000Z</time>
      </trkpt>
      <trkpt lat="45.07318" lon="4.81984">
        <ele>125.80000305176</ele>
        <time>2024-05-21T10:27:11.000Z</time>
      </trkpt>
      <trkpt lat="45.07316" lon="4.81992">
        <ele>125.80000305176</ele>
        <time>2024-05-21T10:27:12.000Z</time>
      </trkpt>
      <trkpt lat="45.07314" lon="4.81999">
        <ele>125.80000305176</ele>
        <time>2024-05-21T10:27:13.000Z</time>
      </trkpt>
      <trkpt lat="45.07312" lon="4.82006">
        <ele>125.80000305176</ele>
        <time>2024-05-21T10:27:14.000Z</time>
      </trkpt>
      <trkpt lat="45.0731" lon="4.82013">
        <ele>125.80000305176</ele>
        <time>2024-05-21T10:27:15.000Z</time>
      </trkpt>
      <trkpt lat="45.07307" lon="4.8202">
        <ele>125.80000305176</ele>
        <time>2024-05-21T10:27:16.000Z</time>
      </trkpt>
      <trkpt lat="45.07305" lon="4.82027">
        <ele>125.80000305176</ele>
        <time>2024-05-21T10:27:17.000Z</time>
      </trkpt>
      <trkpt lat="45.07303" lon="4.82034">
        <ele>125.80000305176</ele>
        <time>2024-05-21T10:27:18.000Z</time>
      </trkpt>
      <trkpt lat="45.07301" lon="4.8204">
        <ele>125.80000305176</ele>
        <time>2024-05-21T10:27:19.000Z</time>
      </trkpt>
      <trkpt lat="45.07298" lon="4.82048">
        <ele>125.59999847412</ele>
        <time>2024-05-21T10:27:20.000Z</time>
      </trkpt>
      <trkpt lat="45.07297" lon="4.82055">
        <ele>125.59999847412</ele>
        <time>2024-05-21T10:27:21.000Z</time>
      </trkpt>
      <trkpt lat="45.07294" lon="4.82062">
        <ele>125.59999847412</ele>
        <time>2024-05-21T10:27:22.000Z</time>
      </trkpt>
      <trkpt lat="45.07292" lon="4.82069">
        <ele>125.59999847412</ele>
        <time>2024-05-21T10:27:23.000Z</time>
      </trkpt>
      <trkpt lat="45.0729" lon="4.82076">
        <ele>125.59999847412</ele>
        <time>2024-05-21T10:27:24.000Z</time>
      </trkpt>
      <trkpt lat="45.07288" lon="4.82084">
        <ele>125.59999847412</ele>
        <time>2024-05-21T10:27:25.000Z</time>
      </trkpt>
      <trkpt lat="45.07286" lon="4.82091">
        <ele>125.59999847412</ele>
        <time>2024-05-21T10:27:26.000Z</time>
      </trkpt>
      <trkpt lat="45.07284" lon="4.82098">
        <ele>125.59999847412</ele>
        <time>2024-05-21T10:27:27.000Z</time>
      </trkpt>
      <trkpt lat="45.07282" lon="4.82104">
        <ele>125.59999847412</ele>
        <time>2024-05-21T10:27:28.000Z</time>
      </trkpt>
      <trkpt lat="45.0728" lon="4.82111">
        <ele>125.59999847412</ele>
        <time>2024-05-21T10:27:29.000Z</time>
      </trkpt>
      <trkpt lat="45.07278" lon="4.82118">
        <ele>125.59999847412</ele>
        <time>2024-05-21T10:27:30.000Z</time>
      </trkpt>
      <trkpt lat="45.07275" lon="4.82124">
        <ele>125.59999847412</ele>
        <time>2024-05-21T10:27:31.000Z</time>
      </trkpt>
      <trkpt lat="45.07273" lon="4.82131">
        <ele>125.59999847412</ele>
        <time>2024-05-21T10:27:32.000Z</time>
      </trkpt>
      <trkpt lat="45.07271" lon="4.82136">
        <ele>125.59999847412</ele>
        <time>2024-05-21T10:27:33.000Z</time>
      </trkpt>
      <trkpt lat="45.07269" lon="4.8214">
        <ele>125.59999847412</ele>
        <time>2024-05-21T10:27:34.000Z</time>
      </trkpt>
      <trkpt lat="45.07268" lon="4.82147">
        <ele>125.59999847412</ele>
        <time>2024-05-21T10:27:35.000Z</time>
      </trkpt>
      <trkpt lat="45.07266" lon="4.82152">
        <ele>125.59999847412</ele>
        <time>2024-05-21T10:27:36.000Z</time>
      </trkpt>
      <trkpt lat="45.07265" lon="4.82157">
        <ele>125.59999847412</ele>
        <time>2024-05-21T10:27:37.000Z</time>
      </trkpt>
      <trkpt lat="45.07264" lon="4.82162">
        <ele>125.80000305176</ele>
        <time>2024-05-21T10:27:38.000Z</time>
      </trkpt>
      <trkpt lat="45.07263" lon="4.82166">
        <ele>126</ele>
        <time>2024-05-21T10:27:39.000Z</time>
      </trkpt>
      <trkpt lat="45.07263" lon="4.82169">
        <ele>126.19999694824</ele>
        <time>2024-05-21T10:27:40.000Z</time>
      </trkpt>
      <trkpt lat="45.07261" lon="4.82171">
        <ele>126.19999694824</ele>
        <time>2024-05-21T10:27:41.000Z</time>
      </trkpt>
      <trkpt lat="45.0726" lon="4.82171">
        <ele>126.19999694824</ele>
        <time>2024-05-21T10:27:42.000Z</time>
      </trkpt>
      <trkpt lat="45.07258" lon="4.82169">
        <ele>126.40000152588</ele>
        <time>2024-05-21T10:27:43.000Z</time>
      </trkpt>
      <trkpt lat="45.07256" lon="4.82167">
        <ele>126.40000152588</ele>
        <time>2024-05-21T10:27:44.000Z</time>
      </trkpt>
      <trkpt lat="45.07256" lon="4.82167">
        <ele>126.40000152588</ele>
        <time>2024-05-21T10:27:45.000Z</time>
      </trkpt>
      <trkpt lat="45.07256" lon="4.82167">
        <ele>126.59999847412</ele>
        <time>2024-05-21T10:27:46.000Z</time>
      </trkpt>
      <trkpt lat="45.07255" lon="4.82166">
        <ele>126.59999847412</ele>
        <time>2024-05-21T10:27:47.000Z</time>
      </trkpt>
      <trkpt lat="45.07252" lon="4.82165">
        <ele>126.59999847412</ele>
        <time>2024-05-21T10:27:49.000Z</time>
      </trkpt>
      <trkpt lat="45.0725" lon="4.82167">
        <ele>126.59999847412</ele>
        <time>2024-05-21T10:27:50.000Z</time>
      </trkpt>
      <trkpt lat="45.07248" lon="4.8217">
        <ele>126.59999847412</ele>
        <time>2024-05-21T10:27:51.000Z</time>
      </trkpt>
      <trkpt lat="45.07246" lon="4.82171">
        <ele>126.59999847412</ele>
        <time>2024-05-21T10:27:52.000Z</time>
      </trkpt>
      <trkpt lat="45.07244" lon="4.82173">
        <ele>126.59999847412</ele>
        <time>2024-05-21T10:27:53.000Z</time>
      </trkpt>
      <trkpt lat="45.07241" lon="4.82174">
        <ele>126.40000152588</ele>
        <time>2024-05-21T10:27:54.000Z</time>
      </trkpt>
      <trkpt lat="45.07237" lon="4.82177">
        <ele>126.40000152588</ele>
        <time>2024-05-21T10:27:55.000Z</time>
      </trkpt>
      <trkpt lat="45.07235" lon="4.82181">
        <ele>126.19999694824</ele>
        <time>2024-05-21T10:27:56.000Z</time>
      </trkpt>
      <trkpt lat="45.07232" lon="4.82186">
        <ele>126</ele>
        <time>2024-05-21T10:27:57.000Z</time>
      </trkpt>
      <trkpt lat="45.07231" lon="4.82191">
        <ele>126</ele>
        <time>2024-05-21T10:27:58.000Z</time>
      </trkpt>
      <trkpt lat="45.0723" lon="4.82197">
        <ele>126</ele>
        <time>2024-05-21T10:27:59.000Z</time>
      </trkpt>
      <trkpt lat="45.07231" lon="4.82204">
        <ele>126</ele>
        <time>2024-05-21T10:28:00.000Z</time>
      </trkpt>
      <trkpt lat="45.07231" lon="4.8221">
        <ele>125.80000305176</ele>
        <time>2024-05-21T10:28:01.000Z</time>
      </trkpt>
      <trkpt lat="45.07231" lon="4.82216">
        <ele>125.80000305176</ele>
        <time>2024-05-21T10:28:02.000Z</time>
      </trkpt>
      <trkpt lat="45.07231" lon="4.82223">
        <ele>125.80000305176</ele>
        <time>2024-05-21T10:28:03.000Z</time>
      </trkpt>
      <trkpt lat="45.0723" lon="4.82229">
        <ele>125.80000305176</ele>
        <time>2024-05-21T10:28:04.000Z</time>
      </trkpt>
      <trkpt lat="45.07228" lon="4.82235">
        <ele>125.80000305176</ele>
        <time>2024-05-21T10:28:05.000Z</time>
      </trkpt>
      <trkpt lat="45.07226" lon="4.82241">
        <ele>125.80000305176</ele>
        <time>2024-05-21T10:28:06.000Z</time>
      </trkpt>
      <trkpt lat="45.07224" lon="4.82248">
        <ele>125.80000305176</ele>
        <time>2024-05-21T10:28:07.000Z</time>
      </trkpt>
      <trkpt lat="45.07222" lon="4.82254">
        <ele>125.80000305176</ele>
        <time>2024-05-21T10:28:08.000Z</time>
      </trkpt>
      <trkpt lat="45.0722" lon="4.8226">
        <ele>125.59999847412</ele>
        <time>2024-05-21T10:28:09.000Z</time>
      </trkpt>
      <trkpt lat="45.07218" lon="4.82266">
        <ele>125.59999847412</ele>
        <time>2024-05-21T10:28:10.000Z</time>
      </trkpt>
      <trkpt lat="45.07216" lon="4.82273">
        <ele>125.59999847412</ele>
        <time>2024-05-21T10:28:11.000Z</time>
      </trkpt>
      <trkpt lat="45.07213" lon="4.8228">
        <ele>125.59999847412</ele>
        <time>2024-05-21T10:28:12.000Z</time>
      </trkpt>
      <trkpt lat="45.07211" lon="4.82287">
        <ele>125.40000152588</ele>
        <time>2024-05-21T10:28:13.000Z</time>
      </trkpt>
      <trkpt lat="45.07209" lon="4.82295">
        <ele>125</ele>
        <time>2024-05-21T10:28:14.000Z</time>
      </trkpt>
      <trkpt lat="45.07206" lon="4.82302">
        <ele>124.80000305176</ele>
        <time>2024-05-21T10:28:15.000Z</time>
      </trkpt>
      <trkpt lat="45.07203" lon="4.82309">
        <ele>124.80000305176</ele>
        <time>2024-05-21T10:28:16.000Z</time>
      </trkpt>
      <trkpt lat="45.072" lon="4.82316">
        <ele>124.59999847412</ele>
        <time>2024-05-21T10:28:17.000Z</time>
      </trkpt>
      <trkpt lat="45.07198" lon="4.82324">
        <ele>124.19999694824</ele>
        <time>2024-05-21T10:28:18.000Z</time>
      </trkpt>
      <trkpt lat="45.07196" lon="4.82331">
        <ele>124</ele>
        <time>2024-05-21T10:28:19.000Z</time>
      </trkpt>
      <trkpt lat="45.07193" lon="4.82339">
        <ele>124</ele>
        <time>2024-05-21T10:28:20.000Z</time>
      </trkpt>
      <trkpt lat="45.07191" lon="4.82347">
        <ele>124</ele>
        <time>2024-05-21T10:28:21.000Z</time>
      </trkpt>
      <trkpt lat="45.07188" lon="4.82355">
        <ele>123.80000305176</ele>
        <time>2024-05-21T10:28:22.000Z</time>
      </trkpt>
      <trkpt lat="45.07186" lon="4.82363">
        <ele>123.80000305176</ele>
        <time>2024-05-21T10:28:23.000Z</time>
      </trkpt>
      <trkpt lat="45.07183" lon="4.8237">
        <ele>123.80000305176</ele>
        <time>2024-05-21T10:28:24.000Z</time>
      </trkpt>
      <trkpt lat="45.0718" lon="4.82379">
        <ele>123.80000305176</ele>
        <time>2024-05-21T10:28:25.000Z</time>
      </trkpt>
      <trkpt lat="45.07178" lon="4.82386">
        <ele>123.80000305176</ele>
        <time>2024-05-21T10:28:26.000Z</time>
      </trkpt>
      <trkpt lat="45.07176" lon="4.82394">
        <ele>123.40000152588</ele>
        <time>2024-05-21T10:28:27.000Z</time>
      </trkpt>
      <trkpt lat="45.07173" lon="4.82402">
        <ele>123.19999694824</ele>
        <time>2024-05-21T10:28:28.000Z</time>
      </trkpt>
      <trkpt lat="45.07171" lon="4.8241">
        <ele>123.19999694824</ele>
        <time>2024-05-21T10:28:29.000Z</time>
      </trkpt>
      <trkpt lat="45.07168" lon="4.82418">
        <ele>123</ele>
        <time>2024-05-21T10:28:30.000Z</time>
      </trkpt>
      <trkpt lat="45.07165" lon="4.82427">
        <ele>123</ele>
        <time>2024-05-21T10:28:31.000Z</time>
      </trkpt>
      <trkpt lat="45.07162" lon="4.82435">
        <ele>123</ele>
        <time>2024-05-21T10:28:32.000Z</time>
      </trkpt>
      <trkpt lat="45.0716" lon="4.82443">
        <ele>123</ele>
        <time>2024-05-21T10:28:33.000Z</time>
      </trkpt>
      <trkpt lat="45.07157" lon="4.82452">
        <ele>123</ele>
        <time>2024-05-21T10:28:34.000Z</time>
      </trkpt>
      <trkpt lat="45.07154" lon="4.8246">
        <ele>122.80000305176</ele>
        <time>2024-05-21T10:28:35.000Z</time>
      </trkpt>
      <trkpt lat="45.07152" lon="4.82468">
        <ele>122.80000305176</ele>
        <time>2024-05-21T10:28:36.000Z</time>
      </trkpt>
      <trkpt lat="45.0715" lon="4.82476">
        <ele>122.80000305176</ele>
        <time>2024-05-21T10:28:37.000Z</time>
      </trkpt>
      <trkpt lat="45.07148" lon="4.82484">
        <ele>122.59999847412</ele>
        <time>2024-05-21T10:28:38.000Z</time>
      </trkpt>
      <trkpt lat="45.07146" lon="4.82491">
        <ele>122.59999847412</ele>
        <time>2024-05-21T10:28:39.000Z</time>
      </trkpt>
      <trkpt lat="45.07143" lon="4.82498">
        <ele>122.19999694824</ele>
        <time>2024-05-21T10:28:40.000Z</time>
      </trkpt>
      <trkpt lat="45.07141" lon="4.82505">
        <ele>122.19999694824</ele>
        <time>2024-05-21T10:28:41.000Z</time>
      </trkpt>
      <trkpt lat="45.07139" lon="4.82512">
        <ele>122.19999694824</ele>
        <time>2024-05-21T10:28:42.000Z</time>
      </trkpt>
      <trkpt lat="45.07136" lon="4.82519">
        <ele>122.19999694824</ele>
        <time>2024-05-21T10:28:43.000Z</time>
      </trkpt>
      <trkpt lat="45.07134" lon="4.82525">
        <ele>122.19999694824</ele>
        <time>2024-05-21T10:28:44.000Z</time>
      </trkpt>
      <trkpt lat="45.07131" lon="4.82532">
        <ele>122.19999694824</ele>
        <time>2024-05-21T10:28:45.000Z</time>
      </trkpt>
      <trkpt lat="45.07129" lon="4.82539">
        <ele>122.19999694824</ele>
        <time>2024-05-21T10:28:46.000Z</time>
      </trkpt>
      <trkpt lat="45.07126" lon="4.82546">
        <ele>122.40000152588</ele>
        <time>2024-05-21T10:28:47.000Z</time>
      </trkpt>
      <trkpt lat="45.07124" lon="4.82553">
        <ele>122.40000152588</ele>
        <time>2024-05-21T10:28:48.000Z</time>
      </trkpt>
      <trkpt lat="45.07122" lon="4.8256">
        <ele>122.40000152588</ele>
        <time>2024-05-21T10:28:49.000Z</time>
      </trkpt>
      <trkpt lat="45.07119" lon="4.82566">
        <ele>122.40000152588</ele>
        <time>2024-05-21T10:28:50.000Z</time>
      </trkpt>
      <trkpt lat="45.07117" lon="4.82573">
        <ele>122.40000152588</ele>
        <time>2024-05-21T10:28:51.000Z</time>
      </trkpt>
      <trkpt lat="45.07115" lon="4.8258">
        <ele>122.40000152588</ele>
        <time>2024-05-21T10:28:52.000Z</time>
      </trkpt>
      <trkpt lat="45.07113" lon="4.82586">
        <ele>122.19999694824</ele>
        <time>2024-05-21T10:28:53.000Z</time>
      </trkpt>
      <trkpt lat="45.0711" lon="4.82593">
        <ele>122.19999694824</ele>
        <time>2024-05-21T10:28:54.000Z</time>
      </trkpt>
      <trkpt lat="45.07108" lon="4.826">
        <ele>122.19999694824</ele>
        <time>2024-05-21T10:28:55.000Z</time>
      </trkpt>
      <trkpt lat="45.07106" lon="4.82607">
        <ele>122</ele>
        <time>2024-05-21T10:28:56.000Z</time>
      </trkpt>
      <trkpt lat="45.07104" lon="4.82614">
        <ele>122</ele>
        <time>2024-05-21T10:28:57.000Z</time>
      </trkpt>
      <trkpt lat="45.07101" lon="4.82621">
        <ele>122</ele>
        <time>2024-05-21T10:28:58.000Z</time>
      </trkpt>
      <trkpt lat="45.07099" lon="4.82627">
        <ele>122</ele>
        <time>2024-05-21T10:28:59.000Z</time>
      </trkpt>
      <trkpt lat="45.07097" lon="4.82634">
        <ele>122</ele>
        <time>2024-05-21T10:29:00.000Z</time>
      </trkpt>
      <trkpt lat="45.07094" lon="4.8264">
        <ele>122</ele>
        <time>2024-05-21T10:29:01.000Z</time>
      </trkpt>
      <trkpt lat="45.07092" lon="4.82647">
        <ele>122</ele>
        <time>2024-05-21T10:29:02.000Z</time>
      </trkpt>
      <trkpt lat="45.0709" lon="4.82654">
        <ele>122</ele>
        <time>2024-05-21T10:29:03.000Z</time>
      </trkpt>
      <trkpt lat="45.07088" lon="4.8266">
        <ele>122</ele>
        <time>2024-05-21T10:29:04.000Z</time>
      </trkpt>
      <trkpt lat="45.07086" lon="4.82666">
        <ele>122</ele>
        <time>2024-05-21T10:29:05.000Z</time>
      </trkpt>
      <trkpt lat="45.07084" lon="4.82673">
        <ele>122</ele>
        <time>2024-05-21T10:29:06.000Z</time>
      </trkpt>
      <trkpt lat="45.07082" lon="4.82679">
        <ele>122</ele>
        <time>2024-05-21T10:29:07.000Z</time>
      </trkpt>
      <trkpt lat="45.0708" lon="4.82685">
        <ele>122.19999694824</ele>
        <time>2024-05-21T10:29:08.000Z</time>
      </trkpt>
      <trkpt lat="45.07078" lon="4.82691">
        <ele>122.19999694824</ele>
        <time>2024-05-21T10:29:09.000Z</time>
      </trkpt>
      <trkpt lat="45.07076" lon="4.82698">
        <ele>122.19999694824</ele>
        <time>2024-05-21T10:29:10.000Z</time>
      </trkpt>
      <trkpt lat="45.07073" lon="4.82704">
        <ele>122.19999694824</ele>
        <time>2024-05-21T10:29:11.000Z</time>
      </trkpt>
      <trkpt lat="45.07071" lon="4.8271">
        <ele>122.40000152588</ele>
        <time>2024-05-21T10:29:12.000Z</time>
      </trkpt>
      <trkpt lat="45.07069" lon="4.82716">
        <ele>122.40000152588</ele>
        <time>2024-05-21T10:29:13.000Z</time>
      </trkpt>
      <trkpt lat="45.07066" lon="4.82722">
        <ele>122.40000152588</ele>
        <time>2024-05-21T10:29:14.000Z</time>
      </trkpt>
      <trkpt lat="45.07064" lon="4.82728">
        <ele>122.40000152588</ele>
        <time>2024-05-21T10:29:15.000Z</time>
      </trkpt>
      <trkpt lat="45.07061" lon="4.82734">
        <ele>122.40000152588</ele>
        <time>2024-05-21T10:29:16.000Z</time>
      </trkpt>
      <trkpt lat="45.07058" lon="4.82739">
        <ele>122.40000152588</ele>
        <time>2024-05-21T10:29:17.000Z</time>
      </trkpt>
      <trkpt lat="45.07055" lon="4.82745">
        <ele>122.19999694824</ele>
        <time>2024-05-21T10:29:18.000Z</time>
      </trkpt>
      <trkpt lat="45.07052" lon="4.82751">
        <ele>122.19999694824</ele>
        <time>2024-05-21T10:29:19.000Z</time>
      </trkpt>
      <trkpt lat="45.07048" lon="4.82756">
        <ele>122.19999694824</ele>
        <time>2024-05-21T10:29:20.000Z</time>
      </trkpt>
      <trkpt lat="45.07045" lon="4.82762">
        <ele>122</ele>
        <time>2024-05-21T10:29:21.000Z</time>
      </trkpt>
      <trkpt lat="45.07042" lon="4.82768">
        <ele>122</ele>
        <time>2024-05-21T10:29:22.000Z</time>
      </trkpt>
      <trkpt lat="45.07038" lon="4.82773">
        <ele>121.80000305176</ele>
        <time>2024-05-21T10:29:23.000Z</time>
      </trkpt>
      <trkpt lat="45.07034" lon="4.82778">
        <ele>121.80000305176</ele>
        <time>2024-05-21T10:29:24.000Z</time>
      </trkpt>
      <trkpt lat="45.07031" lon="4.82783">
        <ele>121.59999847412</ele>
        <time>2024-05-21T10:29:25.000Z</time>
      </trkpt>
      <trkpt lat="45.07027" lon="4.82789">
        <ele>121.59999847412</ele>
        <time>2024-05-21T10:29:26.000Z</time>
      </trkpt>
      <trkpt lat="45.07023" lon="4.82794">
        <ele>121.59999847412</ele>
        <time>2024-05-21T10:29:27.000Z</time>
      </trkpt>
      <trkpt lat="45.07019" lon="4.82799">
        <ele>121.59999847412</ele>
        <time>2024-05-21T10:29:28.000Z</time>
      </trkpt>
      <trkpt lat="45.07016" lon="4.82805">
        <ele>121.59999847412</ele>
        <time>2024-05-21T10:29:29.000Z</time>
      </trkpt>
      <trkpt lat="45.07012" lon="4.82809">
        <ele>121.80000305176</ele>
        <time>2024-05-21T10:29:30.000Z</time>
      </trkpt>
      <trkpt lat="45.07008" lon="4.82814">
        <ele>121.80000305176</ele>
        <time>2024-05-21T10:29:31.000Z</time>
      </trkpt>
      <trkpt lat="45.07004" lon="4.82819">
        <ele>121.80000305176</ele>
        <time>2024-05-21T10:29:32.000Z</time>
      </trkpt>
      <trkpt lat="45.07" lon="4.82825">
        <ele>122</ele>
        <time>2024-05-21T10:29:33.000Z</time>
      </trkpt>
      <trkpt lat="45.06997" lon="4.8283">
        <ele>122</ele>
        <time>2024-05-21T10:29:34.000Z</time>
      </trkpt>
      <trkpt lat="45.06993" lon="4.82835">
        <ele>122</ele>
        <time>2024-05-21T10:29:35.000Z</time>
      </trkpt>
      <trkpt lat="45.0699" lon="4.82841">
        <ele>122</ele>
        <time>2024-05-21T10:29:36.000Z</time>
      </trkpt>
      <trkpt lat="45.06987" lon="4.82846">
        <ele>122</ele>
        <time>2024-05-21T10:29:37.000Z</time>
      </trkpt>
      <trkpt lat="45.06983" lon="4.82851">
        <ele>122</ele>
        <time>2024-05-21T10:29:38.000Z</time>
      </trkpt>
      <trkpt lat="45.0698" lon="4.82857">
        <ele>122</ele>
        <time>2024-05-21T10:29:39.000Z</time>
      </trkpt>
      <trkpt lat="45.06976" lon="4.82862">
        <ele>122</ele>
        <time>2024-05-21T10:29:40.000Z</time>
      </trkpt>
      <trkpt lat="45.06972" lon="4.82867">
        <ele>122</ele>
        <time>2024-05-21T10:29:41.000Z</time>
      </trkpt>
      <trkpt lat="45.06968" lon="4.82872">
        <ele>122</ele>
        <time>2024-05-21T10:29:42.000Z</time>
      </trkpt>
      <trkpt lat="45.06964" lon="4.82877">
        <ele>122</ele>
        <time>2024-05-21T10:29:43.000Z</time>
      </trkpt>
      <trkpt lat="45.0696" lon="4.82882">
        <ele>122</ele>
        <time>2024-05-21T10:29:44.000Z</time>
      </trkpt>
      <trkpt lat="45.06956" lon="4.82887">
        <ele>122.19999694824</ele>
        <time>2024-05-21T10:29:45.000Z</time>
      </trkpt>
      <trkpt lat="45.06952" lon="4.82892">
        <ele>122.19999694824</ele>
        <time>2024-05-21T10:29:46.000Z</time>
      </trkpt>
      <trkpt lat="45.06949" lon="4.82896">
        <ele>122.19999694824</ele>
        <time>2024-05-21T10:29:47.000Z</time>
      </trkpt>
      <trkpt lat="45.06945" lon="4.82901">
        <ele>122.19999694824</ele>
        <time>2024-05-21T10:29:48.000Z</time>
      </trkpt>
      <trkpt lat="45.06941" lon="4.82906">
        <ele>122.19999694824</ele>
        <time>2024-05-21T10:29:49.000Z</time>
      </trkpt>
      <trkpt lat="45.06937" lon="4.82911">
        <ele>122.40000152588</ele>
        <time>2024-05-21T10:29:50.000Z</time>
      </trkpt>
      <trkpt lat="45.06933" lon="4.82916">
        <ele>122.40000152588</ele>
        <time>2024-05-21T10:29:51.000Z</time>
      </trkpt>
      <trkpt lat="45.0693" lon="4.82921">
        <ele>122.40000152588</ele>
        <time>2024-05-21T10:29:52.000Z</time>
      </trkpt>
      <trkpt lat="45.06926" lon="4.82926">
        <ele>122.40000152588</ele>
        <time>2024-05-21T10:29:53.000Z</time>
      </trkpt>
      <trkpt lat="45.06922" lon="4.82932">
        <ele>122.19999694824</ele>
        <time>2024-05-21T10:29:54.000Z</time>
      </trkpt>
      <trkpt lat="45.06919" lon="4.82937">
        <ele>122.19999694824</ele>
        <time>2024-05-21T10:29:55.000Z</time>
      </trkpt>
      <trkpt lat="45.06915" lon="4.82943">
        <ele>122.19999694824</ele>
        <time>2024-05-21T10:29:56.000Z</time>
      </trkpt>
      <trkpt lat="45.06912" lon="4.82948">
        <ele>122</ele>
        <time>2024-05-21T10:29:57.000Z</time>
      </trkpt>
      <trkpt lat="45.06908" lon="4.82953">
        <ele>122</ele>
        <time>2024-05-21T10:29:58.000Z</time>
      </trkpt>
      <trkpt lat="45.06905" lon="4.82958">
        <ele>122</ele>
        <time>2024-05-21T10:29:59.000Z</time>
      </trkpt>
      <trkpt lat="45.06901" lon="4.82964">
        <ele>122</ele>
        <time>2024-05-21T10:30:00.000Z</time>
      </trkpt>
      <trkpt lat="45.06898" lon="4.8297">
        <ele>122</ele>
        <time>2024-05-21T10:30:01.000Z</time>
      </trkpt>
      <trkpt lat="45.06895" lon="4.82976">
        <ele>122</ele>
        <time>2024-05-21T10:30:02.000Z</time>
      </trkpt>
      <trkpt lat="45.06893" lon="4.82982">
        <ele>122.19999694824</ele>
        <time>2024-05-21T10:30:03.000Z</time>
      </trkpt>
      <trkpt lat="45.0689" lon="4.82988">
        <ele>122.19999694824</ele>
        <time>2024-05-21T10:30:04.000Z</time>
      </trkpt>
      <trkpt lat="45.06888" lon="4.82995">
        <ele>122.19999694824</ele>
        <time>2024-05-21T10:30:05.000Z</time>
      </trkpt>
      <trkpt lat="45.06886" lon="4.83002">
        <ele>122.19999694824</ele>
        <time>2024-05-21T10:30:06.000Z</time>
      </trkpt>
      <trkpt lat="45.06885" lon="4.83009">
        <ele>122.19999694824</ele>
        <time>2024-05-21T10:30:07.000Z</time>
      </trkpt>
      <trkpt lat="45.06883" lon="4.83016">
        <ele>122.40000152588</ele>
        <time>2024-05-21T10:30:08.000Z</time>
      </trkpt>
      <trkpt lat="45.06882" lon="4.83022">
        <ele>122.40000152588</ele>
        <time>2024-05-21T10:30:09.000Z</time>
      </trkpt>
      <trkpt lat="45.0688" lon="4.8303">
        <ele>122.40000152588</ele>
        <time>2024-05-21T10:30:10.000Z</time>
      </trkpt>
      <trkpt lat="45.06878" lon="4.83038">
        <ele>122.40000152588</ele>
        <time>2024-05-21T10:30:11.000Z</time>
      </trkpt>
      <trkpt lat="45.06877" lon="4.83044">
        <ele>122.59999847412</ele>
        <time>2024-05-21T10:30:12.000Z</time>
      </trkpt>
      <trkpt lat="45.06876" lon="4.83051">
        <ele>122.59999847412</ele>
        <time>2024-05-21T10:30:13.000Z</time>
      </trkpt>
      <trkpt lat="45.06875" lon="4.83058">
        <ele>122.59999847412</ele>
        <time>2024-05-21T10:30:14.000Z</time>
      </trkpt>
      <trkpt lat="45.06874" lon="4.83064">
        <ele>122.59999847412</ele>
        <time>2024-05-21T10:30:15.000Z</time>
      </trkpt>
      <trkpt lat="45.06873" lon="4.83071">
        <ele>122.59999847412</ele>
        <time>2024-05-21T10:30:16.000Z</time>
      </trkpt>
      <trkpt lat="45.06872" lon="4.83078">
        <ele>122.80000305176</ele>
        <time>2024-05-21T10:30:17.000Z</time>
      </trkpt>
      <trkpt lat="45.06872" lon="4.83085">
        <ele>122.80000305176</ele>
        <time>2024-05-21T10:30:18.000Z</time>
      </trkpt>
      <trkpt lat="45.06871" lon="4.83093">
        <ele>123</ele>
        <time>2024-05-21T10:30:19.000Z</time>
      </trkpt>
      <trkpt lat="45.06871" lon="4.831">
        <ele>123.19999694824</ele>
        <time>2024-05-21T10:30:20.000Z</time>
      </trkpt>
      <trkpt lat="45.06871" lon="4.83107">
        <ele>123.19999694824</ele>
        <time>2024-05-21T10:30:21.000Z</time>
      </trkpt>
      <trkpt lat="45.06872" lon="4.83115">
        <ele>123.59999847412</ele>
        <time>2024-05-21T10:30:22.000Z</time>
      </trkpt>
      <trkpt lat="45.06872" lon="4.83122">
        <ele>123.59999847412</ele>
        <time>2024-05-21T10:30:23.000Z</time>
      </trkpt>
      <trkpt lat="45.06872" lon="4.83129">
        <ele>123.59999847412</ele>
        <time>2024-05-21T10:30:24.000Z</time>
      </trkpt>
      <trkpt lat="45.06873" lon="4.83136">
        <ele>123.80000305176</ele>
        <time>2024-05-21T10:30:25.000Z</time>
      </trkpt>
      <trkpt lat="45.06873" lon="4.83143">
        <ele>123.80000305176</ele>
        <time>2024-05-21T10:30:26.000Z</time>
      </trkpt>
      <trkpt lat="45.06873" lon="4.83151">
        <ele>123.80000305176</ele>
        <time>2024-05-21T10:30:27.000Z</time>
      </trkpt>
      <trkpt lat="45.06874" lon="4.83159">
        <ele>124</ele>
        <time>2024-05-21T10:30:28.000Z</time>
      </trkpt>
      <trkpt lat="45.06874" lon="4.83166">
        <ele>124</ele>
        <time>2024-05-21T10:30:29.000Z</time>
      </trkpt>
      <trkpt lat="45.06875" lon="4.83174">
        <ele>124</ele>
        <time>2024-05-21T10:30:30.000Z</time>
      </trkpt>
      <trkpt lat="45.06875" lon="4.83181">
        <ele>124</ele>
        <time>2024-05-21T10:30:31.000Z</time>
      </trkpt>
      <trkpt lat="45.06875" lon="4.83189">
        <ele>124</ele>
        <time>2024-05-21T10:30:32.000Z</time>
      </trkpt>
      <trkpt lat="45.06875" lon="4.83196">
        <ele>123.80000305176</ele>
        <time>2024-05-21T10:30:33.000Z</time>
      </trkpt>
      <trkpt lat="45.06875" lon="4.83204">
        <ele>123.80000305176</ele>
        <time>2024-05-21T10:30:34.000Z</time>
      </trkpt>
      <trkpt lat="45.06875" lon="4.8321">
        <ele>123.59999847412</ele>
        <time>2024-05-21T10:30:35.000Z</time>
      </trkpt>
      <trkpt lat="45.06875" lon="4.83217">
        <ele>123.59999847412</ele>
        <time>2024-05-21T10:30:36.000Z</time>
      </trkpt>
      <trkpt lat="45.06875" lon="4.83224">
        <ele>123.59999847412</ele>
        <time>2024-05-21T10:30:37.000Z</time>
      </trkpt>
      <trkpt lat="45.06875" lon="4.8323">
        <ele>123.59999847412</ele>
        <time>2024-05-21T10:30:38.000Z</time>
      </trkpt>
      <trkpt lat="45.06874" lon="4.83236">
        <ele>123.59999847412</ele>
        <time>2024-05-21T10:30:39.000Z</time>
      </trkpt>
      <trkpt lat="45.06873" lon="4.83242">
        <ele>123.59999847412</ele>
        <time>2024-05-21T10:30:40.000Z</time>
      </trkpt>
      <trkpt lat="45.06873" lon="4.83248">
        <ele>123.59999847412</ele>
        <time>2024-05-21T10:30:41.000Z</time>
      </trkpt>
      <trkpt lat="45.06872" lon="4.83253">
        <ele>123.59999847412</ele>
        <time>2024-05-21T10:30:42.000Z</time>
      </trkpt>
      <trkpt lat="45.06871" lon="4.83258">
        <ele>123.59999847412</ele>
        <time>2024-05-21T10:30:43.000Z</time>
      </trkpt>
      <trkpt lat="45.0687" lon="4.83263">
        <ele>123.59999847412</ele>
        <time>2024-05-21T10:30:44.000Z</time>
      </trkpt>
      <trkpt lat="45.0687" lon="4.83268">
        <ele>123.59999847412</ele>
        <time>2024-05-21T10:30:45.000Z</time>
      </trkpt>
      <trkpt lat="45.0687" lon="4.83272">
        <ele>123.40000152588</ele>
        <time>2024-05-21T10:30:46.000Z</time>
      </trkpt>
      <trkpt lat="45.06869" lon="4.83277">
        <ele>123.40000152588</ele>
        <time>2024-05-21T10:30:47.000Z</time>
      </trkpt>
      <trkpt lat="45.06869" lon="4.83281">
        <ele>123.40000152588</ele>
        <time>2024-05-21T10:30:48.000Z</time>
      </trkpt>
      <trkpt lat="45.06869" lon="4.83285">
        <ele>123.40000152588</ele>
        <time>2024-05-21T10:30:49.000Z</time>
      </trkpt>
      <trkpt lat="45.06868" lon="4.8329">
        <ele>123.59999847412</ele>
        <time>2024-05-21T10:30:50.000Z</time>
      </trkpt>
      <trkpt lat="45.06867" lon="4.83294">
        <ele>123.80000305176</ele>
        <time>2024-05-21T10:30:51.000Z</time>
      </trkpt>
      <trkpt lat="45.06866" lon="4.83298">
        <ele>124</ele>
        <time>2024-05-21T10:30:52.000Z</time>
      </trkpt>
      <trkpt lat="45.06864" lon="4.83303">
        <ele>124</ele>
        <time>2024-05-21T10:30:53.000Z</time>
      </trkpt>
      <trkpt lat="45.06862" lon="4.83309">
        <ele>124</ele>
        <time>2024-05-21T10:30:54.000Z</time>
      </trkpt>
      <trkpt lat="45.0686" lon="4.83314">
        <ele>124</ele>
        <time>2024-05-21T10:30:55.000Z</time>
      </trkpt>
      <trkpt lat="45.06859" lon="4.83319">
        <ele>124</ele>
        <time>2024-05-21T10:30:56.000Z</time>
      </trkpt>
      <trkpt lat="45.06856" lon="4.83325">
        <ele>124</ele>
        <time>2024-05-21T10:30:57.000Z</time>
      </trkpt>
      <trkpt lat="45.06854" lon="4.8333">
        <ele>124</ele>
        <time>2024-05-21T10:30:58.000Z</time>
      </trkpt>
      <trkpt lat="45.06852" lon="4.83335">
        <ele>124</ele>
        <time>2024-05-21T10:30:59.000Z</time>
      </trkpt>
      <trkpt lat="45.06849" lon="4.83341">
        <ele>123.80000305176</ele>
        <time>2024-05-21T10:31:00.000Z</time>
      </trkpt>
      <trkpt lat="45.06847" lon="4.83346">
        <ele>123.80000305176</ele>
        <time>2024-05-21T10:31:01.000Z</time>
      </trkpt>
      <trkpt lat="45.06844" lon="4.8335">
        <ele>123.80000305176</ele>
        <time>2024-05-21T10:31:02.000Z</time>
      </trkpt>
      <trkpt lat="45.06842" lon="4.83354">
        <ele>123.80000305176</ele>
        <time>2024-05-21T10:31:03.000Z</time>
      </trkpt>
      <trkpt lat="45.06839" lon="4.83358">
        <ele>123.80000305176</ele>
        <time>2024-05-21T10:31:04.000Z</time>
      </trkpt>
      <trkpt lat="45.06837" lon="4.83363">
        <ele>123.80000305176</ele>
        <time>2024-05-21T10:31:05.000Z</time>
      </trkpt>
      <trkpt lat="45.06833" lon="4.83367">
        <ele>123.80000305176</ele>
        <time>2024-05-21T10:31:06.000Z</time>
      </trkpt>
      <trkpt lat="45.0683" lon="4.83372">
        <ele>123.59999847412</ele>
        <time>2024-05-21T10:31:07.000Z</time>
      </trkpt>
      <trkpt lat="45.06828" lon="4.83378">
        <ele>123.59999847412</ele>
        <time>2024-05-21T10:31:08.000Z</time>
      </trkpt>
      <trkpt lat="45.06825" lon="4.83383">
        <ele>123.40000152588</ele>
        <time>2024-05-21T10:31:09.000Z</time>
      </trkpt>
      <trkpt lat="45.06822" lon="4.83388">
        <ele>123.40000152588</ele>
        <time>2024-05-21T10:31:10.000Z</time>
      </trkpt>
      <trkpt lat="45.06819" lon="4.83392">
        <ele>123.40000152588</ele>
        <time>2024-05-21T10:31:11.000Z</time>
      </trkpt>
      <trkpt lat="45.06817" lon="4.83397">
        <ele>123.40000152588</ele>
        <time>2024-05-21T10:31:12.000Z</time>
      </trkpt>
      <trkpt lat="45.06814" lon="4.83402">
        <ele>123.40000152588</ele>
        <time>2024-05-21T10:31:13.000Z</time>
      </trkpt>
      <trkpt lat="45.06811" lon="4.83407">
        <ele>123.59999847412</ele>
        <time>2024-05-21T10:31:14.000Z</time>
      </trkpt>
      <trkpt lat="45.06809" lon="4.83412">
        <ele>123.80000305176</ele>
        <time>2024-05-21T10:31:15.000Z</time>
      </trkpt>
      <trkpt lat="45.06806" lon="4.83417">
        <ele>123.80000305176</ele>
        <time>2024-05-21T10:31:16.000Z</time>
      </trkpt>
      <trkpt lat="45.06804" lon="4.83422">
        <ele>123.80000305176</ele>
        <time>2024-05-21T10:31:17.000Z</time>
      </trkpt>
      <trkpt lat="45.06801" lon="4.83426">
        <ele>123.80000305176</ele>
        <time>2024-05-21T10:31:18.000Z</time>
      </trkpt>
      <trkpt lat="45.06798" lon="4.83431">
        <ele>124</ele>
        <time>2024-05-21T10:31:19.000Z</time>
      </trkpt>
      <trkpt lat="45.06796" lon="4.83435">
        <ele>124</ele>
        <time>2024-05-21T10:31:20.000Z</time>
      </trkpt>
      <trkpt lat="45.06793" lon="4.8344">
        <ele>124.19999694824</ele>
        <time>2024-05-21T10:31:21.000Z</time>
      </trkpt>
      <trkpt lat="45.06791" lon="4.83444">
        <ele>124.40000152588</ele>
        <time>2024-05-21T10:31:22.000Z</time>
      </trkpt>
      <trkpt lat="45.06789" lon="4.83449">
        <ele>124.59999847412</ele>
        <time>2024-05-21T10:31:23.000Z</time>
      </trkpt>
      <trkpt lat="45.06788" lon="4.83454">
        <ele>124.80000305176</ele>
        <time>2024-05-21T10:31:24.000Z</time>
      </trkpt>
      <trkpt lat="45.06788" lon="4.83458">
        <ele>125</ele>
        <time>2024-05-21T10:31:25.000Z</time>
      </trkpt>
      <trkpt lat="45.06787" lon="4.8346">
        <ele>125</ele>
        <time>2024-05-21T10:31:26.000Z</time>
      </trkpt>
      <trkpt lat="45.06787" lon="4.83463">
        <ele>125.59999847412</ele>
        <time>2024-05-21T10:31:27.000Z</time>
      </trkpt>
      <trkpt lat="45.06786" lon="4.83465">
        <ele>125.80000305176</ele>
        <time>2024-05-21T10:31:28.000Z</time>
      </trkpt>
      <trkpt lat="45.06786" lon="4.83466">
        <ele>126</ele>
        <time>2024-05-21T10:31:29.000Z</time>
      </trkpt>
      <trkpt lat="45.06785" lon="4.83468">
        <ele>126</ele>
        <time>2024-05-21T10:31:30.000Z</time>
      </trkpt>
      <trkpt lat="45.06784" lon="4.8347">
        <ele>126.19999694824</ele>
        <time>2024-05-21T10:31:31.000Z</time>
      </trkpt>
      <trkpt lat="45.06783" lon="4.83472">
        <ele>126.19999694824</ele>
        <time>2024-05-21T10:31:32.000Z</time>
      </trkpt>
      <trkpt lat="45.06781" lon="4.83475">
        <ele>126.19999694824</ele>
        <time>2024-05-21T10:31:33.000Z</time>
      </trkpt>
      <trkpt lat="45.06779" lon="4.83477">
        <ele>126.19999694824</ele>
        <time>2024-05-21T10:31:34.000Z</time>
      </trkpt>
      <trkpt lat="45.06777" lon="4.8348">
        <ele>126.19999694824</ele>
        <time>2024-05-21T10:31:35.000Z</time>
      </trkpt>
      <trkpt lat="45.06774" lon="4.83484">
        <ele>126.19999694824</ele>
        <time>2024-05-21T10:31:36.000Z</time>
      </trkpt>
      <trkpt lat="45.06772" lon="4.83488">
        <ele>126</ele>
        <time>2024-05-21T10:31:37.000Z</time>
      </trkpt>
      <trkpt lat="45.06771" lon="4.83492">
        <ele>125.80000305176</ele>
        <time>2024-05-21T10:31:38.000Z</time>
      </trkpt>
      <trkpt lat="45.06769" lon="4.83496">
        <ele>125.59999847412</ele>
        <time>2024-05-21T10:31:39.000Z</time>
      </trkpt>
      <trkpt lat="45.06766" lon="4.83501">
        <ele>125.59999847412</ele>
        <time>2024-05-21T10:31:40.000Z</time>
      </trkpt>
      <trkpt lat="45.06764" lon="4.83506">
        <ele>125.40000152588</ele>
        <time>2024-05-21T10:31:41.000Z</time>
      </trkpt>
      <trkpt lat="45.06762" lon="4.83511">
        <ele>125.40000152588</ele>
        <time>2024-05-21T10:31:42.000Z</time>
      </trkpt>
      <trkpt lat="45.0676" lon="4.83516">
        <ele>125.40000152588</ele>
        <time>2024-05-21T10:31:43.000Z</time>
      </trkpt>
      <trkpt lat="45.06757" lon="4.83522">
        <ele>125.40000152588</ele>
        <time>2024-05-21T10:31:44.000Z</time>
      </trkpt>
      <trkpt lat="45.06755" lon="4.83527">
        <ele>125.19999694824</ele>
        <time>2024-05-21T10:31:45.000Z</time>
      </trkpt>
      <trkpt lat="45.06752" lon="4.83534">
        <ele>125.19999694824</ele>
        <time>2024-05-21T10:31:46.000Z</time>
      </trkpt>
      <trkpt lat="45.06749" lon="4.83539">
        <ele>125.19999694824</ele>
        <time>2024-05-21T10:31:47.000Z</time>
      </trkpt>
      <trkpt lat="45.06747" lon="4.83544">
        <ele>125.19999694824</ele>
        <time>2024-05-21T10:31:48.000Z</time>
      </trkpt>
      <trkpt lat="45.06745" lon="4.83549">
        <ele>125</ele>
        <time>2024-05-21T10:31:49.000Z</time>
      </trkpt>
      <trkpt lat="45.06742" lon="4.83555">
        <ele>125</ele>
        <time>2024-05-21T10:31:50.000Z</time>
      </trkpt>
      <trkpt lat="45.06739" lon="4.83561">
        <ele>125</ele>
        <time>2024-05-21T10:31:51.000Z</time>
      </trkpt>
      <trkpt lat="45.06736" lon="4.83567">
        <ele>125</ele>
        <time>2024-05-21T10:31:52.000Z</time>
      </trkpt>
      <trkpt lat="45.06733" lon="4.83573">
        <ele>125</ele>
        <time>2024-05-21T10:31:53.000Z</time>
      </trkpt>
      <trkpt lat="45.0673" lon="4.8358">
        <ele>125</ele>
        <time>2024-05-21T10:31:54.000Z</time>
      </trkpt>
      <trkpt lat="45.06727" lon="4.83587">
        <ele>125</ele>
        <time>2024-05-21T10:31:55.000Z</time>
      </trkpt>
      <trkpt lat="45.06724" lon="4.83593">
        <ele>125</ele>
        <time>2024-05-21T10:31:56.000Z</time>
      </trkpt>
      <trkpt lat="45.06721" lon="4.836">
        <ele>125</ele>
        <time>2024-05-21T10:31:57.000Z</time>
      </trkpt>
      <trkpt lat="45.06718" lon="4.83607">
        <ele>125</ele>
        <time>2024-05-21T10:31:58.000Z</time>
      </trkpt>
      <trkpt lat="45.06715" lon="4.83614">
        <ele>125</ele>
        <time>2024-05-21T10:31:59.000Z</time>
      </trkpt>
      <trkpt lat="45.06712" lon="4.8362">
        <ele>125</ele>
        <time>2024-05-21T10:32:00.000Z</time>
      </trkpt>
      <trkpt lat="45.0671" lon="4.83627">
        <ele>125</ele>
        <time>2024-05-21T10:32:01.000Z</time>
      </trkpt>
      <trkpt lat="45.06707" lon="4.83633">
        <ele>125</ele>
        <time>2024-05-21T10:32:02.000Z</time>
      </trkpt>
      <trkpt lat="45.06704" lon="4.8364">
        <ele>125</ele>
        <time>2024-05-21T10:32:03.000Z</time>
      </trkpt>
      <trkpt lat="45.06701" lon="4.83647">
        <ele>125</ele>
        <time>2024-05-21T10:32:04.000Z</time>
      </trkpt>
      <trkpt lat="45.06698" lon="4.83653">
        <ele>125</ele>
        <time>2024-05-21T10:32:05.000Z</time>
      </trkpt>
      <trkpt lat="45.06695" lon="4.8366">
        <ele>124.80000305176</ele>
        <time>2024-05-21T10:32:06.000Z</time>
      </trkpt>
      <trkpt lat="45.06692" lon="4.83667">
        <ele>124.80000305176</ele>
        <time>2024-05-21T10:32:07.000Z</time>
      </trkpt>
      <trkpt lat="45.06689" lon="4.83674">
        <ele>124.80000305176</ele>
        <time>2024-05-21T10:32:08.000Z</time>
      </trkpt>
      <trkpt lat="45.06686" lon="4.8368">
        <ele>124.80000305176</ele>
        <time>2024-05-21T10:32:09.000Z</time>
      </trkpt>
      <trkpt lat="45.06683" lon="4.83687">
        <ele>124.80000305176</ele>
        <time>2024-05-21T10:32:10.000Z</time>
      </trkpt>
      <trkpt lat="45.0668" lon="4.83694">
        <ele>124.80000305176</ele>
        <time>2024-05-21T10:32:11.000Z</time>
      </trkpt>
      <trkpt lat="45.06677" lon="4.83701">
        <ele>124.80000305176</ele>
        <time>2024-05-21T10:32:12.000Z</time>
      </trkpt>
      <trkpt lat="45.06674" lon="4.83708">
        <ele>125</ele>
        <time>2024-05-21T10:32:13.000Z</time>
      </trkpt>
      <trkpt lat="45.06671" lon="4.83715">
        <ele>125</ele>
        <time>2024-05-21T10:32:14.000Z</time>
      </trkpt>
      <trkpt lat="45.06668" lon="4.83722">
        <ele>125</ele>
        <time>2024-05-21T10:32:15.000Z</time>
      </trkpt>
      <trkpt lat="45.06665" lon="4.83729">
        <ele>125</ele>
        <time>2024-05-21T10:32:16.000Z</time>
      </trkpt>
      <trkpt lat="45.06662" lon="4.83736">
        <ele>125</ele>
        <time>2024-05-21T10:32:17.000Z</time>
      </trkpt>
      <trkpt lat="45.06659" lon="4.83743">
        <ele>124.80000305176</ele>
        <time>2024-05-21T10:32:18.000Z</time>
      </trkpt>
      <trkpt lat="45.06656" lon="4.83751">
        <ele>124.80000305176</ele>
        <time>2024-05-21T10:32:19.000Z</time>
      </trkpt>
      <trkpt lat="45.06653" lon="4.83758">
        <ele>124.80000305176</ele>
        <time>2024-05-21T10:32:20.000Z</time>
      </trkpt>
      <trkpt lat="45.0665" lon="4.83765">
        <ele>124.59999847412</ele>
        <time>2024-05-21T10:32:21.000Z</time>
      </trkpt>
      <trkpt lat="45.06647" lon="4.83772">
        <ele>124.40000152588</ele>
        <time>2024-05-21T10:32:22.000Z</time>
      </trkpt>
      <trkpt lat="45.06644" lon="4.83779">
        <ele>124.40000152588</ele>
        <time>2024-05-21T10:32:23.000Z</time>
      </trkpt>
      <trkpt lat="45.06641" lon="4.83786">
        <ele>124.19999694824</ele>
        <time>2024-05-21T10:32:24.000Z</time>
      </trkpt>
      <trkpt lat="45.06639" lon="4.83792">
        <ele>124.19999694824</ele>
        <time>2024-05-21T10:32:25.000Z</time>
      </trkpt>
      <trkpt lat="45.06636" lon="4.83799">
        <ele>124.19999694824</ele>
        <time>2024-05-21T10:32:26.000Z</time>
      </trkpt>
      <trkpt lat="45.06633" lon="4.83806">
        <ele>124.19999694824</ele>
        <time>2024-05-21T10:32:27.000Z</time>
      </trkpt>
      <trkpt lat="45.06631" lon="4.83812">
        <ele>124.19999694824</ele>
        <time>2024-05-21T10:32:28.000Z</time>
      </trkpt>
      <trkpt lat="45.06628" lon="4.83819">
        <ele>124.19999694824</ele>
        <time>2024-05-21T10:32:29.000Z</time>
      </trkpt>
      <trkpt lat="45.06625" lon="4.83826">
        <ele>124.19999694824</ele>
        <time>2024-05-21T10:32:30.000Z</time>
      </trkpt>
      <trkpt lat="45.06622" lon="4.83832">
        <ele>124.19999694824</ele>
        <time>2024-05-21T10:32:31.000Z</time>
      </trkpt>
      <trkpt lat="45.0662" lon="4.83839">
        <ele>124.19999694824</ele>
        <time>2024-05-21T10:32:32.000Z</time>
      </trkpt>
      <trkpt lat="45.06617" lon="4.83846">
        <ele>124.19999694824</ele>
        <time>2024-05-21T10:32:33.000Z</time>
      </trkpt>
      <trkpt lat="45.06615" lon="4.83852">
        <ele>124.19999694824</ele>
        <time>2024-05-21T10:32:34.000Z</time>
      </trkpt>
      <trkpt lat="45.06612" lon="4.83859">
        <ele>124.19999694824</ele>
        <time>2024-05-21T10:32:35.000Z</time>
      </trkpt>
      <trkpt lat="45.06609" lon="4.83866">
        <ele>124.19999694824</ele>
        <time>2024-05-21T10:32:36.000Z</time>
      </trkpt>
      <trkpt lat="45.06607" lon="4.83873">
        <ele>124.19999694824</ele>
        <time>2024-05-21T10:32:37.000Z</time>
      </trkpt>
      <trkpt lat="45.06603" lon="4.8388">
        <ele>124.19999694824</ele>
        <time>2024-05-21T10:32:38.000Z</time>
      </trkpt>
      <trkpt lat="45.06601" lon="4.83887">
        <ele>124.19999694824</ele>
        <time>2024-05-21T10:32:39.000Z</time>
      </trkpt>
      <trkpt lat="45.06598" lon="4.83894">
        <ele>124</ele>
        <time>2024-05-21T10:32:40.000Z</time>
      </trkpt>
      <trkpt lat="45.06596" lon="4.83901">
        <ele>124</ele>
        <time>2024-05-21T10:32:41.000Z</time>
      </trkpt>
      <trkpt lat="45.06594" lon="4.83908">
        <ele>124</ele>
        <time>2024-05-21T10:32:42.000Z</time>
      </trkpt>
      <trkpt lat="45.06592" lon="4.83915">
        <ele>123.80000305176</ele>
        <time>2024-05-21T10:32:43.000Z</time>
      </trkpt>
      <trkpt lat="45.06589" lon="4.83921">
        <ele>123.80000305176</ele>
        <time>2024-05-21T10:32:44.000Z</time>
      </trkpt>
      <trkpt lat="45.06587" lon="4.83928">
        <ele>123.80000305176</ele>
        <time>2024-05-21T10:32:45.000Z</time>
      </trkpt>
      <trkpt lat="45.06584" lon="4.83934">
        <ele>123.80000305176</ele>
        <time>2024-05-21T10:32:46.000Z</time>
      </trkpt>
      <trkpt lat="45.06582" lon="4.8394">
        <ele>123.80000305176</ele>
        <time>2024-05-21T10:32:47.000Z</time>
      </trkpt>
      <trkpt lat="45.0658" lon="4.83946">
        <ele>124</ele>
        <time>2024-05-21T10:32:48.000Z</time>
      </trkpt>
      <trkpt lat="45.06578" lon="4.83951">
        <ele>124</ele>
        <time>2024-05-21T10:32:49.000Z</time>
      </trkpt>
      <trkpt lat="45.06576" lon="4.83957">
        <ele>124.19999694824</ele>
        <time>2024-05-21T10:32:50.000Z</time>
      </trkpt>
      <trkpt lat="45.06574" lon="4.83962">
        <ele>124.19999694824</ele>
        <time>2024-05-21T10:32:51.000Z</time>
      </trkpt>
      <trkpt lat="45.06572" lon="4.83968">
        <ele>124.40000152588</ele>
        <time>2024-05-21T10:32:52.000Z</time>
      </trkpt>
      <trkpt lat="45.06571" lon="4.83973">
        <ele>124.40000152588</ele>
        <time>2024-05-21T10:32:53.000Z</time>
      </trkpt>
      <trkpt lat="45.06569" lon="4.83978">
        <ele>124.59999847412</ele>
        <time>2024-05-21T10:32:54.000Z</time>
      </trkpt>
      <trkpt lat="45.06568" lon="4.83983">
        <ele>124.59999847412</ele>
        <time>2024-05-21T10:32:55.000Z</time>
      </trkpt>
      <trkpt lat="45.06567" lon="4.83987">
        <ele>124.59999847412</ele>
        <time>2024-05-21T10:32:56.000Z</time>
      </trkpt>
      <trkpt lat="45.06567" lon="4.83992">
        <ele>124.80000305176</ele>
        <time>2024-05-21T10:32:57.000Z</time>
      </trkpt>
      <trkpt lat="45.06568" lon="4.83996">
        <ele>125</ele>
        <time>2024-05-21T10:32:58.000Z</time>
      </trkpt>
      <trkpt lat="45.06569" lon="4.83999">
        <ele>125.19999694824</ele>
        <time>2024-05-21T10:32:59.000Z</time>
      </trkpt>
      <trkpt lat="45.0657" lon="4.84002">
        <ele>125.40000152588</ele>
        <time>2024-05-21T10:33:00.000Z</time>
      </trkpt>
      <trkpt lat="45.06572" lon="4.84004">
        <ele>125.40000152588</ele>
        <time>2024-05-21T10:33:01.000Z</time>
      </trkpt>
      <trkpt lat="45.06573" lon="4.84006">
        <ele>125.59999847412</ele>
        <time>2024-05-21T10:33:02.000Z</time>
      </trkpt>
      <trkpt lat="45.06574" lon="4.84008">
        <ele>125.59999847412</ele>
        <time>2024-05-21T10:33:03.000Z</time>
      </trkpt>
      <trkpt lat="45.06574" lon="4.84009">
        <ele>125.80000305176</ele>
        <time>2024-05-21T10:33:04.000Z</time>
      </trkpt>
      <trkpt lat="45.06574" lon="4.84009">
        <ele>126</ele>
        <time>2024-05-21T10:33:05.000Z</time>
      </trkpt>
      <trkpt lat="45.06574" lon="4.84009">
        <ele>126</ele>
        <time>2024-05-21T10:33:06.000Z</time>
      </trkpt>
      <trkpt lat="45.06572" lon="4.84014">
        <ele>126</ele>
        <time>2024-05-21T10:33:11.000Z</time>
      </trkpt>
      <trkpt lat="45.06571" lon="4.84016">
        <ele>126.19999694824</ele>
        <time>2024-05-21T10:33:12.000Z</time>
      </trkpt>
      <trkpt lat="45.0657" lon="4.84018">
        <ele>126.19999694824</ele>
        <time>2024-05-21T10:33:13.000Z</time>
      </trkpt>
      <trkpt lat="45.0657" lon="4.8402">
        <ele>126.19999694824</ele>
        <time>2024-05-21T10:33:14.000Z</time>
      </trkpt>
      <trkpt lat="45.0657" lon="4.84022">
        <ele>126.19999694824</ele>
        <time>2024-05-21T10:33:15.000Z</time>
      </trkpt>
      <trkpt lat="45.0657" lon="4.84022">
        <ele>126.19999694824</ele>
        <time>2024-05-21T10:33:16.000Z</time>
      </trkpt>
      <trkpt lat="45.0657" lon="4.84022">
        <ele>126.19999694824</ele>
        <time>2024-05-21T10:33:17.000Z</time>
      </trkpt>
      <trkpt lat="45.06565" lon="4.8402">
        <ele>125.59999847412</ele>
        <time>2024-05-21T10:34:45.000Z</time>
      </trkpt>
      <trkpt lat="45.06563" lon="4.8402">
        <ele>125.59999847412</ele>
        <time>2024-05-21T10:34:46.000Z</time>
      </trkpt>
      <trkpt lat="45.06561" lon="4.84021">
        <ele>125.59999847412</ele>
        <time>2024-05-21T10:34:47.000Z</time>
      </trkpt>
      <trkpt lat="45.06559" lon="4.84023">
        <ele>125.40000152588</ele>
        <time>2024-05-21T10:34:48.000Z</time>
      </trkpt>
      <trkpt lat="45.06557" lon="4.84026">
        <ele>125.40000152588</ele>
        <time>2024-05-21T10:34:49.000Z</time>
      </trkpt>
      <trkpt lat="45.06555" lon="4.8403">
        <ele>125.19999694824</ele>
        <time>2024-05-21T10:34:50.000Z</time>
      </trkpt>
      <trkpt lat="45.06553" lon="4.84035">
        <ele>125</ele>
        <time>2024-05-21T10:34:51.000Z</time>
      </trkpt>
      <trkpt lat="45.06552" lon="4.8404">
        <ele>124.80000305176</ele>
        <time>2024-05-21T10:34:52.000Z</time>
      </trkpt>
      <trkpt lat="45.06551" lon="4.84045">
        <ele>124.59999847412</ele>
        <time>2024-05-21T10:34:53.000Z</time>
      </trkpt>
      <trkpt lat="45.0655" lon="4.84051">
        <ele>124.40000152588</ele>
        <time>2024-05-21T10:34:54.000Z</time>
      </trkpt>
      <trkpt lat="45.06549" lon="4.84057">
        <ele>124.19999694824</ele>
        <time>2024-05-21T10:34:55.000Z</time>
      </trkpt>
      <trkpt lat="45.06547" lon="4.84063">
        <ele>124</ele>
        <time>2024-05-21T10:34:56.000Z</time>
      </trkpt>
      <trkpt lat="45.06546" lon="4.84069">
        <ele>123.80000305176</ele>
        <time>2024-05-21T10:34:57.000Z</time>
      </trkpt>
      <trkpt lat="45.06544" lon="4.84075">
        <ele>123.59999847412</ele>
        <time>2024-05-21T10:34:58.000Z</time>
      </trkpt>
      <trkpt lat="45.06543" lon="4.84082">
        <ele>123.19999694824</ele>
        <time>2024-05-21T10:34:59.000Z</time>
      </trkpt>
      <trkpt lat="45.06541" lon="4.84089">
        <ele>123.19999694824</ele>
        <time>2024-05-21T10:35:00.000Z</time>
      </trkpt>
      <trkpt lat="45.06539" lon="4.84095">
        <ele>123.19999694824</ele>
        <time>2024-05-21T10:35:01.000Z</time>
      </trkpt>
      <trkpt lat="45.06538" lon="4.84101">
        <ele>123</ele>
        <time>2024-05-21T10:35:02.000Z</time>
      </trkpt>
      <trkpt lat="45.06536" lon="4.84108">
        <ele>123</ele>
        <time>2024-05-21T10:35:03.000Z</time>
      </trkpt>
      <trkpt lat="45.06534" lon="4.84114">
        <ele>123</ele>
        <time>2024-05-21T10:35:04.000Z</time>
      </trkpt>
      <trkpt lat="45.06532" lon="4.84121">
        <ele>123</ele>
        <time>2024-05-21T10:35:05.000Z</time>
      </trkpt>
      <trkpt lat="45.0653" lon="4.84128">
        <ele>123</ele>
        <time>2024-05-21T10:35:06.000Z</time>
      </trkpt>
      <trkpt lat="45.06528" lon="4.84134">
        <ele>122.80000305176</ele>
        <time>2024-05-21T10:35:07.000Z</time>
      </trkpt>
      <trkpt lat="45.06526" lon="4.84141">
        <ele>122.80000305176</ele>
        <time>2024-05-21T10:35:08.000Z</time>
      </trkpt>
      <trkpt lat="45.06525" lon="4.84148">
        <ele>122.80000305176</ele>
        <time>2024-05-21T10:35:09.000Z</time>
      </trkpt>
      <trkpt lat="45.06523" lon="4.84155">
        <ele>122.80000305176</ele>
        <time>2024-05-21T10:35:10.000Z</time>
      </trkpt>
      <trkpt lat="45.06521" lon="4.84162">
        <ele>122.59999847412</ele>
        <time>2024-05-21T10:35:11.000Z</time>
      </trkpt>
      <trkpt lat="45.0652" lon="4.84169">
        <ele>122.59999847412</ele>
        <time>2024-05-21T10:35:12.000Z</time>
      </trkpt>
      <trkpt lat="45.06518" lon="4.84176">
        <ele>122.59999847412</ele>
        <time>2024-05-21T10:35:13.000Z</time>
      </trkpt>
      <trkpt lat="45.06516" lon="4.84183">
        <ele>122.80000305176</ele>
        <time>2024-05-21T10:35:14.000Z</time>
      </trkpt>
      <trkpt lat="45.06514" lon="4.84189">
        <ele>122.80000305176</ele>
        <time>2024-05-21T10:35:15.000Z</time>
      </trkpt>
      <trkpt lat="45.06512" lon="4.84197">
        <ele>122.80000305176</ele>
        <time>2024-05-21T10:35:16.000Z</time>
      </trkpt>
      <trkpt lat="45.06511" lon="4.84204">
        <ele>122.80000305176</ele>
        <time>2024-05-21T10:35:17.000Z</time>
      </trkpt>
      <trkpt lat="45.06509" lon="4.84211">
        <ele>122.80000305176</ele>
        <time>2024-05-21T10:35:18.000Z</time>
      </trkpt>
      <trkpt lat="45.06507" lon="4.84218">
        <ele>122.80000305176</ele>
        <time>2024-05-21T10:35:19.000Z</time>
      </trkpt>
      <trkpt lat="45.06505" lon="4.84225">
        <ele>122.80000305176</ele>
        <time>2024-05-21T10:35:20.000Z</time>
      </trkpt>
      <trkpt lat="45.06503" lon="4.84232">
        <ele>122.80000305176</ele>
        <time>2024-05-21T10:35:21.000Z</time>
      </trkpt>
      <trkpt lat="45.06501" lon="4.84239">
        <ele>122.80000305176</ele>
        <time>2024-05-21T10:35:22.000Z</time>
      </trkpt>
      <trkpt lat="45.06498" lon="4.84245">
        <ele>122.59999847412</ele>
        <time>2024-05-21T10:35:23.000Z</time>
      </trkpt>
      <trkpt lat="45.06495" lon="4.84251">
        <ele>122.59999847412</ele>
        <time>2024-05-21T10:35:24.000Z</time>
      </trkpt>
      <trkpt lat="45.06492" lon="4.84257">
        <ele>122.59999847412</ele>
        <time>2024-05-21T10:35:25.000Z</time>
      </trkpt>
      <trkpt lat="45.06491" lon="4.84263">
        <ele>122.40000152588</ele>
        <time>2024-05-21T10:35:26.000Z</time>
      </trkpt>
      <trkpt lat="45.0649" lon="4.8427">
        <ele>122.40000152588</ele>
        <time>2024-05-21T10:35:27.000Z</time>
      </trkpt>
      <trkpt lat="45.06491" lon="4.84276">
        <ele>122.40000152588</ele>
        <time>2024-05-21T10:35:28.000Z</time>
      </trkpt>
      <trkpt lat="45.0649" lon="4.84283">
        <ele>122.40000152588</ele>
        <time>2024-05-21T10:35:29.000Z</time>
      </trkpt>
      <trkpt lat="45.06489" lon="4.84289">
        <ele>122.59999847412</ele>
        <time>2024-05-21T10:35:30.000Z</time>
      </trkpt>
      <trkpt lat="45.06487" lon="4.84296">
        <ele>122.80000305176</ele>
        <time>2024-05-21T10:35:31.000Z</time>
      </trkpt>
      <trkpt lat="45.06486" lon="4.84302">
        <ele>122.80000305176</ele>
        <time>2024-05-21T10:35:32.000Z</time>
      </trkpt>
      <trkpt lat="45.06484" lon="4.84308">
        <ele>122.80000305176</ele>
        <time>2024-05-21T10:35:33.000Z</time>
      </trkpt>
      <trkpt lat="45.06483" lon="4.84315">
        <ele>123</ele>
        <time>2024-05-21T10:35:34.000Z</time>
      </trkpt>
      <trkpt lat="45.06481" lon="4.84321">
        <ele>123</ele>
        <time>2024-05-21T10:35:35.000Z</time>
      </trkpt>
      <trkpt lat="45.06479" lon="4.84328">
        <ele>123</ele>
        <time>2024-05-21T10:35:36.000Z</time>
      </trkpt>
      <trkpt lat="45.06478" lon="4.84334">
        <ele>123</ele>
        <time>2024-05-21T10:35:37.000Z</time>
      </trkpt>
      <trkpt lat="45.06477" lon="4.84341">
        <ele>123</ele>
        <time>2024-05-21T10:35:38.000Z</time>
      </trkpt>
      <trkpt lat="45.06476" lon="4.84348">
        <ele>123</ele>
        <time>2024-05-21T10:35:39.000Z</time>
      </trkpt>
      <trkpt lat="45.06474" lon="4.84355">
        <ele>123</ele>
        <time>2024-05-21T10:35:40.000Z</time>
      </trkpt>
      <trkpt lat="45.06473" lon="4.84362">
        <ele>123</ele>
        <time>2024-05-21T10:35:41.000Z</time>
      </trkpt>
      <trkpt lat="45.06472" lon="4.84369">
        <ele>123</ele>
        <time>2024-05-21T10:35:42.000Z</time>
      </trkpt>
      <trkpt lat="45.06471" lon="4.84376">
        <ele>123</ele>
        <time>2024-05-21T10:35:43.000Z</time>
      </trkpt>
      <trkpt lat="45.0647" lon="4.84383">
        <ele>123</ele>
        <time>2024-05-21T10:35:44.000Z</time>
      </trkpt>
      <trkpt lat="45.06469" lon="4.84388">
        <ele>123.19999694824</ele>
        <time>2024-05-21T10:35:45.000Z</time>
      </trkpt>
      <trkpt lat="45.06468" lon="4.84397">
        <ele>123.19999694824</ele>
        <time>2024-05-21T10:35:46.000Z</time>
      </trkpt>
      <trkpt lat="45.06466" lon="4.84404">
        <ele>123.19999694824</ele>
        <time>2024-05-21T10:35:47.000Z</time>
      </trkpt>
      <trkpt lat="45.06465" lon="4.84411">
        <ele>123.19999694824</ele>
        <time>2024-05-21T10:35:48.000Z</time>
      </trkpt>
      <trkpt lat="45.06464" lon="4.84418">
        <ele>123.19999694824</ele>
        <time>2024-05-21T10:35:49.000Z</time>
      </trkpt>
      <trkpt lat="45.06463" lon="4.84426">
        <ele>123.19999694824</ele>
        <time>2024-05-21T10:35:50.000Z</time>
      </trkpt>
      <trkpt lat="45.06462" lon="4.84433">
        <ele>123</ele>
        <time>2024-05-21T10:35:51.000Z</time>
      </trkpt>
      <trkpt lat="45.06461" lon="4.8444">
        <ele>123</ele>
        <time>2024-05-21T10:35:52.000Z</time>
      </trkpt>
      <trkpt lat="45.0646" lon="4.84448">
        <ele>123</ele>
        <time>2024-05-21T10:35:53.000Z</time>
      </trkpt>
      <trkpt lat="45.0646" lon="4.84455">
        <ele>123</ele>
        <time>2024-05-21T10:35:54.000Z</time>
      </trkpt>
      <trkpt lat="45.0646" lon="4.84462">
        <ele>123</ele>
        <time>2024-05-21T10:35:55.000Z</time>
      </trkpt>
      <trkpt lat="45.06459" lon="4.84469">
        <ele>122.80000305176</ele>
        <time>2024-05-21T10:35:56.000Z</time>
      </trkpt>
      <trkpt lat="45.06458" lon="4.84476">
        <ele>122.80000305176</ele>
        <time>2024-05-21T10:35:57.000Z</time>
      </trkpt>
      <trkpt lat="45.06457" lon="4.84483">
        <ele>122.80000305176</ele>
        <time>2024-05-21T10:35:58.000Z</time>
      </trkpt>
      <trkpt lat="45.06456" lon="4.84491">
        <ele>122.80000305176</ele>
        <time>2024-05-21T10:35:59.000Z</time>
      </trkpt>
      <trkpt lat="45.06455" lon="4.84498">
        <ele>122.80000305176</ele>
        <time>2024-05-21T10:36:00.000Z</time>
      </trkpt>
      <trkpt lat="45.06454" lon="4.84506">
        <ele>122.80000305176</ele>
        <time>2024-05-21T10:36:01.000Z</time>
      </trkpt>
      <trkpt lat="45.06453" lon="4.84513">
        <ele>122.80000305176</ele>
        <time>2024-05-21T10:36:02.000Z</time>
      </trkpt>
      <trkpt lat="45.06452" lon="4.8452">
        <ele>122.80000305176</ele>
        <time>2024-05-21T10:36:03.000Z</time>
      </trkpt>
      <trkpt lat="45.06451" lon="4.84526">
        <ele>122.80000305176</ele>
        <time>2024-05-21T10:36:04.000Z</time>
      </trkpt>
      <trkpt lat="45.0645" lon="4.84533">
        <ele>122.80000305176</ele>
        <time>2024-05-21T10:36:05.000Z</time>
      </trkpt>
      <trkpt lat="45.06449" lon="4.8454">
        <ele>122.80000305176</ele>
        <time>2024-05-21T10:36:06.000Z</time>
      </trkpt>
      <trkpt lat="45.06448" lon="4.84547">
        <ele>122.80000305176</ele>
        <time>2024-05-21T10:36:07.000Z</time>
      </trkpt>
      <trkpt lat="45.06447" lon="4.84553">
        <ele>122.80000305176</ele>
        <time>2024-05-21T10:36:08.000Z</time>
      </trkpt>
      <trkpt lat="45.06445" lon="4.8456">
        <ele>123</ele>
        <time>2024-05-21T10:36:09.000Z</time>
      </trkpt>
      <trkpt lat="45.06444" lon="4.84568">
        <ele>123</ele>
        <time>2024-05-21T10:36:10.000Z</time>
      </trkpt>
      <trkpt lat="45.06442" lon="4.84575">
        <ele>123.19999694824</ele>
        <time>2024-05-21T10:36:11.000Z</time>
      </trkpt>
      <trkpt lat="45.06441" lon="4.84583">
        <ele>123.19999694824</ele>
        <time>2024-05-21T10:36:12.000Z</time>
      </trkpt>
      <trkpt lat="45.0644" lon="4.8459">
        <ele>123.19999694824</ele>
        <time>2024-05-21T10:36:13.000Z</time>
      </trkpt>
      <trkpt lat="45.06438" lon="4.84597">
        <ele>123</ele>
        <time>2024-05-21T10:36:14.000Z</time>
      </trkpt>
      <trkpt lat="45.06437" lon="4.84604">
        <ele>123</ele>
        <time>2024-05-21T10:36:15.000Z</time>
      </trkpt>
      <trkpt lat="45.06435" lon="4.84612">
        <ele>123</ele>
        <time>2024-05-21T10:36:16.000Z</time>
      </trkpt>
      <trkpt lat="45.06434" lon="4.84619">
        <ele>122.80000305176</ele>
        <time>2024-05-21T10:36:17.000Z</time>
      </trkpt>
      <trkpt lat="45.06433" lon="4.84627">
        <ele>122.80000305176</ele>
        <time>2024-05-21T10:36:18.000Z</time>
      </trkpt>
      <trkpt lat="45.06431" lon="4.84635">
        <ele>122.80000305176</ele>
        <time>2024-05-21T10:36:19.000Z</time>
      </trkpt>
      <trkpt lat="45.0643" lon="4.84642">
        <ele>122.80000305176</ele>
        <time>2024-05-21T10:36:20.000Z</time>
      </trkpt>
      <trkpt lat="45.06428" lon="4.84649">
        <ele>122.80000305176</ele>
        <time>2024-05-21T10:36:21.000Z</time>
      </trkpt>
      <trkpt lat="45.06426" lon="4.84657">
        <ele>122.59999847412</ele>
        <time>2024-05-21T10:36:22.000Z</time>
      </trkpt>
      <trkpt lat="45.06425" lon="4.84664">
        <ele>122.59999847412</ele>
        <time>2024-05-21T10:36:23.000Z</time>
      </trkpt>
      <trkpt lat="45.06423" lon="4.84672">
        <ele>122.59999847412</ele>
        <time>2024-05-21T10:36:24.000Z</time>
      </trkpt>
      <trkpt lat="45.06421" lon="4.84679">
        <ele>122.40000152588</ele>
        <time>2024-05-21T10:36:25.000Z</time>
      </trkpt>
      <trkpt lat="45.06419" lon="4.84686">
        <ele>122.40000152588</ele>
        <time>2024-05-21T10:36:26.000Z</time>
      </trkpt>
      <trkpt lat="45.06417" lon="4.84694">
        <ele>122.19999694824</ele>
        <time>2024-05-21T10:36:27.000Z</time>
      </trkpt>
      <trkpt lat="45.06415" lon="4.84701">
        <ele>122.19999694824</ele>
        <time>2024-05-21T10:36:28.000Z</time>
      </trkpt>
      <trkpt lat="45.06413" lon="4.84708">
        <ele>122.19999694824</ele>
        <time>2024-05-21T10:36:29.000Z</time>
      </trkpt>
      <trkpt lat="45.06411" lon="4.84715">
        <ele>122.19999694824</ele>
        <time>2024-05-21T10:36:30.000Z</time>
      </trkpt>
      <trkpt lat="45.0641" lon="4.84722">
        <ele>122.19999694824</ele>
        <time>2024-05-21T10:36:31.000Z</time>
      </trkpt>
      <trkpt lat="45.06408" lon="4.8473">
        <ele>122.19999694824</ele>
        <time>2024-05-21T10:36:32.000Z</time>
      </trkpt>
      <trkpt lat="45.06406" lon="4.84737">
        <ele>122.19999694824</ele>
        <time>2024-05-21T10:36:33.000Z</time>
      </trkpt>
      <trkpt lat="45.06405" lon="4.84744">
        <ele>122.40000152588</ele>
        <time>2024-05-21T10:36:34.000Z</time>
      </trkpt>
      <trkpt lat="45.06403" lon="4.84752">
        <ele>122.40000152588</ele>
        <time>2024-05-21T10:36:35.000Z</time>
      </trkpt>
      <trkpt lat="45.06401" lon="4.84759">
        <ele>122.40000152588</ele>
        <time>2024-05-21T10:36:36.000Z</time>
      </trkpt>
      <trkpt lat="45.06399" lon="4.84766">
        <ele>122.40000152588</ele>
        <time>2024-05-21T10:36:37.000Z</time>
      </trkpt>
      <trkpt lat="45.06397" lon="4.84774">
        <ele>122.40000152588</ele>
        <time>2024-05-21T10:36:38.000Z</time>
      </trkpt>
      <trkpt lat="45.06395" lon="4.84781">
        <ele>122.59999847412</ele>
        <time>2024-05-21T10:36:39.000Z</time>
      </trkpt>
      <trkpt lat="45.06394" lon="4.84788">
        <ele>122.59999847412</ele>
        <time>2024-05-21T10:36:40.000Z</time>
      </trkpt>
      <trkpt lat="45.06392" lon="4.84795">
        <ele>122.59999847412</ele>
        <time>2024-05-21T10:36:41.000Z</time>
      </trkpt>
      <trkpt lat="45.0639" lon="4.84802">
        <ele>122.59999847412</ele>
        <time>2024-05-21T10:36:42.000Z</time>
      </trkpt>
      <trkpt lat="45.06388" lon="4.8481">
        <ele>122.59999847412</ele>
        <time>2024-05-21T10:36:43.000Z</time>
      </trkpt>
      <trkpt lat="45.06386" lon="4.84817">
        <ele>122.59999847412</ele>
        <time>2024-05-21T10:36:44.000Z</time>
      </trkpt>
      <trkpt lat="45.06385" lon="4.84824">
        <ele>122.40000152588</ele>
        <time>2024-05-21T10:36:45.000Z</time>
      </trkpt>
      <trkpt lat="45.06383" lon="4.84831">
        <ele>122.40000152588</ele>
        <time>2024-05-21T10:36:46.000Z</time>
      </trkpt>
      <trkpt lat="45.06381" lon="4.84839">
        <ele>122.40000152588</ele>
        <time>2024-05-21T10:36:47.000Z</time>
      </trkpt>
      <trkpt lat="45.06379" lon="4.84846">
        <ele>122.40000152588</ele>
        <time>2024-05-21T10:36:48.000Z</time>
      </trkpt>
      <trkpt lat="45.06377" lon="4.84853">
        <ele>122.40000152588</ele>
        <time>2024-05-21T10:36:49.000Z</time>
      </trkpt>
      <trkpt lat="45.06376" lon="4.8486">
        <ele>122.40000152588</ele>
        <time>2024-05-21T10:36:50.000Z</time>
      </trkpt>
      <trkpt lat="45.06374" lon="4.84867">
        <ele>122.40000152588</ele>
        <time>2024-05-21T10:36:51.000Z</time>
      </trkpt>
      <trkpt lat="45.06372" lon="4.84874">
        <ele>122.40000152588</ele>
        <time>2024-05-21T10:36:52.000Z</time>
      </trkpt>
      <trkpt lat="45.0637" lon="4.84881">
        <ele>122.40000152588</ele>
        <time>2024-05-21T10:36:53.000Z</time>
      </trkpt>
      <trkpt lat="45.06368" lon="4.84888">
        <ele>122.19999694824</ele>
        <time>2024-05-21T10:36:54.000Z</time>
      </trkpt>
      <trkpt lat="45.06366" lon="4.84895">
        <ele>122.19999694824</ele>
        <time>2024-05-21T10:36:55.000Z</time>
      </trkpt>
      <trkpt lat="45.06364" lon="4.84903">
        <ele>122.19999694824</ele>
        <time>2024-05-21T10:36:56.000Z</time>
      </trkpt>
      <trkpt lat="45.06363" lon="4.8491">
        <ele>122.19999694824</ele>
        <time>2024-05-21T10:36:57.000Z</time>
      </trkpt>
      <trkpt lat="45.06361" lon="4.84917">
        <ele>122.19999694824</ele>
        <time>2024-05-21T10:36:58.000Z</time>
      </trkpt>
      <trkpt lat="45.06359" lon="4.84924">
        <ele>122.40000152588</ele>
        <time>2024-05-21T10:36:59.000Z</time>
      </trkpt>
      <trkpt lat="45.06357" lon="4.84931">
        <ele>122.40000152588</ele>
        <time>2024-05-21T10:37:00.000Z</time>
      </trkpt>
      <trkpt lat="45.06355" lon="4.84938">
        <ele>122.40000152588</ele>
        <time>2024-05-21T10:37:01.000Z</time>
      </trkpt>
      <trkpt lat="45.06353" lon="4.84945">
        <ele>122.40000152588</ele>
        <time>2024-05-21T10:37:02.000Z</time>
      </trkpt>
      <trkpt lat="45.06352" lon="4.84952">
        <ele>122.40000152588</ele>
        <time>2024-05-21T10:37:03.000Z</time>
      </trkpt>
      <trkpt lat="45.0635" lon="4.84959">
        <ele>122.40000152588</ele>
        <time>2024-05-21T10:37:04.000Z</time>
      </trkpt>
      <trkpt lat="45.06348" lon="4.84966">
        <ele>122.40000152588</ele>
        <time>2024-05-21T10:37:05.000Z</time>
      </trkpt>
      <trkpt lat="45.06347" lon="4.84974">
        <ele>122.40000152588</ele>
        <time>2024-05-21T10:37:06.000Z</time>
      </trkpt>
      <trkpt lat="45.06345" lon="4.84981">
        <ele>122.40000152588</ele>
        <time>2024-05-21T10:37:07.000Z</time>
      </trkpt>
      <trkpt lat="45.06343" lon="4.84988">
        <ele>122.40000152588</ele>
        <time>2024-05-21T10:37:08.000Z</time>
      </trkpt>
      <trkpt lat="45.06341" lon="4.84995">
        <ele>122.40000152588</ele>
        <time>2024-05-21T10:37:09.000Z</time>
      </trkpt>
      <trkpt lat="45.06338" lon="4.85002">
        <ele>122.19999694824</ele>
        <time>2024-05-21T10:37:10.000Z</time>
      </trkpt>
      <trkpt lat="45.06336" lon="4.85009">
        <ele>122.19999694824</ele>
        <time>2024-05-21T10:37:11.000Z</time>
      </trkpt>
      <trkpt lat="45.06334" lon="4.85015">
        <ele>122.19999694824</ele>
        <time>2024-05-21T10:37:12.000Z</time>
      </trkpt>
      <trkpt lat="45.06332" lon="4.85022">
        <ele>122.19999694824</ele>
        <time>2024-05-21T10:37:13.000Z</time>
      </trkpt>
      <trkpt lat="45.06329" lon="4.85029">
        <ele>122</ele>
        <time>2024-05-21T10:37:14.000Z</time>
      </trkpt>
      <trkpt lat="45.06327" lon="4.85035">
        <ele>122</ele>
        <time>2024-05-21T10:37:15.000Z</time>
      </trkpt>
      <trkpt lat="45.06325" lon="4.85042">
        <ele>122</ele>
        <time>2024-05-21T10:37:16.000Z</time>
      </trkpt>
      <trkpt lat="45.06323" lon="4.85049">
        <ele>122</ele>
        <time>2024-05-21T10:37:17.000Z</time>
      </trkpt>
      <trkpt lat="45.06321" lon="4.85055">
        <ele>122</ele>
        <time>2024-05-21T10:37:18.000Z</time>
      </trkpt>
      <trkpt lat="45.06319" lon="4.85062">
        <ele>122</ele>
        <time>2024-05-21T10:37:19.000Z</time>
      </trkpt>
      <trkpt lat="45.06317" lon="4.85068">
        <ele>122</ele>
        <time>2024-05-21T10:37:20.000Z</time>
      </trkpt>
      <trkpt lat="45.06315" lon="4.85075">
        <ele>122</ele>
        <time>2024-05-21T10:37:21.000Z</time>
      </trkpt>
      <trkpt lat="45.06313" lon="4.85082">
        <ele>122.19999694824</ele>
        <time>2024-05-21T10:37:22.000Z</time>
      </trkpt>
      <trkpt lat="45.06311" lon="4.85088">
        <ele>122.19999694824</ele>
        <time>2024-05-21T10:37:23.000Z</time>
      </trkpt>
      <trkpt lat="45.06309" lon="4.85094">
        <ele>122.40000152588</ele>
        <time>2024-05-21T10:37:24.000Z</time>
      </trkpt>
      <trkpt lat="45.06306" lon="4.851">
        <ele>122.40000152588</ele>
        <time>2024-05-21T10:37:25.000Z</time>
      </trkpt>
      <trkpt lat="45.06303" lon="4.85105">
        <ele>122.40000152588</ele>
        <time>2024-05-21T10:37:26.000Z</time>
      </trkpt>
      <trkpt lat="45.06301" lon="4.85112">
        <ele>122.40000152588</ele>
        <time>2024-05-21T10:37:27.000Z</time>
      </trkpt>
      <trkpt lat="45.06298" lon="4.85118">
        <ele>122.40000152588</ele>
        <time>2024-05-21T10:37:28.000Z</time>
      </trkpt>
      <trkpt lat="45.06296" lon="4.85124">
        <ele>122.40000152588</ele>
        <time>2024-05-21T10:37:29.000Z</time>
      </trkpt>
      <trkpt lat="45.06293" lon="4.85131">
        <ele>122.40000152588</ele>
        <time>2024-05-21T10:37:30.000Z</time>
      </trkpt>
      <trkpt lat="45.06291" lon="4.85137">
        <ele>122.19999694824</ele>
        <time>2024-05-21T10:37:31.000Z</time>
      </trkpt>
      <trkpt lat="45.06288" lon="4.85144">
        <ele>122.19999694824</ele>
        <time>2024-05-21T10:37:32.000Z</time>
      </trkpt>
      <trkpt lat="45.06286" lon="4.8515">
        <ele>122.19999694824</ele>
        <time>2024-05-21T10:37:33.000Z</time>
      </trkpt>
      <trkpt lat="45.06284" lon="4.85156">
        <ele>122.19999694824</ele>
        <time>2024-05-21T10:37:34.000Z</time>
      </trkpt>
      <trkpt lat="45.06281" lon="4.85162">
        <ele>122.19999694824</ele>
        <time>2024-05-21T10:37:35.000Z</time>
      </trkpt>
      <trkpt lat="45.06279" lon="4.85168">
        <ele>122.19999694824</ele>
        <time>2024-05-21T10:37:36.000Z</time>
      </trkpt>
      <trkpt lat="45.06276" lon="4.85175">
        <ele>122.40000152588</ele>
        <time>2024-05-21T10:37:37.000Z</time>
      </trkpt>
      <trkpt lat="45.06273" lon="4.85181">
        <ele>122.40000152588</ele>
        <time>2024-05-21T10:37:38.000Z</time>
      </trkpt>
      <trkpt lat="45.06271" lon="4.85188">
        <ele>122.59999847412</ele>
        <time>2024-05-21T10:37:39.000Z</time>
      </trkpt>
      <trkpt lat="45.06268" lon="4.85194">
        <ele>122.59999847412</ele>
        <time>2024-05-21T10:37:40.000Z</time>
      </trkpt>
      <trkpt lat="45.06266" lon="4.85201">
        <ele>122.59999847412</ele>
        <time>2024-05-21T10:37:41.000Z</time>
      </trkpt>
      <trkpt lat="45.06263" lon="4.85207">
        <ele>122.80000305176</ele>
        <time>2024-05-21T10:37:42.000Z</time>
      </trkpt>
      <trkpt lat="45.0626" lon="4.85213">
        <ele>122.80000305176</ele>
        <time>2024-05-21T10:37:43.000Z</time>
      </trkpt>
      <trkpt lat="45.06258" lon="4.85219">
        <ele>122.80000305176</ele>
        <time>2024-05-21T10:37:44.000Z</time>
      </trkpt>
      <trkpt lat="45.06255" lon="4.85226">
        <ele>122.59999847412</ele>
        <time>2024-05-21T10:37:45.000Z</time>
      </trkpt>
      <trkpt lat="45.06252" lon="4.85232">
        <ele>122.59999847412</ele>
        <time>2024-05-21T10:37:46.000Z</time>
      </trkpt>
      <trkpt lat="45.06249" lon="4.85239">
        <ele>122.59999847412</ele>
        <time>2024-05-21T10:37:47.000Z</time>
      </trkpt>
      <trkpt lat="45.06246" lon="4.85245">
        <ele>122.59999847412</ele>
        <time>2024-05-21T10:37:48.000Z</time>
      </trkpt>
      <trkpt lat="45.06244" lon="4.85252">
        <ele>122.59999847412</ele>
        <time>2024-05-21T10:37:49.000Z</time>
      </trkpt>
      <trkpt lat="45.06241" lon="4.85259">
        <ele>122.59999847412</ele>
        <time>2024-05-21T10:37:50.000Z</time>
      </trkpt>
      <trkpt lat="45.06238" lon="4.85265">
        <ele>122.59999847412</ele>
        <time>2024-05-21T10:37:51.000Z</time>
      </trkpt>
      <trkpt lat="45.06235" lon="4.85271">
        <ele>122.40000152588</ele>
        <time>2024-05-21T10:37:52.000Z</time>
      </trkpt>
      <trkpt lat="45.06232" lon="4.85277">
        <ele>122.40000152588</ele>
        <time>2024-05-21T10:37:53.000Z</time>
      </trkpt>
      <trkpt lat="45.06229" lon="4.85284">
        <ele>122.40000152588</ele>
        <time>2024-05-21T10:37:54.000Z</time>
      </trkpt>
      <trkpt lat="45.06226" lon="4.8529">
        <ele>122.40000152588</ele>
        <time>2024-05-21T10:37:55.000Z</time>
      </trkpt>
      <trkpt lat="45.06223" lon="4.85296">
        <ele>122.40000152588</ele>
        <time>2024-05-21T10:37:56.000Z</time>
      </trkpt>
      <trkpt lat="45.0622" lon="4.85302">
        <ele>122.40000152588</ele>
        <time>2024-05-21T10:37:57.000Z</time>
      </trkpt>
      <trkpt lat="45.06217" lon="4.85308">
        <ele>122.40000152588</ele>
        <time>2024-05-21T10:37:58.000Z</time>
      </trkpt>
      <trkpt lat="45.06213" lon="4.85314">
        <ele>122.40000152588</ele>
        <time>2024-05-21T10:37:59.000Z</time>
      </trkpt>
      <trkpt lat="45.0621" lon="4.8532">
        <ele>122.40000152588</ele>
        <time>2024-05-21T10:38:00.000Z</time>
      </trkpt>
      <trkpt lat="45.06207" lon="4.85326">
        <ele>122.40000152588</ele>
        <time>2024-05-21T10:38:01.000Z</time>
      </trkpt>
      <trkpt lat="45.06204" lon="4.85332">
        <ele>122.40000152588</ele>
        <time>2024-05-21T10:38:02.000Z</time>
      </trkpt>
      <trkpt lat="45.06201" lon="4.85339">
        <ele>122.40000152588</ele>
        <time>2024-05-21T10:38:03.000Z</time>
      </trkpt>
      <trkpt lat="45.06197" lon="4.85345">
        <ele>122.40000152588</ele>
        <time>2024-05-21T10:38:04.000Z</time>
      </trkpt>
      <trkpt lat="45.06194" lon="4.85351">
        <ele>122.59999847412</ele>
        <time>2024-05-21T10:38:05.000Z</time>
      </trkpt>
      <trkpt lat="45.06191" lon="4.85358">
        <ele>122.59999847412</ele>
        <time>2024-05-21T10:38:06.000Z</time>
      </trkpt>
      <trkpt lat="45.06187" lon="4.85364">
        <ele>122.59999847412</ele>
        <time>2024-05-21T10:38:07.000Z</time>
      </trkpt>
      <trkpt lat="45.06184" lon="4.8537">
        <ele>122.59999847412</ele>
        <time>2024-05-21T10:38:08.000Z</time>
      </trkpt>
      <trkpt lat="45.06181" lon="4.85376">
        <ele>122.59999847412</ele>
        <time>2024-05-21T10:38:09.000Z</time>
      </trkpt>
      <trkpt lat="45.06178" lon="4.85382">
        <ele>122.40000152588</ele>
        <time>2024-05-21T10:38:10.000Z</time>
      </trkpt>
      <trkpt lat="45.06174" lon="4.85389">
        <ele>122.40000152588</ele>
        <time>2024-05-21T10:38:11.000Z</time>
      </trkpt>
      <trkpt lat="45.06171" lon="4.85395">
        <ele>122.40000152588</ele>
        <time>2024-05-21T10:38:12.000Z</time>
      </trkpt>
      <trkpt lat="45.06168" lon="4.85401">
        <ele>122.40000152588</ele>
        <time>2024-05-21T10:38:13.000Z</time>
      </trkpt>
      <trkpt lat="45.06164" lon="4.85407">
        <ele>122.40000152588</ele>
        <time>2024-05-21T10:38:14.000Z</time>
      </trkpt>
      <trkpt lat="45.06161" lon="4.85413">
        <ele>122.40000152588</ele>
        <time>2024-05-21T10:38:15.000Z</time>
      </trkpt>
      <trkpt lat="45.06157" lon="4.85418">
        <ele>122.40000152588</ele>
        <time>2024-05-21T10:38:16.000Z</time>
      </trkpt>
      <trkpt lat="45.06154" lon="4.85424">
        <ele>122.40000152588</ele>
        <time>2024-05-21T10:38:17.000Z</time>
      </trkpt>
      <trkpt lat="45.0615" lon="4.8543">
        <ele>122.40000152588</ele>
        <time>2024-05-21T10:38:18.000Z</time>
      </trkpt>
      <trkpt lat="45.06147" lon="4.85436">
        <ele>122.40000152588</ele>
        <time>2024-05-21T10:38:19.000Z</time>
      </trkpt>
      <trkpt lat="45.06143" lon="4.85443">
        <ele>122.40000152588</ele>
        <time>2024-05-21T10:38:20.000Z</time>
      </trkpt>
      <trkpt lat="45.06139" lon="4.85449">
        <ele>122.40000152588</ele>
        <time>2024-05-21T10:38:21.000Z</time>
      </trkpt>
      <trkpt lat="45.06136" lon="4.85455">
        <ele>122.19999694824</ele>
        <time>2024-05-21T10:38:22.000Z</time>
      </trkpt>
      <trkpt lat="45.06132" lon="4.8546">
        <ele>122.19999694824</ele>
        <time>2024-05-21T10:38:23.000Z</time>
      </trkpt>
      <trkpt lat="45.06129" lon="4.85466">
        <ele>122.19999694824</ele>
        <time>2024-05-21T10:38:24.000Z</time>
      </trkpt>
      <trkpt lat="45.06125" lon="4.85472">
        <ele>122.19999694824</ele>
        <time>2024-05-21T10:38:25.000Z</time>
      </trkpt>
      <trkpt lat="45.06122" lon="4.85478">
        <ele>122.19999694824</ele>
        <time>2024-05-21T10:38:26.000Z</time>
      </trkpt>
      <trkpt lat="45.06118" lon="4.85484">
        <ele>122.19999694824</ele>
        <time>2024-05-21T10:38:27.000Z</time>
      </trkpt>
      <trkpt lat="45.06114" lon="4.85489">
        <ele>122.19999694824</ele>
        <time>2024-05-21T10:38:28.000Z</time>
      </trkpt>
      <trkpt lat="45.06111" lon="4.85495">
        <ele>122</ele>
        <time>2024-05-21T10:38:29.000Z</time>
      </trkpt>
      <trkpt lat="45.06107" lon="4.85501">
        <ele>122</ele>
        <time>2024-05-21T10:38:30.000Z</time>
      </trkpt>
      <trkpt lat="45.06103" lon="4.85507">
        <ele>122.19999694824</ele>
        <time>2024-05-21T10:38:31.000Z</time>
      </trkpt>
      <trkpt lat="45.061" lon="4.85513">
        <ele>122.19999694824</ele>
        <time>2024-05-21T10:38:32.000Z</time>
      </trkpt>
      <trkpt lat="45.06096" lon="4.85518">
        <ele>122.19999694824</ele>
        <time>2024-05-21T10:38:33.000Z</time>
      </trkpt>
      <trkpt lat="45.06092" lon="4.85524">
        <ele>122</ele>
        <time>2024-05-21T10:38:34.000Z</time>
      </trkpt>
      <trkpt lat="45.06088" lon="4.8553">
        <ele>122</ele>
        <time>2024-05-21T10:38:35.000Z</time>
      </trkpt>
      <trkpt lat="45.06084" lon="4.85536">
        <ele>122</ele>
        <time>2024-05-21T10:38:36.000Z</time>
      </trkpt>
      <trkpt lat="45.0608" lon="4.85541">
        <ele>122</ele>
        <time>2024-05-21T10:38:37.000Z</time>
      </trkpt>
      <trkpt lat="45.06076" lon="4.85547">
        <ele>122</ele>
        <time>2024-05-21T10:38:38.000Z</time>
      </trkpt>
      <trkpt lat="45.06072" lon="4.85552">
        <ele>122</ele>
        <time>2024-05-21T10:38:39.000Z</time>
      </trkpt>
      <trkpt lat="45.06068" lon="4.85557">
        <ele>122</ele>
        <time>2024-05-21T10:38:40.000Z</time>
      </trkpt>
      <trkpt lat="45.06064" lon="4.85563">
        <ele>121.80000305176</ele>
        <time>2024-05-21T10:38:41.000Z</time>
      </trkpt>
      <trkpt lat="45.0606" lon="4.85568">
        <ele>121.80000305176</ele>
        <time>2024-05-21T10:38:42.000Z</time>
      </trkpt>
      <trkpt lat="45.06056" lon="4.85573">
        <ele>121.80000305176</ele>
        <time>2024-05-21T10:38:43.000Z</time>
      </trkpt>
      <trkpt lat="45.06052" lon="4.85579">
        <ele>121.59999847412</ele>
        <time>2024-05-21T10:38:44.000Z</time>
      </trkpt>
      <trkpt lat="45.06048" lon="4.85584">
        <ele>121.59999847412</ele>
        <time>2024-05-21T10:38:45.000Z</time>
      </trkpt>
      <trkpt lat="45.06044" lon="4.85589">
        <ele>121.59999847412</ele>
        <time>2024-05-21T10:38:46.000Z</time>
      </trkpt>
      <trkpt lat="45.0604" lon="4.85594">
        <ele>121.59999847412</ele>
        <time>2024-05-21T10:38:47.000Z</time>
      </trkpt>
      <trkpt lat="45.06036" lon="4.85598">
        <ele>121.59999847412</ele>
        <time>2024-05-21T10:38:48.000Z</time>
      </trkpt>
      <trkpt lat="45.06031" lon="4.85603">
        <ele>121.59999847412</ele>
        <time>2024-05-21T10:38:49.000Z</time>
      </trkpt>
      <trkpt lat="45.06027" lon="4.85607">
        <ele>121.59999847412</ele>
        <time>2024-05-21T10:38:50.000Z</time>
      </trkpt>
      <trkpt lat="45.06023" lon="4.85612">
        <ele>121.59999847412</ele>
        <time>2024-05-21T10:38:51.000Z</time>
      </trkpt>
      <trkpt lat="45.06019" lon="4.85616">
        <ele>121.59999847412</ele>
        <time>2024-05-21T10:38:52.000Z</time>
      </trkpt>
      <trkpt lat="45.06014" lon="4.8562">
        <ele>121.59999847412</ele>
        <time>2024-05-21T10:38:53.000Z</time>
      </trkpt>
      <trkpt lat="45.0601" lon="4.85624">
        <ele>121.59999847412</ele>
        <time>2024-05-21T10:38:54.000Z</time>
      </trkpt>
      <trkpt lat="45.06006" lon="4.85628">
        <ele>121.40000152588</ele>
        <time>2024-05-21T10:38:55.000Z</time>
      </trkpt>
      <trkpt lat="45.06002" lon="4.85632">
        <ele>121.59999847412</ele>
        <time>2024-05-21T10:38:56.000Z</time>
      </trkpt>
      <trkpt lat="45.05997" lon="4.85637">
        <ele>121.59999847412</ele>
        <time>2024-05-21T10:38:57.000Z</time>
      </trkpt>
      <trkpt lat="45.05993" lon="4.85641">
        <ele>121.59999847412</ele>
        <time>2024-05-21T10:38:58.000Z</time>
      </trkpt>
      <trkpt lat="45.05988" lon="4.85645">
        <ele>121.80000305176</ele>
        <time>2024-05-21T10:38:59.000Z</time>
      </trkpt>
      <trkpt lat="45.05984" lon="4.85648">
        <ele>121.80000305176</ele>
        <time>2024-05-21T10:39:00.000Z</time>
      </trkpt>
      <trkpt lat="45.05979" lon="4.85652">
        <ele>121.80000305176</ele>
        <time>2024-05-21T10:39:01.000Z</time>
      </trkpt>
      <trkpt lat="45.05975" lon="4.85655">
        <ele>121.80000305176</ele>
        <time>2024-05-21T10:39:02.000Z</time>
      </trkpt>
      <trkpt lat="45.0597" lon="4.85659">
        <ele>121.80000305176</ele>
        <time>2024-05-21T10:39:03.000Z</time>
      </trkpt>
      <trkpt lat="45.05965" lon="4.85662">
        <ele>121.80000305176</ele>
        <time>2024-05-21T10:39:04.000Z</time>
      </trkpt>
      <trkpt lat="45.0596" lon="4.85665">
        <ele>121.80000305176</ele>
        <time>2024-05-21T10:39:05.000Z</time>
      </trkpt>
      <trkpt lat="45.05956" lon="4.85668">
        <ele>121.80000305176</ele>
        <time>2024-05-21T10:39:06.000Z</time>
      </trkpt>
      <trkpt lat="45.05951" lon="4.85672">
        <ele>121.59999847412</ele>
        <time>2024-05-21T10:39:07.000Z</time>
      </trkpt>
      <trkpt lat="45.05946" lon="4.85675">
        <ele>121.59999847412</ele>
        <time>2024-05-21T10:39:08.000Z</time>
      </trkpt>
      <trkpt lat="45.05941" lon="4.85679">
        <ele>121.59999847412</ele>
        <time>2024-05-21T10:39:09.000Z</time>
      </trkpt>
      <trkpt lat="45.05936" lon="4.85682">
        <ele>121.59999847412</ele>
        <time>2024-05-21T10:39:10.000Z</time>
      </trkpt>
      <trkpt lat="45.05931" lon="4.85685">
        <ele>121.40000152588</ele>
        <time>2024-05-21T10:39:11.000Z</time>
      </trkpt>
      <trkpt lat="45.05927" lon="4.85687">
        <ele>121.40000152588</ele>
        <time>2024-05-21T10:39:12.000Z</time>
      </trkpt>
      <trkpt lat="45.05922" lon="4.8569">
        <ele>121.40000152588</ele>
        <time>2024-05-21T10:39:13.000Z</time>
      </trkpt>
      <trkpt lat="45.05917" lon="4.85693">
        <ele>121.40000152588</ele>
        <time>2024-05-21T10:39:14.000Z</time>
      </trkpt>
      <trkpt lat="45.05912" lon="4.85696">
        <ele>121.40000152588</ele>
        <time>2024-05-21T10:39:15.000Z</time>
      </trkpt>
      <trkpt lat="45.05907" lon="4.85698">
        <ele>121.40000152588</ele>
        <time>2024-05-21T10:39:16.000Z</time>
      </trkpt>
      <trkpt lat="45.05902" lon="4.85701">
        <ele>121.40000152588</ele>
        <time>2024-05-21T10:39:17.000Z</time>
      </trkpt>
      <trkpt lat="45.05897" lon="4.85703">
        <ele>121.40000152588</ele>
        <time>2024-05-21T10:39:18.000Z</time>
      </trkpt>
      <trkpt lat="45.05892" lon="4.85706">
        <ele>121.40000152588</ele>
        <time>2024-05-21T10:39:19.000Z</time>
      </trkpt>
      <trkpt lat="45.05886" lon="4.85708">
        <ele>121.59999847412</ele>
        <time>2024-05-21T10:39:20.000Z</time>
      </trkpt>
      <trkpt lat="45.05881" lon="4.8571">
        <ele>121.59999847412</ele>
        <time>2024-05-21T10:39:21.000Z</time>
      </trkpt>
      <trkpt lat="45.05876" lon="4.85712">
        <ele>121.59999847412</ele>
        <time>2024-05-21T10:39:22.000Z</time>
      </trkpt>
      <trkpt lat="45.05871" lon="4.85714">
        <ele>121.59999847412</ele>
        <time>2024-05-21T10:39:23.000Z</time>
      </trkpt>
      <trkpt lat="45.05866" lon="4.85716">
        <ele>121.59999847412</ele>
        <time>2024-05-21T10:39:24.000Z</time>
      </trkpt>
      <trkpt lat="45.0586" lon="4.85718">
        <ele>121.59999847412</ele>
        <time>2024-05-21T10:39:25.000Z</time>
      </trkpt>
      <trkpt lat="45.05855" lon="4.8572">
        <ele>121.59999847412</ele>
        <time>2024-05-21T10:39:26.000Z</time>
      </trkpt>
      <trkpt lat="45.0585" lon="4.85722">
        <ele>121.59999847412</ele>
        <time>2024-05-21T10:39:27.000Z</time>
      </trkpt>
      <trkpt lat="45.05845" lon="4.85723">
        <ele>121.40000152588</ele>
        <time>2024-05-21T10:39:28.000Z</time>
      </trkpt>
      <trkpt lat="45.0584" lon="4.85724">
        <ele>121.40000152588</ele>
        <time>2024-05-21T10:39:29.000Z</time>
      </trkpt>
      <trkpt lat="45.05834" lon="4.85726">
        <ele>121.40000152588</ele>
        <time>2024-05-21T10:39:30.000Z</time>
      </trkpt>
      <trkpt lat="45.05829" lon="4.85727">
        <ele>121.40000152588</ele>
        <time>2024-05-21T10:39:31.000Z</time>
      </trkpt>
      <trkpt lat="45.05824" lon="4.85728">
        <ele>121.40000152588</ele>
        <time>2024-05-21T10:39:32.000Z</time>
      </trkpt>
      <trkpt lat="45.05818" lon="4.85729">
        <ele>121.40000152588</ele>
        <time>2024-05-21T10:39:33.000Z</time>
      </trkpt>
      <trkpt lat="45.05813" lon="4.8573">
        <ele>121.40000152588</ele>
        <time>2024-05-21T10:39:34.000Z</time>
      </trkpt>
      <trkpt lat="45.05808" lon="4.85731">
        <ele>121.40000152588</ele>
        <time>2024-05-21T10:39:35.000Z</time>
      </trkpt>
      <trkpt lat="45.05802" lon="4.85732">
        <ele>121.40000152588</ele>
        <time>2024-05-21T10:39:36.000Z</time>
      </trkpt>
      <trkpt lat="45.05797" lon="4.85733">
        <ele>121.40000152588</ele>
        <time>2024-05-21T10:39:37.000Z</time>
      </trkpt>
      <trkpt lat="45.05791" lon="4.85734">
        <ele>121.40000152588</ele>
        <time>2024-05-21T10:39:38.000Z</time>
      </trkpt>
      <trkpt lat="45.05786" lon="4.85734">
        <ele>121.40000152588</ele>
        <time>2024-05-21T10:39:39.000Z</time>
      </trkpt>
      <trkpt lat="45.05781" lon="4.85735">
        <ele>121.40000152588</ele>
        <time>2024-05-21T10:39:40.000Z</time>
      </trkpt>
      <trkpt lat="45.05775" lon="4.85735">
        <ele>121.40000152588</ele>
        <time>2024-05-21T10:39:41.000Z</time>
      </trkpt>
      <trkpt lat="45.0577" lon="4.85735">
        <ele>121.19999694824</ele>
        <time>2024-05-21T10:39:42.000Z</time>
      </trkpt>
      <trkpt lat="45.05765" lon="4.85736">
        <ele>121.19999694824</ele>
        <time>2024-05-21T10:39:43.000Z</time>
      </trkpt>
      <trkpt lat="45.05759" lon="4.85736">
        <ele>121.19999694824</ele>
        <time>2024-05-21T10:39:44.000Z</time>
      </trkpt>
      <trkpt lat="45.05754" lon="4.85736">
        <ele>121.19999694824</ele>
        <time>2024-05-21T10:39:45.000Z</time>
      </trkpt>
      <trkpt lat="45.05748" lon="4.85736">
        <ele>121.19999694824</ele>
        <time>2024-05-21T10:39:46.000Z</time>
      </trkpt>
      <trkpt lat="45.05743" lon="4.85736">
        <ele>121.19999694824</ele>
        <time>2024-05-21T10:39:47.000Z</time>
      </trkpt>
      <trkpt lat="45.05737" lon="4.85736">
        <ele>121.19999694824</ele>
        <time>2024-05-21T10:39:48.000Z</time>
      </trkpt>
      <trkpt lat="45.05732" lon="4.85735">
        <ele>121.19999694824</ele>
        <time>2024-05-21T10:39:49.000Z</time>
      </trkpt>
      <trkpt lat="45.05726" lon="4.85735">
        <ele>121.19999694824</ele>
        <time>2024-05-21T10:39:50.000Z</time>
      </trkpt>
      <trkpt lat="45.0572" lon="4.85735">
        <ele>121.40000152588</ele>
        <time>2024-05-21T10:39:51.000Z</time>
      </trkpt>
      <trkpt lat="45.05715" lon="4.85734">
        <ele>121.19999694824</ele>
        <time>2024-05-21T10:39:52.000Z</time>
      </trkpt>
      <trkpt lat="45.05709" lon="4.85733">
        <ele>121.19999694824</ele>
        <time>2024-05-21T10:39:53.000Z</time>
      </trkpt>
      <trkpt lat="45.05704" lon="4.85732">
        <ele>121.19999694824</ele>
        <time>2024-05-21T10:39:54.000Z</time>
      </trkpt>
      <trkpt lat="45.05698" lon="4.85732">
        <ele>121.40000152588</ele>
        <time>2024-05-21T10:39:55.000Z</time>
      </trkpt>
      <trkpt lat="45.05693" lon="4.85731">
        <ele>121.40000152588</ele>
        <time>2024-05-21T10:39:56.000Z</time>
      </trkpt>
      <trkpt lat="45.05688" lon="4.8573">
        <ele>121.40000152588</ele>
        <time>2024-05-21T10:39:57.000Z</time>
      </trkpt>
      <trkpt lat="45.05682" lon="4.85729">
        <ele>121.40000152588</ele>
        <time>2024-05-21T10:39:58.000Z</time>
      </trkpt>
      <trkpt lat="45.05676" lon="4.85728">
        <ele>121.19999694824</ele>
        <time>2024-05-21T10:39:59.000Z</time>
      </trkpt>
      <trkpt lat="45.05671" lon="4.85727">
        <ele>121.40000152588</ele>
        <time>2024-05-21T10:40:00.000Z</time>
      </trkpt>
      <trkpt lat="45.05665" lon="4.85726">
        <ele>121.40000152588</ele>
        <time>2024-05-21T10:40:01.000Z</time>
      </trkpt>
      <trkpt lat="45.05659" lon="4.85725">
        <ele>121.19999694824</ele>
        <time>2024-05-21T10:40:02.000Z</time>
      </trkpt>
      <trkpt lat="45.05654" lon="4.85725">
        <ele>121.19999694824</ele>
        <time>2024-05-21T10:40:03.000Z</time>
      </trkpt>
      <trkpt lat="45.05648" lon="4.85724">
        <ele>121.19999694824</ele>
        <time>2024-05-21T10:40:04.000Z</time>
      </trkpt>
      <trkpt lat="45.05643" lon="4.85723">
        <ele>121.40000152588</ele>
        <time>2024-05-21T10:40:05.000Z</time>
      </trkpt>
      <trkpt lat="45.05637" lon="4.85722">
        <ele>121.40000152588</ele>
        <time>2024-05-21T10:40:06.000Z</time>
      </trkpt>
      <trkpt lat="45.05631" lon="4.85721">
        <ele>121.40000152588</ele>
        <time>2024-05-21T10:40:07.000Z</time>
      </trkpt>
      <trkpt lat="45.05626" lon="4.8572">
        <ele>121.40000152588</ele>
        <time>2024-05-21T10:40:08.000Z</time>
      </trkpt>
      <trkpt lat="45.0562" lon="4.85719">
        <ele>121.40000152588</ele>
        <time>2024-05-21T10:40:09.000Z</time>
      </trkpt>
      <trkpt lat="45.05614" lon="4.85717">
        <ele>121.40000152588</ele>
        <time>2024-05-21T10:40:10.000Z</time>
      </trkpt>
      <trkpt lat="45.05609" lon="4.85716">
        <ele>121.40000152588</ele>
        <time>2024-05-21T10:40:11.000Z</time>
      </trkpt>
      <trkpt lat="45.05603" lon="4.85714">
        <ele>121.40000152588</ele>
        <time>2024-05-21T10:40:12.000Z</time>
      </trkpt>
      <trkpt lat="45.05598" lon="4.85713">
        <ele>121.19999694824</ele>
        <time>2024-05-21T10:40:13.000Z</time>
      </trkpt>
      <trkpt lat="45.05593" lon="4.85712">
        <ele>121.19999694824</ele>
        <time>2024-05-21T10:40:14.000Z</time>
      </trkpt>
      <trkpt lat="45.05587" lon="4.8571">
        <ele>121.19999694824</ele>
        <time>2024-05-21T10:40:15.000Z</time>
      </trkpt>
      <trkpt lat="45.05581" lon="4.85709">
        <ele>121.19999694824</ele>
        <time>2024-05-21T10:40:16.000Z</time>
      </trkpt>
      <trkpt lat="45.05575" lon="4.85708">
        <ele>121.19999694824</ele>
        <time>2024-05-21T10:40:17.000Z</time>
      </trkpt>
      <trkpt lat="45.0557" lon="4.85706">
        <ele>121.19999694824</ele>
        <time>2024-05-21T10:40:18.000Z</time>
      </trkpt>
      <trkpt lat="45.05564" lon="4.85705">
        <ele>121.19999694824</ele>
        <time>2024-05-21T10:40:19.000Z</time>
      </trkpt>
      <trkpt lat="45.05559" lon="4.85703">
        <ele>121.19999694824</ele>
        <time>2024-05-21T10:40:20.000Z</time>
      </trkpt>
      <trkpt lat="45.05554" lon="4.85701">
        <ele>121</ele>
        <time>2024-05-21T10:40:21.000Z</time>
      </trkpt>
      <trkpt lat="45.05548" lon="4.85699">
        <ele>121</ele>
        <time>2024-05-21T10:40:22.000Z</time>
      </trkpt>
      <trkpt lat="45.05543" lon="4.85698">
        <ele>121.19999694824</ele>
        <time>2024-05-21T10:40:23.000Z</time>
      </trkpt>
      <trkpt lat="45.05537" lon="4.85697">
        <ele>121</ele>
        <time>2024-05-21T10:40:24.000Z</time>
      </trkpt>
      <trkpt lat="45.05531" lon="4.85695">
        <ele>121</ele>
        <time>2024-05-21T10:40:25.000Z</time>
      </trkpt>
      <trkpt lat="45.05526" lon="4.85693">
        <ele>121</ele>
        <time>2024-05-21T10:40:26.000Z</time>
      </trkpt>
      <trkpt lat="45.0552" lon="4.85691">
        <ele>121</ele>
        <time>2024-05-21T10:40:27.000Z</time>
      </trkpt>
      <trkpt lat="45.05515" lon="4.8569">
        <ele>121</ele>
        <time>2024-05-21T10:40:28.000Z</time>
      </trkpt>
      <trkpt lat="45.05509" lon="4.85688">
        <ele>121</ele>
        <time>2024-05-21T10:40:29.000Z</time>
      </trkpt>
      <trkpt lat="45.05504" lon="4.85686">
        <ele>121</ele>
        <time>2024-05-21T10:40:30.000Z</time>
      </trkpt>
      <trkpt lat="45.05499" lon="4.85683">
        <ele>120.80000305176</ele>
        <time>2024-05-21T10:40:31.000Z</time>
      </trkpt>
      <trkpt lat="45.05494" lon="4.85681">
        <ele>120.80000305176</ele>
        <time>2024-05-21T10:40:32.000Z</time>
      </trkpt>
      <trkpt lat="45.05488" lon="4.85679">
        <ele>120.80000305176</ele>
        <time>2024-05-21T10:40:33.000Z</time>
      </trkpt>
      <trkpt lat="45.05483" lon="4.85676">
        <ele>120.80000305176</ele>
        <time>2024-05-21T10:40:34.000Z</time>
      </trkpt>
      <trkpt lat="45.05478" lon="4.85674">
        <ele>120.80000305176</ele>
        <time>2024-05-21T10:40:35.000Z</time>
      </trkpt>
      <trkpt lat="45.05472" lon="4.85672">
        <ele>120.80000305176</ele>
        <time>2024-05-21T10:40:36.000Z</time>
      </trkpt>
      <trkpt lat="45.05467" lon="4.85669">
        <ele>120.80000305176</ele>
        <time>2024-05-21T10:40:37.000Z</time>
      </trkpt>
      <trkpt lat="45.05462" lon="4.85667">
        <ele>120.80000305176</ele>
        <time>2024-05-21T10:40:38.000Z</time>
      </trkpt>
      <trkpt lat="45.05456" lon="4.85665">
        <ele>120.80000305176</ele>
        <time>2024-05-21T10:40:39.000Z</time>
      </trkpt>
      <trkpt lat="45.05451" lon="4.85662">
        <ele>120.80000305176</ele>
        <time>2024-05-21T10:40:40.000Z</time>
      </trkpt>
      <trkpt lat="45.05446" lon="4.8566">
        <ele>120.80000305176</ele>
        <time>2024-05-21T10:40:41.000Z</time>
      </trkpt>
      <trkpt lat="45.05441" lon="4.85658">
        <ele>120.80000305176</ele>
        <time>2024-05-21T10:40:42.000Z</time>
      </trkpt>
      <trkpt lat="45.05436" lon="4.85656">
        <ele>120.80000305176</ele>
        <time>2024-05-21T10:40:43.000Z</time>
      </trkpt>
      <trkpt lat="45.0543" lon="4.85653">
        <ele>120.80000305176</ele>
        <time>2024-05-21T10:40:44.000Z</time>
      </trkpt>
      <trkpt lat="45.05425" lon="4.85651">
        <ele>120.80000305176</ele>
        <time>2024-05-21T10:40:45.000Z</time>
      </trkpt>
      <trkpt lat="45.0542" lon="4.85648">
        <ele>120.80000305176</ele>
        <time>2024-05-21T10:40:46.000Z</time>
      </trkpt>
      <trkpt lat="45.05415" lon="4.85646">
        <ele>120.80000305176</ele>
        <time>2024-05-21T10:40:47.000Z</time>
      </trkpt>
      <trkpt lat="45.0541" lon="4.85643">
        <ele>120.80000305176</ele>
        <time>2024-05-21T10:40:48.000Z</time>
      </trkpt>
      <trkpt lat="45.05405" lon="4.8564">
        <ele>120.80000305176</ele>
        <time>2024-05-21T10:40:49.000Z</time>
      </trkpt>
      <trkpt lat="45.054" lon="4.85638">
        <ele>120.80000305176</ele>
        <time>2024-05-21T10:40:50.000Z</time>
      </trkpt>
      <trkpt lat="45.05395" lon="4.85635">
        <ele>120.80000305176</ele>
        <time>2024-05-21T10:40:51.000Z</time>
      </trkpt>
      <trkpt lat="45.05389" lon="4.85632">
        <ele>120.80000305176</ele>
        <time>2024-05-21T10:40:52.000Z</time>
      </trkpt>
      <trkpt lat="45.05384" lon="4.85629">
        <ele>120.80000305176</ele>
        <time>2024-05-21T10:40:53.000Z</time>
      </trkpt>
      <trkpt lat="45.05379" lon="4.85626">
        <ele>120.80000305176</ele>
        <time>2024-05-21T10:40:54.000Z</time>
      </trkpt>
      <trkpt lat="45.05373" lon="4.85623">
        <ele>120.80000305176</ele>
        <time>2024-05-21T10:40:55.000Z</time>
      </trkpt>
      <trkpt lat="45.05368" lon="4.8562">
        <ele>120.80000305176</ele>
        <time>2024-05-21T10:40:56.000Z</time>
      </trkpt>
      <trkpt lat="45.05363" lon="4.85617">
        <ele>120.59999847412</ele>
        <time>2024-05-21T10:40:57.000Z</time>
      </trkpt>
      <trkpt lat="45.05358" lon="4.85614">
        <ele>120.59999847412</ele>
        <time>2024-05-21T10:40:58.000Z</time>
      </trkpt>
      <trkpt lat="45.05353" lon="4.85611">
        <ele>120.59999847412</ele>
        <time>2024-05-21T10:40:59.000Z</time>
      </trkpt>
      <trkpt lat="45.05347" lon="4.85608">
        <ele>120.59999847412</ele>
        <time>2024-05-21T10:41:00.000Z</time>
      </trkpt>
      <trkpt lat="45.05342" lon="4.85605">
        <ele>120.59999847412</ele>
        <time>2024-05-21T10:41:01.000Z</time>
      </trkpt>
      <trkpt lat="45.05337" lon="4.85602">
        <ele>120.59999847412</ele>
        <time>2024-05-21T10:41:02.000Z</time>
      </trkpt>
      <trkpt lat="45.05332" lon="4.85599">
        <ele>120.59999847412</ele>
        <time>2024-05-21T10:41:03.000Z</time>
      </trkpt>
      <trkpt lat="45.05327" lon="4.85596">
        <ele>120.59999847412</ele>
        <time>2024-05-21T10:41:04.000Z</time>
      </trkpt>
      <trkpt lat="45.05321" lon="4.85593">
        <ele>120.59999847412</ele>
        <time>2024-05-21T10:41:05.000Z</time>
      </trkpt>
      <trkpt lat="45.05317" lon="4.8559">
        <ele>120.59999847412</ele>
        <time>2024-05-21T10:41:06.000Z</time>
      </trkpt>
      <trkpt lat="45.05311" lon="4.85587">
        <ele>120.59999847412</ele>
        <time>2024-05-21T10:41:07.000Z</time>
      </trkpt>
      <trkpt lat="45.05306" lon="4.85583">
        <ele>120.59999847412</ele>
        <time>2024-05-21T10:41:08.000Z</time>
      </trkpt>
      <trkpt lat="45.05302" lon="4.8558">
        <ele>120.59999847412</ele>
        <time>2024-05-21T10:41:09.000Z</time>
      </trkpt>
      <trkpt lat="45.05297" lon="4.85577">
        <ele>120.59999847412</ele>
        <time>2024-05-21T10:41:10.000Z</time>
      </trkpt>
      <trkpt lat="45.05291" lon="4.85573">
        <ele>120.40000152588</ele>
        <time>2024-05-21T10:41:11.000Z</time>
      </trkpt>
      <trkpt lat="45.05286" lon="4.8557">
        <ele>120.40000152588</ele>
        <time>2024-05-21T10:41:12.000Z</time>
      </trkpt>
      <trkpt lat="45.05282" lon="4.85566">
        <ele>120.40000152588</ele>
        <time>2024-05-21T10:41:13.000Z</time>
      </trkpt>
      <trkpt lat="45.05277" lon="4.85563">
        <ele>120.40000152588</ele>
        <time>2024-05-21T10:41:14.000Z</time>
      </trkpt>
      <trkpt lat="45.05272" lon="4.85559">
        <ele>120.40000152588</ele>
        <time>2024-05-21T10:41:15.000Z</time>
      </trkpt>
      <trkpt lat="45.05267" lon="4.85555">
        <ele>120.40000152588</ele>
        <time>2024-05-21T10:41:16.000Z</time>
      </trkpt>
      <trkpt lat="45.05263" lon="4.85552">
        <ele>120.19999694824</ele>
        <time>2024-05-21T10:41:17.000Z</time>
      </trkpt>
      <trkpt lat="45.05258" lon="4.85548">
        <ele>120.19999694824</ele>
        <time>2024-05-21T10:41:18.000Z</time>
      </trkpt>
      <trkpt lat="45.05253" lon="4.85545">
        <ele>120.19999694824</ele>
        <time>2024-05-21T10:41:19.000Z</time>
      </trkpt>
      <trkpt lat="45.05248" lon="4.85542">
        <ele>120.19999694824</ele>
        <time>2024-05-21T10:41:20.000Z</time>
      </trkpt>
      <trkpt lat="45.05243" lon="4.85538">
        <ele>120.19999694824</ele>
        <time>2024-05-21T10:41:21.000Z</time>
      </trkpt>
      <trkpt lat="45.05238" lon="4.85534">
        <ele>120.19999694824</ele>
        <time>2024-05-21T10:41:22.000Z</time>
      </trkpt>
      <trkpt lat="45.05233" lon="4.85529">
        <ele>120.19999694824</ele>
        <time>2024-05-21T10:41:23.000Z</time>
      </trkpt>
      <trkpt lat="45.05229" lon="4.85525">
        <ele>120.19999694824</ele>
        <time>2024-05-21T10:41:24.000Z</time>
      </trkpt>
      <trkpt lat="45.05224" lon="4.85522">
        <ele>120.40000152588</ele>
        <time>2024-05-21T10:41:25.000Z</time>
      </trkpt>
      <trkpt lat="45.05219" lon="4.85518">
        <ele>120.40000152588</ele>
        <time>2024-05-21T10:41:26.000Z</time>
      </trkpt>
      <trkpt lat="45.05214" lon="4.85514">
        <ele>120.40000152588</ele>
        <time>2024-05-21T10:41:27.000Z</time>
      </trkpt>
      <trkpt lat="45.05209" lon="4.8551">
        <ele>120.40000152588</ele>
        <time>2024-05-21T10:41:28.000Z</time>
      </trkpt>
      <trkpt lat="45.05205" lon="4.85506">
        <ele>120.40000152588</ele>
        <time>2024-05-21T10:41:29.000Z</time>
      </trkpt>
      <trkpt lat="45.052" lon="4.85502">
        <ele>120.40000152588</ele>
        <time>2024-05-21T10:41:30.000Z</time>
      </trkpt>
      <trkpt lat="45.05195" lon="4.85498">
        <ele>120.40000152588</ele>
        <time>2024-05-21T10:41:31.000Z</time>
      </trkpt>
      <trkpt lat="45.0519" lon="4.85494">
        <ele>120.40000152588</ele>
        <time>2024-05-21T10:41:32.000Z</time>
      </trkpt>
      <trkpt lat="45.05186" lon="4.8549">
        <ele>120.40000152588</ele>
        <time>2024-05-21T10:41:33.000Z</time>
      </trkpt>
      <trkpt lat="45.05181" lon="4.85486">
        <ele>120.40000152588</ele>
        <time>2024-05-21T10:41:34.000Z</time>
      </trkpt>
      <trkpt lat="45.05176" lon="4.85481">
        <ele>120.40000152588</ele>
        <time>2024-05-21T10:41:35.000Z</time>
      </trkpt>
      <trkpt lat="45.05172" lon="4.85477">
        <ele>120.40000152588</ele>
        <time>2024-05-21T10:41:36.000Z</time>
      </trkpt>
      <trkpt lat="45.05167" lon="4.85473">
        <ele>120.19999694824</ele>
        <time>2024-05-21T10:41:37.000Z</time>
      </trkpt>
      <trkpt lat="45.05163" lon="4.85468">
        <ele>120.19999694824</ele>
        <time>2024-05-21T10:41:38.000Z</time>
      </trkpt>
      <trkpt lat="45.05159" lon="4.85464">
        <ele>120</ele>
        <time>2024-05-21T10:41:39.000Z</time>
      </trkpt>
      <trkpt lat="45.05154" lon="4.8546">
        <ele>120</ele>
        <time>2024-05-21T10:41:40.000Z</time>
      </trkpt>
      <trkpt lat="45.0515" lon="4.85456">
        <ele>120</ele>
        <time>2024-05-21T10:41:41.000Z</time>
      </trkpt>
      <trkpt lat="45.05145" lon="4.85452">
        <ele>120</ele>
        <time>2024-05-21T10:41:42.000Z</time>
      </trkpt>
      <trkpt lat="45.0514" lon="4.85447">
        <ele>120</ele>
        <time>2024-05-21T10:41:43.000Z</time>
      </trkpt>
      <trkpt lat="45.05136" lon="4.85443">
        <ele>120</ele>
        <time>2024-05-21T10:41:44.000Z</time>
      </trkpt>
      <trkpt lat="45.05131" lon="4.85439">
        <ele>120</ele>
        <time>2024-05-21T10:41:45.000Z</time>
      </trkpt>
      <trkpt lat="45.05127" lon="4.85434">
        <ele>120</ele>
        <time>2024-05-21T10:41:46.000Z</time>
      </trkpt>
      <trkpt lat="45.05122" lon="4.85429">
        <ele>120</ele>
        <time>2024-05-21T10:41:47.000Z</time>
      </trkpt>
      <trkpt lat="45.05117" lon="4.85424">
        <ele>120</ele>
        <time>2024-05-21T10:41:48.000Z</time>
      </trkpt>
      <trkpt lat="45.05114" lon="4.8542">
        <ele>120.19999694824</ele>
        <time>2024-05-21T10:41:49.000Z</time>
      </trkpt>
      <trkpt lat="45.05108" lon="4.85414">
        <ele>120.40000152588</ele>
        <time>2024-05-21T10:41:50.000Z</time>
      </trkpt>
      <trkpt lat="45.05104" lon="4.8541">
        <ele>120.40000152588</ele>
        <time>2024-05-21T10:41:51.000Z</time>
      </trkpt>
      <trkpt lat="45.05099" lon="4.85405">
        <ele>120.40000152588</ele>
        <time>2024-05-21T10:41:52.000Z</time>
      </trkpt>
      <trkpt lat="45.05095" lon="4.854">
        <ele>120.40000152588</ele>
        <time>2024-05-21T10:41:53.000Z</time>
      </trkpt>
      <trkpt lat="45.0509" lon="4.85395">
        <ele>120.19999694824</ele>
        <time>2024-05-21T10:41:54.000Z</time>
      </trkpt>
      <trkpt lat="45.05086" lon="4.8539">
        <ele>120.19999694824</ele>
        <time>2024-05-21T10:41:55.000Z</time>
      </trkpt>
      <trkpt lat="45.05081" lon="4.85385">
        <ele>120.19999694824</ele>
        <time>2024-05-21T10:41:56.000Z</time>
      </trkpt>
      <trkpt lat="45.05077" lon="4.8538">
        <ele>120.19999694824</ele>
        <time>2024-05-21T10:41:57.000Z</time>
      </trkpt>
      <trkpt lat="45.05072" lon="4.85375">
        <ele>120.19999694824</ele>
        <time>2024-05-21T10:41:58.000Z</time>
      </trkpt>
      <trkpt lat="45.05067" lon="4.8537">
        <ele>120</ele>
        <time>2024-05-21T10:41:59.000Z</time>
      </trkpt>
      <trkpt lat="45.05063" lon="4.85365">
        <ele>120</ele>
        <time>2024-05-21T10:42:00.000Z</time>
      </trkpt>
      <trkpt lat="45.05058" lon="4.8536">
        <ele>120</ele>
        <time>2024-05-21T10:42:01.000Z</time>
      </trkpt>
      <trkpt lat="45.05054" lon="4.85356">
        <ele>120</ele>
        <time>2024-05-21T10:42:02.000Z</time>
      </trkpt>
      <trkpt lat="45.05049" lon="4.85351">
        <ele>120</ele>
        <time>2024-05-21T10:42:03.000Z</time>
      </trkpt>
      <trkpt lat="45.05045" lon="4.85347">
        <ele>120</ele>
        <time>2024-05-21T10:42:04.000Z</time>
      </trkpt>
      <trkpt lat="45.0504" lon="4.85342">
        <ele>120</ele>
        <time>2024-05-21T10:42:05.000Z</time>
      </trkpt>
      <trkpt lat="45.05036" lon="4.85337">
        <ele>120</ele>
        <time>2024-05-21T10:42:06.000Z</time>
      </trkpt>
      <trkpt lat="45.05031" lon="4.85332">
        <ele>120</ele>
        <time>2024-05-21T10:42:07.000Z</time>
      </trkpt>
      <trkpt lat="45.05027" lon="4.85327">
        <ele>120</ele>
        <time>2024-05-21T10:42:08.000Z</time>
      </trkpt>
      <trkpt lat="45.05022" lon="4.85322">
        <ele>120</ele>
        <time>2024-05-21T10:42:09.000Z</time>
      </trkpt>
      <trkpt lat="45.05018" lon="4.85317">
        <ele>120</ele>
        <time>2024-05-21T10:42:10.000Z</time>
      </trkpt>
      <trkpt lat="45.05013" lon="4.85312">
        <ele>120</ele>
        <time>2024-05-21T10:42:11.000Z</time>
      </trkpt>
      <trkpt lat="45.05008" lon="4.85307">
        <ele>120</ele>
        <time>2024-05-21T10:42:12.000Z</time>
      </trkpt>
      <trkpt lat="45.05004" lon="4.85302">
        <ele>120</ele>
        <time>2024-05-21T10:42:13.000Z</time>
      </trkpt>
      <trkpt lat="45.04999" lon="4.85297">
        <ele>120</ele>
        <time>2024-05-21T10:42:14.000Z</time>
      </trkpt>
      <trkpt lat="45.04995" lon="4.85292">
        <ele>120</ele>
        <time>2024-05-21T10:42:15.000Z</time>
      </trkpt>
      <trkpt lat="45.0499" lon="4.85287">
        <ele>120</ele>
        <time>2024-05-21T10:42:16.000Z</time>
      </trkpt>
      <trkpt lat="45.04986" lon="4.85282">
        <ele>120</ele>
        <time>2024-05-21T10:42:17.000Z</time>
      </trkpt>
      <trkpt lat="45.04982" lon="4.85278">
        <ele>120</ele>
        <time>2024-05-21T10:42:18.000Z</time>
      </trkpt>
      <trkpt lat="45.04977" lon="4.85273">
        <ele>120</ele>
        <time>2024-05-21T10:42:19.000Z</time>
      </trkpt>
      <trkpt lat="45.04973" lon="4.85269">
        <ele>120</ele>
        <time>2024-05-21T10:42:20.000Z</time>
      </trkpt>
      <trkpt lat="45.04968" lon="4.85264">
        <ele>120</ele>
        <time>2024-05-21T10:42:21.000Z</time>
      </trkpt>
      <trkpt lat="45.04964" lon="4.85258">
        <ele>120</ele>
        <time>2024-05-21T10:42:22.000Z</time>
      </trkpt>
      <trkpt lat="45.04959" lon="4.85253">
        <ele>120</ele>
        <time>2024-05-21T10:42:23.000Z</time>
      </trkpt>
      <trkpt lat="45.04955" lon="4.85248">
        <ele>120</ele>
        <time>2024-05-21T10:42:24.000Z</time>
      </trkpt>
      <trkpt lat="45.0495" lon="4.85243">
        <ele>120</ele>
        <time>2024-05-21T10:42:25.000Z</time>
      </trkpt>
      <trkpt lat="45.04945" lon="4.85239">
        <ele>120</ele>
        <time>2024-05-21T10:42:26.000Z</time>
      </trkpt>
      <trkpt lat="45.04941" lon="4.85234">
        <ele>120</ele>
        <time>2024-05-21T10:42:27.000Z</time>
      </trkpt>
      <trkpt lat="45.04937" lon="4.85228">
        <ele>120</ele>
        <time>2024-05-21T10:42:28.000Z</time>
      </trkpt>
      <trkpt lat="45.04932" lon="4.85223">
        <ele>120</ele>
        <time>2024-05-21T10:42:29.000Z</time>
      </trkpt>
      <trkpt lat="45.04928" lon="4.85218">
        <ele>120</ele>
        <time>2024-05-21T10:42:30.000Z</time>
      </trkpt>
      <trkpt lat="45.04923" lon="4.85214">
        <ele>120</ele>
        <time>2024-05-21T10:42:31.000Z</time>
      </trkpt>
      <trkpt lat="45.04919" lon="4.85209">
        <ele>120</ele>
        <time>2024-05-21T10:42:32.000Z</time>
      </trkpt>
      <trkpt lat="45.04914" lon="4.85204">
        <ele>120</ele>
        <time>2024-05-21T10:42:33.000Z</time>
      </trkpt>
      <trkpt lat="45.0491" lon="4.852">
        <ele>120.19999694824</ele>
        <time>2024-05-21T10:42:34.000Z</time>
      </trkpt>
      <trkpt lat="45.04906" lon="4.85195">
        <ele>120.19999694824</ele>
        <time>2024-05-21T10:42:35.000Z</time>
      </trkpt>
      <trkpt lat="45.04902" lon="4.8519">
        <ele>120.19999694824</ele>
        <time>2024-05-21T10:42:36.000Z</time>
      </trkpt>
      <trkpt lat="45.04898" lon="4.85185">
        <ele>120.19999694824</ele>
        <time>2024-05-21T10:42:37.000Z</time>
      </trkpt>
      <trkpt lat="45.04893" lon="4.8518">
        <ele>120.19999694824</ele>
        <time>2024-05-21T10:42:38.000Z</time>
      </trkpt>
      <trkpt lat="45.04888" lon="4.85175">
        <ele>120.19999694824</ele>
        <time>2024-05-21T10:42:39.000Z</time>
      </trkpt>
      <trkpt lat="45.04884" lon="4.8517">
        <ele>120.19999694824</ele>
        <time>2024-05-21T10:42:40.000Z</time>
      </trkpt>
      <trkpt lat="45.04879" lon="4.85165">
        <ele>120.19999694824</ele>
        <time>2024-05-21T10:42:41.000Z</time>
      </trkpt>
      <trkpt lat="45.04874" lon="4.8516">
        <ele>120.19999694824</ele>
        <time>2024-05-21T10:42:42.000Z</time>
      </trkpt>
      <trkpt lat="45.04869" lon="4.85155">
        <ele>120</ele>
        <time>2024-05-21T10:42:43.000Z</time>
      </trkpt>
      <trkpt lat="45.04865" lon="4.8515">
        <ele>120</ele>
        <time>2024-05-21T10:42:44.000Z</time>
      </trkpt>
      <trkpt lat="45.0486" lon="4.85145">
        <ele>120</ele>
        <time>2024-05-21T10:42:45.000Z</time>
      </trkpt>
      <trkpt lat="45.04855" lon="4.85141">
        <ele>120</ele>
        <time>2024-05-21T10:42:46.000Z</time>
      </trkpt>
      <trkpt lat="45.04851" lon="4.85136">
        <ele>120</ele>
        <time>2024-05-21T10:42:47.000Z</time>
      </trkpt>
      <trkpt lat="45.04846" lon="4.85131">
        <ele>119.80000305176</ele>
        <time>2024-05-21T10:42:48.000Z</time>
      </trkpt>
      <trkpt lat="45.04842" lon="4.85126">
        <ele>119.80000305176</ele>
        <time>2024-05-21T10:42:49.000Z</time>
      </trkpt>
      <trkpt lat="45.04836" lon="4.8512">
        <ele>119.80000305176</ele>
        <time>2024-05-21T10:42:50.000Z</time>
      </trkpt>
      <trkpt lat="45.04832" lon="4.85115">
        <ele>119.80000305176</ele>
        <time>2024-05-21T10:42:51.000Z</time>
      </trkpt>
      <trkpt lat="45.04827" lon="4.8511">
        <ele>119.80000305176</ele>
        <time>2024-05-21T10:42:52.000Z</time>
      </trkpt>
      <trkpt lat="45.04823" lon="4.85105">
        <ele>119.80000305176</ele>
        <time>2024-05-21T10:42:53.000Z</time>
      </trkpt>
      <trkpt lat="45.04818" lon="4.851">
        <ele>119.80000305176</ele>
        <time>2024-05-21T10:42:54.000Z</time>
      </trkpt>
      <trkpt lat="45.04814" lon="4.85095">
        <ele>119.80000305176</ele>
        <time>2024-05-21T10:42:55.000Z</time>
      </trkpt>
      <trkpt lat="45.04809" lon="4.8509">
        <ele>119.80000305176</ele>
        <time>2024-05-21T10:42:56.000Z</time>
      </trkpt>
      <trkpt lat="45.04804" lon="4.85085">
        <ele>119.80000305176</ele>
        <time>2024-05-21T10:42:57.000Z</time>
      </trkpt>
      <trkpt lat="45.048" lon="4.8508">
        <ele>119.80000305176</ele>
        <time>2024-05-21T10:42:58.000Z</time>
      </trkpt>
      <trkpt lat="45.04795" lon="4.85074">
        <ele>119.80000305176</ele>
        <time>2024-05-21T10:42:59.000Z</time>
      </trkpt>
      <trkpt lat="45.0479" lon="4.8507">
        <ele>119.80000305176</ele>
        <time>2024-05-21T10:43:00.000Z</time>
      </trkpt>
      <trkpt lat="45.04785" lon="4.85064">
        <ele>120</ele>
        <time>2024-05-21T10:43:01.000Z</time>
      </trkpt>
      <trkpt lat="45.04781" lon="4.85059">
        <ele>119.80000305176</ele>
        <time>2024-05-21T10:43:02.000Z</time>
      </trkpt>
      <trkpt lat="45.04776" lon="4.85054">
        <ele>120</ele>
        <time>2024-05-21T10:43:03.000Z</time>
      </trkpt>
      <trkpt lat="45.04772" lon="4.8505">
        <ele>120</ele>
        <time>2024-05-21T10:43:04.000Z</time>
      </trkpt>
      <trkpt lat="45.04768" lon="4.85045">
        <ele>120</ele>
        <time>2024-05-21T10:43:05.000Z</time>
      </trkpt>
      <trkpt lat="45.04764" lon="4.85041">
        <ele>120</ele>
        <time>2024-05-21T10:43:06.000Z</time>
      </trkpt>
      <trkpt lat="45.04759" lon="4.85036">
        <ele>120</ele>
        <time>2024-05-21T10:43:07.000Z</time>
      </trkpt>
      <trkpt lat="45.04755" lon="4.85031">
        <ele>119.80000305176</ele>
        <time>2024-05-21T10:43:08.000Z</time>
      </trkpt>
      <trkpt lat="45.0475" lon="4.85027">
        <ele>119.80000305176</ele>
        <time>2024-05-21T10:43:09.000Z</time>
      </trkpt>
      <trkpt lat="45.04746" lon="4.85022">
        <ele>119.80000305176</ele>
        <time>2024-05-21T10:43:10.000Z</time>
      </trkpt>
      <trkpt lat="45.04741" lon="4.85017">
        <ele>119.80000305176</ele>
        <time>2024-05-21T10:43:11.000Z</time>
      </trkpt>
      <trkpt lat="45.04736" lon="4.85012">
        <ele>119.80000305176</ele>
        <time>2024-05-21T10:43:12.000Z</time>
      </trkpt>
      <trkpt lat="45.04732" lon="4.85006">
        <ele>119.59999847412</ele>
        <time>2024-05-21T10:43:13.000Z</time>
      </trkpt>
      <trkpt lat="45.04728" lon="4.85001">
        <ele>119.59999847412</ele>
        <time>2024-05-21T10:43:14.000Z</time>
      </trkpt>
      <trkpt lat="45.04723" lon="4.84996">
        <ele>119.59999847412</ele>
        <time>2024-05-21T10:43:15.000Z</time>
      </trkpt>
      <trkpt lat="45.04719" lon="4.84992">
        <ele>119.59999847412</ele>
        <time>2024-05-21T10:43:16.000Z</time>
      </trkpt>
      <trkpt lat="45.04714" lon="4.84986">
        <ele>119.59999847412</ele>
        <time>2024-05-21T10:43:17.000Z</time>
      </trkpt>
      <trkpt lat="45.0471" lon="4.84981">
        <ele>119.59999847412</ele>
        <time>2024-05-21T10:43:18.000Z</time>
      </trkpt>
      <trkpt lat="45.04705" lon="4.84976">
        <ele>119.59999847412</ele>
        <time>2024-05-21T10:43:19.000Z</time>
      </trkpt>
      <trkpt lat="45.04701" lon="4.84971">
        <ele>119.80000305176</ele>
        <time>2024-05-21T10:43:20.000Z</time>
      </trkpt>
      <trkpt lat="45.04696" lon="4.84966">
        <ele>119.80000305176</ele>
        <time>2024-05-21T10:43:21.000Z</time>
      </trkpt>
      <trkpt lat="45.04692" lon="4.84962">
        <ele>119.80000305176</ele>
        <time>2024-05-21T10:43:22.000Z</time>
      </trkpt>
      <trkpt lat="45.04688" lon="4.84957">
        <ele>120</ele>
        <time>2024-05-21T10:43:23.000Z</time>
      </trkpt>
      <trkpt lat="45.04683" lon="4.84952">
        <ele>120</ele>
        <time>2024-05-21T10:43:24.000Z</time>
      </trkpt>
      <trkpt lat="45.04679" lon="4.84948">
        <ele>120</ele>
        <time>2024-05-21T10:43:25.000Z</time>
      </trkpt>
      <trkpt lat="45.04675" lon="4.84944">
        <ele>120</ele>
        <time>2024-05-21T10:43:26.000Z</time>
      </trkpt>
      <trkpt lat="45.0467" lon="4.84939">
        <ele>120.19999694824</ele>
        <time>2024-05-21T10:43:27.000Z</time>
      </trkpt>
      <trkpt lat="45.04666" lon="4.84933">
        <ele>120.19999694824</ele>
        <time>2024-05-21T10:43:28.000Z</time>
      </trkpt>
      <trkpt lat="45.04661" lon="4.84928">
        <ele>120.19999694824</ele>
        <time>2024-05-21T10:43:29.000Z</time>
      </trkpt>
      <trkpt lat="45.04656" lon="4.84923">
        <ele>120.19999694824</ele>
        <time>2024-05-21T10:43:30.000Z</time>
      </trkpt>
      <trkpt lat="45.04652" lon="4.84918">
        <ele>120.19999694824</ele>
        <time>2024-05-21T10:43:31.000Z</time>
      </trkpt>
      <trkpt lat="45.04648" lon="4.84913">
        <ele>120.19999694824</ele>
        <time>2024-05-21T10:43:32.000Z</time>
      </trkpt>
      <trkpt lat="45.04643" lon="4.84908">
        <ele>120.19999694824</ele>
        <time>2024-05-21T10:43:33.000Z</time>
      </trkpt>
      <trkpt lat="45.04639" lon="4.84903">
        <ele>120</ele>
        <time>2024-05-21T10:43:34.000Z</time>
      </trkpt>
      <trkpt lat="45.04634" lon="4.84898">
        <ele>120</ele>
        <time>2024-05-21T10:43:35.000Z</time>
      </trkpt>
      <trkpt lat="45.0463" lon="4.84893">
        <ele>120</ele>
        <time>2024-05-21T10:43:36.000Z</time>
      </trkpt>
      <trkpt lat="45.04626" lon="4.84888">
        <ele>120</ele>
        <time>2024-05-21T10:43:37.000Z</time>
      </trkpt>
      <trkpt lat="45.04622" lon="4.84883">
        <ele>119.80000305176</ele>
        <time>2024-05-21T10:43:38.000Z</time>
      </trkpt>
      <trkpt lat="45.04618" lon="4.84878">
        <ele>119.80000305176</ele>
        <time>2024-05-21T10:43:39.000Z</time>
      </trkpt>
      <trkpt lat="45.04613" lon="4.84873">
        <ele>119.80000305176</ele>
        <time>2024-05-21T10:43:40.000Z</time>
      </trkpt>
      <trkpt lat="45.04609" lon="4.84868">
        <ele>119.80000305176</ele>
        <time>2024-05-21T10:43:41.000Z</time>
      </trkpt>
      <trkpt lat="45.04605" lon="4.84863">
        <ele>119.80000305176</ele>
        <time>2024-05-21T10:43:42.000Z</time>
      </trkpt>
      <trkpt lat="45.04601" lon="4.84858">
        <ele>119.80000305176</ele>
        <time>2024-05-21T10:43:43.000Z</time>
      </trkpt>
      <trkpt lat="45.04597" lon="4.84852">
        <ele>119.80000305176</ele>
        <time>2024-05-21T10:43:44.000Z</time>
      </trkpt>
      <trkpt lat="45.04592" lon="4.84847">
        <ele>119.80000305176</ele>
        <time>2024-05-21T10:43:45.000Z</time>
      </trkpt>
      <trkpt lat="45.04588" lon="4.84841">
        <ele>119.80000305176</ele>
        <time>2024-05-21T10:43:46.000Z</time>
      </trkpt>
      <trkpt lat="45.04583" lon="4.84836">
        <ele>119.80000305176</ele>
        <time>2024-05-21T10:43:47.000Z</time>
      </trkpt>
      <trkpt lat="45.04579" lon="4.84831">
        <ele>119.80000305176</ele>
        <time>2024-05-21T10:43:48.000Z</time>
      </trkpt>
      <trkpt lat="45.04575" lon="4.84826">
        <ele>119.80000305176</ele>
        <time>2024-05-21T10:43:49.000Z</time>
      </trkpt>
      <trkpt lat="45.04571" lon="4.84821">
        <ele>119.80000305176</ele>
        <time>2024-05-21T10:43:50.000Z</time>
      </trkpt>
      <trkpt lat="45.04567" lon="4.84815">
        <ele>119.80000305176</ele>
        <time>2024-05-21T10:43:51.000Z</time>
      </trkpt>
      <trkpt lat="45.04563" lon="4.8481">
        <ele>119.80000305176</ele>
        <time>2024-05-21T10:43:52.000Z</time>
      </trkpt>
      <trkpt lat="45.04559" lon="4.84804">
        <ele>119.59999847412</ele>
        <time>2024-05-21T10:43:53.000Z</time>
      </trkpt>
      <trkpt lat="45.04554" lon="4.84798">
        <ele>119.59999847412</ele>
        <time>2024-05-21T10:43:54.000Z</time>
      </trkpt>
      <trkpt lat="45.0455" lon="4.84793">
        <ele>119.59999847412</ele>
        <time>2024-05-21T10:43:55.000Z</time>
      </trkpt>
      <trkpt lat="45.04546" lon="4.84787">
        <ele>119.40000152588</ele>
        <time>2024-05-21T10:43:56.000Z</time>
      </trkpt>
      <trkpt lat="45.04542" lon="4.84782">
        <ele>119.40000152588</ele>
        <time>2024-05-21T10:43:57.000Z</time>
      </trkpt>
      <trkpt lat="45.04538" lon="4.84776">
        <ele>119.40000152588</ele>
        <time>2024-05-21T10:43:58.000Z</time>
      </trkpt>
      <trkpt lat="45.04534" lon="4.8477">
        <ele>119.40000152588</ele>
        <time>2024-05-21T10:43:59.000Z</time>
      </trkpt>
      <trkpt lat="45.0453" lon="4.84764">
        <ele>119.40000152588</ele>
        <time>2024-05-21T10:44:00.000Z</time>
      </trkpt>
      <trkpt lat="45.04526" lon="4.84758">
        <ele>119.40000152588</ele>
        <time>2024-05-21T10:44:01.000Z</time>
      </trkpt>
      <trkpt lat="45.04522" lon="4.84753">
        <ele>119.40000152588</ele>
        <time>2024-05-21T10:44:02.000Z</time>
      </trkpt>
      <trkpt lat="45.04518" lon="4.84747">
        <ele>119.40000152588</ele>
        <time>2024-05-21T10:44:03.000Z</time>
      </trkpt>
      <trkpt lat="45.04514" lon="4.84741">
        <ele>119.19999694824</ele>
        <time>2024-05-21T10:44:04.000Z</time>
      </trkpt>
      <trkpt lat="45.04509" lon="4.84735">
        <ele>119.19999694824</ele>
        <time>2024-05-21T10:44:05.000Z</time>
      </trkpt>
      <trkpt lat="45.04506" lon="4.8473">
        <ele>119.19999694824</ele>
        <time>2024-05-21T10:44:06.000Z</time>
      </trkpt>
      <trkpt lat="45.04502" lon="4.84724">
        <ele>119.19999694824</ele>
        <time>2024-05-21T10:44:07.000Z</time>
      </trkpt>
      <trkpt lat="45.04498" lon="4.84718">
        <ele>119.19999694824</ele>
        <time>2024-05-21T10:44:08.000Z</time>
      </trkpt>
      <trkpt lat="45.04494" lon="4.84712">
        <ele>119.19999694824</ele>
        <time>2024-05-21T10:44:09.000Z</time>
      </trkpt>
      <trkpt lat="45.0449" lon="4.84706">
        <ele>119.19999694824</ele>
        <time>2024-05-21T10:44:10.000Z</time>
      </trkpt>
      <trkpt lat="45.04486" lon="4.847">
        <ele>119.19999694824</ele>
        <time>2024-05-21T10:44:11.000Z</time>
      </trkpt>
      <trkpt lat="45.04482" lon="4.84694">
        <ele>119.19999694824</ele>
        <time>2024-05-21T10:44:12.000Z</time>
      </trkpt>
      <trkpt lat="45.04478" lon="4.84689">
        <ele>119.19999694824</ele>
        <time>2024-05-21T10:44:13.000Z</time>
      </trkpt>
      <trkpt lat="45.04475" lon="4.84683">
        <ele>119.19999694824</ele>
        <time>2024-05-21T10:44:14.000Z</time>
      </trkpt>
      <trkpt lat="45.04472" lon="4.84678">
        <ele>119.19999694824</ele>
        <time>2024-05-21T10:44:15.000Z</time>
      </trkpt>
      <trkpt lat="45.04468" lon="4.84672">
        <ele>119.19999694824</ele>
        <time>2024-05-21T10:44:16.000Z</time>
      </trkpt>
      <trkpt lat="45.04464" lon="4.84666">
        <ele>119.19999694824</ele>
        <time>2024-05-21T10:44:17.000Z</time>
      </trkpt>
      <trkpt lat="45.0446" lon="4.84661">
        <ele>119.19999694824</ele>
        <time>2024-05-21T10:44:18.000Z</time>
      </trkpt>
      <trkpt lat="45.04456" lon="4.84655">
        <ele>119.19999694824</ele>
        <time>2024-05-21T10:44:19.000Z</time>
      </trkpt>
      <trkpt lat="45.04452" lon="4.84649">
        <ele>119.40000152588</ele>
        <time>2024-05-21T10:44:20.000Z</time>
      </trkpt>
      <trkpt lat="45.04448" lon="4.84643">
        <ele>119.40000152588</ele>
        <time>2024-05-21T10:44:21.000Z</time>
      </trkpt>
      <trkpt lat="45.04444" lon="4.84637">
        <ele>119.19999694824</ele>
        <time>2024-05-21T10:44:22.000Z</time>
      </trkpt>
      <trkpt lat="45.04441" lon="4.84632">
        <ele>119.19999694824</ele>
        <time>2024-05-21T10:44:23.000Z</time>
      </trkpt>
      <trkpt lat="45.04436" lon="4.84626">
        <ele>119.40000152588</ele>
        <time>2024-05-21T10:44:24.000Z</time>
      </trkpt>
      <trkpt lat="45.04432" lon="4.8462">
        <ele>119.40000152588</ele>
        <time>2024-05-21T10:44:25.000Z</time>
      </trkpt>
      <trkpt lat="45.04428" lon="4.84614">
        <ele>119.40000152588</ele>
        <time>2024-05-21T10:44:26.000Z</time>
      </trkpt>
      <trkpt lat="45.04424" lon="4.84609">
        <ele>119.19999694824</ele>
        <time>2024-05-21T10:44:27.000Z</time>
      </trkpt>
      <trkpt lat="45.0442" lon="4.84603">
        <ele>119.40000152588</ele>
        <time>2024-05-21T10:44:28.000Z</time>
      </trkpt>
      <trkpt lat="45.04416" lon="4.84597">
        <ele>119.40000152588</ele>
        <time>2024-05-21T10:44:29.000Z</time>
      </trkpt>
      <trkpt lat="45.04412" lon="4.84591">
        <ele>119.40000152588</ele>
        <time>2024-05-21T10:44:30.000Z</time>
      </trkpt>
      <trkpt lat="45.04408" lon="4.84585">
        <ele>119.19999694824</ele>
        <time>2024-05-21T10:44:31.000Z</time>
      </trkpt>
      <trkpt lat="45.04404" lon="4.8458">
        <ele>119.19999694824</ele>
        <time>2024-05-21T10:44:32.000Z</time>
      </trkpt>
      <trkpt lat="45.04399" lon="4.84574">
        <ele>119.19999694824</ele>
        <time>2024-05-21T10:44:33.000Z</time>
      </trkpt>
      <trkpt lat="45.04395" lon="4.84569">
        <ele>119.19999694824</ele>
        <time>2024-05-21T10:44:34.000Z</time>
      </trkpt>
      <trkpt lat="45.0439" lon="4.84564">
        <ele>119.19999694824</ele>
        <time>2024-05-21T10:44:35.000Z</time>
      </trkpt>
      <trkpt lat="45.04386" lon="4.84558">
        <ele>119.19999694824</ele>
        <time>2024-05-21T10:44:36.000Z</time>
      </trkpt>
      <trkpt lat="45.04382" lon="4.84553">
        <ele>119.19999694824</ele>
        <time>2024-05-21T10:44:37.000Z</time>
      </trkpt>
      <trkpt lat="45.04378" lon="4.84547">
        <ele>119.19999694824</ele>
        <time>2024-05-21T10:44:38.000Z</time>
      </trkpt>
      <trkpt lat="45.04374" lon="4.84542">
        <ele>119.19999694824</ele>
        <time>2024-05-21T10:44:39.000Z</time>
      </trkpt>
      <trkpt lat="45.04369" lon="4.84536">
        <ele>119.19999694824</ele>
        <time>2024-05-21T10:44:40.000Z</time>
      </trkpt>
      <trkpt lat="45.04365" lon="4.84531">
        <ele>119.19999694824</ele>
        <time>2024-05-21T10:44:41.000Z</time>
      </trkpt>
      <trkpt lat="45.04361" lon="4.84525">
        <ele>119.19999694824</ele>
        <time>2024-05-21T10:44:42.000Z</time>
      </trkpt>
      <trkpt lat="45.04356" lon="4.8452">
        <ele>119</ele>
        <time>2024-05-21T10:44:43.000Z</time>
      </trkpt>
      <trkpt lat="45.04351" lon="4.84515">
        <ele>119</ele>
        <time>2024-05-21T10:44:44.000Z</time>
      </trkpt>
      <trkpt lat="45.04346" lon="4.84509">
        <ele>119</ele>
        <time>2024-05-21T10:44:45.000Z</time>
      </trkpt>
      <trkpt lat="45.04342" lon="4.84505">
        <ele>119</ele>
        <time>2024-05-21T10:44:46.000Z</time>
      </trkpt>
      <trkpt lat="45.04338" lon="4.84501">
        <ele>119</ele>
        <time>2024-05-21T10:44:47.000Z</time>
      </trkpt>
      <trkpt lat="45.04333" lon="4.84496">
        <ele>119</ele>
        <time>2024-05-21T10:44:48.000Z</time>
      </trkpt>
      <trkpt lat="45.04329" lon="4.84491">
        <ele>119</ele>
        <time>2024-05-21T10:44:49.000Z</time>
      </trkpt>
      <trkpt lat="45.04325" lon="4.84486">
        <ele>119</ele>
        <time>2024-05-21T10:44:50.000Z</time>
      </trkpt>
      <trkpt lat="45.04321" lon="4.84481">
        <ele>119</ele>
        <time>2024-05-21T10:44:51.000Z</time>
      </trkpt>
      <trkpt lat="45.04316" lon="4.84476">
        <ele>119</ele>
        <time>2024-05-21T10:44:52.000Z</time>
      </trkpt>
      <trkpt lat="45.04312" lon="4.84471">
        <ele>119.19999694824</ele>
        <time>2024-05-21T10:44:53.000Z</time>
      </trkpt>
      <trkpt lat="45.04307" lon="4.84466">
        <ele>119.19999694824</ele>
        <time>2024-05-21T10:44:54.000Z</time>
      </trkpt>
      <trkpt lat="45.04303" lon="4.84462">
        <ele>119.19999694824</ele>
        <time>2024-05-21T10:44:55.000Z</time>
      </trkpt>
      <trkpt lat="45.04298" lon="4.84457">
        <ele>119.19999694824</ele>
        <time>2024-05-21T10:44:56.000Z</time>
      </trkpt>
      <trkpt lat="45.04294" lon="4.84453">
        <ele>119.19999694824</ele>
        <time>2024-05-21T10:44:57.000Z</time>
      </trkpt>
      <trkpt lat="45.0429" lon="4.84449">
        <ele>119.19999694824</ele>
        <time>2024-05-21T10:44:58.000Z</time>
      </trkpt>
      <trkpt lat="45.04286" lon="4.84444">
        <ele>119.19999694824</ele>
        <time>2024-05-21T10:44:59.000Z</time>
      </trkpt>
      <trkpt lat="45.04283" lon="4.84439">
        <ele>119.19999694824</ele>
        <time>2024-05-21T10:45:00.000Z</time>
      </trkpt>
      <trkpt lat="45.04282" lon="4.84433">
        <ele>119</ele>
        <time>2024-05-21T10:45:01.000Z</time>
      </trkpt>
      <trkpt lat="45.04281" lon="4.84426">
        <ele>119</ele>
        <time>2024-05-21T10:45:02.000Z</time>
      </trkpt>
      <trkpt lat="45.04283" lon="4.84419">
        <ele>119</ele>
        <time>2024-05-21T10:45:03.000Z</time>
      </trkpt>
      <trkpt lat="45.04285" lon="4.84413">
        <ele>119</ele>
        <time>2024-05-21T10:45:04.000Z</time>
      </trkpt>
      <trkpt lat="45.04289" lon="4.84406">
        <ele>119</ele>
        <time>2024-05-21T10:45:05.000Z</time>
      </trkpt>
      <trkpt lat="45.04292" lon="4.844">
        <ele>118.80000305176</ele>
        <time>2024-05-21T10:45:06.000Z</time>
      </trkpt>
      <trkpt lat="45.04295" lon="4.84394">
        <ele>118.19999694824</ele>
        <time>2024-05-21T10:45:07.000Z</time>
      </trkpt>
      <trkpt lat="45.04297" lon="4.84388">
        <ele>118.19999694824</ele>
        <time>2024-05-21T10:45:08.000Z</time>
      </trkpt>
      <trkpt lat="45.043" lon="4.84383">
        <ele>117.80000305176</ele>
        <time>2024-05-21T10:45:09.000Z</time>
      </trkpt>
      <trkpt lat="45.04301" lon="4.84377">
        <ele>117.59999847412</ele>
        <time>2024-05-21T10:45:10.000Z</time>
      </trkpt>
      <trkpt lat="45.04302" lon="4.84372">
        <ele>117.40000152588</ele>
        <time>2024-05-21T10:45:11.000Z</time>
      </trkpt>
      <trkpt lat="45.04301" lon="4.84367">
        <ele>117.19999694824</ele>
        <time>2024-05-21T10:45:12.000Z</time>
      </trkpt>
      <trkpt lat="45.04299" lon="4.84364">
        <ele>117</ele>
        <time>2024-05-21T10:45:13.000Z</time>
      </trkpt>
      <trkpt lat="45.04296" lon="4.84361">
        <ele>117</ele>
        <time>2024-05-21T10:45:14.000Z</time>
      </trkpt>
      <trkpt lat="45.04293" lon="4.84359">
        <ele>116.80000305176</ele>
        <time>2024-05-21T10:45:15.000Z</time>
      </trkpt>
      <trkpt lat="45.0429" lon="4.84356">
        <ele>116.80000305176</ele>
        <time>2024-05-21T10:45:16.000Z</time>
      </trkpt>
      <trkpt lat="45.04286" lon="4.84353">
        <ele>116.59999847412</ele>
        <time>2024-05-21T10:45:17.000Z</time>
      </trkpt>
      <trkpt lat="45.04282" lon="4.8435">
        <ele>116.40000152588</ele>
        <time>2024-05-21T10:45:18.000Z</time>
      </trkpt>
      <trkpt lat="45.04278" lon="4.84347">
        <ele>116.40000152588</ele>
        <time>2024-05-21T10:45:19.000Z</time>
      </trkpt>
      <trkpt lat="45.04274" lon="4.84343">
        <ele>116.40000152588</ele>
        <time>2024-05-21T10:45:20.000Z</time>
      </trkpt>
      <trkpt lat="45.04269" lon="4.84339">
        <ele>116.40000152588</ele>
        <time>2024-05-21T10:45:21.000Z</time>
      </trkpt>
      <trkpt lat="45.04265" lon="4.84336">
        <ele>116.40000152588</ele>
        <time>2024-05-21T10:45:22.000Z</time>
      </trkpt>
      <trkpt lat="45.04261" lon="4.84332">
        <ele>116.40000152588</ele>
        <time>2024-05-21T10:45:23.000Z</time>
      </trkpt>
      <trkpt lat="45.04257" lon="4.84328">
        <ele>116.40000152588</ele>
        <time>2024-05-21T10:45:24.000Z</time>
      </trkpt>
      <trkpt lat="45.04253" lon="4.84324">
        <ele>116.40000152588</ele>
        <time>2024-05-21T10:45:25.000Z</time>
      </trkpt>
      <trkpt lat="45.04248" lon="4.84319">
        <ele>116.59999847412</ele>
        <time>2024-05-21T10:45:26.000Z</time>
      </trkpt>
      <trkpt lat="45.04244" lon="4.84315">
        <ele>116.59999847412</ele>
        <time>2024-05-21T10:45:27.000Z</time>
      </trkpt>
      <trkpt lat="45.04239" lon="4.8431">
        <ele>116.59999847412</ele>
        <time>2024-05-21T10:45:28.000Z</time>
      </trkpt>
      <trkpt lat="45.04235" lon="4.84306">
        <ele>116.59999847412</ele>
        <time>2024-05-21T10:45:29.000Z</time>
      </trkpt>
      <trkpt lat="45.04231" lon="4.84301">
        <ele>116.59999847412</ele>
        <time>2024-05-21T10:45:30.000Z</time>
      </trkpt>
      <trkpt lat="45.04226" lon="4.84297">
        <ele>116.59999847412</ele>
        <time>2024-05-21T10:45:31.000Z</time>
      </trkpt>
      <trkpt lat="45.04222" lon="4.84293">
        <ele>116.59999847412</ele>
        <time>2024-05-21T10:45:32.000Z</time>
      </trkpt>
      <trkpt lat="45.04218" lon="4.84288">
        <ele>116.59999847412</ele>
        <time>2024-05-21T10:45:33.000Z</time>
      </trkpt>
      <trkpt lat="45.04213" lon="4.84284">
        <ele>116.59999847412</ele>
        <time>2024-05-21T10:45:34.000Z</time>
      </trkpt>
      <trkpt lat="45.04209" lon="4.84279">
        <ele>116.59999847412</ele>
        <time>2024-05-21T10:45:35.000Z</time>
      </trkpt>
      <trkpt lat="45.04204" lon="4.84275">
        <ele>116.59999847412</ele>
        <time>2024-05-21T10:45:36.000Z</time>
      </trkpt>
      <trkpt lat="45.042" lon="4.8427">
        <ele>116.59999847412</ele>
        <time>2024-05-21T10:45:37.000Z</time>
      </trkpt>
      <trkpt lat="45.04195" lon="4.84266">
        <ele>116.59999847412</ele>
        <time>2024-05-21T10:45:38.000Z</time>
      </trkpt>
      <trkpt lat="45.04191" lon="4.84262">
        <ele>116.59999847412</ele>
        <time>2024-05-21T10:45:39.000Z</time>
      </trkpt>
      <trkpt lat="45.04186" lon="4.84257">
        <ele>116.80000305176</ele>
        <time>2024-05-21T10:45:40.000Z</time>
      </trkpt>
      <trkpt lat="45.04182" lon="4.84252">
        <ele>116.80000305176</ele>
        <time>2024-05-21T10:45:41.000Z</time>
      </trkpt>
      <trkpt lat="45.04177" lon="4.84248">
        <ele>116.80000305176</ele>
        <time>2024-05-21T10:45:42.000Z</time>
      </trkpt>
      <trkpt lat="45.04172" lon="4.84244">
        <ele>116.80000305176</ele>
        <time>2024-05-21T10:45:43.000Z</time>
      </trkpt>
      <trkpt lat="45.04168" lon="4.84239">
        <ele>116.80000305176</ele>
        <time>2024-05-21T10:45:44.000Z</time>
      </trkpt>
      <trkpt lat="45.04163" lon="4.84234">
        <ele>116.80000305176</ele>
        <time>2024-05-21T10:45:45.000Z</time>
      </trkpt>
      <trkpt lat="45.04158" lon="4.84229">
        <ele>116.80000305176</ele>
        <time>2024-05-21T10:45:46.000Z</time>
      </trkpt>
      <trkpt lat="45.04154" lon="4.84225">
        <ele>116.80000305176</ele>
        <time>2024-05-21T10:45:47.000Z</time>
      </trkpt>
      <trkpt lat="45.04149" lon="4.8422">
        <ele>116.80000305176</ele>
        <time>2024-05-21T10:45:48.000Z</time>
      </trkpt>
      <trkpt lat="45.04144" lon="4.84215">
        <ele>116.59999847412</ele>
        <time>2024-05-21T10:45:49.000Z</time>
      </trkpt>
      <trkpt lat="45.04139" lon="4.8421">
        <ele>116.59999847412</ele>
        <time>2024-05-21T10:45:50.000Z</time>
      </trkpt>
      <trkpt lat="45.04134" lon="4.84205">
        <ele>116.59999847412</ele>
        <time>2024-05-21T10:45:51.000Z</time>
      </trkpt>
      <trkpt lat="45.0413" lon="4.84201">
        <ele>116.59999847412</ele>
        <time>2024-05-21T10:45:52.000Z</time>
      </trkpt>
      <trkpt lat="45.04125" lon="4.84196">
        <ele>116.40000152588</ele>
        <time>2024-05-21T10:45:53.000Z</time>
      </trkpt>
      <trkpt lat="45.0412" lon="4.84192">
        <ele>116.40000152588</ele>
        <time>2024-05-21T10:45:54.000Z</time>
      </trkpt>
      <trkpt lat="45.04115" lon="4.84187">
        <ele>116.40000152588</ele>
        <time>2024-05-21T10:45:55.000Z</time>
      </trkpt>
      <trkpt lat="45.0411" lon="4.84183">
        <ele>116.40000152588</ele>
        <time>2024-05-21T10:45:56.000Z</time>
      </trkpt>
      <trkpt lat="45.04105" lon="4.84178">
        <ele>116.40000152588</ele>
        <time>2024-05-21T10:45:57.000Z</time>
      </trkpt>
      <trkpt lat="45.041" lon="4.84173">
        <ele>116.40000152588</ele>
        <time>2024-05-21T10:45:58.000Z</time>
      </trkpt>
      <trkpt lat="45.04095" lon="4.84168">
        <ele>116.40000152588</ele>
        <time>2024-05-21T10:45:59.000Z</time>
      </trkpt>
      <trkpt lat="45.04091" lon="4.84163">
        <ele>116.40000152588</ele>
        <time>2024-05-21T10:46:00.000Z</time>
      </trkpt>
      <trkpt lat="45.04086" lon="4.84158">
        <ele>116.40000152588</ele>
        <time>2024-05-21T10:46:01.000Z</time>
      </trkpt>
      <trkpt lat="45.04081" lon="4.84153">
        <ele>116.59999847412</ele>
        <time>2024-05-21T10:46:02.000Z</time>
      </trkpt>
      <trkpt lat="45.04077" lon="4.84149">
        <ele>116.40000152588</ele>
        <time>2024-05-21T10:46:03.000Z</time>
      </trkpt>
      <trkpt lat="45.04072" lon="4.84145">
        <ele>116.40000152588</ele>
        <time>2024-05-21T10:46:04.000Z</time>
      </trkpt>
      <trkpt lat="45.04067" lon="4.8414">
        <ele>116.40000152588</ele>
        <time>2024-05-21T10:46:05.000Z</time>
      </trkpt>
      <trkpt lat="45.04062" lon="4.84136">
        <ele>116.59999847412</ele>
        <time>2024-05-21T10:46:06.000Z</time>
      </trkpt>
      <trkpt lat="45.04057" lon="4.84132">
        <ele>116.59999847412</ele>
        <time>2024-05-21T10:46:07.000Z</time>
      </trkpt>
      <trkpt lat="45.04053" lon="4.84127">
        <ele>116.40000152588</ele>
        <time>2024-05-21T10:46:08.000Z</time>
      </trkpt>
      <trkpt lat="45.04048" lon="4.84122">
        <ele>116.40000152588</ele>
        <time>2024-05-21T10:46:09.000Z</time>
      </trkpt>
      <trkpt lat="45.04043" lon="4.84117">
        <ele>116.40000152588</ele>
        <time>2024-05-21T10:46:10.000Z</time>
      </trkpt>
      <trkpt lat="45.04038" lon="4.84111">
        <ele>116.40000152588</ele>
        <time>2024-05-21T10:46:11.000Z</time>
      </trkpt>
      <trkpt lat="45.04033" lon="4.84107">
        <ele>116.40000152588</ele>
        <time>2024-05-21T10:46:12.000Z</time>
      </trkpt>
      <trkpt lat="45.04028" lon="4.84102">
        <ele>116.40000152588</ele>
        <time>2024-05-21T10:46:13.000Z</time>
      </trkpt>
      <trkpt lat="45.04023" lon="4.84097">
        <ele>116.40000152588</ele>
        <time>2024-05-21T10:46:14.000Z</time>
      </trkpt>
      <trkpt lat="45.04018" lon="4.84092">
        <ele>116.19999694824</ele>
        <time>2024-05-21T10:46:15.000Z</time>
      </trkpt>
      <trkpt lat="45.04012" lon="4.84086">
        <ele>116.19999694824</ele>
        <time>2024-05-21T10:46:16.000Z</time>
      </trkpt>
      <trkpt lat="45.04007" lon="4.84081">
        <ele>116.19999694824</ele>
        <time>2024-05-21T10:46:17.000Z</time>
      </trkpt>
      <trkpt lat="45.04002" lon="4.84078">
        <ele>116.19999694824</ele>
        <time>2024-05-21T10:46:18.000Z</time>
      </trkpt>
      <trkpt lat="45.03997" lon="4.84073">
        <ele>116.19999694824</ele>
        <time>2024-05-21T10:46:19.000Z</time>
      </trkpt>
      <trkpt lat="45.03993" lon="4.84068">
        <ele>116.19999694824</ele>
        <time>2024-05-21T10:46:20.000Z</time>
      </trkpt>
      <trkpt lat="45.03988" lon="4.84063">
        <ele>116.19999694824</ele>
        <time>2024-05-21T10:46:21.000Z</time>
      </trkpt>
      <trkpt lat="45.03983" lon="4.84058">
        <ele>116.19999694824</ele>
        <time>2024-05-21T10:46:22.000Z</time>
      </trkpt>
      <trkpt lat="45.03978" lon="4.84054">
        <ele>116.19999694824</ele>
        <time>2024-05-21T10:46:23.000Z</time>
      </trkpt>
      <trkpt lat="45.03973" lon="4.84049">
        <ele>116.19999694824</ele>
        <time>2024-05-21T10:46:24.000Z</time>
      </trkpt>
      <trkpt lat="45.03968" lon="4.84044">
        <ele>116.19999694824</ele>
        <time>2024-05-21T10:46:25.000Z</time>
      </trkpt>
      <trkpt lat="45.03963" lon="4.84039">
        <ele>116.19999694824</ele>
        <time>2024-05-21T10:46:26.000Z</time>
      </trkpt>
      <trkpt lat="45.03958" lon="4.84035">
        <ele>116.40000152588</ele>
        <time>2024-05-21T10:46:27.000Z</time>
      </trkpt>
      <trkpt lat="45.03954" lon="4.8403">
        <ele>116.40000152588</ele>
        <time>2024-05-21T10:46:28.000Z</time>
      </trkpt>
      <trkpt lat="45.03949" lon="4.84025">
        <ele>116.40000152588</ele>
        <time>2024-05-21T10:46:29.000Z</time>
      </trkpt>
      <trkpt lat="45.03944" lon="4.8402">
        <ele>116.19999694824</ele>
        <time>2024-05-21T10:46:30.000Z</time>
      </trkpt>
      <trkpt lat="45.03939" lon="4.84015">
        <ele>116.19999694824</ele>
        <time>2024-05-21T10:46:31.000Z</time>
      </trkpt>
      <trkpt lat="45.03934" lon="4.8401">
        <ele>116.19999694824</ele>
        <time>2024-05-21T10:46:32.000Z</time>
      </trkpt>
      <trkpt lat="45.03929" lon="4.84005">
        <ele>116.19999694824</ele>
        <time>2024-05-21T10:46:33.000Z</time>
      </trkpt>
      <trkpt lat="45.03924" lon="4.84">
        <ele>116.19999694824</ele>
        <time>2024-05-21T10:46:34.000Z</time>
      </trkpt>
      <trkpt lat="45.03919" lon="4.83994">
        <ele>116</ele>
        <time>2024-05-21T10:46:35.000Z</time>
      </trkpt>
      <trkpt lat="45.03915" lon="4.8399">
        <ele>116</ele>
        <time>2024-05-21T10:46:36.000Z</time>
      </trkpt>
      <trkpt lat="45.0391" lon="4.83985">
        <ele>115.80000305176</ele>
        <time>2024-05-21T10:46:37.000Z</time>
      </trkpt>
      <trkpt lat="45.03906" lon="4.8398">
        <ele>115.80000305176</ele>
        <time>2024-05-21T10:46:38.000Z</time>
      </trkpt>
      <trkpt lat="45.03901" lon="4.83976">
        <ele>115.80000305176</ele>
        <time>2024-05-21T10:46:39.000Z</time>
      </trkpt>
      <trkpt lat="45.03897" lon="4.83971">
        <ele>116</ele>
        <time>2024-05-21T10:46:40.000Z</time>
      </trkpt>
      <trkpt lat="45.03892" lon="4.83967">
        <ele>116</ele>
        <time>2024-05-21T10:46:41.000Z</time>
      </trkpt>
      <trkpt lat="45.03887" lon="4.83962">
        <ele>116</ele>
        <time>2024-05-21T10:46:42.000Z</time>
      </trkpt>
      <trkpt lat="45.03883" lon="4.83957">
        <ele>116</ele>
        <time>2024-05-21T10:46:43.000Z</time>
      </trkpt>
      <trkpt lat="45.03878" lon="4.83953">
        <ele>116.19999694824</ele>
        <time>2024-05-21T10:46:44.000Z</time>
      </trkpt>
      <trkpt lat="45.03873" lon="4.83948">
        <ele>116.19999694824</ele>
        <time>2024-05-21T10:46:45.000Z</time>
      </trkpt>
      <trkpt lat="45.03867" lon="4.83944">
        <ele>116.19999694824</ele>
        <time>2024-05-21T10:46:46.000Z</time>
      </trkpt>
      <trkpt lat="45.03863" lon="4.83941">
        <ele>116.19999694824</ele>
        <time>2024-05-21T10:46:47.000Z</time>
      </trkpt>
      <trkpt lat="45.03858" lon="4.83936">
        <ele>116</ele>
        <time>2024-05-21T10:46:48.000Z</time>
      </trkpt>
      <trkpt lat="45.03853" lon="4.83932">
        <ele>116</ele>
        <time>2024-05-21T10:46:49.000Z</time>
      </trkpt>
      <trkpt lat="45.03849" lon="4.83927">
        <ele>116</ele>
        <time>2024-05-21T10:46:50.000Z</time>
      </trkpt>
      <trkpt lat="45.03844" lon="4.83923">
        <ele>115.80000305176</ele>
        <time>2024-05-21T10:46:51.000Z</time>
      </trkpt>
      <trkpt lat="45.03839" lon="4.83917">
        <ele>115.80000305176</ele>
        <time>2024-05-21T10:46:52.000Z</time>
      </trkpt>
      <trkpt lat="45.03835" lon="4.83913">
        <ele>115.80000305176</ele>
        <time>2024-05-21T10:46:53.000Z</time>
      </trkpt>
      <trkpt lat="45.03831" lon="4.83908">
        <ele>116</ele>
        <time>2024-05-21T10:46:54.000Z</time>
      </trkpt>
      <trkpt lat="45.03826" lon="4.83903">
        <ele>116</ele>
        <time>2024-05-21T10:46:55.000Z</time>
      </trkpt>
      <trkpt lat="45.03821" lon="4.83899">
        <ele>116</ele>
        <time>2024-05-21T10:46:56.000Z</time>
      </trkpt>
      <trkpt lat="45.03816" lon="4.83894">
        <ele>116</ele>
        <time>2024-05-21T10:46:57.000Z</time>
      </trkpt>
      <trkpt lat="45.03811" lon="4.83889">
        <ele>116</ele>
        <time>2024-05-21T10:46:58.000Z</time>
      </trkpt>
      <trkpt lat="45.03806" lon="4.83884">
        <ele>116</ele>
        <time>2024-05-21T10:46:59.000Z</time>
      </trkpt>
      <trkpt lat="45.03802" lon="4.8388">
        <ele>116</ele>
        <time>2024-05-21T10:47:00.000Z</time>
      </trkpt>
      <trkpt lat="45.03797" lon="4.83875">
        <ele>116</ele>
        <time>2024-05-21T10:47:01.000Z</time>
      </trkpt>
      <trkpt lat="45.03793" lon="4.83871">
        <ele>116</ele>
        <time>2024-05-21T10:47:02.000Z</time>
      </trkpt>
      <trkpt lat="45.03788" lon="4.83866">
        <ele>116</ele>
        <time>2024-05-21T10:47:03.000Z</time>
      </trkpt>
      <trkpt lat="45.03783" lon="4.83862">
        <ele>116</ele>
        <time>2024-05-21T10:47:04.000Z</time>
      </trkpt>
      <trkpt lat="45.03779" lon="4.83858">
        <ele>116</ele>
        <time>2024-05-21T10:47:05.000Z</time>
      </trkpt>
      <trkpt lat="45.03774" lon="4.83853">
        <ele>115.80000305176</ele>
        <time>2024-05-21T10:47:06.000Z</time>
      </trkpt>
      <trkpt lat="45.03769" lon="4.83848">
        <ele>115.80000305176</ele>
        <time>2024-05-21T10:47:07.000Z</time>
      </trkpt>
      <trkpt lat="45.03764" lon="4.83844">
        <ele>115.80000305176</ele>
        <time>2024-05-21T10:47:08.000Z</time>
      </trkpt>
      <trkpt lat="45.0376" lon="4.8384">
        <ele>115.80000305176</ele>
        <time>2024-05-21T10:47:09.000Z</time>
      </trkpt>
      <trkpt lat="45.03755" lon="4.83836">
        <ele>115.80000305176</ele>
        <time>2024-05-21T10:47:10.000Z</time>
      </trkpt>
      <trkpt lat="45.0375" lon="4.83832">
        <ele>115.80000305176</ele>
        <time>2024-05-21T10:47:11.000Z</time>
      </trkpt>
      <trkpt lat="45.03745" lon="4.83828">
        <ele>115.80000305176</ele>
        <time>2024-05-21T10:47:12.000Z</time>
      </trkpt>
      <trkpt lat="45.03741" lon="4.83823">
        <ele>116.19999694824</ele>
        <time>2024-05-21T10:47:13.000Z</time>
      </trkpt>
      <trkpt lat="45.03736" lon="4.83819">
        <ele>116.40000152588</ele>
        <time>2024-05-21T10:47:14.000Z</time>
      </trkpt>
      <trkpt lat="45.03731" lon="4.83815">
        <ele>116.40000152588</ele>
        <time>2024-05-21T10:47:15.000Z</time>
      </trkpt>
      <trkpt lat="45.03726" lon="4.83811">
        <ele>116.40000152588</ele>
        <time>2024-05-21T10:47:16.000Z</time>
      </trkpt>
      <trkpt lat="45.03722" lon="4.83806">
        <ele>116.40000152588</ele>
        <time>2024-05-21T10:47:17.000Z</time>
      </trkpt>
      <trkpt lat="45.03717" lon="4.83802">
        <ele>116.40000152588</ele>
        <time>2024-05-21T10:47:18.000Z</time>
      </trkpt>
      <trkpt lat="45.03712" lon="4.83798">
        <ele>116.40000152588</ele>
        <time>2024-05-21T10:47:19.000Z</time>
      </trkpt>
      <trkpt lat="45.03707" lon="4.83794">
        <ele>116.40000152588</ele>
        <time>2024-05-21T10:47:20.000Z</time>
      </trkpt>
      <trkpt lat="45.03702" lon="4.8379">
        <ele>116.40000152588</ele>
        <time>2024-05-21T10:47:21.000Z</time>
      </trkpt>
      <trkpt lat="45.03697" lon="4.83786">
        <ele>116.40000152588</ele>
        <time>2024-05-21T10:47:22.000Z</time>
      </trkpt>
      <trkpt lat="45.03692" lon="4.83783">
        <ele>116.40000152588</ele>
        <time>2024-05-21T10:47:23.000Z</time>
      </trkpt>
      <trkpt lat="45.03687" lon="4.83779">
        <ele>116.40000152588</ele>
        <time>2024-05-21T10:47:24.000Z</time>
      </trkpt>
      <trkpt lat="45.03682" lon="4.83776">
        <ele>116.40000152588</ele>
        <time>2024-05-21T10:47:25.000Z</time>
      </trkpt>
      <trkpt lat="45.03676" lon="4.83773">
        <ele>116.40000152588</ele>
        <time>2024-05-21T10:47:26.000Z</time>
      </trkpt>
      <trkpt lat="45.03671" lon="4.8377">
        <ele>116.19999694824</ele>
        <time>2024-05-21T10:47:27.000Z</time>
      </trkpt>
      <trkpt lat="45.03666" lon="4.83767">
        <ele>116.19999694824</ele>
        <time>2024-05-21T10:47:28.000Z</time>
      </trkpt>
      <trkpt lat="45.03661" lon="4.83764">
        <ele>116.19999694824</ele>
        <time>2024-05-21T10:47:29.000Z</time>
      </trkpt>
      <trkpt lat="45.03656" lon="4.83761">
        <ele>116.19999694824</ele>
        <time>2024-05-21T10:47:30.000Z</time>
      </trkpt>
      <trkpt lat="45.03651" lon="4.83758">
        <ele>116.19999694824</ele>
        <time>2024-05-21T10:47:31.000Z</time>
      </trkpt>
      <trkpt lat="45.03645" lon="4.83754">
        <ele>116.19999694824</ele>
        <time>2024-05-21T10:47:32.000Z</time>
      </trkpt>
      <trkpt lat="45.03639" lon="4.8375">
        <ele>116.19999694824</ele>
        <time>2024-05-21T10:47:33.000Z</time>
      </trkpt>
      <trkpt lat="45.03634" lon="4.83746">
        <ele>116.19999694824</ele>
        <time>2024-05-21T10:47:34.000Z</time>
      </trkpt>
      <trkpt lat="45.03628" lon="4.83743">
        <ele>116.19999694824</ele>
        <time>2024-05-21T10:47:35.000Z</time>
      </trkpt>
      <trkpt lat="45.03623" lon="4.83739">
        <ele>116.19999694824</ele>
        <time>2024-05-21T10:47:36.000Z</time>
      </trkpt>
      <trkpt lat="45.03618" lon="4.83735">
        <ele>116.19999694824</ele>
        <time>2024-05-21T10:47:37.000Z</time>
      </trkpt>
      <trkpt lat="45.03612" lon="4.83731">
        <ele>116</ele>
        <time>2024-05-21T10:47:38.000Z</time>
      </trkpt>
      <trkpt lat="45.03607" lon="4.83727">
        <ele>116</ele>
        <time>2024-05-21T10:47:39.000Z</time>
      </trkpt>
      <trkpt lat="45.03601" lon="4.83723">
        <ele>115.80000305176</ele>
        <time>2024-05-21T10:47:40.000Z</time>
      </trkpt>
      <trkpt lat="45.03596" lon="4.83719">
        <ele>115.80000305176</ele>
        <time>2024-05-21T10:47:41.000Z</time>
      </trkpt>
      <trkpt lat="45.0359" lon="4.83715">
        <ele>115.80000305176</ele>
        <time>2024-05-21T10:47:42.000Z</time>
      </trkpt>
      <trkpt lat="45.03585" lon="4.83712">
        <ele>116</ele>
        <time>2024-05-21T10:47:43.000Z</time>
      </trkpt>
      <trkpt lat="45.0358" lon="4.83708">
        <ele>116</ele>
        <time>2024-05-21T10:47:44.000Z</time>
      </trkpt>
      <trkpt lat="45.03575" lon="4.83704">
        <ele>116</ele>
        <time>2024-05-21T10:47:45.000Z</time>
      </trkpt>
      <trkpt lat="45.0357" lon="4.837">
        <ele>116.19999694824</ele>
        <time>2024-05-21T10:47:46.000Z</time>
      </trkpt>
      <trkpt lat="45.03564" lon="4.83697">
        <ele>116.19999694824</ele>
        <time>2024-05-21T10:47:47.000Z</time>
      </trkpt>
      <trkpt lat="45.03559" lon="4.83694">
        <ele>116.19999694824</ele>
        <time>2024-05-21T10:47:48.000Z</time>
      </trkpt>
      <trkpt lat="45.03554" lon="4.83691">
        <ele>116.19999694824</ele>
        <time>2024-05-21T10:47:49.000Z</time>
      </trkpt>
      <trkpt lat="45.03549" lon="4.83688">
        <ele>116.19999694824</ele>
        <time>2024-05-21T10:47:50.000Z</time>
      </trkpt>
      <trkpt lat="45.03543" lon="4.83684">
        <ele>116.40000152588</ele>
        <time>2024-05-21T10:47:51.000Z</time>
      </trkpt>
      <trkpt lat="45.03538" lon="4.83681">
        <ele>116.40000152588</ele>
        <time>2024-05-21T10:47:52.000Z</time>
      </trkpt>
      <trkpt lat="45.03532" lon="4.83679">
        <ele>116.40000152588</ele>
        <time>2024-05-21T10:47:53.000Z</time>
      </trkpt>
      <trkpt lat="45.03527" lon="4.83676">
        <ele>116.40000152588</ele>
        <time>2024-05-21T10:47:54.000Z</time>
      </trkpt>
      <trkpt lat="45.03522" lon="4.83673">
        <ele>116.40000152588</ele>
        <time>2024-05-21T10:47:55.000Z</time>
      </trkpt>
      <trkpt lat="45.03516" lon="4.83671">
        <ele>116.40000152588</ele>
        <time>2024-05-21T10:47:56.000Z</time>
      </trkpt>
      <trkpt lat="45.03511" lon="4.83668">
        <ele>116.40000152588</ele>
        <time>2024-05-21T10:47:57.000Z</time>
      </trkpt>
      <trkpt lat="45.03505" lon="4.83666">
        <ele>116.40000152588</ele>
        <time>2024-05-21T10:47:58.000Z</time>
      </trkpt>
      <trkpt lat="45.035" lon="4.83663">
        <ele>116.40000152588</ele>
        <time>2024-05-21T10:47:59.000Z</time>
      </trkpt>
      <trkpt lat="45.03494" lon="4.83661">
        <ele>116.40000152588</ele>
        <time>2024-05-21T10:48:00.000Z</time>
      </trkpt>
      <trkpt lat="45.03488" lon="4.83659">
        <ele>116.40000152588</ele>
        <time>2024-05-21T10:48:01.000Z</time>
      </trkpt>
      <trkpt lat="45.03483" lon="4.83657">
        <ele>116.40000152588</ele>
        <time>2024-05-21T10:48:02.000Z</time>
      </trkpt>
      <trkpt lat="45.03477" lon="4.83655">
        <ele>116.40000152588</ele>
        <time>2024-05-21T10:48:03.000Z</time>
      </trkpt>
      <trkpt lat="45.03471" lon="4.83653">
        <ele>116.40000152588</ele>
        <time>2024-05-21T10:48:04.000Z</time>
      </trkpt>
      <trkpt lat="45.03466" lon="4.83651">
        <ele>116.40000152588</ele>
        <time>2024-05-21T10:48:05.000Z</time>
      </trkpt>
      <trkpt lat="45.0346" lon="4.83648">
        <ele>116.40000152588</ele>
        <time>2024-05-21T10:48:06.000Z</time>
      </trkpt>
      <trkpt lat="45.03455" lon="4.83646">
        <ele>116.40000152588</ele>
        <time>2024-05-21T10:48:07.000Z</time>
      </trkpt>
      <trkpt lat="45.03449" lon="4.83644">
        <ele>116.40000152588</ele>
        <time>2024-05-21T10:48:08.000Z</time>
      </trkpt>
      <trkpt lat="45.03444" lon="4.83642">
        <ele>116.40000152588</ele>
        <time>2024-05-21T10:48:09.000Z</time>
      </trkpt>
      <trkpt lat="45.03438" lon="4.8364">
        <ele>116.19999694824</ele>
        <time>2024-05-21T10:48:10.000Z</time>
      </trkpt>
      <trkpt lat="45.03433" lon="4.83638">
        <ele>116.19999694824</ele>
        <time>2024-05-21T10:48:11.000Z</time>
      </trkpt>
      <trkpt lat="45.03427" lon="4.83636">
        <ele>116.19999694824</ele>
        <time>2024-05-21T10:48:12.000Z</time>
      </trkpt>
      <trkpt lat="45.03422" lon="4.83634">
        <ele>116</ele>
        <time>2024-05-21T10:48:13.000Z</time>
      </trkpt>
      <trkpt lat="45.03417" lon="4.83632">
        <ele>116</ele>
        <time>2024-05-21T10:48:14.000Z</time>
      </trkpt>
      <trkpt lat="45.0341" lon="4.8363">
        <ele>116</ele>
        <time>2024-05-21T10:48:15.000Z</time>
      </trkpt>
      <trkpt lat="45.03405" lon="4.83628">
        <ele>116</ele>
        <time>2024-05-21T10:48:16.000Z</time>
      </trkpt>
      <trkpt lat="45.03399" lon="4.83627">
        <ele>116</ele>
        <time>2024-05-21T10:48:17.000Z</time>
      </trkpt>
      <trkpt lat="45.03394" lon="4.83624">
        <ele>115.80000305176</ele>
        <time>2024-05-21T10:48:18.000Z</time>
      </trkpt>
      <trkpt lat="45.03388" lon="4.83622">
        <ele>115.80000305176</ele>
        <time>2024-05-21T10:48:19.000Z</time>
      </trkpt>
      <trkpt lat="45.03383" lon="4.8362">
        <ele>115.80000305176</ele>
        <time>2024-05-21T10:48:20.000Z</time>
      </trkpt>
      <trkpt lat="45.03377" lon="4.83617">
        <ele>115.80000305176</ele>
        <time>2024-05-21T10:48:21.000Z</time>
      </trkpt>
      <trkpt lat="45.03372" lon="4.83615">
        <ele>115.80000305176</ele>
        <time>2024-05-21T10:48:22.000Z</time>
      </trkpt>
      <trkpt lat="45.03367" lon="4.83614">
        <ele>115.59999847412</ele>
        <time>2024-05-21T10:48:23.000Z</time>
      </trkpt>
      <trkpt lat="45.03362" lon="4.83612">
        <ele>115.59999847412</ele>
        <time>2024-05-21T10:48:24.000Z</time>
      </trkpt>
      <trkpt lat="45.03357" lon="4.8361">
        <ele>115.59999847412</ele>
        <time>2024-05-21T10:48:25.000Z</time>
      </trkpt>
      <trkpt lat="45.03352" lon="4.83608">
        <ele>115.59999847412</ele>
        <time>2024-05-21T10:48:26.000Z</time>
      </trkpt>
      <trkpt lat="45.03346" lon="4.83606">
        <ele>115.80000305176</ele>
        <time>2024-05-21T10:48:27.000Z</time>
      </trkpt>
      <trkpt lat="45.03341" lon="4.83605">
        <ele>115.80000305176</ele>
        <time>2024-05-21T10:48:28.000Z</time>
      </trkpt>
      <trkpt lat="45.03335" lon="4.83603">
        <ele>115.80000305176</ele>
        <time>2024-05-21T10:48:29.000Z</time>
      </trkpt>
      <trkpt lat="45.03331" lon="4.83602">
        <ele>115.80000305176</ele>
        <time>2024-05-21T10:48:30.000Z</time>
      </trkpt>
      <trkpt lat="45.03324" lon="4.836">
        <ele>115.80000305176</ele>
        <time>2024-05-21T10:48:31.000Z</time>
      </trkpt>
      <trkpt lat="45.03319" lon="4.83598">
        <ele>115.80000305176</ele>
        <time>2024-05-21T10:48:32.000Z</time>
      </trkpt>
      <trkpt lat="45.03314" lon="4.83596">
        <ele>115.80000305176</ele>
        <time>2024-05-21T10:48:33.000Z</time>
      </trkpt>
      <trkpt lat="45.03308" lon="4.83594">
        <ele>115.80000305176</ele>
        <time>2024-05-21T10:48:34.000Z</time>
      </trkpt>
      <trkpt lat="45.03303" lon="4.83593">
        <ele>115.80000305176</ele>
        <time>2024-05-21T10:48:35.000Z</time>
      </trkpt>
      <trkpt lat="45.03299" lon="4.83591">
        <ele>115.80000305176</ele>
        <time>2024-05-21T10:48:36.000Z</time>
      </trkpt>
      <trkpt lat="45.03293" lon="4.83589">
        <ele>115.80000305176</ele>
        <time>2024-05-21T10:48:37.000Z</time>
      </trkpt>
      <trkpt lat="45.03287" lon="4.83586">
        <ele>115.80000305176</ele>
        <time>2024-05-21T10:48:38.000Z</time>
      </trkpt>
      <trkpt lat="45.03283" lon="4.83585">
        <ele>115.80000305176</ele>
        <time>2024-05-21T10:48:39.000Z</time>
      </trkpt>
      <trkpt lat="45.03276" lon="4.83582">
        <ele>115.80000305176</ele>
        <time>2024-05-21T10:48:40.000Z</time>
      </trkpt>
      <trkpt lat="45.0327" lon="4.8358">
        <ele>116</ele>
        <time>2024-05-21T10:48:41.000Z</time>
      </trkpt>
      <trkpt lat="45.03264" lon="4.83578">
        <ele>116</ele>
        <time>2024-05-21T10:48:42.000Z</time>
      </trkpt>
      <trkpt lat="45.03259" lon="4.83577">
        <ele>116</ele>
        <time>2024-05-21T10:48:43.000Z</time>
      </trkpt>
      <trkpt lat="45.03253" lon="4.83576">
        <ele>116</ele>
        <time>2024-05-21T10:48:44.000Z</time>
      </trkpt>
      <trkpt lat="45.03248" lon="4.83575">
        <ele>116</ele>
        <time>2024-05-21T10:48:45.000Z</time>
      </trkpt>
      <trkpt lat="45.03241" lon="4.83574">
        <ele>116</ele>
        <time>2024-05-21T10:48:46.000Z</time>
      </trkpt>
      <trkpt lat="45.03236" lon="4.83573">
        <ele>116</ele>
        <time>2024-05-21T10:48:47.000Z</time>
      </trkpt>
      <trkpt lat="45.0323" lon="4.83573">
        <ele>116</ele>
        <time>2024-05-21T10:48:48.000Z</time>
      </trkpt>
      <trkpt lat="45.03223" lon="4.83572">
        <ele>116</ele>
        <time>2024-05-21T10:48:49.000Z</time>
      </trkpt>
      <trkpt lat="45.03217" lon="4.83572">
        <ele>116</ele>
        <time>2024-05-21T10:48:50.000Z</time>
      </trkpt>
      <trkpt lat="45.03212" lon="4.83572">
        <ele>116</ele>
        <time>2024-05-21T10:48:51.000Z</time>
      </trkpt>
      <trkpt lat="45.03206" lon="4.83572">
        <ele>116</ele>
        <time>2024-05-21T10:48:52.000Z</time>
      </trkpt>
      <trkpt lat="45.03201" lon="4.83572">
        <ele>116</ele>
        <time>2024-05-21T10:48:53.000Z</time>
      </trkpt>
      <trkpt lat="45.03195" lon="4.83572">
        <ele>116</ele>
        <time>2024-05-21T10:48:54.000Z</time>
      </trkpt>
      <trkpt lat="45.03189" lon="4.83572">
        <ele>116</ele>
        <time>2024-05-21T10:48:55.000Z</time>
      </trkpt>
      <trkpt lat="45.03184" lon="4.83571">
        <ele>116</ele>
        <time>2024-05-21T10:48:56.000Z</time>
      </trkpt>
      <trkpt lat="45.03179" lon="4.83571">
        <ele>116</ele>
        <time>2024-05-21T10:48:57.000Z</time>
      </trkpt>
      <trkpt lat="45.03174" lon="4.83571">
        <ele>116</ele>
        <time>2024-05-21T10:48:58.000Z</time>
      </trkpt>
      <trkpt lat="45.03168" lon="4.83571">
        <ele>116</ele>
        <time>2024-05-21T10:48:59.000Z</time>
      </trkpt>
      <trkpt lat="45.03162" lon="4.83571">
        <ele>116</ele>
        <time>2024-05-21T10:49:00.000Z</time>
      </trkpt>
      <trkpt lat="45.03157" lon="4.83571">
        <ele>116</ele>
        <time>2024-05-21T10:49:01.000Z</time>
      </trkpt>
      <trkpt lat="45.0315" lon="4.83571">
        <ele>116</ele>
        <time>2024-05-21T10:49:02.000Z</time>
      </trkpt>
      <trkpt lat="45.03144" lon="4.83571">
        <ele>116</ele>
        <time>2024-05-21T10:49:03.000Z</time>
      </trkpt>
      <trkpt lat="45.03138" lon="4.83571">
        <ele>116</ele>
        <time>2024-05-21T10:49:04.000Z</time>
      </trkpt>
      <trkpt lat="45.03132" lon="4.83571">
        <ele>116</ele>
        <time>2024-05-21T10:49:05.000Z</time>
      </trkpt>
      <trkpt lat="45.03128" lon="4.8357">
        <ele>116</ele>
        <time>2024-05-21T10:49:06.000Z</time>
      </trkpt>
      <trkpt lat="45.03121" lon="4.83571">
        <ele>116</ele>
        <time>2024-05-21T10:49:07.000Z</time>
      </trkpt>
      <trkpt lat="45.03114" lon="4.83571">
        <ele>116</ele>
        <time>2024-05-21T10:49:08.000Z</time>
      </trkpt>
      <trkpt lat="45.03109" lon="4.83571">
        <ele>116</ele>
        <time>2024-05-21T10:49:09.000Z</time>
      </trkpt>
      <trkpt lat="45.03102" lon="4.83571">
        <ele>116</ele>
        <time>2024-05-21T10:49:10.000Z</time>
      </trkpt>
      <trkpt lat="45.03096" lon="4.83572">
        <ele>116</ele>
        <time>2024-05-21T10:49:11.000Z</time>
      </trkpt>
      <trkpt lat="45.03091" lon="4.83573">
        <ele>115.80000305176</ele>
        <time>2024-05-21T10:49:12.000Z</time>
      </trkpt>
      <trkpt lat="45.03085" lon="4.83574">
        <ele>115.80000305176</ele>
        <time>2024-05-21T10:49:13.000Z</time>
      </trkpt>
      <trkpt lat="45.03077" lon="4.83575">
        <ele>115.80000305176</ele>
        <time>2024-05-21T10:49:14.000Z</time>
      </trkpt>
      <trkpt lat="45.03072" lon="4.83576">
        <ele>115.59999847412</ele>
        <time>2024-05-21T10:49:15.000Z</time>
      </trkpt>
      <trkpt lat="45.03065" lon="4.83577">
        <ele>115.59999847412</ele>
        <time>2024-05-21T10:49:16.000Z</time>
      </trkpt>
      <trkpt lat="45.0306" lon="4.83578">
        <ele>115.59999847412</ele>
        <time>2024-05-21T10:49:17.000Z</time>
      </trkpt>
      <trkpt lat="45.03054" lon="4.83579">
        <ele>115.40000152588</ele>
        <time>2024-05-21T10:49:18.000Z</time>
      </trkpt>
      <trkpt lat="45.03048" lon="4.8358">
        <ele>115.40000152588</ele>
        <time>2024-05-21T10:49:19.000Z</time>
      </trkpt>
      <trkpt lat="45.03041" lon="4.83581">
        <ele>115.40000152588</ele>
        <time>2024-05-21T10:49:20.000Z</time>
      </trkpt>
      <trkpt lat="45.03036" lon="4.83582">
        <ele>115.40000152588</ele>
        <time>2024-05-21T10:49:21.000Z</time>
      </trkpt>
      <trkpt lat="45.03029" lon="4.83583">
        <ele>115.40000152588</ele>
        <time>2024-05-21T10:49:22.000Z</time>
      </trkpt>
      <trkpt lat="45.03022" lon="4.83584">
        <ele>115.40000152588</ele>
        <time>2024-05-21T10:49:23.000Z</time>
      </trkpt>
      <trkpt lat="45.03016" lon="4.83585">
        <ele>115.40000152588</ele>
        <time>2024-05-21T10:49:24.000Z</time>
      </trkpt>
      <trkpt lat="45.0301" lon="4.83586">
        <ele>115.40000152588</ele>
        <time>2024-05-21T10:49:25.000Z</time>
      </trkpt>
      <trkpt lat="45.03005" lon="4.83587">
        <ele>115.40000152588</ele>
        <time>2024-05-21T10:49:26.000Z</time>
      </trkpt>
      <trkpt lat="45.03" lon="4.83588">
        <ele>115.40000152588</ele>
        <time>2024-05-21T10:49:27.000Z</time>
      </trkpt>
      <trkpt lat="45.02993" lon="4.8359">
        <ele>115.40000152588</ele>
        <time>2024-05-21T10:49:28.000Z</time>
      </trkpt>
      <trkpt lat="45.02988" lon="4.83591">
        <ele>115.40000152588</ele>
        <time>2024-05-21T10:49:29.000Z</time>
      </trkpt>
      <trkpt lat="45.02983" lon="4.83592">
        <ele>115.40000152588</ele>
        <time>2024-05-21T10:49:30.000Z</time>
      </trkpt>
      <trkpt lat="45.02976" lon="4.83594">
        <ele>115.40000152588</ele>
        <time>2024-05-21T10:49:31.000Z</time>
      </trkpt>
      <trkpt lat="45.0297" lon="4.83595">
        <ele>115.40000152588</ele>
        <time>2024-05-21T10:49:32.000Z</time>
      </trkpt>
      <trkpt lat="45.02965" lon="4.83597">
        <ele>115.19999694824</ele>
        <time>2024-05-21T10:49:33.000Z</time>
      </trkpt>
      <trkpt lat="45.02959" lon="4.83598">
        <ele>115.19999694824</ele>
        <time>2024-05-21T10:49:34.000Z</time>
      </trkpt>
      <trkpt lat="45.02954" lon="4.83599">
        <ele>115.19999694824</ele>
        <time>2024-05-21T10:49:35.000Z</time>
      </trkpt>
      <trkpt lat="45.02947" lon="4.83601">
        <ele>115.19999694824</ele>
        <time>2024-05-21T10:49:36.000Z</time>
      </trkpt>
      <trkpt lat="45.02942" lon="4.83603">
        <ele>115.40000152588</ele>
        <time>2024-05-21T10:49:37.000Z</time>
      </trkpt>
      <trkpt lat="45.02936" lon="4.83604">
        <ele>115.40000152588</ele>
        <time>2024-05-21T10:49:38.000Z</time>
      </trkpt>
      <trkpt lat="45.0293" lon="4.83606">
        <ele>115.40000152588</ele>
        <time>2024-05-21T10:49:39.000Z</time>
      </trkpt>
      <trkpt lat="45.02926" lon="4.83607">
        <ele>115.40000152588</ele>
        <time>2024-05-21T10:49:40.000Z</time>
      </trkpt>
      <trkpt lat="45.0292" lon="4.83609">
        <ele>115.19999694824</ele>
        <time>2024-05-21T10:49:41.000Z</time>
      </trkpt>
      <trkpt lat="45.02913" lon="4.83611">
        <ele>115.19999694824</ele>
        <time>2024-05-21T10:49:42.000Z</time>
      </trkpt>
      <trkpt lat="45.02907" lon="4.83613">
        <ele>115.19999694824</ele>
        <time>2024-05-21T10:49:43.000Z</time>
      </trkpt>
      <trkpt lat="45.02902" lon="4.83615">
        <ele>115.19999694824</ele>
        <time>2024-05-21T10:49:44.000Z</time>
      </trkpt>
      <trkpt lat="45.02896" lon="4.83617">
        <ele>115.19999694824</ele>
        <time>2024-05-21T10:49:45.000Z</time>
      </trkpt>
      <trkpt lat="45.0289" lon="4.83619">
        <ele>115.19999694824</ele>
        <time>2024-05-21T10:49:46.000Z</time>
      </trkpt>
      <trkpt lat="45.02886" lon="4.83621">
        <ele>115.19999694824</ele>
        <time>2024-05-21T10:49:47.000Z</time>
      </trkpt>
      <trkpt lat="45.02879" lon="4.83623">
        <ele>115.19999694824</ele>
        <time>2024-05-21T10:49:48.000Z</time>
      </trkpt>
      <trkpt lat="45.02873" lon="4.83625">
        <ele>115.40000152588</ele>
        <time>2024-05-21T10:49:49.000Z</time>
      </trkpt>
      <trkpt lat="45.02868" lon="4.83627">
        <ele>115.40000152588</ele>
        <time>2024-05-21T10:49:50.000Z</time>
      </trkpt>
      <trkpt lat="45.02861" lon="4.83629">
        <ele>115.40000152588</ele>
        <time>2024-05-21T10:49:51.000Z</time>
      </trkpt>
      <trkpt lat="45.02855" lon="4.83631">
        <ele>115.40000152588</ele>
        <time>2024-05-21T10:49:52.000Z</time>
      </trkpt>
      <trkpt lat="45.02849" lon="4.83633">
        <ele>115.40000152588</ele>
        <time>2024-05-21T10:49:53.000Z</time>
      </trkpt>
      <trkpt lat="45.02844" lon="4.83636">
        <ele>115.40000152588</ele>
        <time>2024-05-21T10:49:54.000Z</time>
      </trkpt>
      <trkpt lat="45.02838" lon="4.83638">
        <ele>115.40000152588</ele>
        <time>2024-05-21T10:49:55.000Z</time>
      </trkpt>
      <trkpt lat="45.02833" lon="4.83641">
        <ele>115.19999694824</ele>
        <time>2024-05-21T10:49:56.000Z</time>
      </trkpt>
      <trkpt lat="45.02827" lon="4.83643">
        <ele>115.19999694824</ele>
        <time>2024-05-21T10:49:57.000Z</time>
      </trkpt>
      <trkpt lat="45.02822" lon="4.83646">
        <ele>115.19999694824</ele>
        <time>2024-05-21T10:49:58.000Z</time>
      </trkpt>
      <trkpt lat="45.02817" lon="4.83648">
        <ele>115.19999694824</ele>
        <time>2024-05-21T10:49:59.000Z</time>
      </trkpt>
      <trkpt lat="45.02812" lon="4.83651">
        <ele>115.40000152588</ele>
        <time>2024-05-21T10:50:00.000Z</time>
      </trkpt>
      <trkpt lat="45.02805" lon="4.83654">
        <ele>115.59999847412</ele>
        <time>2024-05-21T10:50:01.000Z</time>
      </trkpt>
      <trkpt lat="45.028" lon="4.83656">
        <ele>115.59999847412</ele>
        <time>2024-05-21T10:50:02.000Z</time>
      </trkpt>
      <trkpt lat="45.02794" lon="4.8366">
        <ele>115.59999847412</ele>
        <time>2024-05-21T10:50:03.000Z</time>
      </trkpt>
      <trkpt lat="45.02788" lon="4.83662">
        <ele>115.59999847412</ele>
        <time>2024-05-21T10:50:04.000Z</time>
      </trkpt>
      <trkpt lat="45.02784" lon="4.83665">
        <ele>115.59999847412</ele>
        <time>2024-05-21T10:50:05.000Z</time>
      </trkpt>
      <trkpt lat="45.02778" lon="4.83668">
        <ele>115.59999847412</ele>
        <time>2024-05-21T10:50:06.000Z</time>
      </trkpt>
      <trkpt lat="45.02774" lon="4.8367">
        <ele>115.59999847412</ele>
        <time>2024-05-21T10:50:07.000Z</time>
      </trkpt>
      <trkpt lat="45.02768" lon="4.83673">
        <ele>115.59999847412</ele>
        <time>2024-05-21T10:50:08.000Z</time>
      </trkpt>
      <trkpt lat="45.02762" lon="4.83676">
        <ele>115.59999847412</ele>
        <time>2024-05-21T10:50:09.000Z</time>
      </trkpt>
      <trkpt lat="45.02757" lon="4.83679">
        <ele>115.59999847412</ele>
        <time>2024-05-21T10:50:10.000Z</time>
      </trkpt>
      <trkpt lat="45.02752" lon="4.83681">
        <ele>115.59999847412</ele>
        <time>2024-05-21T10:50:11.000Z</time>
      </trkpt>
      <trkpt lat="45.02746" lon="4.83686">
        <ele>115.59999847412</ele>
        <time>2024-05-21T10:50:12.000Z</time>
      </trkpt>
      <trkpt lat="45.02741" lon="4.83689">
        <ele>115.59999847412</ele>
        <time>2024-05-21T10:50:13.000Z</time>
      </trkpt>
      <trkpt lat="45.02736" lon="4.83693">
        <ele>115.59999847412</ele>
        <time>2024-05-21T10:50:14.000Z</time>
      </trkpt>
      <trkpt lat="45.02732" lon="4.83697">
        <ele>115.59999847412</ele>
        <time>2024-05-21T10:50:15.000Z</time>
      </trkpt>
      <trkpt lat="45.02727" lon="4.83702">
        <ele>115.80000305176</ele>
        <time>2024-05-21T10:50:16.000Z</time>
      </trkpt>
      <trkpt lat="45.02723" lon="4.83706">
        <ele>115.80000305176</ele>
        <time>2024-05-21T10:50:17.000Z</time>
      </trkpt>
      <trkpt lat="45.02718" lon="4.83711">
        <ele>115.80000305176</ele>
        <time>2024-05-21T10:50:18.000Z</time>
      </trkpt>
      <trkpt lat="45.02714" lon="4.83716">
        <ele>115.80000305176</ele>
        <time>2024-05-21T10:50:19.000Z</time>
      </trkpt>
      <trkpt lat="45.02709" lon="4.8372">
        <ele>115.80000305176</ele>
        <time>2024-05-21T10:50:20.000Z</time>
      </trkpt>
      <trkpt lat="45.02705" lon="4.83725">
        <ele>115.59999847412</ele>
        <time>2024-05-21T10:50:21.000Z</time>
      </trkpt>
      <trkpt lat="45.027" lon="4.83729">
        <ele>115.59999847412</ele>
        <time>2024-05-21T10:50:22.000Z</time>
      </trkpt>
      <trkpt lat="45.02697" lon="4.83733">
        <ele>115.59999847412</ele>
        <time>2024-05-21T10:50:23.000Z</time>
      </trkpt>
      <trkpt lat="45.02692" lon="4.83736">
        <ele>115.59999847412</ele>
        <time>2024-05-21T10:50:24.000Z</time>
      </trkpt>
      <trkpt lat="45.02686" lon="4.83741">
        <ele>115.59999847412</ele>
        <time>2024-05-21T10:50:25.000Z</time>
      </trkpt>
      <trkpt lat="45.02681" lon="4.83745">
        <ele>115.59999847412</ele>
        <time>2024-05-21T10:50:26.000Z</time>
      </trkpt>
      <trkpt lat="45.02676" lon="4.83748">
        <ele>115.80000305176</ele>
        <time>2024-05-21T10:50:27.000Z</time>
      </trkpt>
      <trkpt lat="45.02671" lon="4.83752">
        <ele>115.80000305176</ele>
        <time>2024-05-21T10:50:28.000Z</time>
      </trkpt>
      <trkpt lat="45.02666" lon="4.83755">
        <ele>115.80000305176</ele>
        <time>2024-05-21T10:50:29.000Z</time>
      </trkpt>
      <trkpt lat="45.02661" lon="4.83759">
        <ele>115.80000305176</ele>
        <time>2024-05-21T10:50:30.000Z</time>
      </trkpt>
      <trkpt lat="45.02657" lon="4.83762">
        <ele>115.80000305176</ele>
        <time>2024-05-21T10:50:31.000Z</time>
      </trkpt>
      <trkpt lat="45.02652" lon="4.83766">
        <ele>115.80000305176</ele>
        <time>2024-05-21T10:50:32.000Z</time>
      </trkpt>
      <trkpt lat="45.02647" lon="4.8377">
        <ele>116</ele>
        <time>2024-05-21T10:50:33.000Z</time>
      </trkpt>
      <trkpt lat="45.02642" lon="4.83774">
        <ele>116</ele>
        <time>2024-05-21T10:50:34.000Z</time>
      </trkpt>
      <trkpt lat="45.02637" lon="4.83778">
        <ele>116</ele>
        <time>2024-05-21T10:50:35.000Z</time>
      </trkpt>
      <trkpt lat="45.02632" lon="4.83782">
        <ele>116</ele>
        <time>2024-05-21T10:50:36.000Z</time>
      </trkpt>
      <trkpt lat="45.02627" lon="4.83787">
        <ele>116</ele>
        <time>2024-05-21T10:50:37.000Z</time>
      </trkpt>
      <trkpt lat="45.02623" lon="4.83791">
        <ele>116</ele>
        <time>2024-05-21T10:50:38.000Z</time>
      </trkpt>
      <trkpt lat="45.02618" lon="4.83796">
        <ele>116</ele>
        <time>2024-05-21T10:50:39.000Z</time>
      </trkpt>
      <trkpt lat="45.02614" lon="4.838">
        <ele>116</ele>
        <time>2024-05-21T10:50:40.000Z</time>
      </trkpt>
      <trkpt lat="45.02609" lon="4.83804">
        <ele>115.80000305176</ele>
        <time>2024-05-21T10:50:41.000Z</time>
      </trkpt>
      <trkpt lat="45.02604" lon="4.83808">
        <ele>115.59999847412</ele>
        <time>2024-05-21T10:50:42.000Z</time>
      </trkpt>
      <trkpt lat="45.026" lon="4.83812">
        <ele>115.40000152588</ele>
        <time>2024-05-21T10:50:43.000Z</time>
      </trkpt>
      <trkpt lat="45.02595" lon="4.83816">
        <ele>115.19999694824</ele>
        <time>2024-05-21T10:50:44.000Z</time>
      </trkpt>
      <trkpt lat="45.0259" lon="4.8382">
        <ele>115.19999694824</ele>
        <time>2024-05-21T10:50:45.000Z</time>
      </trkpt>
      <trkpt lat="45.02585" lon="4.83826">
        <ele>115.19999694824</ele>
        <time>2024-05-21T10:50:46.000Z</time>
      </trkpt>
      <trkpt lat="45.02581" lon="4.8383">
        <ele>115.19999694824</ele>
        <time>2024-05-21T10:50:47.000Z</time>
      </trkpt>
      <trkpt lat="45.02577" lon="4.83834">
        <ele>115.19999694824</ele>
        <time>2024-05-21T10:50:48.000Z</time>
      </trkpt>
      <trkpt lat="45.02573" lon="4.83837">
        <ele>115.19999694824</ele>
        <time>2024-05-21T10:50:49.000Z</time>
      </trkpt>
      <trkpt lat="45.02568" lon="4.83842">
        <ele>115.19999694824</ele>
        <time>2024-05-21T10:50:50.000Z</time>
      </trkpt>
      <trkpt lat="45.02565" lon="4.83845">
        <ele>115.40000152588</ele>
        <time>2024-05-21T10:50:51.000Z</time>
      </trkpt>
      <trkpt lat="45.0256" lon="4.8385">
        <ele>115.40000152588</ele>
        <time>2024-05-21T10:50:52.000Z</time>
      </trkpt>
      <trkpt lat="45.02556" lon="4.83854">
        <ele>115.59999847412</ele>
        <time>2024-05-21T10:50:53.000Z</time>
      </trkpt>
      <trkpt lat="45.02552" lon="4.83858">
        <ele>115.59999847412</ele>
        <time>2024-05-21T10:50:54.000Z</time>
      </trkpt>
      <trkpt lat="45.02548" lon="4.83863">
        <ele>115.59999847412</ele>
        <time>2024-05-21T10:50:55.000Z</time>
      </trkpt>
      <trkpt lat="45.02543" lon="4.83869">
        <ele>115.59999847412</ele>
        <time>2024-05-21T10:50:56.000Z</time>
      </trkpt>
      <trkpt lat="45.02539" lon="4.83872">
        <ele>115.59999847412</ele>
        <time>2024-05-21T10:50:57.000Z</time>
      </trkpt>
      <trkpt lat="45.02535" lon="4.83878">
        <ele>115.59999847412</ele>
        <time>2024-05-21T10:50:58.000Z</time>
      </trkpt>
      <trkpt lat="45.0253" lon="4.83883">
        <ele>115.59999847412</ele>
        <time>2024-05-21T10:50:59.000Z</time>
      </trkpt>
      <trkpt lat="45.02527" lon="4.83887">
        <ele>115.59999847412</ele>
        <time>2024-05-21T10:51:00.000Z</time>
      </trkpt>
      <trkpt lat="45.02522" lon="4.83893">
        <ele>115.59999847412</ele>
        <time>2024-05-21T10:51:01.000Z</time>
      </trkpt>
      <trkpt lat="45.02518" lon="4.83898">
        <ele>115.59999847412</ele>
        <time>2024-05-21T10:51:02.000Z</time>
      </trkpt>
      <trkpt lat="45.02514" lon="4.83903">
        <ele>115.80000305176</ele>
        <time>2024-05-21T10:51:03.000Z</time>
      </trkpt>
      <trkpt lat="45.02511" lon="4.83907">
        <ele>115.59999847412</ele>
        <time>2024-05-21T10:51:04.000Z</time>
      </trkpt>
      <trkpt lat="45.02506" lon="4.83913">
        <ele>115.59999847412</ele>
        <time>2024-05-21T10:51:05.000Z</time>
      </trkpt>
      <trkpt lat="45.02503" lon="4.83917">
        <ele>115.59999847412</ele>
        <time>2024-05-21T10:51:06.000Z</time>
      </trkpt>
      <trkpt lat="45.02499" lon="4.83921">
        <ele>115.59999847412</ele>
        <time>2024-05-21T10:51:07.000Z</time>
      </trkpt>
      <trkpt lat="45.02494" lon="4.83927">
        <ele>115.40000152588</ele>
        <time>2024-05-21T10:51:08.000Z</time>
      </trkpt>
      <trkpt lat="45.0249" lon="4.83932">
        <ele>115.40000152588</ele>
        <time>2024-05-21T10:51:09.000Z</time>
      </trkpt>
      <trkpt lat="45.02487" lon="4.83936">
        <ele>115.40000152588</ele>
        <time>2024-05-21T10:51:10.000Z</time>
      </trkpt>
      <trkpt lat="45.02483" lon="4.83941">
        <ele>115.40000152588</ele>
        <time>2024-05-21T10:51:11.000Z</time>
      </trkpt>
      <trkpt lat="45.02479" lon="4.83946">
        <ele>115.40000152588</ele>
        <time>2024-05-21T10:51:12.000Z</time>
      </trkpt>
      <trkpt lat="45.02476" lon="4.83949">
        <ele>115.59999847412</ele>
        <time>2024-05-21T10:51:13.000Z</time>
      </trkpt>
      <trkpt lat="45.02472" lon="4.83955">
        <ele>115.59999847412</ele>
        <time>2024-05-21T10:51:14.000Z</time>
      </trkpt>
      <trkpt lat="45.02468" lon="4.8396">
        <ele>115.80000305176</ele>
        <time>2024-05-21T10:51:15.000Z</time>
      </trkpt>
      <trkpt lat="45.02465" lon="4.83964">
        <ele>115.80000305176</ele>
        <time>2024-05-21T10:51:16.000Z</time>
      </trkpt>
      <trkpt lat="45.0246" lon="4.83969">
        <ele>116</ele>
        <time>2024-05-21T10:51:17.000Z</time>
      </trkpt>
      <trkpt lat="45.02457" lon="4.83974">
        <ele>116</ele>
        <time>2024-05-21T10:51:18.000Z</time>
      </trkpt>
      <trkpt lat="45.02453" lon="4.83979">
        <ele>116.19999694824</ele>
        <time>2024-05-21T10:51:19.000Z</time>
      </trkpt>
      <trkpt lat="45.02449" lon="4.83983">
        <ele>116.19999694824</ele>
        <time>2024-05-21T10:51:20.000Z</time>
      </trkpt>
      <trkpt lat="45.02445" lon="4.83988">
        <ele>116.19999694824</ele>
        <time>2024-05-21T10:51:21.000Z</time>
      </trkpt>
      <trkpt lat="45.02441" lon="4.83992">
        <ele>116</ele>
        <time>2024-05-21T10:51:22.000Z</time>
      </trkpt>
      <trkpt lat="45.02437" lon="4.83997">
        <ele>116</ele>
        <time>2024-05-21T10:51:23.000Z</time>
      </trkpt>
      <trkpt lat="45.02433" lon="4.84002">
        <ele>116</ele>
        <time>2024-05-21T10:51:24.000Z</time>
      </trkpt>
      <trkpt lat="45.0243" lon="4.84007">
        <ele>116</ele>
        <time>2024-05-21T10:51:25.000Z</time>
      </trkpt>
      <trkpt lat="45.02426" lon="4.84012">
        <ele>116</ele>
        <time>2024-05-21T10:51:26.000Z</time>
      </trkpt>
      <trkpt lat="45.02422" lon="4.84017">
        <ele>116</ele>
        <time>2024-05-21T10:51:27.000Z</time>
      </trkpt>
      <trkpt lat="45.02419" lon="4.84021">
        <ele>116.19999694824</ele>
        <time>2024-05-21T10:51:28.000Z</time>
      </trkpt>
      <trkpt lat="45.02414" lon="4.84027">
        <ele>116.19999694824</ele>
        <time>2024-05-21T10:51:29.000Z</time>
      </trkpt>
      <trkpt lat="45.02411" lon="4.84032">
        <ele>116.19999694824</ele>
        <time>2024-05-21T10:51:30.000Z</time>
      </trkpt>
      <trkpt lat="45.02407" lon="4.84037">
        <ele>116.40000152588</ele>
        <time>2024-05-21T10:51:31.000Z</time>
      </trkpt>
      <trkpt lat="45.02403" lon="4.84042">
        <ele>116.40000152588</ele>
        <time>2024-05-21T10:51:32.000Z</time>
      </trkpt>
      <trkpt lat="45.02399" lon="4.84047">
        <ele>116.40000152588</ele>
        <time>2024-05-21T10:51:33.000Z</time>
      </trkpt>
      <trkpt lat="45.02395" lon="4.84053">
        <ele>116.19999694824</ele>
        <time>2024-05-21T10:51:34.000Z</time>
      </trkpt>
      <trkpt lat="45.02392" lon="4.84059">
        <ele>116.19999694824</ele>
        <time>2024-05-21T10:51:35.000Z</time>
      </trkpt>
      <trkpt lat="45.02388" lon="4.84064">
        <ele>116</ele>
        <time>2024-05-21T10:51:36.000Z</time>
      </trkpt>
      <trkpt lat="45.02384" lon="4.8407">
        <ele>116</ele>
        <time>2024-05-21T10:51:37.000Z</time>
      </trkpt>
      <trkpt lat="45.0238" lon="4.84075">
        <ele>116</ele>
        <time>2024-05-21T10:51:38.000Z</time>
      </trkpt>
      <trkpt lat="45.02376" lon="4.84081">
        <ele>115.80000305176</ele>
        <time>2024-05-21T10:51:39.000Z</time>
      </trkpt>
      <trkpt lat="45.02373" lon="4.84086">
        <ele>115.80000305176</ele>
        <time>2024-05-21T10:51:40.000Z</time>
      </trkpt>
      <trkpt lat="45.02367" lon="4.84093">
        <ele>115.80000305176</ele>
        <time>2024-05-21T10:51:41.000Z</time>
      </trkpt>
      <trkpt lat="45.02364" lon="4.84097">
        <ele>115.80000305176</ele>
        <time>2024-05-21T10:51:42.000Z</time>
      </trkpt>
      <trkpt lat="45.02358" lon="4.84104">
        <ele>115.80000305176</ele>
        <time>2024-05-21T10:51:43.000Z</time>
      </trkpt>
      <trkpt lat="45.02354" lon="4.8411">
        <ele>115.80000305176</ele>
        <time>2024-05-21T10:51:44.000Z</time>
      </trkpt>
      <trkpt lat="45.02349" lon="4.84116">
        <ele>115.80000305176</ele>
        <time>2024-05-21T10:51:45.000Z</time>
      </trkpt>
      <trkpt lat="45.02344" lon="4.84122">
        <ele>115.80000305176</ele>
        <time>2024-05-21T10:51:46.000Z</time>
      </trkpt>
      <trkpt lat="45.0234" lon="4.84128">
        <ele>115.59999847412</ele>
        <time>2024-05-21T10:51:47.000Z</time>
      </trkpt>
      <trkpt lat="45.02335" lon="4.84133">
        <ele>115.40000152588</ele>
        <time>2024-05-21T10:51:48.000Z</time>
      </trkpt>
      <trkpt lat="45.02331" lon="4.84137">
        <ele>115.40000152588</ele>
        <time>2024-05-21T10:51:49.000Z</time>
      </trkpt>
      <trkpt lat="45.02325" lon="4.84143">
        <ele>115.40000152588</ele>
        <time>2024-05-21T10:51:50.000Z</time>
      </trkpt>
      <trkpt lat="45.02321" lon="4.84147">
        <ele>115.40000152588</ele>
        <time>2024-05-21T10:51:51.000Z</time>
      </trkpt>
      <trkpt lat="45.02317" lon="4.84152">
        <ele>115.40000152588</ele>
        <time>2024-05-21T10:51:52.000Z</time>
      </trkpt>
      <trkpt lat="45.02311" lon="4.84158">
        <ele>115.40000152588</ele>
        <time>2024-05-21T10:51:53.000Z</time>
      </trkpt>
      <trkpt lat="45.02306" lon="4.84163">
        <ele>115.40000152588</ele>
        <time>2024-05-21T10:51:54.000Z</time>
      </trkpt>
      <trkpt lat="45.02301" lon="4.84168">
        <ele>115.40000152588</ele>
        <time>2024-05-21T10:51:55.000Z</time>
      </trkpt>
      <trkpt lat="45.02296" lon="4.84173">
        <ele>115.40000152588</ele>
        <time>2024-05-21T10:51:56.000Z</time>
      </trkpt>
      <trkpt lat="45.02291" lon="4.84178">
        <ele>115.40000152588</ele>
        <time>2024-05-21T10:51:57.000Z</time>
      </trkpt>
      <trkpt lat="45.02286" lon="4.84183">
        <ele>115.19999694824</ele>
        <time>2024-05-21T10:51:58.000Z</time>
      </trkpt>
      <trkpt lat="45.02282" lon="4.84187">
        <ele>115.19999694824</ele>
        <time>2024-05-21T10:51:59.000Z</time>
      </trkpt>
      <trkpt lat="45.02277" lon="4.84191">
        <ele>115.19999694824</ele>
        <time>2024-05-21T10:52:00.000Z</time>
      </trkpt>
      <trkpt lat="45.02272" lon="4.84195">
        <ele>115.19999694824</ele>
        <time>2024-05-21T10:52:01.000Z</time>
      </trkpt>
      <trkpt lat="45.02268" lon="4.84198">
        <ele>115.19999694824</ele>
        <time>2024-05-21T10:52:02.000Z</time>
      </trkpt>
      <trkpt lat="45.02264" lon="4.84203">
        <ele>115.19999694824</ele>
        <time>2024-05-21T10:52:03.000Z</time>
      </trkpt>
      <trkpt lat="45.02258" lon="4.84207">
        <ele>115.19999694824</ele>
        <time>2024-05-21T10:52:04.000Z</time>
      </trkpt>
      <trkpt lat="45.02253" lon="4.84211">
        <ele>115.59999847412</ele>
        <time>2024-05-21T10:52:05.000Z</time>
      </trkpt>
      <trkpt lat="45.02248" lon="4.84215">
        <ele>115.59999847412</ele>
        <time>2024-05-21T10:52:06.000Z</time>
      </trkpt>
      <trkpt lat="45.02244" lon="4.84218">
        <ele>115.80000305176</ele>
        <time>2024-05-21T10:52:07.000Z</time>
      </trkpt>
      <trkpt lat="45.02238" lon="4.84222">
        <ele>115.80000305176</ele>
        <time>2024-05-21T10:52:08.000Z</time>
      </trkpt>
      <trkpt lat="45.02233" lon="4.84225">
        <ele>115.80000305176</ele>
        <time>2024-05-21T10:52:09.000Z</time>
      </trkpt>
      <trkpt lat="45.02229" lon="4.84228">
        <ele>115.80000305176</ele>
        <time>2024-05-21T10:52:10.000Z</time>
      </trkpt>
      <trkpt lat="45.02224" lon="4.84231">
        <ele>115.80000305176</ele>
        <time>2024-05-21T10:52:11.000Z</time>
      </trkpt>
      <trkpt lat="45.02218" lon="4.84234">
        <ele>115.80000305176</ele>
        <time>2024-05-21T10:52:12.000Z</time>
      </trkpt>
      <trkpt lat="45.02214" lon="4.84237">
        <ele>115.59999847412</ele>
        <time>2024-05-21T10:52:13.000Z</time>
      </trkpt>
      <trkpt lat="45.02209" lon="4.8424">
        <ele>115.59999847412</ele>
        <time>2024-05-21T10:52:14.000Z</time>
      </trkpt>
      <trkpt lat="45.02204" lon="4.84243">
        <ele>115.40000152588</ele>
        <time>2024-05-21T10:52:15.000Z</time>
      </trkpt>
      <trkpt lat="45.022" lon="4.84245">
        <ele>115.40000152588</ele>
        <time>2024-05-21T10:52:16.000Z</time>
      </trkpt>
      <trkpt lat="45.02194" lon="4.84248">
        <ele>115.40000152588</ele>
        <time>2024-05-21T10:52:17.000Z</time>
      </trkpt>
      <trkpt lat="45.02189" lon="4.84251">
        <ele>115.19999694824</ele>
        <time>2024-05-21T10:52:18.000Z</time>
      </trkpt>
      <trkpt lat="45.02185" lon="4.84253">
        <ele>115.19999694824</ele>
        <time>2024-05-21T10:52:19.000Z</time>
      </trkpt>
      <trkpt lat="45.02179" lon="4.84256">
        <ele>115.19999694824</ele>
        <time>2024-05-21T10:52:20.000Z</time>
      </trkpt>
      <trkpt lat="45.02174" lon="4.84258">
        <ele>115.19999694824</ele>
        <time>2024-05-21T10:52:21.000Z</time>
      </trkpt>
      <trkpt lat="45.0217" lon="4.8426">
        <ele>115.40000152588</ele>
        <time>2024-05-21T10:52:22.000Z</time>
      </trkpt>
      <trkpt lat="45.02164" lon="4.84263">
        <ele>115.19999694824</ele>
        <time>2024-05-21T10:52:23.000Z</time>
      </trkpt>
      <trkpt lat="45.02159" lon="4.84265">
        <ele>115.19999694824</ele>
        <time>2024-05-21T10:52:24.000Z</time>
      </trkpt>
      <trkpt lat="45.02155" lon="4.84267">
        <ele>115.40000152588</ele>
        <time>2024-05-21T10:52:25.000Z</time>
      </trkpt>
      <trkpt lat="45.02149" lon="4.8427">
        <ele>115.40000152588</ele>
        <time>2024-05-21T10:52:26.000Z</time>
      </trkpt>
      <trkpt lat="45.02144" lon="4.84273">
        <ele>115.40000152588</ele>
        <time>2024-05-21T10:52:27.000Z</time>
      </trkpt>
      <trkpt lat="45.02139" lon="4.84275">
        <ele>115.40000152588</ele>
        <time>2024-05-21T10:52:28.000Z</time>
      </trkpt>
      <trkpt lat="45.02134" lon="4.84277">
        <ele>115.40000152588</ele>
        <time>2024-05-21T10:52:29.000Z</time>
      </trkpt>
      <trkpt lat="45.02129" lon="4.84279">
        <ele>115.40000152588</ele>
        <time>2024-05-21T10:52:30.000Z</time>
      </trkpt>
      <trkpt lat="45.02124" lon="4.84281">
        <ele>115.40000152588</ele>
        <time>2024-05-21T10:52:31.000Z</time>
      </trkpt>
      <trkpt lat="45.02119" lon="4.84283">
        <ele>115.59999847412</ele>
        <time>2024-05-21T10:52:32.000Z</time>
      </trkpt>
      <trkpt lat="45.02114" lon="4.84285">
        <ele>115.59999847412</ele>
        <time>2024-05-21T10:52:33.000Z</time>
      </trkpt>
      <trkpt lat="45.02109" lon="4.84287">
        <ele>115.59999847412</ele>
        <time>2024-05-21T10:52:34.000Z</time>
      </trkpt>
      <trkpt lat="45.02103" lon="4.84289">
        <ele>115.59999847412</ele>
        <time>2024-05-21T10:52:35.000Z</time>
      </trkpt>
      <trkpt lat="45.02098" lon="4.84291">
        <ele>115.59999847412</ele>
        <time>2024-05-21T10:52:36.000Z</time>
      </trkpt>
      <trkpt lat="45.02091" lon="4.84293">
        <ele>115.59999847412</ele>
        <time>2024-05-21T10:52:37.000Z</time>
      </trkpt>
      <trkpt lat="45.02085" lon="4.84294">
        <ele>115.59999847412</ele>
        <time>2024-05-21T10:52:38.000Z</time>
      </trkpt>
      <trkpt lat="45.02079" lon="4.84295">
        <ele>115.59999847412</ele>
        <time>2024-05-21T10:52:39.000Z</time>
      </trkpt>
      <trkpt lat="45.02073" lon="4.84297">
        <ele>115.59999847412</ele>
        <time>2024-05-21T10:52:40.000Z</time>
      </trkpt>
      <trkpt lat="45.02067" lon="4.84298">
        <ele>115.40000152588</ele>
        <time>2024-05-21T10:52:41.000Z</time>
      </trkpt>
      <trkpt lat="45.02061" lon="4.84298">
        <ele>115.40000152588</ele>
        <time>2024-05-21T10:52:42.000Z</time>
      </trkpt>
      <trkpt lat="45.02055" lon="4.84299">
        <ele>115.40000152588</ele>
        <time>2024-05-21T10:52:43.000Z</time>
      </trkpt>
      <trkpt lat="45.02051" lon="4.843">
        <ele>115.19999694824</ele>
        <time>2024-05-21T10:52:44.000Z</time>
      </trkpt>
      <trkpt lat="45.02044" lon="4.84301">
        <ele>115.19999694824</ele>
        <time>2024-05-21T10:52:45.000Z</time>
      </trkpt>
      <trkpt lat="45.02038" lon="4.84302">
        <ele>115.19999694824</ele>
        <time>2024-05-21T10:52:46.000Z</time>
      </trkpt>
      <trkpt lat="45.02033" lon="4.84303">
        <ele>115.19999694824</ele>
        <time>2024-05-21T10:52:47.000Z</time>
      </trkpt>
      <trkpt lat="45.02028" lon="4.84303">
        <ele>115.19999694824</ele>
        <time>2024-05-21T10:52:48.000Z</time>
      </trkpt>
      <trkpt lat="45.02022" lon="4.84304">
        <ele>115.19999694824</ele>
        <time>2024-05-21T10:52:49.000Z</time>
      </trkpt>
      <trkpt lat="45.02018" lon="4.84304">
        <ele>115.19999694824</ele>
        <time>2024-05-21T10:52:50.000Z</time>
      </trkpt>
      <trkpt lat="45.02013" lon="4.84304">
        <ele>115.19999694824</ele>
        <time>2024-05-21T10:52:51.000Z</time>
      </trkpt>
      <trkpt lat="45.02008" lon="4.84304">
        <ele>115.40000152588</ele>
        <time>2024-05-21T10:52:52.000Z</time>
      </trkpt>
      <trkpt lat="45.02004" lon="4.84304">
        <ele>115.40000152588</ele>
        <time>2024-05-21T10:52:53.000Z</time>
      </trkpt>
      <trkpt lat="45.01997" lon="4.84304">
        <ele>115.59999847412</ele>
        <time>2024-05-21T10:52:54.000Z</time>
      </trkpt>
      <trkpt lat="45.01993" lon="4.84304">
        <ele>115.80000305176</ele>
        <time>2024-05-21T10:52:55.000Z</time>
      </trkpt>
      <trkpt lat="45.01987" lon="4.84304">
        <ele>115.80000305176</ele>
        <time>2024-05-21T10:52:56.000Z</time>
      </trkpt>
      <trkpt lat="45.01981" lon="4.84303">
        <ele>115.80000305176</ele>
        <time>2024-05-21T10:52:57.000Z</time>
      </trkpt>
      <trkpt lat="45.01976" lon="4.84302">
        <ele>115.80000305176</ele>
        <time>2024-05-21T10:52:58.000Z</time>
      </trkpt>
      <trkpt lat="45.01971" lon="4.84302">
        <ele>116</ele>
        <time>2024-05-21T10:52:59.000Z</time>
      </trkpt>
      <trkpt lat="45.01964" lon="4.843">
        <ele>116</ele>
        <time>2024-05-21T10:53:00.000Z</time>
      </trkpt>
      <trkpt lat="45.01959" lon="4.84299">
        <ele>116</ele>
        <time>2024-05-21T10:53:01.000Z</time>
      </trkpt>
      <trkpt lat="45.01954" lon="4.84298">
        <ele>116</ele>
        <time>2024-05-21T10:53:02.000Z</time>
      </trkpt>
      <trkpt lat="45.01948" lon="4.84297">
        <ele>116</ele>
        <time>2024-05-21T10:53:03.000Z</time>
      </trkpt>
      <trkpt lat="45.01942" lon="4.84296">
        <ele>116</ele>
        <time>2024-05-21T10:53:04.000Z</time>
      </trkpt>
      <trkpt lat="45.01936" lon="4.84295">
        <ele>115.80000305176</ele>
        <time>2024-05-21T10:53:05.000Z</time>
      </trkpt>
      <trkpt lat="45.01931" lon="4.84294">
        <ele>115.80000305176</ele>
        <time>2024-05-21T10:53:06.000Z</time>
      </trkpt>
      <trkpt lat="45.01925" lon="4.84293">
        <ele>115.80000305176</ele>
        <time>2024-05-21T10:53:07.000Z</time>
      </trkpt>
      <trkpt lat="45.0192" lon="4.84292">
        <ele>115.80000305176</ele>
        <time>2024-05-21T10:53:08.000Z</time>
      </trkpt>
      <trkpt lat="45.01913" lon="4.84291">
        <ele>115.80000305176</ele>
        <time>2024-05-21T10:53:09.000Z</time>
      </trkpt>
      <trkpt lat="45.01908" lon="4.8429">
        <ele>115.80000305176</ele>
        <time>2024-05-21T10:53:10.000Z</time>
      </trkpt>
      <trkpt lat="45.01903" lon="4.84289">
        <ele>115.80000305176</ele>
        <time>2024-05-21T10:53:11.000Z</time>
      </trkpt>
      <trkpt lat="45.01896" lon="4.84287">
        <ele>115.80000305176</ele>
        <time>2024-05-21T10:53:12.000Z</time>
      </trkpt>
      <trkpt lat="45.0189" lon="4.84285">
        <ele>115.80000305176</ele>
        <time>2024-05-21T10:53:13.000Z</time>
      </trkpt>
      <trkpt lat="45.01886" lon="4.84284">
        <ele>115.80000305176</ele>
        <time>2024-05-21T10:53:14.000Z</time>
      </trkpt>
      <trkpt lat="45.0188" lon="4.84282">
        <ele>115.80000305176</ele>
        <time>2024-05-21T10:53:15.000Z</time>
      </trkpt>
      <trkpt lat="45.01874" lon="4.8428">
        <ele>115.80000305176</ele>
        <time>2024-05-21T10:53:16.000Z</time>
      </trkpt>
      <trkpt lat="45.01867" lon="4.84278">
        <ele>115.80000305176</ele>
        <time>2024-05-21T10:53:17.000Z</time>
      </trkpt>
      <trkpt lat="45.01863" lon="4.84277">
        <ele>115.80000305176</ele>
        <time>2024-05-21T10:53:18.000Z</time>
      </trkpt>
      <trkpt lat="45.01856" lon="4.84274">
        <ele>115.80000305176</ele>
        <time>2024-05-21T10:53:19.000Z</time>
      </trkpt>
      <trkpt lat="45.0185" lon="4.84272">
        <ele>115.80000305176</ele>
        <time>2024-05-21T10:53:20.000Z</time>
      </trkpt>
      <trkpt lat="45.01845" lon="4.8427">
        <ele>115.80000305176</ele>
        <time>2024-05-21T10:53:21.000Z</time>
      </trkpt>
      <trkpt lat="45.01839" lon="4.84267">
        <ele>115.80000305176</ele>
        <time>2024-05-21T10:53:22.000Z</time>
      </trkpt>
      <trkpt lat="45.01834" lon="4.84265">
        <ele>115.80000305176</ele>
        <time>2024-05-21T10:53:23.000Z</time>
      </trkpt>
      <trkpt lat="45.01828" lon="4.84262">
        <ele>115.80000305176</ele>
        <time>2024-05-21T10:53:24.000Z</time>
      </trkpt>
      <trkpt lat="45.01822" lon="4.84259">
        <ele>115.80000305176</ele>
        <time>2024-05-21T10:53:25.000Z</time>
      </trkpt>
      <trkpt lat="45.01818" lon="4.84257">
        <ele>115.80000305176</ele>
        <time>2024-05-21T10:53:26.000Z</time>
      </trkpt>
      <trkpt lat="45.01811" lon="4.84253">
        <ele>115.80000305176</ele>
        <time>2024-05-21T10:53:27.000Z</time>
      </trkpt>
      <trkpt lat="45.01807" lon="4.8425">
        <ele>115.80000305176</ele>
        <time>2024-05-21T10:53:28.000Z</time>
      </trkpt>
      <trkpt lat="45.01801" lon="4.84247">
        <ele>115.80000305176</ele>
        <time>2024-05-21T10:53:29.000Z</time>
      </trkpt>
      <trkpt lat="45.01794" lon="4.84243">
        <ele>115.59999847412</ele>
        <time>2024-05-21T10:53:30.000Z</time>
      </trkpt>
      <trkpt lat="45.0179" lon="4.84241">
        <ele>115.59999847412</ele>
        <time>2024-05-21T10:53:31.000Z</time>
      </trkpt>
      <trkpt lat="45.01784" lon="4.84239">
        <ele>115.59999847412</ele>
        <time>2024-05-21T10:53:32.000Z</time>
      </trkpt>
      <trkpt lat="45.01777" lon="4.84235">
        <ele>115.59999847412</ele>
        <time>2024-05-21T10:53:33.000Z</time>
      </trkpt>
      <trkpt lat="45.01771" lon="4.84232">
        <ele>115.59999847412</ele>
        <time>2024-05-21T10:53:34.000Z</time>
      </trkpt>
      <trkpt lat="45.01767" lon="4.84229">
        <ele>115.59999847412</ele>
        <time>2024-05-21T10:53:35.000Z</time>
      </trkpt>
      <trkpt lat="45.01761" lon="4.84225">
        <ele>115.40000152588</ele>
        <time>2024-05-21T10:53:36.000Z</time>
      </trkpt>
      <trkpt lat="45.01756" lon="4.84222">
        <ele>115.40000152588</ele>
        <time>2024-05-21T10:53:37.000Z</time>
      </trkpt>
      <trkpt lat="45.0175" lon="4.84217">
        <ele>115.40000152588</ele>
        <time>2024-05-21T10:53:38.000Z</time>
      </trkpt>
      <trkpt lat="45.01746" lon="4.84213">
        <ele>115.40000152588</ele>
        <time>2024-05-21T10:53:39.000Z</time>
      </trkpt>
      <trkpt lat="45.01741" lon="4.84208">
        <ele>115.40000152588</ele>
        <time>2024-05-21T10:53:40.000Z</time>
      </trkpt>
      <trkpt lat="45.01736" lon="4.84204">
        <ele>115.19999694824</ele>
        <time>2024-05-21T10:53:41.000Z</time>
      </trkpt>
      <trkpt lat="45.01729" lon="4.84199">
        <ele>115.19999694824</ele>
        <time>2024-05-21T10:53:42.000Z</time>
      </trkpt>
      <trkpt lat="45.01724" lon="4.84195">
        <ele>115.19999694824</ele>
        <time>2024-05-21T10:53:43.000Z</time>
      </trkpt>
      <trkpt lat="45.01719" lon="4.84191">
        <ele>115.19999694824</ele>
        <time>2024-05-21T10:53:44.000Z</time>
      </trkpt>
      <trkpt lat="45.01713" lon="4.84187">
        <ele>115.19999694824</ele>
        <time>2024-05-21T10:53:45.000Z</time>
      </trkpt>
      <trkpt lat="45.01708" lon="4.84183">
        <ele>115.19999694824</ele>
        <time>2024-05-21T10:53:46.000Z</time>
      </trkpt>
      <trkpt lat="45.01704" lon="4.8418">
        <ele>115.40000152588</ele>
        <time>2024-05-21T10:53:47.000Z</time>
      </trkpt>
      <trkpt lat="45.01699" lon="4.84175">
        <ele>115.40000152588</ele>
        <time>2024-05-21T10:53:48.000Z</time>
      </trkpt>
      <trkpt lat="45.01694" lon="4.84169">
        <ele>115.40000152588</ele>
        <time>2024-05-21T10:53:49.000Z</time>
      </trkpt>
      <trkpt lat="45.01689" lon="4.84164">
        <ele>115.40000152588</ele>
        <time>2024-05-21T10:53:50.000Z</time>
      </trkpt>
      <trkpt lat="45.01685" lon="4.8416">
        <ele>115.40000152588</ele>
        <time>2024-05-21T10:53:51.000Z</time>
      </trkpt>
      <trkpt lat="45.01679" lon="4.84155">
        <ele>115.40000152588</ele>
        <time>2024-05-21T10:53:52.000Z</time>
      </trkpt>
      <trkpt lat="45.01675" lon="4.84151">
        <ele>115.40000152588</ele>
        <time>2024-05-21T10:53:53.000Z</time>
      </trkpt>
      <trkpt lat="45.01671" lon="4.84147">
        <ele>115.40000152588</ele>
        <time>2024-05-21T10:53:54.000Z</time>
      </trkpt>
      <trkpt lat="45.01665" lon="4.8414">
        <ele>115.40000152588</ele>
        <time>2024-05-21T10:53:55.000Z</time>
      </trkpt>
      <trkpt lat="45.0166" lon="4.84134">
        <ele>115.40000152588</ele>
        <time>2024-05-21T10:53:56.000Z</time>
      </trkpt>
      <trkpt lat="45.01656" lon="4.8413">
        <ele>115.40000152588</ele>
        <time>2024-05-21T10:53:57.000Z</time>
      </trkpt>
      <trkpt lat="45.01652" lon="4.84125">
        <ele>115.40000152588</ele>
        <time>2024-05-21T10:53:58.000Z</time>
      </trkpt>
      <trkpt lat="45.01648" lon="4.8412">
        <ele>115.40000152588</ele>
        <time>2024-05-21T10:53:59.000Z</time>
      </trkpt>
      <trkpt lat="45.01643" lon="4.84114">
        <ele>115.40000152588</ele>
        <time>2024-05-21T10:54:00.000Z</time>
      </trkpt>
      <trkpt lat="45.01638" lon="4.84108">
        <ele>115.40000152588</ele>
        <time>2024-05-21T10:54:01.000Z</time>
      </trkpt>
      <trkpt lat="45.01633" lon="4.84104">
        <ele>115.40000152588</ele>
        <time>2024-05-21T10:54:02.000Z</time>
      </trkpt>
      <trkpt lat="45.01629" lon="4.841">
        <ele>115</ele>
        <time>2024-05-21T10:54:03.000Z</time>
      </trkpt>
      <trkpt lat="45.01624" lon="4.84095">
        <ele>114.80000305176</ele>
        <time>2024-05-21T10:54:04.000Z</time>
      </trkpt>
      <trkpt lat="45.01619" lon="4.84093">
        <ele>114.80000305176</ele>
        <time>2024-05-21T10:54:05.000Z</time>
      </trkpt>
      <trkpt lat="45.01614" lon="4.84091">
        <ele>114.59999847412</ele>
        <time>2024-05-21T10:54:06.000Z</time>
      </trkpt>
      <trkpt lat="45.0161" lon="4.8409">
        <ele>114.59999847412</ele>
        <time>2024-05-21T10:54:07.000Z</time>
      </trkpt>
      <trkpt lat="45.01605" lon="4.84088">
        <ele>114.59999847412</ele>
        <time>2024-05-21T10:54:08.000Z</time>
      </trkpt>
      <trkpt lat="45.01602" lon="4.84087">
        <ele>114.59999847412</ele>
        <time>2024-05-21T10:54:09.000Z</time>
      </trkpt>
      <trkpt lat="45.01597" lon="4.84085">
        <ele>114.59999847412</ele>
        <time>2024-05-21T10:54:10.000Z</time>
      </trkpt>
      <trkpt lat="45.01593" lon="4.84083">
        <ele>114.59999847412</ele>
        <time>2024-05-21T10:54:11.000Z</time>
      </trkpt>
      <trkpt lat="45.0159" lon="4.8408">
        <ele>114.59999847412</ele>
        <time>2024-05-21T10:54:12.000Z</time>
      </trkpt>
      <trkpt lat="45.01585" lon="4.84076">
        <ele>114.59999847412</ele>
        <time>2024-05-21T10:54:13.000Z</time>
      </trkpt>
      <trkpt lat="45.0158" lon="4.84073">
        <ele>114.80000305176</ele>
        <time>2024-05-21T10:54:14.000Z</time>
      </trkpt>
      <trkpt lat="45.01577" lon="4.8407">
        <ele>114.80000305176</ele>
        <time>2024-05-21T10:54:15.000Z</time>
      </trkpt>
      <trkpt lat="45.01574" lon="4.84067">
        <ele>114.80000305176</ele>
        <time>2024-05-21T10:54:16.000Z</time>
      </trkpt>
      <trkpt lat="45.0157" lon="4.84064">
        <ele>114.80000305176</ele>
        <time>2024-05-21T10:54:17.000Z</time>
      </trkpt>
      <trkpt lat="45.01566" lon="4.84062">
        <ele>115</ele>
        <time>2024-05-21T10:54:18.000Z</time>
      </trkpt>
      <trkpt lat="45.01562" lon="4.84059">
        <ele>115.19999694824</ele>
        <time>2024-05-21T10:54:19.000Z</time>
      </trkpt>
      <trkpt lat="45.01557" lon="4.84055">
        <ele>115.19999694824</ele>
        <time>2024-05-21T10:54:20.000Z</time>
      </trkpt>
      <trkpt lat="45.01553" lon="4.84052">
        <ele>115.19999694824</ele>
        <time>2024-05-21T10:54:21.000Z</time>
      </trkpt>
      <trkpt lat="45.01549" lon="4.84047">
        <ele>115.19999694824</ele>
        <time>2024-05-21T10:54:22.000Z</time>
      </trkpt>
      <trkpt lat="45.01545" lon="4.84044">
        <ele>115.19999694824</ele>
        <time>2024-05-21T10:54:23.000Z</time>
      </trkpt>
      <trkpt lat="45.01541" lon="4.84039">
        <ele>115.19999694824</ele>
        <time>2024-05-21T10:54:24.000Z</time>
      </trkpt>
      <trkpt lat="45.01538" lon="4.84035">
        <ele>115.40000152588</ele>
        <time>2024-05-21T10:54:25.000Z</time>
      </trkpt>
      <trkpt lat="45.01534" lon="4.8403">
        <ele>115.40000152588</ele>
        <time>2024-05-21T10:54:26.000Z</time>
      </trkpt>
      <trkpt lat="45.01532" lon="4.84027">
        <ele>115.40000152588</ele>
        <time>2024-05-21T10:54:27.000Z</time>
      </trkpt>
      <trkpt lat="45.01528" lon="4.84022">
        <ele>115.40000152588</ele>
        <time>2024-05-21T10:54:28.000Z</time>
      </trkpt>
      <trkpt lat="45.01526" lon="4.84018">
        <ele>115.40000152588</ele>
        <time>2024-05-21T10:54:29.000Z</time>
      </trkpt>
      <trkpt lat="45.01523" lon="4.84016">
        <ele>115.40000152588</ele>
        <time>2024-05-21T10:54:30.000Z</time>
      </trkpt>
      <trkpt lat="45.01521" lon="4.84011">
        <ele>115.40000152588</ele>
        <time>2024-05-21T10:54:31.000Z</time>
      </trkpt>
      <trkpt lat="45.01519" lon="4.84008">
        <ele>115.40000152588</ele>
        <time>2024-05-21T10:54:32.000Z</time>
      </trkpt>
      <trkpt lat="45.01516" lon="4.84004">
        <ele>115.40000152588</ele>
        <time>2024-05-21T10:54:33.000Z</time>
      </trkpt>
      <trkpt lat="45.01514" lon="4.84">
        <ele>115.40000152588</ele>
        <time>2024-05-21T10:54:34.000Z</time>
      </trkpt>
      <trkpt lat="45.01512" lon="4.83994">
        <ele>115.40000152588</ele>
        <time>2024-05-21T10:54:35.000Z</time>
      </trkpt>
      <trkpt lat="45.01509" lon="4.83989">
        <ele>115.40000152588</ele>
        <time>2024-05-21T10:54:36.000Z</time>
      </trkpt>
      <trkpt lat="45.01507" lon="4.83984">
        <ele>115.40000152588</ele>
        <time>2024-05-21T10:54:37.000Z</time>
      </trkpt>
      <trkpt lat="45.01505" lon="4.83978">
        <ele>115.40000152588</ele>
        <time>2024-05-21T10:54:38.000Z</time>
      </trkpt>
      <trkpt lat="45.01504" lon="4.83973">
        <ele>115.40000152588</ele>
        <time>2024-05-21T10:54:39.000Z</time>
      </trkpt>
      <trkpt lat="45.01503" lon="4.83967">
        <ele>115.40000152588</ele>
        <time>2024-05-21T10:54:40.000Z</time>
      </trkpt>
      <trkpt lat="45.01502" lon="4.83962">
        <ele>115.40000152588</ele>
        <time>2024-05-21T10:54:41.000Z</time>
      </trkpt>
      <trkpt lat="45.01501" lon="4.83957">
        <ele>115.59999847412</ele>
        <time>2024-05-21T10:54:42.000Z</time>
      </trkpt>
      <trkpt lat="45.015" lon="4.83952">
        <ele>115.80000305176</ele>
        <time>2024-05-21T10:54:43.000Z</time>
      </trkpt>
      <trkpt lat="45.01499" lon="4.83948">
        <ele>115.80000305176</ele>
        <time>2024-05-21T10:54:44.000Z</time>
      </trkpt>
      <trkpt lat="45.01497" lon="4.83944">
        <ele>115.80000305176</ele>
        <time>2024-05-21T10:54:45.000Z</time>
      </trkpt>
      <trkpt lat="45.01496" lon="4.8394">
        <ele>115.80000305176</ele>
        <time>2024-05-21T10:54:46.000Z</time>
      </trkpt>
      <trkpt lat="45.01494" lon="4.83937">
        <ele>115.80000305176</ele>
        <time>2024-05-21T10:54:47.000Z</time>
      </trkpt>
      <trkpt lat="45.01491" lon="4.83935">
        <ele>115.80000305176</ele>
        <time>2024-05-21T10:54:48.000Z</time>
      </trkpt>
      <trkpt lat="45.01489" lon="4.83933">
        <ele>115.80000305176</ele>
        <time>2024-05-21T10:54:49.000Z</time>
      </trkpt>
      <trkpt lat="45.01488" lon="4.83931">
        <ele>115.80000305176</ele>
        <time>2024-05-21T10:54:50.000Z</time>
      </trkpt>
      <trkpt lat="45.01487" lon="4.83929">
        <ele>115.80000305176</ele>
        <time>2024-05-21T10:54:51.000Z</time>
      </trkpt>
      <trkpt lat="45.01486" lon="4.83927">
        <ele>115.80000305176</ele>
        <time>2024-05-21T10:54:52.000Z</time>
      </trkpt>
      <trkpt lat="45.01485" lon="4.83924">
        <ele>115.80000305176</ele>
        <time>2024-05-21T10:54:53.000Z</time>
      </trkpt>
      <trkpt lat="45.01485" lon="4.83921">
        <ele>115.80000305176</ele>
        <time>2024-05-21T10:54:54.000Z</time>
      </trkpt>
      <trkpt lat="45.01483" lon="4.83918">
        <ele>115.80000305176</ele>
        <time>2024-05-21T10:54:55.000Z</time>
      </trkpt>
      <trkpt lat="45.01482" lon="4.83914">
        <ele>115.80000305176</ele>
        <time>2024-05-21T10:54:56.000Z</time>
      </trkpt>
      <trkpt lat="45.0148" lon="4.83909">
        <ele>115.80000305176</ele>
        <time>2024-05-21T10:54:57.000Z</time>
      </trkpt>
      <trkpt lat="45.0148" lon="4.83904">
        <ele>115.80000305176</ele>
        <time>2024-05-21T10:54:58.000Z</time>
      </trkpt>
      <trkpt lat="45.0148" lon="4.83899">
        <ele>115.80000305176</ele>
        <time>2024-05-21T10:54:59.000Z</time>
      </trkpt>
      <trkpt lat="45.01479" lon="4.83895">
        <ele>115.80000305176</ele>
        <time>2024-05-21T10:55:00.000Z</time>
      </trkpt>
      <trkpt lat="45.01479" lon="4.83891">
        <ele>115.80000305176</ele>
        <time>2024-05-21T10:55:01.000Z</time>
      </trkpt>
      <trkpt lat="45.01478" lon="4.83886">
        <ele>115.80000305176</ele>
        <time>2024-05-21T10:55:02.000Z</time>
      </trkpt>
      <trkpt lat="45.01478" lon="4.83881">
        <ele>115.80000305176</ele>
        <time>2024-05-21T10:55:03.000Z</time>
      </trkpt>
      <trkpt lat="45.01477" lon="4.83876">
        <ele>115.80000305176</ele>
        <time>2024-05-21T10:55:04.000Z</time>
      </trkpt>
      <trkpt lat="45.01477" lon="4.83871">
        <ele>115.80000305176</ele>
        <time>2024-05-21T10:55:05.000Z</time>
      </trkpt>
      <trkpt lat="45.01476" lon="4.83867">
        <ele>115.80000305176</ele>
        <time>2024-05-21T10:55:06.000Z</time>
      </trkpt>
      <trkpt lat="45.01475" lon="4.83863">
        <ele>115.80000305176</ele>
        <time>2024-05-21T10:55:07.000Z</time>
      </trkpt>
      <trkpt lat="45.01474" lon="4.83858">
        <ele>115.80000305176</ele>
        <time>2024-05-21T10:55:08.000Z</time>
      </trkpt>
      <trkpt lat="45.01474" lon="4.83852">
        <ele>115.80000305176</ele>
        <time>2024-05-21T10:55:09.000Z</time>
      </trkpt>
      <trkpt lat="45.01473" lon="4.83846">
        <ele>116</ele>
        <time>2024-05-21T10:55:10.000Z</time>
      </trkpt>
      <trkpt lat="45.01472" lon="4.8384">
        <ele>116</ele>
        <time>2024-05-21T10:55:11.000Z</time>
      </trkpt>
      <trkpt lat="45.01471" lon="4.83834">
        <ele>116</ele>
        <time>2024-05-21T10:55:12.000Z</time>
      </trkpt>
      <trkpt lat="45.0147" lon="4.83829">
        <ele>116</ele>
        <time>2024-05-21T10:55:13.000Z</time>
      </trkpt>
      <trkpt lat="45.01469" lon="4.83824">
        <ele>116</ele>
        <time>2024-05-21T10:55:14.000Z</time>
      </trkpt>
      <trkpt lat="45.01469" lon="4.8382">
        <ele>116</ele>
        <time>2024-05-21T10:55:15.000Z</time>
      </trkpt>
      <trkpt lat="45.01469" lon="4.83815">
        <ele>116</ele>
        <time>2024-05-21T10:55:16.000Z</time>
      </trkpt>
      <trkpt lat="45.01468" lon="4.8381">
        <ele>116</ele>
        <time>2024-05-21T10:55:17.000Z</time>
      </trkpt>
      <trkpt lat="45.01468" lon="4.83805">
        <ele>116</ele>
        <time>2024-05-21T10:55:18.000Z</time>
      </trkpt>
      <trkpt lat="45.01467" lon="4.838">
        <ele>116</ele>
        <time>2024-05-21T10:55:19.000Z</time>
      </trkpt>
      <trkpt lat="45.01467" lon="4.83795">
        <ele>116</ele>
        <time>2024-05-21T10:55:20.000Z</time>
      </trkpt>
      <trkpt lat="45.01467" lon="4.8379">
        <ele>116</ele>
        <time>2024-05-21T10:55:21.000Z</time>
      </trkpt>
      <trkpt lat="45.01467" lon="4.83785">
        <ele>116</ele>
        <time>2024-05-21T10:55:22.000Z</time>
      </trkpt>
      <trkpt lat="45.01469" lon="4.83781">
        <ele>116.19999694824</ele>
        <time>2024-05-21T10:55:23.000Z</time>
      </trkpt>
      <trkpt lat="45.01471" lon="4.83777">
        <ele>116.19999694824</ele>
        <time>2024-05-21T10:55:24.000Z</time>
      </trkpt>
      <trkpt lat="45.01472" lon="4.83773">
        <ele>116.19999694824</ele>
        <time>2024-05-21T10:55:25.000Z</time>
      </trkpt>
      <trkpt lat="45.01472" lon="4.83769">
        <ele>116.19999694824</ele>
        <time>2024-05-21T10:55:26.000Z</time>
      </trkpt>
      <trkpt lat="45.01473" lon="4.83764">
        <ele>116.19999694824</ele>
        <time>2024-05-21T10:55:27.000Z</time>
      </trkpt>
      <trkpt lat="45.01473" lon="4.8376">
        <ele>116.40000152588</ele>
        <time>2024-05-21T10:55:28.000Z</time>
      </trkpt>
      <trkpt lat="45.01472" lon="4.83755">
        <ele>116.40000152588</ele>
        <time>2024-05-21T10:55:29.000Z</time>
      </trkpt>
      <trkpt lat="45.01472" lon="4.83751">
        <ele>116.59999847412</ele>
        <time>2024-05-21T10:55:30.000Z</time>
      </trkpt>
      <trkpt lat="45.01472" lon="4.83746">
        <ele>116.59999847412</ele>
        <time>2024-05-21T10:55:31.000Z</time>
      </trkpt>
      <trkpt lat="45.01472" lon="4.83741">
        <ele>116.59999847412</ele>
        <time>2024-05-21T10:55:32.000Z</time>
      </trkpt>
      <trkpt lat="45.01472" lon="4.83737">
        <ele>116.80000305176</ele>
        <time>2024-05-21T10:55:33.000Z</time>
      </trkpt>
      <trkpt lat="45.01472" lon="4.83733">
        <ele>116.80000305176</ele>
        <time>2024-05-21T10:55:34.000Z</time>
      </trkpt>
      <trkpt lat="45.01471" lon="4.83728">
        <ele>117</ele>
        <time>2024-05-21T10:55:35.000Z</time>
      </trkpt>
      <trkpt lat="45.0147" lon="4.83724">
        <ele>117.19999694824</ele>
        <time>2024-05-21T10:55:36.000Z</time>
      </trkpt>
      <trkpt lat="45.0147" lon="4.8372">
        <ele>117.40000152588</ele>
        <time>2024-05-21T10:55:37.000Z</time>
      </trkpt>
      <trkpt lat="45.01469" lon="4.83716">
        <ele>117.59999847412</ele>
        <time>2024-05-21T10:55:38.000Z</time>
      </trkpt>
      <trkpt lat="45.01469" lon="4.83711">
        <ele>117.59999847412</ele>
        <time>2024-05-21T10:55:39.000Z</time>
      </trkpt>
      <trkpt lat="45.01469" lon="4.83708">
        <ele>117.80000305176</ele>
        <time>2024-05-21T10:55:40.000Z</time>
      </trkpt>
      <trkpt lat="45.01469" lon="4.83704">
        <ele>118</ele>
        <time>2024-05-21T10:55:41.000Z</time>
      </trkpt>
      <trkpt lat="45.01469" lon="4.83702">
        <ele>118.19999694824</ele>
        <time>2024-05-21T10:55:42.000Z</time>
      </trkpt>
      <trkpt lat="45.01469" lon="4.837">
        <ele>118.40000152588</ele>
        <time>2024-05-21T10:55:43.000Z</time>
      </trkpt>
      <trkpt lat="45.0147" lon="4.83699">
        <ele>118.59999847412</ele>
        <time>2024-05-21T10:55:44.000Z</time>
      </trkpt>
      <trkpt lat="45.0147" lon="4.83698">
        <ele>118.80000305176</ele>
        <time>2024-05-21T10:55:45.000Z</time>
      </trkpt>
      <trkpt lat="45.0147" lon="4.83698">
        <ele>119</ele>
        <time>2024-05-21T10:55:46.000Z</time>
      </trkpt>
      <trkpt lat="45.01469" lon="4.83692">
        <ele>119.19999694824</ele>
        <time>2024-05-21T10:55:53.000Z</time>
      </trkpt>
      <trkpt lat="45.01467" lon="4.8369">
        <ele>119.40000152588</ele>
        <time>2024-05-21T10:55:54.000Z</time>
      </trkpt>
      <trkpt lat="45.01464" lon="4.83689">
        <ele>119.40000152588</ele>
        <time>2024-05-21T10:55:55.000Z</time>
      </trkpt>
      <trkpt lat="45.01461" lon="4.83687">
        <ele>119.40000152588</ele>
        <time>2024-05-21T10:55:56.000Z</time>
      </trkpt>
      <trkpt lat="45.01458" lon="4.83686">
        <ele>119.19999694824</ele>
        <time>2024-05-21T10:55:57.000Z</time>
      </trkpt>
      <trkpt lat="45.01454" lon="4.83684">
        <ele>119</ele>
        <time>2024-05-21T10:55:58.000Z</time>
      </trkpt>
      <trkpt lat="45.0145" lon="4.83683">
        <ele>119</ele>
        <time>2024-05-21T10:55:59.000Z</time>
      </trkpt>
      <trkpt lat="45.01446" lon="4.83681">
        <ele>118.80000305176</ele>
        <time>2024-05-21T10:56:00.000Z</time>
      </trkpt>
      <trkpt lat="45.01441" lon="4.8368">
        <ele>118.80000305176</ele>
        <time>2024-05-21T10:56:01.000Z</time>
      </trkpt>
      <trkpt lat="45.01437" lon="4.83677">
        <ele>118.59999847412</ele>
        <time>2024-05-21T10:56:02.000Z</time>
      </trkpt>
      <trkpt lat="45.01432" lon="4.83675">
        <ele>118.59999847412</ele>
        <time>2024-05-21T10:56:03.000Z</time>
      </trkpt>
      <trkpt lat="45.01428" lon="4.83673">
        <ele>118.59999847412</ele>
        <time>2024-05-21T10:56:04.000Z</time>
      </trkpt>
      <trkpt lat="45.01423" lon="4.8367">
        <ele>118.59999847412</ele>
        <time>2024-05-21T10:56:05.000Z</time>
      </trkpt>
      <trkpt lat="45.01418" lon="4.83668">
        <ele>118.59999847412</ele>
        <time>2024-05-21T10:56:06.000Z</time>
      </trkpt>
      <trkpt lat="45.01413" lon="4.83666">
        <ele>118.59999847412</ele>
        <time>2024-05-21T10:56:07.000Z</time>
      </trkpt>
      <trkpt lat="45.01408" lon="4.83663">
        <ele>118.59999847412</ele>
        <time>2024-05-21T10:56:08.000Z</time>
      </trkpt>
      <trkpt lat="45.01403" lon="4.8366">
        <ele>118.59999847412</ele>
        <time>2024-05-21T10:56:09.000Z</time>
      </trkpt>
      <trkpt lat="45.01398" lon="4.83658">
        <ele>118.59999847412</ele>
        <time>2024-05-21T10:56:10.000Z</time>
      </trkpt>
      <trkpt lat="45.01393" lon="4.83655">
        <ele>118.59999847412</ele>
        <time>2024-05-21T10:56:11.000Z</time>
      </trkpt>
      <trkpt lat="45.01388" lon="4.83653">
        <ele>118.59999847412</ele>
        <time>2024-05-21T10:56:12.000Z</time>
      </trkpt>
      <trkpt lat="45.01383" lon="4.8365">
        <ele>118.59999847412</ele>
        <time>2024-05-21T10:56:13.000Z</time>
      </trkpt>
      <trkpt lat="45.01378" lon="4.83648">
        <ele>118.59999847412</ele>
        <time>2024-05-21T10:56:14.000Z</time>
      </trkpt>
      <trkpt lat="45.01372" lon="4.83645">
        <ele>118.59999847412</ele>
        <time>2024-05-21T10:56:15.000Z</time>
      </trkpt>
      <trkpt lat="45.01367" lon="4.83643">
        <ele>118.59999847412</ele>
        <time>2024-05-21T10:56:16.000Z</time>
      </trkpt>
      <trkpt lat="45.01362" lon="4.8364">
        <ele>118.40000152588</ele>
        <time>2024-05-21T10:56:17.000Z</time>
      </trkpt>
      <trkpt lat="45.01356" lon="4.83638">
        <ele>118.40000152588</ele>
        <time>2024-05-21T10:56:18.000Z</time>
      </trkpt>
      <trkpt lat="45.01351" lon="4.83635">
        <ele>118.40000152588</ele>
        <time>2024-05-21T10:56:19.000Z</time>
      </trkpt>
      <trkpt lat="45.01345" lon="4.83632">
        <ele>118.40000152588</ele>
        <time>2024-05-21T10:56:20.000Z</time>
      </trkpt>
      <trkpt lat="45.0134" lon="4.8363">
        <ele>118.40000152588</ele>
        <time>2024-05-21T10:56:21.000Z</time>
      </trkpt>
      <trkpt lat="45.01334" lon="4.83627">
        <ele>118.40000152588</ele>
        <time>2024-05-21T10:56:22.000Z</time>
      </trkpt>
      <trkpt lat="45.01329" lon="4.83624">
        <ele>118.59999847412</ele>
        <time>2024-05-21T10:56:23.000Z</time>
      </trkpt>
      <trkpt lat="45.01323" lon="4.83621">
        <ele>118.59999847412</ele>
        <time>2024-05-21T10:56:24.000Z</time>
      </trkpt>
      <trkpt lat="45.01318" lon="4.83618">
        <ele>118.59999847412</ele>
        <time>2024-05-21T10:56:25.000Z</time>
      </trkpt>
      <trkpt lat="45.01312" lon="4.83616">
        <ele>118.80000305176</ele>
        <time>2024-05-21T10:56:26.000Z</time>
      </trkpt>
      <trkpt lat="45.01307" lon="4.83613">
        <ele>118.80000305176</ele>
        <time>2024-05-21T10:56:27.000Z</time>
      </trkpt>
      <trkpt lat="45.01301" lon="4.8361">
        <ele>118.80000305176</ele>
        <time>2024-05-21T10:56:28.000Z</time>
      </trkpt>
      <trkpt lat="45.01296" lon="4.83607">
        <ele>118.80000305176</ele>
        <time>2024-05-21T10:56:29.000Z</time>
      </trkpt>
      <trkpt lat="45.0129" lon="4.83604">
        <ele>118.80000305176</ele>
        <time>2024-05-21T10:56:30.000Z</time>
      </trkpt>
      <trkpt lat="45.01284" lon="4.83602">
        <ele>118.80000305176</ele>
        <time>2024-05-21T10:56:31.000Z</time>
      </trkpt>
      <trkpt lat="45.01279" lon="4.83599">
        <ele>118.80000305176</ele>
        <time>2024-05-21T10:56:32.000Z</time>
      </trkpt>
      <trkpt lat="45.01273" lon="4.83596">
        <ele>118.59999847412</ele>
        <time>2024-05-21T10:56:33.000Z</time>
      </trkpt>
      <trkpt lat="45.01267" lon="4.83593">
        <ele>118.59999847412</ele>
        <time>2024-05-21T10:56:34.000Z</time>
      </trkpt>
      <trkpt lat="45.01262" lon="4.8359">
        <ele>118.40000152588</ele>
        <time>2024-05-21T10:56:35.000Z</time>
      </trkpt>
      <trkpt lat="45.01256" lon="4.83588">
        <ele>118.40000152588</ele>
        <time>2024-05-21T10:56:36.000Z</time>
      </trkpt>
      <trkpt lat="45.0125" lon="4.83585">
        <ele>118.40000152588</ele>
        <time>2024-05-21T10:56:37.000Z</time>
      </trkpt>
      <trkpt lat="45.01244" lon="4.83582">
        <ele>118.40000152588</ele>
        <time>2024-05-21T10:56:38.000Z</time>
      </trkpt>
      <trkpt lat="45.01239" lon="4.83579">
        <ele>118.40000152588</ele>
        <time>2024-05-21T10:56:39.000Z</time>
      </trkpt>
      <trkpt lat="45.01233" lon="4.83576">
        <ele>118.40000152588</ele>
        <time>2024-05-21T10:56:40.000Z</time>
      </trkpt>
      <trkpt lat="45.01227" lon="4.83574">
        <ele>118.40000152588</ele>
        <time>2024-05-21T10:56:41.000Z</time>
      </trkpt>
      <trkpt lat="45.01221" lon="4.83571">
        <ele>118.40000152588</ele>
        <time>2024-05-21T10:56:42.000Z</time>
      </trkpt>
      <trkpt lat="45.01215" lon="4.8357">
        <ele>118.40000152588</ele>
        <time>2024-05-21T10:56:43.000Z</time>
      </trkpt>
      <trkpt lat="45.01209" lon="4.83569">
        <ele>118.40000152588</ele>
        <time>2024-05-21T10:56:44.000Z</time>
      </trkpt>
      <trkpt lat="45.01203" lon="4.83569">
        <ele>118.40000152588</ele>
        <time>2024-05-21T10:56:45.000Z</time>
      </trkpt>
      <trkpt lat="45.01198" lon="4.83569">
        <ele>118.59999847412</ele>
        <time>2024-05-21T10:56:46.000Z</time>
      </trkpt>
      <trkpt lat="45.01192" lon="4.8357">
        <ele>118.59999847412</ele>
        <time>2024-05-21T10:56:47.000Z</time>
      </trkpt>
      <trkpt lat="45.01187" lon="4.83571">
        <ele>118.59999847412</ele>
        <time>2024-05-21T10:56:48.000Z</time>
      </trkpt>
      <trkpt lat="45.01181" lon="4.83572">
        <ele>118.59999847412</ele>
        <time>2024-05-21T10:56:49.000Z</time>
      </trkpt>
      <trkpt lat="45.01176" lon="4.83574">
        <ele>118.80000305176</ele>
        <time>2024-05-21T10:56:50.000Z</time>
      </trkpt>
      <trkpt lat="45.01171" lon="4.83577">
        <ele>119</ele>
        <time>2024-05-21T10:56:51.000Z</time>
      </trkpt>
      <trkpt lat="45.01165" lon="4.8358">
        <ele>119</ele>
        <time>2024-05-21T10:56:52.000Z</time>
      </trkpt>
      <trkpt lat="45.0116" lon="4.83584">
        <ele>119</ele>
        <time>2024-05-21T10:56:53.000Z</time>
      </trkpt>
      <trkpt lat="45.01156" lon="4.83589">
        <ele>119</ele>
        <time>2024-05-21T10:56:54.000Z</time>
      </trkpt>
      <trkpt lat="45.01151" lon="4.83594">
        <ele>119</ele>
        <time>2024-05-21T10:56:55.000Z</time>
      </trkpt>
      <trkpt lat="45.01147" lon="4.836">
        <ele>119</ele>
        <time>2024-05-21T10:56:56.000Z</time>
      </trkpt>
      <trkpt lat="45.01144" lon="4.83606">
        <ele>119</ele>
        <time>2024-05-21T10:56:57.000Z</time>
      </trkpt>
      <trkpt lat="45.0114" lon="4.83613">
        <ele>119</ele>
        <time>2024-05-21T10:56:58.000Z</time>
      </trkpt>
      <trkpt lat="45.01136" lon="4.83619">
        <ele>119.19999694824</ele>
        <time>2024-05-21T10:56:59.000Z</time>
      </trkpt>
      <trkpt lat="45.01133" lon="4.83626">
        <ele>119.19999694824</ele>
        <time>2024-05-21T10:57:00.000Z</time>
      </trkpt>
      <trkpt lat="45.01129" lon="4.83632">
        <ele>119.19999694824</ele>
        <time>2024-05-21T10:57:01.000Z</time>
      </trkpt>
      <trkpt lat="45.01126" lon="4.83639">
        <ele>119.19999694824</ele>
        <time>2024-05-21T10:57:02.000Z</time>
      </trkpt>
      <trkpt lat="45.01122" lon="4.83645">
        <ele>119.19999694824</ele>
        <time>2024-05-21T10:57:03.000Z</time>
      </trkpt>
      <trkpt lat="45.01118" lon="4.83652">
        <ele>119.19999694824</ele>
        <time>2024-05-21T10:57:04.000Z</time>
      </trkpt>
      <trkpt lat="45.01115" lon="4.83658">
        <ele>119.19999694824</ele>
        <time>2024-05-21T10:57:05.000Z</time>
      </trkpt>
      <trkpt lat="45.01112" lon="4.83665">
        <ele>119.19999694824</ele>
        <time>2024-05-21T10:57:06.000Z</time>
      </trkpt>
      <trkpt lat="45.01108" lon="4.83671">
        <ele>119.19999694824</ele>
        <time>2024-05-21T10:57:07.000Z</time>
      </trkpt>
      <trkpt lat="45.01105" lon="4.83678">
        <ele>119.40000152588</ele>
        <time>2024-05-21T10:57:08.000Z</time>
      </trkpt>
      <trkpt lat="45.01102" lon="4.83685">
        <ele>119.19999694824</ele>
        <time>2024-05-21T10:57:09.000Z</time>
      </trkpt>
      <trkpt lat="45.01099" lon="4.83692">
        <ele>119.19999694824</ele>
        <time>2024-05-21T10:57:10.000Z</time>
      </trkpt>
      <trkpt lat="45.01096" lon="4.83699">
        <ele>119.19999694824</ele>
        <time>2024-05-21T10:57:11.000Z</time>
      </trkpt>
      <trkpt lat="45.01093" lon="4.83705">
        <ele>119.19999694824</ele>
        <time>2024-05-21T10:57:12.000Z</time>
      </trkpt>
      <trkpt lat="45.0109" lon="4.83712">
        <ele>119.19999694824</ele>
        <time>2024-05-21T10:57:13.000Z</time>
      </trkpt>
      <trkpt lat="45.01086" lon="4.83718">
        <ele>119.19999694824</ele>
        <time>2024-05-21T10:57:14.000Z</time>
      </trkpt>
      <trkpt lat="45.01083" lon="4.83725">
        <ele>119.19999694824</ele>
        <time>2024-05-21T10:57:15.000Z</time>
      </trkpt>
      <trkpt lat="45.01081" lon="4.83732">
        <ele>119.19999694824</ele>
        <time>2024-05-21T10:57:16.000Z</time>
      </trkpt>
      <trkpt lat="45.01079" lon="4.8374">
        <ele>119.19999694824</ele>
        <time>2024-05-21T10:57:17.000Z</time>
      </trkpt>
      <trkpt lat="45.01077" lon="4.83747">
        <ele>119.19999694824</ele>
        <time>2024-05-21T10:57:18.000Z</time>
      </trkpt>
      <trkpt lat="45.01075" lon="4.83755">
        <ele>119.19999694824</ele>
        <time>2024-05-21T10:57:19.000Z</time>
      </trkpt>
      <trkpt lat="45.01074" lon="4.83762">
        <ele>119.19999694824</ele>
        <time>2024-05-21T10:57:20.000Z</time>
      </trkpt>
      <trkpt lat="45.01072" lon="4.83769">
        <ele>119.19999694824</ele>
        <time>2024-05-21T10:57:21.000Z</time>
      </trkpt>
      <trkpt lat="45.01071" lon="4.83776">
        <ele>119.19999694824</ele>
        <time>2024-05-21T10:57:22.000Z</time>
      </trkpt>
      <trkpt lat="45.01069" lon="4.83783">
        <ele>119.19999694824</ele>
        <time>2024-05-21T10:57:23.000Z</time>
      </trkpt>
      <trkpt lat="45.01068" lon="4.83789">
        <ele>119.59999847412</ele>
        <time>2024-05-21T10:57:24.000Z</time>
      </trkpt>
      <trkpt lat="45.01067" lon="4.83795">
        <ele>120</ele>
        <time>2024-05-21T10:57:25.000Z</time>
      </trkpt>
      <trkpt lat="45.01066" lon="4.83801">
        <ele>120.19999694824</ele>
        <time>2024-05-21T10:57:26.000Z</time>
      </trkpt>
      <trkpt lat="45.01065" lon="4.83807">
        <ele>120.59999847412</ele>
        <time>2024-05-21T10:57:27.000Z</time>
      </trkpt>
      <trkpt lat="45.01064" lon="4.83813">
        <ele>120.80000305176</ele>
        <time>2024-05-21T10:57:28.000Z</time>
      </trkpt>
      <trkpt lat="45.01063" lon="4.83818">
        <ele>121</ele>
        <time>2024-05-21T10:57:29.000Z</time>
      </trkpt>
      <trkpt lat="45.01062" lon="4.83824">
        <ele>121.19999694824</ele>
        <time>2024-05-21T10:57:30.000Z</time>
      </trkpt>
      <trkpt lat="45.01061" lon="4.8383">
        <ele>121.40000152588</ele>
        <time>2024-05-21T10:57:31.000Z</time>
      </trkpt>
      <trkpt lat="45.0106" lon="4.83835">
        <ele>121.80000305176</ele>
        <time>2024-05-21T10:57:32.000Z</time>
      </trkpt>
      <trkpt lat="45.0106" lon="4.83841">
        <ele>122.19999694824</ele>
        <time>2024-05-21T10:57:33.000Z</time>
      </trkpt>
      <trkpt lat="45.01058" lon="4.83846">
        <ele>122.59999847412</ele>
        <time>2024-05-21T10:57:34.000Z</time>
      </trkpt>
      <trkpt lat="45.01057" lon="4.83851">
        <ele>123</ele>
        <time>2024-05-21T10:57:35.000Z</time>
      </trkpt>
      <trkpt lat="45.01056" lon="4.83857">
        <ele>123.40000152588</ele>
        <time>2024-05-21T10:57:36.000Z</time>
      </trkpt>
      <trkpt lat="45.01055" lon="4.83863">
        <ele>123.40000152588</ele>
        <time>2024-05-21T10:57:37.000Z</time>
      </trkpt>
      <trkpt lat="45.01054" lon="4.83868">
        <ele>123.59999847412</ele>
        <time>2024-05-21T10:57:38.000Z</time>
      </trkpt>
      <trkpt lat="45.01053" lon="4.83874">
        <ele>123.59999847412</ele>
        <time>2024-05-21T10:57:39.000Z</time>
      </trkpt>
      <trkpt lat="45.01052" lon="4.83881">
        <ele>123.59999847412</ele>
        <time>2024-05-21T10:57:40.000Z</time>
      </trkpt>
      <trkpt lat="45.01051" lon="4.83887">
        <ele>123.59999847412</ele>
        <time>2024-05-21T10:57:41.000Z</time>
      </trkpt>
      <trkpt lat="45.0105" lon="4.83893">
        <ele>123.59999847412</ele>
        <time>2024-05-21T10:57:42.000Z</time>
      </trkpt>
      <trkpt lat="45.01048" lon="4.839">
        <ele>123.59999847412</ele>
        <time>2024-05-21T10:57:43.000Z</time>
      </trkpt>
      <trkpt lat="45.01047" lon="4.83907">
        <ele>123.40000152588</ele>
        <time>2024-05-21T10:57:44.000Z</time>
      </trkpt>
      <trkpt lat="45.01046" lon="4.83913">
        <ele>123.40000152588</ele>
        <time>2024-05-21T10:57:45.000Z</time>
      </trkpt>
      <trkpt lat="45.01045" lon="4.8392">
        <ele>123.40000152588</ele>
        <time>2024-05-21T10:57:46.000Z</time>
      </trkpt>
      <trkpt lat="45.01045" lon="4.83927">
        <ele>123.19999694824</ele>
        <time>2024-05-21T10:57:47.000Z</time>
      </trkpt>
      <trkpt lat="45.01044" lon="4.83933">
        <ele>123.19999694824</ele>
        <time>2024-05-21T10:57:48.000Z</time>
      </trkpt>
      <trkpt lat="45.01042" lon="4.8394">
        <ele>123.19999694824</ele>
        <time>2024-05-21T10:57:49.000Z</time>
      </trkpt>
      <trkpt lat="45.01041" lon="4.83947">
        <ele>123</ele>
        <time>2024-05-21T10:57:50.000Z</time>
      </trkpt>
      <trkpt lat="45.0104" lon="4.83953">
        <ele>123</ele>
        <time>2024-05-21T10:57:51.000Z</time>
      </trkpt>
      <trkpt lat="45.01039" lon="4.8396">
        <ele>123</ele>
        <time>2024-05-21T10:57:52.000Z</time>
      </trkpt>
      <trkpt lat="45.01038" lon="4.83966">
        <ele>123</ele>
        <time>2024-05-21T10:57:53.000Z</time>
      </trkpt>
      <trkpt lat="45.01037" lon="4.83973">
        <ele>123</ele>
        <time>2024-05-21T10:57:54.000Z</time>
      </trkpt>
      <trkpt lat="45.01036" lon="4.8398">
        <ele>123</ele>
        <time>2024-05-21T10:57:55.000Z</time>
      </trkpt>
      <trkpt lat="45.01035" lon="4.83987">
        <ele>123</ele>
        <time>2024-05-21T10:57:56.000Z</time>
      </trkpt>
      <trkpt lat="45.01033" lon="4.83994">
        <ele>123</ele>
        <time>2024-05-21T10:57:57.000Z</time>
      </trkpt>
      <trkpt lat="45.01032" lon="4.84001">
        <ele>123</ele>
        <time>2024-05-21T10:57:58.000Z</time>
      </trkpt>
      <trkpt lat="45.01031" lon="4.84008">
        <ele>123</ele>
        <time>2024-05-21T10:57:59.000Z</time>
      </trkpt>
      <trkpt lat="45.0103" lon="4.84014">
        <ele>123</ele>
        <time>2024-05-21T10:58:00.000Z</time>
      </trkpt>
      <trkpt lat="45.01029" lon="4.84021">
        <ele>123</ele>
        <time>2024-05-21T10:58:01.000Z</time>
      </trkpt>
      <trkpt lat="45.01028" lon="4.84028">
        <ele>123</ele>
        <time>2024-05-21T10:58:02.000Z</time>
      </trkpt>
      <trkpt lat="45.01026" lon="4.84035">
        <ele>123</ele>
        <time>2024-05-21T10:58:03.000Z</time>
      </trkpt>
      <trkpt lat="45.01025" lon="4.84042">
        <ele>123</ele>
        <time>2024-05-21T10:58:04.000Z</time>
      </trkpt>
      <trkpt lat="45.01024" lon="4.84051">
        <ele>123.19999694824</ele>
        <time>2024-05-21T10:58:05.000Z</time>
      </trkpt>
      <trkpt lat="45.01023" lon="4.84056">
        <ele>123</ele>
        <time>2024-05-21T10:58:06.000Z</time>
      </trkpt>
      <trkpt lat="45.01022" lon="4.84065">
        <ele>123</ele>
        <time>2024-05-21T10:58:07.000Z</time>
      </trkpt>
      <trkpt lat="45.01022" lon="4.84072">
        <ele>123</ele>
        <time>2024-05-21T10:58:08.000Z</time>
      </trkpt>
      <trkpt lat="45.01021" lon="4.84078">
        <ele>123</ele>
        <time>2024-05-21T10:58:09.000Z</time>
      </trkpt>
      <trkpt lat="45.0102" lon="4.84087">
        <ele>122.80000305176</ele>
        <time>2024-05-21T10:58:10.000Z</time>
      </trkpt>
      <trkpt lat="45.0102" lon="4.84093">
        <ele>122.40000152588</ele>
        <time>2024-05-21T10:58:11.000Z</time>
      </trkpt>
      <trkpt lat="45.0102" lon="4.84102">
        <ele>122.40000152588</ele>
        <time>2024-05-21T10:58:12.000Z</time>
      </trkpt>
      <trkpt lat="45.0102" lon="4.8411">
        <ele>122.19999694824</ele>
        <time>2024-05-21T10:58:13.000Z</time>
      </trkpt>
      <trkpt lat="45.0102" lon="4.84118">
        <ele>121.80000305176</ele>
        <time>2024-05-21T10:58:14.000Z</time>
      </trkpt>
      <trkpt lat="45.01022" lon="4.84127">
        <ele>121.40000152588</ele>
        <time>2024-05-21T10:58:15.000Z</time>
      </trkpt>
      <trkpt lat="45.01025" lon="4.84133">
        <ele>121</ele>
        <time>2024-05-21T10:58:16.000Z</time>
      </trkpt>
      <trkpt lat="45.01028" lon="4.84137">
        <ele>120.80000305176</ele>
        <time>2024-05-21T10:58:17.000Z</time>
      </trkpt>
      <trkpt lat="45.01032" lon="4.8414">
        <ele>120.80000305176</ele>
        <time>2024-05-21T10:58:18.000Z</time>
      </trkpt>
      <trkpt lat="45.01036" lon="4.84141">
        <ele>120.80000305176</ele>
        <time>2024-05-21T10:58:19.000Z</time>
      </trkpt>
      <trkpt lat="45.01039" lon="4.84141">
        <ele>120.59999847412</ele>
        <time>2024-05-21T10:58:20.000Z</time>
      </trkpt>
      <trkpt lat="45.01042" lon="4.84139">
        <ele>120.40000152588</ele>
        <time>2024-05-21T10:58:21.000Z</time>
      </trkpt>
      <trkpt lat="45.01045" lon="4.84138">
        <ele>120.19999694824</ele>
        <time>2024-05-21T10:58:22.000Z</time>
      </trkpt>
      <trkpt lat="45.01048" lon="4.84138">
        <ele>120.19999694824</ele>
        <time>2024-05-21T10:58:23.000Z</time>
      </trkpt>
      <trkpt lat="45.0105" lon="4.84139">
        <ele>120</ele>
        <time>2024-05-21T10:58:24.000Z</time>
      </trkpt>
      <trkpt lat="45.01052" lon="4.84142">
        <ele>120</ele>
        <time>2024-05-21T10:58:25.000Z</time>
      </trkpt>
      <trkpt lat="45.01053" lon="4.84145">
        <ele>119.80000305176</ele>
        <time>2024-05-21T10:58:26.000Z</time>
      </trkpt>
      <trkpt lat="45.01053" lon="4.84147">
        <ele>119.80000305176</ele>
        <time>2024-05-21T10:58:27.000Z</time>
      </trkpt>
      <trkpt lat="45.01054" lon="4.8415">
        <ele>119.80000305176</ele>
        <time>2024-05-21T10:58:28.000Z</time>
      </trkpt>
      <trkpt lat="45.01056" lon="4.84154">
        <ele>119.59999847412</ele>
        <time>2024-05-21T10:58:29.000Z</time>
      </trkpt>
      <trkpt lat="45.01058" lon="4.84157">
        <ele>119.59999847412</ele>
        <time>2024-05-21T10:58:30.000Z</time>
      </trkpt>
      <trkpt lat="45.01061" lon="4.84161">
        <ele>119.59999847412</ele>
        <time>2024-05-21T10:58:31.000Z</time>
      </trkpt>
      <trkpt lat="45.01065" lon="4.84166">
        <ele>119.40000152588</ele>
        <time>2024-05-21T10:58:32.000Z</time>
      </trkpt>
      <trkpt lat="45.01067" lon="4.8417">
        <ele>119.40000152588</ele>
        <time>2024-05-21T10:58:33.000Z</time>
      </trkpt>
      <trkpt lat="45.01068" lon="4.84179">
        <ele>119.19999694824</ele>
        <time>2024-05-21T10:58:34.000Z</time>
      </trkpt>
      <trkpt lat="45.01068" lon="4.84184">
        <ele>119</ele>
        <time>2024-05-21T10:58:35.000Z</time>
      </trkpt>
      <trkpt lat="45.01068" lon="4.84191">
        <ele>118.59999847412</ele>
        <time>2024-05-21T10:58:36.000Z</time>
      </trkpt>
      <trkpt lat="45.01069" lon="4.842">
        <ele>118.40000152588</ele>
        <time>2024-05-21T10:58:37.000Z</time>
      </trkpt>
      <trkpt lat="45.01071" lon="4.84207">
        <ele>118.40000152588</ele>
        <time>2024-05-21T10:58:38.000Z</time>
      </trkpt>
      <trkpt lat="45.01072" lon="4.84212">
        <ele>118.40000152588</ele>
        <time>2024-05-21T10:58:39.000Z</time>
      </trkpt>
      <trkpt lat="45.01074" lon="4.84219">
        <ele>118.40000152588</ele>
        <time>2024-05-21T10:58:40.000Z</time>
      </trkpt>
      <trkpt lat="45.01076" lon="4.84227">
        <ele>118.40000152588</ele>
        <time>2024-05-21T10:58:41.000Z</time>
      </trkpt>
      <trkpt lat="45.01077" lon="4.84234">
        <ele>118.40000152588</ele>
        <time>2024-05-21T10:58:42.000Z</time>
      </trkpt>
      <trkpt lat="45.01079" lon="4.84244">
        <ele>118.40000152588</ele>
        <time>2024-05-21T10:58:43.000Z</time>
      </trkpt>
      <trkpt lat="45.0108" lon="4.84252">
        <ele>118</ele>
        <time>2024-05-21T10:58:44.000Z</time>
      </trkpt>
      <trkpt lat="45.0108" lon="4.8426">
        <ele>117.80000305176</ele>
        <time>2024-05-21T10:58:45.000Z</time>
      </trkpt>
      <trkpt lat="45.01081" lon="4.84267">
        <ele>117.80000305176</ele>
        <time>2024-05-21T10:58:46.000Z</time>
      </trkpt>
      <trkpt lat="45.01081" lon="4.84277">
        <ele>117.80000305176</ele>
        <time>2024-05-21T10:58:47.000Z</time>
      </trkpt>
      <trkpt lat="45.01081" lon="4.84285">
        <ele>117.59999847412</ele>
        <time>2024-05-21T10:58:48.000Z</time>
      </trkpt>
      <trkpt lat="45.01081" lon="4.84293">
        <ele>117.59999847412</ele>
        <time>2024-05-21T10:58:49.000Z</time>
      </trkpt>
      <trkpt lat="45.0108" lon="4.84302">
        <ele>117.59999847412</ele>
        <time>2024-05-21T10:58:50.000Z</time>
      </trkpt>
      <trkpt lat="45.0108" lon="4.84308">
        <ele>117.59999847412</ele>
        <time>2024-05-21T10:58:51.000Z</time>
      </trkpt>
      <trkpt lat="45.0108" lon="4.84318">
        <ele>117.59999847412</ele>
        <time>2024-05-21T10:58:52.000Z</time>
      </trkpt>
      <trkpt lat="45.01079" lon="4.84326">
        <ele>117.59999847412</ele>
        <time>2024-05-21T10:58:53.000Z</time>
      </trkpt>
      <trkpt lat="45.01079" lon="4.84333">
        <ele>117.59999847412</ele>
        <time>2024-05-21T10:58:54.000Z</time>
      </trkpt>
      <trkpt lat="45.01079" lon="4.84343">
        <ele>117.59999847412</ele>
        <time>2024-05-21T10:58:55.000Z</time>
      </trkpt>
      <trkpt lat="45.01078" lon="4.84349">
        <ele>117.59999847412</ele>
        <time>2024-05-21T10:58:56.000Z</time>
      </trkpt>
      <trkpt lat="45.01078" lon="4.84358">
        <ele>117.59999847412</ele>
        <time>2024-05-21T10:58:57.000Z</time>
      </trkpt>
      <trkpt lat="45.01077" lon="4.84368">
        <ele>117.59999847412</ele>
        <time>2024-05-21T10:58:58.000Z</time>
      </trkpt>
      <trkpt lat="45.01077" lon="4.84376">
        <ele>117.59999847412</ele>
        <time>2024-05-21T10:58:59.000Z</time>
      </trkpt>
      <trkpt lat="45.01077" lon="4.84383">
        <ele>117.59999847412</ele>
        <time>2024-05-21T10:59:00.000Z</time>
      </trkpt>
      <trkpt lat="45.01076" lon="4.84394">
        <ele>117.80000305176</ele>
        <time>2024-05-21T10:59:01.000Z</time>
      </trkpt>
      <trkpt lat="45.01076" lon="4.84402">
        <ele>117.80000305176</ele>
        <time>2024-05-21T10:59:02.000Z</time>
      </trkpt>
      <trkpt lat="45.01076" lon="4.84411">
        <ele>117.80000305176</ele>
        <time>2024-05-21T10:59:03.000Z</time>
      </trkpt>
      <trkpt lat="45.01075" lon="4.8442">
        <ele>117.80000305176</ele>
        <time>2024-05-21T10:59:04.000Z</time>
      </trkpt>
      <trkpt lat="45.01075" lon="4.84427">
        <ele>117.80000305176</ele>
        <time>2024-05-21T10:59:05.000Z</time>
      </trkpt>
      <trkpt lat="45.01075" lon="4.84437">
        <ele>117.80000305176</ele>
        <time>2024-05-21T10:59:06.000Z</time>
      </trkpt>
      <trkpt lat="45.01075" lon="4.84444">
        <ele>117.80000305176</ele>
        <time>2024-05-21T10:59:07.000Z</time>
      </trkpt>
      <trkpt lat="45.01075" lon="4.84455">
        <ele>117.80000305176</ele>
        <time>2024-05-21T10:59:08.000Z</time>
      </trkpt>
      <trkpt lat="45.01074" lon="4.84462">
        <ele>117.80000305176</ele>
        <time>2024-05-21T10:59:09.000Z</time>
      </trkpt>
      <trkpt lat="45.01074" lon="4.84471">
        <ele>117.80000305176</ele>
        <time>2024-05-21T10:59:10.000Z</time>
      </trkpt>
      <trkpt lat="45.01073" lon="4.84479">
        <ele>117.80000305176</ele>
        <time>2024-05-21T10:59:11.000Z</time>
      </trkpt>
      <trkpt lat="45.01073" lon="4.84488">
        <ele>118</ele>
        <time>2024-05-21T10:59:12.000Z</time>
      </trkpt>
      <trkpt lat="45.01073" lon="4.84499">
        <ele>118</ele>
        <time>2024-05-21T10:59:13.000Z</time>
      </trkpt>
      <trkpt lat="45.01073" lon="4.84507">
        <ele>118</ele>
        <time>2024-05-21T10:59:14.000Z</time>
      </trkpt>
      <trkpt lat="45.01073" lon="4.84516">
        <ele>118.19999694824</ele>
        <time>2024-05-21T10:59:15.000Z</time>
      </trkpt>
      <trkpt lat="45.01074" lon="4.84522">
        <ele>118.40000152588</ele>
        <time>2024-05-21T10:59:16.000Z</time>
      </trkpt>
      <trkpt lat="45.01074" lon="4.8453">
        <ele>118.59999847412</ele>
        <time>2024-05-21T10:59:17.000Z</time>
      </trkpt>
      <trkpt lat="45.01075" lon="4.84537">
        <ele>118.59999847412</ele>
        <time>2024-05-21T10:59:18.000Z</time>
      </trkpt>
      <trkpt lat="45.01074" lon="4.84545">
        <ele>119</ele>
        <time>2024-05-21T10:59:19.000Z</time>
      </trkpt>
      <trkpt lat="45.01075" lon="4.84554">
        <ele>119.19999694824</ele>
        <time>2024-05-21T10:59:20.000Z</time>
      </trkpt>
      <trkpt lat="45.01077" lon="4.84561">
        <ele>119.19999694824</ele>
        <time>2024-05-21T10:59:21.000Z</time>
      </trkpt>
      <trkpt lat="45.01079" lon="4.84566">
        <ele>119.40000152588</ele>
        <time>2024-05-21T10:59:22.000Z</time>
      </trkpt>
      <trkpt lat="45.01082" lon="4.84574">
        <ele>119.40000152588</ele>
        <time>2024-05-21T10:59:23.000Z</time>
      </trkpt>
      <trkpt lat="45.01086" lon="4.8458">
        <ele>119.40000152588</ele>
        <time>2024-05-21T10:59:24.000Z</time>
      </trkpt>
      <trkpt lat="45.01089" lon="4.84585">
        <ele>119.40000152588</ele>
        <time>2024-05-21T10:59:25.000Z</time>
      </trkpt>
      <trkpt lat="45.01093" lon="4.84592">
        <ele>119.40000152588</ele>
        <time>2024-05-21T10:59:26.000Z</time>
      </trkpt>
      <trkpt lat="45.01096" lon="4.84599">
        <ele>119.40000152588</ele>
        <time>2024-05-21T10:59:27.000Z</time>
      </trkpt>
      <trkpt lat="45.01099" lon="4.84604">
        <ele>119.40000152588</ele>
        <time>2024-05-21T10:59:28.000Z</time>
      </trkpt>
      <trkpt lat="45.01103" lon="4.8461">
        <ele>119.40000152588</ele>
        <time>2024-05-21T10:59:29.000Z</time>
      </trkpt>
      <trkpt lat="45.01108" lon="4.84618">
        <ele>119.40000152588</ele>
        <time>2024-05-21T10:59:30.000Z</time>
      </trkpt>
      <trkpt lat="45.01111" lon="4.84622">
        <ele>119.40000152588</ele>
        <time>2024-05-21T10:59:31.000Z</time>
      </trkpt>
      <trkpt lat="45.01116" lon="4.8463">
        <ele>119.40000152588</ele>
        <time>2024-05-21T10:59:32.000Z</time>
      </trkpt>
      <trkpt lat="45.0112" lon="4.84636">
        <ele>119.40000152588</ele>
        <time>2024-05-21T10:59:33.000Z</time>
      </trkpt>
      <trkpt lat="45.01124" lon="4.8464">
        <ele>119.40000152588</ele>
        <time>2024-05-21T10:59:34.000Z</time>
      </trkpt>
      <trkpt lat="45.01128" lon="4.84645">
        <ele>119.40000152588</ele>
        <time>2024-05-21T10:59:35.000Z</time>
      </trkpt>
      <trkpt lat="45.01133" lon="4.84651">
        <ele>119.40000152588</ele>
        <time>2024-05-21T10:59:36.000Z</time>
      </trkpt>
      <trkpt lat="45.01137" lon="4.84656">
        <ele>119.40000152588</ele>
        <time>2024-05-21T10:59:37.000Z</time>
      </trkpt>
      <trkpt lat="45.01142" lon="4.84662">
        <ele>119.40000152588</ele>
        <time>2024-05-21T10:59:38.000Z</time>
      </trkpt>
      <trkpt lat="45.01147" lon="4.84667">
        <ele>119.40000152588</ele>
        <time>2024-05-21T10:59:39.000Z</time>
      </trkpt>
      <trkpt lat="45.01151" lon="4.84673">
        <ele>119.40000152588</ele>
        <time>2024-05-21T10:59:40.000Z</time>
      </trkpt>
      <trkpt lat="45.01156" lon="4.84678">
        <ele>119.40000152588</ele>
        <time>2024-05-21T10:59:41.000Z</time>
      </trkpt>
      <trkpt lat="45.01161" lon="4.84684">
        <ele>119.40000152588</ele>
        <time>2024-05-21T10:59:42.000Z</time>
      </trkpt>
      <trkpt lat="45.01165" lon="4.84689">
        <ele>119.40000152588</ele>
        <time>2024-05-21T10:59:43.000Z</time>
      </trkpt>
      <trkpt lat="45.0117" lon="4.84695">
        <ele>119.40000152588</ele>
        <time>2024-05-21T10:59:44.000Z</time>
      </trkpt>
      <trkpt lat="45.01175" lon="4.84701">
        <ele>119.40000152588</ele>
        <time>2024-05-21T10:59:45.000Z</time>
      </trkpt>
      <trkpt lat="45.01179" lon="4.84707">
        <ele>119.40000152588</ele>
        <time>2024-05-21T10:59:46.000Z</time>
      </trkpt>
      <trkpt lat="45.01184" lon="4.84713">
        <ele>119.40000152588</ele>
        <time>2024-05-21T10:59:47.000Z</time>
      </trkpt>
      <trkpt lat="45.01189" lon="4.84718">
        <ele>119.40000152588</ele>
        <time>2024-05-21T10:59:48.000Z</time>
      </trkpt>
      <trkpt lat="45.01194" lon="4.84724">
        <ele>119.40000152588</ele>
        <time>2024-05-21T10:59:49.000Z</time>
      </trkpt>
      <trkpt lat="45.01199" lon="4.8473">
        <ele>119.40000152588</ele>
        <time>2024-05-21T10:59:50.000Z</time>
      </trkpt>
      <trkpt lat="45.01204" lon="4.84735">
        <ele>119.40000152588</ele>
        <time>2024-05-21T10:59:51.000Z</time>
      </trkpt>
      <trkpt lat="45.01208" lon="4.84741">
        <ele>119.40000152588</ele>
        <time>2024-05-21T10:59:52.000Z</time>
      </trkpt>
      <trkpt lat="45.01214" lon="4.84748">
        <ele>119.40000152588</ele>
        <time>2024-05-21T10:59:53.000Z</time>
      </trkpt>
      <trkpt lat="45.01218" lon="4.84752">
        <ele>119.40000152588</ele>
        <time>2024-05-21T10:59:54.000Z</time>
      </trkpt>
      <trkpt lat="45.01222" lon="4.84758">
        <ele>119.40000152588</ele>
        <time>2024-05-21T10:59:55.000Z</time>
      </trkpt>
      <trkpt lat="45.01227" lon="4.84763">
        <ele>119.40000152588</ele>
        <time>2024-05-21T10:59:56.000Z</time>
      </trkpt>
      <trkpt lat="45.01232" lon="4.84769">
        <ele>119.59999847412</ele>
        <time>2024-05-21T10:59:57.000Z</time>
      </trkpt>
      <trkpt lat="45.01237" lon="4.84774">
        <ele>119.59999847412</ele>
        <time>2024-05-21T10:59:58.000Z</time>
      </trkpt>
      <trkpt lat="45.01242" lon="4.84781">
        <ele>119.59999847412</ele>
        <time>2024-05-21T10:59:59.000Z</time>
      </trkpt>
      <trkpt lat="45.01246" lon="4.84786">
        <ele>119.59999847412</ele>
        <time>2024-05-21T11:00:00.000Z</time>
      </trkpt>
      <trkpt lat="45.0125" lon="4.84791">
        <ele>119.59999847412</ele>
        <time>2024-05-21T11:00:01.000Z</time>
      </trkpt>
      <trkpt lat="45.01255" lon="4.84797">
        <ele>119.59999847412</ele>
        <time>2024-05-21T11:00:02.000Z</time>
      </trkpt>
      <trkpt lat="45.01259" lon="4.84803">
        <ele>119.59999847412</ele>
        <time>2024-05-21T11:00:03.000Z</time>
      </trkpt>
      <trkpt lat="45.01263" lon="4.8481">
        <ele>119.59999847412</ele>
        <time>2024-05-21T11:00:04.000Z</time>
      </trkpt>
      <trkpt lat="45.01267" lon="4.84816">
        <ele>119.59999847412</ele>
        <time>2024-05-21T11:00:05.000Z</time>
      </trkpt>
      <trkpt lat="45.0127" lon="4.84823">
        <ele>119.59999847412</ele>
        <time>2024-05-21T11:00:06.000Z</time>
      </trkpt>
      <trkpt lat="45.01274" lon="4.84831">
        <ele>119.59999847412</ele>
        <time>2024-05-21T11:00:07.000Z</time>
      </trkpt>
      <trkpt lat="45.01277" lon="4.84838">
        <ele>119.59999847412</ele>
        <time>2024-05-21T11:00:08.000Z</time>
      </trkpt>
      <trkpt lat="45.01279" lon="4.84846">
        <ele>119.59999847412</ele>
        <time>2024-05-21T11:00:09.000Z</time>
      </trkpt>
      <trkpt lat="45.01282" lon="4.84853">
        <ele>119.59999847412</ele>
        <time>2024-05-21T11:00:10.000Z</time>
      </trkpt>
      <trkpt lat="45.01284" lon="4.84861">
        <ele>119.59999847412</ele>
        <time>2024-05-21T11:00:11.000Z</time>
      </trkpt>
      <trkpt lat="45.01287" lon="4.84869">
        <ele>119.59999847412</ele>
        <time>2024-05-21T11:00:12.000Z</time>
      </trkpt>
      <trkpt lat="45.01289" lon="4.84878">
        <ele>119.40000152588</ele>
        <time>2024-05-21T11:00:13.000Z</time>
      </trkpt>
      <trkpt lat="45.0129" lon="4.84886">
        <ele>119.40000152588</ele>
        <time>2024-05-21T11:00:14.000Z</time>
      </trkpt>
      <trkpt lat="45.01291" lon="4.84894">
        <ele>119.40000152588</ele>
        <time>2024-05-21T11:00:15.000Z</time>
      </trkpt>
      <trkpt lat="45.01291" lon="4.84902">
        <ele>119.40000152588</ele>
        <time>2024-05-21T11:00:16.000Z</time>
      </trkpt>
      <trkpt lat="45.01289" lon="4.84909">
        <ele>119.19999694824</ele>
        <time>2024-05-21T11:00:17.000Z</time>
      </trkpt>
      <trkpt lat="45.01286" lon="4.84915">
        <ele>119.19999694824</ele>
        <time>2024-05-21T11:00:18.000Z</time>
      </trkpt>
      <trkpt lat="45.01282" lon="4.84921">
        <ele>119.19999694824</ele>
        <time>2024-05-21T11:00:19.000Z</time>
      </trkpt>
      <trkpt lat="45.01278" lon="4.84926">
        <ele>119.19999694824</ele>
        <time>2024-05-21T11:00:20.000Z</time>
      </trkpt>
      <trkpt lat="45.01272" lon="4.84929">
        <ele>119.19999694824</ele>
        <time>2024-05-21T11:00:21.000Z</time>
      </trkpt>
      <trkpt lat="45.01267" lon="4.84932">
        <ele>119.19999694824</ele>
        <time>2024-05-21T11:00:22.000Z</time>
      </trkpt>
      <trkpt lat="45.01262" lon="4.84935">
        <ele>119.19999694824</ele>
        <time>2024-05-21T11:00:23.000Z</time>
      </trkpt>
      <trkpt lat="45.01257" lon="4.84938">
        <ele>119.19999694824</ele>
        <time>2024-05-21T11:00:24.000Z</time>
      </trkpt>
      <trkpt lat="45.01252" lon="4.84941">
        <ele>119.19999694824</ele>
        <time>2024-05-21T11:00:25.000Z</time>
      </trkpt>
      <trkpt lat="45.01246" lon="4.84944">
        <ele>119.40000152588</ele>
        <time>2024-05-21T11:00:26.000Z</time>
      </trkpt>
      <trkpt lat="45.01241" lon="4.84946">
        <ele>119.40000152588</ele>
        <time>2024-05-21T11:00:27.000Z</time>
      </trkpt>
      <trkpt lat="45.01235" lon="4.84949">
        <ele>119.40000152588</ele>
        <time>2024-05-21T11:00:28.000Z</time>
      </trkpt>
      <trkpt lat="45.0123" lon="4.84952">
        <ele>119.59999847412</ele>
        <time>2024-05-21T11:00:29.000Z</time>
      </trkpt>
      <trkpt lat="45.01225" lon="4.84954">
        <ele>119.59999847412</ele>
        <time>2024-05-21T11:00:30.000Z</time>
      </trkpt>
      <trkpt lat="45.01219" lon="4.84957">
        <ele>119.59999847412</ele>
        <time>2024-05-21T11:00:31.000Z</time>
      </trkpt>
      <trkpt lat="45.01214" lon="4.8496">
        <ele>119.59999847412</ele>
        <time>2024-05-21T11:00:32.000Z</time>
      </trkpt>
      <trkpt lat="45.01208" lon="4.84963">
        <ele>119.59999847412</ele>
        <time>2024-05-21T11:00:33.000Z</time>
      </trkpt>
      <trkpt lat="45.01203" lon="4.84966">
        <ele>119.59999847412</ele>
        <time>2024-05-21T11:00:34.000Z</time>
      </trkpt>
      <trkpt lat="45.01197" lon="4.84969">
        <ele>119.59999847412</ele>
        <time>2024-05-21T11:00:35.000Z</time>
      </trkpt>
      <trkpt lat="45.01191" lon="4.84972">
        <ele>119.59999847412</ele>
        <time>2024-05-21T11:00:36.000Z</time>
      </trkpt>
      <trkpt lat="45.01186" lon="4.84974">
        <ele>119.40000152588</ele>
        <time>2024-05-21T11:00:37.000Z</time>
      </trkpt>
      <trkpt lat="45.01179" lon="4.84977">
        <ele>119.19999694824</ele>
        <time>2024-05-21T11:00:38.000Z</time>
      </trkpt>
      <trkpt lat="45.01173" lon="4.84979">
        <ele>119.19999694824</ele>
        <time>2024-05-21T11:00:39.000Z</time>
      </trkpt>
      <trkpt lat="45.01168" lon="4.84982">
        <ele>119</ele>
        <time>2024-05-21T11:00:40.000Z</time>
      </trkpt>
      <trkpt lat="45.01161" lon="4.84984">
        <ele>119</ele>
        <time>2024-05-21T11:00:41.000Z</time>
      </trkpt>
      <trkpt lat="45.01156" lon="4.84987">
        <ele>119</ele>
        <time>2024-05-21T11:00:42.000Z</time>
      </trkpt>
      <trkpt lat="45.0115" lon="4.84989">
        <ele>119</ele>
        <time>2024-05-21T11:00:43.000Z</time>
      </trkpt>
      <trkpt lat="45.01143" lon="4.84992">
        <ele>118.80000305176</ele>
        <time>2024-05-21T11:00:44.000Z</time>
      </trkpt>
      <trkpt lat="45.01138" lon="4.84995">
        <ele>118.80000305176</ele>
        <time>2024-05-21T11:00:45.000Z</time>
      </trkpt>
      <trkpt lat="45.01132" lon="4.84998">
        <ele>118.80000305176</ele>
        <time>2024-05-21T11:00:46.000Z</time>
      </trkpt>
      <trkpt lat="45.01127" lon="4.85003">
        <ele>118.80000305176</ele>
        <time>2024-05-21T11:00:47.000Z</time>
      </trkpt>
      <trkpt lat="45.01122" lon="4.85008">
        <ele>118.80000305176</ele>
        <time>2024-05-21T11:00:48.000Z</time>
      </trkpt>
      <trkpt lat="45.01118" lon="4.85014">
        <ele>118.80000305176</ele>
        <time>2024-05-21T11:00:49.000Z</time>
      </trkpt>
      <trkpt lat="45.01114" lon="4.85021">
        <ele>118.80000305176</ele>
        <time>2024-05-21T11:00:50.000Z</time>
      </trkpt>
      <trkpt lat="45.01111" lon="4.85028">
        <ele>118.80000305176</ele>
        <time>2024-05-21T11:00:51.000Z</time>
      </trkpt>
      <trkpt lat="45.01107" lon="4.85034">
        <ele>118.80000305176</ele>
        <time>2024-05-21T11:00:52.000Z</time>
      </trkpt>
      <trkpt lat="45.01103" lon="4.85041">
        <ele>118.80000305176</ele>
        <time>2024-05-21T11:00:53.000Z</time>
      </trkpt>
      <trkpt lat="45.01099" lon="4.85047">
        <ele>118.80000305176</ele>
        <time>2024-05-21T11:00:54.000Z</time>
      </trkpt>
      <trkpt lat="45.01095" lon="4.85054">
        <ele>119</ele>
        <time>2024-05-21T11:00:55.000Z</time>
      </trkpt>
      <trkpt lat="45.01091" lon="4.85061">
        <ele>119</ele>
        <time>2024-05-21T11:00:56.000Z</time>
      </trkpt>
      <trkpt lat="45.01087" lon="4.85067">
        <ele>119</ele>
        <time>2024-05-21T11:00:57.000Z</time>
      </trkpt>
      <trkpt lat="45.01083" lon="4.85073">
        <ele>119</ele>
        <time>2024-05-21T11:00:58.000Z</time>
      </trkpt>
      <trkpt lat="45.01079" lon="4.8508">
        <ele>119</ele>
        <time>2024-05-21T11:00:59.000Z</time>
      </trkpt>
      <trkpt lat="45.01076" lon="4.85086">
        <ele>119</ele>
        <time>2024-05-21T11:01:00.000Z</time>
      </trkpt>
      <trkpt lat="45.01073" lon="4.85093">
        <ele>119</ele>
        <time>2024-05-21T11:01:01.000Z</time>
      </trkpt>
      <trkpt lat="45.01069" lon="4.851">
        <ele>119.19999694824</ele>
        <time>2024-05-21T11:01:02.000Z</time>
      </trkpt>
      <trkpt lat="45.01066" lon="4.85108">
        <ele>119.19999694824</ele>
        <time>2024-05-21T11:01:03.000Z</time>
      </trkpt>
      <trkpt lat="45.01063" lon="4.85115">
        <ele>119.40000152588</ele>
        <time>2024-05-21T11:01:04.000Z</time>
      </trkpt>
      <trkpt lat="45.01061" lon="4.85123">
        <ele>119.40000152588</ele>
        <time>2024-05-21T11:01:05.000Z</time>
      </trkpt>
      <trkpt lat="45.01058" lon="4.8513">
        <ele>119.40000152588</ele>
        <time>2024-05-21T11:01:06.000Z</time>
      </trkpt>
      <trkpt lat="45.01055" lon="4.85137">
        <ele>119.40000152588</ele>
        <time>2024-05-21T11:01:07.000Z</time>
      </trkpt>
      <trkpt lat="45.01053" lon="4.85145">
        <ele>119.40000152588</ele>
        <time>2024-05-21T11:01:08.000Z</time>
      </trkpt>
      <trkpt lat="45.0105" lon="4.85153">
        <ele>119.40000152588</ele>
        <time>2024-05-21T11:01:09.000Z</time>
      </trkpt>
      <trkpt lat="45.01048" lon="4.8516">
        <ele>119.40000152588</ele>
        <time>2024-05-21T11:01:10.000Z</time>
      </trkpt>
      <trkpt lat="45.01046" lon="4.85168">
        <ele>119.40000152588</ele>
        <time>2024-05-21T11:01:11.000Z</time>
      </trkpt>
      <trkpt lat="45.01044" lon="4.85176">
        <ele>119.40000152588</ele>
        <time>2024-05-21T11:01:12.000Z</time>
      </trkpt>
      <trkpt lat="45.01041" lon="4.85184">
        <ele>119.40000152588</ele>
        <time>2024-05-21T11:01:13.000Z</time>
      </trkpt>
      <trkpt lat="45.01039" lon="4.85191">
        <ele>119.40000152588</ele>
        <time>2024-05-21T11:01:14.000Z</time>
      </trkpt>
      <trkpt lat="45.01037" lon="4.85199">
        <ele>119.59999847412</ele>
        <time>2024-05-21T11:01:15.000Z</time>
      </trkpt>
      <trkpt lat="45.01035" lon="4.85206">
        <ele>119.59999847412</ele>
        <time>2024-05-21T11:01:16.000Z</time>
      </trkpt>
      <trkpt lat="45.01032" lon="4.85214">
        <ele>119.59999847412</ele>
        <time>2024-05-21T11:01:17.000Z</time>
      </trkpt>
      <trkpt lat="45.0103" lon="4.85222">
        <ele>119.59999847412</ele>
        <time>2024-05-21T11:01:18.000Z</time>
      </trkpt>
      <trkpt lat="45.01028" lon="4.8523">
        <ele>119.59999847412</ele>
        <time>2024-05-21T11:01:19.000Z</time>
      </trkpt>
      <trkpt lat="45.01026" lon="4.85238">
        <ele>119.59999847412</ele>
        <time>2024-05-21T11:01:20.000Z</time>
      </trkpt>
      <trkpt lat="45.01024" lon="4.85246">
        <ele>119.59999847412</ele>
        <time>2024-05-21T11:01:21.000Z</time>
      </trkpt>
      <trkpt lat="45.01021" lon="4.85254">
        <ele>119.59999847412</ele>
        <time>2024-05-21T11:01:22.000Z</time>
      </trkpt>
      <trkpt lat="45.01019" lon="4.85261">
        <ele>119.40000152588</ele>
        <time>2024-05-21T11:01:23.000Z</time>
      </trkpt>
      <trkpt lat="45.01016" lon="4.85269">
        <ele>119.40000152588</ele>
        <time>2024-05-21T11:01:24.000Z</time>
      </trkpt>
      <trkpt lat="45.01013" lon="4.85276">
        <ele>119.40000152588</ele>
        <time>2024-05-21T11:01:25.000Z</time>
      </trkpt>
      <trkpt lat="45.0101" lon="4.85284">
        <ele>119.40000152588</ele>
        <time>2024-05-21T11:01:26.000Z</time>
      </trkpt>
      <trkpt lat="45.01007" lon="4.85292">
        <ele>119.40000152588</ele>
        <time>2024-05-21T11:01:27.000Z</time>
      </trkpt>
      <trkpt lat="45.01004" lon="4.85299">
        <ele>119.40000152588</ele>
        <time>2024-05-21T11:01:28.000Z</time>
      </trkpt>
      <trkpt lat="45.01001" lon="4.85307">
        <ele>119.40000152588</ele>
        <time>2024-05-21T11:01:29.000Z</time>
      </trkpt>
      <trkpt lat="45.00998" lon="4.85314">
        <ele>119.40000152588</ele>
        <time>2024-05-21T11:01:30.000Z</time>
      </trkpt>
      <trkpt lat="45.00995" lon="4.8532">
        <ele>119.40000152588</ele>
        <time>2024-05-21T11:01:31.000Z</time>
      </trkpt>
      <trkpt lat="45.00992" lon="4.85327">
        <ele>119.19999694824</ele>
        <time>2024-05-21T11:01:32.000Z</time>
      </trkpt>
      <trkpt lat="45.00989" lon="4.85333">
        <ele>119</ele>
        <time>2024-05-21T11:01:33.000Z</time>
      </trkpt>
      <trkpt lat="45.00985" lon="4.85338">
        <ele>119</ele>
        <time>2024-05-21T11:01:34.000Z</time>
      </trkpt>
      <trkpt lat="45.00981" lon="4.85343">
        <ele>119.19999694824</ele>
        <time>2024-05-21T11:01:35.000Z</time>
      </trkpt>
      <trkpt lat="45.00976" lon="4.85347">
        <ele>119</ele>
        <time>2024-05-21T11:01:36.000Z</time>
      </trkpt>
      <trkpt lat="45.00971" lon="4.85348">
        <ele>119</ele>
        <time>2024-05-21T11:01:37.000Z</time>
      </trkpt>
      <trkpt lat="45.00965" lon="4.85349">
        <ele>119</ele>
        <time>2024-05-21T11:01:38.000Z</time>
      </trkpt>
      <trkpt lat="45.0096" lon="4.85351">
        <ele>119</ele>
        <time>2024-05-21T11:01:39.000Z</time>
      </trkpt>
      <trkpt lat="45.00954" lon="4.85354">
        <ele>119</ele>
        <time>2024-05-21T11:01:40.000Z</time>
      </trkpt>
      <trkpt lat="45.0095" lon="4.8536">
        <ele>119</ele>
        <time>2024-05-21T11:01:41.000Z</time>
      </trkpt>
      <trkpt lat="45.00946" lon="4.85366">
        <ele>119</ele>
        <time>2024-05-21T11:01:42.000Z</time>
      </trkpt>
      <trkpt lat="45.00943" lon="4.85371">
        <ele>119</ele>
        <time>2024-05-21T11:01:43.000Z</time>
      </trkpt>
      <trkpt lat="45.00938" lon="4.85376">
        <ele>119</ele>
        <time>2024-05-21T11:01:44.000Z</time>
      </trkpt>
      <trkpt lat="45.00934" lon="4.85379">
        <ele>119</ele>
        <time>2024-05-21T11:01:45.000Z</time>
      </trkpt>
      <trkpt lat="45.00929" lon="4.85382">
        <ele>119</ele>
        <time>2024-05-21T11:01:46.000Z</time>
      </trkpt>
      <trkpt lat="45.00924" lon="4.85385">
        <ele>119.19999694824</ele>
        <time>2024-05-21T11:01:47.000Z</time>
      </trkpt>
      <trkpt lat="45.00919" lon="4.85388">
        <ele>119.40000152588</ele>
        <time>2024-05-21T11:01:48.000Z</time>
      </trkpt>
      <trkpt lat="45.00914" lon="4.85391">
        <ele>119.40000152588</ele>
        <time>2024-05-21T11:01:49.000Z</time>
      </trkpt>
      <trkpt lat="45.00909" lon="4.85394">
        <ele>119.59999847412</ele>
        <time>2024-05-21T11:01:50.000Z</time>
      </trkpt>
      <trkpt lat="45.00904" lon="4.85397">
        <ele>119.59999847412</ele>
        <time>2024-05-21T11:01:51.000Z</time>
      </trkpt>
      <trkpt lat="45.00899" lon="4.85401">
        <ele>119.59999847412</ele>
        <time>2024-05-21T11:01:52.000Z</time>
      </trkpt>
      <trkpt lat="45.00894" lon="4.85403">
        <ele>119.59999847412</ele>
        <time>2024-05-21T11:01:53.000Z</time>
      </trkpt>
      <trkpt lat="45.00889" lon="4.85406">
        <ele>119.59999847412</ele>
        <time>2024-05-21T11:01:54.000Z</time>
      </trkpt>
      <trkpt lat="45.00884" lon="4.85409">
        <ele>119.59999847412</ele>
        <time>2024-05-21T11:01:55.000Z</time>
      </trkpt>
      <trkpt lat="45.00878" lon="4.85413">
        <ele>119.59999847412</ele>
        <time>2024-05-21T11:01:56.000Z</time>
      </trkpt>
      <trkpt lat="45.00873" lon="4.85415">
        <ele>119.59999847412</ele>
        <time>2024-05-21T11:01:57.000Z</time>
      </trkpt>
      <trkpt lat="45.00868" lon="4.85419">
        <ele>119.59999847412</ele>
        <time>2024-05-21T11:01:58.000Z</time>
      </trkpt>
      <trkpt lat="45.00863" lon="4.85422">
        <ele>119.59999847412</ele>
        <time>2024-05-21T11:01:59.000Z</time>
      </trkpt>
      <trkpt lat="45.00858" lon="4.85425">
        <ele>119.59999847412</ele>
        <time>2024-05-21T11:02:00.000Z</time>
      </trkpt>
      <trkpt lat="45.00852" lon="4.85428">
        <ele>119.59999847412</ele>
        <time>2024-05-21T11:02:01.000Z</time>
      </trkpt>
      <trkpt lat="45.00847" lon="4.85431">
        <ele>119.59999847412</ele>
        <time>2024-05-21T11:02:02.000Z</time>
      </trkpt>
      <trkpt lat="45.00842" lon="4.85434">
        <ele>119.59999847412</ele>
        <time>2024-05-21T11:02:03.000Z</time>
      </trkpt>
      <trkpt lat="45.00836" lon="4.85437">
        <ele>119.40000152588</ele>
        <time>2024-05-21T11:02:04.000Z</time>
      </trkpt>
      <trkpt lat="45.00831" lon="4.8544">
        <ele>119.40000152588</ele>
        <time>2024-05-21T11:02:05.000Z</time>
      </trkpt>
      <trkpt lat="45.00825" lon="4.85443">
        <ele>119.40000152588</ele>
        <time>2024-05-21T11:02:06.000Z</time>
      </trkpt>
      <trkpt lat="45.0082" lon="4.85446">
        <ele>119.40000152588</ele>
        <time>2024-05-21T11:02:07.000Z</time>
      </trkpt>
      <trkpt lat="45.00815" lon="4.85449">
        <ele>119.40000152588</ele>
        <time>2024-05-21T11:02:08.000Z</time>
      </trkpt>
      <trkpt lat="45.0081" lon="4.85452">
        <ele>119.40000152588</ele>
        <time>2024-05-21T11:02:09.000Z</time>
      </trkpt>
      <trkpt lat="45.00805" lon="4.85456">
        <ele>119.59999847412</ele>
        <time>2024-05-21T11:02:10.000Z</time>
      </trkpt>
      <trkpt lat="45.00799" lon="4.85459">
        <ele>119.59999847412</ele>
        <time>2024-05-21T11:02:11.000Z</time>
      </trkpt>
      <trkpt lat="45.00794" lon="4.85462">
        <ele>119.59999847412</ele>
        <time>2024-05-21T11:02:12.000Z</time>
      </trkpt>
      <trkpt lat="45.00789" lon="4.85465">
        <ele>119.59999847412</ele>
        <time>2024-05-21T11:02:13.000Z</time>
      </trkpt>
      <trkpt lat="45.00783" lon="4.85468">
        <ele>119.59999847412</ele>
        <time>2024-05-21T11:02:14.000Z</time>
      </trkpt>
      <trkpt lat="45.00778" lon="4.85471">
        <ele>119.59999847412</ele>
        <time>2024-05-21T11:02:15.000Z</time>
      </trkpt>
      <trkpt lat="45.00773" lon="4.85474">
        <ele>119.59999847412</ele>
        <time>2024-05-21T11:02:16.000Z</time>
      </trkpt>
      <trkpt lat="45.00767" lon="4.85477">
        <ele>119.59999847412</ele>
        <time>2024-05-21T11:02:17.000Z</time>
      </trkpt>
      <trkpt lat="45.00762" lon="4.8548">
        <ele>119.59999847412</ele>
        <time>2024-05-21T11:02:18.000Z</time>
      </trkpt>
      <trkpt lat="45.00756" lon="4.85483">
        <ele>119.59999847412</ele>
        <time>2024-05-21T11:02:19.000Z</time>
      </trkpt>
      <trkpt lat="45.00751" lon="4.85487">
        <ele>119.59999847412</ele>
        <time>2024-05-21T11:02:20.000Z</time>
      </trkpt>
      <trkpt lat="45.00745" lon="4.8549">
        <ele>119.59999847412</ele>
        <time>2024-05-21T11:02:21.000Z</time>
      </trkpt>
      <trkpt lat="45.0074" lon="4.85493">
        <ele>119.40000152588</ele>
        <time>2024-05-21T11:02:22.000Z</time>
      </trkpt>
      <trkpt lat="45.00735" lon="4.85496">
        <ele>119.40000152588</ele>
        <time>2024-05-21T11:02:23.000Z</time>
      </trkpt>
      <trkpt lat="45.0073" lon="4.85499">
        <ele>119.40000152588</ele>
        <time>2024-05-21T11:02:24.000Z</time>
      </trkpt>
      <trkpt lat="45.00724" lon="4.85502">
        <ele>119.19999694824</ele>
        <time>2024-05-21T11:02:25.000Z</time>
      </trkpt>
      <trkpt lat="45.00719" lon="4.85505">
        <ele>119.19999694824</ele>
        <time>2024-05-21T11:02:26.000Z</time>
      </trkpt>
      <trkpt lat="45.00713" lon="4.85508">
        <ele>119.19999694824</ele>
        <time>2024-05-21T11:02:27.000Z</time>
      </trkpt>
      <trkpt lat="45.00708" lon="4.85511">
        <ele>119.19999694824</ele>
        <time>2024-05-21T11:02:28.000Z</time>
      </trkpt>
      <trkpt lat="45.00702" lon="4.85514">
        <ele>119.19999694824</ele>
        <time>2024-05-21T11:02:29.000Z</time>
      </trkpt>
      <trkpt lat="45.00697" lon="4.85518">
        <ele>119</ele>
        <time>2024-05-21T11:02:30.000Z</time>
      </trkpt>
      <trkpt lat="45.00691" lon="4.85521">
        <ele>119</ele>
        <time>2024-05-21T11:02:31.000Z</time>
      </trkpt>
      <trkpt lat="45.00686" lon="4.85525">
        <ele>119</ele>
        <time>2024-05-21T11:02:32.000Z</time>
      </trkpt>
      <trkpt lat="45.00681" lon="4.85528">
        <ele>118.80000305176</ele>
        <time>2024-05-21T11:02:33.000Z</time>
      </trkpt>
      <trkpt lat="45.00675" lon="4.8553">
        <ele>118.80000305176</ele>
        <time>2024-05-21T11:02:34.000Z</time>
      </trkpt>
      <trkpt lat="45.0067" lon="4.85532">
        <ele>118.80000305176</ele>
        <time>2024-05-21T11:02:35.000Z</time>
      </trkpt>
      <trkpt lat="45.00664" lon="4.85535">
        <ele>118.80000305176</ele>
        <time>2024-05-21T11:02:36.000Z</time>
      </trkpt>
      <trkpt lat="45.00659" lon="4.85539">
        <ele>118.80000305176</ele>
        <time>2024-05-21T11:02:37.000Z</time>
      </trkpt>
      <trkpt lat="45.00655" lon="4.85544">
        <ele>118.80000305176</ele>
        <time>2024-05-21T11:02:38.000Z</time>
      </trkpt>
      <trkpt lat="45.0065" lon="4.85548">
        <ele>118.80000305176</ele>
        <time>2024-05-21T11:02:39.000Z</time>
      </trkpt>
      <trkpt lat="45.00644" lon="4.8555">
        <ele>118.80000305176</ele>
        <time>2024-05-21T11:02:40.000Z</time>
      </trkpt>
      <trkpt lat="45.00639" lon="4.85553">
        <ele>118.80000305176</ele>
        <time>2024-05-21T11:02:41.000Z</time>
      </trkpt>
      <trkpt lat="45.00633" lon="4.85555">
        <ele>118.80000305176</ele>
        <time>2024-05-21T11:02:42.000Z</time>
      </trkpt>
      <trkpt lat="45.00628" lon="4.85558">
        <ele>118.80000305176</ele>
        <time>2024-05-21T11:02:43.000Z</time>
      </trkpt>
      <trkpt lat="45.00622" lon="4.8556">
        <ele>119</ele>
        <time>2024-05-21T11:02:44.000Z</time>
      </trkpt>
      <trkpt lat="45.00616" lon="4.85563">
        <ele>119</ele>
        <time>2024-05-21T11:02:45.000Z</time>
      </trkpt>
      <trkpt lat="45.00611" lon="4.85566">
        <ele>119</ele>
        <time>2024-05-21T11:02:46.000Z</time>
      </trkpt>
      <trkpt lat="45.00605" lon="4.85569">
        <ele>118.80000305176</ele>
        <time>2024-05-21T11:02:47.000Z</time>
      </trkpt>
      <trkpt lat="45.006" lon="4.85572">
        <ele>118.80000305176</ele>
        <time>2024-05-21T11:02:48.000Z</time>
      </trkpt>
      <trkpt lat="45.00594" lon="4.85576">
        <ele>118.80000305176</ele>
        <time>2024-05-21T11:02:49.000Z</time>
      </trkpt>
      <trkpt lat="45.00589" lon="4.85579">
        <ele>118.80000305176</ele>
        <time>2024-05-21T11:02:50.000Z</time>
      </trkpt>
      <trkpt lat="45.00583" lon="4.85582">
        <ele>118.80000305176</ele>
        <time>2024-05-21T11:02:51.000Z</time>
      </trkpt>
      <trkpt lat="45.00578" lon="4.85585">
        <ele>118.80000305176</ele>
        <time>2024-05-21T11:02:52.000Z</time>
      </trkpt>
      <trkpt lat="45.00573" lon="4.85588">
        <ele>118.80000305176</ele>
        <time>2024-05-21T11:02:53.000Z</time>
      </trkpt>
      <trkpt lat="45.00567" lon="4.85592">
        <ele>119</ele>
        <time>2024-05-21T11:02:54.000Z</time>
      </trkpt>
      <trkpt lat="45.00562" lon="4.85595">
        <ele>119</ele>
        <time>2024-05-21T11:02:55.000Z</time>
      </trkpt>
      <trkpt lat="45.00557" lon="4.85598">
        <ele>119</ele>
        <time>2024-05-21T11:02:56.000Z</time>
      </trkpt>
      <trkpt lat="45.00552" lon="4.85601">
        <ele>119</ele>
        <time>2024-05-21T11:02:57.000Z</time>
      </trkpt>
      <trkpt lat="45.00546" lon="4.85604">
        <ele>119.19999694824</ele>
        <time>2024-05-21T11:02:58.000Z</time>
      </trkpt>
      <trkpt lat="45.00541" lon="4.85606">
        <ele>119.40000152588</ele>
        <time>2024-05-21T11:02:59.000Z</time>
      </trkpt>
      <trkpt lat="45.00536" lon="4.85609">
        <ele>119.59999847412</ele>
        <time>2024-05-21T11:03:00.000Z</time>
      </trkpt>
      <trkpt lat="45.00531" lon="4.85612">
        <ele>119.59999847412</ele>
        <time>2024-05-21T11:03:01.000Z</time>
      </trkpt>
      <trkpt lat="45.00526" lon="4.85615">
        <ele>119.80000305176</ele>
        <time>2024-05-21T11:03:02.000Z</time>
      </trkpt>
      <trkpt lat="45.00521" lon="4.85618">
        <ele>120</ele>
        <time>2024-05-21T11:03:03.000Z</time>
      </trkpt>
      <trkpt lat="45.00516" lon="4.85621">
        <ele>120.19999694824</ele>
        <time>2024-05-21T11:03:04.000Z</time>
      </trkpt>
      <trkpt lat="45.00511" lon="4.85624">
        <ele>120.40000152588</ele>
        <time>2024-05-21T11:03:05.000Z</time>
      </trkpt>
      <trkpt lat="45.00506" lon="4.85627">
        <ele>120.40000152588</ele>
        <time>2024-05-21T11:03:06.000Z</time>
      </trkpt>
      <trkpt lat="45.005" lon="4.8563">
        <ele>120.40000152588</ele>
        <time>2024-05-21T11:03:07.000Z</time>
      </trkpt>
      <trkpt lat="45.00495" lon="4.85633">
        <ele>120.40000152588</ele>
        <time>2024-05-21T11:03:08.000Z</time>
      </trkpt>
      <trkpt lat="45.0049" lon="4.85636">
        <ele>120.59999847412</ele>
        <time>2024-05-21T11:03:09.000Z</time>
      </trkpt>
      <trkpt lat="45.00485" lon="4.8564">
        <ele>120.59999847412</ele>
        <time>2024-05-21T11:03:10.000Z</time>
      </trkpt>
      <trkpt lat="45.00479" lon="4.85643">
        <ele>120.80000305176</ele>
        <time>2024-05-21T11:03:11.000Z</time>
      </trkpt>
      <trkpt lat="45.00474" lon="4.85646">
        <ele>120.80000305176</ele>
        <time>2024-05-21T11:03:12.000Z</time>
      </trkpt>
      <trkpt lat="45.00469" lon="4.85649">
        <ele>120.80000305176</ele>
        <time>2024-05-21T11:03:13.000Z</time>
      </trkpt>
      <trkpt lat="45.00463" lon="4.85652">
        <ele>120.80000305176</ele>
        <time>2024-05-21T11:03:14.000Z</time>
      </trkpt>
      <trkpt lat="45.00458" lon="4.85655">
        <ele>120.80000305176</ele>
        <time>2024-05-21T11:03:15.000Z</time>
      </trkpt>
      <trkpt lat="45.00453" lon="4.85659">
        <ele>120.80000305176</ele>
        <time>2024-05-21T11:03:16.000Z</time>
      </trkpt>
      <trkpt lat="45.00447" lon="4.85662">
        <ele>120.80000305176</ele>
        <time>2024-05-21T11:03:17.000Z</time>
      </trkpt>
      <trkpt lat="45.00442" lon="4.85665">
        <ele>120.80000305176</ele>
        <time>2024-05-21T11:03:18.000Z</time>
      </trkpt>
      <trkpt lat="45.00437" lon="4.85669">
        <ele>120.80000305176</ele>
        <time>2024-05-21T11:03:19.000Z</time>
      </trkpt>
      <trkpt lat="45.00431" lon="4.85672">
        <ele>120.80000305176</ele>
        <time>2024-05-21T11:03:20.000Z</time>
      </trkpt>
      <trkpt lat="45.00426" lon="4.85675">
        <ele>120.80000305176</ele>
        <time>2024-05-21T11:03:21.000Z</time>
      </trkpt>
      <trkpt lat="45.0042" lon="4.85678">
        <ele>120.80000305176</ele>
        <time>2024-05-21T11:03:22.000Z</time>
      </trkpt>
      <trkpt lat="45.00415" lon="4.85682">
        <ele>120.59999847412</ele>
        <time>2024-05-21T11:03:23.000Z</time>
      </trkpt>
      <trkpt lat="45.00409" lon="4.85685">
        <ele>120.59999847412</ele>
        <time>2024-05-21T11:03:24.000Z</time>
      </trkpt>
      <trkpt lat="45.00404" lon="4.85689">
        <ele>120.59999847412</ele>
        <time>2024-05-21T11:03:25.000Z</time>
      </trkpt>
      <trkpt lat="45.00399" lon="4.85692">
        <ele>120.59999847412</ele>
        <time>2024-05-21T11:03:26.000Z</time>
      </trkpt>
      <trkpt lat="45.00393" lon="4.85696">
        <ele>120.59999847412</ele>
        <time>2024-05-21T11:03:27.000Z</time>
      </trkpt>
      <trkpt lat="45.00388" lon="4.857">
        <ele>120.59999847412</ele>
        <time>2024-05-21T11:03:28.000Z</time>
      </trkpt>
      <trkpt lat="45.00382" lon="4.85703">
        <ele>120.59999847412</ele>
        <time>2024-05-21T11:03:29.000Z</time>
      </trkpt>
      <trkpt lat="45.00377" lon="4.85706">
        <ele>120.59999847412</ele>
        <time>2024-05-21T11:03:30.000Z</time>
      </trkpt>
      <trkpt lat="45.00371" lon="4.8571">
        <ele>120.59999847412</ele>
        <time>2024-05-21T11:03:31.000Z</time>
      </trkpt>
      <trkpt lat="45.00366" lon="4.85713">
        <ele>120.59999847412</ele>
        <time>2024-05-21T11:03:32.000Z</time>
      </trkpt>
      <trkpt lat="45.00361" lon="4.85717">
        <ele>120.59999847412</ele>
        <time>2024-05-21T11:03:33.000Z</time>
      </trkpt>
      <trkpt lat="45.00355" lon="4.8572">
        <ele>120.59999847412</ele>
        <time>2024-05-21T11:03:34.000Z</time>
      </trkpt>
      <trkpt lat="45.0035" lon="4.85723">
        <ele>120.59999847412</ele>
        <time>2024-05-21T11:03:35.000Z</time>
      </trkpt>
      <trkpt lat="45.00345" lon="4.85726">
        <ele>120.59999847412</ele>
        <time>2024-05-21T11:03:36.000Z</time>
      </trkpt>
      <trkpt lat="45.00339" lon="4.8573">
        <ele>120.59999847412</ele>
        <time>2024-05-21T11:03:37.000Z</time>
      </trkpt>
      <trkpt lat="45.00334" lon="4.85733">
        <ele>120.59999847412</ele>
        <time>2024-05-21T11:03:38.000Z</time>
      </trkpt>
      <trkpt lat="45.00328" lon="4.85736">
        <ele>120.80000305176</ele>
        <time>2024-05-21T11:03:39.000Z</time>
      </trkpt>
      <trkpt lat="45.00323" lon="4.85739">
        <ele>120.80000305176</ele>
        <time>2024-05-21T11:03:40.000Z</time>
      </trkpt>
      <trkpt lat="45.00318" lon="4.85742">
        <ele>121</ele>
        <time>2024-05-21T11:03:41.000Z</time>
      </trkpt>
      <trkpt lat="45.00313" lon="4.85745">
        <ele>121.19999694824</ele>
        <time>2024-05-21T11:03:42.000Z</time>
      </trkpt>
      <trkpt lat="45.00307" lon="4.85748">
        <ele>121.19999694824</ele>
        <time>2024-05-21T11:03:43.000Z</time>
      </trkpt>
      <trkpt lat="45.00302" lon="4.8575">
        <ele>121.19999694824</ele>
        <time>2024-05-21T11:03:44.000Z</time>
      </trkpt>
      <trkpt lat="45.00297" lon="4.85754">
        <ele>121.19999694824</ele>
        <time>2024-05-21T11:03:45.000Z</time>
      </trkpt>
      <trkpt lat="45.00292" lon="4.85756">
        <ele>121.19999694824</ele>
        <time>2024-05-21T11:03:46.000Z</time>
      </trkpt>
      <trkpt lat="45.00286" lon="4.85759">
        <ele>121.19999694824</ele>
        <time>2024-05-21T11:03:47.000Z</time>
      </trkpt>
      <trkpt lat="45.00281" lon="4.85762">
        <ele>121.19999694824</ele>
        <time>2024-05-21T11:03:48.000Z</time>
      </trkpt>
      <trkpt lat="45.00276" lon="4.85765">
        <ele>121.40000152588</ele>
        <time>2024-05-21T11:03:49.000Z</time>
      </trkpt>
      <trkpt lat="45.00271" lon="4.85768">
        <ele>121.40000152588</ele>
        <time>2024-05-21T11:03:50.000Z</time>
      </trkpt>
      <trkpt lat="45.00266" lon="4.85772">
        <ele>121.40000152588</ele>
        <time>2024-05-21T11:03:51.000Z</time>
      </trkpt>
      <trkpt lat="45.0026" lon="4.85775">
        <ele>121.40000152588</ele>
        <time>2024-05-21T11:03:52.000Z</time>
      </trkpt>
      <trkpt lat="45.00255" lon="4.85778">
        <ele>121.59999847412</ele>
        <time>2024-05-21T11:03:53.000Z</time>
      </trkpt>
      <trkpt lat="45.0025" lon="4.85781">
        <ele>121.80000305176</ele>
        <time>2024-05-21T11:03:54.000Z</time>
      </trkpt>
      <trkpt lat="45.00245" lon="4.85784">
        <ele>122</ele>
        <time>2024-05-21T11:03:55.000Z</time>
      </trkpt>
      <trkpt lat="45.0024" lon="4.85787">
        <ele>122</ele>
        <time>2024-05-21T11:03:56.000Z</time>
      </trkpt>
      <trkpt lat="45.00235" lon="4.8579">
        <ele>122</ele>
        <time>2024-05-21T11:03:57.000Z</time>
      </trkpt>
      <trkpt lat="45.0023" lon="4.85792">
        <ele>122</ele>
        <time>2024-05-21T11:03:58.000Z</time>
      </trkpt>
      <trkpt lat="45.00225" lon="4.85795">
        <ele>122.19999694824</ele>
        <time>2024-05-21T11:03:59.000Z</time>
      </trkpt>
      <trkpt lat="45.0022" lon="4.85798">
        <ele>122.19999694824</ele>
        <time>2024-05-21T11:04:00.000Z</time>
      </trkpt>
      <trkpt lat="45.00215" lon="4.858">
        <ele>122.19999694824</ele>
        <time>2024-05-21T11:04:01.000Z</time>
      </trkpt>
      <trkpt lat="45.0021" lon="4.85803">
        <ele>122.40000152588</ele>
        <time>2024-05-21T11:04:02.000Z</time>
      </trkpt>
      <trkpt lat="45.00205" lon="4.85806">
        <ele>122.40000152588</ele>
        <time>2024-05-21T11:04:03.000Z</time>
      </trkpt>
      <trkpt lat="45.002" lon="4.85809">
        <ele>122.40000152588</ele>
        <time>2024-05-21T11:04:04.000Z</time>
      </trkpt>
      <trkpt lat="45.00195" lon="4.85812">
        <ele>122.59999847412</ele>
        <time>2024-05-21T11:04:05.000Z</time>
      </trkpt>
      <trkpt lat="45.0019" lon="4.85815">
        <ele>122.59999847412</ele>
        <time>2024-05-21T11:04:06.000Z</time>
      </trkpt>
      <trkpt lat="45.00185" lon="4.85818">
        <ele>122.59999847412</ele>
        <time>2024-05-21T11:04:07.000Z</time>
      </trkpt>
      <trkpt lat="45.0018" lon="4.85821">
        <ele>122.59999847412</ele>
        <time>2024-05-21T11:04:08.000Z</time>
      </trkpt>
      <trkpt lat="45.00175" lon="4.85824">
        <ele>122.59999847412</ele>
        <time>2024-05-21T11:04:09.000Z</time>
      </trkpt>
      <trkpt lat="45.00169" lon="4.85827">
        <ele>122.59999847412</ele>
        <time>2024-05-21T11:04:10.000Z</time>
      </trkpt>
      <trkpt lat="45.00164" lon="4.8583">
        <ele>122.59999847412</ele>
        <time>2024-05-21T11:04:11.000Z</time>
      </trkpt>
      <trkpt lat="45.00158" lon="4.85833">
        <ele>122.59999847412</ele>
        <time>2024-05-21T11:04:12.000Z</time>
      </trkpt>
      <trkpt lat="45.00152" lon="4.85836">
        <ele>122.40000152588</ele>
        <time>2024-05-21T11:04:13.000Z</time>
      </trkpt>
      <trkpt lat="45.00146" lon="4.85839">
        <ele>122.40000152588</ele>
        <time>2024-05-21T11:04:14.000Z</time>
      </trkpt>
      <trkpt lat="45.00141" lon="4.85842">
        <ele>122.19999694824</ele>
        <time>2024-05-21T11:04:15.000Z</time>
      </trkpt>
      <trkpt lat="45.00135" lon="4.85846">
        <ele>122</ele>
        <time>2024-05-21T11:04:16.000Z</time>
      </trkpt>
      <trkpt lat="45.00129" lon="4.85849">
        <ele>122</ele>
        <time>2024-05-21T11:04:17.000Z</time>
      </trkpt>
      <trkpt lat="45.00123" lon="4.85852">
        <ele>122</ele>
        <time>2024-05-21T11:04:18.000Z</time>
      </trkpt>
      <trkpt lat="45.00116" lon="4.85855">
        <ele>121.80000305176</ele>
        <time>2024-05-21T11:04:19.000Z</time>
      </trkpt>
      <trkpt lat="45.0011" lon="4.85858">
        <ele>121.80000305176</ele>
        <time>2024-05-21T11:04:20.000Z</time>
      </trkpt>
      <trkpt lat="45.00104" lon="4.85862">
        <ele>121.40000152588</ele>
        <time>2024-05-21T11:04:21.000Z</time>
      </trkpt>
      <trkpt lat="45.00097" lon="4.85865">
        <ele>121.19999694824</ele>
        <time>2024-05-21T11:04:22.000Z</time>
      </trkpt>
      <trkpt lat="45.00091" lon="4.85869">
        <ele>121.19999694824</ele>
        <time>2024-05-21T11:04:23.000Z</time>
      </trkpt>
      <trkpt lat="45.00084" lon="4.85873">
        <ele>121</ele>
        <time>2024-05-21T11:04:24.000Z</time>
      </trkpt>
      <trkpt lat="45.00077" lon="4.85876">
        <ele>120.80000305176</ele>
        <time>2024-05-21T11:04:25.000Z</time>
      </trkpt>
      <trkpt lat="45.0007" lon="4.8588">
        <ele>120.80000305176</ele>
        <time>2024-05-21T11:04:26.000Z</time>
      </trkpt>
      <trkpt lat="45.00063" lon="4.85884">
        <ele>120.40000152588</ele>
        <time>2024-05-21T11:04:27.000Z</time>
      </trkpt>
      <trkpt lat="45.00057" lon="4.85888">
        <ele>120.19999694824</ele>
        <time>2024-05-21T11:04:28.000Z</time>
      </trkpt>
      <trkpt lat="45.0005" lon="4.85892">
        <ele>120</ele>
        <time>2024-05-21T11:04:29.000Z</time>
      </trkpt>
      <trkpt lat="45.00043" lon="4.85896">
        <ele>119.59999847412</ele>
        <time>2024-05-21T11:04:30.000Z</time>
      </trkpt>
      <trkpt lat="45.00036" lon="4.859">
        <ele>119.19999694824</ele>
        <time>2024-05-21T11:04:31.000Z</time>
      </trkpt>
      <trkpt lat="45.00029" lon="4.85904">
        <ele>118.80000305176</ele>
        <time>2024-05-21T11:04:32.000Z</time>
      </trkpt>
      <trkpt lat="45.00022" lon="4.85908">
        <ele>118.59999847412</ele>
        <time>2024-05-21T11:04:33.000Z</time>
      </trkpt>
      <trkpt lat="45.00016" lon="4.85913">
        <ele>118.40000152588</ele>
        <time>2024-05-21T11:04:34.000Z</time>
      </trkpt>
      <trkpt lat="45.00009" lon="4.85917">
        <ele>118.19999694824</ele>
        <time>2024-05-21T11:04:35.000Z</time>
      </trkpt>
      <trkpt lat="45.00003" lon="4.85921">
        <ele>118.19999694824</ele>
        <time>2024-05-21T11:04:36.000Z</time>
      </trkpt>
      <trkpt lat="44.99996" lon="4.85924">
        <ele>118.19999694824</ele>
        <time>2024-05-21T11:04:37.000Z</time>
      </trkpt>
      <trkpt lat="44.9999" lon="4.85929">
        <ele>118.19999694824</ele>
        <time>2024-05-21T11:04:38.000Z</time>
      </trkpt>
      <trkpt lat="44.99984" lon="4.85933">
        <ele>118</ele>
        <time>2024-05-21T11:04:39.000Z</time>
      </trkpt>
      <trkpt lat="44.99977" lon="4.85937">
        <ele>118</ele>
        <time>2024-05-21T11:04:40.000Z</time>
      </trkpt>
      <trkpt lat="44.99971" lon="4.85941">
        <ele>118</ele>
        <time>2024-05-21T11:04:41.000Z</time>
      </trkpt>
      <trkpt lat="44.99965" lon="4.85945">
        <ele>118</ele>
        <time>2024-05-21T11:04:42.000Z</time>
      </trkpt>
      <trkpt lat="44.99959" lon="4.85949">
        <ele>117.80000305176</ele>
        <time>2024-05-21T11:04:43.000Z</time>
      </trkpt>
      <trkpt lat="44.99953" lon="4.85953">
        <ele>117.80000305176</ele>
        <time>2024-05-21T11:04:44.000Z</time>
      </trkpt>
      <trkpt lat="44.99946" lon="4.85956">
        <ele>117.80000305176</ele>
        <time>2024-05-21T11:04:45.000Z</time>
      </trkpt>
      <trkpt lat="44.9994" lon="4.8596">
        <ele>117.80000305176</ele>
        <time>2024-05-21T11:04:46.000Z</time>
      </trkpt>
      <trkpt lat="44.99934" lon="4.85963">
        <ele>117.59999847412</ele>
        <time>2024-05-21T11:04:47.000Z</time>
      </trkpt>
      <trkpt lat="44.99928" lon="4.85967">
        <ele>117.59999847412</ele>
        <time>2024-05-21T11:04:48.000Z</time>
      </trkpt>
      <trkpt lat="44.99922" lon="4.8597">
        <ele>117.59999847412</ele>
        <time>2024-05-21T11:04:49.000Z</time>
      </trkpt>
      <trkpt lat="44.99916" lon="4.85974">
        <ele>117.59999847412</ele>
        <time>2024-05-21T11:04:50.000Z</time>
      </trkpt>
      <trkpt lat="44.9991" lon="4.85977">
        <ele>117.59999847412</ele>
        <time>2024-05-21T11:04:51.000Z</time>
      </trkpt>
      <trkpt lat="44.99904" lon="4.8598">
        <ele>117.59999847412</ele>
        <time>2024-05-21T11:04:52.000Z</time>
      </trkpt>
      <trkpt lat="44.99898" lon="4.85984">
        <ele>117.59999847412</ele>
        <time>2024-05-21T11:04:53.000Z</time>
      </trkpt>
      <trkpt lat="44.99892" lon="4.85987">
        <ele>117.40000152588</ele>
        <time>2024-05-21T11:04:54.000Z</time>
      </trkpt>
      <trkpt lat="44.99886" lon="4.8599">
        <ele>117.40000152588</ele>
        <time>2024-05-21T11:04:55.000Z</time>
      </trkpt>
      <trkpt lat="44.9988" lon="4.85994">
        <ele>117.40000152588</ele>
        <time>2024-05-21T11:04:56.000Z</time>
      </trkpt>
      <trkpt lat="44.99874" lon="4.85997">
        <ele>117.40000152588</ele>
        <time>2024-05-21T11:04:57.000Z</time>
      </trkpt>
      <trkpt lat="44.99868" lon="4.86">
        <ele>117.19999694824</ele>
        <time>2024-05-21T11:04:58.000Z</time>
      </trkpt>
      <trkpt lat="44.99861" lon="4.86004">
        <ele>117</ele>
        <time>2024-05-21T11:04:59.000Z</time>
      </trkpt>
      <trkpt lat="44.99855" lon="4.86007">
        <ele>117</ele>
        <time>2024-05-21T11:05:00.000Z</time>
      </trkpt>
      <trkpt lat="44.99849" lon="4.8601">
        <ele>116.59999847412</ele>
        <time>2024-05-21T11:05:01.000Z</time>
      </trkpt>
      <trkpt lat="44.99842" lon="4.86014">
        <ele>116.59999847412</ele>
        <time>2024-05-21T11:05:02.000Z</time>
      </trkpt>
      <trkpt lat="44.99836" lon="4.86018">
        <ele>116.59999847412</ele>
        <time>2024-05-21T11:05:03.000Z</time>
      </trkpt>
      <trkpt lat="44.99829" lon="4.86021">
        <ele>116.59999847412</ele>
        <time>2024-05-21T11:05:04.000Z</time>
      </trkpt>
      <trkpt lat="44.99823" lon="4.86025">
        <ele>116.40000152588</ele>
        <time>2024-05-21T11:05:05.000Z</time>
      </trkpt>
      <trkpt lat="44.99817" lon="4.86028">
        <ele>116.19999694824</ele>
        <time>2024-05-21T11:05:06.000Z</time>
      </trkpt>
      <trkpt lat="44.9981" lon="4.86032">
        <ele>116</ele>
        <time>2024-05-21T11:05:07.000Z</time>
      </trkpt>
      <trkpt lat="44.99804" lon="4.86036">
        <ele>115.80000305176</ele>
        <time>2024-05-21T11:05:08.000Z</time>
      </trkpt>
      <trkpt lat="44.99797" lon="4.8604">
        <ele>115.80000305176</ele>
        <time>2024-05-21T11:05:09.000Z</time>
      </trkpt>
      <trkpt lat="44.99791" lon="4.86043">
        <ele>115.59999847412</ele>
        <time>2024-05-21T11:05:10.000Z</time>
      </trkpt>
      <trkpt lat="44.99784" lon="4.86047">
        <ele>115.59999847412</ele>
        <time>2024-05-21T11:05:11.000Z</time>
      </trkpt>
      <trkpt lat="44.99778" lon="4.86051">
        <ele>115.59999847412</ele>
        <time>2024-05-21T11:05:12.000Z</time>
      </trkpt>
      <trkpt lat="44.99772" lon="4.86054">
        <ele>115.59999847412</ele>
        <time>2024-05-21T11:05:13.000Z</time>
      </trkpt>
      <trkpt lat="44.99765" lon="4.86058">
        <ele>115.40000152588</ele>
        <time>2024-05-21T11:05:14.000Z</time>
      </trkpt>
      <trkpt lat="44.99759" lon="4.86062">
        <ele>115.40000152588</ele>
        <time>2024-05-21T11:05:15.000Z</time>
      </trkpt>
      <trkpt lat="44.99752" lon="4.86065">
        <ele>115.40000152588</ele>
        <time>2024-05-21T11:05:16.000Z</time>
      </trkpt>
      <trkpt lat="44.99746" lon="4.86069">
        <ele>115.40000152588</ele>
        <time>2024-05-21T11:05:17.000Z</time>
      </trkpt>
      <trkpt lat="44.99739" lon="4.86072">
        <ele>115.40000152588</ele>
        <time>2024-05-21T11:05:18.000Z</time>
      </trkpt>
      <trkpt lat="44.99733" lon="4.86076">
        <ele>115.40000152588</ele>
        <time>2024-05-21T11:05:19.000Z</time>
      </trkpt>
      <trkpt lat="44.99727" lon="4.86079">
        <ele>115.19999694824</ele>
        <time>2024-05-21T11:05:20.000Z</time>
      </trkpt>
      <trkpt lat="44.9972" lon="4.86082">
        <ele>115.19999694824</ele>
        <time>2024-05-21T11:05:21.000Z</time>
      </trkpt>
      <trkpt lat="44.99714" lon="4.86086">
        <ele>115.19999694824</ele>
        <time>2024-05-21T11:05:22.000Z</time>
      </trkpt>
      <trkpt lat="44.99708" lon="4.8609">
        <ele>115.19999694824</ele>
        <time>2024-05-21T11:05:23.000Z</time>
      </trkpt>
      <trkpt lat="44.99702" lon="4.86093">
        <ele>115.19999694824</ele>
        <time>2024-05-21T11:05:24.000Z</time>
      </trkpt>
      <trkpt lat="44.99695" lon="4.86096">
        <ele>115.19999694824</ele>
        <time>2024-05-21T11:05:25.000Z</time>
      </trkpt>
      <trkpt lat="44.99689" lon="4.861">
        <ele>115.19999694824</ele>
        <time>2024-05-21T11:05:26.000Z</time>
      </trkpt>
      <trkpt lat="44.99683" lon="4.86103">
        <ele>115.40000152588</ele>
        <time>2024-05-21T11:05:27.000Z</time>
      </trkpt>
      <trkpt lat="44.99677" lon="4.86106">
        <ele>115.40000152588</ele>
        <time>2024-05-21T11:05:28.000Z</time>
      </trkpt>
      <trkpt lat="44.99671" lon="4.8611">
        <ele>115.40000152588</ele>
        <time>2024-05-21T11:05:29.000Z</time>
      </trkpt>
      <trkpt lat="44.99665" lon="4.86113">
        <ele>115.40000152588</ele>
        <time>2024-05-21T11:05:30.000Z</time>
      </trkpt>
      <trkpt lat="44.99659" lon="4.86116">
        <ele>115.40000152588</ele>
        <time>2024-05-21T11:05:31.000Z</time>
      </trkpt>
      <trkpt lat="44.99653" lon="4.8612">
        <ele>115.40000152588</ele>
        <time>2024-05-21T11:05:32.000Z</time>
      </trkpt>
      <trkpt lat="44.99647" lon="4.86123">
        <ele>115.40000152588</ele>
        <time>2024-05-21T11:05:33.000Z</time>
      </trkpt>
      <trkpt lat="44.99641" lon="4.86126">
        <ele>115.40000152588</ele>
        <time>2024-05-21T11:05:34.000Z</time>
      </trkpt>
      <trkpt lat="44.99635" lon="4.86129">
        <ele>115.40000152588</ele>
        <time>2024-05-21T11:05:35.000Z</time>
      </trkpt>
      <trkpt lat="44.99629" lon="4.86132">
        <ele>115.40000152588</ele>
        <time>2024-05-21T11:05:36.000Z</time>
      </trkpt>
      <trkpt lat="44.99624" lon="4.86135">
        <ele>115.40000152588</ele>
        <time>2024-05-21T11:05:37.000Z</time>
      </trkpt>
      <trkpt lat="44.99618" lon="4.86139">
        <ele>115.19999694824</ele>
        <time>2024-05-21T11:05:38.000Z</time>
      </trkpt>
      <trkpt lat="44.99612" lon="4.86142">
        <ele>115.19999694824</ele>
        <time>2024-05-21T11:05:39.000Z</time>
      </trkpt>
      <trkpt lat="44.99607" lon="4.86145">
        <ele>115.40000152588</ele>
        <time>2024-05-21T11:05:40.000Z</time>
      </trkpt>
      <trkpt lat="44.99601" lon="4.86148">
        <ele>115.40000152588</ele>
        <time>2024-05-21T11:05:41.000Z</time>
      </trkpt>
      <trkpt lat="44.99595" lon="4.86151">
        <ele>115.40000152588</ele>
        <time>2024-05-21T11:05:42.000Z</time>
      </trkpt>
      <trkpt lat="44.9959" lon="4.86154">
        <ele>115.40000152588</ele>
        <time>2024-05-21T11:05:43.000Z</time>
      </trkpt>
      <trkpt lat="44.99584" lon="4.86157">
        <ele>115.40000152588</ele>
        <time>2024-05-21T11:05:44.000Z</time>
      </trkpt>
      <trkpt lat="44.99579" lon="4.86161">
        <ele>115.40000152588</ele>
        <time>2024-05-21T11:05:45.000Z</time>
      </trkpt>
      <trkpt lat="44.99573" lon="4.86164">
        <ele>115.40000152588</ele>
        <time>2024-05-21T11:05:46.000Z</time>
      </trkpt>
      <trkpt lat="44.99568" lon="4.86167">
        <ele>115.40000152588</ele>
        <time>2024-05-21T11:05:47.000Z</time>
      </trkpt>
      <trkpt lat="44.99562" lon="4.8617">
        <ele>115.40000152588</ele>
        <time>2024-05-21T11:05:48.000Z</time>
      </trkpt>
      <trkpt lat="44.99557" lon="4.86173">
        <ele>115.40000152588</ele>
        <time>2024-05-21T11:05:49.000Z</time>
      </trkpt>
      <trkpt lat="44.99551" lon="4.86176">
        <ele>115.40000152588</ele>
        <time>2024-05-21T11:05:50.000Z</time>
      </trkpt>
      <trkpt lat="44.99546" lon="4.86179">
        <ele>115.40000152588</ele>
        <time>2024-05-21T11:05:51.000Z</time>
      </trkpt>
      <trkpt lat="44.9954" lon="4.86182">
        <ele>115.40000152588</ele>
        <time>2024-05-21T11:05:52.000Z</time>
      </trkpt>
      <trkpt lat="44.99535" lon="4.86185">
        <ele>115.40000152588</ele>
        <time>2024-05-21T11:05:53.000Z</time>
      </trkpt>
      <trkpt lat="44.99529" lon="4.86188">
        <ele>115.40000152588</ele>
        <time>2024-05-21T11:05:54.000Z</time>
      </trkpt>
      <trkpt lat="44.99524" lon="4.86192">
        <ele>115.40000152588</ele>
        <time>2024-05-21T11:05:55.000Z</time>
      </trkpt>
      <trkpt lat="44.99518" lon="4.86195">
        <ele>115.59999847412</ele>
        <time>2024-05-21T11:05:56.000Z</time>
      </trkpt>
      <trkpt lat="44.99512" lon="4.86198">
        <ele>115.59999847412</ele>
        <time>2024-05-21T11:05:57.000Z</time>
      </trkpt>
      <trkpt lat="44.99506" lon="4.86201">
        <ele>115.59999847412</ele>
        <time>2024-05-21T11:05:58.000Z</time>
      </trkpt>
      <trkpt lat="44.99501" lon="4.86204">
        <ele>115.59999847412</ele>
        <time>2024-05-21T11:05:59.000Z</time>
      </trkpt>
      <trkpt lat="44.99495" lon="4.86207">
        <ele>115.59999847412</ele>
        <time>2024-05-21T11:06:00.000Z</time>
      </trkpt>
      <trkpt lat="44.99489" lon="4.8621">
        <ele>115.59999847412</ele>
        <time>2024-05-21T11:06:01.000Z</time>
      </trkpt>
      <trkpt lat="44.99484" lon="4.86213">
        <ele>115.59999847412</ele>
        <time>2024-05-21T11:06:02.000Z</time>
      </trkpt>
      <trkpt lat="44.99478" lon="4.86216">
        <ele>115.59999847412</ele>
        <time>2024-05-21T11:06:03.000Z</time>
      </trkpt>
      <trkpt lat="44.99472" lon="4.86219">
        <ele>115.40000152588</ele>
        <time>2024-05-21T11:06:04.000Z</time>
      </trkpt>
      <trkpt lat="44.99466" lon="4.86222">
        <ele>115.40000152588</ele>
        <time>2024-05-21T11:06:05.000Z</time>
      </trkpt>
      <trkpt lat="44.99461" lon="4.86226">
        <ele>115.40000152588</ele>
        <time>2024-05-21T11:06:06.000Z</time>
      </trkpt>
      <trkpt lat="44.99456" lon="4.86229">
        <ele>115.40000152588</ele>
        <time>2024-05-21T11:06:07.000Z</time>
      </trkpt>
      <trkpt lat="44.9945" lon="4.86232">
        <ele>115.40000152588</ele>
        <time>2024-05-21T11:06:08.000Z</time>
      </trkpt>
      <trkpt lat="44.99444" lon="4.86235">
        <ele>115.40000152588</ele>
        <time>2024-05-21T11:06:09.000Z</time>
      </trkpt>
      <trkpt lat="44.99439" lon="4.86238">
        <ele>115.40000152588</ele>
        <time>2024-05-21T11:06:10.000Z</time>
      </trkpt>
      <trkpt lat="44.99433" lon="4.86241">
        <ele>115.40000152588</ele>
        <time>2024-05-21T11:06:11.000Z</time>
      </trkpt>
      <trkpt lat="44.99428" lon="4.86244">
        <ele>115.40000152588</ele>
        <time>2024-05-21T11:06:12.000Z</time>
      </trkpt>
      <trkpt lat="44.99422" lon="4.86247">
        <ele>115.40000152588</ele>
        <time>2024-05-21T11:06:13.000Z</time>
      </trkpt>
      <trkpt lat="44.99417" lon="4.8625">
        <ele>115.40000152588</ele>
        <time>2024-05-21T11:06:14.000Z</time>
      </trkpt>
      <trkpt lat="44.99411" lon="4.86253">
        <ele>115.40000152588</ele>
        <time>2024-05-21T11:06:15.000Z</time>
      </trkpt>
      <trkpt lat="44.99405" lon="4.86257">
        <ele>115.19999694824</ele>
        <time>2024-05-21T11:06:16.000Z</time>
      </trkpt>
      <trkpt lat="44.994" lon="4.8626">
        <ele>115.19999694824</ele>
        <time>2024-05-21T11:06:17.000Z</time>
      </trkpt>
      <trkpt lat="44.99394" lon="4.86263">
        <ele>115.19999694824</ele>
        <time>2024-05-21T11:06:18.000Z</time>
      </trkpt>
      <trkpt lat="44.99388" lon="4.86266">
        <ele>115.19999694824</ele>
        <time>2024-05-21T11:06:19.000Z</time>
      </trkpt>
      <trkpt lat="44.99383" lon="4.86269">
        <ele>115.19999694824</ele>
        <time>2024-05-21T11:06:20.000Z</time>
      </trkpt>
      <trkpt lat="44.99377" lon="4.86273">
        <ele>115.19999694824</ele>
        <time>2024-05-21T11:06:21.000Z</time>
      </trkpt>
      <trkpt lat="44.99372" lon="4.86276">
        <ele>115</ele>
        <time>2024-05-21T11:06:22.000Z</time>
      </trkpt>
      <trkpt lat="44.99367" lon="4.86279">
        <ele>115</ele>
        <time>2024-05-21T11:06:23.000Z</time>
      </trkpt>
      <trkpt lat="44.99361" lon="4.86282">
        <ele>115</ele>
        <time>2024-05-21T11:06:24.000Z</time>
      </trkpt>
      <trkpt lat="44.99355" lon="4.86285">
        <ele>115</ele>
        <time>2024-05-21T11:06:25.000Z</time>
      </trkpt>
      <trkpt lat="44.9935" lon="4.86288">
        <ele>115</ele>
        <time>2024-05-21T11:06:26.000Z</time>
      </trkpt>
      <trkpt lat="44.99344" lon="4.86291">
        <ele>115.19999694824</ele>
        <time>2024-05-21T11:06:27.000Z</time>
      </trkpt>
      <trkpt lat="44.99339" lon="4.86294">
        <ele>115.19999694824</ele>
        <time>2024-05-21T11:06:28.000Z</time>
      </trkpt>
      <trkpt lat="44.99333" lon="4.86297">
        <ele>115.40000152588</ele>
        <time>2024-05-21T11:06:29.000Z</time>
      </trkpt>
      <trkpt lat="44.99328" lon="4.863">
        <ele>115.40000152588</ele>
        <time>2024-05-21T11:06:30.000Z</time>
      </trkpt>
      <trkpt lat="44.99322" lon="4.86303">
        <ele>115.40000152588</ele>
        <time>2024-05-21T11:06:31.000Z</time>
      </trkpt>
      <trkpt lat="44.99317" lon="4.86306">
        <ele>115.40000152588</ele>
        <time>2024-05-21T11:06:32.000Z</time>
      </trkpt>
      <trkpt lat="44.99311" lon="4.86309">
        <ele>115.40000152588</ele>
        <time>2024-05-21T11:06:33.000Z</time>
      </trkpt>
      <trkpt lat="44.99306" lon="4.86312">
        <ele>115.40000152588</ele>
        <time>2024-05-21T11:06:34.000Z</time>
      </trkpt>
      <trkpt lat="44.993" lon="4.86314">
        <ele>115.19999694824</ele>
        <time>2024-05-21T11:06:35.000Z</time>
      </trkpt>
      <trkpt lat="44.99295" lon="4.86318">
        <ele>115.19999694824</ele>
        <time>2024-05-21T11:06:36.000Z</time>
      </trkpt>
      <trkpt lat="44.99289" lon="4.86321">
        <ele>114.80000305176</ele>
        <time>2024-05-21T11:06:37.000Z</time>
      </trkpt>
      <trkpt lat="44.99284" lon="4.86324">
        <ele>114.80000305176</ele>
        <time>2024-05-21T11:06:38.000Z</time>
      </trkpt>
      <trkpt lat="44.99278" lon="4.86327">
        <ele>114.59999847412</ele>
        <time>2024-05-21T11:06:39.000Z</time>
      </trkpt>
      <trkpt lat="44.99273" lon="4.8633">
        <ele>114.59999847412</ele>
        <time>2024-05-21T11:06:40.000Z</time>
      </trkpt>
      <trkpt lat="44.99268" lon="4.86333">
        <ele>114.59999847412</ele>
        <time>2024-05-21T11:06:41.000Z</time>
      </trkpt>
      <trkpt lat="44.99262" lon="4.86337">
        <ele>114.59999847412</ele>
        <time>2024-05-21T11:06:42.000Z</time>
      </trkpt>
      <trkpt lat="44.99258" lon="4.86339">
        <ele>114.80000305176</ele>
        <time>2024-05-21T11:06:43.000Z</time>
      </trkpt>
      <trkpt lat="44.99253" lon="4.86342">
        <ele>114.80000305176</ele>
        <time>2024-05-21T11:06:44.000Z</time>
      </trkpt>
      <trkpt lat="44.99248" lon="4.86344">
        <ele>114.80000305176</ele>
        <time>2024-05-21T11:06:45.000Z</time>
      </trkpt>
      <trkpt lat="44.99243" lon="4.86347">
        <ele>114.80000305176</ele>
        <time>2024-05-21T11:06:46.000Z</time>
      </trkpt>
      <trkpt lat="44.99237" lon="4.8635">
        <ele>114.80000305176</ele>
        <time>2024-05-21T11:06:47.000Z</time>
      </trkpt>
      <trkpt lat="44.99232" lon="4.86353">
        <ele>114.80000305176</ele>
        <time>2024-05-21T11:06:48.000Z</time>
      </trkpt>
      <trkpt lat="44.99227" lon="4.86356">
        <ele>114.80000305176</ele>
        <time>2024-05-21T11:06:49.000Z</time>
      </trkpt>
      <trkpt lat="44.99222" lon="4.86358">
        <ele>114.80000305176</ele>
        <time>2024-05-21T11:06:50.000Z</time>
      </trkpt>
      <trkpt lat="44.99216" lon="4.86362">
        <ele>114.80000305176</ele>
        <time>2024-05-21T11:06:51.000Z</time>
      </trkpt>
      <trkpt lat="44.99212" lon="4.86364">
        <ele>114.80000305176</ele>
        <time>2024-05-21T11:06:52.000Z</time>
      </trkpt>
      <trkpt lat="44.99207" lon="4.86367">
        <ele>114.80000305176</ele>
        <time>2024-05-21T11:06:53.000Z</time>
      </trkpt>
      <trkpt lat="44.99202" lon="4.8637">
        <ele>115</ele>
        <time>2024-05-21T11:06:54.000Z</time>
      </trkpt>
      <trkpt lat="44.99197" lon="4.86372">
        <ele>115</ele>
        <time>2024-05-21T11:06:55.000Z</time>
      </trkpt>
      <trkpt lat="44.99192" lon="4.86375">
        <ele>115</ele>
        <time>2024-05-21T11:06:56.000Z</time>
      </trkpt>
      <trkpt lat="44.99186" lon="4.86378">
        <ele>115</ele>
        <time>2024-05-21T11:06:57.000Z</time>
      </trkpt>
      <trkpt lat="44.99181" lon="4.8638">
        <ele>115</ele>
        <time>2024-05-21T11:06:58.000Z</time>
      </trkpt>
      <trkpt lat="44.99176" lon="4.86383">
        <ele>115</ele>
        <time>2024-05-21T11:06:59.000Z</time>
      </trkpt>
      <trkpt lat="44.99171" lon="4.86386">
        <ele>115.19999694824</ele>
        <time>2024-05-21T11:07:00.000Z</time>
      </trkpt>
      <trkpt lat="44.99165" lon="4.86388">
        <ele>115.19999694824</ele>
        <time>2024-05-21T11:07:01.000Z</time>
      </trkpt>
      <trkpt lat="44.9916" lon="4.8639">
        <ele>115.19999694824</ele>
        <time>2024-05-21T11:07:02.000Z</time>
      </trkpt>
      <trkpt lat="44.99155" lon="4.86392">
        <ele>115.19999694824</ele>
        <time>2024-05-21T11:07:03.000Z</time>
      </trkpt>
      <trkpt lat="44.99149" lon="4.86393">
        <ele>115</ele>
        <time>2024-05-21T11:07:04.000Z</time>
      </trkpt>
      <trkpt lat="44.99144" lon="4.86394">
        <ele>115.19999694824</ele>
        <time>2024-05-21T11:07:05.000Z</time>
      </trkpt>
      <trkpt lat="44.99138" lon="4.86396">
        <ele>115.19999694824</ele>
        <time>2024-05-21T11:07:06.000Z</time>
      </trkpt>
      <trkpt lat="44.99133" lon="4.86396">
        <ele>115.19999694824</ele>
        <time>2024-05-21T11:07:07.000Z</time>
      </trkpt>
      <trkpt lat="44.99127" lon="4.86397">
        <ele>115.19999694824</ele>
        <time>2024-05-21T11:07:08.000Z</time>
      </trkpt>
      <trkpt lat="44.99121" lon="4.86397">
        <ele>115.19999694824</ele>
        <time>2024-05-21T11:07:09.000Z</time>
      </trkpt>
      <trkpt lat="44.99116" lon="4.86397">
        <ele>115.19999694824</ele>
        <time>2024-05-21T11:07:10.000Z</time>
      </trkpt>
      <trkpt lat="44.9911" lon="4.86397">
        <ele>115.19999694824</ele>
        <time>2024-05-21T11:07:11.000Z</time>
      </trkpt>
      <trkpt lat="44.99104" lon="4.86397">
        <ele>115.40000152588</ele>
        <time>2024-05-21T11:07:12.000Z</time>
      </trkpt>
      <trkpt lat="44.99098" lon="4.86396">
        <ele>115.40000152588</ele>
        <time>2024-05-21T11:07:13.000Z</time>
      </trkpt>
      <trkpt lat="44.99093" lon="4.86395">
        <ele>115.40000152588</ele>
        <time>2024-05-21T11:07:14.000Z</time>
      </trkpt>
      <trkpt lat="44.99087" lon="4.86394">
        <ele>115.40000152588</ele>
        <time>2024-05-21T11:07:15.000Z</time>
      </trkpt>
      <trkpt lat="44.99081" lon="4.86392">
        <ele>115.40000152588</ele>
        <time>2024-05-21T11:07:16.000Z</time>
      </trkpt>
      <trkpt lat="44.99075" lon="4.8639">
        <ele>115.40000152588</ele>
        <time>2024-05-21T11:07:17.000Z</time>
      </trkpt>
      <trkpt lat="44.99069" lon="4.86388">
        <ele>115.59999847412</ele>
        <time>2024-05-21T11:07:18.000Z</time>
      </trkpt>
      <trkpt lat="44.99063" lon="4.86385">
        <ele>115.59999847412</ele>
        <time>2024-05-21T11:07:19.000Z</time>
      </trkpt>
      <trkpt lat="44.99058" lon="4.86382">
        <ele>115.59999847412</ele>
        <time>2024-05-21T11:07:20.000Z</time>
      </trkpt>
      <trkpt lat="44.99052" lon="4.86379">
        <ele>115.59999847412</ele>
        <time>2024-05-21T11:07:21.000Z</time>
      </trkpt>
      <trkpt lat="44.99046" lon="4.86376">
        <ele>115.59999847412</ele>
        <time>2024-05-21T11:07:22.000Z</time>
      </trkpt>
      <trkpt lat="44.99041" lon="4.86373">
        <ele>115.40000152588</ele>
        <time>2024-05-21T11:07:23.000Z</time>
      </trkpt>
      <trkpt lat="44.99035" lon="4.86369">
        <ele>115.40000152588</ele>
        <time>2024-05-21T11:07:24.000Z</time>
      </trkpt>
      <trkpt lat="44.99029" lon="4.86366">
        <ele>115.40000152588</ele>
        <time>2024-05-21T11:07:25.000Z</time>
      </trkpt>
      <trkpt lat="44.99024" lon="4.86363">
        <ele>115.40000152588</ele>
        <time>2024-05-21T11:07:26.000Z</time>
      </trkpt>
      <trkpt lat="44.99018" lon="4.8636">
        <ele>115.40000152588</ele>
        <time>2024-05-21T11:07:27.000Z</time>
      </trkpt>
      <trkpt lat="44.99013" lon="4.86357">
        <ele>115.59999847412</ele>
        <time>2024-05-21T11:07:28.000Z</time>
      </trkpt>
      <trkpt lat="44.99007" lon="4.86354">
        <ele>115.59999847412</ele>
        <time>2024-05-21T11:07:29.000Z</time>
      </trkpt>
      <trkpt lat="44.99001" lon="4.86351">
        <ele>115.59999847412</ele>
        <time>2024-05-21T11:07:30.000Z</time>
      </trkpt>
      <trkpt lat="44.98995" lon="4.86348">
        <ele>115.80000305176</ele>
        <time>2024-05-21T11:07:31.000Z</time>
      </trkpt>
      <trkpt lat="44.98989" lon="4.86344">
        <ele>115.80000305176</ele>
        <time>2024-05-21T11:07:32.000Z</time>
      </trkpt>
      <trkpt lat="44.98984" lon="4.86341">
        <ele>115.80000305176</ele>
        <time>2024-05-21T11:07:33.000Z</time>
      </trkpt>
      <trkpt lat="44.98978" lon="4.86338">
        <ele>115.80000305176</ele>
        <time>2024-05-21T11:07:34.000Z</time>
      </trkpt>
      <trkpt lat="44.98972" lon="4.86335">
        <ele>115.80000305176</ele>
        <time>2024-05-21T11:07:35.000Z</time>
      </trkpt>
      <trkpt lat="44.98966" lon="4.86332">
        <ele>115.80000305176</ele>
        <time>2024-05-21T11:07:36.000Z</time>
      </trkpt>
      <trkpt lat="44.9896" lon="4.86328">
        <ele>115.80000305176</ele>
        <time>2024-05-21T11:07:37.000Z</time>
      </trkpt>
      <trkpt lat="44.98954" lon="4.86325">
        <ele>115.80000305176</ele>
        <time>2024-05-21T11:07:38.000Z</time>
      </trkpt>
      <trkpt lat="44.98948" lon="4.86322">
        <ele>115.80000305176</ele>
        <time>2024-05-21T11:07:39.000Z</time>
      </trkpt>
      <trkpt lat="44.98943" lon="4.86319">
        <ele>115.80000305176</ele>
        <time>2024-05-21T11:07:40.000Z</time>
      </trkpt>
      <trkpt lat="44.98937" lon="4.86315">
        <ele>115.80000305176</ele>
        <time>2024-05-21T11:07:41.000Z</time>
      </trkpt>
      <trkpt lat="44.98931" lon="4.86312">
        <ele>115.80000305176</ele>
        <time>2024-05-21T11:07:42.000Z</time>
      </trkpt>
      <trkpt lat="44.98926" lon="4.86309">
        <ele>115.80000305176</ele>
        <time>2024-05-21T11:07:43.000Z</time>
      </trkpt>
      <trkpt lat="44.9892" lon="4.86305">
        <ele>115.80000305176</ele>
        <time>2024-05-21T11:07:44.000Z</time>
      </trkpt>
      <trkpt lat="44.98914" lon="4.86302">
        <ele>115.80000305176</ele>
        <time>2024-05-21T11:07:45.000Z</time>
      </trkpt>
      <trkpt lat="44.98909" lon="4.86298">
        <ele>115.80000305176</ele>
        <time>2024-05-21T11:07:46.000Z</time>
      </trkpt>
      <trkpt lat="44.98903" lon="4.86295">
        <ele>115.80000305176</ele>
        <time>2024-05-21T11:07:47.000Z</time>
      </trkpt>
      <trkpt lat="44.98897" lon="4.86291">
        <ele>115.80000305176</ele>
        <time>2024-05-21T11:07:48.000Z</time>
      </trkpt>
      <trkpt lat="44.98891" lon="4.86287">
        <ele>115.80000305176</ele>
        <time>2024-05-21T11:07:49.000Z</time>
      </trkpt>
      <trkpt lat="44.98886" lon="4.86283">
        <ele>115.80000305176</ele>
        <time>2024-05-21T11:07:50.000Z</time>
      </trkpt>
      <trkpt lat="44.9888" lon="4.86279">
        <ele>115.80000305176</ele>
        <time>2024-05-21T11:07:51.000Z</time>
      </trkpt>
      <trkpt lat="44.98875" lon="4.86275">
        <ele>115.80000305176</ele>
        <time>2024-05-21T11:07:52.000Z</time>
      </trkpt>
      <trkpt lat="44.98869" lon="4.8627">
        <ele>115.80000305176</ele>
        <time>2024-05-21T11:07:53.000Z</time>
      </trkpt>
      <trkpt lat="44.98864" lon="4.86265">
        <ele>115.59999847412</ele>
        <time>2024-05-21T11:07:54.000Z</time>
      </trkpt>
      <trkpt lat="44.98859" lon="4.8626">
        <ele>115.59999847412</ele>
        <time>2024-05-21T11:07:55.000Z</time>
      </trkpt>
      <trkpt lat="44.98854" lon="4.86255">
        <ele>115.80000305176</ele>
        <time>2024-05-21T11:07:56.000Z</time>
      </trkpt>
      <trkpt lat="44.98849" lon="4.86249">
        <ele>115.59999847412</ele>
        <time>2024-05-21T11:07:57.000Z</time>
      </trkpt>
      <trkpt lat="44.98845" lon="4.86243">
        <ele>115.80000305176</ele>
        <time>2024-05-21T11:07:58.000Z</time>
      </trkpt>
      <trkpt lat="44.9884" lon="4.86237">
        <ele>115.80000305176</ele>
        <time>2024-05-21T11:07:59.000Z</time>
      </trkpt>
      <trkpt lat="44.98835" lon="4.86232">
        <ele>115.80000305176</ele>
        <time>2024-05-21T11:08:00.000Z</time>
      </trkpt>
      <trkpt lat="44.98831" lon="4.86226">
        <ele>115.80000305176</ele>
        <time>2024-05-21T11:08:01.000Z</time>
      </trkpt>
      <trkpt lat="44.98826" lon="4.8622">
        <ele>115.80000305176</ele>
        <time>2024-05-21T11:08:02.000Z</time>
      </trkpt>
      <trkpt lat="44.98821" lon="4.86214">
        <ele>115.80000305176</ele>
        <time>2024-05-21T11:08:03.000Z</time>
      </trkpt>
      <trkpt lat="44.98817" lon="4.86208">
        <ele>115.80000305176</ele>
        <time>2024-05-21T11:08:04.000Z</time>
      </trkpt>
      <trkpt lat="44.98813" lon="4.86201">
        <ele>115.80000305176</ele>
        <time>2024-05-21T11:08:05.000Z</time>
      </trkpt>
      <trkpt lat="44.98809" lon="4.86195">
        <ele>115.80000305176</ele>
        <time>2024-05-21T11:08:06.000Z</time>
      </trkpt>
      <trkpt lat="44.98805" lon="4.86188">
        <ele>115.59999847412</ele>
        <time>2024-05-21T11:08:07.000Z</time>
      </trkpt>
      <trkpt lat="44.98801" lon="4.86181">
        <ele>115.59999847412</ele>
        <time>2024-05-21T11:08:08.000Z</time>
      </trkpt>
      <trkpt lat="44.98797" lon="4.86174">
        <ele>115.59999847412</ele>
        <time>2024-05-21T11:08:09.000Z</time>
      </trkpt>
      <trkpt lat="44.98793" lon="4.86166">
        <ele>115.80000305176</ele>
        <time>2024-05-21T11:08:10.000Z</time>
      </trkpt>
      <trkpt lat="44.98789" lon="4.86159">
        <ele>115.59999847412</ele>
        <time>2024-05-21T11:08:11.000Z</time>
      </trkpt>
      <trkpt lat="44.98785" lon="4.86152">
        <ele>115.59999847412</ele>
        <time>2024-05-21T11:08:12.000Z</time>
      </trkpt>
      <trkpt lat="44.98782" lon="4.86145">
        <ele>115.59999847412</ele>
        <time>2024-05-21T11:08:13.000Z</time>
      </trkpt>
      <trkpt lat="44.98778" lon="4.86138">
        <ele>115.59999847412</ele>
        <time>2024-05-21T11:08:14.000Z</time>
      </trkpt>
      <trkpt lat="44.98774" lon="4.86132">
        <ele>115.59999847412</ele>
        <time>2024-05-21T11:08:15.000Z</time>
      </trkpt>
      <trkpt lat="44.9877" lon="4.86125">
        <ele>115.59999847412</ele>
        <time>2024-05-21T11:08:16.000Z</time>
      </trkpt>
      <trkpt lat="44.98767" lon="4.86118">
        <ele>115.59999847412</ele>
        <time>2024-05-21T11:08:17.000Z</time>
      </trkpt>
      <trkpt lat="44.98763" lon="4.86111">
        <ele>115.59999847412</ele>
        <time>2024-05-21T11:08:18.000Z</time>
      </trkpt>
      <trkpt lat="44.98759" lon="4.86104">
        <ele>115.59999847412</ele>
        <time>2024-05-21T11:08:19.000Z</time>
      </trkpt>
      <trkpt lat="44.98756" lon="4.86097">
        <ele>115.59999847412</ele>
        <time>2024-05-21T11:08:20.000Z</time>
      </trkpt>
      <trkpt lat="44.98752" lon="4.86091">
        <ele>115.59999847412</ele>
        <time>2024-05-21T11:08:21.000Z</time>
      </trkpt>
      <trkpt lat="44.98748" lon="4.86084">
        <ele>115.59999847412</ele>
        <time>2024-05-21T11:08:22.000Z</time>
      </trkpt>
      <trkpt lat="44.98744" lon="4.86078">
        <ele>115.59999847412</ele>
        <time>2024-05-21T11:08:23.000Z</time>
      </trkpt>
      <trkpt lat="44.98741" lon="4.86071">
        <ele>115.59999847412</ele>
        <time>2024-05-21T11:08:24.000Z</time>
      </trkpt>
      <trkpt lat="44.98737" lon="4.86064">
        <ele>115.40000152588</ele>
        <time>2024-05-21T11:08:25.000Z</time>
      </trkpt>
      <trkpt lat="44.98733" lon="4.86057">
        <ele>115.40000152588</ele>
        <time>2024-05-21T11:08:26.000Z</time>
      </trkpt>
      <trkpt lat="44.9873" lon="4.86051">
        <ele>115.40000152588</ele>
        <time>2024-05-21T11:08:27.000Z</time>
      </trkpt>
      <trkpt lat="44.98726" lon="4.86044">
        <ele>115.19999694824</ele>
        <time>2024-05-21T11:08:28.000Z</time>
      </trkpt>
      <trkpt lat="44.98722" lon="4.86037">
        <ele>115.19999694824</ele>
        <time>2024-05-21T11:08:29.000Z</time>
      </trkpt>
      <trkpt lat="44.98718" lon="4.8603">
        <ele>115.19999694824</ele>
        <time>2024-05-21T11:08:30.000Z</time>
      </trkpt>
      <trkpt lat="44.98714" lon="4.86022">
        <ele>115.19999694824</ele>
        <time>2024-05-21T11:08:31.000Z</time>
      </trkpt>
      <trkpt lat="44.9871" lon="4.86015">
        <ele>115.19999694824</ele>
        <time>2024-05-21T11:08:32.000Z</time>
      </trkpt>
      <trkpt lat="44.98706" lon="4.86008">
        <ele>115.19999694824</ele>
        <time>2024-05-21T11:08:33.000Z</time>
      </trkpt>
      <trkpt lat="44.98702" lon="4.86001">
        <ele>115</ele>
        <time>2024-05-21T11:08:34.000Z</time>
      </trkpt>
      <trkpt lat="44.98698" lon="4.85995">
        <ele>115</ele>
        <time>2024-05-21T11:08:35.000Z</time>
      </trkpt>
      <trkpt lat="44.98695" lon="4.85988">
        <ele>115</ele>
        <time>2024-05-21T11:08:36.000Z</time>
      </trkpt>
      <trkpt lat="44.98691" lon="4.85982">
        <ele>114.80000305176</ele>
        <time>2024-05-21T11:08:37.000Z</time>
      </trkpt>
      <trkpt lat="44.98688" lon="4.85976">
        <ele>115</ele>
        <time>2024-05-21T11:08:38.000Z</time>
      </trkpt>
      <trkpt lat="44.98685" lon="4.8597">
        <ele>115</ele>
        <time>2024-05-21T11:08:39.000Z</time>
      </trkpt>
      <trkpt lat="44.98682" lon="4.85964">
        <ele>115</ele>
        <time>2024-05-21T11:08:40.000Z</time>
      </trkpt>
      <trkpt lat="44.98679" lon="4.85958">
        <ele>115</ele>
        <time>2024-05-21T11:08:41.000Z</time>
      </trkpt>
      <trkpt lat="44.98676" lon="4.85952">
        <ele>115</ele>
        <time>2024-05-21T11:08:42.000Z</time>
      </trkpt>
      <trkpt lat="44.98672" lon="4.85945">
        <ele>115</ele>
        <time>2024-05-21T11:08:43.000Z</time>
      </trkpt>
      <trkpt lat="44.98668" lon="4.85939">
        <ele>115</ele>
        <time>2024-05-21T11:08:44.000Z</time>
      </trkpt>
      <trkpt lat="44.98665" lon="4.85933">
        <ele>114.59999847412</ele>
        <time>2024-05-21T11:08:45.000Z</time>
      </trkpt>
      <trkpt lat="44.98661" lon="4.85927">
        <ele>114.59999847412</ele>
        <time>2024-05-21T11:08:46.000Z</time>
      </trkpt>
      <trkpt lat="44.98657" lon="4.85921">
        <ele>114.59999847412</ele>
        <time>2024-05-21T11:08:47.000Z</time>
      </trkpt>
      <trkpt lat="44.98654" lon="4.85914">
        <ele>114.59999847412</ele>
        <time>2024-05-21T11:08:48.000Z</time>
      </trkpt>
      <trkpt lat="44.9865" lon="4.85908">
        <ele>114.59999847412</ele>
        <time>2024-05-21T11:08:49.000Z</time>
      </trkpt>
      <trkpt lat="44.98646" lon="4.85902">
        <ele>114.59999847412</ele>
        <time>2024-05-21T11:08:50.000Z</time>
      </trkpt>
      <trkpt lat="44.98643" lon="4.85896">
        <ele>114.59999847412</ele>
        <time>2024-05-21T11:08:51.000Z</time>
      </trkpt>
      <trkpt lat="44.98639" lon="4.85889">
        <ele>114.59999847412</ele>
        <time>2024-05-21T11:08:52.000Z</time>
      </trkpt>
      <trkpt lat="44.98636" lon="4.85883">
        <ele>114.59999847412</ele>
        <time>2024-05-21T11:08:53.000Z</time>
      </trkpt>
      <trkpt lat="44.98633" lon="4.85877">
        <ele>114.40000152588</ele>
        <time>2024-05-21T11:08:54.000Z</time>
      </trkpt>
      <trkpt lat="44.98629" lon="4.85871">
        <ele>114.40000152588</ele>
        <time>2024-05-21T11:08:55.000Z</time>
      </trkpt>
      <trkpt lat="44.98626" lon="4.85865">
        <ele>114.59999847412</ele>
        <time>2024-05-21T11:08:56.000Z</time>
      </trkpt>
      <trkpt lat="44.98622" lon="4.85859">
        <ele>114.59999847412</ele>
        <time>2024-05-21T11:08:57.000Z</time>
      </trkpt>
      <trkpt lat="44.98619" lon="4.85852">
        <ele>114.59999847412</ele>
        <time>2024-05-21T11:08:58.000Z</time>
      </trkpt>
      <trkpt lat="44.98615" lon="4.85846">
        <ele>114.59999847412</ele>
        <time>2024-05-21T11:08:59.000Z</time>
      </trkpt>
      <trkpt lat="44.98612" lon="4.8584">
        <ele>114.59999847412</ele>
        <time>2024-05-21T11:09:00.000Z</time>
      </trkpt>
      <trkpt lat="44.98608" lon="4.85833">
        <ele>114.59999847412</ele>
        <time>2024-05-21T11:09:01.000Z</time>
      </trkpt>
      <trkpt lat="44.98605" lon="4.85827">
        <ele>114.59999847412</ele>
        <time>2024-05-21T11:09:02.000Z</time>
      </trkpt>
      <trkpt lat="44.98601" lon="4.85821">
        <ele>114.40000152588</ele>
        <time>2024-05-21T11:09:03.000Z</time>
      </trkpt>
      <trkpt lat="44.98598" lon="4.85814">
        <ele>114.40000152588</ele>
        <time>2024-05-21T11:09:04.000Z</time>
      </trkpt>
      <trkpt lat="44.98594" lon="4.85808">
        <ele>114.40000152588</ele>
        <time>2024-05-21T11:09:05.000Z</time>
      </trkpt>
      <trkpt lat="44.98591" lon="4.85802">
        <ele>114.19999694824</ele>
        <time>2024-05-21T11:09:06.000Z</time>
      </trkpt>
      <trkpt lat="44.98587" lon="4.85796">
        <ele>114.19999694824</ele>
        <time>2024-05-21T11:09:07.000Z</time>
      </trkpt>
      <trkpt lat="44.98584" lon="4.8579">
        <ele>114.19999694824</ele>
        <time>2024-05-21T11:09:08.000Z</time>
      </trkpt>
      <trkpt lat="44.9858" lon="4.85783">
        <ele>114.40000152588</ele>
        <time>2024-05-21T11:09:09.000Z</time>
      </trkpt>
      <trkpt lat="44.98577" lon="4.85777">
        <ele>114.40000152588</ele>
        <time>2024-05-21T11:09:10.000Z</time>
      </trkpt>
      <trkpt lat="44.98573" lon="4.85771">
        <ele>114.59999847412</ele>
        <time>2024-05-21T11:09:11.000Z</time>
      </trkpt>
      <trkpt lat="44.9857" lon="4.85765">
        <ele>114.40000152588</ele>
        <time>2024-05-21T11:09:12.000Z</time>
      </trkpt>
      <trkpt lat="44.98566" lon="4.85758">
        <ele>114.40000152588</ele>
        <time>2024-05-21T11:09:13.000Z</time>
      </trkpt>
      <trkpt lat="44.98563" lon="4.85752">
        <ele>114.40000152588</ele>
        <time>2024-05-21T11:09:14.000Z</time>
      </trkpt>
      <trkpt lat="44.98559" lon="4.85747">
        <ele>114.40000152588</ele>
        <time>2024-05-21T11:09:15.000Z</time>
      </trkpt>
      <trkpt lat="44.98555" lon="4.85741">
        <ele>114.40000152588</ele>
        <time>2024-05-21T11:09:16.000Z</time>
      </trkpt>
      <trkpt lat="44.98551" lon="4.85736">
        <ele>114.40000152588</ele>
        <time>2024-05-21T11:09:17.000Z</time>
      </trkpt>
      <trkpt lat="44.98547" lon="4.85731">
        <ele>114.40000152588</ele>
        <time>2024-05-21T11:09:18.000Z</time>
      </trkpt>
      <trkpt lat="44.98542" lon="4.85727">
        <ele>114.80000305176</ele>
        <time>2024-05-21T11:09:19.000Z</time>
      </trkpt>
      <trkpt lat="44.98538" lon="4.85724">
        <ele>115</ele>
        <time>2024-05-21T11:09:20.000Z</time>
      </trkpt>
      <trkpt lat="44.98534" lon="4.85721">
        <ele>115.19999694824</ele>
        <time>2024-05-21T11:09:21.000Z</time>
      </trkpt>
      <trkpt lat="44.9853" lon="4.85718">
        <ele>115.40000152588</ele>
        <time>2024-05-21T11:09:22.000Z</time>
      </trkpt>
      <trkpt lat="44.98525" lon="4.85716">
        <ele>115.80000305176</ele>
        <time>2024-05-21T11:09:23.000Z</time>
      </trkpt>
      <trkpt lat="44.98521" lon="4.85713">
        <ele>116</ele>
        <time>2024-05-21T11:09:24.000Z</time>
      </trkpt>
      <trkpt lat="44.98517" lon="4.85711">
        <ele>116.19999694824</ele>
        <time>2024-05-21T11:09:25.000Z</time>
      </trkpt>
      <trkpt lat="44.98513" lon="4.85709">
        <ele>116.59999847412</ele>
        <time>2024-05-21T11:09:26.000Z</time>
      </trkpt>
      <trkpt lat="44.98509" lon="4.85708">
        <ele>116.80000305176</ele>
        <time>2024-05-21T11:09:27.000Z</time>
      </trkpt>
      <trkpt lat="44.98505" lon="4.85707">
        <ele>117</ele>
        <time>2024-05-21T11:09:28.000Z</time>
      </trkpt>
      <trkpt lat="44.98501" lon="4.85707">
        <ele>117.19999694824</ele>
        <time>2024-05-21T11:09:29.000Z</time>
      </trkpt>
      <trkpt lat="44.98497" lon="4.85706">
        <ele>117.40000152588</ele>
        <time>2024-05-21T11:09:30.000Z</time>
      </trkpt>
      <trkpt lat="44.98493" lon="4.85706">
        <ele>117.40000152588</ele>
        <time>2024-05-21T11:09:31.000Z</time>
      </trkpt>
      <trkpt lat="44.98489" lon="4.85707">
        <ele>117.80000305176</ele>
        <time>2024-05-21T11:09:32.000Z</time>
      </trkpt>
      <trkpt lat="44.98485" lon="4.85707">
        <ele>118</ele>
        <time>2024-05-21T11:09:33.000Z</time>
      </trkpt>
      <trkpt lat="44.98481" lon="4.85708">
        <ele>118.40000152588</ele>
        <time>2024-05-21T11:09:34.000Z</time>
      </trkpt>
      <trkpt lat="44.98476" lon="4.85709">
        <ele>118.40000152588</ele>
        <time>2024-05-21T11:09:35.000Z</time>
      </trkpt>
      <trkpt lat="44.98472" lon="4.8571">
        <ele>118.59999847412</ele>
        <time>2024-05-21T11:09:36.000Z</time>
      </trkpt>
      <trkpt lat="44.98469" lon="4.85711">
        <ele>119</ele>
        <time>2024-05-21T11:09:37.000Z</time>
      </trkpt>
      <trkpt lat="44.98465" lon="4.85712">
        <ele>119.19999694824</ele>
        <time>2024-05-21T11:09:38.000Z</time>
      </trkpt>
      <trkpt lat="44.98461" lon="4.85713">
        <ele>119.59999847412</ele>
        <time>2024-05-21T11:09:39.000Z</time>
      </trkpt>
      <trkpt lat="44.98457" lon="4.85714">
        <ele>120</ele>
        <time>2024-05-21T11:09:40.000Z</time>
      </trkpt>
      <trkpt lat="44.98453" lon="4.85714">
        <ele>120.40000152588</ele>
        <time>2024-05-21T11:09:41.000Z</time>
      </trkpt>
      <trkpt lat="44.9845" lon="4.85715">
        <ele>120.59999847412</ele>
        <time>2024-05-21T11:09:42.000Z</time>
      </trkpt>
      <trkpt lat="44.98446" lon="4.85716">
        <ele>120.59999847412</ele>
        <time>2024-05-21T11:09:43.000Z</time>
      </trkpt>
      <trkpt lat="44.98443" lon="4.85717">
        <ele>121</ele>
        <time>2024-05-21T11:09:44.000Z</time>
      </trkpt>
      <trkpt lat="44.98439" lon="4.85719">
        <ele>121.40000152588</ele>
        <time>2024-05-21T11:09:45.000Z</time>
      </trkpt>
      <trkpt lat="44.98435" lon="4.8572">
        <ele>121.59999847412</ele>
        <time>2024-05-21T11:09:46.000Z</time>
      </trkpt>
      <trkpt lat="44.98432" lon="4.85721">
        <ele>122</ele>
        <time>2024-05-21T11:09:47.000Z</time>
      </trkpt>
      <trkpt lat="44.98428" lon="4.85721">
        <ele>122.19999694824</ele>
        <time>2024-05-21T11:09:48.000Z</time>
      </trkpt>
      <trkpt lat="44.98425" lon="4.85722">
        <ele>122.40000152588</ele>
        <time>2024-05-21T11:09:49.000Z</time>
      </trkpt>
      <trkpt lat="44.98421" lon="4.85723">
        <ele>122.59999847412</ele>
        <time>2024-05-21T11:09:50.000Z</time>
      </trkpt>
      <trkpt lat="44.98418" lon="4.85724">
        <ele>122.59999847412</ele>
        <time>2024-05-21T11:09:51.000Z</time>
      </trkpt>
      <trkpt lat="44.98414" lon="4.85725">
        <ele>122.59999847412</ele>
        <time>2024-05-21T11:09:52.000Z</time>
      </trkpt>
      <trkpt lat="44.98411" lon="4.85726">
        <ele>122.59999847412</ele>
        <time>2024-05-21T11:09:53.000Z</time>
      </trkpt>
      <trkpt lat="44.98407" lon="4.85727">
        <ele>122.80000305176</ele>
        <time>2024-05-21T11:09:54.000Z</time>
      </trkpt>
      <trkpt lat="44.98403" lon="4.85728">
        <ele>122.80000305176</ele>
        <time>2024-05-21T11:09:55.000Z</time>
      </trkpt>
      <trkpt lat="44.98399" lon="4.85729">
        <ele>122.80000305176</ele>
        <time>2024-05-21T11:09:56.000Z</time>
      </trkpt>
      <trkpt lat="44.98395" lon="4.8573">
        <ele>122.80000305176</ele>
        <time>2024-05-21T11:09:57.000Z</time>
      </trkpt>
      <trkpt lat="44.98391" lon="4.85731">
        <ele>122.59999847412</ele>
        <time>2024-05-21T11:09:58.000Z</time>
      </trkpt>
      <trkpt lat="44.98386" lon="4.85732">
        <ele>122.59999847412</ele>
        <time>2024-05-21T11:09:59.000Z</time>
      </trkpt>
      <trkpt lat="44.98382" lon="4.85733">
        <ele>122.59999847412</ele>
        <time>2024-05-21T11:10:00.000Z</time>
      </trkpt>
      <trkpt lat="44.98377" lon="4.85734">
        <ele>122.59999847412</ele>
        <time>2024-05-21T11:10:01.000Z</time>
      </trkpt>
      <trkpt lat="44.98373" lon="4.85735">
        <ele>122.59999847412</ele>
        <time>2024-05-21T11:10:02.000Z</time>
      </trkpt>
      <trkpt lat="44.98368" lon="4.85736">
        <ele>122.59999847412</ele>
        <time>2024-05-21T11:10:03.000Z</time>
      </trkpt>
      <trkpt lat="44.98364" lon="4.85737">
        <ele>122.80000305176</ele>
        <time>2024-05-21T11:10:04.000Z</time>
      </trkpt>
      <trkpt lat="44.98359" lon="4.85738">
        <ele>122.80000305176</ele>
        <time>2024-05-21T11:10:05.000Z</time>
      </trkpt>
      <trkpt lat="44.98355" lon="4.85739">
        <ele>122.80000305176</ele>
        <time>2024-05-21T11:10:06.000Z</time>
      </trkpt>
      <trkpt lat="44.9835" lon="4.85739">
        <ele>122.80000305176</ele>
        <time>2024-05-21T11:10:07.000Z</time>
      </trkpt>
      <trkpt lat="44.98345" lon="4.8574">
        <ele>122.80000305176</ele>
        <time>2024-05-21T11:10:08.000Z</time>
      </trkpt>
      <trkpt lat="44.98341" lon="4.8574">
        <ele>122.59999847412</ele>
        <time>2024-05-21T11:10:09.000Z</time>
      </trkpt>
      <trkpt lat="44.98336" lon="4.8574">
        <ele>122.59999847412</ele>
        <time>2024-05-21T11:10:10.000Z</time>
      </trkpt>
      <trkpt lat="44.98331" lon="4.85739">
        <ele>122.40000152588</ele>
        <time>2024-05-21T11:10:11.000Z</time>
      </trkpt>
      <trkpt lat="44.98326" lon="4.85737">
        <ele>122.40000152588</ele>
        <time>2024-05-21T11:10:12.000Z</time>
      </trkpt>
      <trkpt lat="44.98321" lon="4.85733">
        <ele>122.40000152588</ele>
        <time>2024-05-21T11:10:13.000Z</time>
      </trkpt>
      <trkpt lat="44.98316" lon="4.85729">
        <ele>122.40000152588</ele>
        <time>2024-05-21T11:10:14.000Z</time>
      </trkpt>
      <trkpt lat="44.98311" lon="4.85723">
        <ele>122.40000152588</ele>
        <time>2024-05-21T11:10:15.000Z</time>
      </trkpt>
      <trkpt lat="44.98306" lon="4.85717">
        <ele>122.19999694824</ele>
        <time>2024-05-21T11:10:16.000Z</time>
      </trkpt>
      <trkpt lat="44.98301" lon="4.8571">
        <ele>122</ele>
        <time>2024-05-21T11:10:17.000Z</time>
      </trkpt>
      <trkpt lat="44.98296" lon="4.85703">
        <ele>121.59999847412</ele>
        <time>2024-05-21T11:10:18.000Z</time>
      </trkpt>
      <trkpt lat="44.98291" lon="4.85696">
        <ele>121.19999694824</ele>
        <time>2024-05-21T11:10:19.000Z</time>
      </trkpt>
      <trkpt lat="44.98285" lon="4.85689">
        <ele>121</ele>
        <time>2024-05-21T11:10:20.000Z</time>
      </trkpt>
      <trkpt lat="44.98279" lon="4.85684">
        <ele>120.59999847412</ele>
        <time>2024-05-21T11:10:21.000Z</time>
      </trkpt>
      <trkpt lat="44.98272" lon="4.85679">
        <ele>120</ele>
        <time>2024-05-21T11:10:22.000Z</time>
      </trkpt>
      <trkpt lat="44.98265" lon="4.85675">
        <ele>119.40000152588</ele>
        <time>2024-05-21T11:10:23.000Z</time>
      </trkpt>
      <trkpt lat="44.98258" lon="4.85671">
        <ele>119</ele>
        <time>2024-05-21T11:10:24.000Z</time>
      </trkpt>
      <trkpt lat="44.98251" lon="4.85668">
        <ele>118.80000305176</ele>
        <time>2024-05-21T11:10:25.000Z</time>
      </trkpt>
      <trkpt lat="44.98245" lon="4.85666">
        <ele>118.40000152588</ele>
        <time>2024-05-21T11:10:26.000Z</time>
      </trkpt>
      <trkpt lat="44.98238" lon="4.85663">
        <ele>118.19999694824</ele>
        <time>2024-05-21T11:10:27.000Z</time>
      </trkpt>
      <trkpt lat="44.98232" lon="4.85661">
        <ele>118.19999694824</ele>
        <time>2024-05-21T11:10:28.000Z</time>
      </trkpt>
      <trkpt lat="44.98226" lon="4.85658">
        <ele>118.19999694824</ele>
        <time>2024-05-21T11:10:29.000Z</time>
      </trkpt>
      <trkpt lat="44.98219" lon="4.85655">
        <ele>118.19999694824</ele>
        <time>2024-05-21T11:10:30.000Z</time>
      </trkpt>
      <trkpt lat="44.98213" lon="4.85653">
        <ele>118.40000152588</ele>
        <time>2024-05-21T11:10:31.000Z</time>
      </trkpt>
      <trkpt lat="44.98207" lon="4.85651">
        <ele>118.40000152588</ele>
        <time>2024-05-21T11:10:32.000Z</time>
      </trkpt>
      <trkpt lat="44.98201" lon="4.85648">
        <ele>118.40000152588</ele>
        <time>2024-05-21T11:10:33.000Z</time>
      </trkpt>
      <trkpt lat="44.98194" lon="4.85646">
        <ele>118.40000152588</ele>
        <time>2024-05-21T11:10:34.000Z</time>
      </trkpt>
      <trkpt lat="44.98188" lon="4.85644">
        <ele>118.19999694824</ele>
        <time>2024-05-21T11:10:35.000Z</time>
      </trkpt>
      <trkpt lat="44.98182" lon="4.85642">
        <ele>118.19999694824</ele>
        <time>2024-05-21T11:10:36.000Z</time>
      </trkpt>
      <trkpt lat="44.98176" lon="4.8564">
        <ele>118.19999694824</ele>
        <time>2024-05-21T11:10:37.000Z</time>
      </trkpt>
      <trkpt lat="44.9817" lon="4.85638">
        <ele>118.19999694824</ele>
        <time>2024-05-21T11:10:38.000Z</time>
      </trkpt>
      <trkpt lat="44.98164" lon="4.85636">
        <ele>118.19999694824</ele>
        <time>2024-05-21T11:10:39.000Z</time>
      </trkpt>
      <trkpt lat="44.98158" lon="4.85634">
        <ele>118.19999694824</ele>
        <time>2024-05-21T11:10:40.000Z</time>
      </trkpt>
      <trkpt lat="44.98151" lon="4.85632">
        <ele>118.19999694824</ele>
        <time>2024-05-21T11:10:41.000Z</time>
      </trkpt>
      <trkpt lat="44.98145" lon="4.8563">
        <ele>118.19999694824</ele>
        <time>2024-05-21T11:10:42.000Z</time>
      </trkpt>
      <trkpt lat="44.98139" lon="4.85628">
        <ele>118.19999694824</ele>
        <time>2024-05-21T11:10:43.000Z</time>
      </trkpt>
      <trkpt lat="44.98133" lon="4.85627">
        <ele>118.19999694824</ele>
        <time>2024-05-21T11:10:44.000Z</time>
      </trkpt>
      <trkpt lat="44.98127" lon="4.85625">
        <ele>118.19999694824</ele>
        <time>2024-05-21T11:10:45.000Z</time>
      </trkpt>
      <trkpt lat="44.98121" lon="4.85623">
        <ele>118.19999694824</ele>
        <time>2024-05-21T11:10:46.000Z</time>
      </trkpt>
      <trkpt lat="44.98115" lon="4.85622">
        <ele>118</ele>
        <time>2024-05-21T11:10:47.000Z</time>
      </trkpt>
      <trkpt lat="44.98109" lon="4.8562">
        <ele>118</ele>
        <time>2024-05-21T11:10:48.000Z</time>
      </trkpt>
      <trkpt lat="44.98102" lon="4.85619">
        <ele>118</ele>
        <time>2024-05-21T11:10:49.000Z</time>
      </trkpt>
      <trkpt lat="44.98096" lon="4.85617">
        <ele>118</ele>
        <time>2024-05-21T11:10:50.000Z</time>
      </trkpt>
      <trkpt lat="44.9809" lon="4.85616">
        <ele>118.19999694824</ele>
        <time>2024-05-21T11:10:51.000Z</time>
      </trkpt>
      <trkpt lat="44.98084" lon="4.85615">
        <ele>118.19999694824</ele>
        <time>2024-05-21T11:10:52.000Z</time>
      </trkpt>
      <trkpt lat="44.98078" lon="4.85614">
        <ele>118.19999694824</ele>
        <time>2024-05-21T11:10:53.000Z</time>
      </trkpt>
      <trkpt lat="44.98072" lon="4.85612">
        <ele>118.19999694824</ele>
        <time>2024-05-21T11:10:54.000Z</time>
      </trkpt>
      <trkpt lat="44.98066" lon="4.85611">
        <ele>118.19999694824</ele>
        <time>2024-05-21T11:10:55.000Z</time>
      </trkpt>
      <trkpt lat="44.9806" lon="4.8561">
        <ele>118.19999694824</ele>
        <time>2024-05-21T11:10:56.000Z</time>
      </trkpt>
      <trkpt lat="44.98054" lon="4.85609">
        <ele>118.19999694824</ele>
        <time>2024-05-21T11:10:57.000Z</time>
      </trkpt>
      <trkpt lat="44.98048" lon="4.85608">
        <ele>118.40000152588</ele>
        <time>2024-05-21T11:10:58.000Z</time>
      </trkpt>
      <trkpt lat="44.98042" lon="4.85607">
        <ele>118.40000152588</ele>
        <time>2024-05-21T11:10:59.000Z</time>
      </trkpt>
      <trkpt lat="44.98035" lon="4.85607">
        <ele>118.40000152588</ele>
        <time>2024-05-21T11:11:00.000Z</time>
      </trkpt>
      <trkpt lat="44.98029" lon="4.85607">
        <ele>118.59999847412</ele>
        <time>2024-05-21T11:11:01.000Z</time>
      </trkpt>
      <trkpt lat="44.98022" lon="4.85606">
        <ele>118.59999847412</ele>
        <time>2024-05-21T11:11:02.000Z</time>
      </trkpt>
      <trkpt lat="44.98017" lon="4.85605">
        <ele>118.59999847412</ele>
        <time>2024-05-21T11:11:03.000Z</time>
      </trkpt>
      <trkpt lat="44.98011" lon="4.85605">
        <ele>118.59999847412</ele>
        <time>2024-05-21T11:11:04.000Z</time>
      </trkpt>
      <trkpt lat="44.98004" lon="4.85604">
        <ele>118.59999847412</ele>
        <time>2024-05-21T11:11:05.000Z</time>
      </trkpt>
      <trkpt lat="44.97999" lon="4.85603">
        <ele>118.59999847412</ele>
        <time>2024-05-21T11:11:06.000Z</time>
      </trkpt>
      <trkpt lat="44.97993" lon="4.85603">
        <ele>118.59999847412</ele>
        <time>2024-05-21T11:11:07.000Z</time>
      </trkpt>
      <trkpt lat="44.97985" lon="4.85602">
        <ele>118.59999847412</ele>
        <time>2024-05-21T11:11:08.000Z</time>
      </trkpt>
      <trkpt lat="44.9798" lon="4.85602">
        <ele>118.59999847412</ele>
        <time>2024-05-21T11:11:09.000Z</time>
      </trkpt>
      <trkpt lat="44.97973" lon="4.85601">
        <ele>118.59999847412</ele>
        <time>2024-05-21T11:11:10.000Z</time>
      </trkpt>
      <trkpt lat="44.97968" lon="4.85601">
        <ele>118.59999847412</ele>
        <time>2024-05-21T11:11:11.000Z</time>
      </trkpt>
      <trkpt lat="44.97962" lon="4.85601">
        <ele>118.80000305176</ele>
        <time>2024-05-21T11:11:12.000Z</time>
      </trkpt>
      <trkpt lat="44.97956" lon="4.85601">
        <ele>118.80000305176</ele>
        <time>2024-05-21T11:11:13.000Z</time>
      </trkpt>
      <trkpt lat="44.97948" lon="4.856">
        <ele>118.80000305176</ele>
        <time>2024-05-21T11:11:14.000Z</time>
      </trkpt>
      <trkpt lat="44.97943" lon="4.856">
        <ele>119</ele>
        <time>2024-05-21T11:11:15.000Z</time>
      </trkpt>
      <trkpt lat="44.97937" lon="4.856">
        <ele>119</ele>
        <time>2024-05-21T11:11:16.000Z</time>
      </trkpt>
      <trkpt lat="44.9793" lon="4.856">
        <ele>119</ele>
        <time>2024-05-21T11:11:17.000Z</time>
      </trkpt>
      <trkpt lat="44.97925" lon="4.856">
        <ele>119</ele>
        <time>2024-05-21T11:11:18.000Z</time>
      </trkpt>
      <trkpt lat="44.97919" lon="4.856">
        <ele>119</ele>
        <time>2024-05-21T11:11:19.000Z</time>
      </trkpt>
      <trkpt lat="44.97913" lon="4.856">
        <ele>119</ele>
        <time>2024-05-21T11:11:20.000Z</time>
      </trkpt>
      <trkpt lat="44.97906" lon="4.856">
        <ele>119</ele>
        <time>2024-05-21T11:11:21.000Z</time>
      </trkpt>
      <trkpt lat="44.979" lon="4.856">
        <ele>119</ele>
        <time>2024-05-21T11:11:22.000Z</time>
      </trkpt>
      <trkpt lat="44.97893" lon="4.85601">
        <ele>119</ele>
        <time>2024-05-21T11:11:23.000Z</time>
      </trkpt>
      <trkpt lat="44.97888" lon="4.85601">
        <ele>118.80000305176</ele>
        <time>2024-05-21T11:11:24.000Z</time>
      </trkpt>
      <trkpt lat="44.97882" lon="4.85601">
        <ele>118.80000305176</ele>
        <time>2024-05-21T11:11:25.000Z</time>
      </trkpt>
      <trkpt lat="44.97875" lon="4.85602">
        <ele>118.80000305176</ele>
        <time>2024-05-21T11:11:26.000Z</time>
      </trkpt>
      <trkpt lat="44.9787" lon="4.85602">
        <ele>118.80000305176</ele>
        <time>2024-05-21T11:11:27.000Z</time>
      </trkpt>
      <trkpt lat="44.97864" lon="4.85602">
        <ele>118.80000305176</ele>
        <time>2024-05-21T11:11:28.000Z</time>
      </trkpt>
      <trkpt lat="44.97856" lon="4.85602">
        <ele>118.80000305176</ele>
        <time>2024-05-21T11:11:29.000Z</time>
      </trkpt>
      <trkpt lat="44.97852" lon="4.85603">
        <ele>118.80000305176</ele>
        <time>2024-05-21T11:11:30.000Z</time>
      </trkpt>
      <trkpt lat="44.97845" lon="4.85604">
        <ele>118.80000305176</ele>
        <time>2024-05-21T11:11:31.000Z</time>
      </trkpt>
      <trkpt lat="44.97838" lon="4.85604">
        <ele>118.80000305176</ele>
        <time>2024-05-21T11:11:32.000Z</time>
      </trkpt>
      <trkpt lat="44.97833" lon="4.85605">
        <ele>118.80000305176</ele>
        <time>2024-05-21T11:11:33.000Z</time>
      </trkpt>
      <trkpt lat="44.97827" lon="4.85605">
        <ele>118.59999847412</ele>
        <time>2024-05-21T11:11:34.000Z</time>
      </trkpt>
      <trkpt lat="44.9782" lon="4.85606">
        <ele>118.59999847412</ele>
        <time>2024-05-21T11:11:35.000Z</time>
      </trkpt>
      <trkpt lat="44.97815" lon="4.85607">
        <ele>118.59999847412</ele>
        <time>2024-05-21T11:11:36.000Z</time>
      </trkpt>
      <trkpt lat="44.97809" lon="4.85608">
        <ele>118.59999847412</ele>
        <time>2024-05-21T11:11:37.000Z</time>
      </trkpt>
      <trkpt lat="44.97802" lon="4.85609">
        <ele>118.59999847412</ele>
        <time>2024-05-21T11:11:38.000Z</time>
      </trkpt>
      <trkpt lat="44.97797" lon="4.8561">
        <ele>118.59999847412</ele>
        <time>2024-05-21T11:11:39.000Z</time>
      </trkpt>
      <trkpt lat="44.97791" lon="4.8561">
        <ele>118.59999847412</ele>
        <time>2024-05-21T11:11:40.000Z</time>
      </trkpt>
      <trkpt lat="44.97785" lon="4.85611">
        <ele>118.40000152588</ele>
        <time>2024-05-21T11:11:41.000Z</time>
      </trkpt>
      <trkpt lat="44.97779" lon="4.85613">
        <ele>118.40000152588</ele>
        <time>2024-05-21T11:11:42.000Z</time>
      </trkpt>
      <trkpt lat="44.97773" lon="4.85614">
        <ele>118.40000152588</ele>
        <time>2024-05-21T11:11:43.000Z</time>
      </trkpt>
      <trkpt lat="44.97766" lon="4.85615">
        <ele>118.59999847412</ele>
        <time>2024-05-21T11:11:44.000Z</time>
      </trkpt>
      <trkpt lat="44.97761" lon="4.85616">
        <ele>118.59999847412</ele>
        <time>2024-05-21T11:11:45.000Z</time>
      </trkpt>
      <trkpt lat="44.97754" lon="4.85617">
        <ele>118.59999847412</ele>
        <time>2024-05-21T11:11:46.000Z</time>
      </trkpt>
      <trkpt lat="44.97747" lon="4.85618">
        <ele>118.80000305176</ele>
        <time>2024-05-21T11:11:47.000Z</time>
      </trkpt>
      <trkpt lat="44.97742" lon="4.85619">
        <ele>118.80000305176</ele>
        <time>2024-05-21T11:11:48.000Z</time>
      </trkpt>
      <trkpt lat="44.97735" lon="4.85621">
        <ele>118.59999847412</ele>
        <time>2024-05-21T11:11:49.000Z</time>
      </trkpt>
      <trkpt lat="44.97729" lon="4.85622">
        <ele>118.59999847412</ele>
        <time>2024-05-21T11:11:50.000Z</time>
      </trkpt>
      <trkpt lat="44.97724" lon="4.85624">
        <ele>118.59999847412</ele>
        <time>2024-05-21T11:11:51.000Z</time>
      </trkpt>
      <trkpt lat="44.97717" lon="4.85625">
        <ele>118.80000305176</ele>
        <time>2024-05-21T11:11:52.000Z</time>
      </trkpt>
      <trkpt lat="44.97711" lon="4.85627">
        <ele>118.59999847412</ele>
        <time>2024-05-21T11:11:53.000Z</time>
      </trkpt>
      <trkpt lat="44.97706" lon="4.85628">
        <ele>118.59999847412</ele>
        <time>2024-05-21T11:11:54.000Z</time>
      </trkpt>
      <trkpt lat="44.97699" lon="4.8563">
        <ele>118.59999847412</ele>
        <time>2024-05-21T11:11:55.000Z</time>
      </trkpt>
      <trkpt lat="44.97692" lon="4.85631">
        <ele>118.59999847412</ele>
        <time>2024-05-21T11:11:56.000Z</time>
      </trkpt>
      <trkpt lat="44.97688" lon="4.85633">
        <ele>118.59999847412</ele>
        <time>2024-05-21T11:11:57.000Z</time>
      </trkpt>
      <trkpt lat="44.9768" lon="4.85635">
        <ele>118.59999847412</ele>
        <time>2024-05-21T11:11:58.000Z</time>
      </trkpt>
      <trkpt lat="44.97674" lon="4.85637">
        <ele>118.59999847412</ele>
        <time>2024-05-21T11:11:59.000Z</time>
      </trkpt>
      <trkpt lat="44.9767" lon="4.85638">
        <ele>118.59999847412</ele>
        <time>2024-05-21T11:12:00.000Z</time>
      </trkpt>
      <trkpt lat="44.97664" lon="4.85641">
        <ele>118.59999847412</ele>
        <time>2024-05-21T11:12:01.000Z</time>
      </trkpt>
      <trkpt lat="44.97658" lon="4.85643">
        <ele>118.59999847412</ele>
        <time>2024-05-21T11:12:02.000Z</time>
      </trkpt>
      <trkpt lat="44.97652" lon="4.85645">
        <ele>118.59999847412</ele>
        <time>2024-05-21T11:12:03.000Z</time>
      </trkpt>
      <trkpt lat="44.97645" lon="4.85647">
        <ele>118.59999847412</ele>
        <time>2024-05-21T11:12:04.000Z</time>
      </trkpt>
      <trkpt lat="44.97639" lon="4.8565">
        <ele>118.59999847412</ele>
        <time>2024-05-21T11:12:05.000Z</time>
      </trkpt>
      <trkpt lat="44.97634" lon="4.85651">
        <ele>118.59999847412</ele>
        <time>2024-05-21T11:12:06.000Z</time>
      </trkpt>
      <trkpt lat="44.97627" lon="4.85653">
        <ele>118.59999847412</ele>
        <time>2024-05-21T11:12:07.000Z</time>
      </trkpt>
      <trkpt lat="44.9762" lon="4.85656">
        <ele>118.59999847412</ele>
        <time>2024-05-21T11:12:08.000Z</time>
      </trkpt>
      <trkpt lat="44.97616" lon="4.85658">
        <ele>118.59999847412</ele>
        <time>2024-05-21T11:12:09.000Z</time>
      </trkpt>
      <trkpt lat="44.97609" lon="4.85661">
        <ele>118.59999847412</ele>
        <time>2024-05-21T11:12:10.000Z</time>
      </trkpt>
      <trkpt lat="44.97604" lon="4.85663">
        <ele>118.59999847412</ele>
        <time>2024-05-21T11:12:11.000Z</time>
      </trkpt>
      <trkpt lat="44.97598" lon="4.85665">
        <ele>118.59999847412</ele>
        <time>2024-05-21T11:12:12.000Z</time>
      </trkpt>
      <trkpt lat="44.97591" lon="4.85668">
        <ele>118.59999847412</ele>
        <time>2024-05-21T11:12:13.000Z</time>
      </trkpt>
      <trkpt lat="44.97585" lon="4.8567">
        <ele>118.59999847412</ele>
        <time>2024-05-21T11:12:14.000Z</time>
      </trkpt>
      <trkpt lat="44.9758" lon="4.85672">
        <ele>118.59999847412</ele>
        <time>2024-05-21T11:12:15.000Z</time>
      </trkpt>
      <trkpt lat="44.97573" lon="4.85675">
        <ele>118.59999847412</ele>
        <time>2024-05-21T11:12:16.000Z</time>
      </trkpt>
      <trkpt lat="44.97568" lon="4.85677">
        <ele>118.59999847412</ele>
        <time>2024-05-21T11:12:17.000Z</time>
      </trkpt>
      <trkpt lat="44.97562" lon="4.8568">
        <ele>118.59999847412</ele>
        <time>2024-05-21T11:12:18.000Z</time>
      </trkpt>
      <trkpt lat="44.97555" lon="4.85683">
        <ele>118.59999847412</ele>
        <time>2024-05-21T11:12:19.000Z</time>
      </trkpt>
      <trkpt lat="44.97549" lon="4.85686">
        <ele>118.59999847412</ele>
        <time>2024-05-21T11:12:20.000Z</time>
      </trkpt>
      <trkpt lat="44.97545" lon="4.85688">
        <ele>118.59999847412</ele>
        <time>2024-05-21T11:12:21.000Z</time>
      </trkpt>
      <trkpt lat="44.97537" lon="4.85692">
        <ele>118.59999847412</ele>
        <time>2024-05-21T11:12:22.000Z</time>
      </trkpt>
      <trkpt lat="44.97533" lon="4.85694">
        <ele>118.40000152588</ele>
        <time>2024-05-21T11:12:23.000Z</time>
      </trkpt>
      <trkpt lat="44.97527" lon="4.85697">
        <ele>118.40000152588</ele>
        <time>2024-05-21T11:12:24.000Z</time>
      </trkpt>
      <trkpt lat="44.9752" lon="4.85701">
        <ele>118.40000152588</ele>
        <time>2024-05-21T11:12:25.000Z</time>
      </trkpt>
      <trkpt lat="44.97514" lon="4.85704">
        <ele>118.40000152588</ele>
        <time>2024-05-21T11:12:26.000Z</time>
      </trkpt>
      <trkpt lat="44.97509" lon="4.85706">
        <ele>118.40000152588</ele>
        <time>2024-05-21T11:12:27.000Z</time>
      </trkpt>
      <trkpt lat="44.97502" lon="4.8571">
        <ele>118.40000152588</ele>
        <time>2024-05-21T11:12:28.000Z</time>
      </trkpt>
      <trkpt lat="44.97497" lon="4.85713">
        <ele>118.19999694824</ele>
        <time>2024-05-21T11:12:29.000Z</time>
      </trkpt>
      <trkpt lat="44.97492" lon="4.85716">
        <ele>118.19999694824</ele>
        <time>2024-05-21T11:12:30.000Z</time>
      </trkpt>
      <trkpt lat="44.97485" lon="4.8572">
        <ele>118.19999694824</ele>
        <time>2024-05-21T11:12:31.000Z</time>
      </trkpt>
      <trkpt lat="44.97479" lon="4.85723">
        <ele>118.19999694824</ele>
        <time>2024-05-21T11:12:32.000Z</time>
      </trkpt>
      <trkpt lat="44.97475" lon="4.85726">
        <ele>118.19999694824</ele>
        <time>2024-05-21T11:12:33.000Z</time>
      </trkpt>
      <trkpt lat="44.97468" lon="4.8573">
        <ele>118.19999694824</ele>
        <time>2024-05-21T11:12:34.000Z</time>
      </trkpt>
      <trkpt lat="44.97463" lon="4.85732">
        <ele>118.40000152588</ele>
        <time>2024-05-21T11:12:35.000Z</time>
      </trkpt>
      <trkpt lat="44.97457" lon="4.85736">
        <ele>118.40000152588</ele>
        <time>2024-05-21T11:12:36.000Z</time>
      </trkpt>
      <trkpt lat="44.9745" lon="4.8574">
        <ele>118.19999694824</ele>
        <time>2024-05-21T11:12:37.000Z</time>
      </trkpt>
      <trkpt lat="44.97445" lon="4.85743">
        <ele>118.19999694824</ele>
        <time>2024-05-21T11:12:38.000Z</time>
      </trkpt>
      <trkpt lat="44.9744" lon="4.85746">
        <ele>118.40000152588</ele>
        <time>2024-05-21T11:12:39.000Z</time>
      </trkpt>
      <trkpt lat="44.97433" lon="4.8575">
        <ele>118.40000152588</ele>
        <time>2024-05-21T11:12:40.000Z</time>
      </trkpt>
      <trkpt lat="44.97427" lon="4.85754">
        <ele>118.40000152588</ele>
        <time>2024-05-21T11:12:41.000Z</time>
      </trkpt>
      <trkpt lat="44.97422" lon="4.85757">
        <ele>118.40000152588</ele>
        <time>2024-05-21T11:12:42.000Z</time>
      </trkpt>
      <trkpt lat="44.97415" lon="4.85761">
        <ele>118.59999847412</ele>
        <time>2024-05-21T11:12:43.000Z</time>
      </trkpt>
      <trkpt lat="44.97411" lon="4.85765">
        <ele>118.59999847412</ele>
        <time>2024-05-21T11:12:44.000Z</time>
      </trkpt>
      <trkpt lat="44.97405" lon="4.85768">
        <ele>118.59999847412</ele>
        <time>2024-05-21T11:12:45.000Z</time>
      </trkpt>
      <trkpt lat="44.97398" lon="4.85773">
        <ele>118.80000305176</ele>
        <time>2024-05-21T11:12:46.000Z</time>
      </trkpt>
      <trkpt lat="44.97392" lon="4.85776">
        <ele>118.80000305176</ele>
        <time>2024-05-21T11:12:47.000Z</time>
      </trkpt>
      <trkpt lat="44.97388" lon="4.85779">
        <ele>118.80000305176</ele>
        <time>2024-05-21T11:12:48.000Z</time>
      </trkpt>
      <trkpt lat="44.9738" lon="4.85783">
        <ele>118.80000305176</ele>
        <time>2024-05-21T11:12:49.000Z</time>
      </trkpt>
      <trkpt lat="44.97374" lon="4.85787">
        <ele>118.80000305176</ele>
        <time>2024-05-21T11:12:50.000Z</time>
      </trkpt>
      <trkpt lat="44.97369" lon="4.8579">
        <ele>118.80000305176</ele>
        <time>2024-05-21T11:12:51.000Z</time>
      </trkpt>
      <trkpt lat="44.97362" lon="4.85795">
        <ele>118.80000305176</ele>
        <time>2024-05-21T11:12:52.000Z</time>
      </trkpt>
      <trkpt lat="44.97356" lon="4.85799">
        <ele>118.80000305176</ele>
        <time>2024-05-21T11:12:53.000Z</time>
      </trkpt>
      <trkpt lat="44.97351" lon="4.85802">
        <ele>118.80000305176</ele>
        <time>2024-05-21T11:12:54.000Z</time>
      </trkpt>
      <trkpt lat="44.97344" lon="4.85806">
        <ele>118.59999847412</ele>
        <time>2024-05-21T11:12:55.000Z</time>
      </trkpt>
      <trkpt lat="44.97338" lon="4.8581">
        <ele>118.59999847412</ele>
        <time>2024-05-21T11:12:56.000Z</time>
      </trkpt>
      <trkpt lat="44.97333" lon="4.85813">
        <ele>118.59999847412</ele>
        <time>2024-05-21T11:12:57.000Z</time>
      </trkpt>
      <trkpt lat="44.97326" lon="4.85817">
        <ele>118.59999847412</ele>
        <time>2024-05-21T11:12:58.000Z</time>
      </trkpt>
      <trkpt lat="44.97321" lon="4.8582">
        <ele>118.59999847412</ele>
        <time>2024-05-21T11:12:59.000Z</time>
      </trkpt>
      <trkpt lat="44.97315" lon="4.85824">
        <ele>118.59999847412</ele>
        <time>2024-05-21T11:13:00.000Z</time>
      </trkpt>
      <trkpt lat="44.97308" lon="4.85828">
        <ele>118.59999847412</ele>
        <time>2024-05-21T11:13:01.000Z</time>
      </trkpt>
      <trkpt lat="44.97302" lon="4.85831">
        <ele>118.40000152588</ele>
        <time>2024-05-21T11:13:02.000Z</time>
      </trkpt>
      <trkpt lat="44.97297" lon="4.85834">
        <ele>118.40000152588</ele>
        <time>2024-05-21T11:13:03.000Z</time>
      </trkpt>
      <trkpt lat="44.9729" lon="4.85838">
        <ele>118.40000152588</ele>
        <time>2024-05-21T11:13:04.000Z</time>
      </trkpt>
      <trkpt lat="44.97286" lon="4.85841">
        <ele>118.40000152588</ele>
        <time>2024-05-21T11:13:05.000Z</time>
      </trkpt>
      <trkpt lat="44.9728" lon="4.85845">
        <ele>118.40000152588</ele>
        <time>2024-05-21T11:13:06.000Z</time>
      </trkpt>
      <trkpt lat="44.97274" lon="4.85849">
        <ele>118.40000152588</ele>
        <time>2024-05-21T11:13:07.000Z</time>
      </trkpt>
      <trkpt lat="44.97268" lon="4.85853">
        <ele>118.40000152588</ele>
        <time>2024-05-21T11:13:08.000Z</time>
      </trkpt>
      <trkpt lat="44.97262" lon="4.85856">
        <ele>118.40000152588</ele>
        <time>2024-05-21T11:13:09.000Z</time>
      </trkpt>
      <trkpt lat="44.97255" lon="4.8586">
        <ele>118.40000152588</ele>
        <time>2024-05-21T11:13:10.000Z</time>
      </trkpt>
      <trkpt lat="44.97249" lon="4.85864">
        <ele>118.40000152588</ele>
        <time>2024-05-21T11:13:11.000Z</time>
      </trkpt>
      <trkpt lat="44.97245" lon="4.85867">
        <ele>118.40000152588</ele>
        <time>2024-05-21T11:13:12.000Z</time>
      </trkpt>
      <trkpt lat="44.97238" lon="4.85872">
        <ele>118.40000152588</ele>
        <time>2024-05-21T11:13:13.000Z</time>
      </trkpt>
      <trkpt lat="44.97232" lon="4.85875">
        <ele>118.40000152588</ele>
        <time>2024-05-21T11:13:14.000Z</time>
      </trkpt>
      <trkpt lat="44.97228" lon="4.85878">
        <ele>118.19999694824</ele>
        <time>2024-05-21T11:13:15.000Z</time>
      </trkpt>
      <trkpt lat="44.97221" lon="4.85882">
        <ele>118.40000152588</ele>
        <time>2024-05-21T11:13:16.000Z</time>
      </trkpt>
      <trkpt lat="44.97215" lon="4.85885">
        <ele>118.40000152588</ele>
        <time>2024-05-21T11:13:17.000Z</time>
      </trkpt>
      <trkpt lat="44.97209" lon="4.85889">
        <ele>118.19999694824</ele>
        <time>2024-05-21T11:13:18.000Z</time>
      </trkpt>
      <trkpt lat="44.97203" lon="4.85893">
        <ele>118.19999694824</ele>
        <time>2024-05-21T11:13:19.000Z</time>
      </trkpt>
      <trkpt lat="44.97198" lon="4.85896">
        <ele>118.40000152588</ele>
        <time>2024-05-21T11:13:20.000Z</time>
      </trkpt>
      <trkpt lat="44.9719" lon="4.859">
        <ele>118.40000152588</ele>
        <time>2024-05-21T11:13:21.000Z</time>
      </trkpt>
      <trkpt lat="44.97184" lon="4.85904">
        <ele>118.40000152588</ele>
        <time>2024-05-21T11:13:22.000Z</time>
      </trkpt>
      <trkpt lat="44.9718" lon="4.85907">
        <ele>118.40000152588</ele>
        <time>2024-05-21T11:13:23.000Z</time>
      </trkpt>
      <trkpt lat="44.97172" lon="4.85911">
        <ele>118.19999694824</ele>
        <time>2024-05-21T11:13:24.000Z</time>
      </trkpt>
      <trkpt lat="44.97166" lon="4.85915">
        <ele>118.40000152588</ele>
        <time>2024-05-21T11:13:25.000Z</time>
      </trkpt>
      <trkpt lat="44.97161" lon="4.85918">
        <ele>118.40000152588</ele>
        <time>2024-05-21T11:13:26.000Z</time>
      </trkpt>
      <trkpt lat="44.97155" lon="4.85921">
        <ele>118.40000152588</ele>
        <time>2024-05-21T11:13:27.000Z</time>
      </trkpt>
      <trkpt lat="44.97149" lon="4.85925">
        <ele>118.40000152588</ele>
        <time>2024-05-21T11:13:28.000Z</time>
      </trkpt>
      <trkpt lat="44.97142" lon="4.85929">
        <ele>118.40000152588</ele>
        <time>2024-05-21T11:13:29.000Z</time>
      </trkpt>
      <trkpt lat="44.97136" lon="4.85933">
        <ele>118.40000152588</ele>
        <time>2024-05-21T11:13:30.000Z</time>
      </trkpt>
      <trkpt lat="44.9713" lon="4.85937">
        <ele>118.40000152588</ele>
        <time>2024-05-21T11:13:31.000Z</time>
      </trkpt>
      <trkpt lat="44.97125" lon="4.8594">
        <ele>118.40000152588</ele>
        <time>2024-05-21T11:13:32.000Z</time>
      </trkpt>
      <trkpt lat="44.97118" lon="4.85944">
        <ele>118.40000152588</ele>
        <time>2024-05-21T11:13:33.000Z</time>
      </trkpt>
      <trkpt lat="44.97112" lon="4.85948">
        <ele>118.40000152588</ele>
        <time>2024-05-21T11:13:34.000Z</time>
      </trkpt>
      <trkpt lat="44.97107" lon="4.85952">
        <ele>118.40000152588</ele>
        <time>2024-05-21T11:13:35.000Z</time>
      </trkpt>
      <trkpt lat="44.97101" lon="4.85955">
        <ele>118.40000152588</ele>
        <time>2024-05-21T11:13:36.000Z</time>
      </trkpt>
      <trkpt lat="44.97094" lon="4.8596">
        <ele>118.19999694824</ele>
        <time>2024-05-21T11:13:37.000Z</time>
      </trkpt>
      <trkpt lat="44.97089" lon="4.85963">
        <ele>118</ele>
        <time>2024-05-21T11:13:38.000Z</time>
      </trkpt>
      <trkpt lat="44.97083" lon="4.85966">
        <ele>118</ele>
        <time>2024-05-21T11:13:39.000Z</time>
      </trkpt>
      <trkpt lat="44.97076" lon="4.85971">
        <ele>118</ele>
        <time>2024-05-21T11:13:40.000Z</time>
      </trkpt>
      <trkpt lat="44.97072" lon="4.85974">
        <ele>118</ele>
        <time>2024-05-21T11:13:41.000Z</time>
      </trkpt>
      <trkpt lat="44.97065" lon="4.85978">
        <ele>118</ele>
        <time>2024-05-21T11:13:42.000Z</time>
      </trkpt>
      <trkpt lat="44.97059" lon="4.85981">
        <ele>118</ele>
        <time>2024-05-21T11:13:43.000Z</time>
      </trkpt>
      <trkpt lat="44.97054" lon="4.85984">
        <ele>118</ele>
        <time>2024-05-21T11:13:44.000Z</time>
      </trkpt>
      <trkpt lat="44.97047" lon="4.85989">
        <ele>118.19999694824</ele>
        <time>2024-05-21T11:13:45.000Z</time>
      </trkpt>
      <trkpt lat="44.97041" lon="4.85992">
        <ele>118.19999694824</ele>
        <time>2024-05-21T11:13:46.000Z</time>
      </trkpt>
      <trkpt lat="44.97037" lon="4.85995">
        <ele>118.19999694824</ele>
        <time>2024-05-21T11:13:47.000Z</time>
      </trkpt>
      <trkpt lat="44.9703" lon="4.86">
        <ele>118.19999694824</ele>
        <time>2024-05-21T11:13:48.000Z</time>
      </trkpt>
      <trkpt lat="44.97025" lon="4.86003">
        <ele>118.19999694824</ele>
        <time>2024-05-21T11:13:49.000Z</time>
      </trkpt>
      <trkpt lat="44.97019" lon="4.86006">
        <ele>118.19999694824</ele>
        <time>2024-05-21T11:13:50.000Z</time>
      </trkpt>
      <trkpt lat="44.97012" lon="4.8601">
        <ele>118.40000152588</ele>
        <time>2024-05-21T11:13:51.000Z</time>
      </trkpt>
      <trkpt lat="44.97006" lon="4.86014">
        <ele>118.40000152588</ele>
        <time>2024-05-21T11:13:52.000Z</time>
      </trkpt>
      <trkpt lat="44.97001" lon="4.86017">
        <ele>118.40000152588</ele>
        <time>2024-05-21T11:13:53.000Z</time>
      </trkpt>
      <trkpt lat="44.96994" lon="4.86021">
        <ele>118.40000152588</ele>
        <time>2024-05-21T11:13:54.000Z</time>
      </trkpt>
      <trkpt lat="44.96989" lon="4.86025">
        <ele>118.40000152588</ele>
        <time>2024-05-21T11:13:55.000Z</time>
      </trkpt>
      <trkpt lat="44.96984" lon="4.86028">
        <ele>118.40000152588</ele>
        <time>2024-05-21T11:13:56.000Z</time>
      </trkpt>
      <trkpt lat="44.96977" lon="4.86032">
        <ele>118.59999847412</ele>
        <time>2024-05-21T11:13:57.000Z</time>
      </trkpt>
      <trkpt lat="44.96971" lon="4.86036">
        <ele>118.59999847412</ele>
        <time>2024-05-21T11:13:58.000Z</time>
      </trkpt>
      <trkpt lat="44.96966" lon="4.86038">
        <ele>118.59999847412</ele>
        <time>2024-05-21T11:13:59.000Z</time>
      </trkpt>
      <trkpt lat="44.96959" lon="4.86043">
        <ele>118.59999847412</ele>
        <time>2024-05-21T11:14:00.000Z</time>
      </trkpt>
      <trkpt lat="44.96953" lon="4.86047">
        <ele>118.59999847412</ele>
        <time>2024-05-21T11:14:01.000Z</time>
      </trkpt>
      <trkpt lat="44.96948" lon="4.8605">
        <ele>118.59999847412</ele>
        <time>2024-05-21T11:14:02.000Z</time>
      </trkpt>
      <trkpt lat="44.96941" lon="4.86054">
        <ele>118.59999847412</ele>
        <time>2024-05-21T11:14:03.000Z</time>
      </trkpt>
      <trkpt lat="44.96935" lon="4.86058">
        <ele>118.40000152588</ele>
        <time>2024-05-21T11:14:04.000Z</time>
      </trkpt>
      <trkpt lat="44.9693" lon="4.86061">
        <ele>118.40000152588</ele>
        <time>2024-05-21T11:14:05.000Z</time>
      </trkpt>
      <trkpt lat="44.96923" lon="4.86065">
        <ele>118.40000152588</ele>
        <time>2024-05-21T11:14:06.000Z</time>
      </trkpt>
      <trkpt lat="44.96918" lon="4.86068">
        <ele>118.19999694824</ele>
        <time>2024-05-21T11:14:07.000Z</time>
      </trkpt>
      <trkpt lat="44.96912" lon="4.86072">
        <ele>118</ele>
        <time>2024-05-21T11:14:08.000Z</time>
      </trkpt>
      <trkpt lat="44.96905" lon="4.86077">
        <ele>118</ele>
        <time>2024-05-21T11:14:09.000Z</time>
      </trkpt>
      <trkpt lat="44.969" lon="4.8608">
        <ele>118</ele>
        <time>2024-05-21T11:14:10.000Z</time>
      </trkpt>
      <trkpt lat="44.96895" lon="4.86084">
        <ele>118</ele>
        <time>2024-05-21T11:14:11.000Z</time>
      </trkpt>
      <trkpt lat="44.96888" lon="4.86088">
        <ele>118</ele>
        <time>2024-05-21T11:14:12.000Z</time>
      </trkpt>
      <trkpt lat="44.96883" lon="4.86091">
        <ele>118</ele>
        <time>2024-05-21T11:14:13.000Z</time>
      </trkpt>
      <trkpt lat="44.96877" lon="4.86094">
        <ele>118</ele>
        <time>2024-05-21T11:14:14.000Z</time>
      </trkpt>
      <trkpt lat="44.9687" lon="4.86098">
        <ele>118</ele>
        <time>2024-05-21T11:14:15.000Z</time>
      </trkpt>
      <trkpt lat="44.96864" lon="4.86102">
        <ele>118</ele>
        <time>2024-05-21T11:14:16.000Z</time>
      </trkpt>
      <trkpt lat="44.96859" lon="4.86105">
        <ele>118</ele>
        <time>2024-05-21T11:14:17.000Z</time>
      </trkpt>
      <trkpt lat="44.96852" lon="4.8611">
        <ele>118</ele>
        <time>2024-05-21T11:14:18.000Z</time>
      </trkpt>
      <trkpt lat="44.96848" lon="4.86113">
        <ele>118</ele>
        <time>2024-05-21T11:14:19.000Z</time>
      </trkpt>
      <trkpt lat="44.96842" lon="4.86116">
        <ele>118</ele>
        <time>2024-05-21T11:14:20.000Z</time>
      </trkpt>
      <trkpt lat="44.96835" lon="4.86121">
        <ele>118</ele>
        <time>2024-05-21T11:14:21.000Z</time>
      </trkpt>
      <trkpt lat="44.9683" lon="4.86124">
        <ele>118</ele>
        <time>2024-05-21T11:14:22.000Z</time>
      </trkpt>
      <trkpt lat="44.96825" lon="4.86127">
        <ele>118</ele>
        <time>2024-05-21T11:14:23.000Z</time>
      </trkpt>
      <trkpt lat="44.96818" lon="4.86131">
        <ele>118</ele>
        <time>2024-05-21T11:14:24.000Z</time>
      </trkpt>
      <trkpt lat="44.96813" lon="4.86134">
        <ele>118</ele>
        <time>2024-05-21T11:14:25.000Z</time>
      </trkpt>
      <trkpt lat="44.96807" lon="4.86138">
        <ele>118</ele>
        <time>2024-05-21T11:14:26.000Z</time>
      </trkpt>
      <trkpt lat="44.96801" lon="4.86143">
        <ele>118</ele>
        <time>2024-05-21T11:14:27.000Z</time>
      </trkpt>
      <trkpt lat="44.96796" lon="4.86145">
        <ele>118</ele>
        <time>2024-05-21T11:14:28.000Z</time>
      </trkpt>
      <trkpt lat="44.9679" lon="4.86149">
        <ele>118</ele>
        <time>2024-05-21T11:14:29.000Z</time>
      </trkpt>
      <trkpt lat="44.96784" lon="4.86154">
        <ele>117.80000305176</ele>
        <time>2024-05-21T11:14:30.000Z</time>
      </trkpt>
      <trkpt lat="44.96779" lon="4.86157">
        <ele>117.80000305176</ele>
        <time>2024-05-21T11:14:31.000Z</time>
      </trkpt>
      <trkpt lat="44.96773" lon="4.86161">
        <ele>117.80000305176</ele>
        <time>2024-05-21T11:14:32.000Z</time>
      </trkpt>
      <trkpt lat="44.96767" lon="4.86165">
        <ele>117.80000305176</ele>
        <time>2024-05-21T11:14:33.000Z</time>
      </trkpt>
      <trkpt lat="44.96762" lon="4.86169">
        <ele>117.80000305176</ele>
        <time>2024-05-21T11:14:34.000Z</time>
      </trkpt>
      <trkpt lat="44.96756" lon="4.86173">
        <ele>117.80000305176</ele>
        <time>2024-05-21T11:14:35.000Z</time>
      </trkpt>
      <trkpt lat="44.9675" lon="4.86178">
        <ele>117.80000305176</ele>
        <time>2024-05-21T11:14:36.000Z</time>
      </trkpt>
      <trkpt lat="44.96745" lon="4.86181">
        <ele>117.59999847412</ele>
        <time>2024-05-21T11:14:37.000Z</time>
      </trkpt>
      <trkpt lat="44.9674" lon="4.86185">
        <ele>117.59999847412</ele>
        <time>2024-05-21T11:14:38.000Z</time>
      </trkpt>
      <trkpt lat="44.96733" lon="4.8619">
        <ele>117.59999847412</ele>
        <time>2024-05-21T11:14:39.000Z</time>
      </trkpt>
      <trkpt lat="44.96729" lon="4.86194">
        <ele>117.59999847412</ele>
        <time>2024-05-21T11:14:40.000Z</time>
      </trkpt>
      <trkpt lat="44.96723" lon="4.86198">
        <ele>117.59999847412</ele>
        <time>2024-05-21T11:14:41.000Z</time>
      </trkpt>
      <trkpt lat="44.96717" lon="4.86203">
        <ele>117.40000152588</ele>
        <time>2024-05-21T11:14:42.000Z</time>
      </trkpt>
      <trkpt lat="44.96712" lon="4.86207">
        <ele>117.40000152588</ele>
        <time>2024-05-21T11:14:43.000Z</time>
      </trkpt>
      <trkpt lat="44.96706" lon="4.86211">
        <ele>117.40000152588</ele>
        <time>2024-05-21T11:14:44.000Z</time>
      </trkpt>
      <trkpt lat="44.96702" lon="4.86215">
        <ele>117.40000152588</ele>
        <time>2024-05-21T11:14:45.000Z</time>
      </trkpt>
      <trkpt lat="44.96697" lon="4.86219">
        <ele>117.40000152588</ele>
        <time>2024-05-21T11:14:46.000Z</time>
      </trkpt>
      <trkpt lat="44.96692" lon="4.86223">
        <ele>117.40000152588</ele>
        <time>2024-05-21T11:14:47.000Z</time>
      </trkpt>
      <trkpt lat="44.96685" lon="4.86229">
        <ele>117.40000152588</ele>
        <time>2024-05-21T11:14:48.000Z</time>
      </trkpt>
      <trkpt lat="44.96681" lon="4.86233">
        <ele>117.40000152588</ele>
        <time>2024-05-21T11:14:49.000Z</time>
      </trkpt>
      <trkpt lat="44.96676" lon="4.86237">
        <ele>117.40000152588</ele>
        <time>2024-05-21T11:14:50.000Z</time>
      </trkpt>
      <trkpt lat="44.9667" lon="4.86243">
        <ele>117.40000152588</ele>
        <time>2024-05-21T11:14:51.000Z</time>
      </trkpt>
      <trkpt lat="44.96666" lon="4.86246">
        <ele>117.40000152588</ele>
        <time>2024-05-21T11:14:52.000Z</time>
      </trkpt>
      <trkpt lat="44.9666" lon="4.86251">
        <ele>117.40000152588</ele>
        <time>2024-05-21T11:14:53.000Z</time>
      </trkpt>
      <trkpt lat="44.96655" lon="4.86256">
        <ele>117.40000152588</ele>
        <time>2024-05-21T11:14:54.000Z</time>
      </trkpt>
      <trkpt lat="44.9665" lon="4.8626">
        <ele>117.19999694824</ele>
        <time>2024-05-21T11:14:55.000Z</time>
      </trkpt>
      <trkpt lat="44.96646" lon="4.86265">
        <ele>117.19999694824</ele>
        <time>2024-05-21T11:14:56.000Z</time>
      </trkpt>
      <trkpt lat="44.9664" lon="4.8627">
        <ele>117.19999694824</ele>
        <time>2024-05-21T11:14:57.000Z</time>
      </trkpt>
      <trkpt lat="44.96637" lon="4.86273">
        <ele>117.19999694824</ele>
        <time>2024-05-21T11:14:58.000Z</time>
      </trkpt>
      <trkpt lat="44.96633" lon="4.86277">
        <ele>117.19999694824</ele>
        <time>2024-05-21T11:14:59.000Z</time>
      </trkpt>
      <trkpt lat="44.96627" lon="4.86281">
        <ele>117.40000152588</ele>
        <time>2024-05-21T11:15:00.000Z</time>
      </trkpt>
      <trkpt lat="44.96624" lon="4.86285">
        <ele>117.40000152588</ele>
        <time>2024-05-21T11:15:01.000Z</time>
      </trkpt>
      <trkpt lat="44.96619" lon="4.86289">
        <ele>117.40000152588</ele>
        <time>2024-05-21T11:15:02.000Z</time>
      </trkpt>
      <trkpt lat="44.96613" lon="4.86294">
        <ele>117.40000152588</ele>
        <time>2024-05-21T11:15:03.000Z</time>
      </trkpt>
      <trkpt lat="44.96609" lon="4.86298">
        <ele>117.40000152588</ele>
        <time>2024-05-21T11:15:04.000Z</time>
      </trkpt>
      <trkpt lat="44.96604" lon="4.86305">
        <ele>117.40000152588</ele>
        <time>2024-05-21T11:15:05.000Z</time>
      </trkpt>
      <trkpt lat="44.96599" lon="4.86309">
        <ele>117.40000152588</ele>
        <time>2024-05-21T11:15:06.000Z</time>
      </trkpt>
      <trkpt lat="44.96596" lon="4.86313">
        <ele>117.19999694824</ele>
        <time>2024-05-21T11:15:07.000Z</time>
      </trkpt>
      <trkpt lat="44.9659" lon="4.86319">
        <ele>117</ele>
        <time>2024-05-21T11:15:08.000Z</time>
      </trkpt>
      <trkpt lat="44.96586" lon="4.86324">
        <ele>117</ele>
        <time>2024-05-21T11:15:09.000Z</time>
      </trkpt>
      <trkpt lat="44.96582" lon="4.86328">
        <ele>117</ele>
        <time>2024-05-21T11:15:10.000Z</time>
      </trkpt>
      <trkpt lat="44.96577" lon="4.86334">
        <ele>117</ele>
        <time>2024-05-21T11:15:11.000Z</time>
      </trkpt>
      <trkpt lat="44.96572" lon="4.86339">
        <ele>117</ele>
        <time>2024-05-21T11:15:12.000Z</time>
      </trkpt>
      <trkpt lat="44.96568" lon="4.86343">
        <ele>117.40000152588</ele>
        <time>2024-05-21T11:15:13.000Z</time>
      </trkpt>
      <trkpt lat="44.96563" lon="4.86349">
        <ele>117.40000152588</ele>
        <time>2024-05-21T11:15:14.000Z</time>
      </trkpt>
      <trkpt lat="44.96559" lon="4.86353">
        <ele>117.40000152588</ele>
        <time>2024-05-21T11:15:15.000Z</time>
      </trkpt>
      <trkpt lat="44.96554" lon="4.86359">
        <ele>117.40000152588</ele>
        <time>2024-05-21T11:15:16.000Z</time>
      </trkpt>
      <trkpt lat="44.9655" lon="4.86364">
        <ele>117.40000152588</ele>
        <time>2024-05-21T11:15:17.000Z</time>
      </trkpt>
      <trkpt lat="44.96544" lon="4.8637">
        <ele>117.40000152588</ele>
        <time>2024-05-21T11:15:18.000Z</time>
      </trkpt>
      <trkpt lat="44.96541" lon="4.86375">
        <ele>117.40000152588</ele>
        <time>2024-05-21T11:15:19.000Z</time>
      </trkpt>
      <trkpt lat="44.96536" lon="4.86381">
        <ele>117.40000152588</ele>
        <time>2024-05-21T11:15:20.000Z</time>
      </trkpt>
      <trkpt lat="44.96531" lon="4.86387">
        <ele>117.59999847412</ele>
        <time>2024-05-21T11:15:21.000Z</time>
      </trkpt>
      <trkpt lat="44.96528" lon="4.86392">
        <ele>117.59999847412</ele>
        <time>2024-05-21T11:15:22.000Z</time>
      </trkpt>
      <trkpt lat="44.96522" lon="4.86398">
        <ele>117.59999847412</ele>
        <time>2024-05-21T11:15:23.000Z</time>
      </trkpt>
      <trkpt lat="44.96518" lon="4.86404">
        <ele>117.80000305176</ele>
        <time>2024-05-21T11:15:24.000Z</time>
      </trkpt>
      <trkpt lat="44.96514" lon="4.86409">
        <ele>117.80000305176</ele>
        <time>2024-05-21T11:15:25.000Z</time>
      </trkpt>
      <trkpt lat="44.96508" lon="4.86415">
        <ele>117.80000305176</ele>
        <time>2024-05-21T11:15:26.000Z</time>
      </trkpt>
      <trkpt lat="44.96504" lon="4.86421">
        <ele>117.80000305176</ele>
        <time>2024-05-21T11:15:27.000Z</time>
      </trkpt>
      <trkpt lat="44.965" lon="4.86426">
        <ele>117.80000305176</ele>
        <time>2024-05-21T11:15:28.000Z</time>
      </trkpt>
      <trkpt lat="44.96495" lon="4.86433">
        <ele>117.80000305176</ele>
        <time>2024-05-21T11:15:29.000Z</time>
      </trkpt>
      <trkpt lat="44.9649" lon="4.86439">
        <ele>117.80000305176</ele>
        <time>2024-05-21T11:15:30.000Z</time>
      </trkpt>
      <trkpt lat="44.96487" lon="4.86444">
        <ele>117.80000305176</ele>
        <time>2024-05-21T11:15:31.000Z</time>
      </trkpt>
      <trkpt lat="44.96482" lon="4.86451">
        <ele>117.80000305176</ele>
        <time>2024-05-21T11:15:32.000Z</time>
      </trkpt>
      <trkpt lat="44.96478" lon="4.86456">
        <ele>117.80000305176</ele>
        <time>2024-05-21T11:15:33.000Z</time>
      </trkpt>
      <trkpt lat="44.96474" lon="4.86462">
        <ele>117.59999847412</ele>
        <time>2024-05-21T11:15:34.000Z</time>
      </trkpt>
      <trkpt lat="44.96469" lon="4.8647">
        <ele>117.40000152588</ele>
        <time>2024-05-21T11:15:35.000Z</time>
      </trkpt>
      <trkpt lat="44.96465" lon="4.86475">
        <ele>117.40000152588</ele>
        <time>2024-05-21T11:15:36.000Z</time>
      </trkpt>
      <trkpt lat="44.96461" lon="4.86481">
        <ele>117.40000152588</ele>
        <time>2024-05-21T11:15:37.000Z</time>
      </trkpt>
      <trkpt lat="44.96456" lon="4.86489">
        <ele>117.40000152588</ele>
        <time>2024-05-21T11:15:38.000Z</time>
      </trkpt>
      <trkpt lat="44.96453" lon="4.86494">
        <ele>117.40000152588</ele>
        <time>2024-05-21T11:15:39.000Z</time>
      </trkpt>
      <trkpt lat="44.96449" lon="4.865">
        <ele>117.40000152588</ele>
        <time>2024-05-21T11:15:40.000Z</time>
      </trkpt>
      <trkpt lat="44.96444" lon="4.86507">
        <ele>117.40000152588</ele>
        <time>2024-05-21T11:15:41.000Z</time>
      </trkpt>
      <trkpt lat="44.9644" lon="4.86513">
        <ele>117.40000152588</ele>
        <time>2024-05-21T11:15:42.000Z</time>
      </trkpt>
      <trkpt lat="44.96436" lon="4.86519">
        <ele>117.40000152588</ele>
        <time>2024-05-21T11:15:43.000Z</time>
      </trkpt>
      <trkpt lat="44.96431" lon="4.86526">
        <ele>117.40000152588</ele>
        <time>2024-05-21T11:15:44.000Z</time>
      </trkpt>
      <trkpt lat="44.96426" lon="4.86531">
        <ele>117.40000152588</ele>
        <time>2024-05-21T11:15:45.000Z</time>
      </trkpt>
      <trkpt lat="44.96423" lon="4.86536">
        <ele>117.40000152588</ele>
        <time>2024-05-21T11:15:46.000Z</time>
      </trkpt>
      <trkpt lat="44.96418" lon="4.86544">
        <ele>117.40000152588</ele>
        <time>2024-05-21T11:15:47.000Z</time>
      </trkpt>
      <trkpt lat="44.96414" lon="4.8655">
        <ele>117.40000152588</ele>
        <time>2024-05-21T11:15:48.000Z</time>
      </trkpt>
      <trkpt lat="44.9641" lon="4.86555">
        <ele>117.40000152588</ele>
        <time>2024-05-21T11:15:49.000Z</time>
      </trkpt>
      <trkpt lat="44.96405" lon="4.86562">
        <ele>117.40000152588</ele>
        <time>2024-05-21T11:15:50.000Z</time>
      </trkpt>
      <trkpt lat="44.96402" lon="4.86567">
        <ele>117.59999847412</ele>
        <time>2024-05-21T11:15:51.000Z</time>
      </trkpt>
      <trkpt lat="44.96398" lon="4.86574">
        <ele>117.59999847412</ele>
        <time>2024-05-21T11:15:52.000Z</time>
      </trkpt>
      <trkpt lat="44.96392" lon="4.86581">
        <ele>117.59999847412</ele>
        <time>2024-05-21T11:15:53.000Z</time>
      </trkpt>
      <trkpt lat="44.96388" lon="4.86588">
        <ele>117.59999847412</ele>
        <time>2024-05-21T11:15:54.000Z</time>
      </trkpt>
      <trkpt lat="44.96384" lon="4.86594">
        <ele>117.59999847412</ele>
        <time>2024-05-21T11:15:55.000Z</time>
      </trkpt>
      <trkpt lat="44.9638" lon="4.866">
        <ele>117.59999847412</ele>
        <time>2024-05-21T11:15:56.000Z</time>
      </trkpt>
      <trkpt lat="44.96376" lon="4.86605">
        <ele>117.59999847412</ele>
        <time>2024-05-21T11:15:57.000Z</time>
      </trkpt>
      <trkpt lat="44.96372" lon="4.86611">
        <ele>117.59999847412</ele>
        <time>2024-05-21T11:15:58.000Z</time>
      </trkpt>
      <trkpt lat="44.96368" lon="4.86618">
        <ele>117.59999847412</ele>
        <time>2024-05-21T11:15:59.000Z</time>
      </trkpt>
      <trkpt lat="44.96363" lon="4.86625">
        <ele>117.59999847412</ele>
        <time>2024-05-21T11:16:00.000Z</time>
      </trkpt>
      <trkpt lat="44.9636" lon="4.8663">
        <ele>117.59999847412</ele>
        <time>2024-05-21T11:16:01.000Z</time>
      </trkpt>
      <trkpt lat="44.96354" lon="4.86637">
        <ele>117.59999847412</ele>
        <time>2024-05-21T11:16:02.000Z</time>
      </trkpt>
      <trkpt lat="44.9635" lon="4.86643">
        <ele>117.59999847412</ele>
        <time>2024-05-21T11:16:03.000Z</time>
      </trkpt>
      <trkpt lat="44.96346" lon="4.86649">
        <ele>117.59999847412</ele>
        <time>2024-05-21T11:16:04.000Z</time>
      </trkpt>
      <trkpt lat="44.96341" lon="4.86655">
        <ele>117.80000305176</ele>
        <time>2024-05-21T11:16:05.000Z</time>
      </trkpt>
      <trkpt lat="44.96337" lon="4.86662">
        <ele>117.80000305176</ele>
        <time>2024-05-21T11:16:06.000Z</time>
      </trkpt>
      <trkpt lat="44.96333" lon="4.86668">
        <ele>117.80000305176</ele>
        <time>2024-05-21T11:16:07.000Z</time>
      </trkpt>
      <trkpt lat="44.96329" lon="4.86675">
        <ele>117.80000305176</ele>
        <time>2024-05-21T11:16:08.000Z</time>
      </trkpt>
      <trkpt lat="44.96325" lon="4.8668">
        <ele>117.80000305176</ele>
        <time>2024-05-21T11:16:09.000Z</time>
      </trkpt>
      <trkpt lat="44.9632" lon="4.86688">
        <ele>117.80000305176</ele>
        <time>2024-05-21T11:16:10.000Z</time>
      </trkpt>
      <trkpt lat="44.96316" lon="4.86694">
        <ele>117.80000305176</ele>
        <time>2024-05-21T11:16:11.000Z</time>
      </trkpt>
      <trkpt lat="44.96312" lon="4.86699">
        <ele>117.59999847412</ele>
        <time>2024-05-21T11:16:12.000Z</time>
      </trkpt>
      <trkpt lat="44.96307" lon="4.86707">
        <ele>117.59999847412</ele>
        <time>2024-05-21T11:16:13.000Z</time>
      </trkpt>
      <trkpt lat="44.96303" lon="4.86713">
        <ele>117.80000305176</ele>
        <time>2024-05-21T11:16:14.000Z</time>
      </trkpt>
      <trkpt lat="44.963" lon="4.86718">
        <ele>117.80000305176</ele>
        <time>2024-05-21T11:16:15.000Z</time>
      </trkpt>
      <trkpt lat="44.96295" lon="4.86725">
        <ele>117.80000305176</ele>
        <time>2024-05-21T11:16:16.000Z</time>
      </trkpt>
      <trkpt lat="44.9629" lon="4.86731">
        <ele>117.80000305176</ele>
        <time>2024-05-21T11:16:17.000Z</time>
      </trkpt>
      <trkpt lat="44.96287" lon="4.86736">
        <ele>117.80000305176</ele>
        <time>2024-05-21T11:16:18.000Z</time>
      </trkpt>
      <trkpt lat="44.96282" lon="4.86742">
        <ele>118</ele>
        <time>2024-05-21T11:16:19.000Z</time>
      </trkpt>
      <trkpt lat="44.96278" lon="4.86748">
        <ele>118</ele>
        <time>2024-05-21T11:16:20.000Z</time>
      </trkpt>
      <trkpt lat="44.96273" lon="4.86756">
        <ele>118</ele>
        <time>2024-05-21T11:16:21.000Z</time>
      </trkpt>
      <trkpt lat="44.96269" lon="4.86763">
        <ele>118</ele>
        <time>2024-05-21T11:16:22.000Z</time>
      </trkpt>
      <trkpt lat="44.96264" lon="4.86769">
        <ele>118</ele>
        <time>2024-05-21T11:16:23.000Z</time>
      </trkpt>
      <trkpt lat="44.96261" lon="4.86774">
        <ele>118</ele>
        <time>2024-05-21T11:16:24.000Z</time>
      </trkpt>
      <trkpt lat="44.96256" lon="4.86782">
        <ele>118</ele>
        <time>2024-05-21T11:16:25.000Z</time>
      </trkpt>
      <trkpt lat="44.96252" lon="4.86789">
        <ele>117.80000305176</ele>
        <time>2024-05-21T11:16:26.000Z</time>
      </trkpt>
      <trkpt lat="44.96248" lon="4.86794">
        <ele>117.80000305176</ele>
        <time>2024-05-21T11:16:27.000Z</time>
      </trkpt>
      <trkpt lat="44.96243" lon="4.86802">
        <ele>118</ele>
        <time>2024-05-21T11:16:28.000Z</time>
      </trkpt>
      <trkpt lat="44.96239" lon="4.86808">
        <ele>117.80000305176</ele>
        <time>2024-05-21T11:16:29.000Z</time>
      </trkpt>
      <trkpt lat="44.96236" lon="4.86813">
        <ele>117.80000305176</ele>
        <time>2024-05-21T11:16:30.000Z</time>
      </trkpt>
      <trkpt lat="44.9623" lon="4.8682">
        <ele>117.80000305176</ele>
        <time>2024-05-21T11:16:31.000Z</time>
      </trkpt>
      <trkpt lat="44.96226" lon="4.86827">
        <ele>117.80000305176</ele>
        <time>2024-05-21T11:16:32.000Z</time>
      </trkpt>
      <trkpt lat="44.96223" lon="4.86832">
        <ele>117.80000305176</ele>
        <time>2024-05-21T11:16:33.000Z</time>
      </trkpt>
      <trkpt lat="44.96218" lon="4.86839">
        <ele>117.80000305176</ele>
        <time>2024-05-21T11:16:34.000Z</time>
      </trkpt>
      <trkpt lat="44.96213" lon="4.86846">
        <ele>117.80000305176</ele>
        <time>2024-05-21T11:16:35.000Z</time>
      </trkpt>
      <trkpt lat="44.9621" lon="4.86851">
        <ele>117.80000305176</ele>
        <time>2024-05-21T11:16:36.000Z</time>
      </trkpt>
      <trkpt lat="44.96205" lon="4.86858">
        <ele>117.80000305176</ele>
        <time>2024-05-21T11:16:37.000Z</time>
      </trkpt>
      <trkpt lat="44.96201" lon="4.86864">
        <ele>117.80000305176</ele>
        <time>2024-05-21T11:16:38.000Z</time>
      </trkpt>
      <trkpt lat="44.96198" lon="4.86869">
        <ele>117.80000305176</ele>
        <time>2024-05-21T11:16:39.000Z</time>
      </trkpt>
      <trkpt lat="44.96193" lon="4.86877">
        <ele>117.80000305176</ele>
        <time>2024-05-21T11:16:40.000Z</time>
      </trkpt>
      <trkpt lat="44.96189" lon="4.86881">
        <ele>117.80000305176</ele>
        <time>2024-05-21T11:16:41.000Z</time>
      </trkpt>
      <trkpt lat="44.96185" lon="4.86888">
        <ele>118</ele>
        <time>2024-05-21T11:16:42.000Z</time>
      </trkpt>
      <trkpt lat="44.96181" lon="4.86895">
        <ele>118</ele>
        <time>2024-05-21T11:16:43.000Z</time>
      </trkpt>
      <trkpt lat="44.96177" lon="4.86901">
        <ele>118</ele>
        <time>2024-05-21T11:16:44.000Z</time>
      </trkpt>
      <trkpt lat="44.96173" lon="4.86906">
        <ele>118</ele>
        <time>2024-05-21T11:16:45.000Z</time>
      </trkpt>
      <trkpt lat="44.96168" lon="4.86913">
        <ele>118</ele>
        <time>2024-05-21T11:16:46.000Z</time>
      </trkpt>
      <trkpt lat="44.96164" lon="4.8692">
        <ele>118</ele>
        <time>2024-05-21T11:16:47.000Z</time>
      </trkpt>
      <trkpt lat="44.96161" lon="4.86925">
        <ele>118</ele>
        <time>2024-05-21T11:16:48.000Z</time>
      </trkpt>
      <trkpt lat="44.96155" lon="4.86932">
        <ele>118</ele>
        <time>2024-05-21T11:16:49.000Z</time>
      </trkpt>
      <trkpt lat="44.96151" lon="4.86939">
        <ele>118</ele>
        <time>2024-05-21T11:16:50.000Z</time>
      </trkpt>
      <trkpt lat="44.96148" lon="4.86943">
        <ele>118</ele>
        <time>2024-05-21T11:16:51.000Z</time>
      </trkpt>
      <trkpt lat="44.96142" lon="4.8695">
        <ele>118</ele>
        <time>2024-05-21T11:16:52.000Z</time>
      </trkpt>
      <trkpt lat="44.96137" lon="4.86954">
        <ele>117.80000305176</ele>
        <time>2024-05-21T11:16:53.000Z</time>
      </trkpt>
      <trkpt lat="44.96132" lon="4.86957">
        <ele>117.80000305176</ele>
        <time>2024-05-21T11:16:54.000Z</time>
      </trkpt>
      <trkpt lat="44.96126" lon="4.86959">
        <ele>117.80000305176</ele>
        <time>2024-05-21T11:16:55.000Z</time>
      </trkpt>
      <trkpt lat="44.9612" lon="4.86962">
        <ele>117.80000305176</ele>
        <time>2024-05-21T11:16:56.000Z</time>
      </trkpt>
      <trkpt lat="44.96115" lon="4.86963">
        <ele>117.80000305176</ele>
        <time>2024-05-21T11:16:57.000Z</time>
      </trkpt>
      <trkpt lat="44.9611" lon="4.86966">
        <ele>117.80000305176</ele>
        <time>2024-05-21T11:16:58.000Z</time>
      </trkpt>
      <trkpt lat="44.96104" lon="4.86968">
        <ele>117.80000305176</ele>
        <time>2024-05-21T11:16:59.000Z</time>
      </trkpt>
      <trkpt lat="44.96098" lon="4.86971">
        <ele>117.59999847412</ele>
        <time>2024-05-21T11:17:00.000Z</time>
      </trkpt>
      <trkpt lat="44.96093" lon="4.86973">
        <ele>117.59999847412</ele>
        <time>2024-05-21T11:17:01.000Z</time>
      </trkpt>
      <trkpt lat="44.96089" lon="4.86975">
        <ele>117.59999847412</ele>
        <time>2024-05-21T11:17:02.000Z</time>
      </trkpt>
      <trkpt lat="44.96084" lon="4.86978">
        <ele>117.80000305176</ele>
        <time>2024-05-21T11:17:03.000Z</time>
      </trkpt>
      <trkpt lat="44.96078" lon="4.86982">
        <ele>117.80000305176</ele>
        <time>2024-05-21T11:17:04.000Z</time>
      </trkpt>
      <trkpt lat="44.96075" lon="4.86986">
        <ele>117.80000305176</ele>
        <time>2024-05-21T11:17:05.000Z</time>
      </trkpt>
      <trkpt lat="44.96071" lon="4.86992">
        <ele>117.80000305176</ele>
        <time>2024-05-21T11:17:06.000Z</time>
      </trkpt>
      <trkpt lat="44.96067" lon="4.86997">
        <ele>117.80000305176</ele>
        <time>2024-05-21T11:17:07.000Z</time>
      </trkpt>
      <trkpt lat="44.96064" lon="4.87001">
        <ele>117.59999847412</ele>
        <time>2024-05-21T11:17:08.000Z</time>
      </trkpt>
      <trkpt lat="44.9606" lon="4.87007">
        <ele>117.59999847412</ele>
        <time>2024-05-21T11:17:09.000Z</time>
      </trkpt>
      <trkpt lat="44.96057" lon="4.87012">
        <ele>117.40000152588</ele>
        <time>2024-05-21T11:17:10.000Z</time>
      </trkpt>
      <trkpt lat="44.96054" lon="4.87016">
        <ele>117.19999694824</ele>
        <time>2024-05-21T11:17:11.000Z</time>
      </trkpt>
      <trkpt lat="44.96051" lon="4.87022">
        <ele>117</ele>
        <time>2024-05-21T11:17:12.000Z</time>
      </trkpt>
      <trkpt lat="44.96048" lon="4.87026">
        <ele>117</ele>
        <time>2024-05-21T11:17:13.000Z</time>
      </trkpt>
      <trkpt lat="44.96046" lon="4.8703">
        <ele>117</ele>
        <time>2024-05-21T11:17:14.000Z</time>
      </trkpt>
      <trkpt lat="44.96043" lon="4.87035">
        <ele>116.80000305176</ele>
        <time>2024-05-21T11:17:15.000Z</time>
      </trkpt>
      <trkpt lat="44.96041" lon="4.87039">
        <ele>116.80000305176</ele>
        <time>2024-05-21T11:17:16.000Z</time>
      </trkpt>
      <trkpt lat="44.96039" lon="4.87042">
        <ele>116.80000305176</ele>
        <time>2024-05-21T11:17:17.000Z</time>
      </trkpt>
      <trkpt lat="44.96036" lon="4.87046">
        <ele>116.59999847412</ele>
        <time>2024-05-21T11:17:18.000Z</time>
      </trkpt>
      <trkpt lat="44.96034" lon="4.87049">
        <ele>116.40000152588</ele>
        <time>2024-05-21T11:17:19.000Z</time>
      </trkpt>
      <trkpt lat="44.96033" lon="4.87052">
        <ele>116.40000152588</ele>
        <time>2024-05-21T11:17:20.000Z</time>
      </trkpt>
      <trkpt lat="44.9603" lon="4.87056">
        <ele>116.19999694824</ele>
        <time>2024-05-21T11:17:21.000Z</time>
      </trkpt>
      <trkpt lat="44.96028" lon="4.87057">
        <ele>116.19999694824</ele>
        <time>2024-05-21T11:17:22.000Z</time>
      </trkpt>
      <trkpt lat="44.96026" lon="4.87058">
        <ele>116.19999694824</ele>
        <time>2024-05-21T11:17:23.000Z</time>
      </trkpt>
      <trkpt lat="44.96024" lon="4.87059">
        <ele>116</ele>
        <time>2024-05-21T11:17:24.000Z</time>
      </trkpt>
      <trkpt lat="44.96024" lon="4.8706">
        <ele>116</ele>
        <time>2024-05-21T11:17:25.000Z</time>
      </trkpt>
      <trkpt lat="44.96024" lon="4.8706">
        <ele>116</ele>
        <time>2024-05-21T11:17:26.000Z</time>
      </trkpt>
      <trkpt lat="44.96021" lon="4.87064">
        <ele>116.19999694824</ele>
        <time>2024-05-21T11:17:41.000Z</time>
      </trkpt>
      <trkpt lat="44.9602" lon="4.87067">
        <ele>116</ele>
        <time>2024-05-21T11:17:42.000Z</time>
      </trkpt>
      <trkpt lat="44.96019" lon="4.87069">
        <ele>116</ele>
        <time>2024-05-21T11:17:43.000Z</time>
      </trkpt>
      <trkpt lat="44.96016" lon="4.87072">
        <ele>116</ele>
        <time>2024-05-21T11:17:44.000Z</time>
      </trkpt>
      <trkpt lat="44.96015" lon="4.87075">
        <ele>116</ele>
        <time>2024-05-21T11:17:45.000Z</time>
      </trkpt>
      <trkpt lat="44.96014" lon="4.87078">
        <ele>116</ele>
        <time>2024-05-21T11:17:46.000Z</time>
      </trkpt>
      <trkpt lat="44.96013" lon="4.87083">
        <ele>115.80000305176</ele>
        <time>2024-05-21T11:17:47.000Z</time>
      </trkpt>
      <trkpt lat="44.96012" lon="4.87088">
        <ele>115.80000305176</ele>
        <time>2024-05-21T11:17:48.000Z</time>
      </trkpt>
      <trkpt lat="44.96012" lon="4.87093">
        <ele>115.80000305176</ele>
        <time>2024-05-21T11:17:49.000Z</time>
      </trkpt>
      <trkpt lat="44.96013" lon="4.871">
        <ele>115.80000305176</ele>
        <time>2024-05-21T11:17:50.000Z</time>
      </trkpt>
      <trkpt lat="44.96015" lon="4.87106">
        <ele>115.80000305176</ele>
        <time>2024-05-21T11:17:51.000Z</time>
      </trkpt>
      <trkpt lat="44.96017" lon="4.87112">
        <ele>115.80000305176</ele>
        <time>2024-05-21T11:17:52.000Z</time>
      </trkpt>
      <trkpt lat="44.96021" lon="4.87119">
        <ele>115.80000305176</ele>
        <time>2024-05-21T11:17:53.000Z</time>
      </trkpt>
      <trkpt lat="44.96024" lon="4.87124">
        <ele>115.80000305176</ele>
        <time>2024-05-21T11:17:54.000Z</time>
      </trkpt>
      <trkpt lat="44.96028" lon="4.87129">
        <ele>115.80000305176</ele>
        <time>2024-05-21T11:17:55.000Z</time>
      </trkpt>
      <trkpt lat="44.96032" lon="4.87135">
        <ele>115.80000305176</ele>
        <time>2024-05-21T11:17:56.000Z</time>
      </trkpt>
      <trkpt lat="44.96036" lon="4.8714">
        <ele>115.59999847412</ele>
        <time>2024-05-21T11:17:57.000Z</time>
      </trkpt>
      <trkpt lat="44.9604" lon="4.87145">
        <ele>115.59999847412</ele>
        <time>2024-05-21T11:17:58.000Z</time>
      </trkpt>
      <trkpt lat="44.96044" lon="4.87151">
        <ele>115.59999847412</ele>
        <time>2024-05-21T11:17:59.000Z</time>
      </trkpt>
      <trkpt lat="44.96048" lon="4.87157">
        <ele>115.59999847412</ele>
        <time>2024-05-21T11:18:00.000Z</time>
      </trkpt>
      <trkpt lat="44.96052" lon="4.87161">
        <ele>115.59999847412</ele>
        <time>2024-05-21T11:18:01.000Z</time>
      </trkpt>
      <trkpt lat="44.96056" lon="4.87168">
        <ele>115.59999847412</ele>
        <time>2024-05-21T11:18:02.000Z</time>
      </trkpt>
      <trkpt lat="44.96061" lon="4.87174">
        <ele>115.40000152588</ele>
        <time>2024-05-21T11:18:03.000Z</time>
      </trkpt>
      <trkpt lat="44.96064" lon="4.87178">
        <ele>115.40000152588</ele>
        <time>2024-05-21T11:18:04.000Z</time>
      </trkpt>
      <trkpt lat="44.96069" lon="4.87185">
        <ele>115.40000152588</ele>
        <time>2024-05-21T11:18:05.000Z</time>
      </trkpt>
      <trkpt lat="44.96073" lon="4.87191">
        <ele>115.40000152588</ele>
        <time>2024-05-21T11:18:06.000Z</time>
      </trkpt>
      <trkpt lat="44.96076" lon="4.87195">
        <ele>115.40000152588</ele>
        <time>2024-05-21T11:18:07.000Z</time>
      </trkpt>
      <trkpt lat="44.9608" lon="4.87201">
        <ele>115.40000152588</ele>
        <time>2024-05-21T11:18:08.000Z</time>
      </trkpt>
      <trkpt lat="44.96084" lon="4.87207">
        <ele>115.40000152588</ele>
        <time>2024-05-21T11:18:09.000Z</time>
      </trkpt>
      <trkpt lat="44.96088" lon="4.87212">
        <ele>115.40000152588</ele>
        <time>2024-05-21T11:18:10.000Z</time>
      </trkpt>
      <trkpt lat="44.96093" lon="4.87219">
        <ele>115.59999847412</ele>
        <time>2024-05-21T11:18:11.000Z</time>
      </trkpt>
      <trkpt lat="44.96098" lon="4.87225">
        <ele>115.40000152588</ele>
        <time>2024-05-21T11:18:12.000Z</time>
      </trkpt>
      <trkpt lat="44.96102" lon="4.8723">
        <ele>115.40000152588</ele>
        <time>2024-05-21T11:18:13.000Z</time>
      </trkpt>
      <trkpt lat="44.96106" lon="4.87236">
        <ele>115.40000152588</ele>
        <time>2024-05-21T11:18:14.000Z</time>
      </trkpt>
      <trkpt lat="44.9611" lon="4.87242">
        <ele>115.59999847412</ele>
        <time>2024-05-21T11:18:15.000Z</time>
      </trkpt>
      <trkpt lat="44.96115" lon="4.87247">
        <ele>115.59999847412</ele>
        <time>2024-05-21T11:18:16.000Z</time>
      </trkpt>
      <trkpt lat="44.96119" lon="4.87253">
        <ele>115.59999847412</ele>
        <time>2024-05-21T11:18:17.000Z</time>
      </trkpt>
      <trkpt lat="44.96123" lon="4.87259">
        <ele>115.59999847412</ele>
        <time>2024-05-21T11:18:18.000Z</time>
      </trkpt>
      <trkpt lat="44.96127" lon="4.87264">
        <ele>115.59999847412</ele>
        <time>2024-05-21T11:18:19.000Z</time>
      </trkpt>
      <trkpt lat="44.96132" lon="4.87271">
        <ele>115.59999847412</ele>
        <time>2024-05-21T11:18:20.000Z</time>
      </trkpt>
      <trkpt lat="44.96136" lon="4.87277">
        <ele>115.59999847412</ele>
        <time>2024-05-21T11:18:21.000Z</time>
      </trkpt>
      <trkpt lat="44.9614" lon="4.87282">
        <ele>115.59999847412</ele>
        <time>2024-05-21T11:18:22.000Z</time>
      </trkpt>
      <trkpt lat="44.96145" lon="4.87288">
        <ele>115.59999847412</ele>
        <time>2024-05-21T11:18:23.000Z</time>
      </trkpt>
      <trkpt lat="44.96149" lon="4.87294">
        <ele>115.59999847412</ele>
        <time>2024-05-21T11:18:24.000Z</time>
      </trkpt>
      <trkpt lat="44.96153" lon="4.873">
        <ele>115.59999847412</ele>
        <time>2024-05-21T11:18:25.000Z</time>
      </trkpt>
      <trkpt lat="44.96157" lon="4.87307">
        <ele>115.59999847412</ele>
        <time>2024-05-21T11:18:26.000Z</time>
      </trkpt>
      <trkpt lat="44.96161" lon="4.87314">
        <ele>115.59999847412</ele>
        <time>2024-05-21T11:18:27.000Z</time>
      </trkpt>
      <trkpt lat="44.96165" lon="4.8732">
        <ele>115.80000305176</ele>
        <time>2024-05-21T11:18:28.000Z</time>
      </trkpt>
      <trkpt lat="44.96169" lon="4.87325">
        <ele>115.59999847412</ele>
        <time>2024-05-21T11:18:29.000Z</time>
      </trkpt>
      <trkpt lat="44.96174" lon="4.87333">
        <ele>115.59999847412</ele>
        <time>2024-05-21T11:18:30.000Z</time>
      </trkpt>
      <trkpt lat="44.96178" lon="4.87339">
        <ele>115.59999847412</ele>
        <time>2024-05-21T11:18:31.000Z</time>
      </trkpt>
      <trkpt lat="44.96182" lon="4.87343">
        <ele>115.59999847412</ele>
        <time>2024-05-21T11:18:32.000Z</time>
      </trkpt>
      <trkpt lat="44.96187" lon="4.8735">
        <ele>115.80000305176</ele>
        <time>2024-05-21T11:18:33.000Z</time>
      </trkpt>
      <trkpt lat="44.96191" lon="4.87356">
        <ele>115.80000305176</ele>
        <time>2024-05-21T11:18:34.000Z</time>
      </trkpt>
      <trkpt lat="44.96195" lon="4.87361">
        <ele>115.80000305176</ele>
        <time>2024-05-21T11:18:35.000Z</time>
      </trkpt>
      <trkpt lat="44.962" lon="4.87368">
        <ele>115.80000305176</ele>
        <time>2024-05-21T11:18:36.000Z</time>
      </trkpt>
      <trkpt lat="44.96205" lon="4.87373">
        <ele>116</ele>
        <time>2024-05-21T11:18:37.000Z</time>
      </trkpt>
      <trkpt lat="44.96208" lon="4.87378">
        <ele>116</ele>
        <time>2024-05-21T11:18:38.000Z</time>
      </trkpt>
      <trkpt lat="44.96213" lon="4.87385">
        <ele>116</ele>
        <time>2024-05-21T11:18:39.000Z</time>
      </trkpt>
      <trkpt lat="44.96218" lon="4.87391">
        <ele>115.80000305176</ele>
        <time>2024-05-21T11:18:40.000Z</time>
      </trkpt>
      <trkpt lat="44.96221" lon="4.87396">
        <ele>115.80000305176</ele>
        <time>2024-05-21T11:18:41.000Z</time>
      </trkpt>
      <trkpt lat="44.96227" lon="4.87403">
        <ele>115.80000305176</ele>
        <time>2024-05-21T11:18:42.000Z</time>
      </trkpt>
      <trkpt lat="44.9623" lon="4.87408">
        <ele>115.80000305176</ele>
        <time>2024-05-21T11:18:43.000Z</time>
      </trkpt>
      <trkpt lat="44.96235" lon="4.87414">
        <ele>115.59999847412</ele>
        <time>2024-05-21T11:18:44.000Z</time>
      </trkpt>
      <trkpt lat="44.9624" lon="4.8742">
        <ele>115.59999847412</ele>
        <time>2024-05-21T11:18:45.000Z</time>
      </trkpt>
      <trkpt lat="44.96244" lon="4.87426">
        <ele>115.59999847412</ele>
        <time>2024-05-21T11:18:46.000Z</time>
      </trkpt>
      <trkpt lat="44.96248" lon="4.87432">
        <ele>115.59999847412</ele>
        <time>2024-05-21T11:18:47.000Z</time>
      </trkpt>
      <trkpt lat="44.96252" lon="4.87438">
        <ele>115.59999847412</ele>
        <time>2024-05-21T11:18:48.000Z</time>
      </trkpt>
      <trkpt lat="44.96256" lon="4.87444">
        <ele>115.59999847412</ele>
        <time>2024-05-21T11:18:49.000Z</time>
      </trkpt>
      <trkpt lat="44.96259" lon="4.87449">
        <ele>115.59999847412</ele>
        <time>2024-05-21T11:18:50.000Z</time>
      </trkpt>
      <trkpt lat="44.96261" lon="4.87457">
        <ele>115.59999847412</ele>
        <time>2024-05-21T11:18:51.000Z</time>
      </trkpt>
      <trkpt lat="44.96261" lon="4.87466">
        <ele>115.59999847412</ele>
        <time>2024-05-21T11:18:52.000Z</time>
      </trkpt>
      <trkpt lat="44.9626" lon="4.87474">
        <ele>115.59999847412</ele>
        <time>2024-05-21T11:18:53.000Z</time>
      </trkpt>
      <trkpt lat="44.96259" lon="4.87482">
        <ele>115.59999847412</ele>
        <time>2024-05-21T11:18:54.000Z</time>
      </trkpt>
      <trkpt lat="44.96258" lon="4.87489">
        <ele>115.59999847412</ele>
        <time>2024-05-21T11:18:55.000Z</time>
      </trkpt>
      <trkpt lat="44.96256" lon="4.87497">
        <ele>115.59999847412</ele>
        <time>2024-05-21T11:18:56.000Z</time>
      </trkpt>
      <trkpt lat="44.96255" lon="4.87505">
        <ele>115.59999847412</ele>
        <time>2024-05-21T11:18:57.000Z</time>
      </trkpt>
      <trkpt lat="44.96254" lon="4.87512">
        <ele>115.59999847412</ele>
        <time>2024-05-21T11:18:58.000Z</time>
      </trkpt>
      <trkpt lat="44.96252" lon="4.87518">
        <ele>115.59999847412</ele>
        <time>2024-05-21T11:18:59.000Z</time>
      </trkpt>
      <trkpt lat="44.96251" lon="4.87526">
        <ele>115.59999847412</ele>
        <time>2024-05-21T11:19:00.000Z</time>
      </trkpt>
      <trkpt lat="44.9625" lon="4.87531">
        <ele>115.59999847412</ele>
        <time>2024-05-21T11:19:01.000Z</time>
      </trkpt>
      <trkpt lat="44.96249" lon="4.87533">
        <ele>115.80000305176</ele>
        <time>2024-05-21T11:19:02.000Z</time>
      </trkpt>
      <trkpt lat="44.96249" lon="4.87536">
        <ele>116</ele>
        <time>2024-05-21T11:19:03.000Z</time>
      </trkpt>
      <trkpt lat="44.96249" lon="4.87538">
        <ele>116.40000152588</ele>
        <time>2024-05-21T11:19:04.000Z</time>
      </trkpt>
      <trkpt lat="44.96249" lon="4.8754">
        <ele>116.59999847412</ele>
        <time>2024-05-21T11:19:05.000Z</time>
      </trkpt>
      <trkpt lat="44.96251" lon="4.8754">
        <ele>116.80000305176</ele>
        <time>2024-05-21T11:19:06.000Z</time>
      </trkpt>
      <trkpt lat="44.96252" lon="4.87538">
        <ele>116.80000305176</ele>
        <time>2024-05-21T11:19:07.000Z</time>
      </trkpt>
      <trkpt lat="44.96252" lon="4.87536">
        <ele>116.80000305176</ele>
        <time>2024-05-21T11:19:08.000Z</time>
      </trkpt>
      <trkpt lat="44.9625" lon="4.87533">
        <ele>116.80000305176</ele>
        <time>2024-05-21T11:19:09.000Z</time>
      </trkpt>
      <trkpt lat="44.96248" lon="4.87532">
        <ele>116.80000305176</ele>
        <time>2024-05-21T11:19:10.000Z</time>
      </trkpt>
      <trkpt lat="44.96245" lon="4.87531">
        <ele>116.80000305176</ele>
        <time>2024-05-21T11:19:11.000Z</time>
      </trkpt>
      <trkpt lat="44.96241" lon="4.87531">
        <ele>116.59999847412</ele>
        <time>2024-05-21T11:19:12.000Z</time>
      </trkpt>
      <trkpt lat="44.96237" lon="4.87532">
        <ele>116.40000152588</ele>
        <time>2024-05-21T11:19:13.000Z</time>
      </trkpt>
      <trkpt lat="44.96233" lon="4.87533">
        <ele>116.40000152588</ele>
        <time>2024-05-21T11:19:14.000Z</time>
      </trkpt>
      <trkpt lat="44.96229" lon="4.87533">
        <ele>116.19999694824</ele>
        <time>2024-05-21T11:19:15.000Z</time>
      </trkpt>
      <trkpt lat="44.96225" lon="4.87533">
        <ele>116.19999694824</ele>
        <time>2024-05-21T11:19:16.000Z</time>
      </trkpt>
      <trkpt lat="44.9622" lon="4.87532">
        <ele>116.19999694824</ele>
        <time>2024-05-21T11:19:17.000Z</time>
      </trkpt>
      <trkpt lat="44.96215" lon="4.87531">
        <ele>116.19999694824</ele>
        <time>2024-05-21T11:19:18.000Z</time>
      </trkpt>
      <trkpt lat="44.9621" lon="4.87531">
        <ele>116.19999694824</ele>
        <time>2024-05-21T11:19:19.000Z</time>
      </trkpt>
      <trkpt lat="44.96206" lon="4.8753">
        <ele>116</ele>
        <time>2024-05-21T11:19:20.000Z</time>
      </trkpt>
      <trkpt lat="44.96201" lon="4.87528">
        <ele>115.80000305176</ele>
        <time>2024-05-21T11:19:21.000Z</time>
      </trkpt>
      <trkpt lat="44.96197" lon="4.87527">
        <ele>115.80000305176</ele>
        <time>2024-05-21T11:19:22.000Z</time>
      </trkpt>
      <trkpt lat="44.96191" lon="4.87526">
        <ele>115.80000305176</ele>
        <time>2024-05-21T11:19:23.000Z</time>
      </trkpt>
      <trkpt lat="44.96186" lon="4.87524">
        <ele>115.80000305176</ele>
        <time>2024-05-21T11:19:24.000Z</time>
      </trkpt>
      <trkpt lat="44.96182" lon="4.87523">
        <ele>115.59999847412</ele>
        <time>2024-05-21T11:19:25.000Z</time>
      </trkpt>
      <trkpt lat="44.96178" lon="4.87522">
        <ele>115.40000152588</ele>
        <time>2024-05-21T11:19:26.000Z</time>
      </trkpt>
      <trkpt lat="44.96174" lon="4.87524">
        <ele>115.40000152588</ele>
        <time>2024-05-21T11:19:27.000Z</time>
      </trkpt>
      <trkpt lat="44.96172" lon="4.87527">
        <ele>115.40000152588</ele>
        <time>2024-05-21T11:19:28.000Z</time>
      </trkpt>
      <trkpt lat="44.96168" lon="4.87532">
        <ele>115.40000152588</ele>
        <time>2024-05-21T11:19:29.000Z</time>
      </trkpt>
      <trkpt lat="44.96165" lon="4.87537">
        <ele>115.40000152588</ele>
        <time>2024-05-21T11:19:30.000Z</time>
      </trkpt>
      <trkpt lat="44.96162" lon="4.87541">
        <ele>115.40000152588</ele>
        <time>2024-05-21T11:19:31.000Z</time>
      </trkpt>
      <trkpt lat="44.96158" lon="4.87546">
        <ele>115.40000152588</ele>
        <time>2024-05-21T11:19:32.000Z</time>
      </trkpt>
      <trkpt lat="44.96156" lon="4.8755">
        <ele>115.40000152588</ele>
        <time>2024-05-21T11:19:33.000Z</time>
      </trkpt>
      <trkpt lat="44.96153" lon="4.87554">
        <ele>115.40000152588</ele>
        <time>2024-05-21T11:19:34.000Z</time>
      </trkpt>
      <trkpt lat="44.96149" lon="4.8756">
        <ele>115.40000152588</ele>
        <time>2024-05-21T11:19:35.000Z</time>
      </trkpt>
      <trkpt lat="44.96145" lon="4.87565">
        <ele>115.40000152588</ele>
        <time>2024-05-21T11:19:36.000Z</time>
      </trkpt>
      <trkpt lat="44.96142" lon="4.87569">
        <ele>115.40000152588</ele>
        <time>2024-05-21T11:19:37.000Z</time>
      </trkpt>
      <trkpt lat="44.96138" lon="4.87575">
        <ele>115.40000152588</ele>
        <time>2024-05-21T11:19:38.000Z</time>
      </trkpt>
      <trkpt lat="44.96135" lon="4.87581">
        <ele>115.40000152588</ele>
        <time>2024-05-21T11:19:39.000Z</time>
      </trkpt>
      <trkpt lat="44.96131" lon="4.87586">
        <ele>115.40000152588</ele>
        <time>2024-05-21T11:19:40.000Z</time>
      </trkpt>
      <trkpt lat="44.96128" lon="4.87591">
        <ele>115.40000152588</ele>
        <time>2024-05-21T11:19:41.000Z</time>
      </trkpt>
      <trkpt lat="44.96124" lon="4.87596">
        <ele>115.59999847412</ele>
        <time>2024-05-21T11:19:42.000Z</time>
      </trkpt>
      <trkpt lat="44.96121" lon="4.87601">
        <ele>115.59999847412</ele>
        <time>2024-05-21T11:19:43.000Z</time>
      </trkpt>
      <trkpt lat="44.96117" lon="4.87607">
        <ele>115.59999847412</ele>
        <time>2024-05-21T11:19:44.000Z</time>
      </trkpt>
      <trkpt lat="44.96113" lon="4.87611">
        <ele>115.80000305176</ele>
        <time>2024-05-21T11:19:45.000Z</time>
      </trkpt>
      <trkpt lat="44.96109" lon="4.87615">
        <ele>115.80000305176</ele>
        <time>2024-05-21T11:19:46.000Z</time>
      </trkpt>
      <trkpt lat="44.96105" lon="4.87622">
        <ele>115.80000305176</ele>
        <time>2024-05-21T11:19:47.000Z</time>
      </trkpt>
      <trkpt lat="44.96101" lon="4.87627">
        <ele>115.80000305176</ele>
        <time>2024-05-21T11:19:48.000Z</time>
      </trkpt>
      <trkpt lat="44.96097" lon="4.87633">
        <ele>115.80000305176</ele>
        <time>2024-05-21T11:19:49.000Z</time>
      </trkpt>
      <trkpt lat="44.96093" lon="4.87638">
        <ele>115.80000305176</ele>
        <time>2024-05-21T11:19:50.000Z</time>
      </trkpt>
      <trkpt lat="44.9609" lon="4.87643">
        <ele>115.80000305176</ele>
        <time>2024-05-21T11:19:51.000Z</time>
      </trkpt>
      <trkpt lat="44.96086" lon="4.87647">
        <ele>115.80000305176</ele>
        <time>2024-05-21T11:19:52.000Z</time>
      </trkpt>
      <trkpt lat="44.96082" lon="4.87653">
        <ele>115.80000305176</ele>
        <time>2024-05-21T11:19:53.000Z</time>
      </trkpt>
      <trkpt lat="44.96078" lon="4.87657">
        <ele>115.80000305176</ele>
        <time>2024-05-21T11:19:54.000Z</time>
      </trkpt>
      <trkpt lat="44.96074" lon="4.87663">
        <ele>115.80000305176</ele>
        <time>2024-05-21T11:19:55.000Z</time>
      </trkpt>
      <trkpt lat="44.96069" lon="4.87669">
        <ele>115.80000305176</ele>
        <time>2024-05-21T11:19:56.000Z</time>
      </trkpt>
      <trkpt lat="44.96065" lon="4.87674">
        <ele>115.80000305176</ele>
        <time>2024-05-21T11:19:57.000Z</time>
      </trkpt>
      <trkpt lat="44.96061" lon="4.87678">
        <ele>116</ele>
        <time>2024-05-21T11:19:58.000Z</time>
      </trkpt>
      <trkpt lat="44.96056" lon="4.87684">
        <ele>116</ele>
        <time>2024-05-21T11:19:59.000Z</time>
      </trkpt>
      <trkpt lat="44.96052" lon="4.87689">
        <ele>116</ele>
        <time>2024-05-21T11:20:00.000Z</time>
      </trkpt>
      <trkpt lat="44.96048" lon="4.87694">
        <ele>116</ele>
        <time>2024-05-21T11:20:01.000Z</time>
      </trkpt>
      <trkpt lat="44.96043" lon="4.877">
        <ele>116.19999694824</ele>
        <time>2024-05-21T11:20:02.000Z</time>
      </trkpt>
      <trkpt lat="44.9604" lon="4.87705">
        <ele>116.19999694824</ele>
        <time>2024-05-21T11:20:03.000Z</time>
      </trkpt>
      <trkpt lat="44.96036" lon="4.87709">
        <ele>116.19999694824</ele>
        <time>2024-05-21T11:20:04.000Z</time>
      </trkpt>
      <trkpt lat="44.96031" lon="4.87715">
        <ele>116.19999694824</ele>
        <time>2024-05-21T11:20:05.000Z</time>
      </trkpt>
      <trkpt lat="44.96027" lon="4.8772">
        <ele>116.19999694824</ele>
        <time>2024-05-21T11:20:06.000Z</time>
      </trkpt>
      <trkpt lat="44.96024" lon="4.87724">
        <ele>116.19999694824</ele>
        <time>2024-05-21T11:20:07.000Z</time>
      </trkpt>
      <trkpt lat="44.9602" lon="4.87728">
        <ele>116.19999694824</ele>
        <time>2024-05-21T11:20:08.000Z</time>
      </trkpt>
      <trkpt lat="44.96014" lon="4.87732">
        <ele>116.40000152588</ele>
        <time>2024-05-21T11:20:09.000Z</time>
      </trkpt>
      <trkpt lat="44.9601" lon="4.87735">
        <ele>116.40000152588</ele>
        <time>2024-05-21T11:20:10.000Z</time>
      </trkpt>
      <trkpt lat="44.96004" lon="4.87741">
        <ele>116.40000152588</ele>
        <time>2024-05-21T11:20:11.000Z</time>
      </trkpt>
      <trkpt lat="44.95999" lon="4.87745">
        <ele>116.40000152588</ele>
        <time>2024-05-21T11:20:12.000Z</time>
      </trkpt>
      <trkpt lat="44.95994" lon="4.87749">
        <ele>116.40000152588</ele>
        <time>2024-05-21T11:20:13.000Z</time>
      </trkpt>
      <trkpt lat="44.95989" lon="4.87754">
        <ele>116.40000152588</ele>
        <time>2024-05-21T11:20:14.000Z</time>
      </trkpt>
      <trkpt lat="44.95984" lon="4.87758">
        <ele>116.19999694824</ele>
        <time>2024-05-21T11:20:15.000Z</time>
      </trkpt>
      <trkpt lat="44.95979" lon="4.87762">
        <ele>115.80000305176</ele>
        <time>2024-05-21T11:20:16.000Z</time>
      </trkpt>
      <trkpt lat="44.95974" lon="4.87767">
        <ele>115.59999847412</ele>
        <time>2024-05-21T11:20:17.000Z</time>
      </trkpt>
      <trkpt lat="44.95968" lon="4.87772">
        <ele>115.19999694824</ele>
        <time>2024-05-21T11:20:18.000Z</time>
      </trkpt>
      <trkpt lat="44.95962" lon="4.87776">
        <ele>115</ele>
        <time>2024-05-21T11:20:19.000Z</time>
      </trkpt>
      <trkpt lat="44.95954" lon="4.87782">
        <ele>114.59999847412</ele>
        <time>2024-05-21T11:20:20.000Z</time>
      </trkpt>
      <trkpt lat="44.95947" lon="4.87786">
        <ele>114.19999694824</ele>
        <time>2024-05-21T11:20:21.000Z</time>
      </trkpt>
      <trkpt lat="44.95941" lon="4.87789">
        <ele>113.80000305176</ele>
        <time>2024-05-21T11:20:22.000Z</time>
      </trkpt>
      <trkpt lat="44.95935" lon="4.87793">
        <ele>113.59999847412</ele>
        <time>2024-05-21T11:20:23.000Z</time>
      </trkpt>
      <trkpt lat="44.95928" lon="4.87797">
        <ele>113.40000152588</ele>
        <time>2024-05-21T11:20:24.000Z</time>
      </trkpt>
      <trkpt lat="44.95923" lon="4.87802">
        <ele>113.19999694824</ele>
        <time>2024-05-21T11:20:25.000Z</time>
      </trkpt>
      <trkpt lat="44.95917" lon="4.87807">
        <ele>113.19999694824</ele>
        <time>2024-05-21T11:20:26.000Z</time>
      </trkpt>
      <trkpt lat="44.95911" lon="4.87812">
        <ele>113.19999694824</ele>
        <time>2024-05-21T11:20:27.000Z</time>
      </trkpt>
      <trkpt lat="44.95905" lon="4.87817">
        <ele>113.19999694824</ele>
        <time>2024-05-21T11:20:28.000Z</time>
      </trkpt>
      <trkpt lat="44.959" lon="4.87822">
        <ele>113</ele>
        <time>2024-05-21T11:20:29.000Z</time>
      </trkpt>
      <trkpt lat="44.95894" lon="4.87826">
        <ele>113</ele>
        <time>2024-05-21T11:20:30.000Z</time>
      </trkpt>
      <trkpt lat="44.95889" lon="4.87831">
        <ele>113</ele>
        <time>2024-05-21T11:20:31.000Z</time>
      </trkpt>
      <trkpt lat="44.95883" lon="4.87835">
        <ele>113</ele>
        <time>2024-05-21T11:20:32.000Z</time>
      </trkpt>
      <trkpt lat="44.95878" lon="4.8784">
        <ele>113</ele>
        <time>2024-05-21T11:20:33.000Z</time>
      </trkpt>
      <trkpt lat="44.95873" lon="4.87844">
        <ele>113</ele>
        <time>2024-05-21T11:20:34.000Z</time>
      </trkpt>
      <trkpt lat="44.95867" lon="4.87849">
        <ele>113</ele>
        <time>2024-05-21T11:20:35.000Z</time>
      </trkpt>
      <trkpt lat="44.95861" lon="4.87854">
        <ele>113</ele>
        <time>2024-05-21T11:20:36.000Z</time>
      </trkpt>
      <trkpt lat="44.95856" lon="4.87857">
        <ele>113</ele>
        <time>2024-05-21T11:20:37.000Z</time>
      </trkpt>
      <trkpt lat="44.95851" lon="4.87861">
        <ele>113</ele>
        <time>2024-05-21T11:20:38.000Z</time>
      </trkpt>
      <trkpt lat="44.95844" lon="4.87866">
        <ele>113</ele>
        <time>2024-05-21T11:20:39.000Z</time>
      </trkpt>
      <trkpt lat="44.95838" lon="4.8787">
        <ele>113</ele>
        <time>2024-05-21T11:20:40.000Z</time>
      </trkpt>
      <trkpt lat="44.95832" lon="4.87874">
        <ele>113</ele>
        <time>2024-05-21T11:20:41.000Z</time>
      </trkpt>
      <trkpt lat="44.95826" lon="4.87878">
        <ele>113</ele>
        <time>2024-05-21T11:20:42.000Z</time>
      </trkpt>
      <trkpt lat="44.95821" lon="4.87882">
        <ele>113</ele>
        <time>2024-05-21T11:20:43.000Z</time>
      </trkpt>
      <trkpt lat="44.95815" lon="4.87886">
        <ele>113</ele>
        <time>2024-05-21T11:20:44.000Z</time>
      </trkpt>
      <trkpt lat="44.95809" lon="4.8789">
        <ele>113</ele>
        <time>2024-05-21T11:20:45.000Z</time>
      </trkpt>
      <trkpt lat="44.95803" lon="4.87895">
        <ele>113</ele>
        <time>2024-05-21T11:20:46.000Z</time>
      </trkpt>
      <trkpt lat="44.95797" lon="4.87899">
        <ele>113</ele>
        <time>2024-05-21T11:20:47.000Z</time>
      </trkpt>
      <trkpt lat="44.95791" lon="4.87903">
        <ele>113</ele>
        <time>2024-05-21T11:20:48.000Z</time>
      </trkpt>
      <trkpt lat="44.95785" lon="4.87907">
        <ele>112.80000305176</ele>
        <time>2024-05-21T11:20:49.000Z</time>
      </trkpt>
      <trkpt lat="44.95779" lon="4.8791">
        <ele>113</ele>
        <time>2024-05-21T11:20:50.000Z</time>
      </trkpt>
      <trkpt lat="44.95773" lon="4.87914">
        <ele>113</ele>
        <time>2024-05-21T11:20:51.000Z</time>
      </trkpt>
      <trkpt lat="44.95767" lon="4.87918">
        <ele>113</ele>
        <time>2024-05-21T11:20:52.000Z</time>
      </trkpt>
      <trkpt lat="44.95762" lon="4.87921">
        <ele>113</ele>
        <time>2024-05-21T11:20:53.000Z</time>
      </trkpt>
      <trkpt lat="44.95756" lon="4.87925">
        <ele>113.40000152588</ele>
        <time>2024-05-21T11:20:54.000Z</time>
      </trkpt>
      <trkpt lat="44.9575" lon="4.87929">
        <ele>113.40000152588</ele>
        <time>2024-05-21T11:20:55.000Z</time>
      </trkpt>
      <trkpt lat="44.95744" lon="4.87932">
        <ele>113.40000152588</ele>
        <time>2024-05-21T11:20:56.000Z</time>
      </trkpt>
      <trkpt lat="44.95738" lon="4.87936">
        <ele>113.40000152588</ele>
        <time>2024-05-21T11:20:57.000Z</time>
      </trkpt>
      <trkpt lat="44.95732" lon="4.87939">
        <ele>113.59999847412</ele>
        <time>2024-05-21T11:20:58.000Z</time>
      </trkpt>
      <trkpt lat="44.95728" lon="4.87942">
        <ele>113.59999847412</ele>
        <time>2024-05-21T11:20:59.000Z</time>
      </trkpt>
      <trkpt lat="44.95722" lon="4.87945">
        <ele>113.59999847412</ele>
        <time>2024-05-21T11:21:00.000Z</time>
      </trkpt>
      <trkpt lat="44.95715" lon="4.87949">
        <ele>113.59999847412</ele>
        <time>2024-05-21T11:21:01.000Z</time>
      </trkpt>
      <trkpt lat="44.95709" lon="4.87951">
        <ele>113.59999847412</ele>
        <time>2024-05-21T11:21:02.000Z</time>
      </trkpt>
      <trkpt lat="44.95703" lon="4.87955">
        <ele>113.59999847412</ele>
        <time>2024-05-21T11:21:03.000Z</time>
      </trkpt>
      <trkpt lat="44.95698" lon="4.87957">
        <ele>113.59999847412</ele>
        <time>2024-05-21T11:21:04.000Z</time>
      </trkpt>
      <trkpt lat="44.9569" lon="4.87961">
        <ele>113.59999847412</ele>
        <time>2024-05-21T11:21:05.000Z</time>
      </trkpt>
      <trkpt lat="44.95684" lon="4.87964">
        <ele>113.59999847412</ele>
        <time>2024-05-21T11:21:06.000Z</time>
      </trkpt>
      <trkpt lat="44.95678" lon="4.87967">
        <ele>113.59999847412</ele>
        <time>2024-05-21T11:21:07.000Z</time>
      </trkpt>
      <trkpt lat="44.95672" lon="4.8797">
        <ele>113.59999847412</ele>
        <time>2024-05-21T11:21:08.000Z</time>
      </trkpt>
      <trkpt lat="44.95666" lon="4.87972">
        <ele>113.59999847412</ele>
        <time>2024-05-21T11:21:09.000Z</time>
      </trkpt>
      <trkpt lat="44.9566" lon="4.87975">
        <ele>113.59999847412</ele>
        <time>2024-05-21T11:21:10.000Z</time>
      </trkpt>
      <trkpt lat="44.95653" lon="4.87978">
        <ele>113.59999847412</ele>
        <time>2024-05-21T11:21:11.000Z</time>
      </trkpt>
      <trkpt lat="44.95647" lon="4.8798">
        <ele>113.59999847412</ele>
        <time>2024-05-21T11:21:12.000Z</time>
      </trkpt>
      <trkpt lat="44.9564" lon="4.87982">
        <ele>113.59999847412</ele>
        <time>2024-05-21T11:21:13.000Z</time>
      </trkpt>
      <trkpt lat="44.95634" lon="4.87984">
        <ele>113.40000152588</ele>
        <time>2024-05-21T11:21:14.000Z</time>
      </trkpt>
      <trkpt lat="44.95628" lon="4.87987">
        <ele>113.40000152588</ele>
        <time>2024-05-21T11:21:15.000Z</time>
      </trkpt>
      <trkpt lat="44.95622" lon="4.87989">
        <ele>113.40000152588</ele>
        <time>2024-05-21T11:21:16.000Z</time>
      </trkpt>
      <trkpt lat="44.95615" lon="4.87991">
        <ele>113.40000152588</ele>
        <time>2024-05-21T11:21:17.000Z</time>
      </trkpt>
      <trkpt lat="44.95609" lon="4.87993">
        <ele>113.40000152588</ele>
        <time>2024-05-21T11:21:18.000Z</time>
      </trkpt>
      <trkpt lat="44.95603" lon="4.87995">
        <ele>113.40000152588</ele>
        <time>2024-05-21T11:21:19.000Z</time>
      </trkpt>
      <trkpt lat="44.95596" lon="4.87998">
        <ele>113.40000152588</ele>
        <time>2024-05-21T11:21:20.000Z</time>
      </trkpt>
      <trkpt lat="44.9559" lon="4.88">
        <ele>113.40000152588</ele>
        <time>2024-05-21T11:21:21.000Z</time>
      </trkpt>
      <trkpt lat="44.95583" lon="4.88002">
        <ele>113.19999694824</ele>
        <time>2024-05-21T11:21:22.000Z</time>
      </trkpt>
      <trkpt lat="44.95577" lon="4.88005">
        <ele>113.19999694824</ele>
        <time>2024-05-21T11:21:23.000Z</time>
      </trkpt>
      <trkpt lat="44.95571" lon="4.88007">
        <ele>113.19999694824</ele>
        <time>2024-05-21T11:21:24.000Z</time>
      </trkpt>
      <trkpt lat="44.95564" lon="4.88009">
        <ele>113.19999694824</ele>
        <time>2024-05-21T11:21:25.000Z</time>
      </trkpt>
      <trkpt lat="44.95558" lon="4.88012">
        <ele>113.19999694824</ele>
        <time>2024-05-21T11:21:26.000Z</time>
      </trkpt>
      <trkpt lat="44.95552" lon="4.88014">
        <ele>113.19999694824</ele>
        <time>2024-05-21T11:21:27.000Z</time>
      </trkpt>
      <trkpt lat="44.95546" lon="4.88017">
        <ele>113.19999694824</ele>
        <time>2024-05-21T11:21:28.000Z</time>
      </trkpt>
      <trkpt lat="44.9554" lon="4.88019">
        <ele>113.40000152588</ele>
        <time>2024-05-21T11:21:29.000Z</time>
      </trkpt>
      <trkpt lat="44.95534" lon="4.88021">
        <ele>113.40000152588</ele>
        <time>2024-05-21T11:21:30.000Z</time>
      </trkpt>
      <trkpt lat="44.95528" lon="4.88023">
        <ele>113.40000152588</ele>
        <time>2024-05-21T11:21:31.000Z</time>
      </trkpt>
      <trkpt lat="44.95522" lon="4.88025">
        <ele>113.40000152588</ele>
        <time>2024-05-21T11:21:32.000Z</time>
      </trkpt>
      <trkpt lat="44.95516" lon="4.88028">
        <ele>113.40000152588</ele>
        <time>2024-05-21T11:21:33.000Z</time>
      </trkpt>
      <trkpt lat="44.9551" lon="4.8803">
        <ele>113.40000152588</ele>
        <time>2024-05-21T11:21:34.000Z</time>
      </trkpt>
      <trkpt lat="44.95504" lon="4.88033">
        <ele>113.40000152588</ele>
        <time>2024-05-21T11:21:35.000Z</time>
      </trkpt>
      <trkpt lat="44.95497" lon="4.88035">
        <ele>113.40000152588</ele>
        <time>2024-05-21T11:21:36.000Z</time>
      </trkpt>
      <trkpt lat="44.95491" lon="4.88038">
        <ele>113.40000152588</ele>
        <time>2024-05-21T11:21:37.000Z</time>
      </trkpt>
      <trkpt lat="44.95485" lon="4.8804">
        <ele>113.40000152588</ele>
        <time>2024-05-21T11:21:38.000Z</time>
      </trkpt>
      <trkpt lat="44.95479" lon="4.88043">
        <ele>113.40000152588</ele>
        <time>2024-05-21T11:21:39.000Z</time>
      </trkpt>
      <trkpt lat="44.95473" lon="4.88045">
        <ele>113.40000152588</ele>
        <time>2024-05-21T11:21:40.000Z</time>
      </trkpt>
      <trkpt lat="44.95468" lon="4.88048">
        <ele>113.40000152588</ele>
        <time>2024-05-21T11:21:41.000Z</time>
      </trkpt>
      <trkpt lat="44.95463" lon="4.8805">
        <ele>113.40000152588</ele>
        <time>2024-05-21T11:21:42.000Z</time>
      </trkpt>
      <trkpt lat="44.95457" lon="4.88053">
        <ele>113.40000152588</ele>
        <time>2024-05-21T11:21:43.000Z</time>
      </trkpt>
      <trkpt lat="44.9545" lon="4.88056">
        <ele>113.59999847412</ele>
        <time>2024-05-21T11:21:44.000Z</time>
      </trkpt>
      <trkpt lat="44.95444" lon="4.88058">
        <ele>113.59999847412</ele>
        <time>2024-05-21T11:21:45.000Z</time>
      </trkpt>
      <trkpt lat="44.95438" lon="4.88061">
        <ele>113.59999847412</ele>
        <time>2024-05-21T11:21:46.000Z</time>
      </trkpt>
      <trkpt lat="44.95432" lon="4.88063">
        <ele>113.59999847412</ele>
        <time>2024-05-21T11:21:47.000Z</time>
      </trkpt>
      <trkpt lat="44.95426" lon="4.88066">
        <ele>113.59999847412</ele>
        <time>2024-05-21T11:21:48.000Z</time>
      </trkpt>
      <trkpt lat="44.9542" lon="4.88069">
        <ele>113.40000152588</ele>
        <time>2024-05-21T11:21:49.000Z</time>
      </trkpt>
      <trkpt lat="44.95414" lon="4.88071">
        <ele>113.40000152588</ele>
        <time>2024-05-21T11:21:50.000Z</time>
      </trkpt>
      <trkpt lat="44.95408" lon="4.88074">
        <ele>113.40000152588</ele>
        <time>2024-05-21T11:21:51.000Z</time>
      </trkpt>
      <trkpt lat="44.95402" lon="4.88076">
        <ele>113.40000152588</ele>
        <time>2024-05-21T11:21:52.000Z</time>
      </trkpt>
      <trkpt lat="44.95396" lon="4.88079">
        <ele>113.40000152588</ele>
        <time>2024-05-21T11:21:53.000Z</time>
      </trkpt>
      <trkpt lat="44.9539" lon="4.88082">
        <ele>113.40000152588</ele>
        <time>2024-05-21T11:21:54.000Z</time>
      </trkpt>
      <trkpt lat="44.95384" lon="4.88085">
        <ele>113.40000152588</ele>
        <time>2024-05-21T11:21:55.000Z</time>
      </trkpt>
      <trkpt lat="44.95378" lon="4.88087">
        <ele>113.59999847412</ele>
        <time>2024-05-21T11:21:56.000Z</time>
      </trkpt>
      <trkpt lat="44.95373" lon="4.8809">
        <ele>113.59999847412</ele>
        <time>2024-05-21T11:21:57.000Z</time>
      </trkpt>
      <trkpt lat="44.95367" lon="4.88092">
        <ele>113.59999847412</ele>
        <time>2024-05-21T11:21:58.000Z</time>
      </trkpt>
      <trkpt lat="44.95361" lon="4.88095">
        <ele>113.59999847412</ele>
        <time>2024-05-21T11:21:59.000Z</time>
      </trkpt>
      <trkpt lat="44.95355" lon="4.88097">
        <ele>113.40000152588</ele>
        <time>2024-05-21T11:22:00.000Z</time>
      </trkpt>
      <trkpt lat="44.95349" lon="4.881">
        <ele>113.40000152588</ele>
        <time>2024-05-21T11:22:01.000Z</time>
      </trkpt>
      <trkpt lat="44.95343" lon="4.88102">
        <ele>113.40000152588</ele>
        <time>2024-05-21T11:22:02.000Z</time>
      </trkpt>
      <trkpt lat="44.95337" lon="4.88105">
        <ele>113.19999694824</ele>
        <time>2024-05-21T11:22:03.000Z</time>
      </trkpt>
      <trkpt lat="44.95331" lon="4.88108">
        <ele>113.19999694824</ele>
        <time>2024-05-21T11:22:04.000Z</time>
      </trkpt>
      <trkpt lat="44.95325" lon="4.8811">
        <ele>113.19999694824</ele>
        <time>2024-05-21T11:22:05.000Z</time>
      </trkpt>
      <trkpt lat="44.95319" lon="4.88113">
        <ele>113.19999694824</ele>
        <time>2024-05-21T11:22:06.000Z</time>
      </trkpt>
      <trkpt lat="44.95313" lon="4.88115">
        <ele>113.19999694824</ele>
        <time>2024-05-21T11:22:07.000Z</time>
      </trkpt>
      <trkpt lat="44.95309" lon="4.88117">
        <ele>113.19999694824</ele>
        <time>2024-05-21T11:22:08.000Z</time>
      </trkpt>
      <trkpt lat="44.95302" lon="4.8812">
        <ele>113.19999694824</ele>
        <time>2024-05-21T11:22:09.000Z</time>
      </trkpt>
      <trkpt lat="44.95296" lon="4.88123">
        <ele>113.19999694824</ele>
        <time>2024-05-21T11:22:10.000Z</time>
      </trkpt>
      <trkpt lat="44.95291" lon="4.88125">
        <ele>113.19999694824</ele>
        <time>2024-05-21T11:22:11.000Z</time>
      </trkpt>
      <trkpt lat="44.95285" lon="4.88127">
        <ele>113.19999694824</ele>
        <time>2024-05-21T11:22:12.000Z</time>
      </trkpt>
      <trkpt lat="44.95279" lon="4.8813">
        <ele>113.19999694824</ele>
        <time>2024-05-21T11:22:13.000Z</time>
      </trkpt>
      <trkpt lat="44.95273" lon="4.88132">
        <ele>113.19999694824</ele>
        <time>2024-05-21T11:22:14.000Z</time>
      </trkpt>
      <trkpt lat="44.95268" lon="4.88134">
        <ele>113.19999694824</ele>
        <time>2024-05-21T11:22:15.000Z</time>
      </trkpt>
      <trkpt lat="44.95262" lon="4.88137">
        <ele>113.19999694824</ele>
        <time>2024-05-21T11:22:16.000Z</time>
      </trkpt>
      <trkpt lat="44.95257" lon="4.8814">
        <ele>113.19999694824</ele>
        <time>2024-05-21T11:22:17.000Z</time>
      </trkpt>
      <trkpt lat="44.95251" lon="4.88142">
        <ele>113.19999694824</ele>
        <time>2024-05-21T11:22:18.000Z</time>
      </trkpt>
      <trkpt lat="44.95246" lon="4.88144">
        <ele>113.19999694824</ele>
        <time>2024-05-21T11:22:19.000Z</time>
      </trkpt>
      <trkpt lat="44.9524" lon="4.88147">
        <ele>113.40000152588</ele>
        <time>2024-05-21T11:22:20.000Z</time>
      </trkpt>
      <trkpt lat="44.95234" lon="4.88149">
        <ele>113.40000152588</ele>
        <time>2024-05-21T11:22:21.000Z</time>
      </trkpt>
      <trkpt lat="44.95229" lon="4.88152">
        <ele>113.40000152588</ele>
        <time>2024-05-21T11:22:22.000Z</time>
      </trkpt>
      <trkpt lat="44.95223" lon="4.88154">
        <ele>113.40000152588</ele>
        <time>2024-05-21T11:22:23.000Z</time>
      </trkpt>
      <trkpt lat="44.95217" lon="4.88157">
        <ele>113.40000152588</ele>
        <time>2024-05-21T11:22:24.000Z</time>
      </trkpt>
      <trkpt lat="44.95212" lon="4.88159">
        <ele>113.40000152588</ele>
        <time>2024-05-21T11:22:25.000Z</time>
      </trkpt>
      <trkpt lat="44.95207" lon="4.88161">
        <ele>113.19999694824</ele>
        <time>2024-05-21T11:22:26.000Z</time>
      </trkpt>
      <trkpt lat="44.952" lon="4.88165">
        <ele>113.19999694824</ele>
        <time>2024-05-21T11:22:27.000Z</time>
      </trkpt>
      <trkpt lat="44.95196" lon="4.88167">
        <ele>113.19999694824</ele>
        <time>2024-05-21T11:22:28.000Z</time>
      </trkpt>
      <trkpt lat="44.95189" lon="4.8817">
        <ele>113.19999694824</ele>
        <time>2024-05-21T11:22:29.000Z</time>
      </trkpt>
      <trkpt lat="44.95183" lon="4.88172">
        <ele>113</ele>
        <time>2024-05-21T11:22:30.000Z</time>
      </trkpt>
      <trkpt lat="44.95177" lon="4.88175">
        <ele>113</ele>
        <time>2024-05-21T11:22:31.000Z</time>
      </trkpt>
      <trkpt lat="44.95172" lon="4.88177">
        <ele>113</ele>
        <time>2024-05-21T11:22:32.000Z</time>
      </trkpt>
      <trkpt lat="44.95166" lon="4.88179">
        <ele>113</ele>
        <time>2024-05-21T11:22:33.000Z</time>
      </trkpt>
      <trkpt lat="44.9516" lon="4.88182">
        <ele>113.19999694824</ele>
        <time>2024-05-21T11:22:34.000Z</time>
      </trkpt>
      <trkpt lat="44.95155" lon="4.88184">
        <ele>113.40000152588</ele>
        <time>2024-05-21T11:22:35.000Z</time>
      </trkpt>
      <trkpt lat="44.95149" lon="4.88187">
        <ele>113.40000152588</ele>
        <time>2024-05-21T11:22:36.000Z</time>
      </trkpt>
      <trkpt lat="44.95143" lon="4.88189">
        <ele>113.40000152588</ele>
        <time>2024-05-21T11:22:37.000Z</time>
      </trkpt>
      <trkpt lat="44.95138" lon="4.88192">
        <ele>113.40000152588</ele>
        <time>2024-05-21T11:22:38.000Z</time>
      </trkpt>
      <trkpt lat="44.95132" lon="4.88195">
        <ele>113.40000152588</ele>
        <time>2024-05-21T11:22:39.000Z</time>
      </trkpt>
      <trkpt lat="44.95126" lon="4.88197">
        <ele>113.40000152588</ele>
        <time>2024-05-21T11:22:40.000Z</time>
      </trkpt>
      <trkpt lat="44.9512" lon="4.882">
        <ele>113.40000152588</ele>
        <time>2024-05-21T11:22:41.000Z</time>
      </trkpt>
      <trkpt lat="44.95115" lon="4.88202">
        <ele>113.40000152588</ele>
        <time>2024-05-21T11:22:42.000Z</time>
      </trkpt>
      <trkpt lat="44.95108" lon="4.88205">
        <ele>113.40000152588</ele>
        <time>2024-05-21T11:22:43.000Z</time>
      </trkpt>
      <trkpt lat="44.95102" lon="4.88207">
        <ele>113.40000152588</ele>
        <time>2024-05-21T11:22:44.000Z</time>
      </trkpt>
      <trkpt lat="44.95097" lon="4.88209">
        <ele>113.40000152588</ele>
        <time>2024-05-21T11:22:45.000Z</time>
      </trkpt>
      <trkpt lat="44.9509" lon="4.88212">
        <ele>113.40000152588</ele>
        <time>2024-05-21T11:22:46.000Z</time>
      </trkpt>
      <trkpt lat="44.95084" lon="4.88215">
        <ele>113.40000152588</ele>
        <time>2024-05-21T11:22:47.000Z</time>
      </trkpt>
      <trkpt lat="44.9508" lon="4.88217">
        <ele>113.40000152588</ele>
        <time>2024-05-21T11:22:48.000Z</time>
      </trkpt>
      <trkpt lat="44.95073" lon="4.8822">
        <ele>113.40000152588</ele>
        <time>2024-05-21T11:22:49.000Z</time>
      </trkpt>
      <trkpt lat="44.95067" lon="4.88223">
        <ele>113.40000152588</ele>
        <time>2024-05-21T11:22:50.000Z</time>
      </trkpt>
      <trkpt lat="44.95061" lon="4.88225">
        <ele>113.40000152588</ele>
        <time>2024-05-21T11:22:51.000Z</time>
      </trkpt>
      <trkpt lat="44.95055" lon="4.88227">
        <ele>113.40000152588</ele>
        <time>2024-05-21T11:22:52.000Z</time>
      </trkpt>
      <trkpt lat="44.95049" lon="4.8823">
        <ele>113.40000152588</ele>
        <time>2024-05-21T11:22:53.000Z</time>
      </trkpt>
      <trkpt lat="44.95044" lon="4.88232">
        <ele>113.19999694824</ele>
        <time>2024-05-21T11:22:54.000Z</time>
      </trkpt>
      <trkpt lat="44.95037" lon="4.88235">
        <ele>113.19999694824</ele>
        <time>2024-05-21T11:22:55.000Z</time>
      </trkpt>
      <trkpt lat="44.95031" lon="4.88238">
        <ele>113.19999694824</ele>
        <time>2024-05-21T11:22:56.000Z</time>
      </trkpt>
      <trkpt lat="44.95025" lon="4.88241">
        <ele>113.19999694824</ele>
        <time>2024-05-21T11:22:57.000Z</time>
      </trkpt>
      <trkpt lat="44.95019" lon="4.88244">
        <ele>113</ele>
        <time>2024-05-21T11:22:58.000Z</time>
      </trkpt>
      <trkpt lat="44.95013" lon="4.88246">
        <ele>113.19999694824</ele>
        <time>2024-05-21T11:22:59.000Z</time>
      </trkpt>
      <trkpt lat="44.95009" lon="4.88248">
        <ele>113.19999694824</ele>
        <time>2024-05-21T11:23:00.000Z</time>
      </trkpt>
      <trkpt lat="44.95001" lon="4.88251">
        <ele>113.19999694824</ele>
        <time>2024-05-21T11:23:01.000Z</time>
      </trkpt>
      <trkpt lat="44.94995" lon="4.88254">
        <ele>113.19999694824</ele>
        <time>2024-05-21T11:23:02.000Z</time>
      </trkpt>
      <trkpt lat="44.94991" lon="4.88256">
        <ele>113.19999694824</ele>
        <time>2024-05-21T11:23:03.000Z</time>
      </trkpt>
      <trkpt lat="44.94984" lon="4.88259">
        <ele>113.19999694824</ele>
        <time>2024-05-21T11:23:04.000Z</time>
      </trkpt>
      <trkpt lat="44.94977" lon="4.88262">
        <ele>113.19999694824</ele>
        <time>2024-05-21T11:23:05.000Z</time>
      </trkpt>
      <trkpt lat="44.94973" lon="4.88264">
        <ele>113.40000152588</ele>
        <time>2024-05-21T11:23:06.000Z</time>
      </trkpt>
      <trkpt lat="44.94965" lon="4.88267">
        <ele>113.40000152588</ele>
        <time>2024-05-21T11:23:07.000Z</time>
      </trkpt>
      <trkpt lat="44.94961" lon="4.88269">
        <ele>113.40000152588</ele>
        <time>2024-05-21T11:23:08.000Z</time>
      </trkpt>
      <trkpt lat="44.94955" lon="4.88272">
        <ele>113.40000152588</ele>
        <time>2024-05-21T11:23:09.000Z</time>
      </trkpt>
      <trkpt lat="44.94949" lon="4.88275">
        <ele>113.40000152588</ele>
        <time>2024-05-21T11:23:10.000Z</time>
      </trkpt>
      <trkpt lat="44.94943" lon="4.88277">
        <ele>113.40000152588</ele>
        <time>2024-05-21T11:23:11.000Z</time>
      </trkpt>
      <trkpt lat="44.94937" lon="4.8828">
        <ele>113.40000152588</ele>
        <time>2024-05-21T11:23:12.000Z</time>
      </trkpt>
      <trkpt lat="44.9493" lon="4.88282">
        <ele>113.40000152588</ele>
        <time>2024-05-21T11:23:13.000Z</time>
      </trkpt>
      <trkpt lat="44.94924" lon="4.88285">
        <ele>113.40000152588</ele>
        <time>2024-05-21T11:23:14.000Z</time>
      </trkpt>
      <trkpt lat="44.94918" lon="4.88288">
        <ele>113.40000152588</ele>
        <time>2024-05-21T11:23:15.000Z</time>
      </trkpt>
      <trkpt lat="44.94912" lon="4.8829">
        <ele>113.40000152588</ele>
        <time>2024-05-21T11:23:16.000Z</time>
      </trkpt>
      <trkpt lat="44.94907" lon="4.88293">
        <ele>113.40000152588</ele>
        <time>2024-05-21T11:23:17.000Z</time>
      </trkpt>
      <trkpt lat="44.94901" lon="4.88295">
        <ele>113.40000152588</ele>
        <time>2024-05-21T11:23:18.000Z</time>
      </trkpt>
      <trkpt lat="44.94895" lon="4.88298">
        <ele>113.40000152588</ele>
        <time>2024-05-21T11:23:19.000Z</time>
      </trkpt>
      <trkpt lat="44.94889" lon="4.88301">
        <ele>113.40000152588</ele>
        <time>2024-05-21T11:23:20.000Z</time>
      </trkpt>
      <trkpt lat="44.94883" lon="4.88303">
        <ele>113.40000152588</ele>
        <time>2024-05-21T11:23:21.000Z</time>
      </trkpt>
      <trkpt lat="44.94877" lon="4.88305">
        <ele>113.40000152588</ele>
        <time>2024-05-21T11:23:22.000Z</time>
      </trkpt>
      <trkpt lat="44.94871" lon="4.88308">
        <ele>113.19999694824</ele>
        <time>2024-05-21T11:23:23.000Z</time>
      </trkpt>
      <trkpt lat="44.94867" lon="4.8831">
        <ele>113.19999694824</ele>
        <time>2024-05-21T11:23:24.000Z</time>
      </trkpt>
      <trkpt lat="44.9486" lon="4.88313">
        <ele>113.19999694824</ele>
        <time>2024-05-21T11:23:25.000Z</time>
      </trkpt>
      <trkpt lat="44.94854" lon="4.88316">
        <ele>113.19999694824</ele>
        <time>2024-05-21T11:23:26.000Z</time>
      </trkpt>
      <trkpt lat="44.9485" lon="4.88318">
        <ele>113.19999694824</ele>
        <time>2024-05-21T11:23:27.000Z</time>
      </trkpt>
      <trkpt lat="44.94843" lon="4.88321">
        <ele>113.19999694824</ele>
        <time>2024-05-21T11:23:28.000Z</time>
      </trkpt>
      <trkpt lat="44.94838" lon="4.88323">
        <ele>113.19999694824</ele>
        <time>2024-05-21T11:23:29.000Z</time>
      </trkpt>
      <trkpt lat="44.94832" lon="4.88326">
        <ele>113.40000152588</ele>
        <time>2024-05-21T11:23:30.000Z</time>
      </trkpt>
      <trkpt lat="44.94825" lon="4.88329">
        <ele>113.40000152588</ele>
        <time>2024-05-21T11:23:31.000Z</time>
      </trkpt>
      <trkpt lat="44.94819" lon="4.88332">
        <ele>113.40000152588</ele>
        <time>2024-05-21T11:23:32.000Z</time>
      </trkpt>
      <trkpt lat="44.94815" lon="4.88334">
        <ele>113.59999847412</ele>
        <time>2024-05-21T11:23:33.000Z</time>
      </trkpt>
      <trkpt lat="44.94808" lon="4.88337">
        <ele>113.59999847412</ele>
        <time>2024-05-21T11:23:34.000Z</time>
      </trkpt>
      <trkpt lat="44.94802" lon="4.8834">
        <ele>113.59999847412</ele>
        <time>2024-05-21T11:23:35.000Z</time>
      </trkpt>
      <trkpt lat="44.94798" lon="4.88342">
        <ele>113.59999847412</ele>
        <time>2024-05-21T11:23:36.000Z</time>
      </trkpt>
      <trkpt lat="44.94791" lon="4.88346">
        <ele>113.59999847412</ele>
        <time>2024-05-21T11:23:37.000Z</time>
      </trkpt>
      <trkpt lat="44.94785" lon="4.88348">
        <ele>113.59999847412</ele>
        <time>2024-05-21T11:23:38.000Z</time>
      </trkpt>
      <trkpt lat="44.9478" lon="4.88351">
        <ele>113.59999847412</ele>
        <time>2024-05-21T11:23:39.000Z</time>
      </trkpt>
      <trkpt lat="44.94773" lon="4.88354">
        <ele>113.59999847412</ele>
        <time>2024-05-21T11:23:40.000Z</time>
      </trkpt>
      <trkpt lat="44.94767" lon="4.88357">
        <ele>113.59999847412</ele>
        <time>2024-05-21T11:23:41.000Z</time>
      </trkpt>
      <trkpt lat="44.94763" lon="4.88359">
        <ele>113.59999847412</ele>
        <time>2024-05-21T11:23:42.000Z</time>
      </trkpt>
      <trkpt lat="44.94755" lon="4.88363">
        <ele>113.40000152588</ele>
        <time>2024-05-21T11:23:43.000Z</time>
      </trkpt>
      <trkpt lat="44.9475" lon="4.88365">
        <ele>113.40000152588</ele>
        <time>2024-05-21T11:23:44.000Z</time>
      </trkpt>
      <trkpt lat="44.94744" lon="4.88367">
        <ele>113.40000152588</ele>
        <time>2024-05-21T11:23:45.000Z</time>
      </trkpt>
      <trkpt lat="44.94737" lon="4.8837">
        <ele>113.40000152588</ele>
        <time>2024-05-21T11:23:46.000Z</time>
      </trkpt>
      <trkpt lat="44.94731" lon="4.88373">
        <ele>113.40000152588</ele>
        <time>2024-05-21T11:23:47.000Z</time>
      </trkpt>
      <trkpt lat="44.94726" lon="4.88375">
        <ele>113.19999694824</ele>
        <time>2024-05-21T11:23:48.000Z</time>
      </trkpt>
      <trkpt lat="44.94719" lon="4.88378">
        <ele>113.19999694824</ele>
        <time>2024-05-21T11:23:49.000Z</time>
      </trkpt>
      <trkpt lat="44.94714" lon="4.8838">
        <ele>113.19999694824</ele>
        <time>2024-05-21T11:23:50.000Z</time>
      </trkpt>
      <trkpt lat="44.94708" lon="4.88383">
        <ele>113.19999694824</ele>
        <time>2024-05-21T11:23:51.000Z</time>
      </trkpt>
      <trkpt lat="44.94703" lon="4.88385">
        <ele>113.19999694824</ele>
        <time>2024-05-21T11:23:52.000Z</time>
      </trkpt>
      <trkpt lat="44.94696" lon="4.88389">
        <ele>113.19999694824</ele>
        <time>2024-05-21T11:23:53.000Z</time>
      </trkpt>
      <trkpt lat="44.94691" lon="4.88391">
        <ele>113.40000152588</ele>
        <time>2024-05-21T11:23:54.000Z</time>
      </trkpt>
      <trkpt lat="44.94685" lon="4.88393">
        <ele>113.40000152588</ele>
        <time>2024-05-21T11:23:55.000Z</time>
      </trkpt>
      <trkpt lat="44.94678" lon="4.88396">
        <ele>113.40000152588</ele>
        <time>2024-05-21T11:23:56.000Z</time>
      </trkpt>
      <trkpt lat="44.94673" lon="4.88398">
        <ele>113.40000152588</ele>
        <time>2024-05-21T11:23:57.000Z</time>
      </trkpt>
      <trkpt lat="44.94666" lon="4.88401">
        <ele>113.40000152588</ele>
        <time>2024-05-21T11:23:58.000Z</time>
      </trkpt>
      <trkpt lat="44.9466" lon="4.88404">
        <ele>113.40000152588</ele>
        <time>2024-05-21T11:23:59.000Z</time>
      </trkpt>
      <trkpt lat="44.94655" lon="4.88406">
        <ele>113.40000152588</ele>
        <time>2024-05-21T11:24:00.000Z</time>
      </trkpt>
      <trkpt lat="44.94648" lon="4.8841">
        <ele>113.40000152588</ele>
        <time>2024-05-21T11:24:01.000Z</time>
      </trkpt>
      <trkpt lat="44.94644" lon="4.88412">
        <ele>113.19999694824</ele>
        <time>2024-05-21T11:24:02.000Z</time>
      </trkpt>
      <trkpt lat="44.94638" lon="4.88415">
        <ele>113.19999694824</ele>
        <time>2024-05-21T11:24:03.000Z</time>
      </trkpt>
      <trkpt lat="44.94631" lon="4.88417">
        <ele>113.19999694824</ele>
        <time>2024-05-21T11:24:04.000Z</time>
      </trkpt>
      <trkpt lat="44.94625" lon="4.8842">
        <ele>113.19999694824</ele>
        <time>2024-05-21T11:24:05.000Z</time>
      </trkpt>
      <trkpt lat="44.94621" lon="4.88421">
        <ele>113.19999694824</ele>
        <time>2024-05-21T11:24:06.000Z</time>
      </trkpt>
      <trkpt lat="44.94614" lon="4.88424">
        <ele>113.19999694824</ele>
        <time>2024-05-21T11:24:07.000Z</time>
      </trkpt>
      <trkpt lat="44.94609" lon="4.88426">
        <ele>113</ele>
        <time>2024-05-21T11:24:08.000Z</time>
      </trkpt>
      <trkpt lat="44.94605" lon="4.88428">
        <ele>113</ele>
        <time>2024-05-21T11:24:09.000Z</time>
      </trkpt>
      <trkpt lat="44.94598" lon="4.8843">
        <ele>112.80000305176</ele>
        <time>2024-05-21T11:24:10.000Z</time>
      </trkpt>
      <trkpt lat="44.94592" lon="4.88433">
        <ele>112.80000305176</ele>
        <time>2024-05-21T11:24:11.000Z</time>
      </trkpt>
      <trkpt lat="44.94588" lon="4.88435">
        <ele>112.80000305176</ele>
        <time>2024-05-21T11:24:12.000Z</time>
      </trkpt>
      <trkpt lat="44.94582" lon="4.88438">
        <ele>113</ele>
        <time>2024-05-21T11:24:13.000Z</time>
      </trkpt>
      <trkpt lat="44.94577" lon="4.8844">
        <ele>113</ele>
        <time>2024-05-21T11:24:14.000Z</time>
      </trkpt>
      <trkpt lat="44.94572" lon="4.88443">
        <ele>112.80000305176</ele>
        <time>2024-05-21T11:24:15.000Z</time>
      </trkpt>
      <trkpt lat="44.94565" lon="4.88446">
        <ele>112.80000305176</ele>
        <time>2024-05-21T11:24:16.000Z</time>
      </trkpt>
      <trkpt lat="44.9456" lon="4.88448">
        <ele>112.80000305176</ele>
        <time>2024-05-21T11:24:17.000Z</time>
      </trkpt>
      <trkpt lat="44.94556" lon="4.8845">
        <ele>112.80000305176</ele>
        <time>2024-05-21T11:24:18.000Z</time>
      </trkpt>
      <trkpt lat="44.9455" lon="4.88453">
        <ele>112.80000305176</ele>
        <time>2024-05-21T11:24:19.000Z</time>
      </trkpt>
      <trkpt lat="44.94545" lon="4.88455">
        <ele>112.80000305176</ele>
        <time>2024-05-21T11:24:20.000Z</time>
      </trkpt>
      <trkpt lat="44.9454" lon="4.88457">
        <ele>112.80000305176</ele>
        <time>2024-05-21T11:24:21.000Z</time>
      </trkpt>
      <trkpt lat="44.94534" lon="4.8846">
        <ele>112.80000305176</ele>
        <time>2024-05-21T11:24:22.000Z</time>
      </trkpt>
      <trkpt lat="44.94528" lon="4.88462">
        <ele>112.59999847412</ele>
        <time>2024-05-21T11:24:23.000Z</time>
      </trkpt>
      <trkpt lat="44.94524" lon="4.88464">
        <ele>112.59999847412</ele>
        <time>2024-05-21T11:24:24.000Z</time>
      </trkpt>
      <trkpt lat="44.94518" lon="4.88467">
        <ele>112.59999847412</ele>
        <time>2024-05-21T11:24:25.000Z</time>
      </trkpt>
      <trkpt lat="44.94514" lon="4.88469">
        <ele>112.59999847412</ele>
        <time>2024-05-21T11:24:26.000Z</time>
      </trkpt>
      <trkpt lat="44.94509" lon="4.88471">
        <ele>112.59999847412</ele>
        <time>2024-05-21T11:24:27.000Z</time>
      </trkpt>
      <trkpt lat="44.94503" lon="4.88474">
        <ele>112.59999847412</ele>
        <time>2024-05-21T11:24:28.000Z</time>
      </trkpt>
      <trkpt lat="44.94497" lon="4.88477">
        <ele>112.59999847412</ele>
        <time>2024-05-21T11:24:29.000Z</time>
      </trkpt>
      <trkpt lat="44.94493" lon="4.88479">
        <ele>112.59999847412</ele>
        <time>2024-05-21T11:24:30.000Z</time>
      </trkpt>
      <trkpt lat="44.94487" lon="4.88482">
        <ele>112.40000152588</ele>
        <time>2024-05-21T11:24:31.000Z</time>
      </trkpt>
      <trkpt lat="44.94483" lon="4.88484">
        <ele>112.19999694824</ele>
        <time>2024-05-21T11:24:32.000Z</time>
      </trkpt>
      <trkpt lat="44.94477" lon="4.88487">
        <ele>112.19999694824</ele>
        <time>2024-05-21T11:24:33.000Z</time>
      </trkpt>
      <trkpt lat="44.94472" lon="4.8849">
        <ele>112.19999694824</ele>
        <time>2024-05-21T11:24:34.000Z</time>
      </trkpt>
      <trkpt lat="44.94468" lon="4.88493">
        <ele>112.19999694824</ele>
        <time>2024-05-21T11:24:35.000Z</time>
      </trkpt>
      <trkpt lat="44.94463" lon="4.88496">
        <ele>112.19999694824</ele>
        <time>2024-05-21T11:24:36.000Z</time>
      </trkpt>
      <trkpt lat="44.94458" lon="4.88499">
        <ele>112.40000152588</ele>
        <time>2024-05-21T11:24:37.000Z</time>
      </trkpt>
      <trkpt lat="44.94453" lon="4.88502">
        <ele>112.40000152588</ele>
        <time>2024-05-21T11:24:38.000Z</time>
      </trkpt>
      <trkpt lat="44.94448" lon="4.88505">
        <ele>112.40000152588</ele>
        <time>2024-05-21T11:24:39.000Z</time>
      </trkpt>
      <trkpt lat="44.94442" lon="4.88509">
        <ele>112.40000152588</ele>
        <time>2024-05-21T11:24:40.000Z</time>
      </trkpt>
      <trkpt lat="44.94437" lon="4.88511">
        <ele>112.59999847412</ele>
        <time>2024-05-21T11:24:41.000Z</time>
      </trkpt>
      <trkpt lat="44.94433" lon="4.88512">
        <ele>112.59999847412</ele>
        <time>2024-05-21T11:24:42.000Z</time>
      </trkpt>
      <trkpt lat="44.94427" lon="4.88516">
        <ele>112.59999847412</ele>
        <time>2024-05-21T11:24:43.000Z</time>
      </trkpt>
      <trkpt lat="44.94422" lon="4.8852">
        <ele>112.59999847412</ele>
        <time>2024-05-21T11:24:44.000Z</time>
      </trkpt>
      <trkpt lat="44.94419" lon="4.88524">
        <ele>112.40000152588</ele>
        <time>2024-05-21T11:24:45.000Z</time>
      </trkpt>
      <trkpt lat="44.94417" lon="4.88532">
        <ele>112.40000152588</ele>
        <time>2024-05-21T11:24:46.000Z</time>
      </trkpt>
      <trkpt lat="44.94418" lon="4.88538">
        <ele>112.40000152588</ele>
        <time>2024-05-21T11:24:47.000Z</time>
      </trkpt>
      <trkpt lat="44.9442" lon="4.88542">
        <ele>112.59999847412</ele>
        <time>2024-05-21T11:24:48.000Z</time>
      </trkpt>
      <trkpt lat="44.94423" lon="4.88547">
        <ele>112.80000305176</ele>
        <time>2024-05-21T11:24:49.000Z</time>
      </trkpt>
      <trkpt lat="44.94426" lon="4.88551">
        <ele>113</ele>
        <time>2024-05-21T11:24:50.000Z</time>
      </trkpt>
      <trkpt lat="44.94428" lon="4.88554">
        <ele>113.40000152588</ele>
        <time>2024-05-21T11:24:51.000Z</time>
      </trkpt>
      <trkpt lat="44.94431" lon="4.88558">
        <ele>113.59999847412</ele>
        <time>2024-05-21T11:24:52.000Z</time>
      </trkpt>
      <trkpt lat="44.94434" lon="4.88562">
        <ele>113.80000305176</ele>
        <time>2024-05-21T11:24:53.000Z</time>
      </trkpt>
      <trkpt lat="44.94436" lon="4.88564">
        <ele>113.80000305176</ele>
        <time>2024-05-21T11:24:54.000Z</time>
      </trkpt>
      <trkpt lat="44.94439" lon="4.88568">
        <ele>114</ele>
        <time>2024-05-21T11:24:55.000Z</time>
      </trkpt>
      <trkpt lat="44.94441" lon="4.88571">
        <ele>114.19999694824</ele>
        <time>2024-05-21T11:24:56.000Z</time>
      </trkpt>
      <trkpt lat="44.94444" lon="4.88574">
        <ele>114.19999694824</ele>
        <time>2024-05-21T11:24:57.000Z</time>
      </trkpt>
      <trkpt lat="44.94446" lon="4.88579">
        <ele>114.40000152588</ele>
        <time>2024-05-21T11:24:58.000Z</time>
      </trkpt>
      <trkpt lat="44.94448" lon="4.88583">
        <ele>114.40000152588</ele>
        <time>2024-05-21T11:24:59.000Z</time>
      </trkpt>
      <trkpt lat="44.9445" lon="4.88586">
        <ele>114.40000152588</ele>
        <time>2024-05-21T11:25:00.000Z</time>
      </trkpt>
      <trkpt lat="44.94453" lon="4.88591">
        <ele>114.40000152588</ele>
        <time>2024-05-21T11:25:01.000Z</time>
      </trkpt>
      <trkpt lat="44.94455" lon="4.88595">
        <ele>114.40000152588</ele>
        <time>2024-05-21T11:25:02.000Z</time>
      </trkpt>
      <trkpt lat="44.94457" lon="4.88598">
        <ele>114.40000152588</ele>
        <time>2024-05-21T11:25:03.000Z</time>
      </trkpt>
      <trkpt lat="44.9446" lon="4.88602">
        <ele>114.59999847412</ele>
        <time>2024-05-21T11:25:04.000Z</time>
      </trkpt>
      <trkpt lat="44.94462" lon="4.88605">
        <ele>114.59999847412</ele>
        <time>2024-05-21T11:25:05.000Z</time>
      </trkpt>
      <trkpt lat="44.94465" lon="4.8861">
        <ele>114.59999847412</ele>
        <time>2024-05-21T11:25:06.000Z</time>
      </trkpt>
      <trkpt lat="44.94469" lon="4.88615">
        <ele>114.59999847412</ele>
        <time>2024-05-21T11:25:07.000Z</time>
      </trkpt>
      <trkpt lat="44.94472" lon="4.88619">
        <ele>114.59999847412</ele>
        <time>2024-05-21T11:25:08.000Z</time>
      </trkpt>
      <trkpt lat="44.94475" lon="4.88624">
        <ele>114.80000305176</ele>
        <time>2024-05-21T11:25:09.000Z</time>
      </trkpt>
      <trkpt lat="44.94479" lon="4.8863">
        <ele>114.80000305176</ele>
        <time>2024-05-21T11:25:10.000Z</time>
      </trkpt>
      <trkpt lat="44.94482" lon="4.88635">
        <ele>114.80000305176</ele>
        <time>2024-05-21T11:25:11.000Z</time>
      </trkpt>
      <trkpt lat="44.94484" lon="4.8864">
        <ele>114.80000305176</ele>
        <time>2024-05-21T11:25:12.000Z</time>
      </trkpt>
      <trkpt lat="44.94487" lon="4.88647">
        <ele>114.80000305176</ele>
        <time>2024-05-21T11:25:13.000Z</time>
      </trkpt>
      <trkpt lat="44.94487" lon="4.88651">
        <ele>115</ele>
        <time>2024-05-21T11:25:14.000Z</time>
      </trkpt>
      <trkpt lat="44.94488" lon="4.88657">
        <ele>115</ele>
        <time>2024-05-21T11:25:15.000Z</time>
      </trkpt>
      <trkpt lat="44.94489" lon="4.88663">
        <ele>115</ele>
        <time>2024-05-21T11:25:16.000Z</time>
      </trkpt>
      <trkpt lat="44.94489" lon="4.88668">
        <ele>115</ele>
        <time>2024-05-21T11:25:17.000Z</time>
      </trkpt>
      <trkpt lat="44.9449" lon="4.88674">
        <ele>115</ele>
        <time>2024-05-21T11:25:18.000Z</time>
      </trkpt>
      <trkpt lat="44.94491" lon="4.88681">
        <ele>115</ele>
        <time>2024-05-21T11:25:19.000Z</time>
      </trkpt>
      <trkpt lat="44.94492" lon="4.88686">
        <ele>115</ele>
        <time>2024-05-21T11:25:20.000Z</time>
      </trkpt>
      <trkpt lat="44.94494" lon="4.88691">
        <ele>115</ele>
        <time>2024-05-21T11:25:21.000Z</time>
      </trkpt>
      <trkpt lat="44.94497" lon="4.88697">
        <ele>115</ele>
        <time>2024-05-21T11:25:22.000Z</time>
      </trkpt>
      <trkpt lat="44.94501" lon="4.887">
        <ele>115.19999694824</ele>
        <time>2024-05-21T11:25:23.000Z</time>
      </trkpt>
      <trkpt lat="44.94504" lon="4.88701">
        <ele>115.19999694824</ele>
        <time>2024-05-21T11:25:24.000Z</time>
      </trkpt>
      <trkpt lat="44.94509" lon="4.88703">
        <ele>115.19999694824</ele>
        <time>2024-05-21T11:25:25.000Z</time>
      </trkpt>
      <trkpt lat="44.94513" lon="4.88704">
        <ele>115.19999694824</ele>
        <time>2024-05-21T11:25:26.000Z</time>
      </trkpt>
      <trkpt lat="44.94519" lon="4.88705">
        <ele>115</ele>
        <time>2024-05-21T11:25:27.000Z</time>
      </trkpt>
      <trkpt lat="44.94525" lon="4.88707">
        <ele>115</ele>
        <time>2024-05-21T11:25:28.000Z</time>
      </trkpt>
      <trkpt lat="44.94529" lon="4.88708">
        <ele>115.19999694824</ele>
        <time>2024-05-21T11:25:29.000Z</time>
      </trkpt>
      <trkpt lat="44.94533" lon="4.88711">
        <ele>115.19999694824</ele>
        <time>2024-05-21T11:25:30.000Z</time>
      </trkpt>
      <trkpt lat="44.94536" lon="4.88717">
        <ele>115.19999694824</ele>
        <time>2024-05-21T11:25:31.000Z</time>
      </trkpt>
      <trkpt lat="44.94538" lon="4.88721">
        <ele>115.59999847412</ele>
        <time>2024-05-21T11:25:32.000Z</time>
      </trkpt>
      <trkpt lat="44.94538" lon="4.88727">
        <ele>116</ele>
        <time>2024-05-21T11:25:33.000Z</time>
      </trkpt>
      <trkpt lat="44.94536" lon="4.88734">
        <ele>116.19999694824</ele>
        <time>2024-05-21T11:25:34.000Z</time>
      </trkpt>
      <trkpt lat="44.94534" lon="4.8874">
        <ele>116.40000152588</ele>
        <time>2024-05-21T11:25:35.000Z</time>
      </trkpt>
      <trkpt lat="44.94532" lon="4.88745">
        <ele>116.59999847412</ele>
        <time>2024-05-21T11:25:36.000Z</time>
      </trkpt>
      <trkpt lat="44.9453" lon="4.88752">
        <ele>116.80000305176</ele>
        <time>2024-05-21T11:25:37.000Z</time>
      </trkpt>
      <trkpt lat="44.94528" lon="4.88757">
        <ele>116.80000305176</ele>
        <time>2024-05-21T11:25:38.000Z</time>
      </trkpt>
      <trkpt lat="44.94526" lon="4.88763">
        <ele>117</ele>
        <time>2024-05-21T11:25:39.000Z</time>
      </trkpt>
      <trkpt lat="44.94524" lon="4.88769">
        <ele>117</ele>
        <time>2024-05-21T11:25:40.000Z</time>
      </trkpt>
      <trkpt lat="44.94521" lon="4.88777">
        <ele>117</ele>
        <time>2024-05-21T11:25:41.000Z</time>
      </trkpt>
      <trkpt lat="44.94518" lon="4.88782">
        <ele>117</ele>
        <time>2024-05-21T11:25:42.000Z</time>
      </trkpt>
      <trkpt lat="44.94515" lon="4.8879">
        <ele>117</ele>
        <time>2024-05-21T11:25:43.000Z</time>
      </trkpt>
      <trkpt lat="44.94513" lon="4.88796">
        <ele>117</ele>
        <time>2024-05-21T11:25:44.000Z</time>
      </trkpt>
      <trkpt lat="44.94511" lon="4.88803">
        <ele>117</ele>
        <time>2024-05-21T11:25:45.000Z</time>
      </trkpt>
      <trkpt lat="44.94507" lon="4.88811">
        <ele>117</ele>
        <time>2024-05-21T11:25:46.000Z</time>
      </trkpt>
      <trkpt lat="44.94505" lon="4.88816">
        <ele>117</ele>
        <time>2024-05-21T11:25:47.000Z</time>
      </trkpt>
      <trkpt lat="44.94503" lon="4.88823">
        <ele>117</ele>
        <time>2024-05-21T11:25:48.000Z</time>
      </trkpt>
      <trkpt lat="44.945" lon="4.88831">
        <ele>116.80000305176</ele>
        <time>2024-05-21T11:25:49.000Z</time>
      </trkpt>
      <trkpt lat="44.94497" lon="4.88836">
        <ele>116.80000305176</ele>
        <time>2024-05-21T11:25:50.000Z</time>
      </trkpt>
      <trkpt lat="44.94494" lon="4.88843">
        <ele>116.59999847412</ele>
        <time>2024-05-21T11:25:51.000Z</time>
      </trkpt>
      <trkpt lat="44.94492" lon="4.8885">
        <ele>116.59999847412</ele>
        <time>2024-05-21T11:25:52.000Z</time>
      </trkpt>
      <trkpt lat="44.94488" lon="4.88858">
        <ele>116.59999847412</ele>
        <time>2024-05-21T11:25:53.000Z</time>
      </trkpt>
      <trkpt lat="44.94485" lon="4.88863">
        <ele>116.40000152588</ele>
        <time>2024-05-21T11:25:54.000Z</time>
      </trkpt>
      <trkpt lat="44.94481" lon="4.88871">
        <ele>116.40000152588</ele>
        <time>2024-05-21T11:25:55.000Z</time>
      </trkpt>
      <trkpt lat="44.94478" lon="4.88876">
        <ele>116.40000152588</ele>
        <time>2024-05-21T11:25:56.000Z</time>
      </trkpt>
      <trkpt lat="44.94474" lon="4.88883">
        <ele>116.19999694824</ele>
        <time>2024-05-21T11:25:57.000Z</time>
      </trkpt>
      <trkpt lat="44.94469" lon="4.8889">
        <ele>116</ele>
        <time>2024-05-21T11:25:58.000Z</time>
      </trkpt>
      <trkpt lat="44.94465" lon="4.88895">
        <ele>116</ele>
        <time>2024-05-21T11:25:59.000Z</time>
      </trkpt>
      <trkpt lat="44.94461" lon="4.88901">
        <ele>115.80000305176</ele>
        <time>2024-05-21T11:26:00.000Z</time>
      </trkpt>
      <trkpt lat="44.94457" lon="4.88907">
        <ele>115.59999847412</ele>
        <time>2024-05-21T11:26:01.000Z</time>
      </trkpt>
      <trkpt lat="44.94452" lon="4.88914">
        <ele>115.59999847412</ele>
        <time>2024-05-21T11:26:02.000Z</time>
      </trkpt>
      <trkpt lat="44.94448" lon="4.8892">
        <ele>115.59999847412</ele>
        <time>2024-05-21T11:26:03.000Z</time>
      </trkpt>
      <trkpt lat="44.94444" lon="4.88929">
        <ele>115.40000152588</ele>
        <time>2024-05-21T11:26:04.000Z</time>
      </trkpt>
      <trkpt lat="44.94442" lon="4.88936">
        <ele>115.40000152588</ele>
        <time>2024-05-21T11:26:05.000Z</time>
      </trkpt>
      <trkpt lat="44.9444" lon="4.88941">
        <ele>115.19999694824</ele>
        <time>2024-05-21T11:26:06.000Z</time>
      </trkpt>
      <trkpt lat="44.94438" lon="4.8895">
        <ele>115.19999694824</ele>
        <time>2024-05-21T11:26:07.000Z</time>
      </trkpt>
      <trkpt lat="44.94437" lon="4.88956">
        <ele>115.19999694824</ele>
        <time>2024-05-21T11:26:08.000Z</time>
      </trkpt>
      <trkpt lat="44.94435" lon="4.88963">
        <ele>115.19999694824</ele>
        <time>2024-05-21T11:26:09.000Z</time>
      </trkpt>
      <trkpt lat="44.94434" lon="4.8897">
        <ele>115.19999694824</ele>
        <time>2024-05-21T11:26:10.000Z</time>
      </trkpt>
      <trkpt lat="44.94432" lon="4.88977">
        <ele>115.19999694824</ele>
        <time>2024-05-21T11:26:11.000Z</time>
      </trkpt>
      <trkpt lat="44.9443" lon="4.88983">
        <ele>115.40000152588</ele>
        <time>2024-05-21T11:26:12.000Z</time>
      </trkpt>
      <trkpt lat="44.94428" lon="4.88991">
        <ele>115.80000305176</ele>
        <time>2024-05-21T11:26:13.000Z</time>
      </trkpt>
      <trkpt lat="44.94426" lon="4.88996">
        <ele>116.19999694824</ele>
        <time>2024-05-21T11:26:14.000Z</time>
      </trkpt>
      <trkpt lat="44.94424" lon="4.89001">
        <ele>116.40000152588</ele>
        <time>2024-05-21T11:26:15.000Z</time>
      </trkpt>
      <trkpt lat="44.94421" lon="4.89008">
        <ele>116.40000152588</ele>
        <time>2024-05-21T11:26:16.000Z</time>
      </trkpt>
      <trkpt lat="44.94419" lon="4.89012">
        <ele>116.40000152588</ele>
        <time>2024-05-21T11:26:17.000Z</time>
      </trkpt>
      <trkpt lat="44.94417" lon="4.89017">
        <ele>116.80000305176</ele>
        <time>2024-05-21T11:26:18.000Z</time>
      </trkpt>
      <trkpt lat="44.94415" lon="4.89024">
        <ele>116.80000305176</ele>
        <time>2024-05-21T11:26:19.000Z</time>
      </trkpt>
      <trkpt lat="44.94413" lon="4.89028">
        <ele>117.19999694824</ele>
        <time>2024-05-21T11:26:20.000Z</time>
      </trkpt>
      <trkpt lat="44.94411" lon="4.89033">
        <ele>117.40000152588</ele>
        <time>2024-05-21T11:26:21.000Z</time>
      </trkpt>
      <trkpt lat="44.94409" lon="4.89039">
        <ele>117.40000152588</ele>
        <time>2024-05-21T11:26:22.000Z</time>
      </trkpt>
      <trkpt lat="44.94406" lon="4.89045">
        <ele>117.59999847412</ele>
        <time>2024-05-21T11:26:23.000Z</time>
      </trkpt>
      <trkpt lat="44.94404" lon="4.8905">
        <ele>117.59999847412</ele>
        <time>2024-05-21T11:26:24.000Z</time>
      </trkpt>
      <trkpt lat="44.94401" lon="4.89057">
        <ele>117.59999847412</ele>
        <time>2024-05-21T11:26:25.000Z</time>
      </trkpt>
      <trkpt lat="44.94399" lon="4.89062">
        <ele>117.40000152588</ele>
        <time>2024-05-21T11:26:26.000Z</time>
      </trkpt>
      <trkpt lat="44.94396" lon="4.89068">
        <ele>117.40000152588</ele>
        <time>2024-05-21T11:26:27.000Z</time>
      </trkpt>
      <trkpt lat="44.94392" lon="4.89075">
        <ele>117.40000152588</ele>
        <time>2024-05-21T11:26:28.000Z</time>
      </trkpt>
      <trkpt lat="44.94388" lon="4.89079">
        <ele>117.40000152588</ele>
        <time>2024-05-21T11:26:29.000Z</time>
      </trkpt>
      <trkpt lat="44.94384" lon="4.89085">
        <ele>117.19999694824</ele>
        <time>2024-05-21T11:26:30.000Z</time>
      </trkpt>
      <trkpt lat="44.9438" lon="4.89092">
        <ele>116.80000305176</ele>
        <time>2024-05-21T11:26:31.000Z</time>
      </trkpt>
      <trkpt lat="44.94378" lon="4.89098">
        <ele>116.59999847412</ele>
        <time>2024-05-21T11:26:32.000Z</time>
      </trkpt>
      <trkpt lat="44.94377" lon="4.89105">
        <ele>116.59999847412</ele>
        <time>2024-05-21T11:26:33.000Z</time>
      </trkpt>
      <trkpt lat="44.94376" lon="4.89113">
        <ele>116.59999847412</ele>
        <time>2024-05-21T11:26:34.000Z</time>
      </trkpt>
      <trkpt lat="44.94375" lon="4.89119">
        <ele>116.59999847412</ele>
        <time>2024-05-21T11:26:35.000Z</time>
      </trkpt>
      <trkpt lat="44.94376" lon="4.89126">
        <ele>116.59999847412</ele>
        <time>2024-05-21T11:26:36.000Z</time>
      </trkpt>
      <trkpt lat="44.94376" lon="4.89133">
        <ele>116.59999847412</ele>
        <time>2024-05-21T11:26:37.000Z</time>
      </trkpt>
      <trkpt lat="44.94377" lon="4.8914">
        <ele>116.80000305176</ele>
        <time>2024-05-21T11:26:38.000Z</time>
      </trkpt>
      <trkpt lat="44.94377" lon="4.89148">
        <ele>117</ele>
        <time>2024-05-21T11:26:39.000Z</time>
      </trkpt>
      <trkpt lat="44.94377" lon="4.89155">
        <ele>117</ele>
        <time>2024-05-21T11:26:40.000Z</time>
      </trkpt>
      <trkpt lat="44.94378" lon="4.89163">
        <ele>117</ele>
        <time>2024-05-21T11:26:41.000Z</time>
      </trkpt>
      <trkpt lat="44.94378" lon="4.8917">
        <ele>117.19999694824</ele>
        <time>2024-05-21T11:26:42.000Z</time>
      </trkpt>
      <trkpt lat="44.94378" lon="4.89178">
        <ele>117.19999694824</ele>
        <time>2024-05-21T11:26:43.000Z</time>
      </trkpt>
      <trkpt lat="44.94377" lon="4.89185">
        <ele>117.19999694824</ele>
        <time>2024-05-21T11:26:44.000Z</time>
      </trkpt>
      <trkpt lat="44.94376" lon="4.89193">
        <ele>117.19999694824</ele>
        <time>2024-05-21T11:26:45.000Z</time>
      </trkpt>
      <trkpt lat="44.94375" lon="4.89202">
        <ele>117.19999694824</ele>
        <time>2024-05-21T11:26:46.000Z</time>
      </trkpt>
      <trkpt lat="44.94373" lon="4.89207">
        <ele>117.19999694824</ele>
        <time>2024-05-21T11:26:47.000Z</time>
      </trkpt>
      <trkpt lat="44.94371" lon="4.89214">
        <ele>117.19999694824</ele>
        <time>2024-05-21T11:26:48.000Z</time>
      </trkpt>
      <trkpt lat="44.94368" lon="4.89221">
        <ele>117.19999694824</ele>
        <time>2024-05-21T11:26:49.000Z</time>
      </trkpt>
      <trkpt lat="44.94366" lon="4.89228">
        <ele>117</ele>
        <time>2024-05-21T11:26:50.000Z</time>
      </trkpt>
      <trkpt lat="44.94362" lon="4.89234">
        <ele>117</ele>
        <time>2024-05-21T11:26:51.000Z</time>
      </trkpt>
      <trkpt lat="44.94358" lon="4.8924">
        <ele>117</ele>
        <time>2024-05-21T11:26:52.000Z</time>
      </trkpt>
      <trkpt lat="44.94354" lon="4.89245">
        <ele>117</ele>
        <time>2024-05-21T11:26:53.000Z</time>
      </trkpt>
      <trkpt lat="44.94349" lon="4.89249">
        <ele>116.80000305176</ele>
        <time>2024-05-21T11:26:54.000Z</time>
      </trkpt>
      <trkpt lat="44.94343" lon="4.89252">
        <ele>116.80000305176</ele>
        <time>2024-05-21T11:26:55.000Z</time>
      </trkpt>
      <trkpt lat="44.94338" lon="4.89254">
        <ele>116.80000305176</ele>
        <time>2024-05-21T11:26:56.000Z</time>
      </trkpt>
      <trkpt lat="44.94333" lon="4.89257">
        <ele>116.80000305176</ele>
        <time>2024-05-21T11:26:57.000Z</time>
      </trkpt>
      <trkpt lat="44.94327" lon="4.8926">
        <ele>116.59999847412</ele>
        <time>2024-05-21T11:26:58.000Z</time>
      </trkpt>
      <trkpt lat="44.94322" lon="4.89262">
        <ele>116.59999847412</ele>
        <time>2024-05-21T11:26:59.000Z</time>
      </trkpt>
      <trkpt lat="44.94316" lon="4.89265">
        <ele>116.40000152588</ele>
        <time>2024-05-21T11:27:00.000Z</time>
      </trkpt>
      <trkpt lat="44.94311" lon="4.89268">
        <ele>116.40000152588</ele>
        <time>2024-05-21T11:27:01.000Z</time>
      </trkpt>
      <trkpt lat="44.94305" lon="4.89271">
        <ele>116</ele>
        <time>2024-05-21T11:27:02.000Z</time>
      </trkpt>
      <trkpt lat="44.94299" lon="4.89274">
        <ele>116</ele>
        <time>2024-05-21T11:27:03.000Z</time>
      </trkpt>
      <trkpt lat="44.94294" lon="4.89278">
        <ele>116</ele>
        <time>2024-05-21T11:27:04.000Z</time>
      </trkpt>
      <trkpt lat="44.94288" lon="4.89281">
        <ele>115.80000305176</ele>
        <time>2024-05-21T11:27:05.000Z</time>
      </trkpt>
      <trkpt lat="44.94283" lon="4.89284">
        <ele>115.80000305176</ele>
        <time>2024-05-21T11:27:06.000Z</time>
      </trkpt>
      <trkpt lat="44.94276" lon="4.89287">
        <ele>115.80000305176</ele>
        <time>2024-05-21T11:27:07.000Z</time>
      </trkpt>
      <trkpt lat="44.94271" lon="4.8929">
        <ele>115.80000305176</ele>
        <time>2024-05-21T11:27:08.000Z</time>
      </trkpt>
      <trkpt lat="44.94266" lon="4.89293">
        <ele>115.80000305176</ele>
        <time>2024-05-21T11:27:09.000Z</time>
      </trkpt>
      <trkpt lat="44.9426" lon="4.89296">
        <ele>115.80000305176</ele>
        <time>2024-05-21T11:27:10.000Z</time>
      </trkpt>
      <trkpt lat="44.94255" lon="4.89299">
        <ele>115.80000305176</ele>
        <time>2024-05-21T11:27:11.000Z</time>
      </trkpt>
      <trkpt lat="44.94249" lon="4.89302">
        <ele>115.80000305176</ele>
        <time>2024-05-21T11:27:12.000Z</time>
      </trkpt>
      <trkpt lat="44.94243" lon="4.89305">
        <ele>115.80000305176</ele>
        <time>2024-05-21T11:27:13.000Z</time>
      </trkpt>
      <trkpt lat="44.94238" lon="4.89308">
        <ele>115.80000305176</ele>
        <time>2024-05-21T11:27:14.000Z</time>
      </trkpt>
      <trkpt lat="44.94233" lon="4.89311">
        <ele>115.80000305176</ele>
        <time>2024-05-21T11:27:15.000Z</time>
      </trkpt>
      <trkpt lat="44.94227" lon="4.89313">
        <ele>115.80000305176</ele>
        <time>2024-05-21T11:27:16.000Z</time>
      </trkpt>
      <trkpt lat="44.94221" lon="4.89316">
        <ele>115.59999847412</ele>
        <time>2024-05-21T11:27:17.000Z</time>
      </trkpt>
      <trkpt lat="44.94215" lon="4.89319">
        <ele>115.59999847412</ele>
        <time>2024-05-21T11:27:18.000Z</time>
      </trkpt>
      <trkpt lat="44.94209" lon="4.89322">
        <ele>115.40000152588</ele>
        <time>2024-05-21T11:27:19.000Z</time>
      </trkpt>
      <trkpt lat="44.94204" lon="4.89324">
        <ele>115.40000152588</ele>
        <time>2024-05-21T11:27:20.000Z</time>
      </trkpt>
      <trkpt lat="44.94198" lon="4.89327">
        <ele>115.40000152588</ele>
        <time>2024-05-21T11:27:21.000Z</time>
      </trkpt>
      <trkpt lat="44.94192" lon="4.8933">
        <ele>115.40000152588</ele>
        <time>2024-05-21T11:27:22.000Z</time>
      </trkpt>
      <trkpt lat="44.94187" lon="4.89333">
        <ele>115.40000152588</ele>
        <time>2024-05-21T11:27:23.000Z</time>
      </trkpt>
      <trkpt lat="44.94181" lon="4.89335">
        <ele>115.40000152588</ele>
        <time>2024-05-21T11:27:24.000Z</time>
      </trkpt>
      <trkpt lat="44.94175" lon="4.89338">
        <ele>115.40000152588</ele>
        <time>2024-05-21T11:27:25.000Z</time>
      </trkpt>
      <trkpt lat="44.9417" lon="4.8934">
        <ele>115.19999694824</ele>
        <time>2024-05-21T11:27:26.000Z</time>
      </trkpt>
      <trkpt lat="44.94164" lon="4.89343">
        <ele>115.19999694824</ele>
        <time>2024-05-21T11:27:27.000Z</time>
      </trkpt>
      <trkpt lat="44.94158" lon="4.89346">
        <ele>115</ele>
        <time>2024-05-21T11:27:28.000Z</time>
      </trkpt>
      <trkpt lat="44.94154" lon="4.89348">
        <ele>114.80000305176</ele>
        <time>2024-05-21T11:27:29.000Z</time>
      </trkpt>
      <trkpt lat="44.94149" lon="4.8935">
        <ele>114.59999847412</ele>
        <time>2024-05-21T11:27:30.000Z</time>
      </trkpt>
      <trkpt lat="44.94142" lon="4.89353">
        <ele>114.59999847412</ele>
        <time>2024-05-21T11:27:31.000Z</time>
      </trkpt>
      <trkpt lat="44.94138" lon="4.89355">
        <ele>114.59999847412</ele>
        <time>2024-05-21T11:27:32.000Z</time>
      </trkpt>
      <trkpt lat="44.94133" lon="4.89357">
        <ele>114.59999847412</ele>
        <time>2024-05-21T11:27:33.000Z</time>
      </trkpt>
      <trkpt lat="44.94127" lon="4.89359">
        <ele>114.59999847412</ele>
        <time>2024-05-21T11:27:34.000Z</time>
      </trkpt>
      <trkpt lat="44.94122" lon="4.89358">
        <ele>114.59999847412</ele>
        <time>2024-05-21T11:27:35.000Z</time>
      </trkpt>
      <trkpt lat="44.94117" lon="4.89355">
        <ele>114.59999847412</ele>
        <time>2024-05-21T11:27:36.000Z</time>
      </trkpt>
      <trkpt lat="44.94112" lon="4.8935">
        <ele>114.40000152588</ele>
        <time>2024-05-21T11:27:37.000Z</time>
      </trkpt>
      <trkpt lat="44.94109" lon="4.89347">
        <ele>114</ele>
        <time>2024-05-21T11:27:38.000Z</time>
      </trkpt>
      <trkpt lat="44.94104" lon="4.89344">
        <ele>114</ele>
        <time>2024-05-21T11:27:39.000Z</time>
      </trkpt>
      <trkpt lat="44.941" lon="4.89343">
        <ele>114</ele>
        <time>2024-05-21T11:27:40.000Z</time>
      </trkpt>
      <trkpt lat="44.94095" lon="4.89342">
        <ele>114</ele>
        <time>2024-05-21T11:27:41.000Z</time>
      </trkpt>
      <trkpt lat="44.94091" lon="4.89343">
        <ele>114</ele>
        <time>2024-05-21T11:27:42.000Z</time>
      </trkpt>
      <trkpt lat="44.94087" lon="4.89346">
        <ele>114</ele>
        <time>2024-05-21T11:27:43.000Z</time>
      </trkpt>
      <trkpt lat="44.94085" lon="4.89351">
        <ele>114</ele>
        <time>2024-05-21T11:27:44.000Z</time>
      </trkpt>
      <trkpt lat="44.94083" lon="4.89357">
        <ele>114</ele>
        <time>2024-05-21T11:27:45.000Z</time>
      </trkpt>
      <trkpt lat="44.94081" lon="4.89362">
        <ele>114.19999694824</ele>
        <time>2024-05-21T11:27:46.000Z</time>
      </trkpt>
      <trkpt lat="44.94078" lon="4.89367">
        <ele>114.19999694824</ele>
        <time>2024-05-21T11:27:47.000Z</time>
      </trkpt>
      <trkpt lat="44.94074" lon="4.89371">
        <ele>114.19999694824</ele>
        <time>2024-05-21T11:27:48.000Z</time>
      </trkpt>
      <trkpt lat="44.94069" lon="4.89373">
        <ele>114.19999694824</ele>
        <time>2024-05-21T11:27:49.000Z</time>
      </trkpt>
      <trkpt lat="44.94066" lon="4.89374">
        <ele>114.19999694824</ele>
        <time>2024-05-21T11:27:50.000Z</time>
      </trkpt>
      <trkpt lat="44.94062" lon="4.89374">
        <ele>114.19999694824</ele>
        <time>2024-05-21T11:27:51.000Z</time>
      </trkpt>
      <trkpt lat="44.94059" lon="4.89373">
        <ele>113.80000305176</ele>
        <time>2024-05-21T11:27:52.000Z</time>
      </trkpt>
      <trkpt lat="44.94057" lon="4.89373">
        <ele>113.80000305176</ele>
        <time>2024-05-21T11:27:53.000Z</time>
      </trkpt>
      <trkpt lat="44.94054" lon="4.89372">
        <ele>113.80000305176</ele>
        <time>2024-05-21T11:27:54.000Z</time>
      </trkpt>
      <trkpt lat="44.94051" lon="4.8937">
        <ele>113.80000305176</ele>
        <time>2024-05-21T11:27:55.000Z</time>
      </trkpt>
      <trkpt lat="44.94047" lon="4.89369">
        <ele>114</ele>
        <time>2024-05-21T11:27:56.000Z</time>
      </trkpt>
      <trkpt lat="44.94044" lon="4.89368">
        <ele>114</ele>
        <time>2024-05-21T11:27:57.000Z</time>
      </trkpt>
      <trkpt lat="44.9404" lon="4.89366">
        <ele>114</ele>
        <time>2024-05-21T11:27:58.000Z</time>
      </trkpt>
      <trkpt lat="44.94036" lon="4.89365">
        <ele>114</ele>
        <time>2024-05-21T11:27:59.000Z</time>
      </trkpt>
      <trkpt lat="44.94032" lon="4.89364">
        <ele>114</ele>
        <time>2024-05-21T11:28:00.000Z</time>
      </trkpt>
      <trkpt lat="44.94026" lon="4.89363">
        <ele>113.80000305176</ele>
        <time>2024-05-21T11:28:01.000Z</time>
      </trkpt>
      <trkpt lat="44.94023" lon="4.89362">
        <ele>113.80000305176</ele>
        <time>2024-05-21T11:28:02.000Z</time>
      </trkpt>
      <trkpt lat="44.94018" lon="4.8936">
        <ele>113.80000305176</ele>
        <time>2024-05-21T11:28:03.000Z</time>
      </trkpt>
      <trkpt lat="44.94013" lon="4.89358">
        <ele>113.59999847412</ele>
        <time>2024-05-21T11:28:04.000Z</time>
      </trkpt>
      <trkpt lat="44.94009" lon="4.89356">
        <ele>113.59999847412</ele>
        <time>2024-05-21T11:28:05.000Z</time>
      </trkpt>
      <trkpt lat="44.94004" lon="4.89355">
        <ele>113.40000152588</ele>
        <time>2024-05-21T11:28:06.000Z</time>
      </trkpt>
      <trkpt lat="44.93998" lon="4.89353">
        <ele>113.40000152588</ele>
        <time>2024-05-21T11:28:07.000Z</time>
      </trkpt>
      <trkpt lat="44.93993" lon="4.89351">
        <ele>113.40000152588</ele>
        <time>2024-05-21T11:28:08.000Z</time>
      </trkpt>
      <trkpt lat="44.93988" lon="4.8935">
        <ele>113.40000152588</ele>
        <time>2024-05-21T11:28:09.000Z</time>
      </trkpt>
      <trkpt lat="44.93983" lon="4.89348">
        <ele>113.40000152588</ele>
        <time>2024-05-21T11:28:10.000Z</time>
      </trkpt>
      <trkpt lat="44.93977" lon="4.89347">
        <ele>113.40000152588</ele>
        <time>2024-05-21T11:28:11.000Z</time>
      </trkpt>
      <trkpt lat="44.93972" lon="4.89345">
        <ele>113.59999847412</ele>
        <time>2024-05-21T11:28:12.000Z</time>
      </trkpt>
      <trkpt lat="44.93967" lon="4.89342">
        <ele>113.59999847412</ele>
        <time>2024-05-21T11:28:13.000Z</time>
      </trkpt>
      <trkpt lat="44.93962" lon="4.8934">
        <ele>113.59999847412</ele>
        <time>2024-05-21T11:28:14.000Z</time>
      </trkpt>
      <trkpt lat="44.93956" lon="4.89339">
        <ele>113.59999847412</ele>
        <time>2024-05-21T11:28:15.000Z</time>
      </trkpt>
      <trkpt lat="44.93951" lon="4.89337">
        <ele>113.59999847412</ele>
        <time>2024-05-21T11:28:16.000Z</time>
      </trkpt>
      <trkpt lat="44.93946" lon="4.89335">
        <ele>113.59999847412</ele>
        <time>2024-05-21T11:28:17.000Z</time>
      </trkpt>
      <trkpt lat="44.9394" lon="4.89334">
        <ele>113.40000152588</ele>
        <time>2024-05-21T11:28:18.000Z</time>
      </trkpt>
      <trkpt lat="44.93935" lon="4.89332">
        <ele>113.40000152588</ele>
        <time>2024-05-21T11:28:19.000Z</time>
      </trkpt>
      <trkpt lat="44.9393" lon="4.8933">
        <ele>113.40000152588</ele>
        <time>2024-05-21T11:28:20.000Z</time>
      </trkpt>
      <trkpt lat="44.93924" lon="4.89328">
        <ele>113.40000152588</ele>
        <time>2024-05-21T11:28:21.000Z</time>
      </trkpt>
      <trkpt lat="44.93919" lon="4.89326">
        <ele>113.40000152588</ele>
        <time>2024-05-21T11:28:22.000Z</time>
      </trkpt>
      <trkpt lat="44.93914" lon="4.89325">
        <ele>113.40000152588</ele>
        <time>2024-05-21T11:28:23.000Z</time>
      </trkpt>
      <trkpt lat="44.93908" lon="4.89323">
        <ele>113.40000152588</ele>
        <time>2024-05-21T11:28:24.000Z</time>
      </trkpt>
      <trkpt lat="44.93903" lon="4.89322">
        <ele>113.40000152588</ele>
        <time>2024-05-21T11:28:25.000Z</time>
      </trkpt>
      <trkpt lat="44.93897" lon="4.8932">
        <ele>113.19999694824</ele>
        <time>2024-05-21T11:28:26.000Z</time>
      </trkpt>
      <trkpt lat="44.93891" lon="4.89318">
        <ele>113.19999694824</ele>
        <time>2024-05-21T11:28:27.000Z</time>
      </trkpt>
      <trkpt lat="44.93887" lon="4.89317">
        <ele>113.19999694824</ele>
        <time>2024-05-21T11:28:28.000Z</time>
      </trkpt>
      <trkpt lat="44.93881" lon="4.89315">
        <ele>113.19999694824</ele>
        <time>2024-05-21T11:28:29.000Z</time>
      </trkpt>
      <trkpt lat="44.93876" lon="4.89313">
        <ele>113.19999694824</ele>
        <time>2024-05-21T11:28:30.000Z</time>
      </trkpt>
      <trkpt lat="44.93871" lon="4.89311">
        <ele>113.19999694824</ele>
        <time>2024-05-21T11:28:31.000Z</time>
      </trkpt>
      <trkpt lat="44.93865" lon="4.8931">
        <ele>113.40000152588</ele>
        <time>2024-05-21T11:28:32.000Z</time>
      </trkpt>
      <trkpt lat="44.9386" lon="4.89308">
        <ele>113.59999847412</ele>
        <time>2024-05-21T11:28:33.000Z</time>
      </trkpt>
      <trkpt lat="44.93854" lon="4.89306">
        <ele>113.80000305176</ele>
        <time>2024-05-21T11:28:34.000Z</time>
      </trkpt>
      <trkpt lat="44.93849" lon="4.89304">
        <ele>113.80000305176</ele>
        <time>2024-05-21T11:28:35.000Z</time>
      </trkpt>
      <trkpt lat="44.93843" lon="4.89302">
        <ele>113.80000305176</ele>
        <time>2024-05-21T11:28:36.000Z</time>
      </trkpt>
      <trkpt lat="44.93838" lon="4.893">
        <ele>113.80000305176</ele>
        <time>2024-05-21T11:28:37.000Z</time>
      </trkpt>
      <trkpt lat="44.93833" lon="4.89298">
        <ele>113.80000305176</ele>
        <time>2024-05-21T11:28:38.000Z</time>
      </trkpt>
      <trkpt lat="44.93827" lon="4.89296">
        <ele>113.80000305176</ele>
        <time>2024-05-21T11:28:39.000Z</time>
      </trkpt>
      <trkpt lat="44.93822" lon="4.89296">
        <ele>113.59999847412</ele>
        <time>2024-05-21T11:28:40.000Z</time>
      </trkpt>
      <trkpt lat="44.93817" lon="4.89296">
        <ele>113.59999847412</ele>
        <time>2024-05-21T11:28:41.000Z</time>
      </trkpt>
      <trkpt lat="44.93812" lon="4.89298">
        <ele>113.59999847412</ele>
        <time>2024-05-21T11:28:42.000Z</time>
      </trkpt>
      <trkpt lat="44.93807" lon="4.893">
        <ele>113.59999847412</ele>
        <time>2024-05-21T11:28:43.000Z</time>
      </trkpt>
      <trkpt lat="44.93802" lon="4.89302">
        <ele>113.59999847412</ele>
        <time>2024-05-21T11:28:44.000Z</time>
      </trkpt>
      <trkpt lat="44.93796" lon="4.89305">
        <ele>113.59999847412</ele>
        <time>2024-05-21T11:28:45.000Z</time>
      </trkpt>
      <trkpt lat="44.93792" lon="4.89308">
        <ele>113.59999847412</ele>
        <time>2024-05-21T11:28:46.000Z</time>
      </trkpt>
      <trkpt lat="44.93788" lon="4.89309">
        <ele>113.59999847412</ele>
        <time>2024-05-21T11:28:47.000Z</time>
      </trkpt>
      <trkpt lat="44.93782" lon="4.89312">
        <ele>113.59999847412</ele>
        <time>2024-05-21T11:28:48.000Z</time>
      </trkpt>
      <trkpt lat="44.93778" lon="4.89315">
        <ele>113.59999847412</ele>
        <time>2024-05-21T11:28:49.000Z</time>
      </trkpt>
      <trkpt lat="44.93774" lon="4.89317">
        <ele>113.80000305176</ele>
        <time>2024-05-21T11:28:50.000Z</time>
      </trkpt>
      <trkpt lat="44.93769" lon="4.89319">
        <ele>113.80000305176</ele>
        <time>2024-05-21T11:28:51.000Z</time>
      </trkpt>
      <trkpt lat="44.93764" lon="4.89321">
        <ele>113.80000305176</ele>
        <time>2024-05-21T11:28:52.000Z</time>
      </trkpt>
      <trkpt lat="44.9376" lon="4.89323">
        <ele>113.80000305176</ele>
        <time>2024-05-21T11:28:53.000Z</time>
      </trkpt>
      <trkpt lat="44.93756" lon="4.89324">
        <ele>113.80000305176</ele>
        <time>2024-05-21T11:28:54.000Z</time>
      </trkpt>
      <trkpt lat="44.93751" lon="4.89326">
        <ele>114</ele>
        <time>2024-05-21T11:28:55.000Z</time>
      </trkpt>
      <trkpt lat="44.93745" lon="4.89328">
        <ele>114</ele>
        <time>2024-05-21T11:28:56.000Z</time>
      </trkpt>
      <trkpt lat="44.93741" lon="4.89329">
        <ele>114.19999694824</ele>
        <time>2024-05-21T11:28:57.000Z</time>
      </trkpt>
      <trkpt lat="44.93737" lon="4.8933">
        <ele>114.40000152588</ele>
        <time>2024-05-21T11:28:58.000Z</time>
      </trkpt>
      <trkpt lat="44.93732" lon="4.89332">
        <ele>115</ele>
        <time>2024-05-21T11:28:59.000Z</time>
      </trkpt>
      <trkpt lat="44.93729" lon="4.89333">
        <ele>115</ele>
        <time>2024-05-21T11:29:00.000Z</time>
      </trkpt>
      <trkpt lat="44.93725" lon="4.89333">
        <ele>115</ele>
        <time>2024-05-21T11:29:01.000Z</time>
      </trkpt>
      <trkpt lat="44.9372" lon="4.89334">
        <ele>115.40000152588</ele>
        <time>2024-05-21T11:29:02.000Z</time>
      </trkpt>
      <trkpt lat="44.93716" lon="4.89335">
        <ele>115.59999847412</ele>
        <time>2024-05-21T11:29:03.000Z</time>
      </trkpt>
      <trkpt lat="44.93713" lon="4.89336">
        <ele>115.80000305176</ele>
        <time>2024-05-21T11:29:04.000Z</time>
      </trkpt>
      <trkpt lat="44.9371" lon="4.89337">
        <ele>116.19999694824</ele>
        <time>2024-05-21T11:29:05.000Z</time>
      </trkpt>
      <trkpt lat="44.93705" lon="4.89337">
        <ele>116.40000152588</ele>
        <time>2024-05-21T11:29:06.000Z</time>
      </trkpt>
      <trkpt lat="44.93702" lon="4.89337">
        <ele>116.59999847412</ele>
        <time>2024-05-21T11:29:07.000Z</time>
      </trkpt>
      <trkpt lat="44.93698" lon="4.89337">
        <ele>116.80000305176</ele>
        <time>2024-05-21T11:29:08.000Z</time>
      </trkpt>
      <trkpt lat="44.93694" lon="4.89336">
        <ele>116.80000305176</ele>
        <time>2024-05-21T11:29:09.000Z</time>
      </trkpt>
      <trkpt lat="44.9369" lon="4.89335">
        <ele>117.19999694824</ele>
        <time>2024-05-21T11:29:10.000Z</time>
      </trkpt>
      <trkpt lat="44.93687" lon="4.89334">
        <ele>117.40000152588</ele>
        <time>2024-05-21T11:29:11.000Z</time>
      </trkpt>
      <trkpt lat="44.93684" lon="4.89333">
        <ele>117.80000305176</ele>
        <time>2024-05-21T11:29:12.000Z</time>
      </trkpt>
      <trkpt lat="44.93681" lon="4.89332">
        <ele>118.19999694824</ele>
        <time>2024-05-21T11:29:13.000Z</time>
      </trkpt>
      <trkpt lat="44.93679" lon="4.8933">
        <ele>118.40000152588</ele>
        <time>2024-05-21T11:29:14.000Z</time>
      </trkpt>
      <trkpt lat="44.93675" lon="4.89326">
        <ele>118.80000305176</ele>
        <time>2024-05-21T11:29:15.000Z</time>
      </trkpt>
      <trkpt lat="44.93672" lon="4.89323">
        <ele>119.40000152588</ele>
        <time>2024-05-21T11:29:16.000Z</time>
      </trkpt>
      <trkpt lat="44.9367" lon="4.8932">
        <ele>119.40000152588</ele>
        <time>2024-05-21T11:29:17.000Z</time>
      </trkpt>
      <trkpt lat="44.93668" lon="4.89317">
        <ele>119.59999847412</ele>
        <time>2024-05-21T11:29:18.000Z</time>
      </trkpt>
      <trkpt lat="44.93666" lon="4.89314">
        <ele>119.59999847412</ele>
        <time>2024-05-21T11:29:19.000Z</time>
      </trkpt>
      <trkpt lat="44.93664" lon="4.89312">
        <ele>119.80000305176</ele>
        <time>2024-05-21T11:29:20.000Z</time>
      </trkpt>
      <trkpt lat="44.93662" lon="4.89309">
        <ele>120</ele>
        <time>2024-05-21T11:29:21.000Z</time>
      </trkpt>
      <trkpt lat="44.9366" lon="4.89305">
        <ele>120.19999694824</ele>
        <time>2024-05-21T11:29:22.000Z</time>
      </trkpt>
      <trkpt lat="44.93658" lon="4.89302">
        <ele>120.19999694824</ele>
        <time>2024-05-21T11:29:23.000Z</time>
      </trkpt>
      <trkpt lat="44.93656" lon="4.89298">
        <ele>120.40000152588</ele>
        <time>2024-05-21T11:29:24.000Z</time>
      </trkpt>
      <trkpt lat="44.93654" lon="4.89295">
        <ele>120.59999847412</ele>
        <time>2024-05-21T11:29:25.000Z</time>
      </trkpt>
      <trkpt lat="44.93653" lon="4.89292">
        <ele>120.80000305176</ele>
        <time>2024-05-21T11:29:26.000Z</time>
      </trkpt>
      <trkpt lat="44.9365" lon="4.89288">
        <ele>121</ele>
        <time>2024-05-21T11:29:27.000Z</time>
      </trkpt>
      <trkpt lat="44.93648" lon="4.89286">
        <ele>121.19999694824</ele>
        <time>2024-05-21T11:29:28.000Z</time>
      </trkpt>
      <trkpt lat="44.93647" lon="4.89282">
        <ele>121.40000152588</ele>
        <time>2024-05-21T11:29:29.000Z</time>
      </trkpt>
      <trkpt lat="44.93645" lon="4.89278">
        <ele>121.40000152588</ele>
        <time>2024-05-21T11:29:30.000Z</time>
      </trkpt>
      <trkpt lat="44.93643" lon="4.89275">
        <ele>121.80000305176</ele>
        <time>2024-05-21T11:29:31.000Z</time>
      </trkpt>
      <trkpt lat="44.93641" lon="4.89272">
        <ele>121.80000305176</ele>
        <time>2024-05-21T11:29:32.000Z</time>
      </trkpt>
      <trkpt lat="44.93639" lon="4.89268">
        <ele>122</ele>
        <time>2024-05-21T11:29:33.000Z</time>
      </trkpt>
      <trkpt lat="44.93637" lon="4.89265">
        <ele>122.19999694824</ele>
        <time>2024-05-21T11:29:34.000Z</time>
      </trkpt>
      <trkpt lat="44.93635" lon="4.89261">
        <ele>122.19999694824</ele>
        <time>2024-05-21T11:29:35.000Z</time>
      </trkpt>
      <trkpt lat="44.93633" lon="4.89257">
        <ele>122.40000152588</ele>
        <time>2024-05-21T11:29:36.000Z</time>
      </trkpt>
      <trkpt lat="44.93631" lon="4.89253">
        <ele>122.40000152588</ele>
        <time>2024-05-21T11:29:37.000Z</time>
      </trkpt>
      <trkpt lat="44.93629" lon="4.89251">
        <ele>122.59999847412</ele>
        <time>2024-05-21T11:29:38.000Z</time>
      </trkpt>
      <trkpt lat="44.93627" lon="4.89247">
        <ele>122.59999847412</ele>
        <time>2024-05-21T11:29:39.000Z</time>
      </trkpt>
      <trkpt lat="44.93625" lon="4.89244">
        <ele>122.80000305176</ele>
        <time>2024-05-21T11:29:40.000Z</time>
      </trkpt>
      <trkpt lat="44.93623" lon="4.89242">
        <ele>123</ele>
        <time>2024-05-21T11:29:41.000Z</time>
      </trkpt>
      <trkpt lat="44.93621" lon="4.89238">
        <ele>123</ele>
        <time>2024-05-21T11:29:42.000Z</time>
      </trkpt>
      <trkpt lat="44.93619" lon="4.89236">
        <ele>123.19999694824</ele>
        <time>2024-05-21T11:29:43.000Z</time>
      </trkpt>
      <trkpt lat="44.93617" lon="4.89233">
        <ele>123.40000152588</ele>
        <time>2024-05-21T11:29:44.000Z</time>
      </trkpt>
      <trkpt lat="44.93615" lon="4.89231">
        <ele>123.59999847412</ele>
        <time>2024-05-21T11:29:45.000Z</time>
      </trkpt>
      <trkpt lat="44.93613" lon="4.89229">
        <ele>123.80000305176</ele>
        <time>2024-05-21T11:29:46.000Z</time>
      </trkpt>
      <trkpt lat="44.93611" lon="4.89227">
        <ele>124</ele>
        <time>2024-05-21T11:29:47.000Z</time>
      </trkpt>
      <trkpt lat="44.93609" lon="4.89225">
        <ele>124.19999694824</ele>
        <time>2024-05-21T11:29:48.000Z</time>
      </trkpt>
      <trkpt lat="44.93608" lon="4.89223">
        <ele>124.40000152588</ele>
        <time>2024-05-21T11:29:49.000Z</time>
      </trkpt>
      <trkpt lat="44.93606" lon="4.89219">
        <ele>124.59999847412</ele>
        <time>2024-05-21T11:29:50.000Z</time>
      </trkpt>
      <trkpt lat="44.93604" lon="4.89217">
        <ele>124.80000305176</ele>
        <time>2024-05-21T11:29:51.000Z</time>
      </trkpt>
      <trkpt lat="44.93601" lon="4.89215">
        <ele>124.80000305176</ele>
        <time>2024-05-21T11:29:52.000Z</time>
      </trkpt>
      <trkpt lat="44.93598" lon="4.89216">
        <ele>124.80000305176</ele>
        <time>2024-05-21T11:29:53.000Z</time>
      </trkpt>
      <trkpt lat="44.93595" lon="4.89219">
        <ele>124.80000305176</ele>
        <time>2024-05-21T11:29:54.000Z</time>
      </trkpt>
      <trkpt lat="44.93594" lon="4.89223">
        <ele>124.80000305176</ele>
        <time>2024-05-21T11:29:55.000Z</time>
      </trkpt>
      <trkpt lat="44.93592" lon="4.89228">
        <ele>124.59999847412</ele>
        <time>2024-05-21T11:29:56.000Z</time>
      </trkpt>
      <trkpt lat="44.93591" lon="4.89232">
        <ele>124.59999847412</ele>
        <time>2024-05-21T11:29:57.000Z</time>
      </trkpt>
      <trkpt lat="44.93589" lon="4.89237">
        <ele>124.59999847412</ele>
        <time>2024-05-21T11:29:58.000Z</time>
      </trkpt>
      <trkpt lat="44.93588" lon="4.89241">
        <ele>124.59999847412</ele>
        <time>2024-05-21T11:29:59.000Z</time>
      </trkpt>
      <trkpt lat="44.93586" lon="4.89246">
        <ele>124.59999847412</ele>
        <time>2024-05-21T11:30:00.000Z</time>
      </trkpt>
      <trkpt lat="44.93584" lon="4.8925">
        <ele>124.80000305176</ele>
        <time>2024-05-21T11:30:01.000Z</time>
      </trkpt>
      <trkpt lat="44.93583" lon="4.89254">
        <ele>125.19999694824</ele>
        <time>2024-05-21T11:30:02.000Z</time>
      </trkpt>
      <trkpt lat="44.93581" lon="4.89258">
        <ele>125.40000152588</ele>
        <time>2024-05-21T11:30:03.000Z</time>
      </trkpt>
      <trkpt lat="44.93579" lon="4.89262">
        <ele>125.80000305176</ele>
        <time>2024-05-21T11:30:04.000Z</time>
      </trkpt>
      <trkpt lat="44.93577" lon="4.89266">
        <ele>126</ele>
        <time>2024-05-21T11:30:05.000Z</time>
      </trkpt>
      <trkpt lat="44.93576" lon="4.8927">
        <ele>126.19999694824</ele>
        <time>2024-05-21T11:30:06.000Z</time>
      </trkpt>
      <trkpt lat="44.93574" lon="4.89274">
        <ele>126.40000152588</ele>
        <time>2024-05-21T11:30:07.000Z</time>
      </trkpt>
      <trkpt lat="44.93572" lon="4.89278">
        <ele>126.59999847412</ele>
        <time>2024-05-21T11:30:08.000Z</time>
      </trkpt>
      <trkpt lat="44.93571" lon="4.89281">
        <ele>126.80000305176</ele>
        <time>2024-05-21T11:30:09.000Z</time>
      </trkpt>
      <trkpt lat="44.93569" lon="4.89284">
        <ele>127.19999694824</ele>
        <time>2024-05-21T11:30:10.000Z</time>
      </trkpt>
      <trkpt lat="44.93566" lon="4.89288">
        <ele>127.40000152588</ele>
        <time>2024-05-21T11:30:11.000Z</time>
      </trkpt>
      <trkpt lat="44.93564" lon="4.89291">
        <ele>127.59999847412</ele>
        <time>2024-05-21T11:30:12.000Z</time>
      </trkpt>
      <trkpt lat="44.93563" lon="4.89293">
        <ele>127.80000305176</ele>
        <time>2024-05-21T11:30:13.000Z</time>
      </trkpt>
      <trkpt lat="44.9356" lon="4.89297">
        <ele>127.80000305176</ele>
        <time>2024-05-21T11:30:14.000Z</time>
      </trkpt>
      <trkpt lat="44.93558" lon="4.893">
        <ele>128</ele>
        <time>2024-05-21T11:30:15.000Z</time>
      </trkpt>
      <trkpt lat="44.93555" lon="4.89303">
        <ele>128.19999694824</ele>
        <time>2024-05-21T11:30:16.000Z</time>
      </trkpt>
      <trkpt lat="44.93554" lon="4.89306">
        <ele>128.39999389648</ele>
        <time>2024-05-21T11:30:17.000Z</time>
      </trkpt>
      <trkpt lat="44.93552" lon="4.89309">
        <ele>128.60000610352</ele>
        <time>2024-05-21T11:30:18.000Z</time>
      </trkpt>
      <trkpt lat="44.93549" lon="4.89312">
        <ele>128.80000305176</ele>
        <time>2024-05-21T11:30:19.000Z</time>
      </trkpt>
      <trkpt lat="44.93547" lon="4.89315">
        <ele>128.80000305176</ele>
        <time>2024-05-21T11:30:20.000Z</time>
      </trkpt>
      <trkpt lat="44.93545" lon="4.89318">
        <ele>129</ele>
        <time>2024-05-21T11:30:21.000Z</time>
      </trkpt>
      <trkpt lat="44.93544" lon="4.89323">
        <ele>129</ele>
        <time>2024-05-21T11:30:22.000Z</time>
      </trkpt>
      <trkpt lat="44.93544" lon="4.89327">
        <ele>129.19999694824</ele>
        <time>2024-05-21T11:30:23.000Z</time>
      </trkpt>
      <trkpt lat="44.93543" lon="4.89331">
        <ele>129.39999389648</ele>
        <time>2024-05-21T11:30:24.000Z</time>
      </trkpt>
      <trkpt lat="44.93543" lon="4.89338">
        <ele>129.60000610352</ele>
        <time>2024-05-21T11:30:25.000Z</time>
      </trkpt>
      <trkpt lat="44.93543" lon="4.89342">
        <ele>129.80000305176</ele>
        <time>2024-05-21T11:30:26.000Z</time>
      </trkpt>
      <trkpt lat="44.93543" lon="4.89347">
        <ele>129.80000305176</ele>
        <time>2024-05-21T11:30:27.000Z</time>
      </trkpt>
      <trkpt lat="44.93542" lon="4.89353">
        <ele>129.80000305176</ele>
        <time>2024-05-21T11:30:28.000Z</time>
      </trkpt>
      <trkpt lat="44.9354" lon="4.89357">
        <ele>129.80000305176</ele>
        <time>2024-05-21T11:30:29.000Z</time>
      </trkpt>
      <trkpt lat="44.93539" lon="4.89361">
        <ele>129.80000305176</ele>
        <time>2024-05-21T11:30:30.000Z</time>
      </trkpt>
      <trkpt lat="44.93538" lon="4.89366">
        <ele>129.80000305176</ele>
        <time>2024-05-21T11:30:31.000Z</time>
      </trkpt>
      <trkpt lat="44.93536" lon="4.89371">
        <ele>129.80000305176</ele>
        <time>2024-05-21T11:30:32.000Z</time>
      </trkpt>
      <trkpt lat="44.93534" lon="4.89377">
        <ele>129.80000305176</ele>
        <time>2024-05-21T11:30:33.000Z</time>
      </trkpt>
      <trkpt lat="44.93533" lon="4.89383">
        <ele>129.80000305176</ele>
        <time>2024-05-21T11:30:34.000Z</time>
      </trkpt>
      <trkpt lat="44.93531" lon="4.89389">
        <ele>129.80000305176</ele>
        <time>2024-05-21T11:30:35.000Z</time>
      </trkpt>
      <trkpt lat="44.9353" lon="4.89394">
        <ele>129.80000305176</ele>
        <time>2024-05-21T11:30:36.000Z</time>
      </trkpt>
      <trkpt lat="44.93528" lon="4.894">
        <ele>130</ele>
        <time>2024-05-21T11:30:37.000Z</time>
      </trkpt>
      <trkpt lat="44.93526" lon="4.89406">
        <ele>130</ele>
        <time>2024-05-21T11:30:38.000Z</time>
      </trkpt>
      <trkpt lat="44.93524" lon="4.89413">
        <ele>129.80000305176</ele>
        <time>2024-05-21T11:30:39.000Z</time>
      </trkpt>
      <trkpt lat="44.93523" lon="4.89418">
        <ele>129.80000305176</ele>
        <time>2024-05-21T11:30:40.000Z</time>
      </trkpt>
      <trkpt lat="44.93522" lon="4.89425">
        <ele>129.80000305176</ele>
        <time>2024-05-21T11:30:41.000Z</time>
      </trkpt>
      <trkpt lat="44.93521" lon="4.89431">
        <ele>130</ele>
        <time>2024-05-21T11:30:42.000Z</time>
      </trkpt>
      <trkpt lat="44.93519" lon="4.89436">
        <ele>130</ele>
        <time>2024-05-21T11:30:43.000Z</time>
      </trkpt>
      <trkpt lat="44.93518" lon="4.89442">
        <ele>130</ele>
        <time>2024-05-21T11:30:44.000Z</time>
      </trkpt>
      <trkpt lat="44.93516" lon="4.89447">
        <ele>130</ele>
        <time>2024-05-21T11:30:45.000Z</time>
      </trkpt>
      <trkpt lat="44.93515" lon="4.89451">
        <ele>130</ele>
        <time>2024-05-21T11:30:46.000Z</time>
      </trkpt>
      <trkpt lat="44.93514" lon="4.89454">
        <ele>130</ele>
        <time>2024-05-21T11:30:47.000Z</time>
      </trkpt>
      <trkpt lat="44.93512" lon="4.89456">
        <ele>130</ele>
        <time>2024-05-21T11:30:48.000Z</time>
      </trkpt>
      <trkpt lat="44.93512" lon="4.89456">
        <ele>130.19999694824</ele>
        <time>2024-05-21T11:30:49.000Z</time>
      </trkpt>
      <trkpt lat="44.93512" lon="4.89456">
        <ele>130.39999389648</ele>
        <time>2024-05-21T11:30:50.000Z</time>
      </trkpt>
      <trkpt lat="44.9351" lon="4.89462">
        <ele>130.60000610352</ele>
        <time>2024-05-21T11:31:07.000Z</time>
      </trkpt>
      <trkpt lat="44.93509" lon="4.89466">
        <ele>130.39999389648</ele>
        <time>2024-05-21T11:31:08.000Z</time>
      </trkpt>
      <trkpt lat="44.93507" lon="4.89469">
        <ele>130.39999389648</ele>
        <time>2024-05-21T11:31:09.000Z</time>
      </trkpt>
      <trkpt lat="44.93506" lon="4.89473">
        <ele>130.39999389648</ele>
        <time>2024-05-21T11:31:10.000Z</time>
      </trkpt>
      <trkpt lat="44.93504" lon="4.89478">
        <ele>130</ele>
        <time>2024-05-21T11:31:11.000Z</time>
      </trkpt>
      <trkpt lat="44.93502" lon="4.89482">
        <ele>130</ele>
        <time>2024-05-21T11:31:12.000Z</time>
      </trkpt>
      <trkpt lat="44.93501" lon="4.89487">
        <ele>129.80000305176</ele>
        <time>2024-05-21T11:31:13.000Z</time>
      </trkpt>
      <trkpt lat="44.93499" lon="4.89491">
        <ele>129.80000305176</ele>
        <time>2024-05-21T11:31:14.000Z</time>
      </trkpt>
      <trkpt lat="44.93496" lon="4.89496">
        <ele>129.80000305176</ele>
        <time>2024-05-21T11:31:15.000Z</time>
      </trkpt>
      <trkpt lat="44.93494" lon="4.89501">
        <ele>129.80000305176</ele>
        <time>2024-05-21T11:31:16.000Z</time>
      </trkpt>
      <trkpt lat="44.93492" lon="4.89506">
        <ele>129.80000305176</ele>
        <time>2024-05-21T11:31:17.000Z</time>
      </trkpt>
      <trkpt lat="44.9349" lon="4.89511">
        <ele>129.80000305176</ele>
        <time>2024-05-21T11:31:18.000Z</time>
      </trkpt>
      <trkpt lat="44.93487" lon="4.89516">
        <ele>129.80000305176</ele>
        <time>2024-05-21T11:31:19.000Z</time>
      </trkpt>
      <trkpt lat="44.93484" lon="4.8952">
        <ele>129.80000305176</ele>
        <time>2024-05-21T11:31:20.000Z</time>
      </trkpt>
      <trkpt lat="44.9348" lon="4.89525">
        <ele>129.80000305176</ele>
        <time>2024-05-21T11:31:21.000Z</time>
      </trkpt>
      <trkpt lat="44.93476" lon="4.89529">
        <ele>130</ele>
        <time>2024-05-21T11:31:22.000Z</time>
      </trkpt>
      <trkpt lat="44.93472" lon="4.89533">
        <ele>130</ele>
        <time>2024-05-21T11:31:23.000Z</time>
      </trkpt>
      <trkpt lat="44.93468" lon="4.89536">
        <ele>130</ele>
        <time>2024-05-21T11:31:24.000Z</time>
      </trkpt>
      <trkpt lat="44.93463" lon="4.89539">
        <ele>130</ele>
        <time>2024-05-21T11:31:25.000Z</time>
      </trkpt>
      <trkpt lat="44.93458" lon="4.89542">
        <ele>130</ele>
        <time>2024-05-21T11:31:26.000Z</time>
      </trkpt>
      <trkpt lat="44.93454" lon="4.89545">
        <ele>130</ele>
        <time>2024-05-21T11:31:27.000Z</time>
      </trkpt>
      <trkpt lat="44.93451" lon="4.89548">
        <ele>130</ele>
        <time>2024-05-21T11:31:28.000Z</time>
      </trkpt>
      <trkpt lat="44.93447" lon="4.8955">
        <ele>130</ele>
        <time>2024-05-21T11:31:29.000Z</time>
      </trkpt>
      <trkpt lat="44.93443" lon="4.89553">
        <ele>129.80000305176</ele>
        <time>2024-05-21T11:31:30.000Z</time>
      </trkpt>
      <trkpt lat="44.93439" lon="4.89556">
        <ele>129.80000305176</ele>
        <time>2024-05-21T11:31:31.000Z</time>
      </trkpt>
      <trkpt lat="44.93435" lon="4.89559">
        <ele>129.80000305176</ele>
        <time>2024-05-21T11:31:32.000Z</time>
      </trkpt>
      <trkpt lat="44.93431" lon="4.89562">
        <ele>129.80000305176</ele>
        <time>2024-05-21T11:31:33.000Z</time>
      </trkpt>
      <trkpt lat="44.93427" lon="4.89565">
        <ele>129.80000305176</ele>
        <time>2024-05-21T11:31:34.000Z</time>
      </trkpt>
      <trkpt lat="44.93423" lon="4.89567">
        <ele>129.80000305176</ele>
        <time>2024-05-21T11:31:35.000Z</time>
      </trkpt>
      <trkpt lat="44.93419" lon="4.89569">
        <ele>129.80000305176</ele>
        <time>2024-05-21T11:31:36.000Z</time>
      </trkpt>
      <trkpt lat="44.93416" lon="4.89572">
        <ele>130</ele>
        <time>2024-05-21T11:31:37.000Z</time>
      </trkpt>
      <trkpt lat="44.93412" lon="4.89574">
        <ele>130</ele>
        <time>2024-05-21T11:31:38.000Z</time>
      </trkpt>
      <trkpt lat="44.93409" lon="4.89578">
        <ele>130</ele>
        <time>2024-05-21T11:31:39.000Z</time>
      </trkpt>
      <trkpt lat="44.93406" lon="4.89582">
        <ele>130.19999694824</ele>
        <time>2024-05-21T11:31:40.000Z</time>
      </trkpt>
      <trkpt lat="44.93403" lon="4.89586">
        <ele>130.19999694824</ele>
        <time>2024-05-21T11:31:41.000Z</time>
      </trkpt>
      <trkpt lat="44.934" lon="4.8959">
        <ele>130</ele>
        <time>2024-05-21T11:31:42.000Z</time>
      </trkpt>
      <trkpt lat="44.93396" lon="4.89594">
        <ele>130</ele>
        <time>2024-05-21T11:31:43.000Z</time>
      </trkpt>
      <trkpt lat="44.93393" lon="4.89597">
        <ele>130</ele>
        <time>2024-05-21T11:31:44.000Z</time>
      </trkpt>
      <trkpt lat="44.93389" lon="4.896">
        <ele>130</ele>
        <time>2024-05-21T11:31:45.000Z</time>
      </trkpt>
      <trkpt lat="44.93386" lon="4.89604">
        <ele>130</ele>
        <time>2024-05-21T11:31:46.000Z</time>
      </trkpt>
      <trkpt lat="44.93384" lon="4.89608">
        <ele>130</ele>
        <time>2024-05-21T11:31:47.000Z</time>
      </trkpt>
      <trkpt lat="44.93382" lon="4.89613">
        <ele>130</ele>
        <time>2024-05-21T11:31:48.000Z</time>
      </trkpt>
      <trkpt lat="44.9338" lon="4.89618">
        <ele>130</ele>
        <time>2024-05-21T11:31:49.000Z</time>
      </trkpt>
      <trkpt lat="44.93378" lon="4.89623">
        <ele>130</ele>
        <time>2024-05-21T11:31:50.000Z</time>
      </trkpt>
      <trkpt lat="44.93375" lon="4.89628">
        <ele>130</ele>
        <time>2024-05-21T11:31:51.000Z</time>
      </trkpt>
      <trkpt lat="44.93372" lon="4.89632">
        <ele>130</ele>
        <time>2024-05-21T11:31:52.000Z</time>
      </trkpt>
      <trkpt lat="44.93368" lon="4.89635">
        <ele>130</ele>
        <time>2024-05-21T11:31:53.000Z</time>
      </trkpt>
      <trkpt lat="44.93364" lon="4.89636">
        <ele>129.80000305176</ele>
        <time>2024-05-21T11:31:54.000Z</time>
      </trkpt>
      <trkpt lat="44.9336" lon="4.89636">
        <ele>129.80000305176</ele>
        <time>2024-05-21T11:31:55.000Z</time>
      </trkpt>
      <trkpt lat="44.93356" lon="4.89634">
        <ele>129.80000305176</ele>
        <time>2024-05-21T11:31:56.000Z</time>
      </trkpt>
      <trkpt lat="44.93352" lon="4.8963">
        <ele>129.80000305176</ele>
        <time>2024-05-21T11:31:57.000Z</time>
      </trkpt>
      <trkpt lat="44.93348" lon="4.89626">
        <ele>129.60000610352</ele>
        <time>2024-05-21T11:31:58.000Z</time>
      </trkpt>
      <trkpt lat="44.93343" lon="4.89622">
        <ele>129.60000610352</ele>
        <time>2024-05-21T11:31:59.000Z</time>
      </trkpt>
      <trkpt lat="44.93339" lon="4.89619">
        <ele>129.60000610352</ele>
        <time>2024-05-21T11:32:00.000Z</time>
      </trkpt>
      <trkpt lat="44.93335" lon="4.89615">
        <ele>129.60000610352</ele>
        <time>2024-05-21T11:32:01.000Z</time>
      </trkpt>
      <trkpt lat="44.93331" lon="4.89611">
        <ele>129.60000610352</ele>
        <time>2024-05-21T11:32:02.000Z</time>
      </trkpt>
      <trkpt lat="44.93326" lon="4.89607">
        <ele>129.60000610352</ele>
        <time>2024-05-21T11:32:03.000Z</time>
      </trkpt>
      <trkpt lat="44.93322" lon="4.89604">
        <ele>129.60000610352</ele>
        <time>2024-05-21T11:32:04.000Z</time>
      </trkpt>
      <trkpt lat="44.93318" lon="4.896">
        <ele>129.60000610352</ele>
        <time>2024-05-21T11:32:05.000Z</time>
      </trkpt>
      <trkpt lat="44.93314" lon="4.89596">
        <ele>129.60000610352</ele>
        <time>2024-05-21T11:32:06.000Z</time>
      </trkpt>
      <trkpt lat="44.93309" lon="4.89593">
        <ele>129.60000610352</ele>
        <time>2024-05-21T11:32:07.000Z</time>
      </trkpt>
      <trkpt lat="44.93305" lon="4.89589">
        <ele>129.80000305176</ele>
        <time>2024-05-21T11:32:08.000Z</time>
      </trkpt>
      <trkpt lat="44.93301" lon="4.89585">
        <ele>129.80000305176</ele>
        <time>2024-05-21T11:32:09.000Z</time>
      </trkpt>
      <trkpt lat="44.93296" lon="4.89582">
        <ele>129.80000305176</ele>
        <time>2024-05-21T11:32:10.000Z</time>
      </trkpt>
      <trkpt lat="44.93292" lon="4.89578">
        <ele>129.80000305176</ele>
        <time>2024-05-21T11:32:11.000Z</time>
      </trkpt>
      <trkpt lat="44.93287" lon="4.89575">
        <ele>129.80000305176</ele>
        <time>2024-05-21T11:32:12.000Z</time>
      </trkpt>
      <trkpt lat="44.93282" lon="4.89571">
        <ele>129.80000305176</ele>
        <time>2024-05-21T11:32:13.000Z</time>
      </trkpt>
      <trkpt lat="44.93278" lon="4.89568">
        <ele>129.60000610352</ele>
        <time>2024-05-21T11:32:14.000Z</time>
      </trkpt>
      <trkpt lat="44.93273" lon="4.89565">
        <ele>129.39999389648</ele>
        <time>2024-05-21T11:32:15.000Z</time>
      </trkpt>
      <trkpt lat="44.93268" lon="4.89562">
        <ele>129.39999389648</ele>
        <time>2024-05-21T11:32:16.000Z</time>
      </trkpt>
      <trkpt lat="44.93263" lon="4.89559">
        <ele>129.39999389648</ele>
        <time>2024-05-21T11:32:17.000Z</time>
      </trkpt>
      <trkpt lat="44.93258" lon="4.89555">
        <ele>129.39999389648</ele>
        <time>2024-05-21T11:32:18.000Z</time>
      </trkpt>
      <trkpt lat="44.93253" lon="4.89553">
        <ele>129.39999389648</ele>
        <time>2024-05-21T11:32:19.000Z</time>
      </trkpt>
      <trkpt lat="44.93249" lon="4.8955">
        <ele>129.39999389648</ele>
        <time>2024-05-21T11:32:20.000Z</time>
      </trkpt>
      <trkpt lat="44.93244" lon="4.89547">
        <ele>129.39999389648</ele>
        <time>2024-05-21T11:32:21.000Z</time>
      </trkpt>
      <trkpt lat="44.93239" lon="4.89544">
        <ele>129.39999389648</ele>
        <time>2024-05-21T11:32:22.000Z</time>
      </trkpt>
      <trkpt lat="44.93234" lon="4.89541">
        <ele>129.39999389648</ele>
        <time>2024-05-21T11:32:23.000Z</time>
      </trkpt>
      <trkpt lat="44.93229" lon="4.89538">
        <ele>129.60000610352</ele>
        <time>2024-05-21T11:32:24.000Z</time>
      </trkpt>
      <trkpt lat="44.93225" lon="4.89536">
        <ele>129.39999389648</ele>
        <time>2024-05-21T11:32:25.000Z</time>
      </trkpt>
      <trkpt lat="44.9322" lon="4.89533">
        <ele>129.60000610352</ele>
        <time>2024-05-21T11:32:26.000Z</time>
      </trkpt>
      <trkpt lat="44.93216" lon="4.8953">
        <ele>129.60000610352</ele>
        <time>2024-05-21T11:32:27.000Z</time>
      </trkpt>
      <trkpt lat="44.93212" lon="4.89528">
        <ele>129.60000610352</ele>
        <time>2024-05-21T11:32:28.000Z</time>
      </trkpt>
      <trkpt lat="44.93208" lon="4.89525">
        <ele>129.60000610352</ele>
        <time>2024-05-21T11:32:29.000Z</time>
      </trkpt>
      <trkpt lat="44.93204" lon="4.89523">
        <ele>129.60000610352</ele>
        <time>2024-05-21T11:32:30.000Z</time>
      </trkpt>
      <trkpt lat="44.932" lon="4.89521">
        <ele>129.60000610352</ele>
        <time>2024-05-21T11:32:31.000Z</time>
      </trkpt>
      <trkpt lat="44.93197" lon="4.89519">
        <ele>129.80000305176</ele>
        <time>2024-05-21T11:32:32.000Z</time>
      </trkpt>
      <trkpt lat="44.93195" lon="4.89517">
        <ele>129.80000305176</ele>
        <time>2024-05-21T11:32:33.000Z</time>
      </trkpt>
      <trkpt lat="44.93194" lon="4.89514">
        <ele>129.80000305176</ele>
        <time>2024-05-21T11:32:34.000Z</time>
      </trkpt>
      <trkpt lat="44.93194" lon="4.89513">
        <ele>130</ele>
        <time>2024-05-21T11:32:35.000Z</time>
      </trkpt>
      <trkpt lat="44.93194" lon="4.8951">
        <ele>130</ele>
        <time>2024-05-21T11:32:36.000Z</time>
      </trkpt>
      <trkpt lat="44.93195" lon="4.89509">
        <ele>130.19999694824</ele>
        <time>2024-05-21T11:32:37.000Z</time>
      </trkpt>
      <trkpt lat="44.93195" lon="4.89508">
        <ele>130.39999389648</ele>
        <time>2024-05-21T11:32:38.000Z</time>
      </trkpt>
      <trkpt lat="44.93195" lon="4.89508">
        <ele>130.39999389648</ele>
        <time>2024-05-21T11:32:39.000Z</time>
      </trkpt>
      <trkpt lat="44.93189" lon="4.89513">
        <ele>130.60000610352</ele>
        <time>2024-05-21T11:43:50.000Z</time>
      </trkpt>
      <trkpt lat="44.93187" lon="4.89513">
        <ele>130.80000305176</ele>
        <time>2024-05-21T11:43:51.000Z</time>
      </trkpt>
      <trkpt lat="44.93185" lon="4.89511">
        <ele>130.80000305176</ele>
        <time>2024-05-21T11:43:52.000Z</time>
      </trkpt>
      <trkpt lat="44.93183" lon="4.8951">
        <ele>130.80000305176</ele>
        <time>2024-05-21T11:43:53.000Z</time>
      </trkpt>
      <trkpt lat="44.93181" lon="4.89509">
        <ele>130.60000610352</ele>
        <time>2024-05-21T11:43:54.000Z</time>
      </trkpt>
      <trkpt lat="44.93178" lon="4.89507">
        <ele>130.60000610352</ele>
        <time>2024-05-21T11:43:55.000Z</time>
      </trkpt>
      <trkpt lat="44.93176" lon="4.89506">
        <ele>130.60000610352</ele>
        <time>2024-05-21T11:43:56.000Z</time>
      </trkpt>
      <trkpt lat="44.93172" lon="4.89503">
        <ele>130.60000610352</ele>
        <time>2024-05-21T11:43:57.000Z</time>
      </trkpt>
      <trkpt lat="44.93169" lon="4.89501">
        <ele>130.60000610352</ele>
        <time>2024-05-21T11:43:58.000Z</time>
      </trkpt>
      <trkpt lat="44.93165" lon="4.895">
        <ele>130.60000610352</ele>
        <time>2024-05-21T11:43:59.000Z</time>
      </trkpt>
      <trkpt lat="44.93161" lon="4.89499">
        <ele>130.60000610352</ele>
        <time>2024-05-21T11:44:00.000Z</time>
      </trkpt>
      <trkpt lat="44.93158" lon="4.89497">
        <ele>130.80000305176</ele>
        <time>2024-05-21T11:44:01.000Z</time>
      </trkpt>
      <trkpt lat="44.93154" lon="4.89495">
        <ele>130.80000305176</ele>
        <time>2024-05-21T11:44:02.000Z</time>
      </trkpt>
      <trkpt lat="44.93149" lon="4.89493">
        <ele>130.80000305176</ele>
        <time>2024-05-21T11:44:03.000Z</time>
      </trkpt>
      <trkpt lat="44.93145" lon="4.89491">
        <ele>130.80000305176</ele>
        <time>2024-05-21T11:44:04.000Z</time>
      </trkpt>
      <trkpt lat="44.93142" lon="4.8949">
        <ele>130.80000305176</ele>
        <time>2024-05-21T11:44:05.000Z</time>
      </trkpt>
      <trkpt lat="44.93138" lon="4.89488">
        <ele>130.80000305176</ele>
        <time>2024-05-21T11:44:06.000Z</time>
      </trkpt>
      <trkpt lat="44.93133" lon="4.89486">
        <ele>130.80000305176</ele>
        <time>2024-05-21T11:44:07.000Z</time>
      </trkpt>
      <trkpt lat="44.93129" lon="4.89484">
        <ele>131</ele>
        <time>2024-05-21T11:44:08.000Z</time>
      </trkpt>
      <trkpt lat="44.93125" lon="4.89482">
        <ele>131</ele>
        <time>2024-05-21T11:44:09.000Z</time>
      </trkpt>
      <trkpt lat="44.9312" lon="4.8948">
        <ele>131</ele>
        <time>2024-05-21T11:44:10.000Z</time>
      </trkpt>
      <trkpt lat="44.93116" lon="4.89479">
        <ele>130.80000305176</ele>
        <time>2024-05-21T11:44:11.000Z</time>
      </trkpt>
      <trkpt lat="44.93112" lon="4.89477">
        <ele>131</ele>
        <time>2024-05-21T11:44:12.000Z</time>
      </trkpt>
      <trkpt lat="44.93109" lon="4.89475">
        <ele>131</ele>
        <time>2024-05-21T11:44:13.000Z</time>
      </trkpt>
      <trkpt lat="44.93106" lon="4.89474">
        <ele>131</ele>
        <time>2024-05-21T11:44:14.000Z</time>
      </trkpt>
      <trkpt lat="44.93102" lon="4.89472">
        <ele>131</ele>
        <time>2024-05-21T11:44:15.000Z</time>
      </trkpt>
      <trkpt lat="44.93098" lon="4.89471">
        <ele>131</ele>
        <time>2024-05-21T11:44:16.000Z</time>
      </trkpt>
      <trkpt lat="44.93095" lon="4.8947">
        <ele>131</ele>
        <time>2024-05-21T11:44:17.000Z</time>
      </trkpt>
      <trkpt lat="44.93091" lon="4.89468">
        <ele>131</ele>
        <time>2024-05-21T11:44:18.000Z</time>
      </trkpt>
      <trkpt lat="44.93088" lon="4.89466">
        <ele>131</ele>
        <time>2024-05-21T11:44:19.000Z</time>
      </trkpt>
      <trkpt lat="44.93084" lon="4.89464">
        <ele>131</ele>
        <time>2024-05-21T11:44:20.000Z</time>
      </trkpt>
      <trkpt lat="44.93081" lon="4.89463">
        <ele>131.19999694824</ele>
        <time>2024-05-21T11:44:21.000Z</time>
      </trkpt>
      <trkpt lat="44.93078" lon="4.89462">
        <ele>131.19999694824</ele>
        <time>2024-05-21T11:44:22.000Z</time>
      </trkpt>
      <trkpt lat="44.93075" lon="4.8946">
        <ele>131.19999694824</ele>
        <time>2024-05-21T11:44:23.000Z</time>
      </trkpt>
      <trkpt lat="44.93072" lon="4.89459">
        <ele>131.19999694824</ele>
        <time>2024-05-21T11:44:24.000Z</time>
      </trkpt>
      <trkpt lat="44.93069" lon="4.89457">
        <ele>131.19999694824</ele>
        <time>2024-05-21T11:44:25.000Z</time>
      </trkpt>
      <trkpt lat="44.93066" lon="4.89456">
        <ele>131.19999694824</ele>
        <time>2024-05-21T11:44:26.000Z</time>
      </trkpt>
      <trkpt lat="44.93063" lon="4.89455">
        <ele>131.19999694824</ele>
        <time>2024-05-21T11:44:27.000Z</time>
      </trkpt>
      <trkpt lat="44.9306" lon="4.89454">
        <ele>131</ele>
        <time>2024-05-21T11:44:28.000Z</time>
      </trkpt>
      <trkpt lat="44.93057" lon="4.89453">
        <ele>131</ele>
        <time>2024-05-21T11:44:29.000Z</time>
      </trkpt>
      <trkpt lat="44.93055" lon="4.89452">
        <ele>131</ele>
        <time>2024-05-21T11:44:30.000Z</time>
      </trkpt>
      <trkpt lat="44.93052" lon="4.89449">
        <ele>131</ele>
        <time>2024-05-21T11:44:31.000Z</time>
      </trkpt>
      <trkpt lat="44.9305" lon="4.89446">
        <ele>131</ele>
        <time>2024-05-21T11:44:32.000Z</time>
      </trkpt>
      <trkpt lat="44.93048" lon="4.89442">
        <ele>131</ele>
        <time>2024-05-21T11:44:33.000Z</time>
      </trkpt>
      <trkpt lat="44.93047" lon="4.89438">
        <ele>131</ele>
        <time>2024-05-21T11:44:34.000Z</time>
      </trkpt>
      <trkpt lat="44.93046" lon="4.89434">
        <ele>131</ele>
        <time>2024-05-21T11:44:35.000Z</time>
      </trkpt>
      <trkpt lat="44.93045" lon="4.89429">
        <ele>130.80000305176</ele>
        <time>2024-05-21T11:44:36.000Z</time>
      </trkpt>
      <trkpt lat="44.93044" lon="4.89424">
        <ele>130.60000610352</ele>
        <time>2024-05-21T11:44:37.000Z</time>
      </trkpt>
      <trkpt lat="44.93044" lon="4.89419">
        <ele>130.60000610352</ele>
        <time>2024-05-21T11:44:38.000Z</time>
      </trkpt>
      <trkpt lat="44.93044" lon="4.89416">
        <ele>130.60000610352</ele>
        <time>2024-05-21T11:44:39.000Z</time>
      </trkpt>
      <trkpt lat="44.93044" lon="4.8941">
        <ele>130.39999389648</ele>
        <time>2024-05-21T11:44:40.000Z</time>
      </trkpt>
      <trkpt lat="44.93045" lon="4.89406">
        <ele>130.39999389648</ele>
        <time>2024-05-21T11:44:41.000Z</time>
      </trkpt>
      <trkpt lat="44.93045" lon="4.89401">
        <ele>130.19999694824</ele>
        <time>2024-05-21T11:44:42.000Z</time>
      </trkpt>
      <trkpt lat="44.93045" lon="4.89395">
        <ele>130.19999694824</ele>
        <time>2024-05-21T11:44:43.000Z</time>
      </trkpt>
      <trkpt lat="44.93045" lon="4.89389">
        <ele>130.19999694824</ele>
        <time>2024-05-21T11:44:44.000Z</time>
      </trkpt>
      <trkpt lat="44.93046" lon="4.89384">
        <ele>130</ele>
        <time>2024-05-21T11:44:45.000Z</time>
      </trkpt>
      <trkpt lat="44.93046" lon="4.89379">
        <ele>130</ele>
        <time>2024-05-21T11:44:46.000Z</time>
      </trkpt>
      <trkpt lat="44.93046" lon="4.89375">
        <ele>129.80000305176</ele>
        <time>2024-05-21T11:44:47.000Z</time>
      </trkpt>
      <trkpt lat="44.93046" lon="4.8937">
        <ele>129.80000305176</ele>
        <time>2024-05-21T11:44:48.000Z</time>
      </trkpt>
      <trkpt lat="44.93046" lon="4.89364">
        <ele>129.80000305176</ele>
        <time>2024-05-21T11:44:49.000Z</time>
      </trkpt>
      <trkpt lat="44.93046" lon="4.8936">
        <ele>129.80000305176</ele>
        <time>2024-05-21T11:44:50.000Z</time>
      </trkpt>
      <trkpt lat="44.93046" lon="4.89355">
        <ele>129.80000305176</ele>
        <time>2024-05-21T11:44:51.000Z</time>
      </trkpt>
      <trkpt lat="44.93046" lon="4.8935">
        <ele>129.80000305176</ele>
        <time>2024-05-21T11:44:52.000Z</time>
      </trkpt>
      <trkpt lat="44.93046" lon="4.89345">
        <ele>129.80000305176</ele>
        <time>2024-05-21T11:44:53.000Z</time>
      </trkpt>
      <trkpt lat="44.93046" lon="4.89339">
        <ele>129.80000305176</ele>
        <time>2024-05-21T11:44:54.000Z</time>
      </trkpt>
      <trkpt lat="44.93046" lon="4.89335">
        <ele>129.80000305176</ele>
        <time>2024-05-21T11:44:55.000Z</time>
      </trkpt>
      <trkpt lat="44.93046" lon="4.8933">
        <ele>129.80000305176</ele>
        <time>2024-05-21T11:44:56.000Z</time>
      </trkpt>
      <trkpt lat="44.93047" lon="4.89324">
        <ele>129.80000305176</ele>
        <time>2024-05-21T11:44:57.000Z</time>
      </trkpt>
      <trkpt lat="44.93047" lon="4.89319">
        <ele>129.60000610352</ele>
        <time>2024-05-21T11:44:58.000Z</time>
      </trkpt>
      <trkpt lat="44.93047" lon="4.89314">
        <ele>129.60000610352</ele>
        <time>2024-05-21T11:44:59.000Z</time>
      </trkpt>
      <trkpt lat="44.93047" lon="4.8931">
        <ele>129.39999389648</ele>
        <time>2024-05-21T11:45:00.000Z</time>
      </trkpt>
      <trkpt lat="44.93048" lon="4.89305">
        <ele>129.39999389648</ele>
        <time>2024-05-21T11:45:01.000Z</time>
      </trkpt>
      <trkpt lat="44.93048" lon="4.893">
        <ele>129.39999389648</ele>
        <time>2024-05-21T11:45:02.000Z</time>
      </trkpt>
      <trkpt lat="44.93048" lon="4.89294">
        <ele>129.19999694824</ele>
        <time>2024-05-21T11:45:03.000Z</time>
      </trkpt>
      <trkpt lat="44.93049" lon="4.89289">
        <ele>129.19999694824</ele>
        <time>2024-05-21T11:45:04.000Z</time>
      </trkpt>
      <trkpt lat="44.93049" lon="4.89284">
        <ele>129</ele>
        <time>2024-05-21T11:45:05.000Z</time>
      </trkpt>
      <trkpt lat="44.93049" lon="4.89278">
        <ele>129</ele>
        <time>2024-05-21T11:45:06.000Z</time>
      </trkpt>
      <trkpt lat="44.93049" lon="4.89271">
        <ele>129</ele>
        <time>2024-05-21T11:45:07.000Z</time>
      </trkpt>
      <trkpt lat="44.93049" lon="4.89265">
        <ele>129</ele>
        <time>2024-05-21T11:45:08.000Z</time>
      </trkpt>
      <trkpt lat="44.9305" lon="4.89258">
        <ele>129</ele>
        <time>2024-05-21T11:45:09.000Z</time>
      </trkpt>
      <trkpt lat="44.9305" lon="4.89251">
        <ele>129</ele>
        <time>2024-05-21T11:45:10.000Z</time>
      </trkpt>
      <trkpt lat="44.9305" lon="4.89244">
        <ele>129</ele>
        <time>2024-05-21T11:45:11.000Z</time>
      </trkpt>
      <trkpt lat="44.9305" lon="4.89238">
        <ele>128.80000305176</ele>
        <time>2024-05-21T11:45:12.000Z</time>
      </trkpt>
      <trkpt lat="44.93051" lon="4.89233">
        <ele>128.60000610352</ele>
        <time>2024-05-21T11:45:13.000Z</time>
      </trkpt>
      <trkpt lat="44.93051" lon="4.89228">
        <ele>128.60000610352</ele>
        <time>2024-05-21T11:45:14.000Z</time>
      </trkpt>
      <trkpt lat="44.93052" lon="4.89221">
        <ele>128.60000610352</ele>
        <time>2024-05-21T11:45:15.000Z</time>
      </trkpt>
      <trkpt lat="44.93052" lon="4.89215">
        <ele>128.19999694824</ele>
        <time>2024-05-21T11:45:16.000Z</time>
      </trkpt>
      <trkpt lat="44.93052" lon="4.89211">
        <ele>128.19999694824</ele>
        <time>2024-05-21T11:45:17.000Z</time>
      </trkpt>
      <trkpt lat="44.93052" lon="4.89205">
        <ele>128</ele>
        <time>2024-05-21T11:45:18.000Z</time>
      </trkpt>
      <trkpt lat="44.93053" lon="4.89198">
        <ele>128</ele>
        <time>2024-05-21T11:45:19.000Z</time>
      </trkpt>
      <trkpt lat="44.93053" lon="4.89193">
        <ele>128</ele>
        <time>2024-05-21T11:45:20.000Z</time>
      </trkpt>
      <trkpt lat="44.93053" lon="4.89188">
        <ele>128</ele>
        <time>2024-05-21T11:45:21.000Z</time>
      </trkpt>
      <trkpt lat="44.93054" lon="4.89183">
        <ele>127.80000305176</ele>
        <time>2024-05-21T11:45:22.000Z</time>
      </trkpt>
      <trkpt lat="44.93054" lon="4.89178">
        <ele>127.80000305176</ele>
        <time>2024-05-21T11:45:23.000Z</time>
      </trkpt>
      <trkpt lat="44.93054" lon="4.89172">
        <ele>127.59999847412</ele>
        <time>2024-05-21T11:45:24.000Z</time>
      </trkpt>
      <trkpt lat="44.93054" lon="4.89168">
        <ele>127.59999847412</ele>
        <time>2024-05-21T11:45:25.000Z</time>
      </trkpt>
      <trkpt lat="44.93054" lon="4.89164">
        <ele>127.59999847412</ele>
        <time>2024-05-21T11:45:26.000Z</time>
      </trkpt>
      <trkpt lat="44.93054" lon="4.89163">
        <ele>127.59999847412</ele>
        <time>2024-05-21T11:45:27.000Z</time>
      </trkpt>
      <trkpt lat="44.93055" lon="4.89162">
        <ele>127.59999847412</ele>
        <time>2024-05-21T11:45:28.000Z</time>
      </trkpt>
      <trkpt lat="44.93055" lon="4.89162">
        <ele>127.80000305176</ele>
        <time>2024-05-21T11:45:29.000Z</time>
      </trkpt>
      <trkpt lat="44.93054" lon="4.89158">
        <ele>127.59999847412</ele>
        <time>2024-05-21T11:45:53.000Z</time>
      </trkpt>
      <trkpt lat="44.93054" lon="4.89156">
        <ele>127.59999847412</ele>
        <time>2024-05-21T11:45:54.000Z</time>
      </trkpt>
      <trkpt lat="44.93054" lon="4.89153">
        <ele>127.59999847412</ele>
        <time>2024-05-21T11:45:55.000Z</time>
      </trkpt>
      <trkpt lat="44.93054" lon="4.89149">
        <ele>127.59999847412</ele>
        <time>2024-05-21T11:45:56.000Z</time>
      </trkpt>
      <trkpt lat="44.93054" lon="4.89145">
        <ele>127.59999847412</ele>
        <time>2024-05-21T11:45:57.000Z</time>
      </trkpt>
      <trkpt lat="44.93055" lon="4.89139">
        <ele>127.59999847412</ele>
        <time>2024-05-21T11:45:58.000Z</time>
      </trkpt>
      <trkpt lat="44.93055" lon="4.89134">
        <ele>127.40000152588</ele>
        <time>2024-05-21T11:45:59.000Z</time>
      </trkpt>
      <trkpt lat="44.93055" lon="4.89128">
        <ele>127.40000152588</ele>
        <time>2024-05-21T11:46:00.000Z</time>
      </trkpt>
      <trkpt lat="44.93055" lon="4.89123">
        <ele>127.19999694824</ele>
        <time>2024-05-21T11:46:01.000Z</time>
      </trkpt>
      <trkpt lat="44.93055" lon="4.89118">
        <ele>127.19999694824</ele>
        <time>2024-05-21T11:46:02.000Z</time>
      </trkpt>
      <trkpt lat="44.93055" lon="4.89112">
        <ele>127</ele>
        <time>2024-05-21T11:46:03.000Z</time>
      </trkpt>
      <trkpt lat="44.93055" lon="4.89107">
        <ele>127</ele>
        <time>2024-05-21T11:46:04.000Z</time>
      </trkpt>
      <trkpt lat="44.93055" lon="4.891">
        <ele>127</ele>
        <time>2024-05-21T11:46:05.000Z</time>
      </trkpt>
      <trkpt lat="44.93055" lon="4.89094">
        <ele>127</ele>
        <time>2024-05-21T11:46:06.000Z</time>
      </trkpt>
      <trkpt lat="44.93055" lon="4.8909">
        <ele>127</ele>
        <time>2024-05-21T11:46:07.000Z</time>
      </trkpt>
      <trkpt lat="44.93055" lon="4.89083">
        <ele>127.19999694824</ele>
        <time>2024-05-21T11:46:08.000Z</time>
      </trkpt>
      <trkpt lat="44.93055" lon="4.89078">
        <ele>127.19999694824</ele>
        <time>2024-05-21T11:46:09.000Z</time>
      </trkpt>
      <trkpt lat="44.93055" lon="4.89074">
        <ele>127.40000152588</ele>
        <time>2024-05-21T11:46:10.000Z</time>
      </trkpt>
      <trkpt lat="44.93055" lon="4.89068">
        <ele>127.40000152588</ele>
        <time>2024-05-21T11:46:11.000Z</time>
      </trkpt>
      <trkpt lat="44.93055" lon="4.89063">
        <ele>127.40000152588</ele>
        <time>2024-05-21T11:46:12.000Z</time>
      </trkpt>
      <trkpt lat="44.93055" lon="4.89059">
        <ele>127.40000152588</ele>
        <time>2024-05-21T11:46:13.000Z</time>
      </trkpt>
      <trkpt lat="44.93055" lon="4.89054">
        <ele>127.59999847412</ele>
        <time>2024-05-21T11:46:14.000Z</time>
      </trkpt>
      <trkpt lat="44.93055" lon="4.89048">
        <ele>127.59999847412</ele>
        <time>2024-05-21T11:46:15.000Z</time>
      </trkpt>
      <trkpt lat="44.93055" lon="4.89044">
        <ele>127.59999847412</ele>
        <time>2024-05-21T11:46:16.000Z</time>
      </trkpt>
      <trkpt lat="44.93055" lon="4.89039">
        <ele>127.59999847412</ele>
        <time>2024-05-21T11:46:17.000Z</time>
      </trkpt>
      <trkpt lat="44.93055" lon="4.89035">
        <ele>127.40000152588</ele>
        <time>2024-05-21T11:46:18.000Z</time>
      </trkpt>
      <trkpt lat="44.93055" lon="4.8903">
        <ele>127.40000152588</ele>
        <time>2024-05-21T11:46:19.000Z</time>
      </trkpt>
      <trkpt lat="44.93056" lon="4.89026">
        <ele>127.40000152588</ele>
        <time>2024-05-21T11:46:20.000Z</time>
      </trkpt>
      <trkpt lat="44.93056" lon="4.89022">
        <ele>127.40000152588</ele>
        <time>2024-05-21T11:46:21.000Z</time>
      </trkpt>
      <trkpt lat="44.93056" lon="4.89018">
        <ele>127.40000152588</ele>
        <time>2024-05-21T11:46:22.000Z</time>
      </trkpt>
      <trkpt lat="44.93055" lon="4.89014">
        <ele>127.40000152588</ele>
        <time>2024-05-21T11:46:23.000Z</time>
      </trkpt>
      <trkpt lat="44.93055" lon="4.8901">
        <ele>127.40000152588</ele>
        <time>2024-05-21T11:46:24.000Z</time>
      </trkpt>
      <trkpt lat="44.93055" lon="4.89006">
        <ele>127.40000152588</ele>
        <time>2024-05-21T11:46:25.000Z</time>
      </trkpt>
      <trkpt lat="44.93055" lon="4.89003">
        <ele>127.40000152588</ele>
        <time>2024-05-21T11:46:26.000Z</time>
      </trkpt>
      <trkpt lat="44.93055" lon="4.89">
        <ele>127.40000152588</ele>
        <time>2024-05-21T11:46:27.000Z</time>
      </trkpt>
      <trkpt lat="44.93054" lon="4.88998">
        <ele>127.40000152588</ele>
        <time>2024-05-21T11:46:28.000Z</time>
      </trkpt>
      <trkpt lat="44.93054" lon="4.88997">
        <ele>127.19999694824</ele>
        <time>2024-05-21T11:46:29.000Z</time>
      </trkpt>
      <trkpt lat="44.93053" lon="4.88995">
        <ele>127.19999694824</ele>
        <time>2024-05-21T11:46:30.000Z</time>
      </trkpt>
      <trkpt lat="44.93052" lon="4.88994">
        <ele>127</ele>
        <time>2024-05-21T11:46:31.000Z</time>
      </trkpt>
      <trkpt lat="44.93052" lon="4.88993">
        <ele>127</ele>
        <time>2024-05-21T11:46:32.000Z</time>
      </trkpt>
      <trkpt lat="44.93051" lon="4.88993">
        <ele>127</ele>
        <time>2024-05-21T11:46:33.000Z</time>
      </trkpt>
      <trkpt lat="44.93046" lon="4.88992">
        <ele>127</ele>
        <time>2024-05-21T11:47:13.000Z</time>
      </trkpt>
      <trkpt lat="44.93045" lon="4.88992">
        <ele>127</ele>
        <time>2024-05-21T11:47:14.000Z</time>
      </trkpt>
      <trkpt lat="44.93042" lon="4.88992">
        <ele>127</ele>
        <time>2024-05-21T11:47:15.000Z</time>
      </trkpt>
      <trkpt lat="44.9304" lon="4.88992">
        <ele>127</ele>
        <time>2024-05-21T11:47:16.000Z</time>
      </trkpt>
      <trkpt lat="44.93037" lon="4.8899">
        <ele>126.80000305176</ele>
        <time>2024-05-21T11:47:17.000Z</time>
      </trkpt>
      <trkpt lat="44.93033" lon="4.88988">
        <ele>126.80000305176</ele>
        <time>2024-05-21T11:47:18.000Z</time>
      </trkpt>
      <trkpt lat="44.9303" lon="4.88987">
        <ele>126.80000305176</ele>
        <time>2024-05-21T11:47:19.000Z</time>
      </trkpt>
      <trkpt lat="44.93027" lon="4.88985">
        <ele>126.80000305176</ele>
        <time>2024-05-21T11:47:20.000Z</time>
      </trkpt>
      <trkpt lat="44.93023" lon="4.88983">
        <ele>126.59999847412</ele>
        <time>2024-05-21T11:47:21.000Z</time>
      </trkpt>
      <trkpt lat="44.93019" lon="4.88982">
        <ele>126.40000152588</ele>
        <time>2024-05-21T11:47:22.000Z</time>
      </trkpt>
      <trkpt lat="44.93016" lon="4.8898">
        <ele>126.40000152588</ele>
        <time>2024-05-21T11:47:23.000Z</time>
      </trkpt>
      <trkpt lat="44.93013" lon="4.88979">
        <ele>126.40000152588</ele>
        <time>2024-05-21T11:47:24.000Z</time>
      </trkpt>
      <trkpt lat="44.93009" lon="4.88977">
        <ele>126.40000152588</ele>
        <time>2024-05-21T11:47:25.000Z</time>
      </trkpt>
      <trkpt lat="44.93006" lon="4.88976">
        <ele>126.40000152588</ele>
        <time>2024-05-21T11:47:26.000Z</time>
      </trkpt>
      <trkpt lat="44.93003" lon="4.88975">
        <ele>126.40000152588</ele>
        <time>2024-05-21T11:47:27.000Z</time>
      </trkpt>
      <trkpt lat="44.92999" lon="4.88972">
        <ele>126.40000152588</ele>
        <time>2024-05-21T11:47:28.000Z</time>
      </trkpt>
      <trkpt lat="44.92996" lon="4.88971">
        <ele>126.40000152588</ele>
        <time>2024-05-21T11:47:29.000Z</time>
      </trkpt>
      <trkpt lat="44.92992" lon="4.88968">
        <ele>126.40000152588</ele>
        <time>2024-05-21T11:47:30.000Z</time>
      </trkpt>
      <trkpt lat="44.92988" lon="4.88966">
        <ele>126.59999847412</ele>
        <time>2024-05-21T11:47:31.000Z</time>
      </trkpt>
      <trkpt lat="44.92985" lon="4.88964">
        <ele>126.59999847412</ele>
        <time>2024-05-21T11:47:32.000Z</time>
      </trkpt>
      <trkpt lat="44.9298" lon="4.88962">
        <ele>126.59999847412</ele>
        <time>2024-05-21T11:47:33.000Z</time>
      </trkpt>
      <trkpt lat="44.92976" lon="4.8896">
        <ele>126.80000305176</ele>
        <time>2024-05-21T11:47:34.000Z</time>
      </trkpt>
      <trkpt lat="44.92973" lon="4.88958">
        <ele>126.80000305176</ele>
        <time>2024-05-21T11:47:35.000Z</time>
      </trkpt>
      <trkpt lat="44.92969" lon="4.88956">
        <ele>126.80000305176</ele>
        <time>2024-05-21T11:47:36.000Z</time>
      </trkpt>
      <trkpt lat="44.92965" lon="4.88954">
        <ele>126.80000305176</ele>
        <time>2024-05-21T11:47:37.000Z</time>
      </trkpt>
      <trkpt lat="44.92961" lon="4.88952">
        <ele>126.80000305176</ele>
        <time>2024-05-21T11:47:38.000Z</time>
      </trkpt>
      <trkpt lat="44.92957" lon="4.88949">
        <ele>126.80000305176</ele>
        <time>2024-05-21T11:47:39.000Z</time>
      </trkpt>
      <trkpt lat="44.92953" lon="4.88948">
        <ele>126.80000305176</ele>
        <time>2024-05-21T11:47:40.000Z</time>
      </trkpt>
      <trkpt lat="44.92949" lon="4.88945">
        <ele>127</ele>
        <time>2024-05-21T11:47:41.000Z</time>
      </trkpt>
      <trkpt lat="44.92945" lon="4.88943">
        <ele>127</ele>
        <time>2024-05-21T11:47:42.000Z</time>
      </trkpt>
      <trkpt lat="44.92941" lon="4.88941">
        <ele>127</ele>
        <time>2024-05-21T11:47:43.000Z</time>
      </trkpt>
      <trkpt lat="44.92937" lon="4.88938">
        <ele>127</ele>
        <time>2024-05-21T11:47:44.000Z</time>
      </trkpt>
      <trkpt lat="44.92934" lon="4.88936">
        <ele>126.80000305176</ele>
        <time>2024-05-21T11:47:45.000Z</time>
      </trkpt>
      <trkpt lat="44.9293" lon="4.88934">
        <ele>126.80000305176</ele>
        <time>2024-05-21T11:47:46.000Z</time>
      </trkpt>
      <trkpt lat="44.92927" lon="4.88932">
        <ele>126.80000305176</ele>
        <time>2024-05-21T11:47:47.000Z</time>
      </trkpt>
      <trkpt lat="44.92923" lon="4.8893">
        <ele>126.80000305176</ele>
        <time>2024-05-21T11:47:48.000Z</time>
      </trkpt>
      <trkpt lat="44.9292" lon="4.88929">
        <ele>127</ele>
        <time>2024-05-21T11:47:49.000Z</time>
      </trkpt>
      <trkpt lat="44.92916" lon="4.88927">
        <ele>127</ele>
        <time>2024-05-21T11:47:50.000Z</time>
      </trkpt>
      <trkpt lat="44.92914" lon="4.88925">
        <ele>127.19999694824</ele>
        <time>2024-05-21T11:47:51.000Z</time>
      </trkpt>
      <trkpt lat="44.9291" lon="4.88923">
        <ele>127.40000152588</ele>
        <time>2024-05-21T11:47:52.000Z</time>
      </trkpt>
      <trkpt lat="44.92907" lon="4.88921">
        <ele>127.40000152588</ele>
        <time>2024-05-21T11:47:53.000Z</time>
      </trkpt>
      <trkpt lat="44.92903" lon="4.8892">
        <ele>127.59999847412</ele>
        <time>2024-05-21T11:47:54.000Z</time>
      </trkpt>
      <trkpt lat="44.929" lon="4.88918">
        <ele>127.59999847412</ele>
        <time>2024-05-21T11:47:55.000Z</time>
      </trkpt>
      <trkpt lat="44.92897" lon="4.88916">
        <ele>127.59999847412</ele>
        <time>2024-05-21T11:47:56.000Z</time>
      </trkpt>
      <trkpt lat="44.92895" lon="4.88914">
        <ele>127.59999847412</ele>
        <time>2024-05-21T11:47:57.000Z</time>
      </trkpt>
      <trkpt lat="44.9289" lon="4.88913">
        <ele>127.59999847412</ele>
        <time>2024-05-21T11:47:58.000Z</time>
      </trkpt>
      <trkpt lat="44.92887" lon="4.88911">
        <ele>127.59999847412</ele>
        <time>2024-05-21T11:47:59.000Z</time>
      </trkpt>
      <trkpt lat="44.92884" lon="4.88908">
        <ele>127.80000305176</ele>
        <time>2024-05-21T11:48:00.000Z</time>
      </trkpt>
      <trkpt lat="44.92881" lon="4.88907">
        <ele>127.80000305176</ele>
        <time>2024-05-21T11:48:01.000Z</time>
      </trkpt>
      <trkpt lat="44.92877" lon="4.88904">
        <ele>127.80000305176</ele>
        <time>2024-05-21T11:48:02.000Z</time>
      </trkpt>
      <trkpt lat="44.92874" lon="4.88902">
        <ele>127.80000305176</ele>
        <time>2024-05-21T11:48:03.000Z</time>
      </trkpt>
      <trkpt lat="44.9287" lon="4.88901">
        <ele>127.80000305176</ele>
        <time>2024-05-21T11:48:04.000Z</time>
      </trkpt>
      <trkpt lat="44.92867" lon="4.88899">
        <ele>127.80000305176</ele>
        <time>2024-05-21T11:48:05.000Z</time>
      </trkpt>
      <trkpt lat="44.92863" lon="4.88897">
        <ele>127.80000305176</ele>
        <time>2024-05-21T11:48:06.000Z</time>
      </trkpt>
      <trkpt lat="44.92859" lon="4.88895">
        <ele>128</ele>
        <time>2024-05-21T11:48:07.000Z</time>
      </trkpt>
      <trkpt lat="44.92856" lon="4.88893">
        <ele>128</ele>
        <time>2024-05-21T11:48:08.000Z</time>
      </trkpt>
      <trkpt lat="44.92853" lon="4.88891">
        <ele>128.19999694824</ele>
        <time>2024-05-21T11:48:09.000Z</time>
      </trkpt>
      <trkpt lat="44.92849" lon="4.88889">
        <ele>128.19999694824</ele>
        <time>2024-05-21T11:48:10.000Z</time>
      </trkpt>
      <trkpt lat="44.92845" lon="4.88887">
        <ele>128.19999694824</ele>
        <time>2024-05-21T11:48:11.000Z</time>
      </trkpt>
      <trkpt lat="44.92841" lon="4.88885">
        <ele>128.19999694824</ele>
        <time>2024-05-21T11:48:12.000Z</time>
      </trkpt>
      <trkpt lat="44.92838" lon="4.88883">
        <ele>128.19999694824</ele>
        <time>2024-05-21T11:48:13.000Z</time>
      </trkpt>
      <trkpt lat="44.92834" lon="4.88881">
        <ele>128.19999694824</ele>
        <time>2024-05-21T11:48:14.000Z</time>
      </trkpt>
      <trkpt lat="44.92831" lon="4.88879">
        <ele>128.19999694824</ele>
        <time>2024-05-21T11:48:15.000Z</time>
      </trkpt>
      <trkpt lat="44.92828" lon="4.88878">
        <ele>128.19999694824</ele>
        <time>2024-05-21T11:48:16.000Z</time>
      </trkpt>
      <trkpt lat="44.92825" lon="4.88877">
        <ele>128.19999694824</ele>
        <time>2024-05-21T11:48:17.000Z</time>
      </trkpt>
      <trkpt lat="44.92824" lon="4.88878">
        <ele>128.39999389648</ele>
        <time>2024-05-21T11:48:18.000Z</time>
      </trkpt>
      <trkpt lat="44.92823" lon="4.8888">
        <ele>128.39999389648</ele>
        <time>2024-05-21T11:48:19.000Z</time>
      </trkpt>
      <trkpt lat="44.92822" lon="4.88884">
        <ele>128.39999389648</ele>
        <time>2024-05-21T11:48:20.000Z</time>
      </trkpt>
      <trkpt lat="44.92821" lon="4.88889">
        <ele>128.60000610352</ele>
        <time>2024-05-21T11:48:21.000Z</time>
      </trkpt>
      <trkpt lat="44.9282" lon="4.88893">
        <ele>128.60000610352</ele>
        <time>2024-05-21T11:48:22.000Z</time>
      </trkpt>
      <trkpt lat="44.92818" lon="4.88897">
        <ele>128.60000610352</ele>
        <time>2024-05-21T11:48:23.000Z</time>
      </trkpt>
      <trkpt lat="44.92816" lon="4.88901">
        <ele>128.60000610352</ele>
        <time>2024-05-21T11:48:24.000Z</time>
      </trkpt>
      <trkpt lat="44.92815" lon="4.88905">
        <ele>128.60000610352</ele>
        <time>2024-05-21T11:48:25.000Z</time>
      </trkpt>
      <trkpt lat="44.92814" lon="4.8891">
        <ele>128.60000610352</ele>
        <time>2024-05-21T11:48:26.000Z</time>
      </trkpt>
      <trkpt lat="44.92812" lon="4.88915">
        <ele>128.60000610352</ele>
        <time>2024-05-21T11:48:27.000Z</time>
      </trkpt>
      <trkpt lat="44.92811" lon="4.8892">
        <ele>128.60000610352</ele>
        <time>2024-05-21T11:48:28.000Z</time>
      </trkpt>
      <trkpt lat="44.92809" lon="4.88926">
        <ele>128.60000610352</ele>
        <time>2024-05-21T11:48:29.000Z</time>
      </trkpt>
      <trkpt lat="44.92808" lon="4.88931">
        <ele>128.60000610352</ele>
        <time>2024-05-21T11:48:30.000Z</time>
      </trkpt>
      <trkpt lat="44.92807" lon="4.88934">
        <ele>128.60000610352</ele>
        <time>2024-05-21T11:48:31.000Z</time>
      </trkpt>
      <trkpt lat="44.92805" lon="4.88938">
        <ele>128.60000610352</ele>
        <time>2024-05-21T11:48:32.000Z</time>
      </trkpt>
      <trkpt lat="44.92804" lon="4.88942">
        <ele>128.60000610352</ele>
        <time>2024-05-21T11:48:33.000Z</time>
      </trkpt>
      <trkpt lat="44.92803" lon="4.88944">
        <ele>128.60000610352</ele>
        <time>2024-05-21T11:48:34.000Z</time>
      </trkpt>
      <trkpt lat="44.92801" lon="4.88948">
        <ele>128.60000610352</ele>
        <time>2024-05-21T11:48:35.000Z</time>
      </trkpt>
      <trkpt lat="44.92799" lon="4.8895">
        <ele>128.80000305176</ele>
        <time>2024-05-21T11:48:36.000Z</time>
      </trkpt>
      <trkpt lat="44.92798" lon="4.88952">
        <ele>128.80000305176</ele>
        <time>2024-05-21T11:48:37.000Z</time>
      </trkpt>
      <trkpt lat="44.92797" lon="4.88955">
        <ele>128.80000305176</ele>
        <time>2024-05-21T11:48:38.000Z</time>
      </trkpt>
      <trkpt lat="44.92795" lon="4.88957">
        <ele>128.80000305176</ele>
        <time>2024-05-21T11:48:39.000Z</time>
      </trkpt>
      <trkpt lat="44.92795" lon="4.88958">
        <ele>128.60000610352</ele>
        <time>2024-05-21T11:48:40.000Z</time>
      </trkpt>
      <trkpt lat="44.92794" lon="4.88962">
        <ele>128.60000610352</ele>
        <time>2024-05-21T11:48:41.000Z</time>
      </trkpt>
      <trkpt lat="44.92793" lon="4.88965">
        <ele>128.60000610352</ele>
        <time>2024-05-21T11:48:42.000Z</time>
      </trkpt>
      <trkpt lat="44.92792" lon="4.88969">
        <ele>128.60000610352</ele>
        <time>2024-05-21T11:48:43.000Z</time>
      </trkpt>
      <trkpt lat="44.92791" lon="4.88973">
        <ele>128.39999389648</ele>
        <time>2024-05-21T11:48:44.000Z</time>
      </trkpt>
      <trkpt lat="44.9279" lon="4.88976">
        <ele>128.19999694824</ele>
        <time>2024-05-21T11:48:45.000Z</time>
      </trkpt>
      <trkpt lat="44.92789" lon="4.88977">
        <ele>128.19999694824</ele>
        <time>2024-05-21T11:48:46.000Z</time>
      </trkpt>
      <trkpt lat="44.92788" lon="4.88978">
        <ele>128.19999694824</ele>
        <time>2024-05-21T11:48:47.000Z</time>
      </trkpt>
      <trkpt lat="44.92785" lon="4.88978">
        <ele>128.19999694824</ele>
        <time>2024-05-21T11:48:48.000Z</time>
      </trkpt>
      <trkpt lat="44.92782" lon="4.88976">
        <ele>128.19999694824</ele>
        <time>2024-05-21T11:48:49.000Z</time>
      </trkpt>
      <trkpt lat="44.92779" lon="4.88975">
        <ele>128.19999694824</ele>
        <time>2024-05-21T11:48:50.000Z</time>
      </trkpt>
      <trkpt lat="44.92777" lon="4.88974">
        <ele>128</ele>
        <time>2024-05-21T11:48:51.000Z</time>
      </trkpt>
      <trkpt lat="44.92774" lon="4.88973">
        <ele>128</ele>
        <time>2024-05-21T11:48:52.000Z</time>
      </trkpt>
      <trkpt lat="44.9277" lon="4.88971">
        <ele>128</ele>
        <time>2024-05-21T11:48:53.000Z</time>
      </trkpt>
      <trkpt lat="44.92767" lon="4.8897">
        <ele>127.80000305176</ele>
        <time>2024-05-21T11:48:54.000Z</time>
      </trkpt>
      <trkpt lat="44.92765" lon="4.88969">
        <ele>127.80000305176</ele>
        <time>2024-05-21T11:48:55.000Z</time>
      </trkpt>
      <trkpt lat="44.92762" lon="4.88967">
        <ele>127.80000305176</ele>
        <time>2024-05-21T11:48:56.000Z</time>
      </trkpt>
      <trkpt lat="44.92759" lon="4.88966">
        <ele>127.80000305176</ele>
        <time>2024-05-21T11:48:57.000Z</time>
      </trkpt>
      <trkpt lat="44.92756" lon="4.88965">
        <ele>127.80000305176</ele>
        <time>2024-05-21T11:48:58.000Z</time>
      </trkpt>
      <trkpt lat="44.92752" lon="4.88964">
        <ele>127.80000305176</ele>
        <time>2024-05-21T11:48:59.000Z</time>
      </trkpt>
      <trkpt lat="44.9275" lon="4.88962">
        <ele>127.80000305176</ele>
        <time>2024-05-21T11:49:00.000Z</time>
      </trkpt>
      <trkpt lat="44.92746" lon="4.88961">
        <ele>127.80000305176</ele>
        <time>2024-05-21T11:49:01.000Z</time>
      </trkpt>
      <trkpt lat="44.92742" lon="4.88959">
        <ele>128</ele>
        <time>2024-05-21T11:49:02.000Z</time>
      </trkpt>
      <trkpt lat="44.92738" lon="4.88958">
        <ele>128</ele>
        <time>2024-05-21T11:49:03.000Z</time>
      </trkpt>
      <trkpt lat="44.92736" lon="4.88957">
        <ele>128</ele>
        <time>2024-05-21T11:49:04.000Z</time>
      </trkpt>
      <trkpt lat="44.92732" lon="4.88954">
        <ele>128</ele>
        <time>2024-05-21T11:49:05.000Z</time>
      </trkpt>
      <trkpt lat="44.92729" lon="4.88952">
        <ele>128</ele>
        <time>2024-05-21T11:49:06.000Z</time>
      </trkpt>
      <trkpt lat="44.92725" lon="4.88951">
        <ele>128</ele>
        <time>2024-05-21T11:49:07.000Z</time>
      </trkpt>
      <trkpt lat="44.92722" lon="4.88949">
        <ele>128.19999694824</ele>
        <time>2024-05-21T11:49:08.000Z</time>
      </trkpt>
      <trkpt lat="44.92718" lon="4.88947">
        <ele>128.19999694824</ele>
        <time>2024-05-21T11:49:09.000Z</time>
      </trkpt>
      <trkpt lat="44.92714" lon="4.88945">
        <ele>128.19999694824</ele>
        <time>2024-05-21T11:49:10.000Z</time>
      </trkpt>
      <trkpt lat="44.92711" lon="4.88942">
        <ele>128.19999694824</ele>
        <time>2024-05-21T11:49:11.000Z</time>
      </trkpt>
      <trkpt lat="44.92706" lon="4.88939">
        <ele>128.19999694824</ele>
        <time>2024-05-21T11:49:12.000Z</time>
      </trkpt>
      <trkpt lat="44.92703" lon="4.88938">
        <ele>128.19999694824</ele>
        <time>2024-05-21T11:49:13.000Z</time>
      </trkpt>
      <trkpt lat="44.92699" lon="4.88936">
        <ele>128</ele>
        <time>2024-05-21T11:49:14.000Z</time>
      </trkpt>
      <trkpt lat="44.92695" lon="4.88934">
        <ele>128</ele>
        <time>2024-05-21T11:49:15.000Z</time>
      </trkpt>
      <trkpt lat="44.92692" lon="4.88932">
        <ele>127.80000305176</ele>
        <time>2024-05-21T11:49:16.000Z</time>
      </trkpt>
      <trkpt lat="44.92688" lon="4.88929">
        <ele>127.80000305176</ele>
        <time>2024-05-21T11:49:17.000Z</time>
      </trkpt>
      <trkpt lat="44.92685" lon="4.88928">
        <ele>127.80000305176</ele>
        <time>2024-05-21T11:49:18.000Z</time>
      </trkpt>
      <trkpt lat="44.92681" lon="4.88926">
        <ele>127.80000305176</ele>
        <time>2024-05-21T11:49:19.000Z</time>
      </trkpt>
      <trkpt lat="44.92676" lon="4.88923">
        <ele>127.59999847412</ele>
        <time>2024-05-21T11:49:20.000Z</time>
      </trkpt>
      <trkpt lat="44.92672" lon="4.88921">
        <ele>127.59999847412</ele>
        <time>2024-05-21T11:49:21.000Z</time>
      </trkpt>
      <trkpt lat="44.92669" lon="4.88919">
        <ele>127.59999847412</ele>
        <time>2024-05-21T11:49:22.000Z</time>
      </trkpt>
      <trkpt lat="44.92665" lon="4.88917">
        <ele>127.59999847412</ele>
        <time>2024-05-21T11:49:23.000Z</time>
      </trkpt>
      <trkpt lat="44.92661" lon="4.88914">
        <ele>127.59999847412</ele>
        <time>2024-05-21T11:49:24.000Z</time>
      </trkpt>
      <trkpt lat="44.92657" lon="4.88912">
        <ele>127.59999847412</ele>
        <time>2024-05-21T11:49:25.000Z</time>
      </trkpt>
      <trkpt lat="44.92652" lon="4.88909">
        <ele>127.59999847412</ele>
        <time>2024-05-21T11:49:26.000Z</time>
      </trkpt>
      <trkpt lat="44.92648" lon="4.88906">
        <ele>127.59999847412</ele>
        <time>2024-05-21T11:49:27.000Z</time>
      </trkpt>
      <trkpt lat="44.92643" lon="4.88904">
        <ele>127.59999847412</ele>
        <time>2024-05-21T11:49:28.000Z</time>
      </trkpt>
      <trkpt lat="44.92638" lon="4.88902">
        <ele>127.59999847412</ele>
        <time>2024-05-21T11:49:29.000Z</time>
      </trkpt>
      <trkpt lat="44.92634" lon="4.889">
        <ele>127.59999847412</ele>
        <time>2024-05-21T11:49:30.000Z</time>
      </trkpt>
      <trkpt lat="44.9263" lon="4.88898">
        <ele>127.59999847412</ele>
        <time>2024-05-21T11:49:31.000Z</time>
      </trkpt>
      <trkpt lat="44.92626" lon="4.88896">
        <ele>127.59999847412</ele>
        <time>2024-05-21T11:49:32.000Z</time>
      </trkpt>
      <trkpt lat="44.92622" lon="4.88894">
        <ele>127.59999847412</ele>
        <time>2024-05-21T11:49:33.000Z</time>
      </trkpt>
      <trkpt lat="44.92618" lon="4.88893">
        <ele>127.59999847412</ele>
        <time>2024-05-21T11:49:34.000Z</time>
      </trkpt>
      <trkpt lat="44.92614" lon="4.88893">
        <ele>127.59999847412</ele>
        <time>2024-05-21T11:49:35.000Z</time>
      </trkpt>
      <trkpt lat="44.9261" lon="4.88891">
        <ele>127.59999847412</ele>
        <time>2024-05-21T11:49:36.000Z</time>
      </trkpt>
      <trkpt lat="44.92608" lon="4.8889">
        <ele>127.59999847412</ele>
        <time>2024-05-21T11:49:37.000Z</time>
      </trkpt>
      <trkpt lat="44.92605" lon="4.88888">
        <ele>127.59999847412</ele>
        <time>2024-05-21T11:49:38.000Z</time>
      </trkpt>
      <trkpt lat="44.92602" lon="4.88887">
        <ele>127.59999847412</ele>
        <time>2024-05-21T11:49:39.000Z</time>
      </trkpt>
      <trkpt lat="44.926" lon="4.88885">
        <ele>127.59999847412</ele>
        <time>2024-05-21T11:49:40.000Z</time>
      </trkpt>
      <trkpt lat="44.92598" lon="4.88883">
        <ele>127.59999847412</ele>
        <time>2024-05-21T11:49:41.000Z</time>
      </trkpt>
      <trkpt lat="44.92595" lon="4.8888">
        <ele>127.59999847412</ele>
        <time>2024-05-21T11:49:42.000Z</time>
      </trkpt>
      <trkpt lat="44.92592" lon="4.88878">
        <ele>127.80000305176</ele>
        <time>2024-05-21T11:49:43.000Z</time>
      </trkpt>
      <trkpt lat="44.92589" lon="4.88876">
        <ele>127.80000305176</ele>
        <time>2024-05-21T11:49:44.000Z</time>
      </trkpt>
      <trkpt lat="44.92586" lon="4.88874">
        <ele>127.80000305176</ele>
        <time>2024-05-21T11:49:45.000Z</time>
      </trkpt>
      <trkpt lat="44.92585" lon="4.88871">
        <ele>127.80000305176</ele>
        <time>2024-05-21T11:49:46.000Z</time>
      </trkpt>
      <trkpt lat="44.92583" lon="4.88868">
        <ele>128</ele>
        <time>2024-05-21T11:49:47.000Z</time>
      </trkpt>
      <trkpt lat="44.92582" lon="4.88867">
        <ele>128</ele>
        <time>2024-05-21T11:49:48.000Z</time>
      </trkpt>
      <trkpt lat="44.9258" lon="4.88866">
        <ele>128</ele>
        <time>2024-05-21T11:49:49.000Z</time>
      </trkpt>
      <trkpt lat="44.92579" lon="4.88865">
        <ele>128</ele>
        <time>2024-05-21T11:49:50.000Z</time>
      </trkpt>
      <trkpt lat="44.92579" lon="4.88865">
        <ele>128</ele>
        <time>2024-05-21T11:49:51.000Z</time>
      </trkpt>
      <trkpt lat="44.92579" lon="4.88865">
        <ele>128</ele>
        <time>2024-05-21T11:49:52.000Z</time>
      </trkpt>
      <trkpt lat="44.92575" lon="4.88863">
        <ele>128.19999694824</ele>
        <time>2024-05-21T11:51:35.000Z</time>
      </trkpt>
      <trkpt lat="44.92573" lon="4.88862">
        <ele>128.39999389648</ele>
        <time>2024-05-21T11:51:36.000Z</time>
      </trkpt>
      <trkpt lat="44.9257" lon="4.88861">
        <ele>128.39999389648</ele>
        <time>2024-05-21T11:51:37.000Z</time>
      </trkpt>
      <trkpt lat="44.92568" lon="4.8886">
        <ele>128.39999389648</ele>
        <time>2024-05-21T11:51:38.000Z</time>
      </trkpt>
      <trkpt lat="44.92565" lon="4.88858">
        <ele>128.19999694824</ele>
        <time>2024-05-21T11:51:39.000Z</time>
      </trkpt>
      <trkpt lat="44.92562" lon="4.88857">
        <ele>128</ele>
        <time>2024-05-21T11:51:40.000Z</time>
      </trkpt>
      <trkpt lat="44.92559" lon="4.88854">
        <ele>128</ele>
        <time>2024-05-21T11:51:41.000Z</time>
      </trkpt>
      <trkpt lat="44.92556" lon="4.88853">
        <ele>128</ele>
        <time>2024-05-21T11:51:42.000Z</time>
      </trkpt>
      <trkpt lat="44.92552" lon="4.88852">
        <ele>128</ele>
        <time>2024-05-21T11:51:43.000Z</time>
      </trkpt>
      <trkpt lat="44.92548" lon="4.8885">
        <ele>128</ele>
        <time>2024-05-21T11:51:44.000Z</time>
      </trkpt>
      <trkpt lat="44.92546" lon="4.88849">
        <ele>127.80000305176</ele>
        <time>2024-05-21T11:51:45.000Z</time>
      </trkpt>
      <trkpt lat="44.92543" lon="4.88847">
        <ele>127.80000305176</ele>
        <time>2024-05-21T11:51:46.000Z</time>
      </trkpt>
      <trkpt lat="44.92539" lon="4.88846">
        <ele>127.80000305176</ele>
        <time>2024-05-21T11:51:47.000Z</time>
      </trkpt>
      <trkpt lat="44.92536" lon="4.88844">
        <ele>127.80000305176</ele>
        <time>2024-05-21T11:51:48.000Z</time>
      </trkpt>
      <trkpt lat="44.92533" lon="4.88843">
        <ele>127.80000305176</ele>
        <time>2024-05-21T11:51:49.000Z</time>
      </trkpt>
      <trkpt lat="44.9253" lon="4.88841">
        <ele>127.80000305176</ele>
        <time>2024-05-21T11:51:50.000Z</time>
      </trkpt>
      <trkpt lat="44.92527" lon="4.88839">
        <ele>127.80000305176</ele>
        <time>2024-05-21T11:51:51.000Z</time>
      </trkpt>
      <trkpt lat="44.92524" lon="4.88836">
        <ele>127.80000305176</ele>
        <time>2024-05-21T11:51:52.000Z</time>
      </trkpt>
      <trkpt lat="44.92521" lon="4.88834">
        <ele>127.80000305176</ele>
        <time>2024-05-21T11:51:53.000Z</time>
      </trkpt>
      <trkpt lat="44.92519" lon="4.88832">
        <ele>127.59999847412</ele>
        <time>2024-05-21T11:51:54.000Z</time>
      </trkpt>
      <trkpt lat="44.92516" lon="4.88831">
        <ele>127.59999847412</ele>
        <time>2024-05-21T11:51:55.000Z</time>
      </trkpt>
      <trkpt lat="44.92513" lon="4.88829">
        <ele>127.59999847412</ele>
        <time>2024-05-21T11:51:56.000Z</time>
      </trkpt>
      <trkpt lat="44.9251" lon="4.88827">
        <ele>127.40000152588</ele>
        <time>2024-05-21T11:51:57.000Z</time>
      </trkpt>
      <trkpt lat="44.92507" lon="4.88825">
        <ele>127.40000152588</ele>
        <time>2024-05-21T11:51:58.000Z</time>
      </trkpt>
      <trkpt lat="44.92504" lon="4.88823">
        <ele>127.40000152588</ele>
        <time>2024-05-21T11:51:59.000Z</time>
      </trkpt>
      <trkpt lat="44.92501" lon="4.88821">
        <ele>127.40000152588</ele>
        <time>2024-05-21T11:52:00.000Z</time>
      </trkpt>
      <trkpt lat="44.92499" lon="4.88819">
        <ele>127.40000152588</ele>
        <time>2024-05-21T11:52:01.000Z</time>
      </trkpt>
      <trkpt lat="44.92496" lon="4.88816">
        <ele>127.40000152588</ele>
        <time>2024-05-21T11:52:02.000Z</time>
      </trkpt>
      <trkpt lat="44.92493" lon="4.88815">
        <ele>127.40000152588</ele>
        <time>2024-05-21T11:52:03.000Z</time>
      </trkpt>
      <trkpt lat="44.92489" lon="4.88813">
        <ele>127.40000152588</ele>
        <time>2024-05-21T11:52:04.000Z</time>
      </trkpt>
      <trkpt lat="44.92485" lon="4.88811">
        <ele>127.40000152588</ele>
        <time>2024-05-21T11:52:05.000Z</time>
      </trkpt>
      <trkpt lat="44.92481" lon="4.88809">
        <ele>127.40000152588</ele>
        <time>2024-05-21T11:52:06.000Z</time>
      </trkpt>
      <trkpt lat="44.92478" lon="4.88807">
        <ele>127.40000152588</ele>
        <time>2024-05-21T11:52:07.000Z</time>
      </trkpt>
      <trkpt lat="44.92473" lon="4.88803">
        <ele>127.40000152588</ele>
        <time>2024-05-21T11:52:08.000Z</time>
      </trkpt>
      <trkpt lat="44.9247" lon="4.888">
        <ele>127.40000152588</ele>
        <time>2024-05-21T11:52:09.000Z</time>
      </trkpt>
      <trkpt lat="44.92467" lon="4.88797">
        <ele>127.40000152588</ele>
        <time>2024-05-21T11:52:10.000Z</time>
      </trkpt>
      <trkpt lat="44.92463" lon="4.88794">
        <ele>127.40000152588</ele>
        <time>2024-05-21T11:52:11.000Z</time>
      </trkpt>
      <trkpt lat="44.92459" lon="4.88792">
        <ele>127.40000152588</ele>
        <time>2024-05-21T11:52:12.000Z</time>
      </trkpt>
      <trkpt lat="44.92455" lon="4.88789">
        <ele>127.40000152588</ele>
        <time>2024-05-21T11:52:13.000Z</time>
      </trkpt>
      <trkpt lat="44.92451" lon="4.88787">
        <ele>127.40000152588</ele>
        <time>2024-05-21T11:52:14.000Z</time>
      </trkpt>
      <trkpt lat="44.92448" lon="4.88785">
        <ele>127.40000152588</ele>
        <time>2024-05-21T11:52:15.000Z</time>
      </trkpt>
      <trkpt lat="44.92445" lon="4.88783">
        <ele>127.40000152588</ele>
        <time>2024-05-21T11:52:16.000Z</time>
      </trkpt>
      <trkpt lat="44.92441" lon="4.88781">
        <ele>127.40000152588</ele>
        <time>2024-05-21T11:52:17.000Z</time>
      </trkpt>
      <trkpt lat="44.92438" lon="4.88779">
        <ele>127.40000152588</ele>
        <time>2024-05-21T11:52:18.000Z</time>
      </trkpt>
      <trkpt lat="44.92433" lon="4.88776">
        <ele>127.40000152588</ele>
        <time>2024-05-21T11:52:19.000Z</time>
      </trkpt>
      <trkpt lat="44.9243" lon="4.88775">
        <ele>127.40000152588</ele>
        <time>2024-05-21T11:52:20.000Z</time>
      </trkpt>
      <trkpt lat="44.92427" lon="4.88773">
        <ele>127.19999694824</ele>
        <time>2024-05-21T11:52:21.000Z</time>
      </trkpt>
      <trkpt lat="44.92423" lon="4.88771">
        <ele>127.19999694824</ele>
        <time>2024-05-21T11:52:22.000Z</time>
      </trkpt>
      <trkpt lat="44.92419" lon="4.88769">
        <ele>127.19999694824</ele>
        <time>2024-05-21T11:52:23.000Z</time>
      </trkpt>
      <trkpt lat="44.92415" lon="4.88766">
        <ele>127.19999694824</ele>
        <time>2024-05-21T11:52:24.000Z</time>
      </trkpt>
      <trkpt lat="44.9241" lon="4.88764">
        <ele>127.40000152588</ele>
        <time>2024-05-21T11:52:25.000Z</time>
      </trkpt>
      <trkpt lat="44.92407" lon="4.88762">
        <ele>127.40000152588</ele>
        <time>2024-05-21T11:52:26.000Z</time>
      </trkpt>
      <trkpt lat="44.92402" lon="4.88759">
        <ele>127.40000152588</ele>
        <time>2024-05-21T11:52:27.000Z</time>
      </trkpt>
      <trkpt lat="44.92399" lon="4.88757">
        <ele>127.59999847412</ele>
        <time>2024-05-21T11:52:28.000Z</time>
      </trkpt>
      <trkpt lat="44.92395" lon="4.88755">
        <ele>127.80000305176</ele>
        <time>2024-05-21T11:52:29.000Z</time>
      </trkpt>
      <trkpt lat="44.92391" lon="4.88752">
        <ele>127.80000305176</ele>
        <time>2024-05-21T11:52:30.000Z</time>
      </trkpt>
      <trkpt lat="44.92387" lon="4.8875">
        <ele>127.80000305176</ele>
        <time>2024-05-21T11:52:31.000Z</time>
      </trkpt>
      <trkpt lat="44.92384" lon="4.88748">
        <ele>128</ele>
        <time>2024-05-21T11:52:32.000Z</time>
      </trkpt>
      <trkpt lat="44.9238" lon="4.88746">
        <ele>128</ele>
        <time>2024-05-21T11:52:33.000Z</time>
      </trkpt>
      <trkpt lat="44.92376" lon="4.88744">
        <ele>128</ele>
        <time>2024-05-21T11:52:34.000Z</time>
      </trkpt>
      <trkpt lat="44.92372" lon="4.88742">
        <ele>128</ele>
        <time>2024-05-21T11:52:35.000Z</time>
      </trkpt>
      <trkpt lat="44.92369" lon="4.8874">
        <ele>128</ele>
        <time>2024-05-21T11:52:36.000Z</time>
      </trkpt>
      <trkpt lat="44.92365" lon="4.88738">
        <ele>128</ele>
        <time>2024-05-21T11:52:37.000Z</time>
      </trkpt>
      <trkpt lat="44.92362" lon="4.88736">
        <ele>128</ele>
        <time>2024-05-21T11:52:38.000Z</time>
      </trkpt>
      <trkpt lat="44.92359" lon="4.88734">
        <ele>128</ele>
        <time>2024-05-21T11:52:39.000Z</time>
      </trkpt>
      <trkpt lat="44.92355" lon="4.88732">
        <ele>128.19999694824</ele>
        <time>2024-05-21T11:52:40.000Z</time>
      </trkpt>
      <trkpt lat="44.92352" lon="4.88731">
        <ele>128.19999694824</ele>
        <time>2024-05-21T11:52:41.000Z</time>
      </trkpt>
      <trkpt lat="44.92349" lon="4.8873">
        <ele>128.19999694824</ele>
        <time>2024-05-21T11:52:42.000Z</time>
      </trkpt>
      <trkpt lat="44.92345" lon="4.88728">
        <ele>128.19999694824</ele>
        <time>2024-05-21T11:52:43.000Z</time>
      </trkpt>
      <trkpt lat="44.92342" lon="4.88727">
        <ele>128.39999389648</ele>
        <time>2024-05-21T11:52:44.000Z</time>
      </trkpt>
      <trkpt lat="44.92338" lon="4.88726">
        <ele>128.39999389648</ele>
        <time>2024-05-21T11:52:45.000Z</time>
      </trkpt>
      <trkpt lat="44.92334" lon="4.88725">
        <ele>128.39999389648</ele>
        <time>2024-05-21T11:52:46.000Z</time>
      </trkpt>
      <trkpt lat="44.9233" lon="4.88723">
        <ele>128.39999389648</ele>
        <time>2024-05-21T11:52:47.000Z</time>
      </trkpt>
      <trkpt lat="44.92326" lon="4.88721">
        <ele>128.39999389648</ele>
        <time>2024-05-21T11:52:48.000Z</time>
      </trkpt>
      <trkpt lat="44.92324" lon="4.8872">
        <ele>128.39999389648</ele>
        <time>2024-05-21T11:52:49.000Z</time>
      </trkpt>
      <trkpt lat="44.9232" lon="4.88718">
        <ele>128.39999389648</ele>
        <time>2024-05-21T11:52:50.000Z</time>
      </trkpt>
      <trkpt lat="44.92318" lon="4.88717">
        <ele>128.60000610352</ele>
        <time>2024-05-21T11:52:51.000Z</time>
      </trkpt>
      <trkpt lat="44.92315" lon="4.88715">
        <ele>128.60000610352</ele>
        <time>2024-05-21T11:52:52.000Z</time>
      </trkpt>
      <trkpt lat="44.92313" lon="4.88714">
        <ele>128.60000610352</ele>
        <time>2024-05-21T11:52:53.000Z</time>
      </trkpt>
      <trkpt lat="44.92312" lon="4.88713">
        <ele>128.60000610352</ele>
        <time>2024-05-21T11:52:54.000Z</time>
      </trkpt>
      <trkpt lat="44.92311" lon="4.88713">
        <ele>128.60000610352</ele>
        <time>2024-05-21T11:52:55.000Z</time>
      </trkpt>
      <trkpt lat="44.92309" lon="4.88712">
        <ele>128.60000610352</ele>
        <time>2024-05-21T11:52:56.000Z</time>
      </trkpt>
      <trkpt lat="44.92308" lon="4.88711">
        <ele>128.80000305176</ele>
        <time>2024-05-21T11:52:57.000Z</time>
      </trkpt>
      <trkpt lat="44.92307" lon="4.88711">
        <ele>129</ele>
        <time>2024-05-21T11:52:58.000Z</time>
      </trkpt>
      <trkpt lat="44.92306" lon="4.8871">
        <ele>129</ele>
        <time>2024-05-21T11:52:59.000Z</time>
      </trkpt>
      <trkpt lat="44.92304" lon="4.88709">
        <ele>129</ele>
        <time>2024-05-21T11:53:00.000Z</time>
      </trkpt>
      <trkpt lat="44.92303" lon="4.88709">
        <ele>129</ele>
        <time>2024-05-21T11:53:01.000Z</time>
      </trkpt>
      <trkpt lat="44.92301" lon="4.88709">
        <ele>129</ele>
        <time>2024-05-21T11:53:02.000Z</time>
      </trkpt>
      <trkpt lat="44.923" lon="4.8871">
        <ele>129</ele>
        <time>2024-05-21T11:53:03.000Z</time>
      </trkpt>
      <trkpt lat="44.923" lon="4.88713">
        <ele>129</ele>
        <time>2024-05-21T11:53:04.000Z</time>
      </trkpt>
      <trkpt lat="44.92301" lon="4.88716">
        <ele>129</ele>
        <time>2024-05-21T11:53:05.000Z</time>
      </trkpt>
      <trkpt lat="44.92301" lon="4.88721">
        <ele>129</ele>
        <time>2024-05-21T11:53:06.000Z</time>
      </trkpt>
      <trkpt lat="44.923" lon="4.88724">
        <ele>129</ele>
        <time>2024-05-21T11:53:07.000Z</time>
      </trkpt>
      <trkpt lat="44.92299" lon="4.8873">
        <ele>129</ele>
        <time>2024-05-21T11:53:08.000Z</time>
      </trkpt>
      <trkpt lat="44.92298" lon="4.88735">
        <ele>129</ele>
        <time>2024-05-21T11:53:09.000Z</time>
      </trkpt>
      <trkpt lat="44.92297" lon="4.88739">
        <ele>129</ele>
        <time>2024-05-21T11:53:10.000Z</time>
      </trkpt>
      <trkpt lat="44.92296" lon="4.88744">
        <ele>129</ele>
        <time>2024-05-21T11:53:11.000Z</time>
      </trkpt>
      <trkpt lat="44.92295" lon="4.8875">
        <ele>129</ele>
        <time>2024-05-21T11:53:12.000Z</time>
      </trkpt>
      <trkpt lat="44.92294" lon="4.88755">
        <ele>129</ele>
        <time>2024-05-21T11:53:13.000Z</time>
      </trkpt>
      <trkpt lat="44.92292" lon="4.88762">
        <ele>129</ele>
        <time>2024-05-21T11:53:14.000Z</time>
      </trkpt>
      <trkpt lat="44.92291" lon="4.88767">
        <ele>129</ele>
        <time>2024-05-21T11:53:15.000Z</time>
      </trkpt>
      <trkpt lat="44.9229" lon="4.88772">
        <ele>129</ele>
        <time>2024-05-21T11:53:16.000Z</time>
      </trkpt>
      <trkpt lat="44.92289" lon="4.88779">
        <ele>129.19999694824</ele>
        <time>2024-05-21T11:53:17.000Z</time>
      </trkpt>
      <trkpt lat="44.92288" lon="4.88784">
        <ele>129.19999694824</ele>
        <time>2024-05-21T11:53:18.000Z</time>
      </trkpt>
      <trkpt lat="44.92286" lon="4.88789">
        <ele>129.19999694824</ele>
        <time>2024-05-21T11:53:19.000Z</time>
      </trkpt>
      <trkpt lat="44.92285" lon="4.88797">
        <ele>129.19999694824</ele>
        <time>2024-05-21T11:53:20.000Z</time>
      </trkpt>
      <trkpt lat="44.92284" lon="4.88803">
        <ele>129.19999694824</ele>
        <time>2024-05-21T11:53:21.000Z</time>
      </trkpt>
      <trkpt lat="44.92283" lon="4.88807">
        <ele>129.19999694824</ele>
        <time>2024-05-21T11:53:22.000Z</time>
      </trkpt>
      <trkpt lat="44.92282" lon="4.88813">
        <ele>129.19999694824</ele>
        <time>2024-05-21T11:53:23.000Z</time>
      </trkpt>
      <trkpt lat="44.92281" lon="4.8882">
        <ele>129.19999694824</ele>
        <time>2024-05-21T11:53:24.000Z</time>
      </trkpt>
      <trkpt lat="44.9228" lon="4.88827">
        <ele>129.19999694824</ele>
        <time>2024-05-21T11:53:25.000Z</time>
      </trkpt>
      <trkpt lat="44.92278" lon="4.88833">
        <ele>129.19999694824</ele>
        <time>2024-05-21T11:53:26.000Z</time>
      </trkpt>
      <trkpt lat="44.92277" lon="4.88839">
        <ele>129.19999694824</ele>
        <time>2024-05-21T11:53:27.000Z</time>
      </trkpt>
      <trkpt lat="44.92276" lon="4.88845">
        <ele>129.19999694824</ele>
        <time>2024-05-21T11:53:28.000Z</time>
      </trkpt>
      <trkpt lat="44.92274" lon="4.88851">
        <ele>129.19999694824</ele>
        <time>2024-05-21T11:53:29.000Z</time>
      </trkpt>
      <trkpt lat="44.92273" lon="4.88858">
        <ele>129.39999389648</ele>
        <time>2024-05-21T11:53:30.000Z</time>
      </trkpt>
      <trkpt lat="44.92272" lon="4.88864">
        <ele>129.39999389648</ele>
        <time>2024-05-21T11:53:31.000Z</time>
      </trkpt>
      <trkpt lat="44.9227" lon="4.8887">
        <ele>129.39999389648</ele>
        <time>2024-05-21T11:53:32.000Z</time>
      </trkpt>
      <trkpt lat="44.92269" lon="4.88876">
        <ele>129.60000610352</ele>
        <time>2024-05-21T11:53:33.000Z</time>
      </trkpt>
      <trkpt lat="44.92267" lon="4.88883">
        <ele>129.60000610352</ele>
        <time>2024-05-21T11:53:34.000Z</time>
      </trkpt>
      <trkpt lat="44.92266" lon="4.88889">
        <ele>129.60000610352</ele>
        <time>2024-05-21T11:53:35.000Z</time>
      </trkpt>
      <trkpt lat="44.92264" lon="4.88896">
        <ele>129.39999389648</ele>
        <time>2024-05-21T11:53:36.000Z</time>
      </trkpt>
      <trkpt lat="44.92263" lon="4.88902">
        <ele>129.39999389648</ele>
        <time>2024-05-21T11:53:37.000Z</time>
      </trkpt>
      <trkpt lat="44.92261" lon="4.88909">
        <ele>129.19999694824</ele>
        <time>2024-05-21T11:53:38.000Z</time>
      </trkpt>
      <trkpt lat="44.9226" lon="4.88916">
        <ele>129.19999694824</ele>
        <time>2024-05-21T11:53:39.000Z</time>
      </trkpt>
      <trkpt lat="44.92259" lon="4.88923">
        <ele>129</ele>
        <time>2024-05-21T11:53:40.000Z</time>
      </trkpt>
      <trkpt lat="44.92257" lon="4.88929">
        <ele>129</ele>
        <time>2024-05-21T11:53:41.000Z</time>
      </trkpt>
      <trkpt lat="44.92256" lon="4.88936">
        <ele>129</ele>
        <time>2024-05-21T11:53:42.000Z</time>
      </trkpt>
      <trkpt lat="44.92255" lon="4.88942">
        <ele>129</ele>
        <time>2024-05-21T11:53:43.000Z</time>
      </trkpt>
      <trkpt lat="44.92254" lon="4.88949">
        <ele>129</ele>
        <time>2024-05-21T11:53:44.000Z</time>
      </trkpt>
      <trkpt lat="44.92252" lon="4.88956">
        <ele>129</ele>
        <time>2024-05-21T11:53:45.000Z</time>
      </trkpt>
      <trkpt lat="44.92251" lon="4.88963">
        <ele>129</ele>
        <time>2024-05-21T11:53:46.000Z</time>
      </trkpt>
      <trkpt lat="44.9225" lon="4.88969">
        <ele>129</ele>
        <time>2024-05-21T11:53:47.000Z</time>
      </trkpt>
      <trkpt lat="44.92249" lon="4.88976">
        <ele>129</ele>
        <time>2024-05-21T11:53:48.000Z</time>
      </trkpt>
      <trkpt lat="44.92248" lon="4.88982">
        <ele>129</ele>
        <time>2024-05-21T11:53:49.000Z</time>
      </trkpt>
      <trkpt lat="44.92247" lon="4.88989">
        <ele>129</ele>
        <time>2024-05-21T11:53:50.000Z</time>
      </trkpt>
      <trkpt lat="44.92245" lon="4.88996">
        <ele>129</ele>
        <time>2024-05-21T11:53:51.000Z</time>
      </trkpt>
      <trkpt lat="44.92244" lon="4.89003">
        <ele>128.80000305176</ele>
        <time>2024-05-21T11:53:52.000Z</time>
      </trkpt>
      <trkpt lat="44.92243" lon="4.8901">
        <ele>128.80000305176</ele>
        <time>2024-05-21T11:53:53.000Z</time>
      </trkpt>
      <trkpt lat="44.92241" lon="4.89017">
        <ele>128.80000305176</ele>
        <time>2024-05-21T11:53:54.000Z</time>
      </trkpt>
      <trkpt lat="44.9224" lon="4.89024">
        <ele>128.80000305176</ele>
        <time>2024-05-21T11:53:55.000Z</time>
      </trkpt>
      <trkpt lat="44.92238" lon="4.89031">
        <ele>128.60000610352</ele>
        <time>2024-05-21T11:53:56.000Z</time>
      </trkpt>
      <trkpt lat="44.92237" lon="4.89038">
        <ele>128.60000610352</ele>
        <time>2024-05-21T11:53:57.000Z</time>
      </trkpt>
      <trkpt lat="44.92235" lon="4.89044">
        <ele>128.60000610352</ele>
        <time>2024-05-21T11:53:58.000Z</time>
      </trkpt>
      <trkpt lat="44.92234" lon="4.8905">
        <ele>128.60000610352</ele>
        <time>2024-05-21T11:53:59.000Z</time>
      </trkpt>
      <trkpt lat="44.92233" lon="4.89055">
        <ele>128.60000610352</ele>
        <time>2024-05-21T11:54:00.000Z</time>
      </trkpt>
      <trkpt lat="44.92232" lon="4.8906">
        <ele>128.80000305176</ele>
        <time>2024-05-21T11:54:01.000Z</time>
      </trkpt>
      <trkpt lat="44.92231" lon="4.89065">
        <ele>129</ele>
        <time>2024-05-21T11:54:02.000Z</time>
      </trkpt>
      <trkpt lat="44.9223" lon="4.89069">
        <ele>129.39999389648</ele>
        <time>2024-05-21T11:54:03.000Z</time>
      </trkpt>
      <trkpt lat="44.92228" lon="4.89073">
        <ele>129.80000305176</ele>
        <time>2024-05-21T11:54:04.000Z</time>
      </trkpt>
      <trkpt lat="44.92225" lon="4.89077">
        <ele>130.19999694824</ele>
        <time>2024-05-21T11:54:05.000Z</time>
      </trkpt>
      <trkpt lat="44.92222" lon="4.8908">
        <ele>130.19999694824</ele>
        <time>2024-05-21T11:54:06.000Z</time>
      </trkpt>
      <trkpt lat="44.92219" lon="4.89084">
        <ele>130.19999694824</ele>
        <time>2024-05-21T11:54:07.000Z</time>
      </trkpt>
      <trkpt lat="44.92217" lon="4.89089">
        <ele>130.39999389648</ele>
        <time>2024-05-21T11:54:08.000Z</time>
      </trkpt>
      <trkpt lat="44.92216" lon="4.89094">
        <ele>130.39999389648</ele>
        <time>2024-05-21T11:54:09.000Z</time>
      </trkpt>
      <trkpt lat="44.92216" lon="4.89099">
        <ele>130.39999389648</ele>
        <time>2024-05-21T11:54:10.000Z</time>
      </trkpt>
      <trkpt lat="44.92215" lon="4.89105">
        <ele>130.39999389648</ele>
        <time>2024-05-21T11:54:11.000Z</time>
      </trkpt>
      <trkpt lat="44.92214" lon="4.8911">
        <ele>130.60000610352</ele>
        <time>2024-05-21T11:54:12.000Z</time>
      </trkpt>
      <trkpt lat="44.92214" lon="4.89115">
        <ele>130.60000610352</ele>
        <time>2024-05-21T11:54:13.000Z</time>
      </trkpt>
      <trkpt lat="44.92213" lon="4.8912">
        <ele>130.80000305176</ele>
        <time>2024-05-21T11:54:14.000Z</time>
      </trkpt>
      <trkpt lat="44.92213" lon="4.89125">
        <ele>131.39999389648</ele>
        <time>2024-05-21T11:54:15.000Z</time>
      </trkpt>
      <trkpt lat="44.92213" lon="4.8913">
        <ele>131.39999389648</ele>
        <time>2024-05-21T11:54:16.000Z</time>
      </trkpt>
      <trkpt lat="44.92213" lon="4.89134">
        <ele>131.80000305176</ele>
        <time>2024-05-21T11:54:17.000Z</time>
      </trkpt>
      <trkpt lat="44.92212" lon="4.89138">
        <ele>132</ele>
        <time>2024-05-21T11:54:18.000Z</time>
      </trkpt>
      <trkpt lat="44.92212" lon="4.89142">
        <ele>132.39999389648</ele>
        <time>2024-05-21T11:54:19.000Z</time>
      </trkpt>
      <trkpt lat="44.92212" lon="4.89146">
        <ele>132.80000305176</ele>
        <time>2024-05-21T11:54:20.000Z</time>
      </trkpt>
      <trkpt lat="44.92211" lon="4.8915">
        <ele>133.19999694824</ele>
        <time>2024-05-21T11:54:21.000Z</time>
      </trkpt>
      <trkpt lat="44.92211" lon="4.89154">
        <ele>133.39999389648</ele>
        <time>2024-05-21T11:54:22.000Z</time>
      </trkpt>
      <trkpt lat="44.9221" lon="4.89158">
        <ele>133.39999389648</ele>
        <time>2024-05-21T11:54:23.000Z</time>
      </trkpt>
      <trkpt lat="44.9221" lon="4.89163">
        <ele>133.39999389648</ele>
        <time>2024-05-21T11:54:24.000Z</time>
      </trkpt>
      <trkpt lat="44.92209" lon="4.89168">
        <ele>133.39999389648</ele>
        <time>2024-05-21T11:54:25.000Z</time>
      </trkpt>
      <trkpt lat="44.92209" lon="4.89173">
        <ele>133.39999389648</ele>
        <time>2024-05-21T11:54:26.000Z</time>
      </trkpt>
      <trkpt lat="44.92208" lon="4.89177">
        <ele>133.39999389648</ele>
        <time>2024-05-21T11:54:27.000Z</time>
      </trkpt>
      <trkpt lat="44.92207" lon="4.89182">
        <ele>133.39999389648</ele>
        <time>2024-05-21T11:54:28.000Z</time>
      </trkpt>
      <trkpt lat="44.92205" lon="4.89186">
        <ele>133.19999694824</ele>
        <time>2024-05-21T11:54:29.000Z</time>
      </trkpt>
      <trkpt lat="44.92202" lon="4.89188">
        <ele>133.19999694824</ele>
        <time>2024-05-21T11:54:30.000Z</time>
      </trkpt>
      <trkpt lat="44.92198" lon="4.89188">
        <ele>132.80000305176</ele>
        <time>2024-05-21T11:54:31.000Z</time>
      </trkpt>
      <trkpt lat="44.92193" lon="4.89187">
        <ele>132.80000305176</ele>
        <time>2024-05-21T11:54:32.000Z</time>
      </trkpt>
      <trkpt lat="44.92188" lon="4.89186">
        <ele>132.19999694824</ele>
        <time>2024-05-21T11:54:33.000Z</time>
      </trkpt>
      <trkpt lat="44.92183" lon="4.89184">
        <ele>131.60000610352</ele>
        <time>2024-05-21T11:54:34.000Z</time>
      </trkpt>
      <trkpt lat="44.92178" lon="4.89182">
        <ele>130.80000305176</ele>
        <time>2024-05-21T11:54:35.000Z</time>
      </trkpt>
      <trkpt lat="44.92173" lon="4.89181">
        <ele>130.39999389648</ele>
        <time>2024-05-21T11:54:36.000Z</time>
      </trkpt>
      <trkpt lat="44.92167" lon="4.89179">
        <ele>129.80000305176</ele>
        <time>2024-05-21T11:54:37.000Z</time>
      </trkpt>
      <trkpt lat="44.92162" lon="4.89177">
        <ele>129.39999389648</ele>
        <time>2024-05-21T11:54:38.000Z</time>
      </trkpt>
      <trkpt lat="44.92156" lon="4.89176">
        <ele>129</ele>
        <time>2024-05-21T11:54:39.000Z</time>
      </trkpt>
      <trkpt lat="44.92151" lon="4.89174">
        <ele>129</ele>
        <time>2024-05-21T11:54:40.000Z</time>
      </trkpt>
      <trkpt lat="44.92145" lon="4.89172">
        <ele>128.80000305176</ele>
        <time>2024-05-21T11:54:41.000Z</time>
      </trkpt>
      <trkpt lat="44.92139" lon="4.8917">
        <ele>128.80000305176</ele>
        <time>2024-05-21T11:54:42.000Z</time>
      </trkpt>
      <trkpt lat="44.92134" lon="4.89169">
        <ele>128.60000610352</ele>
        <time>2024-05-21T11:54:43.000Z</time>
      </trkpt>
      <trkpt lat="44.92128" lon="4.89167">
        <ele>128.60000610352</ele>
        <time>2024-05-21T11:54:44.000Z</time>
      </trkpt>
      <trkpt lat="44.92123" lon="4.89165">
        <ele>128.39999389648</ele>
        <time>2024-05-21T11:54:45.000Z</time>
      </trkpt>
      <trkpt lat="44.92117" lon="4.89163">
        <ele>128.19999694824</ele>
        <time>2024-05-21T11:54:46.000Z</time>
      </trkpt>
      <trkpt lat="44.92112" lon="4.89162">
        <ele>128</ele>
        <time>2024-05-21T11:54:47.000Z</time>
      </trkpt>
      <trkpt lat="44.92107" lon="4.8916">
        <ele>128</ele>
        <time>2024-05-21T11:54:48.000Z</time>
      </trkpt>
      <trkpt lat="44.92101" lon="4.89158">
        <ele>128</ele>
        <time>2024-05-21T11:54:49.000Z</time>
      </trkpt>
      <trkpt lat="44.92096" lon="4.89157">
        <ele>127.59999847412</ele>
        <time>2024-05-21T11:54:50.000Z</time>
      </trkpt>
      <trkpt lat="44.92091" lon="4.89155">
        <ele>127.59999847412</ele>
        <time>2024-05-21T11:54:51.000Z</time>
      </trkpt>
      <trkpt lat="44.92086" lon="4.89154">
        <ele>127.59999847412</ele>
        <time>2024-05-21T11:54:52.000Z</time>
      </trkpt>
      <trkpt lat="44.92082" lon="4.89152">
        <ele>127.59999847412</ele>
        <time>2024-05-21T11:54:53.000Z</time>
      </trkpt>
      <trkpt lat="44.92077" lon="4.8915">
        <ele>127.59999847412</ele>
        <time>2024-05-21T11:54:54.000Z</time>
      </trkpt>
      <trkpt lat="44.92072" lon="4.89148">
        <ele>127.59999847412</ele>
        <time>2024-05-21T11:54:55.000Z</time>
      </trkpt>
      <trkpt lat="44.92067" lon="4.89147">
        <ele>127.59999847412</ele>
        <time>2024-05-21T11:54:56.000Z</time>
      </trkpt>
      <trkpt lat="44.92062" lon="4.89145">
        <ele>127.59999847412</ele>
        <time>2024-05-21T11:54:57.000Z</time>
      </trkpt>
      <trkpt lat="44.92057" lon="4.89144">
        <ele>127.59999847412</ele>
        <time>2024-05-21T11:54:58.000Z</time>
      </trkpt>
      <trkpt lat="44.92052" lon="4.89142">
        <ele>127.59999847412</ele>
        <time>2024-05-21T11:54:59.000Z</time>
      </trkpt>
      <trkpt lat="44.92047" lon="4.8914">
        <ele>127.40000152588</ele>
        <time>2024-05-21T11:55:00.000Z</time>
      </trkpt>
      <trkpt lat="44.92042" lon="4.89138">
        <ele>127.40000152588</ele>
        <time>2024-05-21T11:55:01.000Z</time>
      </trkpt>
      <trkpt lat="44.92037" lon="4.89137">
        <ele>127.40000152588</ele>
        <time>2024-05-21T11:55:02.000Z</time>
      </trkpt>
      <trkpt lat="44.92032" lon="4.89135">
        <ele>127.40000152588</ele>
        <time>2024-05-21T11:55:03.000Z</time>
      </trkpt>
      <trkpt lat="44.92027" lon="4.89134">
        <ele>127.19999694824</ele>
        <time>2024-05-21T11:55:04.000Z</time>
      </trkpt>
      <trkpt lat="44.92023" lon="4.89132">
        <ele>127.19999694824</ele>
        <time>2024-05-21T11:55:05.000Z</time>
      </trkpt>
      <trkpt lat="44.92018" lon="4.89131">
        <ele>127.19999694824</ele>
        <time>2024-05-21T11:55:06.000Z</time>
      </trkpt>
      <trkpt lat="44.92014" lon="4.89129">
        <ele>127.19999694824</ele>
        <time>2024-05-21T11:55:07.000Z</time>
      </trkpt>
      <trkpt lat="44.92009" lon="4.89128">
        <ele>127.19999694824</ele>
        <time>2024-05-21T11:55:08.000Z</time>
      </trkpt>
      <trkpt lat="44.92005" lon="4.89127">
        <ele>127.19999694824</ele>
        <time>2024-05-21T11:55:09.000Z</time>
      </trkpt>
      <trkpt lat="44.92001" lon="4.89125">
        <ele>127.40000152588</ele>
        <time>2024-05-21T11:55:10.000Z</time>
      </trkpt>
      <trkpt lat="44.91997" lon="4.89124">
        <ele>127.40000152588</ele>
        <time>2024-05-21T11:55:11.000Z</time>
      </trkpt>
      <trkpt lat="44.91993" lon="4.89122">
        <ele>127.40000152588</ele>
        <time>2024-05-21T11:55:12.000Z</time>
      </trkpt>
      <trkpt lat="44.91988" lon="4.89121">
        <ele>127.40000152588</ele>
        <time>2024-05-21T11:55:13.000Z</time>
      </trkpt>
      <trkpt lat="44.91984" lon="4.8912">
        <ele>127.59999847412</ele>
        <time>2024-05-21T11:55:14.000Z</time>
      </trkpt>
      <trkpt lat="44.9198" lon="4.89118">
        <ele>127.59999847412</ele>
        <time>2024-05-21T11:55:15.000Z</time>
      </trkpt>
      <trkpt lat="44.91976" lon="4.89117">
        <ele>127.59999847412</ele>
        <time>2024-05-21T11:55:16.000Z</time>
      </trkpt>
      <trkpt lat="44.91971" lon="4.89115">
        <ele>127.59999847412</ele>
        <time>2024-05-21T11:55:17.000Z</time>
      </trkpt>
      <trkpt lat="44.91967" lon="4.89113">
        <ele>127.59999847412</ele>
        <time>2024-05-21T11:55:18.000Z</time>
      </trkpt>
      <trkpt lat="44.91963" lon="4.89112">
        <ele>127.59999847412</ele>
        <time>2024-05-21T11:55:19.000Z</time>
      </trkpt>
      <trkpt lat="44.91958" lon="4.8911">
        <ele>127.59999847412</ele>
        <time>2024-05-21T11:55:20.000Z</time>
      </trkpt>
      <trkpt lat="44.91954" lon="4.89109">
        <ele>127.59999847412</ele>
        <time>2024-05-21T11:55:21.000Z</time>
      </trkpt>
      <trkpt lat="44.9195" lon="4.89107">
        <ele>127.59999847412</ele>
        <time>2024-05-21T11:55:22.000Z</time>
      </trkpt>
      <trkpt lat="44.91945" lon="4.89105">
        <ele>127.59999847412</ele>
        <time>2024-05-21T11:55:23.000Z</time>
      </trkpt>
      <trkpt lat="44.91941" lon="4.89104">
        <ele>127.59999847412</ele>
        <time>2024-05-21T11:55:24.000Z</time>
      </trkpt>
      <trkpt lat="44.91936" lon="4.89102">
        <ele>127.40000152588</ele>
        <time>2024-05-21T11:55:25.000Z</time>
      </trkpt>
      <trkpt lat="44.91932" lon="4.891">
        <ele>127.19999694824</ele>
        <time>2024-05-21T11:55:26.000Z</time>
      </trkpt>
      <trkpt lat="44.91927" lon="4.89098">
        <ele>127.19999694824</ele>
        <time>2024-05-21T11:55:27.000Z</time>
      </trkpt>
      <trkpt lat="44.91923" lon="4.89096">
        <ele>127.19999694824</ele>
        <time>2024-05-21T11:55:28.000Z</time>
      </trkpt>
      <trkpt lat="44.91918" lon="4.89094">
        <ele>127.19999694824</ele>
        <time>2024-05-21T11:55:29.000Z</time>
      </trkpt>
      <trkpt lat="44.91914" lon="4.89092">
        <ele>127.19999694824</ele>
        <time>2024-05-21T11:55:30.000Z</time>
      </trkpt>
      <trkpt lat="44.91909" lon="4.89091">
        <ele>127.40000152588</ele>
        <time>2024-05-21T11:55:31.000Z</time>
      </trkpt>
      <trkpt lat="44.91905" lon="4.89089">
        <ele>127.59999847412</ele>
        <time>2024-05-21T11:55:32.000Z</time>
      </trkpt>
      <trkpt lat="44.919" lon="4.89087">
        <ele>127.59999847412</ele>
        <time>2024-05-21T11:55:33.000Z</time>
      </trkpt>
      <trkpt lat="44.91895" lon="4.89085">
        <ele>127.59999847412</ele>
        <time>2024-05-21T11:55:34.000Z</time>
      </trkpt>
      <trkpt lat="44.9189" lon="4.89083">
        <ele>127.59999847412</ele>
        <time>2024-05-21T11:55:35.000Z</time>
      </trkpt>
      <trkpt lat="44.91886" lon="4.89081">
        <ele>127.59999847412</ele>
        <time>2024-05-21T11:55:36.000Z</time>
      </trkpt>
      <trkpt lat="44.91881" lon="4.89079">
        <ele>127.59999847412</ele>
        <time>2024-05-21T11:55:37.000Z</time>
      </trkpt>
      <trkpt lat="44.91876" lon="4.89077">
        <ele>127.59999847412</ele>
        <time>2024-05-21T11:55:38.000Z</time>
      </trkpt>
      <trkpt lat="44.91871" lon="4.89075">
        <ele>127.59999847412</ele>
        <time>2024-05-21T11:55:39.000Z</time>
      </trkpt>
      <trkpt lat="44.91866" lon="4.89073">
        <ele>127.80000305176</ele>
        <time>2024-05-21T11:55:40.000Z</time>
      </trkpt>
      <trkpt lat="44.91861" lon="4.8907">
        <ele>127.59999847412</ele>
        <time>2024-05-21T11:55:41.000Z</time>
      </trkpt>
      <trkpt lat="44.91856" lon="4.89068">
        <ele>127.59999847412</ele>
        <time>2024-05-21T11:55:42.000Z</time>
      </trkpt>
      <trkpt lat="44.91852" lon="4.89065">
        <ele>127.59999847412</ele>
        <time>2024-05-21T11:55:43.000Z</time>
      </trkpt>
      <trkpt lat="44.91847" lon="4.89063">
        <ele>127.59999847412</ele>
        <time>2024-05-21T11:55:44.000Z</time>
      </trkpt>
      <trkpt lat="44.91842" lon="4.89061">
        <ele>127.40000152588</ele>
        <time>2024-05-21T11:55:45.000Z</time>
      </trkpt>
      <trkpt lat="44.91838" lon="4.89058">
        <ele>127.40000152588</ele>
        <time>2024-05-21T11:55:46.000Z</time>
      </trkpt>
      <trkpt lat="44.91833" lon="4.89056">
        <ele>127.40000152588</ele>
        <time>2024-05-21T11:55:47.000Z</time>
      </trkpt>
      <trkpt lat="44.91829" lon="4.89054">
        <ele>127.40000152588</ele>
        <time>2024-05-21T11:55:48.000Z</time>
      </trkpt>
      <trkpt lat="44.91825" lon="4.89052">
        <ele>127.40000152588</ele>
        <time>2024-05-21T11:55:49.000Z</time>
      </trkpt>
      <trkpt lat="44.9182" lon="4.8905">
        <ele>127.40000152588</ele>
        <time>2024-05-21T11:55:50.000Z</time>
      </trkpt>
      <trkpt lat="44.91816" lon="4.89048">
        <ele>127.40000152588</ele>
        <time>2024-05-21T11:55:51.000Z</time>
      </trkpt>
      <trkpt lat="44.91811" lon="4.89046">
        <ele>127.40000152588</ele>
        <time>2024-05-21T11:55:52.000Z</time>
      </trkpt>
      <trkpt lat="44.91807" lon="4.89044">
        <ele>127.80000305176</ele>
        <time>2024-05-21T11:55:53.000Z</time>
      </trkpt>
      <trkpt lat="44.91802" lon="4.89043">
        <ele>127.80000305176</ele>
        <time>2024-05-21T11:55:54.000Z</time>
      </trkpt>
      <trkpt lat="44.91797" lon="4.89042">
        <ele>127.80000305176</ele>
        <time>2024-05-21T11:55:55.000Z</time>
      </trkpt>
      <trkpt lat="44.91792" lon="4.89042">
        <ele>127.80000305176</ele>
        <time>2024-05-21T11:55:56.000Z</time>
      </trkpt>
      <trkpt lat="44.91787" lon="4.89041">
        <ele>127.80000305176</ele>
        <time>2024-05-21T11:55:57.000Z</time>
      </trkpt>
      <trkpt lat="44.91783" lon="4.89041">
        <ele>127.80000305176</ele>
        <time>2024-05-21T11:55:58.000Z</time>
      </trkpt>
      <trkpt lat="44.91778" lon="4.89041">
        <ele>127.80000305176</ele>
        <time>2024-05-21T11:55:59.000Z</time>
      </trkpt>
      <trkpt lat="44.91773" lon="4.89041">
        <ele>127.80000305176</ele>
        <time>2024-05-21T11:56:00.000Z</time>
      </trkpt>
      <trkpt lat="44.91767" lon="4.89042">
        <ele>127.59999847412</ele>
        <time>2024-05-21T11:56:01.000Z</time>
      </trkpt>
      <trkpt lat="44.91762" lon="4.89043">
        <ele>127.40000152588</ele>
        <time>2024-05-21T11:56:02.000Z</time>
      </trkpt>
      <trkpt lat="44.91756" lon="4.89044">
        <ele>127.40000152588</ele>
        <time>2024-05-21T11:56:03.000Z</time>
      </trkpt>
      <trkpt lat="44.91751" lon="4.89044">
        <ele>127.40000152588</ele>
        <time>2024-05-21T11:56:04.000Z</time>
      </trkpt>
      <trkpt lat="44.91746" lon="4.89045">
        <ele>127.40000152588</ele>
        <time>2024-05-21T11:56:05.000Z</time>
      </trkpt>
      <trkpt lat="44.9174" lon="4.89045">
        <ele>127.19999694824</ele>
        <time>2024-05-21T11:56:06.000Z</time>
      </trkpt>
      <trkpt lat="44.91735" lon="4.89046">
        <ele>127</ele>
        <time>2024-05-21T11:56:07.000Z</time>
      </trkpt>
      <trkpt lat="44.91729" lon="4.89046">
        <ele>126.80000305176</ele>
        <time>2024-05-21T11:56:08.000Z</time>
      </trkpt>
      <trkpt lat="44.91724" lon="4.89046">
        <ele>126.80000305176</ele>
        <time>2024-05-21T11:56:09.000Z</time>
      </trkpt>
      <trkpt lat="44.91719" lon="4.89047">
        <ele>126.80000305176</ele>
        <time>2024-05-21T11:56:10.000Z</time>
      </trkpt>
      <trkpt lat="44.91713" lon="4.89048">
        <ele>126.80000305176</ele>
        <time>2024-05-21T11:56:11.000Z</time>
      </trkpt>
      <trkpt lat="44.91708" lon="4.89049">
        <ele>126.80000305176</ele>
        <time>2024-05-21T11:56:12.000Z</time>
      </trkpt>
      <trkpt lat="44.91703" lon="4.89051">
        <ele>126.80000305176</ele>
        <time>2024-05-21T11:56:13.000Z</time>
      </trkpt>
      <trkpt lat="44.91697" lon="4.89052">
        <ele>126.80000305176</ele>
        <time>2024-05-21T11:56:14.000Z</time>
      </trkpt>
      <trkpt lat="44.91692" lon="4.89054">
        <ele>126.59999847412</ele>
        <time>2024-05-21T11:56:15.000Z</time>
      </trkpt>
      <trkpt lat="44.91687" lon="4.89056">
        <ele>126.59999847412</ele>
        <time>2024-05-21T11:56:16.000Z</time>
      </trkpt>
      <trkpt lat="44.91681" lon="4.89057">
        <ele>126.59999847412</ele>
        <time>2024-05-21T11:56:17.000Z</time>
      </trkpt>
      <trkpt lat="44.91676" lon="4.89059">
        <ele>126.40000152588</ele>
        <time>2024-05-21T11:56:18.000Z</time>
      </trkpt>
      <trkpt lat="44.9167" lon="4.8906">
        <ele>126.19999694824</ele>
        <time>2024-05-21T11:56:19.000Z</time>
      </trkpt>
      <trkpt lat="44.91665" lon="4.89061">
        <ele>126</ele>
        <time>2024-05-21T11:56:20.000Z</time>
      </trkpt>
      <trkpt lat="44.91659" lon="4.89062">
        <ele>126</ele>
        <time>2024-05-21T11:56:21.000Z</time>
      </trkpt>
      <trkpt lat="44.91654" lon="4.89064">
        <ele>125.80000305176</ele>
        <time>2024-05-21T11:56:22.000Z</time>
      </trkpt>
      <trkpt lat="44.91648" lon="4.89065">
        <ele>125.80000305176</ele>
        <time>2024-05-21T11:56:23.000Z</time>
      </trkpt>
      <trkpt lat="44.91643" lon="4.89066">
        <ele>125.59999847412</ele>
        <time>2024-05-21T11:56:24.000Z</time>
      </trkpt>
      <trkpt lat="44.91638" lon="4.89066">
        <ele>125.59999847412</ele>
        <time>2024-05-21T11:56:25.000Z</time>
      </trkpt>
      <trkpt lat="44.91633" lon="4.89067">
        <ele>125.59999847412</ele>
        <time>2024-05-21T11:56:26.000Z</time>
      </trkpt>
      <trkpt lat="44.91628" lon="4.89068">
        <ele>125.59999847412</ele>
        <time>2024-05-21T11:56:27.000Z</time>
      </trkpt>
      <trkpt lat="44.91623" lon="4.89069">
        <ele>125.59999847412</ele>
        <time>2024-05-21T11:56:28.000Z</time>
      </trkpt>
      <trkpt lat="44.91618" lon="4.8907">
        <ele>125.59999847412</ele>
        <time>2024-05-21T11:56:29.000Z</time>
      </trkpt>
      <trkpt lat="44.91613" lon="4.89071">
        <ele>125.59999847412</ele>
        <time>2024-05-21T11:56:30.000Z</time>
      </trkpt>
      <trkpt lat="44.91609" lon="4.89072">
        <ele>125.59999847412</ele>
        <time>2024-05-21T11:56:31.000Z</time>
      </trkpt>
      <trkpt lat="44.91604" lon="4.89073">
        <ele>125.59999847412</ele>
        <time>2024-05-21T11:56:32.000Z</time>
      </trkpt>
      <trkpt lat="44.91599" lon="4.89074">
        <ele>125.59999847412</ele>
        <time>2024-05-21T11:56:33.000Z</time>
      </trkpt>
      <trkpt lat="44.91595" lon="4.89076">
        <ele>125.59999847412</ele>
        <time>2024-05-21T11:56:34.000Z</time>
      </trkpt>
      <trkpt lat="44.9159" lon="4.89076">
        <ele>125.40000152588</ele>
        <time>2024-05-21T11:56:35.000Z</time>
      </trkpt>
      <trkpt lat="44.91586" lon="4.89074">
        <ele>125.40000152588</ele>
        <time>2024-05-21T11:56:36.000Z</time>
      </trkpt>
      <trkpt lat="44.91581" lon="4.89072">
        <ele>125.40000152588</ele>
        <time>2024-05-21T11:56:37.000Z</time>
      </trkpt>
      <trkpt lat="44.91577" lon="4.89068">
        <ele>125.40000152588</ele>
        <time>2024-05-21T11:56:38.000Z</time>
      </trkpt>
      <trkpt lat="44.91573" lon="4.89064">
        <ele>125.40000152588</ele>
        <time>2024-05-21T11:56:39.000Z</time>
      </trkpt>
      <trkpt lat="44.91569" lon="4.89061">
        <ele>125.40000152588</ele>
        <time>2024-05-21T11:56:40.000Z</time>
      </trkpt>
      <trkpt lat="44.91564" lon="4.89057">
        <ele>125.40000152588</ele>
        <time>2024-05-21T11:56:41.000Z</time>
      </trkpt>
      <trkpt lat="44.9156" lon="4.89053">
        <ele>125.19999694824</ele>
        <time>2024-05-21T11:56:42.000Z</time>
      </trkpt>
      <trkpt lat="44.91555" lon="4.8905">
        <ele>125.19999694824</ele>
        <time>2024-05-21T11:56:43.000Z</time>
      </trkpt>
      <trkpt lat="44.9155" lon="4.89046">
        <ele>125.19999694824</ele>
        <time>2024-05-21T11:56:44.000Z</time>
      </trkpt>
      <trkpt lat="44.91546" lon="4.89043">
        <ele>125.19999694824</ele>
        <time>2024-05-21T11:56:45.000Z</time>
      </trkpt>
      <trkpt lat="44.91541" lon="4.8904">
        <ele>125.19999694824</ele>
        <time>2024-05-21T11:56:46.000Z</time>
      </trkpt>
      <trkpt lat="44.91536" lon="4.89036">
        <ele>125</ele>
        <time>2024-05-21T11:56:47.000Z</time>
      </trkpt>
      <trkpt lat="44.91531" lon="4.89033">
        <ele>125</ele>
        <time>2024-05-21T11:56:48.000Z</time>
      </trkpt>
      <trkpt lat="44.91526" lon="4.8903">
        <ele>125</ele>
        <time>2024-05-21T11:56:49.000Z</time>
      </trkpt>
      <trkpt lat="44.91521" lon="4.89027">
        <ele>125</ele>
        <time>2024-05-21T11:56:50.000Z</time>
      </trkpt>
      <trkpt lat="44.91516" lon="4.89023">
        <ele>125</ele>
        <time>2024-05-21T11:56:51.000Z</time>
      </trkpt>
      <trkpt lat="44.91511" lon="4.89019">
        <ele>125</ele>
        <time>2024-05-21T11:56:52.000Z</time>
      </trkpt>
      <trkpt lat="44.91507" lon="4.89016">
        <ele>125</ele>
        <time>2024-05-21T11:56:53.000Z</time>
      </trkpt>
      <trkpt lat="44.91502" lon="4.89012">
        <ele>125</ele>
        <time>2024-05-21T11:56:54.000Z</time>
      </trkpt>
      <trkpt lat="44.91499" lon="4.89006">
        <ele>125</ele>
        <time>2024-05-21T11:56:55.000Z</time>
      </trkpt>
      <trkpt lat="44.91495" lon="4.89001">
        <ele>125</ele>
        <time>2024-05-21T11:56:56.000Z</time>
      </trkpt>
      <trkpt lat="44.91491" lon="4.88997">
        <ele>125</ele>
        <time>2024-05-21T11:56:57.000Z</time>
      </trkpt>
      <trkpt lat="44.91485" lon="4.88995">
        <ele>125</ele>
        <time>2024-05-21T11:56:58.000Z</time>
      </trkpt>
      <trkpt lat="44.9148" lon="4.88994">
        <ele>125</ele>
        <time>2024-05-21T11:56:59.000Z</time>
      </trkpt>
      <trkpt lat="44.91474" lon="4.88993">
        <ele>125.19999694824</ele>
        <time>2024-05-21T11:57:00.000Z</time>
      </trkpt>
      <trkpt lat="44.91469" lon="4.8899">
        <ele>125.19999694824</ele>
        <time>2024-05-21T11:57:01.000Z</time>
      </trkpt>
      <trkpt lat="44.91464" lon="4.88987">
        <ele>125.19999694824</ele>
        <time>2024-05-21T11:57:02.000Z</time>
      </trkpt>
      <trkpt lat="44.91459" lon="4.88983">
        <ele>125.19999694824</ele>
        <time>2024-05-21T11:57:03.000Z</time>
      </trkpt>
      <trkpt lat="44.91454" lon="4.8898">
        <ele>124.80000305176</ele>
        <time>2024-05-21T11:57:04.000Z</time>
      </trkpt>
      <trkpt lat="44.9145" lon="4.88977">
        <ele>124.80000305176</ele>
        <time>2024-05-21T11:57:05.000Z</time>
      </trkpt>
      <trkpt lat="44.91448" lon="4.88975">
        <ele>124.80000305176</ele>
        <time>2024-05-21T11:57:06.000Z</time>
      </trkpt>
      <trkpt lat="44.91446" lon="4.88973">
        <ele>124.80000305176</ele>
        <time>2024-05-21T11:57:07.000Z</time>
      </trkpt>
      <trkpt lat="44.91444" lon="4.88972">
        <ele>124.80000305176</ele>
        <time>2024-05-21T11:57:08.000Z</time>
      </trkpt>
      <trkpt lat="44.91443" lon="4.88971">
        <ele>125</ele>
        <time>2024-05-21T11:57:09.000Z</time>
      </trkpt>
      <trkpt lat="44.91442" lon="4.88971">
        <ele>125.19999694824</ele>
        <time>2024-05-21T11:57:10.000Z</time>
      </trkpt>
      <trkpt lat="44.91441" lon="4.8897">
        <ele>125.40000152588</ele>
        <time>2024-05-21T11:57:11.000Z</time>
      </trkpt>
      <trkpt lat="44.91439" lon="4.88969">
        <ele>125.59999847412</ele>
        <time>2024-05-21T11:57:12.000Z</time>
      </trkpt>
      <trkpt lat="44.91437" lon="4.88967">
        <ele>125.59999847412</ele>
        <time>2024-05-21T11:57:13.000Z</time>
      </trkpt>
      <trkpt lat="44.91434" lon="4.88965">
        <ele>125.59999847412</ele>
        <time>2024-05-21T11:57:14.000Z</time>
      </trkpt>
      <trkpt lat="44.9143" lon="4.88963">
        <ele>125.59999847412</ele>
        <time>2024-05-21T11:57:15.000Z</time>
      </trkpt>
      <trkpt lat="44.91427" lon="4.8896">
        <ele>125.59999847412</ele>
        <time>2024-05-21T11:57:16.000Z</time>
      </trkpt>
      <trkpt lat="44.91423" lon="4.88958">
        <ele>125.59999847412</ele>
        <time>2024-05-21T11:57:17.000Z</time>
      </trkpt>
      <trkpt lat="44.9142" lon="4.88955">
        <ele>125.40000152588</ele>
        <time>2024-05-21T11:57:18.000Z</time>
      </trkpt>
      <trkpt lat="44.91416" lon="4.88953">
        <ele>125.40000152588</ele>
        <time>2024-05-21T11:57:19.000Z</time>
      </trkpt>
      <trkpt lat="44.91412" lon="4.8895">
        <ele>125.19999694824</ele>
        <time>2024-05-21T11:57:20.000Z</time>
      </trkpt>
      <trkpt lat="44.91408" lon="4.88947">
        <ele>125</ele>
        <time>2024-05-21T11:57:21.000Z</time>
      </trkpt>
      <trkpt lat="44.91403" lon="4.88944">
        <ele>125</ele>
        <time>2024-05-21T11:57:22.000Z</time>
      </trkpt>
      <trkpt lat="44.91399" lon="4.88942">
        <ele>125</ele>
        <time>2024-05-21T11:57:23.000Z</time>
      </trkpt>
      <trkpt lat="44.91395" lon="4.88939">
        <ele>125</ele>
        <time>2024-05-21T11:57:24.000Z</time>
      </trkpt>
      <trkpt lat="44.91391" lon="4.88936">
        <ele>125</ele>
        <time>2024-05-21T11:57:25.000Z</time>
      </trkpt>
      <trkpt lat="44.91387" lon="4.88933">
        <ele>125</ele>
        <time>2024-05-21T11:57:26.000Z</time>
      </trkpt>
      <trkpt lat="44.91383" lon="4.8893">
        <ele>125</ele>
        <time>2024-05-21T11:57:27.000Z</time>
      </trkpt>
      <trkpt lat="44.91379" lon="4.88928">
        <ele>124.80000305176</ele>
        <time>2024-05-21T11:57:28.000Z</time>
      </trkpt>
      <trkpt lat="44.91375" lon="4.88925">
        <ele>124.80000305176</ele>
        <time>2024-05-21T11:57:29.000Z</time>
      </trkpt>
      <trkpt lat="44.91371" lon="4.88922">
        <ele>124.59999847412</ele>
        <time>2024-05-21T11:57:30.000Z</time>
      </trkpt>
      <trkpt lat="44.91366" lon="4.88919">
        <ele>124.59999847412</ele>
        <time>2024-05-21T11:57:31.000Z</time>
      </trkpt>
      <trkpt lat="44.91362" lon="4.88916">
        <ele>124.59999847412</ele>
        <time>2024-05-21T11:57:32.000Z</time>
      </trkpt>
      <trkpt lat="44.91358" lon="4.88912">
        <ele>124.59999847412</ele>
        <time>2024-05-21T11:57:33.000Z</time>
      </trkpt>
      <trkpt lat="44.91353" lon="4.88909">
        <ele>124.59999847412</ele>
        <time>2024-05-21T11:57:34.000Z</time>
      </trkpt>
      <trkpt lat="44.91349" lon="4.88907">
        <ele>124.59999847412</ele>
        <time>2024-05-21T11:57:35.000Z</time>
      </trkpt>
      <trkpt lat="44.91344" lon="4.88904">
        <ele>124.59999847412</ele>
        <time>2024-05-21T11:57:36.000Z</time>
      </trkpt>
      <trkpt lat="44.91339" lon="4.88901">
        <ele>124.59999847412</ele>
        <time>2024-05-21T11:57:37.000Z</time>
      </trkpt>
      <trkpt lat="44.91335" lon="4.88898">
        <ele>124.80000305176</ele>
        <time>2024-05-21T11:57:38.000Z</time>
      </trkpt>
      <trkpt lat="44.9133" lon="4.88896">
        <ele>124.80000305176</ele>
        <time>2024-05-21T11:57:39.000Z</time>
      </trkpt>
      <trkpt lat="44.91326" lon="4.88893">
        <ele>124.80000305176</ele>
        <time>2024-05-21T11:57:40.000Z</time>
      </trkpt>
      <trkpt lat="44.91321" lon="4.88891">
        <ele>124.80000305176</ele>
        <time>2024-05-21T11:57:41.000Z</time>
      </trkpt>
      <trkpt lat="44.91317" lon="4.88888">
        <ele>125</ele>
        <time>2024-05-21T11:57:42.000Z</time>
      </trkpt>
      <trkpt lat="44.91313" lon="4.88886">
        <ele>125</ele>
        <time>2024-05-21T11:57:43.000Z</time>
      </trkpt>
      <trkpt lat="44.9131" lon="4.88884">
        <ele>125.19999694824</ele>
        <time>2024-05-21T11:57:44.000Z</time>
      </trkpt>
      <trkpt lat="44.91307" lon="4.88883">
        <ele>125.19999694824</ele>
        <time>2024-05-21T11:57:45.000Z</time>
      </trkpt>
      <trkpt lat="44.91305" lon="4.88881">
        <ele>125.40000152588</ele>
        <time>2024-05-21T11:57:46.000Z</time>
      </trkpt>
      <trkpt lat="44.91303" lon="4.88879">
        <ele>125.40000152588</ele>
        <time>2024-05-21T11:57:47.000Z</time>
      </trkpt>
      <trkpt lat="44.91301" lon="4.88878">
        <ele>125.40000152588</ele>
        <time>2024-05-21T11:57:48.000Z</time>
      </trkpt>
      <trkpt lat="44.91298" lon="4.88877">
        <ele>125.59999847412</ele>
        <time>2024-05-21T11:57:49.000Z</time>
      </trkpt>
      <trkpt lat="44.91296" lon="4.88876">
        <ele>125.59999847412</ele>
        <time>2024-05-21T11:57:50.000Z</time>
      </trkpt>
      <trkpt lat="44.91293" lon="4.88875">
        <ele>125.59999847412</ele>
        <time>2024-05-21T11:57:51.000Z</time>
      </trkpt>
      <trkpt lat="44.91291" lon="4.88873">
        <ele>125.59999847412</ele>
        <time>2024-05-21T11:57:52.000Z</time>
      </trkpt>
      <trkpt lat="44.91288" lon="4.88872">
        <ele>125.59999847412</ele>
        <time>2024-05-21T11:57:53.000Z</time>
      </trkpt>
      <trkpt lat="44.91286" lon="4.8887">
        <ele>125.19999694824</ele>
        <time>2024-05-21T11:57:54.000Z</time>
      </trkpt>
      <trkpt lat="44.91284" lon="4.88869">
        <ele>125</ele>
        <time>2024-05-21T11:57:55.000Z</time>
      </trkpt>
      <trkpt lat="44.91281" lon="4.88868">
        <ele>124.80000305176</ele>
        <time>2024-05-21T11:57:56.000Z</time>
      </trkpt>
      <trkpt lat="44.91278" lon="4.88867">
        <ele>124.80000305176</ele>
        <time>2024-05-21T11:57:57.000Z</time>
      </trkpt>
      <trkpt lat="44.91275" lon="4.88865">
        <ele>124.80000305176</ele>
        <time>2024-05-21T11:57:58.000Z</time>
      </trkpt>
      <trkpt lat="44.91272" lon="4.88864">
        <ele>124.80000305176</ele>
        <time>2024-05-21T11:57:59.000Z</time>
      </trkpt>
      <trkpt lat="44.91269" lon="4.88863">
        <ele>124.80000305176</ele>
        <time>2024-05-21T11:58:00.000Z</time>
      </trkpt>
      <trkpt lat="44.91266" lon="4.88862">
        <ele>124.80000305176</ele>
        <time>2024-05-21T11:58:01.000Z</time>
      </trkpt>
      <trkpt lat="44.91263" lon="4.8886">
        <ele>124.80000305176</ele>
        <time>2024-05-21T11:58:02.000Z</time>
      </trkpt>
      <trkpt lat="44.9126" lon="4.88859">
        <ele>124.80000305176</ele>
        <time>2024-05-21T11:58:03.000Z</time>
      </trkpt>
      <trkpt lat="44.91257" lon="4.88858">
        <ele>124.80000305176</ele>
        <time>2024-05-21T11:58:04.000Z</time>
      </trkpt>
      <trkpt lat="44.91254" lon="4.88858">
        <ele>124.80000305176</ele>
        <time>2024-05-21T11:58:05.000Z</time>
      </trkpt>
      <trkpt lat="44.9125" lon="4.88857">
        <ele>124.59999847412</ele>
        <time>2024-05-21T11:58:06.000Z</time>
      </trkpt>
      <trkpt lat="44.91247" lon="4.88855">
        <ele>124.59999847412</ele>
        <time>2024-05-21T11:58:07.000Z</time>
      </trkpt>
      <trkpt lat="44.91243" lon="4.88854">
        <ele>124.59999847412</ele>
        <time>2024-05-21T11:58:08.000Z</time>
      </trkpt>
      <trkpt lat="44.91239" lon="4.88853">
        <ele>124.40000152588</ele>
        <time>2024-05-21T11:58:09.000Z</time>
      </trkpt>
      <trkpt lat="44.91235" lon="4.88851">
        <ele>124.40000152588</ele>
        <time>2024-05-21T11:58:10.000Z</time>
      </trkpt>
      <trkpt lat="44.91231" lon="4.8885">
        <ele>124.40000152588</ele>
        <time>2024-05-21T11:58:11.000Z</time>
      </trkpt>
      <trkpt lat="44.91227" lon="4.88848">
        <ele>124.40000152588</ele>
        <time>2024-05-21T11:58:12.000Z</time>
      </trkpt>
      <trkpt lat="44.91223" lon="4.88847">
        <ele>124.40000152588</ele>
        <time>2024-05-21T11:58:13.000Z</time>
      </trkpt>
      <trkpt lat="44.91219" lon="4.88845">
        <ele>124.40000152588</ele>
        <time>2024-05-21T11:58:14.000Z</time>
      </trkpt>
      <trkpt lat="44.91215" lon="4.88844">
        <ele>124.40000152588</ele>
        <time>2024-05-21T11:58:15.000Z</time>
      </trkpt>
      <trkpt lat="44.91211" lon="4.88843">
        <ele>124.40000152588</ele>
        <time>2024-05-21T11:58:16.000Z</time>
      </trkpt>
      <trkpt lat="44.91207" lon="4.88841">
        <ele>124.59999847412</ele>
        <time>2024-05-21T11:58:17.000Z</time>
      </trkpt>
      <trkpt lat="44.91203" lon="4.8884">
        <ele>124.59999847412</ele>
        <time>2024-05-21T11:58:18.000Z</time>
      </trkpt>
      <trkpt lat="44.91199" lon="4.88838">
        <ele>124.59999847412</ele>
        <time>2024-05-21T11:58:19.000Z</time>
      </trkpt>
      <trkpt lat="44.91195" lon="4.88837">
        <ele>124.40000152588</ele>
        <time>2024-05-21T11:58:20.000Z</time>
      </trkpt>
      <trkpt lat="44.9119" lon="4.88835">
        <ele>124.40000152588</ele>
        <time>2024-05-21T11:58:21.000Z</time>
      </trkpt>
      <trkpt lat="44.91186" lon="4.88833">
        <ele>124.19999694824</ele>
        <time>2024-05-21T11:58:22.000Z</time>
      </trkpt>
      <trkpt lat="44.91182" lon="4.88831">
        <ele>124.19999694824</ele>
        <time>2024-05-21T11:58:23.000Z</time>
      </trkpt>
      <trkpt lat="44.91178" lon="4.8883">
        <ele>124.19999694824</ele>
        <time>2024-05-21T11:58:24.000Z</time>
      </trkpt>
      <trkpt lat="44.91174" lon="4.88829">
        <ele>124.19999694824</ele>
        <time>2024-05-21T11:58:25.000Z</time>
      </trkpt>
      <trkpt lat="44.91169" lon="4.88827">
        <ele>124.40000152588</ele>
        <time>2024-05-21T11:58:26.000Z</time>
      </trkpt>
      <trkpt lat="44.91165" lon="4.88826">
        <ele>124.40000152588</ele>
        <time>2024-05-21T11:58:27.000Z</time>
      </trkpt>
      <trkpt lat="44.91161" lon="4.88824">
        <ele>124.40000152588</ele>
        <time>2024-05-21T11:58:28.000Z</time>
      </trkpt>
      <trkpt lat="44.91157" lon="4.88822">
        <ele>124.40000152588</ele>
        <time>2024-05-21T11:58:29.000Z</time>
      </trkpt>
      <trkpt lat="44.91153" lon="4.88821">
        <ele>124.40000152588</ele>
        <time>2024-05-21T11:58:30.000Z</time>
      </trkpt>
      <trkpt lat="44.91149" lon="4.88819">
        <ele>124.59999847412</ele>
        <time>2024-05-21T11:58:31.000Z</time>
      </trkpt>
      <trkpt lat="44.91145" lon="4.88818">
        <ele>124.59999847412</ele>
        <time>2024-05-21T11:58:32.000Z</time>
      </trkpt>
      <trkpt lat="44.9114" lon="4.88817">
        <ele>124.59999847412</ele>
        <time>2024-05-21T11:58:33.000Z</time>
      </trkpt>
      <trkpt lat="44.91136" lon="4.88815">
        <ele>124.59999847412</ele>
        <time>2024-05-21T11:58:34.000Z</time>
      </trkpt>
      <trkpt lat="44.91132" lon="4.88813">
        <ele>124.59999847412</ele>
        <time>2024-05-21T11:58:35.000Z</time>
      </trkpt>
      <trkpt lat="44.91127" lon="4.88811">
        <ele>124.59999847412</ele>
        <time>2024-05-21T11:58:36.000Z</time>
      </trkpt>
      <trkpt lat="44.91123" lon="4.88809">
        <ele>124.40000152588</ele>
        <time>2024-05-21T11:58:37.000Z</time>
      </trkpt>
      <trkpt lat="44.91118" lon="4.88807">
        <ele>124.19999694824</ele>
        <time>2024-05-21T11:58:38.000Z</time>
      </trkpt>
      <trkpt lat="44.91113" lon="4.88804">
        <ele>124.19999694824</ele>
        <time>2024-05-21T11:58:39.000Z</time>
      </trkpt>
      <trkpt lat="44.91108" lon="4.88802">
        <ele>124</ele>
        <time>2024-05-21T11:58:40.000Z</time>
      </trkpt>
      <trkpt lat="44.91103" lon="4.88799">
        <ele>123.80000305176</ele>
        <time>2024-05-21T11:58:41.000Z</time>
      </trkpt>
      <trkpt lat="44.91098" lon="4.88797">
        <ele>123.59999847412</ele>
        <time>2024-05-21T11:58:42.000Z</time>
      </trkpt>
      <trkpt lat="44.91093" lon="4.88794">
        <ele>123.40000152588</ele>
        <time>2024-05-21T11:58:43.000Z</time>
      </trkpt>
      <trkpt lat="44.91088" lon="4.88792">
        <ele>123.40000152588</ele>
        <time>2024-05-21T11:58:44.000Z</time>
      </trkpt>
      <trkpt lat="44.91083" lon="4.88789">
        <ele>123.19999694824</ele>
        <time>2024-05-21T11:58:45.000Z</time>
      </trkpt>
      <trkpt lat="44.91078" lon="4.88786">
        <ele>123.19999694824</ele>
        <time>2024-05-21T11:58:46.000Z</time>
      </trkpt>
      <trkpt lat="44.91072" lon="4.88784">
        <ele>123.19999694824</ele>
        <time>2024-05-21T11:58:47.000Z</time>
      </trkpt>
      <trkpt lat="44.91067" lon="4.88781">
        <ele>123</ele>
        <time>2024-05-21T11:58:48.000Z</time>
      </trkpt>
      <trkpt lat="44.91062" lon="4.88778">
        <ele>123</ele>
        <time>2024-05-21T11:58:49.000Z</time>
      </trkpt>
      <trkpt lat="44.91057" lon="4.88775">
        <ele>123</ele>
        <time>2024-05-21T11:58:50.000Z</time>
      </trkpt>
      <trkpt lat="44.91051" lon="4.88773">
        <ele>123</ele>
        <time>2024-05-21T11:58:51.000Z</time>
      </trkpt>
      <trkpt lat="44.91046" lon="4.8877">
        <ele>123</ele>
        <time>2024-05-21T11:58:52.000Z</time>
      </trkpt>
      <trkpt lat="44.91041" lon="4.88767">
        <ele>123</ele>
        <time>2024-05-21T11:58:53.000Z</time>
      </trkpt>
      <trkpt lat="44.91036" lon="4.88764">
        <ele>123</ele>
        <time>2024-05-21T11:58:54.000Z</time>
      </trkpt>
      <trkpt lat="44.9103" lon="4.88762">
        <ele>123</ele>
        <time>2024-05-21T11:58:55.000Z</time>
      </trkpt>
      <trkpt lat="44.91025" lon="4.88759">
        <ele>123</ele>
        <time>2024-05-21T11:58:56.000Z</time>
      </trkpt>
      <trkpt lat="44.91019" lon="4.88756">
        <ele>123.19999694824</ele>
        <time>2024-05-21T11:58:57.000Z</time>
      </trkpt>
      <trkpt lat="44.91014" lon="4.88753">
        <ele>123</ele>
        <time>2024-05-21T11:58:58.000Z</time>
      </trkpt>
      <trkpt lat="44.91008" lon="4.8875">
        <ele>123</ele>
        <time>2024-05-21T11:58:59.000Z</time>
      </trkpt>
      <trkpt lat="44.91002" lon="4.88747">
        <ele>123</ele>
        <time>2024-05-21T11:59:00.000Z</time>
      </trkpt>
      <trkpt lat="44.90997" lon="4.88745">
        <ele>123</ele>
        <time>2024-05-21T11:59:01.000Z</time>
      </trkpt>
      <trkpt lat="44.90991" lon="4.88742">
        <ele>123</ele>
        <time>2024-05-21T11:59:02.000Z</time>
      </trkpt>
      <trkpt lat="44.90986" lon="4.88739">
        <ele>123</ele>
        <time>2024-05-21T11:59:03.000Z</time>
      </trkpt>
      <trkpt lat="44.90982" lon="4.88736">
        <ele>123</ele>
        <time>2024-05-21T11:59:04.000Z</time>
      </trkpt>
      <trkpt lat="44.90977" lon="4.88734">
        <ele>123</ele>
        <time>2024-05-21T11:59:05.000Z</time>
      </trkpt>
      <trkpt lat="44.90972" lon="4.88731">
        <ele>123</ele>
        <time>2024-05-21T11:59:06.000Z</time>
      </trkpt>
      <trkpt lat="44.90967" lon="4.88729">
        <ele>123</ele>
        <time>2024-05-21T11:59:07.000Z</time>
      </trkpt>
      <trkpt lat="44.90962" lon="4.88726">
        <ele>123</ele>
        <time>2024-05-21T11:59:08.000Z</time>
      </trkpt>
      <trkpt lat="44.90957" lon="4.88724">
        <ele>123</ele>
        <time>2024-05-21T11:59:09.000Z</time>
      </trkpt>
      <trkpt lat="44.90952" lon="4.88721">
        <ele>123</ele>
        <time>2024-05-21T11:59:10.000Z</time>
      </trkpt>
      <trkpt lat="44.90947" lon="4.88718">
        <ele>123</ele>
        <time>2024-05-21T11:59:11.000Z</time>
      </trkpt>
      <trkpt lat="44.90942" lon="4.88716">
        <ele>123.19999694824</ele>
        <time>2024-05-21T11:59:12.000Z</time>
      </trkpt>
      <trkpt lat="44.90937" lon="4.88713">
        <ele>123.19999694824</ele>
        <time>2024-05-21T11:59:13.000Z</time>
      </trkpt>
      <trkpt lat="44.90932" lon="4.8871">
        <ele>123.19999694824</ele>
        <time>2024-05-21T11:59:14.000Z</time>
      </trkpt>
      <trkpt lat="44.90927" lon="4.88708">
        <ele>123.19999694824</ele>
        <time>2024-05-21T11:59:15.000Z</time>
      </trkpt>
      <trkpt lat="44.90922" lon="4.88705">
        <ele>123</ele>
        <time>2024-05-21T11:59:16.000Z</time>
      </trkpt>
      <trkpt lat="44.90917" lon="4.88703">
        <ele>123</ele>
        <time>2024-05-21T11:59:17.000Z</time>
      </trkpt>
      <trkpt lat="44.90912" lon="4.887">
        <ele>123</ele>
        <time>2024-05-21T11:59:18.000Z</time>
      </trkpt>
      <trkpt lat="44.90907" lon="4.88698">
        <ele>123</ele>
        <time>2024-05-21T11:59:19.000Z</time>
      </trkpt>
      <trkpt lat="44.90901" lon="4.88695">
        <ele>123</ele>
        <time>2024-05-21T11:59:20.000Z</time>
      </trkpt>
      <trkpt lat="44.90896" lon="4.88692">
        <ele>123</ele>
        <time>2024-05-21T11:59:21.000Z</time>
      </trkpt>
      <trkpt lat="44.90891" lon="4.8869">
        <ele>123</ele>
        <time>2024-05-21T11:59:22.000Z</time>
      </trkpt>
      <trkpt lat="44.90886" lon="4.88687">
        <ele>123.19999694824</ele>
        <time>2024-05-21T11:59:23.000Z</time>
      </trkpt>
      <trkpt lat="44.90881" lon="4.88684">
        <ele>123.19999694824</ele>
        <time>2024-05-21T11:59:24.000Z</time>
      </trkpt>
      <trkpt lat="44.90876" lon="4.88682">
        <ele>123.19999694824</ele>
        <time>2024-05-21T11:59:25.000Z</time>
      </trkpt>
      <trkpt lat="44.90871" lon="4.88679">
        <ele>123.19999694824</ele>
        <time>2024-05-21T11:59:26.000Z</time>
      </trkpt>
      <trkpt lat="44.90866" lon="4.88676">
        <ele>123.59999847412</ele>
        <time>2024-05-21T11:59:27.000Z</time>
      </trkpt>
      <trkpt lat="44.90861" lon="4.88674">
        <ele>123.59999847412</ele>
        <time>2024-05-21T11:59:28.000Z</time>
      </trkpt>
      <trkpt lat="44.90856" lon="4.88671">
        <ele>123.80000305176</ele>
        <time>2024-05-21T11:59:29.000Z</time>
      </trkpt>
      <trkpt lat="44.9085" lon="4.88669">
        <ele>123.80000305176</ele>
        <time>2024-05-21T11:59:30.000Z</time>
      </trkpt>
      <trkpt lat="44.90845" lon="4.88666">
        <ele>123.80000305176</ele>
        <time>2024-05-21T11:59:31.000Z</time>
      </trkpt>
      <trkpt lat="44.9084" lon="4.88664">
        <ele>123.80000305176</ele>
        <time>2024-05-21T11:59:32.000Z</time>
      </trkpt>
      <trkpt lat="44.90835" lon="4.88661">
        <ele>124</ele>
        <time>2024-05-21T11:59:33.000Z</time>
      </trkpt>
      <trkpt lat="44.9083" lon="4.88659">
        <ele>124</ele>
        <time>2024-05-21T11:59:34.000Z</time>
      </trkpt>
      <trkpt lat="44.90825" lon="4.88656">
        <ele>124</ele>
        <time>2024-05-21T11:59:35.000Z</time>
      </trkpt>
      <trkpt lat="44.9082" lon="4.88654">
        <ele>124</ele>
        <time>2024-05-21T11:59:36.000Z</time>
      </trkpt>
      <trkpt lat="44.90815" lon="4.88651">
        <ele>124</ele>
        <time>2024-05-21T11:59:37.000Z</time>
      </trkpt>
      <trkpt lat="44.90811" lon="4.88649">
        <ele>124</ele>
        <time>2024-05-21T11:59:38.000Z</time>
      </trkpt>
      <trkpt lat="44.90805" lon="4.88646">
        <ele>124</ele>
        <time>2024-05-21T11:59:39.000Z</time>
      </trkpt>
      <trkpt lat="44.908" lon="4.88644">
        <ele>124</ele>
        <time>2024-05-21T11:59:40.000Z</time>
      </trkpt>
      <trkpt lat="44.90796" lon="4.88641">
        <ele>124</ele>
        <time>2024-05-21T11:59:41.000Z</time>
      </trkpt>
      <trkpt lat="44.90791" lon="4.88639">
        <ele>124</ele>
        <time>2024-05-21T11:59:42.000Z</time>
      </trkpt>
      <trkpt lat="44.90786" lon="4.88636">
        <ele>124</ele>
        <time>2024-05-21T11:59:43.000Z</time>
      </trkpt>
      <trkpt lat="44.90781" lon="4.88634">
        <ele>124</ele>
        <time>2024-05-21T11:59:44.000Z</time>
      </trkpt>
      <trkpt lat="44.90777" lon="4.88632">
        <ele>124</ele>
        <time>2024-05-21T11:59:45.000Z</time>
      </trkpt>
      <trkpt lat="44.90772" lon="4.88629">
        <ele>124</ele>
        <time>2024-05-21T11:59:46.000Z</time>
      </trkpt>
      <trkpt lat="44.90768" lon="4.88627">
        <ele>124</ele>
        <time>2024-05-21T11:59:47.000Z</time>
      </trkpt>
      <trkpt lat="44.90763" lon="4.88625">
        <ele>124.19999694824</ele>
        <time>2024-05-21T11:59:48.000Z</time>
      </trkpt>
      <trkpt lat="44.90758" lon="4.88622">
        <ele>124.19999694824</ele>
        <time>2024-05-21T11:59:49.000Z</time>
      </trkpt>
      <trkpt lat="44.90754" lon="4.8862">
        <ele>124.40000152588</ele>
        <time>2024-05-21T11:59:50.000Z</time>
      </trkpt>
      <trkpt lat="44.90749" lon="4.88617">
        <ele>124.40000152588</ele>
        <time>2024-05-21T11:59:51.000Z</time>
      </trkpt>
      <trkpt lat="44.90744" lon="4.88615">
        <ele>124.40000152588</ele>
        <time>2024-05-21T11:59:52.000Z</time>
      </trkpt>
      <trkpt lat="44.90739" lon="4.88612">
        <ele>124.40000152588</ele>
        <time>2024-05-21T11:59:53.000Z</time>
      </trkpt>
      <trkpt lat="44.90734" lon="4.8861">
        <ele>124.19999694824</ele>
        <time>2024-05-21T11:59:54.000Z</time>
      </trkpt>
      <trkpt lat="44.90729" lon="4.88608">
        <ele>124</ele>
        <time>2024-05-21T11:59:55.000Z</time>
      </trkpt>
      <trkpt lat="44.90724" lon="4.88605">
        <ele>124</ele>
        <time>2024-05-21T11:59:56.000Z</time>
      </trkpt>
      <trkpt lat="44.90719" lon="4.88603">
        <ele>123.80000305176</ele>
        <time>2024-05-21T11:59:57.000Z</time>
      </trkpt>
      <trkpt lat="44.90714" lon="4.886">
        <ele>123.59999847412</ele>
        <time>2024-05-21T11:59:58.000Z</time>
      </trkpt>
      <trkpt lat="44.90709" lon="4.88597">
        <ele>123.59999847412</ele>
        <time>2024-05-21T11:59:59.000Z</time>
      </trkpt>
      <trkpt lat="44.90704" lon="4.88594">
        <ele>123.59999847412</ele>
        <time>2024-05-21T12:00:00.000Z</time>
      </trkpt>
      <trkpt lat="44.90698" lon="4.88592">
        <ele>123.59999847412</ele>
        <time>2024-05-21T12:00:01.000Z</time>
      </trkpt>
      <trkpt lat="44.90693" lon="4.88589">
        <ele>123.59999847412</ele>
        <time>2024-05-21T12:00:02.000Z</time>
      </trkpt>
      <trkpt lat="44.90688" lon="4.88587">
        <ele>123.59999847412</ele>
        <time>2024-05-21T12:00:03.000Z</time>
      </trkpt>
      <trkpt lat="44.90683" lon="4.88584">
        <ele>123.59999847412</ele>
        <time>2024-05-21T12:00:04.000Z</time>
      </trkpt>
      <trkpt lat="44.90678" lon="4.88581">
        <ele>123.40000152588</ele>
        <time>2024-05-21T12:00:05.000Z</time>
      </trkpt>
      <trkpt lat="44.90673" lon="4.88579">
        <ele>123.40000152588</ele>
        <time>2024-05-21T12:00:06.000Z</time>
      </trkpt>
      <trkpt lat="44.90667" lon="4.88576">
        <ele>123.40000152588</ele>
        <time>2024-05-21T12:00:07.000Z</time>
      </trkpt>
      <trkpt lat="44.90662" lon="4.88573">
        <ele>123.40000152588</ele>
        <time>2024-05-21T12:00:08.000Z</time>
      </trkpt>
      <trkpt lat="44.90657" lon="4.88571">
        <ele>123.40000152588</ele>
        <time>2024-05-21T12:00:09.000Z</time>
      </trkpt>
      <trkpt lat="44.90652" lon="4.88568">
        <ele>123.40000152588</ele>
        <time>2024-05-21T12:00:10.000Z</time>
      </trkpt>
      <trkpt lat="44.90647" lon="4.88566">
        <ele>123.40000152588</ele>
        <time>2024-05-21T12:00:11.000Z</time>
      </trkpt>
      <trkpt lat="44.90641" lon="4.88563">
        <ele>123.19999694824</ele>
        <time>2024-05-21T12:00:12.000Z</time>
      </trkpt>
      <trkpt lat="44.90636" lon="4.88561">
        <ele>123.19999694824</ele>
        <time>2024-05-21T12:00:13.000Z</time>
      </trkpt>
      <trkpt lat="44.90631" lon="4.88558">
        <ele>123.19999694824</ele>
        <time>2024-05-21T12:00:14.000Z</time>
      </trkpt>
      <trkpt lat="44.90626" lon="4.88555">
        <ele>123.19999694824</ele>
        <time>2024-05-21T12:00:15.000Z</time>
      </trkpt>
      <trkpt lat="44.90621" lon="4.88552">
        <ele>123.19999694824</ele>
        <time>2024-05-21T12:00:16.000Z</time>
      </trkpt>
      <trkpt lat="44.90616" lon="4.8855">
        <ele>123.19999694824</ele>
        <time>2024-05-21T12:00:17.000Z</time>
      </trkpt>
      <trkpt lat="44.90611" lon="4.88547">
        <ele>123.19999694824</ele>
        <time>2024-05-21T12:00:18.000Z</time>
      </trkpt>
      <trkpt lat="44.90606" lon="4.88545">
        <ele>123.19999694824</ele>
        <time>2024-05-21T12:00:19.000Z</time>
      </trkpt>
      <trkpt lat="44.90601" lon="4.88542">
        <ele>123.19999694824</ele>
        <time>2024-05-21T12:00:20.000Z</time>
      </trkpt>
      <trkpt lat="44.90597" lon="4.8854">
        <ele>123.19999694824</ele>
        <time>2024-05-21T12:00:21.000Z</time>
      </trkpt>
      <trkpt lat="44.90592" lon="4.88537">
        <ele>123</ele>
        <time>2024-05-21T12:00:22.000Z</time>
      </trkpt>
      <trkpt lat="44.90587" lon="4.88535">
        <ele>123</ele>
        <time>2024-05-21T12:00:23.000Z</time>
      </trkpt>
      <trkpt lat="44.90583" lon="4.88532">
        <ele>123</ele>
        <time>2024-05-21T12:00:24.000Z</time>
      </trkpt>
      <trkpt lat="44.90578" lon="4.88528">
        <ele>123</ele>
        <time>2024-05-21T12:00:25.000Z</time>
      </trkpt>
      <trkpt lat="44.90574" lon="4.88526">
        <ele>122.80000305176</ele>
        <time>2024-05-21T12:00:26.000Z</time>
      </trkpt>
      <trkpt lat="44.9057" lon="4.88523">
        <ele>122.80000305176</ele>
        <time>2024-05-21T12:00:27.000Z</time>
      </trkpt>
      <trkpt lat="44.90566" lon="4.88519">
        <ele>123</ele>
        <time>2024-05-21T12:00:28.000Z</time>
      </trkpt>
      <trkpt lat="44.90562" lon="4.88515">
        <ele>123</ele>
        <time>2024-05-21T12:00:29.000Z</time>
      </trkpt>
      <trkpt lat="44.90558" lon="4.88511">
        <ele>123</ele>
        <time>2024-05-21T12:00:30.000Z</time>
      </trkpt>
      <trkpt lat="44.90554" lon="4.88506">
        <ele>123</ele>
        <time>2024-05-21T12:00:31.000Z</time>
      </trkpt>
      <trkpt lat="44.9055" lon="4.88502">
        <ele>123</ele>
        <time>2024-05-21T12:00:32.000Z</time>
      </trkpt>
      <trkpt lat="44.90546" lon="4.88497">
        <ele>123</ele>
        <time>2024-05-21T12:00:33.000Z</time>
      </trkpt>
      <trkpt lat="44.90543" lon="4.88491">
        <ele>123.19999694824</ele>
        <time>2024-05-21T12:00:34.000Z</time>
      </trkpt>
      <trkpt lat="44.90541" lon="4.88485">
        <ele>123.19999694824</ele>
        <time>2024-05-21T12:00:35.000Z</time>
      </trkpt>
      <trkpt lat="44.90538" lon="4.8848">
        <ele>123.19999694824</ele>
        <time>2024-05-21T12:00:36.000Z</time>
      </trkpt>
      <trkpt lat="44.90536" lon="4.88474">
        <ele>123</ele>
        <time>2024-05-21T12:00:37.000Z</time>
      </trkpt>
      <trkpt lat="44.90534" lon="4.88468">
        <ele>123</ele>
        <time>2024-05-21T12:00:38.000Z</time>
      </trkpt>
      <trkpt lat="44.90533" lon="4.88462">
        <ele>123</ele>
        <time>2024-05-21T12:00:39.000Z</time>
      </trkpt>
      <trkpt lat="44.90531" lon="4.88456">
        <ele>122.80000305176</ele>
        <time>2024-05-21T12:00:40.000Z</time>
      </trkpt>
      <trkpt lat="44.90529" lon="4.8845">
        <ele>122.80000305176</ele>
        <time>2024-05-21T12:00:41.000Z</time>
      </trkpt>
      <trkpt lat="44.90528" lon="4.88444">
        <ele>122.80000305176</ele>
        <time>2024-05-21T12:00:42.000Z</time>
      </trkpt>
      <trkpt lat="44.90526" lon="4.88439">
        <ele>122.80000305176</ele>
        <time>2024-05-21T12:00:43.000Z</time>
      </trkpt>
      <trkpt lat="44.90524" lon="4.88436">
        <ele>122.80000305176</ele>
        <time>2024-05-21T12:00:44.000Z</time>
      </trkpt>
      <trkpt lat="44.90523" lon="4.88434">
        <ele>123</ele>
        <time>2024-05-21T12:00:45.000Z</time>
      </trkpt>
      <trkpt lat="44.90522" lon="4.88433">
        <ele>123</ele>
        <time>2024-05-21T12:00:46.000Z</time>
      </trkpt>
      <trkpt lat="44.90522" lon="4.88431">
        <ele>123.19999694824</ele>
        <time>2024-05-21T12:00:47.000Z</time>
      </trkpt>
      <trkpt lat="44.90523" lon="4.88429">
        <ele>123.19999694824</ele>
        <time>2024-05-21T12:00:48.000Z</time>
      </trkpt>
      <trkpt lat="44.90524" lon="4.88426">
        <ele>123.19999694824</ele>
        <time>2024-05-21T12:00:49.000Z</time>
      </trkpt>
      <trkpt lat="44.90525" lon="4.88422">
        <ele>123.19999694824</ele>
        <time>2024-05-21T12:00:50.000Z</time>
      </trkpt>
      <trkpt lat="44.90524" lon="4.88419">
        <ele>123.19999694824</ele>
        <time>2024-05-21T12:00:51.000Z</time>
      </trkpt>
      <trkpt lat="44.90524" lon="4.88417">
        <ele>123.19999694824</ele>
        <time>2024-05-21T12:00:52.000Z</time>
      </trkpt>
      <trkpt lat="44.90524" lon="4.88415">
        <ele>123.40000152588</ele>
        <time>2024-05-21T12:00:53.000Z</time>
      </trkpt>
      <trkpt lat="44.90524" lon="4.88412">
        <ele>123.40000152588</ele>
        <time>2024-05-21T12:00:54.000Z</time>
      </trkpt>
      <trkpt lat="44.90523" lon="4.88409">
        <ele>123.40000152588</ele>
        <time>2024-05-21T12:00:55.000Z</time>
      </trkpt>
      <trkpt lat="44.90522" lon="4.88406">
        <ele>123.59999847412</ele>
        <time>2024-05-21T12:00:56.000Z</time>
      </trkpt>
      <trkpt lat="44.90521" lon="4.88402">
        <ele>123.59999847412</ele>
        <time>2024-05-21T12:00:57.000Z</time>
      </trkpt>
      <trkpt lat="44.9052" lon="4.88399">
        <ele>123.59999847412</ele>
        <time>2024-05-21T12:00:58.000Z</time>
      </trkpt>
      <trkpt lat="44.90518" lon="4.88395">
        <ele>123.59999847412</ele>
        <time>2024-05-21T12:00:59.000Z</time>
      </trkpt>
      <trkpt lat="44.90516" lon="4.88391">
        <ele>123.59999847412</ele>
        <time>2024-05-21T12:01:00.000Z</time>
      </trkpt>
      <trkpt lat="44.90513" lon="4.88388">
        <ele>123.80000305176</ele>
        <time>2024-05-21T12:01:01.000Z</time>
      </trkpt>
      <trkpt lat="44.90511" lon="4.88385">
        <ele>123.80000305176</ele>
        <time>2024-05-21T12:01:02.000Z</time>
      </trkpt>
      <trkpt lat="44.90508" lon="4.88382">
        <ele>123.80000305176</ele>
        <time>2024-05-21T12:01:03.000Z</time>
      </trkpt>
      <trkpt lat="44.90504" lon="4.88379">
        <ele>123.80000305176</ele>
        <time>2024-05-21T12:01:04.000Z</time>
      </trkpt>
      <trkpt lat="44.90501" lon="4.88377">
        <ele>123.80000305176</ele>
        <time>2024-05-21T12:01:05.000Z</time>
      </trkpt>
      <trkpt lat="44.90497" lon="4.88375">
        <ele>123.80000305176</ele>
        <time>2024-05-21T12:01:06.000Z</time>
      </trkpt>
      <trkpt lat="44.90494" lon="4.88373">
        <ele>123.80000305176</ele>
        <time>2024-05-21T12:01:07.000Z</time>
      </trkpt>
      <trkpt lat="44.9049" lon="4.88372">
        <ele>124</ele>
        <time>2024-05-21T12:01:08.000Z</time>
      </trkpt>
      <trkpt lat="44.90487" lon="4.8837">
        <ele>124</ele>
        <time>2024-05-21T12:01:09.000Z</time>
      </trkpt>
      <trkpt lat="44.90483" lon="4.88368">
        <ele>124.19999694824</ele>
        <time>2024-05-21T12:01:10.000Z</time>
      </trkpt>
      <trkpt lat="44.9048" lon="4.88367">
        <ele>124.19999694824</ele>
        <time>2024-05-21T12:01:11.000Z</time>
      </trkpt>
      <trkpt lat="44.90477" lon="4.88365">
        <ele>124.40000152588</ele>
        <time>2024-05-21T12:01:12.000Z</time>
      </trkpt>
      <trkpt lat="44.90473" lon="4.88363">
        <ele>124.59999847412</ele>
        <time>2024-05-21T12:01:13.000Z</time>
      </trkpt>
      <trkpt lat="44.9047" lon="4.88362">
        <ele>124.59999847412</ele>
        <time>2024-05-21T12:01:14.000Z</time>
      </trkpt>
      <trkpt lat="44.90466" lon="4.8836">
        <ele>124.59999847412</ele>
        <time>2024-05-21T12:01:15.000Z</time>
      </trkpt>
      <trkpt lat="44.90462" lon="4.88358">
        <ele>124.80000305176</ele>
        <time>2024-05-21T12:01:16.000Z</time>
      </trkpt>
      <trkpt lat="44.90458" lon="4.88355">
        <ele>124.80000305176</ele>
        <time>2024-05-21T12:01:17.000Z</time>
      </trkpt>
      <trkpt lat="44.90453" lon="4.88353">
        <ele>124.80000305176</ele>
        <time>2024-05-21T12:01:18.000Z</time>
      </trkpt>
      <trkpt lat="44.90448" lon="4.8835">
        <ele>124.80000305176</ele>
        <time>2024-05-21T12:01:19.000Z</time>
      </trkpt>
      <trkpt lat="44.90443" lon="4.88347">
        <ele>124.80000305176</ele>
        <time>2024-05-21T12:01:20.000Z</time>
      </trkpt>
      <trkpt lat="44.90438" lon="4.88345">
        <ele>124.80000305176</ele>
        <time>2024-05-21T12:01:21.000Z</time>
      </trkpt>
      <trkpt lat="44.90432" lon="4.88342">
        <ele>124.40000152588</ele>
        <time>2024-05-21T12:01:22.000Z</time>
      </trkpt>
      <trkpt lat="44.90427" lon="4.88339">
        <ele>123.80000305176</ele>
        <time>2024-05-21T12:01:23.000Z</time>
      </trkpt>
      <trkpt lat="44.90421" lon="4.88336">
        <ele>123.59999847412</ele>
        <time>2024-05-21T12:01:24.000Z</time>
      </trkpt>
      <trkpt lat="44.90415" lon="4.88334">
        <ele>123</ele>
        <time>2024-05-21T12:01:25.000Z</time>
      </trkpt>
      <trkpt lat="44.9041" lon="4.8833">
        <ele>122.40000152588</ele>
        <time>2024-05-21T12:01:26.000Z</time>
      </trkpt>
      <trkpt lat="44.90405" lon="4.88327">
        <ele>122</ele>
        <time>2024-05-21T12:01:27.000Z</time>
      </trkpt>
      <trkpt lat="44.90399" lon="4.88323">
        <ele>121.80000305176</ele>
        <time>2024-05-21T12:01:28.000Z</time>
      </trkpt>
      <trkpt lat="44.90394" lon="4.8832">
        <ele>121.80000305176</ele>
        <time>2024-05-21T12:01:29.000Z</time>
      </trkpt>
      <trkpt lat="44.90388" lon="4.88318">
        <ele>121.80000305176</ele>
        <time>2024-05-21T12:01:30.000Z</time>
      </trkpt>
      <trkpt lat="44.90383" lon="4.88315">
        <ele>121.80000305176</ele>
        <time>2024-05-21T12:01:31.000Z</time>
      </trkpt>
      <trkpt lat="44.90378" lon="4.88313">
        <ele>122</ele>
        <time>2024-05-21T12:01:32.000Z</time>
      </trkpt>
      <trkpt lat="44.90373" lon="4.88312">
        <ele>122.19999694824</ele>
        <time>2024-05-21T12:01:33.000Z</time>
      </trkpt>
      <trkpt lat="44.90368" lon="4.88312">
        <ele>122.59999847412</ele>
        <time>2024-05-21T12:01:34.000Z</time>
      </trkpt>
      <trkpt lat="44.90364" lon="4.88312">
        <ele>122.80000305176</ele>
        <time>2024-05-21T12:01:35.000Z</time>
      </trkpt>
      <trkpt lat="44.90359" lon="4.88312">
        <ele>123</ele>
        <time>2024-05-21T12:01:36.000Z</time>
      </trkpt>
      <trkpt lat="44.90355" lon="4.88311">
        <ele>123.40000152588</ele>
        <time>2024-05-21T12:01:37.000Z</time>
      </trkpt>
      <trkpt lat="44.90351" lon="4.8831">
        <ele>123.59999847412</ele>
        <time>2024-05-21T12:01:38.000Z</time>
      </trkpt>
      <trkpt lat="44.90347" lon="4.88309">
        <ele>124</ele>
        <time>2024-05-21T12:01:39.000Z</time>
      </trkpt>
      <trkpt lat="44.90343" lon="4.88308">
        <ele>124.19999694824</ele>
        <time>2024-05-21T12:01:40.000Z</time>
      </trkpt>
      <trkpt lat="44.90339" lon="4.88306">
        <ele>124.19999694824</ele>
        <time>2024-05-21T12:01:41.000Z</time>
      </trkpt>
      <trkpt lat="44.90335" lon="4.88303">
        <ele>124.40000152588</ele>
        <time>2024-05-21T12:01:42.000Z</time>
      </trkpt>
      <trkpt lat="44.90332" lon="4.88301">
        <ele>124.59999847412</ele>
        <time>2024-05-21T12:01:43.000Z</time>
      </trkpt>
      <trkpt lat="44.90328" lon="4.88299">
        <ele>124.59999847412</ele>
        <time>2024-05-21T12:01:44.000Z</time>
      </trkpt>
      <trkpt lat="44.90325" lon="4.88297">
        <ele>124.59999847412</ele>
        <time>2024-05-21T12:01:45.000Z</time>
      </trkpt>
      <trkpt lat="44.90321" lon="4.88294">
        <ele>124.80000305176</ele>
        <time>2024-05-21T12:01:46.000Z</time>
      </trkpt>
      <trkpt lat="44.90317" lon="4.88292">
        <ele>124.80000305176</ele>
        <time>2024-05-21T12:01:47.000Z</time>
      </trkpt>
      <trkpt lat="44.90313" lon="4.8829">
        <ele>124.80000305176</ele>
        <time>2024-05-21T12:01:48.000Z</time>
      </trkpt>
      <trkpt lat="44.9031" lon="4.88287">
        <ele>124.80000305176</ele>
        <time>2024-05-21T12:01:49.000Z</time>
      </trkpt>
      <trkpt lat="44.90305" lon="4.88285">
        <ele>124.80000305176</ele>
        <time>2024-05-21T12:01:50.000Z</time>
      </trkpt>
      <trkpt lat="44.90301" lon="4.88282">
        <ele>125</ele>
        <time>2024-05-21T12:01:51.000Z</time>
      </trkpt>
      <trkpt lat="44.90297" lon="4.8828">
        <ele>125</ele>
        <time>2024-05-21T12:01:52.000Z</time>
      </trkpt>
      <trkpt lat="44.90292" lon="4.88278">
        <ele>125</ele>
        <time>2024-05-21T12:01:53.000Z</time>
      </trkpt>
      <trkpt lat="44.90288" lon="4.88275">
        <ele>125</ele>
        <time>2024-05-21T12:01:54.000Z</time>
      </trkpt>
      <trkpt lat="44.90283" lon="4.88272">
        <ele>125</ele>
        <time>2024-05-21T12:01:55.000Z</time>
      </trkpt>
      <trkpt lat="44.90279" lon="4.88269">
        <ele>125</ele>
        <time>2024-05-21T12:01:56.000Z</time>
      </trkpt>
      <trkpt lat="44.90274" lon="4.88267">
        <ele>125</ele>
        <time>2024-05-21T12:01:57.000Z</time>
      </trkpt>
      <trkpt lat="44.90269" lon="4.88265">
        <ele>125</ele>
        <time>2024-05-21T12:01:58.000Z</time>
      </trkpt>
      <trkpt lat="44.90264" lon="4.88264">
        <ele>125</ele>
        <time>2024-05-21T12:01:59.000Z</time>
      </trkpt>
      <trkpt lat="44.90259" lon="4.88263">
        <ele>125</ele>
        <time>2024-05-21T12:02:00.000Z</time>
      </trkpt>
      <trkpt lat="44.90255" lon="4.88262">
        <ele>124.80000305176</ele>
        <time>2024-05-21T12:02:01.000Z</time>
      </trkpt>
      <trkpt lat="44.9024" lon="4.8826">
        <ele>124.80000305176</ele>
        <time>2024-05-21T12:02:04.000Z</time>
      </trkpt>
      <trkpt lat="44.90235" lon="4.8826">
        <ele>124.80000305176</ele>
        <time>2024-05-21T12:02:05.000Z</time>
      </trkpt>
      <trkpt lat="44.9023" lon="4.8826">
        <ele>124.80000305176</ele>
        <time>2024-05-21T12:02:06.000Z</time>
      </trkpt>
      <trkpt lat="44.90226" lon="4.88258">
        <ele>124.80000305176</ele>
        <time>2024-05-21T12:02:07.000Z</time>
      </trkpt>
      <trkpt lat="44.90224" lon="4.88254">
        <ele>124.80000305176</ele>
        <time>2024-05-21T12:02:08.000Z</time>
      </trkpt>
      <trkpt lat="44.90221" lon="4.88249">
        <ele>124.80000305176</ele>
        <time>2024-05-21T12:02:09.000Z</time>
      </trkpt>
      <trkpt lat="44.90218" lon="4.88245">
        <ele>124.59999847412</ele>
        <time>2024-05-21T12:02:10.000Z</time>
      </trkpt>
      <trkpt lat="44.90214" lon="4.88242">
        <ele>124.59999847412</ele>
        <time>2024-05-21T12:02:11.000Z</time>
      </trkpt>
      <trkpt lat="44.9021" lon="4.8824">
        <ele>124.40000152588</ele>
        <time>2024-05-21T12:02:12.000Z</time>
      </trkpt>
      <trkpt lat="44.90207" lon="4.88239">
        <ele>124.40000152588</ele>
        <time>2024-05-21T12:02:13.000Z</time>
      </trkpt>
      <trkpt lat="44.90203" lon="4.88239">
        <ele>124.40000152588</ele>
        <time>2024-05-21T12:02:14.000Z</time>
      </trkpt>
      <trkpt lat="44.90199" lon="4.88238">
        <ele>124.40000152588</ele>
        <time>2024-05-21T12:02:15.000Z</time>
      </trkpt>
      <trkpt lat="44.90195" lon="4.88238">
        <ele>124.40000152588</ele>
        <time>2024-05-21T12:02:16.000Z</time>
      </trkpt>
      <trkpt lat="44.90192" lon="4.88238">
        <ele>124.40000152588</ele>
        <time>2024-05-21T12:02:17.000Z</time>
      </trkpt>
      <trkpt lat="44.90188" lon="4.88237">
        <ele>124.40000152588</ele>
        <time>2024-05-21T12:02:18.000Z</time>
      </trkpt>
      <trkpt lat="44.90184" lon="4.88236">
        <ele>124.40000152588</ele>
        <time>2024-05-21T12:02:19.000Z</time>
      </trkpt>
      <trkpt lat="44.90179" lon="4.88236">
        <ele>124.40000152588</ele>
        <time>2024-05-21T12:02:20.000Z</time>
      </trkpt>
      <trkpt lat="44.90175" lon="4.88235">
        <ele>124.40000152588</ele>
        <time>2024-05-21T12:02:21.000Z</time>
      </trkpt>
      <trkpt lat="44.9017" lon="4.88235">
        <ele>124.40000152588</ele>
        <time>2024-05-21T12:02:22.000Z</time>
      </trkpt>
      <trkpt lat="44.90166" lon="4.88235">
        <ele>124.40000152588</ele>
        <time>2024-05-21T12:02:23.000Z</time>
      </trkpt>
      <trkpt lat="44.90161" lon="4.88234">
        <ele>124.19999694824</ele>
        <time>2024-05-21T12:02:24.000Z</time>
      </trkpt>
      <trkpt lat="44.90157" lon="4.88233">
        <ele>124.19999694824</ele>
        <time>2024-05-21T12:02:25.000Z</time>
      </trkpt>
      <trkpt lat="44.90152" lon="4.88233">
        <ele>124.19999694824</ele>
        <time>2024-05-21T12:02:26.000Z</time>
      </trkpt>
      <trkpt lat="44.90147" lon="4.88233">
        <ele>124.19999694824</ele>
        <time>2024-05-21T12:02:27.000Z</time>
      </trkpt>
      <trkpt lat="44.90143" lon="4.88233">
        <ele>124.19999694824</ele>
        <time>2024-05-21T12:02:28.000Z</time>
      </trkpt>
      <trkpt lat="44.90138" lon="4.88233">
        <ele>124.19999694824</ele>
        <time>2024-05-21T12:02:29.000Z</time>
      </trkpt>
      <trkpt lat="44.90133" lon="4.88231">
        <ele>124.19999694824</ele>
        <time>2024-05-21T12:02:30.000Z</time>
      </trkpt>
      <trkpt lat="44.90128" lon="4.88231">
        <ele>124.19999694824</ele>
        <time>2024-05-21T12:02:31.000Z</time>
      </trkpt>
      <trkpt lat="44.90123" lon="4.8823">
        <ele>124</ele>
        <time>2024-05-21T12:02:32.000Z</time>
      </trkpt>
      <trkpt lat="44.90118" lon="4.88229">
        <ele>124</ele>
        <time>2024-05-21T12:02:33.000Z</time>
      </trkpt>
      <trkpt lat="44.90113" lon="4.88228">
        <ele>124</ele>
        <time>2024-05-21T12:02:34.000Z</time>
      </trkpt>
      <trkpt lat="44.90108" lon="4.88227">
        <ele>124</ele>
        <time>2024-05-21T12:02:35.000Z</time>
      </trkpt>
      <trkpt lat="44.90103" lon="4.88227">
        <ele>124</ele>
        <time>2024-05-21T12:02:36.000Z</time>
      </trkpt>
      <trkpt lat="44.90099" lon="4.88226">
        <ele>124</ele>
        <time>2024-05-21T12:02:37.000Z</time>
      </trkpt>
      <trkpt lat="44.90095" lon="4.88226">
        <ele>124</ele>
        <time>2024-05-21T12:02:38.000Z</time>
      </trkpt>
      <trkpt lat="44.9009" lon="4.88226">
        <ele>124</ele>
        <time>2024-05-21T12:02:39.000Z</time>
      </trkpt>
      <trkpt lat="44.90086" lon="4.88225">
        <ele>124</ele>
        <time>2024-05-21T12:02:40.000Z</time>
      </trkpt>
      <trkpt lat="44.90081" lon="4.88224">
        <ele>124.19999694824</ele>
        <time>2024-05-21T12:02:41.000Z</time>
      </trkpt>
      <trkpt lat="44.90077" lon="4.88223">
        <ele>124.19999694824</ele>
        <time>2024-05-21T12:02:42.000Z</time>
      </trkpt>
      <trkpt lat="44.90072" lon="4.88222">
        <ele>124.19999694824</ele>
        <time>2024-05-21T12:02:43.000Z</time>
      </trkpt>
      <trkpt lat="44.90068" lon="4.88222">
        <ele>124.19999694824</ele>
        <time>2024-05-21T12:02:44.000Z</time>
      </trkpt>
      <trkpt lat="44.90063" lon="4.88221">
        <ele>124.19999694824</ele>
        <time>2024-05-21T12:02:45.000Z</time>
      </trkpt>
      <trkpt lat="44.90059" lon="4.8822">
        <ele>124.19999694824</ele>
        <time>2024-05-21T12:02:46.000Z</time>
      </trkpt>
      <trkpt lat="44.90056" lon="4.88219">
        <ele>124.19999694824</ele>
        <time>2024-05-21T12:02:47.000Z</time>
      </trkpt>
      <trkpt lat="44.90052" lon="4.88218">
        <ele>124.19999694824</ele>
        <time>2024-05-21T12:02:48.000Z</time>
      </trkpt>
      <trkpt lat="44.90049" lon="4.88215">
        <ele>124.19999694824</ele>
        <time>2024-05-21T12:02:49.000Z</time>
      </trkpt>
      <trkpt lat="44.90045" lon="4.88213">
        <ele>124.19999694824</ele>
        <time>2024-05-21T12:02:50.000Z</time>
      </trkpt>
      <trkpt lat="44.90041" lon="4.88211">
        <ele>124.19999694824</ele>
        <time>2024-05-21T12:02:51.000Z</time>
      </trkpt>
      <trkpt lat="44.90038" lon="4.8821">
        <ele>124.19999694824</ele>
        <time>2024-05-21T12:02:52.000Z</time>
      </trkpt>
      <trkpt lat="44.90034" lon="4.88209">
        <ele>124</ele>
        <time>2024-05-21T12:02:53.000Z</time>
      </trkpt>
      <trkpt lat="44.90029" lon="4.88208">
        <ele>123.80000305176</ele>
        <time>2024-05-21T12:02:54.000Z</time>
      </trkpt>
      <trkpt lat="44.90025" lon="4.88207">
        <ele>123.80000305176</ele>
        <time>2024-05-21T12:02:55.000Z</time>
      </trkpt>
      <trkpt lat="44.9002" lon="4.88206">
        <ele>123.80000305176</ele>
        <time>2024-05-21T12:02:56.000Z</time>
      </trkpt>
      <trkpt lat="44.90016" lon="4.88205">
        <ele>123.59999847412</ele>
        <time>2024-05-21T12:02:57.000Z</time>
      </trkpt>
      <trkpt lat="44.90011" lon="4.88205">
        <ele>123.40000152588</ele>
        <time>2024-05-21T12:02:58.000Z</time>
      </trkpt>
      <trkpt lat="44.90006" lon="4.88204">
        <ele>123.19999694824</ele>
        <time>2024-05-21T12:02:59.000Z</time>
      </trkpt>
      <trkpt lat="44.90002" lon="4.88203">
        <ele>123.19999694824</ele>
        <time>2024-05-21T12:03:00.000Z</time>
      </trkpt>
      <trkpt lat="44.89997" lon="4.88203">
        <ele>123.19999694824</ele>
        <time>2024-05-21T12:03:01.000Z</time>
      </trkpt>
      <trkpt lat="44.89992" lon="4.88202">
        <ele>123.19999694824</ele>
        <time>2024-05-21T12:03:02.000Z</time>
      </trkpt>
      <trkpt lat="44.89987" lon="4.88201">
        <ele>123.19999694824</ele>
        <time>2024-05-21T12:03:03.000Z</time>
      </trkpt>
      <trkpt lat="44.89983" lon="4.882">
        <ele>123.40000152588</ele>
        <time>2024-05-21T12:03:04.000Z</time>
      </trkpt>
      <trkpt lat="44.89978" lon="4.882">
        <ele>123.40000152588</ele>
        <time>2024-05-21T12:03:05.000Z</time>
      </trkpt>
      <trkpt lat="44.89972" lon="4.88199">
        <ele>123.40000152588</ele>
        <time>2024-05-21T12:03:06.000Z</time>
      </trkpt>
      <trkpt lat="44.89967" lon="4.88198">
        <ele>123.40000152588</ele>
        <time>2024-05-21T12:03:07.000Z</time>
      </trkpt>
      <trkpt lat="44.89962" lon="4.88198">
        <ele>123.40000152588</ele>
        <time>2024-05-21T12:03:08.000Z</time>
      </trkpt>
      <trkpt lat="44.89957" lon="4.88197">
        <ele>123.40000152588</ele>
        <time>2024-05-21T12:03:09.000Z</time>
      </trkpt>
      <trkpt lat="44.89952" lon="4.88196">
        <ele>123.40000152588</ele>
        <time>2024-05-21T12:03:10.000Z</time>
      </trkpt>
      <trkpt lat="44.89946" lon="4.88195">
        <ele>123.40000152588</ele>
        <time>2024-05-21T12:03:11.000Z</time>
      </trkpt>
      <trkpt lat="44.89941" lon="4.88195">
        <ele>123.40000152588</ele>
        <time>2024-05-21T12:03:12.000Z</time>
      </trkpt>
      <trkpt lat="44.89936" lon="4.88193">
        <ele>123.19999694824</ele>
        <time>2024-05-21T12:03:13.000Z</time>
      </trkpt>
      <trkpt lat="44.8993" lon="4.88192">
        <ele>123.19999694824</ele>
        <time>2024-05-21T12:03:14.000Z</time>
      </trkpt>
      <trkpt lat="44.89925" lon="4.88191">
        <ele>123.19999694824</ele>
        <time>2024-05-21T12:03:15.000Z</time>
      </trkpt>
      <trkpt lat="44.8992" lon="4.8819">
        <ele>123.19999694824</ele>
        <time>2024-05-21T12:03:16.000Z</time>
      </trkpt>
      <trkpt lat="44.89914" lon="4.88189">
        <ele>123.19999694824</ele>
        <time>2024-05-21T12:03:17.000Z</time>
      </trkpt>
      <trkpt lat="44.89909" lon="4.88188">
        <ele>123.19999694824</ele>
        <time>2024-05-21T12:03:18.000Z</time>
      </trkpt>
      <trkpt lat="44.89903" lon="4.88187">
        <ele>123.19999694824</ele>
        <time>2024-05-21T12:03:19.000Z</time>
      </trkpt>
      <trkpt lat="44.89898" lon="4.88186">
        <ele>123.19999694824</ele>
        <time>2024-05-21T12:03:20.000Z</time>
      </trkpt>
      <trkpt lat="44.89893" lon="4.88185">
        <ele>123.19999694824</ele>
        <time>2024-05-21T12:03:21.000Z</time>
      </trkpt>
      <trkpt lat="44.89887" lon="4.88185">
        <ele>123.19999694824</ele>
        <time>2024-05-21T12:03:22.000Z</time>
      </trkpt>
      <trkpt lat="44.89882" lon="4.88184">
        <ele>123.19999694824</ele>
        <time>2024-05-21T12:03:23.000Z</time>
      </trkpt>
      <trkpt lat="44.89876" lon="4.88183">
        <ele>123</ele>
        <time>2024-05-21T12:03:24.000Z</time>
      </trkpt>
      <trkpt lat="44.89871" lon="4.88182">
        <ele>123</ele>
        <time>2024-05-21T12:03:25.000Z</time>
      </trkpt>
      <trkpt lat="44.89865" lon="4.88181">
        <ele>122.80000305176</ele>
        <time>2024-05-21T12:03:26.000Z</time>
      </trkpt>
      <trkpt lat="44.8986" lon="4.8818">
        <ele>122.59999847412</ele>
        <time>2024-05-21T12:03:27.000Z</time>
      </trkpt>
      <trkpt lat="44.89855" lon="4.88179">
        <ele>122.59999847412</ele>
        <time>2024-05-21T12:03:28.000Z</time>
      </trkpt>
      <trkpt lat="44.89849" lon="4.88178">
        <ele>122.59999847412</ele>
        <time>2024-05-21T12:03:29.000Z</time>
      </trkpt>
      <trkpt lat="44.89844" lon="4.88177">
        <ele>122.59999847412</ele>
        <time>2024-05-21T12:03:30.000Z</time>
      </trkpt>
      <trkpt lat="44.89838" lon="4.88176">
        <ele>122.59999847412</ele>
        <time>2024-05-21T12:03:31.000Z</time>
      </trkpt>
      <trkpt lat="44.89833" lon="4.88175">
        <ele>122.59999847412</ele>
        <time>2024-05-21T12:03:32.000Z</time>
      </trkpt>
      <trkpt lat="44.89828" lon="4.88175">
        <ele>122.59999847412</ele>
        <time>2024-05-21T12:03:33.000Z</time>
      </trkpt>
      <trkpt lat="44.89822" lon="4.88174">
        <ele>122.59999847412</ele>
        <time>2024-05-21T12:03:34.000Z</time>
      </trkpt>
      <trkpt lat="44.89817" lon="4.88172">
        <ele>122.59999847412</ele>
        <time>2024-05-21T12:03:35.000Z</time>
      </trkpt>
      <trkpt lat="44.89811" lon="4.88171">
        <ele>122.59999847412</ele>
        <time>2024-05-21T12:03:36.000Z</time>
      </trkpt>
      <trkpt lat="44.89806" lon="4.88171">
        <ele>122.59999847412</ele>
        <time>2024-05-21T12:03:37.000Z</time>
      </trkpt>
      <trkpt lat="44.898" lon="4.8817">
        <ele>122.59999847412</ele>
        <time>2024-05-21T12:03:38.000Z</time>
      </trkpt>
      <trkpt lat="44.89795" lon="4.88169">
        <ele>122.40000152588</ele>
        <time>2024-05-21T12:03:39.000Z</time>
      </trkpt>
      <trkpt lat="44.8979" lon="4.88168">
        <ele>122.40000152588</ele>
        <time>2024-05-21T12:03:40.000Z</time>
      </trkpt>
      <trkpt lat="44.89784" lon="4.88167">
        <ele>122.40000152588</ele>
        <time>2024-05-21T12:03:41.000Z</time>
      </trkpt>
      <trkpt lat="44.89779" lon="4.88166">
        <ele>122.40000152588</ele>
        <time>2024-05-21T12:03:42.000Z</time>
      </trkpt>
      <trkpt lat="44.89774" lon="4.88165">
        <ele>122.19999694824</ele>
        <time>2024-05-21T12:03:43.000Z</time>
      </trkpt>
      <trkpt lat="44.89768" lon="4.88164">
        <ele>122.19999694824</ele>
        <time>2024-05-21T12:03:44.000Z</time>
      </trkpt>
      <trkpt lat="44.89763" lon="4.88163">
        <ele>122.19999694824</ele>
        <time>2024-05-21T12:03:45.000Z</time>
      </trkpt>
      <trkpt lat="44.89758" lon="4.88162">
        <ele>122.19999694824</ele>
        <time>2024-05-21T12:03:46.000Z</time>
      </trkpt>
      <trkpt lat="44.89753" lon="4.88161">
        <ele>122.19999694824</ele>
        <time>2024-05-21T12:03:47.000Z</time>
      </trkpt>
      <trkpt lat="44.89747" lon="4.88161">
        <ele>122.19999694824</ele>
        <time>2024-05-21T12:03:48.000Z</time>
      </trkpt>
      <trkpt lat="44.89742" lon="4.8816">
        <ele>122.19999694824</ele>
        <time>2024-05-21T12:03:49.000Z</time>
      </trkpt>
      <trkpt lat="44.89737" lon="4.88159">
        <ele>122.19999694824</ele>
        <time>2024-05-21T12:03:50.000Z</time>
      </trkpt>
      <trkpt lat="44.89732" lon="4.88158">
        <ele>122.19999694824</ele>
        <time>2024-05-21T12:03:51.000Z</time>
      </trkpt>
      <trkpt lat="44.89726" lon="4.88157">
        <ele>122.19999694824</ele>
        <time>2024-05-21T12:03:52.000Z</time>
      </trkpt>
      <trkpt lat="44.89721" lon="4.88156">
        <ele>122.19999694824</ele>
        <time>2024-05-21T12:03:53.000Z</time>
      </trkpt>
      <trkpt lat="44.89716" lon="4.88155">
        <ele>122.19999694824</ele>
        <time>2024-05-21T12:03:54.000Z</time>
      </trkpt>
      <trkpt lat="44.89711" lon="4.88154">
        <ele>122.19999694824</ele>
        <time>2024-05-21T12:03:55.000Z</time>
      </trkpt>
      <trkpt lat="44.89706" lon="4.88153">
        <ele>122.19999694824</ele>
        <time>2024-05-21T12:03:56.000Z</time>
      </trkpt>
      <trkpt lat="44.89701" lon="4.88152">
        <ele>122.19999694824</ele>
        <time>2024-05-21T12:03:57.000Z</time>
      </trkpt>
      <trkpt lat="44.89695" lon="4.88152">
        <ele>122.19999694824</ele>
        <time>2024-05-21T12:03:58.000Z</time>
      </trkpt>
      <trkpt lat="44.8969" lon="4.88151">
        <ele>122.19999694824</ele>
        <time>2024-05-21T12:03:59.000Z</time>
      </trkpt>
      <trkpt lat="44.89685" lon="4.8815">
        <ele>122.19999694824</ele>
        <time>2024-05-21T12:04:00.000Z</time>
      </trkpt>
      <trkpt lat="44.8968" lon="4.88149">
        <ele>122</ele>
        <time>2024-05-21T12:04:01.000Z</time>
      </trkpt>
      <trkpt lat="44.89675" lon="4.88148">
        <ele>122</ele>
        <time>2024-05-21T12:04:02.000Z</time>
      </trkpt>
      <trkpt lat="44.8967" lon="4.88147">
        <ele>122</ele>
        <time>2024-05-21T12:04:03.000Z</time>
      </trkpt>
      <trkpt lat="44.89665" lon="4.88146">
        <ele>122</ele>
        <time>2024-05-21T12:04:04.000Z</time>
      </trkpt>
      <trkpt lat="44.8966" lon="4.88146">
        <ele>122</ele>
        <time>2024-05-21T12:04:05.000Z</time>
      </trkpt>
      <trkpt lat="44.89655" lon="4.88145">
        <ele>121.80000305176</ele>
        <time>2024-05-21T12:04:06.000Z</time>
      </trkpt>
      <trkpt lat="44.8965" lon="4.88144">
        <ele>121.80000305176</ele>
        <time>2024-05-21T12:04:07.000Z</time>
      </trkpt>
      <trkpt lat="44.89645" lon="4.88143">
        <ele>121.59999847412</ele>
        <time>2024-05-21T12:04:08.000Z</time>
      </trkpt>
      <trkpt lat="44.8964" lon="4.88142">
        <ele>121.59999847412</ele>
        <time>2024-05-21T12:04:09.000Z</time>
      </trkpt>
      <trkpt lat="44.89635" lon="4.88141">
        <ele>121.59999847412</ele>
        <time>2024-05-21T12:04:10.000Z</time>
      </trkpt>
      <trkpt lat="44.8963" lon="4.8814">
        <ele>121.59999847412</ele>
        <time>2024-05-21T12:04:11.000Z</time>
      </trkpt>
      <trkpt lat="44.89626" lon="4.88139">
        <ele>121.59999847412</ele>
        <time>2024-05-21T12:04:12.000Z</time>
      </trkpt>
      <trkpt lat="44.89621" lon="4.88138">
        <ele>121.59999847412</ele>
        <time>2024-05-21T12:04:13.000Z</time>
      </trkpt>
      <trkpt lat="44.89616" lon="4.88138">
        <ele>121.40000152588</ele>
        <time>2024-05-21T12:04:14.000Z</time>
      </trkpt>
      <trkpt lat="44.89611" lon="4.88137">
        <ele>121.40000152588</ele>
        <time>2024-05-21T12:04:15.000Z</time>
      </trkpt>
      <trkpt lat="44.89606" lon="4.88136">
        <ele>121.40000152588</ele>
        <time>2024-05-21T12:04:16.000Z</time>
      </trkpt>
      <trkpt lat="44.89601" lon="4.88135">
        <ele>121.40000152588</ele>
        <time>2024-05-21T12:04:17.000Z</time>
      </trkpt>
      <trkpt lat="44.89596" lon="4.88134">
        <ele>121.59999847412</ele>
        <time>2024-05-21T12:04:18.000Z</time>
      </trkpt>
      <trkpt lat="44.89591" lon="4.88133">
        <ele>121.80000305176</ele>
        <time>2024-05-21T12:04:19.000Z</time>
      </trkpt>
      <trkpt lat="44.89586" lon="4.88132">
        <ele>121.80000305176</ele>
        <time>2024-05-21T12:04:20.000Z</time>
      </trkpt>
      <trkpt lat="44.89581" lon="4.88131">
        <ele>121.80000305176</ele>
        <time>2024-05-21T12:04:21.000Z</time>
      </trkpt>
      <trkpt lat="44.89576" lon="4.8813">
        <ele>121.80000305176</ele>
        <time>2024-05-21T12:04:22.000Z</time>
      </trkpt>
      <trkpt lat="44.89571" lon="4.88129">
        <ele>121.80000305176</ele>
        <time>2024-05-21T12:04:23.000Z</time>
      </trkpt>
      <trkpt lat="44.89566" lon="4.88129">
        <ele>121.80000305176</ele>
        <time>2024-05-21T12:04:24.000Z</time>
      </trkpt>
      <trkpt lat="44.89561" lon="4.88128">
        <ele>121.59999847412</ele>
        <time>2024-05-21T12:04:25.000Z</time>
      </trkpt>
      <trkpt lat="44.89556" lon="4.88127">
        <ele>121.59999847412</ele>
        <time>2024-05-21T12:04:26.000Z</time>
      </trkpt>
      <trkpt lat="44.89551" lon="4.88126">
        <ele>121.59999847412</ele>
        <time>2024-05-21T12:04:27.000Z</time>
      </trkpt>
      <trkpt lat="44.89546" lon="4.88125">
        <ele>121.59999847412</ele>
        <time>2024-05-21T12:04:28.000Z</time>
      </trkpt>
      <trkpt lat="44.89541" lon="4.88124">
        <ele>121.59999847412</ele>
        <time>2024-05-21T12:04:29.000Z</time>
      </trkpt>
      <trkpt lat="44.89536" lon="4.88123">
        <ele>121.59999847412</ele>
        <time>2024-05-21T12:04:30.000Z</time>
      </trkpt>
      <trkpt lat="44.89531" lon="4.88122">
        <ele>121.40000152588</ele>
        <time>2024-05-21T12:04:31.000Z</time>
      </trkpt>
      <trkpt lat="44.89526" lon="4.88121">
        <ele>121.19999694824</ele>
        <time>2024-05-21T12:04:32.000Z</time>
      </trkpt>
      <trkpt lat="44.89521" lon="4.8812">
        <ele>121.19999694824</ele>
        <time>2024-05-21T12:04:33.000Z</time>
      </trkpt>
      <trkpt lat="44.89516" lon="4.88119">
        <ele>121.19999694824</ele>
        <time>2024-05-21T12:04:34.000Z</time>
      </trkpt>
      <trkpt lat="44.89511" lon="4.88119">
        <ele>121.19999694824</ele>
        <time>2024-05-21T12:04:35.000Z</time>
      </trkpt>
      <trkpt lat="44.89506" lon="4.88118">
        <ele>121.19999694824</ele>
        <time>2024-05-21T12:04:36.000Z</time>
      </trkpt>
      <trkpt lat="44.89501" lon="4.88117">
        <ele>121.19999694824</ele>
        <time>2024-05-21T12:04:37.000Z</time>
      </trkpt>
      <trkpt lat="44.89496" lon="4.88116">
        <ele>121.19999694824</ele>
        <time>2024-05-21T12:04:38.000Z</time>
      </trkpt>
      <trkpt lat="44.89491" lon="4.88115">
        <ele>121.19999694824</ele>
        <time>2024-05-21T12:04:39.000Z</time>
      </trkpt>
      <trkpt lat="44.89486" lon="4.88114">
        <ele>121</ele>
        <time>2024-05-21T12:04:40.000Z</time>
      </trkpt>
      <trkpt lat="44.89481" lon="4.88113">
        <ele>120.80000305176</ele>
        <time>2024-05-21T12:04:41.000Z</time>
      </trkpt>
      <trkpt lat="44.89476" lon="4.88111">
        <ele>120.80000305176</ele>
        <time>2024-05-21T12:04:42.000Z</time>
      </trkpt>
      <trkpt lat="44.89471" lon="4.88111">
        <ele>120.80000305176</ele>
        <time>2024-05-21T12:04:43.000Z</time>
      </trkpt>
      <trkpt lat="44.89465" lon="4.8811">
        <ele>120.80000305176</ele>
        <time>2024-05-21T12:04:44.000Z</time>
      </trkpt>
      <trkpt lat="44.89461" lon="4.88109">
        <ele>120.80000305176</ele>
        <time>2024-05-21T12:04:45.000Z</time>
      </trkpt>
      <trkpt lat="44.89456" lon="4.88108">
        <ele>120.80000305176</ele>
        <time>2024-05-21T12:04:46.000Z</time>
      </trkpt>
      <trkpt lat="44.89451" lon="4.88107">
        <ele>120.80000305176</ele>
        <time>2024-05-21T12:04:47.000Z</time>
      </trkpt>
      <trkpt lat="44.89446" lon="4.88106">
        <ele>120.80000305176</ele>
        <time>2024-05-21T12:04:48.000Z</time>
      </trkpt>
      <trkpt lat="44.89441" lon="4.88105">
        <ele>120.80000305176</ele>
        <time>2024-05-21T12:04:49.000Z</time>
      </trkpt>
      <trkpt lat="44.89436" lon="4.88105">
        <ele>120.59999847412</ele>
        <time>2024-05-21T12:04:50.000Z</time>
      </trkpt>
      <trkpt lat="44.89431" lon="4.88104">
        <ele>120.40000152588</ele>
        <time>2024-05-21T12:04:51.000Z</time>
      </trkpt>
      <trkpt lat="44.89426" lon="4.88103">
        <ele>120.40000152588</ele>
        <time>2024-05-21T12:04:52.000Z</time>
      </trkpt>
      <trkpt lat="44.89421" lon="4.88102">
        <ele>120.40000152588</ele>
        <time>2024-05-21T12:04:53.000Z</time>
      </trkpt>
      <trkpt lat="44.89416" lon="4.88101">
        <ele>120.40000152588</ele>
        <time>2024-05-21T12:04:54.000Z</time>
      </trkpt>
      <trkpt lat="44.89411" lon="4.881">
        <ele>120.40000152588</ele>
        <time>2024-05-21T12:04:55.000Z</time>
      </trkpt>
      <trkpt lat="44.89406" lon="4.88099">
        <ele>120.40000152588</ele>
        <time>2024-05-21T12:04:56.000Z</time>
      </trkpt>
      <trkpt lat="44.89401" lon="4.88098">
        <ele>120.40000152588</ele>
        <time>2024-05-21T12:04:57.000Z</time>
      </trkpt>
      <trkpt lat="44.89397" lon="4.88097">
        <ele>120.40000152588</ele>
        <time>2024-05-21T12:04:58.000Z</time>
      </trkpt>
      <trkpt lat="44.89392" lon="4.88096">
        <ele>120.40000152588</ele>
        <time>2024-05-21T12:04:59.000Z</time>
      </trkpt>
      <trkpt lat="44.89387" lon="4.88095">
        <ele>120.40000152588</ele>
        <time>2024-05-21T12:05:00.000Z</time>
      </trkpt>
      <trkpt lat="44.89382" lon="4.88094">
        <ele>120.40000152588</ele>
        <time>2024-05-21T12:05:01.000Z</time>
      </trkpt>
      <trkpt lat="44.89377" lon="4.88093">
        <ele>120.40000152588</ele>
        <time>2024-05-21T12:05:02.000Z</time>
      </trkpt>
      <trkpt lat="44.89372" lon="4.88092">
        <ele>120.59999847412</ele>
        <time>2024-05-21T12:05:03.000Z</time>
      </trkpt>
      <trkpt lat="44.89367" lon="4.88091">
        <ele>120.59999847412</ele>
        <time>2024-05-21T12:05:04.000Z</time>
      </trkpt>
      <trkpt lat="44.89362" lon="4.8809">
        <ele>120.59999847412</ele>
        <time>2024-05-21T12:05:05.000Z</time>
      </trkpt>
      <trkpt lat="44.89357" lon="4.88089">
        <ele>120.59999847412</ele>
        <time>2024-05-21T12:05:06.000Z</time>
      </trkpt>
      <trkpt lat="44.89353" lon="4.88088">
        <ele>120.59999847412</ele>
        <time>2024-05-21T12:05:07.000Z</time>
      </trkpt>
      <trkpt lat="44.89348" lon="4.88088">
        <ele>120.59999847412</ele>
        <time>2024-05-21T12:05:08.000Z</time>
      </trkpt>
      <trkpt lat="44.89343" lon="4.88087">
        <ele>120.59999847412</ele>
        <time>2024-05-21T12:05:09.000Z</time>
      </trkpt>
      <trkpt lat="44.89339" lon="4.88086">
        <ele>120.59999847412</ele>
        <time>2024-05-21T12:05:10.000Z</time>
      </trkpt>
      <trkpt lat="44.89334" lon="4.88086">
        <ele>120.59999847412</ele>
        <time>2024-05-21T12:05:11.000Z</time>
      </trkpt>
      <trkpt lat="44.8933" lon="4.88086">
        <ele>120.59999847412</ele>
        <time>2024-05-21T12:05:12.000Z</time>
      </trkpt>
      <trkpt lat="44.89326" lon="4.88087">
        <ele>120.59999847412</ele>
        <time>2024-05-21T12:05:13.000Z</time>
      </trkpt>
      <trkpt lat="44.89323" lon="4.88088">
        <ele>120.59999847412</ele>
        <time>2024-05-21T12:05:14.000Z</time>
      </trkpt>
      <trkpt lat="44.89319" lon="4.88091">
        <ele>120.80000305176</ele>
        <time>2024-05-21T12:05:15.000Z</time>
      </trkpt>
      <trkpt lat="44.89316" lon="4.88093">
        <ele>120.80000305176</ele>
        <time>2024-05-21T12:05:16.000Z</time>
      </trkpt>
      <trkpt lat="44.89314" lon="4.88095">
        <ele>120.80000305176</ele>
        <time>2024-05-21T12:05:17.000Z</time>
      </trkpt>
      <trkpt lat="44.89311" lon="4.88097">
        <ele>120.80000305176</ele>
        <time>2024-05-21T12:05:18.000Z</time>
      </trkpt>
      <trkpt lat="44.89308" lon="4.88098">
        <ele>121</ele>
        <time>2024-05-21T12:05:19.000Z</time>
      </trkpt>
      <trkpt lat="44.89306" lon="4.881">
        <ele>121</ele>
        <time>2024-05-21T12:05:20.000Z</time>
      </trkpt>
      <trkpt lat="44.89304" lon="4.88101">
        <ele>121</ele>
        <time>2024-05-21T12:05:21.000Z</time>
      </trkpt>
      <trkpt lat="44.89303" lon="4.88102">
        <ele>121.19999694824</ele>
        <time>2024-05-21T12:05:22.000Z</time>
      </trkpt>
      <trkpt lat="44.89301" lon="4.88103">
        <ele>121.40000152588</ele>
        <time>2024-05-21T12:05:23.000Z</time>
      </trkpt>
      <trkpt lat="44.89301" lon="4.88103">
        <ele>121.59999847412</ele>
        <time>2024-05-21T12:05:24.000Z</time>
      </trkpt>
      <trkpt lat="44.89301" lon="4.88103">
        <ele>121.59999847412</ele>
        <time>2024-05-21T12:05:25.000Z</time>
      </trkpt>
      <trkpt lat="44.89301" lon="4.88103">
        <ele>121.59999847412</ele>
        <time>2024-05-21T12:05:26.000Z</time>
      </trkpt>
      <trkpt lat="44.89295" lon="4.88104">
        <ele>121.80000305176</ele>
        <time>2024-05-21T12:06:59.000Z</time>
      </trkpt>
      <trkpt lat="44.89293" lon="4.88104">
        <ele>121.59999847412</ele>
        <time>2024-05-21T12:07:00.000Z</time>
      </trkpt>
      <trkpt lat="44.89292" lon="4.88105">
        <ele>121.40000152588</ele>
        <time>2024-05-21T12:07:01.000Z</time>
      </trkpt>
      <trkpt lat="44.8929" lon="4.88106">
        <ele>121.40000152588</ele>
        <time>2024-05-21T12:07:02.000Z</time>
      </trkpt>
      <trkpt lat="44.89288" lon="4.88105">
        <ele>121.40000152588</ele>
        <time>2024-05-21T12:07:03.000Z</time>
      </trkpt>
      <trkpt lat="44.89287" lon="4.88104">
        <ele>121.40000152588</ele>
        <time>2024-05-21T12:07:04.000Z</time>
      </trkpt>
      <trkpt lat="44.89285" lon="4.88102">
        <ele>121.40000152588</ele>
        <time>2024-05-21T12:07:05.000Z</time>
      </trkpt>
      <trkpt lat="44.89284" lon="4.88099">
        <ele>121.40000152588</ele>
        <time>2024-05-21T12:07:06.000Z</time>
      </trkpt>
      <trkpt lat="44.89282" lon="4.88096">
        <ele>121.40000152588</ele>
        <time>2024-05-21T12:07:07.000Z</time>
      </trkpt>
      <trkpt lat="44.89279" lon="4.88093">
        <ele>121.40000152588</ele>
        <time>2024-05-21T12:07:08.000Z</time>
      </trkpt>
      <trkpt lat="44.89276" lon="4.88089">
        <ele>121.40000152588</ele>
        <time>2024-05-21T12:07:09.000Z</time>
      </trkpt>
      <trkpt lat="44.89272" lon="4.88086">
        <ele>121.19999694824</ele>
        <time>2024-05-21T12:07:10.000Z</time>
      </trkpt>
      <trkpt lat="44.89269" lon="4.88083">
        <ele>121.19999694824</ele>
        <time>2024-05-21T12:07:11.000Z</time>
      </trkpt>
      <trkpt lat="44.89265" lon="4.88079">
        <ele>121.19999694824</ele>
        <time>2024-05-21T12:07:12.000Z</time>
      </trkpt>
      <trkpt lat="44.89262" lon="4.88076">
        <ele>121.19999694824</ele>
        <time>2024-05-21T12:07:13.000Z</time>
      </trkpt>
      <trkpt lat="44.89258" lon="4.88073">
        <ele>121.19999694824</ele>
        <time>2024-05-21T12:07:14.000Z</time>
      </trkpt>
      <trkpt lat="44.89255" lon="4.88071">
        <ele>121</ele>
        <time>2024-05-21T12:07:15.000Z</time>
      </trkpt>
      <trkpt lat="44.8925" lon="4.88069">
        <ele>121</ele>
        <time>2024-05-21T12:07:16.000Z</time>
      </trkpt>
      <trkpt lat="44.89246" lon="4.88068">
        <ele>121</ele>
        <time>2024-05-21T12:07:17.000Z</time>
      </trkpt>
      <trkpt lat="44.89242" lon="4.88067">
        <ele>121</ele>
        <time>2024-05-21T12:07:18.000Z</time>
      </trkpt>
      <trkpt lat="44.89237" lon="4.88066">
        <ele>121</ele>
        <time>2024-05-21T12:07:19.000Z</time>
      </trkpt>
      <trkpt lat="44.89233" lon="4.88066">
        <ele>121</ele>
        <time>2024-05-21T12:07:20.000Z</time>
      </trkpt>
      <trkpt lat="44.89228" lon="4.88065">
        <ele>121</ele>
        <time>2024-05-21T12:07:21.000Z</time>
      </trkpt>
      <trkpt lat="44.89223" lon="4.88064">
        <ele>121</ele>
        <time>2024-05-21T12:07:22.000Z</time>
      </trkpt>
      <trkpt lat="44.89219" lon="4.88063">
        <ele>121</ele>
        <time>2024-05-21T12:07:23.000Z</time>
      </trkpt>
      <trkpt lat="44.89214" lon="4.88061">
        <ele>121</ele>
        <time>2024-05-21T12:07:24.000Z</time>
      </trkpt>
      <trkpt lat="44.89208" lon="4.8806">
        <ele>121</ele>
        <time>2024-05-21T12:07:25.000Z</time>
      </trkpt>
      <trkpt lat="44.89203" lon="4.88059">
        <ele>121</ele>
        <time>2024-05-21T12:07:26.000Z</time>
      </trkpt>
      <trkpt lat="44.89198" lon="4.88058">
        <ele>121</ele>
        <time>2024-05-21T12:07:27.000Z</time>
      </trkpt>
      <trkpt lat="44.89193" lon="4.88057">
        <ele>121</ele>
        <time>2024-05-21T12:07:28.000Z</time>
      </trkpt>
      <trkpt lat="44.89188" lon="4.88056">
        <ele>121</ele>
        <time>2024-05-21T12:07:29.000Z</time>
      </trkpt>
      <trkpt lat="44.89182" lon="4.88055">
        <ele>121</ele>
        <time>2024-05-21T12:07:30.000Z</time>
      </trkpt>
      <trkpt lat="44.89177" lon="4.88054">
        <ele>121</ele>
        <time>2024-05-21T12:07:31.000Z</time>
      </trkpt>
      <trkpt lat="44.89172" lon="4.88053">
        <ele>121</ele>
        <time>2024-05-21T12:07:32.000Z</time>
      </trkpt>
      <trkpt lat="44.89167" lon="4.88052">
        <ele>121</ele>
        <time>2024-05-21T12:07:33.000Z</time>
      </trkpt>
      <trkpt lat="44.89162" lon="4.88051">
        <ele>121</ele>
        <time>2024-05-21T12:07:34.000Z</time>
      </trkpt>
      <trkpt lat="44.89156" lon="4.88051">
        <ele>121</ele>
        <time>2024-05-21T12:07:35.000Z</time>
      </trkpt>
      <trkpt lat="44.89151" lon="4.8805">
        <ele>121</ele>
        <time>2024-05-21T12:07:36.000Z</time>
      </trkpt>
      <trkpt lat="44.89146" lon="4.88049">
        <ele>121</ele>
        <time>2024-05-21T12:07:37.000Z</time>
      </trkpt>
      <trkpt lat="44.89141" lon="4.88048">
        <ele>121</ele>
        <time>2024-05-21T12:07:38.000Z</time>
      </trkpt>
      <trkpt lat="44.89136" lon="4.88046">
        <ele>121</ele>
        <time>2024-05-21T12:07:39.000Z</time>
      </trkpt>
      <trkpt lat="44.8913" lon="4.88045">
        <ele>121</ele>
        <time>2024-05-21T12:07:40.000Z</time>
      </trkpt>
      <trkpt lat="44.89125" lon="4.88044">
        <ele>120.80000305176</ele>
        <time>2024-05-21T12:07:41.000Z</time>
      </trkpt>
      <trkpt lat="44.89119" lon="4.88044">
        <ele>120.80000305176</ele>
        <time>2024-05-21T12:07:42.000Z</time>
      </trkpt>
      <trkpt lat="44.89114" lon="4.88043">
        <ele>120.80000305176</ele>
        <time>2024-05-21T12:07:43.000Z</time>
      </trkpt>
      <trkpt lat="44.8911" lon="4.88042">
        <ele>120.80000305176</ele>
        <time>2024-05-21T12:07:44.000Z</time>
      </trkpt>
      <trkpt lat="44.89104" lon="4.88041">
        <ele>120.80000305176</ele>
        <time>2024-05-21T12:07:45.000Z</time>
      </trkpt>
      <trkpt lat="44.89099" lon="4.8804">
        <ele>120.80000305176</ele>
        <time>2024-05-21T12:07:46.000Z</time>
      </trkpt>
      <trkpt lat="44.89094" lon="4.88039">
        <ele>120.80000305176</ele>
        <time>2024-05-21T12:07:47.000Z</time>
      </trkpt>
      <trkpt lat="44.89089" lon="4.88038">
        <ele>120.80000305176</ele>
        <time>2024-05-21T12:07:48.000Z</time>
      </trkpt>
      <trkpt lat="44.89084" lon="4.88036">
        <ele>121</ele>
        <time>2024-05-21T12:07:49.000Z</time>
      </trkpt>
      <trkpt lat="44.89079" lon="4.88035">
        <ele>121</ele>
        <time>2024-05-21T12:07:50.000Z</time>
      </trkpt>
      <trkpt lat="44.89074" lon="4.88034">
        <ele>121</ele>
        <time>2024-05-21T12:07:51.000Z</time>
      </trkpt>
      <trkpt lat="44.89068" lon="4.88033">
        <ele>121</ele>
        <time>2024-05-21T12:07:52.000Z</time>
      </trkpt>
      <trkpt lat="44.89063" lon="4.88031">
        <ele>121.19999694824</ele>
        <time>2024-05-21T12:07:53.000Z</time>
      </trkpt>
      <trkpt lat="44.89058" lon="4.8803">
        <ele>121.19999694824</ele>
        <time>2024-05-21T12:07:54.000Z</time>
      </trkpt>
      <trkpt lat="44.89052" lon="4.88029">
        <ele>121.40000152588</ele>
        <time>2024-05-21T12:07:55.000Z</time>
      </trkpt>
      <trkpt lat="44.89047" lon="4.88028">
        <ele>121.40000152588</ele>
        <time>2024-05-21T12:07:56.000Z</time>
      </trkpt>
      <trkpt lat="44.89041" lon="4.88027">
        <ele>121.40000152588</ele>
        <time>2024-05-21T12:07:57.000Z</time>
      </trkpt>
      <trkpt lat="44.89036" lon="4.88026">
        <ele>121.40000152588</ele>
        <time>2024-05-21T12:07:58.000Z</time>
      </trkpt>
      <trkpt lat="44.89031" lon="4.88025">
        <ele>121.40000152588</ele>
        <time>2024-05-21T12:07:59.000Z</time>
      </trkpt>
      <trkpt lat="44.89026" lon="4.88024">
        <ele>121.40000152588</ele>
        <time>2024-05-21T12:08:00.000Z</time>
      </trkpt>
      <trkpt lat="44.8902" lon="4.88022">
        <ele>121.40000152588</ele>
        <time>2024-05-21T12:08:01.000Z</time>
      </trkpt>
      <trkpt lat="44.89015" lon="4.88021">
        <ele>121.40000152588</ele>
        <time>2024-05-21T12:08:02.000Z</time>
      </trkpt>
      <trkpt lat="44.8901" lon="4.88021">
        <ele>121.40000152588</ele>
        <time>2024-05-21T12:08:03.000Z</time>
      </trkpt>
      <trkpt lat="44.89004" lon="4.8802">
        <ele>121.40000152588</ele>
        <time>2024-05-21T12:08:04.000Z</time>
      </trkpt>
      <trkpt lat="44.88999" lon="4.88019">
        <ele>121.40000152588</ele>
        <time>2024-05-21T12:08:05.000Z</time>
      </trkpt>
      <trkpt lat="44.88994" lon="4.88018">
        <ele>121.40000152588</ele>
        <time>2024-05-21T12:08:06.000Z</time>
      </trkpt>
      <trkpt lat="44.88989" lon="4.88017">
        <ele>121.40000152588</ele>
        <time>2024-05-21T12:08:07.000Z</time>
      </trkpt>
      <trkpt lat="44.88984" lon="4.88016">
        <ele>121.40000152588</ele>
        <time>2024-05-21T12:08:08.000Z</time>
      </trkpt>
      <trkpt lat="44.88979" lon="4.88015">
        <ele>121.19999694824</ele>
        <time>2024-05-21T12:08:09.000Z</time>
      </trkpt>
      <trkpt lat="44.88974" lon="4.88014">
        <ele>121</ele>
        <time>2024-05-21T12:08:10.000Z</time>
      </trkpt>
      <trkpt lat="44.88969" lon="4.88013">
        <ele>120.80000305176</ele>
        <time>2024-05-21T12:08:11.000Z</time>
      </trkpt>
      <trkpt lat="44.88964" lon="4.88012">
        <ele>120.80000305176</ele>
        <time>2024-05-21T12:08:12.000Z</time>
      </trkpt>
      <trkpt lat="44.88959" lon="4.88011">
        <ele>120.80000305176</ele>
        <time>2024-05-21T12:08:13.000Z</time>
      </trkpt>
      <trkpt lat="44.88954" lon="4.8801">
        <ele>120.80000305176</ele>
        <time>2024-05-21T12:08:14.000Z</time>
      </trkpt>
      <trkpt lat="44.88948" lon="4.88009">
        <ele>120.80000305176</ele>
        <time>2024-05-21T12:08:15.000Z</time>
      </trkpt>
      <trkpt lat="44.88943" lon="4.88008">
        <ele>121</ele>
        <time>2024-05-21T12:08:16.000Z</time>
      </trkpt>
      <trkpt lat="44.88938" lon="4.88007">
        <ele>121</ele>
        <time>2024-05-21T12:08:17.000Z</time>
      </trkpt>
      <trkpt lat="44.88933" lon="4.88006">
        <ele>121.19999694824</ele>
        <time>2024-05-21T12:08:18.000Z</time>
      </trkpt>
      <trkpt lat="44.88928" lon="4.88004">
        <ele>121.40000152588</ele>
        <time>2024-05-21T12:08:19.000Z</time>
      </trkpt>
      <trkpt lat="44.88923" lon="4.88003">
        <ele>121.40000152588</ele>
        <time>2024-05-21T12:08:20.000Z</time>
      </trkpt>
      <trkpt lat="44.88918" lon="4.88002">
        <ele>121.40000152588</ele>
        <time>2024-05-21T12:08:21.000Z</time>
      </trkpt>
      <trkpt lat="44.88913" lon="4.88001">
        <ele>121.40000152588</ele>
        <time>2024-05-21T12:08:22.000Z</time>
      </trkpt>
      <trkpt lat="44.88908" lon="4.88">
        <ele>121.59999847412</ele>
        <time>2024-05-21T12:08:23.000Z</time>
      </trkpt>
      <trkpt lat="44.88903" lon="4.87999">
        <ele>121.40000152588</ele>
        <time>2024-05-21T12:08:24.000Z</time>
      </trkpt>
      <trkpt lat="44.88898" lon="4.87998">
        <ele>121.40000152588</ele>
        <time>2024-05-21T12:08:25.000Z</time>
      </trkpt>
      <trkpt lat="44.88893" lon="4.87997">
        <ele>121.40000152588</ele>
        <time>2024-05-21T12:08:26.000Z</time>
      </trkpt>
      <trkpt lat="44.88888" lon="4.87996">
        <ele>121.40000152588</ele>
        <time>2024-05-21T12:08:27.000Z</time>
      </trkpt>
      <trkpt lat="44.88883" lon="4.87995">
        <ele>121.40000152588</ele>
        <time>2024-05-21T12:08:28.000Z</time>
      </trkpt>
      <trkpt lat="44.88878" lon="4.87994">
        <ele>121.59999847412</ele>
        <time>2024-05-21T12:08:29.000Z</time>
      </trkpt>
      <trkpt lat="44.88874" lon="4.87993">
        <ele>121.59999847412</ele>
        <time>2024-05-21T12:08:30.000Z</time>
      </trkpt>
      <trkpt lat="44.88869" lon="4.87992">
        <ele>121.59999847412</ele>
        <time>2024-05-21T12:08:31.000Z</time>
      </trkpt>
      <trkpt lat="44.88865" lon="4.87991">
        <ele>121.59999847412</ele>
        <time>2024-05-21T12:08:32.000Z</time>
      </trkpt>
      <trkpt lat="44.88859" lon="4.87991">
        <ele>121.80000305176</ele>
        <time>2024-05-21T12:08:33.000Z</time>
      </trkpt>
      <trkpt lat="44.88855" lon="4.8799">
        <ele>121.80000305176</ele>
        <time>2024-05-21T12:08:34.000Z</time>
      </trkpt>
      <trkpt lat="44.8885" lon="4.87989">
        <ele>122</ele>
        <time>2024-05-21T12:08:35.000Z</time>
      </trkpt>
      <trkpt lat="44.88846" lon="4.87988">
        <ele>122</ele>
        <time>2024-05-21T12:08:36.000Z</time>
      </trkpt>
      <trkpt lat="44.88841" lon="4.87987">
        <ele>122</ele>
        <time>2024-05-21T12:08:37.000Z</time>
      </trkpt>
      <trkpt lat="44.88836" lon="4.87986">
        <ele>122</ele>
        <time>2024-05-21T12:08:38.000Z</time>
      </trkpt>
      <trkpt lat="44.88831" lon="4.87986">
        <ele>122</ele>
        <time>2024-05-21T12:08:39.000Z</time>
      </trkpt>
      <trkpt lat="44.88827" lon="4.87985">
        <ele>122</ele>
        <time>2024-05-21T12:08:40.000Z</time>
      </trkpt>
      <trkpt lat="44.88822" lon="4.87984">
        <ele>122</ele>
        <time>2024-05-21T12:08:41.000Z</time>
      </trkpt>
      <trkpt lat="44.88817" lon="4.87983">
        <ele>122</ele>
        <time>2024-05-21T12:08:42.000Z</time>
      </trkpt>
      <trkpt lat="44.88812" lon="4.87982">
        <ele>122</ele>
        <time>2024-05-21T12:08:43.000Z</time>
      </trkpt>
      <trkpt lat="44.88807" lon="4.87981">
        <ele>122</ele>
        <time>2024-05-21T12:08:44.000Z</time>
      </trkpt>
      <trkpt lat="44.88802" lon="4.8798">
        <ele>122.19999694824</ele>
        <time>2024-05-21T12:08:45.000Z</time>
      </trkpt>
      <trkpt lat="44.88797" lon="4.87979">
        <ele>122.19999694824</ele>
        <time>2024-05-21T12:08:46.000Z</time>
      </trkpt>
      <trkpt lat="44.88792" lon="4.87978">
        <ele>122.19999694824</ele>
        <time>2024-05-21T12:08:47.000Z</time>
      </trkpt>
      <trkpt lat="44.88787" lon="4.87977">
        <ele>122.40000152588</ele>
        <time>2024-05-21T12:08:48.000Z</time>
      </trkpt>
      <trkpt lat="44.88782" lon="4.87976">
        <ele>122.40000152588</ele>
        <time>2024-05-21T12:08:49.000Z</time>
      </trkpt>
      <trkpt lat="44.88777" lon="4.87975">
        <ele>122.40000152588</ele>
        <time>2024-05-21T12:08:50.000Z</time>
      </trkpt>
      <trkpt lat="44.88772" lon="4.87974">
        <ele>122.40000152588</ele>
        <time>2024-05-21T12:08:51.000Z</time>
      </trkpt>
      <trkpt lat="44.88767" lon="4.87973">
        <ele>122.40000152588</ele>
        <time>2024-05-21T12:08:52.000Z</time>
      </trkpt>
      <trkpt lat="44.88762" lon="4.87972">
        <ele>122.40000152588</ele>
        <time>2024-05-21T12:08:53.000Z</time>
      </trkpt>
      <trkpt lat="44.88757" lon="4.87971">
        <ele>122.40000152588</ele>
        <time>2024-05-21T12:08:54.000Z</time>
      </trkpt>
      <trkpt lat="44.88752" lon="4.8797">
        <ele>122.40000152588</ele>
        <time>2024-05-21T12:08:55.000Z</time>
      </trkpt>
      <trkpt lat="44.88747" lon="4.87969">
        <ele>122.19999694824</ele>
        <time>2024-05-21T12:08:56.000Z</time>
      </trkpt>
      <trkpt lat="44.88742" lon="4.87968">
        <ele>122.19999694824</ele>
        <time>2024-05-21T12:08:57.000Z</time>
      </trkpt>
      <trkpt lat="44.88737" lon="4.87967">
        <ele>122.19999694824</ele>
        <time>2024-05-21T12:08:58.000Z</time>
      </trkpt>
      <trkpt lat="44.88732" lon="4.87967">
        <ele>122.19999694824</ele>
        <time>2024-05-21T12:08:59.000Z</time>
      </trkpt>
      <trkpt lat="44.88727" lon="4.87966">
        <ele>122.19999694824</ele>
        <time>2024-05-21T12:09:00.000Z</time>
      </trkpt>
      <trkpt lat="44.88722" lon="4.87965">
        <ele>122.19999694824</ele>
        <time>2024-05-21T12:09:01.000Z</time>
      </trkpt>
      <trkpt lat="44.88717" lon="4.87963">
        <ele>122.19999694824</ele>
        <time>2024-05-21T12:09:02.000Z</time>
      </trkpt>
      <trkpt lat="44.88712" lon="4.87962">
        <ele>122</ele>
        <time>2024-05-21T12:09:03.000Z</time>
      </trkpt>
      <trkpt lat="44.88708" lon="4.87961">
        <ele>122</ele>
        <time>2024-05-21T12:09:04.000Z</time>
      </trkpt>
      <trkpt lat="44.88703" lon="4.8796">
        <ele>122.19999694824</ele>
        <time>2024-05-21T12:09:05.000Z</time>
      </trkpt>
      <trkpt lat="44.88699" lon="4.87959">
        <ele>122.19999694824</ele>
        <time>2024-05-21T12:09:06.000Z</time>
      </trkpt>
      <trkpt lat="44.88694" lon="4.87958">
        <ele>122.19999694824</ele>
        <time>2024-05-21T12:09:07.000Z</time>
      </trkpt>
      <trkpt lat="44.8869" lon="4.87958">
        <ele>122.19999694824</ele>
        <time>2024-05-21T12:09:08.000Z</time>
      </trkpt>
      <trkpt lat="44.88685" lon="4.87957">
        <ele>122.19999694824</ele>
        <time>2024-05-21T12:09:09.000Z</time>
      </trkpt>
      <trkpt lat="44.8868" lon="4.87956">
        <ele>122.19999694824</ele>
        <time>2024-05-21T12:09:10.000Z</time>
      </trkpt>
      <trkpt lat="44.88676" lon="4.87956">
        <ele>122.19999694824</ele>
        <time>2024-05-21T12:09:11.000Z</time>
      </trkpt>
      <trkpt lat="44.88671" lon="4.87955">
        <ele>122.40000152588</ele>
        <time>2024-05-21T12:09:12.000Z</time>
      </trkpt>
      <trkpt lat="44.88666" lon="4.87954">
        <ele>122.40000152588</ele>
        <time>2024-05-21T12:09:13.000Z</time>
      </trkpt>
      <trkpt lat="44.88661" lon="4.87953">
        <ele>122.40000152588</ele>
        <time>2024-05-21T12:09:14.000Z</time>
      </trkpt>
      <trkpt lat="44.88656" lon="4.87952">
        <ele>122.40000152588</ele>
        <time>2024-05-21T12:09:15.000Z</time>
      </trkpt>
      <trkpt lat="44.88651" lon="4.87951">
        <ele>122.40000152588</ele>
        <time>2024-05-21T12:09:16.000Z</time>
      </trkpt>
      <trkpt lat="44.88647" lon="4.8795">
        <ele>122.19999694824</ele>
        <time>2024-05-21T12:09:17.000Z</time>
      </trkpt>
      <trkpt lat="44.88642" lon="4.87949">
        <ele>122</ele>
        <time>2024-05-21T12:09:18.000Z</time>
      </trkpt>
      <trkpt lat="44.88637" lon="4.87948">
        <ele>122</ele>
        <time>2024-05-21T12:09:19.000Z</time>
      </trkpt>
      <trkpt lat="44.88632" lon="4.87947">
        <ele>122</ele>
        <time>2024-05-21T12:09:20.000Z</time>
      </trkpt>
      <trkpt lat="44.88627" lon="4.87946">
        <ele>121.80000305176</ele>
        <time>2024-05-21T12:09:21.000Z</time>
      </trkpt>
      <trkpt lat="44.88623" lon="4.87945">
        <ele>121.80000305176</ele>
        <time>2024-05-21T12:09:22.000Z</time>
      </trkpt>
      <trkpt lat="44.88618" lon="4.87944">
        <ele>121.80000305176</ele>
        <time>2024-05-21T12:09:23.000Z</time>
      </trkpt>
      <trkpt lat="44.88614" lon="4.87943">
        <ele>121.80000305176</ele>
        <time>2024-05-21T12:09:24.000Z</time>
      </trkpt>
      <trkpt lat="44.88609" lon="4.87942">
        <ele>121.80000305176</ele>
        <time>2024-05-21T12:09:25.000Z</time>
      </trkpt>
      <trkpt lat="44.88605" lon="4.87941">
        <ele>121.80000305176</ele>
        <time>2024-05-21T12:09:26.000Z</time>
      </trkpt>
      <trkpt lat="44.88601" lon="4.87941">
        <ele>121.80000305176</ele>
        <time>2024-05-21T12:09:27.000Z</time>
      </trkpt>
      <trkpt lat="44.88597" lon="4.8794">
        <ele>121.80000305176</ele>
        <time>2024-05-21T12:09:28.000Z</time>
      </trkpt>
      <trkpt lat="44.88593" lon="4.8794">
        <ele>121.80000305176</ele>
        <time>2024-05-21T12:09:29.000Z</time>
      </trkpt>
      <trkpt lat="44.88589" lon="4.87939">
        <ele>121.80000305176</ele>
        <time>2024-05-21T12:09:30.000Z</time>
      </trkpt>
      <trkpt lat="44.88585" lon="4.87938">
        <ele>121.80000305176</ele>
        <time>2024-05-21T12:09:31.000Z</time>
      </trkpt>
      <trkpt lat="44.88581" lon="4.87937">
        <ele>121.80000305176</ele>
        <time>2024-05-21T12:09:32.000Z</time>
      </trkpt>
      <trkpt lat="44.88578" lon="4.87937">
        <ele>121.80000305176</ele>
        <time>2024-05-21T12:09:33.000Z</time>
      </trkpt>
      <trkpt lat="44.88575" lon="4.87935">
        <ele>121.80000305176</ele>
        <time>2024-05-21T12:09:34.000Z</time>
      </trkpt>
      <trkpt lat="44.88572" lon="4.87933">
        <ele>121.80000305176</ele>
        <time>2024-05-21T12:09:35.000Z</time>
      </trkpt>
      <trkpt lat="44.88569" lon="4.87931">
        <ele>121.80000305176</ele>
        <time>2024-05-21T12:09:36.000Z</time>
      </trkpt>
      <trkpt lat="44.88568" lon="4.87928">
        <ele>121.80000305176</ele>
        <time>2024-05-21T12:09:37.000Z</time>
      </trkpt>
      <trkpt lat="44.88566" lon="4.87924">
        <ele>121.80000305176</ele>
        <time>2024-05-21T12:09:38.000Z</time>
      </trkpt>
      <trkpt lat="44.88565" lon="4.8792">
        <ele>121.80000305176</ele>
        <time>2024-05-21T12:09:39.000Z</time>
      </trkpt>
      <trkpt lat="44.88562" lon="4.87915">
        <ele>121.80000305176</ele>
        <time>2024-05-21T12:09:40.000Z</time>
      </trkpt>
      <trkpt lat="44.8856" lon="4.8791">
        <ele>121.80000305176</ele>
        <time>2024-05-21T12:09:41.000Z</time>
      </trkpt>
      <trkpt lat="44.88557" lon="4.87905">
        <ele>122</ele>
        <time>2024-05-21T12:09:42.000Z</time>
      </trkpt>
      <trkpt lat="44.88554" lon="4.87901">
        <ele>122</ele>
        <time>2024-05-21T12:09:43.000Z</time>
      </trkpt>
      <trkpt lat="44.8855" lon="4.87898">
        <ele>122</ele>
        <time>2024-05-21T12:09:44.000Z</time>
      </trkpt>
      <trkpt lat="44.88545" lon="4.87896">
        <ele>122</ele>
        <time>2024-05-21T12:09:45.000Z</time>
      </trkpt>
      <trkpt lat="44.88541" lon="4.87895">
        <ele>121.80000305176</ele>
        <time>2024-05-21T12:09:46.000Z</time>
      </trkpt>
      <trkpt lat="44.88537" lon="4.87896">
        <ele>121.40000152588</ele>
        <time>2024-05-21T12:09:47.000Z</time>
      </trkpt>
      <trkpt lat="44.88532" lon="4.87898">
        <ele>121.40000152588</ele>
        <time>2024-05-21T12:09:48.000Z</time>
      </trkpt>
      <trkpt lat="44.88528" lon="4.87901">
        <ele>121.40000152588</ele>
        <time>2024-05-21T12:09:49.000Z</time>
      </trkpt>
      <trkpt lat="44.88523" lon="4.87904">
        <ele>121.40000152588</ele>
        <time>2024-05-21T12:09:50.000Z</time>
      </trkpt>
      <trkpt lat="44.88519" lon="4.87906">
        <ele>121.19999694824</ele>
        <time>2024-05-21T12:09:51.000Z</time>
      </trkpt>
      <trkpt lat="44.88514" lon="4.87908">
        <ele>121.19999694824</ele>
        <time>2024-05-21T12:09:52.000Z</time>
      </trkpt>
      <trkpt lat="44.88509" lon="4.87908">
        <ele>121.19999694824</ele>
        <time>2024-05-21T12:09:53.000Z</time>
      </trkpt>
      <trkpt lat="44.88504" lon="4.87908">
        <ele>121.19999694824</ele>
        <time>2024-05-21T12:09:54.000Z</time>
      </trkpt>
      <trkpt lat="44.88499" lon="4.87908">
        <ele>121</ele>
        <time>2024-05-21T12:09:55.000Z</time>
      </trkpt>
      <trkpt lat="44.88494" lon="4.87907">
        <ele>121</ele>
        <time>2024-05-21T12:09:56.000Z</time>
      </trkpt>
      <trkpt lat="44.88489" lon="4.87906">
        <ele>120.80000305176</ele>
        <time>2024-05-21T12:09:57.000Z</time>
      </trkpt>
      <trkpt lat="44.88484" lon="4.87906">
        <ele>120.59999847412</ele>
        <time>2024-05-21T12:09:58.000Z</time>
      </trkpt>
      <trkpt lat="44.88479" lon="4.87905">
        <ele>120.40000152588</ele>
        <time>2024-05-21T12:09:59.000Z</time>
      </trkpt>
      <trkpt lat="44.88474" lon="4.87904">
        <ele>120.40000152588</ele>
        <time>2024-05-21T12:10:00.000Z</time>
      </trkpt>
      <trkpt lat="44.88468" lon="4.87903">
        <ele>120.40000152588</ele>
        <time>2024-05-21T12:10:01.000Z</time>
      </trkpt>
      <trkpt lat="44.88463" lon="4.87902">
        <ele>120.40000152588</ele>
        <time>2024-05-21T12:10:02.000Z</time>
      </trkpt>
      <trkpt lat="44.88458" lon="4.87901">
        <ele>120.80000305176</ele>
        <time>2024-05-21T12:10:03.000Z</time>
      </trkpt>
      <trkpt lat="44.88453" lon="4.87899">
        <ele>120.80000305176</ele>
        <time>2024-05-21T12:10:04.000Z</time>
      </trkpt>
      <trkpt lat="44.88448" lon="4.87898">
        <ele>121.19999694824</ele>
        <time>2024-05-21T12:10:05.000Z</time>
      </trkpt>
      <trkpt lat="44.88443" lon="4.87897">
        <ele>121.19999694824</ele>
        <time>2024-05-21T12:10:06.000Z</time>
      </trkpt>
      <trkpt lat="44.88437" lon="4.87896">
        <ele>121.40000152588</ele>
        <time>2024-05-21T12:10:07.000Z</time>
      </trkpt>
      <trkpt lat="44.88432" lon="4.87895">
        <ele>121.40000152588</ele>
        <time>2024-05-21T12:10:08.000Z</time>
      </trkpt>
      <trkpt lat="44.88427" lon="4.87894">
        <ele>121.40000152588</ele>
        <time>2024-05-21T12:10:09.000Z</time>
      </trkpt>
      <trkpt lat="44.88422" lon="4.87893">
        <ele>121.40000152588</ele>
        <time>2024-05-21T12:10:10.000Z</time>
      </trkpt>
      <trkpt lat="44.88417" lon="4.87892">
        <ele>121.40000152588</ele>
        <time>2024-05-21T12:10:11.000Z</time>
      </trkpt>
      <trkpt lat="44.88412" lon="4.87891">
        <ele>121.40000152588</ele>
        <time>2024-05-21T12:10:12.000Z</time>
      </trkpt>
      <trkpt lat="44.88406" lon="4.8789">
        <ele>121.59999847412</ele>
        <time>2024-05-21T12:10:13.000Z</time>
      </trkpt>
      <trkpt lat="44.88401" lon="4.87889">
        <ele>121.59999847412</ele>
        <time>2024-05-21T12:10:14.000Z</time>
      </trkpt>
      <trkpt lat="44.88396" lon="4.87888">
        <ele>121.59999847412</ele>
        <time>2024-05-21T12:10:15.000Z</time>
      </trkpt>
      <trkpt lat="44.88391" lon="4.87887">
        <ele>121.59999847412</ele>
        <time>2024-05-21T12:10:16.000Z</time>
      </trkpt>
      <trkpt lat="44.88386" lon="4.87886">
        <ele>121.59999847412</ele>
        <time>2024-05-21T12:10:17.000Z</time>
      </trkpt>
      <trkpt lat="44.8838" lon="4.87885">
        <ele>121.59999847412</ele>
        <time>2024-05-21T12:10:18.000Z</time>
      </trkpt>
      <trkpt lat="44.88375" lon="4.87883">
        <ele>121.59999847412</ele>
        <time>2024-05-21T12:10:19.000Z</time>
      </trkpt>
      <trkpt lat="44.8837" lon="4.87882">
        <ele>121.59999847412</ele>
        <time>2024-05-21T12:10:20.000Z</time>
      </trkpt>
      <trkpt lat="44.88365" lon="4.87881">
        <ele>121.59999847412</ele>
        <time>2024-05-21T12:10:21.000Z</time>
      </trkpt>
      <trkpt lat="44.8836" lon="4.8788">
        <ele>121.59999847412</ele>
        <time>2024-05-21T12:10:22.000Z</time>
      </trkpt>
      <trkpt lat="44.88356" lon="4.87879">
        <ele>121.59999847412</ele>
        <time>2024-05-21T12:10:23.000Z</time>
      </trkpt>
      <trkpt lat="44.88351" lon="4.87878">
        <ele>121.59999847412</ele>
        <time>2024-05-21T12:10:24.000Z</time>
      </trkpt>
      <trkpt lat="44.88347" lon="4.87877">
        <ele>121.59999847412</ele>
        <time>2024-05-21T12:10:25.000Z</time>
      </trkpt>
      <trkpt lat="44.88343" lon="4.87876">
        <ele>121.59999847412</ele>
        <time>2024-05-21T12:10:26.000Z</time>
      </trkpt>
      <trkpt lat="44.88339" lon="4.87875">
        <ele>121.59999847412</ele>
        <time>2024-05-21T12:10:27.000Z</time>
      </trkpt>
      <trkpt lat="44.88336" lon="4.87874">
        <ele>121.59999847412</ele>
        <time>2024-05-21T12:10:28.000Z</time>
      </trkpt>
      <trkpt lat="44.88332" lon="4.87874">
        <ele>121.59999847412</ele>
        <time>2024-05-21T12:10:29.000Z</time>
      </trkpt>
      <trkpt lat="44.8833" lon="4.87874">
        <ele>121.59999847412</ele>
        <time>2024-05-21T12:10:30.000Z</time>
      </trkpt>
      <trkpt lat="44.88327" lon="4.87874">
        <ele>121.80000305176</ele>
        <time>2024-05-21T12:10:31.000Z</time>
      </trkpt>
      <trkpt lat="44.88325" lon="4.87874">
        <ele>121.80000305176</ele>
        <time>2024-05-21T12:10:32.000Z</time>
      </trkpt>
      <trkpt lat="44.88323" lon="4.87874">
        <ele>121.80000305176</ele>
        <time>2024-05-21T12:10:33.000Z</time>
      </trkpt>
      <trkpt lat="44.88322" lon="4.87874">
        <ele>121.80000305176</ele>
        <time>2024-05-21T12:10:34.000Z</time>
      </trkpt>
      <trkpt lat="44.88321" lon="4.87874">
        <ele>121.80000305176</ele>
        <time>2024-05-21T12:10:35.000Z</time>
      </trkpt>
      <trkpt lat="44.88321" lon="4.87874">
        <ele>121.80000305176</ele>
        <time>2024-05-21T12:10:36.000Z</time>
      </trkpt>
      <trkpt lat="44.88313" lon="4.87874">
        <ele>121.59999847412</ele>
        <time>2024-05-21T12:11:07.000Z</time>
      </trkpt>
      <trkpt lat="44.88308" lon="4.87875">
        <ele>121.59999847412</ele>
        <time>2024-05-21T12:11:08.000Z</time>
      </trkpt>
      <trkpt lat="44.88304" lon="4.87876">
        <ele>121.40000152588</ele>
        <time>2024-05-21T12:11:09.000Z</time>
      </trkpt>
      <trkpt lat="44.88299" lon="4.87877">
        <ele>121.19999694824</ele>
        <time>2024-05-21T12:11:10.000Z</time>
      </trkpt>
      <trkpt lat="44.88294" lon="4.87876">
        <ele>120.80000305176</ele>
        <time>2024-05-21T12:11:11.000Z</time>
      </trkpt>
      <trkpt lat="44.8829" lon="4.87876">
        <ele>120.80000305176</ele>
        <time>2024-05-21T12:11:12.000Z</time>
      </trkpt>
      <trkpt lat="44.88284" lon="4.87875">
        <ele>120.59999847412</ele>
        <time>2024-05-21T12:11:13.000Z</time>
      </trkpt>
      <trkpt lat="44.88279" lon="4.87873">
        <ele>120.59999847412</ele>
        <time>2024-05-21T12:11:14.000Z</time>
      </trkpt>
      <trkpt lat="44.88274" lon="4.87871">
        <ele>120.59999847412</ele>
        <time>2024-05-21T12:11:15.000Z</time>
      </trkpt>
      <trkpt lat="44.88269" lon="4.87867">
        <ele>120.59999847412</ele>
        <time>2024-05-21T12:11:16.000Z</time>
      </trkpt>
      <trkpt lat="44.88264" lon="4.87865">
        <ele>120.40000152588</ele>
        <time>2024-05-21T12:11:17.000Z</time>
      </trkpt>
      <trkpt lat="44.88259" lon="4.87863">
        <ele>120.40000152588</ele>
        <time>2024-05-21T12:11:18.000Z</time>
      </trkpt>
      <trkpt lat="44.88254" lon="4.87861">
        <ele>120</ele>
        <time>2024-05-21T12:11:19.000Z</time>
      </trkpt>
      <trkpt lat="44.88248" lon="4.8786">
        <ele>120</ele>
        <time>2024-05-21T12:11:20.000Z</time>
      </trkpt>
      <trkpt lat="44.88243" lon="4.87859">
        <ele>120</ele>
        <time>2024-05-21T12:11:21.000Z</time>
      </trkpt>
      <trkpt lat="44.88238" lon="4.87858">
        <ele>119.80000305176</ele>
        <time>2024-05-21T12:11:22.000Z</time>
      </trkpt>
      <trkpt lat="44.88232" lon="4.87857">
        <ele>119.80000305176</ele>
        <time>2024-05-21T12:11:23.000Z</time>
      </trkpt>
      <trkpt lat="44.88227" lon="4.87856">
        <ele>119.80000305176</ele>
        <time>2024-05-21T12:11:24.000Z</time>
      </trkpt>
      <trkpt lat="44.88222" lon="4.87856">
        <ele>119.80000305176</ele>
        <time>2024-05-21T12:11:25.000Z</time>
      </trkpt>
      <trkpt lat="44.88216" lon="4.87855">
        <ele>119.80000305176</ele>
        <time>2024-05-21T12:11:26.000Z</time>
      </trkpt>
      <trkpt lat="44.88211" lon="4.87854">
        <ele>119.59999847412</ele>
        <time>2024-05-21T12:11:27.000Z</time>
      </trkpt>
      <trkpt lat="44.88206" lon="4.87853">
        <ele>119.40000152588</ele>
        <time>2024-05-21T12:11:28.000Z</time>
      </trkpt>
      <trkpt lat="44.88201" lon="4.87851">
        <ele>119.40000152588</ele>
        <time>2024-05-21T12:11:29.000Z</time>
      </trkpt>
      <trkpt lat="44.88196" lon="4.8785">
        <ele>119.40000152588</ele>
        <time>2024-05-21T12:11:30.000Z</time>
      </trkpt>
      <trkpt lat="44.88191" lon="4.87849">
        <ele>119.40000152588</ele>
        <time>2024-05-21T12:11:31.000Z</time>
      </trkpt>
      <trkpt lat="44.88185" lon="4.87847">
        <ele>119.59999847412</ele>
        <time>2024-05-21T12:11:32.000Z</time>
      </trkpt>
      <trkpt lat="44.8818" lon="4.87846">
        <ele>119.59999847412</ele>
        <time>2024-05-21T12:11:33.000Z</time>
      </trkpt>
      <trkpt lat="44.88175" lon="4.87845">
        <ele>119.59999847412</ele>
        <time>2024-05-21T12:11:34.000Z</time>
      </trkpt>
      <trkpt lat="44.8817" lon="4.87844">
        <ele>119.59999847412</ele>
        <time>2024-05-21T12:11:35.000Z</time>
      </trkpt>
      <trkpt lat="44.88165" lon="4.87843">
        <ele>119.40000152588</ele>
        <time>2024-05-21T12:11:36.000Z</time>
      </trkpt>
      <trkpt lat="44.8816" lon="4.87842">
        <ele>119.19999694824</ele>
        <time>2024-05-21T12:11:37.000Z</time>
      </trkpt>
      <trkpt lat="44.88155" lon="4.87841">
        <ele>119</ele>
        <time>2024-05-21T12:11:38.000Z</time>
      </trkpt>
      <trkpt lat="44.8815" lon="4.8784">
        <ele>119</ele>
        <time>2024-05-21T12:11:39.000Z</time>
      </trkpt>
      <trkpt lat="44.88145" lon="4.8784">
        <ele>118.80000305176</ele>
        <time>2024-05-21T12:11:40.000Z</time>
      </trkpt>
      <trkpt lat="44.8814" lon="4.87839">
        <ele>118.80000305176</ele>
        <time>2024-05-21T12:11:41.000Z</time>
      </trkpt>
      <trkpt lat="44.88135" lon="4.87838">
        <ele>118.80000305176</ele>
        <time>2024-05-21T12:11:42.000Z</time>
      </trkpt>
      <trkpt lat="44.8813" lon="4.87837">
        <ele>118.80000305176</ele>
        <time>2024-05-21T12:11:43.000Z</time>
      </trkpt>
      <trkpt lat="44.88125" lon="4.87836">
        <ele>118.80000305176</ele>
        <time>2024-05-21T12:11:44.000Z</time>
      </trkpt>
      <trkpt lat="44.8812" lon="4.87834">
        <ele>118.80000305176</ele>
        <time>2024-05-21T12:11:45.000Z</time>
      </trkpt>
      <trkpt lat="44.88115" lon="4.87832">
        <ele>118.80000305176</ele>
        <time>2024-05-21T12:11:46.000Z</time>
      </trkpt>
      <trkpt lat="44.8811" lon="4.87831">
        <ele>119</ele>
        <time>2024-05-21T12:11:47.000Z</time>
      </trkpt>
      <trkpt lat="44.88105" lon="4.87829">
        <ele>119</ele>
        <time>2024-05-21T12:11:48.000Z</time>
      </trkpt>
      <trkpt lat="44.881" lon="4.87828">
        <ele>119</ele>
        <time>2024-05-21T12:11:49.000Z</time>
      </trkpt>
      <trkpt lat="44.88095" lon="4.87828">
        <ele>119</ele>
        <time>2024-05-21T12:11:50.000Z</time>
      </trkpt>
      <trkpt lat="44.88091" lon="4.87827">
        <ele>119</ele>
        <time>2024-05-21T12:11:51.000Z</time>
      </trkpt>
      <trkpt lat="44.88086" lon="4.87826">
        <ele>119</ele>
        <time>2024-05-21T12:11:52.000Z</time>
      </trkpt>
      <trkpt lat="44.88081" lon="4.87825">
        <ele>119</ele>
        <time>2024-05-21T12:11:53.000Z</time>
      </trkpt>
      <trkpt lat="44.88076" lon="4.87824">
        <ele>119</ele>
        <time>2024-05-21T12:11:54.000Z</time>
      </trkpt>
      <trkpt lat="44.88071" lon="4.87823">
        <ele>118.80000305176</ele>
        <time>2024-05-21T12:11:55.000Z</time>
      </trkpt>
      <trkpt lat="44.88066" lon="4.87822">
        <ele>118.80000305176</ele>
        <time>2024-05-21T12:11:56.000Z</time>
      </trkpt>
      <trkpt lat="44.88061" lon="4.87821">
        <ele>118.59999847412</ele>
        <time>2024-05-21T12:11:57.000Z</time>
      </trkpt>
      <trkpt lat="44.88056" lon="4.8782">
        <ele>118.59999847412</ele>
        <time>2024-05-21T12:11:58.000Z</time>
      </trkpt>
      <trkpt lat="44.88051" lon="4.8782">
        <ele>118.59999847412</ele>
        <time>2024-05-21T12:11:59.000Z</time>
      </trkpt>
      <trkpt lat="44.88046" lon="4.87819">
        <ele>118.59999847412</ele>
        <time>2024-05-21T12:12:00.000Z</time>
      </trkpt>
      <trkpt lat="44.88042" lon="4.87818">
        <ele>118.80000305176</ele>
        <time>2024-05-21T12:12:01.000Z</time>
      </trkpt>
      <trkpt lat="44.88037" lon="4.87817">
        <ele>118.80000305176</ele>
        <time>2024-05-21T12:12:02.000Z</time>
      </trkpt>
      <trkpt lat="44.88032" lon="4.87817">
        <ele>118.80000305176</ele>
        <time>2024-05-21T12:12:03.000Z</time>
      </trkpt>
      <trkpt lat="44.88027" lon="4.87816">
        <ele>118.80000305176</ele>
        <time>2024-05-21T12:12:04.000Z</time>
      </trkpt>
      <trkpt lat="44.88023" lon="4.87817">
        <ele>118.80000305176</ele>
        <time>2024-05-21T12:12:05.000Z</time>
      </trkpt>
      <trkpt lat="44.88018" lon="4.87817">
        <ele>118.80000305176</ele>
        <time>2024-05-21T12:12:06.000Z</time>
      </trkpt>
      <trkpt lat="44.88014" lon="4.87817">
        <ele>118.80000305176</ele>
        <time>2024-05-21T12:12:07.000Z</time>
      </trkpt>
      <trkpt lat="44.88009" lon="4.87817">
        <ele>118.80000305176</ele>
        <time>2024-05-21T12:12:08.000Z</time>
      </trkpt>
      <trkpt lat="44.88005" lon="4.87816">
        <ele>118.80000305176</ele>
        <time>2024-05-21T12:12:09.000Z</time>
      </trkpt>
      <trkpt lat="44.88" lon="4.87816">
        <ele>118.80000305176</ele>
        <time>2024-05-21T12:12:10.000Z</time>
      </trkpt>
      <trkpt lat="44.87995" lon="4.87814">
        <ele>118.80000305176</ele>
        <time>2024-05-21T12:12:11.000Z</time>
      </trkpt>
      <trkpt lat="44.8799" lon="4.87813">
        <ele>118.80000305176</ele>
        <time>2024-05-21T12:12:12.000Z</time>
      </trkpt>
      <trkpt lat="44.87985" lon="4.87812">
        <ele>118.80000305176</ele>
        <time>2024-05-21T12:12:13.000Z</time>
      </trkpt>
      <trkpt lat="44.8798" lon="4.87811">
        <ele>118.59999847412</ele>
        <time>2024-05-21T12:12:14.000Z</time>
      </trkpt>
      <trkpt lat="44.87974" lon="4.8781">
        <ele>118.59999847412</ele>
        <time>2024-05-21T12:12:15.000Z</time>
      </trkpt>
      <trkpt lat="44.87969" lon="4.87809">
        <ele>118.59999847412</ele>
        <time>2024-05-21T12:12:16.000Z</time>
      </trkpt>
      <trkpt lat="44.87964" lon="4.87808">
        <ele>118.59999847412</ele>
        <time>2024-05-21T12:12:17.000Z</time>
      </trkpt>
      <trkpt lat="44.87959" lon="4.87807">
        <ele>118.59999847412</ele>
        <time>2024-05-21T12:12:18.000Z</time>
      </trkpt>
      <trkpt lat="44.87954" lon="4.87806">
        <ele>118.59999847412</ele>
        <time>2024-05-21T12:12:19.000Z</time>
      </trkpt>
      <trkpt lat="44.87948" lon="4.87805">
        <ele>118.59999847412</ele>
        <time>2024-05-21T12:12:20.000Z</time>
      </trkpt>
      <trkpt lat="44.87943" lon="4.87804">
        <ele>118.59999847412</ele>
        <time>2024-05-21T12:12:21.000Z</time>
      </trkpt>
      <trkpt lat="44.87938" lon="4.87803">
        <ele>118.80000305176</ele>
        <time>2024-05-21T12:12:22.000Z</time>
      </trkpt>
      <trkpt lat="44.87933" lon="4.87802">
        <ele>118.80000305176</ele>
        <time>2024-05-21T12:12:23.000Z</time>
      </trkpt>
      <trkpt lat="44.87927" lon="4.87801">
        <ele>118.80000305176</ele>
        <time>2024-05-21T12:12:24.000Z</time>
      </trkpt>
      <trkpt lat="44.87922" lon="4.878">
        <ele>118.80000305176</ele>
        <time>2024-05-21T12:12:25.000Z</time>
      </trkpt>
      <trkpt lat="44.87917" lon="4.87799">
        <ele>118.80000305176</ele>
        <time>2024-05-21T12:12:26.000Z</time>
      </trkpt>
      <trkpt lat="44.87911" lon="4.87798">
        <ele>119</ele>
        <time>2024-05-21T12:12:27.000Z</time>
      </trkpt>
      <trkpt lat="44.87906" lon="4.87797">
        <ele>119</ele>
        <time>2024-05-21T12:12:28.000Z</time>
      </trkpt>
      <trkpt lat="44.87901" lon="4.87796">
        <ele>119.19999694824</ele>
        <time>2024-05-21T12:12:29.000Z</time>
      </trkpt>
      <trkpt lat="44.87896" lon="4.87795">
        <ele>119.19999694824</ele>
        <time>2024-05-21T12:12:30.000Z</time>
      </trkpt>
      <trkpt lat="44.8789" lon="4.87794">
        <ele>119.19999694824</ele>
        <time>2024-05-21T12:12:31.000Z</time>
      </trkpt>
      <trkpt lat="44.87885" lon="4.87792">
        <ele>119.19999694824</ele>
        <time>2024-05-21T12:12:32.000Z</time>
      </trkpt>
      <trkpt lat="44.87879" lon="4.87791">
        <ele>119.19999694824</ele>
        <time>2024-05-21T12:12:33.000Z</time>
      </trkpt>
      <trkpt lat="44.87874" lon="4.8779">
        <ele>119.19999694824</ele>
        <time>2024-05-21T12:12:34.000Z</time>
      </trkpt>
      <trkpt lat="44.87869" lon="4.87789">
        <ele>119.19999694824</ele>
        <time>2024-05-21T12:12:35.000Z</time>
      </trkpt>
      <trkpt lat="44.87863" lon="4.87787">
        <ele>119.19999694824</ele>
        <time>2024-05-21T12:12:36.000Z</time>
      </trkpt>
      <trkpt lat="44.87858" lon="4.87786">
        <ele>119.19999694824</ele>
        <time>2024-05-21T12:12:37.000Z</time>
      </trkpt>
      <trkpt lat="44.87852" lon="4.87784">
        <ele>119.19999694824</ele>
        <time>2024-05-21T12:12:38.000Z</time>
      </trkpt>
      <trkpt lat="44.87846" lon="4.87783">
        <ele>119</ele>
        <time>2024-05-21T12:12:39.000Z</time>
      </trkpt>
      <trkpt lat="44.8784" lon="4.87781">
        <ele>119</ele>
        <time>2024-05-21T12:12:40.000Z</time>
      </trkpt>
      <trkpt lat="44.87835" lon="4.87779">
        <ele>118.59999847412</ele>
        <time>2024-05-21T12:12:41.000Z</time>
      </trkpt>
      <trkpt lat="44.87829" lon="4.87778">
        <ele>118.59999847412</ele>
        <time>2024-05-21T12:12:42.000Z</time>
      </trkpt>
      <trkpt lat="44.87824" lon="4.87776">
        <ele>118.59999847412</ele>
        <time>2024-05-21T12:12:43.000Z</time>
      </trkpt>
      <trkpt lat="44.87818" lon="4.87775">
        <ele>118.40000152588</ele>
        <time>2024-05-21T12:12:44.000Z</time>
      </trkpt>
      <trkpt lat="44.87812" lon="4.87773">
        <ele>118.40000152588</ele>
        <time>2024-05-21T12:12:45.000Z</time>
      </trkpt>
      <trkpt lat="44.87806" lon="4.87772">
        <ele>118.40000152588</ele>
        <time>2024-05-21T12:12:46.000Z</time>
      </trkpt>
      <trkpt lat="44.87801" lon="4.8777">
        <ele>118.19999694824</ele>
        <time>2024-05-21T12:12:47.000Z</time>
      </trkpt>
      <trkpt lat="44.87795" lon="4.87769">
        <ele>118</ele>
        <time>2024-05-21T12:12:48.000Z</time>
      </trkpt>
      <trkpt lat="44.87789" lon="4.87767">
        <ele>118</ele>
        <time>2024-05-21T12:12:49.000Z</time>
      </trkpt>
      <trkpt lat="44.87783" lon="4.87765">
        <ele>118</ele>
        <time>2024-05-21T12:12:50.000Z</time>
      </trkpt>
      <trkpt lat="44.87777" lon="4.87764">
        <ele>117.80000305176</ele>
        <time>2024-05-21T12:12:51.000Z</time>
      </trkpt>
      <trkpt lat="44.87771" lon="4.87762">
        <ele>117.59999847412</ele>
        <time>2024-05-21T12:12:52.000Z</time>
      </trkpt>
      <trkpt lat="44.87765" lon="4.8776">
        <ele>117.59999847412</ele>
        <time>2024-05-21T12:12:53.000Z</time>
      </trkpt>
      <trkpt lat="44.87759" lon="4.87758">
        <ele>117.40000152588</ele>
        <time>2024-05-21T12:12:54.000Z</time>
      </trkpt>
      <trkpt lat="44.87753" lon="4.87756">
        <ele>117.40000152588</ele>
        <time>2024-05-21T12:12:55.000Z</time>
      </trkpt>
      <trkpt lat="44.87746" lon="4.87755">
        <ele>117.19999694824</ele>
        <time>2024-05-21T12:12:56.000Z</time>
      </trkpt>
      <trkpt lat="44.8774" lon="4.87753">
        <ele>117</ele>
        <time>2024-05-21T12:12:57.000Z</time>
      </trkpt>
      <trkpt lat="44.87733" lon="4.87751">
        <ele>117</ele>
        <time>2024-05-21T12:12:58.000Z</time>
      </trkpt>
      <trkpt lat="44.87727" lon="4.8775">
        <ele>116.80000305176</ele>
        <time>2024-05-21T12:12:59.000Z</time>
      </trkpt>
      <trkpt lat="44.87721" lon="4.87748">
        <ele>116.80000305176</ele>
        <time>2024-05-21T12:13:00.000Z</time>
      </trkpt>
      <trkpt lat="44.87715" lon="4.87746">
        <ele>116.59999847412</ele>
        <time>2024-05-21T12:13:01.000Z</time>
      </trkpt>
      <trkpt lat="44.87708" lon="4.87744">
        <ele>116.40000152588</ele>
        <time>2024-05-21T12:13:02.000Z</time>
      </trkpt>
      <trkpt lat="44.87702" lon="4.87742">
        <ele>116.19999694824</ele>
        <time>2024-05-21T12:13:03.000Z</time>
      </trkpt>
      <trkpt lat="44.87695" lon="4.8774">
        <ele>116</ele>
        <time>2024-05-21T12:13:04.000Z</time>
      </trkpt>
      <trkpt lat="44.87689" lon="4.87738">
        <ele>116</ele>
        <time>2024-05-21T12:13:05.000Z</time>
      </trkpt>
      <trkpt lat="44.87683" lon="4.87736">
        <ele>115.59999847412</ele>
        <time>2024-05-21T12:13:06.000Z</time>
      </trkpt>
      <trkpt lat="44.87677" lon="4.87734">
        <ele>115.59999847412</ele>
        <time>2024-05-21T12:13:07.000Z</time>
      </trkpt>
      <trkpt lat="44.8767" lon="4.87732">
        <ele>115.40000152588</ele>
        <time>2024-05-21T12:13:08.000Z</time>
      </trkpt>
      <trkpt lat="44.87664" lon="4.8773">
        <ele>115.19999694824</ele>
        <time>2024-05-21T12:13:09.000Z</time>
      </trkpt>
      <trkpt lat="44.87658" lon="4.87728">
        <ele>115</ele>
        <time>2024-05-21T12:13:10.000Z</time>
      </trkpt>
      <trkpt lat="44.87652" lon="4.87726">
        <ele>114.80000305176</ele>
        <time>2024-05-21T12:13:11.000Z</time>
      </trkpt>
      <trkpt lat="44.87646" lon="4.87724">
        <ele>114.59999847412</ele>
        <time>2024-05-21T12:13:12.000Z</time>
      </trkpt>
      <trkpt lat="44.87639" lon="4.87722">
        <ele>114.40000152588</ele>
        <time>2024-05-21T12:13:13.000Z</time>
      </trkpt>
      <trkpt lat="44.87633" lon="4.8772">
        <ele>114.40000152588</ele>
        <time>2024-05-21T12:13:14.000Z</time>
      </trkpt>
      <trkpt lat="44.87626" lon="4.87718">
        <ele>114.40000152588</ele>
        <time>2024-05-21T12:13:15.000Z</time>
      </trkpt>
      <trkpt lat="44.8762" lon="4.87716">
        <ele>114.40000152588</ele>
        <time>2024-05-21T12:13:16.000Z</time>
      </trkpt>
      <trkpt lat="44.87614" lon="4.87714">
        <ele>114.19999694824</ele>
        <time>2024-05-21T12:13:17.000Z</time>
      </trkpt>
      <trkpt lat="44.87607" lon="4.87712">
        <ele>114</ele>
        <time>2024-05-21T12:13:18.000Z</time>
      </trkpt>
      <trkpt lat="44.87601" lon="4.87711">
        <ele>114</ele>
        <time>2024-05-21T12:13:19.000Z</time>
      </trkpt>
      <trkpt lat="44.87594" lon="4.8771">
        <ele>114</ele>
        <time>2024-05-21T12:13:20.000Z</time>
      </trkpt>
      <trkpt lat="44.87588" lon="4.8771">
        <ele>114</ele>
        <time>2024-05-21T12:13:21.000Z</time>
      </trkpt>
      <trkpt lat="44.87581" lon="4.87711">
        <ele>114</ele>
        <time>2024-05-21T12:13:22.000Z</time>
      </trkpt>
      <trkpt lat="44.87574" lon="4.87711">
        <ele>114</ele>
        <time>2024-05-21T12:13:23.000Z</time>
      </trkpt>
      <trkpt lat="44.87568" lon="4.8771">
        <ele>114</ele>
        <time>2024-05-21T12:13:24.000Z</time>
      </trkpt>
      <trkpt lat="44.87562" lon="4.87709">
        <ele>114</ele>
        <time>2024-05-21T12:13:25.000Z</time>
      </trkpt>
      <trkpt lat="44.87556" lon="4.87707">
        <ele>114</ele>
        <time>2024-05-21T12:13:26.000Z</time>
      </trkpt>
      <trkpt lat="44.87551" lon="4.87705">
        <ele>114</ele>
        <time>2024-05-21T12:13:27.000Z</time>
      </trkpt>
      <trkpt lat="44.87545" lon="4.87703">
        <ele>114</ele>
        <time>2024-05-21T12:13:28.000Z</time>
      </trkpt>
      <trkpt lat="44.8754" lon="4.87701">
        <ele>114</ele>
        <time>2024-05-21T12:13:29.000Z</time>
      </trkpt>
      <trkpt lat="44.87535" lon="4.877">
        <ele>114</ele>
        <time>2024-05-21T12:13:30.000Z</time>
      </trkpt>
      <trkpt lat="44.87531" lon="4.87698">
        <ele>114.19999694824</ele>
        <time>2024-05-21T12:13:31.000Z</time>
      </trkpt>
      <trkpt lat="44.87528" lon="4.87697">
        <ele>114.19999694824</ele>
        <time>2024-05-21T12:13:32.000Z</time>
      </trkpt>
      <trkpt lat="44.87525" lon="4.87696">
        <ele>114.19999694824</ele>
        <time>2024-05-21T12:13:33.000Z</time>
      </trkpt>
      <trkpt lat="44.87523" lon="4.87695">
        <ele>114.19999694824</ele>
        <time>2024-05-21T12:13:34.000Z</time>
      </trkpt>
      <trkpt lat="44.87522" lon="4.87694">
        <ele>114.19999694824</ele>
        <time>2024-05-21T12:13:35.000Z</time>
      </trkpt>
      <trkpt lat="44.87522" lon="4.87694">
        <ele>114.19999694824</ele>
        <time>2024-05-21T12:13:36.000Z</time>
      </trkpt>
      <trkpt lat="44.87522" lon="4.87694">
        <ele>114.40000152588</ele>
        <time>2024-05-21T12:13:37.000Z</time>
      </trkpt>
      <trkpt lat="44.87518" lon="4.87694">
        <ele>114.40000152588</ele>
        <time>2024-05-21T12:13:59.000Z</time>
      </trkpt>
      <trkpt lat="44.87515" lon="4.87693">
        <ele>114.40000152588</ele>
        <time>2024-05-21T12:14:00.000Z</time>
      </trkpt>
      <trkpt lat="44.87512" lon="4.87692">
        <ele>114.40000152588</ele>
        <time>2024-05-21T12:14:01.000Z</time>
      </trkpt>
      <trkpt lat="44.87509" lon="4.8769">
        <ele>114.40000152588</ele>
        <time>2024-05-21T12:14:02.000Z</time>
      </trkpt>
      <trkpt lat="44.87505" lon="4.87689">
        <ele>114.19999694824</ele>
        <time>2024-05-21T12:14:03.000Z</time>
      </trkpt>
      <trkpt lat="44.87501" lon="4.87689">
        <ele>114.19999694824</ele>
        <time>2024-05-21T12:14:04.000Z</time>
      </trkpt>
      <trkpt lat="44.87498" lon="4.87688">
        <ele>114.19999694824</ele>
        <time>2024-05-21T12:14:05.000Z</time>
      </trkpt>
      <trkpt lat="44.87494" lon="4.87687">
        <ele>114</ele>
        <time>2024-05-21T12:14:06.000Z</time>
      </trkpt>
      <trkpt lat="44.8749" lon="4.87686">
        <ele>114</ele>
        <time>2024-05-21T12:14:07.000Z</time>
      </trkpt>
      <trkpt lat="44.87486" lon="4.87684">
        <ele>113.80000305176</ele>
        <time>2024-05-21T12:14:08.000Z</time>
      </trkpt>
      <trkpt lat="44.87481" lon="4.87682">
        <ele>113.80000305176</ele>
        <time>2024-05-21T12:14:09.000Z</time>
      </trkpt>
      <trkpt lat="44.87477" lon="4.8768">
        <ele>113.80000305176</ele>
        <time>2024-05-21T12:14:10.000Z</time>
      </trkpt>
      <trkpt lat="44.87473" lon="4.87677">
        <ele>113.80000305176</ele>
        <time>2024-05-21T12:14:11.000Z</time>
      </trkpt>
      <trkpt lat="44.87469" lon="4.87674">
        <ele>113.80000305176</ele>
        <time>2024-05-21T12:14:12.000Z</time>
      </trkpt>
      <trkpt lat="44.87465" lon="4.87671">
        <ele>113.80000305176</ele>
        <time>2024-05-21T12:14:13.000Z</time>
      </trkpt>
      <trkpt lat="44.8746" lon="4.87668">
        <ele>113.80000305176</ele>
        <time>2024-05-21T12:14:14.000Z</time>
      </trkpt>
      <trkpt lat="44.87456" lon="4.87666">
        <ele>113.80000305176</ele>
        <time>2024-05-21T12:14:15.000Z</time>
      </trkpt>
      <trkpt lat="44.87451" lon="4.87664">
        <ele>113.80000305176</ele>
        <time>2024-05-21T12:14:16.000Z</time>
      </trkpt>
      <trkpt lat="44.87447" lon="4.87663">
        <ele>113.80000305176</ele>
        <time>2024-05-21T12:14:17.000Z</time>
      </trkpt>
      <trkpt lat="44.87442" lon="4.87662">
        <ele>113.80000305176</ele>
        <time>2024-05-21T12:14:18.000Z</time>
      </trkpt>
      <trkpt lat="44.87437" lon="4.8766">
        <ele>113.80000305176</ele>
        <time>2024-05-21T12:14:19.000Z</time>
      </trkpt>
      <trkpt lat="44.87432" lon="4.87658">
        <ele>113.59999847412</ele>
        <time>2024-05-21T12:14:20.000Z</time>
      </trkpt>
      <trkpt lat="44.87427" lon="4.87657">
        <ele>113.59999847412</ele>
        <time>2024-05-21T12:14:21.000Z</time>
      </trkpt>
      <trkpt lat="44.87422" lon="4.87655">
        <ele>113.59999847412</ele>
        <time>2024-05-21T12:14:22.000Z</time>
      </trkpt>
      <trkpt lat="44.87417" lon="4.87654">
        <ele>113.59999847412</ele>
        <time>2024-05-21T12:14:23.000Z</time>
      </trkpt>
      <trkpt lat="44.87412" lon="4.87652">
        <ele>113.59999847412</ele>
        <time>2024-05-21T12:14:24.000Z</time>
      </trkpt>
      <trkpt lat="44.87407" lon="4.8765">
        <ele>113.59999847412</ele>
        <time>2024-05-21T12:14:25.000Z</time>
      </trkpt>
      <trkpt lat="44.87401" lon="4.87649">
        <ele>113.59999847412</ele>
        <time>2024-05-21T12:14:26.000Z</time>
      </trkpt>
      <trkpt lat="44.87397" lon="4.87647">
        <ele>113.40000152588</ele>
        <time>2024-05-21T12:14:27.000Z</time>
      </trkpt>
      <trkpt lat="44.87391" lon="4.87645">
        <ele>113.40000152588</ele>
        <time>2024-05-21T12:14:28.000Z</time>
      </trkpt>
      <trkpt lat="44.87386" lon="4.87644">
        <ele>113.40000152588</ele>
        <time>2024-05-21T12:14:29.000Z</time>
      </trkpt>
      <trkpt lat="44.87381" lon="4.87642">
        <ele>113.40000152588</ele>
        <time>2024-05-21T12:14:30.000Z</time>
      </trkpt>
      <trkpt lat="44.87376" lon="4.87641">
        <ele>113.40000152588</ele>
        <time>2024-05-21T12:14:31.000Z</time>
      </trkpt>
      <trkpt lat="44.87371" lon="4.87639">
        <ele>113.59999847412</ele>
        <time>2024-05-21T12:14:32.000Z</time>
      </trkpt>
      <trkpt lat="44.87366" lon="4.87637">
        <ele>113.80000305176</ele>
        <time>2024-05-21T12:14:33.000Z</time>
      </trkpt>
      <trkpt lat="44.87361" lon="4.87636">
        <ele>113.80000305176</ele>
        <time>2024-05-21T12:14:34.000Z</time>
      </trkpt>
      <trkpt lat="44.87356" lon="4.87635">
        <ele>113.80000305176</ele>
        <time>2024-05-21T12:14:35.000Z</time>
      </trkpt>
      <trkpt lat="44.87351" lon="4.87633">
        <ele>113.80000305176</ele>
        <time>2024-05-21T12:14:36.000Z</time>
      </trkpt>
      <trkpt lat="44.87346" lon="4.87631">
        <ele>113.80000305176</ele>
        <time>2024-05-21T12:14:37.000Z</time>
      </trkpt>
      <trkpt lat="44.87341" lon="4.8763">
        <ele>113.80000305176</ele>
        <time>2024-05-21T12:14:38.000Z</time>
      </trkpt>
      <trkpt lat="44.87336" lon="4.87628">
        <ele>113.80000305176</ele>
        <time>2024-05-21T12:14:39.000Z</time>
      </trkpt>
      <trkpt lat="44.87331" lon="4.87627">
        <ele>113.80000305176</ele>
        <time>2024-05-21T12:14:40.000Z</time>
      </trkpt>
      <trkpt lat="44.87326" lon="4.87625">
        <ele>113.80000305176</ele>
        <time>2024-05-21T12:14:41.000Z</time>
      </trkpt>
      <trkpt lat="44.87321" lon="4.87624">
        <ele>113.80000305176</ele>
        <time>2024-05-21T12:14:42.000Z</time>
      </trkpt>
      <trkpt lat="44.87316" lon="4.87622">
        <ele>113.80000305176</ele>
        <time>2024-05-21T12:14:43.000Z</time>
      </trkpt>
      <trkpt lat="44.87311" lon="4.8762">
        <ele>114</ele>
        <time>2024-05-21T12:14:44.000Z</time>
      </trkpt>
      <trkpt lat="44.87306" lon="4.87619">
        <ele>114</ele>
        <time>2024-05-21T12:14:45.000Z</time>
      </trkpt>
      <trkpt lat="44.87301" lon="4.87617">
        <ele>114</ele>
        <time>2024-05-21T12:14:46.000Z</time>
      </trkpt>
      <trkpt lat="44.87295" lon="4.87616">
        <ele>114</ele>
        <time>2024-05-21T12:14:47.000Z</time>
      </trkpt>
      <trkpt lat="44.8729" lon="4.87614">
        <ele>114</ele>
        <time>2024-05-21T12:14:48.000Z</time>
      </trkpt>
      <trkpt lat="44.87285" lon="4.87613">
        <ele>114</ele>
        <time>2024-05-21T12:14:49.000Z</time>
      </trkpt>
      <trkpt lat="44.8728" lon="4.87611">
        <ele>114</ele>
        <time>2024-05-21T12:14:50.000Z</time>
      </trkpt>
      <trkpt lat="44.87275" lon="4.87609">
        <ele>114</ele>
        <time>2024-05-21T12:14:51.000Z</time>
      </trkpt>
      <trkpt lat="44.8727" lon="4.87608">
        <ele>114</ele>
        <time>2024-05-21T12:14:52.000Z</time>
      </trkpt>
      <trkpt lat="44.87264" lon="4.87606">
        <ele>114</ele>
        <time>2024-05-21T12:14:53.000Z</time>
      </trkpt>
      <trkpt lat="44.87259" lon="4.87605">
        <ele>114</ele>
        <time>2024-05-21T12:14:54.000Z</time>
      </trkpt>
      <trkpt lat="44.87254" lon="4.87603">
        <ele>114.19999694824</ele>
        <time>2024-05-21T12:14:55.000Z</time>
      </trkpt>
      <trkpt lat="44.87249" lon="4.87602">
        <ele>114.19999694824</ele>
        <time>2024-05-21T12:14:56.000Z</time>
      </trkpt>
      <trkpt lat="44.87244" lon="4.876">
        <ele>114.19999694824</ele>
        <time>2024-05-21T12:14:57.000Z</time>
      </trkpt>
      <trkpt lat="44.87238" lon="4.87598">
        <ele>114.19999694824</ele>
        <time>2024-05-21T12:14:58.000Z</time>
      </trkpt>
      <trkpt lat="44.87233" lon="4.87597">
        <ele>114.19999694824</ele>
        <time>2024-05-21T12:14:59.000Z</time>
      </trkpt>
      <trkpt lat="44.87227" lon="4.87595">
        <ele>114.19999694824</ele>
        <time>2024-05-21T12:15:00.000Z</time>
      </trkpt>
      <trkpt lat="44.87222" lon="4.87594">
        <ele>114.19999694824</ele>
        <time>2024-05-21T12:15:01.000Z</time>
      </trkpt>
      <trkpt lat="44.87217" lon="4.87592">
        <ele>114.19999694824</ele>
        <time>2024-05-21T12:15:02.000Z</time>
      </trkpt>
      <trkpt lat="44.87211" lon="4.8759">
        <ele>114.19999694824</ele>
        <time>2024-05-21T12:15:03.000Z</time>
      </trkpt>
      <trkpt lat="44.87205" lon="4.87588">
        <ele>114.19999694824</ele>
        <time>2024-05-21T12:15:04.000Z</time>
      </trkpt>
      <trkpt lat="44.872" lon="4.87587">
        <ele>114.19999694824</ele>
        <time>2024-05-21T12:15:05.000Z</time>
      </trkpt>
      <trkpt lat="44.87194" lon="4.87585">
        <ele>114.19999694824</ele>
        <time>2024-05-21T12:15:06.000Z</time>
      </trkpt>
      <trkpt lat="44.87189" lon="4.87583">
        <ele>114</ele>
        <time>2024-05-21T12:15:07.000Z</time>
      </trkpt>
      <trkpt lat="44.87183" lon="4.87582">
        <ele>114</ele>
        <time>2024-05-21T12:15:08.000Z</time>
      </trkpt>
      <trkpt lat="44.87178" lon="4.8758">
        <ele>113.59999847412</ele>
        <time>2024-05-21T12:15:09.000Z</time>
      </trkpt>
      <trkpt lat="44.87173" lon="4.87579">
        <ele>113.59999847412</ele>
        <time>2024-05-21T12:15:10.000Z</time>
      </trkpt>
      <trkpt lat="44.87167" lon="4.87577">
        <ele>113.59999847412</ele>
        <time>2024-05-21T12:15:11.000Z</time>
      </trkpt>
      <trkpt lat="44.87162" lon="4.87575">
        <ele>113.59999847412</ele>
        <time>2024-05-21T12:15:12.000Z</time>
      </trkpt>
      <trkpt lat="44.87157" lon="4.87573">
        <ele>113.59999847412</ele>
        <time>2024-05-21T12:15:13.000Z</time>
      </trkpt>
      <trkpt lat="44.87151" lon="4.87572">
        <ele>113.59999847412</ele>
        <time>2024-05-21T12:15:14.000Z</time>
      </trkpt>
      <trkpt lat="44.87146" lon="4.8757">
        <ele>113.59999847412</ele>
        <time>2024-05-21T12:15:15.000Z</time>
      </trkpt>
      <trkpt lat="44.8714" lon="4.87569">
        <ele>113.59999847412</ele>
        <time>2024-05-21T12:15:16.000Z</time>
      </trkpt>
      <trkpt lat="44.87134" lon="4.87568">
        <ele>113.80000305176</ele>
        <time>2024-05-21T12:15:17.000Z</time>
      </trkpt>
      <trkpt lat="44.87129" lon="4.87566">
        <ele>113.80000305176</ele>
        <time>2024-05-21T12:15:18.000Z</time>
      </trkpt>
      <trkpt lat="44.87123" lon="4.87565">
        <ele>113.80000305176</ele>
        <time>2024-05-21T12:15:19.000Z</time>
      </trkpt>
      <trkpt lat="44.87118" lon="4.87563">
        <ele>113.80000305176</ele>
        <time>2024-05-21T12:15:20.000Z</time>
      </trkpt>
      <trkpt lat="44.87112" lon="4.87561">
        <ele>113.80000305176</ele>
        <time>2024-05-21T12:15:21.000Z</time>
      </trkpt>
      <trkpt lat="44.87107" lon="4.87559">
        <ele>113.80000305176</ele>
        <time>2024-05-21T12:15:22.000Z</time>
      </trkpt>
      <trkpt lat="44.87102" lon="4.87558">
        <ele>113.80000305176</ele>
        <time>2024-05-21T12:15:23.000Z</time>
      </trkpt>
      <trkpt lat="44.87097" lon="4.87557">
        <ele>113.80000305176</ele>
        <time>2024-05-21T12:15:24.000Z</time>
      </trkpt>
      <trkpt lat="44.87092" lon="4.87557">
        <ele>113.80000305176</ele>
        <time>2024-05-21T12:15:25.000Z</time>
      </trkpt>
      <trkpt lat="44.87087" lon="4.87556">
        <ele>113.40000152588</ele>
        <time>2024-05-21T12:15:26.000Z</time>
      </trkpt>
      <trkpt lat="44.87082" lon="4.87555">
        <ele>113.40000152588</ele>
        <time>2024-05-21T12:15:27.000Z</time>
      </trkpt>
      <trkpt lat="44.87077" lon="4.87554">
        <ele>113.40000152588</ele>
        <time>2024-05-21T12:15:28.000Z</time>
      </trkpt>
      <trkpt lat="44.87072" lon="4.87554">
        <ele>113.40000152588</ele>
        <time>2024-05-21T12:15:29.000Z</time>
      </trkpt>
      <trkpt lat="44.87067" lon="4.87554">
        <ele>113.40000152588</ele>
        <time>2024-05-21T12:15:30.000Z</time>
      </trkpt>
      <trkpt lat="44.87062" lon="4.87554">
        <ele>113.40000152588</ele>
        <time>2024-05-21T12:15:31.000Z</time>
      </trkpt>
      <trkpt lat="44.87058" lon="4.87554">
        <ele>113.40000152588</ele>
        <time>2024-05-21T12:15:32.000Z</time>
      </trkpt>
      <trkpt lat="44.87053" lon="4.87553">
        <ele>113.40000152588</ele>
        <time>2024-05-21T12:15:33.000Z</time>
      </trkpt>
      <trkpt lat="44.87049" lon="4.87553">
        <ele>113.40000152588</ele>
        <time>2024-05-21T12:15:34.000Z</time>
      </trkpt>
      <trkpt lat="44.87044" lon="4.87552">
        <ele>113.40000152588</ele>
        <time>2024-05-21T12:15:35.000Z</time>
      </trkpt>
      <trkpt lat="44.87039" lon="4.8755">
        <ele>113.40000152588</ele>
        <time>2024-05-21T12:15:36.000Z</time>
      </trkpt>
      <trkpt lat="44.87034" lon="4.87548">
        <ele>113.40000152588</ele>
        <time>2024-05-21T12:15:37.000Z</time>
      </trkpt>
      <trkpt lat="44.8703" lon="4.87547">
        <ele>113.19999694824</ele>
        <time>2024-05-21T12:15:38.000Z</time>
      </trkpt>
      <trkpt lat="44.87026" lon="4.87546">
        <ele>113.19999694824</ele>
        <time>2024-05-21T12:15:39.000Z</time>
      </trkpt>
      <trkpt lat="44.87022" lon="4.87544">
        <ele>113.19999694824</ele>
        <time>2024-05-21T12:15:40.000Z</time>
      </trkpt>
      <trkpt lat="44.87017" lon="4.87543">
        <ele>113.19999694824</ele>
        <time>2024-05-21T12:15:41.000Z</time>
      </trkpt>
      <trkpt lat="44.87013" lon="4.87541">
        <ele>113.19999694824</ele>
        <time>2024-05-21T12:15:42.000Z</time>
      </trkpt>
      <trkpt lat="44.87009" lon="4.8754">
        <ele>113.19999694824</ele>
        <time>2024-05-21T12:15:43.000Z</time>
      </trkpt>
      <trkpt lat="44.87005" lon="4.87538">
        <ele>113.19999694824</ele>
        <time>2024-05-21T12:15:44.000Z</time>
      </trkpt>
      <trkpt lat="44.87" lon="4.87537">
        <ele>113.19999694824</ele>
        <time>2024-05-21T12:15:45.000Z</time>
      </trkpt>
      <trkpt lat="44.86996" lon="4.87536">
        <ele>113.19999694824</ele>
        <time>2024-05-21T12:15:46.000Z</time>
      </trkpt>
      <trkpt lat="44.86992" lon="4.87535">
        <ele>113.19999694824</ele>
        <time>2024-05-21T12:15:47.000Z</time>
      </trkpt>
      <trkpt lat="44.86987" lon="4.87534">
        <ele>113.40000152588</ele>
        <time>2024-05-21T12:15:48.000Z</time>
      </trkpt>
      <trkpt lat="44.86983" lon="4.87532">
        <ele>113.40000152588</ele>
        <time>2024-05-21T12:15:49.000Z</time>
      </trkpt>
      <trkpt lat="44.86978" lon="4.8753">
        <ele>113.59999847412</ele>
        <time>2024-05-21T12:15:50.000Z</time>
      </trkpt>
      <trkpt lat="44.86974" lon="4.87529">
        <ele>113.59999847412</ele>
        <time>2024-05-21T12:15:51.000Z</time>
      </trkpt>
      <trkpt lat="44.86969" lon="4.87528">
        <ele>113.59999847412</ele>
        <time>2024-05-21T12:15:52.000Z</time>
      </trkpt>
      <trkpt lat="44.86965" lon="4.87526">
        <ele>113.59999847412</ele>
        <time>2024-05-21T12:15:53.000Z</time>
      </trkpt>
      <trkpt lat="44.8696" lon="4.87525">
        <ele>113.59999847412</ele>
        <time>2024-05-21T12:15:54.000Z</time>
      </trkpt>
      <trkpt lat="44.86956" lon="4.87523">
        <ele>113.59999847412</ele>
        <time>2024-05-21T12:15:55.000Z</time>
      </trkpt>
      <trkpt lat="44.86952" lon="4.87521">
        <ele>113.59999847412</ele>
        <time>2024-05-21T12:15:56.000Z</time>
      </trkpt>
      <trkpt lat="44.86947" lon="4.8752">
        <ele>113.59999847412</ele>
        <time>2024-05-21T12:15:57.000Z</time>
      </trkpt>
      <trkpt lat="44.86943" lon="4.87519">
        <ele>113.59999847412</ele>
        <time>2024-05-21T12:15:58.000Z</time>
      </trkpt>
      <trkpt lat="44.86938" lon="4.87518">
        <ele>113.59999847412</ele>
        <time>2024-05-21T12:15:59.000Z</time>
      </trkpt>
      <trkpt lat="44.86934" lon="4.87517">
        <ele>113.59999847412</ele>
        <time>2024-05-21T12:16:00.000Z</time>
      </trkpt>
      <trkpt lat="44.86929" lon="4.87516">
        <ele>113.59999847412</ele>
        <time>2024-05-21T12:16:01.000Z</time>
      </trkpt>
      <trkpt lat="44.86924" lon="4.87515">
        <ele>113.59999847412</ele>
        <time>2024-05-21T12:16:02.000Z</time>
      </trkpt>
      <trkpt lat="44.86919" lon="4.87514">
        <ele>113.59999847412</ele>
        <time>2024-05-21T12:16:03.000Z</time>
      </trkpt>
      <trkpt lat="44.86914" lon="4.87514">
        <ele>113.59999847412</ele>
        <time>2024-05-21T12:16:04.000Z</time>
      </trkpt>
      <trkpt lat="44.86909" lon="4.87513">
        <ele>113.59999847412</ele>
        <time>2024-05-21T12:16:05.000Z</time>
      </trkpt>
      <trkpt lat="44.86904" lon="4.87512">
        <ele>113.40000152588</ele>
        <time>2024-05-21T12:16:06.000Z</time>
      </trkpt>
      <trkpt lat="44.86899" lon="4.87511">
        <ele>113.40000152588</ele>
        <time>2024-05-21T12:16:07.000Z</time>
      </trkpt>
      <trkpt lat="44.86894" lon="4.8751">
        <ele>113.40000152588</ele>
        <time>2024-05-21T12:16:08.000Z</time>
      </trkpt>
      <trkpt lat="44.86889" lon="4.87508">
        <ele>113.19999694824</ele>
        <time>2024-05-21T12:16:09.000Z</time>
      </trkpt>
      <trkpt lat="44.86884" lon="4.87506">
        <ele>113.19999694824</ele>
        <time>2024-05-21T12:16:10.000Z</time>
      </trkpt>
      <trkpt lat="44.86879" lon="4.87504">
        <ele>113</ele>
        <time>2024-05-21T12:16:11.000Z</time>
      </trkpt>
      <trkpt lat="44.86874" lon="4.87502">
        <ele>112.80000305176</ele>
        <time>2024-05-21T12:16:12.000Z</time>
      </trkpt>
      <trkpt lat="44.86869" lon="4.87501">
        <ele>112.80000305176</ele>
        <time>2024-05-21T12:16:13.000Z</time>
      </trkpt>
      <trkpt lat="44.86865" lon="4.87499">
        <ele>112.80000305176</ele>
        <time>2024-05-21T12:16:14.000Z</time>
      </trkpt>
      <trkpt lat="44.8686" lon="4.87497">
        <ele>112.80000305176</ele>
        <time>2024-05-21T12:16:15.000Z</time>
      </trkpt>
      <trkpt lat="44.86856" lon="4.87494">
        <ele>112.80000305176</ele>
        <time>2024-05-21T12:16:16.000Z</time>
      </trkpt>
      <trkpt lat="44.86851" lon="4.87492">
        <ele>113</ele>
        <time>2024-05-21T12:16:17.000Z</time>
      </trkpt>
      <trkpt lat="44.86847" lon="4.87491">
        <ele>112.80000305176</ele>
        <time>2024-05-21T12:16:18.000Z</time>
      </trkpt>
      <trkpt lat="44.86843" lon="4.8749">
        <ele>112.80000305176</ele>
        <time>2024-05-21T12:16:19.000Z</time>
      </trkpt>
      <trkpt lat="44.86838" lon="4.87488">
        <ele>112.80000305176</ele>
        <time>2024-05-21T12:16:20.000Z</time>
      </trkpt>
      <trkpt lat="44.86834" lon="4.87487">
        <ele>112.80000305176</ele>
        <time>2024-05-21T12:16:21.000Z</time>
      </trkpt>
      <trkpt lat="44.8683" lon="4.87485">
        <ele>112.80000305176</ele>
        <time>2024-05-21T12:16:22.000Z</time>
      </trkpt>
      <trkpt lat="44.86826" lon="4.87484">
        <ele>112.80000305176</ele>
        <time>2024-05-21T12:16:23.000Z</time>
      </trkpt>
      <trkpt lat="44.86821" lon="4.87483">
        <ele>112.80000305176</ele>
        <time>2024-05-21T12:16:24.000Z</time>
      </trkpt>
      <trkpt lat="44.86816" lon="4.87481">
        <ele>112.59999847412</ele>
        <time>2024-05-21T12:16:25.000Z</time>
      </trkpt>
      <trkpt lat="44.86811" lon="4.8748">
        <ele>112.59999847412</ele>
        <time>2024-05-21T12:16:26.000Z</time>
      </trkpt>
      <trkpt lat="44.86806" lon="4.87479">
        <ele>112.59999847412</ele>
        <time>2024-05-21T12:16:27.000Z</time>
      </trkpt>
      <trkpt lat="44.86802" lon="4.87477">
        <ele>112.59999847412</ele>
        <time>2024-05-21T12:16:28.000Z</time>
      </trkpt>
      <trkpt lat="44.86797" lon="4.87476">
        <ele>112.40000152588</ele>
        <time>2024-05-21T12:16:29.000Z</time>
      </trkpt>
      <trkpt lat="44.86793" lon="4.87474">
        <ele>112.40000152588</ele>
        <time>2024-05-21T12:16:30.000Z</time>
      </trkpt>
      <trkpt lat="44.86788" lon="4.87473">
        <ele>112.40000152588</ele>
        <time>2024-05-21T12:16:31.000Z</time>
      </trkpt>
      <trkpt lat="44.86783" lon="4.87471">
        <ele>112.40000152588</ele>
        <time>2024-05-21T12:16:32.000Z</time>
      </trkpt>
      <trkpt lat="44.86778" lon="4.8747">
        <ele>112.40000152588</ele>
        <time>2024-05-21T12:16:33.000Z</time>
      </trkpt>
      <trkpt lat="44.86773" lon="4.87468">
        <ele>112.40000152588</ele>
        <time>2024-05-21T12:16:34.000Z</time>
      </trkpt>
      <trkpt lat="44.86767" lon="4.87467">
        <ele>112.40000152588</ele>
        <time>2024-05-21T12:16:35.000Z</time>
      </trkpt>
      <trkpt lat="44.86762" lon="4.87466">
        <ele>112.40000152588</ele>
        <time>2024-05-21T12:16:36.000Z</time>
      </trkpt>
      <trkpt lat="44.86757" lon="4.87464">
        <ele>112.40000152588</ele>
        <time>2024-05-21T12:16:37.000Z</time>
      </trkpt>
      <trkpt lat="44.86752" lon="4.87463">
        <ele>112.40000152588</ele>
        <time>2024-05-21T12:16:38.000Z</time>
      </trkpt>
      <trkpt lat="44.86747" lon="4.87461">
        <ele>112.40000152588</ele>
        <time>2024-05-21T12:16:39.000Z</time>
      </trkpt>
      <trkpt lat="44.86742" lon="4.87459">
        <ele>112.19999694824</ele>
        <time>2024-05-21T12:16:40.000Z</time>
      </trkpt>
      <trkpt lat="44.86737" lon="4.87458">
        <ele>112.19999694824</ele>
        <time>2024-05-21T12:16:41.000Z</time>
      </trkpt>
      <trkpt lat="44.86732" lon="4.87457">
        <ele>112.19999694824</ele>
        <time>2024-05-21T12:16:42.000Z</time>
      </trkpt>
      <trkpt lat="44.86728" lon="4.87455">
        <ele>112.19999694824</ele>
        <time>2024-05-21T12:16:43.000Z</time>
      </trkpt>
      <trkpt lat="44.86724" lon="4.87453">
        <ele>112.19999694824</ele>
        <time>2024-05-21T12:16:44.000Z</time>
      </trkpt>
      <trkpt lat="44.8672" lon="4.8745">
        <ele>112.19999694824</ele>
        <time>2024-05-21T12:16:45.000Z</time>
      </trkpt>
      <trkpt lat="44.86716" lon="4.87447">
        <ele>112.19999694824</ele>
        <time>2024-05-21T12:16:46.000Z</time>
      </trkpt>
      <trkpt lat="44.86713" lon="4.87443">
        <ele>112.19999694824</ele>
        <time>2024-05-21T12:16:47.000Z</time>
      </trkpt>
      <trkpt lat="44.86709" lon="4.87439">
        <ele>112.19999694824</ele>
        <time>2024-05-21T12:16:48.000Z</time>
      </trkpt>
      <trkpt lat="44.86704" lon="4.87436">
        <ele>112.40000152588</ele>
        <time>2024-05-21T12:16:49.000Z</time>
      </trkpt>
      <trkpt lat="44.86699" lon="4.87433">
        <ele>112.40000152588</ele>
        <time>2024-05-21T12:16:50.000Z</time>
      </trkpt>
      <trkpt lat="44.86694" lon="4.8743">
        <ele>112.40000152588</ele>
        <time>2024-05-21T12:16:51.000Z</time>
      </trkpt>
      <trkpt lat="44.86689" lon="4.87428">
        <ele>112.40000152588</ele>
        <time>2024-05-21T12:16:52.000Z</time>
      </trkpt>
      <trkpt lat="44.86683" lon="4.87426">
        <ele>112.40000152588</ele>
        <time>2024-05-21T12:16:53.000Z</time>
      </trkpt>
      <trkpt lat="44.86678" lon="4.87424">
        <ele>112.40000152588</ele>
        <time>2024-05-21T12:16:54.000Z</time>
      </trkpt>
      <trkpt lat="44.86672" lon="4.87423">
        <ele>112.19999694824</ele>
        <time>2024-05-21T12:16:55.000Z</time>
      </trkpt>
      <trkpt lat="44.86667" lon="4.87421">
        <ele>112</ele>
        <time>2024-05-21T12:16:56.000Z</time>
      </trkpt>
      <trkpt lat="44.86661" lon="4.87419">
        <ele>112</ele>
        <time>2024-05-21T12:16:57.000Z</time>
      </trkpt>
      <trkpt lat="44.86656" lon="4.87417">
        <ele>111.80000305176</ele>
        <time>2024-05-21T12:16:58.000Z</time>
      </trkpt>
      <trkpt lat="44.8665" lon="4.87415">
        <ele>111.80000305176</ele>
        <time>2024-05-21T12:16:59.000Z</time>
      </trkpt>
      <trkpt lat="44.86644" lon="4.87414">
        <ele>111.59999847412</ele>
        <time>2024-05-21T12:17:00.000Z</time>
      </trkpt>
      <trkpt lat="44.86639" lon="4.87412">
        <ele>111.59999847412</ele>
        <time>2024-05-21T12:17:01.000Z</time>
      </trkpt>
      <trkpt lat="44.86634" lon="4.8741">
        <ele>111.59999847412</ele>
        <time>2024-05-21T12:17:02.000Z</time>
      </trkpt>
      <trkpt lat="44.86628" lon="4.87408">
        <ele>111.40000152588</ele>
        <time>2024-05-21T12:17:03.000Z</time>
      </trkpt>
      <trkpt lat="44.86623" lon="4.87407">
        <ele>111.40000152588</ele>
        <time>2024-05-21T12:17:04.000Z</time>
      </trkpt>
      <trkpt lat="44.86617" lon="4.87405">
        <ele>111.40000152588</ele>
        <time>2024-05-21T12:17:05.000Z</time>
      </trkpt>
      <trkpt lat="44.86612" lon="4.87404">
        <ele>111.40000152588</ele>
        <time>2024-05-21T12:17:06.000Z</time>
      </trkpt>
      <trkpt lat="44.86607" lon="4.87402">
        <ele>111.40000152588</ele>
        <time>2024-05-21T12:17:07.000Z</time>
      </trkpt>
      <trkpt lat="44.86601" lon="4.874">
        <ele>111.59999847412</ele>
        <time>2024-05-21T12:17:08.000Z</time>
      </trkpt>
      <trkpt lat="44.86596" lon="4.87399">
        <ele>111.59999847412</ele>
        <time>2024-05-21T12:17:09.000Z</time>
      </trkpt>
      <trkpt lat="44.8659" lon="4.87397">
        <ele>111.59999847412</ele>
        <time>2024-05-21T12:17:10.000Z</time>
      </trkpt>
      <trkpt lat="44.86585" lon="4.87396">
        <ele>111.80000305176</ele>
        <time>2024-05-21T12:17:11.000Z</time>
      </trkpt>
      <trkpt lat="44.86579" lon="4.87395">
        <ele>111.80000305176</ele>
        <time>2024-05-21T12:17:12.000Z</time>
      </trkpt>
      <trkpt lat="44.86574" lon="4.87393">
        <ele>111.80000305176</ele>
        <time>2024-05-21T12:17:13.000Z</time>
      </trkpt>
      <trkpt lat="44.86569" lon="4.87392">
        <ele>111.80000305176</ele>
        <time>2024-05-21T12:17:14.000Z</time>
      </trkpt>
      <trkpt lat="44.86563" lon="4.8739">
        <ele>111.80000305176</ele>
        <time>2024-05-21T12:17:15.000Z</time>
      </trkpt>
      <trkpt lat="44.86558" lon="4.87389">
        <ele>112</ele>
        <time>2024-05-21T12:17:16.000Z</time>
      </trkpt>
      <trkpt lat="44.86553" lon="4.87387">
        <ele>112</ele>
        <time>2024-05-21T12:17:17.000Z</time>
      </trkpt>
      <trkpt lat="44.86547" lon="4.87385">
        <ele>112</ele>
        <time>2024-05-21T12:17:18.000Z</time>
      </trkpt>
      <trkpt lat="44.86542" lon="4.87383">
        <ele>112</ele>
        <time>2024-05-21T12:17:19.000Z</time>
      </trkpt>
      <trkpt lat="44.86537" lon="4.87382">
        <ele>112</ele>
        <time>2024-05-21T12:17:20.000Z</time>
      </trkpt>
      <trkpt lat="44.86532" lon="4.8738">
        <ele>112</ele>
        <time>2024-05-21T12:17:21.000Z</time>
      </trkpt>
      <trkpt lat="44.86526" lon="4.87379">
        <ele>112.19999694824</ele>
        <time>2024-05-21T12:17:22.000Z</time>
      </trkpt>
      <trkpt lat="44.86521" lon="4.87377">
        <ele>112.19999694824</ele>
        <time>2024-05-21T12:17:23.000Z</time>
      </trkpt>
      <trkpt lat="44.86515" lon="4.87375">
        <ele>112.19999694824</ele>
        <time>2024-05-21T12:17:24.000Z</time>
      </trkpt>
      <trkpt lat="44.8651" lon="4.87374">
        <ele>112.19999694824</ele>
        <time>2024-05-21T12:17:25.000Z</time>
      </trkpt>
      <trkpt lat="44.86505" lon="4.87372">
        <ele>112.19999694824</ele>
        <time>2024-05-21T12:17:26.000Z</time>
      </trkpt>
      <trkpt lat="44.86499" lon="4.8737">
        <ele>112</ele>
        <time>2024-05-21T12:17:27.000Z</time>
      </trkpt>
      <trkpt lat="44.86494" lon="4.87369">
        <ele>112</ele>
        <time>2024-05-21T12:17:28.000Z</time>
      </trkpt>
      <trkpt lat="44.86489" lon="4.87367">
        <ele>112</ele>
        <time>2024-05-21T12:17:29.000Z</time>
      </trkpt>
      <trkpt lat="44.86483" lon="4.87365">
        <ele>112</ele>
        <time>2024-05-21T12:17:30.000Z</time>
      </trkpt>
      <trkpt lat="44.86478" lon="4.87364">
        <ele>112.40000152588</ele>
        <time>2024-05-21T12:17:31.000Z</time>
      </trkpt>
      <trkpt lat="44.86472" lon="4.87362">
        <ele>112.59999847412</ele>
        <time>2024-05-21T12:17:32.000Z</time>
      </trkpt>
      <trkpt lat="44.86467" lon="4.8736">
        <ele>112.80000305176</ele>
        <time>2024-05-21T12:17:33.000Z</time>
      </trkpt>
      <trkpt lat="44.86462" lon="4.87359">
        <ele>112.80000305176</ele>
        <time>2024-05-21T12:17:34.000Z</time>
      </trkpt>
      <trkpt lat="44.86456" lon="4.87357">
        <ele>112.80000305176</ele>
        <time>2024-05-21T12:17:35.000Z</time>
      </trkpt>
      <trkpt lat="44.8645" lon="4.87355">
        <ele>112.80000305176</ele>
        <time>2024-05-21T12:17:36.000Z</time>
      </trkpt>
      <trkpt lat="44.86445" lon="4.87353">
        <ele>112.59999847412</ele>
        <time>2024-05-21T12:17:37.000Z</time>
      </trkpt>
      <trkpt lat="44.8644" lon="4.87352">
        <ele>112.59999847412</ele>
        <time>2024-05-21T12:17:38.000Z</time>
      </trkpt>
      <trkpt lat="44.86433" lon="4.8735">
        <ele>112.59999847412</ele>
        <time>2024-05-21T12:17:39.000Z</time>
      </trkpt>
      <trkpt lat="44.86429" lon="4.87348">
        <ele>112.40000152588</ele>
        <time>2024-05-21T12:17:40.000Z</time>
      </trkpt>
      <trkpt lat="44.86423" lon="4.87347">
        <ele>112.40000152588</ele>
        <time>2024-05-21T12:17:41.000Z</time>
      </trkpt>
      <trkpt lat="44.86418" lon="4.87345">
        <ele>112.19999694824</ele>
        <time>2024-05-21T12:17:42.000Z</time>
      </trkpt>
      <trkpt lat="44.86412" lon="4.87343">
        <ele>112.19999694824</ele>
        <time>2024-05-21T12:17:43.000Z</time>
      </trkpt>
      <trkpt lat="44.86407" lon="4.87341">
        <ele>112.19999694824</ele>
        <time>2024-05-21T12:17:44.000Z</time>
      </trkpt>
      <trkpt lat="44.86402" lon="4.8734">
        <ele>112.19999694824</ele>
        <time>2024-05-21T12:17:45.000Z</time>
      </trkpt>
      <trkpt lat="44.86396" lon="4.87338">
        <ele>112.19999694824</ele>
        <time>2024-05-21T12:17:46.000Z</time>
      </trkpt>
      <trkpt lat="44.86391" lon="4.87336">
        <ele>112.19999694824</ele>
        <time>2024-05-21T12:17:47.000Z</time>
      </trkpt>
      <trkpt lat="44.86385" lon="4.87334">
        <ele>112.19999694824</ele>
        <time>2024-05-21T12:17:48.000Z</time>
      </trkpt>
      <trkpt lat="44.8638" lon="4.87333">
        <ele>112.19999694824</ele>
        <time>2024-05-21T12:17:49.000Z</time>
      </trkpt>
      <trkpt lat="44.86375" lon="4.87332">
        <ele>112.40000152588</ele>
        <time>2024-05-21T12:17:50.000Z</time>
      </trkpt>
      <trkpt lat="44.8637" lon="4.8733">
        <ele>112.40000152588</ele>
        <time>2024-05-21T12:17:51.000Z</time>
      </trkpt>
      <trkpt lat="44.86364" lon="4.87328">
        <ele>112.40000152588</ele>
        <time>2024-05-21T12:17:52.000Z</time>
      </trkpt>
      <trkpt lat="44.86359" lon="4.87326">
        <ele>112.40000152588</ele>
        <time>2024-05-21T12:17:53.000Z</time>
      </trkpt>
      <trkpt lat="44.86353" lon="4.87325">
        <ele>112.40000152588</ele>
        <time>2024-05-21T12:17:54.000Z</time>
      </trkpt>
      <trkpt lat="44.86348" lon="4.87323">
        <ele>112.59999847412</ele>
        <time>2024-05-21T12:17:55.000Z</time>
      </trkpt>
      <trkpt lat="44.86342" lon="4.87321">
        <ele>112.59999847412</ele>
        <time>2024-05-21T12:17:56.000Z</time>
      </trkpt>
      <trkpt lat="44.86337" lon="4.8732">
        <ele>112.59999847412</ele>
        <time>2024-05-21T12:17:57.000Z</time>
      </trkpt>
      <trkpt lat="44.8633" lon="4.87317">
        <ele>112.59999847412</ele>
        <time>2024-05-21T12:17:58.000Z</time>
      </trkpt>
      <trkpt lat="44.86326" lon="4.87316">
        <ele>112.59999847412</ele>
        <time>2024-05-21T12:17:59.000Z</time>
      </trkpt>
      <trkpt lat="44.8632" lon="4.87314">
        <ele>112.59999847412</ele>
        <time>2024-05-21T12:18:00.000Z</time>
      </trkpt>
      <trkpt lat="44.86315" lon="4.87313">
        <ele>112.59999847412</ele>
        <time>2024-05-21T12:18:01.000Z</time>
      </trkpt>
      <trkpt lat="44.86309" lon="4.87311">
        <ele>112.59999847412</ele>
        <time>2024-05-21T12:18:02.000Z</time>
      </trkpt>
      <trkpt lat="44.86303" lon="4.87309">
        <ele>112.59999847412</ele>
        <time>2024-05-21T12:18:03.000Z</time>
      </trkpt>
      <trkpt lat="44.86298" lon="4.87307">
        <ele>112.59999847412</ele>
        <time>2024-05-21T12:18:04.000Z</time>
      </trkpt>
      <trkpt lat="44.86292" lon="4.87306">
        <ele>112.59999847412</ele>
        <time>2024-05-21T12:18:05.000Z</time>
      </trkpt>
      <trkpt lat="44.86286" lon="4.87304">
        <ele>112.59999847412</ele>
        <time>2024-05-21T12:18:06.000Z</time>
      </trkpt>
      <trkpt lat="44.86281" lon="4.87303">
        <ele>112.59999847412</ele>
        <time>2024-05-21T12:18:07.000Z</time>
      </trkpt>
      <trkpt lat="44.86276" lon="4.87302">
        <ele>112.59999847412</ele>
        <time>2024-05-21T12:18:08.000Z</time>
      </trkpt>
      <trkpt lat="44.86271" lon="4.873">
        <ele>112.40000152588</ele>
        <time>2024-05-21T12:18:09.000Z</time>
      </trkpt>
      <trkpt lat="44.86266" lon="4.87299">
        <ele>112.40000152588</ele>
        <time>2024-05-21T12:18:10.000Z</time>
      </trkpt>
      <trkpt lat="44.86261" lon="4.87297">
        <ele>112.40000152588</ele>
        <time>2024-05-21T12:18:11.000Z</time>
      </trkpt>
      <trkpt lat="44.86257" lon="4.87296">
        <ele>112.40000152588</ele>
        <time>2024-05-21T12:18:12.000Z</time>
      </trkpt>
      <trkpt lat="44.86252" lon="4.87294">
        <ele>112.40000152588</ele>
        <time>2024-05-21T12:18:13.000Z</time>
      </trkpt>
      <trkpt lat="44.86247" lon="4.87292">
        <ele>112.40000152588</ele>
        <time>2024-05-21T12:18:14.000Z</time>
      </trkpt>
      <trkpt lat="44.86243" lon="4.87291">
        <ele>112.40000152588</ele>
        <time>2024-05-21T12:18:15.000Z</time>
      </trkpt>
      <trkpt lat="44.86238" lon="4.8729">
        <ele>112.40000152588</ele>
        <time>2024-05-21T12:18:16.000Z</time>
      </trkpt>
      <trkpt lat="44.86232" lon="4.87288">
        <ele>112.19999694824</ele>
        <time>2024-05-21T12:18:17.000Z</time>
      </trkpt>
      <trkpt lat="44.86227" lon="4.87287">
        <ele>112.19999694824</ele>
        <time>2024-05-21T12:18:18.000Z</time>
      </trkpt>
      <trkpt lat="44.86222" lon="4.87285">
        <ele>112.19999694824</ele>
        <time>2024-05-21T12:18:19.000Z</time>
      </trkpt>
      <trkpt lat="44.86217" lon="4.87284">
        <ele>112.19999694824</ele>
        <time>2024-05-21T12:18:20.000Z</time>
      </trkpt>
      <trkpt lat="44.86211" lon="4.87282">
        <ele>112.19999694824</ele>
        <time>2024-05-21T12:18:21.000Z</time>
      </trkpt>
      <trkpt lat="44.86205" lon="4.8728">
        <ele>112.19999694824</ele>
        <time>2024-05-21T12:18:22.000Z</time>
      </trkpt>
      <trkpt lat="44.86201" lon="4.87279">
        <ele>112.40000152588</ele>
        <time>2024-05-21T12:18:23.000Z</time>
      </trkpt>
      <trkpt lat="44.86195" lon="4.87277">
        <ele>112.40000152588</ele>
        <time>2024-05-21T12:18:24.000Z</time>
      </trkpt>
      <trkpt lat="44.86189" lon="4.87275">
        <ele>112.40000152588</ele>
        <time>2024-05-21T12:18:25.000Z</time>
      </trkpt>
      <trkpt lat="44.86184" lon="4.87273">
        <ele>112.40000152588</ele>
        <time>2024-05-21T12:18:26.000Z</time>
      </trkpt>
      <trkpt lat="44.86178" lon="4.87271">
        <ele>112.40000152588</ele>
        <time>2024-05-21T12:18:27.000Z</time>
      </trkpt>
      <trkpt lat="44.86172" lon="4.8727">
        <ele>112.40000152588</ele>
        <time>2024-05-21T12:18:28.000Z</time>
      </trkpt>
      <trkpt lat="44.86166" lon="4.87268">
        <ele>112.40000152588</ele>
        <time>2024-05-21T12:18:29.000Z</time>
      </trkpt>
      <trkpt lat="44.86161" lon="4.87266">
        <ele>112.40000152588</ele>
        <time>2024-05-21T12:18:30.000Z</time>
      </trkpt>
      <trkpt lat="44.86155" lon="4.87265">
        <ele>112.40000152588</ele>
        <time>2024-05-21T12:18:31.000Z</time>
      </trkpt>
      <trkpt lat="44.86149" lon="4.87263">
        <ele>112.40000152588</ele>
        <time>2024-05-21T12:18:32.000Z</time>
      </trkpt>
      <trkpt lat="44.86143" lon="4.87261">
        <ele>112.40000152588</ele>
        <time>2024-05-21T12:18:33.000Z</time>
      </trkpt>
      <trkpt lat="44.86137" lon="4.87259">
        <ele>112.40000152588</ele>
        <time>2024-05-21T12:18:34.000Z</time>
      </trkpt>
      <trkpt lat="44.86132" lon="4.87257">
        <ele>112.40000152588</ele>
        <time>2024-05-21T12:18:35.000Z</time>
      </trkpt>
      <trkpt lat="44.86126" lon="4.87256">
        <ele>112.40000152588</ele>
        <time>2024-05-21T12:18:36.000Z</time>
      </trkpt>
      <trkpt lat="44.8612" lon="4.87254">
        <ele>112.59999847412</ele>
        <time>2024-05-21T12:18:37.000Z</time>
      </trkpt>
      <trkpt lat="44.86114" lon="4.87252">
        <ele>112.59999847412</ele>
        <time>2024-05-21T12:18:38.000Z</time>
      </trkpt>
      <trkpt lat="44.86109" lon="4.8725">
        <ele>112.59999847412</ele>
        <time>2024-05-21T12:18:39.000Z</time>
      </trkpt>
      <trkpt lat="44.86102" lon="4.87248">
        <ele>112.59999847412</ele>
        <time>2024-05-21T12:18:40.000Z</time>
      </trkpt>
      <trkpt lat="44.86097" lon="4.87247">
        <ele>112.59999847412</ele>
        <time>2024-05-21T12:18:41.000Z</time>
      </trkpt>
      <trkpt lat="44.86091" lon="4.87245">
        <ele>112.59999847412</ele>
        <time>2024-05-21T12:18:42.000Z</time>
      </trkpt>
      <trkpt lat="44.86084" lon="4.87243">
        <ele>112.59999847412</ele>
        <time>2024-05-21T12:18:43.000Z</time>
      </trkpt>
      <trkpt lat="44.8608" lon="4.87242">
        <ele>112.40000152588</ele>
        <time>2024-05-21T12:18:44.000Z</time>
      </trkpt>
      <trkpt lat="44.86074" lon="4.8724">
        <ele>112.19999694824</ele>
        <time>2024-05-21T12:18:45.000Z</time>
      </trkpt>
      <trkpt lat="44.86068" lon="4.87238">
        <ele>112.19999694824</ele>
        <time>2024-05-21T12:18:46.000Z</time>
      </trkpt>
      <trkpt lat="44.86062" lon="4.87237">
        <ele>112.19999694824</ele>
        <time>2024-05-21T12:18:47.000Z</time>
      </trkpt>
      <trkpt lat="44.86056" lon="4.87235">
        <ele>112</ele>
        <time>2024-05-21T12:18:48.000Z</time>
      </trkpt>
      <trkpt lat="44.8605" lon="4.87233">
        <ele>112</ele>
        <time>2024-05-21T12:18:49.000Z</time>
      </trkpt>
      <trkpt lat="44.86045" lon="4.87231">
        <ele>112</ele>
        <time>2024-05-21T12:18:50.000Z</time>
      </trkpt>
      <trkpt lat="44.86039" lon="4.8723">
        <ele>112</ele>
        <time>2024-05-21T12:18:51.000Z</time>
      </trkpt>
      <trkpt lat="44.86032" lon="4.87227">
        <ele>112</ele>
        <time>2024-05-21T12:18:52.000Z</time>
      </trkpt>
      <trkpt lat="44.86027" lon="4.87225">
        <ele>112</ele>
        <time>2024-05-21T12:18:53.000Z</time>
      </trkpt>
      <trkpt lat="44.86022" lon="4.87223">
        <ele>112.19999694824</ele>
        <time>2024-05-21T12:18:54.000Z</time>
      </trkpt>
      <trkpt lat="44.86015" lon="4.8722">
        <ele>112.19999694824</ele>
        <time>2024-05-21T12:18:55.000Z</time>
      </trkpt>
      <trkpt lat="44.8601" lon="4.87219">
        <ele>112.19999694824</ele>
        <time>2024-05-21T12:18:56.000Z</time>
      </trkpt>
      <trkpt lat="44.86004" lon="4.87217">
        <ele>112.19999694824</ele>
        <time>2024-05-21T12:18:57.000Z</time>
      </trkpt>
      <trkpt lat="44.85998" lon="4.87215">
        <ele>112</ele>
        <time>2024-05-21T12:18:58.000Z</time>
      </trkpt>
      <trkpt lat="44.85993" lon="4.87214">
        <ele>111.80000305176</ele>
        <time>2024-05-21T12:18:59.000Z</time>
      </trkpt>
      <trkpt lat="44.85987" lon="4.87212">
        <ele>111.80000305176</ele>
        <time>2024-05-21T12:19:00.000Z</time>
      </trkpt>
      <trkpt lat="44.8598" lon="4.87211">
        <ele>111.59999847412</ele>
        <time>2024-05-21T12:19:01.000Z</time>
      </trkpt>
      <trkpt lat="44.85975" lon="4.87209">
        <ele>111.40000152588</ele>
        <time>2024-05-21T12:19:02.000Z</time>
      </trkpt>
      <trkpt lat="44.8597" lon="4.87207">
        <ele>111.40000152588</ele>
        <time>2024-05-21T12:19:03.000Z</time>
      </trkpt>
      <trkpt lat="44.85963" lon="4.87205">
        <ele>111.40000152588</ele>
        <time>2024-05-21T12:19:04.000Z</time>
      </trkpt>
      <trkpt lat="44.85958" lon="4.87204">
        <ele>111.40000152588</ele>
        <time>2024-05-21T12:19:05.000Z</time>
      </trkpt>
      <trkpt lat="44.85953" lon="4.87202">
        <ele>111.40000152588</ele>
        <time>2024-05-21T12:19:06.000Z</time>
      </trkpt>
      <trkpt lat="44.85947" lon="4.872">
        <ele>111.40000152588</ele>
        <time>2024-05-21T12:19:07.000Z</time>
      </trkpt>
      <trkpt lat="44.85941" lon="4.87198">
        <ele>111.40000152588</ele>
        <time>2024-05-21T12:19:08.000Z</time>
      </trkpt>
      <trkpt lat="44.85935" lon="4.87197">
        <ele>111.40000152588</ele>
        <time>2024-05-21T12:19:09.000Z</time>
      </trkpt>
      <trkpt lat="44.8593" lon="4.87195">
        <ele>111.40000152588</ele>
        <time>2024-05-21T12:19:10.000Z</time>
      </trkpt>
      <trkpt lat="44.85924" lon="4.87193">
        <ele>111.40000152588</ele>
        <time>2024-05-21T12:19:11.000Z</time>
      </trkpt>
      <trkpt lat="44.85918" lon="4.87191">
        <ele>111.40000152588</ele>
        <time>2024-05-21T12:19:12.000Z</time>
      </trkpt>
      <trkpt lat="44.85913" lon="4.8719">
        <ele>111.40000152588</ele>
        <time>2024-05-21T12:19:13.000Z</time>
      </trkpt>
      <trkpt lat="44.85907" lon="4.87189">
        <ele>111.40000152588</ele>
        <time>2024-05-21T12:19:14.000Z</time>
      </trkpt>
      <trkpt lat="44.85901" lon="4.87188">
        <ele>111.40000152588</ele>
        <time>2024-05-21T12:19:15.000Z</time>
      </trkpt>
      <trkpt lat="44.85894" lon="4.87187">
        <ele>111.40000152588</ele>
        <time>2024-05-21T12:19:16.000Z</time>
      </trkpt>
      <trkpt lat="44.85889" lon="4.87185">
        <ele>111.59999847412</ele>
        <time>2024-05-21T12:19:17.000Z</time>
      </trkpt>
      <trkpt lat="44.85884" lon="4.87182">
        <ele>111.59999847412</ele>
        <time>2024-05-21T12:19:18.000Z</time>
      </trkpt>
      <trkpt lat="44.85878" lon="4.8718">
        <ele>111.59999847412</ele>
        <time>2024-05-21T12:19:19.000Z</time>
      </trkpt>
      <trkpt lat="44.85873" lon="4.87178">
        <ele>111.59999847412</ele>
        <time>2024-05-21T12:19:20.000Z</time>
      </trkpt>
      <trkpt lat="44.85867" lon="4.87176">
        <ele>111.59999847412</ele>
        <time>2024-05-21T12:19:21.000Z</time>
      </trkpt>
      <trkpt lat="44.85861" lon="4.87174">
        <ele>111.40000152588</ele>
        <time>2024-05-21T12:19:22.000Z</time>
      </trkpt>
      <trkpt lat="44.85856" lon="4.87172">
        <ele>111.19999694824</ele>
        <time>2024-05-21T12:19:23.000Z</time>
      </trkpt>
      <trkpt lat="44.8585" lon="4.8717">
        <ele>111.19999694824</ele>
        <time>2024-05-21T12:19:24.000Z</time>
      </trkpt>
      <trkpt lat="44.85845" lon="4.87169">
        <ele>111.19999694824</ele>
        <time>2024-05-21T12:19:25.000Z</time>
      </trkpt>
      <trkpt lat="44.85839" lon="4.87167">
        <ele>111.19999694824</ele>
        <time>2024-05-21T12:19:26.000Z</time>
      </trkpt>
      <trkpt lat="44.85833" lon="4.87166">
        <ele>111.19999694824</ele>
        <time>2024-05-21T12:19:27.000Z</time>
      </trkpt>
      <trkpt lat="44.85827" lon="4.87164">
        <ele>111.19999694824</ele>
        <time>2024-05-21T12:19:28.000Z</time>
      </trkpt>
      <trkpt lat="44.85822" lon="4.87162">
        <ele>111.19999694824</ele>
        <time>2024-05-21T12:19:29.000Z</time>
      </trkpt>
      <trkpt lat="44.85816" lon="4.8716">
        <ele>111.19999694824</ele>
        <time>2024-05-21T12:19:30.000Z</time>
      </trkpt>
      <trkpt lat="44.85811" lon="4.87158">
        <ele>111.40000152588</ele>
        <time>2024-05-21T12:19:31.000Z</time>
      </trkpt>
      <trkpt lat="44.85804" lon="4.87154">
        <ele>111.40000152588</ele>
        <time>2024-05-21T12:19:32.000Z</time>
      </trkpt>
      <trkpt lat="44.858" lon="4.87151">
        <ele>111.40000152588</ele>
        <time>2024-05-21T12:19:33.000Z</time>
      </trkpt>
      <trkpt lat="44.85796" lon="4.87144">
        <ele>111.40000152588</ele>
        <time>2024-05-21T12:19:34.000Z</time>
      </trkpt>
      <trkpt lat="44.85793" lon="4.87139">
        <ele>111.40000152588</ele>
        <time>2024-05-21T12:19:35.000Z</time>
      </trkpt>
      <trkpt lat="44.85789" lon="4.87133">
        <ele>111.40000152588</ele>
        <time>2024-05-21T12:19:36.000Z</time>
      </trkpt>
      <trkpt lat="44.85785" lon="4.87129">
        <ele>111.80000305176</ele>
        <time>2024-05-21T12:19:37.000Z</time>
      </trkpt>
      <trkpt lat="44.8578" lon="4.87125">
        <ele>111.80000305176</ele>
        <time>2024-05-21T12:19:38.000Z</time>
      </trkpt>
      <trkpt lat="44.85775" lon="4.87123">
        <ele>111.80000305176</ele>
        <time>2024-05-21T12:19:39.000Z</time>
      </trkpt>
      <trkpt lat="44.8577" lon="4.87123">
        <ele>111.80000305176</ele>
        <time>2024-05-21T12:19:40.000Z</time>
      </trkpt>
      <trkpt lat="44.85765" lon="4.87124">
        <ele>111.80000305176</ele>
        <time>2024-05-21T12:19:41.000Z</time>
      </trkpt>
      <trkpt lat="44.85761" lon="4.87127">
        <ele>111.80000305176</ele>
        <time>2024-05-21T12:19:42.000Z</time>
      </trkpt>
      <trkpt lat="44.85756" lon="4.8713">
        <ele>111.80000305176</ele>
        <time>2024-05-21T12:19:43.000Z</time>
      </trkpt>
      <trkpt lat="44.8575" lon="4.87133">
        <ele>111.59999847412</ele>
        <time>2024-05-21T12:19:44.000Z</time>
      </trkpt>
      <trkpt lat="44.85745" lon="4.87134">
        <ele>111.59999847412</ele>
        <time>2024-05-21T12:19:45.000Z</time>
      </trkpt>
      <trkpt lat="44.85739" lon="4.87134">
        <ele>111.59999847412</ele>
        <time>2024-05-21T12:19:46.000Z</time>
      </trkpt>
      <trkpt lat="44.85733" lon="4.87133">
        <ele>111.40000152588</ele>
        <time>2024-05-21T12:19:47.000Z</time>
      </trkpt>
      <trkpt lat="44.85727" lon="4.87131">
        <ele>111.19999694824</ele>
        <time>2024-05-21T12:19:48.000Z</time>
      </trkpt>
      <trkpt lat="44.85721" lon="4.8713">
        <ele>111.19999694824</ele>
        <time>2024-05-21T12:19:49.000Z</time>
      </trkpt>
      <trkpt lat="44.85716" lon="4.87129">
        <ele>111.19999694824</ele>
        <time>2024-05-21T12:19:50.000Z</time>
      </trkpt>
      <trkpt lat="44.8571" lon="4.87127">
        <ele>111.19999694824</ele>
        <time>2024-05-21T12:19:51.000Z</time>
      </trkpt>
      <trkpt lat="44.85704" lon="4.87125">
        <ele>111.59999847412</ele>
        <time>2024-05-21T12:19:52.000Z</time>
      </trkpt>
      <trkpt lat="44.85699" lon="4.87124">
        <ele>111.80000305176</ele>
        <time>2024-05-21T12:19:53.000Z</time>
      </trkpt>
      <trkpt lat="44.85693" lon="4.87122">
        <ele>111.80000305176</ele>
        <time>2024-05-21T12:19:54.000Z</time>
      </trkpt>
      <trkpt lat="44.85687" lon="4.87121">
        <ele>111.80000305176</ele>
        <time>2024-05-21T12:19:55.000Z</time>
      </trkpt>
      <trkpt lat="44.85682" lon="4.8712">
        <ele>111.80000305176</ele>
        <time>2024-05-21T12:19:56.000Z</time>
      </trkpt>
      <trkpt lat="44.85676" lon="4.87118">
        <ele>111.80000305176</ele>
        <time>2024-05-21T12:19:57.000Z</time>
      </trkpt>
      <trkpt lat="44.85671" lon="4.87116">
        <ele>112</ele>
        <time>2024-05-21T12:19:58.000Z</time>
      </trkpt>
      <trkpt lat="44.85666" lon="4.87115">
        <ele>112</ele>
        <time>2024-05-21T12:19:59.000Z</time>
      </trkpt>
      <trkpt lat="44.8566" lon="4.87113">
        <ele>112</ele>
        <time>2024-05-21T12:20:00.000Z</time>
      </trkpt>
      <trkpt lat="44.85654" lon="4.87112">
        <ele>112</ele>
        <time>2024-05-21T12:20:01.000Z</time>
      </trkpt>
      <trkpt lat="44.85649" lon="4.8711">
        <ele>112.19999694824</ele>
        <time>2024-05-21T12:20:02.000Z</time>
      </trkpt>
      <trkpt lat="44.85643" lon="4.87108">
        <ele>112.19999694824</ele>
        <time>2024-05-21T12:20:03.000Z</time>
      </trkpt>
      <trkpt lat="44.85638" lon="4.87106">
        <ele>112.19999694824</ele>
        <time>2024-05-21T12:20:04.000Z</time>
      </trkpt>
      <trkpt lat="44.85632" lon="4.87105">
        <ele>112.40000152588</ele>
        <time>2024-05-21T12:20:05.000Z</time>
      </trkpt>
      <trkpt lat="44.85626" lon="4.87103">
        <ele>112.40000152588</ele>
        <time>2024-05-21T12:20:06.000Z</time>
      </trkpt>
      <trkpt lat="44.85621" lon="4.87101">
        <ele>112.40000152588</ele>
        <time>2024-05-21T12:20:07.000Z</time>
      </trkpt>
      <trkpt lat="44.85615" lon="4.871">
        <ele>112.40000152588</ele>
        <time>2024-05-21T12:20:08.000Z</time>
      </trkpt>
      <trkpt lat="44.85609" lon="4.87098">
        <ele>112.40000152588</ele>
        <time>2024-05-21T12:20:09.000Z</time>
      </trkpt>
      <trkpt lat="44.85603" lon="4.87096">
        <ele>112.40000152588</ele>
        <time>2024-05-21T12:20:10.000Z</time>
      </trkpt>
      <trkpt lat="44.85597" lon="4.87094">
        <ele>112.19999694824</ele>
        <time>2024-05-21T12:20:11.000Z</time>
      </trkpt>
      <trkpt lat="44.85591" lon="4.87092">
        <ele>112.19999694824</ele>
        <time>2024-05-21T12:20:12.000Z</time>
      </trkpt>
      <trkpt lat="44.85585" lon="4.8709">
        <ele>112.19999694824</ele>
        <time>2024-05-21T12:20:13.000Z</time>
      </trkpt>
      <trkpt lat="44.85579" lon="4.87089">
        <ele>112.19999694824</ele>
        <time>2024-05-21T12:20:14.000Z</time>
      </trkpt>
      <trkpt lat="44.85573" lon="4.87087">
        <ele>112.19999694824</ele>
        <time>2024-05-21T12:20:15.000Z</time>
      </trkpt>
      <trkpt lat="44.85567" lon="4.87085">
        <ele>112.19999694824</ele>
        <time>2024-05-21T12:20:16.000Z</time>
      </trkpt>
      <trkpt lat="44.85561" lon="4.87083">
        <ele>112.19999694824</ele>
        <time>2024-05-21T12:20:17.000Z</time>
      </trkpt>
      <trkpt lat="44.85555" lon="4.87081">
        <ele>112.19999694824</ele>
        <time>2024-05-21T12:20:18.000Z</time>
      </trkpt>
      <trkpt lat="44.85549" lon="4.8708">
        <ele>112.19999694824</ele>
        <time>2024-05-21T12:20:19.000Z</time>
      </trkpt>
      <trkpt lat="44.85543" lon="4.87078">
        <ele>112</ele>
        <time>2024-05-21T12:20:20.000Z</time>
      </trkpt>
      <trkpt lat="44.85537" lon="4.87076">
        <ele>112</ele>
        <time>2024-05-21T12:20:21.000Z</time>
      </trkpt>
      <trkpt lat="44.85531" lon="4.87074">
        <ele>112</ele>
        <time>2024-05-21T12:20:22.000Z</time>
      </trkpt>
      <trkpt lat="44.85525" lon="4.87072">
        <ele>111.80000305176</ele>
        <time>2024-05-21T12:20:23.000Z</time>
      </trkpt>
      <trkpt lat="44.8552" lon="4.8707">
        <ele>111.80000305176</ele>
        <time>2024-05-21T12:20:24.000Z</time>
      </trkpt>
      <trkpt lat="44.85514" lon="4.87068">
        <ele>111.59999847412</ele>
        <time>2024-05-21T12:20:25.000Z</time>
      </trkpt>
      <trkpt lat="44.85507" lon="4.87066">
        <ele>111.59999847412</ele>
        <time>2024-05-21T12:20:26.000Z</time>
      </trkpt>
      <trkpt lat="44.85502" lon="4.87065">
        <ele>111.59999847412</ele>
        <time>2024-05-21T12:20:27.000Z</time>
      </trkpt>
      <trkpt lat="44.85496" lon="4.87063">
        <ele>111.59999847412</ele>
        <time>2024-05-21T12:20:28.000Z</time>
      </trkpt>
      <trkpt lat="44.8549" lon="4.87061">
        <ele>111.59999847412</ele>
        <time>2024-05-21T12:20:29.000Z</time>
      </trkpt>
      <trkpt lat="44.85484" lon="4.8706">
        <ele>111.59999847412</ele>
        <time>2024-05-21T12:20:30.000Z</time>
      </trkpt>
      <trkpt lat="44.85478" lon="4.87058">
        <ele>111.59999847412</ele>
        <time>2024-05-21T12:20:31.000Z</time>
      </trkpt>
      <trkpt lat="44.85471" lon="4.87055">
        <ele>111.59999847412</ele>
        <time>2024-05-21T12:20:32.000Z</time>
      </trkpt>
      <trkpt lat="44.85467" lon="4.87054">
        <ele>111.40000152588</ele>
        <time>2024-05-21T12:20:33.000Z</time>
      </trkpt>
      <trkpt lat="44.85461" lon="4.87052">
        <ele>111.40000152588</ele>
        <time>2024-05-21T12:20:34.000Z</time>
      </trkpt>
      <trkpt lat="44.85455" lon="4.8705">
        <ele>111.40000152588</ele>
        <time>2024-05-21T12:20:35.000Z</time>
      </trkpt>
      <trkpt lat="44.85449" lon="4.87048">
        <ele>111.40000152588</ele>
        <time>2024-05-21T12:20:36.000Z</time>
      </trkpt>
      <trkpt lat="44.85443" lon="4.87047">
        <ele>111.40000152588</ele>
        <time>2024-05-21T12:20:37.000Z</time>
      </trkpt>
      <trkpt lat="44.85437" lon="4.87045">
        <ele>111.40000152588</ele>
        <time>2024-05-21T12:20:38.000Z</time>
      </trkpt>
      <trkpt lat="44.85431" lon="4.87043">
        <ele>111.40000152588</ele>
        <time>2024-05-21T12:20:39.000Z</time>
      </trkpt>
      <trkpt lat="44.85425" lon="4.87041">
        <ele>111.19999694824</ele>
        <time>2024-05-21T12:20:40.000Z</time>
      </trkpt>
      <trkpt lat="44.85419" lon="4.87039">
        <ele>111.19999694824</ele>
        <time>2024-05-21T12:20:41.000Z</time>
      </trkpt>
      <trkpt lat="44.85413" lon="4.87038">
        <ele>111.19999694824</ele>
        <time>2024-05-21T12:20:42.000Z</time>
      </trkpt>
      <trkpt lat="44.85406" lon="4.87036">
        <ele>111.19999694824</ele>
        <time>2024-05-21T12:20:43.000Z</time>
      </trkpt>
      <trkpt lat="44.854" lon="4.87034">
        <ele>111.19999694824</ele>
        <time>2024-05-21T12:20:44.000Z</time>
      </trkpt>
      <trkpt lat="44.85394" lon="4.87032">
        <ele>111</ele>
        <time>2024-05-21T12:20:45.000Z</time>
      </trkpt>
      <trkpt lat="44.85388" lon="4.8703">
        <ele>110.80000305176</ele>
        <time>2024-05-21T12:20:46.000Z</time>
      </trkpt>
      <trkpt lat="44.85382" lon="4.87028">
        <ele>110.80000305176</ele>
        <time>2024-05-21T12:20:47.000Z</time>
      </trkpt>
      <trkpt lat="44.85375" lon="4.87026">
        <ele>110.80000305176</ele>
        <time>2024-05-21T12:20:48.000Z</time>
      </trkpt>
      <trkpt lat="44.8537" lon="4.87025">
        <ele>110.80000305176</ele>
        <time>2024-05-21T12:20:49.000Z</time>
      </trkpt>
      <trkpt lat="44.85364" lon="4.87023">
        <ele>110.80000305176</ele>
        <time>2024-05-21T12:20:50.000Z</time>
      </trkpt>
      <trkpt lat="44.85358" lon="4.87021">
        <ele>110.80000305176</ele>
        <time>2024-05-21T12:20:51.000Z</time>
      </trkpt>
      <trkpt lat="44.85352" lon="4.87019">
        <ele>110.80000305176</ele>
        <time>2024-05-21T12:20:52.000Z</time>
      </trkpt>
      <trkpt lat="44.85346" lon="4.87017">
        <ele>110.80000305176</ele>
        <time>2024-05-21T12:20:53.000Z</time>
      </trkpt>
      <trkpt lat="44.8534" lon="4.87015">
        <ele>110.59999847412</ele>
        <time>2024-05-21T12:20:54.000Z</time>
      </trkpt>
      <trkpt lat="44.85334" lon="4.87014">
        <ele>110.59999847412</ele>
        <time>2024-05-21T12:20:55.000Z</time>
      </trkpt>
      <trkpt lat="44.85328" lon="4.87012">
        <ele>110.40000152588</ele>
        <time>2024-05-21T12:20:56.000Z</time>
      </trkpt>
      <trkpt lat="44.85322" lon="4.8701">
        <ele>110.19999694824</ele>
        <time>2024-05-21T12:20:57.000Z</time>
      </trkpt>
      <trkpt lat="44.85316" lon="4.87008">
        <ele>110.19999694824</ele>
        <time>2024-05-21T12:20:58.000Z</time>
      </trkpt>
      <trkpt lat="44.8531" lon="4.87006">
        <ele>110.19999694824</ele>
        <time>2024-05-21T12:20:59.000Z</time>
      </trkpt>
      <trkpt lat="44.85304" lon="4.87004">
        <ele>110.19999694824</ele>
        <time>2024-05-21T12:21:00.000Z</time>
      </trkpt>
      <trkpt lat="44.85298" lon="4.87002">
        <ele>110.19999694824</ele>
        <time>2024-05-21T12:21:01.000Z</time>
      </trkpt>
      <trkpt lat="44.85292" lon="4.87001">
        <ele>110.19999694824</ele>
        <time>2024-05-21T12:21:02.000Z</time>
      </trkpt>
      <trkpt lat="44.85286" lon="4.86999">
        <ele>110.19999694824</ele>
        <time>2024-05-21T12:21:03.000Z</time>
      </trkpt>
      <trkpt lat="44.8528" lon="4.86997">
        <ele>110.40000152588</ele>
        <time>2024-05-21T12:21:04.000Z</time>
      </trkpt>
      <trkpt lat="44.85274" lon="4.86996">
        <ele>110.40000152588</ele>
        <time>2024-05-21T12:21:05.000Z</time>
      </trkpt>
      <trkpt lat="44.85268" lon="4.86994">
        <ele>110.40000152588</ele>
        <time>2024-05-21T12:21:06.000Z</time>
      </trkpt>
      <trkpt lat="44.85262" lon="4.86992">
        <ele>110.40000152588</ele>
        <time>2024-05-21T12:21:07.000Z</time>
      </trkpt>
      <trkpt lat="44.85256" lon="4.8699">
        <ele>110.59999847412</ele>
        <time>2024-05-21T12:21:08.000Z</time>
      </trkpt>
      <trkpt lat="44.8525" lon="4.86989">
        <ele>110.59999847412</ele>
        <time>2024-05-21T12:21:09.000Z</time>
      </trkpt>
      <trkpt lat="44.85244" lon="4.86987">
        <ele>110.59999847412</ele>
        <time>2024-05-21T12:21:10.000Z</time>
      </trkpt>
      <trkpt lat="44.85238" lon="4.86985">
        <ele>110.80000305176</ele>
        <time>2024-05-21T12:21:11.000Z</time>
      </trkpt>
      <trkpt lat="44.85232" lon="4.86983">
        <ele>110.80000305176</ele>
        <time>2024-05-21T12:21:12.000Z</time>
      </trkpt>
      <trkpt lat="44.85226" lon="4.86981">
        <ele>110.80000305176</ele>
        <time>2024-05-21T12:21:13.000Z</time>
      </trkpt>
      <trkpt lat="44.8522" lon="4.86979">
        <ele>110.80000305176</ele>
        <time>2024-05-21T12:21:14.000Z</time>
      </trkpt>
      <trkpt lat="44.85214" lon="4.86978">
        <ele>110.80000305176</ele>
        <time>2024-05-21T12:21:15.000Z</time>
      </trkpt>
      <trkpt lat="44.85208" lon="4.86976">
        <ele>110.59999847412</ele>
        <time>2024-05-21T12:21:16.000Z</time>
      </trkpt>
      <trkpt lat="44.85202" lon="4.86974">
        <ele>110.59999847412</ele>
        <time>2024-05-21T12:21:17.000Z</time>
      </trkpt>
      <trkpt lat="44.85196" lon="4.86972">
        <ele>110.40000152588</ele>
        <time>2024-05-21T12:21:18.000Z</time>
      </trkpt>
      <trkpt lat="44.8519" lon="4.8697">
        <ele>110.40000152588</ele>
        <time>2024-05-21T12:21:19.000Z</time>
      </trkpt>
      <trkpt lat="44.85184" lon="4.86968">
        <ele>110.40000152588</ele>
        <time>2024-05-21T12:21:20.000Z</time>
      </trkpt>
      <trkpt lat="44.85178" lon="4.86966">
        <ele>110.40000152588</ele>
        <time>2024-05-21T12:21:21.000Z</time>
      </trkpt>
      <trkpt lat="44.85172" lon="4.86965">
        <ele>110.40000152588</ele>
        <time>2024-05-21T12:21:22.000Z</time>
      </trkpt>
      <trkpt lat="44.85166" lon="4.86963">
        <ele>110.40000152588</ele>
        <time>2024-05-21T12:21:23.000Z</time>
      </trkpt>
      <trkpt lat="44.8516" lon="4.86961">
        <ele>110.40000152588</ele>
        <time>2024-05-21T12:21:24.000Z</time>
      </trkpt>
      <trkpt lat="44.85154" lon="4.8696">
        <ele>110.40000152588</ele>
        <time>2024-05-21T12:21:25.000Z</time>
      </trkpt>
      <trkpt lat="44.85149" lon="4.86958">
        <ele>110.40000152588</ele>
        <time>2024-05-21T12:21:26.000Z</time>
      </trkpt>
      <trkpt lat="44.85143" lon="4.86956">
        <ele>110.40000152588</ele>
        <time>2024-05-21T12:21:27.000Z</time>
      </trkpt>
      <trkpt lat="44.85137" lon="4.86954">
        <ele>110.40000152588</ele>
        <time>2024-05-21T12:21:28.000Z</time>
      </trkpt>
      <trkpt lat="44.85131" lon="4.86953">
        <ele>110.40000152588</ele>
        <time>2024-05-21T12:21:29.000Z</time>
      </trkpt>
      <trkpt lat="44.85126" lon="4.86951">
        <ele>110.40000152588</ele>
        <time>2024-05-21T12:21:30.000Z</time>
      </trkpt>
      <trkpt lat="44.8512" lon="4.86949">
        <ele>110.19999694824</ele>
        <time>2024-05-21T12:21:31.000Z</time>
      </trkpt>
      <trkpt lat="44.85115" lon="4.86947">
        <ele>110.19999694824</ele>
        <time>2024-05-21T12:21:32.000Z</time>
      </trkpt>
      <trkpt lat="44.85109" lon="4.86945">
        <ele>110.19999694824</ele>
        <time>2024-05-21T12:21:33.000Z</time>
      </trkpt>
      <trkpt lat="44.85104" lon="4.86943">
        <ele>110.19999694824</ele>
        <time>2024-05-21T12:21:34.000Z</time>
      </trkpt>
      <trkpt lat="44.85099" lon="4.86941">
        <ele>110</ele>
        <time>2024-05-21T12:21:35.000Z</time>
      </trkpt>
      <trkpt lat="44.85095" lon="4.86939">
        <ele>110</ele>
        <time>2024-05-21T12:21:36.000Z</time>
      </trkpt>
      <trkpt lat="44.85091" lon="4.86937">
        <ele>110</ele>
        <time>2024-05-21T12:21:37.000Z</time>
      </trkpt>
      <trkpt lat="44.85087" lon="4.86933">
        <ele>110</ele>
        <time>2024-05-21T12:21:38.000Z</time>
      </trkpt>
      <trkpt lat="44.85083" lon="4.86929">
        <ele>110</ele>
        <time>2024-05-21T12:21:39.000Z</time>
      </trkpt>
      <trkpt lat="44.8508" lon="4.86925">
        <ele>110.19999694824</ele>
        <time>2024-05-21T12:21:40.000Z</time>
      </trkpt>
      <trkpt lat="44.85076" lon="4.8692">
        <ele>110.59999847412</ele>
        <time>2024-05-21T12:21:41.000Z</time>
      </trkpt>
      <trkpt lat="44.85072" lon="4.86915">
        <ele>110.59999847412</ele>
        <time>2024-05-21T12:21:42.000Z</time>
      </trkpt>
      <trkpt lat="44.85068" lon="4.86912">
        <ele>110.59999847412</ele>
        <time>2024-05-21T12:21:43.000Z</time>
      </trkpt>
      <trkpt lat="44.85063" lon="4.86909">
        <ele>110.80000305176</ele>
        <time>2024-05-21T12:21:44.000Z</time>
      </trkpt>
      <trkpt lat="44.85058" lon="4.86909">
        <ele>110.80000305176</ele>
        <time>2024-05-21T12:21:45.000Z</time>
      </trkpt>
      <trkpt lat="44.85054" lon="4.86909">
        <ele>110.80000305176</ele>
        <time>2024-05-21T12:21:46.000Z</time>
      </trkpt>
      <trkpt lat="44.85049" lon="4.86911">
        <ele>110.59999847412</ele>
        <time>2024-05-21T12:21:47.000Z</time>
      </trkpt>
      <trkpt lat="44.85044" lon="4.86914">
        <ele>110.59999847412</ele>
        <time>2024-05-21T12:21:48.000Z</time>
      </trkpt>
      <trkpt lat="44.85039" lon="4.86916">
        <ele>110.59999847412</ele>
        <time>2024-05-21T12:21:49.000Z</time>
      </trkpt>
      <trkpt lat="44.85034" lon="4.86918">
        <ele>110.59999847412</ele>
        <time>2024-05-21T12:21:50.000Z</time>
      </trkpt>
      <trkpt lat="44.85029" lon="4.86919">
        <ele>110.59999847412</ele>
        <time>2024-05-21T12:21:51.000Z</time>
      </trkpt>
      <trkpt lat="44.85024" lon="4.86919">
        <ele>110.40000152588</ele>
        <time>2024-05-21T12:21:52.000Z</time>
      </trkpt>
      <trkpt lat="44.85019" lon="4.86918">
        <ele>110.40000152588</ele>
        <time>2024-05-21T12:21:53.000Z</time>
      </trkpt>
      <trkpt lat="44.85013" lon="4.86917">
        <ele>110.40000152588</ele>
        <time>2024-05-21T12:21:54.000Z</time>
      </trkpt>
      <trkpt lat="44.85008" lon="4.86916">
        <ele>110.40000152588</ele>
        <time>2024-05-21T12:21:55.000Z</time>
      </trkpt>
      <trkpt lat="44.85003" lon="4.86914">
        <ele>110.19999694824</ele>
        <time>2024-05-21T12:21:56.000Z</time>
      </trkpt>
      <trkpt lat="44.84998" lon="4.86912">
        <ele>110.19999694824</ele>
        <time>2024-05-21T12:21:57.000Z</time>
      </trkpt>
      <trkpt lat="44.84993" lon="4.86911">
        <ele>110.19999694824</ele>
        <time>2024-05-21T12:21:58.000Z</time>
      </trkpt>
      <trkpt lat="44.84988" lon="4.8691">
        <ele>110.19999694824</ele>
        <time>2024-05-21T12:21:59.000Z</time>
      </trkpt>
      <trkpt lat="44.84983" lon="4.86908">
        <ele>110.19999694824</ele>
        <time>2024-05-21T12:22:00.000Z</time>
      </trkpt>
      <trkpt lat="44.84978" lon="4.86907">
        <ele>110.19999694824</ele>
        <time>2024-05-21T12:22:01.000Z</time>
      </trkpt>
      <trkpt lat="44.84973" lon="4.86906">
        <ele>110.19999694824</ele>
        <time>2024-05-21T12:22:02.000Z</time>
      </trkpt>
      <trkpt lat="44.84968" lon="4.86904">
        <ele>110.19999694824</ele>
        <time>2024-05-21T12:22:03.000Z</time>
      </trkpt>
      <trkpt lat="44.84963" lon="4.86902">
        <ele>110.19999694824</ele>
        <time>2024-05-21T12:22:04.000Z</time>
      </trkpt>
      <trkpt lat="44.84958" lon="4.86901">
        <ele>110.19999694824</ele>
        <time>2024-05-21T12:22:05.000Z</time>
      </trkpt>
      <trkpt lat="44.84953" lon="4.86899">
        <ele>110.40000152588</ele>
        <time>2024-05-21T12:22:06.000Z</time>
      </trkpt>
      <trkpt lat="44.84948" lon="4.86898">
        <ele>110.40000152588</ele>
        <time>2024-05-21T12:22:07.000Z</time>
      </trkpt>
      <trkpt lat="44.84943" lon="4.86896">
        <ele>110.40000152588</ele>
        <time>2024-05-21T12:22:08.000Z</time>
      </trkpt>
      <trkpt lat="44.84938" lon="4.86894">
        <ele>110.40000152588</ele>
        <time>2024-05-21T12:22:09.000Z</time>
      </trkpt>
      <trkpt lat="44.84933" lon="4.86893">
        <ele>110.59999847412</ele>
        <time>2024-05-21T12:22:10.000Z</time>
      </trkpt>
      <trkpt lat="44.84928" lon="4.86891">
        <ele>110.59999847412</ele>
        <time>2024-05-21T12:22:11.000Z</time>
      </trkpt>
      <trkpt lat="44.84923" lon="4.8689">
        <ele>110.59999847412</ele>
        <time>2024-05-21T12:22:12.000Z</time>
      </trkpt>
      <trkpt lat="44.84918" lon="4.86888">
        <ele>110.59999847412</ele>
        <time>2024-05-21T12:22:13.000Z</time>
      </trkpt>
      <trkpt lat="44.84913" lon="4.86887">
        <ele>110.59999847412</ele>
        <time>2024-05-21T12:22:14.000Z</time>
      </trkpt>
      <trkpt lat="44.84908" lon="4.86885">
        <ele>110.59999847412</ele>
        <time>2024-05-21T12:22:15.000Z</time>
      </trkpt>
      <trkpt lat="44.84903" lon="4.86884">
        <ele>110.59999847412</ele>
        <time>2024-05-21T12:22:16.000Z</time>
      </trkpt>
      <trkpt lat="44.84898" lon="4.86882">
        <ele>110.59999847412</ele>
        <time>2024-05-21T12:22:17.000Z</time>
      </trkpt>
      <trkpt lat="44.84893" lon="4.86881">
        <ele>110.59999847412</ele>
        <time>2024-05-21T12:22:18.000Z</time>
      </trkpt>
      <trkpt lat="44.84888" lon="4.86879">
        <ele>110.59999847412</ele>
        <time>2024-05-21T12:22:19.000Z</time>
      </trkpt>
      <trkpt lat="44.84883" lon="4.86878">
        <ele>110.80000305176</ele>
        <time>2024-05-21T12:22:20.000Z</time>
      </trkpt>
      <trkpt lat="44.84878" lon="4.86876">
        <ele>110.80000305176</ele>
        <time>2024-05-21T12:22:21.000Z</time>
      </trkpt>
      <trkpt lat="44.84873" lon="4.86874">
        <ele>111</ele>
        <time>2024-05-21T12:22:22.000Z</time>
      </trkpt>
      <trkpt lat="44.84868" lon="4.86872">
        <ele>111.19999694824</ele>
        <time>2024-05-21T12:22:23.000Z</time>
      </trkpt>
      <trkpt lat="44.84862" lon="4.86871">
        <ele>111.40000152588</ele>
        <time>2024-05-21T12:22:24.000Z</time>
      </trkpt>
      <trkpt lat="44.84857" lon="4.8687">
        <ele>111.40000152588</ele>
        <time>2024-05-21T12:22:25.000Z</time>
      </trkpt>
      <trkpt lat="44.84851" lon="4.86868">
        <ele>111.40000152588</ele>
        <time>2024-05-21T12:22:26.000Z</time>
      </trkpt>
      <trkpt lat="44.84846" lon="4.86867">
        <ele>111.40000152588</ele>
        <time>2024-05-21T12:22:27.000Z</time>
      </trkpt>
      <trkpt lat="44.84841" lon="4.86865">
        <ele>111.59999847412</ele>
        <time>2024-05-21T12:22:28.000Z</time>
      </trkpt>
      <trkpt lat="44.84835" lon="4.86863">
        <ele>111.59999847412</ele>
        <time>2024-05-21T12:22:29.000Z</time>
      </trkpt>
      <trkpt lat="44.84829" lon="4.86862">
        <ele>111.59999847412</ele>
        <time>2024-05-21T12:22:30.000Z</time>
      </trkpt>
      <trkpt lat="44.84824" lon="4.8686">
        <ele>111.59999847412</ele>
        <time>2024-05-21T12:22:31.000Z</time>
      </trkpt>
      <trkpt lat="44.84818" lon="4.86858">
        <ele>111.80000305176</ele>
        <time>2024-05-21T12:22:32.000Z</time>
      </trkpt>
      <trkpt lat="44.84813" lon="4.86856">
        <ele>111.59999847412</ele>
        <time>2024-05-21T12:22:33.000Z</time>
      </trkpt>
      <trkpt lat="44.84807" lon="4.86854">
        <ele>111.59999847412</ele>
        <time>2024-05-21T12:22:34.000Z</time>
      </trkpt>
      <trkpt lat="44.84801" lon="4.86852">
        <ele>111.59999847412</ele>
        <time>2024-05-21T12:22:35.000Z</time>
      </trkpt>
      <trkpt lat="44.84795" lon="4.8685">
        <ele>111.80000305176</ele>
        <time>2024-05-21T12:22:36.000Z</time>
      </trkpt>
      <trkpt lat="44.8479" lon="4.86849">
        <ele>111.80000305176</ele>
        <time>2024-05-21T12:22:37.000Z</time>
      </trkpt>
      <trkpt lat="44.84783" lon="4.86847">
        <ele>111.80000305176</ele>
        <time>2024-05-21T12:22:38.000Z</time>
      </trkpt>
      <trkpt lat="44.84778" lon="4.86845">
        <ele>111.80000305176</ele>
        <time>2024-05-21T12:22:39.000Z</time>
      </trkpt>
      <trkpt lat="44.84772" lon="4.86843">
        <ele>111.80000305176</ele>
        <time>2024-05-21T12:22:40.000Z</time>
      </trkpt>
      <trkpt lat="44.84766" lon="4.86841">
        <ele>111.80000305176</ele>
        <time>2024-05-21T12:22:41.000Z</time>
      </trkpt>
      <trkpt lat="44.8476" lon="4.86839">
        <ele>111.59999847412</ele>
        <time>2024-05-21T12:22:42.000Z</time>
      </trkpt>
      <trkpt lat="44.84754" lon="4.86837">
        <ele>111.40000152588</ele>
        <time>2024-05-21T12:22:43.000Z</time>
      </trkpt>
      <trkpt lat="44.84747" lon="4.86835">
        <ele>111.40000152588</ele>
        <time>2024-05-21T12:22:44.000Z</time>
      </trkpt>
      <trkpt lat="44.84742" lon="4.86834">
        <ele>111.40000152588</ele>
        <time>2024-05-21T12:22:45.000Z</time>
      </trkpt>
      <trkpt lat="44.84737" lon="4.86832">
        <ele>111.19999694824</ele>
        <time>2024-05-21T12:22:46.000Z</time>
      </trkpt>
      <trkpt lat="44.84731" lon="4.8683">
        <ele>111</ele>
        <time>2024-05-21T12:22:47.000Z</time>
      </trkpt>
      <trkpt lat="44.84725" lon="4.86829">
        <ele>110.80000305176</ele>
        <time>2024-05-21T12:22:48.000Z</time>
      </trkpt>
      <trkpt lat="44.84719" lon="4.86827">
        <ele>110.59999847412</ele>
        <time>2024-05-21T12:22:49.000Z</time>
      </trkpt>
      <trkpt lat="44.84712" lon="4.86825">
        <ele>110.59999847412</ele>
        <time>2024-05-21T12:22:50.000Z</time>
      </trkpt>
      <trkpt lat="44.84708" lon="4.86824">
        <ele>110.59999847412</ele>
        <time>2024-05-21T12:22:51.000Z</time>
      </trkpt>
      <trkpt lat="44.84702" lon="4.86823">
        <ele>110.40000152588</ele>
        <time>2024-05-21T12:22:52.000Z</time>
      </trkpt>
      <trkpt lat="44.84696" lon="4.86821">
        <ele>110.40000152588</ele>
        <time>2024-05-21T12:22:53.000Z</time>
      </trkpt>
      <trkpt lat="44.84691" lon="4.86819">
        <ele>110.40000152588</ele>
        <time>2024-05-21T12:22:54.000Z</time>
      </trkpt>
      <trkpt lat="44.84685" lon="4.86818">
        <ele>110.40000152588</ele>
        <time>2024-05-21T12:22:55.000Z</time>
      </trkpt>
      <trkpt lat="44.84679" lon="4.86816">
        <ele>110.40000152588</ele>
        <time>2024-05-21T12:22:56.000Z</time>
      </trkpt>
      <trkpt lat="44.84674" lon="4.86814">
        <ele>110.40000152588</ele>
        <time>2024-05-21T12:22:57.000Z</time>
      </trkpt>
      <trkpt lat="44.84668" lon="4.86813">
        <ele>110.40000152588</ele>
        <time>2024-05-21T12:22:58.000Z</time>
      </trkpt>
      <trkpt lat="44.84663" lon="4.86811">
        <ele>110.40000152588</ele>
        <time>2024-05-21T12:22:59.000Z</time>
      </trkpt>
      <trkpt lat="44.84657" lon="4.86809">
        <ele>110.59999847412</ele>
        <time>2024-05-21T12:23:00.000Z</time>
      </trkpt>
      <trkpt lat="44.84651" lon="4.86807">
        <ele>110.80000305176</ele>
        <time>2024-05-21T12:23:01.000Z</time>
      </trkpt>
      <trkpt lat="44.84644" lon="4.86805">
        <ele>110.80000305176</ele>
        <time>2024-05-21T12:23:02.000Z</time>
      </trkpt>
      <trkpt lat="44.84639" lon="4.86803">
        <ele>110.80000305176</ele>
        <time>2024-05-21T12:23:03.000Z</time>
      </trkpt>
      <trkpt lat="44.84634" lon="4.86802">
        <ele>110.80000305176</ele>
        <time>2024-05-21T12:23:04.000Z</time>
      </trkpt>
      <trkpt lat="44.84628" lon="4.868">
        <ele>110.80000305176</ele>
        <time>2024-05-21T12:23:05.000Z</time>
      </trkpt>
      <trkpt lat="44.84622" lon="4.86798">
        <ele>110.80000305176</ele>
        <time>2024-05-21T12:23:06.000Z</time>
      </trkpt>
      <trkpt lat="44.84616" lon="4.86796">
        <ele>110.80000305176</ele>
        <time>2024-05-21T12:23:07.000Z</time>
      </trkpt>
      <trkpt lat="44.84609" lon="4.86794">
        <ele>110.59999847412</ele>
        <time>2024-05-21T12:23:08.000Z</time>
      </trkpt>
      <trkpt lat="44.84605" lon="4.86792">
        <ele>110.59999847412</ele>
        <time>2024-05-21T12:23:09.000Z</time>
      </trkpt>
      <trkpt lat="44.84599" lon="4.8679">
        <ele>110.59999847412</ele>
        <time>2024-05-21T12:23:10.000Z</time>
      </trkpt>
      <trkpt lat="44.84593" lon="4.86788">
        <ele>110.40000152588</ele>
        <time>2024-05-21T12:23:11.000Z</time>
      </trkpt>
      <trkpt lat="44.84588" lon="4.86787">
        <ele>110.40000152588</ele>
        <time>2024-05-21T12:23:12.000Z</time>
      </trkpt>
      <trkpt lat="44.84583" lon="4.86786">
        <ele>110.40000152588</ele>
        <time>2024-05-21T12:23:13.000Z</time>
      </trkpt>
      <trkpt lat="44.84577" lon="4.86786">
        <ele>110.19999694824</ele>
        <time>2024-05-21T12:23:14.000Z</time>
      </trkpt>
      <trkpt lat="44.84571" lon="4.86785">
        <ele>110.19999694824</ele>
        <time>2024-05-21T12:23:15.000Z</time>
      </trkpt>
      <trkpt lat="44.84565" lon="4.86783">
        <ele>110.19999694824</ele>
        <time>2024-05-21T12:23:16.000Z</time>
      </trkpt>
      <trkpt lat="44.84559" lon="4.86781">
        <ele>110.19999694824</ele>
        <time>2024-05-21T12:23:17.000Z</time>
      </trkpt>
      <trkpt lat="44.84553" lon="4.86779">
        <ele>110</ele>
        <time>2024-05-21T12:23:18.000Z</time>
      </trkpt>
      <trkpt lat="44.84547" lon="4.86776">
        <ele>110</ele>
        <time>2024-05-21T12:23:19.000Z</time>
      </trkpt>
      <trkpt lat="44.84541" lon="4.86774">
        <ele>110</ele>
        <time>2024-05-21T12:23:20.000Z</time>
      </trkpt>
      <trkpt lat="44.84535" lon="4.86772">
        <ele>110</ele>
        <time>2024-05-21T12:23:21.000Z</time>
      </trkpt>
      <trkpt lat="44.8453" lon="4.86769">
        <ele>110.19999694824</ele>
        <time>2024-05-21T12:23:22.000Z</time>
      </trkpt>
      <trkpt lat="44.84524" lon="4.86767">
        <ele>110.19999694824</ele>
        <time>2024-05-21T12:23:23.000Z</time>
      </trkpt>
      <trkpt lat="44.84518" lon="4.86765">
        <ele>110.19999694824</ele>
        <time>2024-05-21T12:23:24.000Z</time>
      </trkpt>
      <trkpt lat="44.84512" lon="4.86763">
        <ele>110.19999694824</ele>
        <time>2024-05-21T12:23:25.000Z</time>
      </trkpt>
      <trkpt lat="44.84506" lon="4.86761">
        <ele>110.19999694824</ele>
        <time>2024-05-21T12:23:26.000Z</time>
      </trkpt>
      <trkpt lat="44.845" lon="4.86759">
        <ele>110</ele>
        <time>2024-05-21T12:23:27.000Z</time>
      </trkpt>
      <trkpt lat="44.84495" lon="4.86757">
        <ele>110</ele>
        <time>2024-05-21T12:23:28.000Z</time>
      </trkpt>
      <trkpt lat="44.84489" lon="4.86755">
        <ele>110</ele>
        <time>2024-05-21T12:23:29.000Z</time>
      </trkpt>
      <trkpt lat="44.84484" lon="4.86753">
        <ele>110</ele>
        <time>2024-05-21T12:23:30.000Z</time>
      </trkpt>
      <trkpt lat="44.84479" lon="4.86752">
        <ele>110</ele>
        <time>2024-05-21T12:23:31.000Z</time>
      </trkpt>
      <trkpt lat="44.84474" lon="4.8675">
        <ele>110</ele>
        <time>2024-05-21T12:23:32.000Z</time>
      </trkpt>
      <trkpt lat="44.84469" lon="4.86748">
        <ele>110</ele>
        <time>2024-05-21T12:23:33.000Z</time>
      </trkpt>
      <trkpt lat="44.84464" lon="4.86748">
        <ele>110.19999694824</ele>
        <time>2024-05-21T12:23:34.000Z</time>
      </trkpt>
      <trkpt lat="44.8446" lon="4.86746">
        <ele>110.19999694824</ele>
        <time>2024-05-21T12:23:35.000Z</time>
      </trkpt>
      <trkpt lat="44.84457" lon="4.86745">
        <ele>110.19999694824</ele>
        <time>2024-05-21T12:23:36.000Z</time>
      </trkpt>
      <trkpt lat="44.84455" lon="4.86745">
        <ele>110.19999694824</ele>
        <time>2024-05-21T12:23:37.000Z</time>
      </trkpt>
      <trkpt lat="44.84452" lon="4.86744">
        <ele>110.19999694824</ele>
        <time>2024-05-21T12:23:38.000Z</time>
      </trkpt>
      <trkpt lat="44.84451" lon="4.86744">
        <ele>110.40000152588</ele>
        <time>2024-05-21T12:23:39.000Z</time>
      </trkpt>
      <trkpt lat="44.8445" lon="4.86743">
        <ele>110.59999847412</ele>
        <time>2024-05-21T12:23:40.000Z</time>
      </trkpt>
      <trkpt lat="44.8445" lon="4.86743">
        <ele>110.80000305176</ele>
        <time>2024-05-21T12:23:41.000Z</time>
      </trkpt>
      <trkpt lat="44.8445" lon="4.86743">
        <ele>110.80000305176</ele>
        <time>2024-05-21T12:23:42.000Z</time>
      </trkpt>
      <trkpt lat="44.84447" lon="4.86742">
        <ele>111.19999694824</ele>
        <time>2024-05-21T12:24:01.000Z</time>
      </trkpt>
      <trkpt lat="44.84445" lon="4.86742">
        <ele>111.19999694824</ele>
        <time>2024-05-21T12:24:02.000Z</time>
      </trkpt>
      <trkpt lat="44.84442" lon="4.86743">
        <ele>111.19999694824</ele>
        <time>2024-05-21T12:24:03.000Z</time>
      </trkpt>
      <trkpt lat="44.84439" lon="4.86744">
        <ele>111.19999694824</ele>
        <time>2024-05-21T12:24:04.000Z</time>
      </trkpt>
      <trkpt lat="44.84436" lon="4.86746">
        <ele>111.19999694824</ele>
        <time>2024-05-21T12:24:05.000Z</time>
      </trkpt>
      <trkpt lat="44.84433" lon="4.86749">
        <ele>111</ele>
        <time>2024-05-21T12:24:06.000Z</time>
      </trkpt>
      <trkpt lat="44.8443" lon="4.86753">
        <ele>111</ele>
        <time>2024-05-21T12:24:07.000Z</time>
      </trkpt>
      <trkpt lat="44.84428" lon="4.86757">
        <ele>111</ele>
        <time>2024-05-21T12:24:08.000Z</time>
      </trkpt>
      <trkpt lat="44.84427" lon="4.86762">
        <ele>110.80000305176</ele>
        <time>2024-05-21T12:24:09.000Z</time>
      </trkpt>
      <trkpt lat="44.84426" lon="4.86767">
        <ele>110.80000305176</ele>
        <time>2024-05-21T12:24:10.000Z</time>
      </trkpt>
      <trkpt lat="44.84427" lon="4.86773">
        <ele>110.80000305176</ele>
        <time>2024-05-21T12:24:11.000Z</time>
      </trkpt>
      <trkpt lat="44.84427" lon="4.86779">
        <ele>110.59999847412</ele>
        <time>2024-05-21T12:24:12.000Z</time>
      </trkpt>
      <trkpt lat="44.84428" lon="4.86785">
        <ele>110.59999847412</ele>
        <time>2024-05-21T12:24:13.000Z</time>
      </trkpt>
      <trkpt lat="44.84429" lon="4.86792">
        <ele>110.59999847412</ele>
        <time>2024-05-21T12:24:14.000Z</time>
      </trkpt>
      <trkpt lat="44.84429" lon="4.86798">
        <ele>110.59999847412</ele>
        <time>2024-05-21T12:24:15.000Z</time>
      </trkpt>
      <trkpt lat="44.8443" lon="4.86805">
        <ele>110.59999847412</ele>
        <time>2024-05-21T12:24:16.000Z</time>
      </trkpt>
      <trkpt lat="44.8443" lon="4.86812">
        <ele>110.59999847412</ele>
        <time>2024-05-21T12:24:17.000Z</time>
      </trkpt>
      <trkpt lat="44.8443" lon="4.86818">
        <ele>110.59999847412</ele>
        <time>2024-05-21T12:24:18.000Z</time>
      </trkpt>
      <trkpt lat="44.84429" lon="4.86825">
        <ele>110.59999847412</ele>
        <time>2024-05-21T12:24:19.000Z</time>
      </trkpt>
      <trkpt lat="44.84429" lon="4.86832">
        <ele>110.40000152588</ele>
        <time>2024-05-21T12:24:20.000Z</time>
      </trkpt>
      <trkpt lat="44.84429" lon="4.86839">
        <ele>110.40000152588</ele>
        <time>2024-05-21T12:24:21.000Z</time>
      </trkpt>
      <trkpt lat="44.84428" lon="4.86846">
        <ele>110.40000152588</ele>
        <time>2024-05-21T12:24:22.000Z</time>
      </trkpt>
      <trkpt lat="44.84428" lon="4.86853">
        <ele>110.40000152588</ele>
        <time>2024-05-21T12:24:23.000Z</time>
      </trkpt>
      <trkpt lat="44.84428" lon="4.8686">
        <ele>110.40000152588</ele>
        <time>2024-05-21T12:24:24.000Z</time>
      </trkpt>
      <trkpt lat="44.84427" lon="4.86866">
        <ele>110.40000152588</ele>
        <time>2024-05-21T12:24:25.000Z</time>
      </trkpt>
      <trkpt lat="44.84427" lon="4.86873">
        <ele>110.40000152588</ele>
        <time>2024-05-21T12:24:26.000Z</time>
      </trkpt>
      <trkpt lat="44.84427" lon="4.86881">
        <ele>110.40000152588</ele>
        <time>2024-05-21T12:24:27.000Z</time>
      </trkpt>
      <trkpt lat="44.84426" lon="4.86888">
        <ele>110.40000152588</ele>
        <time>2024-05-21T12:24:28.000Z</time>
      </trkpt>
      <trkpt lat="44.84426" lon="4.86895">
        <ele>110.40000152588</ele>
        <time>2024-05-21T12:24:29.000Z</time>
      </trkpt>
      <trkpt lat="44.84425" lon="4.86902">
        <ele>110.40000152588</ele>
        <time>2024-05-21T12:24:30.000Z</time>
      </trkpt>
      <trkpt lat="44.84425" lon="4.86909">
        <ele>110.40000152588</ele>
        <time>2024-05-21T12:24:31.000Z</time>
      </trkpt>
      <trkpt lat="44.84425" lon="4.86917">
        <ele>110.40000152588</ele>
        <time>2024-05-21T12:24:32.000Z</time>
      </trkpt>
      <trkpt lat="44.84424" lon="4.86924">
        <ele>110.40000152588</ele>
        <time>2024-05-21T12:24:33.000Z</time>
      </trkpt>
      <trkpt lat="44.84423" lon="4.86932">
        <ele>110.59999847412</ele>
        <time>2024-05-21T12:24:34.000Z</time>
      </trkpt>
      <trkpt lat="44.84422" lon="4.86939">
        <ele>110.59999847412</ele>
        <time>2024-05-21T12:24:35.000Z</time>
      </trkpt>
      <trkpt lat="44.84421" lon="4.86946">
        <ele>110.59999847412</ele>
        <time>2024-05-21T12:24:36.000Z</time>
      </trkpt>
      <trkpt lat="44.8442" lon="4.86954">
        <ele>110.80000305176</ele>
        <time>2024-05-21T12:24:37.000Z</time>
      </trkpt>
      <trkpt lat="44.84419" lon="4.86962">
        <ele>110.80000305176</ele>
        <time>2024-05-21T12:24:38.000Z</time>
      </trkpt>
      <trkpt lat="44.84418" lon="4.8697">
        <ele>111</ele>
        <time>2024-05-21T12:24:39.000Z</time>
      </trkpt>
      <trkpt lat="44.84417" lon="4.86978">
        <ele>111</ele>
        <time>2024-05-21T12:24:40.000Z</time>
      </trkpt>
      <trkpt lat="44.84416" lon="4.86986">
        <ele>111</ele>
        <time>2024-05-21T12:24:41.000Z</time>
      </trkpt>
      <trkpt lat="44.84414" lon="4.86994">
        <ele>111</ele>
        <time>2024-05-21T12:24:42.000Z</time>
      </trkpt>
      <trkpt lat="44.84413" lon="4.87002">
        <ele>111</ele>
        <time>2024-05-21T12:24:43.000Z</time>
      </trkpt>
      <trkpt lat="44.84412" lon="4.8701">
        <ele>111</ele>
        <time>2024-05-21T12:24:44.000Z</time>
      </trkpt>
      <trkpt lat="44.84411" lon="4.87018">
        <ele>111</ele>
        <time>2024-05-21T12:24:45.000Z</time>
      </trkpt>
      <trkpt lat="44.84409" lon="4.87026">
        <ele>111</ele>
        <time>2024-05-21T12:24:46.000Z</time>
      </trkpt>
      <trkpt lat="44.84408" lon="4.87035">
        <ele>111</ele>
        <time>2024-05-21T12:24:47.000Z</time>
      </trkpt>
      <trkpt lat="44.84407" lon="4.87043">
        <ele>111</ele>
        <time>2024-05-21T12:24:48.000Z</time>
      </trkpt>
      <trkpt lat="44.84405" lon="4.87051">
        <ele>111</ele>
        <time>2024-05-21T12:24:49.000Z</time>
      </trkpt>
      <trkpt lat="44.84403" lon="4.87059">
        <ele>111</ele>
        <time>2024-05-21T12:24:50.000Z</time>
      </trkpt>
      <trkpt lat="44.844" lon="4.87067">
        <ele>111</ele>
        <time>2024-05-21T12:24:51.000Z</time>
      </trkpt>
      <trkpt lat="44.84397" lon="4.87074">
        <ele>111</ele>
        <time>2024-05-21T12:24:52.000Z</time>
      </trkpt>
      <trkpt lat="44.84395" lon="4.87081">
        <ele>111</ele>
        <time>2024-05-21T12:24:53.000Z</time>
      </trkpt>
      <trkpt lat="44.84392" lon="4.87088">
        <ele>111</ele>
        <time>2024-05-21T12:24:54.000Z</time>
      </trkpt>
      <trkpt lat="44.84389" lon="4.87095">
        <ele>110.80000305176</ele>
        <time>2024-05-21T12:24:55.000Z</time>
      </trkpt>
      <trkpt lat="44.84386" lon="4.87102">
        <ele>110.80000305176</ele>
        <time>2024-05-21T12:24:56.000Z</time>
      </trkpt>
      <trkpt lat="44.84383" lon="4.87109">
        <ele>110.59999847412</ele>
        <time>2024-05-21T12:24:57.000Z</time>
      </trkpt>
      <trkpt lat="44.8438" lon="4.87117">
        <ele>110.59999847412</ele>
        <time>2024-05-21T12:24:58.000Z</time>
      </trkpt>
      <trkpt lat="44.84377" lon="4.87124">
        <ele>110.59999847412</ele>
        <time>2024-05-21T12:24:59.000Z</time>
      </trkpt>
      <trkpt lat="44.84375" lon="4.87131">
        <ele>110.59999847412</ele>
        <time>2024-05-21T12:25:00.000Z</time>
      </trkpt>
      <trkpt lat="44.84372" lon="4.87139">
        <ele>110.59999847412</ele>
        <time>2024-05-21T12:25:01.000Z</time>
      </trkpt>
      <trkpt lat="44.84369" lon="4.87146">
        <ele>110.59999847412</ele>
        <time>2024-05-21T12:25:02.000Z</time>
      </trkpt>
      <trkpt lat="44.84367" lon="4.87154">
        <ele>110.59999847412</ele>
        <time>2024-05-21T12:25:03.000Z</time>
      </trkpt>
      <trkpt lat="44.84364" lon="4.87161">
        <ele>110.80000305176</ele>
        <time>2024-05-21T12:25:04.000Z</time>
      </trkpt>
      <trkpt lat="44.84361" lon="4.87169">
        <ele>111</ele>
        <time>2024-05-21T12:25:05.000Z</time>
      </trkpt>
      <trkpt lat="44.84359" lon="4.87176">
        <ele>111</ele>
        <time>2024-05-21T12:25:06.000Z</time>
      </trkpt>
      <trkpt lat="44.84356" lon="4.87183">
        <ele>111</ele>
        <time>2024-05-21T12:25:07.000Z</time>
      </trkpt>
      <trkpt lat="44.84353" lon="4.8719">
        <ele>111</ele>
        <time>2024-05-21T12:25:08.000Z</time>
      </trkpt>
      <trkpt lat="44.8435" lon="4.87198">
        <ele>111</ele>
        <time>2024-05-21T12:25:09.000Z</time>
      </trkpt>
      <trkpt lat="44.84347" lon="4.87205">
        <ele>111</ele>
        <time>2024-05-21T12:25:10.000Z</time>
      </trkpt>
      <trkpt lat="44.84344" lon="4.87212">
        <ele>111</ele>
        <time>2024-05-21T12:25:11.000Z</time>
      </trkpt>
      <trkpt lat="44.84342" lon="4.87219">
        <ele>111</ele>
        <time>2024-05-21T12:25:12.000Z</time>
      </trkpt>
      <trkpt lat="44.84339" lon="4.87226">
        <ele>111</ele>
        <time>2024-05-21T12:25:13.000Z</time>
      </trkpt>
      <trkpt lat="44.84337" lon="4.87233">
        <ele>111.19999694824</ele>
        <time>2024-05-21T12:25:14.000Z</time>
      </trkpt>
      <trkpt lat="44.84334" lon="4.8724">
        <ele>111.19999694824</ele>
        <time>2024-05-21T12:25:15.000Z</time>
      </trkpt>
      <trkpt lat="44.84331" lon="4.87248">
        <ele>111.40000152588</ele>
        <time>2024-05-21T12:25:16.000Z</time>
      </trkpt>
      <trkpt lat="44.84329" lon="4.87256">
        <ele>111.40000152588</ele>
        <time>2024-05-21T12:25:17.000Z</time>
      </trkpt>
      <trkpt lat="44.84327" lon="4.87264">
        <ele>111.40000152588</ele>
        <time>2024-05-21T12:25:18.000Z</time>
      </trkpt>
      <trkpt lat="44.84326" lon="4.87272">
        <ele>111.40000152588</ele>
        <time>2024-05-21T12:25:19.000Z</time>
      </trkpt>
      <trkpt lat="44.84324" lon="4.8728">
        <ele>111.19999694824</ele>
        <time>2024-05-21T12:25:20.000Z</time>
      </trkpt>
      <trkpt lat="44.84323" lon="4.87288">
        <ele>111.19999694824</ele>
        <time>2024-05-21T12:25:21.000Z</time>
      </trkpt>
      <trkpt lat="44.84321" lon="4.87296">
        <ele>111.19999694824</ele>
        <time>2024-05-21T12:25:22.000Z</time>
      </trkpt>
      <trkpt lat="44.8432" lon="4.87304">
        <ele>111.19999694824</ele>
        <time>2024-05-21T12:25:23.000Z</time>
      </trkpt>
      <trkpt lat="44.84319" lon="4.87312">
        <ele>111.19999694824</ele>
        <time>2024-05-21T12:25:24.000Z</time>
      </trkpt>
      <trkpt lat="44.84318" lon="4.8732">
        <ele>111.19999694824</ele>
        <time>2024-05-21T12:25:25.000Z</time>
      </trkpt>
      <trkpt lat="44.84318" lon="4.87329">
        <ele>111.19999694824</ele>
        <time>2024-05-21T12:25:26.000Z</time>
      </trkpt>
      <trkpt lat="44.84317" lon="4.87337">
        <ele>111.19999694824</ele>
        <time>2024-05-21T12:25:27.000Z</time>
      </trkpt>
      <trkpt lat="44.84317" lon="4.87345">
        <ele>111.19999694824</ele>
        <time>2024-05-21T12:25:28.000Z</time>
      </trkpt>
      <trkpt lat="44.84316" lon="4.87353">
        <ele>111.19999694824</ele>
        <time>2024-05-21T12:25:29.000Z</time>
      </trkpt>
      <trkpt lat="44.84316" lon="4.87361">
        <ele>111.19999694824</ele>
        <time>2024-05-21T12:25:30.000Z</time>
      </trkpt>
      <trkpt lat="44.84315" lon="4.87369">
        <ele>111.19999694824</ele>
        <time>2024-05-21T12:25:31.000Z</time>
      </trkpt>
      <trkpt lat="44.84314" lon="4.87377">
        <ele>111.19999694824</ele>
        <time>2024-05-21T12:25:32.000Z</time>
      </trkpt>
      <trkpt lat="44.84314" lon="4.87385">
        <ele>111.19999694824</ele>
        <time>2024-05-21T12:25:33.000Z</time>
      </trkpt>
      <trkpt lat="44.84314" lon="4.87393">
        <ele>111.19999694824</ele>
        <time>2024-05-21T12:25:34.000Z</time>
      </trkpt>
      <trkpt lat="44.84314" lon="4.87401">
        <ele>111.19999694824</ele>
        <time>2024-05-21T12:25:35.000Z</time>
      </trkpt>
      <trkpt lat="44.84313" lon="4.87409">
        <ele>111.40000152588</ele>
        <time>2024-05-21T12:25:36.000Z</time>
      </trkpt>
      <trkpt lat="44.84313" lon="4.87417">
        <ele>111.40000152588</ele>
        <time>2024-05-21T12:25:37.000Z</time>
      </trkpt>
      <trkpt lat="44.84313" lon="4.87425">
        <ele>111.59999847412</ele>
        <time>2024-05-21T12:25:38.000Z</time>
      </trkpt>
      <trkpt lat="44.84312" lon="4.87434">
        <ele>111.59999847412</ele>
        <time>2024-05-21T12:25:39.000Z</time>
      </trkpt>
      <trkpt lat="44.84312" lon="4.87442">
        <ele>111.59999847412</ele>
        <time>2024-05-21T12:25:40.000Z</time>
      </trkpt>
      <trkpt lat="44.84311" lon="4.8745">
        <ele>111.59999847412</ele>
        <time>2024-05-21T12:25:41.000Z</time>
      </trkpt>
      <trkpt lat="44.84311" lon="4.87458">
        <ele>111.59999847412</ele>
        <time>2024-05-21T12:25:42.000Z</time>
      </trkpt>
      <trkpt lat="44.8431" lon="4.87466">
        <ele>111.80000305176</ele>
        <time>2024-05-21T12:25:43.000Z</time>
      </trkpt>
      <trkpt lat="44.8431" lon="4.87474">
        <ele>111.59999847412</ele>
        <time>2024-05-21T12:25:44.000Z</time>
      </trkpt>
      <trkpt lat="44.84309" lon="4.87482">
        <ele>111.80000305176</ele>
        <time>2024-05-21T12:25:45.000Z</time>
      </trkpt>
      <trkpt lat="44.84309" lon="4.87491">
        <ele>111.80000305176</ele>
        <time>2024-05-21T12:25:46.000Z</time>
      </trkpt>
      <trkpt lat="44.84309" lon="4.87499">
        <ele>111.80000305176</ele>
        <time>2024-05-21T12:25:47.000Z</time>
      </trkpt>
      <trkpt lat="44.84309" lon="4.87507">
        <ele>111.80000305176</ele>
        <time>2024-05-21T12:25:48.000Z</time>
      </trkpt>
      <trkpt lat="44.84308" lon="4.87515">
        <ele>111.80000305176</ele>
        <time>2024-05-21T12:25:49.000Z</time>
      </trkpt>
      <trkpt lat="44.84308" lon="4.87523">
        <ele>111.80000305176</ele>
        <time>2024-05-21T12:25:50.000Z</time>
      </trkpt>
      <trkpt lat="44.84307" lon="4.87532">
        <ele>111.80000305176</ele>
        <time>2024-05-21T12:25:51.000Z</time>
      </trkpt>
      <trkpt lat="44.84307" lon="4.8754">
        <ele>111.80000305176</ele>
        <time>2024-05-21T12:25:52.000Z</time>
      </trkpt>
      <trkpt lat="44.84306" lon="4.87548">
        <ele>112</ele>
        <time>2024-05-21T12:25:53.000Z</time>
      </trkpt>
      <trkpt lat="44.84306" lon="4.87556">
        <ele>111.80000305176</ele>
        <time>2024-05-21T12:25:54.000Z</time>
      </trkpt>
      <trkpt lat="44.84305" lon="4.87564">
        <ele>111.80000305176</ele>
        <time>2024-05-21T12:25:55.000Z</time>
      </trkpt>
      <trkpt lat="44.84305" lon="4.87573">
        <ele>111.80000305176</ele>
        <time>2024-05-21T12:25:56.000Z</time>
      </trkpt>
      <trkpt lat="44.84305" lon="4.87581">
        <ele>111.80000305176</ele>
        <time>2024-05-21T12:25:57.000Z</time>
      </trkpt>
      <trkpt lat="44.84305" lon="4.87589">
        <ele>111.80000305176</ele>
        <time>2024-05-21T12:25:58.000Z</time>
      </trkpt>
      <trkpt lat="44.84305" lon="4.87597">
        <ele>112</ele>
        <time>2024-05-21T12:25:59.000Z</time>
      </trkpt>
      <trkpt lat="44.84305" lon="4.87606">
        <ele>112</ele>
        <time>2024-05-21T12:26:00.000Z</time>
      </trkpt>
      <trkpt lat="44.84305" lon="4.87614">
        <ele>112</ele>
        <time>2024-05-21T12:26:01.000Z</time>
      </trkpt>
      <trkpt lat="44.84305" lon="4.87622">
        <ele>112</ele>
        <time>2024-05-21T12:26:02.000Z</time>
      </trkpt>
      <trkpt lat="44.84305" lon="4.8763">
        <ele>112</ele>
        <time>2024-05-21T12:26:03.000Z</time>
      </trkpt>
      <trkpt lat="44.84306" lon="4.87638">
        <ele>112</ele>
        <time>2024-05-21T12:26:04.000Z</time>
      </trkpt>
      <trkpt lat="44.84306" lon="4.87646">
        <ele>112</ele>
        <time>2024-05-21T12:26:05.000Z</time>
      </trkpt>
      <trkpt lat="44.84307" lon="4.87655">
        <ele>112</ele>
        <time>2024-05-21T12:26:06.000Z</time>
      </trkpt>
      <trkpt lat="44.84307" lon="4.87663">
        <ele>112</ele>
        <time>2024-05-21T12:26:07.000Z</time>
      </trkpt>
      <trkpt lat="44.84308" lon="4.87671">
        <ele>112.19999694824</ele>
        <time>2024-05-21T12:26:08.000Z</time>
      </trkpt>
      <trkpt lat="44.84308" lon="4.8768">
        <ele>112.19999694824</ele>
        <time>2024-05-21T12:26:09.000Z</time>
      </trkpt>
      <trkpt lat="44.84309" lon="4.87688">
        <ele>112.19999694824</ele>
        <time>2024-05-21T12:26:10.000Z</time>
      </trkpt>
      <trkpt lat="44.8431" lon="4.87696">
        <ele>112.19999694824</ele>
        <time>2024-05-21T12:26:11.000Z</time>
      </trkpt>
      <trkpt lat="44.8431" lon="4.87704">
        <ele>112.19999694824</ele>
        <time>2024-05-21T12:26:12.000Z</time>
      </trkpt>
      <trkpt lat="44.84311" lon="4.87712">
        <ele>112.19999694824</ele>
        <time>2024-05-21T12:26:13.000Z</time>
      </trkpt>
      <trkpt lat="44.84312" lon="4.8772">
        <ele>112.19999694824</ele>
        <time>2024-05-21T12:26:14.000Z</time>
      </trkpt>
      <trkpt lat="44.84312" lon="4.87728">
        <ele>112.19999694824</ele>
        <time>2024-05-21T12:26:15.000Z</time>
      </trkpt>
      <trkpt lat="44.84313" lon="4.87736">
        <ele>112.19999694824</ele>
        <time>2024-05-21T12:26:16.000Z</time>
      </trkpt>
      <trkpt lat="44.84314" lon="4.87745">
        <ele>112.19999694824</ele>
        <time>2024-05-21T12:26:17.000Z</time>
      </trkpt>
      <trkpt lat="44.84315" lon="4.87753">
        <ele>112.19999694824</ele>
        <time>2024-05-21T12:26:18.000Z</time>
      </trkpt>
      <trkpt lat="44.84315" lon="4.87763">
        <ele>112.19999694824</ele>
        <time>2024-05-21T12:26:19.000Z</time>
      </trkpt>
      <trkpt lat="44.84316" lon="4.87769">
        <ele>112.40000152588</ele>
        <time>2024-05-21T12:26:20.000Z</time>
      </trkpt>
      <trkpt lat="44.84316" lon="4.87779">
        <ele>112.80000305176</ele>
        <time>2024-05-21T12:26:21.000Z</time>
      </trkpt>
      <trkpt lat="44.84317" lon="4.87786">
        <ele>113</ele>
        <time>2024-05-21T12:26:22.000Z</time>
      </trkpt>
      <trkpt lat="44.84317" lon="4.87794">
        <ele>113</ele>
        <time>2024-05-21T12:26:23.000Z</time>
      </trkpt>
      <trkpt lat="44.84318" lon="4.87802">
        <ele>113</ele>
        <time>2024-05-21T12:26:24.000Z</time>
      </trkpt>
      <trkpt lat="44.84319" lon="4.87811">
        <ele>113</ele>
        <time>2024-05-21T12:26:25.000Z</time>
      </trkpt>
      <trkpt lat="44.8432" lon="4.87819">
        <ele>112.80000305176</ele>
        <time>2024-05-21T12:26:26.000Z</time>
      </trkpt>
      <trkpt lat="44.8432" lon="4.87827">
        <ele>112.80000305176</ele>
        <time>2024-05-21T12:26:27.000Z</time>
      </trkpt>
      <trkpt lat="44.84321" lon="4.87835">
        <ele>112.80000305176</ele>
        <time>2024-05-21T12:26:28.000Z</time>
      </trkpt>
      <trkpt lat="44.84322" lon="4.87844">
        <ele>112.80000305176</ele>
        <time>2024-05-21T12:26:29.000Z</time>
      </trkpt>
      <trkpt lat="44.84322" lon="4.87852">
        <ele>113</ele>
        <time>2024-05-21T12:26:30.000Z</time>
      </trkpt>
      <trkpt lat="44.84323" lon="4.8786">
        <ele>113</ele>
        <time>2024-05-21T12:26:31.000Z</time>
      </trkpt>
      <trkpt lat="44.84324" lon="4.87868">
        <ele>113</ele>
        <time>2024-05-21T12:26:32.000Z</time>
      </trkpt>
      <trkpt lat="44.84325" lon="4.87875">
        <ele>113.19999694824</ele>
        <time>2024-05-21T12:26:33.000Z</time>
      </trkpt>
      <trkpt lat="44.84326" lon="4.87883">
        <ele>113.19999694824</ele>
        <time>2024-05-21T12:26:34.000Z</time>
      </trkpt>
      <trkpt lat="44.84327" lon="4.87891">
        <ele>113.19999694824</ele>
        <time>2024-05-21T12:26:35.000Z</time>
      </trkpt>
      <trkpt lat="44.84328" lon="4.87898">
        <ele>113.40000152588</ele>
        <time>2024-05-21T12:26:36.000Z</time>
      </trkpt>
      <trkpt lat="44.84329" lon="4.87905">
        <ele>113.40000152588</ele>
        <time>2024-05-21T12:26:37.000Z</time>
      </trkpt>
      <trkpt lat="44.84329" lon="4.87913">
        <ele>113.40000152588</ele>
        <time>2024-05-21T12:26:38.000Z</time>
      </trkpt>
      <trkpt lat="44.8433" lon="4.8792">
        <ele>113.59999847412</ele>
        <time>2024-05-21T12:26:39.000Z</time>
      </trkpt>
      <trkpt lat="44.84331" lon="4.87927">
        <ele>113.59999847412</ele>
        <time>2024-05-21T12:26:40.000Z</time>
      </trkpt>
      <trkpt lat="44.84331" lon="4.87934">
        <ele>113.80000305176</ele>
        <time>2024-05-21T12:26:41.000Z</time>
      </trkpt>
      <trkpt lat="44.84332" lon="4.87941">
        <ele>113.80000305176</ele>
        <time>2024-05-21T12:26:42.000Z</time>
      </trkpt>
      <trkpt lat="44.84333" lon="4.87947">
        <ele>114</ele>
        <time>2024-05-21T12:26:43.000Z</time>
      </trkpt>
      <trkpt lat="44.84333" lon="4.87954">
        <ele>114.19999694824</ele>
        <time>2024-05-21T12:26:44.000Z</time>
      </trkpt>
      <trkpt lat="44.84333" lon="4.8796">
        <ele>114.40000152588</ele>
        <time>2024-05-21T12:26:45.000Z</time>
      </trkpt>
      <trkpt lat="44.84333" lon="4.87967">
        <ele>114.59999847412</ele>
        <time>2024-05-21T12:26:46.000Z</time>
      </trkpt>
      <trkpt lat="44.84334" lon="4.87973">
        <ele>114.80000305176</ele>
        <time>2024-05-21T12:26:47.000Z</time>
      </trkpt>
      <trkpt lat="44.84334" lon="4.87979">
        <ele>115</ele>
        <time>2024-05-21T12:26:48.000Z</time>
      </trkpt>
      <trkpt lat="44.84334" lon="4.87985">
        <ele>115</ele>
        <time>2024-05-21T12:26:49.000Z</time>
      </trkpt>
      <trkpt lat="44.84333" lon="4.87991">
        <ele>115</ele>
        <time>2024-05-21T12:26:50.000Z</time>
      </trkpt>
      <trkpt lat="44.84333" lon="4.87997">
        <ele>115.19999694824</ele>
        <time>2024-05-21T12:26:51.000Z</time>
      </trkpt>
      <trkpt lat="44.84333" lon="4.88004">
        <ele>115.40000152588</ele>
        <time>2024-05-21T12:26:52.000Z</time>
      </trkpt>
      <trkpt lat="44.84333" lon="4.88009">
        <ele>115.40000152588</ele>
        <time>2024-05-21T12:26:53.000Z</time>
      </trkpt>
      <trkpt lat="44.84332" lon="4.88015">
        <ele>115.40000152588</ele>
        <time>2024-05-21T12:26:54.000Z</time>
      </trkpt>
      <trkpt lat="44.84331" lon="4.88022">
        <ele>115.40000152588</ele>
        <time>2024-05-21T12:26:55.000Z</time>
      </trkpt>
      <trkpt lat="44.8433" lon="4.88027">
        <ele>115.59999847412</ele>
        <time>2024-05-21T12:26:56.000Z</time>
      </trkpt>
      <trkpt lat="44.84329" lon="4.88033">
        <ele>115.59999847412</ele>
        <time>2024-05-21T12:26:57.000Z</time>
      </trkpt>
      <trkpt lat="44.84327" lon="4.8804">
        <ele>115.59999847412</ele>
        <time>2024-05-21T12:26:58.000Z</time>
      </trkpt>
      <trkpt lat="44.84325" lon="4.88044">
        <ele>115.80000305176</ele>
        <time>2024-05-21T12:26:59.000Z</time>
      </trkpt>
      <trkpt lat="44.84323" lon="4.8805">
        <ele>115.80000305176</ele>
        <time>2024-05-21T12:27:00.000Z</time>
      </trkpt>
      <trkpt lat="44.84321" lon="4.88055">
        <ele>116</ele>
        <time>2024-05-21T12:27:01.000Z</time>
      </trkpt>
      <trkpt lat="44.84319" lon="4.8806">
        <ele>116</ele>
        <time>2024-05-21T12:27:02.000Z</time>
      </trkpt>
      <trkpt lat="44.84317" lon="4.88066">
        <ele>116</ele>
        <time>2024-05-21T12:27:03.000Z</time>
      </trkpt>
      <trkpt lat="44.84314" lon="4.88071">
        <ele>116</ele>
        <time>2024-05-21T12:27:04.000Z</time>
      </trkpt>
      <trkpt lat="44.84311" lon="4.88076">
        <ele>116</ele>
        <time>2024-05-21T12:27:05.000Z</time>
      </trkpt>
      <trkpt lat="44.84309" lon="4.88081">
        <ele>116</ele>
        <time>2024-05-21T12:27:06.000Z</time>
      </trkpt>
      <trkpt lat="44.84306" lon="4.88086">
        <ele>116.19999694824</ele>
        <time>2024-05-21T12:27:07.000Z</time>
      </trkpt>
      <trkpt lat="44.84302" lon="4.88091">
        <ele>116.19999694824</ele>
        <time>2024-05-21T12:27:08.000Z</time>
      </trkpt>
      <trkpt lat="44.84299" lon="4.88096">
        <ele>116.19999694824</ele>
        <time>2024-05-21T12:27:09.000Z</time>
      </trkpt>
      <trkpt lat="44.84295" lon="4.88101">
        <ele>116.19999694824</ele>
        <time>2024-05-21T12:27:10.000Z</time>
      </trkpt>
      <trkpt lat="44.84292" lon="4.88106">
        <ele>116.19999694824</ele>
        <time>2024-05-21T12:27:11.000Z</time>
      </trkpt>
      <trkpt lat="44.84288" lon="4.88111">
        <ele>116.19999694824</ele>
        <time>2024-05-21T12:27:12.000Z</time>
      </trkpt>
      <trkpt lat="44.84285" lon="4.88116">
        <ele>116.19999694824</ele>
        <time>2024-05-21T12:27:13.000Z</time>
      </trkpt>
      <trkpt lat="44.84281" lon="4.88121">
        <ele>116.19999694824</ele>
        <time>2024-05-21T12:27:14.000Z</time>
      </trkpt>
      <trkpt lat="44.84278" lon="4.88126">
        <ele>116.19999694824</ele>
        <time>2024-05-21T12:27:15.000Z</time>
      </trkpt>
      <trkpt lat="44.84274" lon="4.88132">
        <ele>116.19999694824</ele>
        <time>2024-05-21T12:27:16.000Z</time>
      </trkpt>
      <trkpt lat="44.84272" lon="4.88137">
        <ele>116.19999694824</ele>
        <time>2024-05-21T12:27:17.000Z</time>
      </trkpt>
      <trkpt lat="44.84269" lon="4.88144">
        <ele>116</ele>
        <time>2024-05-21T12:27:18.000Z</time>
      </trkpt>
      <trkpt lat="44.84266" lon="4.88151">
        <ele>116</ele>
        <time>2024-05-21T12:27:19.000Z</time>
      </trkpt>
      <trkpt lat="44.84263" lon="4.88157">
        <ele>116</ele>
        <time>2024-05-21T12:27:20.000Z</time>
      </trkpt>
      <trkpt lat="44.84261" lon="4.88165">
        <ele>116</ele>
        <time>2024-05-21T12:27:21.000Z</time>
      </trkpt>
      <trkpt lat="44.84258" lon="4.88173">
        <ele>115.80000305176</ele>
        <time>2024-05-21T12:27:22.000Z</time>
      </trkpt>
      <trkpt lat="44.84256" lon="4.88181">
        <ele>115.80000305176</ele>
        <time>2024-05-21T12:27:23.000Z</time>
      </trkpt>
      <trkpt lat="44.84254" lon="4.8819">
        <ele>115.59999847412</ele>
        <time>2024-05-21T12:27:24.000Z</time>
      </trkpt>
      <trkpt lat="44.84252" lon="4.882">
        <ele>115.59999847412</ele>
        <time>2024-05-21T12:27:25.000Z</time>
      </trkpt>
      <trkpt lat="44.8425" lon="4.88206">
        <ele>115.40000152588</ele>
        <time>2024-05-21T12:27:26.000Z</time>
      </trkpt>
      <trkpt lat="44.84247" lon="4.88215">
        <ele>115.19999694824</ele>
        <time>2024-05-21T12:27:27.000Z</time>
      </trkpt>
      <trkpt lat="44.84245" lon="4.88223">
        <ele>115.19999694824</ele>
        <time>2024-05-21T12:27:28.000Z</time>
      </trkpt>
      <trkpt lat="44.84243" lon="4.88232">
        <ele>115.19999694824</ele>
        <time>2024-05-21T12:27:29.000Z</time>
      </trkpt>
      <trkpt lat="44.84241" lon="4.8824">
        <ele>115</ele>
        <time>2024-05-21T12:27:30.000Z</time>
      </trkpt>
      <trkpt lat="44.84239" lon="4.88249">
        <ele>115</ele>
        <time>2024-05-21T12:27:31.000Z</time>
      </trkpt>
      <trkpt lat="44.84237" lon="4.88257">
        <ele>115</ele>
        <time>2024-05-21T12:27:32.000Z</time>
      </trkpt>
      <trkpt lat="44.84235" lon="4.88265">
        <ele>115</ele>
        <time>2024-05-21T12:27:33.000Z</time>
      </trkpt>
      <trkpt lat="44.84233" lon="4.88272">
        <ele>115</ele>
        <time>2024-05-21T12:27:34.000Z</time>
      </trkpt>
      <trkpt lat="44.84231" lon="4.8828">
        <ele>115.19999694824</ele>
        <time>2024-05-21T12:27:35.000Z</time>
      </trkpt>
      <trkpt lat="44.84229" lon="4.88287">
        <ele>115.19999694824</ele>
        <time>2024-05-21T12:27:36.000Z</time>
      </trkpt>
      <trkpt lat="44.84228" lon="4.88295">
        <ele>115.40000152588</ele>
        <time>2024-05-21T12:27:37.000Z</time>
      </trkpt>
      <trkpt lat="44.84226" lon="4.88302">
        <ele>115.40000152588</ele>
        <time>2024-05-21T12:27:38.000Z</time>
      </trkpt>
      <trkpt lat="44.84224" lon="4.88308">
        <ele>115.59999847412</ele>
        <time>2024-05-21T12:27:39.000Z</time>
      </trkpt>
      <trkpt lat="44.84222" lon="4.88315">
        <ele>115.80000305176</ele>
        <time>2024-05-21T12:27:40.000Z</time>
      </trkpt>
      <trkpt lat="44.84221" lon="4.88321">
        <ele>116.19999694824</ele>
        <time>2024-05-21T12:27:41.000Z</time>
      </trkpt>
      <trkpt lat="44.84219" lon="4.88327">
        <ele>116.40000152588</ele>
        <time>2024-05-21T12:27:42.000Z</time>
      </trkpt>
      <trkpt lat="44.84217" lon="4.88334">
        <ele>116.59999847412</ele>
        <time>2024-05-21T12:27:43.000Z</time>
      </trkpt>
      <trkpt lat="44.84216" lon="4.88341">
        <ele>116.59999847412</ele>
        <time>2024-05-21T12:27:44.000Z</time>
      </trkpt>
      <trkpt lat="44.84214" lon="4.88346">
        <ele>116.80000305176</ele>
        <time>2024-05-21T12:27:45.000Z</time>
      </trkpt>
      <trkpt lat="44.84212" lon="4.88354">
        <ele>117</ele>
        <time>2024-05-21T12:27:46.000Z</time>
      </trkpt>
      <trkpt lat="44.84211" lon="4.8836">
        <ele>117.19999694824</ele>
        <time>2024-05-21T12:27:47.000Z</time>
      </trkpt>
      <trkpt lat="44.84209" lon="4.88365">
        <ele>117.19999694824</ele>
        <time>2024-05-21T12:27:48.000Z</time>
      </trkpt>
      <trkpt lat="44.84208" lon="4.8837">
        <ele>117.40000152588</ele>
        <time>2024-05-21T12:27:49.000Z</time>
      </trkpt>
      <trkpt lat="44.84207" lon="4.88376">
        <ele>117.59999847412</ele>
        <time>2024-05-21T12:27:50.000Z</time>
      </trkpt>
      <trkpt lat="44.84205" lon="4.88382">
        <ele>117.80000305176</ele>
        <time>2024-05-21T12:27:51.000Z</time>
      </trkpt>
      <trkpt lat="44.84204" lon="4.88387">
        <ele>118.19999694824</ele>
        <time>2024-05-21T12:27:52.000Z</time>
      </trkpt>
      <trkpt lat="44.84203" lon="4.88393">
        <ele>118.19999694824</ele>
        <time>2024-05-21T12:27:53.000Z</time>
      </trkpt>
      <trkpt lat="44.84202" lon="4.88398">
        <ele>118.19999694824</ele>
        <time>2024-05-21T12:27:54.000Z</time>
      </trkpt>
      <trkpt lat="44.84201" lon="4.88403">
        <ele>118.19999694824</ele>
        <time>2024-05-21T12:27:55.000Z</time>
      </trkpt>
      <trkpt lat="44.84198" lon="4.88408">
        <ele>118.19999694824</ele>
        <time>2024-05-21T12:27:56.000Z</time>
      </trkpt>
      <trkpt lat="44.84194" lon="4.88411">
        <ele>118</ele>
        <time>2024-05-21T12:27:57.000Z</time>
      </trkpt>
      <trkpt lat="44.8419" lon="4.88411">
        <ele>117.80000305176</ele>
        <time>2024-05-21T12:27:58.000Z</time>
      </trkpt>
      <trkpt lat="44.84186" lon="4.88409">
        <ele>117.59999847412</ele>
        <time>2024-05-21T12:27:59.000Z</time>
      </trkpt>
      <trkpt lat="44.84182" lon="4.88407">
        <ele>117.19999694824</ele>
        <time>2024-05-21T12:28:00.000Z</time>
      </trkpt>
      <trkpt lat="44.84177" lon="4.88406">
        <ele>117</ele>
        <time>2024-05-21T12:28:01.000Z</time>
      </trkpt>
      <trkpt lat="44.84172" lon="4.88403">
        <ele>116.80000305176</ele>
        <time>2024-05-21T12:28:02.000Z</time>
      </trkpt>
      <trkpt lat="44.84168" lon="4.88401">
        <ele>116.59999847412</ele>
        <time>2024-05-21T12:28:03.000Z</time>
      </trkpt>
      <trkpt lat="44.84163" lon="4.88398">
        <ele>116.40000152588</ele>
        <time>2024-05-21T12:28:04.000Z</time>
      </trkpt>
      <trkpt lat="44.84158" lon="4.88395">
        <ele>116.19999694824</ele>
        <time>2024-05-21T12:28:05.000Z</time>
      </trkpt>
      <trkpt lat="44.84152" lon="4.88392">
        <ele>116</ele>
        <time>2024-05-21T12:28:06.000Z</time>
      </trkpt>
      <trkpt lat="44.84147" lon="4.88389">
        <ele>115.59999847412</ele>
        <time>2024-05-21T12:28:07.000Z</time>
      </trkpt>
      <trkpt lat="44.8414" lon="4.88388">
        <ele>115.40000152588</ele>
        <time>2024-05-21T12:28:08.000Z</time>
      </trkpt>
      <trkpt lat="44.84136" lon="4.88387">
        <ele>115.19999694824</ele>
        <time>2024-05-21T12:28:09.000Z</time>
      </trkpt>
      <trkpt lat="44.8413" lon="4.88387">
        <ele>114.80000305176</ele>
        <time>2024-05-21T12:28:10.000Z</time>
      </trkpt>
      <trkpt lat="44.84125" lon="4.88389">
        <ele>114.59999847412</ele>
        <time>2024-05-21T12:28:11.000Z</time>
      </trkpt>
      <trkpt lat="44.8412" lon="4.8839">
        <ele>114.59999847412</ele>
        <time>2024-05-21T12:28:12.000Z</time>
      </trkpt>
      <trkpt lat="44.84115" lon="4.88392">
        <ele>114.59999847412</ele>
        <time>2024-05-21T12:28:13.000Z</time>
      </trkpt>
      <trkpt lat="44.8411" lon="4.88394">
        <ele>114.59999847412</ele>
        <time>2024-05-21T12:28:14.000Z</time>
      </trkpt>
      <trkpt lat="44.84106" lon="4.88395">
        <ele>114.59999847412</ele>
        <time>2024-05-21T12:28:15.000Z</time>
      </trkpt>
      <trkpt lat="44.84101" lon="4.88397">
        <ele>114.59999847412</ele>
        <time>2024-05-21T12:28:16.000Z</time>
      </trkpt>
      <trkpt lat="44.84097" lon="4.88399">
        <ele>114.59999847412</ele>
        <time>2024-05-21T12:28:17.000Z</time>
      </trkpt>
      <trkpt lat="44.84092" lon="4.88401">
        <ele>114.59999847412</ele>
        <time>2024-05-21T12:28:18.000Z</time>
      </trkpt>
      <trkpt lat="44.84087" lon="4.88403">
        <ele>114.59999847412</ele>
        <time>2024-05-21T12:28:19.000Z</time>
      </trkpt>
      <trkpt lat="44.84082" lon="4.88405">
        <ele>114.19999694824</ele>
        <time>2024-05-21T12:28:20.000Z</time>
      </trkpt>
      <trkpt lat="44.84077" lon="4.88407">
        <ele>114.19999694824</ele>
        <time>2024-05-21T12:28:21.000Z</time>
      </trkpt>
      <trkpt lat="44.84072" lon="4.88408">
        <ele>114.19999694824</ele>
        <time>2024-05-21T12:28:22.000Z</time>
      </trkpt>
      <trkpt lat="44.84066" lon="4.88411">
        <ele>114.19999694824</ele>
        <time>2024-05-21T12:28:23.000Z</time>
      </trkpt>
      <trkpt lat="44.84063" lon="4.88413">
        <ele>114.19999694824</ele>
        <time>2024-05-21T12:28:24.000Z</time>
      </trkpt>
      <trkpt lat="44.84058" lon="4.88415">
        <ele>114</ele>
        <time>2024-05-21T12:28:25.000Z</time>
      </trkpt>
      <trkpt lat="44.84054" lon="4.88418">
        <ele>114</ele>
        <time>2024-05-21T12:28:26.000Z</time>
      </trkpt>
      <trkpt lat="44.8405" lon="4.88422">
        <ele>114</ele>
        <time>2024-05-21T12:28:27.000Z</time>
      </trkpt>
      <trkpt lat="44.84045" lon="4.88426">
        <ele>114</ele>
        <time>2024-05-21T12:28:28.000Z</time>
      </trkpt>
      <trkpt lat="44.84041" lon="4.8843">
        <ele>114</ele>
        <time>2024-05-21T12:28:29.000Z</time>
      </trkpt>
      <trkpt lat="44.84036" lon="4.88434">
        <ele>113.80000305176</ele>
        <time>2024-05-21T12:28:30.000Z</time>
      </trkpt>
      <trkpt lat="44.84032" lon="4.88438">
        <ele>113.80000305176</ele>
        <time>2024-05-21T12:28:31.000Z</time>
      </trkpt>
      <trkpt lat="44.84026" lon="4.88441">
        <ele>113.59999847412</ele>
        <time>2024-05-21T12:28:32.000Z</time>
      </trkpt>
      <trkpt lat="44.84021" lon="4.88441">
        <ele>113.59999847412</ele>
        <time>2024-05-21T12:28:33.000Z</time>
      </trkpt>
      <trkpt lat="44.84015" lon="4.8844">
        <ele>113.40000152588</ele>
        <time>2024-05-21T12:28:34.000Z</time>
      </trkpt>
      <trkpt lat="44.8401" lon="4.88439">
        <ele>113.40000152588</ele>
        <time>2024-05-21T12:28:35.000Z</time>
      </trkpt>
      <trkpt lat="44.84004" lon="4.88438">
        <ele>113.40000152588</ele>
        <time>2024-05-21T12:28:36.000Z</time>
      </trkpt>
      <trkpt lat="44.83999" lon="4.88436">
        <ele>113.40000152588</ele>
        <time>2024-05-21T12:28:37.000Z</time>
      </trkpt>
      <trkpt lat="44.83993" lon="4.88435">
        <ele>113.40000152588</ele>
        <time>2024-05-21T12:28:38.000Z</time>
      </trkpt>
      <trkpt lat="44.83989" lon="4.88433">
        <ele>113.40000152588</ele>
        <time>2024-05-21T12:28:39.000Z</time>
      </trkpt>
      <trkpt lat="44.83984" lon="4.88431">
        <ele>113.59999847412</ele>
        <time>2024-05-21T12:28:40.000Z</time>
      </trkpt>
      <trkpt lat="44.83981" lon="4.88427">
        <ele>113.59999847412</ele>
        <time>2024-05-21T12:28:41.000Z</time>
      </trkpt>
      <trkpt lat="44.83978" lon="4.88422">
        <ele>113.80000305176</ele>
        <time>2024-05-21T12:28:42.000Z</time>
      </trkpt>
      <trkpt lat="44.83975" lon="4.88417">
        <ele>113.80000305176</ele>
        <time>2024-05-21T12:28:43.000Z</time>
      </trkpt>
      <trkpt lat="44.83971" lon="4.88411">
        <ele>113.80000305176</ele>
        <time>2024-05-21T12:28:44.000Z</time>
      </trkpt>
      <trkpt lat="44.83968" lon="4.88406">
        <ele>113.80000305176</ele>
        <time>2024-05-21T12:28:45.000Z</time>
      </trkpt>
      <trkpt lat="44.83965" lon="4.884">
        <ele>114</ele>
        <time>2024-05-21T12:28:46.000Z</time>
      </trkpt>
      <trkpt lat="44.83963" lon="4.88395">
        <ele>114</ele>
        <time>2024-05-21T12:28:47.000Z</time>
      </trkpt>
      <trkpt lat="44.8396" lon="4.88389">
        <ele>114</ele>
        <time>2024-05-21T12:28:48.000Z</time>
      </trkpt>
      <trkpt lat="44.83957" lon="4.88384">
        <ele>114</ele>
        <time>2024-05-21T12:28:49.000Z</time>
      </trkpt>
      <trkpt lat="44.83955" lon="4.88378">
        <ele>114.19999694824</ele>
        <time>2024-05-21T12:28:50.000Z</time>
      </trkpt>
      <trkpt lat="44.83952" lon="4.88372">
        <ele>114.40000152588</ele>
        <time>2024-05-21T12:28:51.000Z</time>
      </trkpt>
      <trkpt lat="44.83948" lon="4.88366">
        <ele>114.59999847412</ele>
        <time>2024-05-21T12:28:52.000Z</time>
      </trkpt>
      <trkpt lat="44.83945" lon="4.8836">
        <ele>114.80000305176</ele>
        <time>2024-05-21T12:28:53.000Z</time>
      </trkpt>
      <trkpt lat="44.83943" lon="4.88355">
        <ele>115</ele>
        <time>2024-05-21T12:28:54.000Z</time>
      </trkpt>
      <trkpt lat="44.8394" lon="4.88349">
        <ele>115.19999694824</ele>
        <time>2024-05-21T12:28:55.000Z</time>
      </trkpt>
      <trkpt lat="44.83937" lon="4.88343">
        <ele>115.19999694824</ele>
        <time>2024-05-21T12:28:56.000Z</time>
      </trkpt>
      <trkpt lat="44.83934" lon="4.88338">
        <ele>115.19999694824</ele>
        <time>2024-05-21T12:28:57.000Z</time>
      </trkpt>
      <trkpt lat="44.83931" lon="4.88332">
        <ele>115.19999694824</ele>
        <time>2024-05-21T12:28:58.000Z</time>
      </trkpt>
      <trkpt lat="44.83929" lon="4.88327">
        <ele>115.19999694824</ele>
        <time>2024-05-21T12:28:59.000Z</time>
      </trkpt>
      <trkpt lat="44.83926" lon="4.88321">
        <ele>115.19999694824</ele>
        <time>2024-05-21T12:29:00.000Z</time>
      </trkpt>
      <trkpt lat="44.83923" lon="4.88316">
        <ele>115.19999694824</ele>
        <time>2024-05-21T12:29:01.000Z</time>
      </trkpt>
      <trkpt lat="44.8392" lon="4.88311">
        <ele>115.59999847412</ele>
        <time>2024-05-21T12:29:02.000Z</time>
      </trkpt>
      <trkpt lat="44.83917" lon="4.88306">
        <ele>115.80000305176</ele>
        <time>2024-05-21T12:29:03.000Z</time>
      </trkpt>
      <trkpt lat="44.83914" lon="4.88302">
        <ele>116</ele>
        <time>2024-05-21T12:29:04.000Z</time>
      </trkpt>
      <trkpt lat="44.83911" lon="4.88298">
        <ele>116.19999694824</ele>
        <time>2024-05-21T12:29:05.000Z</time>
      </trkpt>
      <trkpt lat="44.83908" lon="4.88294">
        <ele>116.40000152588</ele>
        <time>2024-05-21T12:29:06.000Z</time>
      </trkpt>
      <trkpt lat="44.83905" lon="4.8829">
        <ele>116.40000152588</ele>
        <time>2024-05-21T12:29:07.000Z</time>
      </trkpt>
      <trkpt lat="44.83901" lon="4.88287">
        <ele>116.59999847412</ele>
        <time>2024-05-21T12:29:08.000Z</time>
      </trkpt>
      <trkpt lat="44.83898" lon="4.88283">
        <ele>116.80000305176</ele>
        <time>2024-05-21T12:29:09.000Z</time>
      </trkpt>
      <trkpt lat="44.83894" lon="4.8828">
        <ele>116.80000305176</ele>
        <time>2024-05-21T12:29:10.000Z</time>
      </trkpt>
      <trkpt lat="44.8389" lon="4.88278">
        <ele>116.80000305176</ele>
        <time>2024-05-21T12:29:11.000Z</time>
      </trkpt>
      <trkpt lat="44.83887" lon="4.88275">
        <ele>116.80000305176</ele>
        <time>2024-05-21T12:29:12.000Z</time>
      </trkpt>
      <trkpt lat="44.83883" lon="4.88273">
        <ele>116.80000305176</ele>
        <time>2024-05-21T12:29:13.000Z</time>
      </trkpt>
      <trkpt lat="44.83879" lon="4.8827">
        <ele>116.80000305176</ele>
        <time>2024-05-21T12:29:14.000Z</time>
      </trkpt>
      <trkpt lat="44.83875" lon="4.88267">
        <ele>116.80000305176</ele>
        <time>2024-05-21T12:29:15.000Z</time>
      </trkpt>
      <trkpt lat="44.8387" lon="4.88265">
        <ele>116.80000305176</ele>
        <time>2024-05-21T12:29:16.000Z</time>
      </trkpt>
      <trkpt lat="44.83866" lon="4.88263">
        <ele>116.80000305176</ele>
        <time>2024-05-21T12:29:17.000Z</time>
      </trkpt>
      <trkpt lat="44.83861" lon="4.8826">
        <ele>117</ele>
        <time>2024-05-21T12:29:18.000Z</time>
      </trkpt>
      <trkpt lat="44.83857" lon="4.88259">
        <ele>117</ele>
        <time>2024-05-21T12:29:19.000Z</time>
      </trkpt>
      <trkpt lat="44.83853" lon="4.88257">
        <ele>117</ele>
        <time>2024-05-21T12:29:20.000Z</time>
      </trkpt>
      <trkpt lat="44.83848" lon="4.88255">
        <ele>117</ele>
        <time>2024-05-21T12:29:21.000Z</time>
      </trkpt>
      <trkpt lat="44.83843" lon="4.88253">
        <ele>117</ele>
        <time>2024-05-21T12:29:22.000Z</time>
      </trkpt>
      <trkpt lat="44.83838" lon="4.88252">
        <ele>117</ele>
        <time>2024-05-21T12:29:23.000Z</time>
      </trkpt>
      <trkpt lat="44.83833" lon="4.8825">
        <ele>116.80000305176</ele>
        <time>2024-05-21T12:29:24.000Z</time>
      </trkpt>
      <trkpt lat="44.83828" lon="4.88249">
        <ele>116.80000305176</ele>
        <time>2024-05-21T12:29:25.000Z</time>
      </trkpt>
      <trkpt lat="44.83823" lon="4.88248">
        <ele>116.80000305176</ele>
        <time>2024-05-21T12:29:26.000Z</time>
      </trkpt>
      <trkpt lat="44.83818" lon="4.88247">
        <ele>116.59999847412</ele>
        <time>2024-05-21T12:29:27.000Z</time>
      </trkpt>
      <trkpt lat="44.83812" lon="4.88246">
        <ele>116.59999847412</ele>
        <time>2024-05-21T12:29:28.000Z</time>
      </trkpt>
      <trkpt lat="44.83807" lon="4.88245">
        <ele>116.59999847412</ele>
        <time>2024-05-21T12:29:29.000Z</time>
      </trkpt>
      <trkpt lat="44.83802" lon="4.88244">
        <ele>116.59999847412</ele>
        <time>2024-05-21T12:29:30.000Z</time>
      </trkpt>
      <trkpt lat="44.83797" lon="4.88243">
        <ele>116.59999847412</ele>
        <time>2024-05-21T12:29:31.000Z</time>
      </trkpt>
      <trkpt lat="44.83791" lon="4.88242">
        <ele>116.59999847412</ele>
        <time>2024-05-21T12:29:32.000Z</time>
      </trkpt>
      <trkpt lat="44.83786" lon="4.88241">
        <ele>116.40000152588</ele>
        <time>2024-05-21T12:29:33.000Z</time>
      </trkpt>
      <trkpt lat="44.8378" lon="4.8824">
        <ele>116.19999694824</ele>
        <time>2024-05-21T12:29:34.000Z</time>
      </trkpt>
      <trkpt lat="44.83775" lon="4.8824">
        <ele>116.19999694824</ele>
        <time>2024-05-21T12:29:35.000Z</time>
      </trkpt>
      <trkpt lat="44.8377" lon="4.8824">
        <ele>116</ele>
        <time>2024-05-21T12:29:36.000Z</time>
      </trkpt>
      <trkpt lat="44.83766" lon="4.88239">
        <ele>116</ele>
        <time>2024-05-21T12:29:37.000Z</time>
      </trkpt>
      <trkpt lat="44.83762" lon="4.88239">
        <ele>115.80000305176</ele>
        <time>2024-05-21T12:29:38.000Z</time>
      </trkpt>
      <trkpt lat="44.83759" lon="4.8824">
        <ele>115.80000305176</ele>
        <time>2024-05-21T12:29:39.000Z</time>
      </trkpt>
      <trkpt lat="44.83756" lon="4.8824">
        <ele>116</ele>
        <time>2024-05-21T12:29:40.000Z</time>
      </trkpt>
      <trkpt lat="44.83753" lon="4.8824">
        <ele>116</ele>
        <time>2024-05-21T12:29:41.000Z</time>
      </trkpt>
      <trkpt lat="44.83751" lon="4.88241">
        <ele>116.19999694824</ele>
        <time>2024-05-21T12:29:42.000Z</time>
      </trkpt>
      <trkpt lat="44.83747" lon="4.88242">
        <ele>116.19999694824</ele>
        <time>2024-05-21T12:29:43.000Z</time>
      </trkpt>
      <trkpt lat="44.83743" lon="4.88243">
        <ele>116.19999694824</ele>
        <time>2024-05-21T12:29:44.000Z</time>
      </trkpt>
      <trkpt lat="44.83739" lon="4.88244">
        <ele>116.19999694824</ele>
        <time>2024-05-21T12:29:45.000Z</time>
      </trkpt>
      <trkpt lat="44.83735" lon="4.88244">
        <ele>116.19999694824</ele>
        <time>2024-05-21T12:29:46.000Z</time>
      </trkpt>
      <trkpt lat="44.83731" lon="4.88243">
        <ele>116.19999694824</ele>
        <time>2024-05-21T12:29:47.000Z</time>
      </trkpt>
      <trkpt lat="44.83726" lon="4.88243">
        <ele>116</ele>
        <time>2024-05-21T12:29:48.000Z</time>
      </trkpt>
      <trkpt lat="44.83721" lon="4.88243">
        <ele>116</ele>
        <time>2024-05-21T12:29:49.000Z</time>
      </trkpt>
      <trkpt lat="44.83716" lon="4.88243">
        <ele>116</ele>
        <time>2024-05-21T12:29:50.000Z</time>
      </trkpt>
      <trkpt lat="44.8371" lon="4.88243">
        <ele>116</ele>
        <time>2024-05-21T12:29:51.000Z</time>
      </trkpt>
      <trkpt lat="44.83706" lon="4.88242">
        <ele>116</ele>
        <time>2024-05-21T12:29:52.000Z</time>
      </trkpt>
      <trkpt lat="44.83701" lon="4.88242">
        <ele>116</ele>
        <time>2024-05-21T12:29:53.000Z</time>
      </trkpt>
      <trkpt lat="44.83696" lon="4.88242">
        <ele>116</ele>
        <time>2024-05-21T12:29:54.000Z</time>
      </trkpt>
      <trkpt lat="44.83691" lon="4.88242">
        <ele>116</ele>
        <time>2024-05-21T12:29:55.000Z</time>
      </trkpt>
      <trkpt lat="44.83686" lon="4.88241">
        <ele>116</ele>
        <time>2024-05-21T12:29:56.000Z</time>
      </trkpt>
      <trkpt lat="44.8368" lon="4.88241">
        <ele>116</ele>
        <time>2024-05-21T12:29:57.000Z</time>
      </trkpt>
      <trkpt lat="44.83675" lon="4.8824">
        <ele>116</ele>
        <time>2024-05-21T12:29:58.000Z</time>
      </trkpt>
      <trkpt lat="44.83669" lon="4.8824">
        <ele>116</ele>
        <time>2024-05-21T12:29:59.000Z</time>
      </trkpt>
      <trkpt lat="44.83663" lon="4.88239">
        <ele>116</ele>
        <time>2024-05-21T12:30:00.000Z</time>
      </trkpt>
      <trkpt lat="44.83658" lon="4.88238">
        <ele>116.19999694824</ele>
        <time>2024-05-21T12:30:01.000Z</time>
      </trkpt>
      <trkpt lat="44.83653" lon="4.88238">
        <ele>116.19999694824</ele>
        <time>2024-05-21T12:30:02.000Z</time>
      </trkpt>
      <trkpt lat="44.83648" lon="4.88237">
        <ele>116.40000152588</ele>
        <time>2024-05-21T12:30:03.000Z</time>
      </trkpt>
      <trkpt lat="44.83642" lon="4.88236">
        <ele>116.59999847412</ele>
        <time>2024-05-21T12:30:04.000Z</time>
      </trkpt>
      <trkpt lat="44.83636" lon="4.88235">
        <ele>116.80000305176</ele>
        <time>2024-05-21T12:30:05.000Z</time>
      </trkpt>
      <trkpt lat="44.83631" lon="4.88234">
        <ele>116.80000305176</ele>
        <time>2024-05-21T12:30:06.000Z</time>
      </trkpt>
      <trkpt lat="44.83625" lon="4.88234">
        <ele>116.80000305176</ele>
        <time>2024-05-21T12:30:07.000Z</time>
      </trkpt>
      <trkpt lat="44.83619" lon="4.88233">
        <ele>116.80000305176</ele>
        <time>2024-05-21T12:30:08.000Z</time>
      </trkpt>
      <trkpt lat="44.83612" lon="4.88233">
        <ele>117</ele>
        <time>2024-05-21T12:30:09.000Z</time>
      </trkpt>
      <trkpt lat="44.83606" lon="4.88232">
        <ele>117</ele>
        <time>2024-05-21T12:30:10.000Z</time>
      </trkpt>
      <trkpt lat="44.83601" lon="4.88231">
        <ele>117</ele>
        <time>2024-05-21T12:30:11.000Z</time>
      </trkpt>
      <trkpt lat="44.83594" lon="4.8823">
        <ele>117</ele>
        <time>2024-05-21T12:30:12.000Z</time>
      </trkpt>
      <trkpt lat="44.83589" lon="4.88229">
        <ele>117</ele>
        <time>2024-05-21T12:30:13.000Z</time>
      </trkpt>
      <trkpt lat="44.83583" lon="4.88229">
        <ele>117</ele>
        <time>2024-05-21T12:30:14.000Z</time>
      </trkpt>
      <trkpt lat="44.83577" lon="4.88228">
        <ele>117</ele>
        <time>2024-05-21T12:30:15.000Z</time>
      </trkpt>
      <trkpt lat="44.83572" lon="4.88227">
        <ele>116.80000305176</ele>
        <time>2024-05-21T12:30:16.000Z</time>
      </trkpt>
      <trkpt lat="44.83566" lon="4.88227">
        <ele>116.80000305176</ele>
        <time>2024-05-21T12:30:17.000Z</time>
      </trkpt>
      <trkpt lat="44.8356" lon="4.88226">
        <ele>116.80000305176</ele>
        <time>2024-05-21T12:30:18.000Z</time>
      </trkpt>
      <trkpt lat="44.83554" lon="4.88225">
        <ele>116.80000305176</ele>
        <time>2024-05-21T12:30:19.000Z</time>
      </trkpt>
      <trkpt lat="44.83549" lon="4.88225">
        <ele>116.80000305176</ele>
        <time>2024-05-21T12:30:20.000Z</time>
      </trkpt>
      <trkpt lat="44.83543" lon="4.88224">
        <ele>116.80000305176</ele>
        <time>2024-05-21T12:30:21.000Z</time>
      </trkpt>
      <trkpt lat="44.83536" lon="4.88223">
        <ele>117</ele>
        <time>2024-05-21T12:30:22.000Z</time>
      </trkpt>
      <trkpt lat="44.83531" lon="4.88223">
        <ele>117</ele>
        <time>2024-05-21T12:30:23.000Z</time>
      </trkpt>
      <trkpt lat="44.83525" lon="4.88222">
        <ele>117</ele>
        <time>2024-05-21T12:30:24.000Z</time>
      </trkpt>
      <trkpt lat="44.83519" lon="4.88222">
        <ele>117</ele>
        <time>2024-05-21T12:30:25.000Z</time>
      </trkpt>
      <trkpt lat="44.83513" lon="4.88221">
        <ele>117</ele>
        <time>2024-05-21T12:30:26.000Z</time>
      </trkpt>
      <trkpt lat="44.83508" lon="4.88221">
        <ele>117</ele>
        <time>2024-05-21T12:30:27.000Z</time>
      </trkpt>
      <trkpt lat="44.835" lon="4.8822">
        <ele>117</ele>
        <time>2024-05-21T12:30:28.000Z</time>
      </trkpt>
      <trkpt lat="44.83496" lon="4.8822">
        <ele>117.19999694824</ele>
        <time>2024-05-21T12:30:29.000Z</time>
      </trkpt>
      <trkpt lat="44.83489" lon="4.8822">
        <ele>117.19999694824</ele>
        <time>2024-05-21T12:30:30.000Z</time>
      </trkpt>
      <trkpt lat="44.83483" lon="4.8822">
        <ele>117</ele>
        <time>2024-05-21T12:30:31.000Z</time>
      </trkpt>
      <trkpt lat="44.83477" lon="4.8822">
        <ele>117</ele>
        <time>2024-05-21T12:30:32.000Z</time>
      </trkpt>
      <trkpt lat="44.83471" lon="4.8822">
        <ele>117</ele>
        <time>2024-05-21T12:30:33.000Z</time>
      </trkpt>
      <trkpt lat="44.83465" lon="4.8822">
        <ele>116.80000305176</ele>
        <time>2024-05-21T12:30:34.000Z</time>
      </trkpt>
      <trkpt lat="44.83459" lon="4.88219">
        <ele>116.80000305176</ele>
        <time>2024-05-21T12:30:35.000Z</time>
      </trkpt>
      <trkpt lat="44.83453" lon="4.88219">
        <ele>116.80000305176</ele>
        <time>2024-05-21T12:30:36.000Z</time>
      </trkpt>
      <trkpt lat="44.83447" lon="4.88219">
        <ele>116.80000305176</ele>
        <time>2024-05-21T12:30:37.000Z</time>
      </trkpt>
      <trkpt lat="44.83441" lon="4.88219">
        <ele>116.80000305176</ele>
        <time>2024-05-21T12:30:38.000Z</time>
      </trkpt>
      <trkpt lat="44.83435" lon="4.88218">
        <ele>116.80000305176</ele>
        <time>2024-05-21T12:30:39.000Z</time>
      </trkpt>
      <trkpt lat="44.83429" lon="4.88218">
        <ele>116.80000305176</ele>
        <time>2024-05-21T12:30:40.000Z</time>
      </trkpt>
      <trkpt lat="44.83423" lon="4.88217">
        <ele>116.80000305176</ele>
        <time>2024-05-21T12:30:41.000Z</time>
      </trkpt>
      <trkpt lat="44.83417" lon="4.88217">
        <ele>117</ele>
        <time>2024-05-21T12:30:42.000Z</time>
      </trkpt>
      <trkpt lat="44.83411" lon="4.88216">
        <ele>117</ele>
        <time>2024-05-21T12:30:43.000Z</time>
      </trkpt>
      <trkpt lat="44.83405" lon="4.88216">
        <ele>117</ele>
        <time>2024-05-21T12:30:44.000Z</time>
      </trkpt>
      <trkpt lat="44.83399" lon="4.88215">
        <ele>117</ele>
        <time>2024-05-21T12:30:45.000Z</time>
      </trkpt>
      <trkpt lat="44.83393" lon="4.88215">
        <ele>116.80000305176</ele>
        <time>2024-05-21T12:30:46.000Z</time>
      </trkpt>
      <trkpt lat="44.83388" lon="4.88214">
        <ele>116.80000305176</ele>
        <time>2024-05-21T12:30:47.000Z</time>
      </trkpt>
      <trkpt lat="44.83382" lon="4.88213">
        <ele>116.80000305176</ele>
        <time>2024-05-21T12:30:48.000Z</time>
      </trkpt>
      <trkpt lat="44.83376" lon="4.88212">
        <ele>116.80000305176</ele>
        <time>2024-05-21T12:30:49.000Z</time>
      </trkpt>
      <trkpt lat="44.8337" lon="4.88212">
        <ele>116.59999847412</ele>
        <time>2024-05-21T12:30:50.000Z</time>
      </trkpt>
      <trkpt lat="44.83364" lon="4.88211">
        <ele>116.59999847412</ele>
        <time>2024-05-21T12:30:51.000Z</time>
      </trkpt>
      <trkpt lat="44.83358" lon="4.88211">
        <ele>116.59999847412</ele>
        <time>2024-05-21T12:30:52.000Z</time>
      </trkpt>
      <trkpt lat="44.83352" lon="4.8821">
        <ele>116.59999847412</ele>
        <time>2024-05-21T12:30:53.000Z</time>
      </trkpt>
      <trkpt lat="44.83346" lon="4.88209">
        <ele>116.59999847412</ele>
        <time>2024-05-21T12:30:54.000Z</time>
      </trkpt>
      <trkpt lat="44.8334" lon="4.88209">
        <ele>116.59999847412</ele>
        <time>2024-05-21T12:30:55.000Z</time>
      </trkpt>
      <trkpt lat="44.83334" lon="4.88208">
        <ele>116.40000152588</ele>
        <time>2024-05-21T12:30:56.000Z</time>
      </trkpt>
      <trkpt lat="44.83328" lon="4.88208">
        <ele>116.40000152588</ele>
        <time>2024-05-21T12:30:57.000Z</time>
      </trkpt>
      <trkpt lat="44.83322" lon="4.88208">
        <ele>116.59999847412</ele>
        <time>2024-05-21T12:30:58.000Z</time>
      </trkpt>
      <trkpt lat="44.83316" lon="4.88207">
        <ele>116.59999847412</ele>
        <time>2024-05-21T12:30:59.000Z</time>
      </trkpt>
      <trkpt lat="44.8331" lon="4.88207">
        <ele>116.59999847412</ele>
        <time>2024-05-21T12:31:00.000Z</time>
      </trkpt>
      <trkpt lat="44.83304" lon="4.88207">
        <ele>116.59999847412</ele>
        <time>2024-05-21T12:31:01.000Z</time>
      </trkpt>
      <trkpt lat="44.83298" lon="4.88208">
        <ele>116.40000152588</ele>
        <time>2024-05-21T12:31:02.000Z</time>
      </trkpt>
      <trkpt lat="44.83292" lon="4.88208">
        <ele>116.40000152588</ele>
        <time>2024-05-21T12:31:03.000Z</time>
      </trkpt>
      <trkpt lat="44.83286" lon="4.88209">
        <ele>116.40000152588</ele>
        <time>2024-05-21T12:31:04.000Z</time>
      </trkpt>
      <trkpt lat="44.8328" lon="4.88209">
        <ele>116.40000152588</ele>
        <time>2024-05-21T12:31:05.000Z</time>
      </trkpt>
      <trkpt lat="44.83274" lon="4.88209">
        <ele>116.19999694824</ele>
        <time>2024-05-21T12:31:06.000Z</time>
      </trkpt>
      <trkpt lat="44.83267" lon="4.88209">
        <ele>116.19999694824</ele>
        <time>2024-05-21T12:31:07.000Z</time>
      </trkpt>
      <trkpt lat="44.83261" lon="4.8821">
        <ele>116.19999694824</ele>
        <time>2024-05-21T12:31:08.000Z</time>
      </trkpt>
      <trkpt lat="44.83255" lon="4.8821">
        <ele>116.19999694824</ele>
        <time>2024-05-21T12:31:09.000Z</time>
      </trkpt>
      <trkpt lat="44.83249" lon="4.8821">
        <ele>116.19999694824</ele>
        <time>2024-05-21T12:31:10.000Z</time>
      </trkpt>
      <trkpt lat="44.83242" lon="4.8821">
        <ele>116.19999694824</ele>
        <time>2024-05-21T12:31:11.000Z</time>
      </trkpt>
      <trkpt lat="44.83236" lon="4.8821">
        <ele>116.19999694824</ele>
        <time>2024-05-21T12:31:12.000Z</time>
      </trkpt>
      <trkpt lat="44.8323" lon="4.8821">
        <ele>116.19999694824</ele>
        <time>2024-05-21T12:31:13.000Z</time>
      </trkpt>
      <trkpt lat="44.83224" lon="4.8821">
        <ele>116.19999694824</ele>
        <time>2024-05-21T12:31:14.000Z</time>
      </trkpt>
      <trkpt lat="44.83218" lon="4.8821">
        <ele>116</ele>
        <time>2024-05-21T12:31:15.000Z</time>
      </trkpt>
      <trkpt lat="44.83212" lon="4.8821">
        <ele>115.80000305176</ele>
        <time>2024-05-21T12:31:16.000Z</time>
      </trkpt>
      <trkpt lat="44.83205" lon="4.88209">
        <ele>115.80000305176</ele>
        <time>2024-05-21T12:31:17.000Z</time>
      </trkpt>
      <trkpt lat="44.83199" lon="4.88209">
        <ele>115.80000305176</ele>
        <time>2024-05-21T12:31:18.000Z</time>
      </trkpt>
      <trkpt lat="44.83193" lon="4.88209">
        <ele>115.80000305176</ele>
        <time>2024-05-21T12:31:19.000Z</time>
      </trkpt>
      <trkpt lat="44.83187" lon="4.88209">
        <ele>115.59999847412</ele>
        <time>2024-05-21T12:31:20.000Z</time>
      </trkpt>
      <trkpt lat="44.83182" lon="4.8821">
        <ele>115.59999847412</ele>
        <time>2024-05-21T12:31:21.000Z</time>
      </trkpt>
      <trkpt lat="44.83176" lon="4.8821">
        <ele>115.59999847412</ele>
        <time>2024-05-21T12:31:22.000Z</time>
      </trkpt>
      <trkpt lat="44.8317" lon="4.8821">
        <ele>115.59999847412</ele>
        <time>2024-05-21T12:31:23.000Z</time>
      </trkpt>
      <trkpt lat="44.83164" lon="4.88211">
        <ele>115.59999847412</ele>
        <time>2024-05-21T12:31:24.000Z</time>
      </trkpt>
      <trkpt lat="44.83158" lon="4.88212">
        <ele>115.59999847412</ele>
        <time>2024-05-21T12:31:25.000Z</time>
      </trkpt>
      <trkpt lat="44.83152" lon="4.88213">
        <ele>115.80000305176</ele>
        <time>2024-05-21T12:31:26.000Z</time>
      </trkpt>
      <trkpt lat="44.83146" lon="4.88215">
        <ele>115.80000305176</ele>
        <time>2024-05-21T12:31:27.000Z</time>
      </trkpt>
      <trkpt lat="44.8314" lon="4.88216">
        <ele>115.80000305176</ele>
        <time>2024-05-21T12:31:28.000Z</time>
      </trkpt>
      <trkpt lat="44.83134" lon="4.88217">
        <ele>115.80000305176</ele>
        <time>2024-05-21T12:31:29.000Z</time>
      </trkpt>
      <trkpt lat="44.83129" lon="4.88217">
        <ele>115.80000305176</ele>
        <time>2024-05-21T12:31:30.000Z</time>
      </trkpt>
      <trkpt lat="44.83123" lon="4.88218">
        <ele>115.80000305176</ele>
        <time>2024-05-21T12:31:31.000Z</time>
      </trkpt>
      <trkpt lat="44.83117" lon="4.88219">
        <ele>115.80000305176</ele>
        <time>2024-05-21T12:31:32.000Z</time>
      </trkpt>
      <trkpt lat="44.83111" lon="4.8822">
        <ele>115.80000305176</ele>
        <time>2024-05-21T12:31:33.000Z</time>
      </trkpt>
      <trkpt lat="44.83106" lon="4.8822">
        <ele>115.80000305176</ele>
        <time>2024-05-21T12:31:34.000Z</time>
      </trkpt>
      <trkpt lat="44.831" lon="4.8822">
        <ele>116</ele>
        <time>2024-05-21T12:31:35.000Z</time>
      </trkpt>
      <trkpt lat="44.83094" lon="4.8822">
        <ele>116.19999694824</ele>
        <time>2024-05-21T12:31:36.000Z</time>
      </trkpt>
      <trkpt lat="44.83088" lon="4.8822">
        <ele>116.19999694824</ele>
        <time>2024-05-21T12:31:37.000Z</time>
      </trkpt>
      <trkpt lat="44.83082" lon="4.8822">
        <ele>116.19999694824</ele>
        <time>2024-05-21T12:31:38.000Z</time>
      </trkpt>
      <trkpt lat="44.83076" lon="4.8822">
        <ele>116.19999694824</ele>
        <time>2024-05-21T12:31:39.000Z</time>
      </trkpt>
      <trkpt lat="44.8307" lon="4.8822">
        <ele>116.19999694824</ele>
        <time>2024-05-21T12:31:40.000Z</time>
      </trkpt>
      <trkpt lat="44.83064" lon="4.88219">
        <ele>116.19999694824</ele>
        <time>2024-05-21T12:31:41.000Z</time>
      </trkpt>
      <trkpt lat="44.83058" lon="4.88218">
        <ele>116.19999694824</ele>
        <time>2024-05-21T12:31:42.000Z</time>
      </trkpt>
      <trkpt lat="44.83053" lon="4.88217">
        <ele>116.19999694824</ele>
        <time>2024-05-21T12:31:43.000Z</time>
      </trkpt>
      <trkpt lat="44.83047" lon="4.88217">
        <ele>116.19999694824</ele>
        <time>2024-05-21T12:31:44.000Z</time>
      </trkpt>
      <trkpt lat="44.83041" lon="4.88216">
        <ele>116.19999694824</ele>
        <time>2024-05-21T12:31:45.000Z</time>
      </trkpt>
      <trkpt lat="44.83036" lon="4.88215">
        <ele>116.40000152588</ele>
        <time>2024-05-21T12:31:46.000Z</time>
      </trkpt>
      <trkpt lat="44.8303" lon="4.88214">
        <ele>116.40000152588</ele>
        <time>2024-05-21T12:31:47.000Z</time>
      </trkpt>
      <trkpt lat="44.83025" lon="4.88214">
        <ele>116.40000152588</ele>
        <time>2024-05-21T12:31:48.000Z</time>
      </trkpt>
      <trkpt lat="44.83019" lon="4.88213">
        <ele>116.40000152588</ele>
        <time>2024-05-21T12:31:49.000Z</time>
      </trkpt>
      <trkpt lat="44.83013" lon="4.88212">
        <ele>116.40000152588</ele>
        <time>2024-05-21T12:31:50.000Z</time>
      </trkpt>
      <trkpt lat="44.83008" lon="4.88212">
        <ele>116.40000152588</ele>
        <time>2024-05-21T12:31:51.000Z</time>
      </trkpt>
      <trkpt lat="44.83002" lon="4.88212">
        <ele>116.40000152588</ele>
        <time>2024-05-21T12:31:52.000Z</time>
      </trkpt>
      <trkpt lat="44.82997" lon="4.88212">
        <ele>116.40000152588</ele>
        <time>2024-05-21T12:31:53.000Z</time>
      </trkpt>
      <trkpt lat="44.82991" lon="4.88212">
        <ele>116.59999847412</ele>
        <time>2024-05-21T12:31:54.000Z</time>
      </trkpt>
      <trkpt lat="44.82985" lon="4.88213">
        <ele>116.80000305176</ele>
        <time>2024-05-21T12:31:55.000Z</time>
      </trkpt>
      <trkpt lat="44.8298" lon="4.88214">
        <ele>116.80000305176</ele>
        <time>2024-05-21T12:31:56.000Z</time>
      </trkpt>
      <trkpt lat="44.82974" lon="4.88215">
        <ele>117</ele>
        <time>2024-05-21T12:31:57.000Z</time>
      </trkpt>
      <trkpt lat="44.82968" lon="4.88216">
        <ele>117</ele>
        <time>2024-05-21T12:31:58.000Z</time>
      </trkpt>
      <trkpt lat="44.82963" lon="4.88218">
        <ele>117</ele>
        <time>2024-05-21T12:31:59.000Z</time>
      </trkpt>
      <trkpt lat="44.82957" lon="4.88219">
        <ele>117</ele>
        <time>2024-05-21T12:32:00.000Z</time>
      </trkpt>
      <trkpt lat="44.82951" lon="4.8822">
        <ele>117</ele>
        <time>2024-05-21T12:32:01.000Z</time>
      </trkpt>
      <trkpt lat="44.82945" lon="4.88221">
        <ele>117</ele>
        <time>2024-05-21T12:32:02.000Z</time>
      </trkpt>
      <trkpt lat="44.82939" lon="4.88222">
        <ele>116.80000305176</ele>
        <time>2024-05-21T12:32:03.000Z</time>
      </trkpt>
      <trkpt lat="44.82933" lon="4.88223">
        <ele>116.80000305176</ele>
        <time>2024-05-21T12:32:04.000Z</time>
      </trkpt>
      <trkpt lat="44.82927" lon="4.88224">
        <ele>116.59999847412</ele>
        <time>2024-05-21T12:32:05.000Z</time>
      </trkpt>
      <trkpt lat="44.82921" lon="4.88224">
        <ele>116.59999847412</ele>
        <time>2024-05-21T12:32:06.000Z</time>
      </trkpt>
      <trkpt lat="44.82915" lon="4.88225">
        <ele>116.40000152588</ele>
        <time>2024-05-21T12:32:07.000Z</time>
      </trkpt>
      <trkpt lat="44.82909" lon="4.88225">
        <ele>116.40000152588</ele>
        <time>2024-05-21T12:32:08.000Z</time>
      </trkpt>
      <trkpt lat="44.82902" lon="4.88225">
        <ele>116.19999694824</ele>
        <time>2024-05-21T12:32:09.000Z</time>
      </trkpt>
      <trkpt lat="44.82896" lon="4.88225">
        <ele>116.19999694824</ele>
        <time>2024-05-21T12:32:10.000Z</time>
      </trkpt>
      <trkpt lat="44.82889" lon="4.88225">
        <ele>116.19999694824</ele>
        <time>2024-05-21T12:32:11.000Z</time>
      </trkpt>
      <trkpt lat="44.82883" lon="4.88224">
        <ele>116</ele>
        <time>2024-05-21T12:32:12.000Z</time>
      </trkpt>
      <trkpt lat="44.82877" lon="4.88224">
        <ele>116</ele>
        <time>2024-05-21T12:32:13.000Z</time>
      </trkpt>
      <trkpt lat="44.8287" lon="4.88223">
        <ele>115.80000305176</ele>
        <time>2024-05-21T12:32:14.000Z</time>
      </trkpt>
      <trkpt lat="44.82864" lon="4.88223">
        <ele>115.80000305176</ele>
        <time>2024-05-21T12:32:15.000Z</time>
      </trkpt>
      <trkpt lat="44.82858" lon="4.88222">
        <ele>115.59999847412</ele>
        <time>2024-05-21T12:32:16.000Z</time>
      </trkpt>
      <trkpt lat="44.82851" lon="4.88222">
        <ele>115.59999847412</ele>
        <time>2024-05-21T12:32:17.000Z</time>
      </trkpt>
      <trkpt lat="44.82845" lon="4.88221">
        <ele>115.40000152588</ele>
        <time>2024-05-21T12:32:18.000Z</time>
      </trkpt>
      <trkpt lat="44.82839" lon="4.88221">
        <ele>115.40000152588</ele>
        <time>2024-05-21T12:32:19.000Z</time>
      </trkpt>
      <trkpt lat="44.82833" lon="4.88221">
        <ele>115.40000152588</ele>
        <time>2024-05-21T12:32:20.000Z</time>
      </trkpt>
      <trkpt lat="44.82827" lon="4.88221">
        <ele>115.40000152588</ele>
        <time>2024-05-21T12:32:21.000Z</time>
      </trkpt>
      <trkpt lat="44.82821" lon="4.8822">
        <ele>115.40000152588</ele>
        <time>2024-05-21T12:32:22.000Z</time>
      </trkpt>
      <trkpt lat="44.82815" lon="4.88219">
        <ele>115.40000152588</ele>
        <time>2024-05-21T12:32:23.000Z</time>
      </trkpt>
      <trkpt lat="44.82809" lon="4.88219">
        <ele>115.40000152588</ele>
        <time>2024-05-21T12:32:24.000Z</time>
      </trkpt>
      <trkpt lat="44.82803" lon="4.88218">
        <ele>115.59999847412</ele>
        <time>2024-05-21T12:32:25.000Z</time>
      </trkpt>
      <trkpt lat="44.82797" lon="4.88218">
        <ele>115.80000305176</ele>
        <time>2024-05-21T12:32:26.000Z</time>
      </trkpt>
      <trkpt lat="44.82791" lon="4.88217">
        <ele>115.80000305176</ele>
        <time>2024-05-21T12:32:27.000Z</time>
      </trkpt>
      <trkpt lat="44.82785" lon="4.88217">
        <ele>115.80000305176</ele>
        <time>2024-05-21T12:32:28.000Z</time>
      </trkpt>
      <trkpt lat="44.82779" lon="4.88216">
        <ele>115.80000305176</ele>
        <time>2024-05-21T12:32:29.000Z</time>
      </trkpt>
      <trkpt lat="44.82774" lon="4.88216">
        <ele>115.80000305176</ele>
        <time>2024-05-21T12:32:30.000Z</time>
      </trkpt>
      <trkpt lat="44.82768" lon="4.88215">
        <ele>115.80000305176</ele>
        <time>2024-05-21T12:32:31.000Z</time>
      </trkpt>
      <trkpt lat="44.82762" lon="4.88214">
        <ele>115.80000305176</ele>
        <time>2024-05-21T12:32:32.000Z</time>
      </trkpt>
      <trkpt lat="44.82756" lon="4.88214">
        <ele>115.80000305176</ele>
        <time>2024-05-21T12:32:33.000Z</time>
      </trkpt>
      <trkpt lat="44.8275" lon="4.88213">
        <ele>115.80000305176</ele>
        <time>2024-05-21T12:32:34.000Z</time>
      </trkpt>
      <trkpt lat="44.82743" lon="4.88213">
        <ele>115.80000305176</ele>
        <time>2024-05-21T12:32:35.000Z</time>
      </trkpt>
      <trkpt lat="44.82737" lon="4.88212">
        <ele>115.59999847412</ele>
        <time>2024-05-21T12:32:36.000Z</time>
      </trkpt>
      <trkpt lat="44.82731" lon="4.88212">
        <ele>115.59999847412</ele>
        <time>2024-05-21T12:32:37.000Z</time>
      </trkpt>
      <trkpt lat="44.82726" lon="4.88211">
        <ele>115.59999847412</ele>
        <time>2024-05-21T12:32:38.000Z</time>
      </trkpt>
      <trkpt lat="44.8272" lon="4.8821">
        <ele>115.59999847412</ele>
        <time>2024-05-21T12:32:39.000Z</time>
      </trkpt>
      <trkpt lat="44.82714" lon="4.88209">
        <ele>115.59999847412</ele>
        <time>2024-05-21T12:32:40.000Z</time>
      </trkpt>
      <trkpt lat="44.82707" lon="4.88209">
        <ele>115.59999847412</ele>
        <time>2024-05-21T12:32:41.000Z</time>
      </trkpt>
      <trkpt lat="44.82701" lon="4.88208">
        <ele>115.59999847412</ele>
        <time>2024-05-21T12:32:42.000Z</time>
      </trkpt>
      <trkpt lat="44.82695" lon="4.88207">
        <ele>115.80000305176</ele>
        <time>2024-05-21T12:32:43.000Z</time>
      </trkpt>
      <trkpt lat="44.82689" lon="4.88206">
        <ele>115.80000305176</ele>
        <time>2024-05-21T12:32:44.000Z</time>
      </trkpt>
      <trkpt lat="44.82683" lon="4.88206">
        <ele>115.80000305176</ele>
        <time>2024-05-21T12:32:45.000Z</time>
      </trkpt>
      <trkpt lat="44.82677" lon="4.88205">
        <ele>115.80000305176</ele>
        <time>2024-05-21T12:32:46.000Z</time>
      </trkpt>
      <trkpt lat="44.82671" lon="4.88205">
        <ele>115.80000305176</ele>
        <time>2024-05-21T12:32:47.000Z</time>
      </trkpt>
      <trkpt lat="44.82665" lon="4.88204">
        <ele>115.80000305176</ele>
        <time>2024-05-21T12:32:48.000Z</time>
      </trkpt>
      <trkpt lat="44.82659" lon="4.88204">
        <ele>115.80000305176</ele>
        <time>2024-05-21T12:32:49.000Z</time>
      </trkpt>
      <trkpt lat="44.82654" lon="4.88203">
        <ele>115.80000305176</ele>
        <time>2024-05-21T12:32:50.000Z</time>
      </trkpt>
      <trkpt lat="44.82648" lon="4.88203">
        <ele>115.80000305176</ele>
        <time>2024-05-21T12:32:51.000Z</time>
      </trkpt>
      <trkpt lat="44.82642" lon="4.88203">
        <ele>115.59999847412</ele>
        <time>2024-05-21T12:32:52.000Z</time>
      </trkpt>
      <trkpt lat="44.82636" lon="4.88202">
        <ele>115.40000152588</ele>
        <time>2024-05-21T12:32:53.000Z</time>
      </trkpt>
      <trkpt lat="44.82631" lon="4.88202">
        <ele>115.40000152588</ele>
        <time>2024-05-21T12:32:54.000Z</time>
      </trkpt>
      <trkpt lat="44.82625" lon="4.88201">
        <ele>115.40000152588</ele>
        <time>2024-05-21T12:32:55.000Z</time>
      </trkpt>
      <trkpt lat="44.82619" lon="4.88201">
        <ele>115.59999847412</ele>
        <time>2024-05-21T12:32:56.000Z</time>
      </trkpt>
      <trkpt lat="44.82613" lon="4.882">
        <ele>115.80000305176</ele>
        <time>2024-05-21T12:32:57.000Z</time>
      </trkpt>
      <trkpt lat="44.82607" lon="4.882">
        <ele>115.80000305176</ele>
        <time>2024-05-21T12:32:58.000Z</time>
      </trkpt>
      <trkpt lat="44.82601" lon="4.88199">
        <ele>115.80000305176</ele>
        <time>2024-05-21T12:32:59.000Z</time>
      </trkpt>
      <trkpt lat="44.82596" lon="4.88199">
        <ele>115.80000305176</ele>
        <time>2024-05-21T12:33:00.000Z</time>
      </trkpt>
      <trkpt lat="44.8259" lon="4.88199">
        <ele>116</ele>
        <time>2024-05-21T12:33:01.000Z</time>
      </trkpt>
      <trkpt lat="44.82583" lon="4.88198">
        <ele>116</ele>
        <time>2024-05-21T12:33:02.000Z</time>
      </trkpt>
      <trkpt lat="44.82578" lon="4.88198">
        <ele>116</ele>
        <time>2024-05-21T12:33:03.000Z</time>
      </trkpt>
      <trkpt lat="44.82572" lon="4.88198">
        <ele>116</ele>
        <time>2024-05-21T12:33:04.000Z</time>
      </trkpt>
      <trkpt lat="44.82566" lon="4.88197">
        <ele>116</ele>
        <time>2024-05-21T12:33:05.000Z</time>
      </trkpt>
      <trkpt lat="44.8256" lon="4.88197">
        <ele>116</ele>
        <time>2024-05-21T12:33:06.000Z</time>
      </trkpt>
      <trkpt lat="44.82554" lon="4.88198">
        <ele>116.19999694824</ele>
        <time>2024-05-21T12:33:07.000Z</time>
      </trkpt>
      <trkpt lat="44.82549" lon="4.88199">
        <ele>116.19999694824</ele>
        <time>2024-05-21T12:33:08.000Z</time>
      </trkpt>
      <trkpt lat="44.82543" lon="4.882">
        <ele>116.19999694824</ele>
        <time>2024-05-21T12:33:09.000Z</time>
      </trkpt>
      <trkpt lat="44.82538" lon="4.88203">
        <ele>116.40000152588</ele>
        <time>2024-05-21T12:33:10.000Z</time>
      </trkpt>
      <trkpt lat="44.82534" lon="4.88205">
        <ele>116.40000152588</ele>
        <time>2024-05-21T12:33:11.000Z</time>
      </trkpt>
      <trkpt lat="44.82529" lon="4.88208">
        <ele>116.40000152588</ele>
        <time>2024-05-21T12:33:12.000Z</time>
      </trkpt>
      <trkpt lat="44.82524" lon="4.8821">
        <ele>116.40000152588</ele>
        <time>2024-05-21T12:33:13.000Z</time>
      </trkpt>
      <trkpt lat="44.82519" lon="4.88213">
        <ele>116.40000152588</ele>
        <time>2024-05-21T12:33:14.000Z</time>
      </trkpt>
      <trkpt lat="44.82514" lon="4.88215">
        <ele>116.59999847412</ele>
        <time>2024-05-21T12:33:15.000Z</time>
      </trkpt>
      <trkpt lat="44.8251" lon="4.88217">
        <ele>116.59999847412</ele>
        <time>2024-05-21T12:33:16.000Z</time>
      </trkpt>
      <trkpt lat="44.82505" lon="4.88219">
        <ele>116.59999847412</ele>
        <time>2024-05-21T12:33:17.000Z</time>
      </trkpt>
      <trkpt lat="44.82501" lon="4.88221">
        <ele>116.59999847412</ele>
        <time>2024-05-21T12:33:18.000Z</time>
      </trkpt>
      <trkpt lat="44.82496" lon="4.88224">
        <ele>116.80000305176</ele>
        <time>2024-05-21T12:33:19.000Z</time>
      </trkpt>
      <trkpt lat="44.82492" lon="4.88226">
        <ele>116.80000305176</ele>
        <time>2024-05-21T12:33:20.000Z</time>
      </trkpt>
      <trkpt lat="44.82487" lon="4.88228">
        <ele>116.80000305176</ele>
        <time>2024-05-21T12:33:21.000Z</time>
      </trkpt>
      <trkpt lat="44.82482" lon="4.88231">
        <ele>117</ele>
        <time>2024-05-21T12:33:22.000Z</time>
      </trkpt>
      <trkpt lat="44.82478" lon="4.88233">
        <ele>117</ele>
        <time>2024-05-21T12:33:23.000Z</time>
      </trkpt>
      <trkpt lat="44.82473" lon="4.88235">
        <ele>117.19999694824</ele>
        <time>2024-05-21T12:33:24.000Z</time>
      </trkpt>
      <trkpt lat="44.82469" lon="4.88237">
        <ele>117.40000152588</ele>
        <time>2024-05-21T12:33:25.000Z</time>
      </trkpt>
      <trkpt lat="44.82465" lon="4.8824">
        <ele>117.59999847412</ele>
        <time>2024-05-21T12:33:26.000Z</time>
      </trkpt>
      <trkpt lat="44.82462" lon="4.88242">
        <ele>117.59999847412</ele>
        <time>2024-05-21T12:33:27.000Z</time>
      </trkpt>
      <trkpt lat="44.82458" lon="4.88245">
        <ele>117.59999847412</ele>
        <time>2024-05-21T12:33:28.000Z</time>
      </trkpt>
      <trkpt lat="44.82455" lon="4.88247">
        <ele>118</ele>
        <time>2024-05-21T12:33:29.000Z</time>
      </trkpt>
      <trkpt lat="44.82452" lon="4.88249">
        <ele>118.19999694824</ele>
        <time>2024-05-21T12:33:30.000Z</time>
      </trkpt>
      <trkpt lat="44.82449" lon="4.88252">
        <ele>118.40000152588</ele>
        <time>2024-05-21T12:33:31.000Z</time>
      </trkpt>
      <trkpt lat="44.82446" lon="4.88254">
        <ele>118.59999847412</ele>
        <time>2024-05-21T12:33:32.000Z</time>
      </trkpt>
      <trkpt lat="44.82444" lon="4.88257">
        <ele>119</ele>
        <time>2024-05-21T12:33:33.000Z</time>
      </trkpt>
      <trkpt lat="44.82441" lon="4.88259">
        <ele>119.19999694824</ele>
        <time>2024-05-21T12:33:34.000Z</time>
      </trkpt>
      <trkpt lat="44.82438" lon="4.88262">
        <ele>119.40000152588</ele>
        <time>2024-05-21T12:33:35.000Z</time>
      </trkpt>
      <trkpt lat="44.82435" lon="4.88265">
        <ele>119.59999847412</ele>
        <time>2024-05-21T12:33:36.000Z</time>
      </trkpt>
      <trkpt lat="44.82432" lon="4.88267">
        <ele>120</ele>
        <time>2024-05-21T12:33:37.000Z</time>
      </trkpt>
      <trkpt lat="44.8243" lon="4.8827">
        <ele>120.19999694824</ele>
        <time>2024-05-21T12:33:38.000Z</time>
      </trkpt>
      <trkpt lat="44.82427" lon="4.88272">
        <ele>120.40000152588</ele>
        <time>2024-05-21T12:33:39.000Z</time>
      </trkpt>
      <trkpt lat="44.82424" lon="4.88274">
        <ele>120.80000305176</ele>
        <time>2024-05-21T12:33:40.000Z</time>
      </trkpt>
      <trkpt lat="44.82422" lon="4.88276">
        <ele>121</ele>
        <time>2024-05-21T12:33:41.000Z</time>
      </trkpt>
      <trkpt lat="44.82419" lon="4.88279">
        <ele>121.40000152588</ele>
        <time>2024-05-21T12:33:42.000Z</time>
      </trkpt>
      <trkpt lat="44.82416" lon="4.88281">
        <ele>121.80000305176</ele>
        <time>2024-05-21T12:33:43.000Z</time>
      </trkpt>
      <trkpt lat="44.82413" lon="4.88283">
        <ele>121.80000305176</ele>
        <time>2024-05-21T12:33:44.000Z</time>
      </trkpt>
      <trkpt lat="44.82411" lon="4.88285">
        <ele>122</ele>
        <time>2024-05-21T12:33:45.000Z</time>
      </trkpt>
      <trkpt lat="44.82408" lon="4.88287">
        <ele>122.19999694824</ele>
        <time>2024-05-21T12:33:46.000Z</time>
      </trkpt>
      <trkpt lat="44.82406" lon="4.88289">
        <ele>122.40000152588</ele>
        <time>2024-05-21T12:33:47.000Z</time>
      </trkpt>
      <trkpt lat="44.82402" lon="4.88291">
        <ele>122.59999847412</ele>
        <time>2024-05-21T12:33:48.000Z</time>
      </trkpt>
      <trkpt lat="44.82399" lon="4.88293">
        <ele>122.80000305176</ele>
        <time>2024-05-21T12:33:49.000Z</time>
      </trkpt>
      <trkpt lat="44.82395" lon="4.88295">
        <ele>123</ele>
        <time>2024-05-21T12:33:50.000Z</time>
      </trkpt>
      <trkpt lat="44.82392" lon="4.88297">
        <ele>123.19999694824</ele>
        <time>2024-05-21T12:33:51.000Z</time>
      </trkpt>
      <trkpt lat="44.82388" lon="4.88299">
        <ele>123.40000152588</ele>
        <time>2024-05-21T12:33:52.000Z</time>
      </trkpt>
      <trkpt lat="44.82385" lon="4.88301">
        <ele>123.59999847412</ele>
        <time>2024-05-21T12:33:53.000Z</time>
      </trkpt>
      <trkpt lat="44.82382" lon="4.88303">
        <ele>123.59999847412</ele>
        <time>2024-05-21T12:33:54.000Z</time>
      </trkpt>
      <trkpt lat="44.82379" lon="4.88305">
        <ele>123.80000305176</ele>
        <time>2024-05-21T12:33:55.000Z</time>
      </trkpt>
      <trkpt lat="44.82376" lon="4.88308">
        <ele>123.80000305176</ele>
        <time>2024-05-21T12:33:56.000Z</time>
      </trkpt>
      <trkpt lat="44.82373" lon="4.8831">
        <ele>124</ele>
        <time>2024-05-21T12:33:57.000Z</time>
      </trkpt>
      <trkpt lat="44.82369" lon="4.88312">
        <ele>124</ele>
        <time>2024-05-21T12:33:58.000Z</time>
      </trkpt>
      <trkpt lat="44.82366" lon="4.88314">
        <ele>124</ele>
        <time>2024-05-21T12:33:59.000Z</time>
      </trkpt>
      <trkpt lat="44.82363" lon="4.88316">
        <ele>124</ele>
        <time>2024-05-21T12:34:00.000Z</time>
      </trkpt>
      <trkpt lat="44.82359" lon="4.88318">
        <ele>124.19999694824</ele>
        <time>2024-05-21T12:34:01.000Z</time>
      </trkpt>
      <trkpt lat="44.82356" lon="4.88321">
        <ele>124.19999694824</ele>
        <time>2024-05-21T12:34:02.000Z</time>
      </trkpt>
      <trkpt lat="44.82353" lon="4.88324">
        <ele>124.19999694824</ele>
        <time>2024-05-21T12:34:03.000Z</time>
      </trkpt>
      <trkpt lat="44.82348" lon="4.88327">
        <ele>124.19999694824</ele>
        <time>2024-05-21T12:34:04.000Z</time>
      </trkpt>
      <trkpt lat="44.82345" lon="4.88328">
        <ele>124.19999694824</ele>
        <time>2024-05-21T12:34:05.000Z</time>
      </trkpt>
      <trkpt lat="44.82342" lon="4.8833">
        <ele>124.19999694824</ele>
        <time>2024-05-21T12:34:06.000Z</time>
      </trkpt>
      <trkpt lat="44.82337" lon="4.88332">
        <ele>124.40000152588</ele>
        <time>2024-05-21T12:34:07.000Z</time>
      </trkpt>
      <trkpt lat="44.82333" lon="4.88333">
        <ele>124.40000152588</ele>
        <time>2024-05-21T12:34:08.000Z</time>
      </trkpt>
      <trkpt lat="44.8233" lon="4.88334">
        <ele>124.59999847412</ele>
        <time>2024-05-21T12:34:09.000Z</time>
      </trkpt>
      <trkpt lat="44.82326" lon="4.88335">
        <ele>124.59999847412</ele>
        <time>2024-05-21T12:34:10.000Z</time>
      </trkpt>
      <trkpt lat="44.82321" lon="4.88336">
        <ele>124.59999847412</ele>
        <time>2024-05-21T12:34:11.000Z</time>
      </trkpt>
      <trkpt lat="44.82317" lon="4.88337">
        <ele>124.59999847412</ele>
        <time>2024-05-21T12:34:12.000Z</time>
      </trkpt>
      <trkpt lat="44.82313" lon="4.88339">
        <ele>124.59999847412</ele>
        <time>2024-05-21T12:34:13.000Z</time>
      </trkpt>
      <trkpt lat="44.82309" lon="4.88341">
        <ele>124.59999847412</ele>
        <time>2024-05-21T12:34:14.000Z</time>
      </trkpt>
      <trkpt lat="44.82305" lon="4.88343">
        <ele>124.40000152588</ele>
        <time>2024-05-21T12:34:15.000Z</time>
      </trkpt>
      <trkpt lat="44.823" lon="4.88346">
        <ele>124.40000152588</ele>
        <time>2024-05-21T12:34:16.000Z</time>
      </trkpt>
      <trkpt lat="44.82297" lon="4.88347">
        <ele>124.40000152588</ele>
        <time>2024-05-21T12:34:17.000Z</time>
      </trkpt>
      <trkpt lat="44.82293" lon="4.8835">
        <ele>124.40000152588</ele>
        <time>2024-05-21T12:34:18.000Z</time>
      </trkpt>
      <trkpt lat="44.82288" lon="4.88353">
        <ele>124.59999847412</ele>
        <time>2024-05-21T12:34:19.000Z</time>
      </trkpt>
      <trkpt lat="44.82285" lon="4.88355">
        <ele>124.59999847412</ele>
        <time>2024-05-21T12:34:20.000Z</time>
      </trkpt>
      <trkpt lat="44.82281" lon="4.88357">
        <ele>124.59999847412</ele>
        <time>2024-05-21T12:34:21.000Z</time>
      </trkpt>
      <trkpt lat="44.82276" lon="4.8836">
        <ele>124.59999847412</ele>
        <time>2024-05-21T12:34:22.000Z</time>
      </trkpt>
      <trkpt lat="44.82273" lon="4.88362">
        <ele>124.59999847412</ele>
        <time>2024-05-21T12:34:23.000Z</time>
      </trkpt>
      <trkpt lat="44.82269" lon="4.88365">
        <ele>124.59999847412</ele>
        <time>2024-05-21T12:34:24.000Z</time>
      </trkpt>
      <trkpt lat="44.82264" lon="4.88368">
        <ele>124.59999847412</ele>
        <time>2024-05-21T12:34:25.000Z</time>
      </trkpt>
      <trkpt lat="44.82259" lon="4.88371">
        <ele>124.59999847412</ele>
        <time>2024-05-21T12:34:26.000Z</time>
      </trkpt>
      <trkpt lat="44.82256" lon="4.88373">
        <ele>124.59999847412</ele>
        <time>2024-05-21T12:34:27.000Z</time>
      </trkpt>
      <trkpt lat="44.8225" lon="4.88376">
        <ele>124.59999847412</ele>
        <time>2024-05-21T12:34:28.000Z</time>
      </trkpt>
      <trkpt lat="44.82246" lon="4.88379">
        <ele>125</ele>
        <time>2024-05-21T12:34:29.000Z</time>
      </trkpt>
      <trkpt lat="44.82242" lon="4.88381">
        <ele>125</ele>
        <time>2024-05-21T12:34:30.000Z</time>
      </trkpt>
      <trkpt lat="44.82238" lon="4.88384">
        <ele>125</ele>
        <time>2024-05-21T12:34:31.000Z</time>
      </trkpt>
      <trkpt lat="44.82233" lon="4.88387">
        <ele>125</ele>
        <time>2024-05-21T12:34:32.000Z</time>
      </trkpt>
      <trkpt lat="44.82229" lon="4.88389">
        <ele>125</ele>
        <time>2024-05-21T12:34:33.000Z</time>
      </trkpt>
      <trkpt lat="44.82224" lon="4.88392">
        <ele>125</ele>
        <time>2024-05-21T12:34:34.000Z</time>
      </trkpt>
      <trkpt lat="44.8222" lon="4.88394">
        <ele>125</ele>
        <time>2024-05-21T12:34:35.000Z</time>
      </trkpt>
      <trkpt lat="44.82216" lon="4.88396">
        <ele>125</ele>
        <time>2024-05-21T12:34:36.000Z</time>
      </trkpt>
      <trkpt lat="44.82211" lon="4.88399">
        <ele>125</ele>
        <time>2024-05-21T12:34:37.000Z</time>
      </trkpt>
      <trkpt lat="44.82206" lon="4.88402">
        <ele>125</ele>
        <time>2024-05-21T12:34:38.000Z</time>
      </trkpt>
      <trkpt lat="44.82202" lon="4.88404">
        <ele>125</ele>
        <time>2024-05-21T12:34:39.000Z</time>
      </trkpt>
      <trkpt lat="44.82197" lon="4.88407">
        <ele>125.19999694824</ele>
        <time>2024-05-21T12:34:40.000Z</time>
      </trkpt>
      <trkpt lat="44.82193" lon="4.88409">
        <ele>125.19999694824</ele>
        <time>2024-05-21T12:34:41.000Z</time>
      </trkpt>
      <trkpt lat="44.82189" lon="4.88411">
        <ele>125.19999694824</ele>
        <time>2024-05-21T12:34:42.000Z</time>
      </trkpt>
      <trkpt lat="44.82184" lon="4.88415">
        <ele>125.19999694824</ele>
        <time>2024-05-21T12:34:43.000Z</time>
      </trkpt>
      <trkpt lat="44.8218" lon="4.88417">
        <ele>125.19999694824</ele>
        <time>2024-05-21T12:34:44.000Z</time>
      </trkpt>
      <trkpt lat="44.82176" lon="4.88419">
        <ele>125.40000152588</ele>
        <time>2024-05-21T12:34:45.000Z</time>
      </trkpt>
      <trkpt lat="44.82171" lon="4.88422">
        <ele>125.40000152588</ele>
        <time>2024-05-21T12:34:46.000Z</time>
      </trkpt>
      <trkpt lat="44.82166" lon="4.88425">
        <ele>125.40000152588</ele>
        <time>2024-05-21T12:34:47.000Z</time>
      </trkpt>
      <trkpt lat="44.82163" lon="4.88427">
        <ele>125.40000152588</ele>
        <time>2024-05-21T12:34:48.000Z</time>
      </trkpt>
      <trkpt lat="44.82158" lon="4.8843">
        <ele>125.40000152588</ele>
        <time>2024-05-21T12:34:49.000Z</time>
      </trkpt>
      <trkpt lat="44.82154" lon="4.88433">
        <ele>125.59999847412</ele>
        <time>2024-05-21T12:34:50.000Z</time>
      </trkpt>
      <trkpt lat="44.82149" lon="4.88435">
        <ele>125.80000305176</ele>
        <time>2024-05-21T12:34:51.000Z</time>
      </trkpt>
      <trkpt lat="44.82144" lon="4.88438">
        <ele>125.80000305176</ele>
        <time>2024-05-21T12:34:52.000Z</time>
      </trkpt>
      <trkpt lat="44.82139" lon="4.8844">
        <ele>125.80000305176</ele>
        <time>2024-05-21T12:34:53.000Z</time>
      </trkpt>
      <trkpt lat="44.82136" lon="4.88442">
        <ele>125.80000305176</ele>
        <time>2024-05-21T12:34:54.000Z</time>
      </trkpt>
      <trkpt lat="44.82131" lon="4.88445">
        <ele>125.80000305176</ele>
        <time>2024-05-21T12:34:55.000Z</time>
      </trkpt>
      <trkpt lat="44.82127" lon="4.88448">
        <ele>126</ele>
        <time>2024-05-21T12:34:56.000Z</time>
      </trkpt>
      <trkpt lat="44.82123" lon="4.8845">
        <ele>126</ele>
        <time>2024-05-21T12:34:57.000Z</time>
      </trkpt>
      <trkpt lat="44.82118" lon="4.88453">
        <ele>126.19999694824</ele>
        <time>2024-05-21T12:34:58.000Z</time>
      </trkpt>
      <trkpt lat="44.82113" lon="4.88456">
        <ele>126.19999694824</ele>
        <time>2024-05-21T12:34:59.000Z</time>
      </trkpt>
      <trkpt lat="44.82109" lon="4.88458">
        <ele>126.40000152588</ele>
        <time>2024-05-21T12:35:00.000Z</time>
      </trkpt>
      <trkpt lat="44.82104" lon="4.88461">
        <ele>126.40000152588</ele>
        <time>2024-05-21T12:35:01.000Z</time>
      </trkpt>
      <trkpt lat="44.821" lon="4.88464">
        <ele>126.40000152588</ele>
        <time>2024-05-21T12:35:02.000Z</time>
      </trkpt>
      <trkpt lat="44.82096" lon="4.88466">
        <ele>126.59999847412</ele>
        <time>2024-05-21T12:35:03.000Z</time>
      </trkpt>
      <trkpt lat="44.82091" lon="4.88469">
        <ele>126.59999847412</ele>
        <time>2024-05-21T12:35:04.000Z</time>
      </trkpt>
      <trkpt lat="44.82086" lon="4.88471">
        <ele>126.59999847412</ele>
        <time>2024-05-21T12:35:05.000Z</time>
      </trkpt>
      <trkpt lat="44.82082" lon="4.88474">
        <ele>126.80000305176</ele>
        <time>2024-05-21T12:35:06.000Z</time>
      </trkpt>
      <trkpt lat="44.82078" lon="4.88476">
        <ele>127</ele>
        <time>2024-05-21T12:35:07.000Z</time>
      </trkpt>
      <trkpt lat="44.82073" lon="4.88479">
        <ele>127</ele>
        <time>2024-05-21T12:35:08.000Z</time>
      </trkpt>
      <trkpt lat="44.82069" lon="4.88482">
        <ele>127</ele>
        <time>2024-05-21T12:35:09.000Z</time>
      </trkpt>
      <trkpt lat="44.82064" lon="4.88485">
        <ele>127.19999694824</ele>
        <time>2024-05-21T12:35:10.000Z</time>
      </trkpt>
      <trkpt lat="44.82059" lon="4.88487">
        <ele>127.19999694824</ele>
        <time>2024-05-21T12:35:11.000Z</time>
      </trkpt>
      <trkpt lat="44.82055" lon="4.88489">
        <ele>127.19999694824</ele>
        <time>2024-05-21T12:35:12.000Z</time>
      </trkpt>
      <trkpt lat="44.8205" lon="4.88492">
        <ele>127.19999694824</ele>
        <time>2024-05-21T12:35:13.000Z</time>
      </trkpt>
      <trkpt lat="44.82046" lon="4.88494">
        <ele>127.19999694824</ele>
        <time>2024-05-21T12:35:14.000Z</time>
      </trkpt>
      <trkpt lat="44.82041" lon="4.88497">
        <ele>127.40000152588</ele>
        <time>2024-05-21T12:35:15.000Z</time>
      </trkpt>
      <trkpt lat="44.82036" lon="4.885">
        <ele>127.40000152588</ele>
        <time>2024-05-21T12:35:16.000Z</time>
      </trkpt>
      <trkpt lat="44.82032" lon="4.88503">
        <ele>127.40000152588</ele>
        <time>2024-05-21T12:35:17.000Z</time>
      </trkpt>
      <trkpt lat="44.82028" lon="4.88505">
        <ele>127.59999847412</ele>
        <time>2024-05-21T12:35:18.000Z</time>
      </trkpt>
      <trkpt lat="44.82024" lon="4.88507">
        <ele>127.59999847412</ele>
        <time>2024-05-21T12:35:19.000Z</time>
      </trkpt>
      <trkpt lat="44.82019" lon="4.8851">
        <ele>127.59999847412</ele>
        <time>2024-05-21T12:35:20.000Z</time>
      </trkpt>
      <trkpt lat="44.82015" lon="4.88512">
        <ele>127.80000305176</ele>
        <time>2024-05-21T12:35:21.000Z</time>
      </trkpt>
      <trkpt lat="44.82009" lon="4.88515">
        <ele>127.80000305176</ele>
        <time>2024-05-21T12:35:22.000Z</time>
      </trkpt>
      <trkpt lat="44.82005" lon="4.88518">
        <ele>127.80000305176</ele>
        <time>2024-05-21T12:35:23.000Z</time>
      </trkpt>
      <trkpt lat="44.82001" lon="4.8852">
        <ele>127.80000305176</ele>
        <time>2024-05-21T12:35:24.000Z</time>
      </trkpt>
      <trkpt lat="44.81996" lon="4.88522">
        <ele>128</ele>
        <time>2024-05-21T12:35:25.000Z</time>
      </trkpt>
      <trkpt lat="44.81991" lon="4.88526">
        <ele>128</ele>
        <time>2024-05-21T12:35:26.000Z</time>
      </trkpt>
      <trkpt lat="44.81988" lon="4.88528">
        <ele>128</ele>
        <time>2024-05-21T12:35:27.000Z</time>
      </trkpt>
      <trkpt lat="44.81983" lon="4.88531">
        <ele>128.39999389648</ele>
        <time>2024-05-21T12:35:28.000Z</time>
      </trkpt>
      <trkpt lat="44.81978" lon="4.88533">
        <ele>128.39999389648</ele>
        <time>2024-05-21T12:35:29.000Z</time>
      </trkpt>
      <trkpt lat="44.81975" lon="4.88535">
        <ele>128.39999389648</ele>
        <time>2024-05-21T12:35:30.000Z</time>
      </trkpt>
      <trkpt lat="44.81971" lon="4.88537">
        <ele>128.39999389648</ele>
        <time>2024-05-21T12:35:31.000Z</time>
      </trkpt>
      <trkpt lat="44.81965" lon="4.8854">
        <ele>128.60000610352</ele>
        <time>2024-05-21T12:35:32.000Z</time>
      </trkpt>
      <trkpt lat="44.81962" lon="4.88542">
        <ele>128.80000305176</ele>
        <time>2024-05-21T12:35:33.000Z</time>
      </trkpt>
      <trkpt lat="44.81957" lon="4.88544">
        <ele>129</ele>
        <time>2024-05-21T12:35:34.000Z</time>
      </trkpt>
      <trkpt lat="44.81952" lon="4.88547">
        <ele>129</ele>
        <time>2024-05-21T12:35:35.000Z</time>
      </trkpt>
      <trkpt lat="44.81949" lon="4.88549">
        <ele>129.19999694824</ele>
        <time>2024-05-21T12:35:36.000Z</time>
      </trkpt>
      <trkpt lat="44.81944" lon="4.88551">
        <ele>129.39999389648</ele>
        <time>2024-05-21T12:35:37.000Z</time>
      </trkpt>
      <trkpt lat="44.81939" lon="4.88553">
        <ele>129.39999389648</ele>
        <time>2024-05-21T12:35:38.000Z</time>
      </trkpt>
      <trkpt lat="44.81936" lon="4.88555">
        <ele>129.60000610352</ele>
        <time>2024-05-21T12:35:39.000Z</time>
      </trkpt>
      <trkpt lat="44.81932" lon="4.88558">
        <ele>129.60000610352</ele>
        <time>2024-05-21T12:35:40.000Z</time>
      </trkpt>
      <trkpt lat="44.81927" lon="4.8856">
        <ele>129.60000610352</ele>
        <time>2024-05-21T12:35:41.000Z</time>
      </trkpt>
      <trkpt lat="44.81923" lon="4.88561">
        <ele>129.60000610352</ele>
        <time>2024-05-21T12:35:42.000Z</time>
      </trkpt>
      <trkpt lat="44.81918" lon="4.88563">
        <ele>129.60000610352</ele>
        <time>2024-05-21T12:35:43.000Z</time>
      </trkpt>
      <trkpt lat="44.81913" lon="4.88566">
        <ele>129.60000610352</ele>
        <time>2024-05-21T12:35:44.000Z</time>
      </trkpt>
      <trkpt lat="44.81909" lon="4.88567">
        <ele>129.60000610352</ele>
        <time>2024-05-21T12:35:45.000Z</time>
      </trkpt>
      <trkpt lat="44.81904" lon="4.8857">
        <ele>129.80000305176</ele>
        <time>2024-05-21T12:35:46.000Z</time>
      </trkpt>
      <trkpt lat="44.81899" lon="4.88572">
        <ele>129.80000305176</ele>
        <time>2024-05-21T12:35:47.000Z</time>
      </trkpt>
      <trkpt lat="44.81896" lon="4.88573">
        <ele>130</ele>
        <time>2024-05-21T12:35:48.000Z</time>
      </trkpt>
      <trkpt lat="44.8189" lon="4.88575">
        <ele>130</ele>
        <time>2024-05-21T12:35:49.000Z</time>
      </trkpt>
      <trkpt lat="44.81887" lon="4.88576">
        <ele>130</ele>
        <time>2024-05-21T12:35:50.000Z</time>
      </trkpt>
      <trkpt lat="44.81882" lon="4.88577">
        <ele>130</ele>
        <time>2024-05-21T12:35:51.000Z</time>
      </trkpt>
      <trkpt lat="44.81877" lon="4.88579">
        <ele>130</ele>
        <time>2024-05-21T12:35:52.000Z</time>
      </trkpt>
      <trkpt lat="44.81873" lon="4.88579">
        <ele>130</ele>
        <time>2024-05-21T12:35:53.000Z</time>
      </trkpt>
      <trkpt lat="44.81868" lon="4.8858">
        <ele>130</ele>
        <time>2024-05-21T12:35:54.000Z</time>
      </trkpt>
      <trkpt lat="44.81864" lon="4.8858">
        <ele>130</ele>
        <time>2024-05-21T12:35:55.000Z</time>
      </trkpt>
      <trkpt lat="44.81859" lon="4.88581">
        <ele>130.19999694824</ele>
        <time>2024-05-21T12:35:56.000Z</time>
      </trkpt>
      <trkpt lat="44.81853" lon="4.88581">
        <ele>130.19999694824</ele>
        <time>2024-05-21T12:35:57.000Z</time>
      </trkpt>
      <trkpt lat="44.81849" lon="4.88581">
        <ele>130.39999389648</ele>
        <time>2024-05-21T12:35:58.000Z</time>
      </trkpt>
      <trkpt lat="44.81845" lon="4.88581">
        <ele>130.60000610352</ele>
        <time>2024-05-21T12:35:59.000Z</time>
      </trkpt>
      <trkpt lat="44.81839" lon="4.88581">
        <ele>130.60000610352</ele>
        <time>2024-05-21T12:36:00.000Z</time>
      </trkpt>
      <trkpt lat="44.81836" lon="4.88581">
        <ele>130.80000305176</ele>
        <time>2024-05-21T12:36:01.000Z</time>
      </trkpt>
      <trkpt lat="44.81831" lon="4.8858">
        <ele>131</ele>
        <time>2024-05-21T12:36:02.000Z</time>
      </trkpt>
      <trkpt lat="44.81827" lon="4.88579">
        <ele>131</ele>
        <time>2024-05-21T12:36:03.000Z</time>
      </trkpt>
      <trkpt lat="44.81822" lon="4.88578">
        <ele>131.19999694824</ele>
        <time>2024-05-21T12:36:04.000Z</time>
      </trkpt>
      <trkpt lat="44.81818" lon="4.88577">
        <ele>131.19999694824</ele>
        <time>2024-05-21T12:36:05.000Z</time>
      </trkpt>
      <trkpt lat="44.81814" lon="4.88576">
        <ele>131.39999389648</ele>
        <time>2024-05-21T12:36:06.000Z</time>
      </trkpt>
      <trkpt lat="44.81809" lon="4.88574">
        <ele>131.39999389648</ele>
        <time>2024-05-21T12:36:07.000Z</time>
      </trkpt>
      <trkpt lat="44.81804" lon="4.88572">
        <ele>131.39999389648</ele>
        <time>2024-05-21T12:36:08.000Z</time>
      </trkpt>
      <trkpt lat="44.81799" lon="4.88571">
        <ele>131.39999389648</ele>
        <time>2024-05-21T12:36:09.000Z</time>
      </trkpt>
      <trkpt lat="44.81794" lon="4.88569">
        <ele>131.39999389648</ele>
        <time>2024-05-21T12:36:10.000Z</time>
      </trkpt>
      <trkpt lat="44.81789" lon="4.88567">
        <ele>131.19999694824</ele>
        <time>2024-05-21T12:36:11.000Z</time>
      </trkpt>
      <trkpt lat="44.81783" lon="4.88565">
        <ele>131</ele>
        <time>2024-05-21T12:36:12.000Z</time>
      </trkpt>
      <trkpt lat="44.81779" lon="4.88564">
        <ele>131</ele>
        <time>2024-05-21T12:36:13.000Z</time>
      </trkpt>
      <trkpt lat="44.81774" lon="4.88562">
        <ele>131</ele>
        <time>2024-05-21T12:36:14.000Z</time>
      </trkpt>
      <trkpt lat="44.81769" lon="4.88559">
        <ele>130.80000305176</ele>
        <time>2024-05-21T12:36:15.000Z</time>
      </trkpt>
      <trkpt lat="44.81764" lon="4.88557">
        <ele>130.80000305176</ele>
        <time>2024-05-21T12:36:16.000Z</time>
      </trkpt>
      <trkpt lat="44.81758" lon="4.88555">
        <ele>130.80000305176</ele>
        <time>2024-05-21T12:36:17.000Z</time>
      </trkpt>
      <trkpt lat="44.81753" lon="4.88553">
        <ele>130.60000610352</ele>
        <time>2024-05-21T12:36:18.000Z</time>
      </trkpt>
      <trkpt lat="44.81748" lon="4.8855">
        <ele>130.60000610352</ele>
        <time>2024-05-21T12:36:19.000Z</time>
      </trkpt>
      <trkpt lat="44.81743" lon="4.88547">
        <ele>130.60000610352</ele>
        <time>2024-05-21T12:36:20.000Z</time>
      </trkpt>
      <trkpt lat="44.81736" lon="4.88545">
        <ele>130.39999389648</ele>
        <time>2024-05-21T12:36:21.000Z</time>
      </trkpt>
      <trkpt lat="44.81732" lon="4.88543">
        <ele>130.39999389648</ele>
        <time>2024-05-21T12:36:22.000Z</time>
      </trkpt>
      <trkpt lat="44.81726" lon="4.88541">
        <ele>130.39999389648</ele>
        <time>2024-05-21T12:36:23.000Z</time>
      </trkpt>
      <trkpt lat="44.8172" lon="4.88539">
        <ele>130.19999694824</ele>
        <time>2024-05-21T12:36:24.000Z</time>
      </trkpt>
      <trkpt lat="44.81714" lon="4.88537">
        <ele>130.19999694824</ele>
        <time>2024-05-21T12:36:25.000Z</time>
      </trkpt>
      <trkpt lat="44.81708" lon="4.88536">
        <ele>130.19999694824</ele>
        <time>2024-05-21T12:36:26.000Z</time>
      </trkpt>
      <trkpt lat="44.81702" lon="4.88534">
        <ele>130</ele>
        <time>2024-05-21T12:36:27.000Z</time>
      </trkpt>
      <trkpt lat="44.81696" lon="4.88532">
        <ele>129.80000305176</ele>
        <time>2024-05-21T12:36:28.000Z</time>
      </trkpt>
      <trkpt lat="44.8169" lon="4.88531">
        <ele>129.60000610352</ele>
        <time>2024-05-21T12:36:29.000Z</time>
      </trkpt>
      <trkpt lat="44.81682" lon="4.88529">
        <ele>129.39999389648</ele>
        <time>2024-05-21T12:36:30.000Z</time>
      </trkpt>
      <trkpt lat="44.81677" lon="4.88527">
        <ele>129.19999694824</ele>
        <time>2024-05-21T12:36:31.000Z</time>
      </trkpt>
      <trkpt lat="44.81671" lon="4.88525">
        <ele>129.19999694824</ele>
        <time>2024-05-21T12:36:32.000Z</time>
      </trkpt>
      <trkpt lat="44.81665" lon="4.88523">
        <ele>129.19999694824</ele>
        <time>2024-05-21T12:36:33.000Z</time>
      </trkpt>
      <trkpt lat="44.81659" lon="4.8852">
        <ele>129.19999694824</ele>
        <time>2024-05-21T12:36:34.000Z</time>
      </trkpt>
      <trkpt lat="44.81652" lon="4.88518">
        <ele>129.19999694824</ele>
        <time>2024-05-21T12:36:35.000Z</time>
      </trkpt>
      <trkpt lat="44.81646" lon="4.88516">
        <ele>129.19999694824</ele>
        <time>2024-05-21T12:36:36.000Z</time>
      </trkpt>
      <trkpt lat="44.8164" lon="4.88513">
        <ele>129.19999694824</ele>
        <time>2024-05-21T12:36:37.000Z</time>
      </trkpt>
      <trkpt lat="44.81634" lon="4.88511">
        <ele>129.19999694824</ele>
        <time>2024-05-21T12:36:38.000Z</time>
      </trkpt>
      <trkpt lat="44.81627" lon="4.88508">
        <ele>129</ele>
        <time>2024-05-21T12:36:39.000Z</time>
      </trkpt>
      <trkpt lat="44.81621" lon="4.88505">
        <ele>129</ele>
        <time>2024-05-21T12:36:40.000Z</time>
      </trkpt>
      <trkpt lat="44.81615" lon="4.88501">
        <ele>129</ele>
        <time>2024-05-21T12:36:41.000Z</time>
      </trkpt>
      <trkpt lat="44.81607" lon="4.88498">
        <ele>129</ele>
        <time>2024-05-21T12:36:42.000Z</time>
      </trkpt>
      <trkpt lat="44.81602" lon="4.88495">
        <ele>128.80000305176</ele>
        <time>2024-05-21T12:36:43.000Z</time>
      </trkpt>
      <trkpt lat="44.81596" lon="4.88492">
        <ele>128.80000305176</ele>
        <time>2024-05-21T12:36:44.000Z</time>
      </trkpt>
      <trkpt lat="44.8159" lon="4.88489">
        <ele>128.80000305176</ele>
        <time>2024-05-21T12:36:45.000Z</time>
      </trkpt>
      <trkpt lat="44.81583" lon="4.88486">
        <ele>128.80000305176</ele>
        <time>2024-05-21T12:36:46.000Z</time>
      </trkpt>
      <trkpt lat="44.81578" lon="4.88483">
        <ele>128.60000610352</ele>
        <time>2024-05-21T12:36:47.000Z</time>
      </trkpt>
      <trkpt lat="44.8157" lon="4.8848">
        <ele>128.60000610352</ele>
        <time>2024-05-21T12:36:48.000Z</time>
      </trkpt>
      <trkpt lat="44.81564" lon="4.88476">
        <ele>128.39999389648</ele>
        <time>2024-05-21T12:36:49.000Z</time>
      </trkpt>
      <trkpt lat="44.81559" lon="4.88474">
        <ele>128.39999389648</ele>
        <time>2024-05-21T12:36:50.000Z</time>
      </trkpt>
      <trkpt lat="44.81552" lon="4.8847">
        <ele>128.39999389648</ele>
        <time>2024-05-21T12:36:51.000Z</time>
      </trkpt>
      <trkpt lat="44.81545" lon="4.88467">
        <ele>128.39999389648</ele>
        <time>2024-05-21T12:36:52.000Z</time>
      </trkpt>
      <trkpt lat="44.8154" lon="4.88465">
        <ele>128.39999389648</ele>
        <time>2024-05-21T12:36:53.000Z</time>
      </trkpt>
      <trkpt lat="44.81533" lon="4.88462">
        <ele>128.19999694824</ele>
        <time>2024-05-21T12:36:54.000Z</time>
      </trkpt>
      <trkpt lat="44.81526" lon="4.88459">
        <ele>128.19999694824</ele>
        <time>2024-05-21T12:36:55.000Z</time>
      </trkpt>
      <trkpt lat="44.81521" lon="4.88457">
        <ele>128.19999694824</ele>
        <time>2024-05-21T12:36:56.000Z</time>
      </trkpt>
      <trkpt lat="44.81514" lon="4.88454">
        <ele>128.19999694824</ele>
        <time>2024-05-21T12:36:57.000Z</time>
      </trkpt>
      <trkpt lat="44.81507" lon="4.88452">
        <ele>128.19999694824</ele>
        <time>2024-05-21T12:36:58.000Z</time>
      </trkpt>
      <trkpt lat="44.81502" lon="4.8845">
        <ele>128.19999694824</ele>
        <time>2024-05-21T12:36:59.000Z</time>
      </trkpt>
      <trkpt lat="44.81494" lon="4.88448">
        <ele>128</ele>
        <time>2024-05-21T12:37:00.000Z</time>
      </trkpt>
      <trkpt lat="44.81488" lon="4.88446">
        <ele>128</ele>
        <time>2024-05-21T12:37:01.000Z</time>
      </trkpt>
      <trkpt lat="44.81482" lon="4.88444">
        <ele>128</ele>
        <time>2024-05-21T12:37:02.000Z</time>
      </trkpt>
      <trkpt lat="44.81475" lon="4.88442">
        <ele>128</ele>
        <time>2024-05-21T12:37:03.000Z</time>
      </trkpt>
      <trkpt lat="44.81468" lon="4.88441">
        <ele>128</ele>
        <time>2024-05-21T12:37:04.000Z</time>
      </trkpt>
      <trkpt lat="44.81463" lon="4.8844">
        <ele>127.80000305176</ele>
        <time>2024-05-21T12:37:05.000Z</time>
      </trkpt>
      <trkpt lat="44.81456" lon="4.88439">
        <ele>127.80000305176</ele>
        <time>2024-05-21T12:37:06.000Z</time>
      </trkpt>
      <trkpt lat="44.8145" lon="4.88438">
        <ele>127.80000305176</ele>
        <time>2024-05-21T12:37:07.000Z</time>
      </trkpt>
      <trkpt lat="44.81442" lon="4.88437">
        <ele>127.59999847412</ele>
        <time>2024-05-21T12:37:08.000Z</time>
      </trkpt>
      <trkpt lat="44.81435" lon="4.88437">
        <ele>127.40000152588</ele>
        <time>2024-05-21T12:37:09.000Z</time>
      </trkpt>
      <trkpt lat="44.81429" lon="4.88437">
        <ele>127.40000152588</ele>
        <time>2024-05-21T12:37:10.000Z</time>
      </trkpt>
      <trkpt lat="44.81423" lon="4.88436">
        <ele>127.40000152588</ele>
        <time>2024-05-21T12:37:11.000Z</time>
      </trkpt>
      <trkpt lat="44.81416" lon="4.88435">
        <ele>127.40000152588</ele>
        <time>2024-05-21T12:37:12.000Z</time>
      </trkpt>
      <trkpt lat="44.81409" lon="4.88435">
        <ele>127.40000152588</ele>
        <time>2024-05-21T12:37:13.000Z</time>
      </trkpt>
      <trkpt lat="44.81404" lon="4.88435">
        <ele>127.40000152588</ele>
        <time>2024-05-21T12:37:14.000Z</time>
      </trkpt>
      <trkpt lat="44.81398" lon="4.88434">
        <ele>127.59999847412</ele>
        <time>2024-05-21T12:37:15.000Z</time>
      </trkpt>
      <trkpt lat="44.8139" lon="4.88434">
        <ele>127.59999847412</ele>
        <time>2024-05-21T12:37:16.000Z</time>
      </trkpt>
      <trkpt lat="44.81385" lon="4.88434">
        <ele>127.59999847412</ele>
        <time>2024-05-21T12:37:17.000Z</time>
      </trkpt>
      <trkpt lat="44.81377" lon="4.88434">
        <ele>127.59999847412</ele>
        <time>2024-05-21T12:37:18.000Z</time>
      </trkpt>
      <trkpt lat="44.81371" lon="4.88434">
        <ele>127.59999847412</ele>
        <time>2024-05-21T12:37:19.000Z</time>
      </trkpt>
      <trkpt lat="44.81365" lon="4.88434">
        <ele>127.40000152588</ele>
        <time>2024-05-21T12:37:20.000Z</time>
      </trkpt>
      <trkpt lat="44.81358" lon="4.88434">
        <ele>127.40000152588</ele>
        <time>2024-05-21T12:37:21.000Z</time>
      </trkpt>
      <trkpt lat="44.81351" lon="4.88434">
        <ele>127.40000152588</ele>
        <time>2024-05-21T12:37:22.000Z</time>
      </trkpt>
      <trkpt lat="44.81346" lon="4.88434">
        <ele>127.40000152588</ele>
        <time>2024-05-21T12:37:23.000Z</time>
      </trkpt>
      <trkpt lat="44.81339" lon="4.88434">
        <ele>127.40000152588</ele>
        <time>2024-05-21T12:37:24.000Z</time>
      </trkpt>
      <trkpt lat="44.81333" lon="4.88435">
        <ele>127.40000152588</ele>
        <time>2024-05-21T12:37:25.000Z</time>
      </trkpt>
      <trkpt lat="44.81328" lon="4.88435">
        <ele>127.40000152588</ele>
        <time>2024-05-21T12:37:26.000Z</time>
      </trkpt>
      <trkpt lat="44.81322" lon="4.88435">
        <ele>127.59999847412</ele>
        <time>2024-05-21T12:37:27.000Z</time>
      </trkpt>
      <trkpt lat="44.81315" lon="4.88436">
        <ele>127.59999847412</ele>
        <time>2024-05-21T12:37:28.000Z</time>
      </trkpt>
      <trkpt lat="44.81311" lon="4.88436">
        <ele>127.59999847412</ele>
        <time>2024-05-21T12:37:29.000Z</time>
      </trkpt>
      <trkpt lat="44.81303" lon="4.88437">
        <ele>127.59999847412</ele>
        <time>2024-05-21T12:37:30.000Z</time>
      </trkpt>
      <trkpt lat="44.81298" lon="4.88437">
        <ele>127.59999847412</ele>
        <time>2024-05-21T12:37:31.000Z</time>
      </trkpt>
      <trkpt lat="44.81293" lon="4.88438">
        <ele>127.59999847412</ele>
        <time>2024-05-21T12:37:32.000Z</time>
      </trkpt>
      <trkpt lat="44.81286" lon="4.88439">
        <ele>127.59999847412</ele>
        <time>2024-05-21T12:37:33.000Z</time>
      </trkpt>
      <trkpt lat="44.8128" lon="4.88439">
        <ele>127.59999847412</ele>
        <time>2024-05-21T12:37:34.000Z</time>
      </trkpt>
      <trkpt lat="44.81275" lon="4.8844">
        <ele>127.59999847412</ele>
        <time>2024-05-21T12:37:35.000Z</time>
      </trkpt>
      <trkpt lat="44.81268" lon="4.88441">
        <ele>127.80000305176</ele>
        <time>2024-05-21T12:37:36.000Z</time>
      </trkpt>
      <trkpt lat="44.81262" lon="4.88442">
        <ele>127.59999847412</ele>
        <time>2024-05-21T12:37:37.000Z</time>
      </trkpt>
      <trkpt lat="44.81257" lon="4.88442">
        <ele>127.59999847412</ele>
        <time>2024-05-21T12:37:38.000Z</time>
      </trkpt>
      <trkpt lat="44.8125" lon="4.88443">
        <ele>127.59999847412</ele>
        <time>2024-05-21T12:37:39.000Z</time>
      </trkpt>
      <trkpt lat="44.81244" lon="4.88444">
        <ele>127.59999847412</ele>
        <time>2024-05-21T12:37:40.000Z</time>
      </trkpt>
      <trkpt lat="44.81239" lon="4.88445">
        <ele>127.59999847412</ele>
        <time>2024-05-21T12:37:41.000Z</time>
      </trkpt>
      <trkpt lat="44.81232" lon="4.88446">
        <ele>127.59999847412</ele>
        <time>2024-05-21T12:37:42.000Z</time>
      </trkpt>
      <trkpt lat="44.81228" lon="4.88447">
        <ele>127.80000305176</ele>
        <time>2024-05-21T12:37:43.000Z</time>
      </trkpt>
      <trkpt lat="44.81222" lon="4.88447">
        <ele>127.80000305176</ele>
        <time>2024-05-21T12:37:44.000Z</time>
      </trkpt>
      <trkpt lat="44.81216" lon="4.88448">
        <ele>127.80000305176</ele>
        <time>2024-05-21T12:37:45.000Z</time>
      </trkpt>
      <trkpt lat="44.81211" lon="4.88448">
        <ele>128</ele>
        <time>2024-05-21T12:37:46.000Z</time>
      </trkpt>
      <trkpt lat="44.81207" lon="4.88448">
        <ele>128</ele>
        <time>2024-05-21T12:37:47.000Z</time>
      </trkpt>
      <trkpt lat="44.81202" lon="4.88449">
        <ele>128</ele>
        <time>2024-05-21T12:37:48.000Z</time>
      </trkpt>
      <trkpt lat="44.81198" lon="4.88449">
        <ele>128.19999694824</ele>
        <time>2024-05-21T12:37:49.000Z</time>
      </trkpt>
      <trkpt lat="44.81192" lon="4.88449">
        <ele>128.19999694824</ele>
        <time>2024-05-21T12:37:50.000Z</time>
      </trkpt>
      <trkpt lat="44.81186" lon="4.88449">
        <ele>128.19999694824</ele>
        <time>2024-05-21T12:37:51.000Z</time>
      </trkpt>
      <trkpt lat="44.81181" lon="4.88449">
        <ele>128.19999694824</ele>
        <time>2024-05-21T12:37:52.000Z</time>
      </trkpt>
      <trkpt lat="44.81177" lon="4.88449">
        <ele>128.19999694824</ele>
        <time>2024-05-21T12:37:53.000Z</time>
      </trkpt>
      <trkpt lat="44.8117" lon="4.88448">
        <ele>128.19999694824</ele>
        <time>2024-05-21T12:37:54.000Z</time>
      </trkpt>
      <trkpt lat="44.81165" lon="4.88448">
        <ele>127.80000305176</ele>
        <time>2024-05-21T12:37:55.000Z</time>
      </trkpt>
      <trkpt lat="44.81162" lon="4.88447">
        <ele>127.80000305176</ele>
        <time>2024-05-21T12:37:56.000Z</time>
      </trkpt>
      <trkpt lat="44.81156" lon="4.88446">
        <ele>127.80000305176</ele>
        <time>2024-05-21T12:37:57.000Z</time>
      </trkpt>
      <trkpt lat="44.81151" lon="4.88446">
        <ele>127.59999847412</ele>
        <time>2024-05-21T12:37:58.000Z</time>
      </trkpt>
      <trkpt lat="44.81147" lon="4.88446">
        <ele>127.59999847412</ele>
        <time>2024-05-21T12:37:59.000Z</time>
      </trkpt>
      <trkpt lat="44.81141" lon="4.88445">
        <ele>127.59999847412</ele>
        <time>2024-05-21T12:38:00.000Z</time>
      </trkpt>
      <trkpt lat="44.81135" lon="4.88444">
        <ele>127.59999847412</ele>
        <time>2024-05-21T12:38:01.000Z</time>
      </trkpt>
      <trkpt lat="44.81131" lon="4.88444">
        <ele>127.40000152588</ele>
        <time>2024-05-21T12:38:02.000Z</time>
      </trkpt>
      <trkpt lat="44.81124" lon="4.88443">
        <ele>127.19999694824</ele>
        <time>2024-05-21T12:38:03.000Z</time>
      </trkpt>
      <trkpt lat="44.81118" lon="4.88442">
        <ele>127.19999694824</ele>
        <time>2024-05-21T12:38:04.000Z</time>
      </trkpt>
      <trkpt lat="44.81113" lon="4.88442">
        <ele>127</ele>
        <time>2024-05-21T12:38:05.000Z</time>
      </trkpt>
      <trkpt lat="44.81106" lon="4.88441">
        <ele>126.80000305176</ele>
        <time>2024-05-21T12:38:06.000Z</time>
      </trkpt>
      <trkpt lat="44.811" lon="4.8844">
        <ele>126.40000152588</ele>
        <time>2024-05-21T12:38:07.000Z</time>
      </trkpt>
      <trkpt lat="44.81095" lon="4.88439">
        <ele>126.40000152588</ele>
        <time>2024-05-21T12:38:08.000Z</time>
      </trkpt>
      <trkpt lat="44.81089" lon="4.88439">
        <ele>126.19999694824</ele>
        <time>2024-05-21T12:38:09.000Z</time>
      </trkpt>
      <trkpt lat="44.81083" lon="4.88438">
        <ele>126.19999694824</ele>
        <time>2024-05-21T12:38:10.000Z</time>
      </trkpt>
      <trkpt lat="44.81077" lon="4.88438">
        <ele>126</ele>
        <time>2024-05-21T12:38:11.000Z</time>
      </trkpt>
      <trkpt lat="44.8107" lon="4.88438">
        <ele>126</ele>
        <time>2024-05-21T12:38:12.000Z</time>
      </trkpt>
      <trkpt lat="44.81065" lon="4.88438">
        <ele>126</ele>
        <time>2024-05-21T12:38:13.000Z</time>
      </trkpt>
      <trkpt lat="44.8106" lon="4.88438">
        <ele>125.80000305176</ele>
        <time>2024-05-21T12:38:14.000Z</time>
      </trkpt>
      <trkpt lat="44.81055" lon="4.88437">
        <ele>125.80000305176</ele>
        <time>2024-05-21T12:38:15.000Z</time>
      </trkpt>
      <trkpt lat="44.81048" lon="4.88437">
        <ele>125.59999847412</ele>
        <time>2024-05-21T12:38:16.000Z</time>
      </trkpt>
      <trkpt lat="44.81044" lon="4.88437">
        <ele>125.59999847412</ele>
        <time>2024-05-21T12:38:17.000Z</time>
      </trkpt>
      <trkpt lat="44.81038" lon="4.88437">
        <ele>125.59999847412</ele>
        <time>2024-05-21T12:38:18.000Z</time>
      </trkpt>
      <trkpt lat="44.81033" lon="4.88438">
        <ele>125.59999847412</ele>
        <time>2024-05-21T12:38:19.000Z</time>
      </trkpt>
      <trkpt lat="44.81029" lon="4.88438">
        <ele>125.80000305176</ele>
        <time>2024-05-21T12:38:20.000Z</time>
      </trkpt>
      <trkpt lat="44.81023" lon="4.88439">
        <ele>125.80000305176</ele>
        <time>2024-05-21T12:38:21.000Z</time>
      </trkpt>
      <trkpt lat="44.81017" lon="4.8844">
        <ele>125.80000305176</ele>
        <time>2024-05-21T12:38:22.000Z</time>
      </trkpt>
      <trkpt lat="44.81013" lon="4.8844">
        <ele>125.80000305176</ele>
        <time>2024-05-21T12:38:23.000Z</time>
      </trkpt>
      <trkpt lat="44.81007" lon="4.88441">
        <ele>125.80000305176</ele>
        <time>2024-05-21T12:38:24.000Z</time>
      </trkpt>
      <trkpt lat="44.81002" lon="4.88442">
        <ele>125.80000305176</ele>
        <time>2024-05-21T12:38:25.000Z</time>
      </trkpt>
      <trkpt lat="44.80998" lon="4.88443">
        <ele>126</ele>
        <time>2024-05-21T12:38:26.000Z</time>
      </trkpt>
      <trkpt lat="44.80991" lon="4.88445">
        <ele>126</ele>
        <time>2024-05-21T12:38:27.000Z</time>
      </trkpt>
      <trkpt lat="44.80986" lon="4.88446">
        <ele>126.19999694824</ele>
        <time>2024-05-21T12:38:28.000Z</time>
      </trkpt>
      <trkpt lat="44.80982" lon="4.88447">
        <ele>126.19999694824</ele>
        <time>2024-05-21T12:38:29.000Z</time>
      </trkpt>
      <trkpt lat="44.80976" lon="4.88447">
        <ele>126.19999694824</ele>
        <time>2024-05-21T12:38:30.000Z</time>
      </trkpt>
      <trkpt lat="44.80972" lon="4.88448">
        <ele>126.19999694824</ele>
        <time>2024-05-21T12:38:31.000Z</time>
      </trkpt>
      <trkpt lat="44.80966" lon="4.88448">
        <ele>126.19999694824</ele>
        <time>2024-05-21T12:38:32.000Z</time>
      </trkpt>
      <trkpt lat="44.80961" lon="4.88447">
        <ele>126.19999694824</ele>
        <time>2024-05-21T12:38:33.000Z</time>
      </trkpt>
      <trkpt lat="44.80954" lon="4.88445">
        <ele>126.19999694824</ele>
        <time>2024-05-21T12:38:34.000Z</time>
      </trkpt>
      <trkpt lat="44.8095" lon="4.88443">
        <ele>126</ele>
        <time>2024-05-21T12:38:35.000Z</time>
      </trkpt>
      <trkpt lat="44.80945" lon="4.88439">
        <ele>126.19999694824</ele>
        <time>2024-05-21T12:38:36.000Z</time>
      </trkpt>
      <trkpt lat="44.8094" lon="4.88435">
        <ele>126.19999694824</ele>
        <time>2024-05-21T12:38:37.000Z</time>
      </trkpt>
      <trkpt lat="44.80937" lon="4.88432">
        <ele>126.19999694824</ele>
        <time>2024-05-21T12:38:38.000Z</time>
      </trkpt>
      <trkpt lat="44.80933" lon="4.88426">
        <ele>126.19999694824</ele>
        <time>2024-05-21T12:38:39.000Z</time>
      </trkpt>
      <trkpt lat="44.80929" lon="4.88422">
        <ele>126.19999694824</ele>
        <time>2024-05-21T12:38:40.000Z</time>
      </trkpt>
      <trkpt lat="44.80926" lon="4.88418">
        <ele>126.40000152588</ele>
        <time>2024-05-21T12:38:41.000Z</time>
      </trkpt>
      <trkpt lat="44.80922" lon="4.88413">
        <ele>126.59999847412</ele>
        <time>2024-05-21T12:38:42.000Z</time>
      </trkpt>
      <trkpt lat="44.80919" lon="4.88409">
        <ele>126.80000305176</ele>
        <time>2024-05-21T12:38:43.000Z</time>
      </trkpt>
      <trkpt lat="44.80916" lon="4.88405">
        <ele>127</ele>
        <time>2024-05-21T12:38:44.000Z</time>
      </trkpt>
      <trkpt lat="44.80912" lon="4.88399">
        <ele>127</ele>
        <time>2024-05-21T12:38:45.000Z</time>
      </trkpt>
      <trkpt lat="44.80908" lon="4.88395">
        <ele>127.40000152588</ele>
        <time>2024-05-21T12:38:46.000Z</time>
      </trkpt>
      <trkpt lat="44.80906" lon="4.88391">
        <ele>127.40000152588</ele>
        <time>2024-05-21T12:38:47.000Z</time>
      </trkpt>
      <trkpt lat="44.80901" lon="4.88386">
        <ele>127.40000152588</ele>
        <time>2024-05-21T12:38:48.000Z</time>
      </trkpt>
      <trkpt lat="44.80898" lon="4.88382">
        <ele>127.59999847412</ele>
        <time>2024-05-21T12:38:49.000Z</time>
      </trkpt>
      <trkpt lat="44.80896" lon="4.88379">
        <ele>127.80000305176</ele>
        <time>2024-05-21T12:38:50.000Z</time>
      </trkpt>
      <trkpt lat="44.80892" lon="4.88374">
        <ele>127.80000305176</ele>
        <time>2024-05-21T12:38:51.000Z</time>
      </trkpt>
      <trkpt lat="44.8089" lon="4.88371">
        <ele>128</ele>
        <time>2024-05-21T12:38:52.000Z</time>
      </trkpt>
      <trkpt lat="44.80887" lon="4.88368">
        <ele>128</ele>
        <time>2024-05-21T12:38:53.000Z</time>
      </trkpt>
      <trkpt lat="44.80885" lon="4.88365">
        <ele>128.19999694824</ele>
        <time>2024-05-21T12:38:54.000Z</time>
      </trkpt>
      <trkpt lat="44.80883" lon="4.88362">
        <ele>128.19999694824</ele>
        <time>2024-05-21T12:38:55.000Z</time>
      </trkpt>
      <trkpt lat="44.80883" lon="4.88358">
        <ele>128.39999389648</ele>
        <time>2024-05-21T12:38:56.000Z</time>
      </trkpt>
      <trkpt lat="44.80883" lon="4.88355">
        <ele>128.60000610352</ele>
        <time>2024-05-21T12:38:57.000Z</time>
      </trkpt>
      <trkpt lat="44.80883" lon="4.88351">
        <ele>128.60000610352</ele>
        <time>2024-05-21T12:38:58.000Z</time>
      </trkpt>
      <trkpt lat="44.80884" lon="4.88349">
        <ele>128.60000610352</ele>
        <time>2024-05-21T12:38:59.000Z</time>
      </trkpt>
      <trkpt lat="44.80886" lon="4.88348">
        <ele>128.60000610352</ele>
        <time>2024-05-21T12:39:00.000Z</time>
      </trkpt>
      <trkpt lat="44.80888" lon="4.88347">
        <ele>128.60000610352</ele>
        <time>2024-05-21T12:39:01.000Z</time>
      </trkpt>
      <trkpt lat="44.80891" lon="4.88347">
        <ele>128.60000610352</ele>
        <time>2024-05-21T12:39:02.000Z</time>
      </trkpt>
      <trkpt lat="44.80892" lon="4.88347">
        <ele>128.60000610352</ele>
        <time>2024-05-21T12:39:03.000Z</time>
      </trkpt>
      <trkpt lat="44.80893" lon="4.88347">
        <ele>128.60000610352</ele>
        <time>2024-05-21T12:39:04.000Z</time>
      </trkpt>
      <trkpt lat="44.80893" lon="4.88347">
        <ele>128.39999389648</ele>
        <time>2024-05-21T12:39:05.000Z</time>
      </trkpt>
      <trkpt lat="44.80893" lon="4.88347">
        <ele>128.19999694824</ele>
        <time>2024-05-21T12:39:06.000Z</time>
      </trkpt>
      <trkpt lat="44.80873" lon="4.88346">
        <ele>128</ele>
        <time>2024-05-21T12:41:44.000Z</time>
      </trkpt>
      <trkpt lat="44.80872" lon="4.88344">
        <ele>128.19999694824</ele>
        <time>2024-05-21T12:41:45.000Z</time>
      </trkpt>
      <trkpt lat="44.8087" lon="4.88342">
        <ele>128.19999694824</ele>
        <time>2024-05-21T12:41:46.000Z</time>
      </trkpt>
      <trkpt lat="44.80868" lon="4.8834">
        <ele>128</ele>
        <time>2024-05-21T12:41:47.000Z</time>
      </trkpt>
      <trkpt lat="44.80866" lon="4.88336">
        <ele>128</ele>
        <time>2024-05-21T12:41:48.000Z</time>
      </trkpt>
      <trkpt lat="44.80862" lon="4.88333">
        <ele>127.80000305176</ele>
        <time>2024-05-21T12:41:49.000Z</time>
      </trkpt>
      <trkpt lat="44.80859" lon="4.88329">
        <ele>127.80000305176</ele>
        <time>2024-05-21T12:41:50.000Z</time>
      </trkpt>
      <trkpt lat="44.80857" lon="4.88327">
        <ele>127.59999847412</ele>
        <time>2024-05-21T12:41:51.000Z</time>
      </trkpt>
      <trkpt lat="44.80854" lon="4.88322">
        <ele>127.59999847412</ele>
        <time>2024-05-21T12:41:52.000Z</time>
      </trkpt>
      <trkpt lat="44.80851" lon="4.88318">
        <ele>127.59999847412</ele>
        <time>2024-05-21T12:41:53.000Z</time>
      </trkpt>
      <trkpt lat="44.80849" lon="4.88315">
        <ele>127.59999847412</ele>
        <time>2024-05-21T12:41:54.000Z</time>
      </trkpt>
      <trkpt lat="44.80845" lon="4.88311">
        <ele>127.59999847412</ele>
        <time>2024-05-21T12:41:55.000Z</time>
      </trkpt>
      <trkpt lat="44.80842" lon="4.88307">
        <ele>127.80000305176</ele>
        <time>2024-05-21T12:41:56.000Z</time>
      </trkpt>
      <trkpt lat="44.8084" lon="4.88304">
        <ele>127.80000305176</ele>
        <time>2024-05-21T12:41:57.000Z</time>
      </trkpt>
      <trkpt lat="44.80836" lon="4.88299">
        <ele>127.80000305176</ele>
        <time>2024-05-21T12:41:58.000Z</time>
      </trkpt>
      <trkpt lat="44.80833" lon="4.88295">
        <ele>127.80000305176</ele>
        <time>2024-05-21T12:41:59.000Z</time>
      </trkpt>
      <trkpt lat="44.80831" lon="4.88292">
        <ele>127.80000305176</ele>
        <time>2024-05-21T12:42:00.000Z</time>
      </trkpt>
      <trkpt lat="44.80827" lon="4.88287">
        <ele>127.80000305176</ele>
        <time>2024-05-21T12:42:01.000Z</time>
      </trkpt>
      <trkpt lat="44.80824" lon="4.88283">
        <ele>127.80000305176</ele>
        <time>2024-05-21T12:42:02.000Z</time>
      </trkpt>
      <trkpt lat="44.80821" lon="4.8828">
        <ele>127.80000305176</ele>
        <time>2024-05-21T12:42:03.000Z</time>
      </trkpt>
      <trkpt lat="44.80818" lon="4.88276">
        <ele>127.80000305176</ele>
        <time>2024-05-21T12:42:04.000Z</time>
      </trkpt>
      <trkpt lat="44.80815" lon="4.88273">
        <ele>127.80000305176</ele>
        <time>2024-05-21T12:42:05.000Z</time>
      </trkpt>
      <trkpt lat="44.80812" lon="4.88269">
        <ele>127.80000305176</ele>
        <time>2024-05-21T12:42:06.000Z</time>
      </trkpt>
      <trkpt lat="44.80809" lon="4.88264">
        <ele>128</ele>
        <time>2024-05-21T12:42:07.000Z</time>
      </trkpt>
      <trkpt lat="44.80806" lon="4.88261">
        <ele>128</ele>
        <time>2024-05-21T12:42:08.000Z</time>
      </trkpt>
      <trkpt lat="44.80804" lon="4.88258">
        <ele>128</ele>
        <time>2024-05-21T12:42:09.000Z</time>
      </trkpt>
      <trkpt lat="44.808" lon="4.88253">
        <ele>128</ele>
        <time>2024-05-21T12:42:10.000Z</time>
      </trkpt>
      <trkpt lat="44.80797" lon="4.8825">
        <ele>128</ele>
        <time>2024-05-21T12:42:11.000Z</time>
      </trkpt>
      <trkpt lat="44.80794" lon="4.88246">
        <ele>128</ele>
        <time>2024-05-21T12:42:12.000Z</time>
      </trkpt>
      <trkpt lat="44.8079" lon="4.88241">
        <ele>128</ele>
        <time>2024-05-21T12:42:13.000Z</time>
      </trkpt>
      <trkpt lat="44.80787" lon="4.88236">
        <ele>128</ele>
        <time>2024-05-21T12:42:14.000Z</time>
      </trkpt>
      <trkpt lat="44.80784" lon="4.88233">
        <ele>128.19999694824</ele>
        <time>2024-05-21T12:42:15.000Z</time>
      </trkpt>
      <trkpt lat="44.8078" lon="4.88228">
        <ele>128.19999694824</ele>
        <time>2024-05-21T12:42:16.000Z</time>
      </trkpt>
      <trkpt lat="44.80777" lon="4.88224">
        <ele>128.19999694824</ele>
        <time>2024-05-21T12:42:17.000Z</time>
      </trkpt>
      <trkpt lat="44.80774" lon="4.8822">
        <ele>128.19999694824</ele>
        <time>2024-05-21T12:42:18.000Z</time>
      </trkpt>
      <trkpt lat="44.8077" lon="4.88215">
        <ele>128.19999694824</ele>
        <time>2024-05-21T12:42:19.000Z</time>
      </trkpt>
      <trkpt lat="44.80766" lon="4.88211">
        <ele>128.19999694824</ele>
        <time>2024-05-21T12:42:20.000Z</time>
      </trkpt>
      <trkpt lat="44.80763" lon="4.88207">
        <ele>128.19999694824</ele>
        <time>2024-05-21T12:42:21.000Z</time>
      </trkpt>
      <trkpt lat="44.80759" lon="4.88202">
        <ele>128.39999389648</ele>
        <time>2024-05-21T12:42:22.000Z</time>
      </trkpt>
      <trkpt lat="44.80756" lon="4.88198">
        <ele>128.39999389648</ele>
        <time>2024-05-21T12:42:23.000Z</time>
      </trkpt>
      <trkpt lat="44.80753" lon="4.88194">
        <ele>128.39999389648</ele>
        <time>2024-05-21T12:42:24.000Z</time>
      </trkpt>
      <trkpt lat="44.80748" lon="4.88189">
        <ele>128.39999389648</ele>
        <time>2024-05-21T12:42:25.000Z</time>
      </trkpt>
      <trkpt lat="44.80745" lon="4.88185">
        <ele>128.39999389648</ele>
        <time>2024-05-21T12:42:26.000Z</time>
      </trkpt>
      <trkpt lat="44.80742" lon="4.8818">
        <ele>128.39999389648</ele>
        <time>2024-05-21T12:42:27.000Z</time>
      </trkpt>
      <trkpt lat="44.80737" lon="4.88175">
        <ele>128.39999389648</ele>
        <time>2024-05-21T12:42:28.000Z</time>
      </trkpt>
      <trkpt lat="44.80733" lon="4.8817">
        <ele>128.19999694824</ele>
        <time>2024-05-21T12:42:29.000Z</time>
      </trkpt>
      <trkpt lat="44.8073" lon="4.88167">
        <ele>128</ele>
        <time>2024-05-21T12:42:30.000Z</time>
      </trkpt>
      <trkpt lat="44.80726" lon="4.88162">
        <ele>128</ele>
        <time>2024-05-21T12:42:31.000Z</time>
      </trkpt>
      <trkpt lat="44.80721" lon="4.88157">
        <ele>128</ele>
        <time>2024-05-21T12:42:32.000Z</time>
      </trkpt>
      <trkpt lat="44.80718" lon="4.88154">
        <ele>127.80000305176</ele>
        <time>2024-05-21T12:42:33.000Z</time>
      </trkpt>
      <trkpt lat="44.80713" lon="4.88149">
        <ele>127.80000305176</ele>
        <time>2024-05-21T12:42:34.000Z</time>
      </trkpt>
      <trkpt lat="44.8071" lon="4.88145">
        <ele>127.80000305176</ele>
        <time>2024-05-21T12:42:35.000Z</time>
      </trkpt>
      <trkpt lat="44.80706" lon="4.88141">
        <ele>127.80000305176</ele>
        <time>2024-05-21T12:42:36.000Z</time>
      </trkpt>
      <trkpt lat="44.80701" lon="4.88136">
        <ele>127.80000305176</ele>
        <time>2024-05-21T12:42:37.000Z</time>
      </trkpt>
      <trkpt lat="44.80697" lon="4.88131">
        <ele>127.80000305176</ele>
        <time>2024-05-21T12:42:38.000Z</time>
      </trkpt>
      <trkpt lat="44.80693" lon="4.88127">
        <ele>127.59999847412</ele>
        <time>2024-05-21T12:42:39.000Z</time>
      </trkpt>
      <trkpt lat="44.80688" lon="4.88122">
        <ele>127.59999847412</ele>
        <time>2024-05-21T12:42:40.000Z</time>
      </trkpt>
      <trkpt lat="44.80684" lon="4.88118">
        <ele>127.59999847412</ele>
        <time>2024-05-21T12:42:41.000Z</time>
      </trkpt>
      <trkpt lat="44.8068" lon="4.88114">
        <ele>127.59999847412</ele>
        <time>2024-05-21T12:42:42.000Z</time>
      </trkpt>
      <trkpt lat="44.80675" lon="4.88109">
        <ele>127.59999847412</ele>
        <time>2024-05-21T12:42:43.000Z</time>
      </trkpt>
      <trkpt lat="44.8067" lon="4.88104">
        <ele>127.59999847412</ele>
        <time>2024-05-21T12:42:44.000Z</time>
      </trkpt>
      <trkpt lat="44.80667" lon="4.881">
        <ele>127.59999847412</ele>
        <time>2024-05-21T12:42:45.000Z</time>
      </trkpt>
      <trkpt lat="44.80661" lon="4.88094">
        <ele>127.59999847412</ele>
        <time>2024-05-21T12:42:46.000Z</time>
      </trkpt>
      <trkpt lat="44.80658" lon="4.8809">
        <ele>127.59999847412</ele>
        <time>2024-05-21T12:42:47.000Z</time>
      </trkpt>
      <trkpt lat="44.80653" lon="4.88086">
        <ele>127.40000152588</ele>
        <time>2024-05-21T12:42:48.000Z</time>
      </trkpt>
      <trkpt lat="44.80648" lon="4.8808">
        <ele>127.40000152588</ele>
        <time>2024-05-21T12:42:49.000Z</time>
      </trkpt>
      <trkpt lat="44.80643" lon="4.88075">
        <ele>127.40000152588</ele>
        <time>2024-05-21T12:42:50.000Z</time>
      </trkpt>
      <trkpt lat="44.8064" lon="4.88072">
        <ele>127.19999694824</ele>
        <time>2024-05-21T12:42:51.000Z</time>
      </trkpt>
      <trkpt lat="44.80634" lon="4.88066">
        <ele>127.19999694824</ele>
        <time>2024-05-21T12:42:52.000Z</time>
      </trkpt>
      <trkpt lat="44.80631" lon="4.88062">
        <ele>127.19999694824</ele>
        <time>2024-05-21T12:42:53.000Z</time>
      </trkpt>
      <trkpt lat="44.80626" lon="4.88057">
        <ele>127.19999694824</ele>
        <time>2024-05-21T12:42:54.000Z</time>
      </trkpt>
      <trkpt lat="44.80621" lon="4.88052">
        <ele>127.19999694824</ele>
        <time>2024-05-21T12:42:55.000Z</time>
      </trkpt>
      <trkpt lat="44.80617" lon="4.88047">
        <ele>127.19999694824</ele>
        <time>2024-05-21T12:42:56.000Z</time>
      </trkpt>
      <trkpt lat="44.80613" lon="4.88043">
        <ele>127.19999694824</ele>
        <time>2024-05-21T12:42:57.000Z</time>
      </trkpt>
      <trkpt lat="44.80607" lon="4.88037">
        <ele>127.19999694824</ele>
        <time>2024-05-21T12:42:58.000Z</time>
      </trkpt>
      <trkpt lat="44.80602" lon="4.88032">
        <ele>127.19999694824</ele>
        <time>2024-05-21T12:42:59.000Z</time>
      </trkpt>
      <trkpt lat="44.80599" lon="4.88028">
        <ele>127</ele>
        <time>2024-05-21T12:43:00.000Z</time>
      </trkpt>
      <trkpt lat="44.80593" lon="4.88022">
        <ele>127</ele>
        <time>2024-05-21T12:43:01.000Z</time>
      </trkpt>
      <trkpt lat="44.80589" lon="4.88017">
        <ele>127</ele>
        <time>2024-05-21T12:43:02.000Z</time>
      </trkpt>
      <trkpt lat="44.80585" lon="4.88013">
        <ele>126.80000305176</ele>
        <time>2024-05-21T12:43:03.000Z</time>
      </trkpt>
      <trkpt lat="44.8058" lon="4.88007">
        <ele>126.80000305176</ele>
        <time>2024-05-21T12:43:04.000Z</time>
      </trkpt>
      <trkpt lat="44.80575" lon="4.88002">
        <ele>126.80000305176</ele>
        <time>2024-05-21T12:43:05.000Z</time>
      </trkpt>
      <trkpt lat="44.80571" lon="4.87998">
        <ele>126.80000305176</ele>
        <time>2024-05-21T12:43:06.000Z</time>
      </trkpt>
      <trkpt lat="44.80566" lon="4.87992">
        <ele>126.59999847412</ele>
        <time>2024-05-21T12:43:07.000Z</time>
      </trkpt>
      <trkpt lat="44.80562" lon="4.87988">
        <ele>126.59999847412</ele>
        <time>2024-05-21T12:43:08.000Z</time>
      </trkpt>
      <trkpt lat="44.80557" lon="4.87983">
        <ele>126.59999847412</ele>
        <time>2024-05-21T12:43:09.000Z</time>
      </trkpt>
      <trkpt lat="44.80553" lon="4.87977">
        <ele>126.40000152588</ele>
        <time>2024-05-21T12:43:10.000Z</time>
      </trkpt>
      <trkpt lat="44.80548" lon="4.87972">
        <ele>126.40000152588</ele>
        <time>2024-05-21T12:43:11.000Z</time>
      </trkpt>
      <trkpt lat="44.80544" lon="4.87967">
        <ele>126.40000152588</ele>
        <time>2024-05-21T12:43:12.000Z</time>
      </trkpt>
      <trkpt lat="44.80539" lon="4.87962">
        <ele>126.40000152588</ele>
        <time>2024-05-21T12:43:13.000Z</time>
      </trkpt>
      <trkpt lat="44.80533" lon="4.87956">
        <ele>126.40000152588</ele>
        <time>2024-05-21T12:43:14.000Z</time>
      </trkpt>
      <trkpt lat="44.80529" lon="4.87952">
        <ele>126.19999694824</ele>
        <time>2024-05-21T12:43:15.000Z</time>
      </trkpt>
      <trkpt lat="44.80523" lon="4.87946">
        <ele>126.19999694824</ele>
        <time>2024-05-21T12:43:16.000Z</time>
      </trkpt>
      <trkpt lat="44.80518" lon="4.87941">
        <ele>126.19999694824</ele>
        <time>2024-05-21T12:43:17.000Z</time>
      </trkpt>
      <trkpt lat="44.80514" lon="4.87937">
        <ele>126.19999694824</ele>
        <time>2024-05-21T12:43:18.000Z</time>
      </trkpt>
      <trkpt lat="44.80508" lon="4.87931">
        <ele>126.19999694824</ele>
        <time>2024-05-21T12:43:19.000Z</time>
      </trkpt>
      <trkpt lat="44.80503" lon="4.87926">
        <ele>126</ele>
        <time>2024-05-21T12:43:20.000Z</time>
      </trkpt>
      <trkpt lat="44.805" lon="4.87922">
        <ele>126</ele>
        <time>2024-05-21T12:43:21.000Z</time>
      </trkpt>
      <trkpt lat="44.80494" lon="4.87916">
        <ele>126</ele>
        <time>2024-05-21T12:43:22.000Z</time>
      </trkpt>
      <trkpt lat="44.80489" lon="4.87911">
        <ele>125.80000305176</ele>
        <time>2024-05-21T12:43:23.000Z</time>
      </trkpt>
      <trkpt lat="44.80485" lon="4.87906">
        <ele>125.80000305176</ele>
        <time>2024-05-21T12:43:24.000Z</time>
      </trkpt>
      <trkpt lat="44.80479" lon="4.879">
        <ele>125.80000305176</ele>
        <time>2024-05-21T12:43:25.000Z</time>
      </trkpt>
      <trkpt lat="44.80474" lon="4.87896">
        <ele>125.80000305176</ele>
        <time>2024-05-21T12:43:26.000Z</time>
      </trkpt>
      <trkpt lat="44.8047" lon="4.87891">
        <ele>125.80000305176</ele>
        <time>2024-05-21T12:43:27.000Z</time>
      </trkpt>
      <trkpt lat="44.80465" lon="4.87887">
        <ele>125.80000305176</ele>
        <time>2024-05-21T12:43:28.000Z</time>
      </trkpt>
      <trkpt lat="44.80458" lon="4.87881">
        <ele>125.80000305176</ele>
        <time>2024-05-21T12:43:29.000Z</time>
      </trkpt>
      <trkpt lat="44.80454" lon="4.87877">
        <ele>125.80000305176</ele>
        <time>2024-05-21T12:43:30.000Z</time>
      </trkpt>
      <trkpt lat="44.80448" lon="4.87873">
        <ele>125.80000305176</ele>
        <time>2024-05-21T12:43:31.000Z</time>
      </trkpt>
      <trkpt lat="44.80442" lon="4.87867">
        <ele>125.80000305176</ele>
        <time>2024-05-21T12:43:32.000Z</time>
      </trkpt>
      <trkpt lat="44.80437" lon="4.87862">
        <ele>125.80000305176</ele>
        <time>2024-05-21T12:43:33.000Z</time>
      </trkpt>
      <trkpt lat="44.80432" lon="4.87857">
        <ele>125.80000305176</ele>
        <time>2024-05-21T12:43:34.000Z</time>
      </trkpt>
      <trkpt lat="44.80428" lon="4.87853">
        <ele>125.80000305176</ele>
        <time>2024-05-21T12:43:35.000Z</time>
      </trkpt>
      <trkpt lat="44.80421" lon="4.87848">
        <ele>125.80000305176</ele>
        <time>2024-05-21T12:43:36.000Z</time>
      </trkpt>
      <trkpt lat="44.80415" lon="4.87844">
        <ele>125.80000305176</ele>
        <time>2024-05-21T12:43:37.000Z</time>
      </trkpt>
      <trkpt lat="44.80411" lon="4.8784">
        <ele>125.80000305176</ele>
        <time>2024-05-21T12:43:38.000Z</time>
      </trkpt>
      <trkpt lat="44.80404" lon="4.87836">
        <ele>125.59999847412</ele>
        <time>2024-05-21T12:43:39.000Z</time>
      </trkpt>
      <trkpt lat="44.80399" lon="4.87832">
        <ele>125.59999847412</ele>
        <time>2024-05-21T12:43:40.000Z</time>
      </trkpt>
      <trkpt lat="44.80394" lon="4.87829">
        <ele>125.59999847412</ele>
        <time>2024-05-21T12:43:41.000Z</time>
      </trkpt>
      <trkpt lat="44.80387" lon="4.87825">
        <ele>125.59999847412</ele>
        <time>2024-05-21T12:43:42.000Z</time>
      </trkpt>
      <trkpt lat="44.80382" lon="4.87822">
        <ele>125.59999847412</ele>
        <time>2024-05-21T12:43:43.000Z</time>
      </trkpt>
      <trkpt lat="44.80377" lon="4.87819">
        <ele>125.59999847412</ele>
        <time>2024-05-21T12:43:44.000Z</time>
      </trkpt>
      <trkpt lat="44.8037" lon="4.87815">
        <ele>125.59999847412</ele>
        <time>2024-05-21T12:43:45.000Z</time>
      </trkpt>
      <trkpt lat="44.80365" lon="4.87812">
        <ele>125.59999847412</ele>
        <time>2024-05-21T12:43:46.000Z</time>
      </trkpt>
      <trkpt lat="44.80361" lon="4.87809">
        <ele>125.59999847412</ele>
        <time>2024-05-21T12:43:47.000Z</time>
      </trkpt>
      <trkpt lat="44.80354" lon="4.87805">
        <ele>125.59999847412</ele>
        <time>2024-05-21T12:43:48.000Z</time>
      </trkpt>
      <trkpt lat="44.80349" lon="4.87802">
        <ele>125.59999847412</ele>
        <time>2024-05-21T12:43:49.000Z</time>
      </trkpt>
      <trkpt lat="44.80344" lon="4.87799">
        <ele>125.40000152588</ele>
        <time>2024-05-21T12:43:50.000Z</time>
      </trkpt>
      <trkpt lat="44.80339" lon="4.87795">
        <ele>125.40000152588</ele>
        <time>2024-05-21T12:43:51.000Z</time>
      </trkpt>
      <trkpt lat="44.80333" lon="4.87791">
        <ele>125.40000152588</ele>
        <time>2024-05-21T12:43:52.000Z</time>
      </trkpt>
      <trkpt lat="44.80328" lon="4.87788">
        <ele>125.40000152588</ele>
        <time>2024-05-21T12:43:53.000Z</time>
      </trkpt>
      <trkpt lat="44.80322" lon="4.87783">
        <ele>125.40000152588</ele>
        <time>2024-05-21T12:43:54.000Z</time>
      </trkpt>
      <trkpt lat="44.80317" lon="4.87779">
        <ele>125.40000152588</ele>
        <time>2024-05-21T12:43:55.000Z</time>
      </trkpt>
      <trkpt lat="44.80313" lon="4.87776">
        <ele>125.40000152588</ele>
        <time>2024-05-21T12:43:56.000Z</time>
      </trkpt>
      <trkpt lat="44.80307" lon="4.8777">
        <ele>125.40000152588</ele>
        <time>2024-05-21T12:43:57.000Z</time>
      </trkpt>
      <trkpt lat="44.80302" lon="4.87766">
        <ele>125.40000152588</ele>
        <time>2024-05-21T12:43:58.000Z</time>
      </trkpt>
      <trkpt lat="44.80299" lon="4.87761">
        <ele>125.40000152588</ele>
        <time>2024-05-21T12:43:59.000Z</time>
      </trkpt>
      <trkpt lat="44.80294" lon="4.87755">
        <ele>125.40000152588</ele>
        <time>2024-05-21T12:44:00.000Z</time>
      </trkpt>
      <trkpt lat="44.80291" lon="4.8775">
        <ele>125.40000152588</ele>
        <time>2024-05-21T12:44:01.000Z</time>
      </trkpt>
      <trkpt lat="44.80288" lon="4.87744">
        <ele>125.40000152588</ele>
        <time>2024-05-21T12:44:02.000Z</time>
      </trkpt>
      <trkpt lat="44.80283" lon="4.87737">
        <ele>125.40000152588</ele>
        <time>2024-05-21T12:44:03.000Z</time>
      </trkpt>
      <trkpt lat="44.80279" lon="4.8773">
        <ele>125.40000152588</ele>
        <time>2024-05-21T12:44:04.000Z</time>
      </trkpt>
      <trkpt lat="44.80276" lon="4.87725">
        <ele>125.19999694824</ele>
        <time>2024-05-21T12:44:05.000Z</time>
      </trkpt>
      <trkpt lat="44.80271" lon="4.87718">
        <ele>125.19999694824</ele>
        <time>2024-05-21T12:44:06.000Z</time>
      </trkpt>
      <trkpt lat="44.80267" lon="4.87711">
        <ele>125.19999694824</ele>
        <time>2024-05-21T12:44:07.000Z</time>
      </trkpt>
      <trkpt lat="44.80264" lon="4.87706">
        <ele>125.19999694824</ele>
        <time>2024-05-21T12:44:08.000Z</time>
      </trkpt>
      <trkpt lat="44.80259" lon="4.87699">
        <ele>125.19999694824</ele>
        <time>2024-05-21T12:44:09.000Z</time>
      </trkpt>
      <trkpt lat="44.80255" lon="4.87692">
        <ele>125.19999694824</ele>
        <time>2024-05-21T12:44:10.000Z</time>
      </trkpt>
      <trkpt lat="44.80252" lon="4.87687">
        <ele>125.40000152588</ele>
        <time>2024-05-21T12:44:11.000Z</time>
      </trkpt>
      <trkpt lat="44.80248" lon="4.87679">
        <ele>125.19999694824</ele>
        <time>2024-05-21T12:44:12.000Z</time>
      </trkpt>
      <trkpt lat="44.80245" lon="4.87674">
        <ele>125.40000152588</ele>
        <time>2024-05-21T12:44:13.000Z</time>
      </trkpt>
      <trkpt lat="44.80241" lon="4.87668">
        <ele>125.40000152588</ele>
        <time>2024-05-21T12:44:14.000Z</time>
      </trkpt>
      <trkpt lat="44.80237" lon="4.87661">
        <ele>125.40000152588</ele>
        <time>2024-05-21T12:44:15.000Z</time>
      </trkpt>
      <trkpt lat="44.80233" lon="4.87654">
        <ele>125.40000152588</ele>
        <time>2024-05-21T12:44:16.000Z</time>
      </trkpt>
      <trkpt lat="44.8023" lon="4.87649">
        <ele>125.40000152588</ele>
        <time>2024-05-21T12:44:17.000Z</time>
      </trkpt>
      <trkpt lat="44.80225" lon="4.87642">
        <ele>125.40000152588</ele>
        <time>2024-05-21T12:44:18.000Z</time>
      </trkpt>
      <trkpt lat="44.80221" lon="4.87636">
        <ele>125.40000152588</ele>
        <time>2024-05-21T12:44:19.000Z</time>
      </trkpt>
      <trkpt lat="44.80217" lon="4.87631">
        <ele>125.59999847412</ele>
        <time>2024-05-21T12:44:20.000Z</time>
      </trkpt>
      <trkpt lat="44.80212" lon="4.87625">
        <ele>125.59999847412</ele>
        <time>2024-05-21T12:44:21.000Z</time>
      </trkpt>
      <trkpt lat="44.80208" lon="4.87619">
        <ele>125.59999847412</ele>
        <time>2024-05-21T12:44:22.000Z</time>
      </trkpt>
      <trkpt lat="44.80204" lon="4.87615">
        <ele>125.59999847412</ele>
        <time>2024-05-21T12:44:23.000Z</time>
      </trkpt>
      <trkpt lat="44.80198" lon="4.87609">
        <ele>125.59999847412</ele>
        <time>2024-05-21T12:44:24.000Z</time>
      </trkpt>
      <trkpt lat="44.80194" lon="4.87603">
        <ele>125.59999847412</ele>
        <time>2024-05-21T12:44:25.000Z</time>
      </trkpt>
      <trkpt lat="44.8019" lon="4.87599">
        <ele>125.59999847412</ele>
        <time>2024-05-21T12:44:26.000Z</time>
      </trkpt>
      <trkpt lat="44.80185" lon="4.87592">
        <ele>125.59999847412</ele>
        <time>2024-05-21T12:44:27.000Z</time>
      </trkpt>
      <trkpt lat="44.80181" lon="4.87588">
        <ele>125.59999847412</ele>
        <time>2024-05-21T12:44:28.000Z</time>
      </trkpt>
      <trkpt lat="44.80176" lon="4.87583">
        <ele>125.40000152588</ele>
        <time>2024-05-21T12:44:29.000Z</time>
      </trkpt>
      <trkpt lat="44.80171" lon="4.87576">
        <ele>125.40000152588</ele>
        <time>2024-05-21T12:44:30.000Z</time>
      </trkpt>
      <trkpt lat="44.80166" lon="4.8757">
        <ele>125.40000152588</ele>
        <time>2024-05-21T12:44:31.000Z</time>
      </trkpt>
      <trkpt lat="44.80163" lon="4.87566">
        <ele>125.19999694824</ele>
        <time>2024-05-21T12:44:32.000Z</time>
      </trkpt>
      <trkpt lat="44.80157" lon="4.87559">
        <ele>125.19999694824</ele>
        <time>2024-05-21T12:44:33.000Z</time>
      </trkpt>
      <trkpt lat="44.80153" lon="4.87554">
        <ele>125</ele>
        <time>2024-05-21T12:44:34.000Z</time>
      </trkpt>
      <trkpt lat="44.80149" lon="4.87548">
        <ele>125</ele>
        <time>2024-05-21T12:44:35.000Z</time>
      </trkpt>
      <trkpt lat="44.80145" lon="4.87541">
        <ele>124.80000305176</ele>
        <time>2024-05-21T12:44:36.000Z</time>
      </trkpt>
      <trkpt lat="44.80141" lon="4.87534">
        <ele>124.80000305176</ele>
        <time>2024-05-21T12:44:37.000Z</time>
      </trkpt>
      <trkpt lat="44.80137" lon="4.87528">
        <ele>124.59999847412</ele>
        <time>2024-05-21T12:44:38.000Z</time>
      </trkpt>
      <trkpt lat="44.80133" lon="4.8752">
        <ele>124.59999847412</ele>
        <time>2024-05-21T12:44:39.000Z</time>
      </trkpt>
      <trkpt lat="44.8013" lon="4.87513">
        <ele>124.40000152588</ele>
        <time>2024-05-21T12:44:40.000Z</time>
      </trkpt>
      <trkpt lat="44.80127" lon="4.87507">
        <ele>124.40000152588</ele>
        <time>2024-05-21T12:44:41.000Z</time>
      </trkpt>
      <trkpt lat="44.80123" lon="4.87498">
        <ele>124.40000152588</ele>
        <time>2024-05-21T12:44:42.000Z</time>
      </trkpt>
      <trkpt lat="44.8012" lon="4.87492">
        <ele>124.40000152588</ele>
        <time>2024-05-21T12:44:43.000Z</time>
      </trkpt>
      <trkpt lat="44.80116" lon="4.87485">
        <ele>124.40000152588</ele>
        <time>2024-05-21T12:44:44.000Z</time>
      </trkpt>
      <trkpt lat="44.80112" lon="4.87476">
        <ele>124.40000152588</ele>
        <time>2024-05-21T12:44:45.000Z</time>
      </trkpt>
      <trkpt lat="44.80109" lon="4.87469">
        <ele>124.40000152588</ele>
        <time>2024-05-21T12:44:46.000Z</time>
      </trkpt>
      <trkpt lat="44.80106" lon="4.87463">
        <ele>124.40000152588</ele>
        <time>2024-05-21T12:44:47.000Z</time>
      </trkpt>
      <trkpt lat="44.80102" lon="4.87455">
        <ele>124.40000152588</ele>
        <time>2024-05-21T12:44:48.000Z</time>
      </trkpt>
      <trkpt lat="44.80099" lon="4.87447">
        <ele>124.40000152588</ele>
        <time>2024-05-21T12:44:49.000Z</time>
      </trkpt>
      <trkpt lat="44.80095" lon="4.87442">
        <ele>124.40000152588</ele>
        <time>2024-05-21T12:44:50.000Z</time>
      </trkpt>
      <trkpt lat="44.8009" lon="4.87434">
        <ele>124.40000152588</ele>
        <time>2024-05-21T12:44:51.000Z</time>
      </trkpt>
      <trkpt lat="44.80086" lon="4.87427">
        <ele>124.40000152588</ele>
        <time>2024-05-21T12:44:52.000Z</time>
      </trkpt>
      <trkpt lat="44.80082" lon="4.87422">
        <ele>124.40000152588</ele>
        <time>2024-05-21T12:44:53.000Z</time>
      </trkpt>
      <trkpt lat="44.80076" lon="4.87414">
        <ele>124.19999694824</ele>
        <time>2024-05-21T12:44:54.000Z</time>
      </trkpt>
      <trkpt lat="44.80073" lon="4.87409">
        <ele>124.19999694824</ele>
        <time>2024-05-21T12:44:55.000Z</time>
      </trkpt>
      <trkpt lat="44.80068" lon="4.87403">
        <ele>124</ele>
        <time>2024-05-21T12:44:56.000Z</time>
      </trkpt>
      <trkpt lat="44.80062" lon="4.87396">
        <ele>124</ele>
        <time>2024-05-21T12:44:57.000Z</time>
      </trkpt>
      <trkpt lat="44.80057" lon="4.87389">
        <ele>124</ele>
        <time>2024-05-21T12:44:58.000Z</time>
      </trkpt>
      <trkpt lat="44.80054" lon="4.87384">
        <ele>123.80000305176</ele>
        <time>2024-05-21T12:44:59.000Z</time>
      </trkpt>
      <trkpt lat="44.80048" lon="4.87377">
        <ele>123.80000305176</ele>
        <time>2024-05-21T12:45:00.000Z</time>
      </trkpt>
      <trkpt lat="44.80044" lon="4.87372">
        <ele>123.80000305176</ele>
        <time>2024-05-21T12:45:01.000Z</time>
      </trkpt>
      <trkpt lat="44.8004" lon="4.87366">
        <ele>123.80000305176</ele>
        <time>2024-05-21T12:45:02.000Z</time>
      </trkpt>
      <trkpt lat="44.80034" lon="4.87359">
        <ele>123.80000305176</ele>
        <time>2024-05-21T12:45:03.000Z</time>
      </trkpt>
      <trkpt lat="44.8003" lon="4.87353">
        <ele>123.80000305176</ele>
        <time>2024-05-21T12:45:04.000Z</time>
      </trkpt>
      <trkpt lat="44.80026" lon="4.87348">
        <ele>123.80000305176</ele>
        <time>2024-05-21T12:45:05.000Z</time>
      </trkpt>
      <trkpt lat="44.80021" lon="4.87341">
        <ele>123.80000305176</ele>
        <time>2024-05-21T12:45:06.000Z</time>
      </trkpt>
      <trkpt lat="44.80018" lon="4.87337">
        <ele>123.80000305176</ele>
        <time>2024-05-21T12:45:07.000Z</time>
      </trkpt>
      <trkpt lat="44.80013" lon="4.87331">
        <ele>123.80000305176</ele>
        <time>2024-05-21T12:45:08.000Z</time>
      </trkpt>
      <trkpt lat="44.80008" lon="4.87324">
        <ele>123.80000305176</ele>
        <time>2024-05-21T12:45:09.000Z</time>
      </trkpt>
      <trkpt lat="44.80004" lon="4.87318">
        <ele>123.80000305176</ele>
        <time>2024-05-21T12:45:10.000Z</time>
      </trkpt>
      <trkpt lat="44.8" lon="4.87313">
        <ele>124</ele>
        <time>2024-05-21T12:45:11.000Z</time>
      </trkpt>
      <trkpt lat="44.79996" lon="4.87306">
        <ele>124</ele>
        <time>2024-05-21T12:45:12.000Z</time>
      </trkpt>
      <trkpt lat="44.79992" lon="4.87301">
        <ele>124</ele>
        <time>2024-05-21T12:45:13.000Z</time>
      </trkpt>
      <trkpt lat="44.79988" lon="4.87296">
        <ele>124</ele>
        <time>2024-05-21T12:45:14.000Z</time>
      </trkpt>
      <trkpt lat="44.79984" lon="4.8729">
        <ele>124</ele>
        <time>2024-05-21T12:45:15.000Z</time>
      </trkpt>
      <trkpt lat="44.7998" lon="4.87285">
        <ele>124.19999694824</ele>
        <time>2024-05-21T12:45:16.000Z</time>
      </trkpt>
      <trkpt lat="44.79977" lon="4.87281">
        <ele>124.40000152588</ele>
        <time>2024-05-21T12:45:17.000Z</time>
      </trkpt>
      <trkpt lat="44.79973" lon="4.87275">
        <ele>124.40000152588</ele>
        <time>2024-05-21T12:45:18.000Z</time>
      </trkpt>
      <trkpt lat="44.79969" lon="4.8727">
        <ele>124.59999847412</ele>
        <time>2024-05-21T12:45:19.000Z</time>
      </trkpt>
      <trkpt lat="44.79965" lon="4.87265">
        <ele>124.59999847412</ele>
        <time>2024-05-21T12:45:20.000Z</time>
      </trkpt>
      <trkpt lat="44.79961" lon="4.8726">
        <ele>124.59999847412</ele>
        <time>2024-05-21T12:45:21.000Z</time>
      </trkpt>
      <trkpt lat="44.79956" lon="4.87254">
        <ele>124.59999847412</ele>
        <time>2024-05-21T12:45:22.000Z</time>
      </trkpt>
      <trkpt lat="44.79953" lon="4.87249">
        <ele>124.59999847412</ele>
        <time>2024-05-21T12:45:23.000Z</time>
      </trkpt>
      <trkpt lat="44.79948" lon="4.87243">
        <ele>124.59999847412</ele>
        <time>2024-05-21T12:45:24.000Z</time>
      </trkpt>
      <trkpt lat="44.79945" lon="4.87238">
        <ele>124.59999847412</ele>
        <time>2024-05-21T12:45:25.000Z</time>
      </trkpt>
      <trkpt lat="44.79941" lon="4.87234">
        <ele>124.59999847412</ele>
        <time>2024-05-21T12:45:26.000Z</time>
      </trkpt>
      <trkpt lat="44.79937" lon="4.87228">
        <ele>124.40000152588</ele>
        <time>2024-05-21T12:45:27.000Z</time>
      </trkpt>
      <trkpt lat="44.79932" lon="4.8722">
        <ele>124.40000152588</ele>
        <time>2024-05-21T12:45:28.000Z</time>
      </trkpt>
      <trkpt lat="44.79929" lon="4.87215">
        <ele>124.19999694824</ele>
        <time>2024-05-21T12:45:29.000Z</time>
      </trkpt>
      <trkpt lat="44.79925" lon="4.87209">
        <ele>124.19999694824</ele>
        <time>2024-05-21T12:45:30.000Z</time>
      </trkpt>
      <trkpt lat="44.7992" lon="4.87201">
        <ele>124.19999694824</ele>
        <time>2024-05-21T12:45:31.000Z</time>
      </trkpt>
      <trkpt lat="44.79916" lon="4.87194">
        <ele>124.19999694824</ele>
        <time>2024-05-21T12:45:32.000Z</time>
      </trkpt>
      <trkpt lat="44.79913" lon="4.87189">
        <ele>124</ele>
        <time>2024-05-21T12:45:33.000Z</time>
      </trkpt>
      <trkpt lat="44.79908" lon="4.87181">
        <ele>123.80000305176</ele>
        <time>2024-05-21T12:45:34.000Z</time>
      </trkpt>
      <trkpt lat="44.79905" lon="4.87176">
        <ele>123.80000305176</ele>
        <time>2024-05-21T12:45:35.000Z</time>
      </trkpt>
      <trkpt lat="44.79901" lon="4.87168">
        <ele>123.80000305176</ele>
        <time>2024-05-21T12:45:36.000Z</time>
      </trkpt>
      <trkpt lat="44.79898" lon="4.87161">
        <ele>123.80000305176</ele>
        <time>2024-05-21T12:45:37.000Z</time>
      </trkpt>
      <trkpt lat="44.79895" lon="4.87156">
        <ele>123.59999847412</ele>
        <time>2024-05-21T12:45:38.000Z</time>
      </trkpt>
      <trkpt lat="44.79892" lon="4.87149">
        <ele>123.59999847412</ele>
        <time>2024-05-21T12:45:39.000Z</time>
      </trkpt>
      <trkpt lat="44.79888" lon="4.87141">
        <ele>123.59999847412</ele>
        <time>2024-05-21T12:45:40.000Z</time>
      </trkpt>
      <trkpt lat="44.79885" lon="4.87136">
        <ele>123.59999847412</ele>
        <time>2024-05-21T12:45:41.000Z</time>
      </trkpt>
      <trkpt lat="44.79882" lon="4.87128">
        <ele>123.59999847412</ele>
        <time>2024-05-21T12:45:42.000Z</time>
      </trkpt>
      <trkpt lat="44.79878" lon="4.87121">
        <ele>123.59999847412</ele>
        <time>2024-05-21T12:45:43.000Z</time>
      </trkpt>
      <trkpt lat="44.79876" lon="4.87116">
        <ele>123.40000152588</ele>
        <time>2024-05-21T12:45:44.000Z</time>
      </trkpt>
      <trkpt lat="44.79873" lon="4.8711">
        <ele>123.40000152588</ele>
        <time>2024-05-21T12:45:45.000Z</time>
      </trkpt>
      <trkpt lat="44.79869" lon="4.87103">
        <ele>123.40000152588</ele>
        <time>2024-05-21T12:45:46.000Z</time>
      </trkpt>
      <trkpt lat="44.79867" lon="4.87098">
        <ele>123.40000152588</ele>
        <time>2024-05-21T12:45:47.000Z</time>
      </trkpt>
      <trkpt lat="44.79863" lon="4.87091">
        <ele>123.40000152588</ele>
        <time>2024-05-21T12:45:48.000Z</time>
      </trkpt>
      <trkpt lat="44.7986" lon="4.87085">
        <ele>123.40000152588</ele>
        <time>2024-05-21T12:45:49.000Z</time>
      </trkpt>
      <trkpt lat="44.79858" lon="4.87081">
        <ele>123.40000152588</ele>
        <time>2024-05-21T12:45:50.000Z</time>
      </trkpt>
      <trkpt lat="44.79855" lon="4.87074">
        <ele>123.40000152588</ele>
        <time>2024-05-21T12:45:51.000Z</time>
      </trkpt>
      <trkpt lat="44.79853" lon="4.87068">
        <ele>123.40000152588</ele>
        <time>2024-05-21T12:45:52.000Z</time>
      </trkpt>
      <trkpt lat="44.79851" lon="4.87064">
        <ele>123.40000152588</ele>
        <time>2024-05-21T12:45:53.000Z</time>
      </trkpt>
      <trkpt lat="44.79848" lon="4.87058">
        <ele>123.40000152588</ele>
        <time>2024-05-21T12:45:54.000Z</time>
      </trkpt>
      <trkpt lat="44.79845" lon="4.87053">
        <ele>123.40000152588</ele>
        <time>2024-05-21T12:45:55.000Z</time>
      </trkpt>
      <trkpt lat="44.79844" lon="4.87049">
        <ele>123.40000152588</ele>
        <time>2024-05-21T12:45:56.000Z</time>
      </trkpt>
      <trkpt lat="44.79841" lon="4.87043">
        <ele>123.19999694824</ele>
        <time>2024-05-21T12:45:57.000Z</time>
      </trkpt>
      <trkpt lat="44.7984" lon="4.87039">
        <ele>123.40000152588</ele>
        <time>2024-05-21T12:45:58.000Z</time>
      </trkpt>
      <trkpt lat="44.79839" lon="4.87037">
        <ele>123.40000152588</ele>
        <time>2024-05-21T12:45:59.000Z</time>
      </trkpt>
      <trkpt lat="44.79838" lon="4.87034">
        <ele>123.40000152588</ele>
        <time>2024-05-21T12:46:00.000Z</time>
      </trkpt>
      <trkpt lat="44.79837" lon="4.87032">
        <ele>123.40000152588</ele>
        <time>2024-05-21T12:46:01.000Z</time>
      </trkpt>
      <trkpt lat="44.79836" lon="4.87029">
        <ele>123.40000152588</ele>
        <time>2024-05-21T12:46:02.000Z</time>
      </trkpt>
      <trkpt lat="44.79834" lon="4.87026">
        <ele>123.40000152588</ele>
        <time>2024-05-21T12:46:03.000Z</time>
      </trkpt>
      <trkpt lat="44.79832" lon="4.87021">
        <ele>123.40000152588</ele>
        <time>2024-05-21T12:46:04.000Z</time>
      </trkpt>
      <trkpt lat="44.7983" lon="4.87017">
        <ele>123.40000152588</ele>
        <time>2024-05-21T12:46:05.000Z</time>
      </trkpt>
      <trkpt lat="44.79827" lon="4.87012">
        <ele>123.40000152588</ele>
        <time>2024-05-21T12:46:06.000Z</time>
      </trkpt>
      <trkpt lat="44.79824" lon="4.87006">
        <ele>123.19999694824</ele>
        <time>2024-05-21T12:46:07.000Z</time>
      </trkpt>
      <trkpt lat="44.79822" lon="4.87001">
        <ele>123.19999694824</ele>
        <time>2024-05-21T12:46:08.000Z</time>
      </trkpt>
      <trkpt lat="44.7982" lon="4.86996">
        <ele>122.80000305176</ele>
        <time>2024-05-21T12:46:09.000Z</time>
      </trkpt>
      <trkpt lat="44.79817" lon="4.86989">
        <ele>122.59999847412</ele>
        <time>2024-05-21T12:46:10.000Z</time>
      </trkpt>
      <trkpt lat="44.79815" lon="4.86984">
        <ele>122.59999847412</ele>
        <time>2024-05-21T12:46:11.000Z</time>
      </trkpt>
      <trkpt lat="44.79812" lon="4.86978">
        <ele>122.19999694824</ele>
        <time>2024-05-21T12:46:12.000Z</time>
      </trkpt>
      <trkpt lat="44.79809" lon="4.86971">
        <ele>122.19999694824</ele>
        <time>2024-05-21T12:46:13.000Z</time>
      </trkpt>
      <trkpt lat="44.79807" lon="4.86966">
        <ele>122.19999694824</ele>
        <time>2024-05-21T12:46:14.000Z</time>
      </trkpt>
      <trkpt lat="44.79803" lon="4.86958">
        <ele>122.19999694824</ele>
        <time>2024-05-21T12:46:15.000Z</time>
      </trkpt>
      <trkpt lat="44.79801" lon="4.86952">
        <ele>122.19999694824</ele>
        <time>2024-05-21T12:46:16.000Z</time>
      </trkpt>
      <trkpt lat="44.79798" lon="4.86947">
        <ele>122.19999694824</ele>
        <time>2024-05-21T12:46:17.000Z</time>
      </trkpt>
      <trkpt lat="44.79795" lon="4.86939">
        <ele>122.19999694824</ele>
        <time>2024-05-21T12:46:18.000Z</time>
      </trkpt>
      <trkpt lat="44.79792" lon="4.86933">
        <ele>122</ele>
        <time>2024-05-21T12:46:19.000Z</time>
      </trkpt>
      <trkpt lat="44.7979" lon="4.86928">
        <ele>122</ele>
        <time>2024-05-21T12:46:20.000Z</time>
      </trkpt>
      <trkpt lat="44.79787" lon="4.86921">
        <ele>122</ele>
        <time>2024-05-21T12:46:21.000Z</time>
      </trkpt>
      <trkpt lat="44.79784" lon="4.86915">
        <ele>122.19999694824</ele>
        <time>2024-05-21T12:46:22.000Z</time>
      </trkpt>
      <trkpt lat="44.79781" lon="4.86908">
        <ele>122.19999694824</ele>
        <time>2024-05-21T12:46:23.000Z</time>
      </trkpt>
      <trkpt lat="44.79778" lon="4.869">
        <ele>122.19999694824</ele>
        <time>2024-05-21T12:46:24.000Z</time>
      </trkpt>
      <trkpt lat="44.79775" lon="4.86894">
        <ele>122.19999694824</ele>
        <time>2024-05-21T12:46:25.000Z</time>
      </trkpt>
      <trkpt lat="44.79773" lon="4.86889">
        <ele>122.19999694824</ele>
        <time>2024-05-21T12:46:26.000Z</time>
      </trkpt>
      <trkpt lat="44.7977" lon="4.86881">
        <ele>122.19999694824</ele>
        <time>2024-05-21T12:46:27.000Z</time>
      </trkpt>
      <trkpt lat="44.79767" lon="4.86874">
        <ele>122.19999694824</ele>
        <time>2024-05-21T12:46:28.000Z</time>
      </trkpt>
      <trkpt lat="44.79765" lon="4.86868">
        <ele>122.19999694824</ele>
        <time>2024-05-21T12:46:29.000Z</time>
      </trkpt>
      <trkpt lat="44.79761" lon="4.8686">
        <ele>122.19999694824</ele>
        <time>2024-05-21T12:46:30.000Z</time>
      </trkpt>
      <trkpt lat="44.79759" lon="4.86855">
        <ele>122.19999694824</ele>
        <time>2024-05-21T12:46:31.000Z</time>
      </trkpt>
      <trkpt lat="44.79756" lon="4.86847">
        <ele>122.19999694824</ele>
        <time>2024-05-21T12:46:32.000Z</time>
      </trkpt>
      <trkpt lat="44.79752" lon="4.86839">
        <ele>122.19999694824</ele>
        <time>2024-05-21T12:46:33.000Z</time>
      </trkpt>
      <trkpt lat="44.79749" lon="4.86831">
        <ele>122.19999694824</ele>
        <time>2024-05-21T12:46:34.000Z</time>
      </trkpt>
      <trkpt lat="44.79747" lon="4.86826">
        <ele>122.19999694824</ele>
        <time>2024-05-21T12:46:35.000Z</time>
      </trkpt>
      <trkpt lat="44.79744" lon="4.86818">
        <ele>122.19999694824</ele>
        <time>2024-05-21T12:46:36.000Z</time>
      </trkpt>
      <trkpt lat="44.79741" lon="4.86809">
        <ele>122.19999694824</ele>
        <time>2024-05-21T12:46:37.000Z</time>
      </trkpt>
      <trkpt lat="44.79739" lon="4.86803">
        <ele>122.19999694824</ele>
        <time>2024-05-21T12:46:38.000Z</time>
      </trkpt>
      <trkpt lat="44.79735" lon="4.86795">
        <ele>122.19999694824</ele>
        <time>2024-05-21T12:46:39.000Z</time>
      </trkpt>
      <trkpt lat="44.79732" lon="4.86787">
        <ele>122.19999694824</ele>
        <time>2024-05-21T12:46:40.000Z</time>
      </trkpt>
      <trkpt lat="44.7973" lon="4.86781">
        <ele>122.19999694824</ele>
        <time>2024-05-21T12:46:41.000Z</time>
      </trkpt>
      <trkpt lat="44.79727" lon="4.86774">
        <ele>122.19999694824</ele>
        <time>2024-05-21T12:46:42.000Z</time>
      </trkpt>
      <trkpt lat="44.79723" lon="4.86767">
        <ele>122.19999694824</ele>
        <time>2024-05-21T12:46:43.000Z</time>
      </trkpt>
      <trkpt lat="44.7972" lon="4.8676">
        <ele>122.19999694824</ele>
        <time>2024-05-21T12:46:44.000Z</time>
      </trkpt>
      <trkpt lat="44.79716" lon="4.86753">
        <ele>122.19999694824</ele>
        <time>2024-05-21T12:46:45.000Z</time>
      </trkpt>
      <trkpt lat="44.79712" lon="4.86746">
        <ele>122</ele>
        <time>2024-05-21T12:46:46.000Z</time>
      </trkpt>
      <trkpt lat="44.79708" lon="4.86741">
        <ele>122</ele>
        <time>2024-05-21T12:46:47.000Z</time>
      </trkpt>
      <trkpt lat="44.79703" lon="4.86733">
        <ele>122</ele>
        <time>2024-05-21T12:46:48.000Z</time>
      </trkpt>
      <trkpt lat="44.79699" lon="4.86727">
        <ele>121.80000305176</ele>
        <time>2024-05-21T12:46:49.000Z</time>
      </trkpt>
      <trkpt lat="44.79696" lon="4.86722">
        <ele>121.80000305176</ele>
        <time>2024-05-21T12:46:50.000Z</time>
      </trkpt>
      <trkpt lat="44.79691" lon="4.86715">
        <ele>121.80000305176</ele>
        <time>2024-05-21T12:46:51.000Z</time>
      </trkpt>
      <trkpt lat="44.79687" lon="4.86709">
        <ele>121.80000305176</ele>
        <time>2024-05-21T12:46:52.000Z</time>
      </trkpt>
      <trkpt lat="44.79684" lon="4.86705">
        <ele>121.80000305176</ele>
        <time>2024-05-21T12:46:53.000Z</time>
      </trkpt>
      <trkpt lat="44.79678" lon="4.86699">
        <ele>121.80000305176</ele>
        <time>2024-05-21T12:46:54.000Z</time>
      </trkpt>
      <trkpt lat="44.79673" lon="4.86695">
        <ele>122</ele>
        <time>2024-05-21T12:46:55.000Z</time>
      </trkpt>
      <trkpt lat="44.79668" lon="4.86691">
        <ele>122</ele>
        <time>2024-05-21T12:46:56.000Z</time>
      </trkpt>
      <trkpt lat="44.79663" lon="4.86687">
        <ele>122</ele>
        <time>2024-05-21T12:46:57.000Z</time>
      </trkpt>
      <trkpt lat="44.79658" lon="4.86684">
        <ele>122</ele>
        <time>2024-05-21T12:46:58.000Z</time>
      </trkpt>
      <trkpt lat="44.79652" lon="4.86681">
        <ele>122</ele>
        <time>2024-05-21T12:46:59.000Z</time>
      </trkpt>
      <trkpt lat="44.79646" lon="4.86679">
        <ele>121.59999847412</ele>
        <time>2024-05-21T12:47:00.000Z</time>
      </trkpt>
      <trkpt lat="44.7964" lon="4.86676">
        <ele>121.59999847412</ele>
        <time>2024-05-21T12:47:01.000Z</time>
      </trkpt>
      <trkpt lat="44.79633" lon="4.86674">
        <ele>121.40000152588</ele>
        <time>2024-05-21T12:47:02.000Z</time>
      </trkpt>
      <trkpt lat="44.79627" lon="4.86672">
        <ele>121.40000152588</ele>
        <time>2024-05-21T12:47:03.000Z</time>
      </trkpt>
      <trkpt lat="44.7962" lon="4.86669">
        <ele>121</ele>
        <time>2024-05-21T12:47:04.000Z</time>
      </trkpt>
      <trkpt lat="44.79614" lon="4.86667">
        <ele>121</ele>
        <time>2024-05-21T12:47:05.000Z</time>
      </trkpt>
      <trkpt lat="44.79607" lon="4.86665">
        <ele>120.80000305176</ele>
        <time>2024-05-21T12:47:06.000Z</time>
      </trkpt>
      <trkpt lat="44.796" lon="4.86663">
        <ele>120.40000152588</ele>
        <time>2024-05-21T12:47:07.000Z</time>
      </trkpt>
      <trkpt lat="44.79593" lon="4.8666">
        <ele>120.40000152588</ele>
        <time>2024-05-21T12:47:08.000Z</time>
      </trkpt>
      <trkpt lat="44.79586" lon="4.86656">
        <ele>120.19999694824</ele>
        <time>2024-05-21T12:47:09.000Z</time>
      </trkpt>
      <trkpt lat="44.7958" lon="4.8665">
        <ele>119.59999847412</ele>
        <time>2024-05-21T12:47:10.000Z</time>
      </trkpt>
      <trkpt lat="44.79573" lon="4.86644">
        <ele>119.19999694824</ele>
        <time>2024-05-21T12:47:11.000Z</time>
      </trkpt>
      <trkpt lat="44.79567" lon="4.86638">
        <ele>118.80000305176</ele>
        <time>2024-05-21T12:47:12.000Z</time>
      </trkpt>
      <trkpt lat="44.79561" lon="4.86632">
        <ele>118.40000152588</ele>
        <time>2024-05-21T12:47:13.000Z</time>
      </trkpt>
      <trkpt lat="44.79555" lon="4.86627">
        <ele>118</ele>
        <time>2024-05-21T12:47:14.000Z</time>
      </trkpt>
      <trkpt lat="44.79549" lon="4.86622">
        <ele>117.59999847412</ele>
        <time>2024-05-21T12:47:15.000Z</time>
      </trkpt>
      <trkpt lat="44.79543" lon="4.86617">
        <ele>117.40000152588</ele>
        <time>2024-05-21T12:47:16.000Z</time>
      </trkpt>
      <trkpt lat="44.79537" lon="4.86612">
        <ele>117.40000152588</ele>
        <time>2024-05-21T12:47:17.000Z</time>
      </trkpt>
      <trkpt lat="44.79531" lon="4.86607">
        <ele>117.40000152588</ele>
        <time>2024-05-21T12:47:18.000Z</time>
      </trkpt>
      <trkpt lat="44.79526" lon="4.86603">
        <ele>117.40000152588</ele>
        <time>2024-05-21T12:47:19.000Z</time>
      </trkpt>
      <trkpt lat="44.79521" lon="4.86598">
        <ele>117.40000152588</ele>
        <time>2024-05-21T12:47:20.000Z</time>
      </trkpt>
      <trkpt lat="44.79516" lon="4.86592">
        <ele>117.59999847412</ele>
        <time>2024-05-21T12:47:21.000Z</time>
      </trkpt>
      <trkpt lat="44.79511" lon="4.86587">
        <ele>117.59999847412</ele>
        <time>2024-05-21T12:47:22.000Z</time>
      </trkpt>
      <trkpt lat="44.79507" lon="4.86583">
        <ele>117.59999847412</ele>
        <time>2024-05-21T12:47:23.000Z</time>
      </trkpt>
      <trkpt lat="44.79503" lon="4.86578">
        <ele>117.59999847412</ele>
        <time>2024-05-21T12:47:24.000Z</time>
      </trkpt>
      <trkpt lat="44.79499" lon="4.86574">
        <ele>117.59999847412</ele>
        <time>2024-05-21T12:47:25.000Z</time>
      </trkpt>
      <trkpt lat="44.79494" lon="4.86569">
        <ele>117.59999847412</ele>
        <time>2024-05-21T12:47:26.000Z</time>
      </trkpt>
      <trkpt lat="44.79489" lon="4.86564">
        <ele>117.59999847412</ele>
        <time>2024-05-21T12:47:27.000Z</time>
      </trkpt>
      <trkpt lat="44.79482" lon="4.86557">
        <ele>117.40000152588</ele>
        <time>2024-05-21T12:47:28.000Z</time>
      </trkpt>
      <trkpt lat="44.79478" lon="4.86553">
        <ele>117</ele>
        <time>2024-05-21T12:47:29.000Z</time>
      </trkpt>
      <trkpt lat="44.79472" lon="4.86547">
        <ele>117</ele>
        <time>2024-05-21T12:47:30.000Z</time>
      </trkpt>
      <trkpt lat="44.79466" lon="4.8654">
        <ele>117</ele>
        <time>2024-05-21T12:47:31.000Z</time>
      </trkpt>
      <trkpt lat="44.7946" lon="4.86534">
        <ele>116.80000305176</ele>
        <time>2024-05-21T12:47:32.000Z</time>
      </trkpt>
      <trkpt lat="44.79454" lon="4.86528">
        <ele>116.59999847412</ele>
        <time>2024-05-21T12:47:33.000Z</time>
      </trkpt>
      <trkpt lat="44.79448" lon="4.86521">
        <ele>116.40000152588</ele>
        <time>2024-05-21T12:47:34.000Z</time>
      </trkpt>
      <trkpt lat="44.79442" lon="4.86514">
        <ele>116</ele>
        <time>2024-05-21T12:47:35.000Z</time>
      </trkpt>
      <trkpt lat="44.79435" lon="4.86507">
        <ele>115.80000305176</ele>
        <time>2024-05-21T12:47:36.000Z</time>
      </trkpt>
      <trkpt lat="44.79428" lon="4.865">
        <ele>115.19999694824</ele>
        <time>2024-05-21T12:47:37.000Z</time>
      </trkpt>
      <trkpt lat="44.79421" lon="4.86493">
        <ele>115</ele>
        <time>2024-05-21T12:47:38.000Z</time>
      </trkpt>
      <trkpt lat="44.79414" lon="4.86486">
        <ele>114.59999847412</ele>
        <time>2024-05-21T12:47:39.000Z</time>
      </trkpt>
      <trkpt lat="44.79407" lon="4.86479">
        <ele>114.19999694824</ele>
        <time>2024-05-21T12:47:40.000Z</time>
      </trkpt>
      <trkpt lat="44.794" lon="4.86471">
        <ele>114</ele>
        <time>2024-05-21T12:47:41.000Z</time>
      </trkpt>
      <trkpt lat="44.79393" lon="4.86464">
        <ele>113.59999847412</ele>
        <time>2024-05-21T12:47:42.000Z</time>
      </trkpt>
      <trkpt lat="44.79386" lon="4.86456">
        <ele>113.19999694824</ele>
        <time>2024-05-21T12:47:43.000Z</time>
      </trkpt>
      <trkpt lat="44.79379" lon="4.86449">
        <ele>113.19999694824</ele>
        <time>2024-05-21T12:47:44.000Z</time>
      </trkpt>
      <trkpt lat="44.79372" lon="4.86442">
        <ele>112.80000305176</ele>
        <time>2024-05-21T12:47:45.000Z</time>
      </trkpt>
      <trkpt lat="44.79365" lon="4.86434">
        <ele>112.40000152588</ele>
        <time>2024-05-21T12:47:46.000Z</time>
      </trkpt>
      <trkpt lat="44.79359" lon="4.86428">
        <ele>112.19999694824</ele>
        <time>2024-05-21T12:47:47.000Z</time>
      </trkpt>
      <trkpt lat="44.79351" lon="4.86419">
        <ele>111.80000305176</ele>
        <time>2024-05-21T12:47:48.000Z</time>
      </trkpt>
      <trkpt lat="44.79344" lon="4.86411">
        <ele>111.59999847412</ele>
        <time>2024-05-21T12:47:49.000Z</time>
      </trkpt>
      <trkpt lat="44.79337" lon="4.86404">
        <ele>111.40000152588</ele>
        <time>2024-05-21T12:47:50.000Z</time>
      </trkpt>
      <trkpt lat="44.7933" lon="4.86397">
        <ele>111.19999694824</ele>
        <time>2024-05-21T12:47:51.000Z</time>
      </trkpt>
      <trkpt lat="44.79323" lon="4.8639">
        <ele>111</ele>
        <time>2024-05-21T12:47:52.000Z</time>
      </trkpt>
      <trkpt lat="44.79317" lon="4.86383">
        <ele>110.80000305176</ele>
        <time>2024-05-21T12:47:53.000Z</time>
      </trkpt>
      <trkpt lat="44.7931" lon="4.86376">
        <ele>110.80000305176</ele>
        <time>2024-05-21T12:47:54.000Z</time>
      </trkpt>
      <trkpt lat="44.79303" lon="4.8637">
        <ele>110.59999847412</ele>
        <time>2024-05-21T12:47:55.000Z</time>
      </trkpt>
      <trkpt lat="44.79298" lon="4.86365">
        <ele>110.40000152588</ele>
        <time>2024-05-21T12:47:56.000Z</time>
      </trkpt>
      <trkpt lat="44.7929" lon="4.86357">
        <ele>110.40000152588</ele>
        <time>2024-05-21T12:47:57.000Z</time>
      </trkpt>
      <trkpt lat="44.79283" lon="4.86352">
        <ele>110.19999694824</ele>
        <time>2024-05-21T12:47:58.000Z</time>
      </trkpt>
      <trkpt lat="44.79278" lon="4.86347">
        <ele>110.19999694824</ele>
        <time>2024-05-21T12:47:59.000Z</time>
      </trkpt>
      <trkpt lat="44.7927" lon="4.86341">
        <ele>110</ele>
        <time>2024-05-21T12:48:00.000Z</time>
      </trkpt>
      <trkpt lat="44.79264" lon="4.86335">
        <ele>109.80000305176</ele>
        <time>2024-05-21T12:48:01.000Z</time>
      </trkpt>
      <trkpt lat="44.79258" lon="4.8633">
        <ele>109.80000305176</ele>
        <time>2024-05-21T12:48:02.000Z</time>
      </trkpt>
      <trkpt lat="44.79251" lon="4.86323">
        <ele>109.80000305176</ele>
        <time>2024-05-21T12:48:03.000Z</time>
      </trkpt>
      <trkpt lat="44.79245" lon="4.86319">
        <ele>109.59999847412</ele>
        <time>2024-05-21T12:48:04.000Z</time>
      </trkpt>
      <trkpt lat="44.79239" lon="4.86313">
        <ele>109.59999847412</ele>
        <time>2024-05-21T12:48:05.000Z</time>
      </trkpt>
      <trkpt lat="44.79231" lon="4.86307">
        <ele>109.59999847412</ele>
        <time>2024-05-21T12:48:06.000Z</time>
      </trkpt>
      <trkpt lat="44.79226" lon="4.86303">
        <ele>109.40000152588</ele>
        <time>2024-05-21T12:48:07.000Z</time>
      </trkpt>
      <trkpt lat="44.79219" lon="4.86298">
        <ele>109.40000152588</ele>
        <time>2024-05-21T12:48:08.000Z</time>
      </trkpt>
      <trkpt lat="44.79212" lon="4.86292">
        <ele>109.40000152588</ele>
        <time>2024-05-21T12:48:09.000Z</time>
      </trkpt>
      <trkpt lat="44.79206" lon="4.86287">
        <ele>109.40000152588</ele>
        <time>2024-05-21T12:48:10.000Z</time>
      </trkpt>
      <trkpt lat="44.792" lon="4.86281">
        <ele>109.40000152588</ele>
        <time>2024-05-21T12:48:11.000Z</time>
      </trkpt>
      <trkpt lat="44.79193" lon="4.86276">
        <ele>109.40000152588</ele>
        <time>2024-05-21T12:48:12.000Z</time>
      </trkpt>
      <trkpt lat="44.79187" lon="4.8627">
        <ele>109.40000152588</ele>
        <time>2024-05-21T12:48:13.000Z</time>
      </trkpt>
      <trkpt lat="44.7918" lon="4.86264">
        <ele>109.40000152588</ele>
        <time>2024-05-21T12:48:14.000Z</time>
      </trkpt>
      <trkpt lat="44.79174" lon="4.86257">
        <ele>109.19999694824</ele>
        <time>2024-05-21T12:48:15.000Z</time>
      </trkpt>
      <trkpt lat="44.79167" lon="4.86251">
        <ele>109.19999694824</ele>
        <time>2024-05-21T12:48:16.000Z</time>
      </trkpt>
      <trkpt lat="44.79161" lon="4.86244">
        <ele>109.19999694824</ele>
        <time>2024-05-21T12:48:17.000Z</time>
      </trkpt>
      <trkpt lat="44.79155" lon="4.86237">
        <ele>109.19999694824</ele>
        <time>2024-05-21T12:48:18.000Z</time>
      </trkpt>
      <trkpt lat="44.79149" lon="4.86229">
        <ele>109.19999694824</ele>
        <time>2024-05-21T12:48:19.000Z</time>
      </trkpt>
      <trkpt lat="44.79145" lon="4.86223">
        <ele>108.80000305176</ele>
        <time>2024-05-21T12:48:20.000Z</time>
      </trkpt>
      <trkpt lat="44.79138" lon="4.86214">
        <ele>108.40000152588</ele>
        <time>2024-05-21T12:48:21.000Z</time>
      </trkpt>
      <trkpt lat="44.79131" lon="4.86207">
        <ele>108.40000152588</ele>
        <time>2024-05-21T12:48:22.000Z</time>
      </trkpt>
      <trkpt lat="44.79125" lon="4.862">
        <ele>108.19999694824</ele>
        <time>2024-05-21T12:48:23.000Z</time>
      </trkpt>
      <trkpt lat="44.79119" lon="4.86193">
        <ele>108</ele>
        <time>2024-05-21T12:48:24.000Z</time>
      </trkpt>
      <trkpt lat="44.79112" lon="4.86187">
        <ele>107.59999847412</ele>
        <time>2024-05-21T12:48:25.000Z</time>
      </trkpt>
      <trkpt lat="44.79105" lon="4.86181">
        <ele>107.40000152588</ele>
        <time>2024-05-21T12:48:26.000Z</time>
      </trkpt>
      <trkpt lat="44.79098" lon="4.86176">
        <ele>107.19999694824</ele>
        <time>2024-05-21T12:48:27.000Z</time>
      </trkpt>
      <trkpt lat="44.79091" lon="4.86171">
        <ele>107.19999694824</ele>
        <time>2024-05-21T12:48:28.000Z</time>
      </trkpt>
      <trkpt lat="44.79085" lon="4.86167">
        <ele>107</ele>
        <time>2024-05-21T12:48:29.000Z</time>
      </trkpt>
      <trkpt lat="44.79078" lon="4.86163">
        <ele>106.80000305176</ele>
        <time>2024-05-21T12:48:30.000Z</time>
      </trkpt>
      <trkpt lat="44.79069" lon="4.86159">
        <ele>106.80000305176</ele>
        <time>2024-05-21T12:48:31.000Z</time>
      </trkpt>
      <trkpt lat="44.79062" lon="4.86156">
        <ele>106.80000305176</ele>
        <time>2024-05-21T12:48:32.000Z</time>
      </trkpt>
      <trkpt lat="44.79055" lon="4.86153">
        <ele>106.80000305176</ele>
        <time>2024-05-21T12:48:33.000Z</time>
      </trkpt>
      <trkpt lat="44.79049" lon="4.8615">
        <ele>106.80000305176</ele>
        <time>2024-05-21T12:48:34.000Z</time>
      </trkpt>
      <trkpt lat="44.79043" lon="4.86148">
        <ele>106.80000305176</ele>
        <time>2024-05-21T12:48:35.000Z</time>
      </trkpt>
      <trkpt lat="44.79035" lon="4.86146">
        <ele>106.80000305176</ele>
        <time>2024-05-21T12:48:36.000Z</time>
      </trkpt>
      <trkpt lat="44.79028" lon="4.86144">
        <ele>107</ele>
        <time>2024-05-21T12:48:37.000Z</time>
      </trkpt>
      <trkpt lat="44.79023" lon="4.86142">
        <ele>107</ele>
        <time>2024-05-21T12:48:38.000Z</time>
      </trkpt>
      <trkpt lat="44.79016" lon="4.8614">
        <ele>107</ele>
        <time>2024-05-21T12:48:39.000Z</time>
      </trkpt>
      <trkpt lat="44.79009" lon="4.86138">
        <ele>107</ele>
        <time>2024-05-21T12:48:40.000Z</time>
      </trkpt>
      <trkpt lat="44.79004" lon="4.86137">
        <ele>107.19999694824</ele>
        <time>2024-05-21T12:48:41.000Z</time>
      </trkpt>
      <trkpt lat="44.78997" lon="4.86135">
        <ele>107.19999694824</ele>
        <time>2024-05-21T12:48:42.000Z</time>
      </trkpt>
      <trkpt lat="44.7899" lon="4.86133">
        <ele>107.40000152588</ele>
        <time>2024-05-21T12:48:43.000Z</time>
      </trkpt>
      <trkpt lat="44.78985" lon="4.86132">
        <ele>107.59999847412</ele>
        <time>2024-05-21T12:48:44.000Z</time>
      </trkpt>
      <trkpt lat="44.78978" lon="4.86129">
        <ele>107.80000305176</ele>
        <time>2024-05-21T12:48:45.000Z</time>
      </trkpt>
      <trkpt lat="44.78973" lon="4.86127">
        <ele>108</ele>
        <time>2024-05-21T12:48:46.000Z</time>
      </trkpt>
      <trkpt lat="44.78967" lon="4.86125">
        <ele>108</ele>
        <time>2024-05-21T12:48:47.000Z</time>
      </trkpt>
      <trkpt lat="44.78961" lon="4.86123">
        <ele>108</ele>
        <time>2024-05-21T12:48:48.000Z</time>
      </trkpt>
      <trkpt lat="44.78954" lon="4.8612">
        <ele>108.19999694824</ele>
        <time>2024-05-21T12:48:49.000Z</time>
      </trkpt>
      <trkpt lat="44.7895" lon="4.86118">
        <ele>108.19999694824</ele>
        <time>2024-05-21T12:48:50.000Z</time>
      </trkpt>
      <trkpt lat="44.78944" lon="4.86115">
        <ele>108.19999694824</ele>
        <time>2024-05-21T12:48:51.000Z</time>
      </trkpt>
      <trkpt lat="44.78938" lon="4.86112">
        <ele>108.19999694824</ele>
        <time>2024-05-21T12:48:52.000Z</time>
      </trkpt>
      <trkpt lat="44.78931" lon="4.86109">
        <ele>108.19999694824</ele>
        <time>2024-05-21T12:48:53.000Z</time>
      </trkpt>
      <trkpt lat="44.78925" lon="4.86106">
        <ele>108.40000152588</ele>
        <time>2024-05-21T12:48:54.000Z</time>
      </trkpt>
      <trkpt lat="44.78921" lon="4.86104">
        <ele>108.40000152588</ele>
        <time>2024-05-21T12:48:55.000Z</time>
      </trkpt>
      <trkpt lat="44.78915" lon="4.86101">
        <ele>108.59999847412</ele>
        <time>2024-05-21T12:48:56.000Z</time>
      </trkpt>
      <trkpt lat="44.7891" lon="4.86098">
        <ele>108.80000305176</ele>
        <time>2024-05-21T12:48:57.000Z</time>
      </trkpt>
      <trkpt lat="44.78905" lon="4.86095">
        <ele>109</ele>
        <time>2024-05-21T12:48:58.000Z</time>
      </trkpt>
      <trkpt lat="44.789" lon="4.86092">
        <ele>109</ele>
        <time>2024-05-21T12:48:59.000Z</time>
      </trkpt>
      <trkpt lat="44.78896" lon="4.86088">
        <ele>109</ele>
        <time>2024-05-21T12:49:00.000Z</time>
      </trkpt>
      <trkpt lat="44.78891" lon="4.86084">
        <ele>109.40000152588</ele>
        <time>2024-05-21T12:49:01.000Z</time>
      </trkpt>
      <trkpt lat="44.78886" lon="4.8608">
        <ele>109.40000152588</ele>
        <time>2024-05-21T12:49:02.000Z</time>
      </trkpt>
      <trkpt lat="44.78881" lon="4.86075">
        <ele>109.40000152588</ele>
        <time>2024-05-21T12:49:03.000Z</time>
      </trkpt>
      <trkpt lat="44.78877" lon="4.8607">
        <ele>109.40000152588</ele>
        <time>2024-05-21T12:49:04.000Z</time>
      </trkpt>
      <trkpt lat="44.78872" lon="4.86065">
        <ele>109.19999694824</ele>
        <time>2024-05-21T12:49:05.000Z</time>
      </trkpt>
      <trkpt lat="44.78867" lon="4.8606">
        <ele>109.19999694824</ele>
        <time>2024-05-21T12:49:06.000Z</time>
      </trkpt>
      <trkpt lat="44.78862" lon="4.86055">
        <ele>109.19999694824</ele>
        <time>2024-05-21T12:49:07.000Z</time>
      </trkpt>
      <trkpt lat="44.78857" lon="4.86049">
        <ele>109</ele>
        <time>2024-05-21T12:49:08.000Z</time>
      </trkpt>
      <trkpt lat="44.78852" lon="4.86044">
        <ele>108.80000305176</ele>
        <time>2024-05-21T12:49:09.000Z</time>
      </trkpt>
      <trkpt lat="44.78847" lon="4.86038">
        <ele>108.80000305176</ele>
        <time>2024-05-21T12:49:10.000Z</time>
      </trkpt>
      <trkpt lat="44.78842" lon="4.86033">
        <ele>108.40000152588</ele>
        <time>2024-05-21T12:49:11.000Z</time>
      </trkpt>
      <trkpt lat="44.78837" lon="4.86027">
        <ele>108.40000152588</ele>
        <time>2024-05-21T12:49:12.000Z</time>
      </trkpt>
      <trkpt lat="44.78831" lon="4.86022">
        <ele>108.19999694824</ele>
        <time>2024-05-21T12:49:13.000Z</time>
      </trkpt>
      <trkpt lat="44.78826" lon="4.86016">
        <ele>108.19999694824</ele>
        <time>2024-05-21T12:49:14.000Z</time>
      </trkpt>
      <trkpt lat="44.7882" lon="4.86011">
        <ele>108.19999694824</ele>
        <time>2024-05-21T12:49:15.000Z</time>
      </trkpt>
      <trkpt lat="44.78815" lon="4.86006">
        <ele>108</ele>
        <time>2024-05-21T12:49:16.000Z</time>
      </trkpt>
      <trkpt lat="44.78809" lon="4.86001">
        <ele>108</ele>
        <time>2024-05-21T12:49:17.000Z</time>
      </trkpt>
      <trkpt lat="44.78803" lon="4.85996">
        <ele>108</ele>
        <time>2024-05-21T12:49:18.000Z</time>
      </trkpt>
      <trkpt lat="44.78797" lon="4.85991">
        <ele>107.80000305176</ele>
        <time>2024-05-21T12:49:19.000Z</time>
      </trkpt>
      <trkpt lat="44.78791" lon="4.85987">
        <ele>107.80000305176</ele>
        <time>2024-05-21T12:49:20.000Z</time>
      </trkpt>
      <trkpt lat="44.78785" lon="4.85983">
        <ele>107.59999847412</ele>
        <time>2024-05-21T12:49:21.000Z</time>
      </trkpt>
      <trkpt lat="44.78779" lon="4.8598">
        <ele>107.59999847412</ele>
        <time>2024-05-21T12:49:22.000Z</time>
      </trkpt>
      <trkpt lat="44.78773" lon="4.85977">
        <ele>107.59999847412</ele>
        <time>2024-05-21T12:49:23.000Z</time>
      </trkpt>
      <trkpt lat="44.78767" lon="4.85973">
        <ele>107.59999847412</ele>
        <time>2024-05-21T12:49:24.000Z</time>
      </trkpt>
      <trkpt lat="44.78761" lon="4.85969">
        <ele>107.59999847412</ele>
        <time>2024-05-21T12:49:25.000Z</time>
      </trkpt>
      <trkpt lat="44.78755" lon="4.85966">
        <ele>107.59999847412</ele>
        <time>2024-05-21T12:49:26.000Z</time>
      </trkpt>
      <trkpt lat="44.78749" lon="4.85962">
        <ele>107.40000152588</ele>
        <time>2024-05-21T12:49:27.000Z</time>
      </trkpt>
      <trkpt lat="44.78742" lon="4.85959">
        <ele>107.40000152588</ele>
        <time>2024-05-21T12:49:28.000Z</time>
      </trkpt>
      <trkpt lat="44.78736" lon="4.85956">
        <ele>107.40000152588</ele>
        <time>2024-05-21T12:49:29.000Z</time>
      </trkpt>
      <trkpt lat="44.7873" lon="4.85952">
        <ele>107.40000152588</ele>
        <time>2024-05-21T12:49:30.000Z</time>
      </trkpt>
      <trkpt lat="44.78723" lon="4.85949">
        <ele>107.40000152588</ele>
        <time>2024-05-21T12:49:31.000Z</time>
      </trkpt>
      <trkpt lat="44.78717" lon="4.85945">
        <ele>107.40000152588</ele>
        <time>2024-05-21T12:49:32.000Z</time>
      </trkpt>
      <trkpt lat="44.78711" lon="4.85942">
        <ele>107.40000152588</ele>
        <time>2024-05-21T12:49:33.000Z</time>
      </trkpt>
      <trkpt lat="44.78705" lon="4.85939">
        <ele>107.40000152588</ele>
        <time>2024-05-21T12:49:34.000Z</time>
      </trkpt>
      <trkpt lat="44.78699" lon="4.85936">
        <ele>107.19999694824</ele>
        <time>2024-05-21T12:49:35.000Z</time>
      </trkpt>
      <trkpt lat="44.78692" lon="4.85932">
        <ele>107.19999694824</ele>
        <time>2024-05-21T12:49:36.000Z</time>
      </trkpt>
      <trkpt lat="44.78685" lon="4.85928">
        <ele>107.19999694824</ele>
        <time>2024-05-21T12:49:37.000Z</time>
      </trkpt>
      <trkpt lat="44.78679" lon="4.85925">
        <ele>107.19999694824</ele>
        <time>2024-05-21T12:49:38.000Z</time>
      </trkpt>
      <trkpt lat="44.78672" lon="4.85922">
        <ele>107.19999694824</ele>
        <time>2024-05-21T12:49:39.000Z</time>
      </trkpt>
      <trkpt lat="44.78666" lon="4.85919">
        <ele>107.19999694824</ele>
        <time>2024-05-21T12:49:40.000Z</time>
      </trkpt>
      <trkpt lat="44.7866" lon="4.85916">
        <ele>107.19999694824</ele>
        <time>2024-05-21T12:49:41.000Z</time>
      </trkpt>
      <trkpt lat="44.78653" lon="4.85912">
        <ele>107.19999694824</ele>
        <time>2024-05-21T12:49:42.000Z</time>
      </trkpt>
      <trkpt lat="44.78647" lon="4.85909">
        <ele>107.19999694824</ele>
        <time>2024-05-21T12:49:43.000Z</time>
      </trkpt>
      <trkpt lat="44.78641" lon="4.85905">
        <ele>107.19999694824</ele>
        <time>2024-05-21T12:49:44.000Z</time>
      </trkpt>
      <trkpt lat="44.78635" lon="4.85901">
        <ele>107.19999694824</ele>
        <time>2024-05-21T12:49:45.000Z</time>
      </trkpt>
      <trkpt lat="44.78629" lon="4.85897">
        <ele>107.19999694824</ele>
        <time>2024-05-21T12:49:46.000Z</time>
      </trkpt>
      <trkpt lat="44.78623" lon="4.85892">
        <ele>107.19999694824</ele>
        <time>2024-05-21T12:49:47.000Z</time>
      </trkpt>
      <trkpt lat="44.78617" lon="4.85887">
        <ele>107.19999694824</ele>
        <time>2024-05-21T12:49:48.000Z</time>
      </trkpt>
      <trkpt lat="44.78611" lon="4.85882">
        <ele>107.19999694824</ele>
        <time>2024-05-21T12:49:49.000Z</time>
      </trkpt>
      <trkpt lat="44.78605" lon="4.85877">
        <ele>107.19999694824</ele>
        <time>2024-05-21T12:49:50.000Z</time>
      </trkpt>
      <trkpt lat="44.78601" lon="4.85872">
        <ele>107.19999694824</ele>
        <time>2024-05-21T12:49:51.000Z</time>
      </trkpt>
      <trkpt lat="44.78594" lon="4.85866">
        <ele>107.19999694824</ele>
        <time>2024-05-21T12:49:52.000Z</time>
      </trkpt>
      <trkpt lat="44.78589" lon="4.85861">
        <ele>107.19999694824</ele>
        <time>2024-05-21T12:49:53.000Z</time>
      </trkpt>
      <trkpt lat="44.78584" lon="4.85857">
        <ele>107.19999694824</ele>
        <time>2024-05-21T12:49:54.000Z</time>
      </trkpt>
      <trkpt lat="44.78578" lon="4.85851">
        <ele>107.19999694824</ele>
        <time>2024-05-21T12:49:55.000Z</time>
      </trkpt>
      <trkpt lat="44.78573" lon="4.85846">
        <ele>107.40000152588</ele>
        <time>2024-05-21T12:49:56.000Z</time>
      </trkpt>
      <trkpt lat="44.78568" lon="4.85842">
        <ele>107.40000152588</ele>
        <time>2024-05-21T12:49:57.000Z</time>
      </trkpt>
      <trkpt lat="44.78562" lon="4.85837">
        <ele>107.40000152588</ele>
        <time>2024-05-21T12:49:58.000Z</time>
      </trkpt>
      <trkpt lat="44.78557" lon="4.85831">
        <ele>107.40000152588</ele>
        <time>2024-05-21T12:49:59.000Z</time>
      </trkpt>
      <trkpt lat="44.78553" lon="4.85827">
        <ele>107.59999847412</ele>
        <time>2024-05-21T12:50:00.000Z</time>
      </trkpt>
      <trkpt lat="44.78548" lon="4.8582">
        <ele>107.59999847412</ele>
        <time>2024-05-21T12:50:01.000Z</time>
      </trkpt>
      <trkpt lat="44.78543" lon="4.85813">
        <ele>107.59999847412</ele>
        <time>2024-05-21T12:50:02.000Z</time>
      </trkpt>
      <trkpt lat="44.7854" lon="4.85808">
        <ele>107.59999847412</ele>
        <time>2024-05-21T12:50:03.000Z</time>
      </trkpt>
      <trkpt lat="44.78534" lon="4.858">
        <ele>107.59999847412</ele>
        <time>2024-05-21T12:50:04.000Z</time>
      </trkpt>
      <trkpt lat="44.78531" lon="4.85793">
        <ele>107.59999847412</ele>
        <time>2024-05-21T12:50:05.000Z</time>
      </trkpt>
      <trkpt lat="44.78527" lon="4.85786">
        <ele>107.59999847412</ele>
        <time>2024-05-21T12:50:06.000Z</time>
      </trkpt>
      <trkpt lat="44.78523" lon="4.8578">
        <ele>107.59999847412</ele>
        <time>2024-05-21T12:50:07.000Z</time>
      </trkpt>
      <trkpt lat="44.78519" lon="4.85773">
        <ele>107.59999847412</ele>
        <time>2024-05-21T12:50:08.000Z</time>
      </trkpt>
      <trkpt lat="44.78514" lon="4.85767">
        <ele>107.80000305176</ele>
        <time>2024-05-21T12:50:09.000Z</time>
      </trkpt>
      <trkpt lat="44.7851" lon="4.85761">
        <ele>107.80000305176</ele>
        <time>2024-05-21T12:50:10.000Z</time>
      </trkpt>
      <trkpt lat="44.78506" lon="4.85754">
        <ele>107.80000305176</ele>
        <time>2024-05-21T12:50:11.000Z</time>
      </trkpt>
      <trkpt lat="44.78501" lon="4.85748">
        <ele>107.80000305176</ele>
        <time>2024-05-21T12:50:12.000Z</time>
      </trkpt>
      <trkpt lat="44.78497" lon="4.85743">
        <ele>107.80000305176</ele>
        <time>2024-05-21T12:50:13.000Z</time>
      </trkpt>
      <trkpt lat="44.78493" lon="4.85738">
        <ele>108</ele>
        <time>2024-05-21T12:50:14.000Z</time>
      </trkpt>
      <trkpt lat="44.78489" lon="4.85732">
        <ele>108</ele>
        <time>2024-05-21T12:50:15.000Z</time>
      </trkpt>
      <trkpt lat="44.78484" lon="4.85727">
        <ele>108.19999694824</ele>
        <time>2024-05-21T12:50:16.000Z</time>
      </trkpt>
      <trkpt lat="44.78479" lon="4.85721">
        <ele>108.19999694824</ele>
        <time>2024-05-21T12:50:17.000Z</time>
      </trkpt>
      <trkpt lat="44.78475" lon="4.85715">
        <ele>108.19999694824</ele>
        <time>2024-05-21T12:50:18.000Z</time>
      </trkpt>
      <trkpt lat="44.7847" lon="4.85709">
        <ele>108.40000152588</ele>
        <time>2024-05-21T12:50:19.000Z</time>
      </trkpt>
      <trkpt lat="44.78464" lon="4.85703">
        <ele>108.40000152588</ele>
        <time>2024-05-21T12:50:20.000Z</time>
      </trkpt>
      <trkpt lat="44.78459" lon="4.85698">
        <ele>108.40000152588</ele>
        <time>2024-05-21T12:50:21.000Z</time>
      </trkpt>
      <trkpt lat="44.78455" lon="4.85694">
        <ele>108.59999847412</ele>
        <time>2024-05-21T12:50:22.000Z</time>
      </trkpt>
      <trkpt lat="44.78449" lon="4.85688">
        <ele>108.59999847412</ele>
        <time>2024-05-21T12:50:23.000Z</time>
      </trkpt>
      <trkpt lat="44.78444" lon="4.85683">
        <ele>108.40000152588</ele>
        <time>2024-05-21T12:50:24.000Z</time>
      </trkpt>
      <trkpt lat="44.7844" lon="4.8568">
        <ele>108.40000152588</ele>
        <time>2024-05-21T12:50:25.000Z</time>
      </trkpt>
      <trkpt lat="44.78434" lon="4.85675">
        <ele>108.40000152588</ele>
        <time>2024-05-21T12:50:26.000Z</time>
      </trkpt>
      <trkpt lat="44.78429" lon="4.85671">
        <ele>108.19999694824</ele>
        <time>2024-05-21T12:50:27.000Z</time>
      </trkpt>
      <trkpt lat="44.78423" lon="4.85668">
        <ele>108.19999694824</ele>
        <time>2024-05-21T12:50:28.000Z</time>
      </trkpt>
      <trkpt lat="44.78418" lon="4.85664">
        <ele>108.19999694824</ele>
        <time>2024-05-21T12:50:29.000Z</time>
      </trkpt>
      <trkpt lat="44.78413" lon="4.8566">
        <ele>108.19999694824</ele>
        <time>2024-05-21T12:50:30.000Z</time>
      </trkpt>
      <trkpt lat="44.78409" lon="4.85657">
        <ele>108.19999694824</ele>
        <time>2024-05-21T12:50:31.000Z</time>
      </trkpt>
      <trkpt lat="44.78403" lon="4.85653">
        <ele>108.40000152588</ele>
        <time>2024-05-21T12:50:32.000Z</time>
      </trkpt>
      <trkpt lat="44.78398" lon="4.85649">
        <ele>108.40000152588</ele>
        <time>2024-05-21T12:50:33.000Z</time>
      </trkpt>
      <trkpt lat="44.78394" lon="4.85646">
        <ele>108.40000152588</ele>
        <time>2024-05-21T12:50:34.000Z</time>
      </trkpt>
      <trkpt lat="44.78389" lon="4.85643">
        <ele>108.40000152588</ele>
        <time>2024-05-21T12:50:35.000Z</time>
      </trkpt>
      <trkpt lat="44.78383" lon="4.85639">
        <ele>108.40000152588</ele>
        <time>2024-05-21T12:50:36.000Z</time>
      </trkpt>
      <trkpt lat="44.78379" lon="4.85636">
        <ele>108.59999847412</ele>
        <time>2024-05-21T12:50:37.000Z</time>
      </trkpt>
      <trkpt lat="44.78373" lon="4.85631">
        <ele>108.59999847412</ele>
        <time>2024-05-21T12:50:38.000Z</time>
      </trkpt>
      <trkpt lat="44.78369" lon="4.85629">
        <ele>108.59999847412</ele>
        <time>2024-05-21T12:50:39.000Z</time>
      </trkpt>
      <trkpt lat="44.78364" lon="4.85625">
        <ele>108.59999847412</ele>
        <time>2024-05-21T12:50:40.000Z</time>
      </trkpt>
      <trkpt lat="44.78359" lon="4.85621">
        <ele>108.59999847412</ele>
        <time>2024-05-21T12:50:41.000Z</time>
      </trkpt>
      <trkpt lat="44.78354" lon="4.85618">
        <ele>108.59999847412</ele>
        <time>2024-05-21T12:50:42.000Z</time>
      </trkpt>
      <trkpt lat="44.78351" lon="4.85616">
        <ele>108.59999847412</ele>
        <time>2024-05-21T12:50:43.000Z</time>
      </trkpt>
      <trkpt lat="44.78345" lon="4.85612">
        <ele>108.80000305176</ele>
        <time>2024-05-21T12:50:44.000Z</time>
      </trkpt>
      <trkpt lat="44.78341" lon="4.85609">
        <ele>109</ele>
        <time>2024-05-21T12:50:45.000Z</time>
      </trkpt>
      <trkpt lat="44.78337" lon="4.85606">
        <ele>109</ele>
        <time>2024-05-21T12:50:46.000Z</time>
      </trkpt>
      <trkpt lat="44.78333" lon="4.85602">
        <ele>109.40000152588</ele>
        <time>2024-05-21T12:50:47.000Z</time>
      </trkpt>
      <trkpt lat="44.78328" lon="4.85598">
        <ele>109.59999847412</ele>
        <time>2024-05-21T12:50:48.000Z</time>
      </trkpt>
      <trkpt lat="44.78325" lon="4.85595">
        <ele>109.59999847412</ele>
        <time>2024-05-21T12:50:49.000Z</time>
      </trkpt>
      <trkpt lat="44.7832" lon="4.85591">
        <ele>109.80000305176</ele>
        <time>2024-05-21T12:50:50.000Z</time>
      </trkpt>
      <trkpt lat="44.78316" lon="4.85588">
        <ele>109.80000305176</ele>
        <time>2024-05-21T12:50:51.000Z</time>
      </trkpt>
      <trkpt lat="44.78313" lon="4.85585">
        <ele>110</ele>
        <time>2024-05-21T12:50:52.000Z</time>
      </trkpt>
      <trkpt lat="44.78309" lon="4.85582">
        <ele>110</ele>
        <time>2024-05-21T12:50:53.000Z</time>
      </trkpt>
      <trkpt lat="44.78305" lon="4.85578">
        <ele>110.40000152588</ele>
        <time>2024-05-21T12:50:54.000Z</time>
      </trkpt>
      <trkpt lat="44.78301" lon="4.85575">
        <ele>110.40000152588</ele>
        <time>2024-05-21T12:50:55.000Z</time>
      </trkpt>
      <trkpt lat="44.78296" lon="4.85571">
        <ele>110.40000152588</ele>
        <time>2024-05-21T12:50:56.000Z</time>
      </trkpt>
      <trkpt lat="44.78292" lon="4.85567">
        <ele>110.40000152588</ele>
        <time>2024-05-21T12:50:57.000Z</time>
      </trkpt>
      <trkpt lat="44.78288" lon="4.85564">
        <ele>110.40000152588</ele>
        <time>2024-05-21T12:50:58.000Z</time>
      </trkpt>
      <trkpt lat="44.78284" lon="4.8556">
        <ele>110.40000152588</ele>
        <time>2024-05-21T12:50:59.000Z</time>
      </trkpt>
      <trkpt lat="44.78279" lon="4.85555">
        <ele>110.40000152588</ele>
        <time>2024-05-21T12:51:00.000Z</time>
      </trkpt>
      <trkpt lat="44.78276" lon="4.85552">
        <ele>110.40000152588</ele>
        <time>2024-05-21T12:51:01.000Z</time>
      </trkpt>
      <trkpt lat="44.78271" lon="4.85549">
        <ele>110.40000152588</ele>
        <time>2024-05-21T12:51:02.000Z</time>
      </trkpt>
      <trkpt lat="44.78268" lon="4.85547">
        <ele>110.40000152588</ele>
        <time>2024-05-21T12:51:03.000Z</time>
      </trkpt>
      <trkpt lat="44.78264" lon="4.85544">
        <ele>110.59999847412</ele>
        <time>2024-05-21T12:51:04.000Z</time>
      </trkpt>
      <trkpt lat="44.78259" lon="4.8554">
        <ele>110.80000305176</ele>
        <time>2024-05-21T12:51:05.000Z</time>
      </trkpt>
      <trkpt lat="44.78255" lon="4.85536">
        <ele>111</ele>
        <time>2024-05-21T12:51:06.000Z</time>
      </trkpt>
      <trkpt lat="44.78252" lon="4.85533">
        <ele>111.40000152588</ele>
        <time>2024-05-21T12:51:07.000Z</time>
      </trkpt>
      <trkpt lat="44.78247" lon="4.85528">
        <ele>111.59999847412</ele>
        <time>2024-05-21T12:51:08.000Z</time>
      </trkpt>
      <trkpt lat="44.78243" lon="4.85525">
        <ele>111.59999847412</ele>
        <time>2024-05-21T12:51:09.000Z</time>
      </trkpt>
      <trkpt lat="44.78239" lon="4.85521">
        <ele>111.59999847412</ele>
        <time>2024-05-21T12:51:10.000Z</time>
      </trkpt>
      <trkpt lat="44.78235" lon="4.85518">
        <ele>111.80000305176</ele>
        <time>2024-05-21T12:51:11.000Z</time>
      </trkpt>
      <trkpt lat="44.78232" lon="4.85515">
        <ele>111.80000305176</ele>
        <time>2024-05-21T12:51:12.000Z</time>
      </trkpt>
      <trkpt lat="44.78228" lon="4.85511">
        <ele>111.80000305176</ele>
        <time>2024-05-21T12:51:13.000Z</time>
      </trkpt>
      <trkpt lat="44.78224" lon="4.85507">
        <ele>111.80000305176</ele>
        <time>2024-05-21T12:51:14.000Z</time>
      </trkpt>
      <trkpt lat="44.78219" lon="4.85504">
        <ele>112</ele>
        <time>2024-05-21T12:51:15.000Z</time>
      </trkpt>
      <trkpt lat="44.78216" lon="4.85502">
        <ele>112</ele>
        <time>2024-05-21T12:51:16.000Z</time>
      </trkpt>
      <trkpt lat="44.78212" lon="4.85498">
        <ele>112</ele>
        <time>2024-05-21T12:51:17.000Z</time>
      </trkpt>
      <trkpt lat="44.78208" lon="4.85495">
        <ele>112</ele>
        <time>2024-05-21T12:51:18.000Z</time>
      </trkpt>
      <trkpt lat="44.78204" lon="4.85492">
        <ele>112.19999694824</ele>
        <time>2024-05-21T12:51:19.000Z</time>
      </trkpt>
      <trkpt lat="44.782" lon="4.85489">
        <ele>112.19999694824</ele>
        <time>2024-05-21T12:51:20.000Z</time>
      </trkpt>
      <trkpt lat="44.78196" lon="4.85485">
        <ele>112.19999694824</ele>
        <time>2024-05-21T12:51:21.000Z</time>
      </trkpt>
      <trkpt lat="44.78192" lon="4.85482">
        <ele>112.40000152588</ele>
        <time>2024-05-21T12:51:22.000Z</time>
      </trkpt>
      <trkpt lat="44.78188" lon="4.85479">
        <ele>112.40000152588</ele>
        <time>2024-05-21T12:51:23.000Z</time>
      </trkpt>
      <trkpt lat="44.78184" lon="4.85475">
        <ele>112.40000152588</ele>
        <time>2024-05-21T12:51:24.000Z</time>
      </trkpt>
      <trkpt lat="44.78181" lon="4.85472">
        <ele>112.40000152588</ele>
        <time>2024-05-21T12:51:25.000Z</time>
      </trkpt>
      <trkpt lat="44.78176" lon="4.85468">
        <ele>112.59999847412</ele>
        <time>2024-05-21T12:51:26.000Z</time>
      </trkpt>
      <trkpt lat="44.78172" lon="4.85465">
        <ele>112.80000305176</ele>
        <time>2024-05-21T12:51:27.000Z</time>
      </trkpt>
      <trkpt lat="44.78168" lon="4.85463">
        <ele>112.80000305176</ele>
        <time>2024-05-21T12:51:28.000Z</time>
      </trkpt>
      <trkpt lat="44.78164" lon="4.85459">
        <ele>112.80000305176</ele>
        <time>2024-05-21T12:51:29.000Z</time>
      </trkpt>
      <trkpt lat="44.7816" lon="4.85455">
        <ele>113</ele>
        <time>2024-05-21T12:51:30.000Z</time>
      </trkpt>
      <trkpt lat="44.78157" lon="4.85453">
        <ele>113.19999694824</ele>
        <time>2024-05-21T12:51:31.000Z</time>
      </trkpt>
      <trkpt lat="44.78152" lon="4.85449">
        <ele>113.40000152588</ele>
        <time>2024-05-21T12:51:32.000Z</time>
      </trkpt>
      <trkpt lat="44.78147" lon="4.85447">
        <ele>113.40000152588</ele>
        <time>2024-05-21T12:51:33.000Z</time>
      </trkpt>
      <trkpt lat="44.78144" lon="4.85444">
        <ele>113.40000152588</ele>
        <time>2024-05-21T12:51:34.000Z</time>
      </trkpt>
      <trkpt lat="44.78139" lon="4.8544">
        <ele>113.80000305176</ele>
        <time>2024-05-21T12:51:35.000Z</time>
      </trkpt>
      <trkpt lat="44.78136" lon="4.85437">
        <ele>114</ele>
        <time>2024-05-21T12:51:36.000Z</time>
      </trkpt>
      <trkpt lat="44.78132" lon="4.85434">
        <ele>114</ele>
        <time>2024-05-21T12:51:37.000Z</time>
      </trkpt>
      <trkpt lat="44.78128" lon="4.8543">
        <ele>114</ele>
        <time>2024-05-21T12:51:38.000Z</time>
      </trkpt>
      <trkpt lat="44.78125" lon="4.85427">
        <ele>114.19999694824</ele>
        <time>2024-05-21T12:51:39.000Z</time>
      </trkpt>
      <trkpt lat="44.78121" lon="4.85424">
        <ele>114.19999694824</ele>
        <time>2024-05-21T12:51:40.000Z</time>
      </trkpt>
      <trkpt lat="44.78117" lon="4.8542">
        <ele>114.19999694824</ele>
        <time>2024-05-21T12:51:41.000Z</time>
      </trkpt>
      <trkpt lat="44.78112" lon="4.85416">
        <ele>114.19999694824</ele>
        <time>2024-05-21T12:51:42.000Z</time>
      </trkpt>
      <trkpt lat="44.78109" lon="4.85413">
        <ele>114.19999694824</ele>
        <time>2024-05-21T12:51:43.000Z</time>
      </trkpt>
      <trkpt lat="44.78104" lon="4.85409">
        <ele>114.19999694824</ele>
        <time>2024-05-21T12:51:44.000Z</time>
      </trkpt>
      <trkpt lat="44.781" lon="4.85406">
        <ele>114.19999694824</ele>
        <time>2024-05-21T12:51:45.000Z</time>
      </trkpt>
      <trkpt lat="44.78097" lon="4.85404">
        <ele>114.40000152588</ele>
        <time>2024-05-21T12:51:46.000Z</time>
      </trkpt>
      <trkpt lat="44.78094" lon="4.85401">
        <ele>114.40000152588</ele>
        <time>2024-05-21T12:51:47.000Z</time>
      </trkpt>
      <trkpt lat="44.78089" lon="4.85398">
        <ele>114.40000152588</ele>
        <time>2024-05-21T12:51:48.000Z</time>
      </trkpt>
      <trkpt lat="44.78086" lon="4.85395">
        <ele>114.80000305176</ele>
        <time>2024-05-21T12:51:49.000Z</time>
      </trkpt>
      <trkpt lat="44.78081" lon="4.85392">
        <ele>115</ele>
        <time>2024-05-21T12:51:50.000Z</time>
      </trkpt>
      <trkpt lat="44.78077" lon="4.85388">
        <ele>115</ele>
        <time>2024-05-21T12:51:51.000Z</time>
      </trkpt>
      <trkpt lat="44.78074" lon="4.85386">
        <ele>115.19999694824</ele>
        <time>2024-05-21T12:51:52.000Z</time>
      </trkpt>
      <trkpt lat="44.78069" lon="4.85382">
        <ele>115.19999694824</ele>
        <time>2024-05-21T12:51:53.000Z</time>
      </trkpt>
      <trkpt lat="44.78065" lon="4.85379">
        <ele>115.40000152588</ele>
        <time>2024-05-21T12:51:54.000Z</time>
      </trkpt>
      <trkpt lat="44.78062" lon="4.85378">
        <ele>115.40000152588</ele>
        <time>2024-05-21T12:51:55.000Z</time>
      </trkpt>
      <trkpt lat="44.78056" lon="4.85375">
        <ele>115.59999847412</ele>
        <time>2024-05-21T12:51:56.000Z</time>
      </trkpt>
      <trkpt lat="44.78052" lon="4.85372">
        <ele>115.59999847412</ele>
        <time>2024-05-21T12:51:57.000Z</time>
      </trkpt>
      <trkpt lat="44.78048" lon="4.8537">
        <ele>115.59999847412</ele>
        <time>2024-05-21T12:51:58.000Z</time>
      </trkpt>
      <trkpt lat="44.78043" lon="4.85367">
        <ele>115.59999847412</ele>
        <time>2024-05-21T12:51:59.000Z</time>
      </trkpt>
      <trkpt lat="44.78039" lon="4.85365">
        <ele>115.59999847412</ele>
        <time>2024-05-21T12:52:00.000Z</time>
      </trkpt>
      <trkpt lat="44.78036" lon="4.85364">
        <ele>115.80000305176</ele>
        <time>2024-05-21T12:52:01.000Z</time>
      </trkpt>
      <trkpt lat="44.78031" lon="4.85361">
        <ele>115.80000305176</ele>
        <time>2024-05-21T12:52:02.000Z</time>
      </trkpt>
      <trkpt lat="44.78027" lon="4.85359">
        <ele>116</ele>
        <time>2024-05-21T12:52:03.000Z</time>
      </trkpt>
      <trkpt lat="44.78022" lon="4.85357">
        <ele>116.19999694824</ele>
        <time>2024-05-21T12:52:04.000Z</time>
      </trkpt>
      <trkpt lat="44.78018" lon="4.85355">
        <ele>116.19999694824</ele>
        <time>2024-05-21T12:52:05.000Z</time>
      </trkpt>
      <trkpt lat="44.78014" lon="4.85353">
        <ele>116.19999694824</ele>
        <time>2024-05-21T12:52:06.000Z</time>
      </trkpt>
      <trkpt lat="44.78009" lon="4.85352">
        <ele>116.40000152588</ele>
        <time>2024-05-21T12:52:07.000Z</time>
      </trkpt>
      <trkpt lat="44.78005" lon="4.8535">
        <ele>116.59999847412</ele>
        <time>2024-05-21T12:52:08.000Z</time>
      </trkpt>
      <trkpt lat="44.78" lon="4.85349">
        <ele>116.59999847412</ele>
        <time>2024-05-21T12:52:09.000Z</time>
      </trkpt>
      <trkpt lat="44.77997" lon="4.85346">
        <ele>116.59999847412</ele>
        <time>2024-05-21T12:52:10.000Z</time>
      </trkpt>
      <trkpt lat="44.77993" lon="4.85343">
        <ele>116.59999847412</ele>
        <time>2024-05-21T12:52:11.000Z</time>
      </trkpt>
      <trkpt lat="44.77987" lon="4.85339">
        <ele>116.59999847412</ele>
        <time>2024-05-21T12:52:12.000Z</time>
      </trkpt>
      <trkpt lat="44.77984" lon="4.85337">
        <ele>116.59999847412</ele>
        <time>2024-05-21T12:52:13.000Z</time>
      </trkpt>
      <trkpt lat="44.77979" lon="4.85332">
        <ele>116.59999847412</ele>
        <time>2024-05-21T12:52:14.000Z</time>
      </trkpt>
      <trkpt lat="44.77974" lon="4.85328">
        <ele>116.59999847412</ele>
        <time>2024-05-21T12:52:15.000Z</time>
      </trkpt>
      <trkpt lat="44.77971" lon="4.85325">
        <ele>116.59999847412</ele>
        <time>2024-05-21T12:52:16.000Z</time>
      </trkpt>
      <trkpt lat="44.77965" lon="4.8532">
        <ele>116.59999847412</ele>
        <time>2024-05-21T12:52:17.000Z</time>
      </trkpt>
      <trkpt lat="44.77961" lon="4.85316">
        <ele>116.59999847412</ele>
        <time>2024-05-21T12:52:18.000Z</time>
      </trkpt>
      <trkpt lat="44.77957" lon="4.85313">
        <ele>116.40000152588</ele>
        <time>2024-05-21T12:52:19.000Z</time>
      </trkpt>
      <trkpt lat="44.77951" lon="4.85308">
        <ele>116.40000152588</ele>
        <time>2024-05-21T12:52:20.000Z</time>
      </trkpt>
      <trkpt lat="44.77947" lon="4.85303">
        <ele>116.40000152588</ele>
        <time>2024-05-21T12:52:21.000Z</time>
      </trkpt>
      <trkpt lat="44.77943" lon="4.853">
        <ele>116.40000152588</ele>
        <time>2024-05-21T12:52:22.000Z</time>
      </trkpt>
      <trkpt lat="44.77937" lon="4.85295">
        <ele>116.19999694824</ele>
        <time>2024-05-21T12:52:23.000Z</time>
      </trkpt>
      <trkpt lat="44.77932" lon="4.85291">
        <ele>116</ele>
        <time>2024-05-21T12:52:24.000Z</time>
      </trkpt>
      <trkpt lat="44.77927" lon="4.85286">
        <ele>116</ele>
        <time>2024-05-21T12:52:25.000Z</time>
      </trkpt>
      <trkpt lat="44.77921" lon="4.85281">
        <ele>116</ele>
        <time>2024-05-21T12:52:26.000Z</time>
      </trkpt>
      <trkpt lat="44.77917" lon="4.85277">
        <ele>116</ele>
        <time>2024-05-21T12:52:27.000Z</time>
      </trkpt>
      <trkpt lat="44.77912" lon="4.85273">
        <ele>116</ele>
        <time>2024-05-21T12:52:28.000Z</time>
      </trkpt>
      <trkpt lat="44.77906" lon="4.85268">
        <ele>115.80000305176</ele>
        <time>2024-05-21T12:52:29.000Z</time>
      </trkpt>
      <trkpt lat="44.77901" lon="4.85263">
        <ele>115.80000305176</ele>
        <time>2024-05-21T12:52:30.000Z</time>
      </trkpt>
      <trkpt lat="44.77897" lon="4.85259">
        <ele>115.80000305176</ele>
        <time>2024-05-21T12:52:31.000Z</time>
      </trkpt>
      <trkpt lat="44.77891" lon="4.85253">
        <ele>115.59999847412</ele>
        <time>2024-05-21T12:52:32.000Z</time>
      </trkpt>
      <trkpt lat="44.77886" lon="4.85248">
        <ele>115.40000152588</ele>
        <time>2024-05-21T12:52:33.000Z</time>
      </trkpt>
      <trkpt lat="44.77882" lon="4.85245">
        <ele>115.40000152588</ele>
        <time>2024-05-21T12:52:34.000Z</time>
      </trkpt>
      <trkpt lat="44.77875" lon="4.85239">
        <ele>115.40000152588</ele>
        <time>2024-05-21T12:52:35.000Z</time>
      </trkpt>
      <trkpt lat="44.7787" lon="4.85234">
        <ele>115.19999694824</ele>
        <time>2024-05-21T12:52:36.000Z</time>
      </trkpt>
      <trkpt lat="44.77866" lon="4.8523">
        <ele>115.19999694824</ele>
        <time>2024-05-21T12:52:37.000Z</time>
      </trkpt>
      <trkpt lat="44.77861" lon="4.85223">
        <ele>115</ele>
        <time>2024-05-21T12:52:38.000Z</time>
      </trkpt>
      <trkpt lat="44.77856" lon="4.85218">
        <ele>114.80000305176</ele>
        <time>2024-05-21T12:52:39.000Z</time>
      </trkpt>
      <trkpt lat="44.77851" lon="4.85211">
        <ele>114.59999847412</ele>
        <time>2024-05-21T12:52:40.000Z</time>
      </trkpt>
      <trkpt lat="44.77846" lon="4.85205">
        <ele>114.40000152588</ele>
        <time>2024-05-21T12:52:41.000Z</time>
      </trkpt>
      <trkpt lat="44.77841" lon="4.852">
        <ele>114.19999694824</ele>
        <time>2024-05-21T12:52:42.000Z</time>
      </trkpt>
      <trkpt lat="44.77837" lon="4.85195">
        <ele>114.19999694824</ele>
        <time>2024-05-21T12:52:43.000Z</time>
      </trkpt>
      <trkpt lat="44.77832" lon="4.85188">
        <ele>114.19999694824</ele>
        <time>2024-05-21T12:52:44.000Z</time>
      </trkpt>
      <trkpt lat="44.77829" lon="4.85183">
        <ele>114</ele>
        <time>2024-05-21T12:52:45.000Z</time>
      </trkpt>
      <trkpt lat="44.77825" lon="4.85177">
        <ele>114</ele>
        <time>2024-05-21T12:52:46.000Z</time>
      </trkpt>
      <trkpt lat="44.7782" lon="4.85172">
        <ele>113.80000305176</ele>
        <time>2024-05-21T12:52:47.000Z</time>
      </trkpt>
      <trkpt lat="44.77814" lon="4.85165">
        <ele>113.59999847412</ele>
        <time>2024-05-21T12:52:48.000Z</time>
      </trkpt>
      <trkpt lat="44.7781" lon="4.85161">
        <ele>113.40000152588</ele>
        <time>2024-05-21T12:52:49.000Z</time>
      </trkpt>
      <trkpt lat="44.77805" lon="4.85154">
        <ele>113.40000152588</ele>
        <time>2024-05-21T12:52:50.000Z</time>
      </trkpt>
      <trkpt lat="44.778" lon="4.85148">
        <ele>113.40000152588</ele>
        <time>2024-05-21T12:52:51.000Z</time>
      </trkpt>
      <trkpt lat="44.77796" lon="4.85142">
        <ele>113.40000152588</ele>
        <time>2024-05-21T12:52:52.000Z</time>
      </trkpt>
      <trkpt lat="44.77792" lon="4.85136">
        <ele>113.40000152588</ele>
        <time>2024-05-21T12:52:53.000Z</time>
      </trkpt>
      <trkpt lat="44.77787" lon="4.8513">
        <ele>113.59999847412</ele>
        <time>2024-05-21T12:52:54.000Z</time>
      </trkpt>
      <trkpt lat="44.77784" lon="4.85125">
        <ele>113.80000305176</ele>
        <time>2024-05-21T12:52:55.000Z</time>
      </trkpt>
      <trkpt lat="44.77778" lon="4.85119">
        <ele>113.80000305176</ele>
        <time>2024-05-21T12:52:56.000Z</time>
      </trkpt>
      <trkpt lat="44.77774" lon="4.85113">
        <ele>113.80000305176</ele>
        <time>2024-05-21T12:52:57.000Z</time>
      </trkpt>
      <trkpt lat="44.7777" lon="4.85108">
        <ele>114</ele>
        <time>2024-05-21T12:52:58.000Z</time>
      </trkpt>
      <trkpt lat="44.77765" lon="4.85101">
        <ele>114</ele>
        <time>2024-05-21T12:52:59.000Z</time>
      </trkpt>
      <trkpt lat="44.77761" lon="4.85095">
        <ele>114.19999694824</ele>
        <time>2024-05-21T12:53:00.000Z</time>
      </trkpt>
      <trkpt lat="44.77758" lon="4.85091">
        <ele>114.19999694824</ele>
        <time>2024-05-21T12:53:01.000Z</time>
      </trkpt>
      <trkpt lat="44.77752" lon="4.85084">
        <ele>114.19999694824</ele>
        <time>2024-05-21T12:53:02.000Z</time>
      </trkpt>
      <trkpt lat="44.77748" lon="4.8508">
        <ele>114.19999694824</ele>
        <time>2024-05-21T12:53:03.000Z</time>
      </trkpt>
      <trkpt lat="44.77743" lon="4.85074">
        <ele>114.19999694824</ele>
        <time>2024-05-21T12:53:04.000Z</time>
      </trkpt>
      <trkpt lat="44.77738" lon="4.85067">
        <ele>114</ele>
        <time>2024-05-21T12:53:05.000Z</time>
      </trkpt>
      <trkpt lat="44.77734" lon="4.85062">
        <ele>114</ele>
        <time>2024-05-21T12:53:06.000Z</time>
      </trkpt>
      <trkpt lat="44.7773" lon="4.85056">
        <ele>114</ele>
        <time>2024-05-21T12:53:07.000Z</time>
      </trkpt>
      <trkpt lat="44.77725" lon="4.85049">
        <ele>114</ele>
        <time>2024-05-21T12:53:08.000Z</time>
      </trkpt>
      <trkpt lat="44.7772" lon="4.85043">
        <ele>114</ele>
        <time>2024-05-21T12:53:09.000Z</time>
      </trkpt>
      <trkpt lat="44.77716" lon="4.85037">
        <ele>114</ele>
        <time>2024-05-21T12:53:10.000Z</time>
      </trkpt>
      <trkpt lat="44.77712" lon="4.85032">
        <ele>114.19999694824</ele>
        <time>2024-05-21T12:53:11.000Z</time>
      </trkpt>
      <trkpt lat="44.77708" lon="4.85026">
        <ele>114.19999694824</ele>
        <time>2024-05-21T12:53:12.000Z</time>
      </trkpt>
      <trkpt lat="44.77704" lon="4.85019">
        <ele>114.19999694824</ele>
        <time>2024-05-21T12:53:13.000Z</time>
      </trkpt>
      <trkpt lat="44.777" lon="4.85013">
        <ele>114.19999694824</ele>
        <time>2024-05-21T12:53:14.000Z</time>
      </trkpt>
      <trkpt lat="44.77695" lon="4.85007">
        <ele>114.40000152588</ele>
        <time>2024-05-21T12:53:15.000Z</time>
      </trkpt>
      <trkpt lat="44.77691" lon="4.85001">
        <ele>114.59999847412</ele>
        <time>2024-05-21T12:53:16.000Z</time>
      </trkpt>
      <trkpt lat="44.77686" lon="4.84996">
        <ele>114.59999847412</ele>
        <time>2024-05-21T12:53:17.000Z</time>
      </trkpt>
      <trkpt lat="44.77682" lon="4.84991">
        <ele>114.59999847412</ele>
        <time>2024-05-21T12:53:18.000Z</time>
      </trkpt>
      <trkpt lat="44.77678" lon="4.84986">
        <ele>114.80000305176</ele>
        <time>2024-05-21T12:53:19.000Z</time>
      </trkpt>
      <trkpt lat="44.77673" lon="4.8498">
        <ele>115</ele>
        <time>2024-05-21T12:53:20.000Z</time>
      </trkpt>
      <trkpt lat="44.77669" lon="4.84975">
        <ele>115</ele>
        <time>2024-05-21T12:53:21.000Z</time>
      </trkpt>
      <trkpt lat="44.77666" lon="4.84971">
        <ele>115.19999694824</ele>
        <time>2024-05-21T12:53:22.000Z</time>
      </trkpt>
      <trkpt lat="44.77661" lon="4.84966">
        <ele>115.40000152588</ele>
        <time>2024-05-21T12:53:23.000Z</time>
      </trkpt>
      <trkpt lat="44.77656" lon="4.8496">
        <ele>115.59999847412</ele>
        <time>2024-05-21T12:53:24.000Z</time>
      </trkpt>
      <trkpt lat="44.77653" lon="4.84956">
        <ele>115.59999847412</ele>
        <time>2024-05-21T12:53:25.000Z</time>
      </trkpt>
      <trkpt lat="44.77649" lon="4.84952">
        <ele>115.80000305176</ele>
        <time>2024-05-21T12:53:26.000Z</time>
      </trkpt>
      <trkpt lat="44.77645" lon="4.84947">
        <ele>115.80000305176</ele>
        <time>2024-05-21T12:53:27.000Z</time>
      </trkpt>
      <trkpt lat="44.77641" lon="4.84944">
        <ele>115.80000305176</ele>
        <time>2024-05-21T12:53:28.000Z</time>
      </trkpt>
      <trkpt lat="44.77637" lon="4.8494">
        <ele>116</ele>
        <time>2024-05-21T12:53:29.000Z</time>
      </trkpt>
      <trkpt lat="44.77633" lon="4.84936">
        <ele>116.40000152588</ele>
        <time>2024-05-21T12:53:30.000Z</time>
      </trkpt>
      <trkpt lat="44.77629" lon="4.84932">
        <ele>116.59999847412</ele>
        <time>2024-05-21T12:53:31.000Z</time>
      </trkpt>
      <trkpt lat="44.77626" lon="4.84929">
        <ele>116.59999847412</ele>
        <time>2024-05-21T12:53:32.000Z</time>
      </trkpt>
      <trkpt lat="44.77622" lon="4.84924">
        <ele>116.80000305176</ele>
        <time>2024-05-21T12:53:33.000Z</time>
      </trkpt>
      <trkpt lat="44.7762" lon="4.84922">
        <ele>117</ele>
        <time>2024-05-21T12:53:34.000Z</time>
      </trkpt>
      <trkpt lat="44.77616" lon="4.84919">
        <ele>117.19999694824</ele>
        <time>2024-05-21T12:53:35.000Z</time>
      </trkpt>
      <trkpt lat="44.77612" lon="4.84915">
        <ele>117.40000152588</ele>
        <time>2024-05-21T12:53:36.000Z</time>
      </trkpt>
      <trkpt lat="44.7761" lon="4.84913">
        <ele>117.40000152588</ele>
        <time>2024-05-21T12:53:37.000Z</time>
      </trkpt>
      <trkpt lat="44.77607" lon="4.8491">
        <ele>117.59999847412</ele>
        <time>2024-05-21T12:53:38.000Z</time>
      </trkpt>
      <trkpt lat="44.77603" lon="4.84907">
        <ele>117.59999847412</ele>
        <time>2024-05-21T12:53:39.000Z</time>
      </trkpt>
      <trkpt lat="44.776" lon="4.84904">
        <ele>117.80000305176</ele>
        <time>2024-05-21T12:53:40.000Z</time>
      </trkpt>
      <trkpt lat="44.77597" lon="4.84902">
        <ele>117.80000305176</ele>
        <time>2024-05-21T12:53:41.000Z</time>
      </trkpt>
      <trkpt lat="44.77593" lon="4.84899">
        <ele>118</ele>
        <time>2024-05-21T12:53:42.000Z</time>
      </trkpt>
      <trkpt lat="44.77591" lon="4.84897">
        <ele>118.19999694824</ele>
        <time>2024-05-21T12:53:43.000Z</time>
      </trkpt>
      <trkpt lat="44.77587" lon="4.84896">
        <ele>118.40000152588</ele>
        <time>2024-05-21T12:53:44.000Z</time>
      </trkpt>
      <trkpt lat="44.77584" lon="4.84894">
        <ele>118.40000152588</ele>
        <time>2024-05-21T12:53:45.000Z</time>
      </trkpt>
      <trkpt lat="44.77582" lon="4.84893">
        <ele>118.40000152588</ele>
        <time>2024-05-21T12:53:46.000Z</time>
      </trkpt>
      <trkpt lat="44.77579" lon="4.84891">
        <ele>118.80000305176</ele>
        <time>2024-05-21T12:53:47.000Z</time>
      </trkpt>
      <trkpt lat="44.77576" lon="4.84889">
        <ele>118.80000305176</ele>
        <time>2024-05-21T12:53:48.000Z</time>
      </trkpt>
      <trkpt lat="44.77574" lon="4.84888">
        <ele>119.19999694824</ele>
        <time>2024-05-21T12:53:49.000Z</time>
      </trkpt>
      <trkpt lat="44.77572" lon="4.84887">
        <ele>119.19999694824</ele>
        <time>2024-05-21T12:53:50.000Z</time>
      </trkpt>
      <trkpt lat="44.7757" lon="4.84885">
        <ele>119.40000152588</ele>
        <time>2024-05-21T12:53:51.000Z</time>
      </trkpt>
      <trkpt lat="44.77569" lon="4.84884">
        <ele>119.59999847412</ele>
        <time>2024-05-21T12:53:52.000Z</time>
      </trkpt>
      <trkpt lat="44.77567" lon="4.84883">
        <ele>119.80000305176</ele>
        <time>2024-05-21T12:53:53.000Z</time>
      </trkpt>
      <trkpt lat="44.77565" lon="4.84883">
        <ele>120</ele>
        <time>2024-05-21T12:53:54.000Z</time>
      </trkpt>
      <trkpt lat="44.77563" lon="4.84883">
        <ele>120</ele>
        <time>2024-05-21T12:53:55.000Z</time>
      </trkpt>
      <trkpt lat="44.77561" lon="4.84883">
        <ele>120.19999694824</ele>
        <time>2024-05-21T12:53:56.000Z</time>
      </trkpt>
      <trkpt lat="44.77558" lon="4.84884">
        <ele>120.40000152588</ele>
        <time>2024-05-21T12:53:57.000Z</time>
      </trkpt>
      <trkpt lat="44.77557" lon="4.84885">
        <ele>120.40000152588</ele>
        <time>2024-05-21T12:53:58.000Z</time>
      </trkpt>
      <trkpt lat="44.77555" lon="4.84886">
        <ele>120.40000152588</ele>
        <time>2024-05-21T12:53:59.000Z</time>
      </trkpt>
      <trkpt lat="44.77553" lon="4.84886">
        <ele>120.40000152588</ele>
        <time>2024-05-21T12:54:00.000Z</time>
      </trkpt>
      <trkpt lat="44.77552" lon="4.84887">
        <ele>120.59999847412</ele>
        <time>2024-05-21T12:54:01.000Z</time>
      </trkpt>
      <trkpt lat="44.7755" lon="4.84887">
        <ele>120.80000305176</ele>
        <time>2024-05-21T12:54:02.000Z</time>
      </trkpt>
      <trkpt lat="44.77549" lon="4.84887">
        <ele>121</ele>
        <time>2024-05-21T12:54:03.000Z</time>
      </trkpt>
      <trkpt lat="44.77548" lon="4.84886">
        <ele>121.19999694824</ele>
        <time>2024-05-21T12:54:04.000Z</time>
      </trkpt>
      <trkpt lat="44.77546" lon="4.84886">
        <ele>121.40000152588</ele>
        <time>2024-05-21T12:54:05.000Z</time>
      </trkpt>
      <trkpt lat="44.77545" lon="4.84884">
        <ele>121.59999847412</ele>
        <time>2024-05-21T12:54:06.000Z</time>
      </trkpt>
      <trkpt lat="44.77543" lon="4.84883">
        <ele>121.59999847412</ele>
        <time>2024-05-21T12:54:07.000Z</time>
      </trkpt>
      <trkpt lat="44.77541" lon="4.84882">
        <ele>121.59999847412</ele>
        <time>2024-05-21T12:54:08.000Z</time>
      </trkpt>
      <trkpt lat="44.7754" lon="4.84879">
        <ele>121.80000305176</ele>
        <time>2024-05-21T12:54:09.000Z</time>
      </trkpt>
      <trkpt lat="44.77538" lon="4.84878">
        <ele>121.80000305176</ele>
        <time>2024-05-21T12:54:10.000Z</time>
      </trkpt>
      <trkpt lat="44.77536" lon="4.84876">
        <ele>122</ele>
        <time>2024-05-21T12:54:11.000Z</time>
      </trkpt>
      <trkpt lat="44.77534" lon="4.84875">
        <ele>122.19999694824</ele>
        <time>2024-05-21T12:54:12.000Z</time>
      </trkpt>
      <trkpt lat="44.77531" lon="4.84873">
        <ele>122.40000152588</ele>
        <time>2024-05-21T12:54:13.000Z</time>
      </trkpt>
      <trkpt lat="44.77529" lon="4.84872">
        <ele>122.59999847412</ele>
        <time>2024-05-21T12:54:14.000Z</time>
      </trkpt>
      <trkpt lat="44.77526" lon="4.84871">
        <ele>122.80000305176</ele>
        <time>2024-05-21T12:54:15.000Z</time>
      </trkpt>
      <trkpt lat="44.77525" lon="4.8487">
        <ele>123</ele>
        <time>2024-05-21T12:54:16.000Z</time>
      </trkpt>
      <trkpt lat="44.77522" lon="4.84868">
        <ele>123.19999694824</ele>
        <time>2024-05-21T12:54:17.000Z</time>
      </trkpt>
      <trkpt lat="44.7752" lon="4.84866">
        <ele>123.59999847412</ele>
        <time>2024-05-21T12:54:18.000Z</time>
      </trkpt>
      <trkpt lat="44.77518" lon="4.84866">
        <ele>123.80000305176</ele>
        <time>2024-05-21T12:54:19.000Z</time>
      </trkpt>
      <trkpt lat="44.77516" lon="4.84865">
        <ele>124</ele>
        <time>2024-05-21T12:54:20.000Z</time>
      </trkpt>
      <trkpt lat="44.77514" lon="4.84863">
        <ele>124.40000152588</ele>
        <time>2024-05-21T12:54:21.000Z</time>
      </trkpt>
      <trkpt lat="44.77512" lon="4.84862">
        <ele>124.59999847412</ele>
        <time>2024-05-21T12:54:22.000Z</time>
      </trkpt>
      <trkpt lat="44.7751" lon="4.8486">
        <ele>124.80000305176</ele>
        <time>2024-05-21T12:54:23.000Z</time>
      </trkpt>
      <trkpt lat="44.77508" lon="4.84859">
        <ele>125.19999694824</ele>
        <time>2024-05-21T12:54:24.000Z</time>
      </trkpt>
      <trkpt lat="44.77506" lon="4.84858">
        <ele>125.40000152588</ele>
        <time>2024-05-21T12:54:25.000Z</time>
      </trkpt>
      <trkpt lat="44.77504" lon="4.84856">
        <ele>125.59999847412</ele>
        <time>2024-05-21T12:54:26.000Z</time>
      </trkpt>
      <trkpt lat="44.77501" lon="4.84854">
        <ele>126</ele>
        <time>2024-05-21T12:54:27.000Z</time>
      </trkpt>
      <trkpt lat="44.77499" lon="4.84852">
        <ele>126.19999694824</ele>
        <time>2024-05-21T12:54:28.000Z</time>
      </trkpt>
      <trkpt lat="44.77497" lon="4.84851">
        <ele>126.59999847412</ele>
        <time>2024-05-21T12:54:29.000Z</time>
      </trkpt>
      <trkpt lat="44.77494" lon="4.84849">
        <ele>126.80000305176</ele>
        <time>2024-05-21T12:54:30.000Z</time>
      </trkpt>
      <trkpt lat="44.77493" lon="4.84847">
        <ele>127</ele>
        <time>2024-05-21T12:54:31.000Z</time>
      </trkpt>
      <trkpt lat="44.7749" lon="4.84846">
        <ele>127.19999694824</ele>
        <time>2024-05-21T12:54:32.000Z</time>
      </trkpt>
      <trkpt lat="44.77488" lon="4.84844">
        <ele>127.59999847412</ele>
        <time>2024-05-21T12:54:33.000Z</time>
      </trkpt>
      <trkpt lat="44.77486" lon="4.84843">
        <ele>127.59999847412</ele>
        <time>2024-05-21T12:54:34.000Z</time>
      </trkpt>
      <trkpt lat="44.77484" lon="4.84842">
        <ele>127.80000305176</ele>
        <time>2024-05-21T12:54:35.000Z</time>
      </trkpt>
      <trkpt lat="44.77482" lon="4.84841">
        <ele>128.19999694824</ele>
        <time>2024-05-21T12:54:36.000Z</time>
      </trkpt>
      <trkpt lat="44.7748" lon="4.8484">
        <ele>128.39999389648</ele>
        <time>2024-05-21T12:54:37.000Z</time>
      </trkpt>
      <trkpt lat="44.77477" lon="4.84839">
        <ele>128.60000610352</ele>
        <time>2024-05-21T12:54:38.000Z</time>
      </trkpt>
      <trkpt lat="44.77475" lon="4.84838">
        <ele>129</ele>
        <time>2024-05-21T12:54:39.000Z</time>
      </trkpt>
      <trkpt lat="44.77473" lon="4.84837">
        <ele>129</ele>
        <time>2024-05-21T12:54:40.000Z</time>
      </trkpt>
      <trkpt lat="44.77471" lon="4.84835">
        <ele>129.19999694824</ele>
        <time>2024-05-21T12:54:41.000Z</time>
      </trkpt>
      <trkpt lat="44.77468" lon="4.84834">
        <ele>129.39999389648</ele>
        <time>2024-05-21T12:54:42.000Z</time>
      </trkpt>
      <trkpt lat="44.77466" lon="4.84833">
        <ele>129.39999389648</ele>
        <time>2024-05-21T12:54:43.000Z</time>
      </trkpt>
      <trkpt lat="44.77463" lon="4.84832">
        <ele>129.80000305176</ele>
        <time>2024-05-21T12:54:44.000Z</time>
      </trkpt>
      <trkpt lat="44.7746" lon="4.8483">
        <ele>129.80000305176</ele>
        <time>2024-05-21T12:54:45.000Z</time>
      </trkpt>
      <trkpt lat="44.77458" lon="4.84829">
        <ele>130.19999694824</ele>
        <time>2024-05-21T12:54:46.000Z</time>
      </trkpt>
      <trkpt lat="44.77455" lon="4.84828">
        <ele>130.19999694824</ele>
        <time>2024-05-21T12:54:47.000Z</time>
      </trkpt>
      <trkpt lat="44.77453" lon="4.84827">
        <ele>130.60000610352</ele>
        <time>2024-05-21T12:54:48.000Z</time>
      </trkpt>
      <trkpt lat="44.77449" lon="4.84826">
        <ele>130.80000305176</ele>
        <time>2024-05-21T12:54:49.000Z</time>
      </trkpt>
      <trkpt lat="44.77447" lon="4.84825">
        <ele>130.80000305176</ele>
        <time>2024-05-21T12:54:50.000Z</time>
      </trkpt>
      <trkpt lat="44.77444" lon="4.84824">
        <ele>131</ele>
        <time>2024-05-21T12:54:51.000Z</time>
      </trkpt>
      <trkpt lat="44.77441" lon="4.84823">
        <ele>131</ele>
        <time>2024-05-21T12:54:52.000Z</time>
      </trkpt>
      <trkpt lat="44.77439" lon="4.84822">
        <ele>131.19999694824</ele>
        <time>2024-05-21T12:54:53.000Z</time>
      </trkpt>
      <trkpt lat="44.77436" lon="4.8482">
        <ele>131.60000610352</ele>
        <time>2024-05-21T12:54:54.000Z</time>
      </trkpt>
      <trkpt lat="44.77433" lon="4.84819">
        <ele>131.60000610352</ele>
        <time>2024-05-21T12:54:55.000Z</time>
      </trkpt>
      <trkpt lat="44.7743" lon="4.84817">
        <ele>132</ele>
        <time>2024-05-21T12:54:56.000Z</time>
      </trkpt>
      <trkpt lat="44.77427" lon="4.84815">
        <ele>132</ele>
        <time>2024-05-21T12:54:57.000Z</time>
      </trkpt>
      <trkpt lat="44.77424" lon="4.84813">
        <ele>132</ele>
        <time>2024-05-21T12:54:58.000Z</time>
      </trkpt>
      <trkpt lat="44.77422" lon="4.84812">
        <ele>132.19999694824</ele>
        <time>2024-05-21T12:54:59.000Z</time>
      </trkpt>
      <trkpt lat="44.77419" lon="4.84809">
        <ele>132.19999694824</ele>
        <time>2024-05-21T12:55:00.000Z</time>
      </trkpt>
      <trkpt lat="44.77416" lon="4.84808">
        <ele>132.19999694824</ele>
        <time>2024-05-21T12:55:01.000Z</time>
      </trkpt>
      <trkpt lat="44.77413" lon="4.84805">
        <ele>132.19999694824</ele>
        <time>2024-05-21T12:55:02.000Z</time>
      </trkpt>
      <trkpt lat="44.77409" lon="4.84802">
        <ele>132.19999694824</ele>
        <time>2024-05-21T12:55:03.000Z</time>
      </trkpt>
      <trkpt lat="44.77406" lon="4.848">
        <ele>132.19999694824</ele>
        <time>2024-05-21T12:55:04.000Z</time>
      </trkpt>
      <trkpt lat="44.77403" lon="4.84798">
        <ele>132.19999694824</ele>
        <time>2024-05-21T12:55:05.000Z</time>
      </trkpt>
      <trkpt lat="44.774" lon="4.84795">
        <ele>132.19999694824</ele>
        <time>2024-05-21T12:55:06.000Z</time>
      </trkpt>
      <trkpt lat="44.77397" lon="4.84793">
        <ele>132.39999389648</ele>
        <time>2024-05-21T12:55:07.000Z</time>
      </trkpt>
      <trkpt lat="44.77393" lon="4.84791">
        <ele>132.39999389648</ele>
        <time>2024-05-21T12:55:08.000Z</time>
      </trkpt>
      <trkpt lat="44.77389" lon="4.84788">
        <ele>132.39999389648</ele>
        <time>2024-05-21T12:55:09.000Z</time>
      </trkpt>
      <trkpt lat="44.77386" lon="4.84785">
        <ele>132.39999389648</ele>
        <time>2024-05-21T12:55:10.000Z</time>
      </trkpt>
      <trkpt lat="44.77383" lon="4.84783">
        <ele>132.39999389648</ele>
        <time>2024-05-21T12:55:11.000Z</time>
      </trkpt>
      <trkpt lat="44.77378" lon="4.8478">
        <ele>132.39999389648</ele>
        <time>2024-05-21T12:55:12.000Z</time>
      </trkpt>
      <trkpt lat="44.77376" lon="4.84779">
        <ele>132.39999389648</ele>
        <time>2024-05-21T12:55:13.000Z</time>
      </trkpt>
      <trkpt lat="44.77372" lon="4.84777">
        <ele>132.19999694824</ele>
        <time>2024-05-21T12:55:14.000Z</time>
      </trkpt>
      <trkpt lat="44.77368" lon="4.84775">
        <ele>132</ele>
        <time>2024-05-21T12:55:15.000Z</time>
      </trkpt>
      <trkpt lat="44.77364" lon="4.84774">
        <ele>131.80000305176</ele>
        <time>2024-05-21T12:55:16.000Z</time>
      </trkpt>
      <trkpt lat="44.7736" lon="4.84772">
        <ele>131.80000305176</ele>
        <time>2024-05-21T12:55:17.000Z</time>
      </trkpt>
      <trkpt lat="44.77356" lon="4.84771">
        <ele>131.80000305176</ele>
        <time>2024-05-21T12:55:18.000Z</time>
      </trkpt>
      <trkpt lat="44.7735" lon="4.8477">
        <ele>131.60000610352</ele>
        <time>2024-05-21T12:55:19.000Z</time>
      </trkpt>
      <trkpt lat="44.77346" lon="4.84769">
        <ele>131.39999389648</ele>
        <time>2024-05-21T12:55:20.000Z</time>
      </trkpt>
      <trkpt lat="44.77341" lon="4.84766">
        <ele>131.19999694824</ele>
        <time>2024-05-21T12:55:21.000Z</time>
      </trkpt>
      <trkpt lat="44.77337" lon="4.84762">
        <ele>130.80000305176</ele>
        <time>2024-05-21T12:55:22.000Z</time>
      </trkpt>
      <trkpt lat="44.77333" lon="4.84757">
        <ele>130.39999389648</ele>
        <time>2024-05-21T12:55:23.000Z</time>
      </trkpt>
      <trkpt lat="44.7733" lon="4.84753">
        <ele>129.39999389648</ele>
        <time>2024-05-21T12:55:24.000Z</time>
      </trkpt>
      <trkpt lat="44.77328" lon="4.84749">
        <ele>129.39999389648</ele>
        <time>2024-05-21T12:55:25.000Z</time>
      </trkpt>
      <trkpt lat="44.77326" lon="4.84747">
        <ele>129.39999389648</ele>
        <time>2024-05-21T12:55:26.000Z</time>
      </trkpt>
      <trkpt lat="44.77324" lon="4.84745">
        <ele>129.39999389648</ele>
        <time>2024-05-21T12:55:27.000Z</time>
      </trkpt>
      <trkpt lat="44.77322" lon="4.84742">
        <ele>130</ele>
        <time>2024-05-21T12:55:28.000Z</time>
      </trkpt>
      <trkpt lat="44.77321" lon="4.8474">
        <ele>130.39999389648</ele>
        <time>2024-05-21T12:55:29.000Z</time>
      </trkpt>
      <trkpt lat="44.77319" lon="4.84738">
        <ele>130.80000305176</ele>
        <time>2024-05-21T12:55:30.000Z</time>
      </trkpt>
      <trkpt lat="44.77317" lon="4.84735">
        <ele>131.19999694824</ele>
        <time>2024-05-21T12:55:31.000Z</time>
      </trkpt>
      <trkpt lat="44.77316" lon="4.84734">
        <ele>131.39999389648</ele>
        <time>2024-05-21T12:55:32.000Z</time>
      </trkpt>
      <trkpt lat="44.77315" lon="4.84732">
        <ele>131.80000305176</ele>
        <time>2024-05-21T12:55:33.000Z</time>
      </trkpt>
      <trkpt lat="44.77313" lon="4.8473">
        <ele>132</ele>
        <time>2024-05-21T12:55:34.000Z</time>
      </trkpt>
      <trkpt lat="44.77312" lon="4.84728">
        <ele>132.39999389648</ele>
        <time>2024-05-21T12:55:35.000Z</time>
      </trkpt>
      <trkpt lat="44.7731" lon="4.84726">
        <ele>132.60000610352</ele>
        <time>2024-05-21T12:55:36.000Z</time>
      </trkpt>
      <trkpt lat="44.77308" lon="4.84724">
        <ele>133</ele>
        <time>2024-05-21T12:55:37.000Z</time>
      </trkpt>
      <trkpt lat="44.77306" lon="4.84722">
        <ele>133.19999694824</ele>
        <time>2024-05-21T12:55:38.000Z</time>
      </trkpt>
      <trkpt lat="44.77305" lon="4.84721">
        <ele>133.60000610352</ele>
        <time>2024-05-21T12:55:39.000Z</time>
      </trkpt>
      <trkpt lat="44.77303" lon="4.84719">
        <ele>134</ele>
        <time>2024-05-21T12:55:40.000Z</time>
      </trkpt>
      <trkpt lat="44.77302" lon="4.84717">
        <ele>134.19999694824</ele>
        <time>2024-05-21T12:55:41.000Z</time>
      </trkpt>
      <trkpt lat="44.773" lon="4.84715">
        <ele>134.39999389648</ele>
        <time>2024-05-21T12:55:42.000Z</time>
      </trkpt>
      <trkpt lat="44.77298" lon="4.84712">
        <ele>134.60000610352</ele>
        <time>2024-05-21T12:55:43.000Z</time>
      </trkpt>
      <trkpt lat="44.77297" lon="4.84711">
        <ele>135</ele>
        <time>2024-05-21T12:55:44.000Z</time>
      </trkpt>
      <trkpt lat="44.77295" lon="4.84709">
        <ele>135.39999389648</ele>
        <time>2024-05-21T12:55:45.000Z</time>
      </trkpt>
      <trkpt lat="44.77293" lon="4.84707">
        <ele>135.80000305176</ele>
        <time>2024-05-21T12:55:46.000Z</time>
      </trkpt>
      <trkpt lat="44.77292" lon="4.84706">
        <ele>136.19999694824</ele>
        <time>2024-05-21T12:55:47.000Z</time>
      </trkpt>
      <trkpt lat="44.7729" lon="4.84704">
        <ele>136.39999389648</ele>
        <time>2024-05-21T12:55:48.000Z</time>
      </trkpt>
      <trkpt lat="44.77288" lon="4.84702">
        <ele>136.80000305176</ele>
        <time>2024-05-21T12:55:49.000Z</time>
      </trkpt>
      <trkpt lat="44.77287" lon="4.847">
        <ele>137</ele>
        <time>2024-05-21T12:55:50.000Z</time>
      </trkpt>
      <trkpt lat="44.77285" lon="4.84699">
        <ele>137.39999389648</ele>
        <time>2024-05-21T12:55:51.000Z</time>
      </trkpt>
      <trkpt lat="44.77283" lon="4.84697">
        <ele>137.60000610352</ele>
        <time>2024-05-21T12:55:52.000Z</time>
      </trkpt>
      <trkpt lat="44.77281" lon="4.84695">
        <ele>137.80000305176</ele>
        <time>2024-05-21T12:55:53.000Z</time>
      </trkpt>
      <trkpt lat="44.7728" lon="4.84693">
        <ele>138.19999694824</ele>
        <time>2024-05-21T12:55:54.000Z</time>
      </trkpt>
      <trkpt lat="44.77278" lon="4.84691">
        <ele>138.39999389648</ele>
        <time>2024-05-21T12:55:55.000Z</time>
      </trkpt>
      <trkpt lat="44.77277" lon="4.8469">
        <ele>138.80000305176</ele>
        <time>2024-05-21T12:55:56.000Z</time>
      </trkpt>
      <trkpt lat="44.77275" lon="4.84688">
        <ele>139</ele>
        <time>2024-05-21T12:55:57.000Z</time>
      </trkpt>
      <trkpt lat="44.77274" lon="4.84686">
        <ele>139.39999389648</ele>
        <time>2024-05-21T12:55:58.000Z</time>
      </trkpt>
      <trkpt lat="44.77272" lon="4.84684">
        <ele>139.60000610352</ele>
        <time>2024-05-21T12:55:59.000Z</time>
      </trkpt>
      <trkpt lat="44.7727" lon="4.84682">
        <ele>140</ele>
        <time>2024-05-21T12:56:00.000Z</time>
      </trkpt>
      <trkpt lat="44.77268" lon="4.8468">
        <ele>140.19999694824</ele>
        <time>2024-05-21T12:56:01.000Z</time>
      </trkpt>
      <trkpt lat="44.77266" lon="4.84679">
        <ele>140.60000610352</ele>
        <time>2024-05-21T12:56:02.000Z</time>
      </trkpt>
      <trkpt lat="44.77264" lon="4.84677">
        <ele>140.80000305176</ele>
        <time>2024-05-21T12:56:03.000Z</time>
      </trkpt>
      <trkpt lat="44.77262" lon="4.84675">
        <ele>141.19999694824</ele>
        <time>2024-05-21T12:56:04.000Z</time>
      </trkpt>
      <trkpt lat="44.7726" lon="4.84673">
        <ele>141.39999389648</ele>
        <time>2024-05-21T12:56:05.000Z</time>
      </trkpt>
      <trkpt lat="44.77259" lon="4.84672">
        <ele>141.60000610352</ele>
        <time>2024-05-21T12:56:06.000Z</time>
      </trkpt>
      <trkpt lat="44.77257" lon="4.8467">
        <ele>142</ele>
        <time>2024-05-21T12:56:07.000Z</time>
      </trkpt>
      <trkpt lat="44.77256" lon="4.84668">
        <ele>142.19999694824</ele>
        <time>2024-05-21T12:56:08.000Z</time>
      </trkpt>
      <trkpt lat="44.77255" lon="4.84666">
        <ele>142.39999389648</ele>
        <time>2024-05-21T12:56:09.000Z</time>
      </trkpt>
      <trkpt lat="44.77253" lon="4.84664">
        <ele>142.80000305176</ele>
        <time>2024-05-21T12:56:10.000Z</time>
      </trkpt>
      <trkpt lat="44.77252" lon="4.84662">
        <ele>143.19999694824</ele>
        <time>2024-05-21T12:56:11.000Z</time>
      </trkpt>
      <trkpt lat="44.7725" lon="4.8466">
        <ele>143.39999389648</ele>
        <time>2024-05-21T12:56:12.000Z</time>
      </trkpt>
      <trkpt lat="44.77248" lon="4.84658">
        <ele>143.60000610352</ele>
        <time>2024-05-21T12:56:13.000Z</time>
      </trkpt>
      <trkpt lat="44.77247" lon="4.84657">
        <ele>144</ele>
        <time>2024-05-21T12:56:14.000Z</time>
      </trkpt>
      <trkpt lat="44.77245" lon="4.84655">
        <ele>144.19999694824</ele>
        <time>2024-05-21T12:56:15.000Z</time>
      </trkpt>
      <trkpt lat="44.77243" lon="4.84653">
        <ele>144.60000610352</ele>
        <time>2024-05-21T12:56:16.000Z</time>
      </trkpt>
      <trkpt lat="44.77242" lon="4.84652">
        <ele>145</ele>
        <time>2024-05-21T12:56:17.000Z</time>
      </trkpt>
      <trkpt lat="44.77241" lon="4.8465">
        <ele>145.39999389648</ele>
        <time>2024-05-21T12:56:18.000Z</time>
      </trkpt>
      <trkpt lat="44.7724" lon="4.84648">
        <ele>145.80000305176</ele>
        <time>2024-05-21T12:56:19.000Z</time>
      </trkpt>
      <trkpt lat="44.77239" lon="4.84646">
        <ele>146</ele>
        <time>2024-05-21T12:56:20.000Z</time>
      </trkpt>
      <trkpt lat="44.77238" lon="4.84643">
        <ele>146.39999389648</ele>
        <time>2024-05-21T12:56:21.000Z</time>
      </trkpt>
      <trkpt lat="44.77237" lon="4.8464">
        <ele>146.80000305176</ele>
        <time>2024-05-21T12:56:22.000Z</time>
      </trkpt>
      <trkpt lat="44.77237" lon="4.84638">
        <ele>147</ele>
        <time>2024-05-21T12:56:23.000Z</time>
      </trkpt>
      <trkpt lat="44.77237" lon="4.84634">
        <ele>147.39999389648</ele>
        <time>2024-05-21T12:56:24.000Z</time>
      </trkpt>
      <trkpt lat="44.77236" lon="4.84632">
        <ele>147.80000305176</ele>
        <time>2024-05-21T12:56:25.000Z</time>
      </trkpt>
      <trkpt lat="44.77236" lon="4.8463">
        <ele>148.19999694824</ele>
        <time>2024-05-21T12:56:26.000Z</time>
      </trkpt>
      <trkpt lat="44.77235" lon="4.84626">
        <ele>148.60000610352</ele>
        <time>2024-05-21T12:56:27.000Z</time>
      </trkpt>
      <trkpt lat="44.77234" lon="4.84624">
        <ele>148.60000610352</ele>
        <time>2024-05-21T12:56:28.000Z</time>
      </trkpt>
      <trkpt lat="44.77233" lon="4.84621">
        <ele>149</ele>
        <time>2024-05-21T12:56:29.000Z</time>
      </trkpt>
      <trkpt lat="44.77231" lon="4.84618">
        <ele>149</ele>
        <time>2024-05-21T12:56:30.000Z</time>
      </trkpt>
      <trkpt lat="44.7723" lon="4.84616">
        <ele>149.19999694824</ele>
        <time>2024-05-21T12:56:31.000Z</time>
      </trkpt>
      <trkpt lat="44.77229" lon="4.84614">
        <ele>149.39999389648</ele>
        <time>2024-05-21T12:56:32.000Z</time>
      </trkpt>
      <trkpt lat="44.77228" lon="4.84612">
        <ele>149.60000610352</ele>
        <time>2024-05-21T12:56:33.000Z</time>
      </trkpt>
      <trkpt lat="44.77226" lon="4.8461">
        <ele>149.80000305176</ele>
        <time>2024-05-21T12:56:34.000Z</time>
      </trkpt>
      <trkpt lat="44.77225" lon="4.84608">
        <ele>150</ele>
        <time>2024-05-21T12:56:35.000Z</time>
      </trkpt>
      <trkpt lat="44.77224" lon="4.84606">
        <ele>150.39999389648</ele>
        <time>2024-05-21T12:56:36.000Z</time>
      </trkpt>
      <trkpt lat="44.77222" lon="4.84605">
        <ele>150.60000610352</ele>
        <time>2024-05-21T12:56:37.000Z</time>
      </trkpt>
      <trkpt lat="44.77221" lon="4.84603">
        <ele>151</ele>
        <time>2024-05-21T12:56:38.000Z</time>
      </trkpt>
      <trkpt lat="44.77219" lon="4.84601">
        <ele>151.19999694824</ele>
        <time>2024-05-21T12:56:39.000Z</time>
      </trkpt>
      <trkpt lat="44.77218" lon="4.84599">
        <ele>151.39999389648</ele>
        <time>2024-05-21T12:56:40.000Z</time>
      </trkpt>
      <trkpt lat="44.77217" lon="4.84597">
        <ele>151.60000610352</ele>
        <time>2024-05-21T12:56:41.000Z</time>
      </trkpt>
      <trkpt lat="44.77214" lon="4.84595">
        <ele>151.80000305176</ele>
        <time>2024-05-21T12:56:42.000Z</time>
      </trkpt>
      <trkpt lat="44.77213" lon="4.84593">
        <ele>152</ele>
        <time>2024-05-21T12:56:43.000Z</time>
      </trkpt>
      <trkpt lat="44.77212" lon="4.84591">
        <ele>152.19999694824</ele>
        <time>2024-05-21T12:56:44.000Z</time>
      </trkpt>
      <trkpt lat="44.77211" lon="4.84589">
        <ele>152.19999694824</ele>
        <time>2024-05-21T12:56:45.000Z</time>
      </trkpt>
      <trkpt lat="44.7721" lon="4.84588">
        <ele>152.39999389648</ele>
        <time>2024-05-21T12:56:46.000Z</time>
      </trkpt>
      <trkpt lat="44.77209" lon="4.84586">
        <ele>152.60000610352</ele>
        <time>2024-05-21T12:56:47.000Z</time>
      </trkpt>
      <trkpt lat="44.77207" lon="4.84583">
        <ele>152.80000305176</ele>
        <time>2024-05-21T12:56:48.000Z</time>
      </trkpt>
      <trkpt lat="44.77204" lon="4.84582">
        <ele>153</ele>
        <time>2024-05-21T12:56:49.000Z</time>
      </trkpt>
      <trkpt lat="44.77203" lon="4.84581">
        <ele>153.19999694824</ele>
        <time>2024-05-21T12:56:50.000Z</time>
      </trkpt>
      <trkpt lat="44.772" lon="4.84578">
        <ele>153.39999389648</ele>
        <time>2024-05-21T12:56:51.000Z</time>
      </trkpt>
      <trkpt lat="44.77198" lon="4.84576">
        <ele>153.39999389648</ele>
        <time>2024-05-21T12:56:52.000Z</time>
      </trkpt>
      <trkpt lat="44.77196" lon="4.84573">
        <ele>153.39999389648</ele>
        <time>2024-05-21T12:56:53.000Z</time>
      </trkpt>
      <trkpt lat="44.77195" lon="4.84571">
        <ele>153.39999389648</ele>
        <time>2024-05-21T12:56:54.000Z</time>
      </trkpt>
      <trkpt lat="44.77193" lon="4.84569">
        <ele>153.39999389648</ele>
        <time>2024-05-21T12:56:55.000Z</time>
      </trkpt>
      <trkpt lat="44.77191" lon="4.84566">
        <ele>153.39999389648</ele>
        <time>2024-05-21T12:56:56.000Z</time>
      </trkpt>
      <trkpt lat="44.77187" lon="4.84563">
        <ele>153.39999389648</ele>
        <time>2024-05-21T12:56:57.000Z</time>
      </trkpt>
      <trkpt lat="44.77184" lon="4.8456">
        <ele>153.39999389648</ele>
        <time>2024-05-21T12:56:58.000Z</time>
      </trkpt>
      <trkpt lat="44.77181" lon="4.84558">
        <ele>153.39999389648</ele>
        <time>2024-05-21T12:56:59.000Z</time>
      </trkpt>
      <trkpt lat="44.77177" lon="4.84554">
        <ele>153.39999389648</ele>
        <time>2024-05-21T12:57:00.000Z</time>
      </trkpt>
      <trkpt lat="44.77175" lon="4.84551">
        <ele>153.60000610352</ele>
        <time>2024-05-21T12:57:01.000Z</time>
      </trkpt>
      <trkpt lat="44.77173" lon="4.84548">
        <ele>153.60000610352</ele>
        <time>2024-05-21T12:57:02.000Z</time>
      </trkpt>
      <trkpt lat="44.77171" lon="4.84544">
        <ele>153.80000305176</ele>
        <time>2024-05-21T12:57:03.000Z</time>
      </trkpt>
      <trkpt lat="44.77167" lon="4.8454">
        <ele>153.80000305176</ele>
        <time>2024-05-21T12:57:04.000Z</time>
      </trkpt>
      <trkpt lat="44.77165" lon="4.84537">
        <ele>154</ele>
        <time>2024-05-21T12:57:05.000Z</time>
      </trkpt>
      <trkpt lat="44.77162" lon="4.84534">
        <ele>154</ele>
        <time>2024-05-21T12:57:06.000Z</time>
      </trkpt>
      <trkpt lat="44.77159" lon="4.84532">
        <ele>154.19999694824</ele>
        <time>2024-05-21T12:57:07.000Z</time>
      </trkpt>
      <trkpt lat="44.77157" lon="4.8453">
        <ele>154.19999694824</ele>
        <time>2024-05-21T12:57:08.000Z</time>
      </trkpt>
      <trkpt lat="44.77154" lon="4.84527">
        <ele>154.39999389648</ele>
        <time>2024-05-21T12:57:09.000Z</time>
      </trkpt>
      <trkpt lat="44.77152" lon="4.84525">
        <ele>154.39999389648</ele>
        <time>2024-05-21T12:57:10.000Z</time>
      </trkpt>
      <trkpt lat="44.7715" lon="4.84522">
        <ele>154.60000610352</ele>
        <time>2024-05-21T12:57:11.000Z</time>
      </trkpt>
      <trkpt lat="44.77148" lon="4.84519">
        <ele>154.80000305176</ele>
        <time>2024-05-21T12:57:12.000Z</time>
      </trkpt>
      <trkpt lat="44.77146" lon="4.84517">
        <ele>154.80000305176</ele>
        <time>2024-05-21T12:57:13.000Z</time>
      </trkpt>
      <trkpt lat="44.77144" lon="4.84515">
        <ele>155</ele>
        <time>2024-05-21T12:57:14.000Z</time>
      </trkpt>
      <trkpt lat="44.77142" lon="4.84512">
        <ele>155.19999694824</ele>
        <time>2024-05-21T12:57:15.000Z</time>
      </trkpt>
      <trkpt lat="44.77139" lon="4.8451">
        <ele>155.19999694824</ele>
        <time>2024-05-21T12:57:16.000Z</time>
      </trkpt>
      <trkpt lat="44.77138" lon="4.84508">
        <ele>155.19999694824</ele>
        <time>2024-05-21T12:57:17.000Z</time>
      </trkpt>
      <trkpt lat="44.77135" lon="4.84505">
        <ele>155.39999389648</ele>
        <time>2024-05-21T12:57:18.000Z</time>
      </trkpt>
      <trkpt lat="44.77132" lon="4.84502">
        <ele>155.39999389648</ele>
        <time>2024-05-21T12:57:19.000Z</time>
      </trkpt>
      <trkpt lat="44.7713" lon="4.845">
        <ele>155.80000305176</ele>
        <time>2024-05-21T12:57:20.000Z</time>
      </trkpt>
      <trkpt lat="44.77127" lon="4.84497">
        <ele>155.80000305176</ele>
        <time>2024-05-21T12:57:21.000Z</time>
      </trkpt>
      <trkpt lat="44.77125" lon="4.84494">
        <ele>155.80000305176</ele>
        <time>2024-05-21T12:57:22.000Z</time>
      </trkpt>
      <trkpt lat="44.77122" lon="4.84491">
        <ele>156</ele>
        <time>2024-05-21T12:57:23.000Z</time>
      </trkpt>
      <trkpt lat="44.7712" lon="4.84488">
        <ele>156</ele>
        <time>2024-05-21T12:57:24.000Z</time>
      </trkpt>
      <trkpt lat="44.77117" lon="4.84484">
        <ele>156.19999694824</ele>
        <time>2024-05-21T12:57:25.000Z</time>
      </trkpt>
      <trkpt lat="44.77115" lon="4.84481">
        <ele>156.60000610352</ele>
        <time>2024-05-21T12:57:26.000Z</time>
      </trkpt>
      <trkpt lat="44.77113" lon="4.84478">
        <ele>156.60000610352</ele>
        <time>2024-05-21T12:57:27.000Z</time>
      </trkpt>
      <trkpt lat="44.7711" lon="4.84475">
        <ele>156.60000610352</ele>
        <time>2024-05-21T12:57:28.000Z</time>
      </trkpt>
      <trkpt lat="44.77108" lon="4.84472">
        <ele>156.60000610352</ele>
        <time>2024-05-21T12:57:29.000Z</time>
      </trkpt>
      <trkpt lat="44.77105" lon="4.84469">
        <ele>156.80000305176</ele>
        <time>2024-05-21T12:57:30.000Z</time>
      </trkpt>
      <trkpt lat="44.77103" lon="4.84467">
        <ele>157.19999694824</ele>
        <time>2024-05-21T12:57:31.000Z</time>
      </trkpt>
      <trkpt lat="44.771" lon="4.84465">
        <ele>157.39999389648</ele>
        <time>2024-05-21T12:57:32.000Z</time>
      </trkpt>
      <trkpt lat="44.77097" lon="4.84462">
        <ele>157.60000610352</ele>
        <time>2024-05-21T12:57:33.000Z</time>
      </trkpt>
      <trkpt lat="44.77094" lon="4.84459">
        <ele>157.80000305176</ele>
        <time>2024-05-21T12:57:34.000Z</time>
      </trkpt>
      <trkpt lat="44.77092" lon="4.84456">
        <ele>158</ele>
        <time>2024-05-21T12:57:35.000Z</time>
      </trkpt>
      <trkpt lat="44.7709" lon="4.84452">
        <ele>158</ele>
        <time>2024-05-21T12:57:36.000Z</time>
      </trkpt>
      <trkpt lat="44.77086" lon="4.84449">
        <ele>158.19999694824</ele>
        <time>2024-05-21T12:57:37.000Z</time>
      </trkpt>
      <trkpt lat="44.77084" lon="4.84446">
        <ele>158.60000610352</ele>
        <time>2024-05-21T12:57:38.000Z</time>
      </trkpt>
      <trkpt lat="44.77081" lon="4.84444">
        <ele>158.60000610352</ele>
        <time>2024-05-21T12:57:39.000Z</time>
      </trkpt>
      <trkpt lat="44.77077" lon="4.84443">
        <ele>158.80000305176</ele>
        <time>2024-05-21T12:57:40.000Z</time>
      </trkpt>
      <trkpt lat="44.77076" lon="4.84443">
        <ele>159</ele>
        <time>2024-05-21T12:57:41.000Z</time>
      </trkpt>
      <trkpt lat="44.77074" lon="4.84441">
        <ele>159.19999694824</ele>
        <time>2024-05-21T12:57:42.000Z</time>
      </trkpt>
      <trkpt lat="44.77072" lon="4.84441">
        <ele>159.19999694824</ele>
        <time>2024-05-21T12:57:43.000Z</time>
      </trkpt>
      <trkpt lat="44.77069" lon="4.8444">
        <ele>159.60000610352</ele>
        <time>2024-05-21T12:57:44.000Z</time>
      </trkpt>
      <trkpt lat="44.77067" lon="4.84438">
        <ele>159.80000305176</ele>
        <time>2024-05-21T12:57:45.000Z</time>
      </trkpt>
      <trkpt lat="44.77065" lon="4.84436">
        <ele>160.19999694824</ele>
        <time>2024-05-21T12:57:46.000Z</time>
      </trkpt>
      <trkpt lat="44.77062" lon="4.84434">
        <ele>160.39999389648</ele>
        <time>2024-05-21T12:57:47.000Z</time>
      </trkpt>
      <trkpt lat="44.77058" lon="4.84433">
        <ele>160.60000610352</ele>
        <time>2024-05-21T12:57:48.000Z</time>
      </trkpt>
      <trkpt lat="44.77056" lon="4.84431">
        <ele>161</ele>
        <time>2024-05-21T12:57:49.000Z</time>
      </trkpt>
      <trkpt lat="44.77054" lon="4.84428">
        <ele>161.19999694824</ele>
        <time>2024-05-21T12:57:50.000Z</time>
      </trkpt>
      <trkpt lat="44.77053" lon="4.84426">
        <ele>161.60000610352</ele>
        <time>2024-05-21T12:57:51.000Z</time>
      </trkpt>
      <trkpt lat="44.77051" lon="4.84424">
        <ele>161.80000305176</ele>
        <time>2024-05-21T12:57:52.000Z</time>
      </trkpt>
      <trkpt lat="44.77048" lon="4.84421">
        <ele>162</ele>
        <time>2024-05-21T12:57:53.000Z</time>
      </trkpt>
      <trkpt lat="44.77046" lon="4.84419">
        <ele>162.19999694824</ele>
        <time>2024-05-21T12:57:54.000Z</time>
      </trkpt>
      <trkpt lat="44.77044" lon="4.84417">
        <ele>162.39999389648</ele>
        <time>2024-05-21T12:57:55.000Z</time>
      </trkpt>
      <trkpt lat="44.77042" lon="4.84414">
        <ele>162.60000610352</ele>
        <time>2024-05-21T12:57:56.000Z</time>
      </trkpt>
      <trkpt lat="44.7704" lon="4.84411">
        <ele>162.80000305176</ele>
        <time>2024-05-21T12:57:57.000Z</time>
      </trkpt>
      <trkpt lat="44.77038" lon="4.84408">
        <ele>163</ele>
        <time>2024-05-21T12:57:58.000Z</time>
      </trkpt>
      <trkpt lat="44.77036" lon="4.84405">
        <ele>163.19999694824</ele>
        <time>2024-05-21T12:57:59.000Z</time>
      </trkpt>
      <trkpt lat="44.77034" lon="4.84402">
        <ele>163.39999389648</ele>
        <time>2024-05-21T12:58:00.000Z</time>
      </trkpt>
      <trkpt lat="44.77033" lon="4.844">
        <ele>163.39999389648</ele>
        <time>2024-05-21T12:58:01.000Z</time>
      </trkpt>
      <trkpt lat="44.77031" lon="4.84395">
        <ele>163.60000610352</ele>
        <time>2024-05-21T12:58:02.000Z</time>
      </trkpt>
      <trkpt lat="44.77029" lon="4.84392">
        <ele>163.60000610352</ele>
        <time>2024-05-21T12:58:03.000Z</time>
      </trkpt>
      <trkpt lat="44.77027" lon="4.84388">
        <ele>163.60000610352</ele>
        <time>2024-05-21T12:58:04.000Z</time>
      </trkpt>
      <trkpt lat="44.77025" lon="4.84384">
        <ele>163.60000610352</ele>
        <time>2024-05-21T12:58:05.000Z</time>
      </trkpt>
      <trkpt lat="44.77024" lon="4.84379">
        <ele>163.60000610352</ele>
        <time>2024-05-21T12:58:06.000Z</time>
      </trkpt>
      <trkpt lat="44.77022" lon="4.84375">
        <ele>163.60000610352</ele>
        <time>2024-05-21T12:58:07.000Z</time>
      </trkpt>
      <trkpt lat="44.77021" lon="4.8437">
        <ele>163.60000610352</ele>
        <time>2024-05-21T12:58:08.000Z</time>
      </trkpt>
      <trkpt lat="44.77019" lon="4.84364">
        <ele>163.60000610352</ele>
        <time>2024-05-21T12:58:09.000Z</time>
      </trkpt>
      <trkpt lat="44.77017" lon="4.8436">
        <ele>163.39999389648</ele>
        <time>2024-05-21T12:58:10.000Z</time>
      </trkpt>
      <trkpt lat="44.77016" lon="4.84355">
        <ele>163.39999389648</ele>
        <time>2024-05-21T12:58:11.000Z</time>
      </trkpt>
      <trkpt lat="44.77014" lon="4.8435">
        <ele>163.19999694824</ele>
        <time>2024-05-21T12:58:12.000Z</time>
      </trkpt>
      <trkpt lat="44.77012" lon="4.84345">
        <ele>163</ele>
        <time>2024-05-21T12:58:13.000Z</time>
      </trkpt>
      <trkpt lat="44.7701" lon="4.84342">
        <ele>163</ele>
        <time>2024-05-21T12:58:14.000Z</time>
      </trkpt>
      <trkpt lat="44.77007" lon="4.84338">
        <ele>162.80000305176</ele>
        <time>2024-05-21T12:58:15.000Z</time>
      </trkpt>
      <trkpt lat="44.77003" lon="4.84333">
        <ele>162.60000610352</ele>
        <time>2024-05-21T12:58:16.000Z</time>
      </trkpt>
      <trkpt lat="44.77" lon="4.84331">
        <ele>162.60000610352</ele>
        <time>2024-05-21T12:58:17.000Z</time>
      </trkpt>
      <trkpt lat="44.76996" lon="4.84328">
        <ele>162.39999389648</ele>
        <time>2024-05-21T12:58:18.000Z</time>
      </trkpt>
      <trkpt lat="44.76993" lon="4.84326">
        <ele>162.19999694824</ele>
        <time>2024-05-21T12:58:19.000Z</time>
      </trkpt>
      <trkpt lat="44.76992" lon="4.84323">
        <ele>162</ele>
        <time>2024-05-21T12:58:20.000Z</time>
      </trkpt>
      <trkpt lat="44.76992" lon="4.84318">
        <ele>162</ele>
        <time>2024-05-21T12:58:21.000Z</time>
      </trkpt>
      <trkpt lat="44.76993" lon="4.84313">
        <ele>162</ele>
        <time>2024-05-21T12:58:22.000Z</time>
      </trkpt>
      <trkpt lat="44.76994" lon="4.84309">
        <ele>161.60000610352</ele>
        <time>2024-05-21T12:58:23.000Z</time>
      </trkpt>
      <trkpt lat="44.76996" lon="4.84303">
        <ele>161.19999694824</ele>
        <time>2024-05-21T12:58:24.000Z</time>
      </trkpt>
      <trkpt lat="44.76995" lon="4.84298">
        <ele>160.60000610352</ele>
        <time>2024-05-21T12:58:25.000Z</time>
      </trkpt>
      <trkpt lat="44.76993" lon="4.84295">
        <ele>160.19999694824</ele>
        <time>2024-05-21T12:58:26.000Z</time>
      </trkpt>
      <trkpt lat="44.76989" lon="4.84292">
        <ele>159.60000610352</ele>
        <time>2024-05-21T12:58:27.000Z</time>
      </trkpt>
      <trkpt lat="44.76985" lon="4.8429">
        <ele>159.19999694824</ele>
        <time>2024-05-21T12:58:28.000Z</time>
      </trkpt>
      <trkpt lat="44.7698" lon="4.84286">
        <ele>158.80000305176</ele>
        <time>2024-05-21T12:58:29.000Z</time>
      </trkpt>
      <trkpt lat="44.76975" lon="4.84282">
        <ele>158.19999694824</ele>
        <time>2024-05-21T12:58:30.000Z</time>
      </trkpt>
      <trkpt lat="44.76972" lon="4.84279">
        <ele>157</ele>
        <time>2024-05-21T12:58:31.000Z</time>
      </trkpt>
      <trkpt lat="44.76967" lon="4.84276">
        <ele>156.80000305176</ele>
        <time>2024-05-21T12:58:32.000Z</time>
      </trkpt>
      <trkpt lat="44.76961" lon="4.84273">
        <ele>156.60000610352</ele>
        <time>2024-05-21T12:58:33.000Z</time>
      </trkpt>
      <trkpt lat="44.76957" lon="4.84269">
        <ele>156.19999694824</ele>
        <time>2024-05-21T12:58:34.000Z</time>
      </trkpt>
      <trkpt lat="44.76951" lon="4.84266">
        <ele>155.19999694824</ele>
        <time>2024-05-21T12:58:35.000Z</time>
      </trkpt>
      <trkpt lat="44.76945" lon="4.84261">
        <ele>154.39999389648</ele>
        <time>2024-05-21T12:58:36.000Z</time>
      </trkpt>
      <trkpt lat="44.7694" lon="4.84258">
        <ele>153.19999694824</ele>
        <time>2024-05-21T12:58:37.000Z</time>
      </trkpt>
      <trkpt lat="44.76934" lon="4.84255">
        <ele>152.80000305176</ele>
        <time>2024-05-21T12:58:38.000Z</time>
      </trkpt>
      <trkpt lat="44.76929" lon="4.84251">
        <ele>152</ele>
        <time>2024-05-21T12:58:39.000Z</time>
      </trkpt>
      <trkpt lat="44.76924" lon="4.84248">
        <ele>151.19999694824</ele>
        <time>2024-05-21T12:58:40.000Z</time>
      </trkpt>
      <trkpt lat="44.76918" lon="4.84246">
        <ele>150</ele>
        <time>2024-05-21T12:58:41.000Z</time>
      </trkpt>
      <trkpt lat="44.76912" lon="4.84243">
        <ele>149.19999694824</ele>
        <time>2024-05-21T12:58:42.000Z</time>
      </trkpt>
      <trkpt lat="44.76905" lon="4.8424">
        <ele>148.80000305176</ele>
        <time>2024-05-21T12:58:43.000Z</time>
      </trkpt>
      <trkpt lat="44.76901" lon="4.84238">
        <ele>148.19999694824</ele>
        <time>2024-05-21T12:58:44.000Z</time>
      </trkpt>
      <trkpt lat="44.76894" lon="4.84236">
        <ele>147.60000610352</ele>
        <time>2024-05-21T12:58:45.000Z</time>
      </trkpt>
      <trkpt lat="44.76889" lon="4.84234">
        <ele>147</ele>
        <time>2024-05-21T12:58:46.000Z</time>
      </trkpt>
      <trkpt lat="44.76883" lon="4.84232">
        <ele>146.19999694824</ele>
        <time>2024-05-21T12:58:47.000Z</time>
      </trkpt>
      <trkpt lat="44.76876" lon="4.8423">
        <ele>145.39999389648</ele>
        <time>2024-05-21T12:58:48.000Z</time>
      </trkpt>
      <trkpt lat="44.7687" lon="4.84229">
        <ele>144.39999389648</ele>
        <time>2024-05-21T12:58:49.000Z</time>
      </trkpt>
      <trkpt lat="44.76864" lon="4.84228">
        <ele>143.80000305176</ele>
        <time>2024-05-21T12:58:50.000Z</time>
      </trkpt>
      <trkpt lat="44.76858" lon="4.84227">
        <ele>143.19999694824</ele>
        <time>2024-05-21T12:58:51.000Z</time>
      </trkpt>
      <trkpt lat="44.76852" lon="4.84226">
        <ele>142.60000610352</ele>
        <time>2024-05-21T12:58:52.000Z</time>
      </trkpt>
      <trkpt lat="44.76846" lon="4.84225">
        <ele>142</ele>
        <time>2024-05-21T12:58:53.000Z</time>
      </trkpt>
      <trkpt lat="44.76839" lon="4.84224">
        <ele>141.19999694824</ele>
        <time>2024-05-21T12:58:54.000Z</time>
      </trkpt>
      <trkpt lat="44.76833" lon="4.84223">
        <ele>140</ele>
        <time>2024-05-21T12:58:55.000Z</time>
      </trkpt>
      <trkpt lat="44.76826" lon="4.84222">
        <ele>139</ele>
        <time>2024-05-21T12:58:56.000Z</time>
      </trkpt>
      <trkpt lat="44.76819" lon="4.84221">
        <ele>138</ele>
        <time>2024-05-21T12:58:57.000Z</time>
      </trkpt>
      <trkpt lat="44.76811" lon="4.84221">
        <ele>137.39999389648</ele>
        <time>2024-05-21T12:58:58.000Z</time>
      </trkpt>
      <trkpt lat="44.76803" lon="4.8422">
        <ele>136.60000610352</ele>
        <time>2024-05-21T12:58:59.000Z</time>
      </trkpt>
      <trkpt lat="44.76797" lon="4.8422">
        <ele>135.80000305176</ele>
        <time>2024-05-21T12:59:00.000Z</time>
      </trkpt>
      <trkpt lat="44.7679" lon="4.8422">
        <ele>134.60000610352</ele>
        <time>2024-05-21T12:59:01.000Z</time>
      </trkpt>
      <trkpt lat="44.76784" lon="4.8422">
        <ele>133.60000610352</ele>
        <time>2024-05-21T12:59:02.000Z</time>
      </trkpt>
      <trkpt lat="44.76779" lon="4.8422">
        <ele>132.19999694824</ele>
        <time>2024-05-21T12:59:03.000Z</time>
      </trkpt>
      <trkpt lat="44.76774" lon="4.8422">
        <ele>131.60000610352</ele>
        <time>2024-05-21T12:59:04.000Z</time>
      </trkpt>
      <trkpt lat="44.76768" lon="4.8422">
        <ele>130.80000305176</ele>
        <time>2024-05-21T12:59:05.000Z</time>
      </trkpt>
      <trkpt lat="44.76765" lon="4.8422">
        <ele>129.80000305176</ele>
        <time>2024-05-21T12:59:06.000Z</time>
      </trkpt>
      <trkpt lat="44.76762" lon="4.84218">
        <ele>129.39999389648</ele>
        <time>2024-05-21T12:59:07.000Z</time>
      </trkpt>
      <trkpt lat="44.76759" lon="4.84213">
        <ele>128.39999389648</ele>
        <time>2024-05-21T12:59:08.000Z</time>
      </trkpt>
      <trkpt lat="44.76759" lon="4.84207">
        <ele>128</ele>
        <time>2024-05-21T12:59:09.000Z</time>
      </trkpt>
      <trkpt lat="44.76759" lon="4.84202">
        <ele>127.80000305176</ele>
        <time>2024-05-21T12:59:10.000Z</time>
      </trkpt>
      <trkpt lat="44.76759" lon="4.84196">
        <ele>127.19999694824</ele>
        <time>2024-05-21T12:59:11.000Z</time>
      </trkpt>
      <trkpt lat="44.76759" lon="4.84189">
        <ele>126.59999847412</ele>
        <time>2024-05-21T12:59:12.000Z</time>
      </trkpt>
      <trkpt lat="44.76759" lon="4.84183">
        <ele>126.19999694824</ele>
        <time>2024-05-21T12:59:13.000Z</time>
      </trkpt>
      <trkpt lat="44.76759" lon="4.84178">
        <ele>125.40000152588</ele>
        <time>2024-05-21T12:59:14.000Z</time>
      </trkpt>
      <trkpt lat="44.76759" lon="4.84173">
        <ele>124.80000305176</ele>
        <time>2024-05-21T12:59:15.000Z</time>
      </trkpt>
      <trkpt lat="44.7676" lon="4.84167">
        <ele>124.19999694824</ele>
        <time>2024-05-21T12:59:16.000Z</time>
      </trkpt>
      <trkpt lat="44.76761" lon="4.84162">
        <ele>123.59999847412</ele>
        <time>2024-05-21T12:59:17.000Z</time>
      </trkpt>
      <trkpt lat="44.76762" lon="4.84156">
        <ele>123.19999694824</ele>
        <time>2024-05-21T12:59:18.000Z</time>
      </trkpt>
      <trkpt lat="44.76763" lon="4.84149">
        <ele>122.80000305176</ele>
        <time>2024-05-21T12:59:19.000Z</time>
      </trkpt>
      <trkpt lat="44.76764" lon="4.84143">
        <ele>122.40000152588</ele>
        <time>2024-05-21T12:59:20.000Z</time>
      </trkpt>
      <trkpt lat="44.76765" lon="4.84136">
        <ele>122.19999694824</ele>
        <time>2024-05-21T12:59:21.000Z</time>
      </trkpt>
      <trkpt lat="44.76766" lon="4.84129">
        <ele>122</ele>
        <time>2024-05-21T12:59:22.000Z</time>
      </trkpt>
      <trkpt lat="44.76767" lon="4.84121">
        <ele>121.80000305176</ele>
        <time>2024-05-21T12:59:23.000Z</time>
      </trkpt>
      <trkpt lat="44.76768" lon="4.84114">
        <ele>121.80000305176</ele>
        <time>2024-05-21T12:59:24.000Z</time>
      </trkpt>
      <trkpt lat="44.76769" lon="4.84106">
        <ele>121.40000152588</ele>
        <time>2024-05-21T12:59:25.000Z</time>
      </trkpt>
      <trkpt lat="44.76769" lon="4.84099">
        <ele>121.19999694824</ele>
        <time>2024-05-21T12:59:26.000Z</time>
      </trkpt>
      <trkpt lat="44.7677" lon="4.84093">
        <ele>120.80000305176</ele>
        <time>2024-05-21T12:59:27.000Z</time>
      </trkpt>
      <trkpt lat="44.7677" lon="4.84089">
        <ele>120.59999847412</ele>
        <time>2024-05-21T12:59:28.000Z</time>
      </trkpt>
      <trkpt lat="44.7677" lon="4.84086">
        <ele>120.40000152588</ele>
        <time>2024-05-21T12:59:29.000Z</time>
      </trkpt>
      <trkpt lat="44.7677" lon="4.84085">
        <ele>120.40000152588</ele>
        <time>2024-05-21T12:59:30.000Z</time>
      </trkpt>
      <trkpt lat="44.7677" lon="4.84085">
        <ele>120.40000152588</ele>
        <time>2024-05-21T12:59:31.000Z</time>
      </trkpt>
      <trkpt lat="44.7677" lon="4.84085">
        <ele>120.40000152588</ele>
        <time>2024-05-21T12:59:32.000Z</time>
      </trkpt>
      <trkpt lat="44.7677" lon="4.84076">
        <ele>120.19999694824</ele>
        <time>2024-05-21T12:59:42.000Z</time>
      </trkpt>
      <trkpt lat="44.7677" lon="4.84073">
        <ele>120.19999694824</ele>
        <time>2024-05-21T12:59:43.000Z</time>
      </trkpt>
      <trkpt lat="44.76769" lon="4.84069">
        <ele>120</ele>
        <time>2024-05-21T12:59:44.000Z</time>
      </trkpt>
      <trkpt lat="44.76768" lon="4.84066">
        <ele>119.80000305176</ele>
        <time>2024-05-21T12:59:45.000Z</time>
      </trkpt>
      <trkpt lat="44.76766" lon="4.84063">
        <ele>119.80000305176</ele>
        <time>2024-05-21T12:59:46.000Z</time>
      </trkpt>
      <trkpt lat="44.76764" lon="4.84061">
        <ele>119.59999847412</ele>
        <time>2024-05-21T12:59:47.000Z</time>
      </trkpt>
      <trkpt lat="44.76761" lon="4.84058">
        <ele>119.59999847412</ele>
        <time>2024-05-21T12:59:48.000Z</time>
      </trkpt>
      <trkpt lat="44.76758" lon="4.84055">
        <ele>119.59999847412</ele>
        <time>2024-05-21T12:59:49.000Z</time>
      </trkpt>
      <trkpt lat="44.76755" lon="4.84052">
        <ele>119.59999847412</ele>
        <time>2024-05-21T12:59:50.000Z</time>
      </trkpt>
      <trkpt lat="44.76752" lon="4.8405">
        <ele>119.59999847412</ele>
        <time>2024-05-21T12:59:51.000Z</time>
      </trkpt>
      <trkpt lat="44.76749" lon="4.84049">
        <ele>119.59999847412</ele>
        <time>2024-05-21T12:59:52.000Z</time>
      </trkpt>
      <trkpt lat="44.76745" lon="4.84048">
        <ele>119.59999847412</ele>
        <time>2024-05-21T12:59:53.000Z</time>
      </trkpt>
      <trkpt lat="44.76742" lon="4.84047">
        <ele>119.80000305176</ele>
        <time>2024-05-21T12:59:54.000Z</time>
      </trkpt>
      <trkpt lat="44.76738" lon="4.84045">
        <ele>119.80000305176</ele>
        <time>2024-05-21T12:59:55.000Z</time>
      </trkpt>
      <trkpt lat="44.76735" lon="4.84044">
        <ele>119.80000305176</ele>
        <time>2024-05-21T12:59:56.000Z</time>
      </trkpt>
      <trkpt lat="44.76731" lon="4.84043">
        <ele>119.80000305176</ele>
        <time>2024-05-21T12:59:57.000Z</time>
      </trkpt>
      <trkpt lat="44.76727" lon="4.84041">
        <ele>119.80000305176</ele>
        <time>2024-05-21T12:59:58.000Z</time>
      </trkpt>
      <trkpt lat="44.76724" lon="4.8404">
        <ele>119.80000305176</ele>
        <time>2024-05-21T12:59:59.000Z</time>
      </trkpt>
      <trkpt lat="44.7672" lon="4.84039">
        <ele>120</ele>
        <time>2024-05-21T13:00:00.000Z</time>
      </trkpt>
      <trkpt lat="44.76716" lon="4.84038">
        <ele>120</ele>
        <time>2024-05-21T13:00:01.000Z</time>
      </trkpt>
      <trkpt lat="44.76713" lon="4.84037">
        <ele>120.19999694824</ele>
        <time>2024-05-21T13:00:02.000Z</time>
      </trkpt>
      <trkpt lat="44.7671" lon="4.84035">
        <ele>120.19999694824</ele>
        <time>2024-05-21T13:00:03.000Z</time>
      </trkpt>
      <trkpt lat="44.76706" lon="4.84034">
        <ele>120.40000152588</ele>
        <time>2024-05-21T13:00:04.000Z</time>
      </trkpt>
      <trkpt lat="44.76702" lon="4.84033">
        <ele>120.59999847412</ele>
        <time>2024-05-21T13:00:05.000Z</time>
      </trkpt>
      <trkpt lat="44.76699" lon="4.84031">
        <ele>120.80000305176</ele>
        <time>2024-05-21T13:00:06.000Z</time>
      </trkpt>
      <trkpt lat="44.76694" lon="4.8403">
        <ele>120.80000305176</ele>
        <time>2024-05-21T13:00:07.000Z</time>
      </trkpt>
      <trkpt lat="44.76692" lon="4.84029">
        <ele>121</ele>
        <time>2024-05-21T13:00:08.000Z</time>
      </trkpt>
      <trkpt lat="44.76688" lon="4.84028">
        <ele>121</ele>
        <time>2024-05-21T13:00:09.000Z</time>
      </trkpt>
      <trkpt lat="44.76684" lon="4.84026">
        <ele>121.19999694824</ele>
        <time>2024-05-21T13:00:10.000Z</time>
      </trkpt>
      <trkpt lat="44.76681" lon="4.84024">
        <ele>121.40000152588</ele>
        <time>2024-05-21T13:00:11.000Z</time>
      </trkpt>
      <trkpt lat="44.76678" lon="4.84023">
        <ele>121.59999847412</ele>
        <time>2024-05-21T13:00:12.000Z</time>
      </trkpt>
      <trkpt lat="44.76674" lon="4.84022">
        <ele>121.59999847412</ele>
        <time>2024-05-21T13:00:13.000Z</time>
      </trkpt>
      <trkpt lat="44.76671" lon="4.84021">
        <ele>121.80000305176</ele>
        <time>2024-05-21T13:00:14.000Z</time>
      </trkpt>
      <trkpt lat="44.76668" lon="4.84019">
        <ele>121.80000305176</ele>
        <time>2024-05-21T13:00:15.000Z</time>
      </trkpt>
      <trkpt lat="44.76664" lon="4.84018">
        <ele>122</ele>
        <time>2024-05-21T13:00:16.000Z</time>
      </trkpt>
      <trkpt lat="44.76661" lon="4.84017">
        <ele>122.19999694824</ele>
        <time>2024-05-21T13:00:17.000Z</time>
      </trkpt>
      <trkpt lat="44.76657" lon="4.84016">
        <ele>122.19999694824</ele>
        <time>2024-05-21T13:00:18.000Z</time>
      </trkpt>
      <trkpt lat="44.76654" lon="4.84015">
        <ele>122.19999694824</ele>
        <time>2024-05-21T13:00:19.000Z</time>
      </trkpt>
      <trkpt lat="44.76651" lon="4.84013">
        <ele>122.19999694824</ele>
        <time>2024-05-21T13:00:20.000Z</time>
      </trkpt>
      <trkpt lat="44.76647" lon="4.84012">
        <ele>122.59999847412</ele>
        <time>2024-05-21T13:00:21.000Z</time>
      </trkpt>
      <trkpt lat="44.76644" lon="4.8401">
        <ele>122.80000305176</ele>
        <time>2024-05-21T13:00:22.000Z</time>
      </trkpt>
      <trkpt lat="44.7664" lon="4.84009">
        <ele>123</ele>
        <time>2024-05-21T13:00:23.000Z</time>
      </trkpt>
      <trkpt lat="44.76637" lon="4.84008">
        <ele>123</ele>
        <time>2024-05-21T13:00:24.000Z</time>
      </trkpt>
      <trkpt lat="44.76634" lon="4.84007">
        <ele>123</ele>
        <time>2024-05-21T13:00:25.000Z</time>
      </trkpt>
      <trkpt lat="44.7663" lon="4.84006">
        <ele>123.19999694824</ele>
        <time>2024-05-21T13:00:26.000Z</time>
      </trkpt>
      <trkpt lat="44.76627" lon="4.84005">
        <ele>123.40000152588</ele>
        <time>2024-05-21T13:00:27.000Z</time>
      </trkpt>
      <trkpt lat="44.76625" lon="4.84004">
        <ele>123.59999847412</ele>
        <time>2024-05-21T13:00:28.000Z</time>
      </trkpt>
      <trkpt lat="44.76623" lon="4.84003">
        <ele>123.59999847412</ele>
        <time>2024-05-21T13:00:29.000Z</time>
      </trkpt>
      <trkpt lat="44.7662" lon="4.84002">
        <ele>123.80000305176</ele>
        <time>2024-05-21T13:00:30.000Z</time>
      </trkpt>
      <trkpt lat="44.76619" lon="4.84001">
        <ele>123.80000305176</ele>
        <time>2024-05-21T13:00:31.000Z</time>
      </trkpt>
      <trkpt lat="44.76619" lon="4.84001">
        <ele>124</ele>
        <time>2024-05-21T13:00:32.000Z</time>
      </trkpt>
      <trkpt lat="44.76619" lon="4.84001">
        <ele>124</ele>
        <time>2024-05-21T13:00:33.000Z</time>
      </trkpt>
      <trkpt lat="44.76619" lon="4.84001">
        <ele>124.19999694824</ele>
        <time>2024-05-21T13:00:34.000Z</time>
      </trkpt>
      <trkpt lat="44.76612" lon="4.84">
        <ele>123.19999694824</ele>
        <time>2024-05-21T13:02:50.000Z</time>
      </trkpt>
      <trkpt lat="44.7661" lon="4.83999">
        <ele>123.19999694824</ele>
        <time>2024-05-21T13:02:51.000Z</time>
      </trkpt>
      <trkpt lat="44.76606" lon="4.83998">
        <ele>123.19999694824</ele>
        <time>2024-05-21T13:02:52.000Z</time>
      </trkpt>
      <trkpt lat="44.76602" lon="4.83996">
        <ele>123.19999694824</ele>
        <time>2024-05-21T13:02:53.000Z</time>
      </trkpt>
      <trkpt lat="44.76598" lon="4.83995">
        <ele>123.19999694824</ele>
        <time>2024-05-21T13:02:54.000Z</time>
      </trkpt>
      <trkpt lat="44.76594" lon="4.83993">
        <ele>123.19999694824</ele>
        <time>2024-05-21T13:02:55.000Z</time>
      </trkpt>
      <trkpt lat="44.7659" lon="4.83991">
        <ele>123.19999694824</ele>
        <time>2024-05-21T13:02:56.000Z</time>
      </trkpt>
      <trkpt lat="44.76586" lon="4.8399">
        <ele>123.19999694824</ele>
        <time>2024-05-21T13:02:57.000Z</time>
      </trkpt>
      <trkpt lat="44.76582" lon="4.83988">
        <ele>123.19999694824</ele>
        <time>2024-05-21T13:02:58.000Z</time>
      </trkpt>
      <trkpt lat="44.76578" lon="4.83987">
        <ele>123.19999694824</ele>
        <time>2024-05-21T13:02:59.000Z</time>
      </trkpt>
      <trkpt lat="44.76573" lon="4.83985">
        <ele>123.19999694824</ele>
        <time>2024-05-21T13:03:00.000Z</time>
      </trkpt>
      <trkpt lat="44.76569" lon="4.83983">
        <ele>123.19999694824</ele>
        <time>2024-05-21T13:03:01.000Z</time>
      </trkpt>
      <trkpt lat="44.76564" lon="4.83981">
        <ele>123.19999694824</ele>
        <time>2024-05-21T13:03:02.000Z</time>
      </trkpt>
      <trkpt lat="44.7656" lon="4.8398">
        <ele>123</ele>
        <time>2024-05-21T13:03:03.000Z</time>
      </trkpt>
      <trkpt lat="44.76555" lon="4.83978">
        <ele>123</ele>
        <time>2024-05-21T13:03:04.000Z</time>
      </trkpt>
      <trkpt lat="44.76551" lon="4.83976">
        <ele>123</ele>
        <time>2024-05-21T13:03:05.000Z</time>
      </trkpt>
      <trkpt lat="44.76546" lon="4.83974">
        <ele>123</ele>
        <time>2024-05-21T13:03:06.000Z</time>
      </trkpt>
      <trkpt lat="44.76542" lon="4.83973">
        <ele>122.80000305176</ele>
        <time>2024-05-21T13:03:07.000Z</time>
      </trkpt>
      <trkpt lat="44.76538" lon="4.83971">
        <ele>122.80000305176</ele>
        <time>2024-05-21T13:03:08.000Z</time>
      </trkpt>
      <trkpt lat="44.76535" lon="4.8397">
        <ele>122.80000305176</ele>
        <time>2024-05-21T13:03:09.000Z</time>
      </trkpt>
      <trkpt lat="44.76532" lon="4.83969">
        <ele>122.80000305176</ele>
        <time>2024-05-21T13:03:10.000Z</time>
      </trkpt>
      <trkpt lat="44.76531" lon="4.83968">
        <ele>122.80000305176</ele>
        <time>2024-05-21T13:03:11.000Z</time>
      </trkpt>
      <trkpt lat="44.76529" lon="4.83967">
        <ele>122.80000305176</ele>
        <time>2024-05-21T13:03:12.000Z</time>
      </trkpt>
      <trkpt lat="44.76529" lon="4.83967">
        <ele>123</ele>
        <time>2024-05-21T13:03:13.000Z</time>
      </trkpt>
      <trkpt lat="44.76529" lon="4.83967">
        <ele>123</ele>
        <time>2024-05-21T13:03:14.000Z</time>
      </trkpt>
      <trkpt lat="44.7652" lon="4.83964">
        <ele>123</ele>
        <time>2024-05-21T13:06:45.000Z</time>
      </trkpt>
      <trkpt lat="44.76518" lon="4.83963">
        <ele>123</ele>
        <time>2024-05-21T13:06:46.000Z</time>
      </trkpt>
      <trkpt lat="44.76516" lon="4.83962">
        <ele>123</ele>
        <time>2024-05-21T13:06:47.000Z</time>
      </trkpt>
      <trkpt lat="44.76513" lon="4.83961">
        <ele>123</ele>
        <time>2024-05-21T13:06:48.000Z</time>
      </trkpt>
      <trkpt lat="44.7651" lon="4.8396">
        <ele>122.80000305176</ele>
        <time>2024-05-21T13:06:49.000Z</time>
      </trkpt>
      <trkpt lat="44.76506" lon="4.83958">
        <ele>122.80000305176</ele>
        <time>2024-05-21T13:06:50.000Z</time>
      </trkpt>
      <trkpt lat="44.76503" lon="4.83956">
        <ele>122.59999847412</ele>
        <time>2024-05-21T13:06:51.000Z</time>
      </trkpt>
      <trkpt lat="44.76499" lon="4.83954">
        <ele>122.40000152588</ele>
        <time>2024-05-21T13:06:52.000Z</time>
      </trkpt>
      <trkpt lat="44.76494" lon="4.83952">
        <ele>122.19999694824</ele>
        <time>2024-05-21T13:06:53.000Z</time>
      </trkpt>
      <trkpt lat="44.7649" lon="4.8395">
        <ele>122.19999694824</ele>
        <time>2024-05-21T13:06:54.000Z</time>
      </trkpt>
      <trkpt lat="44.76485" lon="4.83948">
        <ele>122</ele>
        <time>2024-05-21T13:06:55.000Z</time>
      </trkpt>
      <trkpt lat="44.7648" lon="4.83946">
        <ele>121.59999847412</ele>
        <time>2024-05-21T13:06:56.000Z</time>
      </trkpt>
      <trkpt lat="44.76475" lon="4.83944">
        <ele>121.40000152588</ele>
        <time>2024-05-21T13:06:57.000Z</time>
      </trkpt>
      <trkpt lat="44.7647" lon="4.83942">
        <ele>121.40000152588</ele>
        <time>2024-05-21T13:06:58.000Z</time>
      </trkpt>
      <trkpt lat="44.76465" lon="4.83941">
        <ele>121.19999694824</ele>
        <time>2024-05-21T13:06:59.000Z</time>
      </trkpt>
      <trkpt lat="44.76459" lon="4.83939">
        <ele>121</ele>
        <time>2024-05-21T13:07:00.000Z</time>
      </trkpt>
      <trkpt lat="44.76454" lon="4.83937">
        <ele>120.80000305176</ele>
        <time>2024-05-21T13:07:01.000Z</time>
      </trkpt>
      <trkpt lat="44.76448" lon="4.83935">
        <ele>120.80000305176</ele>
        <time>2024-05-21T13:07:02.000Z</time>
      </trkpt>
      <trkpt lat="44.76442" lon="4.83933">
        <ele>120.40000152588</ele>
        <time>2024-05-21T13:07:03.000Z</time>
      </trkpt>
      <trkpt lat="44.76436" lon="4.83931">
        <ele>120</ele>
        <time>2024-05-21T13:07:04.000Z</time>
      </trkpt>
      <trkpt lat="44.7643" lon="4.83929">
        <ele>119.80000305176</ele>
        <time>2024-05-21T13:07:05.000Z</time>
      </trkpt>
      <trkpt lat="44.76424" lon="4.83927">
        <ele>119.40000152588</ele>
        <time>2024-05-21T13:07:06.000Z</time>
      </trkpt>
      <trkpt lat="44.76418" lon="4.83924">
        <ele>119.40000152588</ele>
        <time>2024-05-21T13:07:07.000Z</time>
      </trkpt>
      <trkpt lat="44.76412" lon="4.83922">
        <ele>119</ele>
        <time>2024-05-21T13:07:08.000Z</time>
      </trkpt>
      <trkpt lat="44.76406" lon="4.83919">
        <ele>119</ele>
        <time>2024-05-21T13:07:09.000Z</time>
      </trkpt>
      <trkpt lat="44.76399" lon="4.83917">
        <ele>118.80000305176</ele>
        <time>2024-05-21T13:07:10.000Z</time>
      </trkpt>
      <trkpt lat="44.76392" lon="4.83914">
        <ele>118.59999847412</ele>
        <time>2024-05-21T13:07:11.000Z</time>
      </trkpt>
      <trkpt lat="44.76386" lon="4.83911">
        <ele>118.40000152588</ele>
        <time>2024-05-21T13:07:12.000Z</time>
      </trkpt>
      <trkpt lat="44.76379" lon="4.83909">
        <ele>118.40000152588</ele>
        <time>2024-05-21T13:07:13.000Z</time>
      </trkpt>
      <trkpt lat="44.76373" lon="4.83907">
        <ele>118.19999694824</ele>
        <time>2024-05-21T13:07:14.000Z</time>
      </trkpt>
      <trkpt lat="44.76366" lon="4.83904">
        <ele>118.19999694824</ele>
        <time>2024-05-21T13:07:15.000Z</time>
      </trkpt>
      <trkpt lat="44.76359" lon="4.83901">
        <ele>118.19999694824</ele>
        <time>2024-05-21T13:07:16.000Z</time>
      </trkpt>
      <trkpt lat="44.76352" lon="4.83899">
        <ele>118.19999694824</ele>
        <time>2024-05-21T13:07:17.000Z</time>
      </trkpt>
      <trkpt lat="44.76346" lon="4.83896">
        <ele>118.19999694824</ele>
        <time>2024-05-21T13:07:18.000Z</time>
      </trkpt>
      <trkpt lat="44.76339" lon="4.83894">
        <ele>118.19999694824</ele>
        <time>2024-05-21T13:07:19.000Z</time>
      </trkpt>
      <trkpt lat="44.76332" lon="4.83891">
        <ele>118</ele>
        <time>2024-05-21T13:07:20.000Z</time>
      </trkpt>
      <trkpt lat="44.76325" lon="4.83889">
        <ele>118</ele>
        <time>2024-05-21T13:07:21.000Z</time>
      </trkpt>
      <trkpt lat="44.76319" lon="4.83886">
        <ele>118</ele>
        <time>2024-05-21T13:07:22.000Z</time>
      </trkpt>
      <trkpt lat="44.76312" lon="4.83884">
        <ele>117.80000305176</ele>
        <time>2024-05-21T13:07:23.000Z</time>
      </trkpt>
      <trkpt lat="44.76305" lon="4.83881">
        <ele>117.80000305176</ele>
        <time>2024-05-21T13:07:24.000Z</time>
      </trkpt>
      <trkpt lat="44.76298" lon="4.83879">
        <ele>117.80000305176</ele>
        <time>2024-05-21T13:07:25.000Z</time>
      </trkpt>
      <trkpt lat="44.76292" lon="4.83876">
        <ele>117.80000305176</ele>
        <time>2024-05-21T13:07:26.000Z</time>
      </trkpt>
      <trkpt lat="44.76285" lon="4.83873">
        <ele>117.80000305176</ele>
        <time>2024-05-21T13:07:27.000Z</time>
      </trkpt>
      <trkpt lat="44.76278" lon="4.83871">
        <ele>118</ele>
        <time>2024-05-21T13:07:28.000Z</time>
      </trkpt>
      <trkpt lat="44.76272" lon="4.83868">
        <ele>118</ele>
        <time>2024-05-21T13:07:29.000Z</time>
      </trkpt>
      <trkpt lat="44.76266" lon="4.83865">
        <ele>118</ele>
        <time>2024-05-21T13:07:30.000Z</time>
      </trkpt>
      <trkpt lat="44.7626" lon="4.83863">
        <ele>118.19999694824</ele>
        <time>2024-05-21T13:07:31.000Z</time>
      </trkpt>
      <trkpt lat="44.76253" lon="4.8386">
        <ele>118.19999694824</ele>
        <time>2024-05-21T13:07:32.000Z</time>
      </trkpt>
      <trkpt lat="44.76247" lon="4.83858">
        <ele>118.40000152588</ele>
        <time>2024-05-21T13:07:33.000Z</time>
      </trkpt>
      <trkpt lat="44.76242" lon="4.83855">
        <ele>118.40000152588</ele>
        <time>2024-05-21T13:07:34.000Z</time>
      </trkpt>
      <trkpt lat="44.76236" lon="4.83852">
        <ele>118.40000152588</ele>
        <time>2024-05-21T13:07:35.000Z</time>
      </trkpt>
      <trkpt lat="44.7623" lon="4.83848">
        <ele>118.40000152588</ele>
        <time>2024-05-21T13:07:36.000Z</time>
      </trkpt>
      <trkpt lat="44.76224" lon="4.83845">
        <ele>118.59999847412</ele>
        <time>2024-05-21T13:07:37.000Z</time>
      </trkpt>
      <trkpt lat="44.76219" lon="4.83841">
        <ele>118.80000305176</ele>
        <time>2024-05-21T13:07:38.000Z</time>
      </trkpt>
      <trkpt lat="44.76214" lon="4.83836">
        <ele>119</ele>
        <time>2024-05-21T13:07:39.000Z</time>
      </trkpt>
      <trkpt lat="44.76211" lon="4.83831">
        <ele>119</ele>
        <time>2024-05-21T13:07:40.000Z</time>
      </trkpt>
      <trkpt lat="44.76209" lon="4.83826">
        <ele>119</ele>
        <time>2024-05-21T13:07:41.000Z</time>
      </trkpt>
      <trkpt lat="44.76207" lon="4.8382">
        <ele>119.19999694824</ele>
        <time>2024-05-21T13:07:42.000Z</time>
      </trkpt>
      <trkpt lat="44.76205" lon="4.83815">
        <ele>119.40000152588</ele>
        <time>2024-05-21T13:07:43.000Z</time>
      </trkpt>
      <trkpt lat="44.76202" lon="4.83809">
        <ele>119.40000152588</ele>
        <time>2024-05-21T13:07:44.000Z</time>
      </trkpt>
      <trkpt lat="44.76199" lon="4.83804">
        <ele>119.40000152588</ele>
        <time>2024-05-21T13:07:45.000Z</time>
      </trkpt>
      <trkpt lat="44.76194" lon="4.838">
        <ele>119.40000152588</ele>
        <time>2024-05-21T13:07:46.000Z</time>
      </trkpt>
      <trkpt lat="44.7619" lon="4.83797">
        <ele>119.40000152588</ele>
        <time>2024-05-21T13:07:47.000Z</time>
      </trkpt>
      <trkpt lat="44.76185" lon="4.83795">
        <ele>119.40000152588</ele>
        <time>2024-05-21T13:07:48.000Z</time>
      </trkpt>
      <trkpt lat="44.7618" lon="4.83795">
        <ele>119.40000152588</ele>
        <time>2024-05-21T13:07:49.000Z</time>
      </trkpt>
      <trkpt lat="44.76175" lon="4.83795">
        <ele>119.40000152588</ele>
        <time>2024-05-21T13:07:50.000Z</time>
      </trkpt>
      <trkpt lat="44.7617" lon="4.83796">
        <ele>119.40000152588</ele>
        <time>2024-05-21T13:07:51.000Z</time>
      </trkpt>
      <trkpt lat="44.76165" lon="4.83797">
        <ele>119.40000152588</ele>
        <time>2024-05-21T13:07:52.000Z</time>
      </trkpt>
      <trkpt lat="44.76159" lon="4.83796">
        <ele>119.40000152588</ele>
        <time>2024-05-21T13:07:53.000Z</time>
      </trkpt>
      <trkpt lat="44.76155" lon="4.83794">
        <ele>119.59999847412</ele>
        <time>2024-05-21T13:07:54.000Z</time>
      </trkpt>
      <trkpt lat="44.7615" lon="4.83791">
        <ele>119.59999847412</ele>
        <time>2024-05-21T13:07:55.000Z</time>
      </trkpt>
      <trkpt lat="44.76146" lon="4.83786">
        <ele>119.59999847412</ele>
        <time>2024-05-21T13:07:56.000Z</time>
      </trkpt>
      <trkpt lat="44.76142" lon="4.83782">
        <ele>119.80000305176</ele>
        <time>2024-05-21T13:07:57.000Z</time>
      </trkpt>
      <trkpt lat="44.76139" lon="4.83777">
        <ele>119.80000305176</ele>
        <time>2024-05-21T13:07:58.000Z</time>
      </trkpt>
      <trkpt lat="44.76135" lon="4.83772">
        <ele>120</ele>
        <time>2024-05-21T13:07:59.000Z</time>
      </trkpt>
      <trkpt lat="44.76132" lon="4.83766">
        <ele>120</ele>
        <time>2024-05-21T13:08:00.000Z</time>
      </trkpt>
      <trkpt lat="44.76128" lon="4.83761">
        <ele>120</ele>
        <time>2024-05-21T13:08:01.000Z</time>
      </trkpt>
      <trkpt lat="44.76125" lon="4.83756">
        <ele>120</ele>
        <time>2024-05-21T13:08:02.000Z</time>
      </trkpt>
      <trkpt lat="44.76121" lon="4.83751">
        <ele>120</ele>
        <time>2024-05-21T13:08:03.000Z</time>
      </trkpt>
      <trkpt lat="44.76117" lon="4.83746">
        <ele>120.19999694824</ele>
        <time>2024-05-21T13:08:04.000Z</time>
      </trkpt>
      <trkpt lat="44.76113" lon="4.8374">
        <ele>120.40000152588</ele>
        <time>2024-05-21T13:08:05.000Z</time>
      </trkpt>
      <trkpt lat="44.7611" lon="4.83735">
        <ele>120.80000305176</ele>
        <time>2024-05-21T13:08:06.000Z</time>
      </trkpt>
      <trkpt lat="44.76106" lon="4.8373">
        <ele>121</ele>
        <time>2024-05-21T13:08:07.000Z</time>
      </trkpt>
      <trkpt lat="44.76103" lon="4.83725">
        <ele>121</ele>
        <time>2024-05-21T13:08:08.000Z</time>
      </trkpt>
      <trkpt lat="44.76099" lon="4.83719">
        <ele>121</ele>
        <time>2024-05-21T13:08:09.000Z</time>
      </trkpt>
      <trkpt lat="44.76096" lon="4.83714">
        <ele>121</ele>
        <time>2024-05-21T13:08:10.000Z</time>
      </trkpt>
      <trkpt lat="44.76092" lon="4.83708">
        <ele>121</ele>
        <time>2024-05-21T13:08:11.000Z</time>
      </trkpt>
      <trkpt lat="44.76089" lon="4.83703">
        <ele>121.40000152588</ele>
        <time>2024-05-21T13:08:12.000Z</time>
      </trkpt>
      <trkpt lat="44.76086" lon="4.83697">
        <ele>121.40000152588</ele>
        <time>2024-05-21T13:08:13.000Z</time>
      </trkpt>
      <trkpt lat="44.76082" lon="4.83691">
        <ele>121.40000152588</ele>
        <time>2024-05-21T13:08:14.000Z</time>
      </trkpt>
      <trkpt lat="44.76079" lon="4.83686">
        <ele>121.40000152588</ele>
        <time>2024-05-21T13:08:15.000Z</time>
      </trkpt>
      <trkpt lat="44.76076" lon="4.8368">
        <ele>121.59999847412</ele>
        <time>2024-05-21T13:08:16.000Z</time>
      </trkpt>
      <trkpt lat="44.76072" lon="4.83674">
        <ele>121.59999847412</ele>
        <time>2024-05-21T13:08:17.000Z</time>
      </trkpt>
      <trkpt lat="44.76069" lon="4.83668">
        <ele>121.59999847412</ele>
        <time>2024-05-21T13:08:18.000Z</time>
      </trkpt>
      <trkpt lat="44.76066" lon="4.83663">
        <ele>121.59999847412</ele>
        <time>2024-05-21T13:08:19.000Z</time>
      </trkpt>
      <trkpt lat="44.76063" lon="4.83657">
        <ele>121.59999847412</ele>
        <time>2024-05-21T13:08:20.000Z</time>
      </trkpt>
      <trkpt lat="44.76059" lon="4.83651">
        <ele>121.59999847412</ele>
        <time>2024-05-21T13:08:21.000Z</time>
      </trkpt>
      <trkpt lat="44.76056" lon="4.83645">
        <ele>121.59999847412</ele>
        <time>2024-05-21T13:08:22.000Z</time>
      </trkpt>
      <trkpt lat="44.76053" lon="4.8364">
        <ele>121.59999847412</ele>
        <time>2024-05-21T13:08:23.000Z</time>
      </trkpt>
      <trkpt lat="44.76051" lon="4.83635">
        <ele>121.59999847412</ele>
        <time>2024-05-21T13:08:24.000Z</time>
      </trkpt>
      <trkpt lat="44.76048" lon="4.8363">
        <ele>121.59999847412</ele>
        <time>2024-05-21T13:08:25.000Z</time>
      </trkpt>
      <trkpt lat="44.76045" lon="4.83624">
        <ele>121.59999847412</ele>
        <time>2024-05-21T13:08:26.000Z</time>
      </trkpt>
      <trkpt lat="44.76042" lon="4.83619">
        <ele>121.59999847412</ele>
        <time>2024-05-21T13:08:27.000Z</time>
      </trkpt>
      <trkpt lat="44.76039" lon="4.83614">
        <ele>121.59999847412</ele>
        <time>2024-05-21T13:08:28.000Z</time>
      </trkpt>
      <trkpt lat="44.76036" lon="4.83608">
        <ele>121.59999847412</ele>
        <time>2024-05-21T13:08:29.000Z</time>
      </trkpt>
      <trkpt lat="44.76034" lon="4.83603">
        <ele>121.59999847412</ele>
        <time>2024-05-21T13:08:30.000Z</time>
      </trkpt>
      <trkpt lat="44.76031" lon="4.83598">
        <ele>121.80000305176</ele>
        <time>2024-05-21T13:08:31.000Z</time>
      </trkpt>
      <trkpt lat="44.76028" lon="4.83592">
        <ele>121.80000305176</ele>
        <time>2024-05-21T13:08:32.000Z</time>
      </trkpt>
      <trkpt lat="44.76025" lon="4.83587">
        <ele>121.80000305176</ele>
        <time>2024-05-21T13:08:33.000Z</time>
      </trkpt>
      <trkpt lat="44.76022" lon="4.83581">
        <ele>121.80000305176</ele>
        <time>2024-05-21T13:08:34.000Z</time>
      </trkpt>
      <trkpt lat="44.76019" lon="4.83575">
        <ele>121.80000305176</ele>
        <time>2024-05-21T13:08:35.000Z</time>
      </trkpt>
      <trkpt lat="44.76016" lon="4.8357">
        <ele>121.59999847412</ele>
        <time>2024-05-21T13:08:36.000Z</time>
      </trkpt>
      <trkpt lat="44.76012" lon="4.83564">
        <ele>121.59999847412</ele>
        <time>2024-05-21T13:08:37.000Z</time>
      </trkpt>
      <trkpt lat="44.76009" lon="4.83559">
        <ele>121.59999847412</ele>
        <time>2024-05-21T13:08:38.000Z</time>
      </trkpt>
      <trkpt lat="44.76006" lon="4.83553">
        <ele>121.59999847412</ele>
        <time>2024-05-21T13:08:39.000Z</time>
      </trkpt>
      <trkpt lat="44.76003" lon="4.83548">
        <ele>121.59999847412</ele>
        <time>2024-05-21T13:08:40.000Z</time>
      </trkpt>
      <trkpt lat="44.75999" lon="4.83542">
        <ele>121.59999847412</ele>
        <time>2024-05-21T13:08:41.000Z</time>
      </trkpt>
      <trkpt lat="44.75996" lon="4.83536">
        <ele>121.59999847412</ele>
        <time>2024-05-21T13:08:42.000Z</time>
      </trkpt>
      <trkpt lat="44.75993" lon="4.83531">
        <ele>121.59999847412</ele>
        <time>2024-05-21T13:08:43.000Z</time>
      </trkpt>
      <trkpt lat="44.7599" lon="4.83525">
        <ele>121.80000305176</ele>
        <time>2024-05-21T13:08:44.000Z</time>
      </trkpt>
      <trkpt lat="44.75986" lon="4.83519">
        <ele>121.80000305176</ele>
        <time>2024-05-21T13:08:45.000Z</time>
      </trkpt>
      <trkpt lat="44.75983" lon="4.83513">
        <ele>121.80000305176</ele>
        <time>2024-05-21T13:08:46.000Z</time>
      </trkpt>
      <trkpt lat="44.75979" lon="4.83507">
        <ele>121.80000305176</ele>
        <time>2024-05-21T13:08:47.000Z</time>
      </trkpt>
      <trkpt lat="44.75976" lon="4.83502">
        <ele>121.80000305176</ele>
        <time>2024-05-21T13:08:48.000Z</time>
      </trkpt>
      <trkpt lat="44.75972" lon="4.83496">
        <ele>121.80000305176</ele>
        <time>2024-05-21T13:08:49.000Z</time>
      </trkpt>
      <trkpt lat="44.75969" lon="4.83491">
        <ele>121.80000305176</ele>
        <time>2024-05-21T13:08:50.000Z</time>
      </trkpt>
      <trkpt lat="44.75967" lon="4.83485">
        <ele>121.80000305176</ele>
        <time>2024-05-21T13:08:51.000Z</time>
      </trkpt>
      <trkpt lat="44.75964" lon="4.8348">
        <ele>121.80000305176</ele>
        <time>2024-05-21T13:08:52.000Z</time>
      </trkpt>
      <trkpt lat="44.75961" lon="4.83475">
        <ele>122</ele>
        <time>2024-05-21T13:08:53.000Z</time>
      </trkpt>
      <trkpt lat="44.75958" lon="4.83469">
        <ele>122</ele>
        <time>2024-05-21T13:08:54.000Z</time>
      </trkpt>
      <trkpt lat="44.75955" lon="4.83464">
        <ele>122</ele>
        <time>2024-05-21T13:08:55.000Z</time>
      </trkpt>
      <trkpt lat="44.75951" lon="4.83458">
        <ele>122</ele>
        <time>2024-05-21T13:08:56.000Z</time>
      </trkpt>
      <trkpt lat="44.75948" lon="4.83452">
        <ele>122</ele>
        <time>2024-05-21T13:08:57.000Z</time>
      </trkpt>
      <trkpt lat="44.75944" lon="4.83446">
        <ele>122</ele>
        <time>2024-05-21T13:08:58.000Z</time>
      </trkpt>
      <trkpt lat="44.75941" lon="4.8344">
        <ele>122</ele>
        <time>2024-05-21T13:08:59.000Z</time>
      </trkpt>
      <trkpt lat="44.75937" lon="4.83433">
        <ele>122</ele>
        <time>2024-05-21T13:09:00.000Z</time>
      </trkpt>
      <trkpt lat="44.75933" lon="4.83427">
        <ele>122</ele>
        <time>2024-05-21T13:09:01.000Z</time>
      </trkpt>
      <trkpt lat="44.7593" lon="4.8342">
        <ele>122</ele>
        <time>2024-05-21T13:09:02.000Z</time>
      </trkpt>
      <trkpt lat="44.75926" lon="4.83414">
        <ele>122</ele>
        <time>2024-05-21T13:09:03.000Z</time>
      </trkpt>
      <trkpt lat="44.75922" lon="4.83407">
        <ele>122</ele>
        <time>2024-05-21T13:09:04.000Z</time>
      </trkpt>
      <trkpt lat="44.75918" lon="4.834">
        <ele>121.80000305176</ele>
        <time>2024-05-21T13:09:05.000Z</time>
      </trkpt>
      <trkpt lat="44.75914" lon="4.83393">
        <ele>121.80000305176</ele>
        <time>2024-05-21T13:09:06.000Z</time>
      </trkpt>
      <trkpt lat="44.75911" lon="4.83387">
        <ele>121.80000305176</ele>
        <time>2024-05-21T13:09:07.000Z</time>
      </trkpt>
      <trkpt lat="44.75907" lon="4.8338">
        <ele>121.59999847412</ele>
        <time>2024-05-21T13:09:08.000Z</time>
      </trkpt>
      <trkpt lat="44.75903" lon="4.83373">
        <ele>121.59999847412</ele>
        <time>2024-05-21T13:09:09.000Z</time>
      </trkpt>
      <trkpt lat="44.75899" lon="4.83366">
        <ele>121.59999847412</ele>
        <time>2024-05-21T13:09:10.000Z</time>
      </trkpt>
      <trkpt lat="44.75895" lon="4.83359">
        <ele>121.59999847412</ele>
        <time>2024-05-21T13:09:11.000Z</time>
      </trkpt>
      <trkpt lat="44.75891" lon="4.83352">
        <ele>121.59999847412</ele>
        <time>2024-05-21T13:09:12.000Z</time>
      </trkpt>
      <trkpt lat="44.75888" lon="4.83345">
        <ele>121.59999847412</ele>
        <time>2024-05-21T13:09:13.000Z</time>
      </trkpt>
      <trkpt lat="44.75883" lon="4.83338">
        <ele>121.59999847412</ele>
        <time>2024-05-21T13:09:14.000Z</time>
      </trkpt>
      <trkpt lat="44.7588" lon="4.83331">
        <ele>121.59999847412</ele>
        <time>2024-05-21T13:09:15.000Z</time>
      </trkpt>
      <trkpt lat="44.75876" lon="4.83324">
        <ele>121.59999847412</ele>
        <time>2024-05-21T13:09:16.000Z</time>
      </trkpt>
      <trkpt lat="44.75872" lon="4.83317">
        <ele>121.59999847412</ele>
        <time>2024-05-21T13:09:17.000Z</time>
      </trkpt>
      <trkpt lat="44.75868" lon="4.8331">
        <ele>121.59999847412</ele>
        <time>2024-05-21T13:09:18.000Z</time>
      </trkpt>
      <trkpt lat="44.75864" lon="4.83303">
        <ele>121.59999847412</ele>
        <time>2024-05-21T13:09:19.000Z</time>
      </trkpt>
      <trkpt lat="44.75861" lon="4.83297">
        <ele>121.59999847412</ele>
        <time>2024-05-21T13:09:20.000Z</time>
      </trkpt>
      <trkpt lat="44.75857" lon="4.8329">
        <ele>121.80000305176</ele>
        <time>2024-05-21T13:09:21.000Z</time>
      </trkpt>
      <trkpt lat="44.75853" lon="4.83283">
        <ele>121.80000305176</ele>
        <time>2024-05-21T13:09:22.000Z</time>
      </trkpt>
      <trkpt lat="44.75849" lon="4.83276">
        <ele>121.80000305176</ele>
        <time>2024-05-21T13:09:23.000Z</time>
      </trkpt>
      <trkpt lat="44.75846" lon="4.83269">
        <ele>121.80000305176</ele>
        <time>2024-05-21T13:09:24.000Z</time>
      </trkpt>
      <trkpt lat="44.75842" lon="4.83263">
        <ele>121.80000305176</ele>
        <time>2024-05-21T13:09:25.000Z</time>
      </trkpt>
      <trkpt lat="44.75839" lon="4.83256">
        <ele>121.80000305176</ele>
        <time>2024-05-21T13:09:26.000Z</time>
      </trkpt>
      <trkpt lat="44.75835" lon="4.83249">
        <ele>121.80000305176</ele>
        <time>2024-05-21T13:09:27.000Z</time>
      </trkpt>
      <trkpt lat="44.75832" lon="4.83243">
        <ele>121.80000305176</ele>
        <time>2024-05-21T13:09:28.000Z</time>
      </trkpt>
      <trkpt lat="44.75828" lon="4.83237">
        <ele>121.80000305176</ele>
        <time>2024-05-21T13:09:29.000Z</time>
      </trkpt>
      <trkpt lat="44.75824" lon="4.83231">
        <ele>121.80000305176</ele>
        <time>2024-05-21T13:09:30.000Z</time>
      </trkpt>
      <trkpt lat="44.7582" lon="4.83224">
        <ele>121.80000305176</ele>
        <time>2024-05-21T13:09:31.000Z</time>
      </trkpt>
      <trkpt lat="44.75817" lon="4.83218">
        <ele>121.80000305176</ele>
        <time>2024-05-21T13:09:32.000Z</time>
      </trkpt>
      <trkpt lat="44.75813" lon="4.83213">
        <ele>121.80000305176</ele>
        <time>2024-05-21T13:09:33.000Z</time>
      </trkpt>
      <trkpt lat="44.7581" lon="4.83206">
        <ele>121.80000305176</ele>
        <time>2024-05-21T13:09:34.000Z</time>
      </trkpt>
      <trkpt lat="44.75806" lon="4.832">
        <ele>121.80000305176</ele>
        <time>2024-05-21T13:09:35.000Z</time>
      </trkpt>
      <trkpt lat="44.75802" lon="4.83193">
        <ele>121.80000305176</ele>
        <time>2024-05-21T13:09:36.000Z</time>
      </trkpt>
      <trkpt lat="44.75799" lon="4.83186">
        <ele>121.80000305176</ele>
        <time>2024-05-21T13:09:37.000Z</time>
      </trkpt>
      <trkpt lat="44.75795" lon="4.83179">
        <ele>121.40000152588</ele>
        <time>2024-05-21T13:09:38.000Z</time>
      </trkpt>
      <trkpt lat="44.75791" lon="4.83172">
        <ele>121.19999694824</ele>
        <time>2024-05-21T13:09:39.000Z</time>
      </trkpt>
      <trkpt lat="44.75787" lon="4.83165">
        <ele>121</ele>
        <time>2024-05-21T13:09:40.000Z</time>
      </trkpt>
      <trkpt lat="44.75782" lon="4.83158">
        <ele>120.80000305176</ele>
        <time>2024-05-21T13:09:41.000Z</time>
      </trkpt>
      <trkpt lat="44.75778" lon="4.8315">
        <ele>120.59999847412</ele>
        <time>2024-05-21T13:09:42.000Z</time>
      </trkpt>
      <trkpt lat="44.75773" lon="4.83142">
        <ele>120.40000152588</ele>
        <time>2024-05-21T13:09:43.000Z</time>
      </trkpt>
      <trkpt lat="44.75768" lon="4.83133">
        <ele>120.19999694824</ele>
        <time>2024-05-21T13:09:44.000Z</time>
      </trkpt>
      <trkpt lat="44.75764" lon="4.83125">
        <ele>120</ele>
        <time>2024-05-21T13:09:45.000Z</time>
      </trkpt>
      <trkpt lat="44.75759" lon="4.83116">
        <ele>119.80000305176</ele>
        <time>2024-05-21T13:09:46.000Z</time>
      </trkpt>
      <trkpt lat="44.75754" lon="4.83107">
        <ele>119.19999694824</ele>
        <time>2024-05-21T13:09:47.000Z</time>
      </trkpt>
      <trkpt lat="44.75749" lon="4.83098">
        <ele>118.80000305176</ele>
        <time>2024-05-21T13:09:48.000Z</time>
      </trkpt>
      <trkpt lat="44.75744" lon="4.83089">
        <ele>118.40000152588</ele>
        <time>2024-05-21T13:09:49.000Z</time>
      </trkpt>
      <trkpt lat="44.75738" lon="4.8308">
        <ele>117.80000305176</ele>
        <time>2024-05-21T13:09:50.000Z</time>
      </trkpt>
      <trkpt lat="44.75733" lon="4.83071">
        <ele>117.59999847412</ele>
        <time>2024-05-21T13:09:51.000Z</time>
      </trkpt>
      <trkpt lat="44.75727" lon="4.83062">
        <ele>117.19999694824</ele>
        <time>2024-05-21T13:09:52.000Z</time>
      </trkpt>
      <trkpt lat="44.75722" lon="4.83052">
        <ele>116.80000305176</ele>
        <time>2024-05-21T13:09:53.000Z</time>
      </trkpt>
      <trkpt lat="44.75716" lon="4.83043">
        <ele>116.40000152588</ele>
        <time>2024-05-21T13:09:54.000Z</time>
      </trkpt>
      <trkpt lat="44.75711" lon="4.83033">
        <ele>116.19999694824</ele>
        <time>2024-05-21T13:09:55.000Z</time>
      </trkpt>
      <trkpt lat="44.75705" lon="4.83023">
        <ele>115.80000305176</ele>
        <time>2024-05-21T13:09:56.000Z</time>
      </trkpt>
      <trkpt lat="44.75699" lon="4.83013">
        <ele>115.40000152588</ele>
        <time>2024-05-21T13:09:57.000Z</time>
      </trkpt>
      <trkpt lat="44.75694" lon="4.83004">
        <ele>114.80000305176</ele>
        <time>2024-05-21T13:09:58.000Z</time>
      </trkpt>
      <trkpt lat="44.75688" lon="4.82994">
        <ele>114.59999847412</ele>
        <time>2024-05-21T13:09:59.000Z</time>
      </trkpt>
      <trkpt lat="44.75683" lon="4.82985">
        <ele>114.40000152588</ele>
        <time>2024-05-21T13:10:00.000Z</time>
      </trkpt>
      <trkpt lat="44.75677" lon="4.82976">
        <ele>114</ele>
        <time>2024-05-21T13:10:01.000Z</time>
      </trkpt>
      <trkpt lat="44.75672" lon="4.82966">
        <ele>113.80000305176</ele>
        <time>2024-05-21T13:10:02.000Z</time>
      </trkpt>
      <trkpt lat="44.75667" lon="4.82957">
        <ele>113.59999847412</ele>
        <time>2024-05-21T13:10:03.000Z</time>
      </trkpt>
      <trkpt lat="44.75662" lon="4.82949">
        <ele>113.59999847412</ele>
        <time>2024-05-21T13:10:04.000Z</time>
      </trkpt>
      <trkpt lat="44.75657" lon="4.8294">
        <ele>113.40000152588</ele>
        <time>2024-05-21T13:10:05.000Z</time>
      </trkpt>
      <trkpt lat="44.75652" lon="4.82932">
        <ele>113.40000152588</ele>
        <time>2024-05-21T13:10:06.000Z</time>
      </trkpt>
      <trkpt lat="44.75647" lon="4.82924">
        <ele>113.40000152588</ele>
        <time>2024-05-21T13:10:07.000Z</time>
      </trkpt>
      <trkpt lat="44.75643" lon="4.82916">
        <ele>113.19999694824</ele>
        <time>2024-05-21T13:10:08.000Z</time>
      </trkpt>
      <trkpt lat="44.75638" lon="4.82908">
        <ele>113.19999694824</ele>
        <time>2024-05-21T13:10:09.000Z</time>
      </trkpt>
      <trkpt lat="44.75634" lon="4.829">
        <ele>113.19999694824</ele>
        <time>2024-05-21T13:10:10.000Z</time>
      </trkpt>
      <trkpt lat="44.75629" lon="4.82893">
        <ele>113.19999694824</ele>
        <time>2024-05-21T13:10:11.000Z</time>
      </trkpt>
      <trkpt lat="44.75625" lon="4.82886">
        <ele>113.19999694824</ele>
        <time>2024-05-21T13:10:12.000Z</time>
      </trkpt>
      <trkpt lat="44.75621" lon="4.82878">
        <ele>113.19999694824</ele>
        <time>2024-05-21T13:10:13.000Z</time>
      </trkpt>
      <trkpt lat="44.75617" lon="4.82871">
        <ele>113.19999694824</ele>
        <time>2024-05-21T13:10:14.000Z</time>
      </trkpt>
      <trkpt lat="44.75613" lon="4.82864">
        <ele>113.19999694824</ele>
        <time>2024-05-21T13:10:15.000Z</time>
      </trkpt>
      <trkpt lat="44.75608" lon="4.82856">
        <ele>113.40000152588</ele>
        <time>2024-05-21T13:10:16.000Z</time>
      </trkpt>
      <trkpt lat="44.75604" lon="4.82849">
        <ele>113.40000152588</ele>
        <time>2024-05-21T13:10:17.000Z</time>
      </trkpt>
      <trkpt lat="44.756" lon="4.82843">
        <ele>113.40000152588</ele>
        <time>2024-05-21T13:10:18.000Z</time>
      </trkpt>
      <trkpt lat="44.75595" lon="4.82836">
        <ele>113.40000152588</ele>
        <time>2024-05-21T13:10:19.000Z</time>
      </trkpt>
      <trkpt lat="44.75591" lon="4.82831">
        <ele>113.40000152588</ele>
        <time>2024-05-21T13:10:20.000Z</time>
      </trkpt>
      <trkpt lat="44.75586" lon="4.82825">
        <ele>113.40000152588</ele>
        <time>2024-05-21T13:10:21.000Z</time>
      </trkpt>
      <trkpt lat="44.75581" lon="4.82817">
        <ele>113.40000152588</ele>
        <time>2024-05-21T13:10:22.000Z</time>
      </trkpt>
      <trkpt lat="44.75576" lon="4.8281">
        <ele>113.40000152588</ele>
        <time>2024-05-21T13:10:23.000Z</time>
      </trkpt>
      <trkpt lat="44.75572" lon="4.82803">
        <ele>113.40000152588</ele>
        <time>2024-05-21T13:10:24.000Z</time>
      </trkpt>
      <trkpt lat="44.75568" lon="4.82797">
        <ele>113.59999847412</ele>
        <time>2024-05-21T13:10:25.000Z</time>
      </trkpt>
      <trkpt lat="44.75564" lon="4.8279">
        <ele>113.59999847412</ele>
        <time>2024-05-21T13:10:26.000Z</time>
      </trkpt>
      <trkpt lat="44.75561" lon="4.82785">
        <ele>113.80000305176</ele>
        <time>2024-05-21T13:10:27.000Z</time>
      </trkpt>
      <trkpt lat="44.75558" lon="4.8278">
        <ele>113.80000305176</ele>
        <time>2024-05-21T13:10:28.000Z</time>
      </trkpt>
      <trkpt lat="44.75556" lon="4.82776">
        <ele>113.80000305176</ele>
        <time>2024-05-21T13:10:29.000Z</time>
      </trkpt>
      <trkpt lat="44.75554" lon="4.82773">
        <ele>114</ele>
        <time>2024-05-21T13:10:30.000Z</time>
      </trkpt>
      <trkpt lat="44.75552" lon="4.82769">
        <ele>114.19999694824</ele>
        <time>2024-05-21T13:10:31.000Z</time>
      </trkpt>
      <trkpt lat="44.75551" lon="4.82766">
        <ele>114.19999694824</ele>
        <time>2024-05-21T13:10:32.000Z</time>
      </trkpt>
      <trkpt lat="44.75549" lon="4.82763">
        <ele>114.40000152588</ele>
        <time>2024-05-21T13:10:33.000Z</time>
      </trkpt>
      <trkpt lat="44.75548" lon="4.82761">
        <ele>114.59999847412</ele>
        <time>2024-05-21T13:10:34.000Z</time>
      </trkpt>
      <trkpt lat="44.75547" lon="4.8276">
        <ele>114.59999847412</ele>
        <time>2024-05-21T13:10:35.000Z</time>
      </trkpt>
      <trkpt lat="44.75547" lon="4.8276">
        <ele>114.59999847412</ele>
        <time>2024-05-21T13:10:36.000Z</time>
      </trkpt>
      <trkpt lat="44.75547" lon="4.8276">
        <ele>114.80000305176</ele>
        <time>2024-05-21T13:10:37.000Z</time>
      </trkpt>
      <trkpt lat="44.75543" lon="4.82753">
        <ele>114.40000152588</ele>
        <time>2024-05-21T13:11:44.000Z</time>
      </trkpt>
      <trkpt lat="44.75541" lon="4.8275">
        <ele>114.40000152588</ele>
        <time>2024-05-21T13:11:45.000Z</time>
      </trkpt>
      <trkpt lat="44.75539" lon="4.82746">
        <ele>114.40000152588</ele>
        <time>2024-05-21T13:11:46.000Z</time>
      </trkpt>
      <trkpt lat="44.75537" lon="4.82743">
        <ele>114.40000152588</ele>
        <time>2024-05-21T13:11:47.000Z</time>
      </trkpt>
      <trkpt lat="44.75535" lon="4.82739">
        <ele>114.40000152588</ele>
        <time>2024-05-21T13:11:48.000Z</time>
      </trkpt>
      <trkpt lat="44.75532" lon="4.82734">
        <ele>114.19999694824</ele>
        <time>2024-05-21T13:11:49.000Z</time>
      </trkpt>
      <trkpt lat="44.75529" lon="4.82729">
        <ele>114.19999694824</ele>
        <time>2024-05-21T13:11:50.000Z</time>
      </trkpt>
      <trkpt lat="44.75526" lon="4.82725">
        <ele>114</ele>
        <time>2024-05-21T13:11:51.000Z</time>
      </trkpt>
      <trkpt lat="44.75523" lon="4.8272">
        <ele>113.80000305176</ele>
        <time>2024-05-21T13:11:52.000Z</time>
      </trkpt>
      <trkpt lat="44.75521" lon="4.82715">
        <ele>113.59999847412</ele>
        <time>2024-05-21T13:11:53.000Z</time>
      </trkpt>
      <trkpt lat="44.75518" lon="4.8271">
        <ele>113.59999847412</ele>
        <time>2024-05-21T13:11:54.000Z</time>
      </trkpt>
      <trkpt lat="44.75515" lon="4.82704">
        <ele>113.59999847412</ele>
        <time>2024-05-21T13:11:55.000Z</time>
      </trkpt>
      <trkpt lat="44.75513" lon="4.827">
        <ele>113.59999847412</ele>
        <time>2024-05-21T13:11:56.000Z</time>
      </trkpt>
      <trkpt lat="44.7551" lon="4.82694">
        <ele>113.59999847412</ele>
        <time>2024-05-21T13:11:57.000Z</time>
      </trkpt>
      <trkpt lat="44.75506" lon="4.82688">
        <ele>113.59999847412</ele>
        <time>2024-05-21T13:11:58.000Z</time>
      </trkpt>
      <trkpt lat="44.75503" lon="4.82683">
        <ele>113.40000152588</ele>
        <time>2024-05-21T13:11:59.000Z</time>
      </trkpt>
      <trkpt lat="44.75499" lon="4.82676">
        <ele>113.40000152588</ele>
        <time>2024-05-21T13:12:00.000Z</time>
      </trkpt>
      <trkpt lat="44.75496" lon="4.8267">
        <ele>113.40000152588</ele>
        <time>2024-05-21T13:12:01.000Z</time>
      </trkpt>
      <trkpt lat="44.75492" lon="4.82665">
        <ele>113.40000152588</ele>
        <time>2024-05-21T13:12:02.000Z</time>
      </trkpt>
      <trkpt lat="44.75489" lon="4.82659">
        <ele>113.40000152588</ele>
        <time>2024-05-21T13:12:03.000Z</time>
      </trkpt>
      <trkpt lat="44.75486" lon="4.82653">
        <ele>113.40000152588</ele>
        <time>2024-05-21T13:12:04.000Z</time>
      </trkpt>
      <trkpt lat="44.75482" lon="4.82648">
        <ele>113.40000152588</ele>
        <time>2024-05-21T13:12:05.000Z</time>
      </trkpt>
      <trkpt lat="44.75479" lon="4.82642">
        <ele>113.40000152588</ele>
        <time>2024-05-21T13:12:06.000Z</time>
      </trkpt>
      <trkpt lat="44.75476" lon="4.82637">
        <ele>113.40000152588</ele>
        <time>2024-05-21T13:12:07.000Z</time>
      </trkpt>
      <trkpt lat="44.75473" lon="4.82631">
        <ele>113.40000152588</ele>
        <time>2024-05-21T13:12:08.000Z</time>
      </trkpt>
      <trkpt lat="44.7547" lon="4.82625">
        <ele>113.40000152588</ele>
        <time>2024-05-21T13:12:09.000Z</time>
      </trkpt>
      <trkpt lat="44.75466" lon="4.82619">
        <ele>113.59999847412</ele>
        <time>2024-05-21T13:12:10.000Z</time>
      </trkpt>
      <trkpt lat="44.75463" lon="4.82614">
        <ele>113.59999847412</ele>
        <time>2024-05-21T13:12:11.000Z</time>
      </trkpt>
      <trkpt lat="44.7546" lon="4.82608">
        <ele>113.59999847412</ele>
        <time>2024-05-21T13:12:12.000Z</time>
      </trkpt>
      <trkpt lat="44.75456" lon="4.82601">
        <ele>113.59999847412</ele>
        <time>2024-05-21T13:12:13.000Z</time>
      </trkpt>
      <trkpt lat="44.75453" lon="4.82596">
        <ele>113.59999847412</ele>
        <time>2024-05-21T13:12:14.000Z</time>
      </trkpt>
      <trkpt lat="44.7545" lon="4.8259">
        <ele>113.59999847412</ele>
        <time>2024-05-21T13:12:15.000Z</time>
      </trkpt>
      <trkpt lat="44.75447" lon="4.82585">
        <ele>113.59999847412</ele>
        <time>2024-05-21T13:12:16.000Z</time>
      </trkpt>
      <trkpt lat="44.75445" lon="4.82579">
        <ele>113.59999847412</ele>
        <time>2024-05-21T13:12:17.000Z</time>
      </trkpt>
      <trkpt lat="44.75442" lon="4.82574">
        <ele>113.59999847412</ele>
        <time>2024-05-21T13:12:18.000Z</time>
      </trkpt>
      <trkpt lat="44.75439" lon="4.8257">
        <ele>113.59999847412</ele>
        <time>2024-05-21T13:12:19.000Z</time>
      </trkpt>
      <trkpt lat="44.75436" lon="4.82566">
        <ele>113.80000305176</ele>
        <time>2024-05-21T13:12:20.000Z</time>
      </trkpt>
      <trkpt lat="44.75432" lon="4.82559">
        <ele>114</ele>
        <time>2024-05-21T13:12:21.000Z</time>
      </trkpt>
      <trkpt lat="44.75429" lon="4.82554">
        <ele>114</ele>
        <time>2024-05-21T13:12:22.000Z</time>
      </trkpt>
      <trkpt lat="44.75426" lon="4.82549">
        <ele>114</ele>
        <time>2024-05-21T13:12:23.000Z</time>
      </trkpt>
      <trkpt lat="44.75423" lon="4.82543">
        <ele>114</ele>
        <time>2024-05-21T13:12:24.000Z</time>
      </trkpt>
      <trkpt lat="44.7542" lon="4.82538">
        <ele>114</ele>
        <time>2024-05-21T13:12:25.000Z</time>
      </trkpt>
      <trkpt lat="44.75418" lon="4.82533">
        <ele>114</ele>
        <time>2024-05-21T13:12:26.000Z</time>
      </trkpt>
      <trkpt lat="44.75414" lon="4.82528">
        <ele>114</ele>
        <time>2024-05-21T13:12:27.000Z</time>
      </trkpt>
      <trkpt lat="44.7541" lon="4.82522">
        <ele>114</ele>
        <time>2024-05-21T13:12:28.000Z</time>
      </trkpt>
      <trkpt lat="44.75407" lon="4.82516">
        <ele>114</ele>
        <time>2024-05-21T13:12:29.000Z</time>
      </trkpt>
      <trkpt lat="44.75404" lon="4.82512">
        <ele>114</ele>
        <time>2024-05-21T13:12:30.000Z</time>
      </trkpt>
      <trkpt lat="44.754" lon="4.82506">
        <ele>114</ele>
        <time>2024-05-21T13:12:31.000Z</time>
      </trkpt>
      <trkpt lat="44.75397" lon="4.825">
        <ele>114.19999694824</ele>
        <time>2024-05-21T13:12:32.000Z</time>
      </trkpt>
      <trkpt lat="44.75394" lon="4.82494">
        <ele>114.40000152588</ele>
        <time>2024-05-21T13:12:33.000Z</time>
      </trkpt>
      <trkpt lat="44.7539" lon="4.82489">
        <ele>114.40000152588</ele>
        <time>2024-05-21T13:12:34.000Z</time>
      </trkpt>
      <trkpt lat="44.75387" lon="4.82483">
        <ele>114.40000152588</ele>
        <time>2024-05-21T13:12:35.000Z</time>
      </trkpt>
      <trkpt lat="44.75384" lon="4.82478">
        <ele>114.40000152588</ele>
        <time>2024-05-21T13:12:36.000Z</time>
      </trkpt>
      <trkpt lat="44.75381" lon="4.82473">
        <ele>114.40000152588</ele>
        <time>2024-05-21T13:12:37.000Z</time>
      </trkpt>
      <trkpt lat="44.75379" lon="4.82468">
        <ele>114.40000152588</ele>
        <time>2024-05-21T13:12:38.000Z</time>
      </trkpt>
      <trkpt lat="44.75376" lon="4.82463">
        <ele>114.40000152588</ele>
        <time>2024-05-21T13:12:39.000Z</time>
      </trkpt>
      <trkpt lat="44.75373" lon="4.82458">
        <ele>114.40000152588</ele>
        <time>2024-05-21T13:12:40.000Z</time>
      </trkpt>
      <trkpt lat="44.7537" lon="4.82452">
        <ele>114.59999847412</ele>
        <time>2024-05-21T13:12:41.000Z</time>
      </trkpt>
      <trkpt lat="44.75367" lon="4.82445">
        <ele>114.59999847412</ele>
        <time>2024-05-21T13:12:42.000Z</time>
      </trkpt>
      <trkpt lat="44.75363" lon="4.8244">
        <ele>114.59999847412</ele>
        <time>2024-05-21T13:12:43.000Z</time>
      </trkpt>
      <trkpt lat="44.7536" lon="4.82435">
        <ele>114.59999847412</ele>
        <time>2024-05-21T13:12:44.000Z</time>
      </trkpt>
      <trkpt lat="44.75357" lon="4.82429">
        <ele>114.80000305176</ele>
        <time>2024-05-21T13:12:45.000Z</time>
      </trkpt>
      <trkpt lat="44.75354" lon="4.82423">
        <ele>114.80000305176</ele>
        <time>2024-05-21T13:12:46.000Z</time>
      </trkpt>
      <trkpt lat="44.75351" lon="4.82419">
        <ele>114.80000305176</ele>
        <time>2024-05-21T13:12:47.000Z</time>
      </trkpt>
      <trkpt lat="44.75347" lon="4.82413">
        <ele>115</ele>
        <time>2024-05-21T13:12:48.000Z</time>
      </trkpt>
      <trkpt lat="44.75344" lon="4.82407">
        <ele>115</ele>
        <time>2024-05-21T13:12:49.000Z</time>
      </trkpt>
      <trkpt lat="44.75342" lon="4.82403">
        <ele>115</ele>
        <time>2024-05-21T13:12:50.000Z</time>
      </trkpt>
      <trkpt lat="44.75338" lon="4.82396">
        <ele>115.19999694824</ele>
        <time>2024-05-21T13:12:51.000Z</time>
      </trkpt>
      <trkpt lat="44.75335" lon="4.8239">
        <ele>115.40000152588</ele>
        <time>2024-05-21T13:12:52.000Z</time>
      </trkpt>
      <trkpt lat="44.75332" lon="4.82386">
        <ele>115.40000152588</ele>
        <time>2024-05-21T13:12:53.000Z</time>
      </trkpt>
      <trkpt lat="44.75329" lon="4.8238">
        <ele>115.40000152588</ele>
        <time>2024-05-21T13:12:54.000Z</time>
      </trkpt>
      <trkpt lat="44.75325" lon="4.82373">
        <ele>115.59999847412</ele>
        <time>2024-05-21T13:12:55.000Z</time>
      </trkpt>
      <trkpt lat="44.75322" lon="4.82368">
        <ele>115.59999847412</ele>
        <time>2024-05-21T13:12:56.000Z</time>
      </trkpt>
      <trkpt lat="44.75319" lon="4.82363">
        <ele>115.80000305176</ele>
        <time>2024-05-21T13:12:57.000Z</time>
      </trkpt>
      <trkpt lat="44.75316" lon="4.82358">
        <ele>116</ele>
        <time>2024-05-21T13:12:58.000Z</time>
      </trkpt>
      <trkpt lat="44.75314" lon="4.82353">
        <ele>116</ele>
        <time>2024-05-21T13:12:59.000Z</time>
      </trkpt>
      <trkpt lat="44.75311" lon="4.82347">
        <ele>116</ele>
        <time>2024-05-21T13:13:00.000Z</time>
      </trkpt>
      <trkpt lat="44.75308" lon="4.82342">
        <ele>116.19999694824</ele>
        <time>2024-05-21T13:13:01.000Z</time>
      </trkpt>
      <trkpt lat="44.75306" lon="4.82338">
        <ele>116.40000152588</ele>
        <time>2024-05-21T13:13:02.000Z</time>
      </trkpt>
      <trkpt lat="44.75303" lon="4.82333">
        <ele>116.40000152588</ele>
        <time>2024-05-21T13:13:03.000Z</time>
      </trkpt>
      <trkpt lat="44.753" lon="4.82327">
        <ele>116.59999847412</ele>
        <time>2024-05-21T13:13:04.000Z</time>
      </trkpt>
      <trkpt lat="44.75299" lon="4.82323">
        <ele>116.59999847412</ele>
        <time>2024-05-21T13:13:05.000Z</time>
      </trkpt>
      <trkpt lat="44.75297" lon="4.82317">
        <ele>116.59999847412</ele>
        <time>2024-05-21T13:13:06.000Z</time>
      </trkpt>
      <trkpt lat="44.75296" lon="4.8231">
        <ele>116.59999847412</ele>
        <time>2024-05-21T13:13:07.000Z</time>
      </trkpt>
      <trkpt lat="44.75295" lon="4.82304">
        <ele>116.59999847412</ele>
        <time>2024-05-21T13:13:08.000Z</time>
      </trkpt>
      <trkpt lat="44.75295" lon="4.82297">
        <ele>116.59999847412</ele>
        <time>2024-05-21T13:13:09.000Z</time>
      </trkpt>
      <trkpt lat="44.75294" lon="4.82288">
        <ele>116.40000152588</ele>
        <time>2024-05-21T13:13:10.000Z</time>
      </trkpt>
      <trkpt lat="44.75294" lon="4.8228">
        <ele>116</ele>
        <time>2024-05-21T13:13:11.000Z</time>
      </trkpt>
      <trkpt lat="44.75293" lon="4.82272">
        <ele>115.80000305176</ele>
        <time>2024-05-21T13:13:12.000Z</time>
      </trkpt>
      <trkpt lat="44.75292" lon="4.82263">
        <ele>115.59999847412</ele>
        <time>2024-05-21T13:13:13.000Z</time>
      </trkpt>
      <trkpt lat="44.75292" lon="4.82255">
        <ele>115.40000152588</ele>
        <time>2024-05-21T13:13:14.000Z</time>
      </trkpt>
      <trkpt lat="44.75291" lon="4.82247">
        <ele>115.19999694824</ele>
        <time>2024-05-21T13:13:15.000Z</time>
      </trkpt>
      <trkpt lat="44.7529" lon="4.82239">
        <ele>115</ele>
        <time>2024-05-21T13:13:16.000Z</time>
      </trkpt>
      <trkpt lat="44.7529" lon="4.82231">
        <ele>114.80000305176</ele>
        <time>2024-05-21T13:13:17.000Z</time>
      </trkpt>
      <trkpt lat="44.75289" lon="4.82223">
        <ele>114.59999847412</ele>
        <time>2024-05-21T13:13:18.000Z</time>
      </trkpt>
      <trkpt lat="44.75289" lon="4.82216">
        <ele>114.59999847412</ele>
        <time>2024-05-21T13:13:19.000Z</time>
      </trkpt>
      <trkpt lat="44.75289" lon="4.82209">
        <ele>114.59999847412</ele>
        <time>2024-05-21T13:13:20.000Z</time>
      </trkpt>
      <trkpt lat="44.75288" lon="4.82199">
        <ele>114.59999847412</ele>
        <time>2024-05-21T13:13:21.000Z</time>
      </trkpt>
      <trkpt lat="44.75288" lon="4.82191">
        <ele>114.59999847412</ele>
        <time>2024-05-21T13:13:22.000Z</time>
      </trkpt>
      <trkpt lat="44.75288" lon="4.82185">
        <ele>114.40000152588</ele>
        <time>2024-05-21T13:13:23.000Z</time>
      </trkpt>
      <trkpt lat="44.75287" lon="4.82177">
        <ele>114.19999694824</ele>
        <time>2024-05-21T13:13:24.000Z</time>
      </trkpt>
      <trkpt lat="44.75286" lon="4.82168">
        <ele>114.19999694824</ele>
        <time>2024-05-21T13:13:25.000Z</time>
      </trkpt>
      <trkpt lat="44.75283" lon="4.82161">
        <ele>113.80000305176</ele>
        <time>2024-05-21T13:13:26.000Z</time>
      </trkpt>
      <trkpt lat="44.75281" lon="4.82156">
        <ele>113.59999847412</ele>
        <time>2024-05-21T13:13:27.000Z</time>
      </trkpt>
      <trkpt lat="44.75277" lon="4.82147">
        <ele>113.40000152588</ele>
        <time>2024-05-21T13:13:28.000Z</time>
      </trkpt>
      <trkpt lat="44.75275" lon="4.82142">
        <ele>113.19999694824</ele>
        <time>2024-05-21T13:13:29.000Z</time>
      </trkpt>
      <trkpt lat="44.75272" lon="4.82135">
        <ele>113.19999694824</ele>
        <time>2024-05-21T13:13:30.000Z</time>
      </trkpt>
      <trkpt lat="44.7527" lon="4.82126">
        <ele>113</ele>
        <time>2024-05-21T13:13:31.000Z</time>
      </trkpt>
      <trkpt lat="44.75268" lon="4.82121">
        <ele>112.59999847412</ele>
        <time>2024-05-21T13:13:32.000Z</time>
      </trkpt>
      <trkpt lat="44.75265" lon="4.82112">
        <ele>112.59999847412</ele>
        <time>2024-05-21T13:13:33.000Z</time>
      </trkpt>
      <trkpt lat="44.75262" lon="4.82106">
        <ele>112.40000152588</ele>
        <time>2024-05-21T13:13:34.000Z</time>
      </trkpt>
      <trkpt lat="44.7526" lon="4.82101">
        <ele>112.40000152588</ele>
        <time>2024-05-21T13:13:35.000Z</time>
      </trkpt>
      <trkpt lat="44.75258" lon="4.82097">
        <ele>112.40000152588</ele>
        <time>2024-05-21T13:13:36.000Z</time>
      </trkpt>
      <trkpt lat="44.75256" lon="4.82092">
        <ele>112.40000152588</ele>
        <time>2024-05-21T13:13:37.000Z</time>
      </trkpt>
      <trkpt lat="44.75255" lon="4.82089">
        <ele>112.40000152588</ele>
        <time>2024-05-21T13:13:38.000Z</time>
      </trkpt>
      <trkpt lat="44.75254" lon="4.82087">
        <ele>112.59999847412</ele>
        <time>2024-05-21T13:13:39.000Z</time>
      </trkpt>
      <trkpt lat="44.75254" lon="4.82085">
        <ele>112.80000305176</ele>
        <time>2024-05-21T13:13:40.000Z</time>
      </trkpt>
      <trkpt lat="44.75254" lon="4.82084">
        <ele>113</ele>
        <time>2024-05-21T13:13:41.000Z</time>
      </trkpt>
      <trkpt lat="44.75254" lon="4.82083">
        <ele>113.19999694824</ele>
        <time>2024-05-21T13:13:42.000Z</time>
      </trkpt>
      <trkpt lat="44.75254" lon="4.82083">
        <ele>113.19999694824</ele>
        <time>2024-05-21T13:13:43.000Z</time>
      </trkpt>
      <trkpt lat="44.75254" lon="4.82083">
        <ele>113.19999694824</ele>
        <time>2024-05-21T13:13:44.000Z</time>
      </trkpt>
      <trkpt lat="44.75251" lon="4.82079">
        <ele>113.19999694824</ele>
        <time>2024-05-21T13:14:09.000Z</time>
      </trkpt>
      <trkpt lat="44.75249" lon="4.82077">
        <ele>113.19999694824</ele>
        <time>2024-05-21T13:14:10.000Z</time>
      </trkpt>
      <trkpt lat="44.75246" lon="4.82074">
        <ele>113.19999694824</ele>
        <time>2024-05-21T13:14:11.000Z</time>
      </trkpt>
      <trkpt lat="44.75244" lon="4.82072">
        <ele>113.19999694824</ele>
        <time>2024-05-21T13:14:12.000Z</time>
      </trkpt>
      <trkpt lat="44.75242" lon="4.8207">
        <ele>113</ele>
        <time>2024-05-21T13:14:13.000Z</time>
      </trkpt>
      <trkpt lat="44.75239" lon="4.82068">
        <ele>113</ele>
        <time>2024-05-21T13:14:14.000Z</time>
      </trkpt>
      <trkpt lat="44.75235" lon="4.82065">
        <ele>113</ele>
        <time>2024-05-21T13:14:15.000Z</time>
      </trkpt>
      <trkpt lat="44.75232" lon="4.82062">
        <ele>113</ele>
        <time>2024-05-21T13:14:16.000Z</time>
      </trkpt>
      <trkpt lat="44.75227" lon="4.8206">
        <ele>113</ele>
        <time>2024-05-21T13:14:17.000Z</time>
      </trkpt>
      <trkpt lat="44.75223" lon="4.82058">
        <ele>113</ele>
        <time>2024-05-21T13:14:18.000Z</time>
      </trkpt>
      <trkpt lat="44.7522" lon="4.82055">
        <ele>113</ele>
        <time>2024-05-21T13:14:19.000Z</time>
      </trkpt>
      <trkpt lat="44.75215" lon="4.82052">
        <ele>113</ele>
        <time>2024-05-21T13:14:20.000Z</time>
      </trkpt>
      <trkpt lat="44.75212" lon="4.82049">
        <ele>113</ele>
        <time>2024-05-21T13:14:21.000Z</time>
      </trkpt>
      <trkpt lat="44.75208" lon="4.82047">
        <ele>113</ele>
        <time>2024-05-21T13:14:22.000Z</time>
      </trkpt>
      <trkpt lat="44.75205" lon="4.82044">
        <ele>113</ele>
        <time>2024-05-21T13:14:23.000Z</time>
      </trkpt>
      <trkpt lat="44.752" lon="4.8204">
        <ele>113</ele>
        <time>2024-05-21T13:14:24.000Z</time>
      </trkpt>
      <trkpt lat="44.75196" lon="4.82037">
        <ele>113</ele>
        <time>2024-05-21T13:14:25.000Z</time>
      </trkpt>
      <trkpt lat="44.75191" lon="4.82033">
        <ele>113</ele>
        <time>2024-05-21T13:14:26.000Z</time>
      </trkpt>
      <trkpt lat="44.75187" lon="4.82031">
        <ele>112.80000305176</ele>
        <time>2024-05-21T13:14:27.000Z</time>
      </trkpt>
      <trkpt lat="44.75182" lon="4.82028">
        <ele>112.80000305176</ele>
        <time>2024-05-21T13:14:28.000Z</time>
      </trkpt>
      <trkpt lat="44.75177" lon="4.82025">
        <ele>112.80000305176</ele>
        <time>2024-05-21T13:14:29.000Z</time>
      </trkpt>
      <trkpt lat="44.7517" lon="4.82023">
        <ele>112.80000305176</ele>
        <time>2024-05-21T13:14:30.000Z</time>
      </trkpt>
      <trkpt lat="44.75166" lon="4.82022">
        <ele>112.59999847412</ele>
        <time>2024-05-21T13:14:31.000Z</time>
      </trkpt>
      <trkpt lat="44.75159" lon="4.82022">
        <ele>112.59999847412</ele>
        <time>2024-05-21T13:14:32.000Z</time>
      </trkpt>
      <trkpt lat="44.75155" lon="4.82022">
        <ele>112.59999847412</ele>
        <time>2024-05-21T13:14:33.000Z</time>
      </trkpt>
      <trkpt lat="44.7515" lon="4.82023">
        <ele>112.59999847412</ele>
        <time>2024-05-21T13:14:34.000Z</time>
      </trkpt>
      <trkpt lat="44.75144" lon="4.82026">
        <ele>112.59999847412</ele>
        <time>2024-05-21T13:14:35.000Z</time>
      </trkpt>
      <trkpt lat="44.7514" lon="4.82029">
        <ele>112.59999847412</ele>
        <time>2024-05-21T13:14:36.000Z</time>
      </trkpt>
      <trkpt lat="44.75136" lon="4.82031">
        <ele>112.80000305176</ele>
        <time>2024-05-21T13:14:37.000Z</time>
      </trkpt>
      <trkpt lat="44.75131" lon="4.82036">
        <ele>113</ele>
        <time>2024-05-21T13:14:38.000Z</time>
      </trkpt>
      <trkpt lat="44.75126" lon="4.82039">
        <ele>113</ele>
        <time>2024-05-21T13:14:39.000Z</time>
      </trkpt>
      <trkpt lat="44.75123" lon="4.82042">
        <ele>113</ele>
        <time>2024-05-21T13:14:40.000Z</time>
      </trkpt>
      <trkpt lat="44.75119" lon="4.82047">
        <ele>113</ele>
        <time>2024-05-21T13:14:41.000Z</time>
      </trkpt>
      <trkpt lat="44.75115" lon="4.82052">
        <ele>113</ele>
        <time>2024-05-21T13:14:42.000Z</time>
      </trkpt>
      <trkpt lat="44.75112" lon="4.82054">
        <ele>113.19999694824</ele>
        <time>2024-05-21T13:14:43.000Z</time>
      </trkpt>
      <trkpt lat="44.75107" lon="4.82057">
        <ele>113.19999694824</ele>
        <time>2024-05-21T13:14:44.000Z</time>
      </trkpt>
      <trkpt lat="44.75102" lon="4.82058">
        <ele>113.19999694824</ele>
        <time>2024-05-21T13:14:45.000Z</time>
      </trkpt>
      <trkpt lat="44.75098" lon="4.82057">
        <ele>113.19999694824</ele>
        <time>2024-05-21T13:14:46.000Z</time>
      </trkpt>
      <trkpt lat="44.75094" lon="4.82056">
        <ele>113.19999694824</ele>
        <time>2024-05-21T13:14:47.000Z</time>
      </trkpt>
      <trkpt lat="44.7509" lon="4.82053">
        <ele>113.40000152588</ele>
        <time>2024-05-21T13:14:48.000Z</time>
      </trkpt>
      <trkpt lat="44.75086" lon="4.82049">
        <ele>113.19999694824</ele>
        <time>2024-05-21T13:14:49.000Z</time>
      </trkpt>
      <trkpt lat="44.75082" lon="4.82046">
        <ele>113.19999694824</ele>
        <time>2024-05-21T13:14:50.000Z</time>
      </trkpt>
      <trkpt lat="44.75079" lon="4.82042">
        <ele>113</ele>
        <time>2024-05-21T13:14:51.000Z</time>
      </trkpt>
      <trkpt lat="44.75075" lon="4.82038">
        <ele>112.80000305176</ele>
        <time>2024-05-21T13:14:52.000Z</time>
      </trkpt>
      <trkpt lat="44.75071" lon="4.82035">
        <ele>112.80000305176</ele>
        <time>2024-05-21T13:14:53.000Z</time>
      </trkpt>
      <trkpt lat="44.75066" lon="4.82032">
        <ele>112.80000305176</ele>
        <time>2024-05-21T13:14:54.000Z</time>
      </trkpt>
      <trkpt lat="44.75061" lon="4.82028">
        <ele>112.80000305176</ele>
        <time>2024-05-21T13:14:55.000Z</time>
      </trkpt>
      <trkpt lat="44.75057" lon="4.82025">
        <ele>113</ele>
        <time>2024-05-21T13:14:56.000Z</time>
      </trkpt>
      <trkpt lat="44.75053" lon="4.82022">
        <ele>113</ele>
        <time>2024-05-21T13:14:57.000Z</time>
      </trkpt>
      <trkpt lat="44.75048" lon="4.82017">
        <ele>113.40000152588</ele>
        <time>2024-05-21T13:14:58.000Z</time>
      </trkpt>
      <trkpt lat="44.75044" lon="4.82013">
        <ele>113.40000152588</ele>
        <time>2024-05-21T13:14:59.000Z</time>
      </trkpt>
      <trkpt lat="44.75041" lon="4.8201">
        <ele>113.40000152588</ele>
        <time>2024-05-21T13:15:00.000Z</time>
      </trkpt>
      <trkpt lat="44.75037" lon="4.82007">
        <ele>113.59999847412</ele>
        <time>2024-05-21T13:15:01.000Z</time>
      </trkpt>
      <trkpt lat="44.75032" lon="4.82002">
        <ele>113.59999847412</ele>
        <time>2024-05-21T13:15:02.000Z</time>
      </trkpt>
      <trkpt lat="44.75029" lon="4.81999">
        <ele>113.59999847412</ele>
        <time>2024-05-21T13:15:03.000Z</time>
      </trkpt>
      <trkpt lat="44.75024" lon="4.81994">
        <ele>113.80000305176</ele>
        <time>2024-05-21T13:15:04.000Z</time>
      </trkpt>
      <trkpt lat="44.75021" lon="4.81989">
        <ele>113.80000305176</ele>
        <time>2024-05-21T13:15:05.000Z</time>
      </trkpt>
      <trkpt lat="44.75018" lon="4.81985">
        <ele>113.59999847412</ele>
        <time>2024-05-21T13:15:06.000Z</time>
      </trkpt>
      <trkpt lat="44.75013" lon="4.8198">
        <ele>113.80000305176</ele>
        <time>2024-05-21T13:15:07.000Z</time>
      </trkpt>
      <trkpt lat="44.75009" lon="4.81976">
        <ele>113.80000305176</ele>
        <time>2024-05-21T13:15:08.000Z</time>
      </trkpt>
      <trkpt lat="44.75006" lon="4.81973">
        <ele>113.59999847412</ele>
        <time>2024-05-21T13:15:09.000Z</time>
      </trkpt>
      <trkpt lat="44.75002" lon="4.81969">
        <ele>113.80000305176</ele>
        <time>2024-05-21T13:15:10.000Z</time>
      </trkpt>
      <trkpt lat="44.74998" lon="4.81965">
        <ele>113.80000305176</ele>
        <time>2024-05-21T13:15:11.000Z</time>
      </trkpt>
      <trkpt lat="44.74995" lon="4.8196">
        <ele>113.80000305176</ele>
        <time>2024-05-21T13:15:12.000Z</time>
      </trkpt>
      <trkpt lat="44.74991" lon="4.81955">
        <ele>113.80000305176</ele>
        <time>2024-05-21T13:15:13.000Z</time>
      </trkpt>
      <trkpt lat="44.74988" lon="4.81951">
        <ele>113.80000305176</ele>
        <time>2024-05-21T13:15:14.000Z</time>
      </trkpt>
      <trkpt lat="44.74985" lon="4.81947">
        <ele>113.80000305176</ele>
        <time>2024-05-21T13:15:15.000Z</time>
      </trkpt>
      <trkpt lat="44.74981" lon="4.81941">
        <ele>113.80000305176</ele>
        <time>2024-05-21T13:15:16.000Z</time>
      </trkpt>
      <trkpt lat="44.74978" lon="4.81937">
        <ele>114</ele>
        <time>2024-05-21T13:15:17.000Z</time>
      </trkpt>
      <trkpt lat="44.74975" lon="4.81933">
        <ele>114</ele>
        <time>2024-05-21T13:15:18.000Z</time>
      </trkpt>
      <trkpt lat="44.74971" lon="4.81927">
        <ele>114.19999694824</ele>
        <time>2024-05-21T13:15:19.000Z</time>
      </trkpt>
      <trkpt lat="44.74967" lon="4.81922">
        <ele>114.40000152588</ele>
        <time>2024-05-21T13:15:20.000Z</time>
      </trkpt>
      <trkpt lat="44.74964" lon="4.81919">
        <ele>114.59999847412</ele>
        <time>2024-05-21T13:15:21.000Z</time>
      </trkpt>
      <trkpt lat="44.7496" lon="4.81913">
        <ele>114.59999847412</ele>
        <time>2024-05-21T13:15:22.000Z</time>
      </trkpt>
      <trkpt lat="44.74956" lon="4.81909">
        <ele>114.80000305176</ele>
        <time>2024-05-21T13:15:23.000Z</time>
      </trkpt>
      <trkpt lat="44.74953" lon="4.81905">
        <ele>115</ele>
        <time>2024-05-21T13:15:24.000Z</time>
      </trkpt>
      <trkpt lat="44.7495" lon="4.819">
        <ele>115</ele>
        <time>2024-05-21T13:15:25.000Z</time>
      </trkpt>
      <trkpt lat="44.74946" lon="4.81894">
        <ele>115</ele>
        <time>2024-05-21T13:15:26.000Z</time>
      </trkpt>
      <trkpt lat="44.74943" lon="4.8189">
        <ele>115</ele>
        <time>2024-05-21T13:15:27.000Z</time>
      </trkpt>
      <trkpt lat="44.74937" lon="4.81885">
        <ele>114.80000305176</ele>
        <time>2024-05-21T13:15:28.000Z</time>
      </trkpt>
      <trkpt lat="44.74934" lon="4.81883">
        <ele>114.80000305176</ele>
        <time>2024-05-21T13:15:29.000Z</time>
      </trkpt>
      <trkpt lat="44.74929" lon="4.81879">
        <ele>114.80000305176</ele>
        <time>2024-05-21T13:15:30.000Z</time>
      </trkpt>
      <trkpt lat="44.74924" lon="4.81874">
        <ele>114.80000305176</ele>
        <time>2024-05-21T13:15:31.000Z</time>
      </trkpt>
      <trkpt lat="44.74921" lon="4.8187">
        <ele>114.80000305176</ele>
        <time>2024-05-21T13:15:32.000Z</time>
      </trkpt>
      <trkpt lat="44.74917" lon="4.81864">
        <ele>114.80000305176</ele>
        <time>2024-05-21T13:15:33.000Z</time>
      </trkpt>
      <trkpt lat="44.74913" lon="4.81858">
        <ele>114.80000305176</ele>
        <time>2024-05-21T13:15:34.000Z</time>
      </trkpt>
      <trkpt lat="44.74909" lon="4.81853">
        <ele>114.80000305176</ele>
        <time>2024-05-21T13:15:35.000Z</time>
      </trkpt>
      <trkpt lat="44.74906" lon="4.8185">
        <ele>114.80000305176</ele>
        <time>2024-05-21T13:15:36.000Z</time>
      </trkpt>
      <trkpt lat="44.74902" lon="4.81844">
        <ele>114.80000305176</ele>
        <time>2024-05-21T13:15:37.000Z</time>
      </trkpt>
      <trkpt lat="44.74898" lon="4.8184">
        <ele>114.80000305176</ele>
        <time>2024-05-21T13:15:38.000Z</time>
      </trkpt>
      <trkpt lat="44.74895" lon="4.81836">
        <ele>114.80000305176</ele>
        <time>2024-05-21T13:15:39.000Z</time>
      </trkpt>
      <trkpt lat="44.74891" lon="4.8183">
        <ele>114.80000305176</ele>
        <time>2024-05-21T13:15:40.000Z</time>
      </trkpt>
      <trkpt lat="44.74888" lon="4.81826">
        <ele>114.80000305176</ele>
        <time>2024-05-21T13:15:41.000Z</time>
      </trkpt>
      <trkpt lat="44.74885" lon="4.81821">
        <ele>114.80000305176</ele>
        <time>2024-05-21T13:15:42.000Z</time>
      </trkpt>
      <trkpt lat="44.74881" lon="4.81816">
        <ele>114.59999847412</ele>
        <time>2024-05-21T13:15:43.000Z</time>
      </trkpt>
      <trkpt lat="44.74877" lon="4.81811">
        <ele>114.19999694824</ele>
        <time>2024-05-21T13:15:44.000Z</time>
      </trkpt>
      <trkpt lat="44.74873" lon="4.81806">
        <ele>114</ele>
        <time>2024-05-21T13:15:45.000Z</time>
      </trkpt>
      <trkpt lat="44.74869" lon="4.81801">
        <ele>113.80000305176</ele>
        <time>2024-05-21T13:15:46.000Z</time>
      </trkpt>
      <trkpt lat="44.74864" lon="4.81794">
        <ele>113.59999847412</ele>
        <time>2024-05-21T13:15:47.000Z</time>
      </trkpt>
      <trkpt lat="44.74861" lon="4.8179">
        <ele>113.40000152588</ele>
        <time>2024-05-21T13:15:48.000Z</time>
      </trkpt>
      <trkpt lat="44.74856" lon="4.81783">
        <ele>113.19999694824</ele>
        <time>2024-05-21T13:15:49.000Z</time>
      </trkpt>
      <trkpt lat="44.74851" lon="4.81777">
        <ele>113.19999694824</ele>
        <time>2024-05-21T13:15:50.000Z</time>
      </trkpt>
      <trkpt lat="44.74847" lon="4.81773">
        <ele>113</ele>
        <time>2024-05-21T13:15:51.000Z</time>
      </trkpt>
      <trkpt lat="44.74841" lon="4.81765">
        <ele>112.80000305176</ele>
        <time>2024-05-21T13:15:52.000Z</time>
      </trkpt>
      <trkpt lat="44.74837" lon="4.8176">
        <ele>112.59999847412</ele>
        <time>2024-05-21T13:15:53.000Z</time>
      </trkpt>
      <trkpt lat="44.74832" lon="4.81754">
        <ele>112.40000152588</ele>
        <time>2024-05-21T13:15:54.000Z</time>
      </trkpt>
      <trkpt lat="44.74827" lon="4.81747">
        <ele>112.19999694824</ele>
        <time>2024-05-21T13:15:55.000Z</time>
      </trkpt>
      <trkpt lat="44.74821" lon="4.8174">
        <ele>111.80000305176</ele>
        <time>2024-05-21T13:15:56.000Z</time>
      </trkpt>
      <trkpt lat="44.74817" lon="4.81734">
        <ele>111.40000152588</ele>
        <time>2024-05-21T13:15:57.000Z</time>
      </trkpt>
      <trkpt lat="44.7481" lon="4.81726">
        <ele>111</ele>
        <time>2024-05-21T13:15:58.000Z</time>
      </trkpt>
      <trkpt lat="44.74805" lon="4.81718">
        <ele>110.80000305176</ele>
        <time>2024-05-21T13:15:59.000Z</time>
      </trkpt>
      <trkpt lat="44.74801" lon="4.81713">
        <ele>110.40000152588</ele>
        <time>2024-05-21T13:16:00.000Z</time>
      </trkpt>
      <trkpt lat="44.74795" lon="4.81705">
        <ele>110.19999694824</ele>
        <time>2024-05-21T13:16:01.000Z</time>
      </trkpt>
      <trkpt lat="44.74791" lon="4.817">
        <ele>109.80000305176</ele>
        <time>2024-05-21T13:16:02.000Z</time>
      </trkpt>
      <trkpt lat="44.74786" lon="4.81694">
        <ele>109.59999847412</ele>
        <time>2024-05-21T13:16:03.000Z</time>
      </trkpt>
      <trkpt lat="44.7478" lon="4.81686">
        <ele>109.40000152588</ele>
        <time>2024-05-21T13:16:04.000Z</time>
      </trkpt>
      <trkpt lat="44.74776" lon="4.8168">
        <ele>109.19999694824</ele>
        <time>2024-05-21T13:16:05.000Z</time>
      </trkpt>
      <trkpt lat="44.74771" lon="4.81674">
        <ele>109.19999694824</ele>
        <time>2024-05-21T13:16:06.000Z</time>
      </trkpt>
      <trkpt lat="44.74765" lon="4.81666">
        <ele>109.19999694824</ele>
        <time>2024-05-21T13:16:07.000Z</time>
      </trkpt>
      <trkpt lat="44.7476" lon="4.81659">
        <ele>109.19999694824</ele>
        <time>2024-05-21T13:16:08.000Z</time>
      </trkpt>
      <trkpt lat="44.74756" lon="4.81654">
        <ele>109</ele>
        <time>2024-05-21T13:16:09.000Z</time>
      </trkpt>
      <trkpt lat="44.74751" lon="4.81647">
        <ele>108.80000305176</ele>
        <time>2024-05-21T13:16:10.000Z</time>
      </trkpt>
      <trkpt lat="44.74745" lon="4.81639">
        <ele>108.59999847412</ele>
        <time>2024-05-21T13:16:11.000Z</time>
      </trkpt>
      <trkpt lat="44.74741" lon="4.81634">
        <ele>108.40000152588</ele>
        <time>2024-05-21T13:16:12.000Z</time>
      </trkpt>
      <trkpt lat="44.74735" lon="4.81626">
        <ele>108.40000152588</ele>
        <time>2024-05-21T13:16:13.000Z</time>
      </trkpt>
      <trkpt lat="44.74731" lon="4.81621">
        <ele>108.40000152588</ele>
        <time>2024-05-21T13:16:14.000Z</time>
      </trkpt>
      <trkpt lat="44.74726" lon="4.81615">
        <ele>108.40000152588</ele>
        <time>2024-05-21T13:16:15.000Z</time>
      </trkpt>
      <trkpt lat="44.74719" lon="4.81607">
        <ele>108.40000152588</ele>
        <time>2024-05-21T13:16:16.000Z</time>
      </trkpt>
      <trkpt lat="44.74714" lon="4.816">
        <ele>108.40000152588</ele>
        <time>2024-05-21T13:16:17.000Z</time>
      </trkpt>
      <trkpt lat="44.7471" lon="4.81595">
        <ele>108.40000152588</ele>
        <time>2024-05-21T13:16:18.000Z</time>
      </trkpt>
      <trkpt lat="44.74703" lon="4.81587">
        <ele>108.19999694824</ele>
        <time>2024-05-21T13:16:19.000Z</time>
      </trkpt>
      <trkpt lat="44.74698" lon="4.81581">
        <ele>108</ele>
        <time>2024-05-21T13:16:20.000Z</time>
      </trkpt>
      <trkpt lat="44.74693" lon="4.81574">
        <ele>108</ele>
        <time>2024-05-21T13:16:21.000Z</time>
      </trkpt>
      <trkpt lat="44.74689" lon="4.81568">
        <ele>108</ele>
        <time>2024-05-21T13:16:22.000Z</time>
      </trkpt>
      <trkpt lat="44.74684" lon="4.81562">
        <ele>108</ele>
        <time>2024-05-21T13:16:23.000Z</time>
      </trkpt>
      <trkpt lat="44.74679" lon="4.81556">
        <ele>108</ele>
        <time>2024-05-21T13:16:24.000Z</time>
      </trkpt>
      <trkpt lat="44.74674" lon="4.81549">
        <ele>108</ele>
        <time>2024-05-21T13:16:25.000Z</time>
      </trkpt>
      <trkpt lat="44.74669" lon="4.81545">
        <ele>108.19999694824</ele>
        <time>2024-05-21T13:16:26.000Z</time>
      </trkpt>
      <trkpt lat="44.74664" lon="4.81539">
        <ele>108.19999694824</ele>
        <time>2024-05-21T13:16:27.000Z</time>
      </trkpt>
      <trkpt lat="44.74658" lon="4.81532">
        <ele>108.40000152588</ele>
        <time>2024-05-21T13:16:28.000Z</time>
      </trkpt>
      <trkpt lat="44.74653" lon="4.81527">
        <ele>108.40000152588</ele>
        <time>2024-05-21T13:16:29.000Z</time>
      </trkpt>
      <trkpt lat="44.74649" lon="4.81521">
        <ele>108.40000152588</ele>
        <time>2024-05-21T13:16:30.000Z</time>
      </trkpt>
      <trkpt lat="44.74644" lon="4.81515">
        <ele>108.59999847412</ele>
        <time>2024-05-21T13:16:31.000Z</time>
      </trkpt>
      <trkpt lat="44.74639" lon="4.81509">
        <ele>108.59999847412</ele>
        <time>2024-05-21T13:16:32.000Z</time>
      </trkpt>
      <trkpt lat="44.74635" lon="4.81503">
        <ele>108.59999847412</ele>
        <time>2024-05-21T13:16:33.000Z</time>
      </trkpt>
      <trkpt lat="44.7463" lon="4.81496">
        <ele>108.59999847412</ele>
        <time>2024-05-21T13:16:34.000Z</time>
      </trkpt>
      <trkpt lat="44.74626" lon="4.8149">
        <ele>109</ele>
        <time>2024-05-21T13:16:35.000Z</time>
      </trkpt>
      <trkpt lat="44.74622" lon="4.81486">
        <ele>109</ele>
        <time>2024-05-21T13:16:36.000Z</time>
      </trkpt>
      <trkpt lat="44.74619" lon="4.81481">
        <ele>109</ele>
        <time>2024-05-21T13:16:37.000Z</time>
      </trkpt>
      <trkpt lat="44.74614" lon="4.81475">
        <ele>109</ele>
        <time>2024-05-21T13:16:38.000Z</time>
      </trkpt>
      <trkpt lat="44.74612" lon="4.81471">
        <ele>109.19999694824</ele>
        <time>2024-05-21T13:16:39.000Z</time>
      </trkpt>
      <trkpt lat="44.74608" lon="4.81466">
        <ele>109.19999694824</ele>
        <time>2024-05-21T13:16:40.000Z</time>
      </trkpt>
      <trkpt lat="44.74605" lon="4.81461">
        <ele>109.19999694824</ele>
        <time>2024-05-21T13:16:41.000Z</time>
      </trkpt>
      <trkpt lat="44.74601" lon="4.81456">
        <ele>109.40000152588</ele>
        <time>2024-05-21T13:16:42.000Z</time>
      </trkpt>
      <trkpt lat="44.74597" lon="4.81451">
        <ele>109.59999847412</ele>
        <time>2024-05-21T13:16:43.000Z</time>
      </trkpt>
      <trkpt lat="44.74593" lon="4.81446">
        <ele>109.80000305176</ele>
        <time>2024-05-21T13:16:44.000Z</time>
      </trkpt>
      <trkpt lat="44.74589" lon="4.81443">
        <ele>110</ele>
        <time>2024-05-21T13:16:45.000Z</time>
      </trkpt>
      <trkpt lat="44.74582" lon="4.81438">
        <ele>110</ele>
        <time>2024-05-21T13:16:46.000Z</time>
      </trkpt>
      <trkpt lat="44.74577" lon="4.81433">
        <ele>110</ele>
        <time>2024-05-21T13:16:47.000Z</time>
      </trkpt>
      <trkpt lat="44.74573" lon="4.8143">
        <ele>110.19999694824</ele>
        <time>2024-05-21T13:16:48.000Z</time>
      </trkpt>
      <trkpt lat="44.74567" lon="4.81425">
        <ele>110.40000152588</ele>
        <time>2024-05-21T13:16:49.000Z</time>
      </trkpt>
      <trkpt lat="44.74562" lon="4.81422">
        <ele>110.59999847412</ele>
        <time>2024-05-21T13:16:50.000Z</time>
      </trkpt>
      <trkpt lat="44.74558" lon="4.81419">
        <ele>110.59999847412</ele>
        <time>2024-05-21T13:16:51.000Z</time>
      </trkpt>
      <trkpt lat="44.74552" lon="4.81414">
        <ele>110.80000305176</ele>
        <time>2024-05-21T13:16:52.000Z</time>
      </trkpt>
      <trkpt lat="44.74548" lon="4.8141">
        <ele>111</ele>
        <time>2024-05-21T13:16:53.000Z</time>
      </trkpt>
      <trkpt lat="44.74542" lon="4.81406">
        <ele>111</ele>
        <time>2024-05-21T13:16:54.000Z</time>
      </trkpt>
      <trkpt lat="44.74536" lon="4.81402">
        <ele>111.19999694824</ele>
        <time>2024-05-21T13:16:55.000Z</time>
      </trkpt>
      <trkpt lat="44.74531" lon="4.81398">
        <ele>111.19999694824</ele>
        <time>2024-05-21T13:16:56.000Z</time>
      </trkpt>
      <trkpt lat="44.74528" lon="4.81396">
        <ele>111.19999694824</ele>
        <time>2024-05-21T13:16:57.000Z</time>
      </trkpt>
      <trkpt lat="44.74523" lon="4.81391">
        <ele>111.19999694824</ele>
        <time>2024-05-21T13:16:58.000Z</time>
      </trkpt>
      <trkpt lat="44.74516" lon="4.81387">
        <ele>111.40000152588</ele>
        <time>2024-05-21T13:16:59.000Z</time>
      </trkpt>
      <trkpt lat="44.74512" lon="4.81384">
        <ele>111.40000152588</ele>
        <time>2024-05-21T13:17:00.000Z</time>
      </trkpt>
      <trkpt lat="44.74506" lon="4.8138">
        <ele>111.40000152588</ele>
        <time>2024-05-21T13:17:01.000Z</time>
      </trkpt>
      <trkpt lat="44.74501" lon="4.81377">
        <ele>111.59999847412</ele>
        <time>2024-05-21T13:17:02.000Z</time>
      </trkpt>
      <trkpt lat="44.74498" lon="4.81374">
        <ele>111.80000305176</ele>
        <time>2024-05-21T13:17:03.000Z</time>
      </trkpt>
      <trkpt lat="44.74493" lon="4.8137">
        <ele>111.80000305176</ele>
        <time>2024-05-21T13:17:04.000Z</time>
      </trkpt>
      <trkpt lat="44.74488" lon="4.81367">
        <ele>111.80000305176</ele>
        <time>2024-05-21T13:17:05.000Z</time>
      </trkpt>
      <trkpt lat="44.74484" lon="4.81365">
        <ele>112</ele>
        <time>2024-05-21T13:17:06.000Z</time>
      </trkpt>
      <trkpt lat="44.7448" lon="4.81361">
        <ele>112.19999694824</ele>
        <time>2024-05-21T13:17:07.000Z</time>
      </trkpt>
      <trkpt lat="44.74477" lon="4.81358">
        <ele>112.19999694824</ele>
        <time>2024-05-21T13:17:08.000Z</time>
      </trkpt>
      <trkpt lat="44.74474" lon="4.81356">
        <ele>112.59999847412</ele>
        <time>2024-05-21T13:17:09.000Z</time>
      </trkpt>
      <trkpt lat="44.7447" lon="4.81354">
        <ele>112.80000305176</ele>
        <time>2024-05-21T13:17:10.000Z</time>
      </trkpt>
      <trkpt lat="44.74465" lon="4.81351">
        <ele>113</ele>
        <time>2024-05-21T13:17:11.000Z</time>
      </trkpt>
      <trkpt lat="44.74462" lon="4.81349">
        <ele>113.19999694824</ele>
        <time>2024-05-21T13:17:12.000Z</time>
      </trkpt>
      <trkpt lat="44.74458" lon="4.81346">
        <ele>113.40000152588</ele>
        <time>2024-05-21T13:17:13.000Z</time>
      </trkpt>
      <trkpt lat="44.74454" lon="4.81343">
        <ele>113.59999847412</ele>
        <time>2024-05-21T13:17:14.000Z</time>
      </trkpt>
      <trkpt lat="44.74451" lon="4.8134">
        <ele>113.80000305176</ele>
        <time>2024-05-21T13:17:15.000Z</time>
      </trkpt>
      <trkpt lat="44.74447" lon="4.81337">
        <ele>114</ele>
        <time>2024-05-21T13:17:16.000Z</time>
      </trkpt>
      <trkpt lat="44.74444" lon="4.81335">
        <ele>114</ele>
        <time>2024-05-21T13:17:17.000Z</time>
      </trkpt>
      <trkpt lat="44.7444" lon="4.81333">
        <ele>114.19999694824</ele>
        <time>2024-05-21T13:17:18.000Z</time>
      </trkpt>
      <trkpt lat="44.74437" lon="4.8133">
        <ele>114.19999694824</ele>
        <time>2024-05-21T13:17:19.000Z</time>
      </trkpt>
      <trkpt lat="44.74433" lon="4.81328">
        <ele>114.40000152588</ele>
        <time>2024-05-21T13:17:20.000Z</time>
      </trkpt>
      <trkpt lat="44.7443" lon="4.81326">
        <ele>114.59999847412</ele>
        <time>2024-05-21T13:17:21.000Z</time>
      </trkpt>
      <trkpt lat="44.74426" lon="4.81323">
        <ele>114.80000305176</ele>
        <time>2024-05-21T13:17:22.000Z</time>
      </trkpt>
      <trkpt lat="44.74422" lon="4.8132">
        <ele>114.80000305176</ele>
        <time>2024-05-21T13:17:23.000Z</time>
      </trkpt>
      <trkpt lat="44.74419" lon="4.81318">
        <ele>115</ele>
        <time>2024-05-21T13:17:24.000Z</time>
      </trkpt>
      <trkpt lat="44.74416" lon="4.81315">
        <ele>115.19999694824</ele>
        <time>2024-05-21T13:17:25.000Z</time>
      </trkpt>
      <trkpt lat="44.74413" lon="4.81314">
        <ele>115.59999847412</ele>
        <time>2024-05-21T13:17:26.000Z</time>
      </trkpt>
      <trkpt lat="44.74409" lon="4.81311">
        <ele>115.59999847412</ele>
        <time>2024-05-21T13:17:27.000Z</time>
      </trkpt>
      <trkpt lat="44.74405" lon="4.81308">
        <ele>115.80000305176</ele>
        <time>2024-05-21T13:17:28.000Z</time>
      </trkpt>
      <trkpt lat="44.74402" lon="4.81306">
        <ele>116</ele>
        <time>2024-05-21T13:17:29.000Z</time>
      </trkpt>
      <trkpt lat="44.74399" lon="4.81305">
        <ele>116.19999694824</ele>
        <time>2024-05-21T13:17:30.000Z</time>
      </trkpt>
      <trkpt lat="44.74395" lon="4.81302">
        <ele>116.59999847412</ele>
        <time>2024-05-21T13:17:31.000Z</time>
      </trkpt>
      <trkpt lat="44.74391" lon="4.81301">
        <ele>116.59999847412</ele>
        <time>2024-05-21T13:17:32.000Z</time>
      </trkpt>
      <trkpt lat="44.74388" lon="4.81299">
        <ele>116.80000305176</ele>
        <time>2024-05-21T13:17:33.000Z</time>
      </trkpt>
      <trkpt lat="44.74384" lon="4.81297">
        <ele>117</ele>
        <time>2024-05-21T13:17:34.000Z</time>
      </trkpt>
      <trkpt lat="44.7438" lon="4.81296">
        <ele>117</ele>
        <time>2024-05-21T13:17:35.000Z</time>
      </trkpt>
      <trkpt lat="44.74377" lon="4.81295">
        <ele>117.19999694824</ele>
        <time>2024-05-21T13:17:36.000Z</time>
      </trkpt>
      <trkpt lat="44.74372" lon="4.81293">
        <ele>117.19999694824</ele>
        <time>2024-05-21T13:17:37.000Z</time>
      </trkpt>
      <trkpt lat="44.74368" lon="4.81292">
        <ele>117.40000152588</ele>
        <time>2024-05-21T13:17:38.000Z</time>
      </trkpt>
      <trkpt lat="44.74365" lon="4.81291">
        <ele>117.40000152588</ele>
        <time>2024-05-21T13:17:39.000Z</time>
      </trkpt>
      <trkpt lat="44.74361" lon="4.8129">
        <ele>117.40000152588</ele>
        <time>2024-05-21T13:17:40.000Z</time>
      </trkpt>
      <trkpt lat="44.74357" lon="4.81289">
        <ele>117.59999847412</ele>
        <time>2024-05-21T13:17:41.000Z</time>
      </trkpt>
      <trkpt lat="44.74353" lon="4.81287">
        <ele>117.59999847412</ele>
        <time>2024-05-21T13:17:42.000Z</time>
      </trkpt>
      <trkpt lat="44.74349" lon="4.81286">
        <ele>117.59999847412</ele>
        <time>2024-05-21T13:17:43.000Z</time>
      </trkpt>
      <trkpt lat="44.74345" lon="4.81285">
        <ele>117.80000305176</ele>
        <time>2024-05-21T13:17:44.000Z</time>
      </trkpt>
      <trkpt lat="44.74341" lon="4.81284">
        <ele>117.80000305176</ele>
        <time>2024-05-21T13:17:45.000Z</time>
      </trkpt>
      <trkpt lat="44.74337" lon="4.81282">
        <ele>118</ele>
        <time>2024-05-21T13:17:46.000Z</time>
      </trkpt>
      <trkpt lat="44.74333" lon="4.81281">
        <ele>118</ele>
        <time>2024-05-21T13:17:47.000Z</time>
      </trkpt>
      <trkpt lat="44.74329" lon="4.8128">
        <ele>118</ele>
        <time>2024-05-21T13:17:48.000Z</time>
      </trkpt>
      <trkpt lat="44.74325" lon="4.81278">
        <ele>118.19999694824</ele>
        <time>2024-05-21T13:17:49.000Z</time>
      </trkpt>
      <trkpt lat="44.74321" lon="4.81277">
        <ele>118.40000152588</ele>
        <time>2024-05-21T13:17:50.000Z</time>
      </trkpt>
      <trkpt lat="44.74317" lon="4.81275">
        <ele>118.40000152588</ele>
        <time>2024-05-21T13:17:51.000Z</time>
      </trkpt>
      <trkpt lat="44.74312" lon="4.81274">
        <ele>118.59999847412</ele>
        <time>2024-05-21T13:17:52.000Z</time>
      </trkpt>
      <trkpt lat="44.74309" lon="4.81273">
        <ele>118.59999847412</ele>
        <time>2024-05-21T13:17:53.000Z</time>
      </trkpt>
      <trkpt lat="44.74304" lon="4.81272">
        <ele>118.80000305176</ele>
        <time>2024-05-21T13:17:54.000Z</time>
      </trkpt>
      <trkpt lat="44.743" lon="4.8127">
        <ele>119</ele>
        <time>2024-05-21T13:17:55.000Z</time>
      </trkpt>
      <trkpt lat="44.74296" lon="4.81269">
        <ele>119.19999694824</ele>
        <time>2024-05-21T13:17:56.000Z</time>
      </trkpt>
      <trkpt lat="44.74292" lon="4.81268">
        <ele>119.19999694824</ele>
        <time>2024-05-21T13:17:57.000Z</time>
      </trkpt>
      <trkpt lat="44.74287" lon="4.81266">
        <ele>119.40000152588</ele>
        <time>2024-05-21T13:17:58.000Z</time>
      </trkpt>
      <trkpt lat="44.74283" lon="4.81265">
        <ele>119.40000152588</ele>
        <time>2024-05-21T13:17:59.000Z</time>
      </trkpt>
      <trkpt lat="44.7428" lon="4.81264">
        <ele>119.40000152588</ele>
        <time>2024-05-21T13:18:00.000Z</time>
      </trkpt>
      <trkpt lat="44.74275" lon="4.81262">
        <ele>119.59999847412</ele>
        <time>2024-05-21T13:18:01.000Z</time>
      </trkpt>
      <trkpt lat="44.74272" lon="4.81261">
        <ele>119.80000305176</ele>
        <time>2024-05-21T13:18:02.000Z</time>
      </trkpt>
      <trkpt lat="44.74268" lon="4.8126">
        <ele>120</ele>
        <time>2024-05-21T13:18:03.000Z</time>
      </trkpt>
      <trkpt lat="44.74264" lon="4.81258">
        <ele>120.19999694824</ele>
        <time>2024-05-21T13:18:04.000Z</time>
      </trkpt>
      <trkpt lat="44.7426" lon="4.81257">
        <ele>120.40000152588</ele>
        <time>2024-05-21T13:18:05.000Z</time>
      </trkpt>
      <trkpt lat="44.74256" lon="4.81256">
        <ele>120.59999847412</ele>
        <time>2024-05-21T13:18:06.000Z</time>
      </trkpt>
      <trkpt lat="44.74252" lon="4.81254">
        <ele>120.80000305176</ele>
        <time>2024-05-21T13:18:07.000Z</time>
      </trkpt>
      <trkpt lat="44.74248" lon="4.81253">
        <ele>121</ele>
        <time>2024-05-21T13:18:08.000Z</time>
      </trkpt>
      <trkpt lat="44.74245" lon="4.81252">
        <ele>121.19999694824</ele>
        <time>2024-05-21T13:18:09.000Z</time>
      </trkpt>
      <trkpt lat="44.74241" lon="4.81251">
        <ele>121.19999694824</ele>
        <time>2024-05-21T13:18:10.000Z</time>
      </trkpt>
      <trkpt lat="44.74237" lon="4.8125">
        <ele>121.40000152588</ele>
        <time>2024-05-21T13:18:11.000Z</time>
      </trkpt>
      <trkpt lat="44.74234" lon="4.81249">
        <ele>121.59999847412</ele>
        <time>2024-05-21T13:18:12.000Z</time>
      </trkpt>
      <trkpt lat="44.7423" lon="4.81248">
        <ele>121.80000305176</ele>
        <time>2024-05-21T13:18:13.000Z</time>
      </trkpt>
      <trkpt lat="44.74227" lon="4.81247">
        <ele>122</ele>
        <time>2024-05-21T13:18:14.000Z</time>
      </trkpt>
      <trkpt lat="44.74223" lon="4.81246">
        <ele>122.19999694824</ele>
        <time>2024-05-21T13:18:15.000Z</time>
      </trkpt>
      <trkpt lat="44.74218" lon="4.81245">
        <ele>122.40000152588</ele>
        <time>2024-05-21T13:18:16.000Z</time>
      </trkpt>
      <trkpt lat="44.74214" lon="4.81244">
        <ele>122.40000152588</ele>
        <time>2024-05-21T13:18:17.000Z</time>
      </trkpt>
      <trkpt lat="44.74211" lon="4.81243">
        <ele>122.59999847412</ele>
        <time>2024-05-21T13:18:18.000Z</time>
      </trkpt>
      <trkpt lat="44.74206" lon="4.81242">
        <ele>122.59999847412</ele>
        <time>2024-05-21T13:18:19.000Z</time>
      </trkpt>
      <trkpt lat="44.74202" lon="4.8124">
        <ele>123</ele>
        <time>2024-05-21T13:18:20.000Z</time>
      </trkpt>
      <trkpt lat="44.74199" lon="4.81239">
        <ele>123</ele>
        <time>2024-05-21T13:18:21.000Z</time>
      </trkpt>
      <trkpt lat="44.74195" lon="4.81238">
        <ele>123.19999694824</ele>
        <time>2024-05-21T13:18:22.000Z</time>
      </trkpt>
      <trkpt lat="44.74191" lon="4.81237">
        <ele>123.40000152588</ele>
        <time>2024-05-21T13:18:23.000Z</time>
      </trkpt>
      <trkpt lat="44.74187" lon="4.81236">
        <ele>123.59999847412</ele>
        <time>2024-05-21T13:18:24.000Z</time>
      </trkpt>
      <trkpt lat="44.74184" lon="4.81235">
        <ele>123.80000305176</ele>
        <time>2024-05-21T13:18:25.000Z</time>
      </trkpt>
      <trkpt lat="44.7418" lon="4.81234">
        <ele>124.19999694824</ele>
        <time>2024-05-21T13:18:26.000Z</time>
      </trkpt>
      <trkpt lat="44.74176" lon="4.81232">
        <ele>124.40000152588</ele>
        <time>2024-05-21T13:18:27.000Z</time>
      </trkpt>
      <trkpt lat="44.74172" lon="4.81231">
        <ele>124.59999847412</ele>
        <time>2024-05-21T13:18:28.000Z</time>
      </trkpt>
      <trkpt lat="44.74169" lon="4.8123">
        <ele>124.80000305176</ele>
        <time>2024-05-21T13:18:29.000Z</time>
      </trkpt>
      <trkpt lat="44.74165" lon="4.81229">
        <ele>125</ele>
        <time>2024-05-21T13:18:30.000Z</time>
      </trkpt>
      <trkpt lat="44.74161" lon="4.81227">
        <ele>125.19999694824</ele>
        <time>2024-05-21T13:18:31.000Z</time>
      </trkpt>
      <trkpt lat="44.74158" lon="4.81226">
        <ele>125.40000152588</ele>
        <time>2024-05-21T13:18:32.000Z</time>
      </trkpt>
      <trkpt lat="44.74154" lon="4.81225">
        <ele>125.80000305176</ele>
        <time>2024-05-21T13:18:33.000Z</time>
      </trkpt>
      <trkpt lat="44.74151" lon="4.81224">
        <ele>125.80000305176</ele>
        <time>2024-05-21T13:18:34.000Z</time>
      </trkpt>
      <trkpt lat="44.74148" lon="4.81222">
        <ele>126.19999694824</ele>
        <time>2024-05-21T13:18:35.000Z</time>
      </trkpt>
      <trkpt lat="44.74144" lon="4.81221">
        <ele>126.19999694824</ele>
        <time>2024-05-21T13:18:36.000Z</time>
      </trkpt>
      <trkpt lat="44.74141" lon="4.8122">
        <ele>126.59999847412</ele>
        <time>2024-05-21T13:18:37.000Z</time>
      </trkpt>
      <trkpt lat="44.74138" lon="4.81219">
        <ele>126.80000305176</ele>
        <time>2024-05-21T13:18:38.000Z</time>
      </trkpt>
      <trkpt lat="44.74134" lon="4.81218">
        <ele>126.80000305176</ele>
        <time>2024-05-21T13:18:39.000Z</time>
      </trkpt>
      <trkpt lat="44.74131" lon="4.81217">
        <ele>127.19999694824</ele>
        <time>2024-05-21T13:18:40.000Z</time>
      </trkpt>
      <trkpt lat="44.74128" lon="4.81216">
        <ele>127.40000152588</ele>
        <time>2024-05-21T13:18:41.000Z</time>
      </trkpt>
      <trkpt lat="44.74125" lon="4.81215">
        <ele>127.59999847412</ele>
        <time>2024-05-21T13:18:42.000Z</time>
      </trkpt>
      <trkpt lat="44.74122" lon="4.81214">
        <ele>127.80000305176</ele>
        <time>2024-05-21T13:18:43.000Z</time>
      </trkpt>
      <trkpt lat="44.74119" lon="4.81213">
        <ele>128</ele>
        <time>2024-05-21T13:18:44.000Z</time>
      </trkpt>
      <trkpt lat="44.74115" lon="4.81212">
        <ele>128.19999694824</ele>
        <time>2024-05-21T13:18:45.000Z</time>
      </trkpt>
      <trkpt lat="44.74112" lon="4.81211">
        <ele>128.39999389648</ele>
        <time>2024-05-21T13:18:46.000Z</time>
      </trkpt>
      <trkpt lat="44.74109" lon="4.8121">
        <ele>128.60000610352</ele>
        <time>2024-05-21T13:18:47.000Z</time>
      </trkpt>
      <trkpt lat="44.74105" lon="4.81208">
        <ele>128.80000305176</ele>
        <time>2024-05-21T13:18:48.000Z</time>
      </trkpt>
      <trkpt lat="44.74102" lon="4.81208">
        <ele>129</ele>
        <time>2024-05-21T13:18:49.000Z</time>
      </trkpt>
      <trkpt lat="44.74099" lon="4.81207">
        <ele>129.19999694824</ele>
        <time>2024-05-21T13:18:50.000Z</time>
      </trkpt>
      <trkpt lat="44.74095" lon="4.81206">
        <ele>129.19999694824</ele>
        <time>2024-05-21T13:18:51.000Z</time>
      </trkpt>
      <trkpt lat="44.74092" lon="4.81205">
        <ele>129.19999694824</ele>
        <time>2024-05-21T13:18:52.000Z</time>
      </trkpt>
      <trkpt lat="44.74089" lon="4.81204">
        <ele>129.39999389648</ele>
        <time>2024-05-21T13:18:53.000Z</time>
      </trkpt>
      <trkpt lat="44.74086" lon="4.81202">
        <ele>129.60000610352</ele>
        <time>2024-05-21T13:18:54.000Z</time>
      </trkpt>
      <trkpt lat="44.74082" lon="4.81201">
        <ele>129.80000305176</ele>
        <time>2024-05-21T13:18:55.000Z</time>
      </trkpt>
      <trkpt lat="44.74079" lon="4.812">
        <ele>130</ele>
        <time>2024-05-21T13:18:56.000Z</time>
      </trkpt>
      <trkpt lat="44.74076" lon="4.81199">
        <ele>130</ele>
        <time>2024-05-21T13:18:57.000Z</time>
      </trkpt>
      <trkpt lat="44.74073" lon="4.81198">
        <ele>130</ele>
        <time>2024-05-21T13:18:58.000Z</time>
      </trkpt>
      <trkpt lat="44.74069" lon="4.81197">
        <ele>130.19999694824</ele>
        <time>2024-05-21T13:18:59.000Z</time>
      </trkpt>
      <trkpt lat="44.74066" lon="4.81196">
        <ele>130.39999389648</ele>
        <time>2024-05-21T13:19:00.000Z</time>
      </trkpt>
      <trkpt lat="44.74062" lon="4.81195">
        <ele>130.60000610352</ele>
        <time>2024-05-21T13:19:01.000Z</time>
      </trkpt>
      <trkpt lat="44.74059" lon="4.81194">
        <ele>131</ele>
        <time>2024-05-21T13:19:02.000Z</time>
      </trkpt>
      <trkpt lat="44.74055" lon="4.81193">
        <ele>131</ele>
        <time>2024-05-21T13:19:03.000Z</time>
      </trkpt>
      <trkpt lat="44.74051" lon="4.81192">
        <ele>131.19999694824</ele>
        <time>2024-05-21T13:19:04.000Z</time>
      </trkpt>
      <trkpt lat="44.74047" lon="4.81191">
        <ele>131.39999389648</ele>
        <time>2024-05-21T13:19:05.000Z</time>
      </trkpt>
      <trkpt lat="44.74044" lon="4.8119">
        <ele>131.60000610352</ele>
        <time>2024-05-21T13:19:06.000Z</time>
      </trkpt>
      <trkpt lat="44.7404" lon="4.81189">
        <ele>131.80000305176</ele>
        <time>2024-05-21T13:19:07.000Z</time>
      </trkpt>
      <trkpt lat="44.74036" lon="4.81187">
        <ele>131.80000305176</ele>
        <time>2024-05-21T13:19:08.000Z</time>
      </trkpt>
      <trkpt lat="44.74032" lon="4.81186">
        <ele>131.80000305176</ele>
        <time>2024-05-21T13:19:09.000Z</time>
      </trkpt>
      <trkpt lat="44.74028" lon="4.81185">
        <ele>132</ele>
        <time>2024-05-21T13:19:10.000Z</time>
      </trkpt>
      <trkpt lat="44.74024" lon="4.81184">
        <ele>132.19999694824</ele>
        <time>2024-05-21T13:19:11.000Z</time>
      </trkpt>
      <trkpt lat="44.7402" lon="4.81182">
        <ele>132.39999389648</ele>
        <time>2024-05-21T13:19:12.000Z</time>
      </trkpt>
      <trkpt lat="44.74016" lon="4.81181">
        <ele>132.39999389648</ele>
        <time>2024-05-21T13:19:13.000Z</time>
      </trkpt>
      <trkpt lat="44.74012" lon="4.8118">
        <ele>132.60000610352</ele>
        <time>2024-05-21T13:19:14.000Z</time>
      </trkpt>
      <trkpt lat="44.74007" lon="4.81178">
        <ele>132.60000610352</ele>
        <time>2024-05-21T13:19:15.000Z</time>
      </trkpt>
      <trkpt lat="44.74003" lon="4.81177">
        <ele>132.60000610352</ele>
        <time>2024-05-21T13:19:16.000Z</time>
      </trkpt>
      <trkpt lat="44.73998" lon="4.81175">
        <ele>132.60000610352</ele>
        <time>2024-05-21T13:19:17.000Z</time>
      </trkpt>
      <trkpt lat="44.73994" lon="4.81174">
        <ele>132.60000610352</ele>
        <time>2024-05-21T13:19:18.000Z</time>
      </trkpt>
      <trkpt lat="44.73989" lon="4.81172">
        <ele>132.60000610352</ele>
        <time>2024-05-21T13:19:19.000Z</time>
      </trkpt>
      <trkpt lat="44.73985" lon="4.81171">
        <ele>132.80000305176</ele>
        <time>2024-05-21T13:19:20.000Z</time>
      </trkpt>
      <trkpt lat="44.73981" lon="4.81169">
        <ele>132.80000305176</ele>
        <time>2024-05-21T13:19:21.000Z</time>
      </trkpt>
      <trkpt lat="44.73976" lon="4.81168">
        <ele>132.80000305176</ele>
        <time>2024-05-21T13:19:22.000Z</time>
      </trkpt>
      <trkpt lat="44.73971" lon="4.81167">
        <ele>133</ele>
        <time>2024-05-21T13:19:23.000Z</time>
      </trkpt>
      <trkpt lat="44.73966" lon="4.81165">
        <ele>133</ele>
        <time>2024-05-21T13:19:24.000Z</time>
      </trkpt>
      <trkpt lat="44.73962" lon="4.81164">
        <ele>133</ele>
        <time>2024-05-21T13:19:25.000Z</time>
      </trkpt>
      <trkpt lat="44.73957" lon="4.81162">
        <ele>133</ele>
        <time>2024-05-21T13:19:26.000Z</time>
      </trkpt>
      <trkpt lat="44.73953" lon="4.81161">
        <ele>133</ele>
        <time>2024-05-21T13:19:27.000Z</time>
      </trkpt>
      <trkpt lat="44.73948" lon="4.81159">
        <ele>133.19999694824</ele>
        <time>2024-05-21T13:19:28.000Z</time>
      </trkpt>
      <trkpt lat="44.73943" lon="4.81158">
        <ele>133.19999694824</ele>
        <time>2024-05-21T13:19:29.000Z</time>
      </trkpt>
      <trkpt lat="44.73938" lon="4.81157">
        <ele>133.19999694824</ele>
        <time>2024-05-21T13:19:30.000Z</time>
      </trkpt>
      <trkpt lat="44.73934" lon="4.81155">
        <ele>133.19999694824</ele>
        <time>2024-05-21T13:19:31.000Z</time>
      </trkpt>
      <trkpt lat="44.73929" lon="4.81154">
        <ele>133.19999694824</ele>
        <time>2024-05-21T13:19:32.000Z</time>
      </trkpt>
      <trkpt lat="44.73924" lon="4.81152">
        <ele>133.19999694824</ele>
        <time>2024-05-21T13:19:33.000Z</time>
      </trkpt>
      <trkpt lat="44.73919" lon="4.8115">
        <ele>133.19999694824</ele>
        <time>2024-05-21T13:19:34.000Z</time>
      </trkpt>
      <trkpt lat="44.73914" lon="4.81149">
        <ele>133.39999389648</ele>
        <time>2024-05-21T13:19:35.000Z</time>
      </trkpt>
      <trkpt lat="44.7391" lon="4.81148">
        <ele>133.39999389648</ele>
        <time>2024-05-21T13:19:36.000Z</time>
      </trkpt>
      <trkpt lat="44.73905" lon="4.81146">
        <ele>133.39999389648</ele>
        <time>2024-05-21T13:19:37.000Z</time>
      </trkpt>
      <trkpt lat="44.739" lon="4.81144">
        <ele>133.39999389648</ele>
        <time>2024-05-21T13:19:38.000Z</time>
      </trkpt>
      <trkpt lat="44.73895" lon="4.81143">
        <ele>133.39999389648</ele>
        <time>2024-05-21T13:19:39.000Z</time>
      </trkpt>
      <trkpt lat="44.73891" lon="4.81141">
        <ele>133.39999389648</ele>
        <time>2024-05-21T13:19:40.000Z</time>
      </trkpt>
      <trkpt lat="44.73886" lon="4.8114">
        <ele>133.39999389648</ele>
        <time>2024-05-21T13:19:41.000Z</time>
      </trkpt>
      <trkpt lat="44.73881" lon="4.81138">
        <ele>133.60000610352</ele>
        <time>2024-05-21T13:19:42.000Z</time>
      </trkpt>
      <trkpt lat="44.73876" lon="4.81137">
        <ele>133.60000610352</ele>
        <time>2024-05-21T13:19:43.000Z</time>
      </trkpt>
      <trkpt lat="44.73871" lon="4.81135">
        <ele>133.80000305176</ele>
        <time>2024-05-21T13:19:44.000Z</time>
      </trkpt>
      <trkpt lat="44.73866" lon="4.81133">
        <ele>133.80000305176</ele>
        <time>2024-05-21T13:19:45.000Z</time>
      </trkpt>
      <trkpt lat="44.73861" lon="4.81132">
        <ele>133.80000305176</ele>
        <time>2024-05-21T13:19:46.000Z</time>
      </trkpt>
      <trkpt lat="44.73856" lon="4.8113">
        <ele>133.80000305176</ele>
        <time>2024-05-21T13:19:47.000Z</time>
      </trkpt>
      <trkpt lat="44.73851" lon="4.81129">
        <ele>133.80000305176</ele>
        <time>2024-05-21T13:19:48.000Z</time>
      </trkpt>
      <trkpt lat="44.73846" lon="4.81128">
        <ele>133.80000305176</ele>
        <time>2024-05-21T13:19:49.000Z</time>
      </trkpt>
      <trkpt lat="44.73841" lon="4.81126">
        <ele>133.60000610352</ele>
        <time>2024-05-21T13:19:50.000Z</time>
      </trkpt>
      <trkpt lat="44.73835" lon="4.81125">
        <ele>133.60000610352</ele>
        <time>2024-05-21T13:19:51.000Z</time>
      </trkpt>
      <trkpt lat="44.7383" lon="4.81123">
        <ele>133.60000610352</ele>
        <time>2024-05-21T13:19:52.000Z</time>
      </trkpt>
      <trkpt lat="44.73824" lon="4.81121">
        <ele>133.60000610352</ele>
        <time>2024-05-21T13:19:53.000Z</time>
      </trkpt>
      <trkpt lat="44.73819" lon="4.81119">
        <ele>133.60000610352</ele>
        <time>2024-05-21T13:19:54.000Z</time>
      </trkpt>
      <trkpt lat="44.73813" lon="4.81117">
        <ele>133.39999389648</ele>
        <time>2024-05-21T13:19:55.000Z</time>
      </trkpt>
      <trkpt lat="44.73807" lon="4.81115">
        <ele>133.39999389648</ele>
        <time>2024-05-21T13:19:56.000Z</time>
      </trkpt>
      <trkpt lat="44.73801" lon="4.81113">
        <ele>133.39999389648</ele>
        <time>2024-05-21T13:19:57.000Z</time>
      </trkpt>
      <trkpt lat="44.73795" lon="4.81111">
        <ele>133.39999389648</ele>
        <time>2024-05-21T13:19:58.000Z</time>
      </trkpt>
      <trkpt lat="44.73788" lon="4.81109">
        <ele>133.39999389648</ele>
        <time>2024-05-21T13:19:59.000Z</time>
      </trkpt>
      <trkpt lat="44.73784" lon="4.81108">
        <ele>133.39999389648</ele>
        <time>2024-05-21T13:20:00.000Z</time>
      </trkpt>
      <trkpt lat="44.73778" lon="4.81107">
        <ele>133.39999389648</ele>
        <time>2024-05-21T13:20:01.000Z</time>
      </trkpt>
      <trkpt lat="44.73772" lon="4.81105">
        <ele>133.39999389648</ele>
        <time>2024-05-21T13:20:02.000Z</time>
      </trkpt>
      <trkpt lat="44.73766" lon="4.81103">
        <ele>133.39999389648</ele>
        <time>2024-05-21T13:20:03.000Z</time>
      </trkpt>
      <trkpt lat="44.73761" lon="4.81101">
        <ele>133.39999389648</ele>
        <time>2024-05-21T13:20:04.000Z</time>
      </trkpt>
      <trkpt lat="44.73754" lon="4.81099">
        <ele>133.39999389648</ele>
        <time>2024-05-21T13:20:05.000Z</time>
      </trkpt>
      <trkpt lat="44.73749" lon="4.81097">
        <ele>133.39999389648</ele>
        <time>2024-05-21T13:20:06.000Z</time>
      </trkpt>
      <trkpt lat="44.73743" lon="4.81095">
        <ele>133.39999389648</ele>
        <time>2024-05-21T13:20:07.000Z</time>
      </trkpt>
      <trkpt lat="44.73737" lon="4.81093">
        <ele>133.39999389648</ele>
        <time>2024-05-21T13:20:08.000Z</time>
      </trkpt>
      <trkpt lat="44.73731" lon="4.81091">
        <ele>133.39999389648</ele>
        <time>2024-05-21T13:20:09.000Z</time>
      </trkpt>
      <trkpt lat="44.73726" lon="4.8109">
        <ele>133.39999389648</ele>
        <time>2024-05-21T13:20:10.000Z</time>
      </trkpt>
      <trkpt lat="44.7372" lon="4.81088">
        <ele>133.39999389648</ele>
        <time>2024-05-21T13:20:11.000Z</time>
      </trkpt>
      <trkpt lat="44.73714" lon="4.81086">
        <ele>133.39999389648</ele>
        <time>2024-05-21T13:20:12.000Z</time>
      </trkpt>
      <trkpt lat="44.73709" lon="4.81084">
        <ele>133.39999389648</ele>
        <time>2024-05-21T13:20:13.000Z</time>
      </trkpt>
      <trkpt lat="44.73701" lon="4.81082">
        <ele>133.39999389648</ele>
        <time>2024-05-21T13:20:14.000Z</time>
      </trkpt>
      <trkpt lat="44.73697" lon="4.8108">
        <ele>133.60000610352</ele>
        <time>2024-05-21T13:20:15.000Z</time>
      </trkpt>
      <trkpt lat="44.73691" lon="4.81078">
        <ele>133.60000610352</ele>
        <time>2024-05-21T13:20:16.000Z</time>
      </trkpt>
      <trkpt lat="44.73683" lon="4.81075">
        <ele>133.60000610352</ele>
        <time>2024-05-21T13:20:17.000Z</time>
      </trkpt>
      <trkpt lat="44.73679" lon="4.81074">
        <ele>133.60000610352</ele>
        <time>2024-05-21T13:20:18.000Z</time>
      </trkpt>
      <trkpt lat="44.73672" lon="4.81072">
        <ele>133.60000610352</ele>
        <time>2024-05-21T13:20:19.000Z</time>
      </trkpt>
      <trkpt lat="44.73667" lon="4.81071">
        <ele>133.39999389648</ele>
        <time>2024-05-21T13:20:20.000Z</time>
      </trkpt>
      <trkpt lat="44.7366" lon="4.81069">
        <ele>133.39999389648</ele>
        <time>2024-05-21T13:20:21.000Z</time>
      </trkpt>
      <trkpt lat="44.73654" lon="4.81067">
        <ele>133.39999389648</ele>
        <time>2024-05-21T13:20:22.000Z</time>
      </trkpt>
      <trkpt lat="44.73648" lon="4.81065">
        <ele>133.19999694824</ele>
        <time>2024-05-21T13:20:23.000Z</time>
      </trkpt>
      <trkpt lat="44.73642" lon="4.81063">
        <ele>133.19999694824</ele>
        <time>2024-05-21T13:20:24.000Z</time>
      </trkpt>
      <trkpt lat="44.73636" lon="4.81061">
        <ele>133.19999694824</ele>
        <time>2024-05-21T13:20:25.000Z</time>
      </trkpt>
      <trkpt lat="44.7363" lon="4.81059">
        <ele>133.19999694824</ele>
        <time>2024-05-21T13:20:26.000Z</time>
      </trkpt>
      <trkpt lat="44.73624" lon="4.81057">
        <ele>133.19999694824</ele>
        <time>2024-05-21T13:20:27.000Z</time>
      </trkpt>
      <trkpt lat="44.73618" lon="4.81055">
        <ele>133.19999694824</ele>
        <time>2024-05-21T13:20:28.000Z</time>
      </trkpt>
      <trkpt lat="44.73612" lon="4.81053">
        <ele>133.19999694824</ele>
        <time>2024-05-21T13:20:29.000Z</time>
      </trkpt>
      <trkpt lat="44.73606" lon="4.81051">
        <ele>133.19999694824</ele>
        <time>2024-05-21T13:20:30.000Z</time>
      </trkpt>
      <trkpt lat="44.736" lon="4.81049">
        <ele>133</ele>
        <time>2024-05-21T13:20:31.000Z</time>
      </trkpt>
      <trkpt lat="44.73594" lon="4.81047">
        <ele>133</ele>
        <time>2024-05-21T13:20:32.000Z</time>
      </trkpt>
      <trkpt lat="44.73588" lon="4.81045">
        <ele>133</ele>
        <time>2024-05-21T13:20:33.000Z</time>
      </trkpt>
      <trkpt lat="44.73582" lon="4.81043">
        <ele>133</ele>
        <time>2024-05-21T13:20:34.000Z</time>
      </trkpt>
      <trkpt lat="44.73576" lon="4.81041">
        <ele>133.19999694824</ele>
        <time>2024-05-21T13:20:35.000Z</time>
      </trkpt>
      <trkpt lat="44.7357" lon="4.81039">
        <ele>133.19999694824</ele>
        <time>2024-05-21T13:20:36.000Z</time>
      </trkpt>
      <trkpt lat="44.73564" lon="4.81038">
        <ele>133.19999694824</ele>
        <time>2024-05-21T13:20:37.000Z</time>
      </trkpt>
      <trkpt lat="44.73559" lon="4.81036">
        <ele>133.39999389648</ele>
        <time>2024-05-21T13:20:38.000Z</time>
      </trkpt>
      <trkpt lat="44.73553" lon="4.81034">
        <ele>133.39999389648</ele>
        <time>2024-05-21T13:20:39.000Z</time>
      </trkpt>
      <trkpt lat="44.73547" lon="4.81032">
        <ele>133.39999389648</ele>
        <time>2024-05-21T13:20:40.000Z</time>
      </trkpt>
      <trkpt lat="44.73541" lon="4.8103">
        <ele>133.39999389648</ele>
        <time>2024-05-21T13:20:41.000Z</time>
      </trkpt>
      <trkpt lat="44.73535" lon="4.81028">
        <ele>133.39999389648</ele>
        <time>2024-05-21T13:20:42.000Z</time>
      </trkpt>
      <trkpt lat="44.7353" lon="4.81026">
        <ele>133.60000610352</ele>
        <time>2024-05-21T13:20:43.000Z</time>
      </trkpt>
      <trkpt lat="44.73524" lon="4.81024">
        <ele>133.60000610352</ele>
        <time>2024-05-21T13:20:44.000Z</time>
      </trkpt>
      <trkpt lat="44.73518" lon="4.81022">
        <ele>133.60000610352</ele>
        <time>2024-05-21T13:20:45.000Z</time>
      </trkpt>
      <trkpt lat="44.73513" lon="4.8102">
        <ele>133.60000610352</ele>
        <time>2024-05-21T13:20:46.000Z</time>
      </trkpt>
      <trkpt lat="44.73507" lon="4.81019">
        <ele>133.60000610352</ele>
        <time>2024-05-21T13:20:47.000Z</time>
      </trkpt>
      <trkpt lat="44.73502" lon="4.81017">
        <ele>133.80000305176</ele>
        <time>2024-05-21T13:20:48.000Z</time>
      </trkpt>
      <trkpt lat="44.73496" lon="4.81015">
        <ele>133.80000305176</ele>
        <time>2024-05-21T13:20:49.000Z</time>
      </trkpt>
      <trkpt lat="44.73491" lon="4.81013">
        <ele>133.80000305176</ele>
        <time>2024-05-21T13:20:50.000Z</time>
      </trkpt>
      <trkpt lat="44.73486" lon="4.81012">
        <ele>134</ele>
        <time>2024-05-21T13:20:51.000Z</time>
      </trkpt>
      <trkpt lat="44.73481" lon="4.8101">
        <ele>134.19999694824</ele>
        <time>2024-05-21T13:20:52.000Z</time>
      </trkpt>
      <trkpt lat="44.73475" lon="4.81009">
        <ele>134.19999694824</ele>
        <time>2024-05-21T13:20:53.000Z</time>
      </trkpt>
      <trkpt lat="44.7347" lon="4.81007">
        <ele>134.19999694824</ele>
        <time>2024-05-21T13:20:54.000Z</time>
      </trkpt>
      <trkpt lat="44.73465" lon="4.81005">
        <ele>134.19999694824</ele>
        <time>2024-05-21T13:20:55.000Z</time>
      </trkpt>
      <trkpt lat="44.7346" lon="4.81004">
        <ele>134.19999694824</ele>
        <time>2024-05-21T13:20:56.000Z</time>
      </trkpt>
      <trkpt lat="44.73454" lon="4.81002">
        <ele>134.19999694824</ele>
        <time>2024-05-21T13:20:57.000Z</time>
      </trkpt>
      <trkpt lat="44.73449" lon="4.81">
        <ele>134</ele>
        <time>2024-05-21T13:20:58.000Z</time>
      </trkpt>
      <trkpt lat="44.73444" lon="4.80998">
        <ele>134</ele>
        <time>2024-05-21T13:20:59.000Z</time>
      </trkpt>
      <trkpt lat="44.73438" lon="4.80996">
        <ele>134</ele>
        <time>2024-05-21T13:21:00.000Z</time>
      </trkpt>
      <trkpt lat="44.73433" lon="4.80994">
        <ele>134</ele>
        <time>2024-05-21T13:21:01.000Z</time>
      </trkpt>
      <trkpt lat="44.73428" lon="4.80993">
        <ele>133.80000305176</ele>
        <time>2024-05-21T13:21:02.000Z</time>
      </trkpt>
      <trkpt lat="44.73423" lon="4.80991">
        <ele>133.80000305176</ele>
        <time>2024-05-21T13:21:03.000Z</time>
      </trkpt>
      <trkpt lat="44.73418" lon="4.80988">
        <ele>133.80000305176</ele>
        <time>2024-05-21T13:21:04.000Z</time>
      </trkpt>
      <trkpt lat="44.73413" lon="4.80986">
        <ele>133.80000305176</ele>
        <time>2024-05-21T13:21:05.000Z</time>
      </trkpt>
      <trkpt lat="44.73408" lon="4.80984">
        <ele>133.80000305176</ele>
        <time>2024-05-21T13:21:06.000Z</time>
      </trkpt>
      <trkpt lat="44.73403" lon="4.80982">
        <ele>134</ele>
        <time>2024-05-21T13:21:07.000Z</time>
      </trkpt>
      <trkpt lat="44.73398" lon="4.80979">
        <ele>134</ele>
        <time>2024-05-21T13:21:08.000Z</time>
      </trkpt>
      <trkpt lat="44.73394" lon="4.80977">
        <ele>134.19999694824</ele>
        <time>2024-05-21T13:21:09.000Z</time>
      </trkpt>
      <trkpt lat="44.7339" lon="4.80974">
        <ele>134.19999694824</ele>
        <time>2024-05-21T13:21:10.000Z</time>
      </trkpt>
      <trkpt lat="44.73386" lon="4.80971">
        <ele>134.19999694824</ele>
        <time>2024-05-21T13:21:11.000Z</time>
      </trkpt>
      <trkpt lat="44.73383" lon="4.80968">
        <ele>134.39999389648</ele>
        <time>2024-05-21T13:21:12.000Z</time>
      </trkpt>
      <trkpt lat="44.73379" lon="4.80965">
        <ele>134.39999389648</ele>
        <time>2024-05-21T13:21:13.000Z</time>
      </trkpt>
      <trkpt lat="44.73377" lon="4.80962">
        <ele>134.39999389648</ele>
        <time>2024-05-21T13:21:14.000Z</time>
      </trkpt>
      <trkpt lat="44.73374" lon="4.8096">
        <ele>134.39999389648</ele>
        <time>2024-05-21T13:21:15.000Z</time>
      </trkpt>
      <trkpt lat="44.73372" lon="4.80958">
        <ele>134.39999389648</ele>
        <time>2024-05-21T13:21:16.000Z</time>
      </trkpt>
      <trkpt lat="44.7337" lon="4.80956">
        <ele>134.39999389648</ele>
        <time>2024-05-21T13:21:17.000Z</time>
      </trkpt>
      <trkpt lat="44.73369" lon="4.80955">
        <ele>134.80000305176</ele>
        <time>2024-05-21T13:21:18.000Z</time>
      </trkpt>
      <trkpt lat="44.73368" lon="4.80955">
        <ele>135</ele>
        <time>2024-05-21T13:21:19.000Z</time>
      </trkpt>
      <trkpt lat="44.73368" lon="4.80954">
        <ele>135.19999694824</ele>
        <time>2024-05-21T13:21:20.000Z</time>
      </trkpt>
      <trkpt lat="44.73367" lon="4.80954">
        <ele>135.39999389648</ele>
        <time>2024-05-21T13:21:21.000Z</time>
      </trkpt>
      <trkpt lat="44.73366" lon="4.80953">
        <ele>135.39999389648</ele>
        <time>2024-05-21T13:21:22.000Z</time>
      </trkpt>
      <trkpt lat="44.73365" lon="4.80951">
        <ele>135.60000610352</ele>
        <time>2024-05-21T13:21:23.000Z</time>
      </trkpt>
      <trkpt lat="44.73362" lon="4.80949">
        <ele>135.60000610352</ele>
        <time>2024-05-21T13:21:24.000Z</time>
      </trkpt>
      <trkpt lat="44.73359" lon="4.80947">
        <ele>135.60000610352</ele>
        <time>2024-05-21T13:21:25.000Z</time>
      </trkpt>
      <trkpt lat="44.73355" lon="4.80945">
        <ele>135.60000610352</ele>
        <time>2024-05-21T13:21:26.000Z</time>
      </trkpt>
      <trkpt lat="44.73351" lon="4.80944">
        <ele>135.60000610352</ele>
        <time>2024-05-21T13:21:27.000Z</time>
      </trkpt>
      <trkpt lat="44.73347" lon="4.80944">
        <ele>135.39999389648</ele>
        <time>2024-05-21T13:21:28.000Z</time>
      </trkpt>
      <trkpt lat="44.73342" lon="4.80944">
        <ele>135.39999389648</ele>
        <time>2024-05-21T13:21:29.000Z</time>
      </trkpt>
      <trkpt lat="44.73338" lon="4.80944">
        <ele>135.39999389648</ele>
        <time>2024-05-21T13:21:30.000Z</time>
      </trkpt>
      <trkpt lat="44.73334" lon="4.80944">
        <ele>135.39999389648</ele>
        <time>2024-05-21T13:21:31.000Z</time>
      </trkpt>
      <trkpt lat="44.73329" lon="4.80944">
        <ele>135.39999389648</ele>
        <time>2024-05-21T13:21:32.000Z</time>
      </trkpt>
      <trkpt lat="44.73324" lon="4.80944">
        <ele>135.39999389648</ele>
        <time>2024-05-21T13:21:33.000Z</time>
      </trkpt>
      <trkpt lat="44.73319" lon="4.80944">
        <ele>135.60000610352</ele>
        <time>2024-05-21T13:21:34.000Z</time>
      </trkpt>
      <trkpt lat="44.73314" lon="4.80943">
        <ele>135.60000610352</ele>
        <time>2024-05-21T13:21:35.000Z</time>
      </trkpt>
      <trkpt lat="44.73309" lon="4.80942">
        <ele>135.60000610352</ele>
        <time>2024-05-21T13:21:36.000Z</time>
      </trkpt>
      <trkpt lat="44.73304" lon="4.80941">
        <ele>136</ele>
        <time>2024-05-21T13:21:37.000Z</time>
      </trkpt>
      <trkpt lat="44.73298" lon="4.80941">
        <ele>136.19999694824</ele>
        <time>2024-05-21T13:21:38.000Z</time>
      </trkpt>
      <trkpt lat="44.73294" lon="4.80941">
        <ele>136.19999694824</ele>
        <time>2024-05-21T13:21:39.000Z</time>
      </trkpt>
      <trkpt lat="44.73289" lon="4.80941">
        <ele>136.19999694824</ele>
        <time>2024-05-21T13:21:40.000Z</time>
      </trkpt>
      <trkpt lat="44.73284" lon="4.8094">
        <ele>136.19999694824</ele>
        <time>2024-05-21T13:21:41.000Z</time>
      </trkpt>
      <trkpt lat="44.73279" lon="4.8094">
        <ele>136.60000610352</ele>
        <time>2024-05-21T13:21:42.000Z</time>
      </trkpt>
      <trkpt lat="44.73273" lon="4.80939">
        <ele>136.80000305176</ele>
        <time>2024-05-21T13:21:43.000Z</time>
      </trkpt>
      <trkpt lat="44.73268" lon="4.80938">
        <ele>137.39999389648</ele>
        <time>2024-05-21T13:21:44.000Z</time>
      </trkpt>
      <trkpt lat="44.73264" lon="4.80937">
        <ele>137.39999389648</ele>
        <time>2024-05-21T13:21:45.000Z</time>
      </trkpt>
      <trkpt lat="44.73259" lon="4.80936">
        <ele>137.60000610352</ele>
        <time>2024-05-21T13:21:46.000Z</time>
      </trkpt>
      <trkpt lat="44.73254" lon="4.80934">
        <ele>137.80000305176</ele>
        <time>2024-05-21T13:21:47.000Z</time>
      </trkpt>
      <trkpt lat="44.73249" lon="4.80933">
        <ele>138.19999694824</ele>
        <time>2024-05-21T13:21:48.000Z</time>
      </trkpt>
      <trkpt lat="44.73244" lon="4.80931">
        <ele>138.39999389648</ele>
        <time>2024-05-21T13:21:49.000Z</time>
      </trkpt>
      <trkpt lat="44.73239" lon="4.80929">
        <ele>138.60000610352</ele>
        <time>2024-05-21T13:21:50.000Z</time>
      </trkpt>
      <trkpt lat="44.73234" lon="4.80928">
        <ele>138.60000610352</ele>
        <time>2024-05-21T13:21:51.000Z</time>
      </trkpt>
      <trkpt lat="44.73229" lon="4.80926">
        <ele>138.80000305176</ele>
        <time>2024-05-21T13:21:52.000Z</time>
      </trkpt>
      <trkpt lat="44.73224" lon="4.80925">
        <ele>138.80000305176</ele>
        <time>2024-05-21T13:21:53.000Z</time>
      </trkpt>
      <trkpt lat="44.73219" lon="4.80923">
        <ele>139</ele>
        <time>2024-05-21T13:21:54.000Z</time>
      </trkpt>
      <trkpt lat="44.73214" lon="4.80921">
        <ele>139</ele>
        <time>2024-05-21T13:21:55.000Z</time>
      </trkpt>
      <trkpt lat="44.73209" lon="4.80919">
        <ele>139.19999694824</ele>
        <time>2024-05-21T13:21:56.000Z</time>
      </trkpt>
      <trkpt lat="44.73204" lon="4.80918">
        <ele>139.19999694824</ele>
        <time>2024-05-21T13:21:57.000Z</time>
      </trkpt>
      <trkpt lat="44.73199" lon="4.80916">
        <ele>139.19999694824</ele>
        <time>2024-05-21T13:21:58.000Z</time>
      </trkpt>
      <trkpt lat="44.73194" lon="4.80915">
        <ele>139.19999694824</ele>
        <time>2024-05-21T13:21:59.000Z</time>
      </trkpt>
      <trkpt lat="44.73189" lon="4.80913">
        <ele>139.39999389648</ele>
        <time>2024-05-21T13:22:00.000Z</time>
      </trkpt>
      <trkpt lat="44.73184" lon="4.80912">
        <ele>139.39999389648</ele>
        <time>2024-05-21T13:22:01.000Z</time>
      </trkpt>
      <trkpt lat="44.73179" lon="4.8091">
        <ele>139.60000610352</ele>
        <time>2024-05-21T13:22:02.000Z</time>
      </trkpt>
      <trkpt lat="44.73174" lon="4.80908">
        <ele>139.60000610352</ele>
        <time>2024-05-21T13:22:03.000Z</time>
      </trkpt>
      <trkpt lat="44.73169" lon="4.80907">
        <ele>139.80000305176</ele>
        <time>2024-05-21T13:22:04.000Z</time>
      </trkpt>
      <trkpt lat="44.73164" lon="4.80905">
        <ele>139.80000305176</ele>
        <time>2024-05-21T13:22:05.000Z</time>
      </trkpt>
      <trkpt lat="44.73159" lon="4.80904">
        <ele>140</ele>
        <time>2024-05-21T13:22:06.000Z</time>
      </trkpt>
      <trkpt lat="44.73154" lon="4.80902">
        <ele>140</ele>
        <time>2024-05-21T13:22:07.000Z</time>
      </trkpt>
      <trkpt lat="44.7315" lon="4.809">
        <ele>140.19999694824</ele>
        <time>2024-05-21T13:22:08.000Z</time>
      </trkpt>
      <trkpt lat="44.73145" lon="4.80899">
        <ele>140.19999694824</ele>
        <time>2024-05-21T13:22:09.000Z</time>
      </trkpt>
      <trkpt lat="44.73139" lon="4.80897">
        <ele>140.39999389648</ele>
        <time>2024-05-21T13:22:10.000Z</time>
      </trkpt>
      <trkpt lat="44.73134" lon="4.80896">
        <ele>140.60000610352</ele>
        <time>2024-05-21T13:22:11.000Z</time>
      </trkpt>
      <trkpt lat="44.73129" lon="4.80894">
        <ele>140.60000610352</ele>
        <time>2024-05-21T13:22:12.000Z</time>
      </trkpt>
      <trkpt lat="44.73124" lon="4.80892">
        <ele>140.80000305176</ele>
        <time>2024-05-21T13:22:13.000Z</time>
      </trkpt>
      <trkpt lat="44.73119" lon="4.80891">
        <ele>140.80000305176</ele>
        <time>2024-05-21T13:22:14.000Z</time>
      </trkpt>
      <trkpt lat="44.73115" lon="4.80889">
        <ele>141</ele>
        <time>2024-05-21T13:22:15.000Z</time>
      </trkpt>
      <trkpt lat="44.7311" lon="4.80888">
        <ele>141</ele>
        <time>2024-05-21T13:22:16.000Z</time>
      </trkpt>
      <trkpt lat="44.73105" lon="4.80886">
        <ele>141.19999694824</ele>
        <time>2024-05-21T13:22:17.000Z</time>
      </trkpt>
      <trkpt lat="44.731" lon="4.80885">
        <ele>141.39999389648</ele>
        <time>2024-05-21T13:22:18.000Z</time>
      </trkpt>
      <trkpt lat="44.73095" lon="4.80883">
        <ele>141.39999389648</ele>
        <time>2024-05-21T13:22:19.000Z</time>
      </trkpt>
      <trkpt lat="44.7309" lon="4.80882">
        <ele>141.39999389648</ele>
        <time>2024-05-21T13:22:20.000Z</time>
      </trkpt>
      <trkpt lat="44.73085" lon="4.80881">
        <ele>141.60000610352</ele>
        <time>2024-05-21T13:22:21.000Z</time>
      </trkpt>
      <trkpt lat="44.7308" lon="4.80879">
        <ele>141.60000610352</ele>
        <time>2024-05-21T13:22:22.000Z</time>
      </trkpt>
      <trkpt lat="44.73076" lon="4.80878">
        <ele>141.60000610352</ele>
        <time>2024-05-21T13:22:23.000Z</time>
      </trkpt>
      <trkpt lat="44.73071" lon="4.80876">
        <ele>141.60000610352</ele>
        <time>2024-05-21T13:22:24.000Z</time>
      </trkpt>
      <trkpt lat="44.73066" lon="4.80875">
        <ele>142.19999694824</ele>
        <time>2024-05-21T13:22:25.000Z</time>
      </trkpt>
      <trkpt lat="44.73062" lon="4.80873">
        <ele>142.19999694824</ele>
        <time>2024-05-21T13:22:26.000Z</time>
      </trkpt>
      <trkpt lat="44.73057" lon="4.80871">
        <ele>142.19999694824</ele>
        <time>2024-05-21T13:22:27.000Z</time>
      </trkpt>
      <trkpt lat="44.73053" lon="4.8087">
        <ele>142.19999694824</ele>
        <time>2024-05-21T13:22:28.000Z</time>
      </trkpt>
      <trkpt lat="44.73048" lon="4.80868">
        <ele>142.39999389648</ele>
        <time>2024-05-21T13:22:29.000Z</time>
      </trkpt>
      <trkpt lat="44.73043" lon="4.80867">
        <ele>142.60000610352</ele>
        <time>2024-05-21T13:22:30.000Z</time>
      </trkpt>
      <trkpt lat="44.73039" lon="4.80865">
        <ele>142.80000305176</ele>
        <time>2024-05-21T13:22:31.000Z</time>
      </trkpt>
      <trkpt lat="44.73034" lon="4.80864">
        <ele>143</ele>
        <time>2024-05-21T13:22:32.000Z</time>
      </trkpt>
      <trkpt lat="44.73029" lon="4.80862">
        <ele>143</ele>
        <time>2024-05-21T13:22:33.000Z</time>
      </trkpt>
      <trkpt lat="44.73024" lon="4.80861">
        <ele>143</ele>
        <time>2024-05-21T13:22:34.000Z</time>
      </trkpt>
      <trkpt lat="44.7302" lon="4.80859">
        <ele>143</ele>
        <time>2024-05-21T13:22:35.000Z</time>
      </trkpt>
      <trkpt lat="44.73015" lon="4.80857">
        <ele>143.19999694824</ele>
        <time>2024-05-21T13:22:36.000Z</time>
      </trkpt>
      <trkpt lat="44.7301" lon="4.80856">
        <ele>143.19999694824</ele>
        <time>2024-05-21T13:22:37.000Z</time>
      </trkpt>
      <trkpt lat="44.73005" lon="4.80854">
        <ele>143.19999694824</ele>
        <time>2024-05-21T13:22:38.000Z</time>
      </trkpt>
      <trkpt lat="44.73" lon="4.80853">
        <ele>143.39999389648</ele>
        <time>2024-05-21T13:22:39.000Z</time>
      </trkpt>
      <trkpt lat="44.72995" lon="4.80851">
        <ele>143.60000610352</ele>
        <time>2024-05-21T13:22:40.000Z</time>
      </trkpt>
      <trkpt lat="44.7299" lon="4.8085">
        <ele>143.60000610352</ele>
        <time>2024-05-21T13:22:41.000Z</time>
      </trkpt>
      <trkpt lat="44.72985" lon="4.80848">
        <ele>143.80000305176</ele>
        <time>2024-05-21T13:22:42.000Z</time>
      </trkpt>
      <trkpt lat="44.72981" lon="4.80846">
        <ele>143.80000305176</ele>
        <time>2024-05-21T13:22:43.000Z</time>
      </trkpt>
      <trkpt lat="44.72976" lon="4.80845">
        <ele>144</ele>
        <time>2024-05-21T13:22:44.000Z</time>
      </trkpt>
      <trkpt lat="44.72971" lon="4.80843">
        <ele>144</ele>
        <time>2024-05-21T13:22:45.000Z</time>
      </trkpt>
      <trkpt lat="44.72966" lon="4.80842">
        <ele>144</ele>
        <time>2024-05-21T13:22:46.000Z</time>
      </trkpt>
      <trkpt lat="44.72961" lon="4.8084">
        <ele>144.19999694824</ele>
        <time>2024-05-21T13:22:47.000Z</time>
      </trkpt>
      <trkpt lat="44.72956" lon="4.80838">
        <ele>144.19999694824</ele>
        <time>2024-05-21T13:22:48.000Z</time>
      </trkpt>
      <trkpt lat="44.72951" lon="4.80837">
        <ele>144.39999389648</ele>
        <time>2024-05-21T13:22:49.000Z</time>
      </trkpt>
      <trkpt lat="44.72946" lon="4.80835">
        <ele>144.39999389648</ele>
        <time>2024-05-21T13:22:50.000Z</time>
      </trkpt>
      <trkpt lat="44.72941" lon="4.80833">
        <ele>144.39999389648</ele>
        <time>2024-05-21T13:22:51.000Z</time>
      </trkpt>
      <trkpt lat="44.72936" lon="4.80832">
        <ele>144.60000610352</ele>
        <time>2024-05-21T13:22:52.000Z</time>
      </trkpt>
      <trkpt lat="44.72932" lon="4.8083">
        <ele>144.60000610352</ele>
        <time>2024-05-21T13:22:53.000Z</time>
      </trkpt>
      <trkpt lat="44.72927" lon="4.80829">
        <ele>144.80000305176</ele>
        <time>2024-05-21T13:22:54.000Z</time>
      </trkpt>
      <trkpt lat="44.72922" lon="4.80827">
        <ele>144.80000305176</ele>
        <time>2024-05-21T13:22:55.000Z</time>
      </trkpt>
      <trkpt lat="44.72917" lon="4.80825">
        <ele>144.80000305176</ele>
        <time>2024-05-21T13:22:56.000Z</time>
      </trkpt>
      <trkpt lat="44.72912" lon="4.80823">
        <ele>144.80000305176</ele>
        <time>2024-05-21T13:22:57.000Z</time>
      </trkpt>
      <trkpt lat="44.72907" lon="4.80822">
        <ele>145</ele>
        <time>2024-05-21T13:22:58.000Z</time>
      </trkpt>
      <trkpt lat="44.72902" lon="4.8082">
        <ele>145</ele>
        <time>2024-05-21T13:22:59.000Z</time>
      </trkpt>
      <trkpt lat="44.72897" lon="4.80819">
        <ele>145.19999694824</ele>
        <time>2024-05-21T13:23:00.000Z</time>
      </trkpt>
      <trkpt lat="44.72893" lon="4.80817">
        <ele>145.19999694824</ele>
        <time>2024-05-21T13:23:01.000Z</time>
      </trkpt>
      <trkpt lat="44.72888" lon="4.80816">
        <ele>145.19999694824</ele>
        <time>2024-05-21T13:23:02.000Z</time>
      </trkpt>
      <trkpt lat="44.72883" lon="4.80814">
        <ele>145.19999694824</ele>
        <time>2024-05-21T13:23:03.000Z</time>
      </trkpt>
      <trkpt lat="44.72878" lon="4.80812">
        <ele>145.19999694824</ele>
        <time>2024-05-21T13:23:04.000Z</time>
      </trkpt>
      <trkpt lat="44.72873" lon="4.80811">
        <ele>145.39999389648</ele>
        <time>2024-05-21T13:23:05.000Z</time>
      </trkpt>
      <trkpt lat="44.72868" lon="4.80809">
        <ele>145.39999389648</ele>
        <time>2024-05-21T13:23:06.000Z</time>
      </trkpt>
      <trkpt lat="44.72863" lon="4.80807">
        <ele>145.80000305176</ele>
        <time>2024-05-21T13:23:07.000Z</time>
      </trkpt>
      <trkpt lat="44.72858" lon="4.80805">
        <ele>146</ele>
        <time>2024-05-21T13:23:08.000Z</time>
      </trkpt>
      <trkpt lat="44.72853" lon="4.80803">
        <ele>146</ele>
        <time>2024-05-21T13:23:09.000Z</time>
      </trkpt>
      <trkpt lat="44.72847" lon="4.80801">
        <ele>146</ele>
        <time>2024-05-21T13:23:10.000Z</time>
      </trkpt>
      <trkpt lat="44.72842" lon="4.808">
        <ele>146</ele>
        <time>2024-05-21T13:23:11.000Z</time>
      </trkpt>
      <trkpt lat="44.72837" lon="4.80798">
        <ele>146.19999694824</ele>
        <time>2024-05-21T13:23:12.000Z</time>
      </trkpt>
      <trkpt lat="44.72832" lon="4.80796">
        <ele>146.39999389648</ele>
        <time>2024-05-21T13:23:13.000Z</time>
      </trkpt>
      <trkpt lat="44.72827" lon="4.80795">
        <ele>146.39999389648</ele>
        <time>2024-05-21T13:23:14.000Z</time>
      </trkpt>
      <trkpt lat="44.72822" lon="4.80794">
        <ele>146.39999389648</ele>
        <time>2024-05-21T13:23:15.000Z</time>
      </trkpt>
      <trkpt lat="44.72817" lon="4.80792">
        <ele>146.60000610352</ele>
        <time>2024-05-21T13:23:16.000Z</time>
      </trkpt>
      <trkpt lat="44.72812" lon="4.8079">
        <ele>146.60000610352</ele>
        <time>2024-05-21T13:23:17.000Z</time>
      </trkpt>
      <trkpt lat="44.72807" lon="4.80789">
        <ele>146.60000610352</ele>
        <time>2024-05-21T13:23:18.000Z</time>
      </trkpt>
      <trkpt lat="44.72802" lon="4.80787">
        <ele>146.60000610352</ele>
        <time>2024-05-21T13:23:19.000Z</time>
      </trkpt>
      <trkpt lat="44.72796" lon="4.80785">
        <ele>146.60000610352</ele>
        <time>2024-05-21T13:23:20.000Z</time>
      </trkpt>
      <trkpt lat="44.72791" lon="4.80784">
        <ele>146.60000610352</ele>
        <time>2024-05-21T13:23:21.000Z</time>
      </trkpt>
      <trkpt lat="44.72786" lon="4.80782">
        <ele>146.60000610352</ele>
        <time>2024-05-21T13:23:22.000Z</time>
      </trkpt>
      <trkpt lat="44.72781" lon="4.80781">
        <ele>146.80000305176</ele>
        <time>2024-05-21T13:23:23.000Z</time>
      </trkpt>
      <trkpt lat="44.72776" lon="4.80779">
        <ele>147</ele>
        <time>2024-05-21T13:23:24.000Z</time>
      </trkpt>
      <trkpt lat="44.72771" lon="4.80777">
        <ele>147</ele>
        <time>2024-05-21T13:23:25.000Z</time>
      </trkpt>
      <trkpt lat="44.72766" lon="4.80776">
        <ele>147</ele>
        <time>2024-05-21T13:23:26.000Z</time>
      </trkpt>
      <trkpt lat="44.72761" lon="4.80774">
        <ele>147</ele>
        <time>2024-05-21T13:23:27.000Z</time>
      </trkpt>
      <trkpt lat="44.72756" lon="4.80772">
        <ele>147</ele>
        <time>2024-05-21T13:23:28.000Z</time>
      </trkpt>
      <trkpt lat="44.7275" lon="4.80771">
        <ele>147.19999694824</ele>
        <time>2024-05-21T13:23:29.000Z</time>
      </trkpt>
      <trkpt lat="44.72745" lon="4.80769">
        <ele>147.19999694824</ele>
        <time>2024-05-21T13:23:30.000Z</time>
      </trkpt>
      <trkpt lat="44.7274" lon="4.80767">
        <ele>147.19999694824</ele>
        <time>2024-05-21T13:23:31.000Z</time>
      </trkpt>
      <trkpt lat="44.72735" lon="4.80766">
        <ele>147.19999694824</ele>
        <time>2024-05-21T13:23:32.000Z</time>
      </trkpt>
      <trkpt lat="44.7273" lon="4.80764">
        <ele>147.19999694824</ele>
        <time>2024-05-21T13:23:33.000Z</time>
      </trkpt>
      <trkpt lat="44.72724" lon="4.80762">
        <ele>147.19999694824</ele>
        <time>2024-05-21T13:23:34.000Z</time>
      </trkpt>
      <trkpt lat="44.72719" lon="4.80761">
        <ele>147.39999389648</ele>
        <time>2024-05-21T13:23:35.000Z</time>
      </trkpt>
      <trkpt lat="44.72713" lon="4.80759">
        <ele>147.39999389648</ele>
        <time>2024-05-21T13:23:36.000Z</time>
      </trkpt>
      <trkpt lat="44.72708" lon="4.80757">
        <ele>147.39999389648</ele>
        <time>2024-05-21T13:23:37.000Z</time>
      </trkpt>
      <trkpt lat="44.72703" lon="4.80756">
        <ele>147.39999389648</ele>
        <time>2024-05-21T13:23:38.000Z</time>
      </trkpt>
      <trkpt lat="44.72697" lon="4.80754">
        <ele>147.39999389648</ele>
        <time>2024-05-21T13:23:39.000Z</time>
      </trkpt>
      <trkpt lat="44.72692" lon="4.80752">
        <ele>147.39999389648</ele>
        <time>2024-05-21T13:23:40.000Z</time>
      </trkpt>
      <trkpt lat="44.72687" lon="4.8075">
        <ele>147.39999389648</ele>
        <time>2024-05-21T13:23:41.000Z</time>
      </trkpt>
      <trkpt lat="44.72681" lon="4.80749">
        <ele>147.60000610352</ele>
        <time>2024-05-21T13:23:42.000Z</time>
      </trkpt>
      <trkpt lat="44.72676" lon="4.80747">
        <ele>147.60000610352</ele>
        <time>2024-05-21T13:23:43.000Z</time>
      </trkpt>
      <trkpt lat="44.72671" lon="4.80745">
        <ele>147.60000610352</ele>
        <time>2024-05-21T13:23:44.000Z</time>
      </trkpt>
      <trkpt lat="44.72666" lon="4.80744">
        <ele>147.60000610352</ele>
        <time>2024-05-21T13:23:45.000Z</time>
      </trkpt>
      <trkpt lat="44.7266" lon="4.80742">
        <ele>147.80000305176</ele>
        <time>2024-05-21T13:23:46.000Z</time>
      </trkpt>
      <trkpt lat="44.72655" lon="4.8074">
        <ele>147.80000305176</ele>
        <time>2024-05-21T13:23:47.000Z</time>
      </trkpt>
      <trkpt lat="44.7265" lon="4.80738">
        <ele>147.80000305176</ele>
        <time>2024-05-21T13:23:48.000Z</time>
      </trkpt>
      <trkpt lat="44.72644" lon="4.80736">
        <ele>148</ele>
        <time>2024-05-21T13:23:49.000Z</time>
      </trkpt>
      <trkpt lat="44.72639" lon="4.80734">
        <ele>148</ele>
        <time>2024-05-21T13:23:50.000Z</time>
      </trkpt>
      <trkpt lat="44.72633" lon="4.80733">
        <ele>148</ele>
        <time>2024-05-21T13:23:51.000Z</time>
      </trkpt>
      <trkpt lat="44.72628" lon="4.80731">
        <ele>148</ele>
        <time>2024-05-21T13:23:52.000Z</time>
      </trkpt>
      <trkpt lat="44.72622" lon="4.8073">
        <ele>148</ele>
        <time>2024-05-21T13:23:53.000Z</time>
      </trkpt>
      <trkpt lat="44.72617" lon="4.80728">
        <ele>148.19999694824</ele>
        <time>2024-05-21T13:23:54.000Z</time>
      </trkpt>
      <trkpt lat="44.72611" lon="4.80726">
        <ele>148.19999694824</ele>
        <time>2024-05-21T13:23:55.000Z</time>
      </trkpt>
      <trkpt lat="44.72606" lon="4.80724">
        <ele>148.19999694824</ele>
        <time>2024-05-21T13:23:56.000Z</time>
      </trkpt>
      <trkpt lat="44.726" lon="4.80722">
        <ele>148.19999694824</ele>
        <time>2024-05-21T13:23:57.000Z</time>
      </trkpt>
      <trkpt lat="44.72595" lon="4.80721">
        <ele>148.39999389648</ele>
        <time>2024-05-21T13:23:58.000Z</time>
      </trkpt>
      <trkpt lat="44.7259" lon="4.80719">
        <ele>148.39999389648</ele>
        <time>2024-05-21T13:23:59.000Z</time>
      </trkpt>
      <trkpt lat="44.72584" lon="4.80717">
        <ele>148.60000610352</ele>
        <time>2024-05-21T13:24:00.000Z</time>
      </trkpt>
      <trkpt lat="44.72579" lon="4.80715">
        <ele>148.60000610352</ele>
        <time>2024-05-21T13:24:01.000Z</time>
      </trkpt>
      <trkpt lat="44.72573" lon="4.80713">
        <ele>148.60000610352</ele>
        <time>2024-05-21T13:24:02.000Z</time>
      </trkpt>
      <trkpt lat="44.72567" lon="4.80711">
        <ele>148.80000305176</ele>
        <time>2024-05-21T13:24:03.000Z</time>
      </trkpt>
      <trkpt lat="44.72561" lon="4.80709">
        <ele>148.80000305176</ele>
        <time>2024-05-21T13:24:04.000Z</time>
      </trkpt>
      <trkpt lat="44.72556" lon="4.80707">
        <ele>149</ele>
        <time>2024-05-21T13:24:05.000Z</time>
      </trkpt>
      <trkpt lat="44.7255" lon="4.80705">
        <ele>149</ele>
        <time>2024-05-21T13:24:06.000Z</time>
      </trkpt>
      <trkpt lat="44.72544" lon="4.80703">
        <ele>149</ele>
        <time>2024-05-21T13:24:07.000Z</time>
      </trkpt>
      <trkpt lat="44.72538" lon="4.80701">
        <ele>149.19999694824</ele>
        <time>2024-05-21T13:24:08.000Z</time>
      </trkpt>
      <trkpt lat="44.72532" lon="4.80699">
        <ele>149.19999694824</ele>
        <time>2024-05-21T13:24:09.000Z</time>
      </trkpt>
      <trkpt lat="44.72526" lon="4.80697">
        <ele>149.19999694824</ele>
        <time>2024-05-21T13:24:10.000Z</time>
      </trkpt>
      <trkpt lat="44.7252" lon="4.80695">
        <ele>149.19999694824</ele>
        <time>2024-05-21T13:24:11.000Z</time>
      </trkpt>
      <trkpt lat="44.72514" lon="4.80694">
        <ele>149.19999694824</ele>
        <time>2024-05-21T13:24:12.000Z</time>
      </trkpt>
      <trkpt lat="44.72507" lon="4.80692">
        <ele>149.19999694824</ele>
        <time>2024-05-21T13:24:13.000Z</time>
      </trkpt>
      <trkpt lat="44.72501" lon="4.8069">
        <ele>149.19999694824</ele>
        <time>2024-05-21T13:24:14.000Z</time>
      </trkpt>
      <trkpt lat="44.72495" lon="4.80688">
        <ele>149.39999389648</ele>
        <time>2024-05-21T13:24:15.000Z</time>
      </trkpt>
      <trkpt lat="44.72488" lon="4.80686">
        <ele>149.39999389648</ele>
        <time>2024-05-21T13:24:16.000Z</time>
      </trkpt>
      <trkpt lat="44.72482" lon="4.80683">
        <ele>149.39999389648</ele>
        <time>2024-05-21T13:24:17.000Z</time>
      </trkpt>
      <trkpt lat="44.72476" lon="4.80682">
        <ele>149.19999694824</ele>
        <time>2024-05-21T13:24:18.000Z</time>
      </trkpt>
      <trkpt lat="44.72469" lon="4.8068">
        <ele>149.19999694824</ele>
        <time>2024-05-21T13:24:19.000Z</time>
      </trkpt>
      <trkpt lat="44.72463" lon="4.80678">
        <ele>149.19999694824</ele>
        <time>2024-05-21T13:24:20.000Z</time>
      </trkpt>
      <trkpt lat="44.72457" lon="4.80676">
        <ele>149</ele>
        <time>2024-05-21T13:24:21.000Z</time>
      </trkpt>
      <trkpt lat="44.72451" lon="4.80674">
        <ele>149</ele>
        <time>2024-05-21T13:24:22.000Z</time>
      </trkpt>
      <trkpt lat="44.72445" lon="4.80672">
        <ele>148.80000305176</ele>
        <time>2024-05-21T13:24:23.000Z</time>
      </trkpt>
      <trkpt lat="44.72439" lon="4.8067">
        <ele>148.80000305176</ele>
        <time>2024-05-21T13:24:24.000Z</time>
      </trkpt>
      <trkpt lat="44.72433" lon="4.80668">
        <ele>148.80000305176</ele>
        <time>2024-05-21T13:24:25.000Z</time>
      </trkpt>
      <trkpt lat="44.72427" lon="4.80666">
        <ele>148.80000305176</ele>
        <time>2024-05-21T13:24:26.000Z</time>
      </trkpt>
      <trkpt lat="44.7242" lon="4.80664">
        <ele>148.80000305176</ele>
        <time>2024-05-21T13:24:27.000Z</time>
      </trkpt>
      <trkpt lat="44.72414" lon="4.80662">
        <ele>148.80000305176</ele>
        <time>2024-05-21T13:24:28.000Z</time>
      </trkpt>
      <trkpt lat="44.72408" lon="4.8066">
        <ele>148.80000305176</ele>
        <time>2024-05-21T13:24:29.000Z</time>
      </trkpt>
      <trkpt lat="44.72402" lon="4.80658">
        <ele>148.80000305176</ele>
        <time>2024-05-21T13:24:30.000Z</time>
      </trkpt>
      <trkpt lat="44.72396" lon="4.80656">
        <ele>148.80000305176</ele>
        <time>2024-05-21T13:24:31.000Z</time>
      </trkpt>
      <trkpt lat="44.7239" lon="4.80654">
        <ele>148.60000610352</ele>
        <time>2024-05-21T13:24:32.000Z</time>
      </trkpt>
      <trkpt lat="44.72384" lon="4.80652">
        <ele>148.60000610352</ele>
        <time>2024-05-21T13:24:33.000Z</time>
      </trkpt>
      <trkpt lat="44.72378" lon="4.80651">
        <ele>148.60000610352</ele>
        <time>2024-05-21T13:24:34.000Z</time>
      </trkpt>
      <trkpt lat="44.72371" lon="4.80649">
        <ele>148.60000610352</ele>
        <time>2024-05-21T13:24:35.000Z</time>
      </trkpt>
      <trkpt lat="44.72365" lon="4.80647">
        <ele>148.60000610352</ele>
        <time>2024-05-21T13:24:36.000Z</time>
      </trkpt>
      <trkpt lat="44.72359" lon="4.80645">
        <ele>148.60000610352</ele>
        <time>2024-05-21T13:24:37.000Z</time>
      </trkpt>
      <trkpt lat="44.72353" lon="4.80643">
        <ele>148.60000610352</ele>
        <time>2024-05-21T13:24:38.000Z</time>
      </trkpt>
      <trkpt lat="44.72347" lon="4.80641">
        <ele>148.60000610352</ele>
        <time>2024-05-21T13:24:39.000Z</time>
      </trkpt>
      <trkpt lat="44.72341" lon="4.80639">
        <ele>148.60000610352</ele>
        <time>2024-05-21T13:24:40.000Z</time>
      </trkpt>
      <trkpt lat="44.72335" lon="4.80637">
        <ele>148.60000610352</ele>
        <time>2024-05-21T13:24:41.000Z</time>
      </trkpt>
      <trkpt lat="44.72328" lon="4.80635">
        <ele>148.60000610352</ele>
        <time>2024-05-21T13:24:42.000Z</time>
      </trkpt>
      <trkpt lat="44.72322" lon="4.80633">
        <ele>148.60000610352</ele>
        <time>2024-05-21T13:24:43.000Z</time>
      </trkpt>
      <trkpt lat="44.72316" lon="4.8063">
        <ele>148.60000610352</ele>
        <time>2024-05-21T13:24:44.000Z</time>
      </trkpt>
      <trkpt lat="44.72309" lon="4.80628">
        <ele>148.60000610352</ele>
        <time>2024-05-21T13:24:45.000Z</time>
      </trkpt>
      <trkpt lat="44.72303" lon="4.80626">
        <ele>148.60000610352</ele>
        <time>2024-05-21T13:24:46.000Z</time>
      </trkpt>
      <trkpt lat="44.72296" lon="4.80624">
        <ele>148.60000610352</ele>
        <time>2024-05-21T13:24:47.000Z</time>
      </trkpt>
      <trkpt lat="44.72289" lon="4.80622">
        <ele>148.60000610352</ele>
        <time>2024-05-21T13:24:48.000Z</time>
      </trkpt>
      <trkpt lat="44.72283" lon="4.8062">
        <ele>148.39999389648</ele>
        <time>2024-05-21T13:24:49.000Z</time>
      </trkpt>
      <trkpt lat="44.72276" lon="4.80617">
        <ele>148.39999389648</ele>
        <time>2024-05-21T13:24:50.000Z</time>
      </trkpt>
      <trkpt lat="44.7227" lon="4.80615">
        <ele>148.19999694824</ele>
        <time>2024-05-21T13:24:51.000Z</time>
      </trkpt>
      <trkpt lat="44.72263" lon="4.80613">
        <ele>148.19999694824</ele>
        <time>2024-05-21T13:24:52.000Z</time>
      </trkpt>
      <trkpt lat="44.72256" lon="4.8061">
        <ele>148</ele>
        <time>2024-05-21T13:24:53.000Z</time>
      </trkpt>
      <trkpt lat="44.72249" lon="4.80608">
        <ele>148</ele>
        <time>2024-05-21T13:24:54.000Z</time>
      </trkpt>
      <trkpt lat="44.72242" lon="4.80606">
        <ele>147.80000305176</ele>
        <time>2024-05-21T13:24:55.000Z</time>
      </trkpt>
      <trkpt lat="44.72235" lon="4.80604">
        <ele>147.80000305176</ele>
        <time>2024-05-21T13:24:56.000Z</time>
      </trkpt>
      <trkpt lat="44.72228" lon="4.80602">
        <ele>147.60000610352</ele>
        <time>2024-05-21T13:24:57.000Z</time>
      </trkpt>
      <trkpt lat="44.72221" lon="4.80599">
        <ele>147.60000610352</ele>
        <time>2024-05-21T13:24:58.000Z</time>
      </trkpt>
      <trkpt lat="44.72215" lon="4.80597">
        <ele>147.60000610352</ele>
        <time>2024-05-21T13:24:59.000Z</time>
      </trkpt>
      <trkpt lat="44.72208" lon="4.80595">
        <ele>147.39999389648</ele>
        <time>2024-05-21T13:25:00.000Z</time>
      </trkpt>
      <trkpt lat="44.72201" lon="4.80593">
        <ele>147.39999389648</ele>
        <time>2024-05-21T13:25:01.000Z</time>
      </trkpt>
      <trkpt lat="44.72194" lon="4.80591">
        <ele>147.19999694824</ele>
        <time>2024-05-21T13:25:02.000Z</time>
      </trkpt>
      <trkpt lat="44.72187" lon="4.80588">
        <ele>147.19999694824</ele>
        <time>2024-05-21T13:25:03.000Z</time>
      </trkpt>
      <trkpt lat="44.7218" lon="4.80586">
        <ele>147.19999694824</ele>
        <time>2024-05-21T13:25:04.000Z</time>
      </trkpt>
      <trkpt lat="44.72173" lon="4.80584">
        <ele>147</ele>
        <time>2024-05-21T13:25:05.000Z</time>
      </trkpt>
      <trkpt lat="44.72166" lon="4.80581">
        <ele>147</ele>
        <time>2024-05-21T13:25:06.000Z</time>
      </trkpt>
      <trkpt lat="44.7216" lon="4.80579">
        <ele>147</ele>
        <time>2024-05-21T13:25:07.000Z</time>
      </trkpt>
      <trkpt lat="44.72153" lon="4.80576">
        <ele>147</ele>
        <time>2024-05-21T13:25:08.000Z</time>
      </trkpt>
      <trkpt lat="44.72146" lon="4.80574">
        <ele>147</ele>
        <time>2024-05-21T13:25:09.000Z</time>
      </trkpt>
      <trkpt lat="44.72139" lon="4.80572">
        <ele>146.80000305176</ele>
        <time>2024-05-21T13:25:10.000Z</time>
      </trkpt>
      <trkpt lat="44.72132" lon="4.80569">
        <ele>146.80000305176</ele>
        <time>2024-05-21T13:25:11.000Z</time>
      </trkpt>
      <trkpt lat="44.72124" lon="4.80567">
        <ele>146.80000305176</ele>
        <time>2024-05-21T13:25:12.000Z</time>
      </trkpt>
      <trkpt lat="44.72117" lon="4.80565">
        <ele>146.60000610352</ele>
        <time>2024-05-21T13:25:13.000Z</time>
      </trkpt>
      <trkpt lat="44.7211" lon="4.80563">
        <ele>146.60000610352</ele>
        <time>2024-05-21T13:25:14.000Z</time>
      </trkpt>
      <trkpt lat="44.72103" lon="4.8056">
        <ele>146.39999389648</ele>
        <time>2024-05-21T13:25:15.000Z</time>
      </trkpt>
      <trkpt lat="44.72096" lon="4.80558">
        <ele>146.19999694824</ele>
        <time>2024-05-21T13:25:16.000Z</time>
      </trkpt>
      <trkpt lat="44.72089" lon="4.80556">
        <ele>146</ele>
        <time>2024-05-21T13:25:17.000Z</time>
      </trkpt>
      <trkpt lat="44.72082" lon="4.80554">
        <ele>146</ele>
        <time>2024-05-21T13:25:18.000Z</time>
      </trkpt>
      <trkpt lat="44.72075" lon="4.80552">
        <ele>146</ele>
        <time>2024-05-21T13:25:19.000Z</time>
      </trkpt>
      <trkpt lat="44.72068" lon="4.80549">
        <ele>146</ele>
        <time>2024-05-21T13:25:20.000Z</time>
      </trkpt>
      <trkpt lat="44.72061" lon="4.80547">
        <ele>145.80000305176</ele>
        <time>2024-05-21T13:25:21.000Z</time>
      </trkpt>
      <trkpt lat="44.72054" lon="4.80544">
        <ele>145.80000305176</ele>
        <time>2024-05-21T13:25:22.000Z</time>
      </trkpt>
      <trkpt lat="44.72047" lon="4.80542">
        <ele>145.60000610352</ele>
        <time>2024-05-21T13:25:23.000Z</time>
      </trkpt>
      <trkpt lat="44.7204" lon="4.80539">
        <ele>145.60000610352</ele>
        <time>2024-05-21T13:25:24.000Z</time>
      </trkpt>
      <trkpt lat="44.72033" lon="4.80537">
        <ele>145.39999389648</ele>
        <time>2024-05-21T13:25:25.000Z</time>
      </trkpt>
      <trkpt lat="44.72026" lon="4.80535">
        <ele>145.39999389648</ele>
        <time>2024-05-21T13:25:26.000Z</time>
      </trkpt>
      <trkpt lat="44.72019" lon="4.80533">
        <ele>145.39999389648</ele>
        <time>2024-05-21T13:25:27.000Z</time>
      </trkpt>
      <trkpt lat="44.72012" lon="4.8053">
        <ele>145.19999694824</ele>
        <time>2024-05-21T13:25:28.000Z</time>
      </trkpt>
      <trkpt lat="44.72005" lon="4.80528">
        <ele>145</ele>
        <time>2024-05-21T13:25:29.000Z</time>
      </trkpt>
      <trkpt lat="44.71997" lon="4.80526">
        <ele>145</ele>
        <time>2024-05-21T13:25:30.000Z</time>
      </trkpt>
      <trkpt lat="44.7199" lon="4.80524">
        <ele>145</ele>
        <time>2024-05-21T13:25:31.000Z</time>
      </trkpt>
      <trkpt lat="44.71982" lon="4.80521">
        <ele>144.80000305176</ele>
        <time>2024-05-21T13:25:32.000Z</time>
      </trkpt>
      <trkpt lat="44.71975" lon="4.80519">
        <ele>144.60000610352</ele>
        <time>2024-05-21T13:25:33.000Z</time>
      </trkpt>
      <trkpt lat="44.71967" lon="4.80516">
        <ele>144.60000610352</ele>
        <time>2024-05-21T13:25:34.000Z</time>
      </trkpt>
      <trkpt lat="44.7196" lon="4.80513">
        <ele>144.39999389648</ele>
        <time>2024-05-21T13:25:35.000Z</time>
      </trkpt>
      <trkpt lat="44.71952" lon="4.80511">
        <ele>144.39999389648</ele>
        <time>2024-05-21T13:25:36.000Z</time>
      </trkpt>
      <trkpt lat="44.71945" lon="4.80508">
        <ele>144.19999694824</ele>
        <time>2024-05-21T13:25:37.000Z</time>
      </trkpt>
      <trkpt lat="44.71937" lon="4.80506">
        <ele>144.19999694824</ele>
        <time>2024-05-21T13:25:38.000Z</time>
      </trkpt>
      <trkpt lat="44.7193" lon="4.80503">
        <ele>144</ele>
        <time>2024-05-21T13:25:39.000Z</time>
      </trkpt>
      <trkpt lat="44.71922" lon="4.80501">
        <ele>143.80000305176</ele>
        <time>2024-05-21T13:25:40.000Z</time>
      </trkpt>
      <trkpt lat="44.71914" lon="4.80498">
        <ele>143.80000305176</ele>
        <time>2024-05-21T13:25:41.000Z</time>
      </trkpt>
      <trkpt lat="44.71907" lon="4.80495">
        <ele>143.60000610352</ele>
        <time>2024-05-21T13:25:42.000Z</time>
      </trkpt>
      <trkpt lat="44.71899" lon="4.80492">
        <ele>143.39999389648</ele>
        <time>2024-05-21T13:25:43.000Z</time>
      </trkpt>
      <trkpt lat="44.71891" lon="4.8049">
        <ele>143.19999694824</ele>
        <time>2024-05-21T13:25:44.000Z</time>
      </trkpt>
      <trkpt lat="44.71883" lon="4.80488">
        <ele>143</ele>
        <time>2024-05-21T13:25:45.000Z</time>
      </trkpt>
      <trkpt lat="44.71876" lon="4.80485">
        <ele>142.80000305176</ele>
        <time>2024-05-21T13:25:46.000Z</time>
      </trkpt>
      <trkpt lat="44.71868" lon="4.80482">
        <ele>142.60000610352</ele>
        <time>2024-05-21T13:25:47.000Z</time>
      </trkpt>
      <trkpt lat="44.7186" lon="4.8048">
        <ele>142.60000610352</ele>
        <time>2024-05-21T13:25:48.000Z</time>
      </trkpt>
      <trkpt lat="44.71853" lon="4.80477">
        <ele>142.60000610352</ele>
        <time>2024-05-21T13:25:49.000Z</time>
      </trkpt>
      <trkpt lat="44.71845" lon="4.80475">
        <ele>142.39999389648</ele>
        <time>2024-05-21T13:25:50.000Z</time>
      </trkpt>
      <trkpt lat="44.71838" lon="4.80472">
        <ele>142.39999389648</ele>
        <time>2024-05-21T13:25:51.000Z</time>
      </trkpt>
      <trkpt lat="44.71829" lon="4.8047">
        <ele>142.19999694824</ele>
        <time>2024-05-21T13:25:52.000Z</time>
      </trkpt>
      <trkpt lat="44.71822" lon="4.80467">
        <ele>142</ele>
        <time>2024-05-21T13:25:53.000Z</time>
      </trkpt>
      <trkpt lat="44.71814" lon="4.80464">
        <ele>142</ele>
        <time>2024-05-21T13:25:54.000Z</time>
      </trkpt>
      <trkpt lat="44.71806" lon="4.80461">
        <ele>142</ele>
        <time>2024-05-21T13:25:55.000Z</time>
      </trkpt>
      <trkpt lat="44.71797" lon="4.80459">
        <ele>142</ele>
        <time>2024-05-21T13:25:56.000Z</time>
      </trkpt>
      <trkpt lat="44.71789" lon="4.80456">
        <ele>142</ele>
        <time>2024-05-21T13:25:57.000Z</time>
      </trkpt>
      <trkpt lat="44.7178" lon="4.80453">
        <ele>141.80000305176</ele>
        <time>2024-05-21T13:25:58.000Z</time>
      </trkpt>
      <trkpt lat="44.71772" lon="4.8045">
        <ele>141.39999389648</ele>
        <time>2024-05-21T13:25:59.000Z</time>
      </trkpt>
      <trkpt lat="44.71763" lon="4.80447">
        <ele>141</ele>
        <time>2024-05-21T13:26:00.000Z</time>
      </trkpt>
      <trkpt lat="44.71754" lon="4.80445">
        <ele>140.60000610352</ele>
        <time>2024-05-21T13:26:01.000Z</time>
      </trkpt>
      <trkpt lat="44.71745" lon="4.80442">
        <ele>140.39999389648</ele>
        <time>2024-05-21T13:26:02.000Z</time>
      </trkpt>
      <trkpt lat="44.71736" lon="4.80439">
        <ele>139.80000305176</ele>
        <time>2024-05-21T13:26:03.000Z</time>
      </trkpt>
      <trkpt lat="44.71726" lon="4.80436">
        <ele>139.60000610352</ele>
        <time>2024-05-21T13:26:04.000Z</time>
      </trkpt>
      <trkpt lat="44.71716" lon="4.80433">
        <ele>139.39999389648</ele>
        <time>2024-05-21T13:26:05.000Z</time>
      </trkpt>
      <trkpt lat="44.71707" lon="4.80429">
        <ele>138.80000305176</ele>
        <time>2024-05-21T13:26:06.000Z</time>
      </trkpt>
      <trkpt lat="44.71697" lon="4.80426">
        <ele>138.60000610352</ele>
        <time>2024-05-21T13:26:07.000Z</time>
      </trkpt>
      <trkpt lat="44.71687" lon="4.80423">
        <ele>138</ele>
        <time>2024-05-21T13:26:08.000Z</time>
      </trkpt>
      <trkpt lat="44.71677" lon="4.8042">
        <ele>137.60000610352</ele>
        <time>2024-05-21T13:26:09.000Z</time>
      </trkpt>
      <trkpt lat="44.71667" lon="4.80417">
        <ele>137.19999694824</ele>
        <time>2024-05-21T13:26:10.000Z</time>
      </trkpt>
      <trkpt lat="44.71658" lon="4.80413">
        <ele>137</ele>
        <time>2024-05-21T13:26:11.000Z</time>
      </trkpt>
      <trkpt lat="44.71648" lon="4.8041">
        <ele>136.39999389648</ele>
        <time>2024-05-21T13:26:12.000Z</time>
      </trkpt>
      <trkpt lat="44.71638" lon="4.80407">
        <ele>135.80000305176</ele>
        <time>2024-05-21T13:26:13.000Z</time>
      </trkpt>
      <trkpt lat="44.71628" lon="4.80403">
        <ele>135.19999694824</ele>
        <time>2024-05-21T13:26:14.000Z</time>
      </trkpt>
      <trkpt lat="44.71619" lon="4.804">
        <ele>134.80000305176</ele>
        <time>2024-05-21T13:26:15.000Z</time>
      </trkpt>
      <trkpt lat="44.71609" lon="4.80397">
        <ele>134.39999389648</ele>
        <time>2024-05-21T13:26:16.000Z</time>
      </trkpt>
      <trkpt lat="44.716" lon="4.80394">
        <ele>134</ele>
        <time>2024-05-21T13:26:17.000Z</time>
      </trkpt>
      <trkpt lat="44.7159" lon="4.80391">
        <ele>133.39999389648</ele>
        <time>2024-05-21T13:26:18.000Z</time>
      </trkpt>
      <trkpt lat="44.71581" lon="4.80387">
        <ele>133.39999389648</ele>
        <time>2024-05-21T13:26:19.000Z</time>
      </trkpt>
      <trkpt lat="44.71572" lon="4.80384">
        <ele>133.19999694824</ele>
        <time>2024-05-21T13:26:20.000Z</time>
      </trkpt>
      <trkpt lat="44.71563" lon="4.80381">
        <ele>133</ele>
        <time>2024-05-21T13:26:21.000Z</time>
      </trkpt>
      <trkpt lat="44.71554" lon="4.80378">
        <ele>133</ele>
        <time>2024-05-21T13:26:22.000Z</time>
      </trkpt>
      <trkpt lat="44.71545" lon="4.80375">
        <ele>132.80000305176</ele>
        <time>2024-05-21T13:26:23.000Z</time>
      </trkpt>
      <trkpt lat="44.71536" lon="4.80372">
        <ele>132.80000305176</ele>
        <time>2024-05-21T13:26:24.000Z</time>
      </trkpt>
      <trkpt lat="44.71527" lon="4.80369">
        <ele>132.80000305176</ele>
        <time>2024-05-21T13:26:25.000Z</time>
      </trkpt>
      <trkpt lat="44.71518" lon="4.80367">
        <ele>132.60000610352</ele>
        <time>2024-05-21T13:26:26.000Z</time>
      </trkpt>
      <trkpt lat="44.71509" lon="4.80364">
        <ele>132.60000610352</ele>
        <time>2024-05-21T13:26:27.000Z</time>
      </trkpt>
      <trkpt lat="44.71501" lon="4.80361">
        <ele>132.60000610352</ele>
        <time>2024-05-21T13:26:28.000Z</time>
      </trkpt>
      <trkpt lat="44.71492" lon="4.80359">
        <ele>132.60000610352</ele>
        <time>2024-05-21T13:26:29.000Z</time>
      </trkpt>
      <trkpt lat="44.71483" lon="4.80356">
        <ele>132.60000610352</ele>
        <time>2024-05-21T13:26:30.000Z</time>
      </trkpt>
      <trkpt lat="44.71475" lon="4.80353">
        <ele>132.60000610352</ele>
        <time>2024-05-21T13:26:31.000Z</time>
      </trkpt>
      <trkpt lat="44.71466" lon="4.8035">
        <ele>132.39999389648</ele>
        <time>2024-05-21T13:26:32.000Z</time>
      </trkpt>
      <trkpt lat="44.71458" lon="4.80348">
        <ele>132.19999694824</ele>
        <time>2024-05-21T13:26:33.000Z</time>
      </trkpt>
      <trkpt lat="44.7145" lon="4.80345">
        <ele>132.19999694824</ele>
        <time>2024-05-21T13:26:34.000Z</time>
      </trkpt>
      <trkpt lat="44.71441" lon="4.80342">
        <ele>132.19999694824</ele>
        <time>2024-05-21T13:26:35.000Z</time>
      </trkpt>
      <trkpt lat="44.71433" lon="4.80339">
        <ele>131.80000305176</ele>
        <time>2024-05-21T13:26:36.000Z</time>
      </trkpt>
      <trkpt lat="44.71425" lon="4.80336">
        <ele>131.80000305176</ele>
        <time>2024-05-21T13:26:37.000Z</time>
      </trkpt>
      <trkpt lat="44.71416" lon="4.80333">
        <ele>131.60000610352</ele>
        <time>2024-05-21T13:26:38.000Z</time>
      </trkpt>
      <trkpt lat="44.71407" lon="4.8033">
        <ele>131</ele>
        <time>2024-05-21T13:26:39.000Z</time>
      </trkpt>
      <trkpt lat="44.71398" lon="4.80327">
        <ele>130.80000305176</ele>
        <time>2024-05-21T13:26:40.000Z</time>
      </trkpt>
      <trkpt lat="44.71389" lon="4.80323">
        <ele>130</ele>
        <time>2024-05-21T13:26:41.000Z</time>
      </trkpt>
      <trkpt lat="44.71379" lon="4.8032">
        <ele>130</ele>
        <time>2024-05-21T13:26:42.000Z</time>
      </trkpt>
      <trkpt lat="44.7137" lon="4.80317">
        <ele>129.80000305176</ele>
        <time>2024-05-21T13:26:43.000Z</time>
      </trkpt>
      <trkpt lat="44.7136" lon="4.80314">
        <ele>129</ele>
        <time>2024-05-21T13:26:44.000Z</time>
      </trkpt>
      <trkpt lat="44.7135" lon="4.80311">
        <ele>129</ele>
        <time>2024-05-21T13:26:45.000Z</time>
      </trkpt>
      <trkpt lat="44.71341" lon="4.80308">
        <ele>128.60000610352</ele>
        <time>2024-05-21T13:26:46.000Z</time>
      </trkpt>
      <trkpt lat="44.71331" lon="4.80304">
        <ele>128.39999389648</ele>
        <time>2024-05-21T13:26:47.000Z</time>
      </trkpt>
      <trkpt lat="44.71321" lon="4.80301">
        <ele>127.80000305176</ele>
        <time>2024-05-21T13:26:48.000Z</time>
      </trkpt>
      <trkpt lat="44.71312" lon="4.80298">
        <ele>127.59999847412</ele>
        <time>2024-05-21T13:26:49.000Z</time>
      </trkpt>
      <trkpt lat="44.71302" lon="4.80295">
        <ele>127</ele>
        <time>2024-05-21T13:26:50.000Z</time>
      </trkpt>
      <trkpt lat="44.71292" lon="4.80291">
        <ele>126.80000305176</ele>
        <time>2024-05-21T13:26:51.000Z</time>
      </trkpt>
      <trkpt lat="44.71283" lon="4.80288">
        <ele>126.59999847412</ele>
        <time>2024-05-21T13:26:52.000Z</time>
      </trkpt>
      <trkpt lat="44.71273" lon="4.80285">
        <ele>126.40000152588</ele>
        <time>2024-05-21T13:26:53.000Z</time>
      </trkpt>
      <trkpt lat="44.71264" lon="4.80282">
        <ele>126.19999694824</ele>
        <time>2024-05-21T13:26:54.000Z</time>
      </trkpt>
      <trkpt lat="44.71254" lon="4.80279">
        <ele>126</ele>
        <time>2024-05-21T13:26:55.000Z</time>
      </trkpt>
      <trkpt lat="44.71244" lon="4.80276">
        <ele>125.80000305176</ele>
        <time>2024-05-21T13:26:56.000Z</time>
      </trkpt>
      <trkpt lat="44.71235" lon="4.80273">
        <ele>125.59999847412</ele>
        <time>2024-05-21T13:26:57.000Z</time>
      </trkpt>
      <trkpt lat="44.71226" lon="4.8027">
        <ele>125.19999694824</ele>
        <time>2024-05-21T13:26:58.000Z</time>
      </trkpt>
      <trkpt lat="44.71216" lon="4.80267">
        <ele>125</ele>
        <time>2024-05-21T13:26:59.000Z</time>
      </trkpt>
      <trkpt lat="44.71207" lon="4.80264">
        <ele>124.80000305176</ele>
        <time>2024-05-21T13:27:00.000Z</time>
      </trkpt>
      <trkpt lat="44.71198" lon="4.80261">
        <ele>124.59999847412</ele>
        <time>2024-05-21T13:27:01.000Z</time>
      </trkpt>
      <trkpt lat="44.71189" lon="4.80257">
        <ele>124.59999847412</ele>
        <time>2024-05-21T13:27:02.000Z</time>
      </trkpt>
      <trkpt lat="44.7118" lon="4.80254">
        <ele>124.59999847412</ele>
        <time>2024-05-21T13:27:03.000Z</time>
      </trkpt>
      <trkpt lat="44.71171" lon="4.80251">
        <ele>124.59999847412</ele>
        <time>2024-05-21T13:27:04.000Z</time>
      </trkpt>
      <trkpt lat="44.71162" lon="4.80249">
        <ele>124.40000152588</ele>
        <time>2024-05-21T13:27:05.000Z</time>
      </trkpt>
      <trkpt lat="44.71153" lon="4.80245">
        <ele>124.40000152588</ele>
        <time>2024-05-21T13:27:06.000Z</time>
      </trkpt>
      <trkpt lat="44.71144" lon="4.80243">
        <ele>124.40000152588</ele>
        <time>2024-05-21T13:27:07.000Z</time>
      </trkpt>
      <trkpt lat="44.71135" lon="4.8024">
        <ele>124.40000152588</ele>
        <time>2024-05-21T13:27:08.000Z</time>
      </trkpt>
      <trkpt lat="44.71126" lon="4.80237">
        <ele>124.40000152588</ele>
        <time>2024-05-21T13:27:09.000Z</time>
      </trkpt>
      <trkpt lat="44.71118" lon="4.80233">
        <ele>124.40000152588</ele>
        <time>2024-05-21T13:27:10.000Z</time>
      </trkpt>
      <trkpt lat="44.71109" lon="4.80231">
        <ele>124.19999694824</ele>
        <time>2024-05-21T13:27:11.000Z</time>
      </trkpt>
      <trkpt lat="44.71101" lon="4.80228">
        <ele>124.40000152588</ele>
        <time>2024-05-21T13:27:12.000Z</time>
      </trkpt>
      <trkpt lat="44.71093" lon="4.80226">
        <ele>124.40000152588</ele>
        <time>2024-05-21T13:27:13.000Z</time>
      </trkpt>
      <trkpt lat="44.71085" lon="4.80223">
        <ele>124.40000152588</ele>
        <time>2024-05-21T13:27:14.000Z</time>
      </trkpt>
      <trkpt lat="44.71076" lon="4.8022">
        <ele>124.40000152588</ele>
        <time>2024-05-21T13:27:15.000Z</time>
      </trkpt>
      <trkpt lat="44.71068" lon="4.80217">
        <ele>124.40000152588</ele>
        <time>2024-05-21T13:27:16.000Z</time>
      </trkpt>
      <trkpt lat="44.7106" lon="4.80215">
        <ele>124.40000152588</ele>
        <time>2024-05-21T13:27:17.000Z</time>
      </trkpt>
      <trkpt lat="44.71053" lon="4.80212">
        <ele>124.40000152588</ele>
        <time>2024-05-21T13:27:18.000Z</time>
      </trkpt>
      <trkpt lat="44.71045" lon="4.80209">
        <ele>124.40000152588</ele>
        <time>2024-05-21T13:27:19.000Z</time>
      </trkpt>
      <trkpt lat="44.71038" lon="4.80207">
        <ele>124.40000152588</ele>
        <time>2024-05-21T13:27:20.000Z</time>
      </trkpt>
      <trkpt lat="44.71031" lon="4.80205">
        <ele>124.59999847412</ele>
        <time>2024-05-21T13:27:21.000Z</time>
      </trkpt>
      <trkpt lat="44.71024" lon="4.80203">
        <ele>124.59999847412</ele>
        <time>2024-05-21T13:27:22.000Z</time>
      </trkpt>
      <trkpt lat="44.71017" lon="4.80201">
        <ele>124.59999847412</ele>
        <time>2024-05-21T13:27:23.000Z</time>
      </trkpt>
      <trkpt lat="44.7101" lon="4.80199">
        <ele>124.59999847412</ele>
        <time>2024-05-21T13:27:24.000Z</time>
      </trkpt>
      <trkpt lat="44.71003" lon="4.80197">
        <ele>124.59999847412</ele>
        <time>2024-05-21T13:27:25.000Z</time>
      </trkpt>
      <trkpt lat="44.70996" lon="4.80194">
        <ele>124.80000305176</ele>
        <time>2024-05-21T13:27:26.000Z</time>
      </trkpt>
      <trkpt lat="44.7099" lon="4.80192">
        <ele>124.80000305176</ele>
        <time>2024-05-21T13:27:27.000Z</time>
      </trkpt>
      <trkpt lat="44.70983" lon="4.8019">
        <ele>124.80000305176</ele>
        <time>2024-05-21T13:27:28.000Z</time>
      </trkpt>
      <trkpt lat="44.70977" lon="4.80187">
        <ele>124.80000305176</ele>
        <time>2024-05-21T13:27:29.000Z</time>
      </trkpt>
      <trkpt lat="44.70971" lon="4.80184">
        <ele>124.80000305176</ele>
        <time>2024-05-21T13:27:30.000Z</time>
      </trkpt>
      <trkpt lat="44.70965" lon="4.8018">
        <ele>124.80000305176</ele>
        <time>2024-05-21T13:27:31.000Z</time>
      </trkpt>
      <trkpt lat="44.7096" lon="4.80175">
        <ele>124.80000305176</ele>
        <time>2024-05-21T13:27:32.000Z</time>
      </trkpt>
      <trkpt lat="44.70956" lon="4.80168">
        <ele>124.80000305176</ele>
        <time>2024-05-21T13:27:33.000Z</time>
      </trkpt>
      <trkpt lat="44.70952" lon="4.80163">
        <ele>124.80000305176</ele>
        <time>2024-05-21T13:27:34.000Z</time>
      </trkpt>
      <trkpt lat="44.70946" lon="4.80159">
        <ele>124.59999847412</ele>
        <time>2024-05-21T13:27:35.000Z</time>
      </trkpt>
      <trkpt lat="44.70941" lon="4.80158">
        <ele>124.40000152588</ele>
        <time>2024-05-21T13:27:36.000Z</time>
      </trkpt>
      <trkpt lat="44.70935" lon="4.80159">
        <ele>124.40000152588</ele>
        <time>2024-05-21T13:27:37.000Z</time>
      </trkpt>
      <trkpt lat="44.70929" lon="4.80162">
        <ele>124.40000152588</ele>
        <time>2024-05-21T13:27:38.000Z</time>
      </trkpt>
      <trkpt lat="44.70923" lon="4.80164">
        <ele>124.40000152588</ele>
        <time>2024-05-21T13:27:39.000Z</time>
      </trkpt>
      <trkpt lat="44.70917" lon="4.80165">
        <ele>124.40000152588</ele>
        <time>2024-05-21T13:27:40.000Z</time>
      </trkpt>
      <trkpt lat="44.70911" lon="4.80163">
        <ele>124.40000152588</ele>
        <time>2024-05-21T13:27:41.000Z</time>
      </trkpt>
      <trkpt lat="44.70904" lon="4.80162">
        <ele>124.40000152588</ele>
        <time>2024-05-21T13:27:42.000Z</time>
      </trkpt>
      <trkpt lat="44.70898" lon="4.8016">
        <ele>124.40000152588</ele>
        <time>2024-05-21T13:27:43.000Z</time>
      </trkpt>
      <trkpt lat="44.70891" lon="4.80158">
        <ele>124.19999694824</ele>
        <time>2024-05-21T13:27:44.000Z</time>
      </trkpt>
      <trkpt lat="44.70884" lon="4.80155">
        <ele>124</ele>
        <time>2024-05-21T13:27:45.000Z</time>
      </trkpt>
      <trkpt lat="44.70877" lon="4.80153">
        <ele>123.59999847412</ele>
        <time>2024-05-21T13:27:46.000Z</time>
      </trkpt>
      <trkpt lat="44.70869" lon="4.8015">
        <ele>123.40000152588</ele>
        <time>2024-05-21T13:27:47.000Z</time>
      </trkpt>
      <trkpt lat="44.70862" lon="4.80147">
        <ele>123</ele>
        <time>2024-05-21T13:27:48.000Z</time>
      </trkpt>
      <trkpt lat="44.70855" lon="4.80144">
        <ele>122.80000305176</ele>
        <time>2024-05-21T13:27:49.000Z</time>
      </trkpt>
      <trkpt lat="44.70847" lon="4.80141">
        <ele>122.40000152588</ele>
        <time>2024-05-21T13:27:50.000Z</time>
      </trkpt>
      <trkpt lat="44.7084" lon="4.80139">
        <ele>122</ele>
        <time>2024-05-21T13:27:51.000Z</time>
      </trkpt>
      <trkpt lat="44.70832" lon="4.80136">
        <ele>121.80000305176</ele>
        <time>2024-05-21T13:27:52.000Z</time>
      </trkpt>
      <trkpt lat="44.70824" lon="4.80133">
        <ele>121.59999847412</ele>
        <time>2024-05-21T13:27:53.000Z</time>
      </trkpt>
      <trkpt lat="44.70816" lon="4.8013">
        <ele>121.59999847412</ele>
        <time>2024-05-21T13:27:54.000Z</time>
      </trkpt>
      <trkpt lat="44.70808" lon="4.80127">
        <ele>121.19999694824</ele>
        <time>2024-05-21T13:27:55.000Z</time>
      </trkpt>
      <trkpt lat="44.708" lon="4.80124">
        <ele>120.80000305176</ele>
        <time>2024-05-21T13:27:56.000Z</time>
      </trkpt>
      <trkpt lat="44.70792" lon="4.80121">
        <ele>120.40000152588</ele>
        <time>2024-05-21T13:27:57.000Z</time>
      </trkpt>
      <trkpt lat="44.70784" lon="4.80118">
        <ele>120.19999694824</ele>
        <time>2024-05-21T13:27:58.000Z</time>
      </trkpt>
      <trkpt lat="44.70776" lon="4.80115">
        <ele>119.80000305176</ele>
        <time>2024-05-21T13:27:59.000Z</time>
      </trkpt>
      <trkpt lat="44.70768" lon="4.80112">
        <ele>119.19999694824</ele>
        <time>2024-05-21T13:28:00.000Z</time>
      </trkpt>
      <trkpt lat="44.70759" lon="4.80109">
        <ele>119</ele>
        <time>2024-05-21T13:28:01.000Z</time>
      </trkpt>
      <trkpt lat="44.70751" lon="4.80105">
        <ele>118.59999847412</ele>
        <time>2024-05-21T13:28:02.000Z</time>
      </trkpt>
      <trkpt lat="44.70743" lon="4.80102">
        <ele>118</ele>
        <time>2024-05-21T13:28:03.000Z</time>
      </trkpt>
      <trkpt lat="44.70734" lon="4.80098">
        <ele>118</ele>
        <time>2024-05-21T13:28:04.000Z</time>
      </trkpt>
      <trkpt lat="44.70726" lon="4.80094">
        <ele>117.59999847412</ele>
        <time>2024-05-21T13:28:05.000Z</time>
      </trkpt>
      <trkpt lat="44.70718" lon="4.8009">
        <ele>117.19999694824</ele>
        <time>2024-05-21T13:28:06.000Z</time>
      </trkpt>
      <trkpt lat="44.7071" lon="4.80087">
        <ele>116.80000305176</ele>
        <time>2024-05-21T13:28:07.000Z</time>
      </trkpt>
      <trkpt lat="44.70701" lon="4.80083">
        <ele>116.40000152588</ele>
        <time>2024-05-21T13:28:08.000Z</time>
      </trkpt>
      <trkpt lat="44.70693" lon="4.80079">
        <ele>115.80000305176</ele>
        <time>2024-05-21T13:28:09.000Z</time>
      </trkpt>
      <trkpt lat="44.70684" lon="4.80075">
        <ele>115.59999847412</ele>
        <time>2024-05-21T13:28:10.000Z</time>
      </trkpt>
      <trkpt lat="44.70676" lon="4.80071">
        <ele>115.19999694824</ele>
        <time>2024-05-21T13:28:11.000Z</time>
      </trkpt>
      <trkpt lat="44.70667" lon="4.80068">
        <ele>114.80000305176</ele>
        <time>2024-05-21T13:28:12.000Z</time>
      </trkpt>
      <trkpt lat="44.70658" lon="4.80064">
        <ele>114.40000152588</ele>
        <time>2024-05-21T13:28:13.000Z</time>
      </trkpt>
      <trkpt lat="44.7065" lon="4.8006">
        <ele>114</ele>
        <time>2024-05-21T13:28:14.000Z</time>
      </trkpt>
      <trkpt lat="44.70641" lon="4.80056">
        <ele>113.80000305176</ele>
        <time>2024-05-21T13:28:15.000Z</time>
      </trkpt>
      <trkpt lat="44.70633" lon="4.80052">
        <ele>113.40000152588</ele>
        <time>2024-05-21T13:28:16.000Z</time>
      </trkpt>
      <trkpt lat="44.70625" lon="4.80048">
        <ele>113.19999694824</ele>
        <time>2024-05-21T13:28:17.000Z</time>
      </trkpt>
      <trkpt lat="44.70616" lon="4.80044">
        <ele>112.59999847412</ele>
        <time>2024-05-21T13:28:18.000Z</time>
      </trkpt>
      <trkpt lat="44.70608" lon="4.80041">
        <ele>112.40000152588</ele>
        <time>2024-05-21T13:28:19.000Z</time>
      </trkpt>
      <trkpt lat="44.706" lon="4.80037">
        <ele>112.19999694824</ele>
        <time>2024-05-21T13:28:20.000Z</time>
      </trkpt>
      <trkpt lat="44.70592" lon="4.80034">
        <ele>111.80000305176</ele>
        <time>2024-05-21T13:28:21.000Z</time>
      </trkpt>
      <trkpt lat="44.70584" lon="4.8003">
        <ele>111.59999847412</ele>
        <time>2024-05-21T13:28:22.000Z</time>
      </trkpt>
      <trkpt lat="44.70576" lon="4.80027">
        <ele>111.40000152588</ele>
        <time>2024-05-21T13:28:23.000Z</time>
      </trkpt>
      <trkpt lat="44.70568" lon="4.80023">
        <ele>111.40000152588</ele>
        <time>2024-05-21T13:28:24.000Z</time>
      </trkpt>
      <trkpt lat="44.7056" lon="4.80019">
        <ele>111.19999694824</ele>
        <time>2024-05-21T13:28:25.000Z</time>
      </trkpt>
      <trkpt lat="44.70552" lon="4.80015">
        <ele>111</ele>
        <time>2024-05-21T13:28:26.000Z</time>
      </trkpt>
      <trkpt lat="44.70545" lon="4.80011">
        <ele>110.80000305176</ele>
        <time>2024-05-21T13:28:27.000Z</time>
      </trkpt>
      <trkpt lat="44.70537" lon="4.80007">
        <ele>110.80000305176</ele>
        <time>2024-05-21T13:28:28.000Z</time>
      </trkpt>
      <trkpt lat="44.70529" lon="4.80004">
        <ele>110.59999847412</ele>
        <time>2024-05-21T13:28:29.000Z</time>
      </trkpt>
      <trkpt lat="44.70521" lon="4.80001">
        <ele>110.40000152588</ele>
        <time>2024-05-21T13:28:30.000Z</time>
      </trkpt>
      <trkpt lat="44.70512" lon="4.79998">
        <ele>110.19999694824</ele>
        <time>2024-05-21T13:28:31.000Z</time>
      </trkpt>
      <trkpt lat="44.70504" lon="4.79995">
        <ele>110</ele>
        <time>2024-05-21T13:28:32.000Z</time>
      </trkpt>
      <trkpt lat="44.70496" lon="4.79992">
        <ele>109.80000305176</ele>
        <time>2024-05-21T13:28:33.000Z</time>
      </trkpt>
      <trkpt lat="44.70488" lon="4.79988">
        <ele>109.40000152588</ele>
        <time>2024-05-21T13:28:34.000Z</time>
      </trkpt>
      <trkpt lat="44.70481" lon="4.79985">
        <ele>109.40000152588</ele>
        <time>2024-05-21T13:28:35.000Z</time>
      </trkpt>
      <trkpt lat="44.70474" lon="4.79982">
        <ele>109.19999694824</ele>
        <time>2024-05-21T13:28:36.000Z</time>
      </trkpt>
      <trkpt lat="44.70467" lon="4.79979">
        <ele>109</ele>
        <time>2024-05-21T13:28:37.000Z</time>
      </trkpt>
      <trkpt lat="44.7046" lon="4.79975">
        <ele>109</ele>
        <time>2024-05-21T13:28:38.000Z</time>
      </trkpt>
      <trkpt lat="44.70453" lon="4.79972">
        <ele>109</ele>
        <time>2024-05-21T13:28:39.000Z</time>
      </trkpt>
      <trkpt lat="44.70445" lon="4.79968">
        <ele>109</ele>
        <time>2024-05-21T13:28:40.000Z</time>
      </trkpt>
      <trkpt lat="44.70439" lon="4.79966">
        <ele>108.80000305176</ele>
        <time>2024-05-21T13:28:41.000Z</time>
      </trkpt>
      <trkpt lat="44.70432" lon="4.79962">
        <ele>108.80000305176</ele>
        <time>2024-05-21T13:28:42.000Z</time>
      </trkpt>
      <trkpt lat="44.70425" lon="4.79958">
        <ele>108.80000305176</ele>
        <time>2024-05-21T13:28:43.000Z</time>
      </trkpt>
      <trkpt lat="44.70419" lon="4.79955">
        <ele>108.80000305176</ele>
        <time>2024-05-21T13:28:44.000Z</time>
      </trkpt>
      <trkpt lat="44.70412" lon="4.79952">
        <ele>108.80000305176</ele>
        <time>2024-05-21T13:28:45.000Z</time>
      </trkpt>
      <trkpt lat="44.70405" lon="4.79949">
        <ele>108.80000305176</ele>
        <time>2024-05-21T13:28:46.000Z</time>
      </trkpt>
      <trkpt lat="44.70398" lon="4.79946">
        <ele>109</ele>
        <time>2024-05-21T13:28:47.000Z</time>
      </trkpt>
      <trkpt lat="44.70391" lon="4.79943">
        <ele>109</ele>
        <time>2024-05-21T13:28:48.000Z</time>
      </trkpt>
      <trkpt lat="44.70384" lon="4.7994">
        <ele>109.19999694824</ele>
        <time>2024-05-21T13:28:49.000Z</time>
      </trkpt>
      <trkpt lat="44.70376" lon="4.79936">
        <ele>109.40000152588</ele>
        <time>2024-05-21T13:28:50.000Z</time>
      </trkpt>
      <trkpt lat="44.70371" lon="4.79934">
        <ele>109.40000152588</ele>
        <time>2024-05-21T13:28:51.000Z</time>
      </trkpt>
      <trkpt lat="44.70363" lon="4.7993">
        <ele>109.40000152588</ele>
        <time>2024-05-21T13:28:52.000Z</time>
      </trkpt>
      <trkpt lat="44.70358" lon="4.79928">
        <ele>109.59999847412</ele>
        <time>2024-05-21T13:28:53.000Z</time>
      </trkpt>
      <trkpt lat="44.70352" lon="4.79925">
        <ele>109.80000305176</ele>
        <time>2024-05-21T13:28:54.000Z</time>
      </trkpt>
      <trkpt lat="44.70345" lon="4.79922">
        <ele>109.80000305176</ele>
        <time>2024-05-21T13:28:55.000Z</time>
      </trkpt>
      <trkpt lat="44.70338" lon="4.79919">
        <ele>110</ele>
        <time>2024-05-21T13:28:56.000Z</time>
      </trkpt>
      <trkpt lat="44.70333" lon="4.79917">
        <ele>110.19999694824</ele>
        <time>2024-05-21T13:28:57.000Z</time>
      </trkpt>
      <trkpt lat="44.70325" lon="4.79913">
        <ele>110.19999694824</ele>
        <time>2024-05-21T13:28:58.000Z</time>
      </trkpt>
      <trkpt lat="44.7032" lon="4.79911">
        <ele>110.19999694824</ele>
        <time>2024-05-21T13:28:59.000Z</time>
      </trkpt>
      <trkpt lat="44.70314" lon="4.79908">
        <ele>110.19999694824</ele>
        <time>2024-05-21T13:29:00.000Z</time>
      </trkpt>
      <trkpt lat="44.70308" lon="4.79906">
        <ele>110.19999694824</ele>
        <time>2024-05-21T13:29:01.000Z</time>
      </trkpt>
      <trkpt lat="44.70302" lon="4.79904">
        <ele>110.40000152588</ele>
        <time>2024-05-21T13:29:02.000Z</time>
      </trkpt>
      <trkpt lat="44.70296" lon="4.79903">
        <ele>110.40000152588</ele>
        <time>2024-05-21T13:29:03.000Z</time>
      </trkpt>
      <trkpt lat="44.7029" lon="4.79902">
        <ele>110.59999847412</ele>
        <time>2024-05-21T13:29:04.000Z</time>
      </trkpt>
      <trkpt lat="44.70282" lon="4.79902">
        <ele>110.80000305176</ele>
        <time>2024-05-21T13:29:05.000Z</time>
      </trkpt>
      <trkpt lat="44.70276" lon="4.79903">
        <ele>111</ele>
        <time>2024-05-21T13:29:06.000Z</time>
      </trkpt>
      <trkpt lat="44.70268" lon="4.79903">
        <ele>111.19999694824</ele>
        <time>2024-05-21T13:29:07.000Z</time>
      </trkpt>
      <trkpt lat="44.70262" lon="4.79903">
        <ele>111.19999694824</ele>
        <time>2024-05-21T13:29:08.000Z</time>
      </trkpt>
      <trkpt lat="44.70257" lon="4.79902">
        <ele>111.19999694824</ele>
        <time>2024-05-21T13:29:09.000Z</time>
      </trkpt>
      <trkpt lat="44.70249" lon="4.79902">
        <ele>111.40000152588</ele>
        <time>2024-05-21T13:29:10.000Z</time>
      </trkpt>
      <trkpt lat="44.70242" lon="4.79902">
        <ele>111.59999847412</ele>
        <time>2024-05-21T13:29:11.000Z</time>
      </trkpt>
      <trkpt lat="44.70236" lon="4.79902">
        <ele>111.59999847412</ele>
        <time>2024-05-21T13:29:12.000Z</time>
      </trkpt>
      <trkpt lat="44.70228" lon="4.79902">
        <ele>111.59999847412</ele>
        <time>2024-05-21T13:29:13.000Z</time>
      </trkpt>
      <trkpt lat="44.70221" lon="4.79901">
        <ele>111.59999847412</ele>
        <time>2024-05-21T13:29:14.000Z</time>
      </trkpt>
      <trkpt lat="44.70214" lon="4.799">
        <ele>111.40000152588</ele>
        <time>2024-05-21T13:29:15.000Z</time>
      </trkpt>
      <trkpt lat="44.70207" lon="4.79898">
        <ele>111.40000152588</ele>
        <time>2024-05-21T13:29:16.000Z</time>
      </trkpt>
      <trkpt lat="44.702" lon="4.79897">
        <ele>111.40000152588</ele>
        <time>2024-05-21T13:29:17.000Z</time>
      </trkpt>
      <trkpt lat="44.70192" lon="4.79895">
        <ele>111.40000152588</ele>
        <time>2024-05-21T13:29:18.000Z</time>
      </trkpt>
      <trkpt lat="44.70184" lon="4.79895">
        <ele>111.19999694824</ele>
        <time>2024-05-21T13:29:19.000Z</time>
      </trkpt>
      <trkpt lat="44.70178" lon="4.79894">
        <ele>111.19999694824</ele>
        <time>2024-05-21T13:29:20.000Z</time>
      </trkpt>
      <trkpt lat="44.70171" lon="4.79893">
        <ele>111</ele>
        <time>2024-05-21T13:29:21.000Z</time>
      </trkpt>
      <trkpt lat="44.70163" lon="4.79892">
        <ele>110.80000305176</ele>
        <time>2024-05-21T13:29:22.000Z</time>
      </trkpt>
      <trkpt lat="44.70156" lon="4.79892">
        <ele>110.59999847412</ele>
        <time>2024-05-21T13:29:23.000Z</time>
      </trkpt>
      <trkpt lat="44.70148" lon="4.79891">
        <ele>110.59999847412</ele>
        <time>2024-05-21T13:29:24.000Z</time>
      </trkpt>
      <trkpt lat="44.7014" lon="4.7989">
        <ele>110.40000152588</ele>
        <time>2024-05-21T13:29:25.000Z</time>
      </trkpt>
      <trkpt lat="44.70131" lon="4.79889">
        <ele>110.19999694824</ele>
        <time>2024-05-21T13:29:26.000Z</time>
      </trkpt>
      <trkpt lat="44.70125" lon="4.79888">
        <ele>110</ele>
        <time>2024-05-21T13:29:27.000Z</time>
      </trkpt>
      <trkpt lat="44.70117" lon="4.79887">
        <ele>109.80000305176</ele>
        <time>2024-05-21T13:29:28.000Z</time>
      </trkpt>
      <trkpt lat="44.70109" lon="4.79887">
        <ele>109.80000305176</ele>
        <time>2024-05-21T13:29:29.000Z</time>
      </trkpt>
      <trkpt lat="44.70103" lon="4.79887">
        <ele>110</ele>
        <time>2024-05-21T13:29:30.000Z</time>
      </trkpt>
      <trkpt lat="44.70095" lon="4.79886">
        <ele>109.80000305176</ele>
        <time>2024-05-21T13:29:31.000Z</time>
      </trkpt>
      <trkpt lat="44.70086" lon="4.79884">
        <ele>109.80000305176</ele>
        <time>2024-05-21T13:29:32.000Z</time>
      </trkpt>
      <trkpt lat="44.70079" lon="4.79884">
        <ele>109.80000305176</ele>
        <time>2024-05-21T13:29:33.000Z</time>
      </trkpt>
      <trkpt lat="44.70071" lon="4.79883">
        <ele>109.80000305176</ele>
        <time>2024-05-21T13:29:34.000Z</time>
      </trkpt>
      <trkpt lat="44.70063" lon="4.79882">
        <ele>109.80000305176</ele>
        <time>2024-05-21T13:29:35.000Z</time>
      </trkpt>
      <trkpt lat="44.70055" lon="4.79881">
        <ele>109.80000305176</ele>
        <time>2024-05-21T13:29:36.000Z</time>
      </trkpt>
      <trkpt lat="44.70049" lon="4.7988">
        <ele>109.80000305176</ele>
        <time>2024-05-21T13:29:37.000Z</time>
      </trkpt>
      <trkpt lat="44.70039" lon="4.79879">
        <ele>109.59999847412</ele>
        <time>2024-05-21T13:29:38.000Z</time>
      </trkpt>
      <trkpt lat="44.70033" lon="4.79878">
        <ele>109.59999847412</ele>
        <time>2024-05-21T13:29:39.000Z</time>
      </trkpt>
      <trkpt lat="44.70025" lon="4.79877">
        <ele>109.59999847412</ele>
        <time>2024-05-21T13:29:40.000Z</time>
      </trkpt>
      <trkpt lat="44.70018" lon="4.79877">
        <ele>109.59999847412</ele>
        <time>2024-05-21T13:29:41.000Z</time>
      </trkpt>
      <trkpt lat="44.7001" lon="4.79876">
        <ele>109.59999847412</ele>
        <time>2024-05-21T13:29:42.000Z</time>
      </trkpt>
      <trkpt lat="44.70003" lon="4.79875">
        <ele>109.59999847412</ele>
        <time>2024-05-21T13:29:43.000Z</time>
      </trkpt>
      <trkpt lat="44.69993" lon="4.79874">
        <ele>109.40000152588</ele>
        <time>2024-05-21T13:29:44.000Z</time>
      </trkpt>
      <trkpt lat="44.69987" lon="4.79873">
        <ele>109.40000152588</ele>
        <time>2024-05-21T13:29:45.000Z</time>
      </trkpt>
      <trkpt lat="44.69979" lon="4.79872">
        <ele>109.40000152588</ele>
        <time>2024-05-21T13:29:46.000Z</time>
      </trkpt>
      <trkpt lat="44.69971" lon="4.79871">
        <ele>109.40000152588</ele>
        <time>2024-05-21T13:29:47.000Z</time>
      </trkpt>
      <trkpt lat="44.69963" lon="4.7987">
        <ele>109.19999694824</ele>
        <time>2024-05-21T13:29:48.000Z</time>
      </trkpt>
      <trkpt lat="44.69955" lon="4.79869">
        <ele>109.19999694824</ele>
        <time>2024-05-21T13:29:49.000Z</time>
      </trkpt>
      <trkpt lat="44.69948" lon="4.79869">
        <ele>109.19999694824</ele>
        <time>2024-05-21T13:29:50.000Z</time>
      </trkpt>
      <trkpt lat="44.69938" lon="4.79868">
        <ele>109.19999694824</ele>
        <time>2024-05-21T13:29:51.000Z</time>
      </trkpt>
      <trkpt lat="44.69931" lon="4.79867">
        <ele>108.80000305176</ele>
        <time>2024-05-21T13:29:52.000Z</time>
      </trkpt>
      <trkpt lat="44.69921" lon="4.79866">
        <ele>108.80000305176</ele>
        <time>2024-05-21T13:29:53.000Z</time>
      </trkpt>
      <trkpt lat="44.69912" lon="4.79865">
        <ele>108.80000305176</ele>
        <time>2024-05-21T13:29:54.000Z</time>
      </trkpt>
      <trkpt lat="44.69906" lon="4.79864">
        <ele>108.40000152588</ele>
        <time>2024-05-21T13:29:55.000Z</time>
      </trkpt>
      <trkpt lat="44.69897" lon="4.79863">
        <ele>108.19999694824</ele>
        <time>2024-05-21T13:29:56.000Z</time>
      </trkpt>
      <trkpt lat="44.69887" lon="4.79862">
        <ele>108</ele>
        <time>2024-05-21T13:29:57.000Z</time>
      </trkpt>
      <trkpt lat="44.6988" lon="4.79861">
        <ele>107.59999847412</ele>
        <time>2024-05-21T13:29:58.000Z</time>
      </trkpt>
      <trkpt lat="44.69871" lon="4.7986">
        <ele>107.59999847412</ele>
        <time>2024-05-21T13:29:59.000Z</time>
      </trkpt>
      <trkpt lat="44.6986" lon="4.79859">
        <ele>107.19999694824</ele>
        <time>2024-05-21T13:30:00.000Z</time>
      </trkpt>
      <trkpt lat="44.69853" lon="4.79858">
        <ele>106.80000305176</ele>
        <time>2024-05-21T13:30:01.000Z</time>
      </trkpt>
      <trkpt lat="44.69842" lon="4.79857">
        <ele>106.40000152588</ele>
        <time>2024-05-21T13:30:02.000Z</time>
      </trkpt>
      <trkpt lat="44.69833" lon="4.79856">
        <ele>106.19999694824</ele>
        <time>2024-05-21T13:30:03.000Z</time>
      </trkpt>
      <trkpt lat="44.69826" lon="4.79855">
        <ele>105.59999847412</ele>
        <time>2024-05-21T13:30:04.000Z</time>
      </trkpt>
      <trkpt lat="44.69815" lon="4.79854">
        <ele>105.40000152588</ele>
        <time>2024-05-21T13:30:05.000Z</time>
      </trkpt>
      <trkpt lat="44.69808" lon="4.79853">
        <ele>105.19999694824</ele>
        <time>2024-05-21T13:30:06.000Z</time>
      </trkpt>
      <trkpt lat="44.69799" lon="4.79852">
        <ele>105</ele>
        <time>2024-05-21T13:30:07.000Z</time>
      </trkpt>
      <trkpt lat="44.69789" lon="4.7985">
        <ele>104.80000305176</ele>
        <time>2024-05-21T13:30:08.000Z</time>
      </trkpt>
      <trkpt lat="44.6978" lon="4.79849">
        <ele>104.59999847412</ele>
        <time>2024-05-21T13:30:09.000Z</time>
      </trkpt>
      <trkpt lat="44.69773" lon="4.79848">
        <ele>104.59999847412</ele>
        <time>2024-05-21T13:30:10.000Z</time>
      </trkpt>
      <trkpt lat="44.69763" lon="4.79847">
        <ele>104.40000152588</ele>
        <time>2024-05-21T13:30:11.000Z</time>
      </trkpt>
      <trkpt lat="44.69756" lon="4.79846">
        <ele>104.19999694824</ele>
        <time>2024-05-21T13:30:12.000Z</time>
      </trkpt>
      <trkpt lat="44.69747" lon="4.79845">
        <ele>104.19999694824</ele>
        <time>2024-05-21T13:30:13.000Z</time>
      </trkpt>
      <trkpt lat="44.69736" lon="4.79843">
        <ele>104</ele>
        <time>2024-05-21T13:30:14.000Z</time>
      </trkpt>
      <trkpt lat="44.69728" lon="4.79842">
        <ele>103.80000305176</ele>
        <time>2024-05-21T13:30:15.000Z</time>
      </trkpt>
      <trkpt lat="44.69721" lon="4.79841">
        <ele>103.59999847412</ele>
        <time>2024-05-21T13:30:16.000Z</time>
      </trkpt>
      <trkpt lat="44.69711" lon="4.7984">
        <ele>103.59999847412</ele>
        <time>2024-05-21T13:30:17.000Z</time>
      </trkpt>
      <trkpt lat="44.69702" lon="4.79838">
        <ele>103.59999847412</ele>
        <time>2024-05-21T13:30:18.000Z</time>
      </trkpt>
      <trkpt lat="44.69695" lon="4.79838">
        <ele>103.40000152588</ele>
        <time>2024-05-21T13:30:19.000Z</time>
      </trkpt>
      <trkpt lat="44.69685" lon="4.79837">
        <ele>103.59999847412</ele>
        <time>2024-05-21T13:30:20.000Z</time>
      </trkpt>
      <trkpt lat="44.69678" lon="4.79836">
        <ele>103.80000305176</ele>
        <time>2024-05-21T13:30:21.000Z</time>
      </trkpt>
      <trkpt lat="44.69668" lon="4.79835">
        <ele>103.80000305176</ele>
        <time>2024-05-21T13:30:22.000Z</time>
      </trkpt>
      <trkpt lat="44.69661" lon="4.79834">
        <ele>103.80000305176</ele>
        <time>2024-05-21T13:30:23.000Z</time>
      </trkpt>
      <trkpt lat="44.69652" lon="4.79832">
        <ele>103.80000305176</ele>
        <time>2024-05-21T13:30:24.000Z</time>
      </trkpt>
      <trkpt lat="44.69644" lon="4.79831">
        <ele>103.59999847412</ele>
        <time>2024-05-21T13:30:25.000Z</time>
      </trkpt>
      <trkpt lat="44.69634" lon="4.7983">
        <ele>103.59999847412</ele>
        <time>2024-05-21T13:30:26.000Z</time>
      </trkpt>
      <trkpt lat="44.69627" lon="4.79829">
        <ele>103.40000152588</ele>
        <time>2024-05-21T13:30:27.000Z</time>
      </trkpt>
      <trkpt lat="44.69619" lon="4.79828">
        <ele>103.40000152588</ele>
        <time>2024-05-21T13:30:28.000Z</time>
      </trkpt>
      <trkpt lat="44.69611" lon="4.79827">
        <ele>103.40000152588</ele>
        <time>2024-05-21T13:30:29.000Z</time>
      </trkpt>
      <trkpt lat="44.69603" lon="4.79826">
        <ele>103.40000152588</ele>
        <time>2024-05-21T13:30:30.000Z</time>
      </trkpt>
      <trkpt lat="44.69593" lon="4.79825">
        <ele>103.40000152588</ele>
        <time>2024-05-21T13:30:31.000Z</time>
      </trkpt>
      <trkpt lat="44.69587" lon="4.79824">
        <ele>103.40000152588</ele>
        <time>2024-05-21T13:30:32.000Z</time>
      </trkpt>
      <trkpt lat="44.69577" lon="4.79823">
        <ele>103.40000152588</ele>
        <time>2024-05-21T13:30:33.000Z</time>
      </trkpt>
      <trkpt lat="44.6957" lon="4.79822">
        <ele>103.40000152588</ele>
        <time>2024-05-21T13:30:34.000Z</time>
      </trkpt>
      <trkpt lat="44.69562" lon="4.79821">
        <ele>103.40000152588</ele>
        <time>2024-05-21T13:30:35.000Z</time>
      </trkpt>
      <trkpt lat="44.69554" lon="4.7982">
        <ele>103.40000152588</ele>
        <time>2024-05-21T13:30:36.000Z</time>
      </trkpt>
      <trkpt lat="44.69546" lon="4.79819">
        <ele>103.40000152588</ele>
        <time>2024-05-21T13:30:37.000Z</time>
      </trkpt>
      <trkpt lat="44.69538" lon="4.79818">
        <ele>103.40000152588</ele>
        <time>2024-05-21T13:30:38.000Z</time>
      </trkpt>
      <trkpt lat="44.6953" lon="4.79816">
        <ele>103.40000152588</ele>
        <time>2024-05-21T13:30:39.000Z</time>
      </trkpt>
      <trkpt lat="44.69524" lon="4.79815">
        <ele>103.19999694824</ele>
        <time>2024-05-21T13:30:40.000Z</time>
      </trkpt>
      <trkpt lat="44.69517" lon="4.79814">
        <ele>103</ele>
        <time>2024-05-21T13:30:41.000Z</time>
      </trkpt>
      <trkpt lat="44.69508" lon="4.79812">
        <ele>103</ele>
        <time>2024-05-21T13:30:42.000Z</time>
      </trkpt>
      <trkpt lat="44.695" lon="4.79811">
        <ele>102.80000305176</ele>
        <time>2024-05-21T13:30:43.000Z</time>
      </trkpt>
      <trkpt lat="44.69494" lon="4.7981">
        <ele>102.80000305176</ele>
        <time>2024-05-21T13:30:44.000Z</time>
      </trkpt>
      <trkpt lat="44.69487" lon="4.79808">
        <ele>102.80000305176</ele>
        <time>2024-05-21T13:30:45.000Z</time>
      </trkpt>
      <trkpt lat="44.69477" lon="4.79807">
        <ele>102.80000305176</ele>
        <time>2024-05-21T13:30:46.000Z</time>
      </trkpt>
      <trkpt lat="44.6947" lon="4.79805">
        <ele>102.80000305176</ele>
        <time>2024-05-21T13:30:47.000Z</time>
      </trkpt>
      <trkpt lat="44.69462" lon="4.79804">
        <ele>102.80000305176</ele>
        <time>2024-05-21T13:30:48.000Z</time>
      </trkpt>
      <trkpt lat="44.69456" lon="4.79804">
        <ele>102.59999847412</ele>
        <time>2024-05-21T13:30:49.000Z</time>
      </trkpt>
      <trkpt lat="44.69448" lon="4.79802">
        <ele>102.40000152588</ele>
        <time>2024-05-21T13:30:50.000Z</time>
      </trkpt>
      <trkpt lat="44.69441" lon="4.79801">
        <ele>102.19999694824</ele>
        <time>2024-05-21T13:30:51.000Z</time>
      </trkpt>
      <trkpt lat="44.69433" lon="4.798">
        <ele>102</ele>
        <time>2024-05-21T13:30:52.000Z</time>
      </trkpt>
      <trkpt lat="44.69425" lon="4.79798">
        <ele>102</ele>
        <time>2024-05-21T13:30:53.000Z</time>
      </trkpt>
      <trkpt lat="44.69415" lon="4.79797">
        <ele>101.80000305176</ele>
        <time>2024-05-21T13:30:54.000Z</time>
      </trkpt>
      <trkpt lat="44.69407" lon="4.79795">
        <ele>101.40000152588</ele>
        <time>2024-05-21T13:30:55.000Z</time>
      </trkpt>
      <trkpt lat="44.694" lon="4.79794">
        <ele>101.19999694824</ele>
        <time>2024-05-21T13:30:56.000Z</time>
      </trkpt>
      <trkpt lat="44.69391" lon="4.79793">
        <ele>101</ele>
        <time>2024-05-21T13:30:57.000Z</time>
      </trkpt>
      <trkpt lat="44.6938" lon="4.79791">
        <ele>100.80000305176</ele>
        <time>2024-05-21T13:30:58.000Z</time>
      </trkpt>
      <trkpt lat="44.69373" lon="4.7979">
        <ele>100.40000152588</ele>
        <time>2024-05-21T13:30:59.000Z</time>
      </trkpt>
      <trkpt lat="44.69362" lon="4.79788">
        <ele>100</ele>
        <time>2024-05-21T13:31:00.000Z</time>
      </trkpt>
      <trkpt lat="44.69352" lon="4.79787">
        <ele>99.400001525879</ele>
        <time>2024-05-21T13:31:01.000Z</time>
      </trkpt>
      <trkpt lat="44.69343" lon="4.79785">
        <ele>99.199996948242</ele>
        <time>2024-05-21T13:31:02.000Z</time>
      </trkpt>
      <trkpt lat="44.69334" lon="4.79783">
        <ele>98.400001525879</ele>
        <time>2024-05-21T13:31:03.000Z</time>
      </trkpt>
      <trkpt lat="44.69324" lon="4.79781">
        <ele>98</ele>
        <time>2024-05-21T13:31:04.000Z</time>
      </trkpt>
      <trkpt lat="44.69315" lon="4.79779">
        <ele>97.400001525879</ele>
        <time>2024-05-21T13:31:05.000Z</time>
      </trkpt>
      <trkpt lat="44.69306" lon="4.79778">
        <ele>97</ele>
        <time>2024-05-21T13:31:06.000Z</time>
      </trkpt>
      <trkpt lat="44.69298" lon="4.79776">
        <ele>96.800003051758</ele>
        <time>2024-05-21T13:31:07.000Z</time>
      </trkpt>
      <trkpt lat="44.69291" lon="4.79775">
        <ele>96.599998474121</ele>
        <time>2024-05-21T13:31:08.000Z</time>
      </trkpt>
      <trkpt lat="44.6928" lon="4.79773">
        <ele>96.400001525879</ele>
        <time>2024-05-21T13:31:09.000Z</time>
      </trkpt>
      <trkpt lat="44.69271" lon="4.79772">
        <ele>95.800003051758</ele>
        <time>2024-05-21T13:31:10.000Z</time>
      </trkpt>
      <trkpt lat="44.69264" lon="4.79771">
        <ele>95.599998474121</ele>
        <time>2024-05-21T13:31:11.000Z</time>
      </trkpt>
      <trkpt lat="44.69254" lon="4.7977">
        <ele>95.199996948242</ele>
        <time>2024-05-21T13:31:12.000Z</time>
      </trkpt>
      <trkpt lat="44.69245" lon="4.79769">
        <ele>94.800003051758</ele>
        <time>2024-05-21T13:31:13.000Z</time>
      </trkpt>
      <trkpt lat="44.69238" lon="4.79768">
        <ele>94.400001525879</ele>
        <time>2024-05-21T13:31:14.000Z</time>
      </trkpt>
      <trkpt lat="44.69227" lon="4.79767">
        <ele>94.400001525879</ele>
        <time>2024-05-21T13:31:15.000Z</time>
      </trkpt>
      <trkpt lat="44.69218" lon="4.79766">
        <ele>94.400001525879</ele>
        <time>2024-05-21T13:31:16.000Z</time>
      </trkpt>
      <trkpt lat="44.69209" lon="4.79765">
        <ele>94.400001525879</ele>
        <time>2024-05-21T13:31:17.000Z</time>
      </trkpt>
      <trkpt lat="44.69199" lon="4.79763">
        <ele>94.199996948242</ele>
        <time>2024-05-21T13:31:18.000Z</time>
      </trkpt>
      <trkpt lat="44.6919" lon="4.79761">
        <ele>94</ele>
        <time>2024-05-21T13:31:19.000Z</time>
      </trkpt>
      <trkpt lat="44.69181" lon="4.7976">
        <ele>93.800003051758</ele>
        <time>2024-05-21T13:31:20.000Z</time>
      </trkpt>
      <trkpt lat="44.69172" lon="4.79759">
        <ele>93.400001525879</ele>
        <time>2024-05-21T13:31:21.000Z</time>
      </trkpt>
      <trkpt lat="44.69163" lon="4.79757">
        <ele>93.199996948242</ele>
        <time>2024-05-21T13:31:22.000Z</time>
      </trkpt>
      <trkpt lat="44.69155" lon="4.79757">
        <ele>93</ele>
        <time>2024-05-21T13:31:23.000Z</time>
      </trkpt>
      <trkpt lat="44.69146" lon="4.79755">
        <ele>92.800003051758</ele>
        <time>2024-05-21T13:31:24.000Z</time>
      </trkpt>
      <trkpt lat="44.69135" lon="4.79753">
        <ele>92.599998474121</ele>
        <time>2024-05-21T13:31:25.000Z</time>
      </trkpt>
      <trkpt lat="44.69126" lon="4.79752">
        <ele>92</ele>
        <time>2024-05-21T13:31:26.000Z</time>
      </trkpt>
      <trkpt lat="44.69117" lon="4.7975">
        <ele>92</ele>
        <time>2024-05-21T13:31:27.000Z</time>
      </trkpt>
      <trkpt lat="44.69108" lon="4.79748">
        <ele>91.800003051758</ele>
        <time>2024-05-21T13:31:28.000Z</time>
      </trkpt>
      <trkpt lat="44.691" lon="4.79747">
        <ele>91.800003051758</ele>
        <time>2024-05-21T13:31:29.000Z</time>
      </trkpt>
      <trkpt lat="44.69089" lon="4.79745">
        <ele>91.800003051758</ele>
        <time>2024-05-21T13:31:30.000Z</time>
      </trkpt>
      <trkpt lat="44.6908" lon="4.79743">
        <ele>91.599998474121</ele>
        <time>2024-05-21T13:31:31.000Z</time>
      </trkpt>
      <trkpt lat="44.69072" lon="4.79742">
        <ele>91.599998474121</ele>
        <time>2024-05-21T13:31:32.000Z</time>
      </trkpt>
      <trkpt lat="44.69063" lon="4.7974">
        <ele>91.599998474121</ele>
        <time>2024-05-21T13:31:33.000Z</time>
      </trkpt>
      <trkpt lat="44.69052" lon="4.79738">
        <ele>91.199996948242</ele>
        <time>2024-05-21T13:31:34.000Z</time>
      </trkpt>
      <trkpt lat="44.69045" lon="4.79737">
        <ele>91</ele>
        <time>2024-05-21T13:31:35.000Z</time>
      </trkpt>
      <trkpt lat="44.69034" lon="4.79735">
        <ele>90.599998474121</ele>
        <time>2024-05-21T13:31:36.000Z</time>
      </trkpt>
      <trkpt lat="44.69025" lon="4.79734">
        <ele>90.400001525879</ele>
        <time>2024-05-21T13:31:37.000Z</time>
      </trkpt>
      <trkpt lat="44.69018" lon="4.79732">
        <ele>90.400001525879</ele>
        <time>2024-05-21T13:31:38.000Z</time>
      </trkpt>
      <trkpt lat="44.69007" lon="4.79731">
        <ele>90.400001525879</ele>
        <time>2024-05-21T13:31:39.000Z</time>
      </trkpt>
      <trkpt lat="44.69" lon="4.7973">
        <ele>90.199996948242</ele>
        <time>2024-05-21T13:31:40.000Z</time>
      </trkpt>
      <trkpt lat="44.68991" lon="4.79728">
        <ele>90.199996948242</ele>
        <time>2024-05-21T13:31:41.000Z</time>
      </trkpt>
      <trkpt lat="44.68982" lon="4.79727">
        <ele>90</ele>
        <time>2024-05-21T13:31:42.000Z</time>
      </trkpt>
      <trkpt lat="44.68971" lon="4.79725">
        <ele>90</ele>
        <time>2024-05-21T13:31:43.000Z</time>
      </trkpt>
      <trkpt lat="44.68964" lon="4.79723">
        <ele>89.800003051758</ele>
        <time>2024-05-21T13:31:44.000Z</time>
      </trkpt>
      <trkpt lat="44.68956" lon="4.79722">
        <ele>89.800003051758</ele>
        <time>2024-05-21T13:31:45.000Z</time>
      </trkpt>
      <trkpt lat="44.68946" lon="4.7972">
        <ele>89.800003051758</ele>
        <time>2024-05-21T13:31:46.000Z</time>
      </trkpt>
      <trkpt lat="44.68939" lon="4.79719">
        <ele>89.800003051758</ele>
        <time>2024-05-21T13:31:47.000Z</time>
      </trkpt>
      <trkpt lat="44.68929" lon="4.79717">
        <ele>89.599998474121</ele>
        <time>2024-05-21T13:31:48.000Z</time>
      </trkpt>
      <trkpt lat="44.68922" lon="4.79716">
        <ele>89.599998474121</ele>
        <time>2024-05-21T13:31:49.000Z</time>
      </trkpt>
      <trkpt lat="44.68914" lon="4.79714">
        <ele>89.599998474121</ele>
        <time>2024-05-21T13:31:50.000Z</time>
      </trkpt>
      <trkpt lat="44.68906" lon="4.79713">
        <ele>89.599998474121</ele>
        <time>2024-05-21T13:31:51.000Z</time>
      </trkpt>
      <trkpt lat="44.68897" lon="4.79712">
        <ele>89.599998474121</ele>
        <time>2024-05-21T13:31:52.000Z</time>
      </trkpt>
      <trkpt lat="44.68889" lon="4.79711">
        <ele>89.599998474121</ele>
        <time>2024-05-21T13:31:53.000Z</time>
      </trkpt>
      <trkpt lat="44.68881" lon="4.79709">
        <ele>89.400001525879</ele>
        <time>2024-05-21T13:31:54.000Z</time>
      </trkpt>
      <trkpt lat="44.68871" lon="4.79707">
        <ele>89.400001525879</ele>
        <time>2024-05-21T13:31:55.000Z</time>
      </trkpt>
      <trkpt lat="44.68865" lon="4.79706">
        <ele>89.400001525879</ele>
        <time>2024-05-21T13:31:56.000Z</time>
      </trkpt>
      <trkpt lat="44.68856" lon="4.79704">
        <ele>89.199996948242</ele>
        <time>2024-05-21T13:31:57.000Z</time>
      </trkpt>
      <trkpt lat="44.68847" lon="4.79702">
        <ele>89.199996948242</ele>
        <time>2024-05-21T13:31:58.000Z</time>
      </trkpt>
      <trkpt lat="44.68838" lon="4.797">
        <ele>89.199996948242</ele>
        <time>2024-05-21T13:31:59.000Z</time>
      </trkpt>
      <trkpt lat="44.68832" lon="4.79698">
        <ele>89</ele>
        <time>2024-05-21T13:32:00.000Z</time>
      </trkpt>
      <trkpt lat="44.68822" lon="4.79696">
        <ele>89</ele>
        <time>2024-05-21T13:32:01.000Z</time>
      </trkpt>
      <trkpt lat="44.68814" lon="4.79694">
        <ele>89</ele>
        <time>2024-05-21T13:32:02.000Z</time>
      </trkpt>
      <trkpt lat="44.68808" lon="4.79692">
        <ele>89</ele>
        <time>2024-05-21T13:32:03.000Z</time>
      </trkpt>
      <trkpt lat="44.68799" lon="4.79689">
        <ele>89</ele>
        <time>2024-05-21T13:32:04.000Z</time>
      </trkpt>
      <trkpt lat="44.68792" lon="4.79687">
        <ele>89</ele>
        <time>2024-05-21T13:32:05.000Z</time>
      </trkpt>
      <trkpt lat="44.68784" lon="4.79684">
        <ele>89</ele>
        <time>2024-05-21T13:32:06.000Z</time>
      </trkpt>
      <trkpt lat="44.68775" lon="4.7968">
        <ele>89</ele>
        <time>2024-05-21T13:32:07.000Z</time>
      </trkpt>
      <trkpt lat="44.68768" lon="4.79678">
        <ele>89</ele>
        <time>2024-05-21T13:32:08.000Z</time>
      </trkpt>
      <trkpt lat="44.6876" lon="4.79675">
        <ele>88.800003051758</ele>
        <time>2024-05-21T13:32:09.000Z</time>
      </trkpt>
      <trkpt lat="44.68752" lon="4.79672">
        <ele>88.800003051758</ele>
        <time>2024-05-21T13:32:10.000Z</time>
      </trkpt>
      <trkpt lat="44.68744" lon="4.79668">
        <ele>88.800003051758</ele>
        <time>2024-05-21T13:32:11.000Z</time>
      </trkpt>
      <trkpt lat="44.68739" lon="4.79665">
        <ele>88.800003051758</ele>
        <time>2024-05-21T13:32:12.000Z</time>
      </trkpt>
      <trkpt lat="44.68732" lon="4.79662">
        <ele>88.800003051758</ele>
        <time>2024-05-21T13:32:13.000Z</time>
      </trkpt>
      <trkpt lat="44.68725" lon="4.79659">
        <ele>88.800003051758</ele>
        <time>2024-05-21T13:32:14.000Z</time>
      </trkpt>
      <trkpt lat="44.68719" lon="4.79655">
        <ele>88.800003051758</ele>
        <time>2024-05-21T13:32:15.000Z</time>
      </trkpt>
      <trkpt lat="44.68712" lon="4.79652">
        <ele>89</ele>
        <time>2024-05-21T13:32:16.000Z</time>
      </trkpt>
      <trkpt lat="44.68706" lon="4.79648">
        <ele>89.400001525879</ele>
        <time>2024-05-21T13:32:17.000Z</time>
      </trkpt>
      <trkpt lat="44.68701" lon="4.79645">
        <ele>89.599998474121</ele>
        <time>2024-05-21T13:32:18.000Z</time>
      </trkpt>
      <trkpt lat="44.68694" lon="4.79641">
        <ele>90</ele>
        <time>2024-05-21T13:32:19.000Z</time>
      </trkpt>
      <trkpt lat="44.68688" lon="4.79638">
        <ele>90.199996948242</ele>
        <time>2024-05-21T13:32:20.000Z</time>
      </trkpt>
      <trkpt lat="44.68683" lon="4.79635">
        <ele>90.400001525879</ele>
        <time>2024-05-21T13:32:21.000Z</time>
      </trkpt>
      <trkpt lat="44.68678" lon="4.79632">
        <ele>90.599998474121</ele>
        <time>2024-05-21T13:32:22.000Z</time>
      </trkpt>
      <trkpt lat="44.68671" lon="4.79628">
        <ele>90.800003051758</ele>
        <time>2024-05-21T13:32:23.000Z</time>
      </trkpt>
      <trkpt lat="44.68667" lon="4.79625">
        <ele>91</ele>
        <time>2024-05-21T13:32:24.000Z</time>
      </trkpt>
      <trkpt lat="44.68662" lon="4.79621">
        <ele>91.400001525879</ele>
        <time>2024-05-21T13:32:25.000Z</time>
      </trkpt>
      <trkpt lat="44.68655" lon="4.79616">
        <ele>91.599998474121</ele>
        <time>2024-05-21T13:32:26.000Z</time>
      </trkpt>
      <trkpt lat="44.68651" lon="4.79613">
        <ele>91.800003051758</ele>
        <time>2024-05-21T13:32:27.000Z</time>
      </trkpt>
      <trkpt lat="44.68646" lon="4.79609">
        <ele>91.800003051758</ele>
        <time>2024-05-21T13:32:28.000Z</time>
      </trkpt>
      <trkpt lat="44.68641" lon="4.79605">
        <ele>92</ele>
        <time>2024-05-21T13:32:29.000Z</time>
      </trkpt>
      <trkpt lat="44.68636" lon="4.796">
        <ele>92.400001525879</ele>
        <time>2024-05-21T13:32:30.000Z</time>
      </trkpt>
      <trkpt lat="44.68631" lon="4.79596">
        <ele>92.599998474121</ele>
        <time>2024-05-21T13:32:31.000Z</time>
      </trkpt>
      <trkpt lat="44.68625" lon="4.79591">
        <ele>92.800003051758</ele>
        <time>2024-05-21T13:32:32.000Z</time>
      </trkpt>
      <trkpt lat="44.6862" lon="4.79588">
        <ele>93</ele>
        <time>2024-05-21T13:32:33.000Z</time>
      </trkpt>
      <trkpt lat="44.68614" lon="4.79583">
        <ele>93</ele>
        <time>2024-05-21T13:32:34.000Z</time>
      </trkpt>
      <trkpt lat="44.68608" lon="4.79579">
        <ele>93.400001525879</ele>
        <time>2024-05-21T13:32:35.000Z</time>
      </trkpt>
      <trkpt lat="44.68604" lon="4.79576">
        <ele>93.400001525879</ele>
        <time>2024-05-21T13:32:36.000Z</time>
      </trkpt>
      <trkpt lat="44.68598" lon="4.79572">
        <ele>93.400001525879</ele>
        <time>2024-05-21T13:32:37.000Z</time>
      </trkpt>
      <trkpt lat="44.68593" lon="4.79568">
        <ele>93.599998474121</ele>
        <time>2024-05-21T13:32:38.000Z</time>
      </trkpt>
      <trkpt lat="44.68588" lon="4.79563">
        <ele>93.800003051758</ele>
        <time>2024-05-21T13:32:39.000Z</time>
      </trkpt>
      <trkpt lat="44.68582" lon="4.79559">
        <ele>93.800003051758</ele>
        <time>2024-05-21T13:32:40.000Z</time>
      </trkpt>
      <trkpt lat="44.68577" lon="4.79555">
        <ele>94</ele>
        <time>2024-05-21T13:32:41.000Z</time>
      </trkpt>
      <trkpt lat="44.68572" lon="4.79551">
        <ele>94</ele>
        <time>2024-05-21T13:32:42.000Z</time>
      </trkpt>
      <trkpt lat="44.68565" lon="4.79546">
        <ele>94.199996948242</ele>
        <time>2024-05-21T13:32:43.000Z</time>
      </trkpt>
      <trkpt lat="44.6856" lon="4.79541">
        <ele>94.199996948242</ele>
        <time>2024-05-21T13:32:44.000Z</time>
      </trkpt>
      <trkpt lat="44.68556" lon="4.79538">
        <ele>94.400001525879</ele>
        <time>2024-05-21T13:32:45.000Z</time>
      </trkpt>
      <trkpt lat="44.6855" lon="4.79533">
        <ele>94.400001525879</ele>
        <time>2024-05-21T13:32:46.000Z</time>
      </trkpt>
      <trkpt lat="44.68544" lon="4.79528">
        <ele>94.400001525879</ele>
        <time>2024-05-21T13:32:47.000Z</time>
      </trkpt>
      <trkpt lat="44.6854" lon="4.79524">
        <ele>94.400001525879</ele>
        <time>2024-05-21T13:32:48.000Z</time>
      </trkpt>
      <trkpt lat="44.68534" lon="4.7952">
        <ele>94.400001525879</ele>
        <time>2024-05-21T13:32:49.000Z</time>
      </trkpt>
      <trkpt lat="44.68529" lon="4.79515">
        <ele>94.400001525879</ele>
        <time>2024-05-21T13:32:50.000Z</time>
      </trkpt>
      <trkpt lat="44.68523" lon="4.79511">
        <ele>94.400001525879</ele>
        <time>2024-05-21T13:32:51.000Z</time>
      </trkpt>
      <trkpt lat="44.68518" lon="4.79506">
        <ele>94.400001525879</ele>
        <time>2024-05-21T13:32:52.000Z</time>
      </trkpt>
      <trkpt lat="44.68511" lon="4.79501">
        <ele>94.400001525879</ele>
        <time>2024-05-21T13:32:53.000Z</time>
      </trkpt>
      <trkpt lat="44.68507" lon="4.79498">
        <ele>94.400001525879</ele>
        <time>2024-05-21T13:32:54.000Z</time>
      </trkpt>
      <trkpt lat="44.68502" lon="4.79493">
        <ele>94.400001525879</ele>
        <time>2024-05-21T13:32:55.000Z</time>
      </trkpt>
      <trkpt lat="44.68495" lon="4.79488">
        <ele>94.599998474121</ele>
        <time>2024-05-21T13:32:56.000Z</time>
      </trkpt>
      <trkpt lat="44.68491" lon="4.79484">
        <ele>94.599998474121</ele>
        <time>2024-05-21T13:32:57.000Z</time>
      </trkpt>
      <trkpt lat="44.68485" lon="4.79479">
        <ele>94.800003051758</ele>
        <time>2024-05-21T13:32:58.000Z</time>
      </trkpt>
      <trkpt lat="44.68479" lon="4.79475">
        <ele>94.800003051758</ele>
        <time>2024-05-21T13:32:59.000Z</time>
      </trkpt>
      <trkpt lat="44.68474" lon="4.7947">
        <ele>94.800003051758</ele>
        <time>2024-05-21T13:33:00.000Z</time>
      </trkpt>
      <trkpt lat="44.68468" lon="4.79466">
        <ele>94.800003051758</ele>
        <time>2024-05-21T13:33:01.000Z</time>
      </trkpt>
      <trkpt lat="44.68462" lon="4.79461">
        <ele>94.800003051758</ele>
        <time>2024-05-21T13:33:02.000Z</time>
      </trkpt>
      <trkpt lat="44.68455" lon="4.79456">
        <ele>94.599998474121</ele>
        <time>2024-05-21T13:33:03.000Z</time>
      </trkpt>
      <trkpt lat="44.68448" lon="4.79452">
        <ele>94.599998474121</ele>
        <time>2024-05-21T13:33:04.000Z</time>
      </trkpt>
      <trkpt lat="44.68443" lon="4.79448">
        <ele>94.400001525879</ele>
        <time>2024-05-21T13:33:05.000Z</time>
      </trkpt>
      <trkpt lat="44.68437" lon="4.79444">
        <ele>94.199996948242</ele>
        <time>2024-05-21T13:33:06.000Z</time>
      </trkpt>
      <trkpt lat="44.68429" lon="4.79439">
        <ele>94</ele>
        <time>2024-05-21T13:33:07.000Z</time>
      </trkpt>
      <trkpt lat="44.68423" lon="4.79436">
        <ele>94</ele>
        <time>2024-05-21T13:33:08.000Z</time>
      </trkpt>
      <trkpt lat="44.68415" lon="4.79431">
        <ele>93.800003051758</ele>
        <time>2024-05-21T13:33:09.000Z</time>
      </trkpt>
      <trkpt lat="44.68408" lon="4.79427">
        <ele>93.800003051758</ele>
        <time>2024-05-21T13:33:10.000Z</time>
      </trkpt>
      <trkpt lat="44.68402" lon="4.79423">
        <ele>93.599998474121</ele>
        <time>2024-05-21T13:33:11.000Z</time>
      </trkpt>
      <trkpt lat="44.68394" lon="4.79418">
        <ele>93.400001525879</ele>
        <time>2024-05-21T13:33:12.000Z</time>
      </trkpt>
      <trkpt lat="44.68388" lon="4.79415">
        <ele>93.199996948242</ele>
        <time>2024-05-21T13:33:13.000Z</time>
      </trkpt>
      <trkpt lat="44.6838" lon="4.79411">
        <ele>92.800003051758</ele>
        <time>2024-05-21T13:33:14.000Z</time>
      </trkpt>
      <trkpt lat="44.68371" lon="4.79407">
        <ele>92.800003051758</ele>
        <time>2024-05-21T13:33:15.000Z</time>
      </trkpt>
      <trkpt lat="44.68363" lon="4.79403">
        <ele>92.599998474121</ele>
        <time>2024-05-21T13:33:16.000Z</time>
      </trkpt>
      <trkpt lat="44.68356" lon="4.794">
        <ele>92.400001525879</ele>
        <time>2024-05-21T13:33:17.000Z</time>
      </trkpt>
      <trkpt lat="44.68348" lon="4.79397">
        <ele>92.400001525879</ele>
        <time>2024-05-21T13:33:18.000Z</time>
      </trkpt>
      <trkpt lat="44.6834" lon="4.79393">
        <ele>92.199996948242</ele>
        <time>2024-05-21T13:33:19.000Z</time>
      </trkpt>
      <trkpt lat="44.68331" lon="4.7939">
        <ele>92.199996948242</ele>
        <time>2024-05-21T13:33:20.000Z</time>
      </trkpt>
      <trkpt lat="44.68321" lon="4.79387">
        <ele>91.800003051758</ele>
        <time>2024-05-21T13:33:21.000Z</time>
      </trkpt>
      <trkpt lat="44.68312" lon="4.79384">
        <ele>91.599998474121</ele>
        <time>2024-05-21T13:33:22.000Z</time>
      </trkpt>
      <trkpt lat="44.683" lon="4.79381">
        <ele>91.199996948242</ele>
        <time>2024-05-21T13:33:23.000Z</time>
      </trkpt>
      <trkpt lat="44.6829" lon="4.79378">
        <ele>90.599998474121</ele>
        <time>2024-05-21T13:33:24.000Z</time>
      </trkpt>
      <trkpt lat="44.68282" lon="4.79376">
        <ele>90.199996948242</ele>
        <time>2024-05-21T13:33:25.000Z</time>
      </trkpt>
      <trkpt lat="44.68271" lon="4.79373">
        <ele>90</ele>
        <time>2024-05-21T13:33:26.000Z</time>
      </trkpt>
      <trkpt lat="44.68261" lon="4.79371">
        <ele>89.800003051758</ele>
        <time>2024-05-21T13:33:27.000Z</time>
      </trkpt>
      <trkpt lat="44.68253" lon="4.7937">
        <ele>89.400001525879</ele>
        <time>2024-05-21T13:33:28.000Z</time>
      </trkpt>
      <trkpt lat="44.68244" lon="4.79368">
        <ele>89.199996948242</ele>
        <time>2024-05-21T13:33:29.000Z</time>
      </trkpt>
      <trkpt lat="44.68233" lon="4.79367">
        <ele>89</ele>
        <time>2024-05-21T13:33:30.000Z</time>
      </trkpt>
      <trkpt lat="44.68225" lon="4.79366">
        <ele>89</ele>
        <time>2024-05-21T13:33:31.000Z</time>
      </trkpt>
      <trkpt lat="44.68216" lon="4.79365">
        <ele>88.800003051758</ele>
        <time>2024-05-21T13:33:32.000Z</time>
      </trkpt>
      <trkpt lat="44.68206" lon="4.79365">
        <ele>88.599998474121</ele>
        <time>2024-05-21T13:33:33.000Z</time>
      </trkpt>
      <trkpt lat="44.68199" lon="4.79365">
        <ele>88.599998474121</ele>
        <time>2024-05-21T13:33:34.000Z</time>
      </trkpt>
      <trkpt lat="44.68188" lon="4.79365">
        <ele>88.400001525879</ele>
        <time>2024-05-21T13:33:35.000Z</time>
      </trkpt>
      <trkpt lat="44.6818" lon="4.79365">
        <ele>88.400001525879</ele>
        <time>2024-05-21T13:33:36.000Z</time>
      </trkpt>
      <trkpt lat="44.68173" lon="4.79366">
        <ele>88.400001525879</ele>
        <time>2024-05-21T13:33:37.000Z</time>
      </trkpt>
      <trkpt lat="44.68162" lon="4.79366">
        <ele>88.400001525879</ele>
        <time>2024-05-21T13:33:38.000Z</time>
      </trkpt>
      <trkpt lat="44.68154" lon="4.79367">
        <ele>88.400001525879</ele>
        <time>2024-05-21T13:33:39.000Z</time>
      </trkpt>
      <trkpt lat="44.68147" lon="4.79367">
        <ele>88.199996948242</ele>
        <time>2024-05-21T13:33:40.000Z</time>
      </trkpt>
      <trkpt lat="44.68139" lon="4.79368">
        <ele>88.199996948242</ele>
        <time>2024-05-21T13:33:41.000Z</time>
      </trkpt>
      <trkpt lat="44.6813" lon="4.79369">
        <ele>88.199996948242</ele>
        <time>2024-05-21T13:33:42.000Z</time>
      </trkpt>
      <trkpt lat="44.68122" lon="4.7937">
        <ele>88.199996948242</ele>
        <time>2024-05-21T13:33:43.000Z</time>
      </trkpt>
      <trkpt lat="44.68113" lon="4.79371">
        <ele>88.199996948242</ele>
        <time>2024-05-21T13:33:44.000Z</time>
      </trkpt>
      <trkpt lat="44.68103" lon="4.79373">
        <ele>88.199996948242</ele>
        <time>2024-05-21T13:33:45.000Z</time>
      </trkpt>
      <trkpt lat="44.68094" lon="4.79374">
        <ele>88</ele>
        <time>2024-05-21T13:33:46.000Z</time>
      </trkpt>
      <trkpt lat="44.68087" lon="4.79376">
        <ele>88</ele>
        <time>2024-05-21T13:33:47.000Z</time>
      </trkpt>
      <trkpt lat="44.68077" lon="4.79378">
        <ele>88</ele>
        <time>2024-05-21T13:33:48.000Z</time>
      </trkpt>
      <trkpt lat="44.6807" lon="4.79379">
        <ele>88</ele>
        <time>2024-05-21T13:33:49.000Z</time>
      </trkpt>
      <trkpt lat="44.68064" lon="4.79381">
        <ele>87.800003051758</ele>
        <time>2024-05-21T13:33:50.000Z</time>
      </trkpt>
      <trkpt lat="44.68052" lon="4.79383">
        <ele>87.599998474121</ele>
        <time>2024-05-21T13:33:51.000Z</time>
      </trkpt>
      <trkpt lat="44.68043" lon="4.79385">
        <ele>87.599998474121</ele>
        <time>2024-05-21T13:33:52.000Z</time>
      </trkpt>
      <trkpt lat="44.68037" lon="4.79386">
        <ele>87.599998474121</ele>
        <time>2024-05-21T13:33:53.000Z</time>
      </trkpt>
      <trkpt lat="44.68027" lon="4.79389">
        <ele>87.599998474121</ele>
        <time>2024-05-21T13:33:54.000Z</time>
      </trkpt>
      <trkpt lat="44.68018" lon="4.79391">
        <ele>87.800003051758</ele>
        <time>2024-05-21T13:33:55.000Z</time>
      </trkpt>
      <trkpt lat="44.68011" lon="4.79393">
        <ele>88</ele>
        <time>2024-05-21T13:33:56.000Z</time>
      </trkpt>
      <trkpt lat="44.68002" lon="4.79395">
        <ele>88</ele>
        <time>2024-05-21T13:33:57.000Z</time>
      </trkpt>
      <trkpt lat="44.67992" lon="4.79398">
        <ele>88</ele>
        <time>2024-05-21T13:33:58.000Z</time>
      </trkpt>
      <trkpt lat="44.67985" lon="4.794">
        <ele>88</ele>
        <time>2024-05-21T13:33:59.000Z</time>
      </trkpt>
      <trkpt lat="44.67975" lon="4.79402">
        <ele>88</ele>
        <time>2024-05-21T13:34:00.000Z</time>
      </trkpt>
      <trkpt lat="44.67968" lon="4.79404">
        <ele>88</ele>
        <time>2024-05-21T13:34:01.000Z</time>
      </trkpt>
      <trkpt lat="44.6796" lon="4.79406">
        <ele>87.800003051758</ele>
        <time>2024-05-21T13:34:02.000Z</time>
      </trkpt>
      <trkpt lat="44.6795" lon="4.79408">
        <ele>87.800003051758</ele>
        <time>2024-05-21T13:34:03.000Z</time>
      </trkpt>
      <trkpt lat="44.67941" lon="4.7941">
        <ele>87.800003051758</ele>
        <time>2024-05-21T13:34:04.000Z</time>
      </trkpt>
      <trkpt lat="44.67935" lon="4.79412">
        <ele>87.599998474121</ele>
        <time>2024-05-21T13:34:05.000Z</time>
      </trkpt>
      <trkpt lat="44.67926" lon="4.79414">
        <ele>87.599998474121</ele>
        <time>2024-05-21T13:34:06.000Z</time>
      </trkpt>
      <trkpt lat="44.67916" lon="4.79417">
        <ele>87.400001525879</ele>
        <time>2024-05-21T13:34:07.000Z</time>
      </trkpt>
      <trkpt lat="44.67909" lon="4.79419">
        <ele>87.400001525879</ele>
        <time>2024-05-21T13:34:08.000Z</time>
      </trkpt>
      <trkpt lat="44.67901" lon="4.79421">
        <ele>87.400001525879</ele>
        <time>2024-05-21T13:34:09.000Z</time>
      </trkpt>
      <trkpt lat="44.67891" lon="4.79424">
        <ele>87.199996948242</ele>
        <time>2024-05-21T13:34:10.000Z</time>
      </trkpt>
      <trkpt lat="44.67884" lon="4.79426">
        <ele>87.199996948242</ele>
        <time>2024-05-21T13:34:11.000Z</time>
      </trkpt>
      <trkpt lat="44.67874" lon="4.79429">
        <ele>87.199996948242</ele>
        <time>2024-05-21T13:34:12.000Z</time>
      </trkpt>
      <trkpt lat="44.67867" lon="4.7943">
        <ele>87.199996948242</ele>
        <time>2024-05-21T13:34:13.000Z</time>
      </trkpt>
      <trkpt lat="44.67859" lon="4.79432">
        <ele>87</ele>
        <time>2024-05-21T13:34:14.000Z</time>
      </trkpt>
      <trkpt lat="44.67849" lon="4.79435">
        <ele>87</ele>
        <time>2024-05-21T13:34:15.000Z</time>
      </trkpt>
      <trkpt lat="44.6784" lon="4.79437">
        <ele>87</ele>
        <time>2024-05-21T13:34:16.000Z</time>
      </trkpt>
      <trkpt lat="44.67833" lon="4.79439">
        <ele>87</ele>
        <time>2024-05-21T13:34:17.000Z</time>
      </trkpt>
      <trkpt lat="44.67823" lon="4.79442">
        <ele>87</ele>
        <time>2024-05-21T13:34:18.000Z</time>
      </trkpt>
      <trkpt lat="44.67815" lon="4.79444">
        <ele>87</ele>
        <time>2024-05-21T13:34:19.000Z</time>
      </trkpt>
      <trkpt lat="44.67808" lon="4.79445">
        <ele>87</ele>
        <time>2024-05-21T13:34:20.000Z</time>
      </trkpt>
      <trkpt lat="44.67798" lon="4.79448">
        <ele>87</ele>
        <time>2024-05-21T13:34:21.000Z</time>
      </trkpt>
      <trkpt lat="44.67791" lon="4.7945">
        <ele>86.800003051758</ele>
        <time>2024-05-21T13:34:22.000Z</time>
      </trkpt>
      <trkpt lat="44.67783" lon="4.79452">
        <ele>86.800003051758</ele>
        <time>2024-05-21T13:34:23.000Z</time>
      </trkpt>
      <trkpt lat="44.67774" lon="4.79455">
        <ele>86.800003051758</ele>
        <time>2024-05-21T13:34:24.000Z</time>
      </trkpt>
      <trkpt lat="44.67765" lon="4.79457">
        <ele>86.599998474121</ele>
        <time>2024-05-21T13:34:25.000Z</time>
      </trkpt>
      <trkpt lat="44.67758" lon="4.79459">
        <ele>86.599998474121</ele>
        <time>2024-05-21T13:34:26.000Z</time>
      </trkpt>
      <trkpt lat="44.67748" lon="4.79461">
        <ele>86.599998474121</ele>
        <time>2024-05-21T13:34:27.000Z</time>
      </trkpt>
      <trkpt lat="44.6774" lon="4.79463">
        <ele>86.400001525879</ele>
        <time>2024-05-21T13:34:28.000Z</time>
      </trkpt>
      <trkpt lat="44.67733" lon="4.79464">
        <ele>86.400001525879</ele>
        <time>2024-05-21T13:34:29.000Z</time>
      </trkpt>
      <trkpt lat="44.67724" lon="4.79466">
        <ele>86.400001525879</ele>
        <time>2024-05-21T13:34:30.000Z</time>
      </trkpt>
      <trkpt lat="44.67714" lon="4.79468">
        <ele>86.400001525879</ele>
        <time>2024-05-21T13:34:31.000Z</time>
      </trkpt>
      <trkpt lat="44.67706" lon="4.7947">
        <ele>86</ele>
        <time>2024-05-21T13:34:32.000Z</time>
      </trkpt>
      <trkpt lat="44.67699" lon="4.79471">
        <ele>86</ele>
        <time>2024-05-21T13:34:33.000Z</time>
      </trkpt>
      <trkpt lat="44.6769" lon="4.79473">
        <ele>86</ele>
        <time>2024-05-21T13:34:34.000Z</time>
      </trkpt>
      <trkpt lat="44.67681" lon="4.79474">
        <ele>86</ele>
        <time>2024-05-21T13:34:35.000Z</time>
      </trkpt>
      <trkpt lat="44.67675" lon="4.79475">
        <ele>86</ele>
        <time>2024-05-21T13:34:36.000Z</time>
      </trkpt>
      <trkpt lat="44.67665" lon="4.79476">
        <ele>86</ele>
        <time>2024-05-21T13:34:37.000Z</time>
      </trkpt>
      <trkpt lat="44.67658" lon="4.79477">
        <ele>86</ele>
        <time>2024-05-21T13:34:38.000Z</time>
      </trkpt>
      <trkpt lat="44.6765" lon="4.79478">
        <ele>86</ele>
        <time>2024-05-21T13:34:39.000Z</time>
      </trkpt>
      <trkpt lat="44.6764" lon="4.79479">
        <ele>86</ele>
        <time>2024-05-21T13:34:40.000Z</time>
      </trkpt>
      <trkpt lat="44.67634" lon="4.7948">
        <ele>86</ele>
        <time>2024-05-21T13:34:41.000Z</time>
      </trkpt>
      <trkpt lat="44.67626" lon="4.7948">
        <ele>86</ele>
        <time>2024-05-21T13:34:42.000Z</time>
      </trkpt>
      <trkpt lat="44.67616" lon="4.79481">
        <ele>86</ele>
        <time>2024-05-21T13:34:43.000Z</time>
      </trkpt>
      <trkpt lat="44.67609" lon="4.79482">
        <ele>86</ele>
        <time>2024-05-21T13:34:44.000Z</time>
      </trkpt>
      <trkpt lat="44.67601" lon="4.79482">
        <ele>85.800003051758</ele>
        <time>2024-05-21T13:34:45.000Z</time>
      </trkpt>
      <trkpt lat="44.67591" lon="4.79482">
        <ele>85.800003051758</ele>
        <time>2024-05-21T13:34:46.000Z</time>
      </trkpt>
      <trkpt lat="44.67583" lon="4.79481">
        <ele>85.800003051758</ele>
        <time>2024-05-21T13:34:47.000Z</time>
      </trkpt>
      <trkpt lat="44.67577" lon="4.79481">
        <ele>85.800003051758</ele>
        <time>2024-05-21T13:34:48.000Z</time>
      </trkpt>
      <trkpt lat="44.67567" lon="4.7948">
        <ele>85.599998474121</ele>
        <time>2024-05-21T13:34:49.000Z</time>
      </trkpt>
      <trkpt lat="44.67561" lon="4.7948">
        <ele>85.400001525879</ele>
        <time>2024-05-21T13:34:50.000Z</time>
      </trkpt>
      <trkpt lat="44.67553" lon="4.79479">
        <ele>85.400001525879</ele>
        <time>2024-05-21T13:34:51.000Z</time>
      </trkpt>
      <trkpt lat="44.67544" lon="4.79478">
        <ele>85.400001525879</ele>
        <time>2024-05-21T13:34:52.000Z</time>
      </trkpt>
      <trkpt lat="44.67536" lon="4.79477">
        <ele>85.400001525879</ele>
        <time>2024-05-21T13:34:53.000Z</time>
      </trkpt>
      <trkpt lat="44.6753" lon="4.79477">
        <ele>85.400001525879</ele>
        <time>2024-05-21T13:34:54.000Z</time>
      </trkpt>
      <trkpt lat="44.6752" lon="4.79476">
        <ele>85.400001525879</ele>
        <time>2024-05-21T13:34:55.000Z</time>
      </trkpt>
      <trkpt lat="44.67513" lon="4.79475">
        <ele>85.400001525879</ele>
        <time>2024-05-21T13:34:56.000Z</time>
      </trkpt>
      <trkpt lat="44.67507" lon="4.79474">
        <ele>85.400001525879</ele>
        <time>2024-05-21T13:34:57.000Z</time>
      </trkpt>
      <trkpt lat="44.67499" lon="4.79473">
        <ele>85.400001525879</ele>
        <time>2024-05-21T13:34:58.000Z</time>
      </trkpt>
      <trkpt lat="44.6749" lon="4.79472">
        <ele>85.400001525879</ele>
        <time>2024-05-21T13:34:59.000Z</time>
      </trkpt>
      <trkpt lat="44.67484" lon="4.79471">
        <ele>85.400001525879</ele>
        <time>2024-05-21T13:35:00.000Z</time>
      </trkpt>
      <trkpt lat="44.67475" lon="4.79469">
        <ele>85.400001525879</ele>
        <time>2024-05-21T13:35:01.000Z</time>
      </trkpt>
      <trkpt lat="44.67467" lon="4.79469">
        <ele>85.400001525879</ele>
        <time>2024-05-21T13:35:02.000Z</time>
      </trkpt>
      <trkpt lat="44.67462" lon="4.79468">
        <ele>85.400001525879</ele>
        <time>2024-05-21T13:35:03.000Z</time>
      </trkpt>
      <trkpt lat="44.67453" lon="4.79466">
        <ele>85.400001525879</ele>
        <time>2024-05-21T13:35:04.000Z</time>
      </trkpt>
      <trkpt lat="44.67447" lon="4.79465">
        <ele>85.400001525879</ele>
        <time>2024-05-21T13:35:05.000Z</time>
      </trkpt>
      <trkpt lat="44.6744" lon="4.79463">
        <ele>85.199996948242</ele>
        <time>2024-05-21T13:35:06.000Z</time>
      </trkpt>
      <trkpt lat="44.67433" lon="4.79461">
        <ele>85.199996948242</ele>
        <time>2024-05-21T13:35:07.000Z</time>
      </trkpt>
      <trkpt lat="44.67426" lon="4.79459">
        <ele>85.199996948242</ele>
        <time>2024-05-21T13:35:08.000Z</time>
      </trkpt>
      <trkpt lat="44.67416" lon="4.79457">
        <ele>85.199996948242</ele>
        <time>2024-05-21T13:35:09.000Z</time>
      </trkpt>
      <trkpt lat="44.67409" lon="4.79455">
        <ele>85.199996948242</ele>
        <time>2024-05-21T13:35:10.000Z</time>
      </trkpt>
      <trkpt lat="44.67403" lon="4.79454">
        <ele>85.199996948242</ele>
        <time>2024-05-21T13:35:11.000Z</time>
      </trkpt>
      <trkpt lat="44.67395" lon="4.79452">
        <ele>85.199996948242</ele>
        <time>2024-05-21T13:35:12.000Z</time>
      </trkpt>
      <trkpt lat="44.67388" lon="4.7945">
        <ele>85.199996948242</ele>
        <time>2024-05-21T13:35:13.000Z</time>
      </trkpt>
      <trkpt lat="44.67382" lon="4.79449">
        <ele>85.199996948242</ele>
        <time>2024-05-21T13:35:14.000Z</time>
      </trkpt>
      <trkpt lat="44.67375" lon="4.79448">
        <ele>85.199996948242</ele>
        <time>2024-05-21T13:35:15.000Z</time>
      </trkpt>
      <trkpt lat="44.67366" lon="4.79446">
        <ele>85.199996948242</ele>
        <time>2024-05-21T13:35:16.000Z</time>
      </trkpt>
      <trkpt lat="44.6736" lon="4.79445">
        <ele>85.199996948242</ele>
        <time>2024-05-21T13:35:17.000Z</time>
      </trkpt>
      <trkpt lat="44.67352" lon="4.79443">
        <ele>85.199996948242</ele>
        <time>2024-05-21T13:35:18.000Z</time>
      </trkpt>
      <trkpt lat="44.67346" lon="4.79442">
        <ele>85.199996948242</ele>
        <time>2024-05-21T13:35:19.000Z</time>
      </trkpt>
      <trkpt lat="44.67339" lon="4.79441">
        <ele>85.199996948242</ele>
        <time>2024-05-21T13:35:20.000Z</time>
      </trkpt>
      <trkpt lat="44.6733" lon="4.79439">
        <ele>85.199996948242</ele>
        <time>2024-05-21T13:35:21.000Z</time>
      </trkpt>
      <trkpt lat="44.67325" lon="4.79438">
        <ele>85.199996948242</ele>
        <time>2024-05-21T13:35:22.000Z</time>
      </trkpt>
      <trkpt lat="44.67318" lon="4.79437">
        <ele>85.199996948242</ele>
        <time>2024-05-21T13:35:23.000Z</time>
      </trkpt>
      <trkpt lat="44.67311" lon="4.79435">
        <ele>85.199996948242</ele>
        <time>2024-05-21T13:35:24.000Z</time>
      </trkpt>
      <trkpt lat="44.67303" lon="4.79434">
        <ele>85.400001525879</ele>
        <time>2024-05-21T13:35:25.000Z</time>
      </trkpt>
      <trkpt lat="44.67296" lon="4.79433">
        <ele>85.400001525879</ele>
        <time>2024-05-21T13:35:26.000Z</time>
      </trkpt>
      <trkpt lat="44.67289" lon="4.79432">
        <ele>85.400001525879</ele>
        <time>2024-05-21T13:35:27.000Z</time>
      </trkpt>
      <trkpt lat="44.6728" lon="4.7943">
        <ele>85.400001525879</ele>
        <time>2024-05-21T13:35:28.000Z</time>
      </trkpt>
      <trkpt lat="44.67275" lon="4.7943">
        <ele>85.400001525879</ele>
        <time>2024-05-21T13:35:29.000Z</time>
      </trkpt>
      <trkpt lat="44.67268" lon="4.79428">
        <ele>85.400001525879</ele>
        <time>2024-05-21T13:35:30.000Z</time>
      </trkpt>
      <trkpt lat="44.6726" lon="4.79427">
        <ele>85.400001525879</ele>
        <time>2024-05-21T13:35:31.000Z</time>
      </trkpt>
      <trkpt lat="44.67252" lon="4.79426">
        <ele>85.400001525879</ele>
        <time>2024-05-21T13:35:32.000Z</time>
      </trkpt>
      <trkpt lat="44.67246" lon="4.79425">
        <ele>85.400001525879</ele>
        <time>2024-05-21T13:35:33.000Z</time>
      </trkpt>
      <trkpt lat="44.67239" lon="4.79424">
        <ele>85.400001525879</ele>
        <time>2024-05-21T13:35:34.000Z</time>
      </trkpt>
      <trkpt lat="44.67233" lon="4.79423">
        <ele>85.400001525879</ele>
        <time>2024-05-21T13:35:35.000Z</time>
      </trkpt>
      <trkpt lat="44.67223" lon="4.79421">
        <ele>85.400001525879</ele>
        <time>2024-05-21T13:35:36.000Z</time>
      </trkpt>
      <trkpt lat="44.67217" lon="4.7942">
        <ele>85.199996948242</ele>
        <time>2024-05-21T13:35:37.000Z</time>
      </trkpt>
      <trkpt lat="44.67209" lon="4.79418">
        <ele>85.199996948242</ele>
        <time>2024-05-21T13:35:38.000Z</time>
      </trkpt>
      <trkpt lat="44.67202" lon="4.79417">
        <ele>85</ele>
        <time>2024-05-21T13:35:39.000Z</time>
      </trkpt>
      <trkpt lat="44.67196" lon="4.79416">
        <ele>85</ele>
        <time>2024-05-21T13:35:40.000Z</time>
      </trkpt>
      <trkpt lat="44.67189" lon="4.79415">
        <ele>85</ele>
        <time>2024-05-21T13:35:41.000Z</time>
      </trkpt>
      <trkpt lat="44.67181" lon="4.79413">
        <ele>85</ele>
        <time>2024-05-21T13:35:42.000Z</time>
      </trkpt>
      <trkpt lat="44.67175" lon="4.79413">
        <ele>85</ele>
        <time>2024-05-21T13:35:43.000Z</time>
      </trkpt>
      <trkpt lat="44.67167" lon="4.79411">
        <ele>85</ele>
        <time>2024-05-21T13:35:44.000Z</time>
      </trkpt>
      <trkpt lat="44.67159" lon="4.7941">
        <ele>85</ele>
        <time>2024-05-21T13:35:45.000Z</time>
      </trkpt>
      <trkpt lat="44.67154" lon="4.79409">
        <ele>85</ele>
        <time>2024-05-21T13:35:46.000Z</time>
      </trkpt>
      <trkpt lat="44.67147" lon="4.79408">
        <ele>85</ele>
        <time>2024-05-21T13:35:47.000Z</time>
      </trkpt>
      <trkpt lat="44.67139" lon="4.79406">
        <ele>85</ele>
        <time>2024-05-21T13:35:48.000Z</time>
      </trkpt>
      <trkpt lat="44.67132" lon="4.79405">
        <ele>85</ele>
        <time>2024-05-21T13:35:49.000Z</time>
      </trkpt>
      <trkpt lat="44.67125" lon="4.79403">
        <ele>85.199996948242</ele>
        <time>2024-05-21T13:35:50.000Z</time>
      </trkpt>
      <trkpt lat="44.67117" lon="4.79402">
        <ele>85.199996948242</ele>
        <time>2024-05-21T13:35:51.000Z</time>
      </trkpt>
      <trkpt lat="44.6711" lon="4.794">
        <ele>85</ele>
        <time>2024-05-21T13:35:52.000Z</time>
      </trkpt>
      <trkpt lat="44.67104" lon="4.79399">
        <ele>85</ele>
        <time>2024-05-21T13:35:53.000Z</time>
      </trkpt>
      <trkpt lat="44.67096" lon="4.79398">
        <ele>85</ele>
        <time>2024-05-21T13:35:54.000Z</time>
      </trkpt>
      <trkpt lat="44.6709" lon="4.79397">
        <ele>85</ele>
        <time>2024-05-21T13:35:55.000Z</time>
      </trkpt>
      <trkpt lat="44.67083" lon="4.79396">
        <ele>85</ele>
        <time>2024-05-21T13:35:56.000Z</time>
      </trkpt>
      <trkpt lat="44.67076" lon="4.79395">
        <ele>85</ele>
        <time>2024-05-21T13:35:57.000Z</time>
      </trkpt>
      <trkpt lat="44.6707" lon="4.79395">
        <ele>85</ele>
        <time>2024-05-21T13:35:58.000Z</time>
      </trkpt>
      <trkpt lat="44.67063" lon="4.79394">
        <ele>84.800003051758</ele>
        <time>2024-05-21T13:35:59.000Z</time>
      </trkpt>
      <trkpt lat="44.67056" lon="4.79393">
        <ele>84.599998474121</ele>
        <time>2024-05-21T13:36:00.000Z</time>
      </trkpt>
      <trkpt lat="44.67049" lon="4.79392">
        <ele>84.800003051758</ele>
        <time>2024-05-21T13:36:01.000Z</time>
      </trkpt>
      <trkpt lat="44.67042" lon="4.79391">
        <ele>84.800003051758</ele>
        <time>2024-05-21T13:36:02.000Z</time>
      </trkpt>
      <trkpt lat="44.67033" lon="4.7939">
        <ele>84.800003051758</ele>
        <time>2024-05-21T13:36:03.000Z</time>
      </trkpt>
      <trkpt lat="44.67026" lon="4.79389">
        <ele>84.800003051758</ele>
        <time>2024-05-21T13:36:04.000Z</time>
      </trkpt>
      <trkpt lat="44.67021" lon="4.79389">
        <ele>84.800003051758</ele>
        <time>2024-05-21T13:36:05.000Z</time>
      </trkpt>
      <trkpt lat="44.67014" lon="4.79388">
        <ele>84.800003051758</ele>
        <time>2024-05-21T13:36:06.000Z</time>
      </trkpt>
      <trkpt lat="44.67007" lon="4.79387">
        <ele>84.800003051758</ele>
        <time>2024-05-21T13:36:07.000Z</time>
      </trkpt>
      <trkpt lat="44.67" lon="4.79386">
        <ele>84.800003051758</ele>
        <time>2024-05-21T13:36:08.000Z</time>
      </trkpt>
      <trkpt lat="44.66993" lon="4.79385">
        <ele>84.800003051758</ele>
        <time>2024-05-21T13:36:09.000Z</time>
      </trkpt>
      <trkpt lat="44.66986" lon="4.79384">
        <ele>84.800003051758</ele>
        <time>2024-05-21T13:36:10.000Z</time>
      </trkpt>
      <trkpt lat="44.66979" lon="4.79383">
        <ele>84.599998474121</ele>
        <time>2024-05-21T13:36:11.000Z</time>
      </trkpt>
      <trkpt lat="44.66971" lon="4.79381">
        <ele>84.599998474121</ele>
        <time>2024-05-21T13:36:12.000Z</time>
      </trkpt>
      <trkpt lat="44.66964" lon="4.7938">
        <ele>84.599998474121</ele>
        <time>2024-05-21T13:36:13.000Z</time>
      </trkpt>
      <trkpt lat="44.66958" lon="4.79379">
        <ele>84.599998474121</ele>
        <time>2024-05-21T13:36:14.000Z</time>
      </trkpt>
      <trkpt lat="44.6695" lon="4.79377">
        <ele>84.599998474121</ele>
        <time>2024-05-21T13:36:15.000Z</time>
      </trkpt>
      <trkpt lat="44.66945" lon="4.79375">
        <ele>84.599998474121</ele>
        <time>2024-05-21T13:36:16.000Z</time>
      </trkpt>
      <trkpt lat="44.66938" lon="4.79374">
        <ele>84.599998474121</ele>
        <time>2024-05-21T13:36:17.000Z</time>
      </trkpt>
      <trkpt lat="44.6693" lon="4.79372">
        <ele>84.599998474121</ele>
        <time>2024-05-21T13:36:18.000Z</time>
      </trkpt>
      <trkpt lat="44.66924" lon="4.7937">
        <ele>84.599998474121</ele>
        <time>2024-05-21T13:36:19.000Z</time>
      </trkpt>
      <trkpt lat="44.66918" lon="4.79368">
        <ele>84.599998474121</ele>
        <time>2024-05-21T13:36:20.000Z</time>
      </trkpt>
      <trkpt lat="44.6691" lon="4.79366">
        <ele>84.199996948242</ele>
        <time>2024-05-21T13:36:21.000Z</time>
      </trkpt>
      <trkpt lat="44.66905" lon="4.79364">
        <ele>84.199996948242</ele>
        <time>2024-05-21T13:36:22.000Z</time>
      </trkpt>
      <trkpt lat="44.66898" lon="4.79361">
        <ele>84</ele>
        <time>2024-05-21T13:36:23.000Z</time>
      </trkpt>
      <trkpt lat="44.6689" lon="4.79359">
        <ele>84</ele>
        <time>2024-05-21T13:36:24.000Z</time>
      </trkpt>
      <trkpt lat="44.66885" lon="4.79357">
        <ele>84</ele>
        <time>2024-05-21T13:36:25.000Z</time>
      </trkpt>
      <trkpt lat="44.66878" lon="4.79355">
        <ele>84</ele>
        <time>2024-05-21T13:36:26.000Z</time>
      </trkpt>
      <trkpt lat="44.6687" lon="4.79353">
        <ele>84</ele>
        <time>2024-05-21T13:36:27.000Z</time>
      </trkpt>
      <trkpt lat="44.66865" lon="4.79352">
        <ele>84.199996948242</ele>
        <time>2024-05-21T13:36:28.000Z</time>
      </trkpt>
      <trkpt lat="44.66858" lon="4.79352">
        <ele>84.199996948242</ele>
        <time>2024-05-21T13:36:29.000Z</time>
      </trkpt>
      <trkpt lat="44.66851" lon="4.79351">
        <ele>84.199996948242</ele>
        <time>2024-05-21T13:36:30.000Z</time>
      </trkpt>
      <trkpt lat="44.66845" lon="4.79349">
        <ele>84.199996948242</ele>
        <time>2024-05-21T13:36:31.000Z</time>
      </trkpt>
      <trkpt lat="44.66838" lon="4.79347">
        <ele>84.199996948242</ele>
        <time>2024-05-21T13:36:32.000Z</time>
      </trkpt>
      <trkpt lat="44.66833" lon="4.79343">
        <ele>84</ele>
        <time>2024-05-21T13:36:33.000Z</time>
      </trkpt>
      <trkpt lat="44.66826" lon="4.79338">
        <ele>84</ele>
        <time>2024-05-21T13:36:34.000Z</time>
      </trkpt>
      <trkpt lat="44.66822" lon="4.79334">
        <ele>84</ele>
        <time>2024-05-21T13:36:35.000Z</time>
      </trkpt>
      <trkpt lat="44.66816" lon="4.79329">
        <ele>84</ele>
        <time>2024-05-21T13:36:36.000Z</time>
      </trkpt>
      <trkpt lat="44.66809" lon="4.79325">
        <ele>84</ele>
        <time>2024-05-21T13:36:37.000Z</time>
      </trkpt>
      <trkpt lat="44.66804" lon="4.79324">
        <ele>84.199996948242</ele>
        <time>2024-05-21T13:36:38.000Z</time>
      </trkpt>
      <trkpt lat="44.66797" lon="4.79323">
        <ele>84.199996948242</ele>
        <time>2024-05-21T13:36:39.000Z</time>
      </trkpt>
      <trkpt lat="44.6679" lon="4.79325">
        <ele>84.199996948242</ele>
        <time>2024-05-21T13:36:40.000Z</time>
      </trkpt>
      <trkpt lat="44.66785" lon="4.79327">
        <ele>84.400001525879</ele>
        <time>2024-05-21T13:36:41.000Z</time>
      </trkpt>
      <trkpt lat="44.66779" lon="4.7933">
        <ele>84.400001525879</ele>
        <time>2024-05-21T13:36:42.000Z</time>
      </trkpt>
      <trkpt lat="44.66773" lon="4.79334">
        <ele>84.400001525879</ele>
        <time>2024-05-21T13:36:43.000Z</time>
      </trkpt>
      <trkpt lat="44.66768" lon="4.79339">
        <ele>84.400001525879</ele>
        <time>2024-05-21T13:36:44.000Z</time>
      </trkpt>
      <trkpt lat="44.66764" lon="4.79346">
        <ele>84.400001525879</ele>
        <time>2024-05-21T13:36:45.000Z</time>
      </trkpt>
      <trkpt lat="44.6676" lon="4.79355">
        <ele>84.400001525879</ele>
        <time>2024-05-21T13:36:46.000Z</time>
      </trkpt>
      <trkpt lat="44.66759" lon="4.79362">
        <ele>84.400001525879</ele>
        <time>2024-05-21T13:36:47.000Z</time>
      </trkpt>
      <trkpt lat="44.66757" lon="4.79371">
        <ele>84.400001525879</ele>
        <time>2024-05-21T13:36:48.000Z</time>
      </trkpt>
      <trkpt lat="44.66755" lon="4.79379">
        <ele>84.400001525879</ele>
        <time>2024-05-21T13:36:49.000Z</time>
      </trkpt>
      <trkpt lat="44.66753" lon="4.79385">
        <ele>84.400001525879</ele>
        <time>2024-05-21T13:36:50.000Z</time>
      </trkpt>
      <trkpt lat="44.6675" lon="4.79392">
        <ele>84.400001525879</ele>
        <time>2024-05-21T13:36:51.000Z</time>
      </trkpt>
      <trkpt lat="44.66748" lon="4.79397">
        <ele>84.400001525879</ele>
        <time>2024-05-21T13:36:52.000Z</time>
      </trkpt>
      <trkpt lat="44.66745" lon="4.79406">
        <ele>84.400001525879</ele>
        <time>2024-05-21T13:36:53.000Z</time>
      </trkpt>
      <trkpt lat="44.66743" lon="4.79413">
        <ele>84.199996948242</ele>
        <time>2024-05-21T13:36:54.000Z</time>
      </trkpt>
      <trkpt lat="44.66742" lon="4.79422">
        <ele>84.199996948242</ele>
        <time>2024-05-21T13:36:55.000Z</time>
      </trkpt>
      <trkpt lat="44.66742" lon="4.79429">
        <ele>84.199996948242</ele>
        <time>2024-05-21T13:36:56.000Z</time>
      </trkpt>
      <trkpt lat="44.66742" lon="4.79435">
        <ele>84</ele>
        <time>2024-05-21T13:36:57.000Z</time>
      </trkpt>
      <trkpt lat="44.66741" lon="4.79443">
        <ele>84.199996948242</ele>
        <time>2024-05-21T13:36:58.000Z</time>
      </trkpt>
      <trkpt lat="44.6674" lon="4.79448">
        <ele>84.199996948242</ele>
        <time>2024-05-21T13:36:59.000Z</time>
      </trkpt>
      <trkpt lat="44.66739" lon="4.79455">
        <ele>84.199996948242</ele>
        <time>2024-05-21T13:37:00.000Z</time>
      </trkpt>
      <trkpt lat="44.66737" lon="4.79462">
        <ele>84.199996948242</ele>
        <time>2024-05-21T13:37:01.000Z</time>
      </trkpt>
      <trkpt lat="44.66736" lon="4.79468">
        <ele>84.400001525879</ele>
        <time>2024-05-21T13:37:02.000Z</time>
      </trkpt>
      <trkpt lat="44.66735" lon="4.79472">
        <ele>84.400001525879</ele>
        <time>2024-05-21T13:37:03.000Z</time>
      </trkpt>
      <trkpt lat="44.66735" lon="4.79478">
        <ele>84.599998474121</ele>
        <time>2024-05-21T13:37:04.000Z</time>
      </trkpt>
      <trkpt lat="44.66735" lon="4.79483">
        <ele>84.599998474121</ele>
        <time>2024-05-21T13:37:05.000Z</time>
      </trkpt>
      <trkpt lat="44.66735" lon="4.79486">
        <ele>84.800003051758</ele>
        <time>2024-05-21T13:37:06.000Z</time>
      </trkpt>
      <trkpt lat="44.66735" lon="4.79489">
        <ele>85</ele>
        <time>2024-05-21T13:37:07.000Z</time>
      </trkpt>
      <trkpt lat="44.66735" lon="4.79493">
        <ele>85.400001525879</ele>
        <time>2024-05-21T13:37:08.000Z</time>
      </trkpt>
      <trkpt lat="44.66736" lon="4.79496">
        <ele>85.599998474121</ele>
        <time>2024-05-21T13:37:09.000Z</time>
      </trkpt>
      <trkpt lat="44.66737" lon="4.795">
        <ele>85.800003051758</ele>
        <time>2024-05-21T13:37:10.000Z</time>
      </trkpt>
      <trkpt lat="44.66738" lon="4.79503">
        <ele>86</ele>
        <time>2024-05-21T13:37:11.000Z</time>
      </trkpt>
      <trkpt lat="44.66738" lon="4.79505">
        <ele>86</ele>
        <time>2024-05-21T13:37:12.000Z</time>
      </trkpt>
      <trkpt lat="44.66738" lon="4.79508">
        <ele>86</ele>
        <time>2024-05-21T13:37:13.000Z</time>
      </trkpt>
      <trkpt lat="44.66739" lon="4.7951">
        <ele>86</ele>
        <time>2024-05-21T13:37:14.000Z</time>
      </trkpt>
      <trkpt lat="44.66738" lon="4.79512">
        <ele>86.199996948242</ele>
        <time>2024-05-21T13:37:15.000Z</time>
      </trkpt>
      <trkpt lat="44.66738" lon="4.79513">
        <ele>86.400001525879</ele>
        <time>2024-05-21T13:37:16.000Z</time>
      </trkpt>
      <trkpt lat="44.66738" lon="4.79513">
        <ele>86.400001525879</ele>
        <time>2024-05-21T13:37:17.000Z</time>
      </trkpt>
    </trkseg>
  </trk>
</gpx>